<?xml version="1.0" encoding="UTF-8" standalone="no" ?>
<gpx xmlns="http://www.topografix.com/GPX/1/1" xmlns:xsi="http://www.w3.org/2001/XMLSchema-instance" xsi:schemaLocation="http://www.topografix.com/GPX/1/1 http://www.topografix.com/GPX/1/1/gpx.xsd" version="1.1" creator="VisuGPX - https://www.visugpx.com">
  <metadata>
    <name>Drome,H Alpes,Alpes de H Provence</name>
  </metadata>
  <trk>
    <name><![CDATA[Tracé 001]]></name>
    <extensions>
      <line xmlns="http://www.topografix.com/GPX/gpx_style/0/2">
        <color>0000FF</color>
        <width>4</width>
      </line>
    </extensions>
    <trkseg>
      <trkpt lat="44.29583" lon="4.83789">
        <ele>108</ele>
        <time>2021-08-30T08:19:36Z</time>
      </trkpt>
      <trkpt lat="44.2958" lon="4.83795">
        <ele>108.19999694824</ele>
        <time>2021-08-30T08:19:46Z</time>
      </trkpt>
      <trkpt lat="44.29578" lon="4.83804">
        <ele>108</ele>
        <time>2021-08-30T08:19:49Z</time>
      </trkpt>
      <trkpt lat="44.29574" lon="4.83806">
        <ele>108</ele>
        <time>2021-08-30T08:19:50Z</time>
      </trkpt>
      <trkpt lat="44.29566" lon="4.83805">
        <ele>107.59999847412</ele>
        <time>2021-08-30T08:19:52Z</time>
      </trkpt>
      <trkpt lat="44.29555" lon="4.83805">
        <ele>107.19999694824</ele>
        <time>2021-08-30T08:19:55Z</time>
      </trkpt>
      <trkpt lat="44.29551" lon="4.83806">
        <ele>107</ele>
        <time>2021-08-30T08:19:56Z</time>
      </trkpt>
      <trkpt lat="44.29546" lon="4.83807">
        <ele>106.80000305176</ele>
        <time>2021-08-30T08:19:57Z</time>
      </trkpt>
      <trkpt lat="44.29526" lon="4.8381">
        <ele>105.80000305176</ele>
        <time>2021-08-30T08:20:01Z</time>
      </trkpt>
      <trkpt lat="44.29511" lon="4.83811">
        <ele>104.80000305176</ele>
        <time>2021-08-30T08:20:04Z</time>
      </trkpt>
      <trkpt lat="44.29506" lon="4.83809">
        <ele>104.40000152588</ele>
        <time>2021-08-30T08:20:05Z</time>
      </trkpt>
      <trkpt lat="44.29495" lon="4.83808">
        <ele>103.40000152588</ele>
        <time>2021-08-30T08:20:07Z</time>
      </trkpt>
      <trkpt lat="44.29491" lon="4.83807">
        <ele>103</ele>
        <time>2021-08-30T08:20:08Z</time>
      </trkpt>
      <trkpt lat="44.29482" lon="4.83807">
        <ele>102.40000152588</ele>
        <time>2021-08-30T08:20:10Z</time>
      </trkpt>
      <trkpt lat="44.29477" lon="4.83808">
        <ele>102</ele>
        <time>2021-08-30T08:20:11Z</time>
      </trkpt>
      <trkpt lat="44.29471" lon="4.83809">
        <ele>101.59999847412</ele>
        <time>2021-08-30T08:20:12Z</time>
      </trkpt>
      <trkpt lat="44.29464" lon="4.8381">
        <ele>101</ele>
        <time>2021-08-30T08:20:13Z</time>
      </trkpt>
      <trkpt lat="44.29457" lon="4.83813">
        <ele>100.59999847412</ele>
        <time>2021-08-30T08:20:14Z</time>
      </trkpt>
      <trkpt lat="44.2945" lon="4.83815">
        <ele>100</ele>
        <time>2021-08-30T08:20:15Z</time>
      </trkpt>
      <trkpt lat="44.29444" lon="4.83816">
        <ele>98.599998474121</ele>
        <time>2021-08-30T08:20:16Z</time>
      </trkpt>
      <trkpt lat="44.29428" lon="4.83816">
        <ele>97</ele>
        <time>2021-08-30T08:20:18Z</time>
      </trkpt>
      <trkpt lat="44.2942" lon="4.83814">
        <ele>96.199996948242</ele>
        <time>2021-08-30T08:20:19Z</time>
      </trkpt>
      <trkpt lat="44.29411" lon="4.83813">
        <ele>95.400001525879</ele>
        <time>2021-08-30T08:20:20Z</time>
      </trkpt>
      <trkpt lat="44.29394" lon="4.8381">
        <ele>93.599998474121</ele>
        <time>2021-08-30T08:20:22Z</time>
      </trkpt>
      <trkpt lat="44.29382" lon="4.83808">
        <ele>92.199996948242</ele>
        <time>2021-08-30T08:20:24Z</time>
      </trkpt>
      <trkpt lat="44.29379" lon="4.83806">
        <ele>91.400001525879</ele>
        <time>2021-08-30T08:20:25Z</time>
      </trkpt>
      <trkpt lat="44.29374" lon="4.83803">
        <ele>90.599998474121</ele>
        <time>2021-08-30T08:20:26Z</time>
      </trkpt>
      <trkpt lat="44.2937" lon="4.83799">
        <ele>89.800003051758</ele>
        <time>2021-08-30T08:20:27Z</time>
      </trkpt>
      <trkpt lat="44.29366" lon="4.83793">
        <ele>89</ele>
        <time>2021-08-30T08:20:28Z</time>
      </trkpt>
      <trkpt lat="44.29363" lon="4.83788">
        <ele>88.400001525879</ele>
        <time>2021-08-30T08:20:29Z</time>
      </trkpt>
      <trkpt lat="44.29359" lon="4.83783">
        <ele>88</ele>
        <time>2021-08-30T08:20:30Z</time>
      </trkpt>
      <trkpt lat="44.29355" lon="4.83778">
        <ele>87.599998474121</ele>
        <time>2021-08-30T08:20:31Z</time>
      </trkpt>
      <trkpt lat="44.29351" lon="4.83772">
        <ele>87.400001525879</ele>
        <time>2021-08-30T08:20:32Z</time>
      </trkpt>
      <trkpt lat="44.29343" lon="4.83752">
        <ele>86.800003051758</ele>
        <time>2021-08-30T08:20:35Z</time>
      </trkpt>
      <trkpt lat="44.29335" lon="4.8374">
        <ele>85.400001525879</ele>
        <time>2021-08-30T08:20:38Z</time>
      </trkpt>
      <trkpt lat="44.29333" lon="4.83736">
        <ele>85</ele>
        <time>2021-08-30T08:20:39Z</time>
      </trkpt>
      <trkpt lat="44.2933" lon="4.83734">
        <ele>84.599998474121</ele>
        <time>2021-08-30T08:20:40Z</time>
      </trkpt>
      <trkpt lat="44.29322" lon="4.83738">
        <ele>84.400001525879</ele>
        <time>2021-08-30T08:20:42Z</time>
      </trkpt>
      <trkpt lat="44.29311" lon="4.83751">
        <ele>84.199996948242</ele>
        <time>2021-08-30T08:20:45Z</time>
      </trkpt>
      <trkpt lat="44.29306" lon="4.83755">
        <ele>84</ele>
        <time>2021-08-30T08:20:46Z</time>
      </trkpt>
      <trkpt lat="44.29284" lon="4.83773">
        <ele>83.400001525879</ele>
        <time>2021-08-30T08:20:51Z</time>
      </trkpt>
      <trkpt lat="44.29275" lon="4.8378">
        <ele>83.199996948242</ele>
        <time>2021-08-30T08:20:53Z</time>
      </trkpt>
      <trkpt lat="44.29243" lon="4.83802">
        <ele>83</ele>
        <time>2021-08-30T08:21:00Z</time>
      </trkpt>
      <trkpt lat="44.29214" lon="4.83823">
        <ele>82.800003051758</ele>
        <time>2021-08-30T08:21:07Z</time>
      </trkpt>
      <trkpt lat="44.29202" lon="4.8383">
        <ele>83</ele>
        <time>2021-08-30T08:21:10Z</time>
      </trkpt>
      <trkpt lat="44.29189" lon="4.83833">
        <ele>83.400001525879</ele>
        <time>2021-08-30T08:21:13Z</time>
      </trkpt>
      <trkpt lat="44.29156" lon="4.83836">
        <ele>84</ele>
        <time>2021-08-30T08:21:20Z</time>
      </trkpt>
      <trkpt lat="44.29122" lon="4.83838">
        <ele>84</ele>
        <time>2021-08-30T08:21:27Z</time>
      </trkpt>
      <trkpt lat="44.29117" lon="4.8384">
        <ele>84</ele>
        <time>2021-08-30T08:21:28Z</time>
      </trkpt>
      <trkpt lat="44.29113" lon="4.83843">
        <ele>84</ele>
        <time>2021-08-30T08:21:29Z</time>
      </trkpt>
      <trkpt lat="44.29101" lon="4.83857">
        <ele>83.800003051758</ele>
        <time>2021-08-30T08:21:32Z</time>
      </trkpt>
      <trkpt lat="44.29097" lon="4.83862">
        <ele>83.800003051758</ele>
        <time>2021-08-30T08:21:33Z</time>
      </trkpt>
      <trkpt lat="44.29073" lon="4.83904">
        <ele>84.199996948242</ele>
        <time>2021-08-30T08:21:41Z</time>
      </trkpt>
      <trkpt lat="44.29071" lon="4.83909">
        <ele>84.400001525879</ele>
        <time>2021-08-30T08:21:42Z</time>
      </trkpt>
      <trkpt lat="44.2906" lon="4.8393">
        <ele>85.199996948242</ele>
        <time>2021-08-30T08:21:47Z</time>
      </trkpt>
      <trkpt lat="44.29057" lon="4.83934">
        <ele>85.400001525879</ele>
        <time>2021-08-30T08:21:48Z</time>
      </trkpt>
      <trkpt lat="44.29041" lon="4.83952">
        <ele>86.199996948242</ele>
        <time>2021-08-30T08:21:54Z</time>
      </trkpt>
      <trkpt lat="44.29038" lon="4.83955">
        <ele>86.400001525879</ele>
        <time>2021-08-30T08:21:55Z</time>
      </trkpt>
      <trkpt lat="44.29024" lon="4.83963">
        <ele>86.800003051758</ele>
        <time>2021-08-30T08:22:00Z</time>
      </trkpt>
      <trkpt lat="44.29016" lon="4.83969">
        <ele>87.599998474121</ele>
        <time>2021-08-30T08:22:03Z</time>
      </trkpt>
      <trkpt lat="44.29008" lon="4.83974">
        <ele>88.599998474121</ele>
        <time>2021-08-30T08:22:06Z</time>
      </trkpt>
      <trkpt lat="44.29005" lon="4.83976">
        <ele>89</ele>
        <time>2021-08-30T08:22:07Z</time>
      </trkpt>
      <trkpt lat="44.28996" lon="4.8398">
        <ele>89.800003051758</ele>
        <time>2021-08-30T08:22:10Z</time>
      </trkpt>
      <trkpt lat="44.28993" lon="4.83979">
        <ele>90</ele>
        <time>2021-08-30T08:22:11Z</time>
      </trkpt>
      <trkpt lat="44.28977" lon="4.83974">
        <ele>91</ele>
        <time>2021-08-30T08:22:16Z</time>
      </trkpt>
      <trkpt lat="44.28968" lon="4.83971">
        <ele>91.400001525879</ele>
        <time>2021-08-30T08:22:19Z</time>
      </trkpt>
      <trkpt lat="44.28955" lon="4.83969">
        <ele>92</ele>
        <time>2021-08-30T08:22:23Z</time>
      </trkpt>
      <trkpt lat="44.28949" lon="4.8397">
        <ele>92.199996948242</ele>
        <time>2021-08-30T08:22:25Z</time>
      </trkpt>
      <trkpt lat="44.28931" lon="4.8397">
        <ele>93</ele>
        <time>2021-08-30T08:22:31Z</time>
      </trkpt>
      <trkpt lat="44.28929" lon="4.8397">
        <ele>93.199996948242</ele>
        <time>2021-08-30T08:22:32Z</time>
      </trkpt>
      <trkpt lat="44.28914" lon="4.83957">
        <ele>93.800003051758</ele>
        <time>2021-08-30T08:22:39Z</time>
      </trkpt>
      <trkpt lat="44.2891" lon="4.83952">
        <ele>94.199996948242</ele>
        <time>2021-08-30T08:22:42Z</time>
      </trkpt>
      <trkpt lat="44.28908" lon="4.83948">
        <ele>94.400001525879</ele>
        <time>2021-08-30T08:22:45Z</time>
      </trkpt>
      <trkpt lat="44.28911" lon="4.83948">
        <ele>95</ele>
        <time>2021-08-30T08:24:43Z</time>
      </trkpt>
      <trkpt lat="44.2891" lon="4.8395">
        <ele>94.599998474121</ele>
        <time>2021-08-30T08:24:51Z</time>
      </trkpt>
      <trkpt lat="44.2891" lon="4.8396">
        <ele>94.800003051758</ele>
        <time>2021-08-30T08:25:48Z</time>
      </trkpt>
      <trkpt lat="44.2891" lon="4.83962">
        <ele>95</ele>
        <time>2021-08-30T08:25:49Z</time>
      </trkpt>
      <trkpt lat="44.28915" lon="4.83976">
        <ele>94.800003051758</ele>
        <time>2021-08-30T08:25:54Z</time>
      </trkpt>
      <trkpt lat="44.2892" lon="4.83985">
        <ele>93.199996948242</ele>
        <time>2021-08-30T08:26:06Z</time>
      </trkpt>
      <trkpt lat="44.2892" lon="4.83991">
        <ele>93.199996948242</ele>
        <time>2021-08-30T08:26:08Z</time>
      </trkpt>
      <trkpt lat="44.28916" lon="4.8401">
        <ele>93.199996948242</ele>
        <time>2021-08-30T08:26:13Z</time>
      </trkpt>
      <trkpt lat="44.28913" lon="4.84017">
        <ele>94.400001525879</ele>
        <time>2021-08-30T08:26:15Z</time>
      </trkpt>
      <trkpt lat="44.28911" lon="4.8402">
        <ele>95.800003051758</ele>
        <time>2021-08-30T08:26:16Z</time>
      </trkpt>
      <trkpt lat="44.28905" lon="4.84033">
        <ele>95.800003051758</ele>
        <time>2021-08-30T08:26:20Z</time>
      </trkpt>
      <trkpt lat="44.28898" lon="4.84051">
        <ele>95.599998474121</ele>
        <time>2021-08-30T08:26:38Z</time>
      </trkpt>
      <trkpt lat="44.28897" lon="4.84057">
        <ele>95.400001525879</ele>
        <time>2021-08-30T08:26:41Z</time>
      </trkpt>
      <trkpt lat="44.28899" lon="4.84062">
        <ele>95.599998474121</ele>
        <time>2021-08-30T08:26:45Z</time>
      </trkpt>
      <trkpt lat="44.28894" lon="4.84064">
        <ele>95.199996948242</ele>
        <time>2021-08-30T08:28:28Z</time>
      </trkpt>
      <trkpt lat="44.28893" lon="4.84065">
        <ele>95.199996948242</ele>
        <time>2021-08-30T08:28:29Z</time>
      </trkpt>
      <trkpt lat="44.28889" lon="4.8407">
        <ele>95.400001525879</ele>
        <time>2021-08-30T08:28:32Z</time>
      </trkpt>
      <trkpt lat="44.28887" lon="4.84076">
        <ele>95.400001525879</ele>
        <time>2021-08-30T08:28:35Z</time>
      </trkpt>
      <trkpt lat="44.28884" lon="4.84079">
        <ele>95.400001525879</ele>
        <time>2021-08-30T08:28:37Z</time>
      </trkpt>
      <trkpt lat="44.2888" lon="4.84083">
        <ele>95.400001525879</ele>
        <time>2021-08-30T08:28:39Z</time>
      </trkpt>
      <trkpt lat="44.28875" lon="4.84088">
        <ele>95.800003051758</ele>
        <time>2021-08-30T08:28:41Z</time>
      </trkpt>
      <trkpt lat="44.28867" lon="4.84097">
        <ele>96</ele>
        <time>2021-08-30T08:28:44Z</time>
      </trkpt>
      <trkpt lat="44.28845" lon="4.84123">
        <ele>96.400001525879</ele>
        <time>2021-08-30T08:28:52Z</time>
      </trkpt>
      <trkpt lat="44.28837" lon="4.84132">
        <ele>96.800003051758</ele>
        <time>2021-08-30T08:28:55Z</time>
      </trkpt>
      <trkpt lat="44.28827" lon="4.84146">
        <ele>97</ele>
        <time>2021-08-30T08:28:59Z</time>
      </trkpt>
      <trkpt lat="44.2881" lon="4.84171">
        <ele>97.800003051758</ele>
        <time>2021-08-30T08:29:06Z</time>
      </trkpt>
      <trkpt lat="44.2879" lon="4.84198">
        <ele>97.800003051758</ele>
        <time>2021-08-30T08:29:13Z</time>
      </trkpt>
      <trkpt lat="44.2877" lon="4.84225">
        <ele>98.400001525879</ele>
        <time>2021-08-30T08:29:20Z</time>
      </trkpt>
      <trkpt lat="44.28748" lon="4.84255">
        <ele>99</ele>
        <time>2021-08-30T08:29:28Z</time>
      </trkpt>
      <trkpt lat="44.28727" lon="4.84287">
        <ele>100</ele>
        <time>2021-08-30T08:29:36Z</time>
      </trkpt>
      <trkpt lat="44.28724" lon="4.84292">
        <ele>100</ele>
        <time>2021-08-30T08:29:37Z</time>
      </trkpt>
      <trkpt lat="44.28707" lon="4.84315">
        <ele>100.80000305176</ele>
        <time>2021-08-30T08:29:43Z</time>
      </trkpt>
      <trkpt lat="44.28697" lon="4.84329">
        <ele>101</ele>
        <time>2021-08-30T08:29:48Z</time>
      </trkpt>
      <trkpt lat="44.28695" lon="4.84332">
        <ele>101</ele>
        <time>2021-08-30T08:29:49Z</time>
      </trkpt>
      <trkpt lat="44.28686" lon="4.8435">
        <ele>101.80000305176</ele>
        <time>2021-08-30T08:29:53Z</time>
      </trkpt>
      <trkpt lat="44.28682" lon="4.84361">
        <ele>102</ele>
        <time>2021-08-30T08:29:55Z</time>
      </trkpt>
      <trkpt lat="44.28674" lon="4.84386">
        <ele>102</ele>
        <time>2021-08-30T08:29:59Z</time>
      </trkpt>
      <trkpt lat="44.28657" lon="4.84436">
        <ele>101.80000305176</ele>
        <time>2021-08-30T08:30:07Z</time>
      </trkpt>
      <trkpt lat="44.2864" lon="4.8448">
        <ele>101.59999847412</ele>
        <time>2021-08-30T08:30:14Z</time>
      </trkpt>
      <trkpt lat="44.28623" lon="4.84517">
        <ele>102</ele>
        <time>2021-08-30T08:30:20Z</time>
      </trkpt>
      <trkpt lat="44.28617" lon="4.84529">
        <ele>102.19999694824</ele>
        <time>2021-08-30T08:30:22Z</time>
      </trkpt>
      <trkpt lat="44.28586" lon="4.8458">
        <ele>102</ele>
        <time>2021-08-30T08:30:31Z</time>
      </trkpt>
      <trkpt lat="44.28561" lon="4.84619">
        <ele>102.40000152588</ele>
        <time>2021-08-30T08:30:38Z</time>
      </trkpt>
      <trkpt lat="44.28532" lon="4.84667">
        <ele>102.80000305176</ele>
        <time>2021-08-30T08:30:46Z</time>
      </trkpt>
      <trkpt lat="44.28522" lon="4.84685">
        <ele>103.19999694824</ele>
        <time>2021-08-30T08:30:49Z</time>
      </trkpt>
      <trkpt lat="44.28499" lon="4.8473">
        <ele>103.40000152588</ele>
        <time>2021-08-30T08:30:56Z</time>
      </trkpt>
      <trkpt lat="44.28477" lon="4.84776">
        <ele>103.40000152588</ele>
        <time>2021-08-30T08:31:03Z</time>
      </trkpt>
      <trkpt lat="44.28444" lon="4.84843">
        <ele>103.19999694824</ele>
        <time>2021-08-30T08:31:13Z</time>
      </trkpt>
      <trkpt lat="44.28416" lon="4.84887">
        <ele>102.40000152588</ele>
        <time>2021-08-30T08:31:20Z</time>
      </trkpt>
      <trkpt lat="44.28382" lon="4.84935">
        <ele>102.80000305176</ele>
        <time>2021-08-30T08:31:28Z</time>
      </trkpt>
      <trkpt lat="44.28358" lon="4.84981">
        <ele>102.80000305176</ele>
        <time>2021-08-30T08:31:35Z</time>
      </trkpt>
      <trkpt lat="44.28334" lon="4.85045">
        <ele>103.80000305176</ele>
        <time>2021-08-30T08:31:44Z</time>
      </trkpt>
      <trkpt lat="44.28321" lon="4.85097">
        <ele>103.80000305176</ele>
        <time>2021-08-30T08:31:51Z</time>
      </trkpt>
      <trkpt lat="44.28311" lon="4.85142">
        <ele>104.19999694824</ele>
        <time>2021-08-30T08:31:57Z</time>
      </trkpt>
      <trkpt lat="44.28309" lon="4.85149">
        <ele>104.19999694824</ele>
        <time>2021-08-30T08:31:58Z</time>
      </trkpt>
      <trkpt lat="44.28296" lon="4.85208">
        <ele>104</ele>
        <time>2021-08-30T08:32:06Z</time>
      </trkpt>
      <trkpt lat="44.28282" lon="4.85272">
        <ele>104.80000305176</ele>
        <time>2021-08-30T08:32:15Z</time>
      </trkpt>
      <trkpt lat="44.28267" lon="4.85337">
        <ele>105.19999694824</ele>
        <time>2021-08-30T08:32:24Z</time>
      </trkpt>
      <trkpt lat="44.28253" lon="4.85395">
        <ele>105.80000305176</ele>
        <time>2021-08-30T08:32:32Z</time>
      </trkpt>
      <trkpt lat="44.28239" lon="4.85438">
        <ele>105.59999847412</ele>
        <time>2021-08-30T08:32:38Z</time>
      </trkpt>
      <trkpt lat="44.28218" lon="4.85494">
        <ele>105.40000152588</ele>
        <time>2021-08-30T08:32:46Z</time>
      </trkpt>
      <trkpt lat="44.28198" lon="4.8554">
        <ele>106</ele>
        <time>2021-08-30T08:32:53Z</time>
      </trkpt>
      <trkpt lat="44.28174" lon="4.85584">
        <ele>105.59999847412</ele>
        <time>2021-08-30T08:33:00Z</time>
      </trkpt>
      <trkpt lat="44.28158" lon="4.85607">
        <ele>106</ele>
        <time>2021-08-30T08:33:04Z</time>
      </trkpt>
      <trkpt lat="44.28146" lon="4.85623">
        <ele>106</ele>
        <time>2021-08-30T08:33:07Z</time>
      </trkpt>
      <trkpt lat="44.28121" lon="4.85655">
        <ele>106.40000152588</ele>
        <time>2021-08-30T08:33:13Z</time>
      </trkpt>
      <trkpt lat="44.2811" lon="4.85672">
        <ele>106.59999847412</ele>
        <time>2021-08-30T08:33:16Z</time>
      </trkpt>
      <trkpt lat="44.28075" lon="4.85723">
        <ele>106.80000305176</ele>
        <time>2021-08-30T08:33:25Z</time>
      </trkpt>
      <trkpt lat="44.28054" lon="4.8576">
        <ele>107.40000152588</ele>
        <time>2021-08-30T08:33:31Z</time>
      </trkpt>
      <trkpt lat="44.28042" lon="4.85787">
        <ele>108.40000152588</ele>
        <time>2021-08-30T08:33:35Z</time>
      </trkpt>
      <trkpt lat="44.28038" lon="4.85793">
        <ele>108.40000152588</ele>
        <time>2021-08-30T08:33:36Z</time>
      </trkpt>
      <trkpt lat="44.28016" lon="4.8584">
        <ele>108</ele>
        <time>2021-08-30T08:33:43Z</time>
      </trkpt>
      <trkpt lat="44.27986" lon="4.85902">
        <ele>108.19999694824</ele>
        <time>2021-08-30T08:33:52Z</time>
      </trkpt>
      <trkpt lat="44.2796" lon="4.85957">
        <ele>108.59999847412</ele>
        <time>2021-08-30T08:34:00Z</time>
      </trkpt>
      <trkpt lat="44.27932" lon="4.86017">
        <ele>109.19999694824</ele>
        <time>2021-08-30T08:34:09Z</time>
      </trkpt>
      <trkpt lat="44.27899" lon="4.86072">
        <ele>108.80000305176</ele>
        <time>2021-08-30T08:34:18Z</time>
      </trkpt>
      <trkpt lat="44.27863" lon="4.86114">
        <ele>108.59999847412</ele>
        <time>2021-08-30T08:34:26Z</time>
      </trkpt>
      <trkpt lat="44.27834" lon="4.86142">
        <ele>109.59999847412</ele>
        <time>2021-08-30T08:34:32Z</time>
      </trkpt>
      <trkpt lat="44.27824" lon="4.86151">
        <ele>109.80000305176</ele>
        <time>2021-08-30T08:34:34Z</time>
      </trkpt>
      <trkpt lat="44.27778" lon="4.86192">
        <ele>110.59999847412</ele>
        <time>2021-08-30T08:34:43Z</time>
      </trkpt>
      <trkpt lat="44.27768" lon="4.86202">
        <ele>110.59999847412</ele>
        <time>2021-08-30T08:34:45Z</time>
      </trkpt>
      <trkpt lat="44.27736" lon="4.86241">
        <ele>110.40000152588</ele>
        <time>2021-08-30T08:34:52Z</time>
      </trkpt>
      <trkpt lat="44.27729" lon="4.86254">
        <ele>110.59999847412</ele>
        <time>2021-08-30T08:34:54Z</time>
      </trkpt>
      <trkpt lat="44.2772" lon="4.86277">
        <ele>111</ele>
        <time>2021-08-30T08:34:57Z</time>
      </trkpt>
      <trkpt lat="44.27701" lon="4.8633">
        <ele>110.59999847412</ele>
        <time>2021-08-30T08:35:04Z</time>
      </trkpt>
      <trkpt lat="44.27684" lon="4.86382">
        <ele>111</ele>
        <time>2021-08-30T08:35:11Z</time>
      </trkpt>
      <trkpt lat="44.27664" lon="4.8645">
        <ele>111</ele>
        <time>2021-08-30T08:35:20Z</time>
      </trkpt>
      <trkpt lat="44.2764" lon="4.86526">
        <ele>110.59999847412</ele>
        <time>2021-08-30T08:35:30Z</time>
      </trkpt>
      <trkpt lat="44.27638" lon="4.86533">
        <ele>111</ele>
        <time>2021-08-30T08:35:31Z</time>
      </trkpt>
      <trkpt lat="44.27633" lon="4.86549">
        <ele>111.80000305176</ele>
        <time>2021-08-30T08:35:33Z</time>
      </trkpt>
      <trkpt lat="44.27617" lon="4.86601">
        <ele>112.40000152588</ele>
        <time>2021-08-30T08:35:40Z</time>
      </trkpt>
      <trkpt lat="44.276" lon="4.86661">
        <ele>112.80000305176</ele>
        <time>2021-08-30T08:35:48Z</time>
      </trkpt>
      <trkpt lat="44.27579" lon="4.86729">
        <ele>113.40000152588</ele>
        <time>2021-08-30T08:35:57Z</time>
      </trkpt>
      <trkpt lat="44.27559" lon="4.86797">
        <ele>113.59999847412</ele>
        <time>2021-08-30T08:36:06Z</time>
      </trkpt>
      <trkpt lat="44.27545" lon="4.86831">
        <ele>113.80000305176</ele>
        <time>2021-08-30T08:36:11Z</time>
      </trkpt>
      <trkpt lat="44.27533" lon="4.86857">
        <ele>114.19999694824</ele>
        <time>2021-08-30T08:36:15Z</time>
      </trkpt>
      <trkpt lat="44.27507" lon="4.86899">
        <ele>114.59999847412</ele>
        <time>2021-08-30T08:36:22Z</time>
      </trkpt>
      <trkpt lat="44.27488" lon="4.8692">
        <ele>114.59999847412</ele>
        <time>2021-08-30T08:36:26Z</time>
      </trkpt>
      <trkpt lat="44.27477" lon="4.86929">
        <ele>114.59999847412</ele>
        <time>2021-08-30T08:36:28Z</time>
      </trkpt>
      <trkpt lat="44.27437" lon="4.86963">
        <ele>114.40000152588</ele>
        <time>2021-08-30T08:36:35Z</time>
      </trkpt>
      <trkpt lat="44.2739" lon="4.87005">
        <ele>113.40000152588</ele>
        <time>2021-08-30T08:36:43Z</time>
      </trkpt>
      <trkpt lat="44.27384" lon="4.8701">
        <ele>113.19999694824</ele>
        <time>2021-08-30T08:36:44Z</time>
      </trkpt>
      <trkpt lat="44.27359" lon="4.87031">
        <ele>112.80000305176</ele>
        <time>2021-08-30T08:36:48Z</time>
      </trkpt>
      <trkpt lat="44.27335" lon="4.87051">
        <ele>112.19999694824</ele>
        <time>2021-08-30T08:36:52Z</time>
      </trkpt>
      <trkpt lat="44.2733" lon="4.87056">
        <ele>112.19999694824</ele>
        <time>2021-08-30T08:36:53Z</time>
      </trkpt>
      <trkpt lat="44.27318" lon="4.87067">
        <ele>111.80000305176</ele>
        <time>2021-08-30T08:36:55Z</time>
      </trkpt>
      <trkpt lat="44.27306" lon="4.87076">
        <ele>111.40000152588</ele>
        <time>2021-08-30T08:36:57Z</time>
      </trkpt>
      <trkpt lat="44.27282" lon="4.87097">
        <ele>111.40000152588</ele>
        <time>2021-08-30T08:37:01Z</time>
      </trkpt>
      <trkpt lat="44.27275" lon="4.87101">
        <ele>111.40000152588</ele>
        <time>2021-08-30T08:37:02Z</time>
      </trkpt>
      <trkpt lat="44.27239" lon="4.87119">
        <ele>111.19999694824</ele>
        <time>2021-08-30T08:37:07Z</time>
      </trkpt>
      <trkpt lat="44.27185" lon="4.87134">
        <ele>110.59999847412</ele>
        <time>2021-08-30T08:37:14Z</time>
      </trkpt>
      <trkpt lat="44.27177" lon="4.87136">
        <ele>110.59999847412</ele>
        <time>2021-08-30T08:37:15Z</time>
      </trkpt>
      <trkpt lat="44.27121" lon="4.8715">
        <ele>110.59999847412</ele>
        <time>2021-08-30T08:37:22Z</time>
      </trkpt>
      <trkpt lat="44.27105" lon="4.87154">
        <ele>110.80000305176</ele>
        <time>2021-08-30T08:37:24Z</time>
      </trkpt>
      <trkpt lat="44.27045" lon="4.87173">
        <ele>110.80000305176</ele>
        <time>2021-08-30T08:37:32Z</time>
      </trkpt>
      <trkpt lat="44.27009" lon="4.87197">
        <ele>110.40000152588</ele>
        <time>2021-08-30T08:37:37Z</time>
      </trkpt>
      <trkpt lat="44.26962" lon="4.87239">
        <ele>109.80000305176</ele>
        <time>2021-08-30T08:37:44Z</time>
      </trkpt>
      <trkpt lat="44.26949" lon="4.87251">
        <ele>109.80000305176</ele>
        <time>2021-08-30T08:37:46Z</time>
      </trkpt>
      <trkpt lat="44.26898" lon="4.87298">
        <ele>110.19999694824</ele>
        <time>2021-08-30T08:37:54Z</time>
      </trkpt>
      <trkpt lat="44.26885" lon="4.87309">
        <ele>110.19999694824</ele>
        <time>2021-08-30T08:37:56Z</time>
      </trkpt>
      <trkpt lat="44.2683" lon="4.87348">
        <ele>110.19999694824</ele>
        <time>2021-08-30T08:38:04Z</time>
      </trkpt>
      <trkpt lat="44.26776" lon="4.87384">
        <ele>110.59999847412</ele>
        <time>2021-08-30T08:38:12Z</time>
      </trkpt>
      <trkpt lat="44.26763" lon="4.87394">
        <ele>110.59999847412</ele>
        <time>2021-08-30T08:38:14Z</time>
      </trkpt>
      <trkpt lat="44.26708" lon="4.87429">
        <ele>110.59999847412</ele>
        <time>2021-08-30T08:38:22Z</time>
      </trkpt>
      <trkpt lat="44.26695" lon="4.87438">
        <ele>110.80000305176</ele>
        <time>2021-08-30T08:38:24Z</time>
      </trkpt>
      <trkpt lat="44.26647" lon="4.87469">
        <ele>111.40000152588</ele>
        <time>2021-08-30T08:38:31Z</time>
      </trkpt>
      <trkpt lat="44.26592" lon="4.87504">
        <ele>111.59999847412</ele>
        <time>2021-08-30T08:38:39Z</time>
      </trkpt>
      <trkpt lat="44.26572" lon="4.87518">
        <ele>111.19999694824</ele>
        <time>2021-08-30T08:38:42Z</time>
      </trkpt>
      <trkpt lat="44.26516" lon="4.87554">
        <ele>111</ele>
        <time>2021-08-30T08:38:50Z</time>
      </trkpt>
      <trkpt lat="44.26495" lon="4.87568">
        <ele>111.19999694824</ele>
        <time>2021-08-30T08:38:53Z</time>
      </trkpt>
      <trkpt lat="44.2644" lon="4.87605">
        <ele>111.19999694824</ele>
        <time>2021-08-30T08:39:01Z</time>
      </trkpt>
      <trkpt lat="44.26426" lon="4.87614">
        <ele>111.19999694824</ele>
        <time>2021-08-30T08:39:03Z</time>
      </trkpt>
      <trkpt lat="44.26372" lon="4.87649">
        <ele>111.59999847412</ele>
        <time>2021-08-30T08:39:11Z</time>
      </trkpt>
      <trkpt lat="44.26317" lon="4.87684">
        <ele>112</ele>
        <time>2021-08-30T08:39:19Z</time>
      </trkpt>
      <trkpt lat="44.26263" lon="4.87719">
        <ele>112</ele>
        <time>2021-08-30T08:39:27Z</time>
      </trkpt>
      <trkpt lat="44.2625" lon="4.87728">
        <ele>111.80000305176</ele>
        <time>2021-08-30T08:39:29Z</time>
      </trkpt>
      <trkpt lat="44.26195" lon="4.87764">
        <ele>111.80000305176</ele>
        <time>2021-08-30T08:39:37Z</time>
      </trkpt>
      <trkpt lat="44.26188" lon="4.87769">
        <ele>111.80000305176</ele>
        <time>2021-08-30T08:39:38Z</time>
      </trkpt>
      <trkpt lat="44.26134" lon="4.87806">
        <ele>112</ele>
        <time>2021-08-30T08:39:46Z</time>
      </trkpt>
      <trkpt lat="44.26127" lon="4.8781">
        <ele>112</ele>
        <time>2021-08-30T08:39:47Z</time>
      </trkpt>
      <trkpt lat="44.26089" lon="4.87838">
        <ele>113</ele>
        <time>2021-08-30T08:39:53Z</time>
      </trkpt>
      <trkpt lat="44.26039" lon="4.87886">
        <ele>112.80000305176</ele>
        <time>2021-08-30T08:40:01Z</time>
      </trkpt>
      <trkpt lat="44.26034" lon="4.87892">
        <ele>112.80000305176</ele>
        <time>2021-08-30T08:40:02Z</time>
      </trkpt>
      <trkpt lat="44.25994" lon="4.87938">
        <ele>112.19999694824</ele>
        <time>2021-08-30T08:40:09Z</time>
      </trkpt>
      <trkpt lat="44.25981" lon="4.87951">
        <ele>112</ele>
        <time>2021-08-30T08:40:11Z</time>
      </trkpt>
      <trkpt lat="44.25946" lon="4.87989">
        <ele>112.59999847412</ele>
        <time>2021-08-30T08:40:17Z</time>
      </trkpt>
      <trkpt lat="44.25924" lon="4.88013">
        <ele>113.19999694824</ele>
        <time>2021-08-30T08:40:21Z</time>
      </trkpt>
      <trkpt lat="44.25907" lon="4.88031">
        <ele>113.19999694824</ele>
        <time>2021-08-30T08:40:24Z</time>
      </trkpt>
      <trkpt lat="44.25861" lon="4.88076">
        <ele>113</ele>
        <time>2021-08-30T08:40:32Z</time>
      </trkpt>
      <trkpt lat="44.25812" lon="4.88118">
        <ele>112.40000152588</ele>
        <time>2021-08-30T08:40:40Z</time>
      </trkpt>
      <trkpt lat="44.25806" lon="4.88123">
        <ele>112.59999847412</ele>
        <time>2021-08-30T08:40:41Z</time>
      </trkpt>
      <trkpt lat="44.25756" lon="4.88164">
        <ele>112.19999694824</ele>
        <time>2021-08-30T08:40:49Z</time>
      </trkpt>
      <trkpt lat="44.25749" lon="4.88169">
        <ele>112.19999694824</ele>
        <time>2021-08-30T08:40:50Z</time>
      </trkpt>
      <trkpt lat="44.25723" lon="4.88187">
        <ele>112</ele>
        <time>2021-08-30T08:40:54Z</time>
      </trkpt>
      <trkpt lat="44.25704" lon="4.882">
        <ele>112</ele>
        <time>2021-08-30T08:40:57Z</time>
      </trkpt>
      <trkpt lat="44.2565" lon="4.88236">
        <ele>111.40000152588</ele>
        <time>2021-08-30T08:41:05Z</time>
      </trkpt>
      <trkpt lat="44.25643" lon="4.8824">
        <ele>111.40000152588</ele>
        <time>2021-08-30T08:41:06Z</time>
      </trkpt>
      <trkpt lat="44.2559" lon="4.88276">
        <ele>111.40000152588</ele>
        <time>2021-08-30T08:41:14Z</time>
      </trkpt>
      <trkpt lat="44.25583" lon="4.88281">
        <ele>111.40000152588</ele>
        <time>2021-08-30T08:41:15Z</time>
      </trkpt>
      <trkpt lat="44.25528" lon="4.88319">
        <ele>111.80000305176</ele>
        <time>2021-08-30T08:41:23Z</time>
      </trkpt>
      <trkpt lat="44.25479" lon="4.88347">
        <ele>111.80000305176</ele>
        <time>2021-08-30T08:41:30Z</time>
      </trkpt>
      <trkpt lat="44.25424" lon="4.88364">
        <ele>111.80000305176</ele>
        <time>2021-08-30T08:41:37Z</time>
      </trkpt>
      <trkpt lat="44.25372" lon="4.88371">
        <ele>112.19999694824</ele>
        <time>2021-08-30T08:41:44Z</time>
      </trkpt>
      <trkpt lat="44.25318" lon="4.8838">
        <ele>112.59999847412</ele>
        <time>2021-08-30T08:41:51Z</time>
      </trkpt>
      <trkpt lat="44.2531" lon="4.88381">
        <ele>112.59999847412</ele>
        <time>2021-08-30T08:41:52Z</time>
      </trkpt>
      <trkpt lat="44.25259" lon="4.8839">
        <ele>112.59999847412</ele>
        <time>2021-08-30T08:41:59Z</time>
      </trkpt>
      <trkpt lat="44.25208" lon="4.884">
        <ele>112.40000152588</ele>
        <time>2021-08-30T08:42:06Z</time>
      </trkpt>
      <trkpt lat="44.25154" lon="4.88409">
        <ele>112</ele>
        <time>2021-08-30T08:42:13Z</time>
      </trkpt>
      <trkpt lat="44.25147" lon="4.88411">
        <ele>112</ele>
        <time>2021-08-30T08:42:14Z</time>
      </trkpt>
      <trkpt lat="44.25091" lon="4.88421">
        <ele>111.19999694824</ele>
        <time>2021-08-30T08:42:21Z</time>
      </trkpt>
      <trkpt lat="44.25076" lon="4.88425">
        <ele>111</ele>
        <time>2021-08-30T08:42:23Z</time>
      </trkpt>
      <trkpt lat="44.25038" lon="4.88435">
        <ele>111</ele>
        <time>2021-08-30T08:42:28Z</time>
      </trkpt>
      <trkpt lat="44.24979" lon="4.88451">
        <ele>110.80000305176</ele>
        <time>2021-08-30T08:42:36Z</time>
      </trkpt>
      <trkpt lat="44.24939" lon="4.88469">
        <ele>110.40000152588</ele>
        <time>2021-08-30T08:42:42Z</time>
      </trkpt>
      <trkpt lat="44.24903" lon="4.88492">
        <ele>110.40000152588</ele>
        <time>2021-08-30T08:42:48Z</time>
      </trkpt>
      <trkpt lat="44.24854" lon="4.88527">
        <ele>111.19999694824</ele>
        <time>2021-08-30T08:42:56Z</time>
      </trkpt>
      <trkpt lat="44.24804" lon="4.88555">
        <ele>111</ele>
        <time>2021-08-30T08:43:04Z</time>
      </trkpt>
      <trkpt lat="44.24772" lon="4.8856">
        <ele>110.59999847412</ele>
        <time>2021-08-30T08:43:09Z</time>
      </trkpt>
      <trkpt lat="44.24726" lon="4.88562">
        <ele>110.80000305176</ele>
        <time>2021-08-30T08:43:16Z</time>
      </trkpt>
      <trkpt lat="44.24693" lon="4.88565">
        <ele>111.19999694824</ele>
        <time>2021-08-30T08:43:22Z</time>
      </trkpt>
      <trkpt lat="44.24666" lon="4.88568">
        <ele>111.19999694824</ele>
        <time>2021-08-30T08:43:28Z</time>
      </trkpt>
      <trkpt lat="44.2466" lon="4.88569">
        <ele>110.80000305176</ele>
        <time>2021-08-30T08:43:37Z</time>
      </trkpt>
      <trkpt lat="44.24651" lon="4.88578">
        <ele>110.80000305176</ele>
        <time>2021-08-30T08:43:41Z</time>
      </trkpt>
      <trkpt lat="44.24648" lon="4.8858">
        <ele>110.80000305176</ele>
        <time>2021-08-30T08:43:42Z</time>
      </trkpt>
      <trkpt lat="44.24642" lon="4.88581">
        <ele>111</ele>
        <time>2021-08-30T08:43:45Z</time>
      </trkpt>
      <trkpt lat="44.24636" lon="4.88581">
        <ele>111.19999694824</ele>
        <time>2021-08-30T08:44:20Z</time>
      </trkpt>
      <trkpt lat="44.24631" lon="4.88583">
        <ele>111.19999694824</ele>
        <time>2021-08-30T08:44:22Z</time>
      </trkpt>
      <trkpt lat="44.24616" lon="4.88584">
        <ele>111.40000152588</ele>
        <time>2021-08-30T08:44:27Z</time>
      </trkpt>
      <trkpt lat="44.24608" lon="4.88588">
        <ele>111.40000152588</ele>
        <time>2021-08-30T08:44:29Z</time>
      </trkpt>
      <trkpt lat="44.24602" lon="4.88596">
        <ele>111.40000152588</ele>
        <time>2021-08-30T08:44:31Z</time>
      </trkpt>
      <trkpt lat="44.24596" lon="4.88616">
        <ele>111.40000152588</ele>
        <time>2021-08-30T08:44:34Z</time>
      </trkpt>
      <trkpt lat="44.24595" lon="4.88623">
        <ele>111.40000152588</ele>
        <time>2021-08-30T08:44:35Z</time>
      </trkpt>
      <trkpt lat="44.24583" lon="4.88664">
        <ele>111</ele>
        <time>2021-08-30T08:44:41Z</time>
      </trkpt>
      <trkpt lat="44.24568" lon="4.88715">
        <ele>110.40000152588</ele>
        <time>2021-08-30T08:44:48Z</time>
      </trkpt>
      <trkpt lat="44.24557" lon="4.88743">
        <ele>110.59999847412</ele>
        <time>2021-08-30T08:44:52Z</time>
      </trkpt>
      <trkpt lat="44.24547" lon="4.88759">
        <ele>110.80000305176</ele>
        <time>2021-08-30T08:44:55Z</time>
      </trkpt>
      <trkpt lat="44.24532" lon="4.88775">
        <ele>110.80000305176</ele>
        <time>2021-08-30T08:44:59Z</time>
      </trkpt>
      <trkpt lat="44.24522" lon="4.88782">
        <ele>110.59999847412</ele>
        <time>2021-08-30T08:45:01Z</time>
      </trkpt>
      <trkpt lat="44.24514" lon="4.8879">
        <ele>110.40000152588</ele>
        <time>2021-08-30T08:45:03Z</time>
      </trkpt>
      <trkpt lat="44.24512" lon="4.88802">
        <ele>110.19999694824</ele>
        <time>2021-08-30T08:45:05Z</time>
      </trkpt>
      <trkpt lat="44.24514" lon="4.88818">
        <ele>110</ele>
        <time>2021-08-30T08:45:08Z</time>
      </trkpt>
      <trkpt lat="44.24515" lon="4.88823">
        <ele>110</ele>
        <time>2021-08-30T08:45:09Z</time>
      </trkpt>
      <trkpt lat="44.24517" lon="4.88834">
        <ele>110.19999694824</ele>
        <time>2021-08-30T08:45:11Z</time>
      </trkpt>
      <trkpt lat="44.24519" lon="4.8886">
        <ele>110.19999694824</ele>
        <time>2021-08-30T08:45:15Z</time>
      </trkpt>
      <trkpt lat="44.24522" lon="4.88889">
        <ele>110.80000305176</ele>
        <time>2021-08-30T08:45:19Z</time>
      </trkpt>
      <trkpt lat="44.24523" lon="4.88904">
        <ele>110.80000305176</ele>
        <time>2021-08-30T08:45:21Z</time>
      </trkpt>
      <trkpt lat="44.24529" lon="4.8897">
        <ele>111.80000305176</ele>
        <time>2021-08-30T08:45:30Z</time>
      </trkpt>
      <trkpt lat="44.2453" lon="4.88985">
        <ele>111.80000305176</ele>
        <time>2021-08-30T08:45:32Z</time>
      </trkpt>
      <trkpt lat="44.24531" lon="4.89016">
        <ele>111.59999847412</ele>
        <time>2021-08-30T08:45:36Z</time>
      </trkpt>
      <trkpt lat="44.24534" lon="4.89067">
        <ele>112.19999694824</ele>
        <time>2021-08-30T08:45:43Z</time>
      </trkpt>
      <trkpt lat="44.24535" lon="4.89073">
        <ele>112.59999847412</ele>
        <time>2021-08-30T08:45:44Z</time>
      </trkpt>
      <trkpt lat="44.24538" lon="4.89134">
        <ele>112.40000152588</ele>
        <time>2021-08-30T08:45:53Z</time>
      </trkpt>
      <trkpt lat="44.2454" lon="4.89181">
        <ele>113</ele>
        <time>2021-08-30T08:46:00Z</time>
      </trkpt>
      <trkpt lat="44.24542" lon="4.892">
        <ele>113.19999694824</ele>
        <time>2021-08-30T08:46:03Z</time>
      </trkpt>
      <trkpt lat="44.24541" lon="4.8922">
        <ele>113.40000152588</ele>
        <time>2021-08-30T08:46:06Z</time>
      </trkpt>
      <trkpt lat="44.24539" lon="4.89233">
        <ele>113.59999847412</ele>
        <time>2021-08-30T08:46:08Z</time>
      </trkpt>
      <trkpt lat="44.24528" lon="4.89255">
        <ele>113.59999847412</ele>
        <time>2021-08-30T08:46:12Z</time>
      </trkpt>
      <trkpt lat="44.24514" lon="4.89261">
        <ele>114</ele>
        <time>2021-08-30T08:46:15Z</time>
      </trkpt>
      <trkpt lat="44.24508" lon="4.89262">
        <ele>114</ele>
        <time>2021-08-30T08:46:16Z</time>
      </trkpt>
      <trkpt lat="44.24492" lon="4.89265">
        <ele>114.19999694824</ele>
        <time>2021-08-30T08:46:19Z</time>
      </trkpt>
      <trkpt lat="44.2447" lon="4.89271">
        <ele>114.40000152588</ele>
        <time>2021-08-30T08:46:23Z</time>
      </trkpt>
      <trkpt lat="44.24436" lon="4.89283">
        <ele>114.19999694824</ele>
        <time>2021-08-30T08:46:29Z</time>
      </trkpt>
      <trkpt lat="44.24391" lon="4.89301">
        <ele>113.80000305176</ele>
        <time>2021-08-30T08:46:36Z</time>
      </trkpt>
      <trkpt lat="44.24373" lon="4.89315">
        <ele>113.59999847412</ele>
        <time>2021-08-30T08:46:39Z</time>
      </trkpt>
      <trkpt lat="44.24362" lon="4.89326">
        <ele>113.40000152588</ele>
        <time>2021-08-30T08:46:41Z</time>
      </trkpt>
      <trkpt lat="44.24352" lon="4.89338">
        <ele>113.40000152588</ele>
        <time>2021-08-30T08:46:43Z</time>
      </trkpt>
      <trkpt lat="44.24339" lon="4.89359">
        <ele>113.40000152588</ele>
        <time>2021-08-30T08:46:46Z</time>
      </trkpt>
      <trkpt lat="44.24323" lon="4.89397">
        <ele>113.59999847412</ele>
        <time>2021-08-30T08:46:51Z</time>
      </trkpt>
      <trkpt lat="44.24304" lon="4.89443">
        <ele>114.59999847412</ele>
        <time>2021-08-30T08:46:57Z</time>
      </trkpt>
      <trkpt lat="44.24289" lon="4.89483">
        <ele>114.80000305176</ele>
        <time>2021-08-30T08:47:02Z</time>
      </trkpt>
      <trkpt lat="44.24286" lon="4.89491">
        <ele>114.59999847412</ele>
        <time>2021-08-30T08:47:03Z</time>
      </trkpt>
      <trkpt lat="44.24272" lon="4.89541">
        <ele>114.19999694824</ele>
        <time>2021-08-30T08:47:09Z</time>
      </trkpt>
      <trkpt lat="44.24261" lon="4.89599">
        <ele>114.59999847412</ele>
        <time>2021-08-30T08:47:16Z</time>
      </trkpt>
      <trkpt lat="44.24255" lon="4.89649">
        <ele>114.59999847412</ele>
        <time>2021-08-30T08:47:22Z</time>
      </trkpt>
      <trkpt lat="44.24251" lon="4.89701">
        <ele>114.80000305176</ele>
        <time>2021-08-30T08:47:28Z</time>
      </trkpt>
      <trkpt lat="44.24244" lon="4.89778">
        <ele>114.59999847412</ele>
        <time>2021-08-30T08:47:37Z</time>
      </trkpt>
      <trkpt lat="44.24233" lon="4.89837">
        <ele>115</ele>
        <time>2021-08-30T08:47:44Z</time>
      </trkpt>
      <trkpt lat="44.24226" lon="4.8987">
        <ele>115.19999694824</ele>
        <time>2021-08-30T08:47:48Z</time>
      </trkpt>
      <trkpt lat="44.24214" lon="4.8992">
        <ele>115.19999694824</ele>
        <time>2021-08-30T08:47:54Z</time>
      </trkpt>
      <trkpt lat="44.24193" lon="4.89994">
        <ele>115.80000305176</ele>
        <time>2021-08-30T08:48:03Z</time>
      </trkpt>
      <trkpt lat="44.24177" lon="4.90041">
        <ele>115.80000305176</ele>
        <time>2021-08-30T08:48:09Z</time>
      </trkpt>
      <trkpt lat="44.24157" lon="4.90106">
        <ele>116</ele>
        <time>2021-08-30T08:48:17Z</time>
      </trkpt>
      <trkpt lat="44.24152" lon="4.90121">
        <ele>116.40000152588</ele>
        <time>2021-08-30T08:48:19Z</time>
      </trkpt>
      <trkpt lat="44.2414" lon="4.90161">
        <ele>116.59999847412</ele>
        <time>2021-08-30T08:48:24Z</time>
      </trkpt>
      <trkpt lat="44.24121" lon="4.90222">
        <ele>117.40000152588</ele>
        <time>2021-08-30T08:48:32Z</time>
      </trkpt>
      <trkpt lat="44.24102" lon="4.90283">
        <ele>118</ele>
        <time>2021-08-30T08:48:40Z</time>
      </trkpt>
      <trkpt lat="44.24086" lon="4.90336">
        <ele>117.80000305176</ele>
        <time>2021-08-30T08:48:47Z</time>
      </trkpt>
      <trkpt lat="44.24064" lon="4.90406">
        <ele>117.80000305176</ele>
        <time>2021-08-30T08:48:56Z</time>
      </trkpt>
      <trkpt lat="44.24045" lon="4.90466">
        <ele>118.40000152588</ele>
        <time>2021-08-30T08:49:04Z</time>
      </trkpt>
      <trkpt lat="44.24043" lon="4.90474">
        <ele>118.40000152588</ele>
        <time>2021-08-30T08:49:05Z</time>
      </trkpt>
      <trkpt lat="44.24025" lon="4.90533">
        <ele>118.80000305176</ele>
        <time>2021-08-30T08:49:13Z</time>
      </trkpt>
      <trkpt lat="44.24007" lon="4.90592">
        <ele>119.19999694824</ele>
        <time>2021-08-30T08:49:21Z</time>
      </trkpt>
      <trkpt lat="44.24" lon="4.90613">
        <ele>119.59999847412</ele>
        <time>2021-08-30T08:49:24Z</time>
      </trkpt>
      <trkpt lat="44.23986" lon="4.90657">
        <ele>120</ele>
        <time>2021-08-30T08:49:30Z</time>
      </trkpt>
      <trkpt lat="44.23968" lon="4.90716">
        <ele>119.59999847412</ele>
        <time>2021-08-30T08:49:38Z</time>
      </trkpt>
      <trkpt lat="44.2395" lon="4.90774">
        <ele>119.80000305176</ele>
        <time>2021-08-30T08:49:46Z</time>
      </trkpt>
      <trkpt lat="44.23924" lon="4.90846">
        <ele>120.19999694824</ele>
        <time>2021-08-30T08:49:56Z</time>
      </trkpt>
      <trkpt lat="44.23902" lon="4.90895">
        <ele>120.59999847412</ele>
        <time>2021-08-30T08:50:03Z</time>
      </trkpt>
      <trkpt lat="44.23894" lon="4.90908">
        <ele>120.59999847412</ele>
        <time>2021-08-30T08:50:05Z</time>
      </trkpt>
      <trkpt lat="44.23866" lon="4.90949">
        <ele>120.80000305176</ele>
        <time>2021-08-30T08:50:12Z</time>
      </trkpt>
      <trkpt lat="44.23837" lon="4.9098">
        <ele>120.40000152588</ele>
        <time>2021-08-30T08:50:18Z</time>
      </trkpt>
      <trkpt lat="44.23793" lon="4.9101">
        <ele>120</ele>
        <time>2021-08-30T08:50:25Z</time>
      </trkpt>
      <trkpt lat="44.23735" lon="4.91037">
        <ele>119.80000305176</ele>
        <time>2021-08-30T08:50:33Z</time>
      </trkpt>
      <trkpt lat="44.23705" lon="4.91047">
        <ele>119.59999847412</ele>
        <time>2021-08-30T08:50:37Z</time>
      </trkpt>
      <trkpt lat="44.23666" lon="4.91059">
        <ele>119.19999694824</ele>
        <time>2021-08-30T08:50:42Z</time>
      </trkpt>
      <trkpt lat="44.2361" lon="4.91075">
        <ele>119.40000152588</ele>
        <time>2021-08-30T08:50:49Z</time>
      </trkpt>
      <trkpt lat="44.23553" lon="4.91092">
        <ele>119.40000152588</ele>
        <time>2021-08-30T08:50:56Z</time>
      </trkpt>
      <trkpt lat="44.23537" lon="4.91097">
        <ele>119.40000152588</ele>
        <time>2021-08-30T08:50:58Z</time>
      </trkpt>
      <trkpt lat="44.23478" lon="4.91114">
        <ele>118.80000305176</ele>
        <time>2021-08-30T08:51:05Z</time>
      </trkpt>
      <trkpt lat="44.23461" lon="4.91119">
        <ele>118.80000305176</ele>
        <time>2021-08-30T08:51:07Z</time>
      </trkpt>
      <trkpt lat="44.23401" lon="4.91138">
        <ele>118.80000305176</ele>
        <time>2021-08-30T08:51:14Z</time>
      </trkpt>
      <trkpt lat="44.23384" lon="4.91146">
        <ele>118.59999847412</ele>
        <time>2021-08-30T08:51:16Z</time>
      </trkpt>
      <trkpt lat="44.23376" lon="4.9115">
        <ele>118.40000152588</ele>
        <time>2021-08-30T08:51:17Z</time>
      </trkpt>
      <trkpt lat="44.23335" lon="4.91175">
        <ele>118.19999694824</ele>
        <time>2021-08-30T08:51:22Z</time>
      </trkpt>
      <trkpt lat="44.23282" lon="4.9122">
        <ele>119</ele>
        <time>2021-08-30T08:51:29Z</time>
      </trkpt>
      <trkpt lat="44.23275" lon="4.91228">
        <ele>119</ele>
        <time>2021-08-30T08:51:30Z</time>
      </trkpt>
      <trkpt lat="44.23237" lon="4.91277">
        <ele>118.59999847412</ele>
        <time>2021-08-30T08:51:36Z</time>
      </trkpt>
      <trkpt lat="44.23198" lon="4.91341">
        <ele>118.59999847412</ele>
        <time>2021-08-30T08:51:43Z</time>
      </trkpt>
      <trkpt lat="44.23193" lon="4.91349">
        <ele>118.59999847412</ele>
        <time>2021-08-30T08:51:44Z</time>
      </trkpt>
      <trkpt lat="44.23157" lon="4.9141">
        <ele>118.80000305176</ele>
        <time>2021-08-30T08:51:51Z</time>
      </trkpt>
      <trkpt lat="44.23151" lon="4.91419">
        <ele>118.59999847412</ele>
        <time>2021-08-30T08:51:52Z</time>
      </trkpt>
      <trkpt lat="44.23117" lon="4.91477">
        <ele>118.40000152588</ele>
        <time>2021-08-30T08:51:59Z</time>
      </trkpt>
      <trkpt lat="44.23112" lon="4.91485">
        <ele>118.19999694824</ele>
        <time>2021-08-30T08:52:00Z</time>
      </trkpt>
      <trkpt lat="44.23073" lon="4.9155">
        <ele>118.40000152588</ele>
        <time>2021-08-30T08:52:08Z</time>
      </trkpt>
      <trkpt lat="44.23064" lon="4.91567">
        <ele>118.40000152588</ele>
        <time>2021-08-30T08:52:10Z</time>
      </trkpt>
      <trkpt lat="44.23031" lon="4.91636">
        <ele>118</ele>
        <time>2021-08-30T08:52:18Z</time>
      </trkpt>
      <trkpt lat="44.23008" lon="4.91709">
        <ele>117.80000305176</ele>
        <time>2021-08-30T08:52:26Z</time>
      </trkpt>
      <trkpt lat="44.22995" lon="4.91785">
        <ele>118</ele>
        <time>2021-08-30T08:52:34Z</time>
      </trkpt>
      <trkpt lat="44.22988" lon="4.9185">
        <ele>118.19999694824</ele>
        <time>2021-08-30T08:52:41Z</time>
      </trkpt>
      <trkpt lat="44.22987" lon="4.91913">
        <ele>119.40000152588</ele>
        <time>2021-08-30T08:52:48Z</time>
      </trkpt>
      <trkpt lat="44.22982" lon="4.91965">
        <ele>119.59999847412</ele>
        <time>2021-08-30T08:52:54Z</time>
      </trkpt>
      <trkpt lat="44.22988" lon="4.91988">
        <ele>119.40000152588</ele>
        <time>2021-08-30T08:52:57Z</time>
      </trkpt>
      <trkpt lat="44.22988" lon="4.91995">
        <ele>119.40000152588</ele>
        <time>2021-08-30T08:52:58Z</time>
      </trkpt>
      <trkpt lat="44.2299" lon="4.92019">
        <ele>119.59999847412</ele>
        <time>2021-08-30T08:53:01Z</time>
      </trkpt>
      <trkpt lat="44.22992" lon="4.92079">
        <ele>120.40000152588</ele>
        <time>2021-08-30T08:53:09Z</time>
      </trkpt>
      <trkpt lat="44.22992" lon="4.92087">
        <ele>120.59999847412</ele>
        <time>2021-08-30T08:53:10Z</time>
      </trkpt>
      <trkpt lat="44.22996" lon="4.92141">
        <ele>120.80000305176</ele>
        <time>2021-08-30T08:53:17Z</time>
      </trkpt>
      <trkpt lat="44.22996" lon="4.92201">
        <ele>121.59999847412</ele>
        <time>2021-08-30T08:53:24Z</time>
      </trkpt>
      <trkpt lat="44.22996" lon="4.92252">
        <ele>122</ele>
        <time>2021-08-30T08:53:30Z</time>
      </trkpt>
      <trkpt lat="44.22994" lon="4.9226">
        <ele>122</ele>
        <time>2021-08-30T08:53:31Z</time>
      </trkpt>
      <trkpt lat="44.22994" lon="4.92277">
        <ele>122.19999694824</ele>
        <time>2021-08-30T08:53:33Z</time>
      </trkpt>
      <trkpt lat="44.22994" lon="4.92301">
        <ele>122.19999694824</ele>
        <time>2021-08-30T08:53:36Z</time>
      </trkpt>
      <trkpt lat="44.22994" lon="4.92347">
        <ele>122.59999847412</ele>
        <time>2021-08-30T08:53:42Z</time>
      </trkpt>
      <trkpt lat="44.22994" lon="4.92354">
        <ele>122.59999847412</ele>
        <time>2021-08-30T08:53:43Z</time>
      </trkpt>
      <trkpt lat="44.22994" lon="4.92432">
        <ele>123</ele>
        <time>2021-08-30T08:53:53Z</time>
      </trkpt>
      <trkpt lat="44.22995" lon="4.92447">
        <ele>123.59999847412</ele>
        <time>2021-08-30T08:53:55Z</time>
      </trkpt>
      <trkpt lat="44.22995" lon="4.92454">
        <ele>123.80000305176</ele>
        <time>2021-08-30T08:53:56Z</time>
      </trkpt>
      <trkpt lat="44.22995" lon="4.92504">
        <ele>124.80000305176</ele>
        <time>2021-08-30T08:54:03Z</time>
      </trkpt>
      <trkpt lat="44.22995" lon="4.92511">
        <ele>125</ele>
        <time>2021-08-30T08:54:04Z</time>
      </trkpt>
      <trkpt lat="44.22995" lon="4.92545">
        <ele>126.19999694824</ele>
        <time>2021-08-30T08:54:09Z</time>
      </trkpt>
      <trkpt lat="44.22996" lon="4.92571">
        <ele>127.19999694824</ele>
        <time>2021-08-30T08:54:13Z</time>
      </trkpt>
      <trkpt lat="44.22996" lon="4.92622">
        <ele>128.19999694824</ele>
        <time>2021-08-30T08:54:21Z</time>
      </trkpt>
      <trkpt lat="44.22997" lon="4.92671">
        <ele>129.39999389648</ele>
        <time>2021-08-30T08:54:29Z</time>
      </trkpt>
      <trkpt lat="44.22997" lon="4.92684">
        <ele>129.60000610352</ele>
        <time>2021-08-30T08:54:31Z</time>
      </trkpt>
      <trkpt lat="44.22997" lon="4.92726">
        <ele>130.39999389648</ele>
        <time>2021-08-30T08:54:38Z</time>
      </trkpt>
      <trkpt lat="44.22997" lon="4.92732">
        <ele>130.60000610352</ele>
        <time>2021-08-30T08:54:39Z</time>
      </trkpt>
      <trkpt lat="44.22997" lon="4.92757">
        <ele>131.60000610352</ele>
        <time>2021-08-30T08:54:43Z</time>
      </trkpt>
      <trkpt lat="44.22997" lon="4.92798">
        <ele>132.60000610352</ele>
        <time>2021-08-30T08:54:50Z</time>
      </trkpt>
      <trkpt lat="44.22997" lon="4.92842">
        <ele>133.19999694824</ele>
        <time>2021-08-30T08:54:58Z</time>
      </trkpt>
      <trkpt lat="44.22999" lon="4.92876">
        <ele>133.39999389648</ele>
        <time>2021-08-30T08:55:04Z</time>
      </trkpt>
      <trkpt lat="44.22999" lon="4.92905">
        <ele>133.80000305176</ele>
        <time>2021-08-30T08:55:09Z</time>
      </trkpt>
      <trkpt lat="44.22999" lon="4.92922">
        <ele>135</ele>
        <time>2021-08-30T08:55:12Z</time>
      </trkpt>
      <trkpt lat="44.22999" lon="4.92927">
        <ele>135.19999694824</ele>
        <time>2021-08-30T08:55:13Z</time>
      </trkpt>
      <trkpt lat="44.22999" lon="4.92951">
        <ele>136</ele>
        <time>2021-08-30T08:55:17Z</time>
      </trkpt>
      <trkpt lat="44.23" lon="4.92979">
        <ele>137</ele>
        <time>2021-08-30T08:55:22Z</time>
      </trkpt>
      <trkpt lat="44.23" lon="4.92985">
        <ele>137.19999694824</ele>
        <time>2021-08-30T08:55:23Z</time>
      </trkpt>
      <trkpt lat="44.22999" lon="4.93025">
        <ele>138.19999694824</ele>
        <time>2021-08-30T08:55:30Z</time>
      </trkpt>
      <trkpt lat="44.23" lon="4.93042">
        <ele>138.39999389648</ele>
        <time>2021-08-30T08:55:33Z</time>
      </trkpt>
      <trkpt lat="44.23" lon="4.93082">
        <ele>139.19999694824</ele>
        <time>2021-08-30T08:55:40Z</time>
      </trkpt>
      <trkpt lat="44.23" lon="4.93088">
        <ele>139.39999389648</ele>
        <time>2021-08-30T08:55:41Z</time>
      </trkpt>
      <trkpt lat="44.23002" lon="4.93122">
        <ele>140.39999389648</ele>
        <time>2021-08-30T08:55:47Z</time>
      </trkpt>
      <trkpt lat="44.23001" lon="4.93139">
        <ele>140.60000610352</ele>
        <time>2021-08-30T08:55:50Z</time>
      </trkpt>
      <trkpt lat="44.22997" lon="4.93172">
        <ele>141.19999694824</ele>
        <time>2021-08-30T08:55:56Z</time>
      </trkpt>
      <trkpt lat="44.22995" lon="4.93182">
        <ele>141.39999389648</ele>
        <time>2021-08-30T08:55:58Z</time>
      </trkpt>
      <trkpt lat="44.22998" lon="4.93199">
        <ele>142</ele>
        <time>2021-08-30T08:56:02Z</time>
      </trkpt>
      <trkpt lat="44.23003" lon="4.93205">
        <ele>142.39999389648</ele>
        <time>2021-08-30T08:56:04Z</time>
      </trkpt>
      <trkpt lat="44.2301" lon="4.9321">
        <ele>143</ele>
        <time>2021-08-30T08:56:07Z</time>
      </trkpt>
      <trkpt lat="44.23016" lon="4.93223">
        <ele>143.39999389648</ele>
        <time>2021-08-30T08:56:12Z</time>
      </trkpt>
      <trkpt lat="44.23024" lon="4.93243">
        <ele>144.19999694824</ele>
        <time>2021-08-30T08:56:18Z</time>
      </trkpt>
      <trkpt lat="44.23026" lon="4.93245">
        <ele>144.39999389648</ele>
        <time>2021-08-30T08:56:19Z</time>
      </trkpt>
      <trkpt lat="44.23036" lon="4.93258">
        <ele>145.19999694824</ele>
        <time>2021-08-30T08:56:25Z</time>
      </trkpt>
      <trkpt lat="44.2304" lon="4.93261">
        <ele>145.60000610352</ele>
        <time>2021-08-30T08:56:27Z</time>
      </trkpt>
      <trkpt lat="44.23046" lon="4.93269">
        <ele>146.60000610352</ele>
        <time>2021-08-30T08:56:31Z</time>
      </trkpt>
      <trkpt lat="44.23048" lon="4.93271">
        <ele>146.80000305176</ele>
        <time>2021-08-30T08:56:32Z</time>
      </trkpt>
      <trkpt lat="44.23056" lon="4.93281">
        <ele>147.60000610352</ele>
        <time>2021-08-30T08:56:37Z</time>
      </trkpt>
      <trkpt lat="44.23059" lon="4.93285">
        <ele>147.80000305176</ele>
        <time>2021-08-30T08:56:39Z</time>
      </trkpt>
      <trkpt lat="44.23066" lon="4.93293">
        <ele>149</ele>
        <time>2021-08-30T08:56:43Z</time>
      </trkpt>
      <trkpt lat="44.23074" lon="4.93303">
        <ele>149.80000305176</ele>
        <time>2021-08-30T08:56:48Z</time>
      </trkpt>
      <trkpt lat="44.23076" lon="4.93305">
        <ele>150</ele>
        <time>2021-08-30T08:56:49Z</time>
      </trkpt>
      <trkpt lat="44.23092" lon="4.93322">
        <ele>151.19999694824</ele>
        <time>2021-08-30T08:56:55Z</time>
      </trkpt>
      <trkpt lat="44.23103" lon="4.93333">
        <ele>152.39999389648</ele>
        <time>2021-08-30T08:57:00Z</time>
      </trkpt>
      <trkpt lat="44.23108" lon="4.9334">
        <ele>153</ele>
        <time>2021-08-30T08:57:03Z</time>
      </trkpt>
      <trkpt lat="44.23116" lon="4.93349">
        <ele>153.60000610352</ele>
        <time>2021-08-30T08:57:07Z</time>
      </trkpt>
      <trkpt lat="44.23125" lon="4.93359">
        <ele>154.60000610352</ele>
        <time>2021-08-30T08:57:12Z</time>
      </trkpt>
      <trkpt lat="44.23127" lon="4.9336">
        <ele>154.80000305176</ele>
        <time>2021-08-30T08:57:13Z</time>
      </trkpt>
      <trkpt lat="44.23135" lon="4.93365">
        <ele>155.80000305176</ele>
        <time>2021-08-30T08:57:17Z</time>
      </trkpt>
      <trkpt lat="44.23142" lon="4.93369">
        <ele>156.60000610352</ele>
        <time>2021-08-30T08:57:20Z</time>
      </trkpt>
      <trkpt lat="44.23148" lon="4.93374">
        <ele>157</ele>
        <time>2021-08-30T08:57:23Z</time>
      </trkpt>
      <trkpt lat="44.23153" lon="4.93386">
        <ele>157.39999389648</ele>
        <time>2021-08-30T08:57:27Z</time>
      </trkpt>
      <trkpt lat="44.23155" lon="4.93401">
        <ele>158</ele>
        <time>2021-08-30T08:57:31Z</time>
      </trkpt>
      <trkpt lat="44.23156" lon="4.93412">
        <ele>158.39999389648</ele>
        <time>2021-08-30T08:57:34Z</time>
      </trkpt>
      <trkpt lat="44.23159" lon="4.93434">
        <ele>159.19999694824</ele>
        <time>2021-08-30T08:57:40Z</time>
      </trkpt>
      <trkpt lat="44.23161" lon="4.93437">
        <ele>159.19999694824</ele>
        <time>2021-08-30T08:57:41Z</time>
      </trkpt>
      <trkpt lat="44.23165" lon="4.9345">
        <ele>160.19999694824</ele>
        <time>2021-08-30T08:57:45Z</time>
      </trkpt>
      <trkpt lat="44.2317" lon="4.93459">
        <ele>160.80000305176</ele>
        <time>2021-08-30T08:57:48Z</time>
      </trkpt>
      <trkpt lat="44.23185" lon="4.93475">
        <ele>161.39999389648</ele>
        <time>2021-08-30T08:57:55Z</time>
      </trkpt>
      <trkpt lat="44.23203" lon="4.93489">
        <ele>162.39999389648</ele>
        <time>2021-08-30T08:58:02Z</time>
      </trkpt>
      <trkpt lat="44.23208" lon="4.93492">
        <ele>163.19999694824</ele>
        <time>2021-08-30T08:58:04Z</time>
      </trkpt>
      <trkpt lat="44.23214" lon="4.93495">
        <ele>163.60000610352</ele>
        <time>2021-08-30T08:58:06Z</time>
      </trkpt>
      <trkpt lat="44.23231" lon="4.93504">
        <ele>163.80000305176</ele>
        <time>2021-08-30T08:58:12Z</time>
      </trkpt>
      <trkpt lat="44.23242" lon="4.93511">
        <ele>164.80000305176</ele>
        <time>2021-08-30T08:58:16Z</time>
      </trkpt>
      <trkpt lat="44.23256" lon="4.93519">
        <ele>165.80000305176</ele>
        <time>2021-08-30T08:58:21Z</time>
      </trkpt>
      <trkpt lat="44.23262" lon="4.93522">
        <ele>166.19999694824</ele>
        <time>2021-08-30T08:58:23Z</time>
      </trkpt>
      <trkpt lat="44.23271" lon="4.93528">
        <ele>166.80000305176</ele>
        <time>2021-08-30T08:58:26Z</time>
      </trkpt>
      <trkpt lat="44.2328" lon="4.93533">
        <ele>167.19999694824</ele>
        <time>2021-08-30T08:58:29Z</time>
      </trkpt>
      <trkpt lat="44.23304" lon="4.93546">
        <ele>167.80000305176</ele>
        <time>2021-08-30T08:58:36Z</time>
      </trkpt>
      <trkpt lat="44.23308" lon="4.93548">
        <ele>167.80000305176</ele>
        <time>2021-08-30T08:58:37Z</time>
      </trkpt>
      <trkpt lat="44.23335" lon="4.93563">
        <ele>167.19999694824</ele>
        <time>2021-08-30T08:58:43Z</time>
      </trkpt>
      <trkpt lat="44.23346" lon="4.9357">
        <ele>166.80000305176</ele>
        <time>2021-08-30T08:58:45Z</time>
      </trkpt>
      <trkpt lat="44.23359" lon="4.93581">
        <ele>166.39999389648</ele>
        <time>2021-08-30T08:58:48Z</time>
      </trkpt>
      <trkpt lat="44.23362" lon="4.93588">
        <ele>166.19999694824</ele>
        <time>2021-08-30T08:58:49Z</time>
      </trkpt>
      <trkpt lat="44.2337" lon="4.93608">
        <ele>165.60000610352</ele>
        <time>2021-08-30T08:58:52Z</time>
      </trkpt>
      <trkpt lat="44.23374" lon="4.93623">
        <ele>163.80000305176</ele>
        <time>2021-08-30T08:58:54Z</time>
      </trkpt>
      <trkpt lat="44.23376" lon="4.93631">
        <ele>162.80000305176</ele>
        <time>2021-08-30T08:58:55Z</time>
      </trkpt>
      <trkpt lat="44.23378" lon="4.93638">
        <ele>162.39999389648</ele>
        <time>2021-08-30T08:58:56Z</time>
      </trkpt>
      <trkpt lat="44.23388" lon="4.93668">
        <ele>161.19999694824</ele>
        <time>2021-08-30T08:59:00Z</time>
      </trkpt>
      <trkpt lat="44.23393" lon="4.93692">
        <ele>160.39999389648</ele>
        <time>2021-08-30T08:59:03Z</time>
      </trkpt>
      <trkpt lat="44.23406" lon="4.93735">
        <ele>160.60000610352</ele>
        <time>2021-08-30T08:59:09Z</time>
      </trkpt>
      <trkpt lat="44.23415" lon="4.93763">
        <ele>160.19999694824</ele>
        <time>2021-08-30T08:59:13Z</time>
      </trkpt>
      <trkpt lat="44.23418" lon="4.9377">
        <ele>160</ele>
        <time>2021-08-30T08:59:14Z</time>
      </trkpt>
      <trkpt lat="44.23426" lon="4.93789">
        <ele>160</ele>
        <time>2021-08-30T08:59:17Z</time>
      </trkpt>
      <trkpt lat="44.23444" lon="4.93826">
        <ele>161.19999694824</ele>
        <time>2021-08-30T08:59:24Z</time>
      </trkpt>
      <trkpt lat="44.23461" lon="4.93863">
        <ele>162.19999694824</ele>
        <time>2021-08-30T08:59:31Z</time>
      </trkpt>
      <trkpt lat="44.23468" lon="4.93878">
        <ele>162.39999389648</ele>
        <time>2021-08-30T08:59:34Z</time>
      </trkpt>
      <trkpt lat="44.23492" lon="4.93919">
        <ele>163.19999694824</ele>
        <time>2021-08-30T08:59:43Z</time>
      </trkpt>
      <trkpt lat="44.23494" lon="4.93923">
        <ele>163.39999389648</ele>
        <time>2021-08-30T08:59:44Z</time>
      </trkpt>
      <trkpt lat="44.23508" lon="4.93948">
        <ele>164</ele>
        <time>2021-08-30T08:59:50Z</time>
      </trkpt>
      <trkpt lat="44.23513" lon="4.9397">
        <ele>164.60000610352</ele>
        <time>2021-08-30T08:59:55Z</time>
      </trkpt>
      <trkpt lat="44.23513" lon="4.9398">
        <ele>165</ele>
        <time>2021-08-30T08:59:57Z</time>
      </trkpt>
      <trkpt lat="44.23513" lon="4.93993">
        <ele>165.60000610352</ele>
        <time>2021-08-30T09:00:00Z</time>
      </trkpt>
      <trkpt lat="44.23513" lon="4.94015">
        <ele>167</ele>
        <time>2021-08-30T09:00:05Z</time>
      </trkpt>
      <trkpt lat="44.23513" lon="4.94023">
        <ele>167.39999389648</ele>
        <time>2021-08-30T09:00:07Z</time>
      </trkpt>
      <trkpt lat="44.23515" lon="4.94047">
        <ele>168</ele>
        <time>2021-08-30T09:00:13Z</time>
      </trkpt>
      <trkpt lat="44.23516" lon="4.94054">
        <ele>168.19999694824</ele>
        <time>2021-08-30T09:00:15Z</time>
      </trkpt>
      <trkpt lat="44.23518" lon="4.94066">
        <ele>169</ele>
        <time>2021-08-30T09:00:19Z</time>
      </trkpt>
      <trkpt lat="44.2352" lon="4.94067">
        <ele>169.19999694824</ele>
        <time>2021-08-30T09:00:20Z</time>
      </trkpt>
      <trkpt lat="44.23523" lon="4.94068">
        <ele>169.60000610352</ele>
        <time>2021-08-30T09:00:21Z</time>
      </trkpt>
      <trkpt lat="44.23527" lon="4.94071">
        <ele>170</ele>
        <time>2021-08-30T09:00:23Z</time>
      </trkpt>
      <trkpt lat="44.23529" lon="4.94072">
        <ele>170.19999694824</ele>
        <time>2021-08-30T09:00:24Z</time>
      </trkpt>
      <trkpt lat="44.23534" lon="4.94075">
        <ele>170.60000610352</ele>
        <time>2021-08-30T09:00:26Z</time>
      </trkpt>
      <trkpt lat="44.23542" lon="4.94078">
        <ele>171.19999694824</ele>
        <time>2021-08-30T09:00:29Z</time>
      </trkpt>
      <trkpt lat="44.23553" lon="4.9408">
        <ele>172.19999694824</ele>
        <time>2021-08-30T09:00:34Z</time>
      </trkpt>
      <trkpt lat="44.23556" lon="4.9408">
        <ele>172.39999389648</ele>
        <time>2021-08-30T09:00:35Z</time>
      </trkpt>
      <trkpt lat="44.23572" lon="4.94079">
        <ele>173.39999389648</ele>
        <time>2021-08-30T09:00:41Z</time>
      </trkpt>
      <trkpt lat="44.23577" lon="4.9408">
        <ele>174</ele>
        <time>2021-08-30T09:00:43Z</time>
      </trkpt>
      <trkpt lat="44.23585" lon="4.94079">
        <ele>174.39999389648</ele>
        <time>2021-08-30T09:00:46Z</time>
      </trkpt>
      <trkpt lat="44.236" lon="4.94081">
        <ele>175.60000610352</ele>
        <time>2021-08-30T09:00:52Z</time>
      </trkpt>
      <trkpt lat="44.2362" lon="4.9408">
        <ele>176</ele>
        <time>2021-08-30T09:01:00Z</time>
      </trkpt>
      <trkpt lat="44.23627" lon="4.94081">
        <ele>176.60000610352</ele>
        <time>2021-08-30T09:01:03Z</time>
      </trkpt>
      <trkpt lat="44.2364" lon="4.94081">
        <ele>177.19999694824</ele>
        <time>2021-08-30T09:01:08Z</time>
      </trkpt>
      <trkpt lat="44.23652" lon="4.94082">
        <ele>177.60000610352</ele>
        <time>2021-08-30T09:01:13Z</time>
      </trkpt>
      <trkpt lat="44.23657" lon="4.94083">
        <ele>177.80000305176</ele>
        <time>2021-08-30T09:01:15Z</time>
      </trkpt>
      <trkpt lat="44.2367" lon="4.94084">
        <ele>178.80000305176</ele>
        <time>2021-08-30T09:01:20Z</time>
      </trkpt>
      <trkpt lat="44.23681" lon="4.94086">
        <ele>179.39999389648</ele>
        <time>2021-08-30T09:01:24Z</time>
      </trkpt>
      <trkpt lat="44.23691" lon="4.94089">
        <ele>179.80000305176</ele>
        <time>2021-08-30T09:01:28Z</time>
      </trkpt>
      <trkpt lat="44.23699" lon="4.94092">
        <ele>180.39999389648</ele>
        <time>2021-08-30T09:01:31Z</time>
      </trkpt>
      <trkpt lat="44.23704" lon="4.94095">
        <ele>181</ele>
        <time>2021-08-30T09:01:33Z</time>
      </trkpt>
      <trkpt lat="44.23716" lon="4.94101">
        <ele>181.80000305176</ele>
        <time>2021-08-30T09:01:38Z</time>
      </trkpt>
      <trkpt lat="44.2372" lon="4.94103">
        <ele>182.19999694824</ele>
        <time>2021-08-30T09:01:40Z</time>
      </trkpt>
      <trkpt lat="44.23735" lon="4.94111">
        <ele>183</ele>
        <time>2021-08-30T09:01:46Z</time>
      </trkpt>
      <trkpt lat="44.2374" lon="4.94112">
        <ele>183.19999694824</ele>
        <time>2021-08-30T09:01:48Z</time>
      </trkpt>
      <trkpt lat="44.23749" lon="4.94116">
        <ele>184.39999389648</ele>
        <time>2021-08-30T09:01:52Z</time>
      </trkpt>
      <trkpt lat="44.23765" lon="4.94124">
        <ele>185.39999389648</ele>
        <time>2021-08-30T09:01:59Z</time>
      </trkpt>
      <trkpt lat="44.23786" lon="4.94134">
        <ele>186.39999389648</ele>
        <time>2021-08-30T09:02:08Z</time>
      </trkpt>
      <trkpt lat="44.23789" lon="4.94135">
        <ele>186.60000610352</ele>
        <time>2021-08-30T09:02:09Z</time>
      </trkpt>
      <trkpt lat="44.23802" lon="4.94146">
        <ele>187.60000610352</ele>
        <time>2021-08-30T09:02:15Z</time>
      </trkpt>
      <trkpt lat="44.23806" lon="4.94151">
        <ele>188</ele>
        <time>2021-08-30T09:02:17Z</time>
      </trkpt>
      <trkpt lat="44.23818" lon="4.94171">
        <ele>188.80000305176</ele>
        <time>2021-08-30T09:02:25Z</time>
      </trkpt>
      <trkpt lat="44.23826" lon="4.94183">
        <ele>189.80000305176</ele>
        <time>2021-08-30T09:02:30Z</time>
      </trkpt>
      <trkpt lat="44.2383" lon="4.94187">
        <ele>190.19999694824</ele>
        <time>2021-08-30T09:02:32Z</time>
      </trkpt>
      <trkpt lat="44.23838" lon="4.94192">
        <ele>191</ele>
        <time>2021-08-30T09:02:36Z</time>
      </trkpt>
      <trkpt lat="44.23842" lon="4.94194">
        <ele>191.39999389648</ele>
        <time>2021-08-30T09:02:38Z</time>
      </trkpt>
      <trkpt lat="44.23851" lon="4.94198">
        <ele>192</ele>
        <time>2021-08-30T09:02:42Z</time>
      </trkpt>
      <trkpt lat="44.23863" lon="4.94201">
        <ele>192.60000610352</ele>
        <time>2021-08-30T09:02:47Z</time>
      </trkpt>
      <trkpt lat="44.2387" lon="4.94202">
        <ele>193</ele>
        <time>2021-08-30T09:02:50Z</time>
      </trkpt>
      <trkpt lat="44.23877" lon="4.94203">
        <ele>193.39999389648</ele>
        <time>2021-08-30T09:02:53Z</time>
      </trkpt>
      <trkpt lat="44.23884" lon="4.94205">
        <ele>194.19999694824</ele>
        <time>2021-08-30T09:02:56Z</time>
      </trkpt>
      <trkpt lat="44.23896" lon="4.94207">
        <ele>195</ele>
        <time>2021-08-30T09:03:01Z</time>
      </trkpt>
      <trkpt lat="44.23901" lon="4.94208">
        <ele>195.19999694824</ele>
        <time>2021-08-30T09:03:03Z</time>
      </trkpt>
      <trkpt lat="44.23912" lon="4.9421">
        <ele>196.39999389648</ele>
        <time>2021-08-30T09:03:08Z</time>
      </trkpt>
      <trkpt lat="44.23919" lon="4.94211">
        <ele>197</ele>
        <time>2021-08-30T09:03:11Z</time>
      </trkpt>
      <trkpt lat="44.23926" lon="4.94209">
        <ele>197.39999389648</ele>
        <time>2021-08-30T09:03:14Z</time>
      </trkpt>
      <trkpt lat="44.23933" lon="4.94207">
        <ele>197.60000610352</ele>
        <time>2021-08-30T09:03:17Z</time>
      </trkpt>
      <trkpt lat="44.23947" lon="4.94202">
        <ele>198.60000610352</ele>
        <time>2021-08-30T09:03:23Z</time>
      </trkpt>
      <trkpt lat="44.23949" lon="4.94201">
        <ele>198.80000305176</ele>
        <time>2021-08-30T09:03:24Z</time>
      </trkpt>
      <trkpt lat="44.2396" lon="4.94194">
        <ele>199.60000610352</ele>
        <time>2021-08-30T09:03:29Z</time>
      </trkpt>
      <trkpt lat="44.23967" lon="4.9419">
        <ele>200.19999694824</ele>
        <time>2021-08-30T09:03:32Z</time>
      </trkpt>
      <trkpt lat="44.23973" lon="4.94186">
        <ele>200.80000305176</ele>
        <time>2021-08-30T09:03:35Z</time>
      </trkpt>
      <trkpt lat="44.2398" lon="4.94183">
        <ele>201</ele>
        <time>2021-08-30T09:03:38Z</time>
      </trkpt>
      <trkpt lat="44.23991" lon="4.94192">
        <ele>201.39999389648</ele>
        <time>2021-08-30T09:03:43Z</time>
      </trkpt>
      <trkpt lat="44.23991" lon="4.94196">
        <ele>201.39999389648</ele>
        <time>2021-08-30T09:03:44Z</time>
      </trkpt>
      <trkpt lat="44.23986" lon="4.94204">
        <ele>201.80000305176</ele>
        <time>2021-08-30T09:03:47Z</time>
      </trkpt>
      <trkpt lat="44.23973" lon="4.94212">
        <ele>202.80000305176</ele>
        <time>2021-08-30T09:03:53Z</time>
      </trkpt>
      <trkpt lat="44.23969" lon="4.94216">
        <ele>203.80000305176</ele>
        <time>2021-08-30T09:04:30Z</time>
      </trkpt>
      <trkpt lat="44.23963" lon="4.94233">
        <ele>203.80000305176</ele>
        <time>2021-08-30T09:04:35Z</time>
      </trkpt>
      <trkpt lat="44.23965" lon="4.94246">
        <ele>204</ele>
        <time>2021-08-30T09:04:38Z</time>
      </trkpt>
      <trkpt lat="44.23966" lon="4.9425">
        <ele>204.19999694824</ele>
        <time>2021-08-30T09:04:39Z</time>
      </trkpt>
      <trkpt lat="44.23975" lon="4.94266">
        <ele>205</ele>
        <time>2021-08-30T09:04:44Z</time>
      </trkpt>
      <trkpt lat="44.23979" lon="4.94272">
        <ele>205.19999694824</ele>
        <time>2021-08-30T09:04:46Z</time>
      </trkpt>
      <trkpt lat="44.23992" lon="4.94292">
        <ele>206</ele>
        <time>2021-08-30T09:04:53Z</time>
      </trkpt>
      <trkpt lat="44.23998" lon="4.94304">
        <ele>206.80000305176</ele>
        <time>2021-08-30T09:04:57Z</time>
      </trkpt>
      <trkpt lat="44.24002" lon="4.94309">
        <ele>207.19999694824</ele>
        <time>2021-08-30T09:04:59Z</time>
      </trkpt>
      <trkpt lat="44.24012" lon="4.94325">
        <ele>208</ele>
        <time>2021-08-30T09:05:05Z</time>
      </trkpt>
      <trkpt lat="44.24015" lon="4.9433">
        <ele>208.60000610352</ele>
        <time>2021-08-30T09:05:07Z</time>
      </trkpt>
      <trkpt lat="44.24019" lon="4.94334">
        <ele>209.39999389648</ele>
        <time>2021-08-30T09:05:09Z</time>
      </trkpt>
      <trkpt lat="44.24024" lon="4.94336">
        <ele>209.60000610352</ele>
        <time>2021-08-30T09:05:11Z</time>
      </trkpt>
      <trkpt lat="44.24026" lon="4.94335">
        <ele>209.80000305176</ele>
        <time>2021-08-30T09:05:12Z</time>
      </trkpt>
      <trkpt lat="44.24029" lon="4.94333">
        <ele>210</ele>
        <time>2021-08-30T09:05:13Z</time>
      </trkpt>
      <trkpt lat="44.24034" lon="4.94326">
        <ele>210.80000305176</ele>
        <time>2021-08-30T09:05:16Z</time>
      </trkpt>
      <trkpt lat="44.24036" lon="4.9432">
        <ele>211.19999694824</ele>
        <time>2021-08-30T09:05:18Z</time>
      </trkpt>
      <trkpt lat="44.2404" lon="4.94306">
        <ele>211.80000305176</ele>
        <time>2021-08-30T09:05:22Z</time>
      </trkpt>
      <trkpt lat="44.24042" lon="4.94299">
        <ele>212.19999694824</ele>
        <time>2021-08-30T09:05:24Z</time>
      </trkpt>
      <trkpt lat="44.24045" lon="4.94281">
        <ele>213</ele>
        <time>2021-08-30T09:05:29Z</time>
      </trkpt>
      <trkpt lat="44.24049" lon="4.94268">
        <ele>213.60000610352</ele>
        <time>2021-08-30T09:05:33Z</time>
      </trkpt>
      <trkpt lat="44.24051" lon="4.94261">
        <ele>214</ele>
        <time>2021-08-30T09:05:35Z</time>
      </trkpt>
      <trkpt lat="44.24061" lon="4.94251">
        <ele>215</ele>
        <time>2021-08-30T09:05:40Z</time>
      </trkpt>
      <trkpt lat="44.24063" lon="4.94249">
        <ele>215.19999694824</ele>
        <time>2021-08-30T09:05:41Z</time>
      </trkpt>
      <trkpt lat="44.24075" lon="4.94246">
        <ele>216.39999389648</ele>
        <time>2021-08-30T09:05:46Z</time>
      </trkpt>
      <trkpt lat="44.24077" lon="4.94247">
        <ele>216.60000610352</ele>
        <time>2021-08-30T09:05:47Z</time>
      </trkpt>
      <trkpt lat="44.24094" lon="4.94251">
        <ele>217.39999389648</ele>
        <time>2021-08-30T09:05:54Z</time>
      </trkpt>
      <trkpt lat="44.24096" lon="4.94251">
        <ele>217.39999389648</ele>
        <time>2021-08-30T09:05:55Z</time>
      </trkpt>
      <trkpt lat="44.24107" lon="4.94253">
        <ele>218.60000610352</ele>
        <time>2021-08-30T09:06:00Z</time>
      </trkpt>
      <trkpt lat="44.24115" lon="4.94255">
        <ele>219.19999694824</ele>
        <time>2021-08-30T09:06:03Z</time>
      </trkpt>
      <trkpt lat="44.24136" lon="4.94259">
        <ele>219.80000305176</ele>
        <time>2021-08-30T09:06:11Z</time>
      </trkpt>
      <trkpt lat="44.24148" lon="4.94262">
        <ele>220.80000305176</ele>
        <time>2021-08-30T09:06:16Z</time>
      </trkpt>
      <trkpt lat="44.24156" lon="4.94263">
        <ele>221.19999694824</ele>
        <time>2021-08-30T09:06:19Z</time>
      </trkpt>
      <trkpt lat="44.24176" lon="4.94262">
        <ele>222</ele>
        <time>2021-08-30T09:06:27Z</time>
      </trkpt>
      <trkpt lat="44.24193" lon="4.94258">
        <ele>223</ele>
        <time>2021-08-30T09:06:34Z</time>
      </trkpt>
      <trkpt lat="44.24196" lon="4.94257">
        <ele>223.19999694824</ele>
        <time>2021-08-30T09:06:35Z</time>
      </trkpt>
      <trkpt lat="44.2421" lon="4.94255">
        <ele>224</ele>
        <time>2021-08-30T09:06:41Z</time>
      </trkpt>
      <trkpt lat="44.24213" lon="4.94254">
        <ele>224.19999694824</ele>
        <time>2021-08-30T09:06:42Z</time>
      </trkpt>
      <trkpt lat="44.24225" lon="4.94254">
        <ele>225</ele>
        <time>2021-08-30T09:06:47Z</time>
      </trkpt>
      <trkpt lat="44.24229" lon="4.94259">
        <ele>225.39999389648</ele>
        <time>2021-08-30T09:06:49Z</time>
      </trkpt>
      <trkpt lat="44.2423" lon="4.94263">
        <ele>225.39999389648</ele>
        <time>2021-08-30T09:06:50Z</time>
      </trkpt>
      <trkpt lat="44.24229" lon="4.94271">
        <ele>225.60000610352</ele>
        <time>2021-08-30T09:06:52Z</time>
      </trkpt>
      <trkpt lat="44.24222" lon="4.94282">
        <ele>226.19999694824</ele>
        <time>2021-08-30T09:06:56Z</time>
      </trkpt>
      <trkpt lat="44.24214" lon="4.94285">
        <ele>227</ele>
        <time>2021-08-30T09:06:59Z</time>
      </trkpt>
      <trkpt lat="44.24212" lon="4.94286">
        <ele>227.39999389648</ele>
        <time>2021-08-30T09:07:00Z</time>
      </trkpt>
      <trkpt lat="44.24209" lon="4.94288">
        <ele>227.60000610352</ele>
        <time>2021-08-30T09:07:01Z</time>
      </trkpt>
      <trkpt lat="44.24198" lon="4.94294">
        <ele>228.39999389648</ele>
        <time>2021-08-30T09:07:05Z</time>
      </trkpt>
      <trkpt lat="44.24188" lon="4.94303">
        <ele>228.60000610352</ele>
        <time>2021-08-30T09:07:09Z</time>
      </trkpt>
      <trkpt lat="44.2418" lon="4.9432">
        <ele>229.19999694824</ele>
        <time>2021-08-30T09:07:14Z</time>
      </trkpt>
      <trkpt lat="44.24181" lon="4.94324">
        <ele>229.19999694824</ele>
        <time>2021-08-30T09:07:15Z</time>
      </trkpt>
      <trkpt lat="44.24184" lon="4.94332">
        <ele>229.39999389648</ele>
        <time>2021-08-30T09:07:17Z</time>
      </trkpt>
      <trkpt lat="44.24189" lon="4.94341">
        <ele>230</ele>
        <time>2021-08-30T09:07:20Z</time>
      </trkpt>
      <trkpt lat="44.24194" lon="4.94346">
        <ele>230.60000610352</ele>
        <time>2021-08-30T09:07:22Z</time>
      </trkpt>
      <trkpt lat="44.24202" lon="4.94352">
        <ele>231.80000305176</ele>
        <time>2021-08-30T09:07:25Z</time>
      </trkpt>
      <trkpt lat="44.24205" lon="4.94353">
        <ele>232.19999694824</ele>
        <time>2021-08-30T09:07:26Z</time>
      </trkpt>
      <trkpt lat="44.24221" lon="4.9436">
        <ele>232.80000305176</ele>
        <time>2021-08-30T09:07:32Z</time>
      </trkpt>
      <trkpt lat="44.24223" lon="4.94362">
        <ele>233</ele>
        <time>2021-08-30T09:07:33Z</time>
      </trkpt>
      <trkpt lat="44.24236" lon="4.9437">
        <ele>233.80000305176</ele>
        <time>2021-08-30T09:07:38Z</time>
      </trkpt>
      <trkpt lat="44.2424" lon="4.94374">
        <ele>234</ele>
        <time>2021-08-30T09:07:40Z</time>
      </trkpt>
      <trkpt lat="44.24242" lon="4.94377">
        <ele>234</ele>
        <time>2021-08-30T09:07:41Z</time>
      </trkpt>
      <trkpt lat="44.24251" lon="4.94396">
        <ele>235</ele>
        <time>2021-08-30T09:07:47Z</time>
      </trkpt>
      <trkpt lat="44.24253" lon="4.94423">
        <ele>236.19999694824</ele>
        <time>2021-08-30T09:07:54Z</time>
      </trkpt>
      <trkpt lat="44.24253" lon="4.94434">
        <ele>237.39999389648</ele>
        <time>2021-08-30T09:07:57Z</time>
      </trkpt>
      <trkpt lat="44.24254" lon="4.94453">
        <ele>237.80000305176</ele>
        <time>2021-08-30T09:08:02Z</time>
      </trkpt>
      <trkpt lat="44.24259" lon="4.94463">
        <ele>238.39999389648</ele>
        <time>2021-08-30T09:08:06Z</time>
      </trkpt>
      <trkpt lat="44.24263" lon="4.94465">
        <ele>238.80000305176</ele>
        <time>2021-08-30T09:08:08Z</time>
      </trkpt>
      <trkpt lat="44.2427" lon="4.94461">
        <ele>239.19999694824</ele>
        <time>2021-08-30T09:08:11Z</time>
      </trkpt>
      <trkpt lat="44.24272" lon="4.94458">
        <ele>239.39999389648</ele>
        <time>2021-08-30T09:08:12Z</time>
      </trkpt>
      <trkpt lat="44.24277" lon="4.9445">
        <ele>240.19999694824</ele>
        <time>2021-08-30T09:08:15Z</time>
      </trkpt>
      <trkpt lat="44.2428" lon="4.94444">
        <ele>240.60000610352</ele>
        <time>2021-08-30T09:08:17Z</time>
      </trkpt>
      <trkpt lat="44.24283" lon="4.94439">
        <ele>241</ele>
        <time>2021-08-30T09:08:19Z</time>
      </trkpt>
      <trkpt lat="44.24295" lon="4.94415">
        <ele>241.60000610352</ele>
        <time>2021-08-30T09:08:27Z</time>
      </trkpt>
      <trkpt lat="44.24299" lon="4.94409">
        <ele>242</ele>
        <time>2021-08-30T09:08:29Z</time>
      </trkpt>
      <trkpt lat="44.24306" lon="4.94392">
        <ele>242.80000305176</ele>
        <time>2021-08-30T09:08:34Z</time>
      </trkpt>
      <trkpt lat="44.2431" lon="4.94372">
        <ele>243.60000610352</ele>
        <time>2021-08-30T09:08:39Z</time>
      </trkpt>
      <trkpt lat="44.24311" lon="4.94368">
        <ele>243.80000305176</ele>
        <time>2021-08-30T09:08:40Z</time>
      </trkpt>
      <trkpt lat="44.24316" lon="4.94346">
        <ele>244.80000305176</ele>
        <time>2021-08-30T09:08:46Z</time>
      </trkpt>
      <trkpt lat="44.24325" lon="4.94314">
        <ele>246</ele>
        <time>2021-08-30T09:08:54Z</time>
      </trkpt>
      <trkpt lat="44.24326" lon="4.94311">
        <ele>246</ele>
        <time>2021-08-30T09:08:55Z</time>
      </trkpt>
      <trkpt lat="44.24334" lon="4.94293">
        <ele>247.19999694824</ele>
        <time>2021-08-30T09:09:00Z</time>
      </trkpt>
      <trkpt lat="44.24339" lon="4.94278">
        <ele>248.19999694824</ele>
        <time>2021-08-30T09:09:04Z</time>
      </trkpt>
      <trkpt lat="44.24341" lon="4.94275">
        <ele>248.39999389648</ele>
        <time>2021-08-30T09:09:05Z</time>
      </trkpt>
      <trkpt lat="44.24348" lon="4.94263">
        <ele>249.39999389648</ele>
        <time>2021-08-30T09:09:09Z</time>
      </trkpt>
      <trkpt lat="44.24362" lon="4.94245">
        <ele>250.39999389648</ele>
        <time>2021-08-30T09:09:16Z</time>
      </trkpt>
      <trkpt lat="44.24372" lon="4.94237">
        <ele>251.60000610352</ele>
        <time>2021-08-30T09:09:20Z</time>
      </trkpt>
      <trkpt lat="44.24377" lon="4.94233">
        <ele>251.80000305176</ele>
        <time>2021-08-30T09:09:22Z</time>
      </trkpt>
      <trkpt lat="44.24394" lon="4.94222">
        <ele>252.60000610352</ele>
        <time>2021-08-30T09:09:29Z</time>
      </trkpt>
      <trkpt lat="44.24402" lon="4.94217">
        <ele>253.39999389648</ele>
        <time>2021-08-30T09:09:32Z</time>
      </trkpt>
      <trkpt lat="44.24405" lon="4.94216">
        <ele>253.80000305176</ele>
        <time>2021-08-30T09:09:33Z</time>
      </trkpt>
      <trkpt lat="44.2442" lon="4.94208">
        <ele>254.80000305176</ele>
        <time>2021-08-30T09:09:39Z</time>
      </trkpt>
      <trkpt lat="44.24422" lon="4.94206">
        <ele>255</ele>
        <time>2021-08-30T09:09:40Z</time>
      </trkpt>
      <trkpt lat="44.24446" lon="4.94196">
        <ele>255.80000305176</ele>
        <time>2021-08-30T09:09:49Z</time>
      </trkpt>
      <trkpt lat="44.24462" lon="4.94196">
        <ele>257</ele>
        <time>2021-08-30T09:09:55Z</time>
      </trkpt>
      <trkpt lat="44.24467" lon="4.94197">
        <ele>257.39999389648</ele>
        <time>2021-08-30T09:09:57Z</time>
      </trkpt>
      <trkpt lat="44.2448" lon="4.94197">
        <ele>258.20001220703</ele>
        <time>2021-08-30T09:10:02Z</time>
      </trkpt>
      <trkpt lat="44.24491" lon="4.94197">
        <ele>258.79998779297</ele>
        <time>2021-08-30T09:10:06Z</time>
      </trkpt>
      <trkpt lat="44.24496" lon="4.94194">
        <ele>259.39999389648</ele>
        <time>2021-08-30T09:10:08Z</time>
      </trkpt>
      <trkpt lat="44.24512" lon="4.94186">
        <ele>260.39999389648</ele>
        <time>2021-08-30T09:10:14Z</time>
      </trkpt>
      <trkpt lat="44.24514" lon="4.94184">
        <ele>260.60000610352</ele>
        <time>2021-08-30T09:10:15Z</time>
      </trkpt>
      <trkpt lat="44.24528" lon="4.94174">
        <ele>261.60000610352</ele>
        <time>2021-08-30T09:10:21Z</time>
      </trkpt>
      <trkpt lat="44.2453" lon="4.94173">
        <ele>262</ele>
        <time>2021-08-30T09:10:22Z</time>
      </trkpt>
      <trkpt lat="44.24542" lon="4.94163">
        <ele>262.60000610352</ele>
        <time>2021-08-30T09:10:28Z</time>
      </trkpt>
      <trkpt lat="44.24544" lon="4.94161">
        <ele>262.79998779297</ele>
        <time>2021-08-30T09:10:29Z</time>
      </trkpt>
      <trkpt lat="44.24554" lon="4.94155">
        <ele>263.39999389648</ele>
        <time>2021-08-30T09:10:34Z</time>
      </trkpt>
      <trkpt lat="44.24555" lon="4.94156">
        <ele>263.39999389648</ele>
        <time>2021-08-30T09:10:35Z</time>
      </trkpt>
      <trkpt lat="44.24556" lon="4.94159">
        <ele>263.39999389648</ele>
        <time>2021-08-30T09:10:37Z</time>
      </trkpt>
      <trkpt lat="44.24557" lon="4.94169">
        <ele>263.60000610352</ele>
        <time>2021-08-30T09:10:41Z</time>
      </trkpt>
      <trkpt lat="44.24557" lon="4.94174">
        <ele>263.79998779297</ele>
        <time>2021-08-30T09:10:43Z</time>
      </trkpt>
      <trkpt lat="44.24556" lon="4.94185">
        <ele>264.60000610352</ele>
        <time>2021-08-30T09:10:48Z</time>
      </trkpt>
      <trkpt lat="44.24555" lon="4.94189">
        <ele>265</ele>
        <time>2021-08-30T09:10:50Z</time>
      </trkpt>
      <trkpt lat="44.24552" lon="4.94199">
        <ele>265.60000610352</ele>
        <time>2021-08-30T09:10:55Z</time>
      </trkpt>
      <trkpt lat="44.24551" lon="4.94209">
        <ele>266.20001220703</ele>
        <time>2021-08-30T09:10:59Z</time>
      </trkpt>
      <trkpt lat="44.24552" lon="4.94215">
        <ele>267.20001220703</ele>
        <time>2021-08-30T09:11:02Z</time>
      </trkpt>
      <trkpt lat="44.24552" lon="4.94217">
        <ele>267.39999389648</ele>
        <time>2021-08-30T09:11:03Z</time>
      </trkpt>
      <trkpt lat="44.24554" lon="4.94231">
        <ele>268.60000610352</ele>
        <time>2021-08-30T09:11:09Z</time>
      </trkpt>
      <trkpt lat="44.24554" lon="4.94233">
        <ele>268.79998779297</ele>
        <time>2021-08-30T09:11:10Z</time>
      </trkpt>
      <trkpt lat="44.24556" lon="4.94247">
        <ele>269.60000610352</ele>
        <time>2021-08-30T09:11:17Z</time>
      </trkpt>
      <trkpt lat="44.24557" lon="4.9425">
        <ele>269.79998779297</ele>
        <time>2021-08-30T09:11:18Z</time>
      </trkpt>
      <trkpt lat="44.24558" lon="4.94263">
        <ele>270.79998779297</ele>
        <time>2021-08-30T09:11:24Z</time>
      </trkpt>
      <trkpt lat="44.24558" lon="4.94264">
        <ele>271</ele>
        <time>2021-08-30T09:11:25Z</time>
      </trkpt>
      <trkpt lat="44.24558" lon="4.94272">
        <ele>272</ele>
        <time>2021-08-30T09:11:29Z</time>
      </trkpt>
      <trkpt lat="44.24558" lon="4.94274">
        <ele>272.20001220703</ele>
        <time>2021-08-30T09:11:30Z</time>
      </trkpt>
      <trkpt lat="44.24559" lon="4.94285">
        <ele>273.20001220703</ele>
        <time>2021-08-30T09:11:35Z</time>
      </trkpt>
      <trkpt lat="44.24559" lon="4.94287">
        <ele>273.60000610352</ele>
        <time>2021-08-30T09:11:36Z</time>
      </trkpt>
      <trkpt lat="44.24561" lon="4.94296">
        <ele>274.20001220703</ele>
        <time>2021-08-30T09:11:40Z</time>
      </trkpt>
      <trkpt lat="44.24562" lon="4.94304">
        <ele>274.79998779297</ele>
        <time>2021-08-30T09:11:44Z</time>
      </trkpt>
      <trkpt lat="44.24563" lon="4.94308">
        <ele>275.39999389648</ele>
        <time>2021-08-30T09:11:46Z</time>
      </trkpt>
      <trkpt lat="44.24564" lon="4.94309">
        <ele>275.39999389648</ele>
        <time>2021-08-30T09:11:47Z</time>
      </trkpt>
      <trkpt lat="44.24566" lon="4.94315">
        <ele>276.20001220703</ele>
        <time>2021-08-30T09:11:50Z</time>
      </trkpt>
      <trkpt lat="44.24567" lon="4.94317">
        <ele>276.39999389648</ele>
        <time>2021-08-30T09:11:51Z</time>
      </trkpt>
      <trkpt lat="44.2457" lon="4.94325">
        <ele>277.60000610352</ele>
        <time>2021-08-30T09:11:56Z</time>
      </trkpt>
      <trkpt lat="44.24572" lon="4.94328">
        <ele>278.20001220703</ele>
        <time>2021-08-30T09:11:58Z</time>
      </trkpt>
      <trkpt lat="44.24573" lon="4.9433">
        <ele>278.79998779297</ele>
        <time>2021-08-30T09:11:59Z</time>
      </trkpt>
      <trkpt lat="44.24578" lon="4.9434">
        <ele>279.60000610352</ele>
        <time>2021-08-30T09:12:05Z</time>
      </trkpt>
      <trkpt lat="44.24579" lon="4.94342">
        <ele>279.79998779297</ele>
        <time>2021-08-30T09:12:06Z</time>
      </trkpt>
      <trkpt lat="44.24584" lon="4.94353">
        <ele>280.79998779297</ele>
        <time>2021-08-30T09:12:12Z</time>
      </trkpt>
      <trkpt lat="44.24587" lon="4.94358">
        <ele>281.39999389648</ele>
        <time>2021-08-30T09:12:15Z</time>
      </trkpt>
      <trkpt lat="44.24588" lon="4.94361">
        <ele>281.79998779297</ele>
        <time>2021-08-30T09:12:17Z</time>
      </trkpt>
      <trkpt lat="44.24589" lon="4.94362">
        <ele>282</ele>
        <time>2021-08-30T09:12:18Z</time>
      </trkpt>
      <trkpt lat="44.24592" lon="4.94367">
        <ele>283</ele>
        <time>2021-08-30T09:12:21Z</time>
      </trkpt>
      <trkpt lat="44.24592" lon="4.94368">
        <ele>283.39999389648</ele>
        <time>2021-08-30T09:12:22Z</time>
      </trkpt>
      <trkpt lat="44.24593" lon="4.9437">
        <ele>283.60000610352</ele>
        <time>2021-08-30T09:12:23Z</time>
      </trkpt>
      <trkpt lat="44.24595" lon="4.94373">
        <ele>284</ele>
        <time>2021-08-30T09:12:25Z</time>
      </trkpt>
      <trkpt lat="44.24598" lon="4.94379">
        <ele>285</ele>
        <time>2021-08-30T09:12:29Z</time>
      </trkpt>
      <trkpt lat="44.24601" lon="4.94388">
        <ele>286.20001220703</ele>
        <time>2021-08-30T09:12:34Z</time>
      </trkpt>
      <trkpt lat="44.24602" lon="4.94393">
        <ele>287</ele>
        <time>2021-08-30T09:12:37Z</time>
      </trkpt>
      <trkpt lat="44.24603" lon="4.94395">
        <ele>287.20001220703</ele>
        <time>2021-08-30T09:12:38Z</time>
      </trkpt>
      <trkpt lat="44.24606" lon="4.94405">
        <ele>288.39999389648</ele>
        <time>2021-08-30T09:12:44Z</time>
      </trkpt>
      <trkpt lat="44.24607" lon="4.94414">
        <ele>289.60000610352</ele>
        <time>2021-08-30T09:12:49Z</time>
      </trkpt>
      <trkpt lat="44.24607" lon="4.94417">
        <ele>290</ele>
        <time>2021-08-30T09:12:51Z</time>
      </trkpt>
      <trkpt lat="44.24609" lon="4.94424">
        <ele>290.60000610352</ele>
        <time>2021-08-30T09:12:55Z</time>
      </trkpt>
      <trkpt lat="44.2461" lon="4.9443">
        <ele>291.20001220703</ele>
        <time>2021-08-30T09:12:58Z</time>
      </trkpt>
      <trkpt lat="44.24611" lon="4.94433">
        <ele>291.79998779297</ele>
        <time>2021-08-30T09:13:00Z</time>
      </trkpt>
      <trkpt lat="44.24613" lon="4.9444">
        <ele>292.79998779297</ele>
        <time>2021-08-30T09:13:04Z</time>
      </trkpt>
      <trkpt lat="44.24614" lon="4.94443">
        <ele>293.20001220703</ele>
        <time>2021-08-30T09:13:06Z</time>
      </trkpt>
      <trkpt lat="44.24616" lon="4.94451">
        <ele>294</ele>
        <time>2021-08-30T09:13:11Z</time>
      </trkpt>
      <trkpt lat="44.24617" lon="4.94456">
        <ele>295</ele>
        <time>2021-08-30T09:13:14Z</time>
      </trkpt>
      <trkpt lat="44.24618" lon="4.9446">
        <ele>295.20001220703</ele>
        <time>2021-08-30T09:13:16Z</time>
      </trkpt>
      <trkpt lat="44.24619" lon="4.9447">
        <ele>295.60000610352</ele>
        <time>2021-08-30T09:13:21Z</time>
      </trkpt>
      <trkpt lat="44.24619" lon="4.94473">
        <ele>296.20001220703</ele>
        <time>2021-08-30T09:13:23Z</time>
      </trkpt>
      <trkpt lat="44.24621" lon="4.94483">
        <ele>296.79998779297</ele>
        <time>2021-08-30T09:13:28Z</time>
      </trkpt>
      <trkpt lat="44.24623" lon="4.94494">
        <ele>297.39999389648</ele>
        <time>2021-08-30T09:13:33Z</time>
      </trkpt>
      <trkpt lat="44.24623" lon="4.94496">
        <ele>297.60000610352</ele>
        <time>2021-08-30T09:13:34Z</time>
      </trkpt>
      <trkpt lat="44.24629" lon="4.94509">
        <ele>297.79998779297</ele>
        <time>2021-08-30T09:13:40Z</time>
      </trkpt>
      <trkpt lat="44.24633" lon="4.94517">
        <ele>298.39999389648</ele>
        <time>2021-08-30T09:13:44Z</time>
      </trkpt>
      <trkpt lat="44.24636" lon="4.94522">
        <ele>299.20001220703</ele>
        <time>2021-08-30T09:13:47Z</time>
      </trkpt>
      <trkpt lat="44.2464" lon="4.94531">
        <ele>299.60000610352</ele>
        <time>2021-08-30T09:13:51Z</time>
      </trkpt>
      <trkpt lat="44.24644" lon="4.94541">
        <ele>300.39999389648</ele>
        <time>2021-08-30T09:13:55Z</time>
      </trkpt>
      <trkpt lat="44.24647" lon="4.94546">
        <ele>300.60000610352</ele>
        <time>2021-08-30T09:13:57Z</time>
      </trkpt>
      <trkpt lat="44.24654" lon="4.94561">
        <ele>299.39999389648</ele>
        <time>2021-08-30T09:14:01Z</time>
      </trkpt>
      <trkpt lat="44.24663" lon="4.94576">
        <ele>298.79998779297</ele>
        <time>2021-08-30T09:14:04Z</time>
      </trkpt>
      <trkpt lat="44.24672" lon="4.94582">
        <ele>298.39999389648</ele>
        <time>2021-08-30T09:14:06Z</time>
      </trkpt>
      <trkpt lat="44.24682" lon="4.94586">
        <ele>297.79998779297</ele>
        <time>2021-08-30T09:14:08Z</time>
      </trkpt>
      <trkpt lat="44.24692" lon="4.9459">
        <ele>297.20001220703</ele>
        <time>2021-08-30T09:14:10Z</time>
      </trkpt>
      <trkpt lat="44.24696" lon="4.94593">
        <ele>297</ele>
        <time>2021-08-30T09:14:11Z</time>
      </trkpt>
      <trkpt lat="44.24704" lon="4.94599">
        <ele>296.20001220703</ele>
        <time>2021-08-30T09:14:13Z</time>
      </trkpt>
      <trkpt lat="44.24709" lon="4.94606">
        <ele>295.79998779297</ele>
        <time>2021-08-30T09:14:15Z</time>
      </trkpt>
      <trkpt lat="44.24719" lon="4.94625">
        <ele>295.60000610352</ele>
        <time>2021-08-30T09:14:21Z</time>
      </trkpt>
      <trkpt lat="44.24729" lon="4.94637">
        <ele>296.20001220703</ele>
        <time>2021-08-30T09:14:28Z</time>
      </trkpt>
      <trkpt lat="44.24735" lon="4.9465">
        <ele>297</ele>
        <time>2021-08-30T09:14:35Z</time>
      </trkpt>
      <trkpt lat="44.24737" lon="4.94654">
        <ele>297.39999389648</ele>
        <time>2021-08-30T09:14:37Z</time>
      </trkpt>
      <trkpt lat="44.2474" lon="4.94665">
        <ele>298.20001220703</ele>
        <time>2021-08-30T09:14:43Z</time>
      </trkpt>
      <trkpt lat="44.24741" lon="4.94667">
        <ele>298.39999389648</ele>
        <time>2021-08-30T09:14:44Z</time>
      </trkpt>
      <trkpt lat="44.24741" lon="4.9467">
        <ele>299</ele>
        <time>2021-08-30T09:14:46Z</time>
      </trkpt>
      <trkpt lat="44.24742" lon="4.94674">
        <ele>299.60000610352</ele>
        <time>2021-08-30T09:14:48Z</time>
      </trkpt>
      <trkpt lat="44.24742" lon="4.94676">
        <ele>299.79998779297</ele>
        <time>2021-08-30T09:14:49Z</time>
      </trkpt>
      <trkpt lat="44.24743" lon="4.94687">
        <ele>300.60000610352</ele>
        <time>2021-08-30T09:14:54Z</time>
      </trkpt>
      <trkpt lat="44.24743" lon="4.9469">
        <ele>300.79998779297</ele>
        <time>2021-08-30T09:14:55Z</time>
      </trkpt>
      <trkpt lat="44.24745" lon="4.947">
        <ele>301.60000610352</ele>
        <time>2021-08-30T09:15:00Z</time>
      </trkpt>
      <trkpt lat="44.24745" lon="4.94702">
        <ele>301.79998779297</ele>
        <time>2021-08-30T09:15:01Z</time>
      </trkpt>
      <trkpt lat="44.24748" lon="4.94711">
        <ele>302.60000610352</ele>
        <time>2021-08-30T09:15:06Z</time>
      </trkpt>
      <trkpt lat="44.24748" lon="4.94713">
        <ele>302.79998779297</ele>
        <time>2021-08-30T09:15:07Z</time>
      </trkpt>
      <trkpt lat="44.24751" lon="4.94719">
        <ele>303.79998779297</ele>
        <time>2021-08-30T09:15:10Z</time>
      </trkpt>
      <trkpt lat="44.24754" lon="4.94723">
        <ele>304.39999389648</ele>
        <time>2021-08-30T09:15:13Z</time>
      </trkpt>
      <trkpt lat="44.24757" lon="4.94727">
        <ele>304.79998779297</ele>
        <time>2021-08-30T09:15:16Z</time>
      </trkpt>
      <trkpt lat="44.24758" lon="4.94729">
        <ele>305</ele>
        <time>2021-08-30T09:15:17Z</time>
      </trkpt>
      <trkpt lat="44.24759" lon="4.94732">
        <ele>305.60000610352</ele>
        <time>2021-08-30T09:15:19Z</time>
      </trkpt>
      <trkpt lat="44.24761" lon="4.94737">
        <ele>306.20001220703</ele>
        <time>2021-08-30T09:15:22Z</time>
      </trkpt>
      <trkpt lat="44.24762" lon="4.94743">
        <ele>306.79998779297</ele>
        <time>2021-08-30T09:15:25Z</time>
      </trkpt>
      <trkpt lat="44.24762" lon="4.94746">
        <ele>307.20001220703</ele>
        <time>2021-08-30T09:15:27Z</time>
      </trkpt>
      <trkpt lat="44.24763" lon="4.94756">
        <ele>308.39999389648</ele>
        <time>2021-08-30T09:15:32Z</time>
      </trkpt>
      <trkpt lat="44.24764" lon="4.94758">
        <ele>308.79998779297</ele>
        <time>2021-08-30T09:15:33Z</time>
      </trkpt>
      <trkpt lat="44.24765" lon="4.94762">
        <ele>309.60000610352</ele>
        <time>2021-08-30T09:15:35Z</time>
      </trkpt>
      <trkpt lat="44.24765" lon="4.94772">
        <ele>310.60000610352</ele>
        <time>2021-08-30T09:15:40Z</time>
      </trkpt>
      <trkpt lat="44.24765" lon="4.94776">
        <ele>311.39999389648</ele>
        <time>2021-08-30T09:15:42Z</time>
      </trkpt>
      <trkpt lat="44.24765" lon="4.94777">
        <ele>311.60000610352</ele>
        <time>2021-08-30T09:15:43Z</time>
      </trkpt>
      <trkpt lat="44.24767" lon="4.94787">
        <ele>312.60000610352</ele>
        <time>2021-08-30T09:15:48Z</time>
      </trkpt>
      <trkpt lat="44.24767" lon="4.94789">
        <ele>312.79998779297</ele>
        <time>2021-08-30T09:15:49Z</time>
      </trkpt>
      <trkpt lat="44.24767" lon="4.9479">
        <ele>313</ele>
        <time>2021-08-30T09:15:50Z</time>
      </trkpt>
      <trkpt lat="44.24766" lon="4.94796">
        <ele>313.79998779297</ele>
        <time>2021-08-30T09:15:54Z</time>
      </trkpt>
      <trkpt lat="44.24767" lon="4.948">
        <ele>315.60000610352</ele>
        <time>2021-08-30T09:16:37Z</time>
      </trkpt>
      <trkpt lat="44.24768" lon="4.94805">
        <ele>315.79998779297</ele>
        <time>2021-08-30T09:16:39Z</time>
      </trkpt>
      <trkpt lat="44.2477" lon="4.94821">
        <ele>316.79998779297</ele>
        <time>2021-08-30T09:16:47Z</time>
      </trkpt>
      <trkpt lat="44.24771" lon="4.94829">
        <ele>317.79998779297</ele>
        <time>2021-08-30T09:16:51Z</time>
      </trkpt>
      <trkpt lat="44.24772" lon="4.94835">
        <ele>318.39999389648</ele>
        <time>2021-08-30T09:16:54Z</time>
      </trkpt>
      <trkpt lat="44.24773" lon="4.94836">
        <ele>318.39999389648</ele>
        <time>2021-08-30T09:16:55Z</time>
      </trkpt>
      <trkpt lat="44.24774" lon="4.9484">
        <ele>318.79998779297</ele>
        <time>2021-08-30T09:16:57Z</time>
      </trkpt>
      <trkpt lat="44.24777" lon="4.94853">
        <ele>320</ele>
        <time>2021-08-30T09:17:03Z</time>
      </trkpt>
      <trkpt lat="44.24777" lon="4.94855">
        <ele>320.20001220703</ele>
        <time>2021-08-30T09:17:04Z</time>
      </trkpt>
      <trkpt lat="44.2478" lon="4.94861">
        <ele>321</ele>
        <time>2021-08-30T09:17:07Z</time>
      </trkpt>
      <trkpt lat="44.24782" lon="4.9487">
        <ele>322</ele>
        <time>2021-08-30T09:17:11Z</time>
      </trkpt>
      <trkpt lat="44.24788" lon="4.94888">
        <ele>323.20001220703</ele>
        <time>2021-08-30T09:17:19Z</time>
      </trkpt>
      <trkpt lat="44.24795" lon="4.94911">
        <ele>324.39999389648</ele>
        <time>2021-08-30T09:17:29Z</time>
      </trkpt>
      <trkpt lat="44.24799" lon="4.94927">
        <ele>325</ele>
        <time>2021-08-30T09:17:36Z</time>
      </trkpt>
      <trkpt lat="44.24801" lon="4.94938">
        <ele>325.39999389648</ele>
        <time>2021-08-30T09:17:41Z</time>
      </trkpt>
      <trkpt lat="44.24802" lon="4.94941">
        <ele>325.60000610352</ele>
        <time>2021-08-30T09:17:42Z</time>
      </trkpt>
      <trkpt lat="44.24802" lon="4.94943">
        <ele>326</ele>
        <time>2021-08-30T09:17:43Z</time>
      </trkpt>
      <trkpt lat="44.24806" lon="4.94954">
        <ele>326.60000610352</ele>
        <time>2021-08-30T09:17:47Z</time>
      </trkpt>
      <trkpt lat="44.24819" lon="4.94985">
        <ele>327</ele>
        <time>2021-08-30T09:17:56Z</time>
      </trkpt>
      <trkpt lat="44.2483" lon="4.9501">
        <ele>326.79998779297</ele>
        <time>2021-08-30T09:18:02Z</time>
      </trkpt>
      <trkpt lat="44.24847" lon="4.95037">
        <ele>327</ele>
        <time>2021-08-30T09:18:09Z</time>
      </trkpt>
      <trkpt lat="44.24866" lon="4.95069">
        <ele>326.79998779297</ele>
        <time>2021-08-30T09:18:17Z</time>
      </trkpt>
      <trkpt lat="44.24887" lon="4.95107">
        <ele>326.79998779297</ele>
        <time>2021-08-30T09:18:26Z</time>
      </trkpt>
      <trkpt lat="44.24902" lon="4.95133">
        <ele>326.60000610352</ele>
        <time>2021-08-30T09:18:32Z</time>
      </trkpt>
      <trkpt lat="44.24918" lon="4.95158">
        <ele>326.60000610352</ele>
        <time>2021-08-30T09:18:38Z</time>
      </trkpt>
      <trkpt lat="44.24944" lon="4.95196">
        <ele>326.60000610352</ele>
        <time>2021-08-30T09:18:47Z</time>
      </trkpt>
      <trkpt lat="44.24958" lon="4.95217">
        <ele>327</ele>
        <time>2021-08-30T09:18:53Z</time>
      </trkpt>
      <trkpt lat="44.24974" lon="4.95241">
        <ele>327.20001220703</ele>
        <time>2021-08-30T09:19:00Z</time>
      </trkpt>
      <trkpt lat="44.24984" lon="4.95254">
        <ele>327.60000610352</ele>
        <time>2021-08-30T09:19:04Z</time>
      </trkpt>
      <trkpt lat="44.24994" lon="4.95267">
        <ele>327.79998779297</ele>
        <time>2021-08-30T09:19:08Z</time>
      </trkpt>
      <trkpt lat="44.25023" lon="4.95297">
        <ele>328.60000610352</ele>
        <time>2021-08-30T09:19:17Z</time>
      </trkpt>
      <trkpt lat="44.25029" lon="4.95303">
        <ele>328.60000610352</ele>
        <time>2021-08-30T09:19:19Z</time>
      </trkpt>
      <trkpt lat="44.25038" lon="4.95312">
        <ele>328.39999389648</ele>
        <time>2021-08-30T09:19:22Z</time>
      </trkpt>
      <trkpt lat="44.25064" lon="4.95338">
        <ele>328.60000610352</ele>
        <time>2021-08-30T09:19:30Z</time>
      </trkpt>
      <trkpt lat="44.25083" lon="4.95355">
        <ele>328.79998779297</ele>
        <time>2021-08-30T09:19:35Z</time>
      </trkpt>
      <trkpt lat="44.2509" lon="4.95361">
        <ele>328.79998779297</ele>
        <time>2021-08-30T09:19:37Z</time>
      </trkpt>
      <trkpt lat="44.25112" lon="4.95377">
        <ele>329.20001220703</ele>
        <time>2021-08-30T09:19:43Z</time>
      </trkpt>
      <trkpt lat="44.25131" lon="4.95388">
        <ele>329.39999389648</ele>
        <time>2021-08-30T09:19:48Z</time>
      </trkpt>
      <trkpt lat="44.25143" lon="4.95394">
        <ele>329.60000610352</ele>
        <time>2021-08-30T09:19:51Z</time>
      </trkpt>
      <trkpt lat="44.25154" lon="4.954">
        <ele>329.60000610352</ele>
        <time>2021-08-30T09:19:54Z</time>
      </trkpt>
      <trkpt lat="44.25159" lon="4.95403">
        <ele>329.79998779297</ele>
        <time>2021-08-30T09:19:56Z</time>
      </trkpt>
      <trkpt lat="44.25173" lon="4.95415">
        <ele>330.60000610352</ele>
        <time>2021-08-30T09:20:01Z</time>
      </trkpt>
      <trkpt lat="44.25177" lon="4.95417">
        <ele>330.79998779297</ele>
        <time>2021-08-30T09:20:02Z</time>
      </trkpt>
      <trkpt lat="44.252" lon="4.95437">
        <ele>330.79998779297</ele>
        <time>2021-08-30T09:20:08Z</time>
      </trkpt>
      <trkpt lat="44.25227" lon="4.95468">
        <ele>330.39999389648</ele>
        <time>2021-08-30T09:20:16Z</time>
      </trkpt>
      <trkpt lat="44.25238" lon="4.95495">
        <ele>330.60000610352</ele>
        <time>2021-08-30T09:20:21Z</time>
      </trkpt>
      <trkpt lat="44.25241" lon="4.95526">
        <ele>331.60000610352</ele>
        <time>2021-08-30T09:20:27Z</time>
      </trkpt>
      <trkpt lat="44.25243" lon="4.95555">
        <ele>332.20001220703</ele>
        <time>2021-08-30T09:20:33Z</time>
      </trkpt>
      <trkpt lat="44.25242" lon="4.95584">
        <ele>332.60000610352</ele>
        <time>2021-08-30T09:20:39Z</time>
      </trkpt>
      <trkpt lat="44.25242" lon="4.95613">
        <ele>332.60000610352</ele>
        <time>2021-08-30T09:20:45Z</time>
      </trkpt>
      <trkpt lat="44.25242" lon="4.95618">
        <ele>332.79998779297</ele>
        <time>2021-08-30T09:20:46Z</time>
      </trkpt>
      <trkpt lat="44.25243" lon="4.95652">
        <ele>333.20001220703</ele>
        <time>2021-08-30T09:20:53Z</time>
      </trkpt>
      <trkpt lat="44.25243" lon="4.95698">
        <ele>333.39999389648</ele>
        <time>2021-08-30T09:21:02Z</time>
      </trkpt>
      <trkpt lat="44.25245" lon="4.95735">
        <ele>333.79998779297</ele>
        <time>2021-08-30T09:21:09Z</time>
      </trkpt>
      <trkpt lat="44.25246" lon="4.95746">
        <ele>334.20001220703</ele>
        <time>2021-08-30T09:21:11Z</time>
      </trkpt>
      <trkpt lat="44.25248" lon="4.95776">
        <ele>334.39999389648</ele>
        <time>2021-08-30T09:21:16Z</time>
      </trkpt>
      <trkpt lat="44.25249" lon="4.95794">
        <ele>334.39999389648</ele>
        <time>2021-08-30T09:21:19Z</time>
      </trkpt>
      <trkpt lat="44.25251" lon="4.95824">
        <ele>333.79998779297</ele>
        <time>2021-08-30T09:21:24Z</time>
      </trkpt>
      <trkpt lat="44.2525" lon="4.9583">
        <ele>333.79998779297</ele>
        <time>2021-08-30T09:21:25Z</time>
      </trkpt>
      <trkpt lat="44.25252" lon="4.95855">
        <ele>334</ele>
        <time>2021-08-30T09:21:29Z</time>
      </trkpt>
      <trkpt lat="44.25261" lon="4.959">
        <ele>332.60000610352</ele>
        <time>2021-08-30T09:21:36Z</time>
      </trkpt>
      <trkpt lat="44.2527" lon="4.95941">
        <ele>332.39999389648</ele>
        <time>2021-08-30T09:21:43Z</time>
      </trkpt>
      <trkpt lat="44.25277" lon="4.95988">
        <ele>333.60000610352</ele>
        <time>2021-08-30T09:21:52Z</time>
      </trkpt>
      <trkpt lat="44.25277" lon="4.95993">
        <ele>333.60000610352</ele>
        <time>2021-08-30T09:21:53Z</time>
      </trkpt>
      <trkpt lat="44.25282" lon="4.96022">
        <ele>334.39999389648</ele>
        <time>2021-08-30T09:21:59Z</time>
      </trkpt>
      <trkpt lat="44.25285" lon="4.96036">
        <ele>334.79998779297</ele>
        <time>2021-08-30T09:22:02Z</time>
      </trkpt>
      <trkpt lat="44.25294" lon="4.96066">
        <ele>335</ele>
        <time>2021-08-30T09:22:08Z</time>
      </trkpt>
      <trkpt lat="44.25314" lon="4.96099">
        <ele>335.39999389648</ele>
        <time>2021-08-30T09:22:16Z</time>
      </trkpt>
      <trkpt lat="44.25317" lon="4.96103">
        <ele>335.39999389648</ele>
        <time>2021-08-30T09:22:17Z</time>
      </trkpt>
      <trkpt lat="44.25323" lon="4.96119">
        <ele>335.39999389648</ele>
        <time>2021-08-30T09:22:20Z</time>
      </trkpt>
      <trkpt lat="44.25338" lon="4.96155">
        <ele>335.20001220703</ele>
        <time>2021-08-30T09:22:28Z</time>
      </trkpt>
      <trkpt lat="44.25346" lon="4.96176">
        <ele>335.79998779297</ele>
        <time>2021-08-30T09:22:34Z</time>
      </trkpt>
      <trkpt lat="44.25348" lon="4.96181">
        <ele>335.79998779297</ele>
        <time>2021-08-30T09:22:35Z</time>
      </trkpt>
      <trkpt lat="44.25356" lon="4.96216">
        <ele>335.39999389648</ele>
        <time>2021-08-30T09:22:42Z</time>
      </trkpt>
      <trkpt lat="44.25361" lon="4.96263">
        <ele>335.60000610352</ele>
        <time>2021-08-30T09:22:50Z</time>
      </trkpt>
      <trkpt lat="44.25362" lon="4.96268">
        <ele>335.60000610352</ele>
        <time>2021-08-30T09:22:51Z</time>
      </trkpt>
      <trkpt lat="44.25363" lon="4.9628">
        <ele>335.60000610352</ele>
        <time>2021-08-30T09:22:53Z</time>
      </trkpt>
      <trkpt lat="44.25366" lon="4.96301">
        <ele>335.60000610352</ele>
        <time>2021-08-30T09:22:57Z</time>
      </trkpt>
      <trkpt lat="44.25367" lon="4.96306">
        <ele>335.79998779297</ele>
        <time>2021-08-30T09:22:58Z</time>
      </trkpt>
      <trkpt lat="44.2537" lon="4.96337">
        <ele>336.39999389648</ele>
        <time>2021-08-30T09:23:04Z</time>
      </trkpt>
      <trkpt lat="44.25369" lon="4.96354">
        <ele>336.79998779297</ele>
        <time>2021-08-30T09:23:07Z</time>
      </trkpt>
      <trkpt lat="44.25367" lon="4.96389">
        <ele>337.20001220703</ele>
        <time>2021-08-30T09:23:13Z</time>
      </trkpt>
      <trkpt lat="44.25365" lon="4.96412">
        <ele>337.20001220703</ele>
        <time>2021-08-30T09:23:17Z</time>
      </trkpt>
      <trkpt lat="44.25365" lon="4.96418">
        <ele>337.20001220703</ele>
        <time>2021-08-30T09:23:18Z</time>
      </trkpt>
      <trkpt lat="44.25364" lon="4.9643">
        <ele>337.39999389648</ele>
        <time>2021-08-30T09:23:20Z</time>
      </trkpt>
      <trkpt lat="44.25365" lon="4.96436">
        <ele>337.39999389648</ele>
        <time>2021-08-30T09:23:21Z</time>
      </trkpt>
      <trkpt lat="44.25367" lon="4.96481">
        <ele>336.79998779297</ele>
        <time>2021-08-30T09:23:28Z</time>
      </trkpt>
      <trkpt lat="44.25369" lon="4.96501">
        <ele>336.20001220703</ele>
        <time>2021-08-30T09:23:31Z</time>
      </trkpt>
      <trkpt lat="44.25371" lon="4.96515">
        <ele>335.79998779297</ele>
        <time>2021-08-30T09:23:33Z</time>
      </trkpt>
      <trkpt lat="44.25372" lon="4.96522">
        <ele>335.60000610352</ele>
        <time>2021-08-30T09:23:34Z</time>
      </trkpt>
      <trkpt lat="44.25376" lon="4.96557">
        <ele>335.20001220703</ele>
        <time>2021-08-30T09:23:39Z</time>
      </trkpt>
      <trkpt lat="44.25377" lon="4.96564">
        <ele>335</ele>
        <time>2021-08-30T09:23:40Z</time>
      </trkpt>
      <trkpt lat="44.25385" lon="4.96591">
        <ele>335</ele>
        <time>2021-08-30T09:23:44Z</time>
      </trkpt>
      <trkpt lat="44.25389" lon="4.96604">
        <ele>334.79998779297</ele>
        <time>2021-08-30T09:23:46Z</time>
      </trkpt>
      <trkpt lat="44.25403" lon="4.96655">
        <ele>335</ele>
        <time>2021-08-30T09:23:54Z</time>
      </trkpt>
      <trkpt lat="44.25412" lon="4.96683">
        <ele>335.39999389648</ele>
        <time>2021-08-30T09:24:00Z</time>
      </trkpt>
      <trkpt lat="44.2542" lon="4.96711">
        <ele>336.39999389648</ele>
        <time>2021-08-30T09:24:06Z</time>
      </trkpt>
      <trkpt lat="44.25423" lon="4.9672">
        <ele>336.60000610352</ele>
        <time>2021-08-30T09:24:08Z</time>
      </trkpt>
      <trkpt lat="44.25437" lon="4.96754">
        <ele>337</ele>
        <time>2021-08-30T09:24:15Z</time>
      </trkpt>
      <trkpt lat="44.25451" lon="4.96788">
        <ele>337.39999389648</ele>
        <time>2021-08-30T09:24:22Z</time>
      </trkpt>
      <trkpt lat="44.25456" lon="4.96798">
        <ele>337.39999389648</ele>
        <time>2021-08-30T09:24:24Z</time>
      </trkpt>
      <trkpt lat="44.2547" lon="4.96833">
        <ele>336.60000610352</ele>
        <time>2021-08-30T09:24:31Z</time>
      </trkpt>
      <trkpt lat="44.25485" lon="4.96878">
        <ele>336.39999389648</ele>
        <time>2021-08-30T09:24:39Z</time>
      </trkpt>
      <trkpt lat="44.25495" lon="4.96909">
        <ele>335.79998779297</ele>
        <time>2021-08-30T09:24:46Z</time>
      </trkpt>
      <trkpt lat="44.25503" lon="4.96915">
        <ele>335.79998779297</ele>
        <time>2021-08-30T09:24:51Z</time>
      </trkpt>
      <trkpt lat="44.25505" lon="4.96917">
        <ele>335.79998779297</ele>
        <time>2021-08-30T09:24:52Z</time>
      </trkpt>
      <trkpt lat="44.25511" lon="4.96927">
        <ele>335.79998779297</ele>
        <time>2021-08-30T09:24:55Z</time>
      </trkpt>
      <trkpt lat="44.25517" lon="4.96945">
        <ele>335.79998779297</ele>
        <time>2021-08-30T09:24:59Z</time>
      </trkpt>
      <trkpt lat="44.25525" lon="4.96966">
        <ele>336</ele>
        <time>2021-08-30T09:25:04Z</time>
      </trkpt>
      <trkpt lat="44.25535" lon="4.96988">
        <ele>336</ele>
        <time>2021-08-30T09:25:09Z</time>
      </trkpt>
      <trkpt lat="44.25537" lon="4.96992">
        <ele>336</ele>
        <time>2021-08-30T09:25:10Z</time>
      </trkpt>
      <trkpt lat="44.25549" lon="4.97017">
        <ele>335.60000610352</ele>
        <time>2021-08-30T09:25:16Z</time>
      </trkpt>
      <trkpt lat="44.25561" lon="4.97042">
        <ele>336</ele>
        <time>2021-08-30T09:25:23Z</time>
      </trkpt>
      <trkpt lat="44.25565" lon="4.97044">
        <ele>336.20001220703</ele>
        <time>2021-08-30T09:25:25Z</time>
      </trkpt>
      <trkpt lat="44.25571" lon="4.97044">
        <ele>336.39999389648</ele>
        <time>2021-08-30T09:25:27Z</time>
      </trkpt>
      <trkpt lat="44.25583" lon="4.97041">
        <ele>336.79998779297</ele>
        <time>2021-08-30T09:25:31Z</time>
      </trkpt>
      <trkpt lat="44.25599" lon="4.97037">
        <ele>337.20001220703</ele>
        <time>2021-08-30T09:25:36Z</time>
      </trkpt>
      <trkpt lat="44.25617" lon="4.97029">
        <ele>337</ele>
        <time>2021-08-30T09:25:42Z</time>
      </trkpt>
      <trkpt lat="44.2562" lon="4.97028">
        <ele>337</ele>
        <time>2021-08-30T09:25:43Z</time>
      </trkpt>
      <trkpt lat="44.25629" lon="4.97031">
        <ele>336.79998779297</ele>
        <time>2021-08-30T09:25:46Z</time>
      </trkpt>
      <trkpt lat="44.25637" lon="4.97046">
        <ele>336.20001220703</ele>
        <time>2021-08-30T09:25:51Z</time>
      </trkpt>
      <trkpt lat="44.25637" lon="4.97049">
        <ele>336.20001220703</ele>
        <time>2021-08-30T09:25:52Z</time>
      </trkpt>
      <trkpt lat="44.25636" lon="4.97066">
        <ele>337</ele>
        <time>2021-08-30T09:25:58Z</time>
      </trkpt>
      <trkpt lat="44.25635" lon="4.97078">
        <ele>337.20001220703</ele>
        <time>2021-08-30T09:26:03Z</time>
      </trkpt>
      <trkpt lat="44.2563" lon="4.97083">
        <ele>337</ele>
        <time>2021-08-30T09:28:13Z</time>
      </trkpt>
      <trkpt lat="44.25628" lon="4.97084">
        <ele>337</ele>
        <time>2021-08-30T09:28:14Z</time>
      </trkpt>
      <trkpt lat="44.25617" lon="4.97088">
        <ele>337</ele>
        <time>2021-08-30T09:28:18Z</time>
      </trkpt>
      <trkpt lat="44.2559" lon="4.97101">
        <ele>337.20001220703</ele>
        <time>2021-08-30T09:28:24Z</time>
      </trkpt>
      <trkpt lat="44.25557" lon="4.97119">
        <ele>337</ele>
        <time>2021-08-30T09:28:31Z</time>
      </trkpt>
      <trkpt lat="44.25553" lon="4.97122">
        <ele>337</ele>
        <time>2021-08-30T09:28:32Z</time>
      </trkpt>
      <trkpt lat="44.25527" lon="4.97134">
        <ele>336.60000610352</ele>
        <time>2021-08-30T09:28:37Z</time>
      </trkpt>
      <trkpt lat="44.25482" lon="4.97161">
        <ele>335.79998779297</ele>
        <time>2021-08-30T09:28:45Z</time>
      </trkpt>
      <trkpt lat="44.25477" lon="4.97168">
        <ele>335.79998779297</ele>
        <time>2021-08-30T09:28:46Z</time>
      </trkpt>
      <trkpt lat="44.25472" lon="4.97184">
        <ele>335.60000610352</ele>
        <time>2021-08-30T09:28:48Z</time>
      </trkpt>
      <trkpt lat="44.2547" lon="4.97209">
        <ele>335.39999389648</ele>
        <time>2021-08-30T09:28:51Z</time>
      </trkpt>
      <trkpt lat="44.25469" lon="4.97217">
        <ele>335.39999389648</ele>
        <time>2021-08-30T09:28:52Z</time>
      </trkpt>
      <trkpt lat="44.25469" lon="4.97224">
        <ele>335.60000610352</ele>
        <time>2021-08-30T09:28:53Z</time>
      </trkpt>
      <trkpt lat="44.25468" lon="4.97232">
        <ele>335.60000610352</ele>
        <time>2021-08-30T09:28:54Z</time>
      </trkpt>
      <trkpt lat="44.25466" lon="4.97269">
        <ele>336.20001220703</ele>
        <time>2021-08-30T09:28:59Z</time>
      </trkpt>
      <trkpt lat="44.25468" lon="4.97297">
        <ele>336.60000610352</ele>
        <time>2021-08-30T09:29:03Z</time>
      </trkpt>
      <trkpt lat="44.25469" lon="4.97304">
        <ele>336.79998779297</ele>
        <time>2021-08-30T09:29:04Z</time>
      </trkpt>
      <trkpt lat="44.25471" lon="4.9731">
        <ele>337</ele>
        <time>2021-08-30T09:29:05Z</time>
      </trkpt>
      <trkpt lat="44.25485" lon="4.9733">
        <ele>337.20001220703</ele>
        <time>2021-08-30T09:29:09Z</time>
      </trkpt>
      <trkpt lat="44.255" lon="4.97335">
        <ele>337.60000610352</ele>
        <time>2021-08-30T09:29:12Z</time>
      </trkpt>
      <trkpt lat="44.25512" lon="4.97336">
        <ele>337.60000610352</ele>
        <time>2021-08-30T09:29:14Z</time>
      </trkpt>
      <trkpt lat="44.25545" lon="4.9734">
        <ele>336.60000610352</ele>
        <time>2021-08-30T09:29:19Z</time>
      </trkpt>
      <trkpt lat="44.25573" lon="4.97348">
        <ele>335.39999389648</ele>
        <time>2021-08-30T09:29:23Z</time>
      </trkpt>
      <trkpt lat="44.25581" lon="4.97351">
        <ele>335</ele>
        <time>2021-08-30T09:29:24Z</time>
      </trkpt>
      <trkpt lat="44.25596" lon="4.97358">
        <ele>334.20001220703</ele>
        <time>2021-08-30T09:29:26Z</time>
      </trkpt>
      <trkpt lat="44.25619" lon="4.97371">
        <ele>333.20001220703</ele>
        <time>2021-08-30T09:29:29Z</time>
      </trkpt>
      <trkpt lat="44.25627" lon="4.97377">
        <ele>332.79998779297</ele>
        <time>2021-08-30T09:29:30Z</time>
      </trkpt>
      <trkpt lat="44.25638" lon="4.97397">
        <ele>331.79998779297</ele>
        <time>2021-08-30T09:29:32Z</time>
      </trkpt>
      <trkpt lat="44.25642" lon="4.97407">
        <ele>331.39999389648</ele>
        <time>2021-08-30T09:29:33Z</time>
      </trkpt>
      <trkpt lat="44.25646" lon="4.97417">
        <ele>330.79998779297</ele>
        <time>2021-08-30T09:29:34Z</time>
      </trkpt>
      <trkpt lat="44.25658" lon="4.97436">
        <ele>329.60000610352</ele>
        <time>2021-08-30T09:29:36Z</time>
      </trkpt>
      <trkpt lat="44.25664" lon="4.97444">
        <ele>329.20001220703</ele>
        <time>2021-08-30T09:29:37Z</time>
      </trkpt>
      <trkpt lat="44.25672" lon="4.97452">
        <ele>329</ele>
        <time>2021-08-30T09:29:38Z</time>
      </trkpt>
      <trkpt lat="44.25679" lon="4.9746">
        <ele>328.39999389648</ele>
        <time>2021-08-30T09:29:39Z</time>
      </trkpt>
      <trkpt lat="44.25686" lon="4.97465">
        <ele>327.79998779297</ele>
        <time>2021-08-30T09:29:40Z</time>
      </trkpt>
      <trkpt lat="44.25692" lon="4.97469">
        <ele>327.20001220703</ele>
        <time>2021-08-30T09:29:41Z</time>
      </trkpt>
      <trkpt lat="44.25696" lon="4.97475">
        <ele>326.60000610352</ele>
        <time>2021-08-30T09:29:42Z</time>
      </trkpt>
      <trkpt lat="44.25697" lon="4.97482">
        <ele>326</ele>
        <time>2021-08-30T09:29:43Z</time>
      </trkpt>
      <trkpt lat="44.25689" lon="4.97492">
        <ele>324.79998779297</ele>
        <time>2021-08-30T09:29:45Z</time>
      </trkpt>
      <trkpt lat="44.25678" lon="4.97494">
        <ele>323.39999389648</ele>
        <time>2021-08-30T09:29:47Z</time>
      </trkpt>
      <trkpt lat="44.25672" lon="4.97494">
        <ele>322.60000610352</ele>
        <time>2021-08-30T09:29:48Z</time>
      </trkpt>
      <trkpt lat="44.25666" lon="4.97492">
        <ele>322.20001220703</ele>
        <time>2021-08-30T09:29:49Z</time>
      </trkpt>
      <trkpt lat="44.25651" lon="4.97489">
        <ele>321.79998779297</ele>
        <time>2021-08-30T09:29:51Z</time>
      </trkpt>
      <trkpt lat="44.25637" lon="4.97487">
        <ele>321.20001220703</ele>
        <time>2021-08-30T09:29:53Z</time>
      </trkpt>
      <trkpt lat="44.25604" lon="4.97485">
        <ele>320</ele>
        <time>2021-08-30T09:29:57Z</time>
      </trkpt>
      <trkpt lat="44.25596" lon="4.97486">
        <ele>319.60000610352</ele>
        <time>2021-08-30T09:29:58Z</time>
      </trkpt>
      <trkpt lat="44.25588" lon="4.97485">
        <ele>319</ele>
        <time>2021-08-30T09:29:59Z</time>
      </trkpt>
      <trkpt lat="44.25548" lon="4.97487">
        <ele>317.79998779297</ele>
        <time>2021-08-30T09:30:04Z</time>
      </trkpt>
      <trkpt lat="44.25541" lon="4.9749">
        <ele>317.60000610352</ele>
        <time>2021-08-30T09:30:05Z</time>
      </trkpt>
      <trkpt lat="44.25526" lon="4.97501">
        <ele>317.20001220703</ele>
        <time>2021-08-30T09:30:07Z</time>
      </trkpt>
      <trkpt lat="44.25506" lon="4.97523">
        <ele>316.60000610352</ele>
        <time>2021-08-30T09:30:10Z</time>
      </trkpt>
      <trkpt lat="44.25499" lon="4.97542">
        <ele>316.20001220703</ele>
        <time>2021-08-30T09:30:12Z</time>
      </trkpt>
      <trkpt lat="44.25503" lon="4.97564">
        <ele>315.39999389648</ele>
        <time>2021-08-30T09:30:14Z</time>
      </trkpt>
      <trkpt lat="44.25511" lon="4.97583">
        <ele>314.39999389648</ele>
        <time>2021-08-30T09:30:16Z</time>
      </trkpt>
      <trkpt lat="44.2552" lon="4.97602">
        <ele>313.60000610352</ele>
        <time>2021-08-30T09:30:18Z</time>
      </trkpt>
      <trkpt lat="44.25525" lon="4.97611">
        <ele>313.39999389648</ele>
        <time>2021-08-30T09:30:19Z</time>
      </trkpt>
      <trkpt lat="44.25541" lon="4.9765">
        <ele>312.39999389648</ele>
        <time>2021-08-30T09:30:23Z</time>
      </trkpt>
      <trkpt lat="44.25546" lon="4.97658">
        <ele>312.20001220703</ele>
        <time>2021-08-30T09:30:24Z</time>
      </trkpt>
      <trkpt lat="44.25562" lon="4.97679">
        <ele>311.20001220703</ele>
        <time>2021-08-30T09:30:27Z</time>
      </trkpt>
      <trkpt lat="44.25564" lon="4.97687">
        <ele>311</ele>
        <time>2021-08-30T09:30:28Z</time>
      </trkpt>
      <trkpt lat="44.25564" lon="4.97696">
        <ele>310.60000610352</ele>
        <time>2021-08-30T09:30:29Z</time>
      </trkpt>
      <trkpt lat="44.25557" lon="4.97715">
        <ele>309.79998779297</ele>
        <time>2021-08-30T09:30:32Z</time>
      </trkpt>
      <trkpt lat="44.25548" lon="4.97714">
        <ele>308.79998779297</ele>
        <time>2021-08-30T09:30:35Z</time>
      </trkpt>
      <trkpt lat="44.25542" lon="4.97709">
        <ele>308.60000610352</ele>
        <time>2021-08-30T09:30:36Z</time>
      </trkpt>
      <trkpt lat="44.25535" lon="4.97703">
        <ele>308.39999389648</ele>
        <time>2021-08-30T09:30:37Z</time>
      </trkpt>
      <trkpt lat="44.25504" lon="4.97668">
        <ele>307.39999389648</ele>
        <time>2021-08-30T09:30:41Z</time>
      </trkpt>
      <trkpt lat="44.25489" lon="4.97652">
        <ele>307</ele>
        <time>2021-08-30T09:30:43Z</time>
      </trkpt>
      <trkpt lat="44.25473" lon="4.97637">
        <ele>306.20001220703</ele>
        <time>2021-08-30T09:30:45Z</time>
      </trkpt>
      <trkpt lat="44.25464" lon="4.97631">
        <ele>305.79998779297</ele>
        <time>2021-08-30T09:30:46Z</time>
      </trkpt>
      <trkpt lat="44.25455" lon="4.97625">
        <ele>305.20001220703</ele>
        <time>2021-08-30T09:30:47Z</time>
      </trkpt>
      <trkpt lat="44.25428" lon="4.97611">
        <ele>304</ele>
        <time>2021-08-30T09:30:50Z</time>
      </trkpt>
      <trkpt lat="44.25419" lon="4.97607">
        <ele>303.60000610352</ele>
        <time>2021-08-30T09:30:51Z</time>
      </trkpt>
      <trkpt lat="44.25402" lon="4.97601">
        <ele>303</ele>
        <time>2021-08-30T09:30:53Z</time>
      </trkpt>
      <trkpt lat="44.25367" lon="4.97582">
        <ele>301.79998779297</ele>
        <time>2021-08-30T09:30:57Z</time>
      </trkpt>
      <trkpt lat="44.25334" lon="4.97559">
        <ele>300.39999389648</ele>
        <time>2021-08-30T09:31:01Z</time>
      </trkpt>
      <trkpt lat="44.25325" lon="4.97554">
        <ele>300</ele>
        <time>2021-08-30T09:31:02Z</time>
      </trkpt>
      <trkpt lat="44.25307" lon="4.97543">
        <ele>299.20001220703</ele>
        <time>2021-08-30T09:31:04Z</time>
      </trkpt>
      <trkpt lat="44.25279" lon="4.9753">
        <ele>298</ele>
        <time>2021-08-30T09:31:07Z</time>
      </trkpt>
      <trkpt lat="44.25247" lon="4.9753">
        <ele>297</ele>
        <time>2021-08-30T09:31:10Z</time>
      </trkpt>
      <trkpt lat="44.25237" lon="4.97532">
        <ele>296.20001220703</ele>
        <time>2021-08-30T09:31:11Z</time>
      </trkpt>
      <trkpt lat="44.25217" lon="4.97538">
        <ele>295</ele>
        <time>2021-08-30T09:31:13Z</time>
      </trkpt>
      <trkpt lat="44.25199" lon="4.97544">
        <ele>294.20001220703</ele>
        <time>2021-08-30T09:31:15Z</time>
      </trkpt>
      <trkpt lat="44.2519" lon="4.97547">
        <ele>293.79998779297</ele>
        <time>2021-08-30T09:31:16Z</time>
      </trkpt>
      <trkpt lat="44.25146" lon="4.97566">
        <ele>293.20001220703</ele>
        <time>2021-08-30T09:31:21Z</time>
      </trkpt>
      <trkpt lat="44.25121" lon="4.9758">
        <ele>292.79998779297</ele>
        <time>2021-08-30T09:31:24Z</time>
      </trkpt>
      <trkpt lat="44.25089" lon="4.97599">
        <ele>291.60000610352</ele>
        <time>2021-08-30T09:31:28Z</time>
      </trkpt>
      <trkpt lat="44.2508" lon="4.97604">
        <ele>291.39999389648</ele>
        <time>2021-08-30T09:31:29Z</time>
      </trkpt>
      <trkpt lat="44.25054" lon="4.9762">
        <ele>290.20001220703</ele>
        <time>2021-08-30T09:31:32Z</time>
      </trkpt>
      <trkpt lat="44.25037" lon="4.97634">
        <ele>289.39999389648</ele>
        <time>2021-08-30T09:31:34Z</time>
      </trkpt>
      <trkpt lat="44.25028" lon="4.9764">
        <ele>288.20001220703</ele>
        <time>2021-08-30T09:31:35Z</time>
      </trkpt>
      <trkpt lat="44.2501" lon="4.97654">
        <ele>287.20001220703</ele>
        <time>2021-08-30T09:31:37Z</time>
      </trkpt>
      <trkpt lat="44.24992" lon="4.97668">
        <ele>286.20001220703</ele>
        <time>2021-08-30T09:31:39Z</time>
      </trkpt>
      <trkpt lat="44.24973" lon="4.97681">
        <ele>285</ele>
        <time>2021-08-30T09:31:41Z</time>
      </trkpt>
      <trkpt lat="44.24944" lon="4.97699">
        <ele>283.60000610352</ele>
        <time>2021-08-30T09:31:44Z</time>
      </trkpt>
      <trkpt lat="44.24924" lon="4.97706">
        <ele>282.79998779297</ele>
        <time>2021-08-30T09:31:46Z</time>
      </trkpt>
      <trkpt lat="44.24914" lon="4.97708">
        <ele>282.39999389648</ele>
        <time>2021-08-30T09:31:47Z</time>
      </trkpt>
      <trkpt lat="44.24884" lon="4.97714">
        <ele>281.20001220703</ele>
        <time>2021-08-30T09:31:50Z</time>
      </trkpt>
      <trkpt lat="44.24875" lon="4.97715">
        <ele>280.79998779297</ele>
        <time>2021-08-30T09:31:51Z</time>
      </trkpt>
      <trkpt lat="44.24846" lon="4.97722">
        <ele>280</ele>
        <time>2021-08-30T09:31:54Z</time>
      </trkpt>
      <trkpt lat="44.24808" lon="4.97735">
        <ele>279</ele>
        <time>2021-08-30T09:31:58Z</time>
      </trkpt>
      <trkpt lat="44.24798" lon="4.97739">
        <ele>278.60000610352</ele>
        <time>2021-08-30T09:31:59Z</time>
      </trkpt>
      <trkpt lat="44.24767" lon="4.97748">
        <ele>277.39999389648</ele>
        <time>2021-08-30T09:32:02Z</time>
      </trkpt>
      <trkpt lat="44.24746" lon="4.97753">
        <ele>276.39999389648</ele>
        <time>2021-08-30T09:32:04Z</time>
      </trkpt>
      <trkpt lat="44.24735" lon="4.97755">
        <ele>276</ele>
        <time>2021-08-30T09:32:05Z</time>
      </trkpt>
      <trkpt lat="44.24712" lon="4.97755">
        <ele>275</ele>
        <time>2021-08-30T09:32:07Z</time>
      </trkpt>
      <trkpt lat="44.24701" lon="4.97753">
        <ele>274.39999389648</ele>
        <time>2021-08-30T09:32:08Z</time>
      </trkpt>
      <trkpt lat="44.24689" lon="4.9775">
        <ele>273.79998779297</ele>
        <time>2021-08-30T09:32:09Z</time>
      </trkpt>
      <trkpt lat="44.24664" lon="4.97742">
        <ele>272.39999389648</ele>
        <time>2021-08-30T09:32:11Z</time>
      </trkpt>
      <trkpt lat="44.24639" lon="4.97733">
        <ele>271</ele>
        <time>2021-08-30T09:32:13Z</time>
      </trkpt>
      <trkpt lat="44.24615" lon="4.97721">
        <ele>269.39999389648</ele>
        <time>2021-08-30T09:32:15Z</time>
      </trkpt>
      <trkpt lat="44.2459" lon="4.97714">
        <ele>267.60000610352</ele>
        <time>2021-08-30T09:32:17Z</time>
      </trkpt>
      <trkpt lat="44.24564" lon="4.97712">
        <ele>265.79998779297</ele>
        <time>2021-08-30T09:32:19Z</time>
      </trkpt>
      <trkpt lat="44.24539" lon="4.97711">
        <ele>264.20001220703</ele>
        <time>2021-08-30T09:32:21Z</time>
      </trkpt>
      <trkpt lat="44.24513" lon="4.9771">
        <ele>262.39999389648</ele>
        <time>2021-08-30T09:32:23Z</time>
      </trkpt>
      <trkpt lat="44.24489" lon="4.97712">
        <ele>261.20001220703</ele>
        <time>2021-08-30T09:32:25Z</time>
      </trkpt>
      <trkpt lat="44.24477" lon="4.97714">
        <ele>260.39999389648</ele>
        <time>2021-08-30T09:32:26Z</time>
      </trkpt>
      <trkpt lat="44.24466" lon="4.97716">
        <ele>260</ele>
        <time>2021-08-30T09:32:27Z</time>
      </trkpt>
      <trkpt lat="44.24443" lon="4.97719">
        <ele>258.79998779297</ele>
        <time>2021-08-30T09:32:29Z</time>
      </trkpt>
      <trkpt lat="44.24421" lon="4.97723">
        <ele>258.20001220703</ele>
        <time>2021-08-30T09:32:31Z</time>
      </trkpt>
      <trkpt lat="44.24411" lon="4.97725">
        <ele>257.79998779297</ele>
        <time>2021-08-30T09:32:32Z</time>
      </trkpt>
      <trkpt lat="44.2438" lon="4.97737">
        <ele>256.39999389648</ele>
        <time>2021-08-30T09:32:35Z</time>
      </trkpt>
      <trkpt lat="44.24359" lon="4.97751">
        <ele>255</ele>
        <time>2021-08-30T09:32:37Z</time>
      </trkpt>
      <trkpt lat="44.24338" lon="4.97768">
        <ele>254.19999694824</ele>
        <time>2021-08-30T09:32:39Z</time>
      </trkpt>
      <trkpt lat="44.24327" lon="4.97776">
        <ele>253.60000610352</ele>
        <time>2021-08-30T09:32:40Z</time>
      </trkpt>
      <trkpt lat="44.24304" lon="4.97795">
        <ele>252</ele>
        <time>2021-08-30T09:32:42Z</time>
      </trkpt>
      <trkpt lat="44.24281" lon="4.97814">
        <ele>250.19999694824</ele>
        <time>2021-08-30T09:32:44Z</time>
      </trkpt>
      <trkpt lat="44.24269" lon="4.97824">
        <ele>249.39999389648</ele>
        <time>2021-08-30T09:32:45Z</time>
      </trkpt>
      <trkpt lat="44.24258" lon="4.97834">
        <ele>248.19999694824</ele>
        <time>2021-08-30T09:32:46Z</time>
      </trkpt>
      <trkpt lat="44.24246" lon="4.97845">
        <ele>246</ele>
        <time>2021-08-30T09:32:47Z</time>
      </trkpt>
      <trkpt lat="44.24223" lon="4.97867">
        <ele>244.19999694824</ele>
        <time>2021-08-30T09:32:49Z</time>
      </trkpt>
      <trkpt lat="44.24203" lon="4.97889">
        <ele>242.19999694824</ele>
        <time>2021-08-30T09:32:51Z</time>
      </trkpt>
      <trkpt lat="44.24194" lon="4.979">
        <ele>241.19999694824</ele>
        <time>2021-08-30T09:32:52Z</time>
      </trkpt>
      <trkpt lat="44.24186" lon="4.97909">
        <ele>240.19999694824</ele>
        <time>2021-08-30T09:32:53Z</time>
      </trkpt>
      <trkpt lat="44.24178" lon="4.97916">
        <ele>239.19999694824</ele>
        <time>2021-08-30T09:32:54Z</time>
      </trkpt>
      <trkpt lat="44.24169" lon="4.97921">
        <ele>238</ele>
        <time>2021-08-30T09:32:55Z</time>
      </trkpt>
      <trkpt lat="44.24159" lon="4.97921">
        <ele>237</ele>
        <time>2021-08-30T09:32:56Z</time>
      </trkpt>
      <trkpt lat="44.24149" lon="4.97922">
        <ele>235.80000305176</ele>
        <time>2021-08-30T09:32:57Z</time>
      </trkpt>
      <trkpt lat="44.24127" lon="4.97924">
        <ele>234</ele>
        <time>2021-08-30T09:32:59Z</time>
      </trkpt>
      <trkpt lat="44.24107" lon="4.97927">
        <ele>232.39999389648</ele>
        <time>2021-08-30T09:33:01Z</time>
      </trkpt>
      <trkpt lat="44.24098" lon="4.97931">
        <ele>231.80000305176</ele>
        <time>2021-08-30T09:33:02Z</time>
      </trkpt>
      <trkpt lat="44.24082" lon="4.97939">
        <ele>231.39999389648</ele>
        <time>2021-08-30T09:33:04Z</time>
      </trkpt>
      <trkpt lat="44.24059" lon="4.97949">
        <ele>231.19999694824</ele>
        <time>2021-08-30T09:33:07Z</time>
      </trkpt>
      <trkpt lat="44.24033" lon="4.97959">
        <ele>232.39999389648</ele>
        <time>2021-08-30T09:33:11Z</time>
      </trkpt>
      <trkpt lat="44.24021" lon="4.97963">
        <ele>233</ele>
        <time>2021-08-30T09:33:13Z</time>
      </trkpt>
      <trkpt lat="44.2401" lon="4.97967">
        <ele>233.60000610352</ele>
        <time>2021-08-30T09:33:15Z</time>
      </trkpt>
      <trkpt lat="44.23984" lon="4.97974">
        <ele>234.39999389648</ele>
        <time>2021-08-30T09:33:20Z</time>
      </trkpt>
      <trkpt lat="44.23974" lon="4.97975">
        <ele>234.80000305176</ele>
        <time>2021-08-30T09:33:22Z</time>
      </trkpt>
      <trkpt lat="44.23949" lon="4.97978">
        <ele>235.39999389648</ele>
        <time>2021-08-30T09:33:27Z</time>
      </trkpt>
      <trkpt lat="44.23939" lon="4.97981">
        <ele>235.80000305176</ele>
        <time>2021-08-30T09:33:29Z</time>
      </trkpt>
      <trkpt lat="44.23935" lon="4.97984">
        <ele>235.80000305176</ele>
        <time>2021-08-30T09:33:30Z</time>
      </trkpt>
      <trkpt lat="44.23926" lon="4.9799">
        <ele>236.19999694824</ele>
        <time>2021-08-30T09:33:32Z</time>
      </trkpt>
      <trkpt lat="44.23906" lon="4.98009">
        <ele>237</ele>
        <time>2021-08-30T09:33:37Z</time>
      </trkpt>
      <trkpt lat="44.23903" lon="4.98013">
        <ele>237.19999694824</ele>
        <time>2021-08-30T09:33:38Z</time>
      </trkpt>
      <trkpt lat="44.23896" lon="4.98023">
        <ele>237.60000610352</ele>
        <time>2021-08-30T09:33:40Z</time>
      </trkpt>
      <trkpt lat="44.23887" lon="4.9804">
        <ele>238</ele>
        <time>2021-08-30T09:33:43Z</time>
      </trkpt>
      <trkpt lat="44.23866" lon="4.98081">
        <ele>237.60000610352</ele>
        <time>2021-08-30T09:33:49Z</time>
      </trkpt>
      <trkpt lat="44.23851" lon="4.98101">
        <ele>236.80000305176</ele>
        <time>2021-08-30T09:33:52Z</time>
      </trkpt>
      <trkpt lat="44.2384" lon="4.98112">
        <ele>236.19999694824</ele>
        <time>2021-08-30T09:33:54Z</time>
      </trkpt>
      <trkpt lat="44.23821" lon="4.98125">
        <ele>235.60000610352</ele>
        <time>2021-08-30T09:33:57Z</time>
      </trkpt>
      <trkpt lat="44.23807" lon="4.98132">
        <ele>235</ele>
        <time>2021-08-30T09:33:59Z</time>
      </trkpt>
      <trkpt lat="44.23792" lon="4.98138">
        <ele>234.60000610352</ele>
        <time>2021-08-30T09:34:01Z</time>
      </trkpt>
      <trkpt lat="44.23785" lon="4.9814">
        <ele>234.19999694824</ele>
        <time>2021-08-30T09:34:02Z</time>
      </trkpt>
      <trkpt lat="44.23769" lon="4.98144">
        <ele>233.60000610352</ele>
        <time>2021-08-30T09:34:04Z</time>
      </trkpt>
      <trkpt lat="44.23762" lon="4.98145">
        <ele>233.19999694824</ele>
        <time>2021-08-30T09:34:05Z</time>
      </trkpt>
      <trkpt lat="44.23753" lon="4.98146">
        <ele>233</ele>
        <time>2021-08-30T09:34:06Z</time>
      </trkpt>
      <trkpt lat="44.2373" lon="4.98148">
        <ele>232.39999389648</ele>
        <time>2021-08-30T09:34:09Z</time>
      </trkpt>
      <trkpt lat="44.23723" lon="4.98151">
        <ele>232.19999694824</ele>
        <time>2021-08-30T09:34:10Z</time>
      </trkpt>
      <trkpt lat="44.23703" lon="4.98164">
        <ele>231.60000610352</ele>
        <time>2021-08-30T09:34:13Z</time>
      </trkpt>
      <trkpt lat="44.23692" lon="4.98175">
        <ele>231.39999389648</ele>
        <time>2021-08-30T09:34:15Z</time>
      </trkpt>
      <trkpt lat="44.23678" lon="4.98194">
        <ele>231.39999389648</ele>
        <time>2021-08-30T09:34:18Z</time>
      </trkpt>
      <trkpt lat="44.23653" lon="4.98241">
        <ele>232.19999694824</ele>
        <time>2021-08-30T09:34:25Z</time>
      </trkpt>
      <trkpt lat="44.23634" lon="4.9828">
        <ele>232.80000305176</ele>
        <time>2021-08-30T09:34:31Z</time>
      </trkpt>
      <trkpt lat="44.23611" lon="4.98329">
        <ele>232.80000305176</ele>
        <time>2021-08-30T09:34:38Z</time>
      </trkpt>
      <trkpt lat="44.23603" lon="4.98344">
        <ele>232.80000305176</ele>
        <time>2021-08-30T09:34:40Z</time>
      </trkpt>
      <trkpt lat="44.2359" lon="4.98365">
        <ele>232.80000305176</ele>
        <time>2021-08-30T09:34:43Z</time>
      </trkpt>
      <trkpt lat="44.23559" lon="4.98412">
        <ele>232.60000610352</ele>
        <time>2021-08-30T09:34:50Z</time>
      </trkpt>
      <trkpt lat="44.23525" lon="4.98463">
        <ele>231.80000305176</ele>
        <time>2021-08-30T09:34:57Z</time>
      </trkpt>
      <trkpt lat="44.2352" lon="4.98471">
        <ele>231.80000305176</ele>
        <time>2021-08-30T09:34:58Z</time>
      </trkpt>
      <trkpt lat="44.23502" lon="4.98507">
        <ele>231.39999389648</ele>
        <time>2021-08-30T09:35:02Z</time>
      </trkpt>
      <trkpt lat="44.23498" lon="4.98516">
        <ele>231.19999694824</ele>
        <time>2021-08-30T09:35:03Z</time>
      </trkpt>
      <trkpt lat="44.23476" lon="4.98562">
        <ele>230.60000610352</ele>
        <time>2021-08-30T09:35:08Z</time>
      </trkpt>
      <trkpt lat="44.23463" lon="4.98589">
        <ele>230</ele>
        <time>2021-08-30T09:35:11Z</time>
      </trkpt>
      <trkpt lat="44.2345" lon="4.98614">
        <ele>229.19999694824</ele>
        <time>2021-08-30T09:35:14Z</time>
      </trkpt>
      <trkpt lat="44.23438" lon="4.98637">
        <ele>229</ele>
        <time>2021-08-30T09:35:17Z</time>
      </trkpt>
      <trkpt lat="44.23426" lon="4.98656">
        <ele>229.19999694824</ele>
        <time>2021-08-30T09:35:20Z</time>
      </trkpt>
      <trkpt lat="44.23393" lon="4.98695">
        <ele>229.19999694824</ele>
        <time>2021-08-30T09:35:27Z</time>
      </trkpt>
      <trkpt lat="44.23354" lon="4.98727">
        <ele>230</ele>
        <time>2021-08-30T09:35:34Z</time>
      </trkpt>
      <trkpt lat="44.23348" lon="4.98731">
        <ele>230.19999694824</ele>
        <time>2021-08-30T09:35:35Z</time>
      </trkpt>
      <trkpt lat="44.23299" lon="4.98765">
        <ele>230.39999389648</ele>
        <time>2021-08-30T09:35:44Z</time>
      </trkpt>
      <trkpt lat="44.23293" lon="4.98768">
        <ele>230.39999389648</ele>
        <time>2021-08-30T09:35:45Z</time>
      </trkpt>
      <trkpt lat="44.23287" lon="4.9877">
        <ele>230.39999389648</ele>
        <time>2021-08-30T09:35:46Z</time>
      </trkpt>
      <trkpt lat="44.23269" lon="4.98771">
        <ele>230.60000610352</ele>
        <time>2021-08-30T09:35:49Z</time>
      </trkpt>
      <trkpt lat="44.23253" lon="4.98765">
        <ele>230.60000610352</ele>
        <time>2021-08-30T09:35:52Z</time>
      </trkpt>
      <trkpt lat="44.23247" lon="4.98764">
        <ele>230.60000610352</ele>
        <time>2021-08-30T09:35:53Z</time>
      </trkpt>
      <trkpt lat="44.23242" lon="4.98763">
        <ele>230.60000610352</ele>
        <time>2021-08-30T09:35:54Z</time>
      </trkpt>
      <trkpt lat="44.23238" lon="4.98761">
        <ele>230.80000305176</ele>
        <time>2021-08-30T09:35:55Z</time>
      </trkpt>
      <trkpt lat="44.2323" lon="4.98759">
        <ele>231.19999694824</ele>
        <time>2021-08-30T09:35:57Z</time>
      </trkpt>
      <trkpt lat="44.23222" lon="4.98756">
        <ele>232</ele>
        <time>2021-08-30T09:35:59Z</time>
      </trkpt>
      <trkpt lat="44.23219" lon="4.98755">
        <ele>232.19999694824</ele>
        <time>2021-08-30T09:36:00Z</time>
      </trkpt>
      <trkpt lat="44.23203" lon="4.98748">
        <ele>233.39999389648</ele>
        <time>2021-08-30T09:36:05Z</time>
      </trkpt>
      <trkpt lat="44.23192" lon="4.98744">
        <ele>234.19999694824</ele>
        <time>2021-08-30T09:36:09Z</time>
      </trkpt>
      <trkpt lat="44.23185" lon="4.98741">
        <ele>234.39999389648</ele>
        <time>2021-08-30T09:36:11Z</time>
      </trkpt>
      <trkpt lat="44.23174" lon="4.9873">
        <ele>234.19999694824</ele>
        <time>2021-08-30T09:36:14Z</time>
      </trkpt>
      <trkpt lat="44.23161" lon="4.98712">
        <ele>234</ele>
        <time>2021-08-30T09:36:18Z</time>
      </trkpt>
      <trkpt lat="44.23157" lon="4.98702">
        <ele>234.19999694824</ele>
        <time>2021-08-30T09:36:20Z</time>
      </trkpt>
      <trkpt lat="44.23142" lon="4.98674">
        <ele>234.39999389648</ele>
        <time>2021-08-30T09:36:27Z</time>
      </trkpt>
      <trkpt lat="44.23141" lon="4.98673">
        <ele>234.80000305176</ele>
        <time>2021-08-30T09:36:57Z</time>
      </trkpt>
      <trkpt lat="44.23148" lon="4.98681">
        <ele>234.60000610352</ele>
        <time>2021-08-30T09:37:01Z</time>
      </trkpt>
      <trkpt lat="44.23149" lon="4.98683">
        <ele>234.60000610352</ele>
        <time>2021-08-30T09:37:02Z</time>
      </trkpt>
      <trkpt lat="44.2315" lon="4.98687">
        <ele>233.80000305176</ele>
        <time>2021-08-30T09:37:09Z</time>
      </trkpt>
      <trkpt lat="44.2315" lon="4.9869">
        <ele>233.80000305176</ele>
        <time>2021-08-30T09:37:10Z</time>
      </trkpt>
      <trkpt lat="44.23152" lon="4.98699">
        <ele>233.19999694824</ele>
        <time>2021-08-30T09:37:14Z</time>
      </trkpt>
      <trkpt lat="44.23154" lon="4.98705">
        <ele>232.60000610352</ele>
        <time>2021-08-30T09:37:16Z</time>
      </trkpt>
      <trkpt lat="44.23155" lon="4.98712">
        <ele>232</ele>
        <time>2021-08-30T09:37:18Z</time>
      </trkpt>
      <trkpt lat="44.23155" lon="4.98722">
        <ele>231</ele>
        <time>2021-08-30T09:37:21Z</time>
      </trkpt>
      <trkpt lat="44.23155" lon="4.98728">
        <ele>230</ele>
        <time>2021-08-30T09:37:23Z</time>
      </trkpt>
      <trkpt lat="44.23153" lon="4.98731">
        <ele>229.60000610352</ele>
        <time>2021-08-30T09:37:24Z</time>
      </trkpt>
      <trkpt lat="44.23147" lon="4.98741">
        <ele>228.60000610352</ele>
        <time>2021-08-30T09:37:27Z</time>
      </trkpt>
      <trkpt lat="44.23143" lon="4.98749">
        <ele>227.39999389648</ele>
        <time>2021-08-30T09:37:30Z</time>
      </trkpt>
      <trkpt lat="44.23138" lon="4.98756">
        <ele>226.39999389648</ele>
        <time>2021-08-30T09:37:32Z</time>
      </trkpt>
      <trkpt lat="44.23136" lon="4.98759">
        <ele>226.19999694824</ele>
        <time>2021-08-30T09:37:33Z</time>
      </trkpt>
      <trkpt lat="44.23131" lon="4.98765">
        <ele>225</ele>
        <time>2021-08-30T09:37:35Z</time>
      </trkpt>
      <trkpt lat="44.23126" lon="4.98771">
        <ele>223.60000610352</ele>
        <time>2021-08-30T09:37:38Z</time>
      </trkpt>
      <trkpt lat="44.23121" lon="4.98777">
        <ele>222.19999694824</ele>
        <time>2021-08-30T09:37:41Z</time>
      </trkpt>
      <trkpt lat="44.23117" lon="4.9878">
        <ele>221.19999694824</ele>
        <time>2021-08-30T09:37:44Z</time>
      </trkpt>
      <trkpt lat="44.23115" lon="4.98782">
        <ele>221</ele>
        <time>2021-08-30T09:37:45Z</time>
      </trkpt>
      <trkpt lat="44.23111" lon="4.98792">
        <ele>220.60000610352</ele>
        <time>2021-08-30T09:37:48Z</time>
      </trkpt>
      <trkpt lat="44.23109" lon="4.98803">
        <ele>220</ele>
        <time>2021-08-30T09:37:51Z</time>
      </trkpt>
      <trkpt lat="44.23107" lon="4.98814">
        <ele>219.39999389648</ele>
        <time>2021-08-30T09:37:53Z</time>
      </trkpt>
      <trkpt lat="44.23105" lon="4.9882">
        <ele>219</ele>
        <time>2021-08-30T09:37:54Z</time>
      </trkpt>
      <trkpt lat="44.23099" lon="4.9885">
        <ele>217.60000610352</ele>
        <time>2021-08-30T09:37:58Z</time>
      </trkpt>
      <trkpt lat="44.23097" lon="4.98867">
        <ele>216.39999389648</ele>
        <time>2021-08-30T09:38:00Z</time>
      </trkpt>
      <trkpt lat="44.23094" lon="4.98884">
        <ele>215.39999389648</ele>
        <time>2021-08-30T09:38:02Z</time>
      </trkpt>
      <trkpt lat="44.23092" lon="4.98892">
        <ele>214.60000610352</ele>
        <time>2021-08-30T09:38:03Z</time>
      </trkpt>
      <trkpt lat="44.2309" lon="4.98899">
        <ele>213.80000305176</ele>
        <time>2021-08-30T09:38:04Z</time>
      </trkpt>
      <trkpt lat="44.23085" lon="4.98915">
        <ele>212.19999694824</ele>
        <time>2021-08-30T09:38:06Z</time>
      </trkpt>
      <trkpt lat="44.2308" lon="4.98932">
        <ele>210.39999389648</ele>
        <time>2021-08-30T09:38:08Z</time>
      </trkpt>
      <trkpt lat="44.23075" lon="4.98948">
        <ele>208.80000305176</ele>
        <time>2021-08-30T09:38:10Z</time>
      </trkpt>
      <trkpt lat="44.23069" lon="4.98965">
        <ele>207.19999694824</ele>
        <time>2021-08-30T09:38:12Z</time>
      </trkpt>
      <trkpt lat="44.23066" lon="4.98975">
        <ele>206.39999389648</ele>
        <time>2021-08-30T09:38:13Z</time>
      </trkpt>
      <trkpt lat="44.23063" lon="4.98984">
        <ele>205.39999389648</ele>
        <time>2021-08-30T09:38:14Z</time>
      </trkpt>
      <trkpt lat="44.23058" lon="4.98999">
        <ele>203.60000610352</ele>
        <time>2021-08-30T09:38:16Z</time>
      </trkpt>
      <trkpt lat="44.23056" lon="4.99005">
        <ele>202.60000610352</ele>
        <time>2021-08-30T09:38:17Z</time>
      </trkpt>
      <trkpt lat="44.23057" lon="4.99012">
        <ele>201.60000610352</ele>
        <time>2021-08-30T09:38:18Z</time>
      </trkpt>
      <trkpt lat="44.23061" lon="4.99023">
        <ele>199.80000305176</ele>
        <time>2021-08-30T09:38:20Z</time>
      </trkpt>
      <trkpt lat="44.23064" lon="4.9903">
        <ele>199</ele>
        <time>2021-08-30T09:38:21Z</time>
      </trkpt>
      <trkpt lat="44.23068" lon="4.99037">
        <ele>198.19999694824</ele>
        <time>2021-08-30T09:38:22Z</time>
      </trkpt>
      <trkpt lat="44.23072" lon="4.99046">
        <ele>196.80000305176</ele>
        <time>2021-08-30T09:38:23Z</time>
      </trkpt>
      <trkpt lat="44.23077" lon="4.99055">
        <ele>196</ele>
        <time>2021-08-30T09:38:24Z</time>
      </trkpt>
      <trkpt lat="44.23082" lon="4.99064">
        <ele>195.39999389648</ele>
        <time>2021-08-30T09:38:25Z</time>
      </trkpt>
      <trkpt lat="44.23092" lon="4.99083">
        <ele>194</ele>
        <time>2021-08-30T09:38:27Z</time>
      </trkpt>
      <trkpt lat="44.23103" lon="4.99102">
        <ele>192.80000305176</ele>
        <time>2021-08-30T09:38:29Z</time>
      </trkpt>
      <trkpt lat="44.23114" lon="4.99124">
        <ele>191.60000610352</ele>
        <time>2021-08-30T09:38:31Z</time>
      </trkpt>
      <trkpt lat="44.23125" lon="4.99146">
        <ele>190.60000610352</ele>
        <time>2021-08-30T09:38:33Z</time>
      </trkpt>
      <trkpt lat="44.23136" lon="4.99169">
        <ele>189.19999694824</ele>
        <time>2021-08-30T09:38:35Z</time>
      </trkpt>
      <trkpt lat="44.23149" lon="4.99193">
        <ele>188.19999694824</ele>
        <time>2021-08-30T09:38:37Z</time>
      </trkpt>
      <trkpt lat="44.23162" lon="4.99218">
        <ele>187</ele>
        <time>2021-08-30T09:38:39Z</time>
      </trkpt>
      <trkpt lat="44.23175" lon="4.99244">
        <ele>185.39999389648</ele>
        <time>2021-08-30T09:38:41Z</time>
      </trkpt>
      <trkpt lat="44.23188" lon="4.9927">
        <ele>183.60000610352</ele>
        <time>2021-08-30T09:38:43Z</time>
      </trkpt>
      <trkpt lat="44.23201" lon="4.99295">
        <ele>181.80000305176</ele>
        <time>2021-08-30T09:38:45Z</time>
      </trkpt>
      <trkpt lat="44.23208" lon="4.99319">
        <ele>178.80000305176</ele>
        <time>2021-08-30T09:38:47Z</time>
      </trkpt>
      <trkpt lat="44.23207" lon="4.99343">
        <ele>177.39999389648</ele>
        <time>2021-08-30T09:38:49Z</time>
      </trkpt>
      <trkpt lat="44.23203" lon="4.99354">
        <ele>176.80000305176</ele>
        <time>2021-08-30T09:38:50Z</time>
      </trkpt>
      <trkpt lat="44.232" lon="4.99364">
        <ele>176.19999694824</ele>
        <time>2021-08-30T09:38:51Z</time>
      </trkpt>
      <trkpt lat="44.23197" lon="4.99373">
        <ele>175.80000305176</ele>
        <time>2021-08-30T09:38:52Z</time>
      </trkpt>
      <trkpt lat="44.23193" lon="4.99391">
        <ele>175.39999389648</ele>
        <time>2021-08-30T09:38:54Z</time>
      </trkpt>
      <trkpt lat="44.23192" lon="4.994">
        <ele>175.19999694824</ele>
        <time>2021-08-30T09:38:55Z</time>
      </trkpt>
      <trkpt lat="44.23188" lon="4.99432">
        <ele>175.80000305176</ele>
        <time>2021-08-30T09:38:59Z</time>
      </trkpt>
      <trkpt lat="44.23186" lon="4.99445">
        <ele>176.39999389648</ele>
        <time>2021-08-30T09:39:01Z</time>
      </trkpt>
      <trkpt lat="44.23185" lon="4.99457">
        <ele>176.80000305176</ele>
        <time>2021-08-30T09:39:03Z</time>
      </trkpt>
      <trkpt lat="44.23184" lon="4.99463">
        <ele>177</ele>
        <time>2021-08-30T09:39:04Z</time>
      </trkpt>
      <trkpt lat="44.23182" lon="4.99474">
        <ele>177.39999389648</ele>
        <time>2021-08-30T09:39:06Z</time>
      </trkpt>
      <trkpt lat="44.23181" lon="4.99495">
        <ele>178</ele>
        <time>2021-08-30T09:39:10Z</time>
      </trkpt>
      <trkpt lat="44.23181" lon="4.995">
        <ele>178.39999389648</ele>
        <time>2021-08-30T09:39:11Z</time>
      </trkpt>
      <trkpt lat="44.23178" lon="4.99525">
        <ele>179.60000610352</ele>
        <time>2021-08-30T09:39:16Z</time>
      </trkpt>
      <trkpt lat="44.23179" lon="4.99543">
        <ele>180.60000610352</ele>
        <time>2021-08-30T09:39:20Z</time>
      </trkpt>
      <trkpt lat="44.2318" lon="4.99556">
        <ele>181.19999694824</ele>
        <time>2021-08-30T09:39:23Z</time>
      </trkpt>
      <trkpt lat="44.23181" lon="4.99569">
        <ele>181.60000610352</ele>
        <time>2021-08-30T09:39:26Z</time>
      </trkpt>
      <trkpt lat="44.23182" lon="4.99583">
        <ele>182.19999694824</ele>
        <time>2021-08-30T09:39:29Z</time>
      </trkpt>
      <trkpt lat="44.23184" lon="4.99602">
        <ele>182.80000305176</ele>
        <time>2021-08-30T09:39:33Z</time>
      </trkpt>
      <trkpt lat="44.23185" lon="4.99621">
        <ele>183.39999389648</ele>
        <time>2021-08-30T09:39:37Z</time>
      </trkpt>
      <trkpt lat="44.23186" lon="4.99635">
        <ele>184</ele>
        <time>2021-08-30T09:39:40Z</time>
      </trkpt>
      <trkpt lat="44.23187" lon="4.99644">
        <ele>184.39999389648</ele>
        <time>2021-08-30T09:39:42Z</time>
      </trkpt>
      <trkpt lat="44.23187" lon="4.99648">
        <ele>184.80000305176</ele>
        <time>2021-08-30T09:39:43Z</time>
      </trkpt>
      <trkpt lat="44.23188" lon="4.99652">
        <ele>185</ele>
        <time>2021-08-30T09:39:44Z</time>
      </trkpt>
      <trkpt lat="44.23193" lon="4.99676">
        <ele>185.60000610352</ele>
        <time>2021-08-30T09:39:50Z</time>
      </trkpt>
      <trkpt lat="44.23196" lon="4.99688">
        <ele>186.19999694824</ele>
        <time>2021-08-30T09:39:53Z</time>
      </trkpt>
      <trkpt lat="44.23202" lon="4.99708">
        <ele>186.80000305176</ele>
        <time>2021-08-30T09:39:57Z</time>
      </trkpt>
      <trkpt lat="44.23213" lon="4.99733">
        <ele>186.60000610352</ele>
        <time>2021-08-30T09:40:01Z</time>
      </trkpt>
      <trkpt lat="44.23221" lon="4.99747">
        <ele>186</ele>
        <time>2021-08-30T09:40:03Z</time>
      </trkpt>
      <trkpt lat="44.23229" lon="4.99763">
        <ele>185</ele>
        <time>2021-08-30T09:40:05Z</time>
      </trkpt>
      <trkpt lat="44.23241" lon="4.99787">
        <ele>183.39999389648</ele>
        <time>2021-08-30T09:40:08Z</time>
      </trkpt>
      <trkpt lat="44.23244" lon="4.99795">
        <ele>183</ele>
        <time>2021-08-30T09:40:09Z</time>
      </trkpt>
      <trkpt lat="44.23247" lon="4.99803">
        <ele>182.39999389648</ele>
        <time>2021-08-30T09:40:10Z</time>
      </trkpt>
      <trkpt lat="44.23254" lon="4.99816">
        <ele>181</ele>
        <time>2021-08-30T09:40:12Z</time>
      </trkpt>
      <trkpt lat="44.23255" lon="4.99822">
        <ele>180.39999389648</ele>
        <time>2021-08-30T09:40:13Z</time>
      </trkpt>
      <trkpt lat="44.23256" lon="4.99828">
        <ele>179.80000305176</ele>
        <time>2021-08-30T09:40:14Z</time>
      </trkpt>
      <trkpt lat="44.23253" lon="4.9984">
        <ele>178.39999389648</ele>
        <time>2021-08-30T09:40:16Z</time>
      </trkpt>
      <trkpt lat="44.23248" lon="4.99846">
        <ele>177.80000305176</ele>
        <time>2021-08-30T09:40:17Z</time>
      </trkpt>
      <trkpt lat="44.23242" lon="4.99849">
        <ele>177.19999694824</ele>
        <time>2021-08-30T09:40:18Z</time>
      </trkpt>
      <trkpt lat="44.23227" lon="4.99855">
        <ele>175.80000305176</ele>
        <time>2021-08-30T09:40:20Z</time>
      </trkpt>
      <trkpt lat="44.23212" lon="4.99858">
        <ele>174.80000305176</ele>
        <time>2021-08-30T09:40:22Z</time>
      </trkpt>
      <trkpt lat="44.23205" lon="4.99862">
        <ele>173.60000610352</ele>
        <time>2021-08-30T09:40:23Z</time>
      </trkpt>
      <trkpt lat="44.232" lon="4.99869">
        <ele>173</ele>
        <time>2021-08-30T09:40:24Z</time>
      </trkpt>
      <trkpt lat="44.23196" lon="4.99878">
        <ele>172.19999694824</ele>
        <time>2021-08-30T09:40:25Z</time>
      </trkpt>
      <trkpt lat="44.23193" lon="4.99897">
        <ele>170.60000610352</ele>
        <time>2021-08-30T09:40:27Z</time>
      </trkpt>
      <trkpt lat="44.23195" lon="4.99909">
        <ele>169</ele>
        <time>2021-08-30T09:40:29Z</time>
      </trkpt>
      <trkpt lat="44.23197" lon="4.99913">
        <ele>168.19999694824</ele>
        <time>2021-08-30T09:40:30Z</time>
      </trkpt>
      <trkpt lat="44.23199" lon="4.99914">
        <ele>167.39999389648</ele>
        <time>2021-08-30T09:40:31Z</time>
      </trkpt>
      <trkpt lat="44.23204" lon="4.99917">
        <ele>166</ele>
        <time>2021-08-30T09:40:33Z</time>
      </trkpt>
      <trkpt lat="44.23216" lon="4.99918">
        <ele>165</ele>
        <time>2021-08-30T09:40:36Z</time>
      </trkpt>
      <trkpt lat="44.2322" lon="4.99916">
        <ele>164.80000305176</ele>
        <time>2021-08-30T09:40:37Z</time>
      </trkpt>
      <trkpt lat="44.23252" lon="4.99902">
        <ele>165.19999694824</ele>
        <time>2021-08-30T09:40:44Z</time>
      </trkpt>
      <trkpt lat="44.23283" lon="4.99895">
        <ele>164.80000305176</ele>
        <time>2021-08-30T09:40:50Z</time>
      </trkpt>
      <trkpt lat="44.23325" lon="4.99898">
        <ele>165</ele>
        <time>2021-08-30T09:40:58Z</time>
      </trkpt>
      <trkpt lat="44.23379" lon="4.99904">
        <ele>165</ele>
        <time>2021-08-30T09:41:08Z</time>
      </trkpt>
      <trkpt lat="44.23391" lon="4.99908">
        <ele>165</ele>
        <time>2021-08-30T09:41:10Z</time>
      </trkpt>
      <trkpt lat="44.23408" lon="4.99918">
        <ele>165</ele>
        <time>2021-08-30T09:41:13Z</time>
      </trkpt>
      <trkpt lat="44.23441" lon="4.99944">
        <ele>165</ele>
        <time>2021-08-30T09:41:20Z</time>
      </trkpt>
      <trkpt lat="44.23475" lon="4.99972">
        <ele>165</ele>
        <time>2021-08-30T09:41:27Z</time>
      </trkpt>
      <trkpt lat="44.23518" lon="5.00013">
        <ele>165</ele>
        <time>2021-08-30T09:41:36Z</time>
      </trkpt>
      <trkpt lat="44.23551" lon="5.00059">
        <ele>165.19999694824</ele>
        <time>2021-08-30T09:41:44Z</time>
      </trkpt>
      <trkpt lat="44.2359" lon="5.00116">
        <ele>165</ele>
        <time>2021-08-30T09:41:54Z</time>
      </trkpt>
      <trkpt lat="44.23602" lon="5.00132">
        <ele>165.39999389648</ele>
        <time>2021-08-30T09:41:57Z</time>
      </trkpt>
      <trkpt lat="44.23619" lon="5.00149">
        <ele>165.39999389648</ele>
        <time>2021-08-30T09:42:01Z</time>
      </trkpt>
      <trkpt lat="44.23632" lon="5.00165">
        <ele>165.60000610352</ele>
        <time>2021-08-30T09:42:04Z</time>
      </trkpt>
      <trkpt lat="44.23644" lon="5.00184">
        <ele>165.60000610352</ele>
        <time>2021-08-30T09:42:07Z</time>
      </trkpt>
      <trkpt lat="44.23661" lon="5.00227">
        <ele>165.60000610352</ele>
        <time>2021-08-30T09:42:13Z</time>
      </trkpt>
      <trkpt lat="44.23683" lon="5.00283">
        <ele>165.80000305176</ele>
        <time>2021-08-30T09:42:21Z</time>
      </trkpt>
      <trkpt lat="44.23703" lon="5.00337">
        <ele>166</ele>
        <time>2021-08-30T09:42:29Z</time>
      </trkpt>
      <trkpt lat="44.23719" lon="5.00394">
        <ele>166.60000610352</ele>
        <time>2021-08-30T09:42:37Z</time>
      </trkpt>
      <trkpt lat="44.23721" lon="5.00408">
        <ele>166.80000305176</ele>
        <time>2021-08-30T09:42:39Z</time>
      </trkpt>
      <trkpt lat="44.23724" lon="5.00438">
        <ele>167</ele>
        <time>2021-08-30T09:42:43Z</time>
      </trkpt>
      <trkpt lat="44.23726" lon="5.00496">
        <ele>166.60000610352</ele>
        <time>2021-08-30T09:42:51Z</time>
      </trkpt>
      <trkpt lat="44.2373" lon="5.00554">
        <ele>166.80000305176</ele>
        <time>2021-08-30T09:42:59Z</time>
      </trkpt>
      <trkpt lat="44.23735" lon="5.00599">
        <ele>167</ele>
        <time>2021-08-30T09:43:05Z</time>
      </trkpt>
      <trkpt lat="44.23736" lon="5.00615">
        <ele>167</ele>
        <time>2021-08-30T09:43:07Z</time>
      </trkpt>
      <trkpt lat="44.23747" lon="5.00692">
        <ele>167.19999694824</ele>
        <time>2021-08-30T09:43:17Z</time>
      </trkpt>
      <trkpt lat="44.23752" lon="5.00706">
        <ele>167.19999694824</ele>
        <time>2021-08-30T09:43:19Z</time>
      </trkpt>
      <trkpt lat="44.23762" lon="5.00724">
        <ele>167.60000610352</ele>
        <time>2021-08-30T09:43:22Z</time>
      </trkpt>
      <trkpt lat="44.23766" lon="5.0073">
        <ele>167.80000305176</ele>
        <time>2021-08-30T09:43:23Z</time>
      </trkpt>
      <trkpt lat="44.23774" lon="5.0074">
        <ele>168</ele>
        <time>2021-08-30T09:43:25Z</time>
      </trkpt>
      <trkpt lat="44.23793" lon="5.00768">
        <ele>168.39999389648</ele>
        <time>2021-08-30T09:43:30Z</time>
      </trkpt>
      <trkpt lat="44.23827" lon="5.00817">
        <ele>168.80000305176</ele>
        <time>2021-08-30T09:43:39Z</time>
      </trkpt>
      <trkpt lat="44.23864" lon="5.0087">
        <ele>169.19999694824</ele>
        <time>2021-08-30T09:43:49Z</time>
      </trkpt>
      <trkpt lat="44.23868" lon="5.00875">
        <ele>169.39999389648</ele>
        <time>2021-08-30T09:43:50Z</time>
      </trkpt>
      <trkpt lat="44.23896" lon="5.00916">
        <ele>170.19999694824</ele>
        <time>2021-08-30T09:43:58Z</time>
      </trkpt>
      <trkpt lat="44.23899" lon="5.00921">
        <ele>170.19999694824</ele>
        <time>2021-08-30T09:43:59Z</time>
      </trkpt>
      <trkpt lat="44.23939" lon="5.00977">
        <ele>170.19999694824</ele>
        <time>2021-08-30T09:44:10Z</time>
      </trkpt>
      <trkpt lat="44.2397" lon="5.01024">
        <ele>170.19999694824</ele>
        <time>2021-08-30T09:44:19Z</time>
      </trkpt>
      <trkpt lat="44.24" lon="5.01067">
        <ele>170.19999694824</ele>
        <time>2021-08-30T09:44:27Z</time>
      </trkpt>
      <trkpt lat="44.24037" lon="5.01121">
        <ele>170.60000610352</ele>
        <time>2021-08-30T09:44:37Z</time>
      </trkpt>
      <trkpt lat="44.24058" lon="5.01152">
        <ele>171.19999694824</ele>
        <time>2021-08-30T09:44:43Z</time>
      </trkpt>
      <trkpt lat="44.24061" lon="5.01157">
        <ele>171.19999694824</ele>
        <time>2021-08-30T09:44:44Z</time>
      </trkpt>
      <trkpt lat="44.24088" lon="5.01195">
        <ele>172</ele>
        <time>2021-08-30T09:44:52Z</time>
      </trkpt>
      <trkpt lat="44.24119" lon="5.0124">
        <ele>171.39999389648</ele>
        <time>2021-08-30T09:45:01Z</time>
      </trkpt>
      <trkpt lat="44.24149" lon="5.01286">
        <ele>172</ele>
        <time>2021-08-30T09:45:10Z</time>
      </trkpt>
      <trkpt lat="44.24153" lon="5.01291">
        <ele>172</ele>
        <time>2021-08-30T09:45:11Z</time>
      </trkpt>
      <trkpt lat="44.24174" lon="5.0132">
        <ele>172</ele>
        <time>2021-08-30T09:45:17Z</time>
      </trkpt>
      <trkpt lat="44.24181" lon="5.01329">
        <ele>172.19999694824</ele>
        <time>2021-08-30T09:45:19Z</time>
      </trkpt>
      <trkpt lat="44.24201" lon="5.01354">
        <ele>172.39999389648</ele>
        <time>2021-08-30T09:45:25Z</time>
      </trkpt>
      <trkpt lat="44.24208" lon="5.01363">
        <ele>172.39999389648</ele>
        <time>2021-08-30T09:45:27Z</time>
      </trkpt>
      <trkpt lat="44.24221" lon="5.01372">
        <ele>172.80000305176</ele>
        <time>2021-08-30T09:45:30Z</time>
      </trkpt>
      <trkpt lat="44.24226" lon="5.01375">
        <ele>172.80000305176</ele>
        <time>2021-08-30T09:45:31Z</time>
      </trkpt>
      <trkpt lat="44.24247" lon="5.01387">
        <ele>172.80000305176</ele>
        <time>2021-08-30T09:45:35Z</time>
      </trkpt>
      <trkpt lat="44.24291" lon="5.01414">
        <ele>173</ele>
        <time>2021-08-30T09:45:44Z</time>
      </trkpt>
      <trkpt lat="44.243" lon="5.01421">
        <ele>173.19999694824</ele>
        <time>2021-08-30T09:45:46Z</time>
      </trkpt>
      <trkpt lat="44.24307" lon="5.01429">
        <ele>173.39999389648</ele>
        <time>2021-08-30T09:45:48Z</time>
      </trkpt>
      <trkpt lat="44.24311" lon="5.01434">
        <ele>173.39999389648</ele>
        <time>2021-08-30T09:45:49Z</time>
      </trkpt>
      <trkpt lat="44.24319" lon="5.01452">
        <ele>173.60000610352</ele>
        <time>2021-08-30T09:45:52Z</time>
      </trkpt>
      <trkpt lat="44.24328" lon="5.0147">
        <ele>173.80000305176</ele>
        <time>2021-08-30T09:45:55Z</time>
      </trkpt>
      <trkpt lat="44.24341" lon="5.01498">
        <ele>174.39999389648</ele>
        <time>2021-08-30T09:46:00Z</time>
      </trkpt>
      <trkpt lat="44.24356" lon="5.01526">
        <ele>175</ele>
        <time>2021-08-30T09:46:05Z</time>
      </trkpt>
      <trkpt lat="44.2437" lon="5.0155">
        <ele>175.39999389648</ele>
        <time>2021-08-30T09:46:10Z</time>
      </trkpt>
      <trkpt lat="44.24373" lon="5.01555">
        <ele>175.39999389648</ele>
        <time>2021-08-30T09:46:11Z</time>
      </trkpt>
      <trkpt lat="44.24392" lon="5.01586">
        <ele>175.39999389648</ele>
        <time>2021-08-30T09:46:17Z</time>
      </trkpt>
      <trkpt lat="44.24398" lon="5.01596">
        <ele>175.39999389648</ele>
        <time>2021-08-30T09:46:19Z</time>
      </trkpt>
      <trkpt lat="44.24422" lon="5.01632">
        <ele>175.39999389648</ele>
        <time>2021-08-30T09:46:26Z</time>
      </trkpt>
      <trkpt lat="44.24441" lon="5.01664">
        <ele>175.80000305176</ele>
        <time>2021-08-30T09:46:32Z</time>
      </trkpt>
      <trkpt lat="44.24466" lon="5.01705">
        <ele>176</ele>
        <time>2021-08-30T09:46:40Z</time>
      </trkpt>
      <trkpt lat="44.24481" lon="5.01731">
        <ele>176.19999694824</ele>
        <time>2021-08-30T09:46:45Z</time>
      </trkpt>
      <trkpt lat="44.24482" lon="5.01745">
        <ele>176.19999694824</ele>
        <time>2021-08-30T09:46:47Z</time>
      </trkpt>
      <trkpt lat="44.24486" lon="5.01757">
        <ele>176.39999389648</ele>
        <time>2021-08-30T09:46:49Z</time>
      </trkpt>
      <trkpt lat="44.24492" lon="5.01767">
        <ele>176.60000610352</ele>
        <time>2021-08-30T09:46:51Z</time>
      </trkpt>
      <trkpt lat="44.24509" lon="5.01779">
        <ele>176.80000305176</ele>
        <time>2021-08-30T09:46:55Z</time>
      </trkpt>
      <trkpt lat="44.24515" lon="5.01789">
        <ele>176.80000305176</ele>
        <time>2021-08-30T09:46:57Z</time>
      </trkpt>
      <trkpt lat="44.24523" lon="5.018">
        <ele>176.80000305176</ele>
        <time>2021-08-30T09:47:00Z</time>
      </trkpt>
      <trkpt lat="44.24525" lon="5.01806">
        <ele>176.19999694824</ele>
        <time>2021-08-30T09:47:10Z</time>
      </trkpt>
      <trkpt lat="44.24525" lon="5.0181">
        <ele>176.19999694824</ele>
        <time>2021-08-30T09:47:13Z</time>
      </trkpt>
      <trkpt lat="44.2452" lon="5.01821">
        <ele>176.19999694824</ele>
        <time>2021-08-30T09:47:18Z</time>
      </trkpt>
      <trkpt lat="44.24522" lon="5.0183">
        <ele>176.19999694824</ele>
        <time>2021-08-30T09:57:51Z</time>
      </trkpt>
      <trkpt lat="44.24524" lon="5.01826">
        <ele>176.39999389648</ele>
        <time>2021-08-30T09:57:53Z</time>
      </trkpt>
      <trkpt lat="44.2453" lon="5.01821">
        <ele>176.60000610352</ele>
        <time>2021-08-30T09:57:57Z</time>
      </trkpt>
      <trkpt lat="44.24531" lon="5.01819">
        <ele>176.60000610352</ele>
        <time>2021-08-30T09:57:58Z</time>
      </trkpt>
      <trkpt lat="44.24536" lon="5.01819">
        <ele>177.39999389648</ele>
        <time>2021-08-30T09:58:12Z</time>
      </trkpt>
      <trkpt lat="44.24534" lon="5.01812">
        <ele>177.39999389648</ele>
        <time>2021-08-30T09:58:14Z</time>
      </trkpt>
      <trkpt lat="44.24522" lon="5.01794">
        <ele>177.39999389648</ele>
        <time>2021-08-30T09:58:19Z</time>
      </trkpt>
      <trkpt lat="44.2452" lon="5.0179">
        <ele>177.60000610352</ele>
        <time>2021-08-30T09:58:20Z</time>
      </trkpt>
      <trkpt lat="44.24508" lon="5.01765">
        <ele>177.80000305176</ele>
        <time>2021-08-30T09:58:26Z</time>
      </trkpt>
      <trkpt lat="44.24508" lon="5.0176">
        <ele>177.80000305176</ele>
        <time>2021-08-30T09:58:27Z</time>
      </trkpt>
      <trkpt lat="44.24511" lon="5.0175">
        <ele>177.80000305176</ele>
        <time>2021-08-30T09:58:29Z</time>
      </trkpt>
      <trkpt lat="44.24523" lon="5.01739">
        <ele>178</ele>
        <time>2021-08-30T09:58:33Z</time>
      </trkpt>
      <trkpt lat="44.24534" lon="5.01742">
        <ele>178.39999389648</ele>
        <time>2021-08-30T09:58:36Z</time>
      </trkpt>
      <trkpt lat="44.24538" lon="5.01743">
        <ele>178.39999389648</ele>
        <time>2021-08-30T09:58:37Z</time>
      </trkpt>
      <trkpt lat="44.24561" lon="5.01748">
        <ele>178.39999389648</ele>
        <time>2021-08-30T09:58:43Z</time>
      </trkpt>
      <trkpt lat="44.24576" lon="5.0175">
        <ele>178.60000610352</ele>
        <time>2021-08-30T09:58:47Z</time>
      </trkpt>
      <trkpt lat="44.24605" lon="5.01752">
        <ele>179</ele>
        <time>2021-08-30T09:58:55Z</time>
      </trkpt>
      <trkpt lat="44.24621" lon="5.01753">
        <ele>179.39999389648</ele>
        <time>2021-08-30T09:58:59Z</time>
      </trkpt>
      <trkpt lat="44.24625" lon="5.01754">
        <ele>179.60000610352</ele>
        <time>2021-08-30T09:59:00Z</time>
      </trkpt>
      <trkpt lat="44.24633" lon="5.01754">
        <ele>180</ele>
        <time>2021-08-30T09:59:02Z</time>
      </trkpt>
      <trkpt lat="44.24668" lon="5.01758">
        <ele>180.19999694824</ele>
        <time>2021-08-30T09:59:10Z</time>
      </trkpt>
      <trkpt lat="44.24703" lon="5.01765">
        <ele>180.39999389648</ele>
        <time>2021-08-30T09:59:18Z</time>
      </trkpt>
      <trkpt lat="44.24725" lon="5.01771">
        <ele>180.60000610352</ele>
        <time>2021-08-30T09:59:23Z</time>
      </trkpt>
      <trkpt lat="44.24734" lon="5.01773">
        <ele>180.80000305176</ele>
        <time>2021-08-30T09:59:25Z</time>
      </trkpt>
      <trkpt lat="44.24774" lon="5.01786">
        <ele>181</ele>
        <time>2021-08-30T09:59:34Z</time>
      </trkpt>
      <trkpt lat="44.24808" lon="5.01798">
        <ele>181.19999694824</ele>
        <time>2021-08-30T09:59:42Z</time>
      </trkpt>
      <trkpt lat="44.24832" lon="5.01808">
        <ele>181.60000610352</ele>
        <time>2021-08-30T09:59:48Z</time>
      </trkpt>
      <trkpt lat="44.2484" lon="5.01811">
        <ele>181.60000610352</ele>
        <time>2021-08-30T09:59:50Z</time>
      </trkpt>
      <trkpt lat="44.24862" lon="5.01819">
        <ele>181.80000305176</ele>
        <time>2021-08-30T09:59:55Z</time>
      </trkpt>
      <trkpt lat="44.2487" lon="5.01823">
        <ele>181.80000305176</ele>
        <time>2021-08-30T09:59:57Z</time>
      </trkpt>
      <trkpt lat="44.24878" lon="5.01828">
        <ele>182</ele>
        <time>2021-08-30T09:59:59Z</time>
      </trkpt>
      <trkpt lat="44.24883" lon="5.01829">
        <ele>182.19999694824</ele>
        <time>2021-08-30T10:00:00Z</time>
      </trkpt>
      <trkpt lat="44.24917" lon="5.01844">
        <ele>182.60000610352</ele>
        <time>2021-08-30T10:00:08Z</time>
      </trkpt>
      <trkpt lat="44.24949" lon="5.01857">
        <ele>182.39999389648</ele>
        <time>2021-08-30T10:00:16Z</time>
      </trkpt>
      <trkpt lat="44.24953" lon="5.01858">
        <ele>182.60000610352</ele>
        <time>2021-08-30T10:00:17Z</time>
      </trkpt>
      <trkpt lat="44.24966" lon="5.01863">
        <ele>183</ele>
        <time>2021-08-30T10:00:20Z</time>
      </trkpt>
      <trkpt lat="44.24978" lon="5.01868">
        <ele>183.19999694824</ele>
        <time>2021-08-30T10:00:23Z</time>
      </trkpt>
      <trkpt lat="44.25002" lon="5.01877">
        <ele>183.60000610352</ele>
        <time>2021-08-30T10:00:29Z</time>
      </trkpt>
      <trkpt lat="44.2501" lon="5.01879">
        <ele>183.80000305176</ele>
        <time>2021-08-30T10:00:31Z</time>
      </trkpt>
      <trkpt lat="44.25014" lon="5.01881">
        <ele>184</ele>
        <time>2021-08-30T10:00:32Z</time>
      </trkpt>
      <trkpt lat="44.25048" lon="5.01895">
        <ele>184.19999694824</ele>
        <time>2021-08-30T10:00:41Z</time>
      </trkpt>
      <trkpt lat="44.25069" lon="5.01905">
        <ele>184.60000610352</ele>
        <time>2021-08-30T10:00:47Z</time>
      </trkpt>
      <trkpt lat="44.25076" lon="5.01908">
        <ele>184.80000305176</ele>
        <time>2021-08-30T10:00:49Z</time>
      </trkpt>
      <trkpt lat="44.25098" lon="5.01916">
        <ele>185.39999389648</ele>
        <time>2021-08-30T10:00:55Z</time>
      </trkpt>
      <trkpt lat="44.25106" lon="5.01919">
        <ele>185.39999389648</ele>
        <time>2021-08-30T10:00:57Z</time>
      </trkpt>
      <trkpt lat="44.25125" lon="5.01928">
        <ele>185.39999389648</ele>
        <time>2021-08-30T10:01:02Z</time>
      </trkpt>
      <trkpt lat="44.25153" lon="5.01945">
        <ele>185.80000305176</ele>
        <time>2021-08-30T10:01:09Z</time>
      </trkpt>
      <trkpt lat="44.25192" lon="5.01968">
        <ele>185.80000305176</ele>
        <time>2021-08-30T10:01:19Z</time>
      </trkpt>
      <trkpt lat="44.25232" lon="5.01993">
        <ele>186.60000610352</ele>
        <time>2021-08-30T10:01:29Z</time>
      </trkpt>
      <trkpt lat="44.25266" lon="5.02016">
        <ele>187</ele>
        <time>2021-08-30T10:01:38Z</time>
      </trkpt>
      <trkpt lat="44.25269" lon="5.02018">
        <ele>187.19999694824</ele>
        <time>2021-08-30T10:01:39Z</time>
      </trkpt>
      <trkpt lat="44.25296" lon="5.02036">
        <ele>188</ele>
        <time>2021-08-30T10:01:47Z</time>
      </trkpt>
      <trkpt lat="44.25317" lon="5.0205">
        <ele>189</ele>
        <time>2021-08-30T10:01:54Z</time>
      </trkpt>
      <trkpt lat="44.25332" lon="5.02059">
        <ele>189.19999694824</ele>
        <time>2021-08-30T10:01:59Z</time>
      </trkpt>
      <trkpt lat="44.25337" lon="5.02064">
        <ele>189.60000610352</ele>
        <time>2021-08-30T10:02:01Z</time>
      </trkpt>
      <trkpt lat="44.2534" lon="5.02066">
        <ele>190.60000610352</ele>
        <time>2021-08-30T10:05:16Z</time>
      </trkpt>
      <trkpt lat="44.25351" lon="5.02071">
        <ele>190.80000305176</ele>
        <time>2021-08-30T10:05:20Z</time>
      </trkpt>
      <trkpt lat="44.25355" lon="5.02073">
        <ele>190.80000305176</ele>
        <time>2021-08-30T10:05:21Z</time>
      </trkpt>
      <trkpt lat="44.25371" lon="5.02082">
        <ele>191.19999694824</ele>
        <time>2021-08-30T10:05:26Z</time>
      </trkpt>
      <trkpt lat="44.25381" lon="5.02088">
        <ele>191.80000305176</ele>
        <time>2021-08-30T10:05:29Z</time>
      </trkpt>
      <trkpt lat="44.254" lon="5.02099">
        <ele>192.80000305176</ele>
        <time>2021-08-30T10:05:35Z</time>
      </trkpt>
      <trkpt lat="44.25413" lon="5.02106">
        <ele>193.80000305176</ele>
        <time>2021-08-30T10:05:39Z</time>
      </trkpt>
      <trkpt lat="44.25425" lon="5.02115">
        <ele>194.60000610352</ele>
        <time>2021-08-30T10:05:43Z</time>
      </trkpt>
      <trkpt lat="44.25432" lon="5.0212">
        <ele>195</ele>
        <time>2021-08-30T10:05:45Z</time>
      </trkpt>
      <trkpt lat="44.25448" lon="5.02135">
        <ele>195.39999389648</ele>
        <time>2021-08-30T10:05:50Z</time>
      </trkpt>
      <trkpt lat="44.25478" lon="5.02162">
        <ele>195.80000305176</ele>
        <time>2021-08-30T10:05:59Z</time>
      </trkpt>
      <trkpt lat="44.25497" lon="5.0218">
        <ele>196</ele>
        <time>2021-08-30T10:06:05Z</time>
      </trkpt>
      <trkpt lat="44.25504" lon="5.02186">
        <ele>196</ele>
        <time>2021-08-30T10:06:07Z</time>
      </trkpt>
      <trkpt lat="44.2554" lon="5.02215">
        <ele>196.60000610352</ele>
        <time>2021-08-30T10:06:17Z</time>
      </trkpt>
      <trkpt lat="44.25569" lon="5.02239">
        <ele>196.80000305176</ele>
        <time>2021-08-30T10:06:25Z</time>
      </trkpt>
      <trkpt lat="44.25573" lon="5.02242">
        <ele>197</ele>
        <time>2021-08-30T10:06:26Z</time>
      </trkpt>
      <trkpt lat="44.256" lon="5.02266">
        <ele>197.19999694824</ele>
        <time>2021-08-30T10:06:34Z</time>
      </trkpt>
      <trkpt lat="44.25629" lon="5.02296">
        <ele>197.39999389648</ele>
        <time>2021-08-30T10:06:43Z</time>
      </trkpt>
      <trkpt lat="44.2565" lon="5.02321">
        <ele>198</ele>
        <time>2021-08-30T10:06:50Z</time>
      </trkpt>
      <trkpt lat="44.25656" lon="5.02327">
        <ele>198.19999694824</ele>
        <time>2021-08-30T10:06:52Z</time>
      </trkpt>
      <trkpt lat="44.25673" lon="5.02345">
        <ele>199.19999694824</ele>
        <time>2021-08-30T10:06:58Z</time>
      </trkpt>
      <trkpt lat="44.25678" lon="5.0235">
        <ele>199.39999389648</ele>
        <time>2021-08-30T10:07:00Z</time>
      </trkpt>
      <trkpt lat="44.25693" lon="5.02358">
        <ele>200.39999389648</ele>
        <time>2021-08-30T10:07:05Z</time>
      </trkpt>
      <trkpt lat="44.25699" lon="5.02361">
        <ele>200.39999389648</ele>
        <time>2021-08-30T10:07:07Z</time>
      </trkpt>
      <trkpt lat="44.25731" lon="5.02372">
        <ele>201.39999389648</ele>
        <time>2021-08-30T10:07:17Z</time>
      </trkpt>
      <trkpt lat="44.25733" lon="5.02373">
        <ele>201.39999389648</ele>
        <time>2021-08-30T10:07:18Z</time>
      </trkpt>
      <trkpt lat="44.25749" lon="5.02378">
        <ele>202.19999694824</ele>
        <time>2021-08-30T10:07:23Z</time>
      </trkpt>
      <trkpt lat="44.25764" lon="5.02384">
        <ele>202.39999389648</ele>
        <time>2021-08-30T10:07:28Z</time>
      </trkpt>
      <trkpt lat="44.2578" lon="5.02393">
        <ele>203.19999694824</ele>
        <time>2021-08-30T10:07:33Z</time>
      </trkpt>
      <trkpt lat="44.25793" lon="5.024">
        <ele>203.60000610352</ele>
        <time>2021-08-30T10:07:37Z</time>
      </trkpt>
      <trkpt lat="44.25807" lon="5.02411">
        <ele>203.39999389648</ele>
        <time>2021-08-30T10:07:41Z</time>
      </trkpt>
      <trkpt lat="44.25834" lon="5.02433">
        <ele>202.80000305176</ele>
        <time>2021-08-30T10:07:48Z</time>
      </trkpt>
      <trkpt lat="44.25855" lon="5.0245">
        <ele>202.39999389648</ele>
        <time>2021-08-30T10:07:53Z</time>
      </trkpt>
      <trkpt lat="44.2586" lon="5.02454">
        <ele>202.39999389648</ele>
        <time>2021-08-30T10:07:54Z</time>
      </trkpt>
      <trkpt lat="44.25877" lon="5.02467">
        <ele>202.39999389648</ele>
        <time>2021-08-30T10:07:59Z</time>
      </trkpt>
      <trkpt lat="44.25884" lon="5.0247">
        <ele>202.39999389648</ele>
        <time>2021-08-30T10:08:01Z</time>
      </trkpt>
      <trkpt lat="44.25897" lon="5.02473">
        <ele>202.39999389648</ele>
        <time>2021-08-30T10:08:04Z</time>
      </trkpt>
      <trkpt lat="44.25932" lon="5.02482">
        <ele>202.39999389648</ele>
        <time>2021-08-30T10:08:12Z</time>
      </trkpt>
      <trkpt lat="44.25969" lon="5.02489">
        <ele>202.60000610352</ele>
        <time>2021-08-30T10:08:21Z</time>
      </trkpt>
      <trkpt lat="44.25999" lon="5.02493">
        <ele>203.19999694824</ele>
        <time>2021-08-30T10:08:28Z</time>
      </trkpt>
      <trkpt lat="44.26007" lon="5.02494">
        <ele>203.39999389648</ele>
        <time>2021-08-30T10:08:30Z</time>
      </trkpt>
      <trkpt lat="44.26038" lon="5.02497">
        <ele>203.19999694824</ele>
        <time>2021-08-30T10:08:37Z</time>
      </trkpt>
      <trkpt lat="44.26073" lon="5.02499">
        <ele>203.19999694824</ele>
        <time>2021-08-30T10:08:45Z</time>
      </trkpt>
      <trkpt lat="44.26102" lon="5.02503">
        <ele>203.19999694824</ele>
        <time>2021-08-30T10:08:51Z</time>
      </trkpt>
      <trkpt lat="44.2614" lon="5.02507">
        <ele>203.39999389648</ele>
        <time>2021-08-30T10:08:59Z</time>
      </trkpt>
      <trkpt lat="44.26186" lon="5.02511">
        <ele>203.80000305176</ele>
        <time>2021-08-30T10:09:09Z</time>
      </trkpt>
      <trkpt lat="44.26208" lon="5.02513">
        <ele>204.80000305176</ele>
        <time>2021-08-30T10:09:14Z</time>
      </trkpt>
      <trkpt lat="44.26225" lon="5.02514">
        <ele>205.19999694824</ele>
        <time>2021-08-30T10:09:18Z</time>
      </trkpt>
      <trkpt lat="44.26242" lon="5.02515">
        <ele>205.80000305176</ele>
        <time>2021-08-30T10:09:22Z</time>
      </trkpt>
      <trkpt lat="44.26263" lon="5.02517">
        <ele>206.19999694824</ele>
        <time>2021-08-30T10:09:27Z</time>
      </trkpt>
      <trkpt lat="44.26288" lon="5.02519">
        <ele>206.80000305176</ele>
        <time>2021-08-30T10:09:33Z</time>
      </trkpt>
      <trkpt lat="44.26301" lon="5.02521">
        <ele>207.19999694824</ele>
        <time>2021-08-30T10:09:36Z</time>
      </trkpt>
      <trkpt lat="44.26326" lon="5.02522">
        <ele>207.80000305176</ele>
        <time>2021-08-30T10:09:42Z</time>
      </trkpt>
      <trkpt lat="44.26335" lon="5.02522">
        <ele>208</ele>
        <time>2021-08-30T10:09:44Z</time>
      </trkpt>
      <trkpt lat="44.26367" lon="5.02521">
        <ele>208.80000305176</ele>
        <time>2021-08-30T10:09:52Z</time>
      </trkpt>
      <trkpt lat="44.26371" lon="5.02521">
        <ele>208.80000305176</ele>
        <time>2021-08-30T10:09:53Z</time>
      </trkpt>
      <trkpt lat="44.26407" lon="5.02517">
        <ele>209.80000305176</ele>
        <time>2021-08-30T10:10:02Z</time>
      </trkpt>
      <trkpt lat="44.26411" lon="5.02517">
        <ele>210</ele>
        <time>2021-08-30T10:10:03Z</time>
      </trkpt>
      <trkpt lat="44.26453" lon="5.02514">
        <ele>210.80000305176</ele>
        <time>2021-08-30T10:10:13Z</time>
      </trkpt>
      <trkpt lat="44.26461" lon="5.02514">
        <ele>211</ele>
        <time>2021-08-30T10:10:15Z</time>
      </trkpt>
      <trkpt lat="44.26489" lon="5.02515">
        <ele>211.80000305176</ele>
        <time>2021-08-30T10:10:22Z</time>
      </trkpt>
      <trkpt lat="44.26496" lon="5.02516">
        <ele>212</ele>
        <time>2021-08-30T10:10:24Z</time>
      </trkpt>
      <trkpt lat="44.26528" lon="5.02522">
        <ele>212.19999694824</ele>
        <time>2021-08-30T10:10:32Z</time>
      </trkpt>
      <trkpt lat="44.26565" lon="5.02533">
        <ele>212</ele>
        <time>2021-08-30T10:10:41Z</time>
      </trkpt>
      <trkpt lat="44.26599" lon="5.02541">
        <ele>212.60000610352</ele>
        <time>2021-08-30T10:10:49Z</time>
      </trkpt>
      <trkpt lat="44.26629" lon="5.02544">
        <ele>213</ele>
        <time>2021-08-30T10:10:56Z</time>
      </trkpt>
      <trkpt lat="44.26638" lon="5.02544">
        <ele>213.19999694824</ele>
        <time>2021-08-30T10:10:58Z</time>
      </trkpt>
      <trkpt lat="44.26663" lon="5.02545">
        <ele>214.19999694824</ele>
        <time>2021-08-30T10:11:04Z</time>
      </trkpt>
      <trkpt lat="44.26671" lon="5.02545">
        <ele>214.39999389648</ele>
        <time>2021-08-30T10:11:06Z</time>
      </trkpt>
      <trkpt lat="44.2669" lon="5.02546">
        <ele>215.19999694824</ele>
        <time>2021-08-30T10:11:11Z</time>
      </trkpt>
      <trkpt lat="44.26696" lon="5.02547">
        <ele>215.60000610352</ele>
        <time>2021-08-30T10:11:13Z</time>
      </trkpt>
      <trkpt lat="44.26711" lon="5.02547">
        <ele>216.39999389648</ele>
        <time>2021-08-30T10:11:17Z</time>
      </trkpt>
      <trkpt lat="44.26725" lon="5.02548">
        <ele>216.60000610352</ele>
        <time>2021-08-30T10:11:21Z</time>
      </trkpt>
      <trkpt lat="44.26749" lon="5.02548">
        <ele>217.39999389648</ele>
        <time>2021-08-30T10:11:28Z</time>
      </trkpt>
      <trkpt lat="44.26753" lon="5.02548">
        <ele>217.60000610352</ele>
        <time>2021-08-30T10:11:29Z</time>
      </trkpt>
      <trkpt lat="44.26782" lon="5.02548">
        <ele>218.39999389648</ele>
        <time>2021-08-30T10:11:37Z</time>
      </trkpt>
      <trkpt lat="44.26789" lon="5.02548">
        <ele>218.80000305176</ele>
        <time>2021-08-30T10:11:39Z</time>
      </trkpt>
      <trkpt lat="44.26815" lon="5.02547">
        <ele>218.80000305176</ele>
        <time>2021-08-30T10:11:45Z</time>
      </trkpt>
      <trkpt lat="44.26851" lon="5.02545">
        <ele>218.39999389648</ele>
        <time>2021-08-30T10:11:53Z</time>
      </trkpt>
      <trkpt lat="44.26892" lon="5.02545">
        <ele>218.80000305176</ele>
        <time>2021-08-30T10:12:03Z</time>
      </trkpt>
      <trkpt lat="44.26928" lon="5.02554">
        <ele>218.39999389648</ele>
        <time>2021-08-30T10:12:12Z</time>
      </trkpt>
      <trkpt lat="44.26961" lon="5.02569">
        <ele>218.39999389648</ele>
        <time>2021-08-30T10:12:21Z</time>
      </trkpt>
      <trkpt lat="44.2698" lon="5.02581">
        <ele>218.60000610352</ele>
        <time>2021-08-30T10:12:27Z</time>
      </trkpt>
      <trkpt lat="44.26988" lon="5.02586">
        <ele>218.60000610352</ele>
        <time>2021-08-30T10:12:30Z</time>
      </trkpt>
      <trkpt lat="44.26994" lon="5.02585">
        <ele>218.80000305176</ele>
        <time>2021-08-30T10:12:32Z</time>
      </trkpt>
      <trkpt lat="44.27002" lon="5.02581">
        <ele>219.60000610352</ele>
        <time>2021-08-30T10:12:35Z</time>
      </trkpt>
      <trkpt lat="44.2701" lon="5.02579">
        <ele>220.39999389648</ele>
        <time>2021-08-30T10:12:38Z</time>
      </trkpt>
      <trkpt lat="44.27022" lon="5.02576">
        <ele>220.60000610352</ele>
        <time>2021-08-30T10:12:42Z</time>
      </trkpt>
      <trkpt lat="44.27034" lon="5.02573">
        <ele>221</ele>
        <time>2021-08-30T10:12:46Z</time>
      </trkpt>
      <trkpt lat="44.27046" lon="5.02569">
        <ele>221.80000305176</ele>
        <time>2021-08-30T10:12:50Z</time>
      </trkpt>
      <trkpt lat="44.27056" lon="5.02568">
        <ele>222.19999694824</ele>
        <time>2021-08-30T10:12:53Z</time>
      </trkpt>
      <trkpt lat="44.27068" lon="5.02565">
        <ele>222.80000305176</ele>
        <time>2021-08-30T10:12:57Z</time>
      </trkpt>
      <trkpt lat="44.27079" lon="5.0256">
        <ele>223.39999389648</ele>
        <time>2021-08-30T10:13:01Z</time>
      </trkpt>
      <trkpt lat="44.27088" lon="5.02558">
        <ele>223.80000305176</ele>
        <time>2021-08-30T10:13:04Z</time>
      </trkpt>
      <trkpt lat="44.271" lon="5.02558">
        <ele>224.39999389648</ele>
        <time>2021-08-30T10:13:08Z</time>
      </trkpt>
      <trkpt lat="44.27109" lon="5.02555">
        <ele>225</ele>
        <time>2021-08-30T10:13:11Z</time>
      </trkpt>
      <trkpt lat="44.2712" lon="5.02552">
        <ele>225.60000610352</ele>
        <time>2021-08-30T10:13:15Z</time>
      </trkpt>
      <trkpt lat="44.27125" lon="5.02551">
        <ele>226</ele>
        <time>2021-08-30T10:13:17Z</time>
      </trkpt>
      <trkpt lat="44.27138" lon="5.02547">
        <ele>226.60000610352</ele>
        <time>2021-08-30T10:13:22Z</time>
      </trkpt>
      <trkpt lat="44.27147" lon="5.02546">
        <ele>227</ele>
        <time>2021-08-30T10:13:25Z</time>
      </trkpt>
      <trkpt lat="44.2715" lon="5.02545">
        <ele>227</ele>
        <time>2021-08-30T10:13:26Z</time>
      </trkpt>
      <trkpt lat="44.2716" lon="5.02544">
        <ele>227.39999389648</ele>
        <time>2021-08-30T10:13:29Z</time>
      </trkpt>
      <trkpt lat="44.27175" lon="5.0254">
        <ele>228</ele>
        <time>2021-08-30T10:13:34Z</time>
      </trkpt>
      <trkpt lat="44.27191" lon="5.02536">
        <ele>228.80000305176</ele>
        <time>2021-08-30T10:13:39Z</time>
      </trkpt>
      <trkpt lat="44.27204" lon="5.02535">
        <ele>229.19999694824</ele>
        <time>2021-08-30T10:13:43Z</time>
      </trkpt>
      <trkpt lat="44.27215" lon="5.02533">
        <ele>229.60000610352</ele>
        <time>2021-08-30T10:13:47Z</time>
      </trkpt>
      <trkpt lat="44.27228" lon="5.02531">
        <ele>230.19999694824</ele>
        <time>2021-08-30T10:13:51Z</time>
      </trkpt>
      <trkpt lat="44.27246" lon="5.02531">
        <ele>231.19999694824</ele>
        <time>2021-08-30T10:13:57Z</time>
      </trkpt>
      <trkpt lat="44.27249" lon="5.02531">
        <ele>231.39999389648</ele>
        <time>2021-08-30T10:13:58Z</time>
      </trkpt>
      <trkpt lat="44.27271" lon="5.02531">
        <ele>232.39999389648</ele>
        <time>2021-08-30T10:14:05Z</time>
      </trkpt>
      <trkpt lat="44.27278" lon="5.02531">
        <ele>232.60000610352</ele>
        <time>2021-08-30T10:14:07Z</time>
      </trkpt>
      <trkpt lat="44.27299" lon="5.02532">
        <ele>233.39999389648</ele>
        <time>2021-08-30T10:14:13Z</time>
      </trkpt>
      <trkpt lat="44.27306" lon="5.02531">
        <ele>233.60000610352</ele>
        <time>2021-08-30T10:14:15Z</time>
      </trkpt>
      <trkpt lat="44.27336" lon="5.02533">
        <ele>234.39999389648</ele>
        <time>2021-08-30T10:14:24Z</time>
      </trkpt>
      <trkpt lat="44.2734" lon="5.02533">
        <ele>234.60000610352</ele>
        <time>2021-08-30T10:14:25Z</time>
      </trkpt>
      <trkpt lat="44.27351" lon="5.02534">
        <ele>235.19999694824</ele>
        <time>2021-08-30T10:14:28Z</time>
      </trkpt>
      <trkpt lat="44.27365" lon="5.02533">
        <ele>235.19999694824</ele>
        <time>2021-08-30T10:14:31Z</time>
      </trkpt>
      <trkpt lat="44.27399" lon="5.02535">
        <ele>234.39999389648</ele>
        <time>2021-08-30T10:14:37Z</time>
      </trkpt>
      <trkpt lat="44.27433" lon="5.02537">
        <ele>233.39999389648</ele>
        <time>2021-08-30T10:14:42Z</time>
      </trkpt>
      <trkpt lat="44.27447" lon="5.02537">
        <ele>232.60000610352</ele>
        <time>2021-08-30T10:14:44Z</time>
      </trkpt>
      <trkpt lat="44.27461" lon="5.02538">
        <ele>232.19999694824</ele>
        <time>2021-08-30T10:14:46Z</time>
      </trkpt>
      <trkpt lat="44.27502" lon="5.0254">
        <ele>231</ele>
        <time>2021-08-30T10:14:52Z</time>
      </trkpt>
      <trkpt lat="44.27508" lon="5.0254">
        <ele>231</ele>
        <time>2021-08-30T10:14:53Z</time>
      </trkpt>
      <trkpt lat="44.27549" lon="5.02541">
        <ele>230.80000305176</ele>
        <time>2021-08-30T10:15:00Z</time>
      </trkpt>
      <trkpt lat="44.2759" lon="5.02543">
        <ele>231.60000610352</ele>
        <time>2021-08-30T10:15:08Z</time>
      </trkpt>
      <trkpt lat="44.27618" lon="5.02544">
        <ele>232.19999694824</ele>
        <time>2021-08-30T10:15:14Z</time>
      </trkpt>
      <trkpt lat="44.27637" lon="5.02543">
        <ele>232.19999694824</ele>
        <time>2021-08-30T10:15:18Z</time>
      </trkpt>
      <trkpt lat="44.27678" lon="5.02539">
        <ele>233.19999694824</ele>
        <time>2021-08-30T10:15:27Z</time>
      </trkpt>
      <trkpt lat="44.27682" lon="5.02538">
        <ele>233.19999694824</ele>
        <time>2021-08-30T10:15:28Z</time>
      </trkpt>
      <trkpt lat="44.27724" lon="5.02527">
        <ele>234</ele>
        <time>2021-08-30T10:15:38Z</time>
      </trkpt>
      <trkpt lat="44.27732" lon="5.02526">
        <ele>234.19999694824</ele>
        <time>2021-08-30T10:15:40Z</time>
      </trkpt>
      <trkpt lat="44.27762" lon="5.02517">
        <ele>234.80000305176</ele>
        <time>2021-08-30T10:15:47Z</time>
      </trkpt>
      <trkpt lat="44.27787" lon="5.02514">
        <ele>235.19999694824</ele>
        <time>2021-08-30T10:15:53Z</time>
      </trkpt>
      <trkpt lat="44.27804" lon="5.0251">
        <ele>235.60000610352</ele>
        <time>2021-08-30T10:15:57Z</time>
      </trkpt>
      <trkpt lat="44.2783" lon="5.02503">
        <ele>236.19999694824</ele>
        <time>2021-08-30T10:16:04Z</time>
      </trkpt>
      <trkpt lat="44.27834" lon="5.02503">
        <ele>236.39999389648</ele>
        <time>2021-08-30T10:16:05Z</time>
      </trkpt>
      <trkpt lat="44.27846" lon="5.02502">
        <ele>237.39999389648</ele>
        <time>2021-08-30T10:16:09Z</time>
      </trkpt>
      <trkpt lat="44.27857" lon="5.02504">
        <ele>238</ele>
        <time>2021-08-30T10:16:13Z</time>
      </trkpt>
      <trkpt lat="44.27866" lon="5.02515">
        <ele>237.80000305176</ele>
        <time>2021-08-30T10:16:17Z</time>
      </trkpt>
      <trkpt lat="44.27874" lon="5.02535">
        <ele>237.39999389648</ele>
        <time>2021-08-30T10:16:23Z</time>
      </trkpt>
      <trkpt lat="44.27881" lon="5.02556">
        <ele>237.80000305176</ele>
        <time>2021-08-30T10:16:30Z</time>
      </trkpt>
      <trkpt lat="44.27889" lon="5.02579">
        <ele>238.60000610352</ele>
        <time>2021-08-30T10:16:36Z</time>
      </trkpt>
      <trkpt lat="44.2789" lon="5.02583">
        <ele>238.80000305176</ele>
        <time>2021-08-30T10:16:37Z</time>
      </trkpt>
      <trkpt lat="44.27898" lon="5.02604">
        <ele>239.80000305176</ele>
        <time>2021-08-30T10:16:42Z</time>
      </trkpt>
      <trkpt lat="44.27902" lon="5.02616">
        <ele>240.19999694824</ele>
        <time>2021-08-30T10:16:45Z</time>
      </trkpt>
      <trkpt lat="44.27904" lon="5.02621">
        <ele>240.39999389648</ele>
        <time>2021-08-30T10:16:46Z</time>
      </trkpt>
      <trkpt lat="44.27906" lon="5.02629">
        <ele>240.80000305176</ele>
        <time>2021-08-30T10:16:48Z</time>
      </trkpt>
      <trkpt lat="44.27912" lon="5.02646">
        <ele>241.39999389648</ele>
        <time>2021-08-30T10:16:52Z</time>
      </trkpt>
      <trkpt lat="44.27917" lon="5.02659">
        <ele>241.80000305176</ele>
        <time>2021-08-30T10:16:55Z</time>
      </trkpt>
      <trkpt lat="44.27928" lon="5.02684">
        <ele>242.60000610352</ele>
        <time>2021-08-30T10:17:01Z</time>
      </trkpt>
      <trkpt lat="44.27933" lon="5.02691">
        <ele>242.80000305176</ele>
        <time>2021-08-30T10:17:03Z</time>
      </trkpt>
      <trkpt lat="44.27944" lon="5.02704">
        <ele>243.39999389648</ele>
        <time>2021-08-30T10:17:07Z</time>
      </trkpt>
      <trkpt lat="44.27959" lon="5.02717">
        <ele>244</ele>
        <time>2021-08-30T10:17:12Z</time>
      </trkpt>
      <trkpt lat="44.27972" lon="5.02727">
        <ele>244.60000610352</ele>
        <time>2021-08-30T10:17:16Z</time>
      </trkpt>
      <trkpt lat="44.27984" lon="5.02738">
        <ele>245</ele>
        <time>2021-08-30T10:17:20Z</time>
      </trkpt>
      <trkpt lat="44.27997" lon="5.02748">
        <ele>245.39999389648</ele>
        <time>2021-08-30T10:17:24Z</time>
      </trkpt>
      <trkpt lat="44.28014" lon="5.02761">
        <ele>246</ele>
        <time>2021-08-30T10:17:29Z</time>
      </trkpt>
      <trkpt lat="44.28027" lon="5.02772">
        <ele>246.60000610352</ele>
        <time>2021-08-30T10:17:33Z</time>
      </trkpt>
      <trkpt lat="44.28043" lon="5.02783">
        <ele>247.19999694824</ele>
        <time>2021-08-30T10:17:38Z</time>
      </trkpt>
      <trkpt lat="44.28054" lon="5.02789">
        <ele>247.39999389648</ele>
        <time>2021-08-30T10:17:41Z</time>
      </trkpt>
      <trkpt lat="44.28071" lon="5.02798">
        <ele>248.19999694824</ele>
        <time>2021-08-30T10:17:46Z</time>
      </trkpt>
      <trkpt lat="44.28087" lon="5.02802">
        <ele>248.80000305176</ele>
        <time>2021-08-30T10:17:50Z</time>
      </trkpt>
      <trkpt lat="44.28091" lon="5.02803">
        <ele>249</ele>
        <time>2021-08-30T10:17:51Z</time>
      </trkpt>
      <trkpt lat="44.28099" lon="5.02805">
        <ele>249.19999694824</ele>
        <time>2021-08-30T10:17:53Z</time>
      </trkpt>
      <trkpt lat="44.28106" lon="5.02809">
        <ele>249.39999389648</ele>
        <time>2021-08-30T10:17:55Z</time>
      </trkpt>
      <trkpt lat="44.2811" lon="5.0281">
        <ele>249.60000610352</ele>
        <time>2021-08-30T10:17:56Z</time>
      </trkpt>
      <trkpt lat="44.28143" lon="5.02819">
        <ele>249.80000305176</ele>
        <time>2021-08-30T10:18:05Z</time>
      </trkpt>
      <trkpt lat="44.28164" lon="5.02833">
        <ele>250</ele>
        <time>2021-08-30T10:18:11Z</time>
      </trkpt>
      <trkpt lat="44.28192" lon="5.02861">
        <ele>249.60000610352</ele>
        <time>2021-08-30T10:18:18Z</time>
      </trkpt>
      <trkpt lat="44.28213" lon="5.02885">
        <ele>249.60000610352</ele>
        <time>2021-08-30T10:18:24Z</time>
      </trkpt>
      <trkpt lat="44.28216" lon="5.02889">
        <ele>249.60000610352</ele>
        <time>2021-08-30T10:18:25Z</time>
      </trkpt>
      <trkpt lat="44.28242" lon="5.02917">
        <ele>249.60000610352</ele>
        <time>2021-08-30T10:18:32Z</time>
      </trkpt>
      <trkpt lat="44.28268" lon="5.02936">
        <ele>250.19999694824</ele>
        <time>2021-08-30T10:18:38Z</time>
      </trkpt>
      <trkpt lat="44.28293" lon="5.02948">
        <ele>250</ele>
        <time>2021-08-30T10:18:44Z</time>
      </trkpt>
      <trkpt lat="44.283" lon="5.0295">
        <ele>250.19999694824</ele>
        <time>2021-08-30T10:18:46Z</time>
      </trkpt>
      <trkpt lat="44.28315" lon="5.02958">
        <ele>251</ele>
        <time>2021-08-30T10:18:51Z</time>
      </trkpt>
      <trkpt lat="44.28321" lon="5.02961">
        <ele>251.39999389648</ele>
        <time>2021-08-30T10:18:53Z</time>
      </trkpt>
      <trkpt lat="44.28336" lon="5.02972">
        <ele>252</ele>
        <time>2021-08-30T10:18:58Z</time>
      </trkpt>
      <trkpt lat="44.28351" lon="5.02989">
        <ele>252.39999389648</ele>
        <time>2021-08-30T10:19:04Z</time>
      </trkpt>
      <trkpt lat="44.28367" lon="5.0302">
        <ele>253.60000610352</ele>
        <time>2021-08-30T10:19:12Z</time>
      </trkpt>
      <trkpt lat="44.28373" lon="5.0305">
        <ele>254.60000610352</ele>
        <time>2021-08-30T10:19:18Z</time>
      </trkpt>
      <trkpt lat="44.28373" lon="5.03057">
        <ele>254.80000305176</ele>
        <time>2021-08-30T10:19:19Z</time>
      </trkpt>
      <trkpt lat="44.28372" lon="5.03098">
        <ele>255</ele>
        <time>2021-08-30T10:19:25Z</time>
      </trkpt>
      <trkpt lat="44.28372" lon="5.03162">
        <ele>255</ele>
        <time>2021-08-30T10:19:34Z</time>
      </trkpt>
      <trkpt lat="44.28376" lon="5.0319">
        <ele>255.19999694824</ele>
        <time>2021-08-30T10:19:38Z</time>
      </trkpt>
      <trkpt lat="44.28381" lon="5.03201">
        <ele>255.19999694824</ele>
        <time>2021-08-30T10:19:40Z</time>
      </trkpt>
      <trkpt lat="44.28389" lon="5.03216">
        <ele>255.19999694824</ele>
        <time>2021-08-30T10:19:43Z</time>
      </trkpt>
      <trkpt lat="44.28396" lon="5.03225">
        <ele>255.19999694824</ele>
        <time>2021-08-30T10:19:45Z</time>
      </trkpt>
      <trkpt lat="44.28419" lon="5.03259">
        <ele>255.19999694824</ele>
        <time>2021-08-30T10:19:52Z</time>
      </trkpt>
      <trkpt lat="44.28421" lon="5.03265">
        <ele>255.19999694824</ele>
        <time>2021-08-30T10:19:53Z</time>
      </trkpt>
      <trkpt lat="44.28424" lon="5.03283">
        <ele>255.60000610352</ele>
        <time>2021-08-30T10:19:56Z</time>
      </trkpt>
      <trkpt lat="44.28425" lon="5.03289">
        <ele>255.80000305176</ele>
        <time>2021-08-30T10:19:57Z</time>
      </trkpt>
      <trkpt lat="44.28425" lon="5.03294">
        <ele>256</ele>
        <time>2021-08-30T10:19:58Z</time>
      </trkpt>
      <trkpt lat="44.28423" lon="5.03315">
        <ele>256.60000610352</ele>
        <time>2021-08-30T10:20:03Z</time>
      </trkpt>
      <trkpt lat="44.28421" lon="5.03317">
        <ele>256.79998779297</ele>
        <time>2021-08-30T10:20:04Z</time>
      </trkpt>
      <trkpt lat="44.28418" lon="5.03331">
        <ele>258</ele>
        <time>2021-08-30T10:20:08Z</time>
      </trkpt>
      <trkpt lat="44.28417" lon="5.03335">
        <ele>258.20001220703</ele>
        <time>2021-08-30T10:20:09Z</time>
      </trkpt>
      <trkpt lat="44.28413" lon="5.03347">
        <ele>259</ele>
        <time>2021-08-30T10:20:13Z</time>
      </trkpt>
      <trkpt lat="44.28408" lon="5.03364">
        <ele>260</ele>
        <time>2021-08-30T10:20:18Z</time>
      </trkpt>
      <trkpt lat="44.28403" lon="5.03382">
        <ele>261</ele>
        <time>2021-08-30T10:20:23Z</time>
      </trkpt>
      <trkpt lat="44.28401" lon="5.0339">
        <ele>261.39999389648</ele>
        <time>2021-08-30T10:20:25Z</time>
      </trkpt>
      <trkpt lat="44.28401" lon="5.03409">
        <ele>261.79998779297</ele>
        <time>2021-08-30T10:20:30Z</time>
      </trkpt>
      <trkpt lat="44.28402" lon="5.03411">
        <ele>261.79998779297</ele>
        <time>2021-08-30T10:20:31Z</time>
      </trkpt>
      <trkpt lat="44.28407" lon="5.03419">
        <ele>261.79998779297</ele>
        <time>2021-08-30T10:20:34Z</time>
      </trkpt>
      <trkpt lat="44.28408" lon="5.03426">
        <ele>261.79998779297</ele>
        <time>2021-08-30T10:20:36Z</time>
      </trkpt>
      <trkpt lat="44.28403" lon="5.03453">
        <ele>261.60000610352</ele>
        <time>2021-08-30T10:20:43Z</time>
      </trkpt>
      <trkpt lat="44.28401" lon="5.0347">
        <ele>261.39999389648</ele>
        <time>2021-08-30T10:20:48Z</time>
      </trkpt>
      <trkpt lat="44.28402" lon="5.03487">
        <ele>260.39999389648</ele>
        <time>2021-08-30T10:20:54Z</time>
      </trkpt>
      <trkpt lat="44.28412" lon="5.03495">
        <ele>260.20001220703</ele>
        <time>2021-08-30T10:20:57Z</time>
      </trkpt>
      <trkpt lat="44.28417" lon="5.03498">
        <ele>260</ele>
        <time>2021-08-30T10:20:58Z</time>
      </trkpt>
      <trkpt lat="44.28427" lon="5.03505">
        <ele>259.60000610352</ele>
        <time>2021-08-30T10:21:00Z</time>
      </trkpt>
      <trkpt lat="44.28436" lon="5.03513">
        <ele>259</ele>
        <time>2021-08-30T10:21:02Z</time>
      </trkpt>
      <trkpt lat="44.28447" lon="5.03523">
        <ele>258</ele>
        <time>2021-08-30T10:21:05Z</time>
      </trkpt>
      <trkpt lat="44.2845" lon="5.03524">
        <ele>257.60000610352</ele>
        <time>2021-08-30T10:21:06Z</time>
      </trkpt>
      <trkpt lat="44.28452" lon="5.03524">
        <ele>256.79998779297</ele>
        <time>2021-08-30T10:21:08Z</time>
      </trkpt>
      <trkpt lat="44.28453" lon="5.03527">
        <ele>256</ele>
        <time>2021-08-30T10:21:10Z</time>
      </trkpt>
      <trkpt lat="44.28454" lon="5.03533">
        <ele>255.60000610352</ele>
        <time>2021-08-30T10:21:12Z</time>
      </trkpt>
      <trkpt lat="44.28454" lon="5.0355">
        <ele>254.80000305176</ele>
        <time>2021-08-30T10:21:16Z</time>
      </trkpt>
      <trkpt lat="44.28455" lon="5.03559">
        <ele>254.39999389648</ele>
        <time>2021-08-30T10:21:18Z</time>
      </trkpt>
      <trkpt lat="44.28459" lon="5.03567">
        <ele>254.39999389648</ele>
        <time>2021-08-30T10:21:20Z</time>
      </trkpt>
      <trkpt lat="44.28462" lon="5.03571">
        <ele>254.19999694824</ele>
        <time>2021-08-30T10:21:21Z</time>
      </trkpt>
      <trkpt lat="44.28477" lon="5.03586">
        <ele>253.80000305176</ele>
        <time>2021-08-30T10:21:25Z</time>
      </trkpt>
      <trkpt lat="44.28486" lon="5.0359">
        <ele>253.39999389648</ele>
        <time>2021-08-30T10:21:27Z</time>
      </trkpt>
      <trkpt lat="44.28491" lon="5.03593">
        <ele>253.19999694824</ele>
        <time>2021-08-30T10:21:28Z</time>
      </trkpt>
      <trkpt lat="44.28511" lon="5.03606">
        <ele>252.60000610352</ele>
        <time>2021-08-30T10:21:32Z</time>
      </trkpt>
      <trkpt lat="44.28516" lon="5.03611">
        <ele>252.39999389648</ele>
        <time>2021-08-30T10:21:33Z</time>
      </trkpt>
      <trkpt lat="44.28526" lon="5.03623">
        <ele>251.80000305176</ele>
        <time>2021-08-30T10:21:35Z</time>
      </trkpt>
      <trkpt lat="44.2853" lon="5.0363">
        <ele>251.60000610352</ele>
        <time>2021-08-30T10:21:36Z</time>
      </trkpt>
      <trkpt lat="44.28534" lon="5.03637">
        <ele>251.39999389648</ele>
        <time>2021-08-30T10:21:37Z</time>
      </trkpt>
      <trkpt lat="44.28548" lon="5.03669">
        <ele>250.19999694824</ele>
        <time>2021-08-30T10:21:41Z</time>
      </trkpt>
      <trkpt lat="44.28552" lon="5.03678">
        <ele>250</ele>
        <time>2021-08-30T10:21:42Z</time>
      </trkpt>
      <trkpt lat="44.28557" lon="5.03697">
        <ele>249.19999694824</ele>
        <time>2021-08-30T10:21:44Z</time>
      </trkpt>
      <trkpt lat="44.28557" lon="5.03707">
        <ele>249</ele>
        <time>2021-08-30T10:21:45Z</time>
      </trkpt>
      <trkpt lat="44.28555" lon="5.03717">
        <ele>248.80000305176</ele>
        <time>2021-08-30T10:21:46Z</time>
      </trkpt>
      <trkpt lat="44.28541" lon="5.03744">
        <ele>248</ele>
        <time>2021-08-30T10:21:49Z</time>
      </trkpt>
      <trkpt lat="44.28536" lon="5.03754">
        <ele>247.80000305176</ele>
        <time>2021-08-30T10:21:50Z</time>
      </trkpt>
      <trkpt lat="44.28515" lon="5.03791">
        <ele>246.60000610352</ele>
        <time>2021-08-30T10:21:54Z</time>
      </trkpt>
      <trkpt lat="44.28511" lon="5.03801">
        <ele>246</ele>
        <time>2021-08-30T10:21:55Z</time>
      </trkpt>
      <trkpt lat="44.2851" lon="5.03824">
        <ele>245.19999694824</ele>
        <time>2021-08-30T10:21:57Z</time>
      </trkpt>
      <trkpt lat="44.28513" lon="5.03834">
        <ele>244.60000610352</ele>
        <time>2021-08-30T10:21:58Z</time>
      </trkpt>
      <trkpt lat="44.28526" lon="5.03847">
        <ele>243.60000610352</ele>
        <time>2021-08-30T10:22:00Z</time>
      </trkpt>
      <trkpt lat="44.28542" lon="5.03844">
        <ele>242.80000305176</ele>
        <time>2021-08-30T10:22:02Z</time>
      </trkpt>
      <trkpt lat="44.28549" lon="5.0384">
        <ele>242.60000610352</ele>
        <time>2021-08-30T10:22:03Z</time>
      </trkpt>
      <trkpt lat="44.28571" lon="5.03824">
        <ele>241.19999694824</ele>
        <time>2021-08-30T10:22:06Z</time>
      </trkpt>
      <trkpt lat="44.28592" lon="5.0381">
        <ele>239.80000305176</ele>
        <time>2021-08-30T10:22:09Z</time>
      </trkpt>
      <trkpt lat="44.28614" lon="5.03797">
        <ele>239.19999694824</ele>
        <time>2021-08-30T10:22:12Z</time>
      </trkpt>
      <trkpt lat="44.28621" lon="5.03793">
        <ele>238.80000305176</ele>
        <time>2021-08-30T10:22:13Z</time>
      </trkpt>
      <trkpt lat="44.28644" lon="5.0378">
        <ele>237.39999389648</ele>
        <time>2021-08-30T10:22:16Z</time>
      </trkpt>
      <trkpt lat="44.28659" lon="5.03773">
        <ele>236.19999694824</ele>
        <time>2021-08-30T10:22:18Z</time>
      </trkpt>
      <trkpt lat="44.28675" lon="5.03766">
        <ele>235.19999694824</ele>
        <time>2021-08-30T10:22:20Z</time>
      </trkpt>
      <trkpt lat="44.28698" lon="5.03751">
        <ele>234</ele>
        <time>2021-08-30T10:22:23Z</time>
      </trkpt>
      <trkpt lat="44.28711" lon="5.03737">
        <ele>233.19999694824</ele>
        <time>2021-08-30T10:22:25Z</time>
      </trkpt>
      <trkpt lat="44.28718" lon="5.03729">
        <ele>232.80000305176</ele>
        <time>2021-08-30T10:22:26Z</time>
      </trkpt>
      <trkpt lat="44.28731" lon="5.03713">
        <ele>231.60000610352</ele>
        <time>2021-08-30T10:22:28Z</time>
      </trkpt>
      <trkpt lat="44.28749" lon="5.03687">
        <ele>230.19999694824</ele>
        <time>2021-08-30T10:22:31Z</time>
      </trkpt>
      <trkpt lat="44.28766" lon="5.0366">
        <ele>228.80000305176</ele>
        <time>2021-08-30T10:22:34Z</time>
      </trkpt>
      <trkpt lat="44.28781" lon="5.0363">
        <ele>227.60000610352</ele>
        <time>2021-08-30T10:22:37Z</time>
      </trkpt>
      <trkpt lat="44.2879" lon="5.03609">
        <ele>226.39999389648</ele>
        <time>2021-08-30T10:22:39Z</time>
      </trkpt>
      <trkpt lat="44.288" lon="5.03589">
        <ele>225.19999694824</ele>
        <time>2021-08-30T10:22:41Z</time>
      </trkpt>
      <trkpt lat="44.28814" lon="5.03558">
        <ele>223.80000305176</ele>
        <time>2021-08-30T10:22:44Z</time>
      </trkpt>
      <trkpt lat="44.28828" lon="5.03528">
        <ele>222.80000305176</ele>
        <time>2021-08-30T10:22:47Z</time>
      </trkpt>
      <trkpt lat="44.2884" lon="5.03505">
        <ele>222</ele>
        <time>2021-08-30T10:22:50Z</time>
      </trkpt>
      <trkpt lat="44.28845" lon="5.03501">
        <ele>221.80000305176</ele>
        <time>2021-08-30T10:22:51Z</time>
      </trkpt>
      <trkpt lat="44.28852" lon="5.03501">
        <ele>221.39999389648</ele>
        <time>2021-08-30T10:22:52Z</time>
      </trkpt>
      <trkpt lat="44.28863" lon="5.03511">
        <ele>220.19999694824</ele>
        <time>2021-08-30T10:22:54Z</time>
      </trkpt>
      <trkpt lat="44.28872" lon="5.03525">
        <ele>218.60000610352</ele>
        <time>2021-08-30T10:22:56Z</time>
      </trkpt>
      <trkpt lat="44.28881" lon="5.03537">
        <ele>217.19999694824</ele>
        <time>2021-08-30T10:22:58Z</time>
      </trkpt>
      <trkpt lat="44.28885" lon="5.03544">
        <ele>217</ele>
        <time>2021-08-30T10:22:59Z</time>
      </trkpt>
      <trkpt lat="44.28917" lon="5.0359">
        <ele>216.19999694824</ele>
        <time>2021-08-30T10:23:06Z</time>
      </trkpt>
      <trkpt lat="44.2893" lon="5.0361">
        <ele>216</ele>
        <time>2021-08-30T10:23:09Z</time>
      </trkpt>
      <trkpt lat="44.28957" lon="5.03649">
        <ele>215.19999694824</ele>
        <time>2021-08-30T10:23:15Z</time>
      </trkpt>
      <trkpt lat="44.28965" lon="5.03661">
        <ele>215.19999694824</ele>
        <time>2021-08-30T10:23:17Z</time>
      </trkpt>
      <trkpt lat="44.29001" lon="5.03714">
        <ele>215</ele>
        <time>2021-08-30T10:23:26Z</time>
      </trkpt>
      <trkpt lat="44.29037" lon="5.03766">
        <ele>215.39999389648</ele>
        <time>2021-08-30T10:23:35Z</time>
      </trkpt>
      <trkpt lat="44.29068" lon="5.03812">
        <ele>215.80000305176</ele>
        <time>2021-08-30T10:23:43Z</time>
      </trkpt>
      <trkpt lat="44.29106" lon="5.03866">
        <ele>215.60000610352</ele>
        <time>2021-08-30T10:23:53Z</time>
      </trkpt>
      <trkpt lat="44.29136" lon="5.03909">
        <ele>215.60000610352</ele>
        <time>2021-08-30T10:24:01Z</time>
      </trkpt>
      <trkpt lat="44.2915" lon="5.03932">
        <ele>215.60000610352</ele>
        <time>2021-08-30T10:24:05Z</time>
      </trkpt>
      <trkpt lat="44.29161" lon="5.03948">
        <ele>215.39999389648</ele>
        <time>2021-08-30T10:24:08Z</time>
      </trkpt>
      <trkpt lat="44.29195" lon="5.03996">
        <ele>215.80000305176</ele>
        <time>2021-08-30T10:24:17Z</time>
      </trkpt>
      <trkpt lat="44.29224" lon="5.04039">
        <ele>216.19999694824</ele>
        <time>2021-08-30T10:24:25Z</time>
      </trkpt>
      <trkpt lat="44.29239" lon="5.0406">
        <ele>216.19999694824</ele>
        <time>2021-08-30T10:24:29Z</time>
      </trkpt>
      <trkpt lat="44.29257" lon="5.04087">
        <ele>216.80000305176</ele>
        <time>2021-08-30T10:24:34Z</time>
      </trkpt>
      <trkpt lat="44.2929" lon="5.04133">
        <ele>216.80000305176</ele>
        <time>2021-08-30T10:24:43Z</time>
      </trkpt>
      <trkpt lat="44.29316" lon="5.04171">
        <ele>216.80000305176</ele>
        <time>2021-08-30T10:24:50Z</time>
      </trkpt>
      <trkpt lat="44.29344" lon="5.04214">
        <ele>217</ele>
        <time>2021-08-30T10:24:58Z</time>
      </trkpt>
      <trkpt lat="44.29371" lon="5.04267">
        <ele>216.60000610352</ele>
        <time>2021-08-30T10:25:07Z</time>
      </trkpt>
      <trkpt lat="44.29396" lon="5.04322">
        <ele>216.39999389648</ele>
        <time>2021-08-30T10:25:16Z</time>
      </trkpt>
      <trkpt lat="44.29418" lon="5.04371">
        <ele>216.19999694824</ele>
        <time>2021-08-30T10:25:24Z</time>
      </trkpt>
      <trkpt lat="44.29445" lon="5.04426">
        <ele>216</ele>
        <time>2021-08-30T10:25:33Z</time>
      </trkpt>
      <trkpt lat="44.29472" lon="5.04484">
        <ele>216</ele>
        <time>2021-08-30T10:25:42Z</time>
      </trkpt>
      <trkpt lat="44.29496" lon="5.04538">
        <ele>216.80000305176</ele>
        <time>2021-08-30T10:25:50Z</time>
      </trkpt>
      <trkpt lat="44.29509" lon="5.04564">
        <ele>217.39999389648</ele>
        <time>2021-08-30T10:25:54Z</time>
      </trkpt>
      <trkpt lat="44.29527" lon="5.04603">
        <ele>217.39999389648</ele>
        <time>2021-08-30T10:26:00Z</time>
      </trkpt>
      <trkpt lat="44.29553" lon="5.04657">
        <ele>217.80000305176</ele>
        <time>2021-08-30T10:26:08Z</time>
      </trkpt>
      <trkpt lat="44.29579" lon="5.04711">
        <ele>218</ele>
        <time>2021-08-30T10:26:16Z</time>
      </trkpt>
      <trkpt lat="44.29597" lon="5.04739">
        <ele>218.39999389648</ele>
        <time>2021-08-30T10:26:21Z</time>
      </trkpt>
      <trkpt lat="44.29606" lon="5.04749">
        <ele>218.39999389648</ele>
        <time>2021-08-30T10:26:23Z</time>
      </trkpt>
      <trkpt lat="44.29624" lon="5.04764">
        <ele>218.80000305176</ele>
        <time>2021-08-30T10:26:27Z</time>
      </trkpt>
      <trkpt lat="44.29633" lon="5.04772">
        <ele>219.19999694824</ele>
        <time>2021-08-30T10:26:29Z</time>
      </trkpt>
      <trkpt lat="44.29642" lon="5.0478">
        <ele>219.39999389648</ele>
        <time>2021-08-30T10:26:31Z</time>
      </trkpt>
      <trkpt lat="44.29664" lon="5.04799">
        <ele>220</ele>
        <time>2021-08-30T10:26:36Z</time>
      </trkpt>
      <trkpt lat="44.29669" lon="5.04803">
        <ele>220</ele>
        <time>2021-08-30T10:26:37Z</time>
      </trkpt>
      <trkpt lat="44.29678" lon="5.04811">
        <ele>220</ele>
        <time>2021-08-30T10:26:39Z</time>
      </trkpt>
      <trkpt lat="44.29689" lon="5.04819">
        <ele>219.60000610352</ele>
        <time>2021-08-30T10:26:41Z</time>
      </trkpt>
      <trkpt lat="44.29727" lon="5.0485">
        <ele>219</ele>
        <time>2021-08-30T10:26:48Z</time>
      </trkpt>
      <trkpt lat="44.29773" lon="5.04889">
        <ele>218.39999389648</ele>
        <time>2021-08-30T10:26:56Z</time>
      </trkpt>
      <trkpt lat="44.29778" lon="5.04894">
        <ele>218.39999389648</ele>
        <time>2021-08-30T10:26:57Z</time>
      </trkpt>
      <trkpt lat="44.29822" lon="5.0493">
        <ele>217.60000610352</ele>
        <time>2021-08-30T10:27:05Z</time>
      </trkpt>
      <trkpt lat="44.29866" lon="5.04956">
        <ele>217.60000610352</ele>
        <time>2021-08-30T10:27:13Z</time>
      </trkpt>
      <trkpt lat="44.29877" lon="5.04962">
        <ele>217.39999389648</ele>
        <time>2021-08-30T10:27:15Z</time>
      </trkpt>
      <trkpt lat="44.29902" lon="5.04977">
        <ele>217</ele>
        <time>2021-08-30T10:27:20Z</time>
      </trkpt>
      <trkpt lat="44.2994" lon="5.05003">
        <ele>216.80000305176</ele>
        <time>2021-08-30T10:27:28Z</time>
      </trkpt>
      <trkpt lat="44.29975" lon="5.0504">
        <ele>217</ele>
        <time>2021-08-30T10:27:36Z</time>
      </trkpt>
      <trkpt lat="44.30005" lon="5.05087">
        <ele>217</ele>
        <time>2021-08-30T10:27:44Z</time>
      </trkpt>
      <trkpt lat="44.30031" lon="5.05138">
        <ele>217.39999389648</ele>
        <time>2021-08-30T10:27:52Z</time>
      </trkpt>
      <trkpt lat="44.30064" lon="5.052">
        <ele>217.60000610352</ele>
        <time>2021-08-30T10:28:02Z</time>
      </trkpt>
      <trkpt lat="44.30099" lon="5.05255">
        <ele>217.80000305176</ele>
        <time>2021-08-30T10:28:12Z</time>
      </trkpt>
      <trkpt lat="44.30127" lon="5.05297">
        <ele>217.80000305176</ele>
        <time>2021-08-30T10:28:20Z</time>
      </trkpt>
      <trkpt lat="44.30155" lon="5.0534">
        <ele>218</ele>
        <time>2021-08-30T10:28:28Z</time>
      </trkpt>
      <trkpt lat="44.3017" lon="5.0536">
        <ele>218.39999389648</ele>
        <time>2021-08-30T10:28:32Z</time>
      </trkpt>
      <trkpt lat="44.30176" lon="5.05371">
        <ele>218.60000610352</ele>
        <time>2021-08-30T10:28:34Z</time>
      </trkpt>
      <trkpt lat="44.30203" lon="5.05412">
        <ele>219.19999694824</ele>
        <time>2021-08-30T10:28:42Z</time>
      </trkpt>
      <trkpt lat="44.30214" lon="5.05427">
        <ele>219.39999389648</ele>
        <time>2021-08-30T10:28:45Z</time>
      </trkpt>
      <trkpt lat="44.30217" lon="5.05432">
        <ele>219.80000305176</ele>
        <time>2021-08-30T10:28:46Z</time>
      </trkpt>
      <trkpt lat="44.30237" lon="5.05462">
        <ele>220.39999389648</ele>
        <time>2021-08-30T10:28:52Z</time>
      </trkpt>
      <trkpt lat="44.30254" lon="5.05489">
        <ele>220.39999389648</ele>
        <time>2021-08-30T10:28:57Z</time>
      </trkpt>
      <trkpt lat="44.30261" lon="5.055">
        <ele>220.60000610352</ele>
        <time>2021-08-30T10:28:59Z</time>
      </trkpt>
      <trkpt lat="44.30296" lon="5.05565">
        <ele>221</ele>
        <time>2021-08-30T10:29:10Z</time>
      </trkpt>
      <trkpt lat="44.30324" lon="5.05621">
        <ele>221</ele>
        <time>2021-08-30T10:29:19Z</time>
      </trkpt>
      <trkpt lat="44.3035" lon="5.05671">
        <ele>221.19999694824</ele>
        <time>2021-08-30T10:29:27Z</time>
      </trkpt>
      <trkpt lat="44.30379" lon="5.05724">
        <ele>221.39999389648</ele>
        <time>2021-08-30T10:29:36Z</time>
      </trkpt>
      <trkpt lat="44.30382" lon="5.0573">
        <ele>221.60000610352</ele>
        <time>2021-08-30T10:29:37Z</time>
      </trkpt>
      <trkpt lat="44.30407" lon="5.05777">
        <ele>222</ele>
        <time>2021-08-30T10:29:45Z</time>
      </trkpt>
      <trkpt lat="44.3041" lon="5.05783">
        <ele>222</ele>
        <time>2021-08-30T10:29:46Z</time>
      </trkpt>
      <trkpt lat="44.30426" lon="5.05813">
        <ele>222.19999694824</ele>
        <time>2021-08-30T10:29:51Z</time>
      </trkpt>
      <trkpt lat="44.30448" lon="5.05855">
        <ele>222.19999694824</ele>
        <time>2021-08-30T10:29:58Z</time>
      </trkpt>
      <trkpt lat="44.30477" lon="5.05911">
        <ele>222.39999389648</ele>
        <time>2021-08-30T10:30:07Z</time>
      </trkpt>
      <trkpt lat="44.3049" lon="5.05935">
        <ele>222.60000610352</ele>
        <time>2021-08-30T10:30:11Z</time>
      </trkpt>
      <trkpt lat="44.30502" lon="5.05958">
        <ele>222.80000305176</ele>
        <time>2021-08-30T10:30:15Z</time>
      </trkpt>
      <trkpt lat="44.30536" lon="5.06017">
        <ele>222.80000305176</ele>
        <time>2021-08-30T10:30:25Z</time>
      </trkpt>
      <trkpt lat="44.30562" lon="5.06057">
        <ele>222.80000305176</ele>
        <time>2021-08-30T10:30:32Z</time>
      </trkpt>
      <trkpt lat="44.30594" lon="5.06109">
        <ele>222.60000610352</ele>
        <time>2021-08-30T10:30:41Z</time>
      </trkpt>
      <trkpt lat="44.30627" lon="5.06163">
        <ele>222.80000305176</ele>
        <time>2021-08-30T10:30:50Z</time>
      </trkpt>
      <trkpt lat="44.30658" lon="5.06213">
        <ele>223.39999389648</ele>
        <time>2021-08-30T10:30:59Z</time>
      </trkpt>
      <trkpt lat="44.30665" lon="5.06225">
        <ele>223.60000610352</ele>
        <time>2021-08-30T10:31:01Z</time>
      </trkpt>
      <trkpt lat="44.30684" lon="5.06259">
        <ele>224.19999694824</ele>
        <time>2021-08-30T10:31:07Z</time>
      </trkpt>
      <trkpt lat="44.30695" lon="5.06291">
        <ele>224.60000610352</ele>
        <time>2021-08-30T10:31:12Z</time>
      </trkpt>
      <trkpt lat="44.30696" lon="5.06297">
        <ele>224.80000305176</ele>
        <time>2021-08-30T10:31:13Z</time>
      </trkpt>
      <trkpt lat="44.30703" lon="5.06341">
        <ele>225.60000610352</ele>
        <time>2021-08-30T10:31:20Z</time>
      </trkpt>
      <trkpt lat="44.30706" lon="5.06394">
        <ele>226.19999694824</ele>
        <time>2021-08-30T10:31:28Z</time>
      </trkpt>
      <trkpt lat="44.30709" lon="5.0642">
        <ele>226.80000305176</ele>
        <time>2021-08-30T10:31:32Z</time>
      </trkpt>
      <trkpt lat="44.30712" lon="5.06459">
        <ele>227.39999389648</ele>
        <time>2021-08-30T10:31:38Z</time>
      </trkpt>
      <trkpt lat="44.30716" lon="5.06485">
        <ele>228</ele>
        <time>2021-08-30T10:31:42Z</time>
      </trkpt>
      <trkpt lat="44.3072" lon="5.06504">
        <ele>228.39999389648</ele>
        <time>2021-08-30T10:31:45Z</time>
      </trkpt>
      <trkpt lat="44.30732" lon="5.06545">
        <ele>229</ele>
        <time>2021-08-30T10:31:52Z</time>
      </trkpt>
      <trkpt lat="44.30735" lon="5.06551">
        <ele>229</ele>
        <time>2021-08-30T10:31:53Z</time>
      </trkpt>
      <trkpt lat="44.30752" lon="5.066">
        <ele>229.39999389648</ele>
        <time>2021-08-30T10:32:01Z</time>
      </trkpt>
      <trkpt lat="44.3077" lon="5.06647">
        <ele>230</ele>
        <time>2021-08-30T10:32:09Z</time>
      </trkpt>
      <trkpt lat="44.30796" lon="5.06718">
        <ele>230.39999389648</ele>
        <time>2021-08-30T10:32:21Z</time>
      </trkpt>
      <trkpt lat="44.30807" lon="5.06745">
        <ele>231</ele>
        <time>2021-08-30T10:32:26Z</time>
      </trkpt>
      <trkpt lat="44.30815" lon="5.06768">
        <ele>231.60000610352</ele>
        <time>2021-08-30T10:32:30Z</time>
      </trkpt>
      <trkpt lat="44.30826" lon="5.06796">
        <ele>232</ele>
        <time>2021-08-30T10:32:35Z</time>
      </trkpt>
      <trkpt lat="44.30836" lon="5.06826">
        <ele>232.39999389648</ele>
        <time>2021-08-30T10:32:40Z</time>
      </trkpt>
      <trkpt lat="44.30851" lon="5.06865">
        <ele>233</ele>
        <time>2021-08-30T10:32:47Z</time>
      </trkpt>
      <trkpt lat="44.30853" lon="5.0687">
        <ele>233.19999694824</ele>
        <time>2021-08-30T10:32:48Z</time>
      </trkpt>
      <trkpt lat="44.30867" lon="5.06908">
        <ele>233.80000305176</ele>
        <time>2021-08-30T10:32:55Z</time>
      </trkpt>
      <trkpt lat="44.30883" lon="5.06954">
        <ele>234</ele>
        <time>2021-08-30T10:33:03Z</time>
      </trkpt>
      <trkpt lat="44.30899" lon="5.06996">
        <ele>234.19999694824</ele>
        <time>2021-08-30T10:33:10Z</time>
      </trkpt>
      <trkpt lat="44.30901" lon="5.07002">
        <ele>234.19999694824</ele>
        <time>2021-08-30T10:33:11Z</time>
      </trkpt>
      <trkpt lat="44.30904" lon="5.07008">
        <ele>234.19999694824</ele>
        <time>2021-08-30T10:33:12Z</time>
      </trkpt>
      <trkpt lat="44.30919" lon="5.07041">
        <ele>234.60000610352</ele>
        <time>2021-08-30T10:33:18Z</time>
      </trkpt>
      <trkpt lat="44.30946" lon="5.07079">
        <ele>235</ele>
        <time>2021-08-30T10:33:26Z</time>
      </trkpt>
      <trkpt lat="44.30971" lon="5.07113">
        <ele>235.19999694824</ele>
        <time>2021-08-30T10:33:33Z</time>
      </trkpt>
      <trkpt lat="44.30981" lon="5.07126">
        <ele>235.60000610352</ele>
        <time>2021-08-30T10:33:36Z</time>
      </trkpt>
      <trkpt lat="44.30995" lon="5.07145">
        <ele>236.19999694824</ele>
        <time>2021-08-30T10:33:40Z</time>
      </trkpt>
      <trkpt lat="44.31013" lon="5.07171">
        <ele>236.60000610352</ele>
        <time>2021-08-30T10:33:45Z</time>
      </trkpt>
      <trkpt lat="44.31039" lon="5.07207">
        <ele>237</ele>
        <time>2021-08-30T10:33:52Z</time>
      </trkpt>
      <trkpt lat="44.31072" lon="5.07237">
        <ele>236.80000305176</ele>
        <time>2021-08-30T10:33:59Z</time>
      </trkpt>
      <trkpt lat="44.31116" lon="5.07259">
        <ele>237</ele>
        <time>2021-08-30T10:34:07Z</time>
      </trkpt>
      <trkpt lat="44.31168" lon="5.07285">
        <ele>237</ele>
        <time>2021-08-30T10:34:17Z</time>
      </trkpt>
      <trkpt lat="44.31213" lon="5.07313">
        <ele>237</ele>
        <time>2021-08-30T10:34:26Z</time>
      </trkpt>
      <trkpt lat="44.31226" lon="5.07323">
        <ele>237.19999694824</ele>
        <time>2021-08-30T10:34:29Z</time>
      </trkpt>
      <trkpt lat="44.31245" lon="5.07335">
        <ele>237.60000610352</ele>
        <time>2021-08-30T10:34:33Z</time>
      </trkpt>
      <trkpt lat="44.31276" lon="5.07362">
        <ele>238.19999694824</ele>
        <time>2021-08-30T10:34:40Z</time>
      </trkpt>
      <trkpt lat="44.31301" lon="5.07389">
        <ele>238.19999694824</ele>
        <time>2021-08-30T10:34:46Z</time>
      </trkpt>
      <trkpt lat="44.31304" lon="5.07395">
        <ele>238.19999694824</ele>
        <time>2021-08-30T10:34:47Z</time>
      </trkpt>
      <trkpt lat="44.31314" lon="5.07411">
        <ele>238.39999389648</ele>
        <time>2021-08-30T10:34:50Z</time>
      </trkpt>
      <trkpt lat="44.31335" lon="5.07444">
        <ele>239</ele>
        <time>2021-08-30T10:34:56Z</time>
      </trkpt>
      <trkpt lat="44.31366" lon="5.07496">
        <ele>239.19999694824</ele>
        <time>2021-08-30T10:35:05Z</time>
      </trkpt>
      <trkpt lat="44.31373" lon="5.07507">
        <ele>239.39999389648</ele>
        <time>2021-08-30T10:35:07Z</time>
      </trkpt>
      <trkpt lat="44.31402" lon="5.07554">
        <ele>239.39999389648</ele>
        <time>2021-08-30T10:35:15Z</time>
      </trkpt>
      <trkpt lat="44.31438" lon="5.07611">
        <ele>239.39999389648</ele>
        <time>2021-08-30T10:35:24Z</time>
      </trkpt>
      <trkpt lat="44.31475" lon="5.07668">
        <ele>239.19999694824</ele>
        <time>2021-08-30T10:35:33Z</time>
      </trkpt>
      <trkpt lat="44.31514" lon="5.07731">
        <ele>238.60000610352</ele>
        <time>2021-08-30T10:35:43Z</time>
      </trkpt>
      <trkpt lat="44.31531" lon="5.07782">
        <ele>238.60000610352</ele>
        <time>2021-08-30T10:35:50Z</time>
      </trkpt>
      <trkpt lat="44.3155" lon="5.07843">
        <ele>239</ele>
        <time>2021-08-30T10:35:58Z</time>
      </trkpt>
      <trkpt lat="44.31573" lon="5.07913">
        <ele>238.80000305176</ele>
        <time>2021-08-30T10:36:07Z</time>
      </trkpt>
      <trkpt lat="44.31575" lon="5.0792">
        <ele>238.80000305176</ele>
        <time>2021-08-30T10:36:08Z</time>
      </trkpt>
      <trkpt lat="44.31599" lon="5.07995">
        <ele>239</ele>
        <time>2021-08-30T10:36:18Z</time>
      </trkpt>
      <trkpt lat="44.31617" lon="5.08047">
        <ele>239.80000305176</ele>
        <time>2021-08-30T10:36:26Z</time>
      </trkpt>
      <trkpt lat="44.3164" lon="5.08094">
        <ele>239.39999389648</ele>
        <time>2021-08-30T10:36:33Z</time>
      </trkpt>
      <trkpt lat="44.3167" lon="5.08152">
        <ele>239.39999389648</ele>
        <time>2021-08-30T10:36:42Z</time>
      </trkpt>
      <trkpt lat="44.31701" lon="5.08214">
        <ele>238.80000305176</ele>
        <time>2021-08-30T10:36:51Z</time>
      </trkpt>
      <trkpt lat="44.31733" lon="5.08283">
        <ele>238.60000610352</ele>
        <time>2021-08-30T10:37:00Z</time>
      </trkpt>
      <trkpt lat="44.31763" lon="5.08352">
        <ele>238.80000305176</ele>
        <time>2021-08-30T10:37:09Z</time>
      </trkpt>
      <trkpt lat="44.31767" lon="5.0836">
        <ele>238.60000610352</ele>
        <time>2021-08-30T10:37:10Z</time>
      </trkpt>
      <trkpt lat="44.3179" lon="5.08422">
        <ele>238.39999389648</ele>
        <time>2021-08-30T10:37:18Z</time>
      </trkpt>
      <trkpt lat="44.31795" lon="5.08469">
        <ele>238.39999389648</ele>
        <time>2021-08-30T10:37:24Z</time>
      </trkpt>
      <trkpt lat="44.31802" lon="5.08515">
        <ele>239.19999694824</ele>
        <time>2021-08-30T10:37:31Z</time>
      </trkpt>
      <trkpt lat="44.3181" lon="5.0856">
        <ele>240.39999389648</ele>
        <time>2021-08-30T10:37:39Z</time>
      </trkpt>
      <trkpt lat="44.31813" lon="5.08576">
        <ele>241</ele>
        <time>2021-08-30T10:37:42Z</time>
      </trkpt>
      <trkpt lat="44.31817" lon="5.08592">
        <ele>241.39999389648</ele>
        <time>2021-08-30T10:37:45Z</time>
      </trkpt>
      <trkpt lat="44.31818" lon="5.08598">
        <ele>241.60000610352</ele>
        <time>2021-08-30T10:37:46Z</time>
      </trkpt>
      <trkpt lat="44.31821" lon="5.08618">
        <ele>242.60000610352</ele>
        <time>2021-08-30T10:37:50Z</time>
      </trkpt>
      <trkpt lat="44.31825" lon="5.08634">
        <ele>243.19999694824</ele>
        <time>2021-08-30T10:37:53Z</time>
      </trkpt>
      <trkpt lat="44.3183" lon="5.08655">
        <ele>243.80000305176</ele>
        <time>2021-08-30T10:37:57Z</time>
      </trkpt>
      <trkpt lat="44.31835" lon="5.08675">
        <ele>244.60000610352</ele>
        <time>2021-08-30T10:38:01Z</time>
      </trkpt>
      <trkpt lat="44.31836" lon="5.0868">
        <ele>244.80000305176</ele>
        <time>2021-08-30T10:38:02Z</time>
      </trkpt>
      <trkpt lat="44.31848" lon="5.08713">
        <ele>245.60000610352</ele>
        <time>2021-08-30T10:38:08Z</time>
      </trkpt>
      <trkpt lat="44.31857" lon="5.08742">
        <ele>245.80000305176</ele>
        <time>2021-08-30T10:38:13Z</time>
      </trkpt>
      <trkpt lat="44.31859" lon="5.08755">
        <ele>246</ele>
        <time>2021-08-30T10:38:15Z</time>
      </trkpt>
      <trkpt lat="44.31861" lon="5.08788">
        <ele>246</ele>
        <time>2021-08-30T10:38:20Z</time>
      </trkpt>
      <trkpt lat="44.31862" lon="5.08802">
        <ele>246.19999694824</ele>
        <time>2021-08-30T10:38:22Z</time>
      </trkpt>
      <trkpt lat="44.31863" lon="5.0886">
        <ele>246.39999389648</ele>
        <time>2021-08-30T10:38:30Z</time>
      </trkpt>
      <trkpt lat="44.31864" lon="5.08895">
        <ele>247</ele>
        <time>2021-08-30T10:38:35Z</time>
      </trkpt>
      <trkpt lat="44.31866" lon="5.08928">
        <ele>247.19999694824</ele>
        <time>2021-08-30T10:38:40Z</time>
      </trkpt>
      <trkpt lat="44.31867" lon="5.08966">
        <ele>248</ele>
        <time>2021-08-30T10:38:46Z</time>
      </trkpt>
      <trkpt lat="44.31867" lon="5.08978">
        <ele>248</ele>
        <time>2021-08-30T10:38:48Z</time>
      </trkpt>
      <trkpt lat="44.31865" lon="5.09003">
        <ele>248.39999389648</ele>
        <time>2021-08-30T10:38:52Z</time>
      </trkpt>
      <trkpt lat="44.3186" lon="5.09021">
        <ele>248.80000305176</ele>
        <time>2021-08-30T10:38:55Z</time>
      </trkpt>
      <trkpt lat="44.31857" lon="5.09026">
        <ele>249</ele>
        <time>2021-08-30T10:38:56Z</time>
      </trkpt>
      <trkpt lat="44.3185" lon="5.09037">
        <ele>249.19999694824</ele>
        <time>2021-08-30T10:38:58Z</time>
      </trkpt>
      <trkpt lat="44.31842" lon="5.09047">
        <ele>249.19999694824</ele>
        <time>2021-08-30T10:39:00Z</time>
      </trkpt>
      <trkpt lat="44.31808" lon="5.09085">
        <ele>249.39999389648</ele>
        <time>2021-08-30T10:39:08Z</time>
      </trkpt>
      <trkpt lat="44.31785" lon="5.09121">
        <ele>249.39999389648</ele>
        <time>2021-08-30T10:39:14Z</time>
      </trkpt>
      <trkpt lat="44.31777" lon="5.09161">
        <ele>249.60000610352</ele>
        <time>2021-08-30T10:39:19Z</time>
      </trkpt>
      <trkpt lat="44.31771" lon="5.09186">
        <ele>249.80000305176</ele>
        <time>2021-08-30T10:39:22Z</time>
      </trkpt>
      <trkpt lat="44.31764" lon="5.092">
        <ele>249.80000305176</ele>
        <time>2021-08-30T10:39:24Z</time>
      </trkpt>
      <trkpt lat="44.31756" lon="5.09212">
        <ele>249.80000305176</ele>
        <time>2021-08-30T10:39:26Z</time>
      </trkpt>
      <trkpt lat="44.31752" lon="5.09216">
        <ele>249.80000305176</ele>
        <time>2021-08-30T10:39:27Z</time>
      </trkpt>
      <trkpt lat="44.31748" lon="5.0922">
        <ele>249.80000305176</ele>
        <time>2021-08-30T10:39:28Z</time>
      </trkpt>
      <trkpt lat="44.31721" lon="5.09245">
        <ele>249.60000610352</ele>
        <time>2021-08-30T10:39:34Z</time>
      </trkpt>
      <trkpt lat="44.3168" lon="5.09277">
        <ele>249.19999694824</ele>
        <time>2021-08-30T10:39:42Z</time>
      </trkpt>
      <trkpt lat="44.31632" lon="5.09312">
        <ele>249.19999694824</ele>
        <time>2021-08-30T10:39:51Z</time>
      </trkpt>
      <trkpt lat="44.31586" lon="5.09344">
        <ele>249.60000610352</ele>
        <time>2021-08-30T10:40:00Z</time>
      </trkpt>
      <trkpt lat="44.31563" lon="5.09366">
        <ele>250</ele>
        <time>2021-08-30T10:40:05Z</time>
      </trkpt>
      <trkpt lat="44.31549" lon="5.0938">
        <ele>250.19999694824</ele>
        <time>2021-08-30T10:40:08Z</time>
      </trkpt>
      <trkpt lat="44.31518" lon="5.09414">
        <ele>250.60000610352</ele>
        <time>2021-08-30T10:40:15Z</time>
      </trkpt>
      <trkpt lat="44.31505" lon="5.09429">
        <ele>251</ele>
        <time>2021-08-30T10:40:18Z</time>
      </trkpt>
      <trkpt lat="44.31481" lon="5.09452">
        <ele>251.39999389648</ele>
        <time>2021-08-30T10:40:23Z</time>
      </trkpt>
      <trkpt lat="44.31447" lon="5.0949">
        <ele>251.80000305176</ele>
        <time>2021-08-30T10:40:31Z</time>
      </trkpt>
      <trkpt lat="44.31434" lon="5.09504">
        <ele>252.19999694824</ele>
        <time>2021-08-30T10:40:34Z</time>
      </trkpt>
      <trkpt lat="44.31407" lon="5.09532">
        <ele>252.19999694824</ele>
        <time>2021-08-30T10:40:40Z</time>
      </trkpt>
      <trkpt lat="44.3137" lon="5.09574">
        <ele>252.39999389648</ele>
        <time>2021-08-30T10:40:48Z</time>
      </trkpt>
      <trkpt lat="44.3135" lon="5.09603">
        <ele>252.39999389648</ele>
        <time>2021-08-30T10:40:53Z</time>
      </trkpt>
      <trkpt lat="44.31343" lon="5.09615">
        <ele>252.39999389648</ele>
        <time>2021-08-30T10:40:55Z</time>
      </trkpt>
      <trkpt lat="44.31329" lon="5.09649">
        <ele>252.80000305176</ele>
        <time>2021-08-30T10:41:01Z</time>
      </trkpt>
      <trkpt lat="44.31323" lon="5.09658">
        <ele>253.19999694824</ele>
        <time>2021-08-30T10:41:03Z</time>
      </trkpt>
      <trkpt lat="44.31314" lon="5.09673">
        <ele>254</ele>
        <time>2021-08-30T10:41:07Z</time>
      </trkpt>
      <trkpt lat="44.31313" lon="5.09677">
        <ele>254.19999694824</ele>
        <time>2021-08-30T10:41:08Z</time>
      </trkpt>
      <trkpt lat="44.31301" lon="5.09696">
        <ele>255.39999389648</ele>
        <time>2021-08-30T10:41:14Z</time>
      </trkpt>
      <trkpt lat="44.31297" lon="5.09712">
        <ele>256.20001220703</ele>
        <time>2021-08-30T10:41:18Z</time>
      </trkpt>
      <trkpt lat="44.31297" lon="5.09716">
        <ele>256.39999389648</ele>
        <time>2021-08-30T10:41:19Z</time>
      </trkpt>
      <trkpt lat="44.31306" lon="5.09726">
        <ele>256.79998779297</ele>
        <time>2021-08-30T10:41:23Z</time>
      </trkpt>
      <trkpt lat="44.31313" lon="5.09726">
        <ele>256.79998779297</ele>
        <time>2021-08-30T10:41:26Z</time>
      </trkpt>
      <trkpt lat="44.31318" lon="5.09728">
        <ele>256.60000610352</ele>
        <time>2021-08-30T10:41:28Z</time>
      </trkpt>
      <trkpt lat="44.31327" lon="5.09733">
        <ele>256.20001220703</ele>
        <time>2021-08-30T10:41:34Z</time>
      </trkpt>
      <trkpt lat="44.31335" lon="5.09727">
        <ele>255.19999694824</ele>
        <time>2021-08-30T10:42:01Z</time>
      </trkpt>
      <trkpt lat="44.31331" lon="5.09725">
        <ele>255.19999694824</ele>
        <time>2021-08-30T10:42:03Z</time>
      </trkpt>
      <trkpt lat="44.31324" lon="5.09724">
        <ele>255</ele>
        <time>2021-08-30T10:42:06Z</time>
      </trkpt>
      <trkpt lat="44.31312" lon="5.0972">
        <ele>255.19999694824</ele>
        <time>2021-08-30T10:42:11Z</time>
      </trkpt>
      <trkpt lat="44.31304" lon="5.09712">
        <ele>256</ele>
        <time>2021-08-30T10:42:16Z</time>
      </trkpt>
      <trkpt lat="44.31304" lon="5.09702">
        <ele>256.20001220703</ele>
        <time>2021-08-30T10:42:19Z</time>
      </trkpt>
      <trkpt lat="44.31307" lon="5.09694">
        <ele>256.20001220703</ele>
        <time>2021-08-30T10:42:21Z</time>
      </trkpt>
      <trkpt lat="44.3132" lon="5.09665">
        <ele>256.60000610352</ele>
        <time>2021-08-30T10:42:27Z</time>
      </trkpt>
      <trkpt lat="44.31326" lon="5.0965">
        <ele>256.39999389648</ele>
        <time>2021-08-30T10:42:30Z</time>
      </trkpt>
      <trkpt lat="44.31335" lon="5.09635">
        <ele>255.60000610352</ele>
        <time>2021-08-30T10:42:33Z</time>
      </trkpt>
      <trkpt lat="44.31337" lon="5.0963">
        <ele>255.60000610352</ele>
        <time>2021-08-30T10:42:34Z</time>
      </trkpt>
      <trkpt lat="44.31344" lon="5.09615">
        <ele>255</ele>
        <time>2021-08-30T10:42:37Z</time>
      </trkpt>
      <trkpt lat="44.31349" lon="5.09608">
        <ele>254.39999389648</ele>
        <time>2021-08-30T10:42:39Z</time>
      </trkpt>
      <trkpt lat="44.31353" lon="5.096">
        <ele>254</ele>
        <time>2021-08-30T10:42:41Z</time>
      </trkpt>
      <trkpt lat="44.31365" lon="5.09593">
        <ele>253.19999694824</ele>
        <time>2021-08-30T10:42:45Z</time>
      </trkpt>
      <trkpt lat="44.3137" lon="5.09597">
        <ele>252.80000305176</ele>
        <time>2021-08-30T10:42:47Z</time>
      </trkpt>
      <trkpt lat="44.31376" lon="5.09604">
        <ele>252.39999389648</ele>
        <time>2021-08-30T10:42:49Z</time>
      </trkpt>
      <trkpt lat="44.31381" lon="5.09611">
        <ele>251.80000305176</ele>
        <time>2021-08-30T10:42:51Z</time>
      </trkpt>
      <trkpt lat="44.31387" lon="5.09621">
        <ele>250</ele>
        <time>2021-08-30T10:42:54Z</time>
      </trkpt>
      <trkpt lat="44.3139" lon="5.09627">
        <ele>249.60000610352</ele>
        <time>2021-08-30T10:42:56Z</time>
      </trkpt>
      <trkpt lat="44.31395" lon="5.09634">
        <ele>249</ele>
        <time>2021-08-30T10:42:59Z</time>
      </trkpt>
      <trkpt lat="44.314" lon="5.09636">
        <ele>248.80000305176</ele>
        <time>2021-08-30T10:43:02Z</time>
      </trkpt>
      <trkpt lat="44.31404" lon="5.09638">
        <ele>248.80000305176</ele>
        <time>2021-08-30T10:43:04Z</time>
      </trkpt>
      <trkpt lat="44.31407" lon="5.09638">
        <ele>248.60000610352</ele>
        <time>2021-08-30T10:43:07Z</time>
      </trkpt>
      <trkpt lat="44.31403" lon="5.09637">
        <ele>248.60000610352</ele>
        <time>2021-08-30T10:44:27Z</time>
      </trkpt>
      <trkpt lat="44.31399" lon="5.09636">
        <ele>248.60000610352</ele>
        <time>2021-08-30T10:44:29Z</time>
      </trkpt>
      <trkpt lat="44.31389" lon="5.09627">
        <ele>248.80000305176</ele>
        <time>2021-08-30T10:44:34Z</time>
      </trkpt>
      <trkpt lat="44.31384" lon="5.09629">
        <ele>248.80000305176</ele>
        <time>2021-08-30T10:44:36Z</time>
      </trkpt>
      <trkpt lat="44.31382" lon="5.09631">
        <ele>248.80000305176</ele>
        <time>2021-08-30T10:44:37Z</time>
      </trkpt>
      <trkpt lat="44.31372" lon="5.09636">
        <ele>249.19999694824</ele>
        <time>2021-08-30T10:44:43Z</time>
      </trkpt>
      <trkpt lat="44.3137" lon="5.09635">
        <ele>249.19999694824</ele>
        <time>2021-08-30T10:44:44Z</time>
      </trkpt>
      <trkpt lat="44.31365" lon="5.09625">
        <ele>249.39999389648</ele>
        <time>2021-08-30T10:44:49Z</time>
      </trkpt>
      <trkpt lat="44.31365" lon="5.09623">
        <ele>233.80000305176</ele>
        <time>2021-08-30T11:27:15Z</time>
      </trkpt>
      <trkpt lat="44.31372" lon="5.0963">
        <ele>233.80000305176</ele>
        <time>2021-08-30T11:27:44Z</time>
      </trkpt>
      <trkpt lat="44.31375" lon="5.0963">
        <ele>233.80000305176</ele>
        <time>2021-08-30T11:27:46Z</time>
      </trkpt>
      <trkpt lat="44.31386" lon="5.09623">
        <ele>233.60000610352</ele>
        <time>2021-08-30T11:27:53Z</time>
      </trkpt>
      <trkpt lat="44.31389" lon="5.09623">
        <ele>233.60000610352</ele>
        <time>2021-08-30T11:27:54Z</time>
      </trkpt>
      <trkpt lat="44.31396" lon="5.09628">
        <ele>234</ele>
        <time>2021-08-30T11:27:57Z</time>
      </trkpt>
      <trkpt lat="44.31402" lon="5.09632">
        <ele>233.80000305176</ele>
        <time>2021-08-30T11:28:00Z</time>
      </trkpt>
      <trkpt lat="44.31406" lon="5.09634">
        <ele>233.60000610352</ele>
        <time>2021-08-30T11:28:02Z</time>
      </trkpt>
      <trkpt lat="44.31401" lon="5.09634">
        <ele>232.80000305176</ele>
        <time>2021-08-30T11:28:44Z</time>
      </trkpt>
      <trkpt lat="44.31393" lon="5.09629">
        <ele>233</ele>
        <time>2021-08-30T11:28:50Z</time>
      </trkpt>
      <trkpt lat="44.3139" lon="5.09626">
        <ele>233</ele>
        <time>2021-08-30T11:28:52Z</time>
      </trkpt>
      <trkpt lat="44.31382" lon="5.09618">
        <ele>233</ele>
        <time>2021-08-30T11:28:56Z</time>
      </trkpt>
      <trkpt lat="44.31374" lon="5.09605">
        <ele>233.80000305176</ele>
        <time>2021-08-30T11:29:03Z</time>
      </trkpt>
      <trkpt lat="44.31371" lon="5.096">
        <ele>234.39999389648</ele>
        <time>2021-08-30T11:29:06Z</time>
      </trkpt>
      <trkpt lat="44.3137" lon="5.09596">
        <ele>235</ele>
        <time>2021-08-30T11:29:08Z</time>
      </trkpt>
      <trkpt lat="44.31368" lon="5.09595">
        <ele>235.19999694824</ele>
        <time>2021-08-30T11:29:09Z</time>
      </trkpt>
      <trkpt lat="44.31361" lon="5.09596">
        <ele>236</ele>
        <time>2021-08-30T11:29:13Z</time>
      </trkpt>
      <trkpt lat="44.31359" lon="5.09597">
        <ele>236.19999694824</ele>
        <time>2021-08-30T11:29:14Z</time>
      </trkpt>
      <trkpt lat="44.31351" lon="5.09603">
        <ele>236.60000610352</ele>
        <time>2021-08-30T11:29:18Z</time>
      </trkpt>
      <trkpt lat="44.31339" lon="5.09621">
        <ele>237.19999694824</ele>
        <time>2021-08-30T11:29:26Z</time>
      </trkpt>
      <trkpt lat="44.31338" lon="5.09624">
        <ele>237.19999694824</ele>
        <time>2021-08-30T11:29:27Z</time>
      </trkpt>
      <trkpt lat="44.31336" lon="5.09625">
        <ele>237.19999694824</ele>
        <time>2021-08-30T11:29:28Z</time>
      </trkpt>
      <trkpt lat="44.31334" lon="5.0963">
        <ele>237.60000610352</ele>
        <time>2021-08-30T11:29:30Z</time>
      </trkpt>
      <trkpt lat="44.31329" lon="5.09641">
        <ele>238</ele>
        <time>2021-08-30T11:29:34Z</time>
      </trkpt>
      <trkpt lat="44.31328" lon="5.09643">
        <ele>238.19999694824</ele>
        <time>2021-08-30T11:29:35Z</time>
      </trkpt>
      <trkpt lat="44.31318" lon="5.09661">
        <ele>239</ele>
        <time>2021-08-30T11:29:42Z</time>
      </trkpt>
      <trkpt lat="44.31316" lon="5.09666">
        <ele>239.19999694824</ele>
        <time>2021-08-30T11:29:44Z</time>
      </trkpt>
      <trkpt lat="44.31313" lon="5.09674">
        <ele>239.39999389648</ele>
        <time>2021-08-30T11:29:47Z</time>
      </trkpt>
      <trkpt lat="44.31308" lon="5.09683">
        <ele>239.80000305176</ele>
        <time>2021-08-30T11:29:51Z</time>
      </trkpt>
      <trkpt lat="44.31305" lon="5.09697">
        <ele>240.19999694824</ele>
        <time>2021-08-30T11:29:56Z</time>
      </trkpt>
      <trkpt lat="44.31303" lon="5.09703">
        <ele>240.39999389648</ele>
        <time>2021-08-30T11:29:58Z</time>
      </trkpt>
      <trkpt lat="44.31303" lon="5.09718">
        <ele>240.80000305176</ele>
        <time>2021-08-30T11:30:03Z</time>
      </trkpt>
      <trkpt lat="44.31305" lon="5.09721">
        <ele>240.80000305176</ele>
        <time>2021-08-30T11:30:04Z</time>
      </trkpt>
      <trkpt lat="44.31317" lon="5.09726">
        <ele>241</ele>
        <time>2021-08-30T11:30:08Z</time>
      </trkpt>
      <trkpt lat="44.31345" lon="5.09731">
        <ele>240.80000305176</ele>
        <time>2021-08-30T11:30:14Z</time>
      </trkpt>
      <trkpt lat="44.3136" lon="5.09733">
        <ele>240.60000610352</ele>
        <time>2021-08-30T11:30:17Z</time>
      </trkpt>
      <trkpt lat="44.31371" lon="5.09734">
        <ele>240.19999694824</ele>
        <time>2021-08-30T11:30:19Z</time>
      </trkpt>
      <trkpt lat="44.31376" lon="5.09734">
        <ele>239.80000305176</ele>
        <time>2021-08-30T11:30:20Z</time>
      </trkpt>
      <trkpt lat="44.31398" lon="5.09738">
        <ele>239</ele>
        <time>2021-08-30T11:30:24Z</time>
      </trkpt>
      <trkpt lat="44.3141" lon="5.0974">
        <ele>238.80000305176</ele>
        <time>2021-08-30T11:30:26Z</time>
      </trkpt>
      <trkpt lat="44.31416" lon="5.09742">
        <ele>238.60000610352</ele>
        <time>2021-08-30T11:30:27Z</time>
      </trkpt>
      <trkpt lat="44.31432" lon="5.09753">
        <ele>238.19999694824</ele>
        <time>2021-08-30T11:30:30Z</time>
      </trkpt>
      <trkpt lat="44.31437" lon="5.09757">
        <ele>238</ele>
        <time>2021-08-30T11:30:31Z</time>
      </trkpt>
      <trkpt lat="44.31442" lon="5.09761">
        <ele>237.80000305176</ele>
        <time>2021-08-30T11:30:32Z</time>
      </trkpt>
      <trkpt lat="44.31466" lon="5.09779">
        <ele>237.39999389648</ele>
        <time>2021-08-30T11:30:37Z</time>
      </trkpt>
      <trkpt lat="44.31474" lon="5.09785">
        <ele>237.39999389648</ele>
        <time>2021-08-30T11:30:39Z</time>
      </trkpt>
      <trkpt lat="44.31502" lon="5.09807">
        <ele>238.39999389648</ele>
        <time>2021-08-30T11:30:47Z</time>
      </trkpt>
      <trkpt lat="44.31515" lon="5.09815">
        <ele>239</ele>
        <time>2021-08-30T11:30:51Z</time>
      </trkpt>
      <trkpt lat="44.31527" lon="5.09823">
        <ele>239.60000610352</ele>
        <time>2021-08-30T11:30:55Z</time>
      </trkpt>
      <trkpt lat="44.31538" lon="5.09831">
        <ele>240.19999694824</ele>
        <time>2021-08-30T11:30:59Z</time>
      </trkpt>
      <trkpt lat="44.31547" lon="5.09835">
        <ele>240.60000610352</ele>
        <time>2021-08-30T11:31:02Z</time>
      </trkpt>
      <trkpt lat="44.3156" lon="5.09843">
        <ele>241.39999389648</ele>
        <time>2021-08-30T11:31:06Z</time>
      </trkpt>
      <trkpt lat="44.31566" lon="5.09848">
        <ele>241.60000610352</ele>
        <time>2021-08-30T11:31:08Z</time>
      </trkpt>
      <trkpt lat="44.31584" lon="5.09864">
        <ele>241.60000610352</ele>
        <time>2021-08-30T11:31:15Z</time>
      </trkpt>
      <trkpt lat="44.316" lon="5.09878">
        <ele>242.39999389648</ele>
        <time>2021-08-30T11:31:22Z</time>
      </trkpt>
      <trkpt lat="44.31602" lon="5.0988">
        <ele>242.39999389648</ele>
        <time>2021-08-30T11:31:23Z</time>
      </trkpt>
      <trkpt lat="44.31613" lon="5.09892">
        <ele>243.39999389648</ele>
        <time>2021-08-30T11:31:28Z</time>
      </trkpt>
      <trkpt lat="44.3162" lon="5.099">
        <ele>243.80000305176</ele>
        <time>2021-08-30T11:31:31Z</time>
      </trkpt>
      <trkpt lat="44.31635" lon="5.09935">
        <ele>244</ele>
        <time>2021-08-30T11:31:40Z</time>
      </trkpt>
      <trkpt lat="44.31647" lon="5.09964">
        <ele>244.39999389648</ele>
        <time>2021-08-30T11:31:47Z</time>
      </trkpt>
      <trkpt lat="44.31654" lon="5.0998">
        <ele>244.60000610352</ele>
        <time>2021-08-30T11:31:51Z</time>
      </trkpt>
      <trkpt lat="44.31656" lon="5.09985">
        <ele>244.60000610352</ele>
        <time>2021-08-30T11:31:52Z</time>
      </trkpt>
      <trkpt lat="44.31666" lon="5.10007">
        <ele>245</ele>
        <time>2021-08-30T11:31:58Z</time>
      </trkpt>
      <trkpt lat="44.3167" lon="5.10018">
        <ele>245.39999389648</ele>
        <time>2021-08-30T11:32:01Z</time>
      </trkpt>
      <trkpt lat="44.31676" lon="5.1003">
        <ele>246</ele>
        <time>2021-08-30T11:32:05Z</time>
      </trkpt>
      <trkpt lat="44.31679" lon="5.10032">
        <ele>246.60000610352</ele>
        <time>2021-08-30T11:32:08Z</time>
      </trkpt>
      <trkpt lat="44.31679" lon="5.10031">
        <ele>246.60000610352</ele>
        <time>2021-08-30T11:32:09Z</time>
      </trkpt>
      <trkpt lat="44.31677" lon="5.10031">
        <ele>248</ele>
        <time>2021-08-30T11:32:26Z</time>
      </trkpt>
      <trkpt lat="44.31678" lon="5.10033">
        <ele>247.80000305176</ele>
        <time>2021-08-30T11:32:27Z</time>
      </trkpt>
      <trkpt lat="44.31682" lon="5.10043">
        <ele>247.39999389648</ele>
        <time>2021-08-30T11:32:31Z</time>
      </trkpt>
      <trkpt lat="44.31689" lon="5.1006">
        <ele>248</ele>
        <time>2021-08-30T11:32:38Z</time>
      </trkpt>
      <trkpt lat="44.31693" lon="5.10074">
        <ele>249.19999694824</ele>
        <time>2021-08-30T11:32:43Z</time>
      </trkpt>
      <trkpt lat="44.31693" lon="5.10077">
        <ele>249.19999694824</ele>
        <time>2021-08-30T11:32:44Z</time>
      </trkpt>
      <trkpt lat="44.31689" lon="5.10096">
        <ele>250.19999694824</ele>
        <time>2021-08-30T11:32:51Z</time>
      </trkpt>
      <trkpt lat="44.31688" lon="5.10098">
        <ele>250.39999389648</ele>
        <time>2021-08-30T11:32:52Z</time>
      </trkpt>
      <trkpt lat="44.31686" lon="5.10102">
        <ele>251</ele>
        <time>2021-08-30T11:32:54Z</time>
      </trkpt>
      <trkpt lat="44.31683" lon="5.10106">
        <ele>251.39999389648</ele>
        <time>2021-08-30T11:32:56Z</time>
      </trkpt>
      <trkpt lat="44.31682" lon="5.10108">
        <ele>251.60000610352</ele>
        <time>2021-08-30T11:32:57Z</time>
      </trkpt>
      <trkpt lat="44.3168" lon="5.10109">
        <ele>251.80000305176</ele>
        <time>2021-08-30T11:32:58Z</time>
      </trkpt>
      <trkpt lat="44.3167" lon="5.10118">
        <ele>252.39999389648</ele>
        <time>2021-08-30T11:33:04Z</time>
      </trkpt>
      <trkpt lat="44.31669" lon="5.1012">
        <ele>252.60000610352</ele>
        <time>2021-08-30T11:33:05Z</time>
      </trkpt>
      <trkpt lat="44.31664" lon="5.10126">
        <ele>253.60000610352</ele>
        <time>2021-08-30T11:33:09Z</time>
      </trkpt>
      <trkpt lat="44.3166" lon="5.10132">
        <ele>254.60000610352</ele>
        <time>2021-08-30T11:33:12Z</time>
      </trkpt>
      <trkpt lat="44.31653" lon="5.10145">
        <ele>255.60000610352</ele>
        <time>2021-08-30T11:33:18Z</time>
      </trkpt>
      <trkpt lat="44.31652" lon="5.10148">
        <ele>255.60000610352</ele>
        <time>2021-08-30T11:33:19Z</time>
      </trkpt>
      <trkpt lat="44.31645" lon="5.10175">
        <ele>256.39999389648</ele>
        <time>2021-08-30T11:33:29Z</time>
      </trkpt>
      <trkpt lat="44.31643" lon="5.10181">
        <ele>256.60000610352</ele>
        <time>2021-08-30T11:33:31Z</time>
      </trkpt>
      <trkpt lat="44.31639" lon="5.102">
        <ele>257.20001220703</ele>
        <time>2021-08-30T11:33:37Z</time>
      </trkpt>
      <trkpt lat="44.31637" lon="5.10218">
        <ele>257.60000610352</ele>
        <time>2021-08-30T11:33:43Z</time>
      </trkpt>
      <trkpt lat="44.31636" lon="5.10228">
        <ele>257.79998779297</ele>
        <time>2021-08-30T11:33:46Z</time>
      </trkpt>
      <trkpt lat="44.31639" lon="5.10256">
        <ele>258.60000610352</ele>
        <time>2021-08-30T11:33:54Z</time>
      </trkpt>
      <trkpt lat="44.31639" lon="5.10264">
        <ele>258.79998779297</ele>
        <time>2021-08-30T11:33:56Z</time>
      </trkpt>
      <trkpt lat="44.31642" lon="5.1029">
        <ele>259.39999389648</ele>
        <time>2021-08-30T11:34:02Z</time>
      </trkpt>
      <trkpt lat="44.31645" lon="5.10318">
        <ele>259.79998779297</ele>
        <time>2021-08-30T11:34:09Z</time>
      </trkpt>
      <trkpt lat="44.31653" lon="5.10349">
        <ele>260.60000610352</ele>
        <time>2021-08-30T11:34:17Z</time>
      </trkpt>
      <trkpt lat="44.31657" lon="5.1036">
        <ele>261.20001220703</ele>
        <time>2021-08-30T11:34:20Z</time>
      </trkpt>
      <trkpt lat="44.31664" lon="5.10377">
        <ele>261.60000610352</ele>
        <time>2021-08-30T11:34:25Z</time>
      </trkpt>
      <trkpt lat="44.31671" lon="5.10393">
        <ele>262.20001220703</ele>
        <time>2021-08-30T11:34:30Z</time>
      </trkpt>
      <trkpt lat="44.31675" lon="5.10403">
        <ele>262.60000610352</ele>
        <time>2021-08-30T11:34:33Z</time>
      </trkpt>
      <trkpt lat="44.31683" lon="5.10418">
        <ele>263.20001220703</ele>
        <time>2021-08-30T11:34:38Z</time>
      </trkpt>
      <trkpt lat="44.31689" lon="5.10427">
        <ele>263.60000610352</ele>
        <time>2021-08-30T11:34:41Z</time>
      </trkpt>
      <trkpt lat="44.31694" lon="5.10437">
        <ele>264.39999389648</ele>
        <time>2021-08-30T11:34:44Z</time>
      </trkpt>
      <trkpt lat="44.31698" lon="5.10449">
        <ele>265.20001220703</ele>
        <time>2021-08-30T11:34:48Z</time>
      </trkpt>
      <trkpt lat="44.317" lon="5.10456">
        <ele>265.39999389648</ele>
        <time>2021-08-30T11:34:50Z</time>
      </trkpt>
      <trkpt lat="44.31705" lon="5.10468">
        <ele>266.20001220703</ele>
        <time>2021-08-30T11:34:54Z</time>
      </trkpt>
      <trkpt lat="44.31708" lon="5.10482">
        <ele>266.60000610352</ele>
        <time>2021-08-30T11:34:58Z</time>
      </trkpt>
      <trkpt lat="44.31712" lon="5.10492">
        <ele>266.79998779297</ele>
        <time>2021-08-30T11:35:01Z</time>
      </trkpt>
      <trkpt lat="44.31715" lon="5.10508">
        <ele>267.60000610352</ele>
        <time>2021-08-30T11:35:06Z</time>
      </trkpt>
      <trkpt lat="44.31716" lon="5.10517">
        <ele>268.20001220703</ele>
        <time>2021-08-30T11:35:09Z</time>
      </trkpt>
      <trkpt lat="44.31717" lon="5.10526">
        <ele>268.60000610352</ele>
        <time>2021-08-30T11:35:12Z</time>
      </trkpt>
      <trkpt lat="44.31718" lon="5.10532">
        <ele>269</ele>
        <time>2021-08-30T11:35:14Z</time>
      </trkpt>
      <trkpt lat="44.3172" lon="5.10542">
        <ele>269.60000610352</ele>
        <time>2021-08-30T11:35:17Z</time>
      </trkpt>
      <trkpt lat="44.31722" lon="5.10549">
        <ele>269.79998779297</ele>
        <time>2021-08-30T11:35:19Z</time>
      </trkpt>
      <trkpt lat="44.31727" lon="5.10572">
        <ele>270.60000610352</ele>
        <time>2021-08-30T11:35:26Z</time>
      </trkpt>
      <trkpt lat="44.31728" lon="5.10575">
        <ele>270.79998779297</ele>
        <time>2021-08-30T11:35:27Z</time>
      </trkpt>
      <trkpt lat="44.31732" lon="5.10595">
        <ele>271.79998779297</ele>
        <time>2021-08-30T11:35:33Z</time>
      </trkpt>
      <trkpt lat="44.31734" lon="5.10616">
        <ele>272.79998779297</ele>
        <time>2021-08-30T11:35:39Z</time>
      </trkpt>
      <trkpt lat="44.31734" lon="5.10627">
        <ele>273.39999389648</ele>
        <time>2021-08-30T11:35:42Z</time>
      </trkpt>
      <trkpt lat="44.31735" lon="5.10644">
        <ele>274</ele>
        <time>2021-08-30T11:35:47Z</time>
      </trkpt>
      <trkpt lat="44.31732" lon="5.10661">
        <ele>274.60000610352</ele>
        <time>2021-08-30T11:35:52Z</time>
      </trkpt>
      <trkpt lat="44.31732" lon="5.10668">
        <ele>275</ele>
        <time>2021-08-30T11:35:54Z</time>
      </trkpt>
      <trkpt lat="44.31729" lon="5.10685">
        <ele>275.79998779297</ele>
        <time>2021-08-30T11:35:59Z</time>
      </trkpt>
      <trkpt lat="44.31728" lon="5.10688">
        <ele>276</ele>
        <time>2021-08-30T11:36:00Z</time>
      </trkpt>
      <trkpt lat="44.31726" lon="5.1071">
        <ele>277</ele>
        <time>2021-08-30T11:36:06Z</time>
      </trkpt>
      <trkpt lat="44.31725" lon="5.10717">
        <ele>277.39999389648</ele>
        <time>2021-08-30T11:36:08Z</time>
      </trkpt>
      <trkpt lat="44.31724" lon="5.10733">
        <ele>278</ele>
        <time>2021-08-30T11:36:13Z</time>
      </trkpt>
      <trkpt lat="44.31723" lon="5.10748">
        <ele>278.39999389648</ele>
        <time>2021-08-30T11:36:17Z</time>
      </trkpt>
      <trkpt lat="44.31721" lon="5.10763">
        <ele>279</ele>
        <time>2021-08-30T11:36:21Z</time>
      </trkpt>
      <trkpt lat="44.31721" lon="5.10767">
        <ele>279</ele>
        <time>2021-08-30T11:36:22Z</time>
      </trkpt>
      <trkpt lat="44.31719" lon="5.10783">
        <ele>279.39999389648</ele>
        <time>2021-08-30T11:36:26Z</time>
      </trkpt>
      <trkpt lat="44.31715" lon="5.1082">
        <ele>280</ele>
        <time>2021-08-30T11:36:34Z</time>
      </trkpt>
      <trkpt lat="44.31714" lon="5.10825">
        <ele>280</ele>
        <time>2021-08-30T11:36:35Z</time>
      </trkpt>
      <trkpt lat="44.3171" lon="5.10861">
        <ele>280.39999389648</ele>
        <time>2021-08-30T11:36:42Z</time>
      </trkpt>
      <trkpt lat="44.31703" lon="5.10912">
        <ele>280.39999389648</ele>
        <time>2021-08-30T11:36:51Z</time>
      </trkpt>
      <trkpt lat="44.31702" lon="5.10955">
        <ele>280.20001220703</ele>
        <time>2021-08-30T11:36:57Z</time>
      </trkpt>
      <trkpt lat="44.31707" lon="5.10986">
        <ele>279.60000610352</ele>
        <time>2021-08-30T11:37:01Z</time>
      </trkpt>
      <trkpt lat="44.31711" lon="5.11003">
        <ele>279.20001220703</ele>
        <time>2021-08-30T11:37:03Z</time>
      </trkpt>
      <trkpt lat="44.31714" lon="5.11011">
        <ele>279</ele>
        <time>2021-08-30T11:37:04Z</time>
      </trkpt>
      <trkpt lat="44.31726" lon="5.11054">
        <ele>278</ele>
        <time>2021-08-30T11:37:09Z</time>
      </trkpt>
      <trkpt lat="44.31731" lon="5.11072">
        <ele>277.60000610352</ele>
        <time>2021-08-30T11:37:11Z</time>
      </trkpt>
      <trkpt lat="44.31747" lon="5.11138">
        <ele>277</ele>
        <time>2021-08-30T11:37:19Z</time>
      </trkpt>
      <trkpt lat="44.31754" lon="5.11167">
        <ele>276.60000610352</ele>
        <time>2021-08-30T11:37:23Z</time>
      </trkpt>
      <trkpt lat="44.31755" lon="5.1118">
        <ele>276.79998779297</ele>
        <time>2021-08-30T11:37:25Z</time>
      </trkpt>
      <trkpt lat="44.31751" lon="5.11193">
        <ele>277</ele>
        <time>2021-08-30T11:37:28Z</time>
      </trkpt>
      <trkpt lat="44.31745" lon="5.11205">
        <ele>278</ele>
        <time>2021-08-30T11:37:32Z</time>
      </trkpt>
      <trkpt lat="44.31742" lon="5.1121">
        <ele>278.39999389648</ele>
        <time>2021-08-30T11:37:34Z</time>
      </trkpt>
      <trkpt lat="44.3174" lon="5.11212">
        <ele>278.60000610352</ele>
        <time>2021-08-30T11:37:35Z</time>
      </trkpt>
      <trkpt lat="44.31737" lon="5.11216">
        <ele>279</ele>
        <time>2021-08-30T11:37:37Z</time>
      </trkpt>
      <trkpt lat="44.31731" lon="5.11226">
        <ele>279.79998779297</ele>
        <time>2021-08-30T11:37:41Z</time>
      </trkpt>
      <trkpt lat="44.3173" lon="5.11232">
        <ele>280</ele>
        <time>2021-08-30T11:37:43Z</time>
      </trkpt>
      <trkpt lat="44.31726" lon="5.11243">
        <ele>280.60000610352</ele>
        <time>2021-08-30T11:37:47Z</time>
      </trkpt>
      <trkpt lat="44.31725" lon="5.11255">
        <ele>281.20001220703</ele>
        <time>2021-08-30T11:37:51Z</time>
      </trkpt>
      <trkpt lat="44.31723" lon="5.11264">
        <ele>281.60000610352</ele>
        <time>2021-08-30T11:37:54Z</time>
      </trkpt>
      <trkpt lat="44.31722" lon="5.11273">
        <ele>282.20001220703</ele>
        <time>2021-08-30T11:37:57Z</time>
      </trkpt>
      <trkpt lat="44.31719" lon="5.11286">
        <ele>283.20001220703</ele>
        <time>2021-08-30T11:38:02Z</time>
      </trkpt>
      <trkpt lat="44.31719" lon="5.11289">
        <ele>283.39999389648</ele>
        <time>2021-08-30T11:38:03Z</time>
      </trkpt>
      <trkpt lat="44.3172" lon="5.11304">
        <ele>284.20001220703</ele>
        <time>2021-08-30T11:38:08Z</time>
      </trkpt>
      <trkpt lat="44.31719" lon="5.11306">
        <ele>284.39999389648</ele>
        <time>2021-08-30T11:38:09Z</time>
      </trkpt>
      <trkpt lat="44.31717" lon="5.11319">
        <ele>285.20001220703</ele>
        <time>2021-08-30T11:38:14Z</time>
      </trkpt>
      <trkpt lat="44.31717" lon="5.11321">
        <ele>285.39999389648</ele>
        <time>2021-08-30T11:38:15Z</time>
      </trkpt>
      <trkpt lat="44.31716" lon="5.11338">
        <ele>286.20001220703</ele>
        <time>2021-08-30T11:38:20Z</time>
      </trkpt>
      <trkpt lat="44.31717" lon="5.11346">
        <ele>286.60000610352</ele>
        <time>2021-08-30T11:38:23Z</time>
      </trkpt>
      <trkpt lat="44.31718" lon="5.11362">
        <ele>287.20001220703</ele>
        <time>2021-08-30T11:38:28Z</time>
      </trkpt>
      <trkpt lat="44.31718" lon="5.11371">
        <ele>287.60000610352</ele>
        <time>2021-08-30T11:38:31Z</time>
      </trkpt>
      <trkpt lat="44.3172" lon="5.11392">
        <ele>288.60000610352</ele>
        <time>2021-08-30T11:38:38Z</time>
      </trkpt>
      <trkpt lat="44.3172" lon="5.11395">
        <ele>288.79998779297</ele>
        <time>2021-08-30T11:38:39Z</time>
      </trkpt>
      <trkpt lat="44.31721" lon="5.11413">
        <ele>289.79998779297</ele>
        <time>2021-08-30T11:38:45Z</time>
      </trkpt>
      <trkpt lat="44.31722" lon="5.11425">
        <ele>290.39999389648</ele>
        <time>2021-08-30T11:38:49Z</time>
      </trkpt>
      <trkpt lat="44.31721" lon="5.11434">
        <ele>290.79998779297</ele>
        <time>2021-08-30T11:38:52Z</time>
      </trkpt>
      <trkpt lat="44.31722" lon="5.11456">
        <ele>291.79998779297</ele>
        <time>2021-08-30T11:38:59Z</time>
      </trkpt>
      <trkpt lat="44.31723" lon="5.11481">
        <ele>293</ele>
        <time>2021-08-30T11:39:07Z</time>
      </trkpt>
      <trkpt lat="44.31723" lon="5.11503">
        <ele>294</ele>
        <time>2021-08-30T11:39:14Z</time>
      </trkpt>
      <trkpt lat="44.31723" lon="5.1151">
        <ele>294.39999389648</ele>
        <time>2021-08-30T11:39:16Z</time>
      </trkpt>
      <trkpt lat="44.31721" lon="5.11525">
        <ele>295.20001220703</ele>
        <time>2021-08-30T11:39:21Z</time>
      </trkpt>
      <trkpt lat="44.3172" lon="5.11535">
        <ele>295.60000610352</ele>
        <time>2021-08-30T11:39:24Z</time>
      </trkpt>
      <trkpt lat="44.31713" lon="5.1156">
        <ele>296.20001220703</ele>
        <time>2021-08-30T11:39:32Z</time>
      </trkpt>
      <trkpt lat="44.31712" lon="5.11563">
        <ele>296.20001220703</ele>
        <time>2021-08-30T11:39:33Z</time>
      </trkpt>
      <trkpt lat="44.3171" lon="5.11569">
        <ele>296.39999389648</ele>
        <time>2021-08-30T11:39:35Z</time>
      </trkpt>
      <trkpt lat="44.31704" lon="5.11595">
        <ele>297.20001220703</ele>
        <time>2021-08-30T11:39:43Z</time>
      </trkpt>
      <trkpt lat="44.31703" lon="5.11602">
        <ele>297.39999389648</ele>
        <time>2021-08-30T11:39:45Z</time>
      </trkpt>
      <trkpt lat="44.317" lon="5.11616">
        <ele>297.79998779297</ele>
        <time>2021-08-30T11:39:49Z</time>
      </trkpt>
      <trkpt lat="44.31699" lon="5.11639">
        <ele>298.39999389648</ele>
        <time>2021-08-30T11:39:55Z</time>
      </trkpt>
      <trkpt lat="44.31698" lon="5.11646">
        <ele>298.60000610352</ele>
        <time>2021-08-30T11:39:57Z</time>
      </trkpt>
      <trkpt lat="44.31701" lon="5.11675">
        <ele>299.39999389648</ele>
        <time>2021-08-30T11:40:04Z</time>
      </trkpt>
      <trkpt lat="44.31701" lon="5.11683">
        <ele>299.79998779297</ele>
        <time>2021-08-30T11:40:06Z</time>
      </trkpt>
      <trkpt lat="44.31707" lon="5.11706">
        <ele>300.39999389648</ele>
        <time>2021-08-30T11:40:12Z</time>
      </trkpt>
      <trkpt lat="44.31708" lon="5.1171">
        <ele>300.60000610352</ele>
        <time>2021-08-30T11:40:13Z</time>
      </trkpt>
      <trkpt lat="44.31721" lon="5.11727">
        <ele>301.20001220703</ele>
        <time>2021-08-30T11:40:19Z</time>
      </trkpt>
      <trkpt lat="44.31723" lon="5.1173">
        <ele>301.60000610352</ele>
        <time>2021-08-30T11:40:20Z</time>
      </trkpt>
      <trkpt lat="44.31734" lon="5.11744">
        <ele>302.60000610352</ele>
        <time>2021-08-30T11:40:26Z</time>
      </trkpt>
      <trkpt lat="44.31736" lon="5.11747">
        <ele>302.79998779297</ele>
        <time>2021-08-30T11:40:27Z</time>
      </trkpt>
      <trkpt lat="44.31745" lon="5.11764">
        <ele>303.79998779297</ele>
        <time>2021-08-30T11:40:33Z</time>
      </trkpt>
      <trkpt lat="44.31746" lon="5.11767">
        <ele>303.79998779297</ele>
        <time>2021-08-30T11:40:34Z</time>
      </trkpt>
      <trkpt lat="44.31754" lon="5.11784">
        <ele>304.79998779297</ele>
        <time>2021-08-30T11:40:40Z</time>
      </trkpt>
      <trkpt lat="44.31756" lon="5.11789">
        <ele>305.20001220703</ele>
        <time>2021-08-30T11:40:42Z</time>
      </trkpt>
      <trkpt lat="44.31761" lon="5.11796">
        <ele>306</ele>
        <time>2021-08-30T11:40:45Z</time>
      </trkpt>
      <trkpt lat="44.31765" lon="5.11808">
        <ele>306.79998779297</ele>
        <time>2021-08-30T11:40:49Z</time>
      </trkpt>
      <trkpt lat="44.31768" lon="5.11813">
        <ele>307.20001220703</ele>
        <time>2021-08-30T11:40:51Z</time>
      </trkpt>
      <trkpt lat="44.3177" lon="5.11816">
        <ele>307.39999389648</ele>
        <time>2021-08-30T11:40:52Z</time>
      </trkpt>
      <trkpt lat="44.31777" lon="5.1183">
        <ele>308</ele>
        <time>2021-08-30T11:40:57Z</time>
      </trkpt>
      <trkpt lat="44.31779" lon="5.11836">
        <ele>308.20001220703</ele>
        <time>2021-08-30T11:40:59Z</time>
      </trkpt>
      <trkpt lat="44.31785" lon="5.11852">
        <ele>309</ele>
        <time>2021-08-30T11:41:04Z</time>
      </trkpt>
      <trkpt lat="44.31788" lon="5.11858">
        <ele>309.20001220703</ele>
        <time>2021-08-30T11:41:06Z</time>
      </trkpt>
      <trkpt lat="44.31792" lon="5.11881">
        <ele>309.79998779297</ele>
        <time>2021-08-30T11:41:12Z</time>
      </trkpt>
      <trkpt lat="44.31802" lon="5.11919">
        <ele>310.20001220703</ele>
        <time>2021-08-30T11:41:21Z</time>
      </trkpt>
      <trkpt lat="44.31815" lon="5.11953">
        <ele>311</ele>
        <time>2021-08-30T11:41:29Z</time>
      </trkpt>
      <trkpt lat="44.31823" lon="5.11981">
        <ele>311.20001220703</ele>
        <time>2021-08-30T11:41:35Z</time>
      </trkpt>
      <trkpt lat="44.31827" lon="5.11999">
        <ele>311.60000610352</ele>
        <time>2021-08-30T11:41:39Z</time>
      </trkpt>
      <trkpt lat="44.31834" lon="5.12046">
        <ele>312.39999389648</ele>
        <time>2021-08-30T11:41:49Z</time>
      </trkpt>
      <trkpt lat="44.31835" lon="5.1205">
        <ele>312.39999389648</ele>
        <time>2021-08-30T11:41:50Z</time>
      </trkpt>
      <trkpt lat="44.31841" lon="5.12078">
        <ele>313.39999389648</ele>
        <time>2021-08-30T11:41:56Z</time>
      </trkpt>
      <trkpt lat="44.31842" lon="5.12087">
        <ele>313.79998779297</ele>
        <time>2021-08-30T11:41:58Z</time>
      </trkpt>
      <trkpt lat="44.31848" lon="5.12115">
        <ele>314.60000610352</ele>
        <time>2021-08-30T11:42:04Z</time>
      </trkpt>
      <trkpt lat="44.31849" lon="5.12129">
        <ele>314.79998779297</ele>
        <time>2021-08-30T11:42:07Z</time>
      </trkpt>
      <trkpt lat="44.31848" lon="5.12153">
        <ele>315.60000610352</ele>
        <time>2021-08-30T11:42:12Z</time>
      </trkpt>
      <trkpt lat="44.31848" lon="5.12158">
        <ele>315.60000610352</ele>
        <time>2021-08-30T11:42:13Z</time>
      </trkpt>
      <trkpt lat="44.31848" lon="5.12162">
        <ele>315.79998779297</ele>
        <time>2021-08-30T11:42:14Z</time>
      </trkpt>
      <trkpt lat="44.31849" lon="5.12194">
        <ele>316.60000610352</ele>
        <time>2021-08-30T11:42:21Z</time>
      </trkpt>
      <trkpt lat="44.31851" lon="5.12239">
        <ele>317.79998779297</ele>
        <time>2021-08-30T11:42:31Z</time>
      </trkpt>
      <trkpt lat="44.31851" lon="5.12243">
        <ele>317.79998779297</ele>
        <time>2021-08-30T11:42:32Z</time>
      </trkpt>
      <trkpt lat="44.31852" lon="5.12273">
        <ele>318.79998779297</ele>
        <time>2021-08-30T11:42:39Z</time>
      </trkpt>
      <trkpt lat="44.31853" lon="5.1228">
        <ele>319.20001220703</ele>
        <time>2021-08-30T11:42:41Z</time>
      </trkpt>
      <trkpt lat="44.31855" lon="5.12291">
        <ele>320</ele>
        <time>2021-08-30T11:42:44Z</time>
      </trkpt>
      <trkpt lat="44.31858" lon="5.1231">
        <ele>321</ele>
        <time>2021-08-30T11:42:49Z</time>
      </trkpt>
      <trkpt lat="44.31859" lon="5.12313">
        <ele>321</ele>
        <time>2021-08-30T11:42:50Z</time>
      </trkpt>
      <trkpt lat="44.31867" lon="5.12338">
        <ele>322</ele>
        <time>2021-08-30T11:42:57Z</time>
      </trkpt>
      <trkpt lat="44.31876" lon="5.12358">
        <ele>323</ele>
        <time>2021-08-30T11:43:04Z</time>
      </trkpt>
      <trkpt lat="44.31879" lon="5.12363">
        <ele>323.20001220703</ele>
        <time>2021-08-30T11:43:06Z</time>
      </trkpt>
      <trkpt lat="44.31883" lon="5.12374">
        <ele>324.20001220703</ele>
        <time>2021-08-30T11:43:10Z</time>
      </trkpt>
      <trkpt lat="44.31887" lon="5.12383">
        <ele>324.79998779297</ele>
        <time>2021-08-30T11:43:13Z</time>
      </trkpt>
      <trkpt lat="44.31889" lon="5.12389">
        <ele>325.20001220703</ele>
        <time>2021-08-30T11:43:15Z</time>
      </trkpt>
      <trkpt lat="44.31898" lon="5.12412">
        <ele>326.20001220703</ele>
        <time>2021-08-30T11:43:23Z</time>
      </trkpt>
      <trkpt lat="44.31908" lon="5.12433">
        <ele>327.39999389648</ele>
        <time>2021-08-30T11:43:30Z</time>
      </trkpt>
      <trkpt lat="44.31909" lon="5.12436">
        <ele>327.60000610352</ele>
        <time>2021-08-30T11:43:31Z</time>
      </trkpt>
      <trkpt lat="44.31913" lon="5.12452">
        <ele>328.39999389648</ele>
        <time>2021-08-30T11:43:36Z</time>
      </trkpt>
      <trkpt lat="44.31915" lon="5.12462">
        <ele>329</ele>
        <time>2021-08-30T11:43:39Z</time>
      </trkpt>
      <trkpt lat="44.31916" lon="5.12471">
        <ele>329.60000610352</ele>
        <time>2021-08-30T11:43:42Z</time>
      </trkpt>
      <trkpt lat="44.31917" lon="5.12486">
        <ele>330.20001220703</ele>
        <time>2021-08-30T11:43:47Z</time>
      </trkpt>
      <trkpt lat="44.31918" lon="5.12491">
        <ele>330.60000610352</ele>
        <time>2021-08-30T11:43:49Z</time>
      </trkpt>
      <trkpt lat="44.3192" lon="5.12511">
        <ele>331.60000610352</ele>
        <time>2021-08-30T11:43:56Z</time>
      </trkpt>
      <trkpt lat="44.3192" lon="5.12514">
        <ele>332</ele>
        <time>2021-08-30T11:43:57Z</time>
      </trkpt>
      <trkpt lat="44.31922" lon="5.12529">
        <ele>332.79998779297</ele>
        <time>2021-08-30T11:44:02Z</time>
      </trkpt>
      <trkpt lat="44.31923" lon="5.12534">
        <ele>333.20001220703</ele>
        <time>2021-08-30T11:44:04Z</time>
      </trkpt>
      <trkpt lat="44.31924" lon="5.12543">
        <ele>333.60000610352</ele>
        <time>2021-08-30T11:44:07Z</time>
      </trkpt>
      <trkpt lat="44.31924" lon="5.12548">
        <ele>333.79998779297</ele>
        <time>2021-08-30T11:44:09Z</time>
      </trkpt>
      <trkpt lat="44.31928" lon="5.12566">
        <ele>334.60000610352</ele>
        <time>2021-08-30T11:44:15Z</time>
      </trkpt>
      <trkpt lat="44.31929" lon="5.12571">
        <ele>334.79998779297</ele>
        <time>2021-08-30T11:44:17Z</time>
      </trkpt>
      <trkpt lat="44.31934" lon="5.12585">
        <ele>335.79998779297</ele>
        <time>2021-08-30T11:44:22Z</time>
      </trkpt>
      <trkpt lat="44.31935" lon="5.12587">
        <ele>336</ele>
        <time>2021-08-30T11:44:23Z</time>
      </trkpt>
      <trkpt lat="44.31944" lon="5.12601">
        <ele>337</ele>
        <time>2021-08-30T11:44:29Z</time>
      </trkpt>
      <trkpt lat="44.31952" lon="5.12614">
        <ele>338.20001220703</ele>
        <time>2021-08-30T11:44:35Z</time>
      </trkpt>
      <trkpt lat="44.31953" lon="5.12617">
        <ele>338.20001220703</ele>
        <time>2021-08-30T11:44:36Z</time>
      </trkpt>
      <trkpt lat="44.31961" lon="5.1263">
        <ele>339.39999389648</ele>
        <time>2021-08-30T11:44:42Z</time>
      </trkpt>
      <trkpt lat="44.31964" lon="5.12634">
        <ele>339.79998779297</ele>
        <time>2021-08-30T11:44:44Z</time>
      </trkpt>
      <trkpt lat="44.31968" lon="5.12642">
        <ele>340.39999389648</ele>
        <time>2021-08-30T11:44:48Z</time>
      </trkpt>
      <trkpt lat="44.31971" lon="5.12651">
        <ele>340.79998779297</ele>
        <time>2021-08-30T11:44:51Z</time>
      </trkpt>
      <trkpt lat="44.31969" lon="5.12669">
        <ele>341.39999389648</ele>
        <time>2021-08-30T11:44:57Z</time>
      </trkpt>
      <trkpt lat="44.31967" lon="5.12672">
        <ele>341.60000610352</ele>
        <time>2021-08-30T11:44:58Z</time>
      </trkpt>
      <trkpt lat="44.31963" lon="5.12686">
        <ele>342.39999389648</ele>
        <time>2021-08-30T11:45:03Z</time>
      </trkpt>
      <trkpt lat="44.3196" lon="5.12697">
        <ele>343</ele>
        <time>2021-08-30T11:45:07Z</time>
      </trkpt>
      <trkpt lat="44.31959" lon="5.12703">
        <ele>343.60000610352</ele>
        <time>2021-08-30T11:45:09Z</time>
      </trkpt>
      <trkpt lat="44.31955" lon="5.12719">
        <ele>344.79998779297</ele>
        <time>2021-08-30T11:45:15Z</time>
      </trkpt>
      <trkpt lat="44.31956" lon="5.12739">
        <ele>345.60000610352</ele>
        <time>2021-08-30T11:45:21Z</time>
      </trkpt>
      <trkpt lat="44.31957" lon="5.12753">
        <ele>345.79998779297</ele>
        <time>2021-08-30T11:45:25Z</time>
      </trkpt>
      <trkpt lat="44.31957" lon="5.12768">
        <ele>345.79998779297</ele>
        <time>2021-08-30T11:45:29Z</time>
      </trkpt>
      <trkpt lat="44.31958" lon="5.12797">
        <ele>346.39999389648</ele>
        <time>2021-08-30T11:45:37Z</time>
      </trkpt>
      <trkpt lat="44.31956" lon="5.12823">
        <ele>346.79998779297</ele>
        <time>2021-08-30T11:45:44Z</time>
      </trkpt>
      <trkpt lat="44.31953" lon="5.12852">
        <ele>347.39999389648</ele>
        <time>2021-08-30T11:45:52Z</time>
      </trkpt>
      <trkpt lat="44.31953" lon="5.12862">
        <ele>347.79998779297</ele>
        <time>2021-08-30T11:45:55Z</time>
      </trkpt>
      <trkpt lat="44.31952" lon="5.12885">
        <ele>348.60000610352</ele>
        <time>2021-08-30T11:46:01Z</time>
      </trkpt>
      <trkpt lat="44.31952" lon="5.12893">
        <ele>348.79998779297</ele>
        <time>2021-08-30T11:46:03Z</time>
      </trkpt>
      <trkpt lat="44.31949" lon="5.12918">
        <ele>349.20001220703</ele>
        <time>2021-08-30T11:46:09Z</time>
      </trkpt>
      <trkpt lat="44.31948" lon="5.12956">
        <ele>349.79998779297</ele>
        <time>2021-08-30T11:46:18Z</time>
      </trkpt>
      <trkpt lat="44.31948" lon="5.12964">
        <ele>350</ele>
        <time>2021-08-30T11:46:20Z</time>
      </trkpt>
      <trkpt lat="44.31948" lon="5.12992">
        <ele>351</ele>
        <time>2021-08-30T11:46:27Z</time>
      </trkpt>
      <trkpt lat="44.31946" lon="5.1302">
        <ele>351.79998779297</ele>
        <time>2021-08-30T11:46:34Z</time>
      </trkpt>
      <trkpt lat="44.31944" lon="5.13032">
        <ele>352.20001220703</ele>
        <time>2021-08-30T11:46:37Z</time>
      </trkpt>
      <trkpt lat="44.31941" lon="5.13048">
        <ele>352.60000610352</ele>
        <time>2021-08-30T11:46:41Z</time>
      </trkpt>
      <trkpt lat="44.31937" lon="5.13063">
        <ele>353.20001220703</ele>
        <time>2021-08-30T11:46:45Z</time>
      </trkpt>
      <trkpt lat="44.31936" lon="5.13076">
        <ele>353.79998779297</ele>
        <time>2021-08-30T11:46:48Z</time>
      </trkpt>
      <trkpt lat="44.31934" lon="5.13109">
        <ele>354.39999389648</ele>
        <time>2021-08-30T11:46:55Z</time>
      </trkpt>
      <trkpt lat="44.31933" lon="5.13119">
        <ele>354.60000610352</ele>
        <time>2021-08-30T11:46:57Z</time>
      </trkpt>
      <trkpt lat="44.31928" lon="5.13159">
        <ele>355</ele>
        <time>2021-08-30T11:47:06Z</time>
      </trkpt>
      <trkpt lat="44.31925" lon="5.13174">
        <ele>355.39999389648</ele>
        <time>2021-08-30T11:47:09Z</time>
      </trkpt>
      <trkpt lat="44.31926" lon="5.1319">
        <ele>355.39999389648</ele>
        <time>2021-08-30T11:47:12Z</time>
      </trkpt>
      <trkpt lat="44.31933" lon="5.13218">
        <ele>355.39999389648</ele>
        <time>2021-08-30T11:47:16Z</time>
      </trkpt>
      <trkpt lat="44.31941" lon="5.13239">
        <ele>354.79998779297</ele>
        <time>2021-08-30T11:47:19Z</time>
      </trkpt>
      <trkpt lat="44.3195" lon="5.13249">
        <ele>354.39999389648</ele>
        <time>2021-08-30T11:47:21Z</time>
      </trkpt>
      <trkpt lat="44.31968" lon="5.13259">
        <ele>354</ele>
        <time>2021-08-30T11:47:24Z</time>
      </trkpt>
      <trkpt lat="44.31974" lon="5.13264">
        <ele>353.79998779297</ele>
        <time>2021-08-30T11:47:25Z</time>
      </trkpt>
      <trkpt lat="44.31979" lon="5.13271">
        <ele>353.60000610352</ele>
        <time>2021-08-30T11:47:26Z</time>
      </trkpt>
      <trkpt lat="44.31984" lon="5.13289">
        <ele>353.20001220703</ele>
        <time>2021-08-30T11:47:28Z</time>
      </trkpt>
      <trkpt lat="44.31977" lon="5.133">
        <ele>352.60000610352</ele>
        <time>2021-08-30T11:47:30Z</time>
      </trkpt>
      <trkpt lat="44.31968" lon="5.13308">
        <ele>352.39999389648</ele>
        <time>2021-08-30T11:47:32Z</time>
      </trkpt>
      <trkpt lat="44.31965" lon="5.13313">
        <ele>352.39999389648</ele>
        <time>2021-08-30T11:47:33Z</time>
      </trkpt>
      <trkpt lat="44.31961" lon="5.13322">
        <ele>352.60000610352</ele>
        <time>2021-08-30T11:47:35Z</time>
      </trkpt>
      <trkpt lat="44.31957" lon="5.13336">
        <ele>352.79998779297</ele>
        <time>2021-08-30T11:47:38Z</time>
      </trkpt>
      <trkpt lat="44.31957" lon="5.13345">
        <ele>353</ele>
        <time>2021-08-30T11:47:40Z</time>
      </trkpt>
      <trkpt lat="44.31963" lon="5.13372">
        <ele>353.79998779297</ele>
        <time>2021-08-30T11:47:45Z</time>
      </trkpt>
      <trkpt lat="44.31973" lon="5.13407">
        <ele>354</ele>
        <time>2021-08-30T11:47:51Z</time>
      </trkpt>
      <trkpt lat="44.31974" lon="5.13413">
        <ele>354</ele>
        <time>2021-08-30T11:47:52Z</time>
      </trkpt>
      <trkpt lat="44.31978" lon="5.13446">
        <ele>354</ele>
        <time>2021-08-30T11:47:57Z</time>
      </trkpt>
      <trkpt lat="44.3198" lon="5.13452">
        <ele>354</ele>
        <time>2021-08-30T11:47:58Z</time>
      </trkpt>
      <trkpt lat="44.31993" lon="5.13487">
        <ele>353.60000610352</ele>
        <time>2021-08-30T11:48:03Z</time>
      </trkpt>
      <trkpt lat="44.32008" lon="5.13515">
        <ele>352.79998779297</ele>
        <time>2021-08-30T11:48:07Z</time>
      </trkpt>
      <trkpt lat="44.32019" lon="5.13522">
        <ele>352.60000610352</ele>
        <time>2021-08-30T11:48:09Z</time>
      </trkpt>
      <trkpt lat="44.32037" lon="5.13534">
        <ele>352</ele>
        <time>2021-08-30T11:48:12Z</time>
      </trkpt>
      <trkpt lat="44.32042" lon="5.13541">
        <ele>351.79998779297</ele>
        <time>2021-08-30T11:48:13Z</time>
      </trkpt>
      <trkpt lat="44.32044" lon="5.13551">
        <ele>351.60000610352</ele>
        <time>2021-08-30T11:48:14Z</time>
      </trkpt>
      <trkpt lat="44.32037" lon="5.13573">
        <ele>351</ele>
        <time>2021-08-30T11:48:17Z</time>
      </trkpt>
      <trkpt lat="44.32032" lon="5.1358">
        <ele>350.79998779297</ele>
        <time>2021-08-30T11:48:18Z</time>
      </trkpt>
      <trkpt lat="44.32029" lon="5.13586">
        <ele>350.79998779297</ele>
        <time>2021-08-30T11:48:19Z</time>
      </trkpt>
      <trkpt lat="44.32028" lon="5.136">
        <ele>350.79998779297</ele>
        <time>2021-08-30T11:48:21Z</time>
      </trkpt>
      <trkpt lat="44.32027" lon="5.13617">
        <ele>350.79998779297</ele>
        <time>2021-08-30T11:48:24Z</time>
      </trkpt>
      <trkpt lat="44.32029" lon="5.13626">
        <ele>350.79998779297</ele>
        <time>2021-08-30T11:48:26Z</time>
      </trkpt>
      <trkpt lat="44.32031" lon="5.13654">
        <ele>352</ele>
        <time>2021-08-30T11:48:33Z</time>
      </trkpt>
      <trkpt lat="44.32031" lon="5.13657">
        <ele>352.20001220703</ele>
        <time>2021-08-30T11:48:34Z</time>
      </trkpt>
      <trkpt lat="44.32031" lon="5.13669">
        <ele>353.20001220703</ele>
        <time>2021-08-30T11:48:38Z</time>
      </trkpt>
      <trkpt lat="44.32031" lon="5.13673">
        <ele>353.39999389648</ele>
        <time>2021-08-30T11:48:39Z</time>
      </trkpt>
      <trkpt lat="44.32031" lon="5.13687">
        <ele>354.20001220703</ele>
        <time>2021-08-30T11:48:43Z</time>
      </trkpt>
      <trkpt lat="44.32032" lon="5.13697">
        <ele>354.60000610352</ele>
        <time>2021-08-30T11:48:46Z</time>
      </trkpt>
      <trkpt lat="44.32034" lon="5.1371">
        <ele>355.39999389648</ele>
        <time>2021-08-30T11:48:50Z</time>
      </trkpt>
      <trkpt lat="44.32038" lon="5.1372">
        <ele>356.20001220703</ele>
        <time>2021-08-30T11:48:54Z</time>
      </trkpt>
      <trkpt lat="44.32041" lon="5.13725">
        <ele>356.39999389648</ele>
        <time>2021-08-30T11:48:56Z</time>
      </trkpt>
      <trkpt lat="44.32046" lon="5.13735">
        <ele>357</ele>
        <time>2021-08-30T11:49:00Z</time>
      </trkpt>
      <trkpt lat="44.32051" lon="5.13743">
        <ele>357.39999389648</ele>
        <time>2021-08-30T11:49:03Z</time>
      </trkpt>
      <trkpt lat="44.32055" lon="5.13756">
        <ele>358</ele>
        <time>2021-08-30T11:49:07Z</time>
      </trkpt>
      <trkpt lat="44.32056" lon="5.13774">
        <ele>358.60000610352</ele>
        <time>2021-08-30T11:49:12Z</time>
      </trkpt>
      <trkpt lat="44.32055" lon="5.1379">
        <ele>359</ele>
        <time>2021-08-30T11:49:17Z</time>
      </trkpt>
      <trkpt lat="44.32052" lon="5.13807">
        <ele>359.60000610352</ele>
        <time>2021-08-30T11:49:22Z</time>
      </trkpt>
      <trkpt lat="44.32049" lon="5.13813">
        <ele>359.79998779297</ele>
        <time>2021-08-30T11:49:24Z</time>
      </trkpt>
      <trkpt lat="44.32044" lon="5.13836">
        <ele>360.39999389648</ele>
        <time>2021-08-30T11:49:31Z</time>
      </trkpt>
      <trkpt lat="44.32042" lon="5.13842">
        <ele>360.79998779297</ele>
        <time>2021-08-30T11:49:33Z</time>
      </trkpt>
      <trkpt lat="44.32039" lon="5.13859">
        <ele>361.20001220703</ele>
        <time>2021-08-30T11:49:38Z</time>
      </trkpt>
      <trkpt lat="44.32038" lon="5.13872">
        <ele>361.79998779297</ele>
        <time>2021-08-30T11:49:42Z</time>
      </trkpt>
      <trkpt lat="44.32038" lon="5.13883">
        <ele>362.20001220703</ele>
        <time>2021-08-30T11:49:45Z</time>
      </trkpt>
      <trkpt lat="44.3204" lon="5.13895">
        <ele>363</ele>
        <time>2021-08-30T11:49:49Z</time>
      </trkpt>
      <trkpt lat="44.32043" lon="5.13903">
        <ele>363.39999389648</ele>
        <time>2021-08-30T11:49:52Z</time>
      </trkpt>
      <trkpt lat="44.32048" lon="5.13908">
        <ele>364</ele>
        <time>2021-08-30T11:49:55Z</time>
      </trkpt>
      <trkpt lat="44.32052" lon="5.13913">
        <ele>364.60000610352</ele>
        <time>2021-08-30T11:49:57Z</time>
      </trkpt>
      <trkpt lat="44.32059" lon="5.13918">
        <ele>365.20001220703</ele>
        <time>2021-08-30T11:50:00Z</time>
      </trkpt>
      <trkpt lat="44.32069" lon="5.13927">
        <ele>365.60000610352</ele>
        <time>2021-08-30T11:50:04Z</time>
      </trkpt>
      <trkpt lat="44.32088" lon="5.13944">
        <ele>366.20001220703</ele>
        <time>2021-08-30T11:50:11Z</time>
      </trkpt>
      <trkpt lat="44.32111" lon="5.13956">
        <ele>366.60000610352</ele>
        <time>2021-08-30T11:50:17Z</time>
      </trkpt>
      <trkpt lat="44.32118" lon="5.13963">
        <ele>366.60000610352</ele>
        <time>2021-08-30T11:50:19Z</time>
      </trkpt>
      <trkpt lat="44.32123" lon="5.13977">
        <ele>366.60000610352</ele>
        <time>2021-08-30T11:50:21Z</time>
      </trkpt>
      <trkpt lat="44.32121" lon="5.13998">
        <ele>366.20001220703</ele>
        <time>2021-08-30T11:50:24Z</time>
      </trkpt>
      <trkpt lat="44.32113" lon="5.1403">
        <ele>365.79998779297</ele>
        <time>2021-08-30T11:50:29Z</time>
      </trkpt>
      <trkpt lat="44.32118" lon="5.14052">
        <ele>365.79998779297</ele>
        <time>2021-08-30T11:50:32Z</time>
      </trkpt>
      <trkpt lat="44.3212" lon="5.14059">
        <ele>365.79998779297</ele>
        <time>2021-08-30T11:50:33Z</time>
      </trkpt>
      <trkpt lat="44.32136" lon="5.14105">
        <ele>365.20001220703</ele>
        <time>2021-08-30T11:50:40Z</time>
      </trkpt>
      <trkpt lat="44.32154" lon="5.14138">
        <ele>365.60000610352</ele>
        <time>2021-08-30T11:50:47Z</time>
      </trkpt>
      <trkpt lat="44.32164" lon="5.14156">
        <ele>366.20001220703</ele>
        <time>2021-08-30T11:50:52Z</time>
      </trkpt>
      <trkpt lat="44.32168" lon="5.14162">
        <ele>366.60000610352</ele>
        <time>2021-08-30T11:50:54Z</time>
      </trkpt>
      <trkpt lat="44.32178" lon="5.14173">
        <ele>367.39999389648</ele>
        <time>2021-08-30T11:50:59Z</time>
      </trkpt>
      <trkpt lat="44.32183" lon="5.14177">
        <ele>367.79998779297</ele>
        <time>2021-08-30T11:51:01Z</time>
      </trkpt>
      <trkpt lat="44.32191" lon="5.14185">
        <ele>368.60000610352</ele>
        <time>2021-08-30T11:51:05Z</time>
      </trkpt>
      <trkpt lat="44.32198" lon="5.1419">
        <ele>369.39999389648</ele>
        <time>2021-08-30T11:51:08Z</time>
      </trkpt>
      <trkpt lat="44.32201" lon="5.14191">
        <ele>369.79998779297</ele>
        <time>2021-08-30T11:51:09Z</time>
      </trkpt>
      <trkpt lat="44.32222" lon="5.14206">
        <ele>370.79998779297</ele>
        <time>2021-08-30T11:51:17Z</time>
      </trkpt>
      <trkpt lat="44.32241" lon="5.1423">
        <ele>371.79998779297</ele>
        <time>2021-08-30T11:51:26Z</time>
      </trkpt>
      <trkpt lat="44.32255" lon="5.14254">
        <ele>372.79998779297</ele>
        <time>2021-08-30T11:51:34Z</time>
      </trkpt>
      <trkpt lat="44.32256" lon="5.14258">
        <ele>373</ele>
        <time>2021-08-30T11:51:35Z</time>
      </trkpt>
      <trkpt lat="44.32267" lon="5.14279">
        <ele>374</ele>
        <time>2021-08-30T11:51:42Z</time>
      </trkpt>
      <trkpt lat="44.32276" lon="5.14299">
        <ele>375</ele>
        <time>2021-08-30T11:51:48Z</time>
      </trkpt>
      <trkpt lat="44.3228" lon="5.14309">
        <ele>375.39999389648</ele>
        <time>2021-08-30T11:51:51Z</time>
      </trkpt>
      <trkpt lat="44.32289" lon="5.14337">
        <ele>376</ele>
        <time>2021-08-30T11:51:58Z</time>
      </trkpt>
      <trkpt lat="44.32291" lon="5.14358">
        <ele>377</ele>
        <time>2021-08-30T11:52:04Z</time>
      </trkpt>
      <trkpt lat="44.32292" lon="5.14366">
        <ele>377.39999389648</ele>
        <time>2021-08-30T11:52:06Z</time>
      </trkpt>
      <trkpt lat="44.32292" lon="5.14382">
        <ele>378</ele>
        <time>2021-08-30T11:52:11Z</time>
      </trkpt>
      <trkpt lat="44.32292" lon="5.14389">
        <ele>378.39999389648</ele>
        <time>2021-08-30T11:52:13Z</time>
      </trkpt>
      <trkpt lat="44.32291" lon="5.14403">
        <ele>379.20001220703</ele>
        <time>2021-08-30T11:52:18Z</time>
      </trkpt>
      <trkpt lat="44.32292" lon="5.1441">
        <ele>379.79998779297</ele>
        <time>2021-08-30T11:52:20Z</time>
      </trkpt>
      <trkpt lat="44.32292" lon="5.14425">
        <ele>380.39999389648</ele>
        <time>2021-08-30T11:52:25Z</time>
      </trkpt>
      <trkpt lat="44.32291" lon="5.1443">
        <ele>380.79998779297</ele>
        <time>2021-08-30T11:52:27Z</time>
      </trkpt>
      <trkpt lat="44.32289" lon="5.14441">
        <ele>381.60000610352</ele>
        <time>2021-08-30T11:52:31Z</time>
      </trkpt>
      <trkpt lat="44.32287" lon="5.14451">
        <ele>382.39999389648</ele>
        <time>2021-08-30T11:52:35Z</time>
      </trkpt>
      <trkpt lat="44.32284" lon="5.14456">
        <ele>382.79998779297</ele>
        <time>2021-08-30T11:52:37Z</time>
      </trkpt>
      <trkpt lat="44.32282" lon="5.14468">
        <ele>383.60000610352</ele>
        <time>2021-08-30T11:52:42Z</time>
      </trkpt>
      <trkpt lat="44.32282" lon="5.14471">
        <ele>383.79998779297</ele>
        <time>2021-08-30T11:52:43Z</time>
      </trkpt>
      <trkpt lat="44.32283" lon="5.14483">
        <ele>385</ele>
        <time>2021-08-30T11:52:48Z</time>
      </trkpt>
      <trkpt lat="44.32284" lon="5.1449">
        <ele>385.79998779297</ele>
        <time>2021-08-30T11:52:51Z</time>
      </trkpt>
      <trkpt lat="44.32285" lon="5.14495">
        <ele>386.20001220703</ele>
        <time>2021-08-30T11:52:53Z</time>
      </trkpt>
      <trkpt lat="44.32286" lon="5.14507">
        <ele>387</ele>
        <time>2021-08-30T11:52:58Z</time>
      </trkpt>
      <trkpt lat="44.32286" lon="5.14509">
        <ele>387.20001220703</ele>
        <time>2021-08-30T11:52:59Z</time>
      </trkpt>
      <trkpt lat="44.32287" lon="5.14522">
        <ele>388.20001220703</ele>
        <time>2021-08-30T11:53:04Z</time>
      </trkpt>
      <trkpt lat="44.32287" lon="5.14533">
        <ele>389</ele>
        <time>2021-08-30T11:53:08Z</time>
      </trkpt>
      <trkpt lat="44.32287" lon="5.14535">
        <ele>389.20001220703</ele>
        <time>2021-08-30T11:53:09Z</time>
      </trkpt>
      <trkpt lat="44.32286" lon="5.14537">
        <ele>389.60000610352</ele>
        <time>2021-08-30T11:53:10Z</time>
      </trkpt>
      <trkpt lat="44.32285" lon="5.14547">
        <ele>390.20001220703</ele>
        <time>2021-08-30T11:53:14Z</time>
      </trkpt>
      <trkpt lat="44.32285" lon="5.14549">
        <ele>390.39999389648</ele>
        <time>2021-08-30T11:53:15Z</time>
      </trkpt>
      <trkpt lat="44.32285" lon="5.14552">
        <ele>390.60000610352</ele>
        <time>2021-08-30T11:53:16Z</time>
      </trkpt>
      <trkpt lat="44.32286" lon="5.14563">
        <ele>391.39999389648</ele>
        <time>2021-08-30T11:53:21Z</time>
      </trkpt>
      <trkpt lat="44.32286" lon="5.14574">
        <ele>392.39999389648</ele>
        <time>2021-08-30T11:53:26Z</time>
      </trkpt>
      <trkpt lat="44.32287" lon="5.14579">
        <ele>392.79998779297</ele>
        <time>2021-08-30T11:53:28Z</time>
      </trkpt>
      <trkpt lat="44.32286" lon="5.14585">
        <ele>393.20001220703</ele>
        <time>2021-08-30T11:53:31Z</time>
      </trkpt>
      <trkpt lat="44.32283" lon="5.14589">
        <ele>393.60000610352</ele>
        <time>2021-08-30T11:53:33Z</time>
      </trkpt>
      <trkpt lat="44.32282" lon="5.14591">
        <ele>394</ele>
        <time>2021-08-30T11:53:34Z</time>
      </trkpt>
      <trkpt lat="44.32281" lon="5.14598">
        <ele>394.60000610352</ele>
        <time>2021-08-30T11:53:37Z</time>
      </trkpt>
      <trkpt lat="44.3228" lon="5.146">
        <ele>394.79998779297</ele>
        <time>2021-08-30T11:53:38Z</time>
      </trkpt>
      <trkpt lat="44.32279" lon="5.14608">
        <ele>395.39999389648</ele>
        <time>2021-08-30T11:53:41Z</time>
      </trkpt>
      <trkpt lat="44.32277" lon="5.14618">
        <ele>395.79998779297</ele>
        <time>2021-08-30T11:53:45Z</time>
      </trkpt>
      <trkpt lat="44.32276" lon="5.14627">
        <ele>396.60000610352</ele>
        <time>2021-08-30T11:53:49Z</time>
      </trkpt>
      <trkpt lat="44.32277" lon="5.14632">
        <ele>397</ele>
        <time>2021-08-30T11:53:51Z</time>
      </trkpt>
      <trkpt lat="44.32278" lon="5.14637">
        <ele>397.39999389648</ele>
        <time>2021-08-30T11:53:53Z</time>
      </trkpt>
      <trkpt lat="44.32278" lon="5.14642">
        <ele>397.79998779297</ele>
        <time>2021-08-30T11:53:55Z</time>
      </trkpt>
      <trkpt lat="44.32278" lon="5.14648">
        <ele>398</ele>
        <time>2021-08-30T11:53:57Z</time>
      </trkpt>
      <trkpt lat="44.32278" lon="5.14659">
        <ele>398.60000610352</ele>
        <time>2021-08-30T11:54:01Z</time>
      </trkpt>
      <trkpt lat="44.32279" lon="5.14665">
        <ele>399</ele>
        <time>2021-08-30T11:54:03Z</time>
      </trkpt>
      <trkpt lat="44.32278" lon="5.14682">
        <ele>399.79998779297</ele>
        <time>2021-08-30T11:54:09Z</time>
      </trkpt>
      <trkpt lat="44.32278" lon="5.14689">
        <ele>400.20001220703</ele>
        <time>2021-08-30T11:54:11Z</time>
      </trkpt>
      <trkpt lat="44.32281" lon="5.14708">
        <ele>400.79998779297</ele>
        <time>2021-08-30T11:54:17Z</time>
      </trkpt>
      <trkpt lat="44.32284" lon="5.14724">
        <ele>401.20001220703</ele>
        <time>2021-08-30T11:54:22Z</time>
      </trkpt>
      <trkpt lat="44.32285" lon="5.14732">
        <ele>401.60000610352</ele>
        <time>2021-08-30T11:54:25Z</time>
      </trkpt>
      <trkpt lat="44.32289" lon="5.14752">
        <ele>402.39999389648</ele>
        <time>2021-08-30T11:54:32Z</time>
      </trkpt>
      <trkpt lat="44.32292" lon="5.14757">
        <ele>402.60000610352</ele>
        <time>2021-08-30T11:54:34Z</time>
      </trkpt>
      <trkpt lat="44.32299" lon="5.14769">
        <ele>403.39999389648</ele>
        <time>2021-08-30T11:54:40Z</time>
      </trkpt>
      <trkpt lat="44.32301" lon="5.14771">
        <ele>403.60000610352</ele>
        <time>2021-08-30T11:54:41Z</time>
      </trkpt>
      <trkpt lat="44.3231" lon="5.14777">
        <ele>404.60000610352</ele>
        <time>2021-08-30T11:54:46Z</time>
      </trkpt>
      <trkpt lat="44.32313" lon="5.14778">
        <ele>405</ele>
        <time>2021-08-30T11:54:48Z</time>
      </trkpt>
      <trkpt lat="44.3232" lon="5.14776">
        <ele>405.60000610352</ele>
        <time>2021-08-30T11:54:51Z</time>
      </trkpt>
      <trkpt lat="44.32333" lon="5.14774">
        <ele>406.20001220703</ele>
        <time>2021-08-30T11:54:56Z</time>
      </trkpt>
      <trkpt lat="44.32341" lon="5.14774">
        <ele>406.60000610352</ele>
        <time>2021-08-30T11:54:59Z</time>
      </trkpt>
      <trkpt lat="44.32349" lon="5.14771">
        <ele>407</ele>
        <time>2021-08-30T11:55:02Z</time>
      </trkpt>
      <trkpt lat="44.32369" lon="5.14771">
        <ele>407.79998779297</ele>
        <time>2021-08-30T11:55:08Z</time>
      </trkpt>
      <trkpt lat="44.32372" lon="5.14771">
        <ele>407.79998779297</ele>
        <time>2021-08-30T11:55:09Z</time>
      </trkpt>
      <trkpt lat="44.3239" lon="5.14775">
        <ele>408.39999389648</ele>
        <time>2021-08-30T11:55:15Z</time>
      </trkpt>
      <trkpt lat="44.32394" lon="5.14788">
        <ele>408.60000610352</ele>
        <time>2021-08-30T11:55:18Z</time>
      </trkpt>
      <trkpt lat="44.32393" lon="5.14792">
        <ele>408.60000610352</ele>
        <time>2021-08-30T11:55:19Z</time>
      </trkpt>
      <trkpt lat="44.32385" lon="5.14802">
        <ele>408.60000610352</ele>
        <time>2021-08-30T11:55:23Z</time>
      </trkpt>
      <trkpt lat="44.3238" lon="5.14804">
        <ele>408.79998779297</ele>
        <time>2021-08-30T11:55:25Z</time>
      </trkpt>
      <trkpt lat="44.32373" lon="5.1481">
        <ele>409.20001220703</ele>
        <time>2021-08-30T11:55:29Z</time>
      </trkpt>
      <trkpt lat="44.32368" lon="5.14814">
        <ele>409.79998779297</ele>
        <time>2021-08-30T11:55:32Z</time>
      </trkpt>
      <trkpt lat="44.32362" lon="5.14823">
        <ele>411</ele>
        <time>2021-08-30T11:55:37Z</time>
      </trkpt>
      <trkpt lat="44.32363" lon="5.14843">
        <ele>412.20001220703</ele>
        <time>2021-08-30T11:55:44Z</time>
      </trkpt>
      <trkpt lat="44.32373" lon="5.14878">
        <ele>413.20001220703</ele>
        <time>2021-08-30T11:55:53Z</time>
      </trkpt>
      <trkpt lat="44.32374" lon="5.14883">
        <ele>413.20001220703</ele>
        <time>2021-08-30T11:55:54Z</time>
      </trkpt>
      <trkpt lat="44.32386" lon="5.14916">
        <ele>413.60000610352</ele>
        <time>2021-08-30T11:56:01Z</time>
      </trkpt>
      <trkpt lat="44.32382" lon="5.14942">
        <ele>413.39999389648</ele>
        <time>2021-08-30T11:56:06Z</time>
      </trkpt>
      <trkpt lat="44.3237" lon="5.14992">
        <ele>413.39999389648</ele>
        <time>2021-08-30T11:56:14Z</time>
      </trkpt>
      <trkpt lat="44.32363" lon="5.15024">
        <ele>413.39999389648</ele>
        <time>2021-08-30T11:56:19Z</time>
      </trkpt>
      <trkpt lat="44.32362" lon="5.15036">
        <ele>413.39999389648</ele>
        <time>2021-08-30T11:56:21Z</time>
      </trkpt>
      <trkpt lat="44.32363" lon="5.15077">
        <ele>413.79998779297</ele>
        <time>2021-08-30T11:56:27Z</time>
      </trkpt>
      <trkpt lat="44.32377" lon="5.15139">
        <ele>413.39999389648</ele>
        <time>2021-08-30T11:56:35Z</time>
      </trkpt>
      <trkpt lat="44.32381" lon="5.15161">
        <ele>413</ele>
        <time>2021-08-30T11:56:38Z</time>
      </trkpt>
      <trkpt lat="44.32382" lon="5.15175">
        <ele>413</ele>
        <time>2021-08-30T11:56:40Z</time>
      </trkpt>
      <trkpt lat="44.3238" lon="5.15199">
        <ele>413</ele>
        <time>2021-08-30T11:56:44Z</time>
      </trkpt>
      <trkpt lat="44.32379" lon="5.15205">
        <ele>413.20001220703</ele>
        <time>2021-08-30T11:56:45Z</time>
      </trkpt>
      <trkpt lat="44.32375" lon="5.15223">
        <ele>413.79998779297</ele>
        <time>2021-08-30T11:56:48Z</time>
      </trkpt>
      <trkpt lat="44.32374" lon="5.15246">
        <ele>414.20001220703</ele>
        <time>2021-08-30T11:56:52Z</time>
      </trkpt>
      <trkpt lat="44.32383" lon="5.15265">
        <ele>414.39999389648</ele>
        <time>2021-08-30T11:56:56Z</time>
      </trkpt>
      <trkpt lat="44.32387" lon="5.15268">
        <ele>414.39999389648</ele>
        <time>2021-08-30T11:56:57Z</time>
      </trkpt>
      <trkpt lat="44.32402" lon="5.15275">
        <ele>415</ele>
        <time>2021-08-30T11:57:01Z</time>
      </trkpt>
      <trkpt lat="44.32409" lon="5.15277">
        <ele>415.39999389648</ele>
        <time>2021-08-30T11:57:03Z</time>
      </trkpt>
      <trkpt lat="44.32427" lon="5.15285">
        <ele>416.39999389648</ele>
        <time>2021-08-30T11:57:08Z</time>
      </trkpt>
      <trkpt lat="44.32431" lon="5.15289">
        <ele>416.60000610352</ele>
        <time>2021-08-30T11:57:09Z</time>
      </trkpt>
      <trkpt lat="44.3244" lon="5.15302">
        <ele>417</ele>
        <time>2021-08-30T11:57:12Z</time>
      </trkpt>
      <trkpt lat="44.32447" lon="5.15317">
        <ele>417</ele>
        <time>2021-08-30T11:57:15Z</time>
      </trkpt>
      <trkpt lat="44.32457" lon="5.15339">
        <ele>417</ele>
        <time>2021-08-30T11:57:20Z</time>
      </trkpt>
      <trkpt lat="44.3246" lon="5.15348">
        <ele>417.39999389648</ele>
        <time>2021-08-30T11:57:22Z</time>
      </trkpt>
      <trkpt lat="44.32469" lon="5.1537">
        <ele>418</ele>
        <time>2021-08-30T11:57:27Z</time>
      </trkpt>
      <trkpt lat="44.32476" lon="5.15385">
        <ele>418.39999389648</ele>
        <time>2021-08-30T11:57:31Z</time>
      </trkpt>
      <trkpt lat="44.3248" lon="5.15392">
        <ele>418.79998779297</ele>
        <time>2021-08-30T11:57:33Z</time>
      </trkpt>
      <trkpt lat="44.3249" lon="5.15407">
        <ele>419.60000610352</ele>
        <time>2021-08-30T11:57:37Z</time>
      </trkpt>
      <trkpt lat="44.32498" lon="5.15419">
        <ele>419.79998779297</ele>
        <time>2021-08-30T11:57:40Z</time>
      </trkpt>
      <trkpt lat="44.32513" lon="5.15444">
        <ele>420.39999389648</ele>
        <time>2021-08-30T11:57:47Z</time>
      </trkpt>
      <trkpt lat="44.32517" lon="5.15451">
        <ele>420.60000610352</ele>
        <time>2021-08-30T11:57:49Z</time>
      </trkpt>
      <trkpt lat="44.32526" lon="5.15469">
        <ele>421.39999389648</ele>
        <time>2021-08-30T11:57:54Z</time>
      </trkpt>
      <trkpt lat="44.32527" lon="5.15473">
        <ele>421.60000610352</ele>
        <time>2021-08-30T11:57:55Z</time>
      </trkpt>
      <trkpt lat="44.32537" lon="5.15494">
        <ele>422.39999389648</ele>
        <time>2021-08-30T11:58:00Z</time>
      </trkpt>
      <trkpt lat="44.3254" lon="5.15502">
        <ele>422.60000610352</ele>
        <time>2021-08-30T11:58:02Z</time>
      </trkpt>
      <trkpt lat="44.32545" lon="5.15515">
        <ele>423.39999389648</ele>
        <time>2021-08-30T11:58:06Z</time>
      </trkpt>
      <trkpt lat="44.32548" lon="5.15523">
        <ele>423.79998779297</ele>
        <time>2021-08-30T11:58:08Z</time>
      </trkpt>
      <trkpt lat="44.32554" lon="5.15546">
        <ele>424.79998779297</ele>
        <time>2021-08-30T11:58:13Z</time>
      </trkpt>
      <trkpt lat="44.32565" lon="5.15582">
        <ele>425.79998779297</ele>
        <time>2021-08-30T11:58:21Z</time>
      </trkpt>
      <trkpt lat="44.32573" lon="5.15613">
        <ele>427</ele>
        <time>2021-08-30T11:58:28Z</time>
      </trkpt>
      <trkpt lat="44.32573" lon="5.15617">
        <ele>427.20001220703</ele>
        <time>2021-08-30T11:58:29Z</time>
      </trkpt>
      <trkpt lat="44.32577" lon="5.15644">
        <ele>427.79998779297</ele>
        <time>2021-08-30T11:58:35Z</time>
      </trkpt>
      <trkpt lat="44.32577" lon="5.15648">
        <ele>428</ele>
        <time>2021-08-30T11:58:36Z</time>
      </trkpt>
      <trkpt lat="44.3258" lon="5.15678">
        <ele>429.20001220703</ele>
        <time>2021-08-30T11:58:43Z</time>
      </trkpt>
      <trkpt lat="44.32582" lon="5.15701">
        <ele>430.20001220703</ele>
        <time>2021-08-30T11:58:48Z</time>
      </trkpt>
      <trkpt lat="44.32583" lon="5.15706">
        <ele>430.39999389648</ele>
        <time>2021-08-30T11:58:49Z</time>
      </trkpt>
      <trkpt lat="44.32593" lon="5.15736">
        <ele>431</ele>
        <time>2021-08-30T11:58:56Z</time>
      </trkpt>
      <trkpt lat="44.32601" lon="5.15752">
        <ele>431.20001220703</ele>
        <time>2021-08-30T11:59:00Z</time>
      </trkpt>
      <trkpt lat="44.32608" lon="5.15765">
        <ele>431.39999389648</ele>
        <time>2021-08-30T11:59:03Z</time>
      </trkpt>
      <trkpt lat="44.32618" lon="5.15799">
        <ele>431.39999389648</ele>
        <time>2021-08-30T11:59:10Z</time>
      </trkpt>
      <trkpt lat="44.32622" lon="5.15831">
        <ele>432.39999389648</ele>
        <time>2021-08-30T11:59:17Z</time>
      </trkpt>
      <trkpt lat="44.32621" lon="5.1584">
        <ele>432.60000610352</ele>
        <time>2021-08-30T11:59:19Z</time>
      </trkpt>
      <trkpt lat="44.32624" lon="5.15865">
        <ele>433.60000610352</ele>
        <time>2021-08-30T11:59:25Z</time>
      </trkpt>
      <trkpt lat="44.32625" lon="5.15869">
        <ele>433.79998779297</ele>
        <time>2021-08-30T11:59:26Z</time>
      </trkpt>
      <trkpt lat="44.3263" lon="5.1589">
        <ele>434.60000610352</ele>
        <time>2021-08-30T11:59:31Z</time>
      </trkpt>
      <trkpt lat="44.32634" lon="5.15903">
        <ele>435.20001220703</ele>
        <time>2021-08-30T11:59:34Z</time>
      </trkpt>
      <trkpt lat="44.32638" lon="5.15915">
        <ele>435.60000610352</ele>
        <time>2021-08-30T11:59:37Z</time>
      </trkpt>
      <trkpt lat="44.32646" lon="5.15934">
        <ele>436.60000610352</ele>
        <time>2021-08-30T11:59:42Z</time>
      </trkpt>
      <trkpt lat="44.32648" lon="5.15937">
        <ele>436.79998779297</ele>
        <time>2021-08-30T11:59:43Z</time>
      </trkpt>
      <trkpt lat="44.32658" lon="5.15959">
        <ele>437.20001220703</ele>
        <time>2021-08-30T11:59:48Z</time>
      </trkpt>
      <trkpt lat="44.32658" lon="5.15965">
        <ele>437.39999389648</ele>
        <time>2021-08-30T11:59:49Z</time>
      </trkpt>
      <trkpt lat="44.32656" lon="5.15981">
        <ele>437.39999389648</ele>
        <time>2021-08-30T11:59:52Z</time>
      </trkpt>
      <trkpt lat="44.32655" lon="5.15985">
        <ele>437.39999389648</ele>
        <time>2021-08-30T11:59:53Z</time>
      </trkpt>
      <trkpt lat="44.32654" lon="5.16002">
        <ele>437.79998779297</ele>
        <time>2021-08-30T11:59:57Z</time>
      </trkpt>
      <trkpt lat="44.32654" lon="5.16013">
        <ele>438.79998779297</ele>
        <time>2021-08-30T12:00:00Z</time>
      </trkpt>
      <trkpt lat="44.32657" lon="5.16032">
        <ele>440</ele>
        <time>2021-08-30T12:00:05Z</time>
      </trkpt>
      <trkpt lat="44.32658" lon="5.16037">
        <ele>440.20001220703</ele>
        <time>2021-08-30T12:00:06Z</time>
      </trkpt>
      <trkpt lat="44.32666" lon="5.16085">
        <ele>441</ele>
        <time>2021-08-30T12:00:17Z</time>
      </trkpt>
      <trkpt lat="44.32666" lon="5.16089">
        <ele>441</ele>
        <time>2021-08-30T12:00:18Z</time>
      </trkpt>
      <trkpt lat="44.32664" lon="5.16116">
        <ele>441.79998779297</ele>
        <time>2021-08-30T12:00:24Z</time>
      </trkpt>
      <trkpt lat="44.32661" lon="5.16129">
        <ele>442.20001220703</ele>
        <time>2021-08-30T12:00:27Z</time>
      </trkpt>
      <trkpt lat="44.32655" lon="5.16155">
        <ele>443.39999389648</ele>
        <time>2021-08-30T12:00:33Z</time>
      </trkpt>
      <trkpt lat="44.32654" lon="5.16187">
        <ele>444</ele>
        <time>2021-08-30T12:00:40Z</time>
      </trkpt>
      <trkpt lat="44.32655" lon="5.162">
        <ele>444.39999389648</ele>
        <time>2021-08-30T12:00:43Z</time>
      </trkpt>
      <trkpt lat="44.3266" lon="5.16225">
        <ele>445.39999389648</ele>
        <time>2021-08-30T12:00:49Z</time>
      </trkpt>
      <trkpt lat="44.32661" lon="5.16229">
        <ele>445.60000610352</ele>
        <time>2021-08-30T12:00:50Z</time>
      </trkpt>
      <trkpt lat="44.32671" lon="5.16251">
        <ele>446.20001220703</ele>
        <time>2021-08-30T12:00:56Z</time>
      </trkpt>
      <trkpt lat="44.32681" lon="5.16265">
        <ele>446.79998779297</ele>
        <time>2021-08-30T12:01:00Z</time>
      </trkpt>
      <trkpt lat="44.3269" lon="5.16273">
        <ele>447</ele>
        <time>2021-08-30T12:01:03Z</time>
      </trkpt>
      <trkpt lat="44.32711" lon="5.16293">
        <ele>447.79998779297</ele>
        <time>2021-08-30T12:01:10Z</time>
      </trkpt>
      <trkpt lat="44.32734" lon="5.16312">
        <ele>448.60000610352</ele>
        <time>2021-08-30T12:01:18Z</time>
      </trkpt>
      <trkpt lat="44.32737" lon="5.16314">
        <ele>448.79998779297</ele>
        <time>2021-08-30T12:01:19Z</time>
      </trkpt>
      <trkpt lat="44.32755" lon="5.16326">
        <ele>449.39999389648</ele>
        <time>2021-08-30T12:01:25Z</time>
      </trkpt>
      <trkpt lat="44.32768" lon="5.16335">
        <ele>449.79998779297</ele>
        <time>2021-08-30T12:01:29Z</time>
      </trkpt>
      <trkpt lat="44.32778" lon="5.16343">
        <ele>450</ele>
        <time>2021-08-30T12:01:32Z</time>
      </trkpt>
      <trkpt lat="44.32804" lon="5.16364">
        <ele>450</ele>
        <time>2021-08-30T12:01:39Z</time>
      </trkpt>
      <trkpt lat="44.32827" lon="5.16387">
        <ele>450.20001220703</ele>
        <time>2021-08-30T12:01:46Z</time>
      </trkpt>
      <trkpt lat="44.32842" lon="5.16412">
        <ele>450.60000610352</ele>
        <time>2021-08-30T12:01:53Z</time>
      </trkpt>
      <trkpt lat="44.32847" lon="5.16424">
        <ele>451</ele>
        <time>2021-08-30T12:01:57Z</time>
      </trkpt>
      <trkpt lat="44.32849" lon="5.1643">
        <ele>451.39999389648</ele>
        <time>2021-08-30T12:01:59Z</time>
      </trkpt>
      <trkpt lat="44.32853" lon="5.16438">
        <ele>452</ele>
        <time>2021-08-30T12:02:02Z</time>
      </trkpt>
      <trkpt lat="44.32859" lon="5.16449">
        <ele>452.60000610352</ele>
        <time>2021-08-30T12:02:06Z</time>
      </trkpt>
      <trkpt lat="44.32864" lon="5.16456">
        <ele>453</ele>
        <time>2021-08-30T12:02:09Z</time>
      </trkpt>
      <trkpt lat="44.32869" lon="5.1646">
        <ele>453.60000610352</ele>
        <time>2021-08-30T12:02:12Z</time>
      </trkpt>
      <trkpt lat="44.32877" lon="5.16465">
        <ele>454.20001220703</ele>
        <time>2021-08-30T12:02:16Z</time>
      </trkpt>
      <trkpt lat="44.3288" lon="5.16466">
        <ele>454.39999389648</ele>
        <time>2021-08-30T12:02:18Z</time>
      </trkpt>
      <trkpt lat="44.32888" lon="5.1647">
        <ele>455.39999389648</ele>
        <time>2021-08-30T12:02:22Z</time>
      </trkpt>
      <trkpt lat="44.32892" lon="5.16473">
        <ele>456.20001220703</ele>
        <time>2021-08-30T12:02:25Z</time>
      </trkpt>
      <trkpt lat="44.32896" lon="5.16476">
        <ele>456.60000610352</ele>
        <time>2021-08-30T12:02:27Z</time>
      </trkpt>
      <trkpt lat="44.32905" lon="5.16483">
        <ele>457.79998779297</ele>
        <time>2021-08-30T12:02:33Z</time>
      </trkpt>
      <trkpt lat="44.32912" lon="5.165">
        <ele>458.60000610352</ele>
        <time>2021-08-30T12:02:40Z</time>
      </trkpt>
      <trkpt lat="44.32913" lon="5.16505">
        <ele>458.79998779297</ele>
        <time>2021-08-30T12:02:42Z</time>
      </trkpt>
      <trkpt lat="44.32916" lon="5.16515">
        <ele>459.60000610352</ele>
        <time>2021-08-30T12:02:46Z</time>
      </trkpt>
      <trkpt lat="44.32918" lon="5.1652">
        <ele>459.79998779297</ele>
        <time>2021-08-30T12:02:48Z</time>
      </trkpt>
      <trkpt lat="44.32919" lon="5.1653">
        <ele>460.39999389648</ele>
        <time>2021-08-30T12:02:52Z</time>
      </trkpt>
      <trkpt lat="44.32921" lon="5.16538">
        <ele>461</ele>
        <time>2021-08-30T12:02:55Z</time>
      </trkpt>
      <trkpt lat="44.32924" lon="5.16551">
        <ele>461.60000610352</ele>
        <time>2021-08-30T12:03:00Z</time>
      </trkpt>
      <trkpt lat="44.32927" lon="5.16559">
        <ele>462</ele>
        <time>2021-08-30T12:03:03Z</time>
      </trkpt>
      <trkpt lat="44.3293" lon="5.1657">
        <ele>462.60000610352</ele>
        <time>2021-08-30T12:03:07Z</time>
      </trkpt>
      <trkpt lat="44.32931" lon="5.16577">
        <ele>463.20001220703</ele>
        <time>2021-08-30T12:03:10Z</time>
      </trkpt>
      <trkpt lat="44.32928" lon="5.16584">
        <ele>463.79998779297</ele>
        <time>2021-08-30T12:03:13Z</time>
      </trkpt>
      <trkpt lat="44.32926" lon="5.16585">
        <ele>464</ele>
        <time>2021-08-30T12:03:14Z</time>
      </trkpt>
      <trkpt lat="44.32925" lon="5.16585">
        <ele>464.20001220703</ele>
        <time>2021-08-30T12:03:15Z</time>
      </trkpt>
      <trkpt lat="44.32917" lon="5.16579">
        <ele>465.20001220703</ele>
        <time>2021-08-30T12:03:20Z</time>
      </trkpt>
      <trkpt lat="44.32911" lon="5.16564">
        <ele>466.39999389648</ele>
        <time>2021-08-30T12:03:26Z</time>
      </trkpt>
      <trkpt lat="44.3291" lon="5.16562">
        <ele>466.39999389648</ele>
        <time>2021-08-30T12:03:27Z</time>
      </trkpt>
      <trkpt lat="44.32902" lon="5.16548">
        <ele>466.79998779297</ele>
        <time>2021-08-30T12:03:33Z</time>
      </trkpt>
      <trkpt lat="44.32894" lon="5.16546">
        <ele>467.60000610352</ele>
        <time>2021-08-30T12:03:37Z</time>
      </trkpt>
      <trkpt lat="44.32893" lon="5.16547">
        <ele>467.79998779297</ele>
        <time>2021-08-30T12:03:38Z</time>
      </trkpt>
      <trkpt lat="44.32888" lon="5.16557">
        <ele>468.60000610352</ele>
        <time>2021-08-30T12:03:43Z</time>
      </trkpt>
      <trkpt lat="44.32888" lon="5.16559">
        <ele>468.79998779297</ele>
        <time>2021-08-30T12:03:44Z</time>
      </trkpt>
      <trkpt lat="44.32892" lon="5.16574">
        <ele>469.60000610352</ele>
        <time>2021-08-30T12:03:50Z</time>
      </trkpt>
      <trkpt lat="44.32894" lon="5.16579">
        <ele>469.79998779297</ele>
        <time>2021-08-30T12:03:52Z</time>
      </trkpt>
      <trkpt lat="44.32895" lon="5.16589">
        <ele>470.60000610352</ele>
        <time>2021-08-30T12:03:56Z</time>
      </trkpt>
      <trkpt lat="44.32894" lon="5.16599">
        <ele>471.39999389648</ele>
        <time>2021-08-30T12:04:00Z</time>
      </trkpt>
      <trkpt lat="44.32894" lon="5.16602">
        <ele>471.79998779297</ele>
        <time>2021-08-30T12:04:01Z</time>
      </trkpt>
      <trkpt lat="44.32892" lon="5.16613">
        <ele>472.79998779297</ele>
        <time>2021-08-30T12:04:06Z</time>
      </trkpt>
      <trkpt lat="44.32891" lon="5.16618">
        <ele>473</ele>
        <time>2021-08-30T12:04:08Z</time>
      </trkpt>
      <trkpt lat="44.32888" lon="5.1663">
        <ele>474</ele>
        <time>2021-08-30T12:04:13Z</time>
      </trkpt>
      <trkpt lat="44.32886" lon="5.16639">
        <ele>474.79998779297</ele>
        <time>2021-08-30T12:04:17Z</time>
      </trkpt>
      <trkpt lat="44.32884" lon="5.16645">
        <ele>475</ele>
        <time>2021-08-30T12:04:19Z</time>
      </trkpt>
      <trkpt lat="44.32886" lon="5.16654">
        <ele>475.79998779297</ele>
        <time>2021-08-30T12:04:23Z</time>
      </trkpt>
      <trkpt lat="44.32895" lon="5.16661">
        <ele>476.20001220703</ele>
        <time>2021-08-30T12:04:28Z</time>
      </trkpt>
      <trkpt lat="44.32896" lon="5.16662">
        <ele>476.39999389648</ele>
        <time>2021-08-30T12:04:29Z</time>
      </trkpt>
      <trkpt lat="44.32908" lon="5.16663">
        <ele>477.39999389648</ele>
        <time>2021-08-30T12:04:35Z</time>
      </trkpt>
      <trkpt lat="44.3291" lon="5.16663">
        <ele>477.60000610352</ele>
        <time>2021-08-30T12:04:36Z</time>
      </trkpt>
      <trkpt lat="44.32916" lon="5.16669">
        <ele>478.39999389648</ele>
        <time>2021-08-30T12:04:40Z</time>
      </trkpt>
      <trkpt lat="44.32918" lon="5.16673">
        <ele>478.60000610352</ele>
        <time>2021-08-30T12:04:42Z</time>
      </trkpt>
      <trkpt lat="44.32921" lon="5.16685">
        <ele>479.39999389648</ele>
        <time>2021-08-30T12:04:47Z</time>
      </trkpt>
      <trkpt lat="44.32922" lon="5.16691">
        <ele>480.20001220703</ele>
        <time>2021-08-30T12:04:50Z</time>
      </trkpt>
      <trkpt lat="44.32923" lon="5.16693">
        <ele>480.39999389648</ele>
        <time>2021-08-30T12:04:51Z</time>
      </trkpt>
      <trkpt lat="44.32924" lon="5.16694">
        <ele>480.60000610352</ele>
        <time>2021-08-30T12:04:52Z</time>
      </trkpt>
      <trkpt lat="44.32929" lon="5.16698">
        <ele>481.20001220703</ele>
        <time>2021-08-30T12:04:55Z</time>
      </trkpt>
      <trkpt lat="44.32931" lon="5.167">
        <ele>481.60000610352</ele>
        <time>2021-08-30T12:04:57Z</time>
      </trkpt>
      <trkpt lat="44.32937" lon="5.16702">
        <ele>482.39999389648</ele>
        <time>2021-08-30T12:05:01Z</time>
      </trkpt>
      <trkpt lat="44.3294" lon="5.16704">
        <ele>482.79998779297</ele>
        <time>2021-08-30T12:05:03Z</time>
      </trkpt>
      <trkpt lat="44.32941" lon="5.16705">
        <ele>483</ele>
        <time>2021-08-30T12:05:04Z</time>
      </trkpt>
      <trkpt lat="44.32944" lon="5.16709">
        <ele>483.39999389648</ele>
        <time>2021-08-30T12:05:06Z</time>
      </trkpt>
      <trkpt lat="44.32945" lon="5.16713">
        <ele>483.79998779297</ele>
        <time>2021-08-30T12:05:08Z</time>
      </trkpt>
      <trkpt lat="44.32946" lon="5.16715">
        <ele>484</ele>
        <time>2021-08-30T12:05:09Z</time>
      </trkpt>
      <trkpt lat="44.32947" lon="5.16717">
        <ele>484</ele>
        <time>2021-08-30T12:05:10Z</time>
      </trkpt>
      <trkpt lat="44.32947" lon="5.16721">
        <ele>484.60000610352</ele>
        <time>2021-08-30T12:05:12Z</time>
      </trkpt>
      <trkpt lat="44.32947" lon="5.16726">
        <ele>485</ele>
        <time>2021-08-30T12:05:14Z</time>
      </trkpt>
      <trkpt lat="44.32946" lon="5.16736">
        <ele>486</ele>
        <time>2021-08-30T12:05:19Z</time>
      </trkpt>
      <trkpt lat="44.32946" lon="5.16739">
        <ele>486.20001220703</ele>
        <time>2021-08-30T12:05:20Z</time>
      </trkpt>
      <trkpt lat="44.32943" lon="5.16746">
        <ele>487.20001220703</ele>
        <time>2021-08-30T12:05:24Z</time>
      </trkpt>
      <trkpt lat="44.32939" lon="5.1675">
        <ele>487.79998779297</ele>
        <time>2021-08-30T12:05:27Z</time>
      </trkpt>
      <trkpt lat="44.32937" lon="5.16756">
        <ele>488.39999389648</ele>
        <time>2021-08-30T12:05:30Z</time>
      </trkpt>
      <trkpt lat="44.32936" lon="5.16762">
        <ele>489</ele>
        <time>2021-08-30T12:05:33Z</time>
      </trkpt>
      <trkpt lat="44.32935" lon="5.16766">
        <ele>489.79998779297</ele>
        <time>2021-08-30T12:05:35Z</time>
      </trkpt>
      <trkpt lat="44.32934" lon="5.16777">
        <ele>490.60000610352</ele>
        <time>2021-08-30T12:05:40Z</time>
      </trkpt>
      <trkpt lat="44.32935" lon="5.16779">
        <ele>490.79998779297</ele>
        <time>2021-08-30T12:05:41Z</time>
      </trkpt>
      <trkpt lat="44.3294" lon="5.16788">
        <ele>492</ele>
        <time>2021-08-30T12:05:47Z</time>
      </trkpt>
      <trkpt lat="44.3295" lon="5.16795">
        <ele>493.20001220703</ele>
        <time>2021-08-30T12:05:53Z</time>
      </trkpt>
      <trkpt lat="44.32951" lon="5.16795">
        <ele>493.39999389648</ele>
        <time>2021-08-30T12:05:54Z</time>
      </trkpt>
      <trkpt lat="44.3296" lon="5.16793">
        <ele>494.39999389648</ele>
        <time>2021-08-30T12:05:59Z</time>
      </trkpt>
      <trkpt lat="44.32961" lon="5.16792">
        <ele>494.39999389648</ele>
        <time>2021-08-30T12:06:00Z</time>
      </trkpt>
      <trkpt lat="44.32974" lon="5.1679">
        <ele>495.39999389648</ele>
        <time>2021-08-30T12:06:07Z</time>
      </trkpt>
      <trkpt lat="44.32976" lon="5.16789">
        <ele>495.60000610352</ele>
        <time>2021-08-30T12:06:08Z</time>
      </trkpt>
      <trkpt lat="44.32987" lon="5.16789">
        <ele>496.39999389648</ele>
        <time>2021-08-30T12:06:14Z</time>
      </trkpt>
      <trkpt lat="44.32991" lon="5.1679">
        <ele>496.60000610352</ele>
        <time>2021-08-30T12:06:16Z</time>
      </trkpt>
      <trkpt lat="44.32999" lon="5.16796">
        <ele>497.20001220703</ele>
        <time>2021-08-30T12:06:21Z</time>
      </trkpt>
      <trkpt lat="44.33004" lon="5.168">
        <ele>497.60000610352</ele>
        <time>2021-08-30T12:06:24Z</time>
      </trkpt>
      <trkpt lat="44.33012" lon="5.16807">
        <ele>498.20001220703</ele>
        <time>2021-08-30T12:06:29Z</time>
      </trkpt>
      <trkpt lat="44.33019" lon="5.16814">
        <ele>498.79998779297</ele>
        <time>2021-08-30T12:06:33Z</time>
      </trkpt>
      <trkpt lat="44.33028" lon="5.16823">
        <ele>499.20001220703</ele>
        <time>2021-08-30T12:06:38Z</time>
      </trkpt>
      <trkpt lat="44.33035" lon="5.16826">
        <ele>499.79998779297</ele>
        <time>2021-08-30T12:06:42Z</time>
      </trkpt>
      <trkpt lat="44.3304" lon="5.16827">
        <ele>500.20001220703</ele>
        <time>2021-08-30T12:06:45Z</time>
      </trkpt>
      <trkpt lat="44.33038" lon="5.16834">
        <ele>500.60000610352</ele>
        <time>2021-08-30T12:08:20Z</time>
      </trkpt>
      <trkpt lat="44.33035" lon="5.16839">
        <ele>500.60000610352</ele>
        <time>2021-08-30T12:08:22Z</time>
      </trkpt>
      <trkpt lat="44.33032" lon="5.16853">
        <ele>500.60000610352</ele>
        <time>2021-08-30T12:08:26Z</time>
      </trkpt>
      <trkpt lat="44.33031" lon="5.16858">
        <ele>500.39999389648</ele>
        <time>2021-08-30T12:08:27Z</time>
      </trkpt>
      <trkpt lat="44.33029" lon="5.16891">
        <ele>500</ele>
        <time>2021-08-30T12:08:32Z</time>
      </trkpt>
      <trkpt lat="44.3303" lon="5.16936">
        <ele>499</ele>
        <time>2021-08-30T12:08:37Z</time>
      </trkpt>
      <trkpt lat="44.3303" lon="5.16946">
        <ele>498.79998779297</ele>
        <time>2021-08-30T12:08:38Z</time>
      </trkpt>
      <trkpt lat="44.33029" lon="5.16966">
        <ele>498.20001220703</ele>
        <time>2021-08-30T12:08:40Z</time>
      </trkpt>
      <trkpt lat="44.33024" lon="5.16984">
        <ele>497.60000610352</ele>
        <time>2021-08-30T12:08:42Z</time>
      </trkpt>
      <trkpt lat="44.33009" lon="5.17008">
        <ele>496.60000610352</ele>
        <time>2021-08-30T12:08:45Z</time>
      </trkpt>
      <trkpt lat="44.33004" lon="5.17017">
        <ele>496.20001220703</ele>
        <time>2021-08-30T12:08:46Z</time>
      </trkpt>
      <trkpt lat="44.32994" lon="5.17035">
        <ele>495.20001220703</ele>
        <time>2021-08-30T12:08:48Z</time>
      </trkpt>
      <trkpt lat="44.32979" lon="5.17064">
        <ele>494.20001220703</ele>
        <time>2021-08-30T12:08:51Z</time>
      </trkpt>
      <trkpt lat="44.32974" lon="5.17074">
        <ele>493.79998779297</ele>
        <time>2021-08-30T12:08:52Z</time>
      </trkpt>
      <trkpt lat="44.32963" lon="5.17108">
        <ele>493</ele>
        <time>2021-08-30T12:08:55Z</time>
      </trkpt>
      <trkpt lat="44.32952" lon="5.17128">
        <ele>492.39999389648</ele>
        <time>2021-08-30T12:08:57Z</time>
      </trkpt>
      <trkpt lat="44.32939" lon="5.17144">
        <ele>491.60000610352</ele>
        <time>2021-08-30T12:08:59Z</time>
      </trkpt>
      <trkpt lat="44.32934" lon="5.17153">
        <ele>491</ele>
        <time>2021-08-30T12:09:00Z</time>
      </trkpt>
      <trkpt lat="44.32932" lon="5.17162">
        <ele>490.60000610352</ele>
        <time>2021-08-30T12:09:01Z</time>
      </trkpt>
      <trkpt lat="44.32936" lon="5.17178">
        <ele>489.60000610352</ele>
        <time>2021-08-30T12:09:03Z</time>
      </trkpt>
      <trkpt lat="44.32942" lon="5.17184">
        <ele>489.20001220703</ele>
        <time>2021-08-30T12:09:04Z</time>
      </trkpt>
      <trkpt lat="44.32949" lon="5.17188">
        <ele>488.79998779297</ele>
        <time>2021-08-30T12:09:05Z</time>
      </trkpt>
      <trkpt lat="44.32955" lon="5.17192">
        <ele>488.39999389648</ele>
        <time>2021-08-30T12:09:06Z</time>
      </trkpt>
      <trkpt lat="44.32968" lon="5.17196">
        <ele>488</ele>
        <time>2021-08-30T12:09:08Z</time>
      </trkpt>
      <trkpt lat="44.32981" lon="5.172">
        <ele>487.60000610352</ele>
        <time>2021-08-30T12:09:10Z</time>
      </trkpt>
      <trkpt lat="44.32986" lon="5.17203">
        <ele>487.20001220703</ele>
        <time>2021-08-30T12:09:11Z</time>
      </trkpt>
      <trkpt lat="44.33008" lon="5.17218">
        <ele>486.79998779297</ele>
        <time>2021-08-30T12:09:15Z</time>
      </trkpt>
      <trkpt lat="44.33034" lon="5.17238">
        <ele>486</ele>
        <time>2021-08-30T12:09:20Z</time>
      </trkpt>
      <trkpt lat="44.33038" lon="5.17245">
        <ele>486</ele>
        <time>2021-08-30T12:09:21Z</time>
      </trkpt>
      <trkpt lat="44.33049" lon="5.17266">
        <ele>485.60000610352</ele>
        <time>2021-08-30T12:09:24Z</time>
      </trkpt>
      <trkpt lat="44.33055" lon="5.17282">
        <ele>485.39999389648</ele>
        <time>2021-08-30T12:09:26Z</time>
      </trkpt>
      <trkpt lat="44.3306" lon="5.17299">
        <ele>484.79998779297</ele>
        <time>2021-08-30T12:09:28Z</time>
      </trkpt>
      <trkpt lat="44.33064" lon="5.17315">
        <ele>484.60000610352</ele>
        <time>2021-08-30T12:09:30Z</time>
      </trkpt>
      <trkpt lat="44.3307" lon="5.1733">
        <ele>484.20001220703</ele>
        <time>2021-08-30T12:09:32Z</time>
      </trkpt>
      <trkpt lat="44.3309" lon="5.17353">
        <ele>483.79998779297</ele>
        <time>2021-08-30T12:09:36Z</time>
      </trkpt>
      <trkpt lat="44.33096" lon="5.17356">
        <ele>483.60000610352</ele>
        <time>2021-08-30T12:09:37Z</time>
      </trkpt>
      <trkpt lat="44.33101" lon="5.1736">
        <ele>483.39999389648</ele>
        <time>2021-08-30T12:09:38Z</time>
      </trkpt>
      <trkpt lat="44.33105" lon="5.17365">
        <ele>483.20001220703</ele>
        <time>2021-08-30T12:09:39Z</time>
      </trkpt>
      <trkpt lat="44.33108" lon="5.17372">
        <ele>483.20001220703</ele>
        <time>2021-08-30T12:09:40Z</time>
      </trkpt>
      <trkpt lat="44.33126" lon="5.17419">
        <ele>482.79998779297</ele>
        <time>2021-08-30T12:09:46Z</time>
      </trkpt>
      <trkpt lat="44.33131" lon="5.17439">
        <ele>482.20001220703</ele>
        <time>2021-08-30T12:09:48Z</time>
      </trkpt>
      <trkpt lat="44.33137" lon="5.17468">
        <ele>481</ele>
        <time>2021-08-30T12:09:51Z</time>
      </trkpt>
      <trkpt lat="44.33139" lon="5.17477">
        <ele>480.60000610352</ele>
        <time>2021-08-30T12:09:52Z</time>
      </trkpt>
      <trkpt lat="44.33144" lon="5.17503">
        <ele>479.79998779297</ele>
        <time>2021-08-30T12:09:55Z</time>
      </trkpt>
      <trkpt lat="44.33149" lon="5.17536">
        <ele>479</ele>
        <time>2021-08-30T12:09:59Z</time>
      </trkpt>
      <trkpt lat="44.3315" lon="5.17553">
        <ele>478.79998779297</ele>
        <time>2021-08-30T12:10:01Z</time>
      </trkpt>
      <trkpt lat="44.33157" lon="5.17577">
        <ele>478.20001220703</ele>
        <time>2021-08-30T12:10:04Z</time>
      </trkpt>
      <trkpt lat="44.33161" lon="5.17596">
        <ele>477.79998779297</ele>
        <time>2021-08-30T12:10:06Z</time>
      </trkpt>
      <trkpt lat="44.33159" lon="5.17606">
        <ele>477.39999389648</ele>
        <time>2021-08-30T12:10:07Z</time>
      </trkpt>
      <trkpt lat="44.33147" lon="5.17633">
        <ele>476.39999389648</ele>
        <time>2021-08-30T12:10:10Z</time>
      </trkpt>
      <trkpt lat="44.33138" lon="5.17653">
        <ele>475.39999389648</ele>
        <time>2021-08-30T12:10:12Z</time>
      </trkpt>
      <trkpt lat="44.33135" lon="5.17663">
        <ele>475</ele>
        <time>2021-08-30T12:10:13Z</time>
      </trkpt>
      <trkpt lat="44.33134" lon="5.17673">
        <ele>474.60000610352</ele>
        <time>2021-08-30T12:10:14Z</time>
      </trkpt>
      <trkpt lat="44.33136" lon="5.1769">
        <ele>474</ele>
        <time>2021-08-30T12:10:16Z</time>
      </trkpt>
      <trkpt lat="44.33148" lon="5.17699">
        <ele>473.20001220703</ele>
        <time>2021-08-30T12:10:18Z</time>
      </trkpt>
      <trkpt lat="44.33154" lon="5.17701">
        <ele>473</ele>
        <time>2021-08-30T12:10:19Z</time>
      </trkpt>
      <trkpt lat="44.33176" lon="5.17703">
        <ele>472</ele>
        <time>2021-08-30T12:10:22Z</time>
      </trkpt>
      <trkpt lat="44.33183" lon="5.17701">
        <ele>471.60000610352</ele>
        <time>2021-08-30T12:10:23Z</time>
      </trkpt>
      <trkpt lat="44.33191" lon="5.17699">
        <ele>471.39999389648</ele>
        <time>2021-08-30T12:10:24Z</time>
      </trkpt>
      <trkpt lat="44.33214" lon="5.17696">
        <ele>470.79998779297</ele>
        <time>2021-08-30T12:10:27Z</time>
      </trkpt>
      <trkpt lat="44.33222" lon="5.17695">
        <ele>470.39999389648</ele>
        <time>2021-08-30T12:10:28Z</time>
      </trkpt>
      <trkpt lat="44.33253" lon="5.17688">
        <ele>469.20001220703</ele>
        <time>2021-08-30T12:10:32Z</time>
      </trkpt>
      <trkpt lat="44.33277" lon="5.17684">
        <ele>468.20001220703</ele>
        <time>2021-08-30T12:10:35Z</time>
      </trkpt>
      <trkpt lat="44.33285" lon="5.17683">
        <ele>468</ele>
        <time>2021-08-30T12:10:36Z</time>
      </trkpt>
      <trkpt lat="44.33317" lon="5.17683">
        <ele>466.79998779297</ele>
        <time>2021-08-30T12:10:40Z</time>
      </trkpt>
      <trkpt lat="44.33325" lon="5.17683">
        <ele>466.60000610352</ele>
        <time>2021-08-30T12:10:41Z</time>
      </trkpt>
      <trkpt lat="44.33347" lon="5.17689">
        <ele>465.60000610352</ele>
        <time>2021-08-30T12:10:44Z</time>
      </trkpt>
      <trkpt lat="44.33354" lon="5.17694">
        <ele>465.20001220703</ele>
        <time>2021-08-30T12:10:45Z</time>
      </trkpt>
      <trkpt lat="44.33369" lon="5.17702">
        <ele>464</ele>
        <time>2021-08-30T12:10:47Z</time>
      </trkpt>
      <trkpt lat="44.33385" lon="5.17705">
        <ele>463.20001220703</ele>
        <time>2021-08-30T12:10:49Z</time>
      </trkpt>
      <trkpt lat="44.33392" lon="5.17705">
        <ele>463</ele>
        <time>2021-08-30T12:10:50Z</time>
      </trkpt>
      <trkpt lat="44.33406" lon="5.177">
        <ele>462.39999389648</ele>
        <time>2021-08-30T12:10:52Z</time>
      </trkpt>
      <trkpt lat="44.33428" lon="5.17694">
        <ele>461.79998779297</ele>
        <time>2021-08-30T12:10:55Z</time>
      </trkpt>
      <trkpt lat="44.33457" lon="5.17691">
        <ele>461.20001220703</ele>
        <time>2021-08-30T12:10:59Z</time>
      </trkpt>
      <trkpt lat="44.33471" lon="5.17692">
        <ele>460.60000610352</ele>
        <time>2021-08-30T12:11:01Z</time>
      </trkpt>
      <trkpt lat="44.33491" lon="5.177">
        <ele>460</ele>
        <time>2021-08-30T12:11:04Z</time>
      </trkpt>
      <trkpt lat="44.33502" lon="5.17711">
        <ele>459.39999389648</ele>
        <time>2021-08-30T12:11:06Z</time>
      </trkpt>
      <trkpt lat="44.33512" lon="5.17725">
        <ele>459</ele>
        <time>2021-08-30T12:11:08Z</time>
      </trkpt>
      <trkpt lat="44.33527" lon="5.17746">
        <ele>458</ele>
        <time>2021-08-30T12:11:11Z</time>
      </trkpt>
      <trkpt lat="44.33541" lon="5.1775">
        <ele>457.39999389648</ele>
        <time>2021-08-30T12:11:13Z</time>
      </trkpt>
      <trkpt lat="44.33548" lon="5.17747">
        <ele>457</ele>
        <time>2021-08-30T12:11:14Z</time>
      </trkpt>
      <trkpt lat="44.33555" lon="5.17744">
        <ele>456.60000610352</ele>
        <time>2021-08-30T12:11:15Z</time>
      </trkpt>
      <trkpt lat="44.3356" lon="5.17741">
        <ele>456</ele>
        <time>2021-08-30T12:11:16Z</time>
      </trkpt>
      <trkpt lat="44.33565" lon="5.17739">
        <ele>455.60000610352</ele>
        <time>2021-08-30T12:11:17Z</time>
      </trkpt>
      <trkpt lat="44.33578" lon="5.17734">
        <ele>454.79998779297</ele>
        <time>2021-08-30T12:11:20Z</time>
      </trkpt>
      <trkpt lat="44.33583" lon="5.17733">
        <ele>454.39999389648</ele>
        <time>2021-08-30T12:11:21Z</time>
      </trkpt>
      <trkpt lat="44.33607" lon="5.17722">
        <ele>453.39999389648</ele>
        <time>2021-08-30T12:11:25Z</time>
      </trkpt>
      <trkpt lat="44.33634" lon="5.17709">
        <ele>452.20001220703</ele>
        <time>2021-08-30T12:11:29Z</time>
      </trkpt>
      <trkpt lat="44.33647" lon="5.17702">
        <ele>451.39999389648</ele>
        <time>2021-08-30T12:11:31Z</time>
      </trkpt>
      <trkpt lat="44.3366" lon="5.17698">
        <ele>451</ele>
        <time>2021-08-30T12:11:33Z</time>
      </trkpt>
      <trkpt lat="44.33672" lon="5.17693">
        <ele>450.20001220703</ele>
        <time>2021-08-30T12:11:35Z</time>
      </trkpt>
      <trkpt lat="44.33685" lon="5.17689">
        <ele>450</ele>
        <time>2021-08-30T12:11:37Z</time>
      </trkpt>
      <trkpt lat="44.33692" lon="5.17686">
        <ele>449.79998779297</ele>
        <time>2021-08-30T12:11:38Z</time>
      </trkpt>
      <trkpt lat="44.33739" lon="5.17674">
        <ele>448.79998779297</ele>
        <time>2021-08-30T12:11:45Z</time>
      </trkpt>
      <trkpt lat="44.33781" lon="5.1767">
        <ele>447.79998779297</ele>
        <time>2021-08-30T12:11:51Z</time>
      </trkpt>
      <trkpt lat="44.33788" lon="5.17671">
        <ele>447.60000610352</ele>
        <time>2021-08-30T12:11:52Z</time>
      </trkpt>
      <trkpt lat="44.33796" lon="5.17673">
        <ele>447.20001220703</ele>
        <time>2021-08-30T12:11:53Z</time>
      </trkpt>
      <trkpt lat="44.33811" lon="5.17678">
        <ele>446.60000610352</ele>
        <time>2021-08-30T12:11:55Z</time>
      </trkpt>
      <trkpt lat="44.33842" lon="5.17691">
        <ele>445</ele>
        <time>2021-08-30T12:11:59Z</time>
      </trkpt>
      <trkpt lat="44.33867" lon="5.17701">
        <ele>443.79998779297</ele>
        <time>2021-08-30T12:12:02Z</time>
      </trkpt>
      <trkpt lat="44.33883" lon="5.17711">
        <ele>443.20001220703</ele>
        <time>2021-08-30T12:12:04Z</time>
      </trkpt>
      <trkpt lat="44.33891" lon="5.17716">
        <ele>442.79998779297</ele>
        <time>2021-08-30T12:12:05Z</time>
      </trkpt>
      <trkpt lat="44.33899" lon="5.17721">
        <ele>442.39999389648</ele>
        <time>2021-08-30T12:12:06Z</time>
      </trkpt>
      <trkpt lat="44.33917" lon="5.17725">
        <ele>441.60000610352</ele>
        <time>2021-08-30T12:12:08Z</time>
      </trkpt>
      <trkpt lat="44.33935" lon="5.17725">
        <ele>440.60000610352</ele>
        <time>2021-08-30T12:12:10Z</time>
      </trkpt>
      <trkpt lat="44.33952" lon="5.17721">
        <ele>439.79998779297</ele>
        <time>2021-08-30T12:12:12Z</time>
      </trkpt>
      <trkpt lat="44.33961" lon="5.17719">
        <ele>439.39999389648</ele>
        <time>2021-08-30T12:12:13Z</time>
      </trkpt>
      <trkpt lat="44.33994" lon="5.17712">
        <ele>438.20001220703</ele>
        <time>2021-08-30T12:12:17Z</time>
      </trkpt>
      <trkpt lat="44.34002" lon="5.17709">
        <ele>438</ele>
        <time>2021-08-30T12:12:18Z</time>
      </trkpt>
      <trkpt lat="44.3401" lon="5.17706">
        <ele>437.60000610352</ele>
        <time>2021-08-30T12:12:19Z</time>
      </trkpt>
      <trkpt lat="44.34017" lon="5.17705">
        <ele>437.39999389648</ele>
        <time>2021-08-30T12:12:20Z</time>
      </trkpt>
      <trkpt lat="44.34024" lon="5.17704">
        <ele>437.20001220703</ele>
        <time>2021-08-30T12:12:21Z</time>
      </trkpt>
      <trkpt lat="44.34039" lon="5.17707">
        <ele>436.39999389648</ele>
        <time>2021-08-30T12:12:23Z</time>
      </trkpt>
      <trkpt lat="44.34046" lon="5.17709">
        <ele>436.20001220703</ele>
        <time>2021-08-30T12:12:24Z</time>
      </trkpt>
      <trkpt lat="44.34053" lon="5.17708">
        <ele>436</ele>
        <time>2021-08-30T12:12:25Z</time>
      </trkpt>
      <trkpt lat="44.34067" lon="5.177">
        <ele>435.60000610352</ele>
        <time>2021-08-30T12:12:27Z</time>
      </trkpt>
      <trkpt lat="44.34085" lon="5.17689">
        <ele>435</ele>
        <time>2021-08-30T12:12:30Z</time>
      </trkpt>
      <trkpt lat="44.34098" lon="5.17687">
        <ele>434.60000610352</ele>
        <time>2021-08-30T12:12:32Z</time>
      </trkpt>
      <trkpt lat="44.34112" lon="5.17689">
        <ele>434.39999389648</ele>
        <time>2021-08-30T12:12:34Z</time>
      </trkpt>
      <trkpt lat="44.34133" lon="5.17689">
        <ele>434</ele>
        <time>2021-08-30T12:12:37Z</time>
      </trkpt>
      <trkpt lat="44.34183" lon="5.17688">
        <ele>432.79998779297</ele>
        <time>2021-08-30T12:12:44Z</time>
      </trkpt>
      <trkpt lat="44.3419" lon="5.17689">
        <ele>432.60000610352</ele>
        <time>2021-08-30T12:12:45Z</time>
      </trkpt>
      <trkpt lat="44.3422" lon="5.17695">
        <ele>431.79998779297</ele>
        <time>2021-08-30T12:12:49Z</time>
      </trkpt>
      <trkpt lat="44.34235" lon="5.17695">
        <ele>431.39999389648</ele>
        <time>2021-08-30T12:12:51Z</time>
      </trkpt>
      <trkpt lat="44.34256" lon="5.17689">
        <ele>430.60000610352</ele>
        <time>2021-08-30T12:12:54Z</time>
      </trkpt>
      <trkpt lat="44.34263" lon="5.17684">
        <ele>430.20001220703</ele>
        <time>2021-08-30T12:12:55Z</time>
      </trkpt>
      <trkpt lat="44.34289" lon="5.1766">
        <ele>429.39999389648</ele>
        <time>2021-08-30T12:12:59Z</time>
      </trkpt>
      <trkpt lat="44.34295" lon="5.17654">
        <ele>429.20001220703</ele>
        <time>2021-08-30T12:13:00Z</time>
      </trkpt>
      <trkpt lat="44.34302" lon="5.17648">
        <ele>429</ele>
        <time>2021-08-30T12:13:01Z</time>
      </trkpt>
      <trkpt lat="44.34309" lon="5.17644">
        <ele>428.60000610352</ele>
        <time>2021-08-30T12:13:02Z</time>
      </trkpt>
      <trkpt lat="44.34316" lon="5.17641">
        <ele>428.39999389648</ele>
        <time>2021-08-30T12:13:03Z</time>
      </trkpt>
      <trkpt lat="44.34324" lon="5.17639">
        <ele>428</ele>
        <time>2021-08-30T12:13:04Z</time>
      </trkpt>
      <trkpt lat="44.34347" lon="5.17634">
        <ele>427.20001220703</ele>
        <time>2021-08-30T12:13:07Z</time>
      </trkpt>
      <trkpt lat="44.34363" lon="5.1763">
        <ele>426.39999389648</ele>
        <time>2021-08-30T12:13:09Z</time>
      </trkpt>
      <trkpt lat="44.3437" lon="5.17628">
        <ele>426</ele>
        <time>2021-08-30T12:13:10Z</time>
      </trkpt>
      <trkpt lat="44.34386" lon="5.17624">
        <ele>425</ele>
        <time>2021-08-30T12:13:12Z</time>
      </trkpt>
      <trkpt lat="44.34402" lon="5.17625">
        <ele>424.39999389648</ele>
        <time>2021-08-30T12:13:14Z</time>
      </trkpt>
      <trkpt lat="44.34409" lon="5.17628">
        <ele>424.20001220703</ele>
        <time>2021-08-30T12:13:15Z</time>
      </trkpt>
      <trkpt lat="44.34423" lon="5.17637">
        <ele>423.79998779297</ele>
        <time>2021-08-30T12:13:17Z</time>
      </trkpt>
      <trkpt lat="44.3443" lon="5.1764">
        <ele>423.60000610352</ele>
        <time>2021-08-30T12:13:18Z</time>
      </trkpt>
      <trkpt lat="44.34438" lon="5.17641">
        <ele>423.39999389648</ele>
        <time>2021-08-30T12:13:19Z</time>
      </trkpt>
      <trkpt lat="44.34454" lon="5.17644">
        <ele>423.20001220703</ele>
        <time>2021-08-30T12:13:21Z</time>
      </trkpt>
      <trkpt lat="44.34468" lon="5.17653">
        <ele>422.60000610352</ele>
        <time>2021-08-30T12:13:23Z</time>
      </trkpt>
      <trkpt lat="44.34488" lon="5.17675">
        <ele>421.79998779297</ele>
        <time>2021-08-30T12:13:26Z</time>
      </trkpt>
      <trkpt lat="44.34495" lon="5.17681">
        <ele>421.60000610352</ele>
        <time>2021-08-30T12:13:27Z</time>
      </trkpt>
      <trkpt lat="44.34519" lon="5.17684">
        <ele>420.79998779297</ele>
        <time>2021-08-30T12:13:30Z</time>
      </trkpt>
      <trkpt lat="44.34527" lon="5.17682">
        <ele>420.39999389648</ele>
        <time>2021-08-30T12:13:31Z</time>
      </trkpt>
      <trkpt lat="44.34534" lon="5.17679">
        <ele>420.20001220703</ele>
        <time>2021-08-30T12:13:32Z</time>
      </trkpt>
      <trkpt lat="44.34548" lon="5.17673">
        <ele>419.79998779297</ele>
        <time>2021-08-30T12:13:34Z</time>
      </trkpt>
      <trkpt lat="44.34561" lon="5.17666">
        <ele>419.39999389648</ele>
        <time>2021-08-30T12:13:36Z</time>
      </trkpt>
      <trkpt lat="44.34588" lon="5.17658">
        <ele>419</ele>
        <time>2021-08-30T12:13:40Z</time>
      </trkpt>
      <trkpt lat="44.34633" lon="5.1765">
        <ele>418.79998779297</ele>
        <time>2021-08-30T12:13:47Z</time>
      </trkpt>
      <trkpt lat="44.34676" lon="5.17647">
        <ele>418.60000610352</ele>
        <time>2021-08-30T12:13:54Z</time>
      </trkpt>
      <trkpt lat="44.34704" lon="5.17641">
        <ele>418.60000610352</ele>
        <time>2021-08-30T12:13:59Z</time>
      </trkpt>
      <trkpt lat="44.34724" lon="5.17639">
        <ele>418.39999389648</ele>
        <time>2021-08-30T12:14:03Z</time>
      </trkpt>
      <trkpt lat="44.34728" lon="5.17639">
        <ele>418.20001220703</ele>
        <time>2021-08-30T12:14:04Z</time>
      </trkpt>
      <trkpt lat="44.34735" lon="5.17637">
        <ele>417.60000610352</ele>
        <time>2021-08-30T12:14:08Z</time>
      </trkpt>
      <trkpt lat="44.34735" lon="5.17636">
        <ele>417.20001220703</ele>
        <time>2021-08-30T12:14:10Z</time>
      </trkpt>
      <trkpt lat="44.34734" lon="5.17635">
        <ele>417.20001220703</ele>
        <time>2021-08-30T12:14:11Z</time>
      </trkpt>
      <trkpt lat="44.34732" lon="5.17636">
        <ele>417</ele>
        <time>2021-08-30T12:14:12Z</time>
      </trkpt>
      <trkpt lat="44.34723" lon="5.17638">
        <ele>416.60000610352</ele>
        <time>2021-08-30T12:14:18Z</time>
      </trkpt>
      <trkpt lat="44.34721" lon="5.17639">
        <ele>416.60000610352</ele>
        <time>2021-08-30T12:14:19Z</time>
      </trkpt>
      <trkpt lat="44.34706" lon="5.17642">
        <ele>416.79998779297</ele>
        <time>2021-08-30T12:14:25Z</time>
      </trkpt>
      <trkpt lat="44.3469" lon="5.17644">
        <ele>417</ele>
        <time>2021-08-30T12:14:32Z</time>
      </trkpt>
      <trkpt lat="44.34674" lon="5.17646">
        <ele>417.20001220703</ele>
        <time>2021-08-30T12:14:40Z</time>
      </trkpt>
      <trkpt lat="44.34679" lon="5.17646">
        <ele>417.39999389648</ele>
        <time>2021-08-30T12:15:35Z</time>
      </trkpt>
      <trkpt lat="44.34692" lon="5.17644">
        <ele>417.39999389648</ele>
        <time>2021-08-30T12:15:40Z</time>
      </trkpt>
      <trkpt lat="44.34712" lon="5.17639">
        <ele>417.60000610352</ele>
        <time>2021-08-30T12:15:46Z</time>
      </trkpt>
      <trkpt lat="44.34731" lon="5.17635">
        <ele>417.60000610352</ele>
        <time>2021-08-30T12:15:52Z</time>
      </trkpt>
      <trkpt lat="44.34751" lon="5.17633">
        <ele>417.20001220703</ele>
        <time>2021-08-30T12:15:57Z</time>
      </trkpt>
      <trkpt lat="44.34756" lon="5.17633">
        <ele>417.20001220703</ele>
        <time>2021-08-30T12:15:58Z</time>
      </trkpt>
      <trkpt lat="44.34783" lon="5.17637">
        <ele>416.79998779297</ele>
        <time>2021-08-30T12:16:03Z</time>
      </trkpt>
      <trkpt lat="44.34802" lon="5.1764">
        <ele>416</ele>
        <time>2021-08-30T12:16:06Z</time>
      </trkpt>
      <trkpt lat="44.34831" lon="5.17645">
        <ele>414.79998779297</ele>
        <time>2021-08-30T12:16:10Z</time>
      </trkpt>
      <trkpt lat="44.34854" lon="5.17652">
        <ele>413.60000610352</ele>
        <time>2021-08-30T12:16:13Z</time>
      </trkpt>
      <trkpt lat="44.34878" lon="5.17662">
        <ele>412.20001220703</ele>
        <time>2021-08-30T12:16:16Z</time>
      </trkpt>
      <trkpt lat="44.34902" lon="5.17676">
        <ele>410.79998779297</ele>
        <time>2021-08-30T12:16:19Z</time>
      </trkpt>
      <trkpt lat="44.34926" lon="5.1769">
        <ele>409.60000610352</ele>
        <time>2021-08-30T12:16:22Z</time>
      </trkpt>
      <trkpt lat="44.34934" lon="5.17694">
        <ele>409.20001220703</ele>
        <time>2021-08-30T12:16:23Z</time>
      </trkpt>
      <trkpt lat="44.34952" lon="5.17702">
        <ele>408.20001220703</ele>
        <time>2021-08-30T12:16:25Z</time>
      </trkpt>
      <trkpt lat="44.34979" lon="5.17707">
        <ele>406.79998779297</ele>
        <time>2021-08-30T12:16:28Z</time>
      </trkpt>
      <trkpt lat="44.34998" lon="5.177">
        <ele>405.60000610352</ele>
        <time>2021-08-30T12:16:30Z</time>
      </trkpt>
      <trkpt lat="44.35007" lon="5.17696">
        <ele>405.20001220703</ele>
        <time>2021-08-30T12:16:31Z</time>
      </trkpt>
      <trkpt lat="44.35026" lon="5.17689">
        <ele>404.20001220703</ele>
        <time>2021-08-30T12:16:33Z</time>
      </trkpt>
      <trkpt lat="44.35044" lon="5.17682">
        <ele>403.20001220703</ele>
        <time>2021-08-30T12:16:35Z</time>
      </trkpt>
      <trkpt lat="44.35072" lon="5.17669">
        <ele>401.79998779297</ele>
        <time>2021-08-30T12:16:38Z</time>
      </trkpt>
      <trkpt lat="44.35091" lon="5.17662">
        <ele>400.79998779297</ele>
        <time>2021-08-30T12:16:40Z</time>
      </trkpt>
      <trkpt lat="44.35109" lon="5.17655">
        <ele>399.39999389648</ele>
        <time>2021-08-30T12:16:42Z</time>
      </trkpt>
      <trkpt lat="44.35126" lon="5.17649">
        <ele>398.39999389648</ele>
        <time>2021-08-30T12:16:44Z</time>
      </trkpt>
      <trkpt lat="44.35135" lon="5.17649">
        <ele>397.79998779297</ele>
        <time>2021-08-30T12:16:45Z</time>
      </trkpt>
      <trkpt lat="44.35152" lon="5.17653">
        <ele>397</ele>
        <time>2021-08-30T12:16:47Z</time>
      </trkpt>
      <trkpt lat="44.3516" lon="5.17656">
        <ele>396.60000610352</ele>
        <time>2021-08-30T12:16:48Z</time>
      </trkpt>
      <trkpt lat="44.35175" lon="5.17663">
        <ele>395.79998779297</ele>
        <time>2021-08-30T12:16:50Z</time>
      </trkpt>
      <trkpt lat="44.35196" lon="5.17672">
        <ele>394.79998779297</ele>
        <time>2021-08-30T12:16:53Z</time>
      </trkpt>
      <trkpt lat="44.3521" lon="5.17678">
        <ele>394.20001220703</ele>
        <time>2021-08-30T12:16:55Z</time>
      </trkpt>
      <trkpt lat="44.3523" lon="5.17685">
        <ele>393.79998779297</ele>
        <time>2021-08-30T12:16:58Z</time>
      </trkpt>
      <trkpt lat="44.35247" lon="5.1769">
        <ele>393.60000610352</ele>
        <time>2021-08-30T12:17:01Z</time>
      </trkpt>
      <trkpt lat="44.35293" lon="5.17696">
        <ele>394</ele>
        <time>2021-08-30T12:17:09Z</time>
      </trkpt>
      <trkpt lat="44.3532" lon="5.17694">
        <ele>394.60000610352</ele>
        <time>2021-08-30T12:17:15Z</time>
      </trkpt>
      <trkpt lat="44.35324" lon="5.17694">
        <ele>394.79998779297</ele>
        <time>2021-08-30T12:17:16Z</time>
      </trkpt>
      <trkpt lat="44.35358" lon="5.17695">
        <ele>395.39999389648</ele>
        <time>2021-08-30T12:17:24Z</time>
      </trkpt>
      <trkpt lat="44.35391" lon="5.17704">
        <ele>395.79998779297</ele>
        <time>2021-08-30T12:17:32Z</time>
      </trkpt>
      <trkpt lat="44.35402" lon="5.1771">
        <ele>395.79998779297</ele>
        <time>2021-08-30T12:17:35Z</time>
      </trkpt>
      <trkpt lat="44.35414" lon="5.1772">
        <ele>395.60000610352</ele>
        <time>2021-08-30T12:17:38Z</time>
      </trkpt>
      <trkpt lat="44.35428" lon="5.17741">
        <ele>395.39999389648</ele>
        <time>2021-08-30T12:17:42Z</time>
      </trkpt>
      <trkpt lat="44.35432" lon="5.17747">
        <ele>395.20001220703</ele>
        <time>2021-08-30T12:17:43Z</time>
      </trkpt>
      <trkpt lat="44.35437" lon="5.17753">
        <ele>395</ele>
        <time>2021-08-30T12:17:44Z</time>
      </trkpt>
      <trkpt lat="44.35443" lon="5.17757">
        <ele>394.79998779297</ele>
        <time>2021-08-30T12:17:45Z</time>
      </trkpt>
      <trkpt lat="44.3545" lon="5.17759">
        <ele>394.39999389648</ele>
        <time>2021-08-30T12:17:46Z</time>
      </trkpt>
      <trkpt lat="44.35464" lon="5.1776">
        <ele>393.60000610352</ele>
        <time>2021-08-30T12:17:48Z</time>
      </trkpt>
      <trkpt lat="44.35472" lon="5.17759">
        <ele>393.20001220703</ele>
        <time>2021-08-30T12:17:49Z</time>
      </trkpt>
      <trkpt lat="44.3548" lon="5.17758">
        <ele>392.79998779297</ele>
        <time>2021-08-30T12:17:50Z</time>
      </trkpt>
      <trkpt lat="44.35495" lon="5.17757">
        <ele>392.39999389648</ele>
        <time>2021-08-30T12:17:52Z</time>
      </trkpt>
      <trkpt lat="44.35512" lon="5.17758">
        <ele>391.39999389648</ele>
        <time>2021-08-30T12:17:55Z</time>
      </trkpt>
      <trkpt lat="44.35518" lon="5.1776">
        <ele>391.20001220703</ele>
        <time>2021-08-30T12:17:56Z</time>
      </trkpt>
      <trkpt lat="44.35544" lon="5.17765">
        <ele>391</ele>
        <time>2021-08-30T12:18:00Z</time>
      </trkpt>
      <trkpt lat="44.35563" lon="5.17765">
        <ele>390.39999389648</ele>
        <time>2021-08-30T12:18:03Z</time>
      </trkpt>
      <trkpt lat="44.35569" lon="5.17764">
        <ele>390</ele>
        <time>2021-08-30T12:18:04Z</time>
      </trkpt>
      <trkpt lat="44.35575" lon="5.17762">
        <ele>389.79998779297</ele>
        <time>2021-08-30T12:18:05Z</time>
      </trkpt>
      <trkpt lat="44.35592" lon="5.17755">
        <ele>389.60000610352</ele>
        <time>2021-08-30T12:18:08Z</time>
      </trkpt>
      <trkpt lat="44.35608" lon="5.1774">
        <ele>389</ele>
        <time>2021-08-30T12:18:11Z</time>
      </trkpt>
      <trkpt lat="44.35614" lon="5.17735">
        <ele>388.79998779297</ele>
        <time>2021-08-30T12:18:12Z</time>
      </trkpt>
      <trkpt lat="44.35641" lon="5.17712">
        <ele>387.79998779297</ele>
        <time>2021-08-30T12:18:16Z</time>
      </trkpt>
      <trkpt lat="44.35649" lon="5.17709">
        <ele>387.39999389648</ele>
        <time>2021-08-30T12:18:17Z</time>
      </trkpt>
      <trkpt lat="44.35665" lon="5.17712">
        <ele>386.60000610352</ele>
        <time>2021-08-30T12:18:19Z</time>
      </trkpt>
      <trkpt lat="44.35682" lon="5.1772">
        <ele>385.79998779297</ele>
        <time>2021-08-30T12:18:21Z</time>
      </trkpt>
      <trkpt lat="44.35689" lon="5.17726">
        <ele>385.39999389648</ele>
        <time>2021-08-30T12:18:22Z</time>
      </trkpt>
      <trkpt lat="44.35697" lon="5.17734">
        <ele>385</ele>
        <time>2021-08-30T12:18:23Z</time>
      </trkpt>
      <trkpt lat="44.35704" lon="5.17741">
        <ele>384.20001220703</ele>
        <time>2021-08-30T12:18:24Z</time>
      </trkpt>
      <trkpt lat="44.35713" lon="5.17746">
        <ele>383</ele>
        <time>2021-08-30T12:18:25Z</time>
      </trkpt>
      <trkpt lat="44.3573" lon="5.17749">
        <ele>381.79998779297</ele>
        <time>2021-08-30T12:18:27Z</time>
      </trkpt>
      <trkpt lat="44.35755" lon="5.17747">
        <ele>380.39999389648</ele>
        <time>2021-08-30T12:18:30Z</time>
      </trkpt>
      <trkpt lat="44.35779" lon="5.17743">
        <ele>379.39999389648</ele>
        <time>2021-08-30T12:18:33Z</time>
      </trkpt>
      <trkpt lat="44.35787" lon="5.17742">
        <ele>379.20001220703</ele>
        <time>2021-08-30T12:18:34Z</time>
      </trkpt>
      <trkpt lat="44.35802" lon="5.17744">
        <ele>378.60000610352</ele>
        <time>2021-08-30T12:18:36Z</time>
      </trkpt>
      <trkpt lat="44.3581" lon="5.17744">
        <ele>378.20001220703</ele>
        <time>2021-08-30T12:18:37Z</time>
      </trkpt>
      <trkpt lat="44.35818" lon="5.17743">
        <ele>378</ele>
        <time>2021-08-30T12:18:38Z</time>
      </trkpt>
      <trkpt lat="44.35832" lon="5.17734">
        <ele>377.39999389648</ele>
        <time>2021-08-30T12:18:40Z</time>
      </trkpt>
      <trkpt lat="44.35839" lon="5.17729">
        <ele>377.20001220703</ele>
        <time>2021-08-30T12:18:41Z</time>
      </trkpt>
      <trkpt lat="44.35846" lon="5.17724">
        <ele>377</ele>
        <time>2021-08-30T12:18:42Z</time>
      </trkpt>
      <trkpt lat="44.35861" lon="5.17718">
        <ele>376.39999389648</ele>
        <time>2021-08-30T12:18:44Z</time>
      </trkpt>
      <trkpt lat="44.35869" lon="5.17718">
        <ele>376.20001220703</ele>
        <time>2021-08-30T12:18:45Z</time>
      </trkpt>
      <trkpt lat="44.35877" lon="5.17718">
        <ele>375.79998779297</ele>
        <time>2021-08-30T12:18:46Z</time>
      </trkpt>
      <trkpt lat="44.35899" lon="5.1772">
        <ele>374.60000610352</ele>
        <time>2021-08-30T12:18:49Z</time>
      </trkpt>
      <trkpt lat="44.35913" lon="5.17725">
        <ele>374.20001220703</ele>
        <time>2021-08-30T12:18:51Z</time>
      </trkpt>
      <trkpt lat="44.35934" lon="5.17738">
        <ele>373.39999389648</ele>
        <time>2021-08-30T12:18:54Z</time>
      </trkpt>
      <trkpt lat="44.35947" lon="5.17749">
        <ele>372.79998779297</ele>
        <time>2021-08-30T12:18:56Z</time>
      </trkpt>
      <trkpt lat="44.35959" lon="5.17762">
        <ele>372.20001220703</ele>
        <time>2021-08-30T12:18:58Z</time>
      </trkpt>
      <trkpt lat="44.35978" lon="5.17783">
        <ele>371</ele>
        <time>2021-08-30T12:19:01Z</time>
      </trkpt>
      <trkpt lat="44.35984" lon="5.17789">
        <ele>370.60000610352</ele>
        <time>2021-08-30T12:19:02Z</time>
      </trkpt>
      <trkpt lat="44.35996" lon="5.17802">
        <ele>369.60000610352</ele>
        <time>2021-08-30T12:19:04Z</time>
      </trkpt>
      <trkpt lat="44.36022" lon="5.1783">
        <ele>368.20001220703</ele>
        <time>2021-08-30T12:19:08Z</time>
      </trkpt>
      <trkpt lat="44.36026" lon="5.17854">
        <ele>367.39999389648</ele>
        <time>2021-08-30T12:19:10Z</time>
      </trkpt>
      <trkpt lat="44.36023" lon="5.17866">
        <ele>366.79998779297</ele>
        <time>2021-08-30T12:19:11Z</time>
      </trkpt>
      <trkpt lat="44.36021" lon="5.17877">
        <ele>366.39999389648</ele>
        <time>2021-08-30T12:19:12Z</time>
      </trkpt>
      <trkpt lat="44.36022" lon="5.17888">
        <ele>365.39999389648</ele>
        <time>2021-08-30T12:19:13Z</time>
      </trkpt>
      <trkpt lat="44.36032" lon="5.17904">
        <ele>364.39999389648</ele>
        <time>2021-08-30T12:19:15Z</time>
      </trkpt>
      <trkpt lat="44.36039" lon="5.17905">
        <ele>364</ele>
        <time>2021-08-30T12:19:16Z</time>
      </trkpt>
      <trkpt lat="44.36048" lon="5.17902">
        <ele>363.60000610352</ele>
        <time>2021-08-30T12:19:17Z</time>
      </trkpt>
      <trkpt lat="44.3606" lon="5.17887">
        <ele>362.79998779297</ele>
        <time>2021-08-30T12:19:19Z</time>
      </trkpt>
      <trkpt lat="44.36084" lon="5.17853">
        <ele>361.60000610352</ele>
        <time>2021-08-30T12:19:23Z</time>
      </trkpt>
      <trkpt lat="44.36109" lon="5.17847">
        <ele>361</ele>
        <time>2021-08-30T12:19:26Z</time>
      </trkpt>
      <trkpt lat="44.36125" lon="5.17852">
        <ele>360.39999389648</ele>
        <time>2021-08-30T12:19:28Z</time>
      </trkpt>
      <trkpt lat="44.36134" lon="5.17856">
        <ele>360</ele>
        <time>2021-08-30T12:19:29Z</time>
      </trkpt>
      <trkpt lat="44.36142" lon="5.17859">
        <ele>359.39999389648</ele>
        <time>2021-08-30T12:19:30Z</time>
      </trkpt>
      <trkpt lat="44.36159" lon="5.17863">
        <ele>358.20001220703</ele>
        <time>2021-08-30T12:19:32Z</time>
      </trkpt>
      <trkpt lat="44.36167" lon="5.17866">
        <ele>357.79998779297</ele>
        <time>2021-08-30T12:19:33Z</time>
      </trkpt>
      <trkpt lat="44.36176" lon="5.1787">
        <ele>357.39999389648</ele>
        <time>2021-08-30T12:19:34Z</time>
      </trkpt>
      <trkpt lat="44.36184" lon="5.17874">
        <ele>357</ele>
        <time>2021-08-30T12:19:35Z</time>
      </trkpt>
      <trkpt lat="44.362" lon="5.17882">
        <ele>355.79998779297</ele>
        <time>2021-08-30T12:19:37Z</time>
      </trkpt>
      <trkpt lat="44.36215" lon="5.17887">
        <ele>354.79998779297</ele>
        <time>2021-08-30T12:19:39Z</time>
      </trkpt>
      <trkpt lat="44.36223" lon="5.17889">
        <ele>354.39999389648</ele>
        <time>2021-08-30T12:19:40Z</time>
      </trkpt>
      <trkpt lat="44.36231" lon="5.17893">
        <ele>354</ele>
        <time>2021-08-30T12:19:41Z</time>
      </trkpt>
      <trkpt lat="44.36238" lon="5.17898">
        <ele>353.60000610352</ele>
        <time>2021-08-30T12:19:42Z</time>
      </trkpt>
      <trkpt lat="44.36244" lon="5.17906">
        <ele>353.39999389648</ele>
        <time>2021-08-30T12:19:43Z</time>
      </trkpt>
      <trkpt lat="44.36262" lon="5.17928">
        <ele>352.39999389648</ele>
        <time>2021-08-30T12:19:46Z</time>
      </trkpt>
      <trkpt lat="44.3627" lon="5.1793">
        <ele>352</ele>
        <time>2021-08-30T12:19:47Z</time>
      </trkpt>
      <trkpt lat="44.36286" lon="5.17928">
        <ele>351.39999389648</ele>
        <time>2021-08-30T12:19:49Z</time>
      </trkpt>
      <trkpt lat="44.36294" lon="5.17928">
        <ele>351</ele>
        <time>2021-08-30T12:19:50Z</time>
      </trkpt>
      <trkpt lat="44.3631" lon="5.1793">
        <ele>350.20001220703</ele>
        <time>2021-08-30T12:19:52Z</time>
      </trkpt>
      <trkpt lat="44.36325" lon="5.17938">
        <ele>349.79998779297</ele>
        <time>2021-08-30T12:19:54Z</time>
      </trkpt>
      <trkpt lat="44.36332" lon="5.17943">
        <ele>349.60000610352</ele>
        <time>2021-08-30T12:19:55Z</time>
      </trkpt>
      <trkpt lat="44.36347" lon="5.17949">
        <ele>349</ele>
        <time>2021-08-30T12:19:57Z</time>
      </trkpt>
      <trkpt lat="44.36363" lon="5.17953">
        <ele>348.39999389648</ele>
        <time>2021-08-30T12:19:59Z</time>
      </trkpt>
      <trkpt lat="44.36372" lon="5.17953">
        <ele>348</ele>
        <time>2021-08-30T12:20:00Z</time>
      </trkpt>
      <trkpt lat="44.36396" lon="5.17954">
        <ele>346.79998779297</ele>
        <time>2021-08-30T12:20:03Z</time>
      </trkpt>
      <trkpt lat="44.36419" lon="5.17955">
        <ele>345.79998779297</ele>
        <time>2021-08-30T12:20:06Z</time>
      </trkpt>
      <trkpt lat="44.36427" lon="5.17955">
        <ele>345.60000610352</ele>
        <time>2021-08-30T12:20:07Z</time>
      </trkpt>
      <trkpt lat="44.36434" lon="5.17955">
        <ele>345.20001220703</ele>
        <time>2021-08-30T12:20:08Z</time>
      </trkpt>
      <trkpt lat="44.36461" lon="5.17954">
        <ele>344.60000610352</ele>
        <time>2021-08-30T12:20:12Z</time>
      </trkpt>
      <trkpt lat="44.36482" lon="5.17951">
        <ele>344</ele>
        <time>2021-08-30T12:20:15Z</time>
      </trkpt>
      <trkpt lat="44.36495" lon="5.17946">
        <ele>343.39999389648</ele>
        <time>2021-08-30T12:20:17Z</time>
      </trkpt>
      <trkpt lat="44.36515" lon="5.17936">
        <ele>342.39999389648</ele>
        <time>2021-08-30T12:20:20Z</time>
      </trkpt>
      <trkpt lat="44.36521" lon="5.17932">
        <ele>342.20001220703</ele>
        <time>2021-08-30T12:20:21Z</time>
      </trkpt>
      <trkpt lat="44.36535" lon="5.17926">
        <ele>342</ele>
        <time>2021-08-30T12:20:23Z</time>
      </trkpt>
      <trkpt lat="44.3655" lon="5.17925">
        <ele>341.20001220703</ele>
        <time>2021-08-30T12:20:25Z</time>
      </trkpt>
      <trkpt lat="44.36579" lon="5.17926">
        <ele>340</ele>
        <time>2021-08-30T12:20:29Z</time>
      </trkpt>
      <trkpt lat="44.36586" lon="5.17928">
        <ele>339.79998779297</ele>
        <time>2021-08-30T12:20:30Z</time>
      </trkpt>
      <trkpt lat="44.36606" lon="5.1794">
        <ele>339</ele>
        <time>2021-08-30T12:20:33Z</time>
      </trkpt>
      <trkpt lat="44.36612" lon="5.17945">
        <ele>338.79998779297</ele>
        <time>2021-08-30T12:20:34Z</time>
      </trkpt>
      <trkpt lat="44.36619" lon="5.17949">
        <ele>338.60000610352</ele>
        <time>2021-08-30T12:20:35Z</time>
      </trkpt>
      <trkpt lat="44.36643" lon="5.1797">
        <ele>337.79998779297</ele>
        <time>2021-08-30T12:20:39Z</time>
      </trkpt>
      <trkpt lat="44.36654" lon="5.17983">
        <ele>337.39999389648</ele>
        <time>2021-08-30T12:20:41Z</time>
      </trkpt>
      <trkpt lat="44.36673" lon="5.17992">
        <ele>337</ele>
        <time>2021-08-30T12:20:44Z</time>
      </trkpt>
      <trkpt lat="44.36701" lon="5.17985">
        <ele>336.79998779297</ele>
        <time>2021-08-30T12:20:48Z</time>
      </trkpt>
      <trkpt lat="44.36708" lon="5.17979">
        <ele>336.79998779297</ele>
        <time>2021-08-30T12:20:49Z</time>
      </trkpt>
      <trkpt lat="44.3672" lon="5.17965">
        <ele>336.39999389648</ele>
        <time>2021-08-30T12:20:51Z</time>
      </trkpt>
      <trkpt lat="44.36732" lon="5.17936">
        <ele>335.39999389648</ele>
        <time>2021-08-30T12:20:54Z</time>
      </trkpt>
      <trkpt lat="44.36737" lon="5.17927">
        <ele>335</ele>
        <time>2021-08-30T12:20:55Z</time>
      </trkpt>
      <trkpt lat="44.36753" lon="5.17909">
        <ele>334.20001220703</ele>
        <time>2021-08-30T12:20:58Z</time>
      </trkpt>
      <trkpt lat="44.36759" lon="5.17904">
        <ele>334</ele>
        <time>2021-08-30T12:20:59Z</time>
      </trkpt>
      <trkpt lat="44.36789" lon="5.17886">
        <ele>333.20001220703</ele>
        <time>2021-08-30T12:21:04Z</time>
      </trkpt>
      <trkpt lat="44.36826" lon="5.17869">
        <ele>332.39999389648</ele>
        <time>2021-08-30T12:21:10Z</time>
      </trkpt>
      <trkpt lat="44.36847" lon="5.17874">
        <ele>331.79998779297</ele>
        <time>2021-08-30T12:21:13Z</time>
      </trkpt>
      <trkpt lat="44.36871" lon="5.17895">
        <ele>330.60000610352</ele>
        <time>2021-08-30T12:21:17Z</time>
      </trkpt>
      <trkpt lat="44.36899" lon="5.17918">
        <ele>329.39999389648</ele>
        <time>2021-08-30T12:21:21Z</time>
      </trkpt>
      <trkpt lat="44.36914" lon="5.17928">
        <ele>328.60000610352</ele>
        <time>2021-08-30T12:21:23Z</time>
      </trkpt>
      <trkpt lat="44.36922" lon="5.1793">
        <ele>328.20001220703</ele>
        <time>2021-08-30T12:21:24Z</time>
      </trkpt>
      <trkpt lat="44.36938" lon="5.17932">
        <ele>327.39999389648</ele>
        <time>2021-08-30T12:21:26Z</time>
      </trkpt>
      <trkpt lat="44.36946" lon="5.17934">
        <ele>327</ele>
        <time>2021-08-30T12:21:27Z</time>
      </trkpt>
      <trkpt lat="44.3699" lon="5.17946">
        <ele>325.79998779297</ele>
        <time>2021-08-30T12:21:33Z</time>
      </trkpt>
      <trkpt lat="44.37016" lon="5.17966">
        <ele>324.39999389648</ele>
        <time>2021-08-30T12:21:37Z</time>
      </trkpt>
      <trkpt lat="44.37023" lon="5.17971">
        <ele>324</ele>
        <time>2021-08-30T12:21:38Z</time>
      </trkpt>
      <trkpt lat="44.37036" lon="5.17982">
        <ele>323</ele>
        <time>2021-08-30T12:21:40Z</time>
      </trkpt>
      <trkpt lat="44.37067" lon="5.18006">
        <ele>321.79998779297</ele>
        <time>2021-08-30T12:21:45Z</time>
      </trkpt>
      <trkpt lat="44.37092" lon="5.18022">
        <ele>320.60000610352</ele>
        <time>2021-08-30T12:21:49Z</time>
      </trkpt>
      <trkpt lat="44.37112" lon="5.18036">
        <ele>319.79998779297</ele>
        <time>2021-08-30T12:21:52Z</time>
      </trkpt>
      <trkpt lat="44.37125" lon="5.18045">
        <ele>319.39999389648</ele>
        <time>2021-08-30T12:21:54Z</time>
      </trkpt>
      <trkpt lat="44.37132" lon="5.18047">
        <ele>319.20001220703</ele>
        <time>2021-08-30T12:21:55Z</time>
      </trkpt>
      <trkpt lat="44.3714" lon="5.18047">
        <ele>318.79998779297</ele>
        <time>2021-08-30T12:21:56Z</time>
      </trkpt>
      <trkpt lat="44.37155" lon="5.18044">
        <ele>318.39999389648</ele>
        <time>2021-08-30T12:21:58Z</time>
      </trkpt>
      <trkpt lat="44.3717" lon="5.18039">
        <ele>318</ele>
        <time>2021-08-30T12:22:00Z</time>
      </trkpt>
      <trkpt lat="44.37177" lon="5.18038">
        <ele>317.60000610352</ele>
        <time>2021-08-30T12:22:01Z</time>
      </trkpt>
      <trkpt lat="44.37191" lon="5.18043">
        <ele>317.39999389648</ele>
        <time>2021-08-30T12:22:03Z</time>
      </trkpt>
      <trkpt lat="44.37197" lon="5.18048">
        <ele>317.20001220703</ele>
        <time>2021-08-30T12:22:04Z</time>
      </trkpt>
      <trkpt lat="44.37215" lon="5.18065">
        <ele>316.79998779297</ele>
        <time>2021-08-30T12:22:07Z</time>
      </trkpt>
      <trkpt lat="44.3722" lon="5.18071">
        <ele>316.39999389648</ele>
        <time>2021-08-30T12:22:08Z</time>
      </trkpt>
      <trkpt lat="44.37226" lon="5.18077">
        <ele>316</ele>
        <time>2021-08-30T12:22:09Z</time>
      </trkpt>
      <trkpt lat="44.3725" lon="5.18096">
        <ele>315</ele>
        <time>2021-08-30T12:22:13Z</time>
      </trkpt>
      <trkpt lat="44.37256" lon="5.18101">
        <ele>314.60000610352</ele>
        <time>2021-08-30T12:22:14Z</time>
      </trkpt>
      <trkpt lat="44.37283" lon="5.18117">
        <ele>313.79998779297</ele>
        <time>2021-08-30T12:22:18Z</time>
      </trkpt>
      <trkpt lat="44.37303" lon="5.18129">
        <ele>313.39999389648</ele>
        <time>2021-08-30T12:22:21Z</time>
      </trkpt>
      <trkpt lat="44.37329" lon="5.18147">
        <ele>312.20001220703</ele>
        <time>2021-08-30T12:22:25Z</time>
      </trkpt>
      <trkpt lat="44.37348" lon="5.1816">
        <ele>311.79998779297</ele>
        <time>2021-08-30T12:22:28Z</time>
      </trkpt>
      <trkpt lat="44.37353" lon="5.18166">
        <ele>311.79998779297</ele>
        <time>2021-08-30T12:22:29Z</time>
      </trkpt>
      <trkpt lat="44.37367" lon="5.18189">
        <ele>311.39999389648</ele>
        <time>2021-08-30T12:22:32Z</time>
      </trkpt>
      <trkpt lat="44.37372" lon="5.18207">
        <ele>311.20001220703</ele>
        <time>2021-08-30T12:22:34Z</time>
      </trkpt>
      <trkpt lat="44.37374" lon="5.18216">
        <ele>311</ele>
        <time>2021-08-30T12:22:35Z</time>
      </trkpt>
      <trkpt lat="44.37381" lon="5.18243">
        <ele>310.39999389648</ele>
        <time>2021-08-30T12:22:38Z</time>
      </trkpt>
      <trkpt lat="44.37389" lon="5.18257">
        <ele>310.39999389648</ele>
        <time>2021-08-30T12:22:40Z</time>
      </trkpt>
      <trkpt lat="44.37406" lon="5.18271">
        <ele>310.20001220703</ele>
        <time>2021-08-30T12:22:43Z</time>
      </trkpt>
      <trkpt lat="44.37413" lon="5.18275">
        <ele>310</ele>
        <time>2021-08-30T12:22:44Z</time>
      </trkpt>
      <trkpt lat="44.37438" lon="5.18293">
        <ele>309.39999389648</ele>
        <time>2021-08-30T12:22:48Z</time>
      </trkpt>
      <trkpt lat="44.37451" lon="5.18298">
        <ele>309</ele>
        <time>2021-08-30T12:22:50Z</time>
      </trkpt>
      <trkpt lat="44.37478" lon="5.18301">
        <ele>308.79998779297</ele>
        <time>2021-08-30T12:22:54Z</time>
      </trkpt>
      <trkpt lat="44.37485" lon="5.183">
        <ele>308.79998779297</ele>
        <time>2021-08-30T12:22:55Z</time>
      </trkpt>
      <trkpt lat="44.37505" lon="5.18299">
        <ele>308.39999389648</ele>
        <time>2021-08-30T12:22:58Z</time>
      </trkpt>
      <trkpt lat="44.37519" lon="5.18296">
        <ele>308.20001220703</ele>
        <time>2021-08-30T12:23:00Z</time>
      </trkpt>
      <trkpt lat="44.37532" lon="5.18291">
        <ele>308</ele>
        <time>2021-08-30T12:23:02Z</time>
      </trkpt>
      <trkpt lat="44.37553" lon="5.18283">
        <ele>307.60000610352</ele>
        <time>2021-08-30T12:23:05Z</time>
      </trkpt>
      <trkpt lat="44.37583" lon="5.18292">
        <ele>307</ele>
        <time>2021-08-30T12:23:09Z</time>
      </trkpt>
      <trkpt lat="44.37611" lon="5.18303">
        <ele>305.60000610352</ele>
        <time>2021-08-30T12:23:13Z</time>
      </trkpt>
      <trkpt lat="44.37647" lon="5.18316">
        <ele>304.79998779297</ele>
        <time>2021-08-30T12:23:18Z</time>
      </trkpt>
      <trkpt lat="44.37654" lon="5.18319">
        <ele>304.60000610352</ele>
        <time>2021-08-30T12:23:19Z</time>
      </trkpt>
      <trkpt lat="44.37674" lon="5.1833">
        <ele>304</ele>
        <time>2021-08-30T12:23:22Z</time>
      </trkpt>
      <trkpt lat="44.37678" lon="5.18338">
        <ele>303.79998779297</ele>
        <time>2021-08-30T12:23:23Z</time>
      </trkpt>
      <trkpt lat="44.37687" lon="5.18365">
        <ele>303.60000610352</ele>
        <time>2021-08-30T12:23:26Z</time>
      </trkpt>
      <trkpt lat="44.37688" lon="5.18374">
        <ele>303.60000610352</ele>
        <time>2021-08-30T12:23:27Z</time>
      </trkpt>
      <trkpt lat="44.37699" lon="5.18425">
        <ele>303.60000610352</ele>
        <time>2021-08-30T12:23:33Z</time>
      </trkpt>
      <trkpt lat="44.37703" lon="5.18459">
        <ele>302.39999389648</ele>
        <time>2021-08-30T12:23:37Z</time>
      </trkpt>
      <trkpt lat="44.37706" lon="5.18484">
        <ele>301.60000610352</ele>
        <time>2021-08-30T12:23:40Z</time>
      </trkpt>
      <trkpt lat="44.37706" lon="5.18501">
        <ele>301.20001220703</ele>
        <time>2021-08-30T12:23:42Z</time>
      </trkpt>
      <trkpt lat="44.37709" lon="5.1855">
        <ele>300.79998779297</ele>
        <time>2021-08-30T12:23:48Z</time>
      </trkpt>
      <trkpt lat="44.37711" lon="5.18582">
        <ele>300.20001220703</ele>
        <time>2021-08-30T12:23:52Z</time>
      </trkpt>
      <trkpt lat="44.37713" lon="5.18623">
        <ele>299.39999389648</ele>
        <time>2021-08-30T12:23:57Z</time>
      </trkpt>
      <trkpt lat="44.37714" lon="5.18632">
        <ele>299.20001220703</ele>
        <time>2021-08-30T12:23:58Z</time>
      </trkpt>
      <trkpt lat="44.37723" lon="5.18684">
        <ele>298.20001220703</ele>
        <time>2021-08-30T12:24:04Z</time>
      </trkpt>
      <trkpt lat="44.37726" lon="5.18692">
        <ele>298</ele>
        <time>2021-08-30T12:24:05Z</time>
      </trkpt>
      <trkpt lat="44.37739" lon="5.18715">
        <ele>298</ele>
        <time>2021-08-30T12:24:08Z</time>
      </trkpt>
      <trkpt lat="44.37772" lon="5.18772">
        <ele>297.20001220703</ele>
        <time>2021-08-30T12:24:16Z</time>
      </trkpt>
      <trkpt lat="44.37781" lon="5.18784">
        <ele>297</ele>
        <time>2021-08-30T12:24:18Z</time>
      </trkpt>
      <trkpt lat="44.37785" lon="5.18791">
        <ele>296.79998779297</ele>
        <time>2021-08-30T12:24:19Z</time>
      </trkpt>
      <trkpt lat="44.37795" lon="5.18812">
        <ele>296.39999389648</ele>
        <time>2021-08-30T12:24:22Z</time>
      </trkpt>
      <trkpt lat="44.37798" lon="5.1882">
        <ele>296.39999389648</ele>
        <time>2021-08-30T12:24:23Z</time>
      </trkpt>
      <trkpt lat="44.37808" lon="5.18849">
        <ele>296</ele>
        <time>2021-08-30T12:24:27Z</time>
      </trkpt>
      <trkpt lat="44.37814" lon="5.18871">
        <ele>295.60000610352</ele>
        <time>2021-08-30T12:24:30Z</time>
      </trkpt>
      <trkpt lat="44.37825" lon="5.18922">
        <ele>295.79998779297</ele>
        <time>2021-08-30T12:24:37Z</time>
      </trkpt>
      <trkpt lat="44.37829" lon="5.18944">
        <ele>296</ele>
        <time>2021-08-30T12:24:40Z</time>
      </trkpt>
      <trkpt lat="44.3783" lon="5.18958">
        <ele>296</ele>
        <time>2021-08-30T12:24:42Z</time>
      </trkpt>
      <trkpt lat="44.37831" lon="5.18985">
        <ele>295.60000610352</ele>
        <time>2021-08-30T12:24:46Z</time>
      </trkpt>
      <trkpt lat="44.37827" lon="5.18996">
        <ele>295.39999389648</ele>
        <time>2021-08-30T12:24:48Z</time>
      </trkpt>
      <trkpt lat="44.37827" lon="5.19017">
        <ele>295.20001220703</ele>
        <time>2021-08-30T12:24:52Z</time>
      </trkpt>
      <trkpt lat="44.37835" lon="5.19031">
        <ele>295.60000610352</ele>
        <time>2021-08-30T12:24:57Z</time>
      </trkpt>
      <trkpt lat="44.37844" lon="5.1904">
        <ele>296.79998779297</ele>
        <time>2021-08-30T12:25:03Z</time>
      </trkpt>
      <trkpt lat="44.37848" lon="5.19042">
        <ele>297.20001220703</ele>
        <time>2021-08-30T12:25:05Z</time>
      </trkpt>
      <trkpt lat="44.3785" lon="5.19044">
        <ele>297.60000610352</ele>
        <time>2021-08-30T12:25:07Z</time>
      </trkpt>
      <trkpt lat="44.37848" lon="5.19049">
        <ele>298.60000610352</ele>
        <time>2021-08-30T12:26:05Z</time>
      </trkpt>
      <trkpt lat="44.37846" lon="5.19051">
        <ele>298.60000610352</ele>
        <time>2021-08-30T12:26:06Z</time>
      </trkpt>
      <trkpt lat="44.37836" lon="5.1907">
        <ele>299</ele>
        <time>2021-08-30T12:26:13Z</time>
      </trkpt>
      <trkpt lat="44.37837" lon="5.19073">
        <ele>299</ele>
        <time>2021-08-30T12:26:14Z</time>
      </trkpt>
      <trkpt lat="44.37843" lon="5.19083">
        <ele>298.39999389648</ele>
        <time>2021-08-30T12:26:18Z</time>
      </trkpt>
      <trkpt lat="44.37853" lon="5.19083">
        <ele>297.60000610352</ele>
        <time>2021-08-30T12:26:21Z</time>
      </trkpt>
      <trkpt lat="44.37856" lon="5.19082">
        <ele>297.39999389648</ele>
        <time>2021-08-30T12:26:22Z</time>
      </trkpt>
      <trkpt lat="44.37857" lon="5.19081">
        <ele>297.20001220703</ele>
        <time>2021-08-30T12:26:23Z</time>
      </trkpt>
      <trkpt lat="44.3786" lon="5.19082">
        <ele>297.20001220703</ele>
        <time>2021-08-30T12:26:25Z</time>
      </trkpt>
      <trkpt lat="44.37864" lon="5.19079">
        <ele>297.60000610352</ele>
        <time>2021-08-30T12:26:42Z</time>
      </trkpt>
      <trkpt lat="44.37866" lon="5.19079">
        <ele>297.60000610352</ele>
        <time>2021-08-30T12:26:43Z</time>
      </trkpt>
      <trkpt lat="44.37882" lon="5.19078">
        <ele>298.39999389648</ele>
        <time>2021-08-30T12:26:49Z</time>
      </trkpt>
      <trkpt lat="44.37884" lon="5.19078">
        <ele>298.39999389648</ele>
        <time>2021-08-30T12:26:50Z</time>
      </trkpt>
      <trkpt lat="44.37896" lon="5.19078">
        <ele>298.20001220703</ele>
        <time>2021-08-30T12:26:56Z</time>
      </trkpt>
      <trkpt lat="44.37902" lon="5.19088">
        <ele>297.79998779297</ele>
        <time>2021-08-30T12:27:01Z</time>
      </trkpt>
      <trkpt lat="44.37912" lon="5.1911">
        <ele>298</ele>
        <time>2021-08-30T12:27:08Z</time>
      </trkpt>
      <trkpt lat="44.37924" lon="5.19132">
        <ele>298</ele>
        <time>2021-08-30T12:27:14Z</time>
      </trkpt>
      <trkpt lat="44.37928" lon="5.19135">
        <ele>298</ele>
        <time>2021-08-30T12:27:15Z</time>
      </trkpt>
      <trkpt lat="44.37943" lon="5.19149">
        <ele>297.60000610352</ele>
        <time>2021-08-30T12:27:19Z</time>
      </trkpt>
      <trkpt lat="44.37946" lon="5.19151">
        <ele>297.39999389648</ele>
        <time>2021-08-30T12:27:20Z</time>
      </trkpt>
      <trkpt lat="44.37965" lon="5.19164">
        <ele>297.60000610352</ele>
        <time>2021-08-30T12:27:26Z</time>
      </trkpt>
      <trkpt lat="44.3798" lon="5.19176">
        <ele>297.79998779297</ele>
        <time>2021-08-30T12:27:31Z</time>
      </trkpt>
      <trkpt lat="44.37985" lon="5.1918">
        <ele>298</ele>
        <time>2021-08-30T12:27:33Z</time>
      </trkpt>
      <trkpt lat="44.37998" lon="5.19194">
        <ele>298.60000610352</ele>
        <time>2021-08-30T12:27:38Z</time>
      </trkpt>
      <trkpt lat="44.38001" lon="5.19197">
        <ele>298.60000610352</ele>
        <time>2021-08-30T12:27:39Z</time>
      </trkpt>
      <trkpt lat="44.38026" lon="5.1922">
        <ele>298.60000610352</ele>
        <time>2021-08-30T12:27:47Z</time>
      </trkpt>
      <trkpt lat="44.38047" lon="5.19238">
        <ele>298</ele>
        <time>2021-08-30T12:27:53Z</time>
      </trkpt>
      <trkpt lat="44.38061" lon="5.19249">
        <ele>298.20001220703</ele>
        <time>2021-08-30T12:27:59Z</time>
      </trkpt>
      <trkpt lat="44.38076" lon="5.19253">
        <ele>299.20001220703</ele>
        <time>2021-08-30T12:28:05Z</time>
      </trkpt>
      <trkpt lat="44.3809" lon="5.19258">
        <ele>299</ele>
        <time>2021-08-30T12:28:10Z</time>
      </trkpt>
      <trkpt lat="44.38111" lon="5.19273">
        <ele>298.79998779297</ele>
        <time>2021-08-30T12:28:17Z</time>
      </trkpt>
      <trkpt lat="44.38126" lon="5.19288">
        <ele>299.20001220703</ele>
        <time>2021-08-30T12:28:23Z</time>
      </trkpt>
      <trkpt lat="44.38141" lon="5.19298">
        <ele>299.60000610352</ele>
        <time>2021-08-30T12:28:28Z</time>
      </trkpt>
      <trkpt lat="44.38147" lon="5.19303">
        <ele>299.79998779297</ele>
        <time>2021-08-30T12:28:30Z</time>
      </trkpt>
      <trkpt lat="44.38164" lon="5.19316">
        <ele>300.60000610352</ele>
        <time>2021-08-30T12:28:36Z</time>
      </trkpt>
      <trkpt lat="44.38169" lon="5.1932">
        <ele>300.79998779297</ele>
        <time>2021-08-30T12:28:38Z</time>
      </trkpt>
      <trkpt lat="44.38189" lon="5.19335">
        <ele>301.39999389648</ele>
        <time>2021-08-30T12:28:44Z</time>
      </trkpt>
      <trkpt lat="44.38202" lon="5.19345">
        <ele>301.60000610352</ele>
        <time>2021-08-30T12:28:48Z</time>
      </trkpt>
      <trkpt lat="44.38212" lon="5.19354">
        <ele>302.20001220703</ele>
        <time>2021-08-30T12:28:52Z</time>
      </trkpt>
      <trkpt lat="44.38223" lon="5.19363">
        <ele>302.79998779297</ele>
        <time>2021-08-30T12:28:56Z</time>
      </trkpt>
      <trkpt lat="44.38236" lon="5.19374">
        <ele>303.60000610352</ele>
        <time>2021-08-30T12:29:01Z</time>
      </trkpt>
      <trkpt lat="44.38241" lon="5.19381">
        <ele>303.79998779297</ele>
        <time>2021-08-30T12:29:03Z</time>
      </trkpt>
      <trkpt lat="44.38256" lon="5.19397">
        <ele>304.20001220703</ele>
        <time>2021-08-30T12:29:09Z</time>
      </trkpt>
      <trkpt lat="44.38276" lon="5.19412">
        <ele>304.60000610352</ele>
        <time>2021-08-30T12:29:16Z</time>
      </trkpt>
      <trkpt lat="44.38279" lon="5.19414">
        <ele>304.79998779297</ele>
        <time>2021-08-30T12:29:17Z</time>
      </trkpt>
      <trkpt lat="44.38302" lon="5.19422">
        <ele>305.79998779297</ele>
        <time>2021-08-30T12:29:24Z</time>
      </trkpt>
      <trkpt lat="44.38306" lon="5.19423">
        <ele>306</ele>
        <time>2021-08-30T12:29:25Z</time>
      </trkpt>
      <trkpt lat="44.38345" lon="5.19433">
        <ele>306.39999389648</ele>
        <time>2021-08-30T12:29:35Z</time>
      </trkpt>
      <trkpt lat="44.38383" lon="5.19447">
        <ele>306.60000610352</ele>
        <time>2021-08-30T12:29:44Z</time>
      </trkpt>
      <trkpt lat="44.38396" lon="5.19453">
        <ele>306.79998779297</ele>
        <time>2021-08-30T12:29:47Z</time>
      </trkpt>
      <trkpt lat="44.38423" lon="5.19462">
        <ele>307.20001220703</ele>
        <time>2021-08-30T12:29:54Z</time>
      </trkpt>
      <trkpt lat="44.38458" lon="5.19476">
        <ele>307.20001220703</ele>
        <time>2021-08-30T12:30:03Z</time>
      </trkpt>
      <trkpt lat="44.38502" lon="5.19493">
        <ele>307.79998779297</ele>
        <time>2021-08-30T12:30:14Z</time>
      </trkpt>
      <trkpt lat="44.38518" lon="5.19499">
        <ele>308</ele>
        <time>2021-08-30T12:30:18Z</time>
      </trkpt>
      <trkpt lat="44.38543" lon="5.1951">
        <ele>308.39999389648</ele>
        <time>2021-08-30T12:30:24Z</time>
      </trkpt>
      <trkpt lat="44.3857" lon="5.1952">
        <ele>309</ele>
        <time>2021-08-30T12:30:31Z</time>
      </trkpt>
      <trkpt lat="44.38574" lon="5.19522">
        <ele>309.20001220703</ele>
        <time>2021-08-30T12:30:32Z</time>
      </trkpt>
      <trkpt lat="44.38604" lon="5.19533">
        <ele>310</ele>
        <time>2021-08-30T12:30:40Z</time>
      </trkpt>
      <trkpt lat="44.38608" lon="5.19534">
        <ele>310</ele>
        <time>2021-08-30T12:30:41Z</time>
      </trkpt>
      <trkpt lat="44.38635" lon="5.19544">
        <ele>310</ele>
        <time>2021-08-30T12:30:48Z</time>
      </trkpt>
      <trkpt lat="44.38667" lon="5.19556">
        <ele>311</ele>
        <time>2021-08-30T12:30:56Z</time>
      </trkpt>
      <trkpt lat="44.3867" lon="5.19558">
        <ele>311</ele>
        <time>2021-08-30T12:30:57Z</time>
      </trkpt>
      <trkpt lat="44.38705" lon="5.19571">
        <ele>311.79998779297</ele>
        <time>2021-08-30T12:31:06Z</time>
      </trkpt>
      <trkpt lat="44.38721" lon="5.19578">
        <ele>312</ele>
        <time>2021-08-30T12:31:10Z</time>
      </trkpt>
      <trkpt lat="44.38737" lon="5.19585">
        <ele>312.39999389648</ele>
        <time>2021-08-30T12:31:14Z</time>
      </trkpt>
      <trkpt lat="44.38773" lon="5.19608">
        <ele>312.60000610352</ele>
        <time>2021-08-30T12:31:23Z</time>
      </trkpt>
      <trkpt lat="44.38777" lon="5.19611">
        <ele>312.60000610352</ele>
        <time>2021-08-30T12:31:24Z</time>
      </trkpt>
      <trkpt lat="44.38788" lon="5.1962">
        <ele>312.79998779297</ele>
        <time>2021-08-30T12:31:27Z</time>
      </trkpt>
      <trkpt lat="44.38799" lon="5.19628">
        <ele>312.60000610352</ele>
        <time>2021-08-30T12:31:30Z</time>
      </trkpt>
      <trkpt lat="44.38815" lon="5.19639">
        <ele>312.79998779297</ele>
        <time>2021-08-30T12:31:34Z</time>
      </trkpt>
      <trkpt lat="44.38823" lon="5.19644">
        <ele>313</ele>
        <time>2021-08-30T12:31:36Z</time>
      </trkpt>
      <trkpt lat="44.3883" lon="5.1965">
        <ele>313.20001220703</ele>
        <time>2021-08-30T12:31:38Z</time>
      </trkpt>
      <trkpt lat="44.38842" lon="5.19659">
        <ele>313.39999389648</ele>
        <time>2021-08-30T12:31:41Z</time>
      </trkpt>
      <trkpt lat="44.38856" lon="5.19673">
        <ele>313.39999389648</ele>
        <time>2021-08-30T12:31:45Z</time>
      </trkpt>
      <trkpt lat="44.38878" lon="5.19709">
        <ele>313.20001220703</ele>
        <time>2021-08-30T12:31:52Z</time>
      </trkpt>
      <trkpt lat="44.38895" lon="5.19751">
        <ele>313.60000610352</ele>
        <time>2021-08-30T12:31:59Z</time>
      </trkpt>
      <trkpt lat="44.38908" lon="5.198">
        <ele>314</ele>
        <time>2021-08-30T12:32:07Z</time>
      </trkpt>
      <trkpt lat="44.38922" lon="5.19858">
        <ele>314.20001220703</ele>
        <time>2021-08-30T12:32:15Z</time>
      </trkpt>
      <trkpt lat="44.38935" lon="5.19926">
        <ele>313.39999389648</ele>
        <time>2021-08-30T12:32:23Z</time>
      </trkpt>
      <trkpt lat="44.38936" lon="5.19981">
        <ele>312.20001220703</ele>
        <time>2021-08-30T12:32:29Z</time>
      </trkpt>
      <trkpt lat="44.38936" lon="5.1999">
        <ele>312</ele>
        <time>2021-08-30T12:32:30Z</time>
      </trkpt>
      <trkpt lat="44.38933" lon="5.20032">
        <ele>311.79998779297</ele>
        <time>2021-08-30T12:32:35Z</time>
      </trkpt>
      <trkpt lat="44.38931" lon="5.20048">
        <ele>311.79998779297</ele>
        <time>2021-08-30T12:32:37Z</time>
      </trkpt>
      <trkpt lat="44.38932" lon="5.20116">
        <ele>312.20001220703</ele>
        <time>2021-08-30T12:32:46Z</time>
      </trkpt>
      <trkpt lat="44.38938" lon="5.20139">
        <ele>312.20001220703</ele>
        <time>2021-08-30T12:32:49Z</time>
      </trkpt>
      <trkpt lat="44.38946" lon="5.20159">
        <ele>312.39999389648</ele>
        <time>2021-08-30T12:32:52Z</time>
      </trkpt>
      <trkpt lat="44.38972" lon="5.20201">
        <ele>312.79998779297</ele>
        <time>2021-08-30T12:32:59Z</time>
      </trkpt>
      <trkpt lat="44.38992" lon="5.20232">
        <ele>313.20001220703</ele>
        <time>2021-08-30T12:33:04Z</time>
      </trkpt>
      <trkpt lat="44.3901" lon="5.20262">
        <ele>313.79998779297</ele>
        <time>2021-08-30T12:33:09Z</time>
      </trkpt>
      <trkpt lat="44.39039" lon="5.20308">
        <ele>313.39999389648</ele>
        <time>2021-08-30T12:33:17Z</time>
      </trkpt>
      <trkpt lat="44.3907" lon="5.20356">
        <ele>313.60000610352</ele>
        <time>2021-08-30T12:33:26Z</time>
      </trkpt>
      <trkpt lat="44.3909" lon="5.20393">
        <ele>314</ele>
        <time>2021-08-30T12:33:33Z</time>
      </trkpt>
      <trkpt lat="44.39094" lon="5.20398">
        <ele>314</ele>
        <time>2021-08-30T12:33:34Z</time>
      </trkpt>
      <trkpt lat="44.39103" lon="5.20413">
        <ele>314.20001220703</ele>
        <time>2021-08-30T12:33:37Z</time>
      </trkpt>
      <trkpt lat="44.39113" lon="5.20427">
        <ele>314.39999389648</ele>
        <time>2021-08-30T12:33:40Z</time>
      </trkpt>
      <trkpt lat="44.39142" lon="5.20476">
        <ele>315</ele>
        <time>2021-08-30T12:33:50Z</time>
      </trkpt>
      <trkpt lat="44.39159" lon="5.20513">
        <ele>315</ele>
        <time>2021-08-30T12:33:57Z</time>
      </trkpt>
      <trkpt lat="44.39165" lon="5.20531">
        <ele>315.20001220703</ele>
        <time>2021-08-30T12:34:00Z</time>
      </trkpt>
      <trkpt lat="44.39168" lon="5.20551">
        <ele>315.79998779297</ele>
        <time>2021-08-30T12:34:03Z</time>
      </trkpt>
      <trkpt lat="44.39172" lon="5.20577">
        <ele>316.20001220703</ele>
        <time>2021-08-30T12:34:07Z</time>
      </trkpt>
      <trkpt lat="44.39176" lon="5.20603">
        <ele>316.79998779297</ele>
        <time>2021-08-30T12:34:11Z</time>
      </trkpt>
      <trkpt lat="44.39185" lon="5.20664">
        <ele>317</ele>
        <time>2021-08-30T12:34:20Z</time>
      </trkpt>
      <trkpt lat="44.39192" lon="5.20712">
        <ele>317.20001220703</ele>
        <time>2021-08-30T12:34:27Z</time>
      </trkpt>
      <trkpt lat="44.39195" lon="5.20725">
        <ele>317.39999389648</ele>
        <time>2021-08-30T12:34:29Z</time>
      </trkpt>
      <trkpt lat="44.39203" lon="5.2078">
        <ele>318.20001220703</ele>
        <time>2021-08-30T12:34:37Z</time>
      </trkpt>
      <trkpt lat="44.39212" lon="5.20842">
        <ele>317.39999389648</ele>
        <time>2021-08-30T12:34:46Z</time>
      </trkpt>
      <trkpt lat="44.39221" lon="5.20906">
        <ele>317.39999389648</ele>
        <time>2021-08-30T12:34:55Z</time>
      </trkpt>
      <trkpt lat="44.39224" lon="5.2092">
        <ele>317.39999389648</ele>
        <time>2021-08-30T12:34:57Z</time>
      </trkpt>
      <trkpt lat="44.3923" lon="5.20957">
        <ele>317</ele>
        <time>2021-08-30T12:35:02Z</time>
      </trkpt>
      <trkpt lat="44.39239" lon="5.21027">
        <ele>317.20001220703</ele>
        <time>2021-08-30T12:35:11Z</time>
      </trkpt>
      <trkpt lat="44.39249" lon="5.21088">
        <ele>317.60000610352</ele>
        <time>2021-08-30T12:35:19Z</time>
      </trkpt>
      <trkpt lat="44.39256" lon="5.21138">
        <ele>318</ele>
        <time>2021-08-30T12:35:26Z</time>
      </trkpt>
      <trkpt lat="44.39258" lon="5.2119">
        <ele>318.39999389648</ele>
        <time>2021-08-30T12:35:33Z</time>
      </trkpt>
      <trkpt lat="44.39249" lon="5.21248">
        <ele>318.79998779297</ele>
        <time>2021-08-30T12:35:41Z</time>
      </trkpt>
      <trkpt lat="44.39232" lon="5.21302">
        <ele>319.39999389648</ele>
        <time>2021-08-30T12:35:49Z</time>
      </trkpt>
      <trkpt lat="44.3923" lon="5.21309">
        <ele>319.39999389648</ele>
        <time>2021-08-30T12:35:50Z</time>
      </trkpt>
      <trkpt lat="44.39207" lon="5.21382">
        <ele>320.39999389648</ele>
        <time>2021-08-30T12:36:01Z</time>
      </trkpt>
      <trkpt lat="44.39191" lon="5.21429">
        <ele>321</ele>
        <time>2021-08-30T12:36:08Z</time>
      </trkpt>
      <trkpt lat="44.39171" lon="5.21492">
        <ele>321</ele>
        <time>2021-08-30T12:36:17Z</time>
      </trkpt>
      <trkpt lat="44.3916" lon="5.21527">
        <ele>321.60000610352</ele>
        <time>2021-08-30T12:36:22Z</time>
      </trkpt>
      <trkpt lat="44.39152" lon="5.21555">
        <ele>322</ele>
        <time>2021-08-30T12:36:26Z</time>
      </trkpt>
      <trkpt lat="44.39143" lon="5.21583">
        <ele>322.20001220703</ele>
        <time>2021-08-30T12:36:30Z</time>
      </trkpt>
      <trkpt lat="44.39134" lon="5.21611">
        <ele>322.60000610352</ele>
        <time>2021-08-30T12:36:34Z</time>
      </trkpt>
      <trkpt lat="44.39132" lon="5.21618">
        <ele>322.60000610352</ele>
        <time>2021-08-30T12:36:35Z</time>
      </trkpt>
      <trkpt lat="44.39117" lon="5.21663">
        <ele>323.60000610352</ele>
        <time>2021-08-30T12:36:41Z</time>
      </trkpt>
      <trkpt lat="44.3911" lon="5.21685">
        <ele>324</ele>
        <time>2021-08-30T12:36:44Z</time>
      </trkpt>
      <trkpt lat="44.39086" lon="5.21735">
        <ele>324</ele>
        <time>2021-08-30T12:36:51Z</time>
      </trkpt>
      <trkpt lat="44.39059" lon="5.2177">
        <ele>324</ele>
        <time>2021-08-30T12:36:57Z</time>
      </trkpt>
      <trkpt lat="44.39052" lon="5.21783">
        <ele>324.20001220703</ele>
        <time>2021-08-30T12:36:59Z</time>
      </trkpt>
      <trkpt lat="44.39042" lon="5.21805">
        <ele>324.79998779297</ele>
        <time>2021-08-30T12:37:02Z</time>
      </trkpt>
      <trkpt lat="44.39025" lon="5.21858">
        <ele>325.20001220703</ele>
        <time>2021-08-30T12:37:09Z</time>
      </trkpt>
      <trkpt lat="44.39005" lon="5.21905">
        <ele>325.79998779297</ele>
        <time>2021-08-30T12:37:16Z</time>
      </trkpt>
      <trkpt lat="44.39" lon="5.21932">
        <ele>326.39999389648</ele>
        <time>2021-08-30T12:37:20Z</time>
      </trkpt>
      <trkpt lat="44.38999" lon="5.21948">
        <ele>326.60000610352</ele>
        <time>2021-08-30T12:37:22Z</time>
      </trkpt>
      <trkpt lat="44.39001" lon="5.21963">
        <ele>326.79998779297</ele>
        <time>2021-08-30T12:37:24Z</time>
      </trkpt>
      <trkpt lat="44.39003" lon="5.21978">
        <ele>327.20001220703</ele>
        <time>2021-08-30T12:37:26Z</time>
      </trkpt>
      <trkpt lat="44.39004" lon="5.21986">
        <ele>327.39999389648</ele>
        <time>2021-08-30T12:37:27Z</time>
      </trkpt>
      <trkpt lat="44.39018" lon="5.22051">
        <ele>327.60000610352</ele>
        <time>2021-08-30T12:37:36Z</time>
      </trkpt>
      <trkpt lat="44.39021" lon="5.22065">
        <ele>327.79998779297</ele>
        <time>2021-08-30T12:37:38Z</time>
      </trkpt>
      <trkpt lat="44.3903" lon="5.22104">
        <ele>328.60000610352</ele>
        <time>2021-08-30T12:37:44Z</time>
      </trkpt>
      <trkpt lat="44.39033" lon="5.2213">
        <ele>329</ele>
        <time>2021-08-30T12:37:48Z</time>
      </trkpt>
      <trkpt lat="44.39034" lon="5.22144">
        <ele>329.20001220703</ele>
        <time>2021-08-30T12:37:50Z</time>
      </trkpt>
      <trkpt lat="44.39033" lon="5.22151">
        <ele>329.39999389648</ele>
        <time>2021-08-30T12:37:51Z</time>
      </trkpt>
      <trkpt lat="44.39028" lon="5.22171">
        <ele>329.39999389648</ele>
        <time>2021-08-30T12:37:54Z</time>
      </trkpt>
      <trkpt lat="44.39026" lon="5.22177">
        <ele>329.60000610352</ele>
        <time>2021-08-30T12:37:55Z</time>
      </trkpt>
      <trkpt lat="44.39017" lon="5.22208">
        <ele>330</ele>
        <time>2021-08-30T12:38:00Z</time>
      </trkpt>
      <trkpt lat="44.3901" lon="5.22226">
        <ele>330.39999389648</ele>
        <time>2021-08-30T12:38:03Z</time>
      </trkpt>
      <trkpt lat="44.38988" lon="5.2227">
        <ele>330.79998779297</ele>
        <time>2021-08-30T12:38:11Z</time>
      </trkpt>
      <trkpt lat="44.38977" lon="5.22285">
        <ele>331.20001220703</ele>
        <time>2021-08-30T12:38:14Z</time>
      </trkpt>
      <trkpt lat="44.3896" lon="5.22309">
        <ele>331.79998779297</ele>
        <time>2021-08-30T12:38:19Z</time>
      </trkpt>
      <trkpt lat="44.38945" lon="5.22328">
        <ele>332.20001220703</ele>
        <time>2021-08-30T12:38:23Z</time>
      </trkpt>
      <trkpt lat="44.38933" lon="5.2235">
        <ele>333</ele>
        <time>2021-08-30T12:38:27Z</time>
      </trkpt>
      <trkpt lat="44.38931" lon="5.22356">
        <ele>333.20001220703</ele>
        <time>2021-08-30T12:38:28Z</time>
      </trkpt>
      <trkpt lat="44.38927" lon="5.22369">
        <ele>333.39999389648</ele>
        <time>2021-08-30T12:38:30Z</time>
      </trkpt>
      <trkpt lat="44.38922" lon="5.22394">
        <ele>334</ele>
        <time>2021-08-30T12:38:34Z</time>
      </trkpt>
      <trkpt lat="44.38919" lon="5.22435">
        <ele>334.39999389648</ele>
        <time>2021-08-30T12:38:40Z</time>
      </trkpt>
      <trkpt lat="44.38918" lon="5.22442">
        <ele>334.39999389648</ele>
        <time>2021-08-30T12:38:41Z</time>
      </trkpt>
      <trkpt lat="44.38918" lon="5.22449">
        <ele>334.39999389648</ele>
        <time>2021-08-30T12:38:42Z</time>
      </trkpt>
      <trkpt lat="44.38913" lon="5.22488">
        <ele>334.60000610352</ele>
        <time>2021-08-30T12:38:48Z</time>
      </trkpt>
      <trkpt lat="44.38903" lon="5.22542">
        <ele>334.60000610352</ele>
        <time>2021-08-30T12:38:55Z</time>
      </trkpt>
      <trkpt lat="44.38888" lon="5.22602">
        <ele>334.20001220703</ele>
        <time>2021-08-30T12:39:02Z</time>
      </trkpt>
      <trkpt lat="44.38868" lon="5.22651">
        <ele>333.79998779297</ele>
        <time>2021-08-30T12:39:08Z</time>
      </trkpt>
      <trkpt lat="44.38838" lon="5.22719">
        <ele>333.60000610352</ele>
        <time>2021-08-30T12:39:16Z</time>
      </trkpt>
      <trkpt lat="44.38832" lon="5.22737">
        <ele>333.39999389648</ele>
        <time>2021-08-30T12:39:18Z</time>
      </trkpt>
      <trkpt lat="44.38826" lon="5.22768">
        <ele>333</ele>
        <time>2021-08-30T12:39:21Z</time>
      </trkpt>
      <trkpt lat="44.38825" lon="5.22779">
        <ele>333</ele>
        <time>2021-08-30T12:39:22Z</time>
      </trkpt>
      <trkpt lat="44.38825" lon="5.22812">
        <ele>333</ele>
        <time>2021-08-30T12:39:25Z</time>
      </trkpt>
      <trkpt lat="44.38835" lon="5.22889">
        <ele>332.60000610352</ele>
        <time>2021-08-30T12:39:32Z</time>
      </trkpt>
      <trkpt lat="44.38839" lon="5.22946">
        <ele>332.39999389648</ele>
        <time>2021-08-30T12:39:37Z</time>
      </trkpt>
      <trkpt lat="44.38838" lon="5.22968">
        <ele>332.20001220703</ele>
        <time>2021-08-30T12:39:39Z</time>
      </trkpt>
      <trkpt lat="44.38836" lon="5.22978">
        <ele>332.20001220703</ele>
        <time>2021-08-30T12:39:40Z</time>
      </trkpt>
      <trkpt lat="44.3883" lon="5.23009">
        <ele>332</ele>
        <time>2021-08-30T12:39:43Z</time>
      </trkpt>
      <trkpt lat="44.38809" lon="5.23087">
        <ele>331.39999389648</ele>
        <time>2021-08-30T12:39:51Z</time>
      </trkpt>
      <trkpt lat="44.38807" lon="5.23097">
        <ele>331.20001220703</ele>
        <time>2021-08-30T12:39:52Z</time>
      </trkpt>
      <trkpt lat="44.38786" lon="5.23169">
        <ele>330.60000610352</ele>
        <time>2021-08-30T12:40:00Z</time>
      </trkpt>
      <trkpt lat="44.38784" lon="5.23178">
        <ele>330.60000610352</ele>
        <time>2021-08-30T12:40:01Z</time>
      </trkpt>
      <trkpt lat="44.38782" lon="5.23194">
        <ele>330.39999389648</ele>
        <time>2021-08-30T12:40:03Z</time>
      </trkpt>
      <trkpt lat="44.38783" lon="5.23211">
        <ele>330.60000610352</ele>
        <time>2021-08-30T12:40:05Z</time>
      </trkpt>
      <trkpt lat="44.38785" lon="5.23228">
        <ele>330.79998779297</ele>
        <time>2021-08-30T12:40:07Z</time>
      </trkpt>
      <trkpt lat="44.38786" lon="5.23236">
        <ele>330.79998779297</ele>
        <time>2021-08-30T12:40:08Z</time>
      </trkpt>
      <trkpt lat="44.38792" lon="5.23252">
        <ele>330.79998779297</ele>
        <time>2021-08-30T12:40:10Z</time>
      </trkpt>
      <trkpt lat="44.38809" lon="5.23279">
        <ele>331</ele>
        <time>2021-08-30T12:40:14Z</time>
      </trkpt>
      <trkpt lat="44.38815" lon="5.23284">
        <ele>331.20001220703</ele>
        <time>2021-08-30T12:40:15Z</time>
      </trkpt>
      <trkpt lat="44.38842" lon="5.23296">
        <ele>331</ele>
        <time>2021-08-30T12:40:19Z</time>
      </trkpt>
      <trkpt lat="44.38849" lon="5.23298">
        <ele>331</ele>
        <time>2021-08-30T12:40:20Z</time>
      </trkpt>
      <trkpt lat="44.38881" lon="5.23301">
        <ele>330.79998779297</ele>
        <time>2021-08-30T12:40:25Z</time>
      </trkpt>
      <trkpt lat="44.38893" lon="5.23302">
        <ele>330.79998779297</ele>
        <time>2021-08-30T12:40:27Z</time>
      </trkpt>
      <trkpt lat="44.38899" lon="5.23303">
        <ele>330.79998779297</ele>
        <time>2021-08-30T12:40:28Z</time>
      </trkpt>
      <trkpt lat="44.38915" lon="5.23305">
        <ele>331</ele>
        <time>2021-08-30T12:40:31Z</time>
      </trkpt>
      <trkpt lat="44.38968" lon="5.23304">
        <ele>330.60000610352</ele>
        <time>2021-08-30T12:40:41Z</time>
      </trkpt>
      <trkpt lat="44.39022" lon="5.23302">
        <ele>332</ele>
        <time>2021-08-30T12:40:51Z</time>
      </trkpt>
      <trkpt lat="44.39027" lon="5.23301">
        <ele>332</ele>
        <time>2021-08-30T12:40:52Z</time>
      </trkpt>
      <trkpt lat="44.39049" lon="5.233">
        <ele>332.39999389648</ele>
        <time>2021-08-30T12:40:56Z</time>
      </trkpt>
      <trkpt lat="44.39086" lon="5.23299">
        <ele>332.79998779297</ele>
        <time>2021-08-30T12:41:03Z</time>
      </trkpt>
      <trkpt lat="44.39128" lon="5.233">
        <ele>332.79998779297</ele>
        <time>2021-08-30T12:41:11Z</time>
      </trkpt>
      <trkpt lat="44.39165" lon="5.23304">
        <ele>333.20001220703</ele>
        <time>2021-08-30T12:41:18Z</time>
      </trkpt>
      <trkpt lat="44.39207" lon="5.23309">
        <ele>333.39999389648</ele>
        <time>2021-08-30T12:41:26Z</time>
      </trkpt>
      <trkpt lat="44.39212" lon="5.23309">
        <ele>333.39999389648</ele>
        <time>2021-08-30T12:41:27Z</time>
      </trkpt>
      <trkpt lat="44.39249" lon="5.23315">
        <ele>333.60000610352</ele>
        <time>2021-08-30T12:41:34Z</time>
      </trkpt>
      <trkpt lat="44.39281" lon="5.23328">
        <ele>333.60000610352</ele>
        <time>2021-08-30T12:41:40Z</time>
      </trkpt>
      <trkpt lat="44.39319" lon="5.23358">
        <ele>334</ele>
        <time>2021-08-30T12:41:48Z</time>
      </trkpt>
      <trkpt lat="44.39342" lon="5.23377">
        <ele>334.39999389648</ele>
        <time>2021-08-30T12:41:53Z</time>
      </trkpt>
      <trkpt lat="44.39361" lon="5.23391">
        <ele>334.60000610352</ele>
        <time>2021-08-30T12:41:57Z</time>
      </trkpt>
      <trkpt lat="44.39397" lon="5.23408">
        <ele>334.79998779297</ele>
        <time>2021-08-30T12:42:04Z</time>
      </trkpt>
      <trkpt lat="44.39432" lon="5.23414">
        <ele>335.20001220703</ele>
        <time>2021-08-30T12:42:11Z</time>
      </trkpt>
      <trkpt lat="44.39442" lon="5.23414">
        <ele>335.39999389648</ele>
        <time>2021-08-30T12:42:13Z</time>
      </trkpt>
      <trkpt lat="44.39473" lon="5.23417">
        <ele>336</ele>
        <time>2021-08-30T12:42:19Z</time>
      </trkpt>
      <trkpt lat="44.39523" lon="5.23426">
        <ele>336.39999389648</ele>
        <time>2021-08-30T12:42:28Z</time>
      </trkpt>
      <trkpt lat="44.39565" lon="5.23442">
        <ele>336.20001220703</ele>
        <time>2021-08-30T12:42:35Z</time>
      </trkpt>
      <trkpt lat="44.3962" lon="5.2347">
        <ele>336.20001220703</ele>
        <time>2021-08-30T12:42:45Z</time>
      </trkpt>
      <trkpt lat="44.3967" lon="5.23485">
        <ele>336.39999389648</ele>
        <time>2021-08-30T12:42:54Z</time>
      </trkpt>
      <trkpt lat="44.3971" lon="5.23492">
        <ele>336.60000610352</ele>
        <time>2021-08-30T12:43:01Z</time>
      </trkpt>
      <trkpt lat="44.39756" lon="5.235">
        <ele>336.39999389648</ele>
        <time>2021-08-30T12:43:09Z</time>
      </trkpt>
      <trkpt lat="44.39806" lon="5.23509">
        <ele>337</ele>
        <time>2021-08-30T12:43:18Z</time>
      </trkpt>
      <trkpt lat="44.39844" lon="5.23523">
        <ele>337.39999389648</ele>
        <time>2021-08-30T12:43:25Z</time>
      </trkpt>
      <trkpt lat="44.39871" lon="5.23542">
        <ele>337.39999389648</ele>
        <time>2021-08-30T12:43:30Z</time>
      </trkpt>
      <trkpt lat="44.39884" lon="5.23558">
        <ele>337.60000610352</ele>
        <time>2021-08-30T12:43:33Z</time>
      </trkpt>
      <trkpt lat="44.39909" lon="5.2359">
        <ele>337.79998779297</ele>
        <time>2021-08-30T12:43:39Z</time>
      </trkpt>
      <trkpt lat="44.39936" lon="5.23632">
        <ele>337.79998779297</ele>
        <time>2021-08-30T12:43:46Z</time>
      </trkpt>
      <trkpt lat="44.3995" lon="5.23675">
        <ele>337.79998779297</ele>
        <time>2021-08-30T12:43:52Z</time>
      </trkpt>
      <trkpt lat="44.39958" lon="5.23728">
        <ele>338</ele>
        <time>2021-08-30T12:43:59Z</time>
      </trkpt>
      <trkpt lat="44.39971" lon="5.23788">
        <ele>337.60000610352</ele>
        <time>2021-08-30T12:44:07Z</time>
      </trkpt>
      <trkpt lat="44.39982" lon="5.23832">
        <ele>338</ele>
        <time>2021-08-30T12:44:13Z</time>
      </trkpt>
      <trkpt lat="44.39996" lon="5.23876">
        <ele>338</ele>
        <time>2021-08-30T12:44:19Z</time>
      </trkpt>
      <trkpt lat="44.40022" lon="5.2393">
        <ele>337.79998779297</ele>
        <time>2021-08-30T12:44:27Z</time>
      </trkpt>
      <trkpt lat="44.4005" lon="5.23965">
        <ele>337.60000610352</ele>
        <time>2021-08-30T12:44:33Z</time>
      </trkpt>
      <trkpt lat="44.40082" lon="5.23995">
        <ele>337</ele>
        <time>2021-08-30T12:44:39Z</time>
      </trkpt>
      <trkpt lat="44.40108" lon="5.24035">
        <ele>336.79998779297</ele>
        <time>2021-08-30T12:44:45Z</time>
      </trkpt>
      <trkpt lat="44.40115" lon="5.24048">
        <ele>336.60000610352</ele>
        <time>2021-08-30T12:44:47Z</time>
      </trkpt>
      <trkpt lat="44.40122" lon="5.24069">
        <ele>336.60000610352</ele>
        <time>2021-08-30T12:44:50Z</time>
      </trkpt>
      <trkpt lat="44.40132" lon="5.24118">
        <ele>337.39999389648</ele>
        <time>2021-08-30T12:44:57Z</time>
      </trkpt>
      <trkpt lat="44.40134" lon="5.24164">
        <ele>337.79998779297</ele>
        <time>2021-08-30T12:45:04Z</time>
      </trkpt>
      <trkpt lat="44.4013" lon="5.24214">
        <ele>338</ele>
        <time>2021-08-30T12:45:12Z</time>
      </trkpt>
      <trkpt lat="44.40128" lon="5.24246">
        <ele>338.60000610352</ele>
        <time>2021-08-30T12:45:17Z</time>
      </trkpt>
      <trkpt lat="44.40128" lon="5.24259">
        <ele>338.79998779297</ele>
        <time>2021-08-30T12:45:19Z</time>
      </trkpt>
      <trkpt lat="44.40132" lon="5.24331">
        <ele>339.60000610352</ele>
        <time>2021-08-30T12:45:30Z</time>
      </trkpt>
      <trkpt lat="44.40133" lon="5.24344">
        <ele>339.60000610352</ele>
        <time>2021-08-30T12:45:32Z</time>
      </trkpt>
      <trkpt lat="44.40138" lon="5.24384">
        <ele>339.60000610352</ele>
        <time>2021-08-30T12:45:38Z</time>
      </trkpt>
      <trkpt lat="44.40145" lon="5.24447">
        <ele>339</ele>
        <time>2021-08-30T12:45:47Z</time>
      </trkpt>
      <trkpt lat="44.40146" lon="5.24496">
        <ele>339</ele>
        <time>2021-08-30T12:45:54Z</time>
      </trkpt>
      <trkpt lat="44.40139" lon="5.24551">
        <ele>339.39999389648</ele>
        <time>2021-08-30T12:46:02Z</time>
      </trkpt>
      <trkpt lat="44.40135" lon="5.24585">
        <ele>339.60000610352</ele>
        <time>2021-08-30T12:46:07Z</time>
      </trkpt>
      <trkpt lat="44.40135" lon="5.24599">
        <ele>339.60000610352</ele>
        <time>2021-08-30T12:46:09Z</time>
      </trkpt>
      <trkpt lat="44.4014" lon="5.24635">
        <ele>340</ele>
        <time>2021-08-30T12:46:14Z</time>
      </trkpt>
      <trkpt lat="44.40146" lon="5.24656">
        <ele>340.39999389648</ele>
        <time>2021-08-30T12:46:17Z</time>
      </trkpt>
      <trkpt lat="44.40153" lon="5.24669">
        <ele>340.60000610352</ele>
        <time>2021-08-30T12:46:19Z</time>
      </trkpt>
      <trkpt lat="44.40156" lon="5.24675">
        <ele>340.60000610352</ele>
        <time>2021-08-30T12:46:20Z</time>
      </trkpt>
      <trkpt lat="44.40181" lon="5.24729">
        <ele>340.60000610352</ele>
        <time>2021-08-30T12:46:28Z</time>
      </trkpt>
      <trkpt lat="44.40199" lon="5.24785">
        <ele>340.79998779297</ele>
        <time>2021-08-30T12:46:36Z</time>
      </trkpt>
      <trkpt lat="44.40208" lon="5.24812">
        <ele>341.20001220703</ele>
        <time>2021-08-30T12:46:40Z</time>
      </trkpt>
      <trkpt lat="44.40216" lon="5.24831">
        <ele>341.39999389648</ele>
        <time>2021-08-30T12:46:43Z</time>
      </trkpt>
      <trkpt lat="44.40238" lon="5.24864">
        <ele>341.39999389648</ele>
        <time>2021-08-30T12:46:49Z</time>
      </trkpt>
      <trkpt lat="44.40247" lon="5.24873">
        <ele>341.60000610352</ele>
        <time>2021-08-30T12:46:51Z</time>
      </trkpt>
      <trkpt lat="44.40252" lon="5.24878">
        <ele>341.60000610352</ele>
        <time>2021-08-30T12:46:52Z</time>
      </trkpt>
      <trkpt lat="44.40267" lon="5.24888">
        <ele>342</ele>
        <time>2021-08-30T12:46:55Z</time>
      </trkpt>
      <trkpt lat="44.40277" lon="5.24893">
        <ele>342.20001220703</ele>
        <time>2021-08-30T12:46:57Z</time>
      </trkpt>
      <trkpt lat="44.40299" lon="5.24898">
        <ele>342.79998779297</ele>
        <time>2021-08-30T12:47:01Z</time>
      </trkpt>
      <trkpt lat="44.40346" lon="5.24897">
        <ele>343.39999389648</ele>
        <time>2021-08-30T12:47:09Z</time>
      </trkpt>
      <trkpt lat="44.40383" lon="5.24897">
        <ele>343.79998779297</ele>
        <time>2021-08-30T12:47:15Z</time>
      </trkpt>
      <trkpt lat="44.40401" lon="5.249">
        <ele>344</ele>
        <time>2021-08-30T12:47:18Z</time>
      </trkpt>
      <trkpt lat="44.40442" lon="5.24917">
        <ele>344.20001220703</ele>
        <time>2021-08-30T12:47:25Z</time>
      </trkpt>
      <trkpt lat="44.40476" lon="5.24946">
        <ele>344.79998779297</ele>
        <time>2021-08-30T12:47:32Z</time>
      </trkpt>
      <trkpt lat="44.40481" lon="5.2495">
        <ele>344.79998779297</ele>
        <time>2021-08-30T12:47:33Z</time>
      </trkpt>
      <trkpt lat="44.40523" lon="5.24987">
        <ele>345.60000610352</ele>
        <time>2021-08-30T12:47:42Z</time>
      </trkpt>
      <trkpt lat="44.40542" lon="5.25003">
        <ele>345.79998779297</ele>
        <time>2021-08-30T12:47:46Z</time>
      </trkpt>
      <trkpt lat="44.4057" lon="5.25028">
        <ele>345.79998779297</ele>
        <time>2021-08-30T12:47:52Z</time>
      </trkpt>
      <trkpt lat="44.40598" lon="5.25065">
        <ele>346.20001220703</ele>
        <time>2021-08-30T12:47:59Z</time>
      </trkpt>
      <trkpt lat="44.40618" lon="5.25111">
        <ele>346.60000610352</ele>
        <time>2021-08-30T12:48:06Z</time>
      </trkpt>
      <trkpt lat="44.40626" lon="5.2513">
        <ele>346.79998779297</ele>
        <time>2021-08-30T12:48:09Z</time>
      </trkpt>
      <trkpt lat="44.40646" lon="5.25163">
        <ele>347</ele>
        <time>2021-08-30T12:48:15Z</time>
      </trkpt>
      <trkpt lat="44.40677" lon="5.25186">
        <ele>347.39999389648</ele>
        <time>2021-08-30T12:48:22Z</time>
      </trkpt>
      <trkpt lat="44.40682" lon="5.25188">
        <ele>347.39999389648</ele>
        <time>2021-08-30T12:48:23Z</time>
      </trkpt>
      <trkpt lat="44.40704" lon="5.25191">
        <ele>347.39999389648</ele>
        <time>2021-08-30T12:48:27Z</time>
      </trkpt>
      <trkpt lat="44.4075" lon="5.25194">
        <ele>347.79998779297</ele>
        <time>2021-08-30T12:48:35Z</time>
      </trkpt>
      <trkpt lat="44.40777" lon="5.25204">
        <ele>347.79998779297</ele>
        <time>2021-08-30T12:48:40Z</time>
      </trkpt>
      <trkpt lat="44.40788" lon="5.25209">
        <ele>348</ele>
        <time>2021-08-30T12:48:42Z</time>
      </trkpt>
      <trkpt lat="44.40807" lon="5.25227">
        <ele>348.20001220703</ele>
        <time>2021-08-30T12:48:46Z</time>
      </trkpt>
      <trkpt lat="44.40831" lon="5.2526">
        <ele>348.39999389648</ele>
        <time>2021-08-30T12:48:52Z</time>
      </trkpt>
      <trkpt lat="44.40863" lon="5.25318">
        <ele>348.79998779297</ele>
        <time>2021-08-30T12:49:02Z</time>
      </trkpt>
      <trkpt lat="44.40868" lon="5.25328">
        <ele>349</ele>
        <time>2021-08-30T12:49:04Z</time>
      </trkpt>
      <trkpt lat="44.40874" lon="5.25338">
        <ele>349.20001220703</ele>
        <time>2021-08-30T12:49:06Z</time>
      </trkpt>
      <trkpt lat="44.40882" lon="5.25352">
        <ele>349.20001220703</ele>
        <time>2021-08-30T12:49:09Z</time>
      </trkpt>
      <trkpt lat="44.40907" lon="5.25387">
        <ele>349.20001220703</ele>
        <time>2021-08-30T12:49:17Z</time>
      </trkpt>
      <trkpt lat="44.40936" lon="5.25409">
        <ele>349.79998779297</ele>
        <time>2021-08-30T12:49:24Z</time>
      </trkpt>
      <trkpt lat="44.40955" lon="5.2542">
        <ele>350</ele>
        <time>2021-08-30T12:49:28Z</time>
      </trkpt>
      <trkpt lat="44.40974" lon="5.25433">
        <ele>350.20001220703</ele>
        <time>2021-08-30T12:49:32Z</time>
      </trkpt>
      <trkpt lat="44.40999" lon="5.25459">
        <ele>350.39999389648</ele>
        <time>2021-08-30T12:49:38Z</time>
      </trkpt>
      <trkpt lat="44.41037" lon="5.25503">
        <ele>350.60000610352</ele>
        <time>2021-08-30T12:49:47Z</time>
      </trkpt>
      <trkpt lat="44.41055" lon="5.25536">
        <ele>350.20001220703</ele>
        <time>2021-08-30T12:49:52Z</time>
      </trkpt>
      <trkpt lat="44.41062" lon="5.25558">
        <ele>350</ele>
        <time>2021-08-30T12:49:55Z</time>
      </trkpt>
      <trkpt lat="44.41064" lon="5.25573">
        <ele>350</ele>
        <time>2021-08-30T12:49:57Z</time>
      </trkpt>
      <trkpt lat="44.4107" lon="5.25631">
        <ele>350</ele>
        <time>2021-08-30T12:50:05Z</time>
      </trkpt>
      <trkpt lat="44.41078" lon="5.25699">
        <ele>350.20001220703</ele>
        <time>2021-08-30T12:50:15Z</time>
      </trkpt>
      <trkpt lat="44.41093" lon="5.25736">
        <ele>350.39999389648</ele>
        <time>2021-08-30T12:50:21Z</time>
      </trkpt>
      <trkpt lat="44.4112" lon="5.25771">
        <ele>351</ele>
        <time>2021-08-30T12:50:28Z</time>
      </trkpt>
      <trkpt lat="44.41124" lon="5.25776">
        <ele>351.20001220703</ele>
        <time>2021-08-30T12:50:29Z</time>
      </trkpt>
      <trkpt lat="44.41155" lon="5.25818">
        <ele>351.39999389648</ele>
        <time>2021-08-30T12:50:37Z</time>
      </trkpt>
      <trkpt lat="44.41168" lon="5.25862">
        <ele>351.60000610352</ele>
        <time>2021-08-30T12:50:43Z</time>
      </trkpt>
      <trkpt lat="44.41174" lon="5.25893">
        <ele>351.60000610352</ele>
        <time>2021-08-30T12:50:47Z</time>
      </trkpt>
      <trkpt lat="44.41176" lon="5.25909">
        <ele>351.60000610352</ele>
        <time>2021-08-30T12:50:49Z</time>
      </trkpt>
      <trkpt lat="44.41181" lon="5.2594">
        <ele>352</ele>
        <time>2021-08-30T12:50:53Z</time>
      </trkpt>
      <trkpt lat="44.4119" lon="5.25994">
        <ele>352.39999389648</ele>
        <time>2021-08-30T12:51:00Z</time>
      </trkpt>
      <trkpt lat="44.41205" lon="5.26046">
        <ele>352.60000610352</ele>
        <time>2021-08-30T12:51:07Z</time>
      </trkpt>
      <trkpt lat="44.41227" lon="5.26094">
        <ele>352.79998779297</ele>
        <time>2021-08-30T12:51:14Z</time>
      </trkpt>
      <trkpt lat="44.41241" lon="5.26119">
        <ele>353.20001220703</ele>
        <time>2021-08-30T12:51:18Z</time>
      </trkpt>
      <trkpt lat="44.4125" lon="5.26139">
        <ele>353.39999389648</ele>
        <time>2021-08-30T12:51:21Z</time>
      </trkpt>
      <trkpt lat="44.41264" lon="5.26183">
        <ele>354</ele>
        <time>2021-08-30T12:51:27Z</time>
      </trkpt>
      <trkpt lat="44.41267" lon="5.2619">
        <ele>354</ele>
        <time>2021-08-30T12:51:28Z</time>
      </trkpt>
      <trkpt lat="44.41273" lon="5.26203">
        <ele>354.20001220703</ele>
        <time>2021-08-30T12:51:30Z</time>
      </trkpt>
      <trkpt lat="44.41277" lon="5.26209">
        <ele>354.20001220703</ele>
        <time>2021-08-30T12:51:31Z</time>
      </trkpt>
      <trkpt lat="44.41281" lon="5.26215">
        <ele>354.39999389648</ele>
        <time>2021-08-30T12:51:32Z</time>
      </trkpt>
      <trkpt lat="44.41295" lon="5.2623">
        <ele>354.39999389648</ele>
        <time>2021-08-30T12:51:35Z</time>
      </trkpt>
      <trkpt lat="44.41305" lon="5.26238">
        <ele>354.39999389648</ele>
        <time>2021-08-30T12:51:37Z</time>
      </trkpt>
      <trkpt lat="44.4134" lon="5.26268">
        <ele>355.20001220703</ele>
        <time>2021-08-30T12:51:44Z</time>
      </trkpt>
      <trkpt lat="44.41345" lon="5.26273">
        <ele>355.39999389648</ele>
        <time>2021-08-30T12:51:45Z</time>
      </trkpt>
      <trkpt lat="44.41366" lon="5.26301">
        <ele>355.39999389648</ele>
        <time>2021-08-30T12:51:50Z</time>
      </trkpt>
      <trkpt lat="44.41393" lon="5.26346">
        <ele>355.39999389648</ele>
        <time>2021-08-30T12:51:57Z</time>
      </trkpt>
      <trkpt lat="44.4142" lon="5.26408">
        <ele>355.20001220703</ele>
        <time>2021-08-30T12:52:06Z</time>
      </trkpt>
      <trkpt lat="44.41434" lon="5.2645">
        <ele>355.39999389648</ele>
        <time>2021-08-30T12:52:12Z</time>
      </trkpt>
      <trkpt lat="44.41437" lon="5.26465">
        <ele>355.39999389648</ele>
        <time>2021-08-30T12:52:14Z</time>
      </trkpt>
      <trkpt lat="44.4144" lon="5.2648">
        <ele>355.60000610352</ele>
        <time>2021-08-30T12:52:16Z</time>
      </trkpt>
      <trkpt lat="44.41441" lon="5.26504">
        <ele>355.60000610352</ele>
        <time>2021-08-30T12:52:19Z</time>
      </trkpt>
      <trkpt lat="44.41436" lon="5.26562">
        <ele>355.39999389648</ele>
        <time>2021-08-30T12:52:26Z</time>
      </trkpt>
      <trkpt lat="44.4143" lon="5.26629">
        <ele>355.60000610352</ele>
        <time>2021-08-30T12:52:34Z</time>
      </trkpt>
      <trkpt lat="44.41427" lon="5.26669">
        <ele>356</ele>
        <time>2021-08-30T12:52:39Z</time>
      </trkpt>
      <trkpt lat="44.41428" lon="5.2669">
        <ele>356.20001220703</ele>
        <time>2021-08-30T12:52:42Z</time>
      </trkpt>
      <trkpt lat="44.41429" lon="5.26697">
        <ele>356.20001220703</ele>
        <time>2021-08-30T12:52:43Z</time>
      </trkpt>
      <trkpt lat="44.41432" lon="5.26709">
        <ele>356.20001220703</ele>
        <time>2021-08-30T12:52:45Z</time>
      </trkpt>
      <trkpt lat="44.41437" lon="5.26729">
        <ele>356.60000610352</ele>
        <time>2021-08-30T12:52:48Z</time>
      </trkpt>
      <trkpt lat="44.41454" lon="5.26769">
        <ele>356.60000610352</ele>
        <time>2021-08-30T12:52:54Z</time>
      </trkpt>
      <trkpt lat="44.41479" lon="5.26821">
        <ele>357.20001220703</ele>
        <time>2021-08-30T12:53:02Z</time>
      </trkpt>
      <trkpt lat="44.41482" lon="5.26827">
        <ele>357.20001220703</ele>
        <time>2021-08-30T12:53:03Z</time>
      </trkpt>
      <trkpt lat="44.415" lon="5.26867">
        <ele>357.60000610352</ele>
        <time>2021-08-30T12:53:09Z</time>
      </trkpt>
      <trkpt lat="44.41517" lon="5.26914">
        <ele>358.39999389648</ele>
        <time>2021-08-30T12:53:16Z</time>
      </trkpt>
      <trkpt lat="44.41534" lon="5.26942">
        <ele>358.79998779297</ele>
        <time>2021-08-30T12:53:21Z</time>
      </trkpt>
      <trkpt lat="44.41556" lon="5.26964">
        <ele>358.79998779297</ele>
        <time>2021-08-30T12:53:26Z</time>
      </trkpt>
      <trkpt lat="44.41592" lon="5.26989">
        <ele>359.20001220703</ele>
        <time>2021-08-30T12:53:33Z</time>
      </trkpt>
      <trkpt lat="44.41607" lon="5.27001">
        <ele>359.39999389648</ele>
        <time>2021-08-30T12:53:36Z</time>
      </trkpt>
      <trkpt lat="44.41625" lon="5.27017">
        <ele>360</ele>
        <time>2021-08-30T12:53:40Z</time>
      </trkpt>
      <trkpt lat="44.41649" lon="5.27037">
        <ele>360.39999389648</ele>
        <time>2021-08-30T12:53:45Z</time>
      </trkpt>
      <trkpt lat="44.41668" lon="5.27054">
        <ele>360.60000610352</ele>
        <time>2021-08-30T12:53:49Z</time>
      </trkpt>
      <trkpt lat="44.41707" lon="5.27095">
        <ele>361</ele>
        <time>2021-08-30T12:53:58Z</time>
      </trkpt>
      <trkpt lat="44.41742" lon="5.27128">
        <ele>361.20001220703</ele>
        <time>2021-08-30T12:54:06Z</time>
      </trkpt>
      <trkpt lat="44.41751" lon="5.27137">
        <ele>361.39999389648</ele>
        <time>2021-08-30T12:54:08Z</time>
      </trkpt>
      <trkpt lat="44.41773" lon="5.27157">
        <ele>361.79998779297</ele>
        <time>2021-08-30T12:54:13Z</time>
      </trkpt>
      <trkpt lat="44.41814" lon="5.27199">
        <ele>362.60000610352</ele>
        <time>2021-08-30T12:54:23Z</time>
      </trkpt>
      <trkpt lat="44.41855" lon="5.27236">
        <ele>362.39999389648</ele>
        <time>2021-08-30T12:54:32Z</time>
      </trkpt>
      <trkpt lat="44.41888" lon="5.27278">
        <ele>362.60000610352</ele>
        <time>2021-08-30T12:54:40Z</time>
      </trkpt>
      <trkpt lat="44.41925" lon="5.27312">
        <ele>363.20001220703</ele>
        <time>2021-08-30T12:54:48Z</time>
      </trkpt>
      <trkpt lat="44.41959" lon="5.27335">
        <ele>363.39999389648</ele>
        <time>2021-08-30T12:54:55Z</time>
      </trkpt>
      <trkpt lat="44.41992" lon="5.27367">
        <ele>363.60000610352</ele>
        <time>2021-08-30T12:55:02Z</time>
      </trkpt>
      <trkpt lat="44.42005" lon="5.27382">
        <ele>363.60000610352</ele>
        <time>2021-08-30T12:55:05Z</time>
      </trkpt>
      <trkpt lat="44.42034" lon="5.27419">
        <ele>363.79998779297</ele>
        <time>2021-08-30T12:55:12Z</time>
      </trkpt>
      <trkpt lat="44.42076" lon="5.27472">
        <ele>364.60000610352</ele>
        <time>2021-08-30T12:55:22Z</time>
      </trkpt>
      <trkpt lat="44.4208" lon="5.27477">
        <ele>364.60000610352</ele>
        <time>2021-08-30T12:55:23Z</time>
      </trkpt>
      <trkpt lat="44.42114" lon="5.27518">
        <ele>364.60000610352</ele>
        <time>2021-08-30T12:55:31Z</time>
      </trkpt>
      <trkpt lat="44.42118" lon="5.27522">
        <ele>364.60000610352</ele>
        <time>2021-08-30T12:55:32Z</time>
      </trkpt>
      <trkpt lat="44.42151" lon="5.27555">
        <ele>364.79998779297</ele>
        <time>2021-08-30T12:55:39Z</time>
      </trkpt>
      <trkpt lat="44.42195" lon="5.27584">
        <ele>365.20001220703</ele>
        <time>2021-08-30T12:55:47Z</time>
      </trkpt>
      <trkpt lat="44.42218" lon="5.27595">
        <ele>365.60000610352</ele>
        <time>2021-08-30T12:55:51Z</time>
      </trkpt>
      <trkpt lat="44.42229" lon="5.27599">
        <ele>365.79998779297</ele>
        <time>2021-08-30T12:55:53Z</time>
      </trkpt>
      <trkpt lat="44.42273" lon="5.27616">
        <ele>366.60000610352</ele>
        <time>2021-08-30T12:56:01Z</time>
      </trkpt>
      <trkpt lat="44.42284" lon="5.27621">
        <ele>366.60000610352</ele>
        <time>2021-08-30T12:56:03Z</time>
      </trkpt>
      <trkpt lat="44.42316" lon="5.27638">
        <ele>366.79998779297</ele>
        <time>2021-08-30T12:56:09Z</time>
      </trkpt>
      <trkpt lat="44.42358" lon="5.2766">
        <ele>367.39999389648</ele>
        <time>2021-08-30T12:56:17Z</time>
      </trkpt>
      <trkpt lat="44.42396" lon="5.27674">
        <ele>367.60000610352</ele>
        <time>2021-08-30T12:56:24Z</time>
      </trkpt>
      <trkpt lat="44.42439" lon="5.27692">
        <ele>367.60000610352</ele>
        <time>2021-08-30T12:56:32Z</time>
      </trkpt>
      <trkpt lat="44.42445" lon="5.27695">
        <ele>367.60000610352</ele>
        <time>2021-08-30T12:56:33Z</time>
      </trkpt>
      <trkpt lat="44.42496" lon="5.27726">
        <ele>368</ele>
        <time>2021-08-30T12:56:43Z</time>
      </trkpt>
      <trkpt lat="44.42541" lon="5.27755">
        <ele>368.20001220703</ele>
        <time>2021-08-30T12:56:52Z</time>
      </trkpt>
      <trkpt lat="44.42586" lon="5.27783">
        <ele>368.39999389648</ele>
        <time>2021-08-30T12:57:01Z</time>
      </trkpt>
      <trkpt lat="44.42621" lon="5.27806">
        <ele>368.60000610352</ele>
        <time>2021-08-30T12:57:08Z</time>
      </trkpt>
      <trkpt lat="44.42631" lon="5.27814">
        <ele>368.60000610352</ele>
        <time>2021-08-30T12:57:10Z</time>
      </trkpt>
      <trkpt lat="44.42669" lon="5.27849">
        <ele>368.20001220703</ele>
        <time>2021-08-30T12:57:18Z</time>
      </trkpt>
      <trkpt lat="44.42707" lon="5.27896">
        <ele>368.39999389648</ele>
        <time>2021-08-30T12:57:27Z</time>
      </trkpt>
      <trkpt lat="44.42737" lon="5.27945">
        <ele>368.20001220703</ele>
        <time>2021-08-30T12:57:35Z</time>
      </trkpt>
      <trkpt lat="44.42762" lon="5.27969">
        <ele>368.20001220703</ele>
        <time>2021-08-30T12:57:40Z</time>
      </trkpt>
      <trkpt lat="44.42788" lon="5.27985">
        <ele>368.20001220703</ele>
        <time>2021-08-30T12:57:45Z</time>
      </trkpt>
      <trkpt lat="44.42793" lon="5.27984">
        <ele>368.20001220703</ele>
        <time>2021-08-30T12:57:46Z</time>
      </trkpt>
      <trkpt lat="44.42809" lon="5.27974">
        <ele>368.20001220703</ele>
        <time>2021-08-30T12:57:49Z</time>
      </trkpt>
      <trkpt lat="44.42823" lon="5.27948">
        <ele>368</ele>
        <time>2021-08-30T12:57:53Z</time>
      </trkpt>
      <trkpt lat="44.42828" lon="5.27922">
        <ele>367.79998779297</ele>
        <time>2021-08-30T12:57:56Z</time>
      </trkpt>
      <trkpt lat="44.42831" lon="5.27904">
        <ele>367.60000610352</ele>
        <time>2021-08-30T12:57:58Z</time>
      </trkpt>
      <trkpt lat="44.42841" lon="5.27832">
        <ele>367</ele>
        <time>2021-08-30T12:58:06Z</time>
      </trkpt>
      <trkpt lat="44.42846" lon="5.27796">
        <ele>366.60000610352</ele>
        <time>2021-08-30T12:58:10Z</time>
      </trkpt>
      <trkpt lat="44.42855" lon="5.27755">
        <ele>366.60000610352</ele>
        <time>2021-08-30T12:58:15Z</time>
      </trkpt>
      <trkpt lat="44.42878" lon="5.27712">
        <ele>366.60000610352</ele>
        <time>2021-08-30T12:58:21Z</time>
      </trkpt>
      <trkpt lat="44.42912" lon="5.27685">
        <ele>366.79998779297</ele>
        <time>2021-08-30T12:58:27Z</time>
      </trkpt>
      <trkpt lat="44.4295" lon="5.27672">
        <ele>366.79998779297</ele>
        <time>2021-08-30T12:58:33Z</time>
      </trkpt>
      <trkpt lat="44.42983" lon="5.27673">
        <ele>366.79998779297</ele>
        <time>2021-08-30T12:58:38Z</time>
      </trkpt>
      <trkpt lat="44.43016" lon="5.27685">
        <ele>367</ele>
        <time>2021-08-30T12:58:43Z</time>
      </trkpt>
      <trkpt lat="44.4307" lon="5.27714">
        <ele>367.39999389648</ele>
        <time>2021-08-30T12:58:52Z</time>
      </trkpt>
      <trkpt lat="44.43104" lon="5.27737">
        <ele>367.39999389648</ele>
        <time>2021-08-30T12:58:58Z</time>
      </trkpt>
      <trkpt lat="44.43131" lon="5.27763">
        <ele>367.39999389648</ele>
        <time>2021-08-30T12:59:04Z</time>
      </trkpt>
      <trkpt lat="44.43159" lon="5.27799">
        <ele>367.60000610352</ele>
        <time>2021-08-30T12:59:11Z</time>
      </trkpt>
      <trkpt lat="44.43166" lon="5.2781">
        <ele>367.79998779297</ele>
        <time>2021-08-30T12:59:13Z</time>
      </trkpt>
      <trkpt lat="44.43177" lon="5.27831">
        <ele>368</ele>
        <time>2021-08-30T12:59:17Z</time>
      </trkpt>
      <trkpt lat="44.4319" lon="5.27858">
        <ele>368.20001220703</ele>
        <time>2021-08-30T12:59:23Z</time>
      </trkpt>
      <trkpt lat="44.43193" lon="5.27864">
        <ele>368.39999389648</ele>
        <time>2021-08-30T12:59:24Z</time>
      </trkpt>
      <trkpt lat="44.43202" lon="5.27889">
        <ele>368.39999389648</ele>
        <time>2021-08-30T12:59:28Z</time>
      </trkpt>
      <trkpt lat="44.43206" lon="5.27927">
        <ele>368.39999389648</ele>
        <time>2021-08-30T12:59:33Z</time>
      </trkpt>
      <trkpt lat="44.43207" lon="5.27985">
        <ele>368.60000610352</ele>
        <time>2021-08-30T12:59:40Z</time>
      </trkpt>
      <trkpt lat="44.43197" lon="5.28023">
        <ele>368.60000610352</ele>
        <time>2021-08-30T12:59:45Z</time>
      </trkpt>
      <trkpt lat="44.43178" lon="5.28084">
        <ele>368.39999389648</ele>
        <time>2021-08-30T12:59:53Z</time>
      </trkpt>
      <trkpt lat="44.43162" lon="5.28134">
        <ele>368.79998779297</ele>
        <time>2021-08-30T13:00:00Z</time>
      </trkpt>
      <trkpt lat="44.43158" lon="5.28149">
        <ele>368.79998779297</ele>
        <time>2021-08-30T13:00:02Z</time>
      </trkpt>
      <trkpt lat="44.43155" lon="5.28172">
        <ele>369</ele>
        <time>2021-08-30T13:00:05Z</time>
      </trkpt>
      <trkpt lat="44.43157" lon="5.28187">
        <ele>369</ele>
        <time>2021-08-30T13:00:07Z</time>
      </trkpt>
      <trkpt lat="44.43169" lon="5.28214">
        <ele>369.39999389648</ele>
        <time>2021-08-30T13:00:11Z</time>
      </trkpt>
      <trkpt lat="44.43189" lon="5.28226">
        <ele>369.60000610352</ele>
        <time>2021-08-30T13:00:15Z</time>
      </trkpt>
      <trkpt lat="44.43195" lon="5.28226">
        <ele>369.79998779297</ele>
        <time>2021-08-30T13:00:16Z</time>
      </trkpt>
      <trkpt lat="44.432" lon="5.28226">
        <ele>370</ele>
        <time>2021-08-30T13:00:17Z</time>
      </trkpt>
      <trkpt lat="44.43222" lon="5.28222">
        <ele>370.60000610352</ele>
        <time>2021-08-30T13:00:21Z</time>
      </trkpt>
      <trkpt lat="44.43233" lon="5.2822">
        <ele>370.79998779297</ele>
        <time>2021-08-30T13:00:23Z</time>
      </trkpt>
      <trkpt lat="44.4326" lon="5.28214">
        <ele>371.20001220703</ele>
        <time>2021-08-30T13:00:28Z</time>
      </trkpt>
      <trkpt lat="44.43269" lon="5.28213">
        <ele>371.20001220703</ele>
        <time>2021-08-30T13:00:31Z</time>
      </trkpt>
      <trkpt lat="44.43271" lon="5.28212">
        <ele>370.79998779297</ele>
        <time>2021-08-30T13:01:04Z</time>
      </trkpt>
      <trkpt lat="44.43275" lon="5.28211">
        <ele>370.60000610352</ele>
        <time>2021-08-30T13:01:06Z</time>
      </trkpt>
      <trkpt lat="44.43288" lon="5.28214">
        <ele>370.60000610352</ele>
        <time>2021-08-30T13:01:11Z</time>
      </trkpt>
      <trkpt lat="44.43306" lon="5.28232">
        <ele>370.20001220703</ele>
        <time>2021-08-30T13:01:16Z</time>
      </trkpt>
      <trkpt lat="44.43321" lon="5.28259">
        <ele>370.20001220703</ele>
        <time>2021-08-30T13:01:21Z</time>
      </trkpt>
      <trkpt lat="44.43325" lon="5.28293">
        <ele>370.79998779297</ele>
        <time>2021-08-30T13:01:26Z</time>
      </trkpt>
      <trkpt lat="44.4332" lon="5.2832">
        <ele>370.39999389648</ele>
        <time>2021-08-30T13:01:30Z</time>
      </trkpt>
      <trkpt lat="44.43319" lon="5.28327">
        <ele>370.20001220703</ele>
        <time>2021-08-30T13:01:31Z</time>
      </trkpt>
      <trkpt lat="44.43308" lon="5.28358">
        <ele>371</ele>
        <time>2021-08-30T13:01:36Z</time>
      </trkpt>
      <trkpt lat="44.43303" lon="5.2837">
        <ele>371.79998779297</ele>
        <time>2021-08-30T13:01:38Z</time>
      </trkpt>
      <trkpt lat="44.43298" lon="5.28382">
        <ele>372.20001220703</ele>
        <time>2021-08-30T13:01:40Z</time>
      </trkpt>
      <trkpt lat="44.43289" lon="5.284">
        <ele>372</ele>
        <time>2021-08-30T13:01:43Z</time>
      </trkpt>
      <trkpt lat="44.43258" lon="5.28458">
        <ele>372.60000610352</ele>
        <time>2021-08-30T13:01:53Z</time>
      </trkpt>
      <trkpt lat="44.4325" lon="5.28474">
        <ele>373</ele>
        <time>2021-08-30T13:01:56Z</time>
      </trkpt>
      <trkpt lat="44.43245" lon="5.28484">
        <ele>373.20001220703</ele>
        <time>2021-08-30T13:01:58Z</time>
      </trkpt>
      <trkpt lat="44.43242" lon="5.28489">
        <ele>373.20001220703</ele>
        <time>2021-08-30T13:01:59Z</time>
      </trkpt>
      <trkpt lat="44.43233" lon="5.28504">
        <ele>373.20001220703</ele>
        <time>2021-08-30T13:02:02Z</time>
      </trkpt>
      <trkpt lat="44.43226" lon="5.28521">
        <ele>374</ele>
        <time>2021-08-30T13:02:05Z</time>
      </trkpt>
      <trkpt lat="44.43223" lon="5.28527">
        <ele>374.20001220703</ele>
        <time>2021-08-30T13:02:06Z</time>
      </trkpt>
      <trkpt lat="44.43206" lon="5.28566">
        <ele>374.79998779297</ele>
        <time>2021-08-30T13:02:13Z</time>
      </trkpt>
      <trkpt lat="44.43194" lon="5.2861">
        <ele>373.60000610352</ele>
        <time>2021-08-30T13:02:20Z</time>
      </trkpt>
      <trkpt lat="44.43191" lon="5.2866">
        <ele>374</ele>
        <time>2021-08-30T13:02:27Z</time>
      </trkpt>
      <trkpt lat="44.43192" lon="5.28724">
        <ele>374.20001220703</ele>
        <time>2021-08-30T13:02:36Z</time>
      </trkpt>
      <trkpt lat="44.43195" lon="5.28766">
        <ele>374.20001220703</ele>
        <time>2021-08-30T13:02:43Z</time>
      </trkpt>
      <trkpt lat="44.43197" lon="5.28773">
        <ele>374.20001220703</ele>
        <time>2021-08-30T13:02:44Z</time>
      </trkpt>
      <trkpt lat="44.43212" lon="5.28794">
        <ele>374.39999389648</ele>
        <time>2021-08-30T13:02:48Z</time>
      </trkpt>
      <trkpt lat="44.43232" lon="5.288">
        <ele>374.60000610352</ele>
        <time>2021-08-30T13:02:52Z</time>
      </trkpt>
      <trkpt lat="44.43254" lon="5.28795">
        <ele>374.79998779297</ele>
        <time>2021-08-30T13:02:56Z</time>
      </trkpt>
      <trkpt lat="44.43259" lon="5.28793">
        <ele>375</ele>
        <time>2021-08-30T13:02:57Z</time>
      </trkpt>
      <trkpt lat="44.43282" lon="5.28787">
        <ele>375</ele>
        <time>2021-08-30T13:03:01Z</time>
      </trkpt>
      <trkpt lat="44.43288" lon="5.28786">
        <ele>375</ele>
        <time>2021-08-30T13:03:02Z</time>
      </trkpt>
      <trkpt lat="44.43294" lon="5.28786">
        <ele>375.20001220703</ele>
        <time>2021-08-30T13:03:03Z</time>
      </trkpt>
      <trkpt lat="44.43323" lon="5.28792">
        <ele>375.60000610352</ele>
        <time>2021-08-30T13:03:08Z</time>
      </trkpt>
      <trkpt lat="44.4334" lon="5.288">
        <ele>375.79998779297</ele>
        <time>2021-08-30T13:03:11Z</time>
      </trkpt>
      <trkpt lat="44.4335" lon="5.28809">
        <ele>376</ele>
        <time>2021-08-30T13:03:13Z</time>
      </trkpt>
      <trkpt lat="44.43359" lon="5.2882">
        <ele>376.20001220703</ele>
        <time>2021-08-30T13:03:15Z</time>
      </trkpt>
      <trkpt lat="44.43368" lon="5.2884">
        <ele>376.39999389648</ele>
        <time>2021-08-30T13:03:18Z</time>
      </trkpt>
      <trkpt lat="44.43383" lon="5.28881">
        <ele>377.20001220703</ele>
        <time>2021-08-30T13:03:24Z</time>
      </trkpt>
      <trkpt lat="44.43388" lon="5.28894">
        <ele>377.39999389648</ele>
        <time>2021-08-30T13:03:26Z</time>
      </trkpt>
      <trkpt lat="44.43398" lon="5.28919">
        <ele>376.79998779297</ele>
        <time>2021-08-30T13:03:30Z</time>
      </trkpt>
      <trkpt lat="44.43403" lon="5.28931">
        <ele>376.60000610352</ele>
        <time>2021-08-30T13:03:32Z</time>
      </trkpt>
      <trkpt lat="44.43415" lon="5.28971">
        <ele>377</ele>
        <time>2021-08-30T13:03:38Z</time>
      </trkpt>
      <trkpt lat="44.43435" lon="5.29035">
        <ele>377.20001220703</ele>
        <time>2021-08-30T13:03:47Z</time>
      </trkpt>
      <trkpt lat="44.43447" lon="5.29096">
        <ele>377.79998779297</ele>
        <time>2021-08-30T13:03:55Z</time>
      </trkpt>
      <trkpt lat="44.4345" lon="5.29129">
        <ele>378.20001220703</ele>
        <time>2021-08-30T13:03:59Z</time>
      </trkpt>
      <trkpt lat="44.43449" lon="5.29161">
        <ele>378.39999389648</ele>
        <time>2021-08-30T13:04:03Z</time>
      </trkpt>
      <trkpt lat="44.43447" lon="5.29234">
        <ele>378.39999389648</ele>
        <time>2021-08-30T13:04:12Z</time>
      </trkpt>
      <trkpt lat="44.43448" lon="5.29257">
        <ele>378.79998779297</ele>
        <time>2021-08-30T13:04:15Z</time>
      </trkpt>
      <trkpt lat="44.43453" lon="5.2928">
        <ele>379</ele>
        <time>2021-08-30T13:04:18Z</time>
      </trkpt>
      <trkpt lat="44.43458" lon="5.29295">
        <ele>379.39999389648</ele>
        <time>2021-08-30T13:04:20Z</time>
      </trkpt>
      <trkpt lat="44.43466" lon="5.29314">
        <ele>379.60000610352</ele>
        <time>2021-08-30T13:04:23Z</time>
      </trkpt>
      <trkpt lat="44.43469" lon="5.2932">
        <ele>379.60000610352</ele>
        <time>2021-08-30T13:04:24Z</time>
      </trkpt>
      <trkpt lat="44.43489" lon="5.29348">
        <ele>380</ele>
        <time>2021-08-30T13:04:29Z</time>
      </trkpt>
      <trkpt lat="44.43493" lon="5.29351">
        <ele>380.20001220703</ele>
        <time>2021-08-30T13:04:30Z</time>
      </trkpt>
      <trkpt lat="44.43502" lon="5.29358">
        <ele>380.39999389648</ele>
        <time>2021-08-30T13:04:32Z</time>
      </trkpt>
      <trkpt lat="44.43519" lon="5.2936">
        <ele>380.60000610352</ele>
        <time>2021-08-30T13:04:35Z</time>
      </trkpt>
      <trkpt lat="44.43539" lon="5.29347">
        <ele>380.79998779297</ele>
        <time>2021-08-30T13:04:39Z</time>
      </trkpt>
      <trkpt lat="44.43544" lon="5.29342">
        <ele>380.79998779297</ele>
        <time>2021-08-30T13:04:40Z</time>
      </trkpt>
      <trkpt lat="44.43548" lon="5.29337">
        <ele>380.79998779297</ele>
        <time>2021-08-30T13:04:41Z</time>
      </trkpt>
      <trkpt lat="44.4356" lon="5.29318">
        <ele>381</ele>
        <time>2021-08-30T13:04:44Z</time>
      </trkpt>
      <trkpt lat="44.43594" lon="5.29268">
        <ele>381.39999389648</ele>
        <time>2021-08-30T13:04:52Z</time>
      </trkpt>
      <trkpt lat="44.43604" lon="5.29258">
        <ele>381.60000610352</ele>
        <time>2021-08-30T13:04:54Z</time>
      </trkpt>
      <trkpt lat="44.43615" lon="5.2925">
        <ele>381.60000610352</ele>
        <time>2021-08-30T13:04:56Z</time>
      </trkpt>
      <trkpt lat="44.43632" lon="5.29243">
        <ele>382</ele>
        <time>2021-08-30T13:04:59Z</time>
      </trkpt>
      <trkpt lat="44.43657" lon="5.29244">
        <ele>382.20001220703</ele>
        <time>2021-08-30T13:05:03Z</time>
      </trkpt>
      <trkpt lat="44.43669" lon="5.29249">
        <ele>382.20001220703</ele>
        <time>2021-08-30T13:05:05Z</time>
      </trkpt>
      <trkpt lat="44.43685" lon="5.29259">
        <ele>382.39999389648</ele>
        <time>2021-08-30T13:05:08Z</time>
      </trkpt>
      <trkpt lat="44.43713" lon="5.29288">
        <ele>382.79998779297</ele>
        <time>2021-08-30T13:05:14Z</time>
      </trkpt>
      <trkpt lat="44.43733" lon="5.29324">
        <ele>383</ele>
        <time>2021-08-30T13:05:20Z</time>
      </trkpt>
      <trkpt lat="44.43745" lon="5.29349">
        <ele>383.20001220703</ele>
        <time>2021-08-30T13:05:24Z</time>
      </trkpt>
      <trkpt lat="44.43749" lon="5.29364">
        <ele>383.39999389648</ele>
        <time>2021-08-30T13:05:26Z</time>
      </trkpt>
      <trkpt lat="44.43747" lon="5.29394">
        <ele>383.39999389648</ele>
        <time>2021-08-30T13:05:30Z</time>
      </trkpt>
      <trkpt lat="44.43744" lon="5.29407">
        <ele>383.39999389648</ele>
        <time>2021-08-30T13:05:32Z</time>
      </trkpt>
      <trkpt lat="44.4374" lon="5.29421">
        <ele>383.39999389648</ele>
        <time>2021-08-30T13:05:34Z</time>
      </trkpt>
      <trkpt lat="44.43733" lon="5.2944">
        <ele>383.39999389648</ele>
        <time>2021-08-30T13:05:37Z</time>
      </trkpt>
      <trkpt lat="44.4371" lon="5.29489">
        <ele>383.60000610352</ele>
        <time>2021-08-30T13:05:45Z</time>
      </trkpt>
      <trkpt lat="44.43693" lon="5.29517">
        <ele>383.79998779297</ele>
        <time>2021-08-30T13:05:50Z</time>
      </trkpt>
      <trkpt lat="44.43684" lon="5.29527">
        <ele>383.79998779297</ele>
        <time>2021-08-30T13:05:52Z</time>
      </trkpt>
      <trkpt lat="44.43644" lon="5.29575">
        <ele>384.39999389648</ele>
        <time>2021-08-30T13:06:01Z</time>
      </trkpt>
      <trkpt lat="44.43635" lon="5.29585">
        <ele>384.39999389648</ele>
        <time>2021-08-30T13:06:03Z</time>
      </trkpt>
      <trkpt lat="44.43611" lon="5.29613">
        <ele>385.20001220703</ele>
        <time>2021-08-30T13:06:09Z</time>
      </trkpt>
      <trkpt lat="44.43593" lon="5.29635">
        <ele>385.60000610352</ele>
        <time>2021-08-30T13:06:14Z</time>
      </trkpt>
      <trkpt lat="44.43575" lon="5.29659">
        <ele>385.79998779297</ele>
        <time>2021-08-30T13:06:19Z</time>
      </trkpt>
      <trkpt lat="44.43543" lon="5.297">
        <ele>386.39999389648</ele>
        <time>2021-08-30T13:06:28Z</time>
      </trkpt>
      <trkpt lat="44.43514" lon="5.29738">
        <ele>386.60000610352</ele>
        <time>2021-08-30T13:06:37Z</time>
      </trkpt>
      <trkpt lat="44.43511" lon="5.29742">
        <ele>386.60000610352</ele>
        <time>2021-08-30T13:06:38Z</time>
      </trkpt>
      <trkpt lat="44.43492" lon="5.29766">
        <ele>387</ele>
        <time>2021-08-30T13:06:44Z</time>
      </trkpt>
      <trkpt lat="44.43488" lon="5.29769">
        <ele>387.20001220703</ele>
        <time>2021-08-30T13:06:45Z</time>
      </trkpt>
      <trkpt lat="44.43466" lon="5.29772">
        <ele>387.39999389648</ele>
        <time>2021-08-30T13:06:50Z</time>
      </trkpt>
      <trkpt lat="44.43462" lon="5.29771">
        <ele>387.39999389648</ele>
        <time>2021-08-30T13:06:51Z</time>
      </trkpt>
      <trkpt lat="44.43442" lon="5.29767">
        <ele>387.60000610352</ele>
        <time>2021-08-30T13:06:55Z</time>
      </trkpt>
      <trkpt lat="44.43432" lon="5.29763">
        <ele>387.79998779297</ele>
        <time>2021-08-30T13:06:57Z</time>
      </trkpt>
      <trkpt lat="44.43411" lon="5.2976">
        <ele>388.20001220703</ele>
        <time>2021-08-30T13:07:01Z</time>
      </trkpt>
      <trkpt lat="44.434" lon="5.29762">
        <ele>388.39999389648</ele>
        <time>2021-08-30T13:07:03Z</time>
      </trkpt>
      <trkpt lat="44.43388" lon="5.29767">
        <ele>388.39999389648</ele>
        <time>2021-08-30T13:07:05Z</time>
      </trkpt>
      <trkpt lat="44.43365" lon="5.29777">
        <ele>388.39999389648</ele>
        <time>2021-08-30T13:07:09Z</time>
      </trkpt>
      <trkpt lat="44.43359" lon="5.29778">
        <ele>388.39999389648</ele>
        <time>2021-08-30T13:07:10Z</time>
      </trkpt>
      <trkpt lat="44.43353" lon="5.29778">
        <ele>388.39999389648</ele>
        <time>2021-08-30T13:07:11Z</time>
      </trkpt>
      <trkpt lat="44.43334" lon="5.29778">
        <ele>388</ele>
        <time>2021-08-30T13:07:14Z</time>
      </trkpt>
      <trkpt lat="44.4331" lon="5.29773">
        <ele>387.79998779297</ele>
        <time>2021-08-30T13:07:18Z</time>
      </trkpt>
      <trkpt lat="44.43298" lon="5.29768">
        <ele>388</ele>
        <time>2021-08-30T13:07:20Z</time>
      </trkpt>
      <trkpt lat="44.43293" lon="5.29764">
        <ele>388</ele>
        <time>2021-08-30T13:07:21Z</time>
      </trkpt>
      <trkpt lat="44.43273" lon="5.2975">
        <ele>388.20001220703</ele>
        <time>2021-08-30T13:07:25Z</time>
      </trkpt>
      <trkpt lat="44.43256" lon="5.29745">
        <ele>388.39999389648</ele>
        <time>2021-08-30T13:07:28Z</time>
      </trkpt>
      <trkpt lat="44.43245" lon="5.29746">
        <ele>388.39999389648</ele>
        <time>2021-08-30T13:07:30Z</time>
      </trkpt>
      <trkpt lat="44.43229" lon="5.29751">
        <ele>388.39999389648</ele>
        <time>2021-08-30T13:07:33Z</time>
      </trkpt>
      <trkpt lat="44.43219" lon="5.29759">
        <ele>388.39999389648</ele>
        <time>2021-08-30T13:07:35Z</time>
      </trkpt>
      <trkpt lat="44.43209" lon="5.29768">
        <ele>388.60000610352</ele>
        <time>2021-08-30T13:07:37Z</time>
      </trkpt>
      <trkpt lat="44.432" lon="5.29778">
        <ele>388.60000610352</ele>
        <time>2021-08-30T13:07:39Z</time>
      </trkpt>
      <trkpt lat="44.43193" lon="5.2979">
        <ele>388.60000610352</ele>
        <time>2021-08-30T13:07:41Z</time>
      </trkpt>
      <trkpt lat="44.43184" lon="5.2981">
        <ele>388.60000610352</ele>
        <time>2021-08-30T13:07:44Z</time>
      </trkpt>
      <trkpt lat="44.43177" lon="5.29833">
        <ele>388.39999389648</ele>
        <time>2021-08-30T13:07:47Z</time>
      </trkpt>
      <trkpt lat="44.43156" lon="5.29905">
        <ele>388</ele>
        <time>2021-08-30T13:07:56Z</time>
      </trkpt>
      <trkpt lat="44.43136" lon="5.29955">
        <ele>387.79998779297</ele>
        <time>2021-08-30T13:08:03Z</time>
      </trkpt>
      <trkpt lat="44.43109" lon="5.3">
        <ele>388</ele>
        <time>2021-08-30T13:08:10Z</time>
      </trkpt>
      <trkpt lat="44.43091" lon="5.30049">
        <ele>388.60000610352</ele>
        <time>2021-08-30T13:08:17Z</time>
      </trkpt>
      <trkpt lat="44.43089" lon="5.30056">
        <ele>388.79998779297</ele>
        <time>2021-08-30T13:08:18Z</time>
      </trkpt>
      <trkpt lat="44.43082" lon="5.30109">
        <ele>388.79998779297</ele>
        <time>2021-08-30T13:08:25Z</time>
      </trkpt>
      <trkpt lat="44.43082" lon="5.30162">
        <ele>389</ele>
        <time>2021-08-30T13:08:32Z</time>
      </trkpt>
      <trkpt lat="44.43089" lon="5.3022">
        <ele>389.39999389648</ele>
        <time>2021-08-30T13:08:40Z</time>
      </trkpt>
      <trkpt lat="44.43104" lon="5.3027">
        <ele>389.20001220703</ele>
        <time>2021-08-30T13:08:47Z</time>
      </trkpt>
      <trkpt lat="44.4313" lon="5.3032">
        <ele>389.39999389648</ele>
        <time>2021-08-30T13:08:55Z</time>
      </trkpt>
      <trkpt lat="44.43143" lon="5.30335">
        <ele>389.60000610352</ele>
        <time>2021-08-30T13:08:58Z</time>
      </trkpt>
      <trkpt lat="44.43148" lon="5.30339">
        <ele>389.79998779297</ele>
        <time>2021-08-30T13:08:59Z</time>
      </trkpt>
      <trkpt lat="44.43158" lon="5.30347">
        <ele>389.79998779297</ele>
        <time>2021-08-30T13:09:01Z</time>
      </trkpt>
      <trkpt lat="44.43177" lon="5.30362">
        <ele>390</ele>
        <time>2021-08-30T13:09:05Z</time>
      </trkpt>
      <trkpt lat="44.43193" lon="5.3037">
        <ele>390</ele>
        <time>2021-08-30T13:09:08Z</time>
      </trkpt>
      <trkpt lat="44.43215" lon="5.30383">
        <ele>390</ele>
        <time>2021-08-30T13:09:12Z</time>
      </trkpt>
      <trkpt lat="44.43225" lon="5.30394">
        <ele>390.20001220703</ele>
        <time>2021-08-30T13:09:14Z</time>
      </trkpt>
      <trkpt lat="44.43241" lon="5.30421">
        <ele>390.20001220703</ele>
        <time>2021-08-30T13:09:18Z</time>
      </trkpt>
      <trkpt lat="44.43249" lon="5.30462">
        <ele>390.20001220703</ele>
        <time>2021-08-30T13:09:23Z</time>
      </trkpt>
      <trkpt lat="44.43256" lon="5.30501">
        <ele>390.79998779297</ele>
        <time>2021-08-30T13:09:28Z</time>
      </trkpt>
      <trkpt lat="44.43258" lon="5.30517">
        <ele>391</ele>
        <time>2021-08-30T13:09:30Z</time>
      </trkpt>
      <trkpt lat="44.43269" lon="5.30575">
        <ele>391.79998779297</ele>
        <time>2021-08-30T13:09:38Z</time>
      </trkpt>
      <trkpt lat="44.43272" lon="5.3059">
        <ele>392</ele>
        <time>2021-08-30T13:09:40Z</time>
      </trkpt>
      <trkpt lat="44.43287" lon="5.30644">
        <ele>392.39999389648</ele>
        <time>2021-08-30T13:09:48Z</time>
      </trkpt>
      <trkpt lat="44.43297" lon="5.30678">
        <ele>392.79998779297</ele>
        <time>2021-08-30T13:09:53Z</time>
      </trkpt>
      <trkpt lat="44.43301" lon="5.30699">
        <ele>393</ele>
        <time>2021-08-30T13:09:56Z</time>
      </trkpt>
      <trkpt lat="44.43302" lon="5.30735">
        <ele>393.20001220703</ele>
        <time>2021-08-30T13:10:01Z</time>
      </trkpt>
      <trkpt lat="44.43301" lon="5.30743">
        <ele>393.39999389648</ele>
        <time>2021-08-30T13:10:02Z</time>
      </trkpt>
      <trkpt lat="44.43294" lon="5.30764">
        <ele>393.60000610352</ele>
        <time>2021-08-30T13:10:05Z</time>
      </trkpt>
      <trkpt lat="44.43288" lon="5.30776">
        <ele>393.79998779297</ele>
        <time>2021-08-30T13:10:07Z</time>
      </trkpt>
      <trkpt lat="44.43286" lon="5.30782">
        <ele>394</ele>
        <time>2021-08-30T13:10:08Z</time>
      </trkpt>
      <trkpt lat="44.43267" lon="5.30818">
        <ele>394.60000610352</ele>
        <time>2021-08-30T13:10:14Z</time>
      </trkpt>
      <trkpt lat="44.43235" lon="5.30861">
        <ele>394.79998779297</ele>
        <time>2021-08-30T13:10:22Z</time>
      </trkpt>
      <trkpt lat="44.43225" lon="5.30877">
        <ele>395</ele>
        <time>2021-08-30T13:10:25Z</time>
      </trkpt>
      <trkpt lat="44.43206" lon="5.30904">
        <ele>395.39999389648</ele>
        <time>2021-08-30T13:10:30Z</time>
      </trkpt>
      <trkpt lat="44.43183" lon="5.30937">
        <ele>396</ele>
        <time>2021-08-30T13:10:36Z</time>
      </trkpt>
      <trkpt lat="44.43179" lon="5.30943">
        <ele>396</ele>
        <time>2021-08-30T13:10:37Z</time>
      </trkpt>
      <trkpt lat="44.43176" lon="5.30949">
        <ele>396</ele>
        <time>2021-08-30T13:10:38Z</time>
      </trkpt>
      <trkpt lat="44.43171" lon="5.30962">
        <ele>396.20001220703</ele>
        <time>2021-08-30T13:10:40Z</time>
      </trkpt>
      <trkpt lat="44.43168" lon="5.30976">
        <ele>396.39999389648</ele>
        <time>2021-08-30T13:10:42Z</time>
      </trkpt>
      <trkpt lat="44.43166" lon="5.3099">
        <ele>396.60000610352</ele>
        <time>2021-08-30T13:10:44Z</time>
      </trkpt>
      <trkpt lat="44.43164" lon="5.31018">
        <ele>396.60000610352</ele>
        <time>2021-08-30T13:10:48Z</time>
      </trkpt>
      <trkpt lat="44.4317" lon="5.31062">
        <ele>396.60000610352</ele>
        <time>2021-08-30T13:10:54Z</time>
      </trkpt>
      <trkpt lat="44.43183" lon="5.31122">
        <ele>397</ele>
        <time>2021-08-30T13:11:02Z</time>
      </trkpt>
      <trkpt lat="44.43185" lon="5.31129">
        <ele>397.20001220703</ele>
        <time>2021-08-30T13:11:03Z</time>
      </trkpt>
      <trkpt lat="44.43196" lon="5.31195">
        <ele>397.79998779297</ele>
        <time>2021-08-30T13:11:12Z</time>
      </trkpt>
      <trkpt lat="44.43199" lon="5.31226">
        <ele>398.20001220703</ele>
        <time>2021-08-30T13:11:16Z</time>
      </trkpt>
      <trkpt lat="44.43198" lon="5.31256">
        <ele>398.39999389648</ele>
        <time>2021-08-30T13:11:20Z</time>
      </trkpt>
      <trkpt lat="44.43189" lon="5.31302">
        <ele>398.60000610352</ele>
        <time>2021-08-30T13:11:26Z</time>
      </trkpt>
      <trkpt lat="44.43172" lon="5.31336">
        <ele>399</ele>
        <time>2021-08-30T13:11:31Z</time>
      </trkpt>
      <trkpt lat="44.43161" lon="5.31354">
        <ele>399.20001220703</ele>
        <time>2021-08-30T13:11:34Z</time>
      </trkpt>
      <trkpt lat="44.43143" lon="5.31376">
        <ele>399.60000610352</ele>
        <time>2021-08-30T13:11:38Z</time>
      </trkpt>
      <trkpt lat="44.43121" lon="5.31401">
        <ele>400.39999389648</ele>
        <time>2021-08-30T13:11:43Z</time>
      </trkpt>
      <trkpt lat="44.43103" lon="5.31418">
        <ele>400.60000610352</ele>
        <time>2021-08-30T13:11:47Z</time>
      </trkpt>
      <trkpt lat="44.43072" lon="5.31446">
        <ele>401.39999389648</ele>
        <time>2021-08-30T13:11:54Z</time>
      </trkpt>
      <trkpt lat="44.43067" lon="5.3145">
        <ele>401.39999389648</ele>
        <time>2021-08-30T13:11:55Z</time>
      </trkpt>
      <trkpt lat="44.43027" lon="5.31479">
        <ele>401.79998779297</ele>
        <time>2021-08-30T13:12:04Z</time>
      </trkpt>
      <trkpt lat="44.42995" lon="5.31499">
        <ele>401.79998779297</ele>
        <time>2021-08-30T13:12:11Z</time>
      </trkpt>
      <trkpt lat="44.42956" lon="5.31524">
        <ele>402.20001220703</ele>
        <time>2021-08-30T13:12:19Z</time>
      </trkpt>
      <trkpt lat="44.42945" lon="5.3153">
        <ele>402.39999389648</ele>
        <time>2021-08-30T13:12:21Z</time>
      </trkpt>
      <trkpt lat="44.42929" lon="5.31537">
        <ele>402.39999389648</ele>
        <time>2021-08-30T13:12:24Z</time>
      </trkpt>
      <trkpt lat="44.42923" lon="5.31538">
        <ele>402.39999389648</ele>
        <time>2021-08-30T13:12:25Z</time>
      </trkpt>
      <trkpt lat="44.42881" lon="5.31545">
        <ele>403.39999389648</ele>
        <time>2021-08-30T13:12:33Z</time>
      </trkpt>
      <trkpt lat="44.42877" lon="5.31546">
        <ele>403.39999389648</ele>
        <time>2021-08-30T13:12:34Z</time>
      </trkpt>
      <trkpt lat="44.4285" lon="5.3156">
        <ele>404</ele>
        <time>2021-08-30T13:12:40Z</time>
      </trkpt>
      <trkpt lat="44.42846" lon="5.31563">
        <ele>404</ele>
        <time>2021-08-30T13:12:41Z</time>
      </trkpt>
      <trkpt lat="44.42833" lon="5.31571">
        <ele>404.20001220703</ele>
        <time>2021-08-30T13:12:44Z</time>
      </trkpt>
      <trkpt lat="44.42825" lon="5.31575">
        <ele>404.20001220703</ele>
        <time>2021-08-30T13:12:46Z</time>
      </trkpt>
      <trkpt lat="44.42817" lon="5.31579">
        <ele>404.20001220703</ele>
        <time>2021-08-30T13:12:48Z</time>
      </trkpt>
      <trkpt lat="44.42805" lon="5.31581">
        <ele>404.20001220703</ele>
        <time>2021-08-30T13:12:51Z</time>
      </trkpt>
      <trkpt lat="44.42793" lon="5.31582">
        <ele>404.39999389648</ele>
        <time>2021-08-30T13:12:55Z</time>
      </trkpt>
      <trkpt lat="44.42791" lon="5.31581">
        <ele>404.39999389648</ele>
        <time>2021-08-30T13:12:56Z</time>
      </trkpt>
      <trkpt lat="44.42777" lon="5.31573">
        <ele>404.79998779297</ele>
        <time>2021-08-30T13:13:03Z</time>
      </trkpt>
      <trkpt lat="44.42771" lon="5.31568">
        <ele>405.20001220703</ele>
        <time>2021-08-30T13:13:51Z</time>
      </trkpt>
      <trkpt lat="44.42766" lon="5.3156">
        <ele>405.20001220703</ele>
        <time>2021-08-30T13:13:54Z</time>
      </trkpt>
      <trkpt lat="44.42761" lon="5.31556">
        <ele>405.20001220703</ele>
        <time>2021-08-30T13:13:56Z</time>
      </trkpt>
      <trkpt lat="44.42754" lon="5.31555">
        <ele>405.20001220703</ele>
        <time>2021-08-30T13:13:58Z</time>
      </trkpt>
      <trkpt lat="44.42744" lon="5.31548">
        <ele>405.20001220703</ele>
        <time>2021-08-30T13:14:01Z</time>
      </trkpt>
      <trkpt lat="44.42736" lon="5.31542">
        <ele>405.60000610352</ele>
        <time>2021-08-30T13:14:03Z</time>
      </trkpt>
      <trkpt lat="44.42715" lon="5.31527">
        <ele>406</ele>
        <time>2021-08-30T13:14:08Z</time>
      </trkpt>
      <trkpt lat="44.42707" lon="5.3152">
        <ele>406.20001220703</ele>
        <time>2021-08-30T13:14:10Z</time>
      </trkpt>
      <trkpt lat="44.42698" lon="5.31515">
        <ele>406.39999389648</ele>
        <time>2021-08-30T13:14:12Z</time>
      </trkpt>
      <trkpt lat="44.42689" lon="5.3151">
        <ele>406.60000610352</ele>
        <time>2021-08-30T13:14:14Z</time>
      </trkpt>
      <trkpt lat="44.4268" lon="5.31508">
        <ele>406.79998779297</ele>
        <time>2021-08-30T13:14:16Z</time>
      </trkpt>
      <trkpt lat="44.4267" lon="5.31505">
        <ele>407</ele>
        <time>2021-08-30T13:14:18Z</time>
      </trkpt>
      <trkpt lat="44.42665" lon="5.31505">
        <ele>407.20001220703</ele>
        <time>2021-08-30T13:14:19Z</time>
      </trkpt>
      <trkpt lat="44.42651" lon="5.31506">
        <ele>407.39999389648</ele>
        <time>2021-08-30T13:14:22Z</time>
      </trkpt>
      <trkpt lat="44.42642" lon="5.31507">
        <ele>407.60000610352</ele>
        <time>2021-08-30T13:14:24Z</time>
      </trkpt>
      <trkpt lat="44.42627" lon="5.31513">
        <ele>407.39999389648</ele>
        <time>2021-08-30T13:14:28Z</time>
      </trkpt>
      <trkpt lat="44.42598" lon="5.31528">
        <ele>407.20001220703</ele>
        <time>2021-08-30T13:14:35Z</time>
      </trkpt>
      <trkpt lat="44.42595" lon="5.31531">
        <ele>407.39999389648</ele>
        <time>2021-08-30T13:14:36Z</time>
      </trkpt>
      <trkpt lat="44.42586" lon="5.31537">
        <ele>407.60000610352</ele>
        <time>2021-08-30T13:14:40Z</time>
      </trkpt>
      <trkpt lat="44.42584" lon="5.3154">
        <ele>407.20001220703</ele>
        <time>2021-08-30T13:15:07Z</time>
      </trkpt>
      <trkpt lat="44.42581" lon="5.31544">
        <ele>407.20001220703</ele>
        <time>2021-08-30T13:15:09Z</time>
      </trkpt>
      <trkpt lat="44.42568" lon="5.31562">
        <ele>407</ele>
        <time>2021-08-30T13:15:15Z</time>
      </trkpt>
      <trkpt lat="44.42555" lon="5.31587">
        <ele>407.60000610352</ele>
        <time>2021-08-30T13:15:22Z</time>
      </trkpt>
      <trkpt lat="44.42553" lon="5.31592">
        <ele>407.79998779297</ele>
        <time>2021-08-30T13:15:23Z</time>
      </trkpt>
      <trkpt lat="44.42545" lon="5.31621">
        <ele>408.39999389648</ele>
        <time>2021-08-30T13:15:29Z</time>
      </trkpt>
      <trkpt lat="44.4254" lon="5.31661">
        <ele>408.39999389648</ele>
        <time>2021-08-30T13:15:36Z</time>
      </trkpt>
      <trkpt lat="44.42536" lon="5.31689">
        <ele>408</ele>
        <time>2021-08-30T13:15:41Z</time>
      </trkpt>
      <trkpt lat="44.42535" lon="5.317">
        <ele>408</ele>
        <time>2021-08-30T13:15:43Z</time>
      </trkpt>
      <trkpt lat="44.42531" lon="5.31732">
        <ele>408.39999389648</ele>
        <time>2021-08-30T13:15:50Z</time>
      </trkpt>
      <trkpt lat="44.42529" lon="5.31748">
        <ele>408.60000610352</ele>
        <time>2021-08-30T13:15:54Z</time>
      </trkpt>
      <trkpt lat="44.42528" lon="5.31755">
        <ele>408.79998779297</ele>
        <time>2021-08-30T13:15:56Z</time>
      </trkpt>
      <trkpt lat="44.42531" lon="5.31774">
        <ele>409</ele>
        <time>2021-08-30T13:16:01Z</time>
      </trkpt>
      <trkpt lat="44.42542" lon="5.31777">
        <ele>409.20001220703</ele>
        <time>2021-08-30T13:16:05Z</time>
      </trkpt>
      <trkpt lat="44.42553" lon="5.31766">
        <ele>409.60000610352</ele>
        <time>2021-08-30T13:16:09Z</time>
      </trkpt>
      <trkpt lat="44.42555" lon="5.31763">
        <ele>409.60000610352</ele>
        <time>2021-08-30T13:16:10Z</time>
      </trkpt>
      <trkpt lat="44.42561" lon="5.31758">
        <ele>409.60000610352</ele>
        <time>2021-08-30T13:16:12Z</time>
      </trkpt>
      <trkpt lat="44.42576" lon="5.31742">
        <ele>410</ele>
        <time>2021-08-30T13:16:18Z</time>
      </trkpt>
      <trkpt lat="44.42587" lon="5.31721">
        <ele>410.39999389648</ele>
        <time>2021-08-30T13:16:24Z</time>
      </trkpt>
      <trkpt lat="44.42587" lon="5.31712">
        <ele>410.60000610352</ele>
        <time>2021-08-30T13:16:27Z</time>
      </trkpt>
      <trkpt lat="44.42587" lon="5.31703">
        <ele>411.20001220703</ele>
        <time>2021-08-30T13:16:30Z</time>
      </trkpt>
      <trkpt lat="44.42587" lon="5.31698">
        <ele>411.79998779297</ele>
        <time>2021-08-30T13:16:32Z</time>
      </trkpt>
      <trkpt lat="44.42588" lon="5.31684">
        <ele>413</ele>
        <time>2021-08-30T13:16:37Z</time>
      </trkpt>
      <trkpt lat="44.42589" lon="5.31681">
        <ele>413.20001220703</ele>
        <time>2021-08-30T13:16:38Z</time>
      </trkpt>
      <trkpt lat="44.42591" lon="5.31672">
        <ele>414</ele>
        <time>2021-08-30T13:16:42Z</time>
      </trkpt>
      <trkpt lat="44.42592" lon="5.31667">
        <ele>414.39999389648</ele>
        <time>2021-08-30T13:16:44Z</time>
      </trkpt>
      <trkpt lat="44.42593" lon="5.31665">
        <ele>414.39999389648</ele>
        <time>2021-08-30T13:16:45Z</time>
      </trkpt>
      <trkpt lat="44.42598" lon="5.31655">
        <ele>415.20001220703</ele>
        <time>2021-08-30T13:16:50Z</time>
      </trkpt>
      <trkpt lat="44.42602" lon="5.3165">
        <ele>415.60000610352</ele>
        <time>2021-08-30T13:16:53Z</time>
      </trkpt>
      <trkpt lat="44.42609" lon="5.31646">
        <ele>416.20001220703</ele>
        <time>2021-08-30T13:16:57Z</time>
      </trkpt>
      <trkpt lat="44.42613" lon="5.31645">
        <ele>416.60000610352</ele>
        <time>2021-08-30T13:16:59Z</time>
      </trkpt>
      <trkpt lat="44.42619" lon="5.31645">
        <ele>417.39999389648</ele>
        <time>2021-08-30T13:17:03Z</time>
      </trkpt>
      <trkpt lat="44.42626" lon="5.31649">
        <ele>417.79998779297</ele>
        <time>2021-08-30T13:17:07Z</time>
      </trkpt>
      <trkpt lat="44.42636" lon="5.31654">
        <ele>418.39999389648</ele>
        <time>2021-08-30T13:17:13Z</time>
      </trkpt>
      <trkpt lat="44.4264" lon="5.31657">
        <ele>418.79998779297</ele>
        <time>2021-08-30T13:17:15Z</time>
      </trkpt>
      <trkpt lat="44.42648" lon="5.31662">
        <ele>419.60000610352</ele>
        <time>2021-08-30T13:17:20Z</time>
      </trkpt>
      <trkpt lat="44.42654" lon="5.31666">
        <ele>420</ele>
        <time>2021-08-30T13:17:24Z</time>
      </trkpt>
      <trkpt lat="44.42662" lon="5.31671">
        <ele>420.60000610352</ele>
        <time>2021-08-30T13:17:29Z</time>
      </trkpt>
      <trkpt lat="44.42665" lon="5.31674">
        <ele>420.79998779297</ele>
        <time>2021-08-30T13:17:31Z</time>
      </trkpt>
      <trkpt lat="44.42674" lon="5.31681">
        <ele>421.79998779297</ele>
        <time>2021-08-30T13:17:37Z</time>
      </trkpt>
      <trkpt lat="44.42682" lon="5.3169">
        <ele>422.79998779297</ele>
        <time>2021-08-30T13:17:43Z</time>
      </trkpt>
      <trkpt lat="44.42684" lon="5.31694">
        <ele>423.20001220703</ele>
        <time>2021-08-30T13:17:45Z</time>
      </trkpt>
      <trkpt lat="44.42691" lon="5.31703">
        <ele>424</ele>
        <time>2021-08-30T13:17:50Z</time>
      </trkpt>
      <trkpt lat="44.42697" lon="5.3171">
        <ele>424.60000610352</ele>
        <time>2021-08-30T13:17:54Z</time>
      </trkpt>
      <trkpt lat="44.427" lon="5.31716">
        <ele>425</ele>
        <time>2021-08-30T13:17:57Z</time>
      </trkpt>
      <trkpt lat="44.42708" lon="5.31726">
        <ele>425.79998779297</ele>
        <time>2021-08-30T13:18:03Z</time>
      </trkpt>
      <trkpt lat="44.4271" lon="5.31731">
        <ele>426</ele>
        <time>2021-08-30T13:18:05Z</time>
      </trkpt>
      <trkpt lat="44.42716" lon="5.31739">
        <ele>426.79998779297</ele>
        <time>2021-08-30T13:18:10Z</time>
      </trkpt>
      <trkpt lat="44.42718" lon="5.31743">
        <ele>427.20001220703</ele>
        <time>2021-08-30T13:18:12Z</time>
      </trkpt>
      <trkpt lat="44.42724" lon="5.31753">
        <ele>428.20001220703</ele>
        <time>2021-08-30T13:18:17Z</time>
      </trkpt>
      <trkpt lat="44.42732" lon="5.31764">
        <ele>429.39999389648</ele>
        <time>2021-08-30T13:18:23Z</time>
      </trkpt>
      <trkpt lat="44.42733" lon="5.31767">
        <ele>429.60000610352</ele>
        <time>2021-08-30T13:18:24Z</time>
      </trkpt>
      <trkpt lat="44.42738" lon="5.31776">
        <ele>430.39999389648</ele>
        <time>2021-08-30T13:18:29Z</time>
      </trkpt>
      <trkpt lat="44.42744" lon="5.31785">
        <ele>431.39999389648</ele>
        <time>2021-08-30T13:18:33Z</time>
      </trkpt>
      <trkpt lat="44.42744" lon="5.31787">
        <ele>431.39999389648</ele>
        <time>2021-08-30T13:18:34Z</time>
      </trkpt>
      <trkpt lat="44.42751" lon="5.31798">
        <ele>432.60000610352</ele>
        <time>2021-08-30T13:18:40Z</time>
      </trkpt>
      <trkpt lat="44.42761" lon="5.31808">
        <ele>433.60000610352</ele>
        <time>2021-08-30T13:18:47Z</time>
      </trkpt>
      <trkpt lat="44.42762" lon="5.31809">
        <ele>433.79998779297</ele>
        <time>2021-08-30T13:18:48Z</time>
      </trkpt>
      <trkpt lat="44.4277" lon="5.31814">
        <ele>434.79998779297</ele>
        <time>2021-08-30T13:18:53Z</time>
      </trkpt>
      <trkpt lat="44.42774" lon="5.31819">
        <ele>435.39999389648</ele>
        <time>2021-08-30T13:18:56Z</time>
      </trkpt>
      <trkpt lat="44.42777" lon="5.31821">
        <ele>435.79998779297</ele>
        <time>2021-08-30T13:18:58Z</time>
      </trkpt>
      <trkpt lat="44.42785" lon="5.31826">
        <ele>436.79998779297</ele>
        <time>2021-08-30T13:19:03Z</time>
      </trkpt>
      <trkpt lat="44.42794" lon="5.31833">
        <ele>437.79998779297</ele>
        <time>2021-08-30T13:19:09Z</time>
      </trkpt>
      <trkpt lat="44.42796" lon="5.31834">
        <ele>438</ele>
        <time>2021-08-30T13:19:10Z</time>
      </trkpt>
      <trkpt lat="44.42805" lon="5.31836">
        <ele>439</ele>
        <time>2021-08-30T13:19:15Z</time>
      </trkpt>
      <trkpt lat="44.42809" lon="5.31837">
        <ele>439.20001220703</ele>
        <time>2021-08-30T13:19:17Z</time>
      </trkpt>
      <trkpt lat="44.42814" lon="5.31839">
        <ele>440</ele>
        <time>2021-08-30T13:19:20Z</time>
      </trkpt>
      <trkpt lat="44.42822" lon="5.31841">
        <ele>440.79998779297</ele>
        <time>2021-08-30T13:19:24Z</time>
      </trkpt>
      <trkpt lat="44.42826" lon="5.31841">
        <ele>441.20001220703</ele>
        <time>2021-08-30T13:19:26Z</time>
      </trkpt>
      <trkpt lat="44.42839" lon="5.31844">
        <ele>442.20001220703</ele>
        <time>2021-08-30T13:19:33Z</time>
      </trkpt>
      <trkpt lat="44.42839" lon="5.31847">
        <ele>442.39999389648</ele>
        <time>2021-08-30T13:19:34Z</time>
      </trkpt>
      <trkpt lat="44.42838" lon="5.31851">
        <ele>443</ele>
        <time>2021-08-30T13:19:37Z</time>
      </trkpt>
      <trkpt lat="44.42837" lon="5.31853">
        <ele>443.20001220703</ele>
        <time>2021-08-30T13:19:38Z</time>
      </trkpt>
      <trkpt lat="44.42836" lon="5.31853">
        <ele>443.20001220703</ele>
        <time>2021-08-30T13:19:39Z</time>
      </trkpt>
      <trkpt lat="44.42831" lon="5.31852">
        <ele>444</ele>
        <time>2021-08-30T13:20:03Z</time>
      </trkpt>
      <trkpt lat="44.42818" lon="5.31853">
        <ele>444</ele>
        <time>2021-08-30T13:20:10Z</time>
      </trkpt>
      <trkpt lat="44.42806" lon="5.31849">
        <ele>444.79998779297</ele>
        <time>2021-08-30T13:20:16Z</time>
      </trkpt>
      <trkpt lat="44.42804" lon="5.31849">
        <ele>445</ele>
        <time>2021-08-30T13:20:17Z</time>
      </trkpt>
      <trkpt lat="44.4279" lon="5.31849">
        <ele>446</ele>
        <time>2021-08-30T13:20:24Z</time>
      </trkpt>
      <trkpt lat="44.42786" lon="5.31849">
        <ele>446.39999389648</ele>
        <time>2021-08-30T13:20:26Z</time>
      </trkpt>
      <trkpt lat="44.42776" lon="5.31847">
        <ele>447.20001220703</ele>
        <time>2021-08-30T13:20:31Z</time>
      </trkpt>
      <trkpt lat="44.42771" lon="5.31845">
        <ele>447.60000610352</ele>
        <time>2021-08-30T13:20:34Z</time>
      </trkpt>
      <trkpt lat="44.42761" lon="5.31844">
        <ele>448.20001220703</ele>
        <time>2021-08-30T13:20:39Z</time>
      </trkpt>
      <trkpt lat="44.42759" lon="5.31842">
        <ele>448.39999389648</ele>
        <time>2021-08-30T13:20:40Z</time>
      </trkpt>
      <trkpt lat="44.42754" lon="5.31839">
        <ele>449</ele>
        <time>2021-08-30T13:20:43Z</time>
      </trkpt>
      <trkpt lat="44.42752" lon="5.31839">
        <ele>449</ele>
        <time>2021-08-30T13:20:44Z</time>
      </trkpt>
      <trkpt lat="44.42749" lon="5.3184">
        <ele>449.20001220703</ele>
        <time>2021-08-30T13:20:46Z</time>
      </trkpt>
      <trkpt lat="44.42739" lon="5.31837">
        <ele>450.20001220703</ele>
        <time>2021-08-30T13:20:51Z</time>
      </trkpt>
      <trkpt lat="44.42738" lon="5.31836">
        <ele>450.39999389648</ele>
        <time>2021-08-30T13:20:52Z</time>
      </trkpt>
      <trkpt lat="44.42731" lon="5.31833">
        <ele>451.39999389648</ele>
        <time>2021-08-30T13:20:56Z</time>
      </trkpt>
      <trkpt lat="44.42729" lon="5.31831">
        <ele>451.60000610352</ele>
        <time>2021-08-30T13:20:57Z</time>
      </trkpt>
      <trkpt lat="44.42719" lon="5.31824">
        <ele>452.39999389648</ele>
        <time>2021-08-30T13:21:03Z</time>
      </trkpt>
      <trkpt lat="44.42718" lon="5.31823">
        <ele>452.60000610352</ele>
        <time>2021-08-30T13:21:04Z</time>
      </trkpt>
      <trkpt lat="44.42708" lon="5.31815">
        <ele>453.39999389648</ele>
        <time>2021-08-30T13:21:11Z</time>
      </trkpt>
      <trkpt lat="44.427" lon="5.31808">
        <ele>454.20001220703</ele>
        <time>2021-08-30T13:21:17Z</time>
      </trkpt>
      <trkpt lat="44.42697" lon="5.31805">
        <ele>454.60000610352</ele>
        <time>2021-08-30T13:21:19Z</time>
      </trkpt>
      <trkpt lat="44.42695" lon="5.31813">
        <ele>454.79998779297</ele>
        <time>2021-08-30T13:21:44Z</time>
      </trkpt>
      <trkpt lat="44.42696" lon="5.31814">
        <ele>454.79998779297</ele>
        <time>2021-08-30T13:21:45Z</time>
      </trkpt>
      <trkpt lat="44.42699" lon="5.31824">
        <ele>455.60000610352</ele>
        <time>2021-08-30T13:21:50Z</time>
      </trkpt>
      <trkpt lat="44.42699" lon="5.31827">
        <ele>455.79998779297</ele>
        <time>2021-08-30T13:21:51Z</time>
      </trkpt>
      <trkpt lat="44.427" lon="5.31832">
        <ele>456.79998779297</ele>
        <time>2021-08-30T13:21:54Z</time>
      </trkpt>
      <trkpt lat="44.427" lon="5.31838">
        <ele>457.39999389648</ele>
        <time>2021-08-30T13:21:57Z</time>
      </trkpt>
      <trkpt lat="44.427" lon="5.31842">
        <ele>458</ele>
        <time>2021-08-30T13:21:59Z</time>
      </trkpt>
      <trkpt lat="44.42702" lon="5.31844">
        <ele>458.60000610352</ele>
        <time>2021-08-30T13:22:01Z</time>
      </trkpt>
      <trkpt lat="44.427" lon="5.3184">
        <ele>459.79998779297</ele>
        <time>2021-08-30T13:26:17Z</time>
      </trkpt>
      <trkpt lat="44.42701" lon="5.31835">
        <ele>459.60000610352</ele>
        <time>2021-08-30T13:26:19Z</time>
      </trkpt>
      <trkpt lat="44.427" lon="5.31828">
        <ele>458.79998779297</ele>
        <time>2021-08-30T13:26:23Z</time>
      </trkpt>
      <trkpt lat="44.42699" lon="5.31823">
        <ele>458</ele>
        <time>2021-08-30T13:26:26Z</time>
      </trkpt>
      <trkpt lat="44.42698" lon="5.31818">
        <ele>456.79998779297</ele>
        <time>2021-08-30T13:27:47Z</time>
      </trkpt>
      <trkpt lat="44.42697" lon="5.31814">
        <ele>456.79998779297</ele>
        <time>2021-08-30T13:27:49Z</time>
      </trkpt>
      <trkpt lat="44.42697" lon="5.31811">
        <ele>456.60000610352</ele>
        <time>2021-08-30T13:27:50Z</time>
      </trkpt>
      <trkpt lat="44.42698" lon="5.31811">
        <ele>456.39999389648</ele>
        <time>2021-08-30T13:27:51Z</time>
      </trkpt>
      <trkpt lat="44.427" lon="5.31811">
        <ele>456.20001220703</ele>
        <time>2021-08-30T13:27:52Z</time>
      </trkpt>
      <trkpt lat="44.42702" lon="5.31813">
        <ele>455.79998779297</ele>
        <time>2021-08-30T13:27:53Z</time>
      </trkpt>
      <trkpt lat="44.42707" lon="5.31817">
        <ele>455.20001220703</ele>
        <time>2021-08-30T13:27:55Z</time>
      </trkpt>
      <trkpt lat="44.4271" lon="5.31819">
        <ele>455</ele>
        <time>2021-08-30T13:27:56Z</time>
      </trkpt>
      <trkpt lat="44.42723" lon="5.3183">
        <ele>454.20001220703</ele>
        <time>2021-08-30T13:28:01Z</time>
      </trkpt>
      <trkpt lat="44.42726" lon="5.31832">
        <ele>453.79998779297</ele>
        <time>2021-08-30T13:28:02Z</time>
      </trkpt>
      <trkpt lat="44.42734" lon="5.31838">
        <ele>453</ele>
        <time>2021-08-30T13:28:05Z</time>
      </trkpt>
      <trkpt lat="44.42749" lon="5.31845">
        <ele>451.79998779297</ele>
        <time>2021-08-30T13:28:09Z</time>
      </trkpt>
      <trkpt lat="44.42763" lon="5.31847">
        <ele>450.60000610352</ele>
        <time>2021-08-30T13:28:13Z</time>
      </trkpt>
      <trkpt lat="44.42774" lon="5.31847">
        <ele>450</ele>
        <time>2021-08-30T13:28:15Z</time>
      </trkpt>
      <trkpt lat="44.42786" lon="5.31848">
        <ele>449.60000610352</ele>
        <time>2021-08-30T13:28:17Z</time>
      </trkpt>
      <trkpt lat="44.4281" lon="5.3185">
        <ele>448.20001220703</ele>
        <time>2021-08-30T13:28:21Z</time>
      </trkpt>
      <trkpt lat="44.42827" lon="5.31851">
        <ele>447</ele>
        <time>2021-08-30T13:28:24Z</time>
      </trkpt>
      <trkpt lat="44.42834" lon="5.31851">
        <ele>446.20001220703</ele>
        <time>2021-08-30T13:28:26Z</time>
      </trkpt>
      <trkpt lat="44.42837" lon="5.31851">
        <ele>445.60000610352</ele>
        <time>2021-08-30T13:28:27Z</time>
      </trkpt>
      <trkpt lat="44.42842" lon="5.31854">
        <ele>444.39999389648</ele>
        <time>2021-08-30T13:28:30Z</time>
      </trkpt>
      <trkpt lat="44.42849" lon="5.31863">
        <ele>443.79998779297</ele>
        <time>2021-08-30T13:28:35Z</time>
      </trkpt>
      <trkpt lat="44.42849" lon="5.31865">
        <ele>443.79998779297</ele>
        <time>2021-08-30T13:28:36Z</time>
      </trkpt>
      <trkpt lat="44.42853" lon="5.31875">
        <ele>444.79998779297</ele>
        <time>2021-08-30T13:28:41Z</time>
      </trkpt>
      <trkpt lat="44.42854" lon="5.3188">
        <ele>445.20001220703</ele>
        <time>2021-08-30T13:28:43Z</time>
      </trkpt>
      <trkpt lat="44.42855" lon="5.31881">
        <ele>445.60000610352</ele>
        <time>2021-08-30T13:28:44Z</time>
      </trkpt>
      <trkpt lat="44.42856" lon="5.31883">
        <ele>445.60000610352</ele>
        <time>2021-08-30T13:28:45Z</time>
      </trkpt>
      <trkpt lat="44.42858" lon="5.31891">
        <ele>446.60000610352</ele>
        <time>2021-08-30T13:28:49Z</time>
      </trkpt>
      <trkpt lat="44.42858" lon="5.31893">
        <ele>446.79998779297</ele>
        <time>2021-08-30T13:28:50Z</time>
      </trkpt>
      <trkpt lat="44.42856" lon="5.31893">
        <ele>447.60000610352</ele>
        <time>2021-08-30T13:28:53Z</time>
      </trkpt>
      <trkpt lat="44.42856" lon="5.31889">
        <ele>447.60000610352</ele>
        <time>2021-08-30T13:28:54Z</time>
      </trkpt>
      <trkpt lat="44.42852" lon="5.31872">
        <ele>447.79998779297</ele>
        <time>2021-08-30T13:28:57Z</time>
      </trkpt>
      <trkpt lat="44.42849" lon="5.31865">
        <ele>447.79998779297</ele>
        <time>2021-08-30T13:28:58Z</time>
      </trkpt>
      <trkpt lat="44.42842" lon="5.31851">
        <ele>447.60000610352</ele>
        <time>2021-08-30T13:29:00Z</time>
      </trkpt>
      <trkpt lat="44.42832" lon="5.3184">
        <ele>446.20001220703</ele>
        <time>2021-08-30T13:29:03Z</time>
      </trkpt>
      <trkpt lat="44.42829" lon="5.31839">
        <ele>445.60000610352</ele>
        <time>2021-08-30T13:29:04Z</time>
      </trkpt>
      <trkpt lat="44.42824" lon="5.31838">
        <ele>445</ele>
        <time>2021-08-30T13:29:05Z</time>
      </trkpt>
      <trkpt lat="44.42813" lon="5.31835">
        <ele>443.79998779297</ele>
        <time>2021-08-30T13:29:07Z</time>
      </trkpt>
      <trkpt lat="44.42807" lon="5.31833">
        <ele>443.39999389648</ele>
        <time>2021-08-30T13:29:08Z</time>
      </trkpt>
      <trkpt lat="44.42794" lon="5.31829">
        <ele>442.60000610352</ele>
        <time>2021-08-30T13:29:10Z</time>
      </trkpt>
      <trkpt lat="44.4278" lon="5.31821">
        <ele>441.79998779297</ele>
        <time>2021-08-30T13:29:12Z</time>
      </trkpt>
      <trkpt lat="44.42773" lon="5.31815">
        <ele>441.39999389648</ele>
        <time>2021-08-30T13:29:13Z</time>
      </trkpt>
      <trkpt lat="44.42759" lon="5.31802">
        <ele>440.20001220703</ele>
        <time>2021-08-30T13:29:15Z</time>
      </trkpt>
      <trkpt lat="44.42753" lon="5.31797">
        <ele>439.60000610352</ele>
        <time>2021-08-30T13:29:16Z</time>
      </trkpt>
      <trkpt lat="44.42747" lon="5.31789">
        <ele>439.20001220703</ele>
        <time>2021-08-30T13:29:17Z</time>
      </trkpt>
      <trkpt lat="44.42743" lon="5.31781">
        <ele>438.79998779297</ele>
        <time>2021-08-30T13:29:18Z</time>
      </trkpt>
      <trkpt lat="44.42738" lon="5.31774">
        <ele>438.20001220703</ele>
        <time>2021-08-30T13:29:19Z</time>
      </trkpt>
      <trkpt lat="44.42734" lon="5.31767">
        <ele>436.79998779297</ele>
        <time>2021-08-30T13:29:20Z</time>
      </trkpt>
      <trkpt lat="44.42727" lon="5.31753">
        <ele>435.20001220703</ele>
        <time>2021-08-30T13:29:22Z</time>
      </trkpt>
      <trkpt lat="44.42718" lon="5.31736">
        <ele>433.79998779297</ele>
        <time>2021-08-30T13:29:24Z</time>
      </trkpt>
      <trkpt lat="44.42706" lon="5.31719">
        <ele>432.39999389648</ele>
        <time>2021-08-30T13:29:26Z</time>
      </trkpt>
      <trkpt lat="44.42694" lon="5.31701">
        <ele>431</ele>
        <time>2021-08-30T13:29:28Z</time>
      </trkpt>
      <trkpt lat="44.42688" lon="5.31691">
        <ele>430.20001220703</ele>
        <time>2021-08-30T13:29:29Z</time>
      </trkpt>
      <trkpt lat="44.42682" lon="5.31682">
        <ele>429.60000610352</ele>
        <time>2021-08-30T13:29:30Z</time>
      </trkpt>
      <trkpt lat="44.42669" lon="5.31667">
        <ele>428.39999389648</ele>
        <time>2021-08-30T13:29:32Z</time>
      </trkpt>
      <trkpt lat="44.42662" lon="5.31662">
        <ele>427.60000610352</ele>
        <time>2021-08-30T13:29:33Z</time>
      </trkpt>
      <trkpt lat="44.42654" lon="5.31657">
        <ele>426.79998779297</ele>
        <time>2021-08-30T13:29:34Z</time>
      </trkpt>
      <trkpt lat="44.42637" lon="5.31648">
        <ele>425</ele>
        <time>2021-08-30T13:29:36Z</time>
      </trkpt>
      <trkpt lat="44.42627" lon="5.31644">
        <ele>424.20001220703</ele>
        <time>2021-08-30T13:29:37Z</time>
      </trkpt>
      <trkpt lat="44.42618" lon="5.3164">
        <ele>423.39999389648</ele>
        <time>2021-08-30T13:29:38Z</time>
      </trkpt>
      <trkpt lat="44.42611" lon="5.31638">
        <ele>422.79998779297</ele>
        <time>2021-08-30T13:29:39Z</time>
      </trkpt>
      <trkpt lat="44.42604" lon="5.31642">
        <ele>422.20001220703</ele>
        <time>2021-08-30T13:29:40Z</time>
      </trkpt>
      <trkpt lat="44.42591" lon="5.31651">
        <ele>420.79998779297</ele>
        <time>2021-08-30T13:29:42Z</time>
      </trkpt>
      <trkpt lat="44.42581" lon="5.31667">
        <ele>418.20001220703</ele>
        <time>2021-08-30T13:29:44Z</time>
      </trkpt>
      <trkpt lat="44.42575" lon="5.31689">
        <ele>417</ele>
        <time>2021-08-30T13:29:46Z</time>
      </trkpt>
      <trkpt lat="44.42574" lon="5.31702">
        <ele>416.39999389648</ele>
        <time>2021-08-30T13:29:47Z</time>
      </trkpt>
      <trkpt lat="44.42573" lon="5.31713">
        <ele>416</ele>
        <time>2021-08-30T13:29:48Z</time>
      </trkpt>
      <trkpt lat="44.42571" lon="5.31724">
        <ele>415.39999389648</ele>
        <time>2021-08-30T13:29:49Z</time>
      </trkpt>
      <trkpt lat="44.42569" lon="5.31733">
        <ele>415</ele>
        <time>2021-08-30T13:29:50Z</time>
      </trkpt>
      <trkpt lat="44.42566" lon="5.31741">
        <ele>414.39999389648</ele>
        <time>2021-08-30T13:29:51Z</time>
      </trkpt>
      <trkpt lat="44.42563" lon="5.31749">
        <ele>413.60000610352</ele>
        <time>2021-08-30T13:29:52Z</time>
      </trkpt>
      <trkpt lat="44.42558" lon="5.31755">
        <ele>412.79998779297</ele>
        <time>2021-08-30T13:29:53Z</time>
      </trkpt>
      <trkpt lat="44.42553" lon="5.3176">
        <ele>412</ele>
        <time>2021-08-30T13:29:54Z</time>
      </trkpt>
      <trkpt lat="44.42544" lon="5.31769">
        <ele>411</ele>
        <time>2021-08-30T13:29:56Z</time>
      </trkpt>
      <trkpt lat="44.42539" lon="5.31772">
        <ele>410.79998779297</ele>
        <time>2021-08-30T13:29:57Z</time>
      </trkpt>
      <trkpt lat="44.42535" lon="5.31773">
        <ele>410.60000610352</ele>
        <time>2021-08-30T13:29:58Z</time>
      </trkpt>
      <trkpt lat="44.42529" lon="5.31771">
        <ele>409.60000610352</ele>
        <time>2021-08-30T13:30:02Z</time>
      </trkpt>
      <trkpt lat="44.42528" lon="5.31771">
        <ele>409.39999389648</ele>
        <time>2021-08-30T13:30:03Z</time>
      </trkpt>
      <trkpt lat="44.42523" lon="5.31771">
        <ele>409</ele>
        <time>2021-08-30T13:30:06Z</time>
      </trkpt>
      <trkpt lat="44.42521" lon="5.31773">
        <ele>409</ele>
        <time>2021-08-30T13:30:07Z</time>
      </trkpt>
      <trkpt lat="44.42515" lon="5.31786">
        <ele>409</ele>
        <time>2021-08-30T13:30:10Z</time>
      </trkpt>
      <trkpt lat="44.4251" lon="5.31796">
        <ele>409</ele>
        <time>2021-08-30T13:30:12Z</time>
      </trkpt>
      <trkpt lat="44.425" lon="5.31822">
        <ele>409.20001220703</ele>
        <time>2021-08-30T13:30:17Z</time>
      </trkpt>
      <trkpt lat="44.42496" lon="5.3184">
        <ele>409.39999389648</ele>
        <time>2021-08-30T13:30:20Z</time>
      </trkpt>
      <trkpt lat="44.42489" lon="5.31881">
        <ele>410</ele>
        <time>2021-08-30T13:30:27Z</time>
      </trkpt>
      <trkpt lat="44.42485" lon="5.31906">
        <ele>410.20001220703</ele>
        <time>2021-08-30T13:30:32Z</time>
      </trkpt>
      <trkpt lat="44.42485" lon="5.31909">
        <ele>410.20001220703</ele>
        <time>2021-08-30T13:30:33Z</time>
      </trkpt>
      <trkpt lat="44.42487" lon="5.3191">
        <ele>410.39999389648</ele>
        <time>2021-08-30T13:30:35Z</time>
      </trkpt>
      <trkpt lat="44.42487" lon="5.31902">
        <ele>410.20001220703</ele>
        <time>2021-08-30T13:31:15Z</time>
      </trkpt>
      <trkpt lat="44.42482" lon="5.3191">
        <ele>410.20001220703</ele>
        <time>2021-08-30T13:31:18Z</time>
      </trkpt>
      <trkpt lat="44.42481" lon="5.31914">
        <ele>410.20001220703</ele>
        <time>2021-08-30T13:31:19Z</time>
      </trkpt>
      <trkpt lat="44.42471" lon="5.31938">
        <ele>410.20001220703</ele>
        <time>2021-08-30T13:31:24Z</time>
      </trkpt>
      <trkpt lat="44.42458" lon="5.31959">
        <ele>410.60000610352</ele>
        <time>2021-08-30T13:31:29Z</time>
      </trkpt>
      <trkpt lat="44.42455" lon="5.31963">
        <ele>410.60000610352</ele>
        <time>2021-08-30T13:31:30Z</time>
      </trkpt>
      <trkpt lat="44.4245" lon="5.31971">
        <ele>410.79998779297</ele>
        <time>2021-08-30T13:31:32Z</time>
      </trkpt>
      <trkpt lat="44.42431" lon="5.31996">
        <ele>411.39999389648</ele>
        <time>2021-08-30T13:31:38Z</time>
      </trkpt>
      <trkpt lat="44.42421" lon="5.32008">
        <ele>411.60000610352</ele>
        <time>2021-08-30T13:31:41Z</time>
      </trkpt>
      <trkpt lat="44.42415" lon="5.32016">
        <ele>411.60000610352</ele>
        <time>2021-08-30T13:31:43Z</time>
      </trkpt>
      <trkpt lat="44.42411" lon="5.32019">
        <ele>411.79998779297</ele>
        <time>2021-08-30T13:31:44Z</time>
      </trkpt>
      <trkpt lat="44.42396" lon="5.32033">
        <ele>412</ele>
        <time>2021-08-30T13:31:48Z</time>
      </trkpt>
      <trkpt lat="44.42391" lon="5.32035">
        <ele>412</ele>
        <time>2021-08-30T13:31:49Z</time>
      </trkpt>
      <trkpt lat="44.42377" lon="5.32041">
        <ele>412.20001220703</ele>
        <time>2021-08-30T13:31:52Z</time>
      </trkpt>
      <trkpt lat="44.42373" lon="5.32042">
        <ele>412.20001220703</ele>
        <time>2021-08-30T13:31:53Z</time>
      </trkpt>
      <trkpt lat="44.42368" lon="5.32042">
        <ele>412.20001220703</ele>
        <time>2021-08-30T13:31:54Z</time>
      </trkpt>
      <trkpt lat="44.42348" lon="5.32038">
        <ele>412.39999389648</ele>
        <time>2021-08-30T13:31:58Z</time>
      </trkpt>
      <trkpt lat="44.42338" lon="5.32035">
        <ele>412.60000610352</ele>
        <time>2021-08-30T13:32:00Z</time>
      </trkpt>
      <trkpt lat="44.42308" lon="5.3203">
        <ele>413.39999389648</ele>
        <time>2021-08-30T13:32:07Z</time>
      </trkpt>
      <trkpt lat="44.42299" lon="5.3203">
        <ele>413.79998779297</ele>
        <time>2021-08-30T13:32:09Z</time>
      </trkpt>
      <trkpt lat="44.42268" lon="5.3203">
        <ele>414.60000610352</ele>
        <time>2021-08-30T13:32:17Z</time>
      </trkpt>
      <trkpt lat="44.42255" lon="5.32035">
        <ele>414.60000610352</ele>
        <time>2021-08-30T13:32:20Z</time>
      </trkpt>
      <trkpt lat="44.42244" lon="5.32042">
        <ele>414.60000610352</ele>
        <time>2021-08-30T13:32:23Z</time>
      </trkpt>
      <trkpt lat="44.42241" lon="5.32045">
        <ele>414.79998779297</ele>
        <time>2021-08-30T13:32:24Z</time>
      </trkpt>
      <trkpt lat="44.42231" lon="5.32056">
        <ele>415.20001220703</ele>
        <time>2021-08-30T13:32:27Z</time>
      </trkpt>
      <trkpt lat="44.42221" lon="5.32068">
        <ele>415.20001220703</ele>
        <time>2021-08-30T13:32:30Z</time>
      </trkpt>
      <trkpt lat="44.42191" lon="5.32105">
        <ele>414.60000610352</ele>
        <time>2021-08-30T13:32:39Z</time>
      </trkpt>
      <trkpt lat="44.42163" lon="5.32139">
        <ele>414.79998779297</ele>
        <time>2021-08-30T13:32:47Z</time>
      </trkpt>
      <trkpt lat="44.42153" lon="5.32155">
        <ele>415</ele>
        <time>2021-08-30T13:32:50Z</time>
      </trkpt>
      <trkpt lat="44.42146" lon="5.32173">
        <ele>415</ele>
        <time>2021-08-30T13:32:53Z</time>
      </trkpt>
      <trkpt lat="44.42144" lon="5.32186">
        <ele>415.20001220703</ele>
        <time>2021-08-30T13:32:55Z</time>
      </trkpt>
      <trkpt lat="44.42142" lon="5.32215">
        <ele>415.20001220703</ele>
        <time>2021-08-30T13:32:59Z</time>
      </trkpt>
      <trkpt lat="44.42147" lon="5.32259">
        <ele>415.60000610352</ele>
        <time>2021-08-30T13:33:05Z</time>
      </trkpt>
      <trkpt lat="44.4215" lon="5.32281">
        <ele>415.79998779297</ele>
        <time>2021-08-30T13:33:08Z</time>
      </trkpt>
      <trkpt lat="44.42153" lon="5.3232">
        <ele>416</ele>
        <time>2021-08-30T13:33:13Z</time>
      </trkpt>
      <trkpt lat="44.42156" lon="5.32375">
        <ele>416.20001220703</ele>
        <time>2021-08-30T13:33:20Z</time>
      </trkpt>
      <trkpt lat="44.42155" lon="5.32383">
        <ele>416.20001220703</ele>
        <time>2021-08-30T13:33:21Z</time>
      </trkpt>
      <trkpt lat="44.42154" lon="5.3246">
        <ele>416.60000610352</ele>
        <time>2021-08-30T13:33:31Z</time>
      </trkpt>
      <trkpt lat="44.42154" lon="5.32498">
        <ele>416.79998779297</ele>
        <time>2021-08-30T13:33:36Z</time>
      </trkpt>
      <trkpt lat="44.42154" lon="5.3252">
        <ele>417</ele>
        <time>2021-08-30T13:33:39Z</time>
      </trkpt>
      <trkpt lat="44.42155" lon="5.32527">
        <ele>417.20001220703</ele>
        <time>2021-08-30T13:33:40Z</time>
      </trkpt>
      <trkpt lat="44.42165" lon="5.32585">
        <ele>417.79998779297</ele>
        <time>2021-08-30T13:33:48Z</time>
      </trkpt>
      <trkpt lat="44.42167" lon="5.32591">
        <ele>417.79998779297</ele>
        <time>2021-08-30T13:33:49Z</time>
      </trkpt>
      <trkpt lat="44.42182" lon="5.32622">
        <ele>418.20001220703</ele>
        <time>2021-08-30T13:33:54Z</time>
      </trkpt>
      <trkpt lat="44.42211" lon="5.32661">
        <ele>418.60000610352</ele>
        <time>2021-08-30T13:34:01Z</time>
      </trkpt>
      <trkpt lat="44.42244" lon="5.32691">
        <ele>418.60000610352</ele>
        <time>2021-08-30T13:34:08Z</time>
      </trkpt>
      <trkpt lat="44.42278" lon="5.32715">
        <ele>419</ele>
        <time>2021-08-30T13:34:15Z</time>
      </trkpt>
      <trkpt lat="44.42283" lon="5.32717">
        <ele>419</ele>
        <time>2021-08-30T13:34:16Z</time>
      </trkpt>
      <trkpt lat="44.4232" lon="5.32733">
        <ele>419</ele>
        <time>2021-08-30T13:34:23Z</time>
      </trkpt>
      <trkpt lat="44.42333" lon="5.3275">
        <ele>419</ele>
        <time>2021-08-30T13:34:26Z</time>
      </trkpt>
      <trkpt lat="44.42334" lon="5.32775">
        <ele>419</ele>
        <time>2021-08-30T13:34:29Z</time>
      </trkpt>
      <trkpt lat="44.42326" lon="5.3281">
        <ele>419.39999389648</ele>
        <time>2021-08-30T13:34:34Z</time>
      </trkpt>
      <trkpt lat="44.4232" lon="5.32824">
        <ele>419.39999389648</ele>
        <time>2021-08-30T13:34:37Z</time>
      </trkpt>
      <trkpt lat="44.4232" lon="5.32826">
        <ele>419.39999389648</ele>
        <time>2021-08-30T13:34:38Z</time>
      </trkpt>
      <trkpt lat="44.4232" lon="5.32829">
        <ele>419.79998779297</ele>
        <time>2021-08-30T13:35:19Z</time>
      </trkpt>
      <trkpt lat="44.4232" lon="5.32831">
        <ele>419.79998779297</ele>
        <time>2021-08-30T13:35:20Z</time>
      </trkpt>
      <trkpt lat="44.42312" lon="5.3285">
        <ele>419.79998779297</ele>
        <time>2021-08-30T13:35:25Z</time>
      </trkpt>
      <trkpt lat="44.42298" lon="5.32873">
        <ele>419.79998779297</ele>
        <time>2021-08-30T13:35:31Z</time>
      </trkpt>
      <trkpt lat="44.42296" lon="5.32877">
        <ele>420</ele>
        <time>2021-08-30T13:35:32Z</time>
      </trkpt>
      <trkpt lat="44.42126" lon="5.33113">
        <ele>423.39999389648</ele>
        <time>2021-08-30T13:36:18Z</time>
      </trkpt>
      <trkpt lat="44.42119" lon="5.33106">
        <ele>423.60000610352</ele>
        <time>2021-08-30T13:36:20Z</time>
      </trkpt>
      <trkpt lat="44.42109" lon="5.33102">
        <ele>423.79998779297</ele>
        <time>2021-08-30T13:36:22Z</time>
      </trkpt>
      <trkpt lat="44.42092" lon="5.33094">
        <ele>424</ele>
        <time>2021-08-30T13:36:26Z</time>
      </trkpt>
      <trkpt lat="44.42084" lon="5.3309">
        <ele>424.20001220703</ele>
        <time>2021-08-30T13:36:28Z</time>
      </trkpt>
      <trkpt lat="44.42052" lon="5.3307">
        <ele>425</ele>
        <time>2021-08-30T13:36:36Z</time>
      </trkpt>
      <trkpt lat="44.4204" lon="5.33062">
        <ele>425.20001220703</ele>
        <time>2021-08-30T13:36:39Z</time>
      </trkpt>
      <trkpt lat="44.42009" lon="5.3304">
        <ele>425.79998779297</ele>
        <time>2021-08-30T13:36:47Z</time>
      </trkpt>
      <trkpt lat="44.41981" lon="5.33026">
        <ele>426.20001220703</ele>
        <time>2021-08-30T13:36:54Z</time>
      </trkpt>
      <trkpt lat="44.41977" lon="5.33024">
        <ele>426.39999389648</ele>
        <time>2021-08-30T13:36:55Z</time>
      </trkpt>
      <trkpt lat="44.41947" lon="5.33019">
        <ele>427.20001220703</ele>
        <time>2021-08-30T13:37:02Z</time>
      </trkpt>
      <trkpt lat="44.41942" lon="5.33019">
        <ele>427.20001220703</ele>
        <time>2021-08-30T13:37:03Z</time>
      </trkpt>
      <trkpt lat="44.41938" lon="5.3302">
        <ele>427.39999389648</ele>
        <time>2021-08-30T13:37:04Z</time>
      </trkpt>
      <trkpt lat="44.41933" lon="5.33021">
        <ele>427.60000610352</ele>
        <time>2021-08-30T13:37:05Z</time>
      </trkpt>
      <trkpt lat="44.41925" lon="5.33024">
        <ele>427.79998779297</ele>
        <time>2021-08-30T13:37:07Z</time>
      </trkpt>
      <trkpt lat="44.41909" lon="5.33038">
        <ele>428.20001220703</ele>
        <time>2021-08-30T13:37:11Z</time>
      </trkpt>
      <trkpt lat="44.41902" lon="5.33048">
        <ele>428.20001220703</ele>
        <time>2021-08-30T13:37:13Z</time>
      </trkpt>
      <trkpt lat="44.41897" lon="5.33059">
        <ele>428.20001220703</ele>
        <time>2021-08-30T13:37:15Z</time>
      </trkpt>
      <trkpt lat="44.41892" lon="5.3307">
        <ele>428.39999389648</ele>
        <time>2021-08-30T13:37:17Z</time>
      </trkpt>
      <trkpt lat="44.41887" lon="5.33087">
        <ele>428.79998779297</ele>
        <time>2021-08-30T13:37:20Z</time>
      </trkpt>
      <trkpt lat="44.41881" lon="5.33125">
        <ele>429</ele>
        <time>2021-08-30T13:37:26Z</time>
      </trkpt>
      <trkpt lat="44.41881" lon="5.33148">
        <ele>429.39999389648</ele>
        <time>2021-08-30T13:37:30Z</time>
      </trkpt>
      <trkpt lat="44.41881" lon="5.33172">
        <ele>429.79998779297</ele>
        <time>2021-08-30T13:37:34Z</time>
      </trkpt>
      <trkpt lat="44.41877" lon="5.33204">
        <ele>430.20001220703</ele>
        <time>2021-08-30T13:37:40Z</time>
      </trkpt>
      <trkpt lat="44.41867" lon="5.33228">
        <ele>430.20001220703</ele>
        <time>2021-08-30T13:37:45Z</time>
      </trkpt>
      <trkpt lat="44.41864" lon="5.33232">
        <ele>430.20001220703</ele>
        <time>2021-08-30T13:37:46Z</time>
      </trkpt>
      <trkpt lat="44.41849" lon="5.33244">
        <ele>430.20001220703</ele>
        <time>2021-08-30T13:37:50Z</time>
      </trkpt>
      <trkpt lat="44.41842" lon="5.33248">
        <ele>430.20001220703</ele>
        <time>2021-08-30T13:37:52Z</time>
      </trkpt>
      <trkpt lat="44.41825" lon="5.33257">
        <ele>430.60000610352</ele>
        <time>2021-08-30T13:37:56Z</time>
      </trkpt>
      <trkpt lat="44.41808" lon="5.33266">
        <ele>431</ele>
        <time>2021-08-30T13:38:00Z</time>
      </trkpt>
      <trkpt lat="44.41786" lon="5.33276">
        <ele>431.60000610352</ele>
        <time>2021-08-30T13:38:05Z</time>
      </trkpt>
      <trkpt lat="44.41765" lon="5.33288">
        <ele>432.39999389648</ele>
        <time>2021-08-30T13:38:10Z</time>
      </trkpt>
      <trkpt lat="44.41749" lon="5.33298">
        <ele>432.79998779297</ele>
        <time>2021-08-30T13:38:14Z</time>
      </trkpt>
      <trkpt lat="44.41726" lon="5.33314">
        <ele>433.39999389648</ele>
        <time>2021-08-30T13:38:20Z</time>
      </trkpt>
      <trkpt lat="44.41714" lon="5.33323">
        <ele>433.79998779297</ele>
        <time>2021-08-30T13:38:23Z</time>
      </trkpt>
      <trkpt lat="44.41694" lon="5.33339">
        <ele>434.20001220703</ele>
        <time>2021-08-30T13:38:28Z</time>
      </trkpt>
      <trkpt lat="44.41666" lon="5.33369">
        <ele>435</ele>
        <time>2021-08-30T13:38:36Z</time>
      </trkpt>
      <trkpt lat="44.41642" lon="5.33408">
        <ele>435.60000610352</ele>
        <time>2021-08-30T13:38:44Z</time>
      </trkpt>
      <trkpt lat="44.41619" lon="5.33445">
        <ele>435.60000610352</ele>
        <time>2021-08-30T13:38:51Z</time>
      </trkpt>
      <trkpt lat="44.41587" lon="5.33495">
        <ele>435.79998779297</ele>
        <time>2021-08-30T13:39:00Z</time>
      </trkpt>
      <trkpt lat="44.4158" lon="5.33507">
        <ele>436</ele>
        <time>2021-08-30T13:39:02Z</time>
      </trkpt>
      <trkpt lat="44.41562" lon="5.33542">
        <ele>436</ele>
        <time>2021-08-30T13:39:08Z</time>
      </trkpt>
      <trkpt lat="44.41535" lon="5.33596">
        <ele>436.20001220703</ele>
        <time>2021-08-30T13:39:17Z</time>
      </trkpt>
      <trkpt lat="44.41506" lon="5.33656">
        <ele>436.39999389648</ele>
        <time>2021-08-30T13:39:27Z</time>
      </trkpt>
      <trkpt lat="44.41476" lon="5.33721">
        <ele>436.39999389648</ele>
        <time>2021-08-30T13:39:37Z</time>
      </trkpt>
      <trkpt lat="44.41445" lon="5.3379">
        <ele>436.79998779297</ele>
        <time>2021-08-30T13:39:47Z</time>
      </trkpt>
      <trkpt lat="44.41436" lon="5.33811">
        <ele>437</ele>
        <time>2021-08-30T13:39:50Z</time>
      </trkpt>
      <trkpt lat="44.41426" lon="5.33837">
        <ele>437.20001220703</ele>
        <time>2021-08-30T13:39:54Z</time>
      </trkpt>
      <trkpt lat="44.414" lon="5.33902">
        <ele>437.79998779297</ele>
        <time>2021-08-30T13:40:04Z</time>
      </trkpt>
      <trkpt lat="44.41388" lon="5.33934">
        <ele>438.20001220703</ele>
        <time>2021-08-30T13:40:09Z</time>
      </trkpt>
      <trkpt lat="44.41377" lon="5.33965">
        <ele>438.20001220703</ele>
        <time>2021-08-30T13:40:14Z</time>
      </trkpt>
      <trkpt lat="44.41356" lon="5.34018">
        <ele>438.20001220703</ele>
        <time>2021-08-30T13:40:23Z</time>
      </trkpt>
      <trkpt lat="44.41336" lon="5.34074">
        <ele>438.20001220703</ele>
        <time>2021-08-30T13:40:32Z</time>
      </trkpt>
      <trkpt lat="44.41312" lon="5.34122">
        <ele>438.60000610352</ele>
        <time>2021-08-30T13:40:40Z</time>
      </trkpt>
      <trkpt lat="44.41297" lon="5.34158">
        <ele>439</ele>
        <time>2021-08-30T13:40:45Z</time>
      </trkpt>
      <trkpt lat="44.41292" lon="5.34173">
        <ele>439</ele>
        <time>2021-08-30T13:40:47Z</time>
      </trkpt>
      <trkpt lat="44.41285" lon="5.34195">
        <ele>439.20001220703</ele>
        <time>2021-08-30T13:40:50Z</time>
      </trkpt>
      <trkpt lat="44.41277" lon="5.34234">
        <ele>439.39999389648</ele>
        <time>2021-08-30T13:40:55Z</time>
      </trkpt>
      <trkpt lat="44.4127" lon="5.34312">
        <ele>439.79998779297</ele>
        <time>2021-08-30T13:41:05Z</time>
      </trkpt>
      <trkpt lat="44.41269" lon="5.3432">
        <ele>440</ele>
        <time>2021-08-30T13:41:06Z</time>
      </trkpt>
      <trkpt lat="44.41267" lon="5.34343">
        <ele>440.20001220703</ele>
        <time>2021-08-30T13:41:09Z</time>
      </trkpt>
      <trkpt lat="44.41263" lon="5.34407">
        <ele>440.39999389648</ele>
        <time>2021-08-30T13:41:17Z</time>
      </trkpt>
      <trkpt lat="44.41257" lon="5.34464">
        <ele>440.60000610352</ele>
        <time>2021-08-30T13:41:24Z</time>
      </trkpt>
      <trkpt lat="44.41254" lon="5.34522">
        <ele>441.20001220703</ele>
        <time>2021-08-30T13:41:31Z</time>
      </trkpt>
      <trkpt lat="44.41254" lon="5.3453">
        <ele>441.39999389648</ele>
        <time>2021-08-30T13:41:32Z</time>
      </trkpt>
      <trkpt lat="44.41252" lon="5.34594">
        <ele>441.60000610352</ele>
        <time>2021-08-30T13:41:40Z</time>
      </trkpt>
      <trkpt lat="44.41251" lon="5.34602">
        <ele>441.60000610352</ele>
        <time>2021-08-30T13:41:41Z</time>
      </trkpt>
      <trkpt lat="44.41243" lon="5.34625">
        <ele>441.60000610352</ele>
        <time>2021-08-30T13:41:44Z</time>
      </trkpt>
      <trkpt lat="44.41235" lon="5.34646">
        <ele>441.79998779297</ele>
        <time>2021-08-30T13:41:47Z</time>
      </trkpt>
      <trkpt lat="44.41215" lon="5.34676">
        <ele>442.20001220703</ele>
        <time>2021-08-30T13:41:52Z</time>
      </trkpt>
      <trkpt lat="44.4121" lon="5.34682">
        <ele>442.39999389648</ele>
        <time>2021-08-30T13:41:53Z</time>
      </trkpt>
      <trkpt lat="44.41174" lon="5.34736">
        <ele>443</ele>
        <time>2021-08-30T13:42:02Z</time>
      </trkpt>
      <trkpt lat="44.41141" lon="5.3478">
        <ele>443.20001220703</ele>
        <time>2021-08-30T13:42:10Z</time>
      </trkpt>
      <trkpt lat="44.41107" lon="5.3481">
        <ele>443.60000610352</ele>
        <time>2021-08-30T13:42:17Z</time>
      </trkpt>
      <trkpt lat="44.41075" lon="5.34832">
        <ele>444.20001220703</ele>
        <time>2021-08-30T13:42:24Z</time>
      </trkpt>
      <trkpt lat="44.41071" lon="5.34835">
        <ele>444.39999389648</ele>
        <time>2021-08-30T13:42:25Z</time>
      </trkpt>
      <trkpt lat="44.4104" lon="5.34853">
        <ele>444.60000610352</ele>
        <time>2021-08-30T13:42:32Z</time>
      </trkpt>
      <trkpt lat="44.41018" lon="5.34867">
        <ele>444.60000610352</ele>
        <time>2021-08-30T13:42:37Z</time>
      </trkpt>
      <trkpt lat="44.41005" lon="5.34875">
        <ele>444.60000610352</ele>
        <time>2021-08-30T13:42:40Z</time>
      </trkpt>
      <trkpt lat="44.40958" lon="5.34902">
        <ele>445</ele>
        <time>2021-08-30T13:42:50Z</time>
      </trkpt>
      <trkpt lat="44.40929" lon="5.34917">
        <ele>445</ele>
        <time>2021-08-30T13:42:56Z</time>
      </trkpt>
      <trkpt lat="44.40924" lon="5.34921">
        <ele>445</ele>
        <time>2021-08-30T13:42:57Z</time>
      </trkpt>
      <trkpt lat="44.40905" lon="5.34932">
        <ele>445.39999389648</ele>
        <time>2021-08-30T13:43:01Z</time>
      </trkpt>
      <trkpt lat="44.40886" lon="5.34942">
        <ele>445.39999389648</ele>
        <time>2021-08-30T13:43:05Z</time>
      </trkpt>
      <trkpt lat="44.40842" lon="5.34965">
        <ele>445.60000610352</ele>
        <time>2021-08-30T13:43:14Z</time>
      </trkpt>
      <trkpt lat="44.40797" lon="5.34987">
        <ele>445.79998779297</ele>
        <time>2021-08-30T13:43:23Z</time>
      </trkpt>
      <trkpt lat="44.40766" lon="5.34998">
        <ele>446.39999389648</ele>
        <time>2021-08-30T13:43:29Z</time>
      </trkpt>
      <trkpt lat="44.40751" lon="5.35002">
        <ele>446.60000610352</ele>
        <time>2021-08-30T13:43:32Z</time>
      </trkpt>
      <trkpt lat="44.40711" lon="5.35015">
        <ele>446.60000610352</ele>
        <time>2021-08-30T13:43:40Z</time>
      </trkpt>
      <trkpt lat="44.40665" lon="5.35022">
        <ele>446.79998779297</ele>
        <time>2021-08-30T13:43:49Z</time>
      </trkpt>
      <trkpt lat="44.40634" lon="5.35014">
        <ele>446.79998779297</ele>
        <time>2021-08-30T13:43:55Z</time>
      </trkpt>
      <trkpt lat="44.40594" lon="5.34991">
        <ele>447.20001220703</ele>
        <time>2021-08-30T13:44:03Z</time>
      </trkpt>
      <trkpt lat="44.40579" lon="5.34982">
        <ele>447.39999389648</ele>
        <time>2021-08-30T13:44:06Z</time>
      </trkpt>
      <trkpt lat="44.40563" lon="5.34976">
        <ele>447.60000610352</ele>
        <time>2021-08-30T13:44:09Z</time>
      </trkpt>
      <trkpt lat="44.40541" lon="5.34972">
        <ele>447.79998779297</ele>
        <time>2021-08-30T13:44:13Z</time>
      </trkpt>
      <trkpt lat="44.4053" lon="5.34972">
        <ele>448</ele>
        <time>2021-08-30T13:44:15Z</time>
      </trkpt>
      <trkpt lat="44.40486" lon="5.34979">
        <ele>448.39999389648</ele>
        <time>2021-08-30T13:44:23Z</time>
      </trkpt>
      <trkpt lat="44.4047" lon="5.34983">
        <ele>448.39999389648</ele>
        <time>2021-08-30T13:44:26Z</time>
      </trkpt>
      <trkpt lat="44.40438" lon="5.34992">
        <ele>448.79998779297</ele>
        <time>2021-08-30T13:44:32Z</time>
      </trkpt>
      <trkpt lat="44.40417" lon="5.34999">
        <ele>449</ele>
        <time>2021-08-30T13:44:36Z</time>
      </trkpt>
      <trkpt lat="44.40401" lon="5.35004">
        <ele>449.20001220703</ele>
        <time>2021-08-30T13:44:39Z</time>
      </trkpt>
      <trkpt lat="44.40362" lon="5.35017">
        <ele>449.39999389648</ele>
        <time>2021-08-30T13:44:46Z</time>
      </trkpt>
      <trkpt lat="44.4034" lon="5.35025">
        <ele>449.79998779297</ele>
        <time>2021-08-30T13:44:50Z</time>
      </trkpt>
      <trkpt lat="44.40298" lon="5.35037">
        <ele>450.39999389648</ele>
        <time>2021-08-30T13:44:58Z</time>
      </trkpt>
      <trkpt lat="44.40293" lon="5.35038">
        <ele>450.39999389648</ele>
        <time>2021-08-30T13:44:59Z</time>
      </trkpt>
      <trkpt lat="44.40256" lon="5.35032">
        <ele>450.39999389648</ele>
        <time>2021-08-30T13:45:06Z</time>
      </trkpt>
      <trkpt lat="44.40215" lon="5.35011">
        <ele>450.79998779297</ele>
        <time>2021-08-30T13:45:14Z</time>
      </trkpt>
      <trkpt lat="44.4018" lon="5.34995">
        <ele>451.39999389648</ele>
        <time>2021-08-30T13:45:21Z</time>
      </trkpt>
      <trkpt lat="44.4017" lon="5.34994">
        <ele>451.39999389648</ele>
        <time>2021-08-30T13:45:23Z</time>
      </trkpt>
      <trkpt lat="44.4015" lon="5.34994">
        <ele>452</ele>
        <time>2021-08-30T13:45:27Z</time>
      </trkpt>
      <trkpt lat="44.40127" lon="5.34999">
        <ele>452.60000610352</ele>
        <time>2021-08-30T13:45:32Z</time>
      </trkpt>
      <trkpt lat="44.40118" lon="5.35001">
        <ele>452.79998779297</ele>
        <time>2021-08-30T13:45:34Z</time>
      </trkpt>
      <trkpt lat="44.40097" lon="5.35008">
        <ele>453.60000610352</ele>
        <time>2021-08-30T13:45:39Z</time>
      </trkpt>
      <trkpt lat="44.40083" lon="5.35011">
        <ele>454</ele>
        <time>2021-08-30T13:45:42Z</time>
      </trkpt>
      <trkpt lat="44.4007" lon="5.35013">
        <ele>454.60000610352</ele>
        <time>2021-08-30T13:45:45Z</time>
      </trkpt>
      <trkpt lat="44.4005" lon="5.35012">
        <ele>455.39999389648</ele>
        <time>2021-08-30T13:45:50Z</time>
      </trkpt>
      <trkpt lat="44.40038" lon="5.3501">
        <ele>455.60000610352</ele>
        <time>2021-08-30T13:45:53Z</time>
      </trkpt>
      <trkpt lat="44.40026" lon="5.35009">
        <ele>455.79998779297</ele>
        <time>2021-08-30T13:45:56Z</time>
      </trkpt>
      <trkpt lat="44.39989" lon="5.35003">
        <ele>455.39999389648</ele>
        <time>2021-08-30T13:46:04Z</time>
      </trkpt>
      <trkpt lat="44.39959" lon="5.35002">
        <ele>454.79998779297</ele>
        <time>2021-08-30T13:46:10Z</time>
      </trkpt>
      <trkpt lat="44.3992" lon="5.35012">
        <ele>454.60000610352</ele>
        <time>2021-08-30T13:46:17Z</time>
      </trkpt>
      <trkpt lat="44.39872" lon="5.35036">
        <ele>455</ele>
        <time>2021-08-30T13:46:26Z</time>
      </trkpt>
      <trkpt lat="44.39827" lon="5.35077">
        <ele>455.79998779297</ele>
        <time>2021-08-30T13:46:36Z</time>
      </trkpt>
      <trkpt lat="44.39794" lon="5.35112">
        <ele>456.60000610352</ele>
        <time>2021-08-30T13:46:44Z</time>
      </trkpt>
      <trkpt lat="44.39784" lon="5.35118">
        <ele>456.79998779297</ele>
        <time>2021-08-30T13:46:46Z</time>
      </trkpt>
      <trkpt lat="44.39759" lon="5.35131">
        <ele>457.20001220703</ele>
        <time>2021-08-30T13:46:51Z</time>
      </trkpt>
      <trkpt lat="44.39729" lon="5.35144">
        <ele>457.79998779297</ele>
        <time>2021-08-30T13:46:57Z</time>
      </trkpt>
      <trkpt lat="44.39713" lon="5.3515">
        <ele>458.20001220703</ele>
        <time>2021-08-30T13:47:00Z</time>
      </trkpt>
      <trkpt lat="44.39687" lon="5.3516">
        <ele>458.20001220703</ele>
        <time>2021-08-30T13:47:05Z</time>
      </trkpt>
      <trkpt lat="44.39676" lon="5.35164">
        <ele>458.20001220703</ele>
        <time>2021-08-30T13:47:07Z</time>
      </trkpt>
      <trkpt lat="44.39631" lon="5.35184">
        <ele>458.60000610352</ele>
        <time>2021-08-30T13:47:15Z</time>
      </trkpt>
      <trkpt lat="44.39601" lon="5.35212">
        <ele>458.79998779297</ele>
        <time>2021-08-30T13:47:21Z</time>
      </trkpt>
      <trkpt lat="44.39587" lon="5.35226">
        <ele>459</ele>
        <time>2021-08-30T13:47:24Z</time>
      </trkpt>
      <trkpt lat="44.39565" lon="5.35251">
        <ele>459.39999389648</ele>
        <time>2021-08-30T13:47:29Z</time>
      </trkpt>
      <trkpt lat="44.39534" lon="5.35295">
        <ele>459.79998779297</ele>
        <time>2021-08-30T13:47:37Z</time>
      </trkpt>
      <trkpt lat="44.39505" lon="5.35344">
        <ele>459.79998779297</ele>
        <time>2021-08-30T13:47:45Z</time>
      </trkpt>
      <trkpt lat="44.39483" lon="5.35387">
        <ele>460</ele>
        <time>2021-08-30T13:47:51Z</time>
      </trkpt>
      <trkpt lat="44.39465" lon="5.3543">
        <ele>459.39999389648</ele>
        <time>2021-08-30T13:47:56Z</time>
      </trkpt>
      <trkpt lat="44.39461" lon="5.3545">
        <ele>459</ele>
        <time>2021-08-30T13:47:58Z</time>
      </trkpt>
      <trkpt lat="44.39455" lon="5.35493">
        <ele>459</ele>
        <time>2021-08-30T13:48:03Z</time>
      </trkpt>
      <trkpt lat="44.3945" lon="5.35541">
        <ele>459.79998779297</ele>
        <time>2021-08-30T13:48:10Z</time>
      </trkpt>
      <trkpt lat="44.39449" lon="5.35552">
        <ele>460</ele>
        <time>2021-08-30T13:48:12Z</time>
      </trkpt>
      <trkpt lat="44.39445" lon="5.35589">
        <ele>461</ele>
        <time>2021-08-30T13:48:18Z</time>
      </trkpt>
      <trkpt lat="44.39439" lon="5.35651">
        <ele>461.79998779297</ele>
        <time>2021-08-30T13:48:27Z</time>
      </trkpt>
      <trkpt lat="44.39432" lon="5.35717">
        <ele>461.79998779297</ele>
        <time>2021-08-30T13:48:36Z</time>
      </trkpt>
      <trkpt lat="44.39425" lon="5.35782">
        <ele>461.79998779297</ele>
        <time>2021-08-30T13:48:45Z</time>
      </trkpt>
      <trkpt lat="44.39424" lon="5.35796">
        <ele>462</ele>
        <time>2021-08-30T13:48:47Z</time>
      </trkpt>
      <trkpt lat="44.3942" lon="5.35843">
        <ele>462.39999389648</ele>
        <time>2021-08-30T13:48:54Z</time>
      </trkpt>
      <trkpt lat="44.3942" lon="5.3585">
        <ele>462.39999389648</ele>
        <time>2021-08-30T13:48:55Z</time>
      </trkpt>
      <trkpt lat="44.3942" lon="5.35893">
        <ele>462.79998779297</ele>
        <time>2021-08-30T13:49:01Z</time>
      </trkpt>
      <trkpt lat="44.39421" lon="5.35952">
        <ele>462.79998779297</ele>
        <time>2021-08-30T13:49:09Z</time>
      </trkpt>
      <trkpt lat="44.39422" lon="5.36012">
        <ele>463.20001220703</ele>
        <time>2021-08-30T13:49:17Z</time>
      </trkpt>
      <trkpt lat="44.39422" lon="5.3602">
        <ele>463.20001220703</ele>
        <time>2021-08-30T13:49:18Z</time>
      </trkpt>
      <trkpt lat="44.39425" lon="5.36091">
        <ele>462.79998779297</ele>
        <time>2021-08-30T13:49:27Z</time>
      </trkpt>
      <trkpt lat="44.3942" lon="5.3614">
        <ele>463</ele>
        <time>2021-08-30T13:49:33Z</time>
      </trkpt>
      <trkpt lat="44.39407" lon="5.36178">
        <ele>463.20001220703</ele>
        <time>2021-08-30T13:49:38Z</time>
      </trkpt>
      <trkpt lat="44.39381" lon="5.3624">
        <ele>463.79998779297</ele>
        <time>2021-08-30T13:49:47Z</time>
      </trkpt>
      <trkpt lat="44.39358" lon="5.36296">
        <ele>464</ele>
        <time>2021-08-30T13:49:55Z</time>
      </trkpt>
      <trkpt lat="44.39351" lon="5.36318">
        <ele>464.20001220703</ele>
        <time>2021-08-30T13:49:58Z</time>
      </trkpt>
      <trkpt lat="44.39343" lon="5.36357">
        <ele>464.60000610352</ele>
        <time>2021-08-30T13:50:03Z</time>
      </trkpt>
      <trkpt lat="44.39334" lon="5.36427">
        <ele>465.20001220703</ele>
        <time>2021-08-30T13:50:12Z</time>
      </trkpt>
      <trkpt lat="44.39324" lon="5.36476">
        <ele>466.39999389648</ele>
        <time>2021-08-30T13:50:19Z</time>
      </trkpt>
      <trkpt lat="44.39323" lon="5.36483">
        <ele>466.60000610352</ele>
        <time>2021-08-30T13:50:20Z</time>
      </trkpt>
      <trkpt lat="44.39311" lon="5.36512">
        <ele>467</ele>
        <time>2021-08-30T13:50:25Z</time>
      </trkpt>
      <trkpt lat="44.39305" lon="5.36522">
        <ele>467.39999389648</ele>
        <time>2021-08-30T13:50:27Z</time>
      </trkpt>
      <trkpt lat="44.39302" lon="5.36527">
        <ele>467.39999389648</ele>
        <time>2021-08-30T13:50:28Z</time>
      </trkpt>
      <trkpt lat="44.39279" lon="5.36565">
        <ele>468.39999389648</ele>
        <time>2021-08-30T13:50:36Z</time>
      </trkpt>
      <trkpt lat="44.39276" lon="5.3657">
        <ele>468.60000610352</ele>
        <time>2021-08-30T13:50:37Z</time>
      </trkpt>
      <trkpt lat="44.39262" lon="5.366">
        <ele>469.39999389648</ele>
        <time>2021-08-30T13:50:43Z</time>
      </trkpt>
      <trkpt lat="44.3926" lon="5.36605">
        <ele>469.60000610352</ele>
        <time>2021-08-30T13:50:44Z</time>
      </trkpt>
      <trkpt lat="44.39249" lon="5.3664">
        <ele>470.60000610352</ele>
        <time>2021-08-30T13:50:52Z</time>
      </trkpt>
      <trkpt lat="44.39248" lon="5.36646">
        <ele>470.79998779297</ele>
        <time>2021-08-30T13:50:53Z</time>
      </trkpt>
      <trkpt lat="44.39242" lon="5.36677">
        <ele>471.60000610352</ele>
        <time>2021-08-30T13:50:59Z</time>
      </trkpt>
      <trkpt lat="44.39241" lon="5.36682">
        <ele>471.79998779297</ele>
        <time>2021-08-30T13:51:00Z</time>
      </trkpt>
      <trkpt lat="44.39238" lon="5.36707">
        <ele>472.60000610352</ele>
        <time>2021-08-30T13:51:05Z</time>
      </trkpt>
      <trkpt lat="44.39235" lon="5.36726">
        <ele>473.20001220703</ele>
        <time>2021-08-30T13:51:09Z</time>
      </trkpt>
      <trkpt lat="44.39231" lon="5.36745">
        <ele>473.79998779297</ele>
        <time>2021-08-30T13:51:13Z</time>
      </trkpt>
      <trkpt lat="44.39229" lon="5.36751">
        <ele>473.79998779297</ele>
        <time>2021-08-30T13:51:14Z</time>
      </trkpt>
      <trkpt lat="44.39226" lon="5.36762">
        <ele>474</ele>
        <time>2021-08-30T13:51:16Z</time>
      </trkpt>
      <trkpt lat="44.39223" lon="5.36768">
        <ele>474.20001220703</ele>
        <time>2021-08-30T13:51:17Z</time>
      </trkpt>
      <trkpt lat="44.3921" lon="5.36787">
        <ele>474.39999389648</ele>
        <time>2021-08-30T13:51:21Z</time>
      </trkpt>
      <trkpt lat="44.39206" lon="5.36792">
        <ele>474.39999389648</ele>
        <time>2021-08-30T13:51:22Z</time>
      </trkpt>
      <trkpt lat="44.3917" lon="5.36833">
        <ele>474.20001220703</ele>
        <time>2021-08-30T13:51:31Z</time>
      </trkpt>
      <trkpt lat="44.39133" lon="5.36872">
        <ele>474.39999389648</ele>
        <time>2021-08-30T13:51:39Z</time>
      </trkpt>
      <trkpt lat="44.39087" lon="5.36917">
        <ele>474.20001220703</ele>
        <time>2021-08-30T13:51:48Z</time>
      </trkpt>
      <trkpt lat="44.39082" lon="5.36923">
        <ele>474.20001220703</ele>
        <time>2021-08-30T13:51:49Z</time>
      </trkpt>
      <trkpt lat="44.39046" lon="5.36963">
        <ele>474.39999389648</ele>
        <time>2021-08-30T13:51:56Z</time>
      </trkpt>
      <trkpt lat="44.3901" lon="5.37005">
        <ele>474.39999389648</ele>
        <time>2021-08-30T13:52:03Z</time>
      </trkpt>
      <trkpt lat="44.38973" lon="5.3705">
        <ele>474.60000610352</ele>
        <time>2021-08-30T13:52:10Z</time>
      </trkpt>
      <trkpt lat="44.38937" lon="5.37102">
        <ele>474.60000610352</ele>
        <time>2021-08-30T13:52:17Z</time>
      </trkpt>
      <trkpt lat="44.38922" lon="5.37147">
        <ele>474.39999389648</ele>
        <time>2021-08-30T13:52:22Z</time>
      </trkpt>
      <trkpt lat="44.38921" lon="5.37157">
        <ele>474.20001220703</ele>
        <time>2021-08-30T13:52:23Z</time>
      </trkpt>
      <trkpt lat="44.3892" lon="5.37186">
        <ele>474</ele>
        <time>2021-08-30T13:52:26Z</time>
      </trkpt>
      <trkpt lat="44.38921" lon="5.37195">
        <ele>473.79998779297</ele>
        <time>2021-08-30T13:52:27Z</time>
      </trkpt>
      <trkpt lat="44.38928" lon="5.3725">
        <ele>473.60000610352</ele>
        <time>2021-08-30T13:52:33Z</time>
      </trkpt>
      <trkpt lat="44.38942" lon="5.3731">
        <ele>473.60000610352</ele>
        <time>2021-08-30T13:52:40Z</time>
      </trkpt>
      <trkpt lat="44.38962" lon="5.37381">
        <ele>474.39999389648</ele>
        <time>2021-08-30T13:52:49Z</time>
      </trkpt>
      <trkpt lat="44.38964" lon="5.37389">
        <ele>474.39999389648</ele>
        <time>2021-08-30T13:52:50Z</time>
      </trkpt>
      <trkpt lat="44.38969" lon="5.37412">
        <ele>474.79998779297</ele>
        <time>2021-08-30T13:52:53Z</time>
      </trkpt>
      <trkpt lat="44.38973" lon="5.37443">
        <ele>475</ele>
        <time>2021-08-30T13:52:57Z</time>
      </trkpt>
      <trkpt lat="44.38969" lon="5.37489">
        <ele>475.79998779297</ele>
        <time>2021-08-30T13:53:03Z</time>
      </trkpt>
      <trkpt lat="44.38968" lon="5.37496">
        <ele>476</ele>
        <time>2021-08-30T13:53:04Z</time>
      </trkpt>
      <trkpt lat="44.38965" lon="5.37511">
        <ele>476.20001220703</ele>
        <time>2021-08-30T13:53:06Z</time>
      </trkpt>
      <trkpt lat="44.38963" lon="5.37533">
        <ele>476.39999389648</ele>
        <time>2021-08-30T13:53:09Z</time>
      </trkpt>
      <trkpt lat="44.38956" lon="5.37585">
        <ele>477</ele>
        <time>2021-08-30T13:53:16Z</time>
      </trkpt>
      <trkpt lat="44.38955" lon="5.37601">
        <ele>477</ele>
        <time>2021-08-30T13:53:18Z</time>
      </trkpt>
      <trkpt lat="44.38953" lon="5.37671">
        <ele>477</ele>
        <time>2021-08-30T13:53:27Z</time>
      </trkpt>
      <trkpt lat="44.38954" lon="5.37749">
        <ele>477.60000610352</ele>
        <time>2021-08-30T13:53:37Z</time>
      </trkpt>
      <trkpt lat="44.38955" lon="5.37756">
        <ele>477.60000610352</ele>
        <time>2021-08-30T13:53:38Z</time>
      </trkpt>
      <trkpt lat="44.38956" lon="5.37779">
        <ele>478</ele>
        <time>2021-08-30T13:53:41Z</time>
      </trkpt>
      <trkpt lat="44.38961" lon="5.37817">
        <ele>478.39999389648</ele>
        <time>2021-08-30T13:53:46Z</time>
      </trkpt>
      <trkpt lat="44.38962" lon="5.37824">
        <ele>478.39999389648</ele>
        <time>2021-08-30T13:53:47Z</time>
      </trkpt>
      <trkpt lat="44.38972" lon="5.37851">
        <ele>478.79998779297</ele>
        <time>2021-08-30T13:53:51Z</time>
      </trkpt>
      <trkpt lat="44.38994" lon="5.37891">
        <ele>478.79998779297</ele>
        <time>2021-08-30T13:53:57Z</time>
      </trkpt>
      <trkpt lat="44.39002" lon="5.37913">
        <ele>479</ele>
        <time>2021-08-30T13:54:00Z</time>
      </trkpt>
      <trkpt lat="44.39004" lon="5.37922">
        <ele>479.20001220703</ele>
        <time>2021-08-30T13:54:01Z</time>
      </trkpt>
      <trkpt lat="44.39004" lon="5.3793">
        <ele>479.39999389648</ele>
        <time>2021-08-30T13:54:02Z</time>
      </trkpt>
      <trkpt lat="44.38998" lon="5.3797">
        <ele>480.20001220703</ele>
        <time>2021-08-30T13:54:07Z</time>
      </trkpt>
      <trkpt lat="44.38986" lon="5.38008">
        <ele>480.79998779297</ele>
        <time>2021-08-30T13:54:12Z</time>
      </trkpt>
      <trkpt lat="44.3898" lon="5.38032">
        <ele>480.79998779297</ele>
        <time>2021-08-30T13:54:15Z</time>
      </trkpt>
      <trkpt lat="44.3898" lon="5.3804">
        <ele>480.79998779297</ele>
        <time>2021-08-30T13:54:16Z</time>
      </trkpt>
      <trkpt lat="44.3898" lon="5.38073">
        <ele>481</ele>
        <time>2021-08-30T13:54:20Z</time>
      </trkpt>
      <trkpt lat="44.38981" lon="5.38089">
        <ele>481.20001220703</ele>
        <time>2021-08-30T13:54:22Z</time>
      </trkpt>
      <trkpt lat="44.38981" lon="5.38105">
        <ele>481.60000610352</ele>
        <time>2021-08-30T13:54:24Z</time>
      </trkpt>
      <trkpt lat="44.38975" lon="5.38127">
        <ele>481.79998779297</ele>
        <time>2021-08-30T13:54:27Z</time>
      </trkpt>
      <trkpt lat="44.3896" lon="5.38152">
        <ele>481.79998779297</ele>
        <time>2021-08-30T13:54:31Z</time>
      </trkpt>
      <trkpt lat="44.38939" lon="5.38193">
        <ele>482.20001220703</ele>
        <time>2021-08-30T13:54:37Z</time>
      </trkpt>
      <trkpt lat="44.38936" lon="5.382">
        <ele>482.39999389648</ele>
        <time>2021-08-30T13:54:38Z</time>
      </trkpt>
      <trkpt lat="44.38929" lon="5.38223">
        <ele>482.39999389648</ele>
        <time>2021-08-30T13:54:41Z</time>
      </trkpt>
      <trkpt lat="44.38925" lon="5.38246">
        <ele>482.60000610352</ele>
        <time>2021-08-30T13:54:44Z</time>
      </trkpt>
      <trkpt lat="44.38925" lon="5.38262">
        <ele>482.79998779297</ele>
        <time>2021-08-30T13:54:46Z</time>
      </trkpt>
      <trkpt lat="44.38927" lon="5.38287">
        <ele>483</ele>
        <time>2021-08-30T13:54:49Z</time>
      </trkpt>
      <trkpt lat="44.38929" lon="5.38294">
        <ele>483.20001220703</ele>
        <time>2021-08-30T13:54:50Z</time>
      </trkpt>
      <trkpt lat="44.38932" lon="5.38309">
        <ele>483.39999389648</ele>
        <time>2021-08-30T13:54:52Z</time>
      </trkpt>
      <trkpt lat="44.38937" lon="5.38324">
        <ele>483.60000610352</ele>
        <time>2021-08-30T13:54:54Z</time>
      </trkpt>
      <trkpt lat="44.38958" lon="5.38382">
        <ele>484.39999389648</ele>
        <time>2021-08-30T13:55:02Z</time>
      </trkpt>
      <trkpt lat="44.38975" lon="5.38441">
        <ele>485.20001220703</ele>
        <time>2021-08-30T13:55:10Z</time>
      </trkpt>
      <trkpt lat="44.38977" lon="5.38464">
        <ele>485.60000610352</ele>
        <time>2021-08-30T13:55:13Z</time>
      </trkpt>
      <trkpt lat="44.38977" lon="5.38471">
        <ele>485.79998779297</ele>
        <time>2021-08-30T13:55:14Z</time>
      </trkpt>
      <trkpt lat="44.38975" lon="5.38486">
        <ele>486</ele>
        <time>2021-08-30T13:55:16Z</time>
      </trkpt>
      <trkpt lat="44.3897" lon="5.38508">
        <ele>486.20001220703</ele>
        <time>2021-08-30T13:55:19Z</time>
      </trkpt>
      <trkpt lat="44.38962" lon="5.38527">
        <ele>486.39999389648</ele>
        <time>2021-08-30T13:55:22Z</time>
      </trkpt>
      <trkpt lat="44.38958" lon="5.38533">
        <ele>486.60000610352</ele>
        <time>2021-08-30T13:55:23Z</time>
      </trkpt>
      <trkpt lat="44.38933" lon="5.38577">
        <ele>487</ele>
        <time>2021-08-30T13:55:30Z</time>
      </trkpt>
      <trkpt lat="44.38917" lon="5.38622">
        <ele>487</ele>
        <time>2021-08-30T13:55:36Z</time>
      </trkpt>
      <trkpt lat="44.38903" lon="5.38661">
        <ele>486.79998779297</ele>
        <time>2021-08-30T13:55:41Z</time>
      </trkpt>
      <trkpt lat="44.38891" lon="5.38681">
        <ele>486.79998779297</ele>
        <time>2021-08-30T13:55:44Z</time>
      </trkpt>
      <trkpt lat="44.38887" lon="5.38688">
        <ele>486.79998779297</ele>
        <time>2021-08-30T13:55:45Z</time>
      </trkpt>
      <trkpt lat="44.38873" lon="5.38703">
        <ele>487</ele>
        <time>2021-08-30T13:55:48Z</time>
      </trkpt>
      <trkpt lat="44.38868" lon="5.38707">
        <ele>487</ele>
        <time>2021-08-30T13:55:49Z</time>
      </trkpt>
      <trkpt lat="44.38841" lon="5.38734">
        <ele>487.60000610352</ele>
        <time>2021-08-30T13:55:55Z</time>
      </trkpt>
      <trkpt lat="44.38831" lon="5.38742">
        <ele>487.60000610352</ele>
        <time>2021-08-30T13:55:57Z</time>
      </trkpt>
      <trkpt lat="44.38811" lon="5.38755">
        <ele>487.60000610352</ele>
        <time>2021-08-30T13:56:01Z</time>
      </trkpt>
      <trkpt lat="44.388" lon="5.38758">
        <ele>487.79998779297</ele>
        <time>2021-08-30T13:56:03Z</time>
      </trkpt>
      <trkpt lat="44.38762" lon="5.38769">
        <ele>488.60000610352</ele>
        <time>2021-08-30T13:56:10Z</time>
      </trkpt>
      <trkpt lat="44.38756" lon="5.38771">
        <ele>488.79998779297</ele>
        <time>2021-08-30T13:56:11Z</time>
      </trkpt>
      <trkpt lat="44.38742" lon="5.38781">
        <ele>489</ele>
        <time>2021-08-30T13:56:14Z</time>
      </trkpt>
      <trkpt lat="44.38734" lon="5.38791">
        <ele>489</ele>
        <time>2021-08-30T13:56:16Z</time>
      </trkpt>
      <trkpt lat="44.38725" lon="5.38808">
        <ele>489</ele>
        <time>2021-08-30T13:56:19Z</time>
      </trkpt>
      <trkpt lat="44.38722" lon="5.38814">
        <ele>489.20001220703</ele>
        <time>2021-08-30T13:56:20Z</time>
      </trkpt>
      <trkpt lat="44.38707" lon="5.38857">
        <ele>489.60000610352</ele>
        <time>2021-08-30T13:56:27Z</time>
      </trkpt>
      <trkpt lat="44.38702" lon="5.38875">
        <ele>489.79998779297</ele>
        <time>2021-08-30T13:56:30Z</time>
      </trkpt>
      <trkpt lat="44.38696" lon="5.38899">
        <ele>490.39999389648</ele>
        <time>2021-08-30T13:56:34Z</time>
      </trkpt>
      <trkpt lat="44.38694" lon="5.38906">
        <ele>490.60000610352</ele>
        <time>2021-08-30T13:56:35Z</time>
      </trkpt>
      <trkpt lat="44.38691" lon="5.38944">
        <ele>491</ele>
        <time>2021-08-30T13:56:40Z</time>
      </trkpt>
      <trkpt lat="44.3869" lon="5.39011">
        <ele>491.20001220703</ele>
        <time>2021-08-30T13:56:48Z</time>
      </trkpt>
      <trkpt lat="44.38689" lon="5.39029">
        <ele>491</ele>
        <time>2021-08-30T13:56:50Z</time>
      </trkpt>
      <trkpt lat="44.38686" lon="5.39056">
        <ele>491</ele>
        <time>2021-08-30T13:56:53Z</time>
      </trkpt>
      <trkpt lat="44.38675" lon="5.39108">
        <ele>491.60000610352</ele>
        <time>2021-08-30T13:56:59Z</time>
      </trkpt>
      <trkpt lat="44.38671" lon="5.39125">
        <ele>491.79998779297</ele>
        <time>2021-08-30T13:57:01Z</time>
      </trkpt>
      <trkpt lat="44.3866" lon="5.39164">
        <ele>492.39999389648</ele>
        <time>2021-08-30T13:57:06Z</time>
      </trkpt>
      <trkpt lat="44.38639" lon="5.39219">
        <ele>492.60000610352</ele>
        <time>2021-08-30T13:57:13Z</time>
      </trkpt>
      <trkpt lat="44.38625" lon="5.39248">
        <ele>492.79998779297</ele>
        <time>2021-08-30T13:57:17Z</time>
      </trkpt>
      <trkpt lat="44.38608" lon="5.39284">
        <ele>493</ele>
        <time>2021-08-30T13:57:22Z</time>
      </trkpt>
      <trkpt lat="44.38579" lon="5.39345">
        <ele>493.39999389648</ele>
        <time>2021-08-30T13:57:31Z</time>
      </trkpt>
      <trkpt lat="44.38554" lon="5.39397">
        <ele>493.60000610352</ele>
        <time>2021-08-30T13:57:39Z</time>
      </trkpt>
      <trkpt lat="44.38537" lon="5.39426">
        <ele>493.79998779297</ele>
        <time>2021-08-30T13:57:44Z</time>
      </trkpt>
      <trkpt lat="44.38529" lon="5.39437">
        <ele>494</ele>
        <time>2021-08-30T13:57:46Z</time>
      </trkpt>
      <trkpt lat="44.38501" lon="5.39473">
        <ele>494.39999389648</ele>
        <time>2021-08-30T13:57:53Z</time>
      </trkpt>
      <trkpt lat="44.38476" lon="5.39499">
        <ele>495</ele>
        <time>2021-08-30T13:57:59Z</time>
      </trkpt>
      <trkpt lat="44.38462" lon="5.39512">
        <ele>495.20001220703</ele>
        <time>2021-08-30T13:58:02Z</time>
      </trkpt>
      <trkpt lat="44.38432" lon="5.39541">
        <ele>495.79998779297</ele>
        <time>2021-08-30T13:58:09Z</time>
      </trkpt>
      <trkpt lat="44.38424" lon="5.3955">
        <ele>496</ele>
        <time>2021-08-30T13:58:11Z</time>
      </trkpt>
      <trkpt lat="44.38405" lon="5.39578">
        <ele>496.39999389648</ele>
        <time>2021-08-30T13:58:16Z</time>
      </trkpt>
      <trkpt lat="44.38378" lon="5.39629">
        <ele>496.79998779297</ele>
        <time>2021-08-30T13:58:24Z</time>
      </trkpt>
      <trkpt lat="44.38365" lon="5.39663">
        <ele>497</ele>
        <time>2021-08-30T13:58:29Z</time>
      </trkpt>
      <trkpt lat="44.38357" lon="5.39684">
        <ele>497.39999389648</ele>
        <time>2021-08-30T13:58:32Z</time>
      </trkpt>
      <trkpt lat="44.38336" lon="5.3973">
        <ele>498</ele>
        <time>2021-08-30T13:58:39Z</time>
      </trkpt>
      <trkpt lat="44.38322" lon="5.39744">
        <ele>498.20001220703</ele>
        <time>2021-08-30T13:58:42Z</time>
      </trkpt>
      <trkpt lat="44.38317" lon="5.39747">
        <ele>498.20001220703</ele>
        <time>2021-08-30T13:58:43Z</time>
      </trkpt>
      <trkpt lat="44.38312" lon="5.3975">
        <ele>498.20001220703</ele>
        <time>2021-08-30T13:58:44Z</time>
      </trkpt>
      <trkpt lat="44.38297" lon="5.39754">
        <ele>498.39999389648</ele>
        <time>2021-08-30T13:58:47Z</time>
      </trkpt>
      <trkpt lat="44.38287" lon="5.39754">
        <ele>498.60000610352</ele>
        <time>2021-08-30T13:58:49Z</time>
      </trkpt>
      <trkpt lat="44.38256" lon="5.39752">
        <ele>499</ele>
        <time>2021-08-30T13:58:55Z</time>
      </trkpt>
      <trkpt lat="44.38252" lon="5.39751">
        <ele>499.20001220703</ele>
        <time>2021-08-30T13:58:56Z</time>
      </trkpt>
      <trkpt lat="44.3823" lon="5.39752">
        <ele>499.79998779297</ele>
        <time>2021-08-30T13:59:01Z</time>
      </trkpt>
      <trkpt lat="44.38212" lon="5.39756">
        <ele>500.39999389648</ele>
        <time>2021-08-30T13:59:05Z</time>
      </trkpt>
      <trkpt lat="44.38195" lon="5.39762">
        <ele>500.60000610352</ele>
        <time>2021-08-30T13:59:09Z</time>
      </trkpt>
      <trkpt lat="44.3816" lon="5.39781">
        <ele>501</ele>
        <time>2021-08-30T13:59:17Z</time>
      </trkpt>
      <trkpt lat="44.38143" lon="5.39794">
        <ele>501.39999389648</ele>
        <time>2021-08-30T13:59:21Z</time>
      </trkpt>
      <trkpt lat="44.38119" lon="5.3981">
        <ele>501.79998779297</ele>
        <time>2021-08-30T13:59:26Z</time>
      </trkpt>
      <trkpt lat="44.38093" lon="5.3984">
        <ele>502.20001220703</ele>
        <time>2021-08-30T13:59:32Z</time>
      </trkpt>
      <trkpt lat="44.38071" lon="5.39877">
        <ele>502.39999389648</ele>
        <time>2021-08-30T13:59:38Z</time>
      </trkpt>
      <trkpt lat="44.38068" lon="5.39884">
        <ele>502.39999389648</ele>
        <time>2021-08-30T13:59:39Z</time>
      </trkpt>
      <trkpt lat="44.38057" lon="5.39931">
        <ele>502.20001220703</ele>
        <time>2021-08-30T13:59:45Z</time>
      </trkpt>
      <trkpt lat="44.38054" lon="5.39998">
        <ele>502.39999389648</ele>
        <time>2021-08-30T13:59:53Z</time>
      </trkpt>
      <trkpt lat="44.38052" lon="5.40081">
        <ele>502.39999389648</ele>
        <time>2021-08-30T14:00:03Z</time>
      </trkpt>
      <trkpt lat="44.38052" lon="5.40089">
        <ele>502.39999389648</ele>
        <time>2021-08-30T14:00:04Z</time>
      </trkpt>
      <trkpt lat="44.38051" lon="5.40148">
        <ele>502.79998779297</ele>
        <time>2021-08-30T14:00:11Z</time>
      </trkpt>
      <trkpt lat="44.38052" lon="5.40205">
        <ele>503.20001220703</ele>
        <time>2021-08-30T14:00:18Z</time>
      </trkpt>
      <trkpt lat="44.38054" lon="5.4023">
        <ele>503.39999389648</ele>
        <time>2021-08-30T14:00:21Z</time>
      </trkpt>
      <trkpt lat="44.3806" lon="5.40262">
        <ele>503.60000610352</ele>
        <time>2021-08-30T14:00:25Z</time>
      </trkpt>
      <trkpt lat="44.38078" lon="5.4033">
        <ele>504.20001220703</ele>
        <time>2021-08-30T14:00:34Z</time>
      </trkpt>
      <trkpt lat="44.38082" lon="5.40345">
        <ele>504.39999389648</ele>
        <time>2021-08-30T14:00:36Z</time>
      </trkpt>
      <trkpt lat="44.38096" lon="5.4038">
        <ele>504.79998779297</ele>
        <time>2021-08-30T14:00:41Z</time>
      </trkpt>
      <trkpt lat="44.38119" lon="5.40419">
        <ele>504.79998779297</ele>
        <time>2021-08-30T14:00:47Z</time>
      </trkpt>
      <trkpt lat="44.38141" lon="5.40467">
        <ele>505.20001220703</ele>
        <time>2021-08-30T14:00:54Z</time>
      </trkpt>
      <trkpt lat="44.38148" lon="5.4049">
        <ele>505.39999389648</ele>
        <time>2021-08-30T14:00:57Z</time>
      </trkpt>
      <trkpt lat="44.38153" lon="5.40514">
        <ele>505.79998779297</ele>
        <time>2021-08-30T14:01:00Z</time>
      </trkpt>
      <trkpt lat="44.38156" lon="5.40564">
        <ele>506</ele>
        <time>2021-08-30T14:01:06Z</time>
      </trkpt>
      <trkpt lat="44.38152" lon="5.40605">
        <ele>506.39999389648</ele>
        <time>2021-08-30T14:01:11Z</time>
      </trkpt>
      <trkpt lat="44.3815" lon="5.40613">
        <ele>506.39999389648</ele>
        <time>2021-08-30T14:01:12Z</time>
      </trkpt>
      <trkpt lat="44.38137" lon="5.4066">
        <ele>506.60000610352</ele>
        <time>2021-08-30T14:01:18Z</time>
      </trkpt>
      <trkpt lat="44.38123" lon="5.40703">
        <ele>507</ele>
        <time>2021-08-30T14:01:24Z</time>
      </trkpt>
      <trkpt lat="44.38119" lon="5.40709">
        <ele>507</ele>
        <time>2021-08-30T14:01:25Z</time>
      </trkpt>
      <trkpt lat="44.38106" lon="5.40723">
        <ele>507.39999389648</ele>
        <time>2021-08-30T14:01:28Z</time>
      </trkpt>
      <trkpt lat="44.38096" lon="5.40731">
        <ele>507.60000610352</ele>
        <time>2021-08-30T14:01:30Z</time>
      </trkpt>
      <trkpt lat="44.38066" lon="5.40756">
        <ele>508</ele>
        <time>2021-08-30T14:01:36Z</time>
      </trkpt>
      <trkpt lat="44.38041" lon="5.40792">
        <ele>508.39999389648</ele>
        <time>2021-08-30T14:01:42Z</time>
      </trkpt>
      <trkpt lat="44.38033" lon="5.40803">
        <ele>508.60000610352</ele>
        <time>2021-08-30T14:01:44Z</time>
      </trkpt>
      <trkpt lat="44.38015" lon="5.40836">
        <ele>509.20001220703</ele>
        <time>2021-08-30T14:01:49Z</time>
      </trkpt>
      <trkpt lat="44.38003" lon="5.40862">
        <ele>509.60000610352</ele>
        <time>2021-08-30T14:01:53Z</time>
      </trkpt>
      <trkpt lat="44.3799" lon="5.40896">
        <ele>510</ele>
        <time>2021-08-30T14:01:58Z</time>
      </trkpt>
      <trkpt lat="44.3798" lon="5.40938">
        <ele>510.20001220703</ele>
        <time>2021-08-30T14:02:04Z</time>
      </trkpt>
      <trkpt lat="44.37971" lon="5.40993">
        <ele>510.60000610352</ele>
        <time>2021-08-30T14:02:12Z</time>
      </trkpt>
      <trkpt lat="44.3796" lon="5.41047">
        <ele>510.60000610352</ele>
        <time>2021-08-30T14:02:20Z</time>
      </trkpt>
      <trkpt lat="44.37958" lon="5.4106">
        <ele>510.60000610352</ele>
        <time>2021-08-30T14:02:22Z</time>
      </trkpt>
      <trkpt lat="44.3795" lon="5.41099">
        <ele>511</ele>
        <time>2021-08-30T14:02:28Z</time>
      </trkpt>
      <trkpt lat="44.37945" lon="5.41136">
        <ele>511.79998779297</ele>
        <time>2021-08-30T14:02:34Z</time>
      </trkpt>
      <trkpt lat="44.37945" lon="5.41148">
        <ele>512</ele>
        <time>2021-08-30T14:02:36Z</time>
      </trkpt>
      <trkpt lat="44.37945" lon="5.41185">
        <ele>512.79998779297</ele>
        <time>2021-08-30T14:02:42Z</time>
      </trkpt>
      <trkpt lat="44.37945" lon="5.41192">
        <ele>513</ele>
        <time>2021-08-30T14:02:43Z</time>
      </trkpt>
      <trkpt lat="44.37953" lon="5.41244">
        <ele>513.40002441406</ele>
        <time>2021-08-30T14:02:51Z</time>
      </trkpt>
      <trkpt lat="44.37966" lon="5.41298">
        <ele>513.40002441406</ele>
        <time>2021-08-30T14:02:59Z</time>
      </trkpt>
      <trkpt lat="44.37982" lon="5.41346">
        <ele>513.40002441406</ele>
        <time>2021-08-30T14:03:06Z</time>
      </trkpt>
      <trkpt lat="44.3799" lon="5.4139">
        <ele>513.40002441406</ele>
        <time>2021-08-30T14:03:12Z</time>
      </trkpt>
      <trkpt lat="44.37996" lon="5.41458">
        <ele>513.79998779297</ele>
        <time>2021-08-30T14:03:21Z</time>
      </trkpt>
      <trkpt lat="44.37997" lon="5.41466">
        <ele>513.79998779297</ele>
        <time>2021-08-30T14:03:22Z</time>
      </trkpt>
      <trkpt lat="44.38003" lon="5.41534">
        <ele>514.40002441406</ele>
        <time>2021-08-30T14:03:31Z</time>
      </trkpt>
      <trkpt lat="44.38006" lon="5.41589">
        <ele>514.59997558594</ele>
        <time>2021-08-30T14:03:38Z</time>
      </trkpt>
      <trkpt lat="44.38006" lon="5.41613">
        <ele>514.79998779297</ele>
        <time>2021-08-30T14:03:41Z</time>
      </trkpt>
      <trkpt lat="44.38005" lon="5.41654">
        <ele>515.20001220703</ele>
        <time>2021-08-30T14:03:46Z</time>
      </trkpt>
      <trkpt lat="44.38002" lon="5.41726">
        <ele>515.59997558594</ele>
        <time>2021-08-30T14:03:55Z</time>
      </trkpt>
      <trkpt lat="44.38001" lon="5.4175">
        <ele>516</ele>
        <time>2021-08-30T14:03:58Z</time>
      </trkpt>
      <trkpt lat="44.37999" lon="5.41796">
        <ele>516.40002441406</ele>
        <time>2021-08-30T14:04:04Z</time>
      </trkpt>
      <trkpt lat="44.37995" lon="5.41851">
        <ele>516.79998779297</ele>
        <time>2021-08-30T14:04:11Z</time>
      </trkpt>
      <trkpt lat="44.37993" lon="5.41867">
        <ele>516.79998779297</ele>
        <time>2021-08-30T14:04:13Z</time>
      </trkpt>
      <trkpt lat="44.37989" lon="5.41889">
        <ele>517</ele>
        <time>2021-08-30T14:04:16Z</time>
      </trkpt>
      <trkpt lat="44.37983" lon="5.41927">
        <ele>517.20001220703</ele>
        <time>2021-08-30T14:04:21Z</time>
      </trkpt>
      <trkpt lat="44.37972" lon="5.41992">
        <ele>517.59997558594</ele>
        <time>2021-08-30T14:04:30Z</time>
      </trkpt>
      <trkpt lat="44.37967" lon="5.42028">
        <ele>518</ele>
        <time>2021-08-30T14:04:35Z</time>
      </trkpt>
      <trkpt lat="44.37962" lon="5.42064">
        <ele>518.40002441406</ele>
        <time>2021-08-30T14:04:40Z</time>
      </trkpt>
      <trkpt lat="44.37962" lon="5.42116">
        <ele>518.40002441406</ele>
        <time>2021-08-30T14:04:47Z</time>
      </trkpt>
      <trkpt lat="44.37965" lon="5.42151">
        <ele>518.40002441406</ele>
        <time>2021-08-30T14:04:52Z</time>
      </trkpt>
      <trkpt lat="44.37969" lon="5.42165">
        <ele>518.59997558594</ele>
        <time>2021-08-30T14:04:54Z</time>
      </trkpt>
      <trkpt lat="44.3798" lon="5.42203">
        <ele>519.20001220703</ele>
        <time>2021-08-30T14:05:00Z</time>
      </trkpt>
      <trkpt lat="44.37984" lon="5.42215">
        <ele>519.40002441406</ele>
        <time>2021-08-30T14:05:02Z</time>
      </trkpt>
      <trkpt lat="44.38003" lon="5.42268">
        <ele>520</ele>
        <time>2021-08-30T14:05:11Z</time>
      </trkpt>
      <trkpt lat="44.38008" lon="5.42279">
        <ele>520.20001220703</ele>
        <time>2021-08-30T14:05:13Z</time>
      </trkpt>
      <trkpt lat="44.38015" lon="5.42302">
        <ele>520.20001220703</ele>
        <time>2021-08-30T14:05:17Z</time>
      </trkpt>
      <trkpt lat="44.38028" lon="5.4234">
        <ele>521.20001220703</ele>
        <time>2021-08-30T14:05:24Z</time>
      </trkpt>
      <trkpt lat="44.3803" lon="5.42345">
        <ele>521.40002441406</ele>
        <time>2021-08-30T14:05:25Z</time>
      </trkpt>
      <trkpt lat="44.38044" lon="5.42385">
        <ele>522</ele>
        <time>2021-08-30T14:05:33Z</time>
      </trkpt>
      <trkpt lat="44.38051" lon="5.42403">
        <ele>522.40002441406</ele>
        <time>2021-08-30T14:05:37Z</time>
      </trkpt>
      <trkpt lat="44.38054" lon="5.42416">
        <ele>522.40002441406</ele>
        <time>2021-08-30T14:05:40Z</time>
      </trkpt>
      <trkpt lat="44.3806" lon="5.42439">
        <ele>523</ele>
        <time>2021-08-30T14:05:47Z</time>
      </trkpt>
      <trkpt lat="44.38061" lon="5.42439">
        <ele>523.40002441406</ele>
        <time>2021-08-30T14:05:49Z</time>
      </trkpt>
      <trkpt lat="44.38058" lon="5.42443">
        <ele>523.20001220703</ele>
        <time>2021-08-30T14:06:34Z</time>
      </trkpt>
      <trkpt lat="44.38057" lon="5.42455">
        <ele>523.40002441406</ele>
        <time>2021-08-30T14:06:38Z</time>
      </trkpt>
      <trkpt lat="44.38055" lon="5.42474">
        <ele>523.59997558594</ele>
        <time>2021-08-30T14:06:43Z</time>
      </trkpt>
      <trkpt lat="44.38054" lon="5.42478">
        <ele>523.59997558594</ele>
        <time>2021-08-30T14:06:44Z</time>
      </trkpt>
      <trkpt lat="44.38049" lon="5.42502">
        <ele>523.79998779297</ele>
        <time>2021-08-30T14:06:49Z</time>
      </trkpt>
      <trkpt lat="44.38037" lon="5.42536">
        <ele>524.40002441406</ele>
        <time>2021-08-30T14:06:56Z</time>
      </trkpt>
      <trkpt lat="44.3802" lon="5.42551">
        <ele>525</ele>
        <time>2021-08-30T14:07:01Z</time>
      </trkpt>
      <trkpt lat="44.38004" lon="5.42565">
        <ele>525.59997558594</ele>
        <time>2021-08-30T14:07:07Z</time>
      </trkpt>
      <trkpt lat="44.38001" lon="5.42568">
        <ele>525.59997558594</ele>
        <time>2021-08-30T14:07:08Z</time>
      </trkpt>
      <trkpt lat="44.37988" lon="5.42583">
        <ele>526</ele>
        <time>2021-08-30T14:07:15Z</time>
      </trkpt>
      <trkpt lat="44.37964" lon="5.42598">
        <ele>526</ele>
        <time>2021-08-30T14:07:22Z</time>
      </trkpt>
      <trkpt lat="44.37945" lon="5.42601">
        <ele>525.79998779297</ele>
        <time>2021-08-30T14:07:27Z</time>
      </trkpt>
      <trkpt lat="44.37911" lon="5.42607">
        <ele>525.59997558594</ele>
        <time>2021-08-30T14:07:36Z</time>
      </trkpt>
      <trkpt lat="44.37899" lon="5.42617">
        <ele>525.20001220703</ele>
        <time>2021-08-30T14:07:40Z</time>
      </trkpt>
      <trkpt lat="44.37889" lon="5.42619">
        <ele>525.20001220703</ele>
        <time>2021-08-30T14:07:44Z</time>
      </trkpt>
      <trkpt lat="44.37885" lon="5.42622">
        <ele>525.40002441406</ele>
        <time>2021-08-30T14:07:46Z</time>
      </trkpt>
      <trkpt lat="44.37886" lon="5.42627">
        <ele>525.59997558594</ele>
        <time>2021-08-30T14:07:48Z</time>
      </trkpt>
      <trkpt lat="44.37889" lon="5.42629">
        <ele>525.59997558594</ele>
        <time>2021-08-30T14:07:50Z</time>
      </trkpt>
      <trkpt lat="44.37892" lon="5.42628">
        <ele>525.59997558594</ele>
        <time>2021-08-30T14:07:52Z</time>
      </trkpt>
      <trkpt lat="44.37894" lon="5.42624">
        <ele>525.40002441406</ele>
        <time>2021-08-30T14:07:54Z</time>
      </trkpt>
      <trkpt lat="44.37902" lon="5.42617">
        <ele>525.40002441406</ele>
        <time>2021-08-30T14:07:56Z</time>
      </trkpt>
      <trkpt lat="44.37915" lon="5.4261">
        <ele>525.40002441406</ele>
        <time>2021-08-30T14:08:02Z</time>
      </trkpt>
      <trkpt lat="44.37921" lon="5.42607">
        <ele>525.40002441406</ele>
        <time>2021-08-30T14:08:07Z</time>
      </trkpt>
      <trkpt lat="44.37967" lon="5.42599">
        <ele>525.20001220703</ele>
        <time>2021-08-30T14:21:25Z</time>
      </trkpt>
      <trkpt lat="44.3797" lon="5.42597">
        <ele>525.20001220703</ele>
        <time>2021-08-30T14:21:27Z</time>
      </trkpt>
      <trkpt lat="44.37982" lon="5.42587">
        <ele>525.20001220703</ele>
        <time>2021-08-30T14:21:33Z</time>
      </trkpt>
      <trkpt lat="44.37993" lon="5.42583">
        <ele>525.40002441406</ele>
        <time>2021-08-30T14:21:38Z</time>
      </trkpt>
      <trkpt lat="44.37994" lon="5.42586">
        <ele>525.40002441406</ele>
        <time>2021-08-30T14:21:39Z</time>
      </trkpt>
      <trkpt lat="44.38" lon="5.42609">
        <ele>525.79998779297</ele>
        <time>2021-08-30T14:21:45Z</time>
      </trkpt>
      <trkpt lat="44.38009" lon="5.42645">
        <ele>525.79998779297</ele>
        <time>2021-08-30T14:21:52Z</time>
      </trkpt>
      <trkpt lat="44.38012" lon="5.42664">
        <ele>525.40002441406</ele>
        <time>2021-08-30T14:21:55Z</time>
      </trkpt>
      <trkpt lat="44.3801" lon="5.42678">
        <ele>525.20001220703</ele>
        <time>2021-08-30T14:21:57Z</time>
      </trkpt>
      <trkpt lat="44.38" lon="5.42705">
        <ele>524.59997558594</ele>
        <time>2021-08-30T14:22:01Z</time>
      </trkpt>
      <trkpt lat="44.37993" lon="5.42716">
        <ele>524.20001220703</ele>
        <time>2021-08-30T14:22:03Z</time>
      </trkpt>
      <trkpt lat="44.37989" lon="5.42721">
        <ele>524</ele>
        <time>2021-08-30T14:22:04Z</time>
      </trkpt>
      <trkpt lat="44.37981" lon="5.4273">
        <ele>523.40002441406</ele>
        <time>2021-08-30T14:22:06Z</time>
      </trkpt>
      <trkpt lat="44.3797" lon="5.42746">
        <ele>523.20001220703</ele>
        <time>2021-08-30T14:22:09Z</time>
      </trkpt>
      <trkpt lat="44.37966" lon="5.42757">
        <ele>523.40002441406</ele>
        <time>2021-08-30T14:22:11Z</time>
      </trkpt>
      <trkpt lat="44.37963" lon="5.42769">
        <ele>523.59997558594</ele>
        <time>2021-08-30T14:22:13Z</time>
      </trkpt>
      <trkpt lat="44.37957" lon="5.42808">
        <ele>524</ele>
        <time>2021-08-30T14:22:19Z</time>
      </trkpt>
      <trkpt lat="44.37949" lon="5.42871">
        <ele>524</ele>
        <time>2021-08-30T14:22:28Z</time>
      </trkpt>
      <trkpt lat="44.37945" lon="5.42901">
        <ele>524</ele>
        <time>2021-08-30T14:22:32Z</time>
      </trkpt>
      <trkpt lat="44.37938" lon="5.4293">
        <ele>524</ele>
        <time>2021-08-30T14:22:36Z</time>
      </trkpt>
      <trkpt lat="44.37924" lon="5.42968">
        <ele>524.20001220703</ele>
        <time>2021-08-30T14:22:42Z</time>
      </trkpt>
      <trkpt lat="44.37903" lon="5.43009">
        <ele>524.59997558594</ele>
        <time>2021-08-30T14:22:49Z</time>
      </trkpt>
      <trkpt lat="44.37877" lon="5.43033">
        <ele>524.59997558594</ele>
        <time>2021-08-30T14:22:55Z</time>
      </trkpt>
      <trkpt lat="44.37868" lon="5.43039">
        <ele>525</ele>
        <time>2021-08-30T14:22:57Z</time>
      </trkpt>
      <trkpt lat="44.37855" lon="5.4305">
        <ele>525.40002441406</ele>
        <time>2021-08-30T14:23:00Z</time>
      </trkpt>
      <trkpt lat="44.37846" lon="5.43057">
        <ele>525.59997558594</ele>
        <time>2021-08-30T14:23:02Z</time>
      </trkpt>
      <trkpt lat="44.37802" lon="5.43079">
        <ele>525.59997558594</ele>
        <time>2021-08-30T14:23:11Z</time>
      </trkpt>
      <trkpt lat="44.37763" lon="5.43094">
        <ele>526.20001220703</ele>
        <time>2021-08-30T14:23:19Z</time>
      </trkpt>
      <trkpt lat="44.37716" lon="5.43114">
        <ele>525.79998779297</ele>
        <time>2021-08-30T14:23:29Z</time>
      </trkpt>
      <trkpt lat="44.37711" lon="5.43117">
        <ele>525.79998779297</ele>
        <time>2021-08-30T14:23:30Z</time>
      </trkpt>
      <trkpt lat="44.37696" lon="5.43137">
        <ele>526</ele>
        <time>2021-08-30T14:23:34Z</time>
      </trkpt>
      <trkpt lat="44.3769" lon="5.43155">
        <ele>526.40002441406</ele>
        <time>2021-08-30T14:23:37Z</time>
      </trkpt>
      <trkpt lat="44.37688" lon="5.43162">
        <ele>526.40002441406</ele>
        <time>2021-08-30T14:23:38Z</time>
      </trkpt>
      <trkpt lat="44.37687" lon="5.43169">
        <ele>526.59997558594</ele>
        <time>2021-08-30T14:23:39Z</time>
      </trkpt>
      <trkpt lat="44.37685" lon="5.43209">
        <ele>526.79998779297</ele>
        <time>2021-08-30T14:23:45Z</time>
      </trkpt>
      <trkpt lat="44.37684" lon="5.43246">
        <ele>527.40002441406</ele>
        <time>2021-08-30T14:23:51Z</time>
      </trkpt>
      <trkpt lat="44.37683" lon="5.43252">
        <ele>527.59997558594</ele>
        <time>2021-08-30T14:23:52Z</time>
      </trkpt>
      <trkpt lat="44.37682" lon="5.43307">
        <ele>528.40002441406</ele>
        <time>2021-08-30T14:24:01Z</time>
      </trkpt>
      <trkpt lat="44.37682" lon="5.43325">
        <ele>528.40002441406</ele>
        <time>2021-08-30T14:24:04Z</time>
      </trkpt>
      <trkpt lat="44.3768" lon="5.43354">
        <ele>529</ele>
        <time>2021-08-30T14:24:09Z</time>
      </trkpt>
      <trkpt lat="44.3768" lon="5.43381">
        <ele>529.59997558594</ele>
        <time>2021-08-30T14:24:14Z</time>
      </trkpt>
      <trkpt lat="44.3768" lon="5.43401">
        <ele>530</ele>
        <time>2021-08-30T14:24:18Z</time>
      </trkpt>
      <trkpt lat="44.37679" lon="5.43425">
        <ele>530.59997558594</ele>
        <time>2021-08-30T14:24:23Z</time>
      </trkpt>
      <trkpt lat="44.37679" lon="5.43434">
        <ele>530.79998779297</ele>
        <time>2021-08-30T14:24:25Z</time>
      </trkpt>
      <trkpt lat="44.37679" lon="5.43456">
        <ele>531.79998779297</ele>
        <time>2021-08-30T14:24:30Z</time>
      </trkpt>
      <trkpt lat="44.37679" lon="5.43474">
        <ele>532.40002441406</ele>
        <time>2021-08-30T14:24:34Z</time>
      </trkpt>
      <trkpt lat="44.37679" lon="5.43485">
        <ele>532.79998779297</ele>
        <time>2021-08-30T14:24:37Z</time>
      </trkpt>
      <trkpt lat="44.37678" lon="5.43502">
        <ele>533.40002441406</ele>
        <time>2021-08-30T14:24:42Z</time>
      </trkpt>
      <trkpt lat="44.37678" lon="5.43513">
        <ele>533.79998779297</ele>
        <time>2021-08-30T14:24:45Z</time>
      </trkpt>
      <trkpt lat="44.37678" lon="5.43525">
        <ele>534.20001220703</ele>
        <time>2021-08-30T14:24:48Z</time>
      </trkpt>
      <trkpt lat="44.37678" lon="5.43547">
        <ele>535</ele>
        <time>2021-08-30T14:24:54Z</time>
      </trkpt>
      <trkpt lat="44.37678" lon="5.43554">
        <ele>535</ele>
        <time>2021-08-30T14:24:56Z</time>
      </trkpt>
      <trkpt lat="44.37678" lon="5.43581">
        <ele>535.79998779297</ele>
        <time>2021-08-30T14:25:03Z</time>
      </trkpt>
      <trkpt lat="44.37678" lon="5.43592">
        <ele>536</ele>
        <time>2021-08-30T14:25:06Z</time>
      </trkpt>
      <trkpt lat="44.37678" lon="5.43607">
        <ele>536.40002441406</ele>
        <time>2021-08-30T14:25:10Z</time>
      </trkpt>
      <trkpt lat="44.37679" lon="5.43628">
        <ele>537.20001220703</ele>
        <time>2021-08-30T14:25:16Z</time>
      </trkpt>
      <trkpt lat="44.3768" lon="5.43647">
        <ele>537.79998779297</ele>
        <time>2021-08-30T14:25:21Z</time>
      </trkpt>
      <trkpt lat="44.37681" lon="5.43662">
        <ele>538.20001220703</ele>
        <time>2021-08-30T14:25:25Z</time>
      </trkpt>
      <trkpt lat="44.37683" lon="5.43677">
        <ele>538.79998779297</ele>
        <time>2021-08-30T14:25:29Z</time>
      </trkpt>
      <trkpt lat="44.37684" lon="5.43687">
        <ele>539.40002441406</ele>
        <time>2021-08-30T14:25:32Z</time>
      </trkpt>
      <trkpt lat="44.37686" lon="5.43705">
        <ele>540.20001220703</ele>
        <time>2021-08-30T14:25:37Z</time>
      </trkpt>
      <trkpt lat="44.37687" lon="5.43712">
        <ele>540.40002441406</ele>
        <time>2021-08-30T14:25:39Z</time>
      </trkpt>
      <trkpt lat="44.37689" lon="5.43739">
        <ele>541.40002441406</ele>
        <time>2021-08-30T14:25:47Z</time>
      </trkpt>
      <trkpt lat="44.37689" lon="5.43742">
        <ele>541.59997558594</ele>
        <time>2021-08-30T14:25:48Z</time>
      </trkpt>
      <trkpt lat="44.3769" lon="5.43766">
        <ele>542.40002441406</ele>
        <time>2021-08-30T14:25:55Z</time>
      </trkpt>
      <trkpt lat="44.37691" lon="5.43777">
        <ele>542.59997558594</ele>
        <time>2021-08-30T14:25:58Z</time>
      </trkpt>
      <trkpt lat="44.37692" lon="5.43801">
        <ele>543.40002441406</ele>
        <time>2021-08-30T14:26:05Z</time>
      </trkpt>
      <trkpt lat="44.37692" lon="5.43808">
        <ele>543.59997558594</ele>
        <time>2021-08-30T14:26:07Z</time>
      </trkpt>
      <trkpt lat="44.37694" lon="5.43835">
        <ele>544.79998779297</ele>
        <time>2021-08-30T14:26:14Z</time>
      </trkpt>
      <trkpt lat="44.37694" lon="5.43842">
        <ele>545</ele>
        <time>2021-08-30T14:26:16Z</time>
      </trkpt>
      <trkpt lat="44.37695" lon="5.43861">
        <ele>545.79998779297</ele>
        <time>2021-08-30T14:26:21Z</time>
      </trkpt>
      <trkpt lat="44.37698" lon="5.43884">
        <ele>546.40002441406</ele>
        <time>2021-08-30T14:26:27Z</time>
      </trkpt>
      <trkpt lat="44.37698" lon="5.43896">
        <ele>547</ele>
        <time>2021-08-30T14:26:30Z</time>
      </trkpt>
      <trkpt lat="44.377" lon="5.43914">
        <ele>547.20001220703</ele>
        <time>2021-08-30T14:26:35Z</time>
      </trkpt>
      <trkpt lat="44.377" lon="5.43931">
        <ele>548</ele>
        <time>2021-08-30T14:26:40Z</time>
      </trkpt>
      <trkpt lat="44.37699" lon="5.43946">
        <ele>548.59997558594</ele>
        <time>2021-08-30T14:26:44Z</time>
      </trkpt>
      <trkpt lat="44.37698" lon="5.43956">
        <ele>549</ele>
        <time>2021-08-30T14:26:47Z</time>
      </trkpt>
      <trkpt lat="44.37696" lon="5.43976">
        <ele>550.20001220703</ele>
        <time>2021-08-30T14:26:53Z</time>
      </trkpt>
      <trkpt lat="44.37696" lon="5.43999">
        <ele>551.20001220703</ele>
        <time>2021-08-30T14:27:00Z</time>
      </trkpt>
      <trkpt lat="44.37695" lon="5.44005">
        <ele>551.40002441406</ele>
        <time>2021-08-30T14:27:02Z</time>
      </trkpt>
      <trkpt lat="44.37695" lon="5.44026">
        <ele>552.20001220703</ele>
        <time>2021-08-30T14:27:08Z</time>
      </trkpt>
      <trkpt lat="44.37696" lon="5.44037">
        <ele>552.40002441406</ele>
        <time>2021-08-30T14:27:11Z</time>
      </trkpt>
      <trkpt lat="44.37697" lon="5.44066">
        <ele>553.20001220703</ele>
        <time>2021-08-30T14:27:19Z</time>
      </trkpt>
      <trkpt lat="44.37698" lon="5.4407">
        <ele>553.20001220703</ele>
        <time>2021-08-30T14:27:20Z</time>
      </trkpt>
      <trkpt lat="44.37699" lon="5.44099">
        <ele>554.20001220703</ele>
        <time>2021-08-30T14:27:28Z</time>
      </trkpt>
      <trkpt lat="44.37699" lon="5.44107">
        <ele>554.40002441406</ele>
        <time>2021-08-30T14:27:30Z</time>
      </trkpt>
      <trkpt lat="44.377" lon="5.44137">
        <ele>555.20001220703</ele>
        <time>2021-08-30T14:27:38Z</time>
      </trkpt>
      <trkpt lat="44.37701" lon="5.44148">
        <ele>555.40002441406</ele>
        <time>2021-08-30T14:27:41Z</time>
      </trkpt>
      <trkpt lat="44.37703" lon="5.44167">
        <ele>556</ele>
        <time>2021-08-30T14:27:46Z</time>
      </trkpt>
      <trkpt lat="44.37704" lon="5.44178">
        <ele>556.40002441406</ele>
        <time>2021-08-30T14:27:49Z</time>
      </trkpt>
      <trkpt lat="44.37706" lon="5.44193">
        <ele>556.79998779297</ele>
        <time>2021-08-30T14:27:53Z</time>
      </trkpt>
      <trkpt lat="44.37711" lon="5.44218">
        <ele>557.40002441406</ele>
        <time>2021-08-30T14:28:00Z</time>
      </trkpt>
      <trkpt lat="44.37721" lon="5.44251">
        <ele>558.59997558594</ele>
        <time>2021-08-30T14:28:09Z</time>
      </trkpt>
      <trkpt lat="44.37726" lon="5.44267">
        <ele>559.79998779297</ele>
        <time>2021-08-30T14:28:14Z</time>
      </trkpt>
      <trkpt lat="44.37728" lon="5.4428">
        <ele>560.40002441406</ele>
        <time>2021-08-30T14:28:18Z</time>
      </trkpt>
      <trkpt lat="44.37729" lon="5.44287">
        <ele>560.79998779297</ele>
        <time>2021-08-30T14:28:20Z</time>
      </trkpt>
      <trkpt lat="44.37732" lon="5.44311">
        <ele>561.59997558594</ele>
        <time>2021-08-30T14:28:27Z</time>
      </trkpt>
      <trkpt lat="44.37732" lon="5.44323">
        <ele>561.79998779297</ele>
        <time>2021-08-30T14:28:30Z</time>
      </trkpt>
      <trkpt lat="44.37732" lon="5.44337">
        <ele>562.20001220703</ele>
        <time>2021-08-30T14:28:34Z</time>
      </trkpt>
      <trkpt lat="44.37732" lon="5.44354">
        <ele>563</ele>
        <time>2021-08-30T14:28:39Z</time>
      </trkpt>
      <trkpt lat="44.37732" lon="5.4436">
        <ele>563.20001220703</ele>
        <time>2021-08-30T14:28:41Z</time>
      </trkpt>
      <trkpt lat="44.37734" lon="5.44377">
        <ele>564</ele>
        <time>2021-08-30T14:28:46Z</time>
      </trkpt>
      <trkpt lat="44.37738" lon="5.44393">
        <ele>564.59997558594</ele>
        <time>2021-08-30T14:28:51Z</time>
      </trkpt>
      <trkpt lat="44.37741" lon="5.44402">
        <ele>565</ele>
        <time>2021-08-30T14:28:54Z</time>
      </trkpt>
      <trkpt lat="44.37746" lon="5.44414">
        <ele>565.59997558594</ele>
        <time>2021-08-30T14:28:58Z</time>
      </trkpt>
      <trkpt lat="44.37749" lon="5.44423">
        <ele>566.20001220703</ele>
        <time>2021-08-30T14:29:01Z</time>
      </trkpt>
      <trkpt lat="44.37754" lon="5.44435">
        <ele>566.79998779297</ele>
        <time>2021-08-30T14:29:05Z</time>
      </trkpt>
      <trkpt lat="44.3776" lon="5.44449">
        <ele>567.20001220703</ele>
        <time>2021-08-30T14:29:10Z</time>
      </trkpt>
      <trkpt lat="44.37767" lon="5.44468">
        <ele>568</ele>
        <time>2021-08-30T14:29:16Z</time>
      </trkpt>
      <trkpt lat="44.37771" lon="5.44477">
        <ele>568.40002441406</ele>
        <time>2021-08-30T14:29:19Z</time>
      </trkpt>
      <trkpt lat="44.3778" lon="5.44501">
        <ele>569.40002441406</ele>
        <time>2021-08-30T14:29:27Z</time>
      </trkpt>
      <trkpt lat="44.37781" lon="5.44504">
        <ele>569.59997558594</ele>
        <time>2021-08-30T14:29:28Z</time>
      </trkpt>
      <trkpt lat="44.37789" lon="5.44527">
        <ele>570.59997558594</ele>
        <time>2021-08-30T14:29:35Z</time>
      </trkpt>
      <trkpt lat="44.37791" lon="5.44535">
        <ele>571</ele>
        <time>2021-08-30T14:29:37Z</time>
      </trkpt>
      <trkpt lat="44.37794" lon="5.44553">
        <ele>571.79998779297</ele>
        <time>2021-08-30T14:29:42Z</time>
      </trkpt>
      <trkpt lat="44.37799" lon="5.4457">
        <ele>572.79998779297</ele>
        <time>2021-08-30T14:29:47Z</time>
      </trkpt>
      <trkpt lat="44.37806" lon="5.44594">
        <ele>573.79998779297</ele>
        <time>2021-08-30T14:29:54Z</time>
      </trkpt>
      <trkpt lat="44.37807" lon="5.44598">
        <ele>573.79998779297</ele>
        <time>2021-08-30T14:29:55Z</time>
      </trkpt>
      <trkpt lat="44.37813" lon="5.44621">
        <ele>574.79998779297</ele>
        <time>2021-08-30T14:30:02Z</time>
      </trkpt>
      <trkpt lat="44.37816" lon="5.44631">
        <ele>575.20001220703</ele>
        <time>2021-08-30T14:30:05Z</time>
      </trkpt>
      <trkpt lat="44.3782" lon="5.44643">
        <ele>575.79998779297</ele>
        <time>2021-08-30T14:30:09Z</time>
      </trkpt>
      <trkpt lat="44.37824" lon="5.44652">
        <ele>576.20001220703</ele>
        <time>2021-08-30T14:30:12Z</time>
      </trkpt>
      <trkpt lat="44.37834" lon="5.44681">
        <ele>576.79998779297</ele>
        <time>2021-08-30T14:30:21Z</time>
      </trkpt>
      <trkpt lat="44.37844" lon="5.44709">
        <ele>578</ele>
        <time>2021-08-30T14:30:29Z</time>
      </trkpt>
      <trkpt lat="44.37845" lon="5.44712">
        <ele>578.20001220703</ele>
        <time>2021-08-30T14:30:30Z</time>
      </trkpt>
      <trkpt lat="44.37851" lon="5.44737">
        <ele>579.20001220703</ele>
        <time>2021-08-30T14:30:37Z</time>
      </trkpt>
      <trkpt lat="44.37852" lon="5.44759">
        <ele>580</ele>
        <time>2021-08-30T14:30:43Z</time>
      </trkpt>
      <trkpt lat="44.37852" lon="5.44773">
        <ele>580.20001220703</ele>
        <time>2021-08-30T14:30:47Z</time>
      </trkpt>
      <trkpt lat="44.37851" lon="5.4479">
        <ele>580.79998779297</ele>
        <time>2021-08-30T14:30:52Z</time>
      </trkpt>
      <trkpt lat="44.37848" lon="5.44801">
        <ele>581.20001220703</ele>
        <time>2021-08-30T14:30:55Z</time>
      </trkpt>
      <trkpt lat="44.37844" lon="5.4482">
        <ele>582.20001220703</ele>
        <time>2021-08-30T14:31:00Z</time>
      </trkpt>
      <trkpt lat="44.37844" lon="5.44824">
        <ele>582.59997558594</ele>
        <time>2021-08-30T14:31:01Z</time>
      </trkpt>
      <trkpt lat="44.37839" lon="5.44853">
        <ele>583.59997558594</ele>
        <time>2021-08-30T14:31:08Z</time>
      </trkpt>
      <trkpt lat="44.37838" lon="5.44861">
        <ele>583.79998779297</ele>
        <time>2021-08-30T14:31:10Z</time>
      </trkpt>
      <trkpt lat="44.37838" lon="5.4489">
        <ele>584.59997558594</ele>
        <time>2021-08-30T14:31:17Z</time>
      </trkpt>
      <trkpt lat="44.37838" lon="5.44894">
        <ele>584.79998779297</ele>
        <time>2021-08-30T14:31:18Z</time>
      </trkpt>
      <trkpt lat="44.37842" lon="5.44929">
        <ele>585.20001220703</ele>
        <time>2021-08-30T14:31:26Z</time>
      </trkpt>
      <trkpt lat="44.37844" lon="5.44949">
        <ele>585.79998779297</ele>
        <time>2021-08-30T14:31:31Z</time>
      </trkpt>
      <trkpt lat="44.37843" lon="5.44966">
        <ele>586.40002441406</ele>
        <time>2021-08-30T14:31:35Z</time>
      </trkpt>
      <trkpt lat="44.37843" lon="5.44974">
        <ele>586.79998779297</ele>
        <time>2021-08-30T14:31:37Z</time>
      </trkpt>
      <trkpt lat="44.37841" lon="5.45">
        <ele>587.79998779297</ele>
        <time>2021-08-30T14:31:43Z</time>
      </trkpt>
      <trkpt lat="44.3784" lon="5.4503">
        <ele>588.79998779297</ele>
        <time>2021-08-30T14:31:50Z</time>
      </trkpt>
      <trkpt lat="44.37841" lon="5.45038">
        <ele>589</ele>
        <time>2021-08-30T14:31:52Z</time>
      </trkpt>
      <trkpt lat="44.37843" lon="5.45064">
        <ele>589.79998779297</ele>
        <time>2021-08-30T14:31:58Z</time>
      </trkpt>
      <trkpt lat="44.37845" lon="5.45076">
        <ele>590.20001220703</ele>
        <time>2021-08-30T14:32:01Z</time>
      </trkpt>
      <trkpt lat="44.37851" lon="5.45101">
        <ele>590.79998779297</ele>
        <time>2021-08-30T14:32:07Z</time>
      </trkpt>
      <trkpt lat="44.37855" lon="5.45112">
        <ele>591.20001220703</ele>
        <time>2021-08-30T14:32:10Z</time>
      </trkpt>
      <trkpt lat="44.37864" lon="5.45132">
        <ele>592</ele>
        <time>2021-08-30T14:32:15Z</time>
      </trkpt>
      <trkpt lat="44.37873" lon="5.45152">
        <ele>592.40002441406</ele>
        <time>2021-08-30T14:32:20Z</time>
      </trkpt>
      <trkpt lat="44.37885" lon="5.45176">
        <ele>593</ele>
        <time>2021-08-30T14:32:26Z</time>
      </trkpt>
      <trkpt lat="44.37892" lon="5.45191">
        <ele>593.40002441406</ele>
        <time>2021-08-30T14:32:30Z</time>
      </trkpt>
      <trkpt lat="44.37902" lon="5.4521">
        <ele>594</ele>
        <time>2021-08-30T14:32:35Z</time>
      </trkpt>
      <trkpt lat="44.37909" lon="5.45225">
        <ele>594.40002441406</ele>
        <time>2021-08-30T14:32:39Z</time>
      </trkpt>
      <trkpt lat="44.37918" lon="5.45244">
        <ele>595.20001220703</ele>
        <time>2021-08-30T14:32:44Z</time>
      </trkpt>
      <trkpt lat="44.37926" lon="5.45258">
        <ele>595.79998779297</ele>
        <time>2021-08-30T14:32:48Z</time>
      </trkpt>
      <trkpt lat="44.37936" lon="5.45276">
        <ele>596.20001220703</ele>
        <time>2021-08-30T14:32:53Z</time>
      </trkpt>
      <trkpt lat="44.37943" lon="5.45291">
        <ele>596.20001220703</ele>
        <time>2021-08-30T14:32:57Z</time>
      </trkpt>
      <trkpt lat="44.3796" lon="5.45324">
        <ele>597.20001220703</ele>
        <time>2021-08-30T14:33:06Z</time>
      </trkpt>
      <trkpt lat="44.37962" lon="5.45328">
        <ele>597.20001220703</ele>
        <time>2021-08-30T14:33:07Z</time>
      </trkpt>
      <trkpt lat="44.37973" lon="5.4535">
        <ele>598</ele>
        <time>2021-08-30T14:33:13Z</time>
      </trkpt>
      <trkpt lat="44.37977" lon="5.45358">
        <ele>598.20001220703</ele>
        <time>2021-08-30T14:33:15Z</time>
      </trkpt>
      <trkpt lat="44.37988" lon="5.45381">
        <ele>599</ele>
        <time>2021-08-30T14:33:21Z</time>
      </trkpt>
      <trkpt lat="44.37994" lon="5.45392">
        <ele>599.40002441406</ele>
        <time>2021-08-30T14:33:24Z</time>
      </trkpt>
      <trkpt lat="44.38006" lon="5.45415">
        <ele>600.40002441406</ele>
        <time>2021-08-30T14:33:30Z</time>
      </trkpt>
      <trkpt lat="44.38008" lon="5.45419">
        <ele>600.59997558594</ele>
        <time>2021-08-30T14:33:31Z</time>
      </trkpt>
      <trkpt lat="44.38022" lon="5.45446">
        <ele>601.59997558594</ele>
        <time>2021-08-30T14:33:38Z</time>
      </trkpt>
      <trkpt lat="44.38026" lon="5.45454">
        <ele>601.59997558594</ele>
        <time>2021-08-30T14:33:40Z</time>
      </trkpt>
      <trkpt lat="44.3804" lon="5.45484">
        <ele>602.20001220703</ele>
        <time>2021-08-30T14:33:47Z</time>
      </trkpt>
      <trkpt lat="44.38047" lon="5.45497">
        <ele>602.59997558594</ele>
        <time>2021-08-30T14:33:50Z</time>
      </trkpt>
      <trkpt lat="44.38059" lon="5.45518">
        <ele>602.79998779297</ele>
        <time>2021-08-30T14:33:55Z</time>
      </trkpt>
      <trkpt lat="44.38075" lon="5.45546">
        <ele>603</ele>
        <time>2021-08-30T14:34:02Z</time>
      </trkpt>
      <trkpt lat="44.38094" lon="5.45568">
        <ele>603.40002441406</ele>
        <time>2021-08-30T14:34:09Z</time>
      </trkpt>
      <trkpt lat="44.3812" lon="5.45582">
        <ele>602.79998779297</ele>
        <time>2021-08-30T14:34:16Z</time>
      </trkpt>
      <trkpt lat="44.38145" lon="5.45584">
        <ele>602.40002441406</ele>
        <time>2021-08-30T14:34:21Z</time>
      </trkpt>
      <trkpt lat="44.3817" lon="5.45581">
        <ele>601.59997558594</ele>
        <time>2021-08-30T14:34:25Z</time>
      </trkpt>
      <trkpt lat="44.38177" lon="5.45579">
        <ele>601.40002441406</ele>
        <time>2021-08-30T14:34:26Z</time>
      </trkpt>
      <trkpt lat="44.38207" lon="5.45574">
        <ele>600.40002441406</ele>
        <time>2021-08-30T14:34:30Z</time>
      </trkpt>
      <trkpt lat="44.38232" lon="5.45569">
        <ele>599.59997558594</ele>
        <time>2021-08-30T14:34:33Z</time>
      </trkpt>
      <trkpt lat="44.3824" lon="5.45567">
        <ele>599.20001220703</ele>
        <time>2021-08-30T14:34:34Z</time>
      </trkpt>
      <trkpt lat="44.38265" lon="5.45562">
        <ele>598</ele>
        <time>2021-08-30T14:34:37Z</time>
      </trkpt>
      <trkpt lat="44.383" lon="5.45554">
        <ele>597</ele>
        <time>2021-08-30T14:34:41Z</time>
      </trkpt>
      <trkpt lat="44.38309" lon="5.45553">
        <ele>596.59997558594</ele>
        <time>2021-08-30T14:34:42Z</time>
      </trkpt>
      <trkpt lat="44.38335" lon="5.45551">
        <ele>595.59997558594</ele>
        <time>2021-08-30T14:34:45Z</time>
      </trkpt>
      <trkpt lat="44.38353" lon="5.45552">
        <ele>595</ele>
        <time>2021-08-30T14:34:47Z</time>
      </trkpt>
      <trkpt lat="44.38362" lon="5.45555">
        <ele>594.59997558594</ele>
        <time>2021-08-30T14:34:48Z</time>
      </trkpt>
      <trkpt lat="44.38371" lon="5.45558">
        <ele>594.40002441406</ele>
        <time>2021-08-30T14:34:49Z</time>
      </trkpt>
      <trkpt lat="44.38387" lon="5.45566">
        <ele>593.59997558594</ele>
        <time>2021-08-30T14:34:51Z</time>
      </trkpt>
      <trkpt lat="44.38394" lon="5.45571">
        <ele>593.40002441406</ele>
        <time>2021-08-30T14:34:52Z</time>
      </trkpt>
      <trkpt lat="44.38427" lon="5.45594">
        <ele>592.79998779297</ele>
        <time>2021-08-30T14:34:57Z</time>
      </trkpt>
      <trkpt lat="44.38453" lon="5.45612">
        <ele>593.59997558594</ele>
        <time>2021-08-30T14:35:02Z</time>
      </trkpt>
      <trkpt lat="44.38477" lon="5.45624">
        <ele>594.40002441406</ele>
        <time>2021-08-30T14:35:08Z</time>
      </trkpt>
      <trkpt lat="44.38481" lon="5.45626">
        <ele>594.40002441406</ele>
        <time>2021-08-30T14:35:09Z</time>
      </trkpt>
      <trkpt lat="44.38515" lon="5.45635">
        <ele>595.59997558594</ele>
        <time>2021-08-30T14:35:18Z</time>
      </trkpt>
      <trkpt lat="44.38542" lon="5.45639">
        <ele>596.59997558594</ele>
        <time>2021-08-30T14:35:25Z</time>
      </trkpt>
      <trkpt lat="44.3855" lon="5.4564">
        <ele>596.79998779297</ele>
        <time>2021-08-30T14:35:27Z</time>
      </trkpt>
      <trkpt lat="44.38564" lon="5.45644">
        <ele>598.20001220703</ele>
        <time>2021-08-30T14:36:31Z</time>
      </trkpt>
      <trkpt lat="44.38568" lon="5.45644">
        <ele>598.20001220703</ele>
        <time>2021-08-30T14:36:34Z</time>
      </trkpt>
      <trkpt lat="44.38583" lon="5.45651">
        <ele>598.40002441406</ele>
        <time>2021-08-30T14:36:40Z</time>
      </trkpt>
      <trkpt lat="44.38599" lon="5.4566">
        <ele>598.79998779297</ele>
        <time>2021-08-30T14:36:45Z</time>
      </trkpt>
      <trkpt lat="44.38605" lon="5.45665">
        <ele>599</ele>
        <time>2021-08-30T14:36:47Z</time>
      </trkpt>
      <trkpt lat="44.38623" lon="5.45681">
        <ele>599.79998779297</ele>
        <time>2021-08-30T14:36:53Z</time>
      </trkpt>
      <trkpt lat="44.38628" lon="5.45687">
        <ele>600.20001220703</ele>
        <time>2021-08-30T14:36:55Z</time>
      </trkpt>
      <trkpt lat="44.38637" lon="5.457">
        <ele>601</ele>
        <time>2021-08-30T14:36:59Z</time>
      </trkpt>
      <trkpt lat="44.38647" lon="5.45713">
        <ele>601.79998779297</ele>
        <time>2021-08-30T14:37:03Z</time>
      </trkpt>
      <trkpt lat="44.38652" lon="5.45719">
        <ele>602</ele>
        <time>2021-08-30T14:37:05Z</time>
      </trkpt>
      <trkpt lat="44.38668" lon="5.45738">
        <ele>602.79998779297</ele>
        <time>2021-08-30T14:37:11Z</time>
      </trkpt>
      <trkpt lat="44.38676" lon="5.45746">
        <ele>603</ele>
        <time>2021-08-30T14:37:14Z</time>
      </trkpt>
      <trkpt lat="44.38694" lon="5.45763">
        <ele>603.79998779297</ele>
        <time>2021-08-30T14:37:20Z</time>
      </trkpt>
      <trkpt lat="44.38706" lon="5.45771">
        <ele>604.20001220703</ele>
        <time>2021-08-30T14:37:24Z</time>
      </trkpt>
      <trkpt lat="44.38719" lon="5.4578">
        <ele>604.59997558594</ele>
        <time>2021-08-30T14:37:28Z</time>
      </trkpt>
      <trkpt lat="44.38734" lon="5.45788">
        <ele>605.20001220703</ele>
        <time>2021-08-30T14:37:33Z</time>
      </trkpt>
      <trkpt lat="44.3874" lon="5.45791">
        <ele>605.59997558594</ele>
        <time>2021-08-30T14:37:35Z</time>
      </trkpt>
      <trkpt lat="44.38757" lon="5.45798">
        <ele>606.20001220703</ele>
        <time>2021-08-30T14:37:40Z</time>
      </trkpt>
      <trkpt lat="44.38773" lon="5.45803">
        <ele>606.59997558594</ele>
        <time>2021-08-30T14:37:45Z</time>
      </trkpt>
      <trkpt lat="44.3879" lon="5.45806">
        <ele>607.59997558594</ele>
        <time>2021-08-30T14:37:50Z</time>
      </trkpt>
      <trkpt lat="44.38796" lon="5.45807">
        <ele>607.79998779297</ele>
        <time>2021-08-30T14:37:52Z</time>
      </trkpt>
      <trkpt lat="44.38821" lon="5.45807">
        <ele>608.59997558594</ele>
        <time>2021-08-30T14:37:59Z</time>
      </trkpt>
      <trkpt lat="44.38824" lon="5.45807">
        <ele>608.59997558594</ele>
        <time>2021-08-30T14:38:00Z</time>
      </trkpt>
      <trkpt lat="44.38853" lon="5.45815">
        <ele>609.40002441406</ele>
        <time>2021-08-30T14:38:08Z</time>
      </trkpt>
      <trkpt lat="44.38864" lon="5.45819">
        <ele>609.59997558594</ele>
        <time>2021-08-30T14:38:11Z</time>
      </trkpt>
      <trkpt lat="44.38878" lon="5.4583">
        <ele>610</ele>
        <time>2021-08-30T14:38:15Z</time>
      </trkpt>
      <trkpt lat="44.38885" lon="5.45837">
        <ele>610</ele>
        <time>2021-08-30T14:38:17Z</time>
      </trkpt>
      <trkpt lat="44.38895" lon="5.45855">
        <ele>610.20001220703</ele>
        <time>2021-08-30T14:38:21Z</time>
      </trkpt>
      <trkpt lat="44.38902" lon="5.45877">
        <ele>610.59997558594</ele>
        <time>2021-08-30T14:38:25Z</time>
      </trkpt>
      <trkpt lat="44.38904" lon="5.45892">
        <ele>610.59997558594</ele>
        <time>2021-08-30T14:38:28Z</time>
      </trkpt>
      <trkpt lat="44.38903" lon="5.45923">
        <ele>611.20001220703</ele>
        <time>2021-08-30T14:38:34Z</time>
      </trkpt>
      <trkpt lat="44.38893" lon="5.4595">
        <ele>611.79998779297</ele>
        <time>2021-08-30T14:38:40Z</time>
      </trkpt>
      <trkpt lat="44.38891" lon="5.45954">
        <ele>611.79998779297</ele>
        <time>2021-08-30T14:38:41Z</time>
      </trkpt>
      <trkpt lat="44.38875" lon="5.45972">
        <ele>612.40002441406</ele>
        <time>2021-08-30T14:38:47Z</time>
      </trkpt>
      <trkpt lat="44.38864" lon="5.4598">
        <ele>612.79998779297</ele>
        <time>2021-08-30T14:38:51Z</time>
      </trkpt>
      <trkpt lat="44.38853" lon="5.45988">
        <ele>613.40002441406</ele>
        <time>2021-08-30T14:38:56Z</time>
      </trkpt>
      <trkpt lat="44.38842" lon="5.45996">
        <ele>614</ele>
        <time>2021-08-30T14:39:00Z</time>
      </trkpt>
      <trkpt lat="44.38833" lon="5.46005">
        <ele>614.59997558594</ele>
        <time>2021-08-30T14:39:04Z</time>
      </trkpt>
      <trkpt lat="44.38826" lon="5.46014">
        <ele>615</ele>
        <time>2021-08-30T14:39:07Z</time>
      </trkpt>
      <trkpt lat="44.38815" lon="5.46033">
        <ele>616</ele>
        <time>2021-08-30T14:39:13Z</time>
      </trkpt>
      <trkpt lat="44.38814" lon="5.46037">
        <ele>616.20001220703</ele>
        <time>2021-08-30T14:39:14Z</time>
      </trkpt>
      <trkpt lat="44.38807" lon="5.4606">
        <ele>616.79998779297</ele>
        <time>2021-08-30T14:39:20Z</time>
      </trkpt>
      <trkpt lat="44.38803" lon="5.46075">
        <ele>617.20001220703</ele>
        <time>2021-08-30T14:39:24Z</time>
      </trkpt>
      <trkpt lat="44.38803" lon="5.46079">
        <ele>617.20001220703</ele>
        <time>2021-08-30T14:39:25Z</time>
      </trkpt>
      <trkpt lat="44.38803" lon="5.46104">
        <ele>617.79998779297</ele>
        <time>2021-08-30T14:39:31Z</time>
      </trkpt>
      <trkpt lat="44.38804" lon="5.4612">
        <ele>618.20001220703</ele>
        <time>2021-08-30T14:39:35Z</time>
      </trkpt>
      <trkpt lat="44.38804" lon="5.46128">
        <ele>618.40002441406</ele>
        <time>2021-08-30T14:39:37Z</time>
      </trkpt>
      <trkpt lat="44.38808" lon="5.46151">
        <ele>619.20001220703</ele>
        <time>2021-08-30T14:39:43Z</time>
      </trkpt>
      <trkpt lat="44.3881" lon="5.46161">
        <ele>619.79998779297</ele>
        <time>2021-08-30T14:39:47Z</time>
      </trkpt>
      <trkpt lat="44.3881" lon="5.46163">
        <ele>620</ele>
        <time>2021-08-30T14:39:48Z</time>
      </trkpt>
      <trkpt lat="44.38811" lon="5.46168">
        <ele>620.40002441406</ele>
        <time>2021-08-30T14:40:07Z</time>
      </trkpt>
      <trkpt lat="44.38812" lon="5.4617">
        <ele>620.40002441406</ele>
        <time>2021-08-30T14:40:08Z</time>
      </trkpt>
      <trkpt lat="44.38813" lon="5.46183">
        <ele>620.59997558594</ele>
        <time>2021-08-30T14:40:13Z</time>
      </trkpt>
      <trkpt lat="44.38811" lon="5.46186">
        <ele>620.59997558594</ele>
        <time>2021-08-30T14:40:15Z</time>
      </trkpt>
      <trkpt lat="44.38808" lon="5.46187">
        <ele>620.79998779297</ele>
        <time>2021-08-30T14:40:17Z</time>
      </trkpt>
      <trkpt lat="44.38805" lon="5.4618">
        <ele>621</ele>
        <time>2021-08-30T14:40:21Z</time>
      </trkpt>
      <trkpt lat="44.38807" lon="5.46182">
        <ele>620.59997558594</ele>
        <time>2021-08-30T14:40:38Z</time>
      </trkpt>
      <trkpt lat="44.38809" lon="5.46183">
        <ele>620.59997558594</ele>
        <time>2021-08-30T14:40:39Z</time>
      </trkpt>
      <trkpt lat="44.38821" lon="5.46197">
        <ele>621.20001220703</ele>
        <time>2021-08-30T14:40:46Z</time>
      </trkpt>
      <trkpt lat="44.38826" lon="5.4621">
        <ele>621.40002441406</ele>
        <time>2021-08-30T14:40:50Z</time>
      </trkpt>
      <trkpt lat="44.38831" lon="5.4622">
        <ele>621.79998779297</ele>
        <time>2021-08-30T14:40:54Z</time>
      </trkpt>
      <trkpt lat="44.38836" lon="5.46225">
        <ele>622</ele>
        <time>2021-08-30T14:40:57Z</time>
      </trkpt>
      <trkpt lat="44.38838" lon="5.46226">
        <ele>622.20001220703</ele>
        <time>2021-08-30T14:40:58Z</time>
      </trkpt>
      <trkpt lat="44.3884" lon="5.46225">
        <ele>622.40002441406</ele>
        <time>2021-08-30T14:40:59Z</time>
      </trkpt>
      <trkpt lat="44.38841" lon="5.46223">
        <ele>622.40002441406</ele>
        <time>2021-08-30T14:41:00Z</time>
      </trkpt>
      <trkpt lat="44.38844" lon="5.46213">
        <ele>622.79998779297</ele>
        <time>2021-08-30T14:41:03Z</time>
      </trkpt>
      <trkpt lat="44.38839" lon="5.46195">
        <ele>623.40002441406</ele>
        <time>2021-08-30T14:41:08Z</time>
      </trkpt>
      <trkpt lat="44.38838" lon="5.46192">
        <ele>623.59997558594</ele>
        <time>2021-08-30T14:41:09Z</time>
      </trkpt>
      <trkpt lat="44.38837" lon="5.4617">
        <ele>624.40002441406</ele>
        <time>2021-08-30T14:41:15Z</time>
      </trkpt>
      <trkpt lat="44.38837" lon="5.46166">
        <ele>624.59997558594</ele>
        <time>2021-08-30T14:41:16Z</time>
      </trkpt>
      <trkpt lat="44.38838" lon="5.46143">
        <ele>625.20001220703</ele>
        <time>2021-08-30T14:41:23Z</time>
      </trkpt>
      <trkpt lat="44.38837" lon="5.46133">
        <ele>625.79998779297</ele>
        <time>2021-08-30T14:41:26Z</time>
      </trkpt>
      <trkpt lat="44.38839" lon="5.46115">
        <ele>626.59997558594</ele>
        <time>2021-08-30T14:41:31Z</time>
      </trkpt>
      <trkpt lat="44.3884" lon="5.46109">
        <ele>626.79998779297</ele>
        <time>2021-08-30T14:41:33Z</time>
      </trkpt>
      <trkpt lat="44.38844" lon="5.46088">
        <ele>627.79998779297</ele>
        <time>2021-08-30T14:41:40Z</time>
      </trkpt>
      <trkpt lat="44.38851" lon="5.4609">
        <ele>628.40002441406</ele>
        <time>2021-08-30T14:41:43Z</time>
      </trkpt>
      <trkpt lat="44.38853" lon="5.46098">
        <ele>629</ele>
        <time>2021-08-30T14:41:46Z</time>
      </trkpt>
      <trkpt lat="44.38854" lon="5.46101">
        <ele>629</ele>
        <time>2021-08-30T14:41:47Z</time>
      </trkpt>
      <trkpt lat="44.38855" lon="5.46112">
        <ele>630</ele>
        <time>2021-08-30T14:41:51Z</time>
      </trkpt>
      <trkpt lat="44.38855" lon="5.46118">
        <ele>630.20001220703</ele>
        <time>2021-08-30T14:41:53Z</time>
      </trkpt>
      <trkpt lat="44.38855" lon="5.46123">
        <ele>630.59997558594</ele>
        <time>2021-08-30T14:41:55Z</time>
      </trkpt>
      <trkpt lat="44.38861" lon="5.46137">
        <ele>631</ele>
        <time>2021-08-30T14:42:01Z</time>
      </trkpt>
      <trkpt lat="44.38869" lon="5.46148">
        <ele>631.59997558594</ele>
        <time>2021-08-30T14:42:07Z</time>
      </trkpt>
      <trkpt lat="44.38874" lon="5.46151">
        <ele>632</ele>
        <time>2021-08-30T14:42:10Z</time>
      </trkpt>
      <trkpt lat="44.38884" lon="5.46153">
        <ele>633</ele>
        <time>2021-08-30T14:42:15Z</time>
      </trkpt>
      <trkpt lat="44.38885" lon="5.46153">
        <ele>633.20001220703</ele>
        <time>2021-08-30T14:42:16Z</time>
      </trkpt>
      <trkpt lat="44.38898" lon="5.46152">
        <ele>634.20001220703</ele>
        <time>2021-08-30T14:42:23Z</time>
      </trkpt>
      <trkpt lat="44.38918" lon="5.46148">
        <ele>635.20001220703</ele>
        <time>2021-08-30T14:42:33Z</time>
      </trkpt>
      <trkpt lat="44.38933" lon="5.46145">
        <ele>636.20001220703</ele>
        <time>2021-08-30T14:42:41Z</time>
      </trkpt>
      <trkpt lat="44.38949" lon="5.46142">
        <ele>637</ele>
        <time>2021-08-30T14:42:49Z</time>
      </trkpt>
      <trkpt lat="44.38953" lon="5.4614">
        <ele>637.40002441406</ele>
        <time>2021-08-30T14:42:51Z</time>
      </trkpt>
      <trkpt lat="44.38965" lon="5.46136">
        <ele>638</ele>
        <time>2021-08-30T14:42:57Z</time>
      </trkpt>
      <trkpt lat="44.38969" lon="5.46135">
        <ele>638.40002441406</ele>
        <time>2021-08-30T14:42:59Z</time>
      </trkpt>
      <trkpt lat="44.38979" lon="5.46137">
        <ele>639.20001220703</ele>
        <time>2021-08-30T14:43:04Z</time>
      </trkpt>
      <trkpt lat="44.38984" lon="5.46141">
        <ele>639.59997558594</ele>
        <time>2021-08-30T14:43:07Z</time>
      </trkpt>
      <trkpt lat="44.38989" lon="5.4615">
        <ele>640</ele>
        <time>2021-08-30T14:43:11Z</time>
      </trkpt>
      <trkpt lat="44.38989" lon="5.46153">
        <ele>640.20001220703</ele>
        <time>2021-08-30T14:43:12Z</time>
      </trkpt>
      <trkpt lat="44.38988" lon="5.46158">
        <ele>640.59997558594</ele>
        <time>2021-08-30T14:43:14Z</time>
      </trkpt>
      <trkpt lat="44.38987" lon="5.46164">
        <ele>641</ele>
        <time>2021-08-30T14:43:16Z</time>
      </trkpt>
      <trkpt lat="44.38983" lon="5.46182">
        <ele>641.79998779297</ele>
        <time>2021-08-30T14:43:22Z</time>
      </trkpt>
      <trkpt lat="44.38983" lon="5.46184">
        <ele>642</ele>
        <time>2021-08-30T14:43:23Z</time>
      </trkpt>
      <trkpt lat="44.3898" lon="5.46195">
        <ele>642.79998779297</ele>
        <time>2021-08-30T14:43:27Z</time>
      </trkpt>
      <trkpt lat="44.38978" lon="5.46203">
        <ele>643.20001220703</ele>
        <time>2021-08-30T14:43:30Z</time>
      </trkpt>
      <trkpt lat="44.38976" lon="5.46213">
        <ele>643.79998779297</ele>
        <time>2021-08-30T14:43:34Z</time>
      </trkpt>
      <trkpt lat="44.38976" lon="5.46219">
        <ele>644</ele>
        <time>2021-08-30T14:43:36Z</time>
      </trkpt>
      <trkpt lat="44.38975" lon="5.46237">
        <ele>644.79998779297</ele>
        <time>2021-08-30T14:43:43Z</time>
      </trkpt>
      <trkpt lat="44.38974" lon="5.46239">
        <ele>645</ele>
        <time>2021-08-30T14:43:44Z</time>
      </trkpt>
      <trkpt lat="44.38976" lon="5.4626">
        <ele>646</ele>
        <time>2021-08-30T14:43:52Z</time>
      </trkpt>
      <trkpt lat="44.3898" lon="5.46277">
        <ele>647</ele>
        <time>2021-08-30T14:43:59Z</time>
      </trkpt>
      <trkpt lat="44.38981" lon="5.4628">
        <ele>647</ele>
        <time>2021-08-30T14:44:00Z</time>
      </trkpt>
      <trkpt lat="44.38985" lon="5.46294">
        <ele>647.79998779297</ele>
        <time>2021-08-30T14:44:06Z</time>
      </trkpt>
      <trkpt lat="44.38988" lon="5.46298">
        <ele>648.20001220703</ele>
        <time>2021-08-30T14:44:08Z</time>
      </trkpt>
      <trkpt lat="44.38994" lon="5.46312">
        <ele>648.79998779297</ele>
        <time>2021-08-30T14:44:14Z</time>
      </trkpt>
      <trkpt lat="44.38996" lon="5.46317">
        <ele>649.20001220703</ele>
        <time>2021-08-30T14:44:16Z</time>
      </trkpt>
      <trkpt lat="44.39001" lon="5.46332">
        <ele>650</ele>
        <time>2021-08-30T14:44:22Z</time>
      </trkpt>
      <trkpt lat="44.39003" lon="5.46337">
        <ele>650.40002441406</ele>
        <time>2021-08-30T14:44:24Z</time>
      </trkpt>
      <trkpt lat="44.39008" lon="5.46352">
        <ele>651</ele>
        <time>2021-08-30T14:44:30Z</time>
      </trkpt>
      <trkpt lat="44.3901" lon="5.4636">
        <ele>651.40002441406</ele>
        <time>2021-08-30T14:44:33Z</time>
      </trkpt>
      <trkpt lat="44.39015" lon="5.46372">
        <ele>652</ele>
        <time>2021-08-30T14:44:38Z</time>
      </trkpt>
      <trkpt lat="44.39018" lon="5.46379">
        <ele>652.59997558594</ele>
        <time>2021-08-30T14:44:41Z</time>
      </trkpt>
      <trkpt lat="44.39023" lon="5.46393">
        <ele>653.40002441406</ele>
        <time>2021-08-30T14:44:47Z</time>
      </trkpt>
      <trkpt lat="44.39024" lon="5.46396">
        <ele>653.59997558594</ele>
        <time>2021-08-30T14:44:48Z</time>
      </trkpt>
      <trkpt lat="44.39029" lon="5.4641">
        <ele>654.40002441406</ele>
        <time>2021-08-30T14:44:54Z</time>
      </trkpt>
      <trkpt lat="44.39031" lon="5.46412">
        <ele>654.59997558594</ele>
        <time>2021-08-30T14:44:55Z</time>
      </trkpt>
      <trkpt lat="44.39039" lon="5.46427">
        <ele>655.59997558594</ele>
        <time>2021-08-30T14:45:02Z</time>
      </trkpt>
      <trkpt lat="44.39052" lon="5.46444">
        <ele>656.79998779297</ele>
        <time>2021-08-30T14:45:11Z</time>
      </trkpt>
      <trkpt lat="44.39053" lon="5.46446">
        <ele>656.79998779297</ele>
        <time>2021-08-30T14:45:12Z</time>
      </trkpt>
      <trkpt lat="44.39063" lon="5.4646">
        <ele>657.79998779297</ele>
        <time>2021-08-30T14:45:19Z</time>
      </trkpt>
      <trkpt lat="44.39066" lon="5.46464">
        <ele>658</ele>
        <time>2021-08-30T14:45:21Z</time>
      </trkpt>
      <trkpt lat="44.39074" lon="5.46476">
        <ele>659</ele>
        <time>2021-08-30T14:45:27Z</time>
      </trkpt>
      <trkpt lat="44.3908" lon="5.46483">
        <ele>659.40002441406</ele>
        <time>2021-08-30T14:45:31Z</time>
      </trkpt>
      <trkpt lat="44.39087" lon="5.46493">
        <ele>660</ele>
        <time>2021-08-30T14:45:36Z</time>
      </trkpt>
      <trkpt lat="44.39093" lon="5.46502">
        <ele>660.59997558594</ele>
        <time>2021-08-30T14:45:40Z</time>
      </trkpt>
      <trkpt lat="44.39096" lon="5.46513">
        <ele>661.20001220703</ele>
        <time>2021-08-30T14:45:44Z</time>
      </trkpt>
      <trkpt lat="44.39098" lon="5.46518">
        <ele>661.40002441406</ele>
        <time>2021-08-30T14:45:46Z</time>
      </trkpt>
      <trkpt lat="44.39103" lon="5.46532">
        <ele>662.40002441406</ele>
        <time>2021-08-30T14:45:51Z</time>
      </trkpt>
      <trkpt lat="44.39107" lon="5.46539">
        <ele>662.79998779297</ele>
        <time>2021-08-30T14:45:54Z</time>
      </trkpt>
      <trkpt lat="44.3911" lon="5.46553">
        <ele>663.59997558594</ele>
        <time>2021-08-30T14:45:59Z</time>
      </trkpt>
      <trkpt lat="44.3911" lon="5.46559">
        <ele>663.79998779297</ele>
        <time>2021-08-30T14:46:01Z</time>
      </trkpt>
      <trkpt lat="44.39113" lon="5.46579">
        <ele>664.59997558594</ele>
        <time>2021-08-30T14:46:08Z</time>
      </trkpt>
      <trkpt lat="44.39114" lon="5.46581">
        <ele>664.79998779297</ele>
        <time>2021-08-30T14:46:09Z</time>
      </trkpt>
      <trkpt lat="44.39117" lon="5.46597">
        <ele>665.79998779297</ele>
        <time>2021-08-30T14:46:15Z</time>
      </trkpt>
      <trkpt lat="44.39118" lon="5.46602">
        <ele>666</ele>
        <time>2021-08-30T14:46:17Z</time>
      </trkpt>
      <trkpt lat="44.39119" lon="5.46619">
        <ele>667</ele>
        <time>2021-08-30T14:46:23Z</time>
      </trkpt>
      <trkpt lat="44.39121" lon="5.46627">
        <ele>667.20001220703</ele>
        <time>2021-08-30T14:46:26Z</time>
      </trkpt>
      <trkpt lat="44.39123" lon="5.46641">
        <ele>668</ele>
        <time>2021-08-30T14:46:31Z</time>
      </trkpt>
      <trkpt lat="44.39124" lon="5.46649">
        <ele>668.40002441406</ele>
        <time>2021-08-30T14:46:34Z</time>
      </trkpt>
      <trkpt lat="44.39127" lon="5.46663">
        <ele>669.20001220703</ele>
        <time>2021-08-30T14:46:39Z</time>
      </trkpt>
      <trkpt lat="44.3913" lon="5.46671">
        <ele>669.59997558594</ele>
        <time>2021-08-30T14:46:42Z</time>
      </trkpt>
      <trkpt lat="44.39134" lon="5.46684">
        <ele>670.20001220703</ele>
        <time>2021-08-30T14:46:47Z</time>
      </trkpt>
      <trkpt lat="44.39137" lon="5.46691">
        <ele>670.79998779297</ele>
        <time>2021-08-30T14:46:50Z</time>
      </trkpt>
      <trkpt lat="44.39141" lon="5.46701">
        <ele>671.20001220703</ele>
        <time>2021-08-30T14:46:54Z</time>
      </trkpt>
      <trkpt lat="44.39146" lon="5.46711">
        <ele>672</ele>
        <time>2021-08-30T14:46:58Z</time>
      </trkpt>
      <trkpt lat="44.39148" lon="5.46719">
        <ele>672.40002441406</ele>
        <time>2021-08-30T14:47:01Z</time>
      </trkpt>
      <trkpt lat="44.39151" lon="5.46728">
        <ele>673</ele>
        <time>2021-08-30T14:47:05Z</time>
      </trkpt>
      <trkpt lat="44.39157" lon="5.46736">
        <ele>673.40002441406</ele>
        <time>2021-08-30T14:47:09Z</time>
      </trkpt>
      <trkpt lat="44.39162" lon="5.46745">
        <ele>674</ele>
        <time>2021-08-30T14:47:13Z</time>
      </trkpt>
      <trkpt lat="44.39166" lon="5.46752">
        <ele>674.40002441406</ele>
        <time>2021-08-30T14:47:16Z</time>
      </trkpt>
      <trkpt lat="44.39171" lon="5.4676">
        <ele>675.20001220703</ele>
        <time>2021-08-30T14:47:20Z</time>
      </trkpt>
      <trkpt lat="44.39178" lon="5.46768">
        <ele>675.59997558594</ele>
        <time>2021-08-30T14:47:24Z</time>
      </trkpt>
      <trkpt lat="44.39182" lon="5.46774">
        <ele>676.20001220703</ele>
        <time>2021-08-30T14:47:27Z</time>
      </trkpt>
      <trkpt lat="44.39189" lon="5.46781">
        <ele>676.59997558594</ele>
        <time>2021-08-30T14:47:31Z</time>
      </trkpt>
      <trkpt lat="44.39198" lon="5.46788">
        <ele>677.20001220703</ele>
        <time>2021-08-30T14:47:36Z</time>
      </trkpt>
      <trkpt lat="44.3921" lon="5.468">
        <ele>677.59997558594</ele>
        <time>2021-08-30T14:47:43Z</time>
      </trkpt>
      <trkpt lat="44.39214" lon="5.46807">
        <ele>678.20001220703</ele>
        <time>2021-08-30T14:47:46Z</time>
      </trkpt>
      <trkpt lat="44.39223" lon="5.46816">
        <ele>678.79998779297</ele>
        <time>2021-08-30T14:47:51Z</time>
      </trkpt>
      <trkpt lat="44.39225" lon="5.46818">
        <ele>679</ele>
        <time>2021-08-30T14:47:52Z</time>
      </trkpt>
      <trkpt lat="44.39238" lon="5.46829">
        <ele>679.79998779297</ele>
        <time>2021-08-30T14:47:59Z</time>
      </trkpt>
      <trkpt lat="44.3924" lon="5.4683">
        <ele>680</ele>
        <time>2021-08-30T14:48:00Z</time>
      </trkpt>
      <trkpt lat="44.3925" lon="5.4684">
        <ele>680.79998779297</ele>
        <time>2021-08-30T14:48:07Z</time>
      </trkpt>
      <trkpt lat="44.39251" lon="5.46842">
        <ele>680.79998779297</ele>
        <time>2021-08-30T14:48:08Z</time>
      </trkpt>
      <trkpt lat="44.39252" lon="5.46844">
        <ele>681</ele>
        <time>2021-08-30T14:48:09Z</time>
      </trkpt>
      <trkpt lat="44.39259" lon="5.4685">
        <ele>681.40002441406</ele>
        <time>2021-08-30T14:48:13Z</time>
      </trkpt>
      <trkpt lat="44.39266" lon="5.46857">
        <ele>682</ele>
        <time>2021-08-30T14:48:17Z</time>
      </trkpt>
      <trkpt lat="44.39269" lon="5.46861">
        <ele>682.20001220703</ele>
        <time>2021-08-30T14:48:19Z</time>
      </trkpt>
      <trkpt lat="44.39276" lon="5.46875">
        <ele>683</ele>
        <time>2021-08-30T14:48:25Z</time>
      </trkpt>
      <trkpt lat="44.39278" lon="5.46878">
        <ele>683.20001220703</ele>
        <time>2021-08-30T14:48:26Z</time>
      </trkpt>
      <trkpt lat="44.39286" lon="5.46898">
        <ele>684</ele>
        <time>2021-08-30T14:48:34Z</time>
      </trkpt>
      <trkpt lat="44.39288" lon="5.46921">
        <ele>685.20001220703</ele>
        <time>2021-08-30T14:48:42Z</time>
      </trkpt>
      <trkpt lat="44.39288" lon="5.46924">
        <ele>685.20001220703</ele>
        <time>2021-08-30T14:48:43Z</time>
      </trkpt>
      <trkpt lat="44.39286" lon="5.46945">
        <ele>686.20001220703</ele>
        <time>2021-08-30T14:48:50Z</time>
      </trkpt>
      <trkpt lat="44.39286" lon="5.46947">
        <ele>686.20001220703</ele>
        <time>2021-08-30T14:48:51Z</time>
      </trkpt>
      <trkpt lat="44.39277" lon="5.46968">
        <ele>687.20001220703</ele>
        <time>2021-08-30T14:48:59Z</time>
      </trkpt>
      <trkpt lat="44.39271" lon="5.46985">
        <ele>688.20001220703</ele>
        <time>2021-08-30T14:49:06Z</time>
      </trkpt>
      <trkpt lat="44.39264" lon="5.46998">
        <ele>688.79998779297</ele>
        <time>2021-08-30T14:49:12Z</time>
      </trkpt>
      <trkpt lat="44.39262" lon="5.4701">
        <ele>689.40002441406</ele>
        <time>2021-08-30T14:49:17Z</time>
      </trkpt>
      <trkpt lat="44.3926" lon="5.47016">
        <ele>689.59997558594</ele>
        <time>2021-08-30T14:49:19Z</time>
      </trkpt>
      <trkpt lat="44.39255" lon="5.47032">
        <ele>690.40002441406</ele>
        <time>2021-08-30T14:49:25Z</time>
      </trkpt>
      <trkpt lat="44.39254" lon="5.47037">
        <ele>690.79998779297</ele>
        <time>2021-08-30T14:49:27Z</time>
      </trkpt>
      <trkpt lat="44.39252" lon="5.47055">
        <ele>691.59997558594</ele>
        <time>2021-08-30T14:49:34Z</time>
      </trkpt>
      <trkpt lat="44.39256" lon="5.47073">
        <ele>692.20001220703</ele>
        <time>2021-08-30T14:49:41Z</time>
      </trkpt>
      <trkpt lat="44.39258" lon="5.47084">
        <ele>692.59997558594</ele>
        <time>2021-08-30T14:49:45Z</time>
      </trkpt>
      <trkpt lat="44.39262" lon="5.47095">
        <ele>692.79998779297</ele>
        <time>2021-08-30T14:49:50Z</time>
      </trkpt>
      <trkpt lat="44.39265" lon="5.471">
        <ele>693.20001220703</ele>
        <time>2021-08-30T14:49:54Z</time>
      </trkpt>
      <trkpt lat="44.39265" lon="5.47103">
        <ele>693.20001220703</ele>
        <time>2021-08-30T14:49:55Z</time>
      </trkpt>
      <trkpt lat="44.39268" lon="5.47117">
        <ele>693.59997558594</ele>
        <time>2021-08-30T14:50:00Z</time>
      </trkpt>
      <trkpt lat="44.39266" lon="5.4711">
        <ele>692.79998779297</ele>
        <time>2021-08-30T14:52:26Z</time>
      </trkpt>
      <trkpt lat="44.39265" lon="5.47106">
        <ele>693</ele>
        <time>2021-08-30T14:52:29Z</time>
      </trkpt>
      <trkpt lat="44.39266" lon="5.47101">
        <ele>693</ele>
        <time>2021-08-30T14:54:01Z</time>
      </trkpt>
      <trkpt lat="44.39268" lon="5.47099">
        <ele>693</ele>
        <time>2021-08-30T14:54:02Z</time>
      </trkpt>
      <trkpt lat="44.39274" lon="5.47089">
        <ele>693.20001220703</ele>
        <time>2021-08-30T14:54:08Z</time>
      </trkpt>
      <trkpt lat="44.39279" lon="5.47082">
        <ele>693.59997558594</ele>
        <time>2021-08-30T14:54:12Z</time>
      </trkpt>
      <trkpt lat="44.39283" lon="5.47076">
        <ele>694</ele>
        <time>2021-08-30T14:54:15Z</time>
      </trkpt>
      <trkpt lat="44.39288" lon="5.47068">
        <ele>694.79998779297</ele>
        <time>2021-08-30T14:54:19Z</time>
      </trkpt>
      <trkpt lat="44.39294" lon="5.4706">
        <ele>695.20001220703</ele>
        <time>2021-08-30T14:54:23Z</time>
      </trkpt>
      <trkpt lat="44.39297" lon="5.47054">
        <ele>695.79998779297</ele>
        <time>2021-08-30T14:54:26Z</time>
      </trkpt>
      <trkpt lat="44.39304" lon="5.47046">
        <ele>696.59997558594</ele>
        <time>2021-08-30T14:54:31Z</time>
      </trkpt>
      <trkpt lat="44.39305" lon="5.47044">
        <ele>696.79998779297</ele>
        <time>2021-08-30T14:54:32Z</time>
      </trkpt>
      <trkpt lat="44.39309" lon="5.47042">
        <ele>697</ele>
        <time>2021-08-30T14:54:34Z</time>
      </trkpt>
      <trkpt lat="44.39313" lon="5.47042">
        <ele>697.20001220703</ele>
        <time>2021-08-30T14:54:36Z</time>
      </trkpt>
      <trkpt lat="44.39323" lon="5.4704">
        <ele>698</ele>
        <time>2021-08-30T14:54:41Z</time>
      </trkpt>
      <trkpt lat="44.3933" lon="5.47038">
        <ele>698.40002441406</ele>
        <time>2021-08-30T14:54:45Z</time>
      </trkpt>
      <trkpt lat="44.39339" lon="5.47034">
        <ele>699</ele>
        <time>2021-08-30T14:54:49Z</time>
      </trkpt>
      <trkpt lat="44.39343" lon="5.4703">
        <ele>699.20001220703</ele>
        <time>2021-08-30T14:54:51Z</time>
      </trkpt>
      <trkpt lat="44.39352" lon="5.47018">
        <ele>699.79998779297</ele>
        <time>2021-08-30T14:54:56Z</time>
      </trkpt>
      <trkpt lat="44.39362" lon="5.47003">
        <ele>700</ele>
        <time>2021-08-30T14:55:01Z</time>
      </trkpt>
      <trkpt lat="44.39365" lon="5.46999">
        <ele>700</ele>
        <time>2021-08-30T14:55:02Z</time>
      </trkpt>
      <trkpt lat="44.3938" lon="5.46975">
        <ele>700.20001220703</ele>
        <time>2021-08-30T14:55:10Z</time>
      </trkpt>
      <trkpt lat="44.39392" lon="5.46949">
        <ele>700.79998779297</ele>
        <time>2021-08-30T14:55:17Z</time>
      </trkpt>
      <trkpt lat="44.39402" lon="5.46919">
        <ele>701</ele>
        <time>2021-08-30T14:55:24Z</time>
      </trkpt>
      <trkpt lat="44.39404" lon="5.4691">
        <ele>701.20001220703</ele>
        <time>2021-08-30T14:55:26Z</time>
      </trkpt>
      <trkpt lat="44.39411" lon="5.46877">
        <ele>701.40002441406</ele>
        <time>2021-08-30T14:55:33Z</time>
      </trkpt>
      <trkpt lat="44.39419" lon="5.46843">
        <ele>701.40002441406</ele>
        <time>2021-08-30T14:55:40Z</time>
      </trkpt>
      <trkpt lat="44.3943" lon="5.46821">
        <ele>701</ele>
        <time>2021-08-30T14:55:45Z</time>
      </trkpt>
      <trkpt lat="44.39434" lon="5.46818">
        <ele>700.79998779297</ele>
        <time>2021-08-30T14:55:46Z</time>
      </trkpt>
      <trkpt lat="44.39448" lon="5.4681">
        <ele>700.79998779297</ele>
        <time>2021-08-30T14:55:50Z</time>
      </trkpt>
      <trkpt lat="44.39473" lon="5.46797">
        <ele>700.59997558594</ele>
        <time>2021-08-30T14:55:57Z</time>
      </trkpt>
      <trkpt lat="44.39477" lon="5.46794">
        <ele>700.40002441406</ele>
        <time>2021-08-30T14:55:58Z</time>
      </trkpt>
      <trkpt lat="44.39501" lon="5.46766">
        <ele>700.20001220703</ele>
        <time>2021-08-30T14:56:05Z</time>
      </trkpt>
      <trkpt lat="44.39504" lon="5.46761">
        <ele>700</ele>
        <time>2021-08-30T14:56:06Z</time>
      </trkpt>
      <trkpt lat="44.39516" lon="5.46749">
        <ele>699.79998779297</ele>
        <time>2021-08-30T14:56:09Z</time>
      </trkpt>
      <trkpt lat="44.39528" lon="5.46741">
        <ele>699.20001220703</ele>
        <time>2021-08-30T14:56:12Z</time>
      </trkpt>
      <trkpt lat="44.39537" lon="5.46734">
        <ele>699</ele>
        <time>2021-08-30T14:56:14Z</time>
      </trkpt>
      <trkpt lat="44.39547" lon="5.46716">
        <ele>698.59997558594</ele>
        <time>2021-08-30T14:56:17Z</time>
      </trkpt>
      <trkpt lat="44.3955" lon="5.46709">
        <ele>698.59997558594</ele>
        <time>2021-08-30T14:56:18Z</time>
      </trkpt>
      <trkpt lat="44.39555" lon="5.46693">
        <ele>698.40002441406</ele>
        <time>2021-08-30T14:56:20Z</time>
      </trkpt>
      <trkpt lat="44.39559" lon="5.46676">
        <ele>698</ele>
        <time>2021-08-30T14:56:22Z</time>
      </trkpt>
      <trkpt lat="44.39553" lon="5.46649">
        <ele>697</ele>
        <time>2021-08-30T14:56:25Z</time>
      </trkpt>
      <trkpt lat="44.3955" lon="5.46641">
        <ele>696.79998779297</ele>
        <time>2021-08-30T14:56:26Z</time>
      </trkpt>
      <trkpt lat="44.39542" lon="5.46614">
        <ele>696.20001220703</ele>
        <time>2021-08-30T14:56:29Z</time>
      </trkpt>
      <trkpt lat="44.39542" lon="5.46595">
        <ele>695.79998779297</ele>
        <time>2021-08-30T14:56:31Z</time>
      </trkpt>
      <trkpt lat="44.39553" lon="5.4657">
        <ele>695</ele>
        <time>2021-08-30T14:56:34Z</time>
      </trkpt>
      <trkpt lat="44.39563" lon="5.46556">
        <ele>694.59997558594</ele>
        <time>2021-08-30T14:56:36Z</time>
      </trkpt>
      <trkpt lat="44.39576" lon="5.46532">
        <ele>694</ele>
        <time>2021-08-30T14:56:39Z</time>
      </trkpt>
      <trkpt lat="44.39579" lon="5.46524">
        <ele>693.40002441406</ele>
        <time>2021-08-30T14:56:40Z</time>
      </trkpt>
      <trkpt lat="44.39582" lon="5.46514">
        <ele>693.20001220703</ele>
        <time>2021-08-30T14:56:41Z</time>
      </trkpt>
      <trkpt lat="44.39583" lon="5.46494">
        <ele>692.59997558594</ele>
        <time>2021-08-30T14:56:43Z</time>
      </trkpt>
      <trkpt lat="44.39581" lon="5.46486">
        <ele>692.40002441406</ele>
        <time>2021-08-30T14:56:44Z</time>
      </trkpt>
      <trkpt lat="44.39573" lon="5.46472">
        <ele>691.79998779297</ele>
        <time>2021-08-30T14:56:46Z</time>
      </trkpt>
      <trkpt lat="44.39568" lon="5.46465">
        <ele>691.79998779297</ele>
        <time>2021-08-30T14:56:47Z</time>
      </trkpt>
      <trkpt lat="44.3955" lon="5.46433">
        <ele>692</ele>
        <time>2021-08-30T14:56:52Z</time>
      </trkpt>
      <trkpt lat="44.39539" lon="5.46409">
        <ele>692.40002441406</ele>
        <time>2021-08-30T14:56:56Z</time>
      </trkpt>
      <trkpt lat="44.39535" lon="5.46397">
        <ele>692.40002441406</ele>
        <time>2021-08-30T14:56:58Z</time>
      </trkpt>
      <trkpt lat="44.3953" lon="5.46383">
        <ele>692.59997558594</ele>
        <time>2021-08-30T14:57:00Z</time>
      </trkpt>
      <trkpt lat="44.39527" lon="5.4637">
        <ele>692.79998779297</ele>
        <time>2021-08-30T14:57:02Z</time>
      </trkpt>
      <trkpt lat="44.39526" lon="5.46363">
        <ele>693</ele>
        <time>2021-08-30T14:57:03Z</time>
      </trkpt>
      <trkpt lat="44.39528" lon="5.46335">
        <ele>693.20001220703</ele>
        <time>2021-08-30T14:57:07Z</time>
      </trkpt>
      <trkpt lat="44.39529" lon="5.46329">
        <ele>693.20001220703</ele>
        <time>2021-08-30T14:57:08Z</time>
      </trkpt>
      <trkpt lat="44.3953" lon="5.46322">
        <ele>693.40002441406</ele>
        <time>2021-08-30T14:57:09Z</time>
      </trkpt>
      <trkpt lat="44.39538" lon="5.46281">
        <ele>694</ele>
        <time>2021-08-30T14:57:16Z</time>
      </trkpt>
      <trkpt lat="44.39549" lon="5.46252">
        <ele>694.40002441406</ele>
        <time>2021-08-30T14:57:22Z</time>
      </trkpt>
      <trkpt lat="44.39551" lon="5.46247">
        <ele>694.40002441406</ele>
        <time>2021-08-30T14:57:23Z</time>
      </trkpt>
      <trkpt lat="44.39555" lon="5.46208">
        <ele>695</ele>
        <time>2021-08-30T14:57:30Z</time>
      </trkpt>
      <trkpt lat="44.39556" lon="5.46186">
        <ele>695.40002441406</ele>
        <time>2021-08-30T14:57:34Z</time>
      </trkpt>
      <trkpt lat="44.39555" lon="5.46158">
        <ele>695.59997558594</ele>
        <time>2021-08-30T14:57:39Z</time>
      </trkpt>
      <trkpt lat="44.39554" lon="5.46127">
        <ele>695.79998779297</ele>
        <time>2021-08-30T14:57:45Z</time>
      </trkpt>
      <trkpt lat="44.39554" lon="5.46094">
        <ele>696.20001220703</ele>
        <time>2021-08-30T14:57:51Z</time>
      </trkpt>
      <trkpt lat="44.39555" lon="5.46072">
        <ele>696.40002441406</ele>
        <time>2021-08-30T14:57:55Z</time>
      </trkpt>
      <trkpt lat="44.39558" lon="5.4605">
        <ele>696.79998779297</ele>
        <time>2021-08-30T14:57:59Z</time>
      </trkpt>
      <trkpt lat="44.39569" lon="5.46018">
        <ele>697.20001220703</ele>
        <time>2021-08-30T14:58:06Z</time>
      </trkpt>
      <trkpt lat="44.39579" lon="5.46005">
        <ele>697.59997558594</ele>
        <time>2021-08-30T14:58:10Z</time>
      </trkpt>
      <trkpt lat="44.39585" lon="5.46001">
        <ele>697.79998779297</ele>
        <time>2021-08-30T14:58:12Z</time>
      </trkpt>
      <trkpt lat="44.39599" lon="5.45996">
        <ele>698.59997558594</ele>
        <time>2021-08-30T14:58:17Z</time>
      </trkpt>
      <trkpt lat="44.39602" lon="5.45995">
        <ele>698.59997558594</ele>
        <time>2021-08-30T14:58:18Z</time>
      </trkpt>
      <trkpt lat="44.3962" lon="5.4599">
        <ele>699.20001220703</ele>
        <time>2021-08-30T14:58:25Z</time>
      </trkpt>
      <trkpt lat="44.39633" lon="5.45987">
        <ele>699.59997558594</ele>
        <time>2021-08-30T14:58:30Z</time>
      </trkpt>
      <trkpt lat="44.39638" lon="5.45986">
        <ele>699.79998779297</ele>
        <time>2021-08-30T14:58:32Z</time>
      </trkpt>
      <trkpt lat="44.39657" lon="5.4598">
        <ele>700.59997558594</ele>
        <time>2021-08-30T14:58:40Z</time>
      </trkpt>
      <trkpt lat="44.3966" lon="5.45979">
        <ele>700.79998779297</ele>
        <time>2021-08-30T14:58:41Z</time>
      </trkpt>
      <trkpt lat="44.39677" lon="5.45974">
        <ele>701.59997558594</ele>
        <time>2021-08-30T14:58:48Z</time>
      </trkpt>
      <trkpt lat="44.3968" lon="5.45973">
        <ele>701.79998779297</ele>
        <time>2021-08-30T14:58:49Z</time>
      </trkpt>
      <trkpt lat="44.39699" lon="5.45969">
        <ele>702.40002441406</ele>
        <time>2021-08-30T14:58:57Z</time>
      </trkpt>
      <trkpt lat="44.39704" lon="5.45968">
        <ele>702.79998779297</ele>
        <time>2021-08-30T14:58:59Z</time>
      </trkpt>
      <trkpt lat="44.39716" lon="5.45967">
        <ele>703.59997558594</ele>
        <time>2021-08-30T14:59:04Z</time>
      </trkpt>
      <trkpt lat="44.39718" lon="5.45968">
        <ele>704</ele>
        <time>2021-08-30T14:59:05Z</time>
      </trkpt>
      <trkpt lat="44.3973" lon="5.45972">
        <ele>704.59997558594</ele>
        <time>2021-08-30T14:59:10Z</time>
      </trkpt>
      <trkpt lat="44.39737" lon="5.45976">
        <ele>705</ele>
        <time>2021-08-30T14:59:13Z</time>
      </trkpt>
      <trkpt lat="44.39747" lon="5.45984">
        <ele>705.79998779297</ele>
        <time>2021-08-30T14:59:18Z</time>
      </trkpt>
      <trkpt lat="44.39753" lon="5.45995">
        <ele>706.20001220703</ele>
        <time>2021-08-30T14:59:22Z</time>
      </trkpt>
      <trkpt lat="44.39756" lon="5.46">
        <ele>706.40002441406</ele>
        <time>2021-08-30T14:59:24Z</time>
      </trkpt>
      <trkpt lat="44.39767" lon="5.46022">
        <ele>707.20001220703</ele>
        <time>2021-08-30T14:59:32Z</time>
      </trkpt>
      <trkpt lat="44.39769" lon="5.46029">
        <ele>707.40002441406</ele>
        <time>2021-08-30T14:59:34Z</time>
      </trkpt>
      <trkpt lat="44.3978" lon="5.46048">
        <ele>708.20001220703</ele>
        <time>2021-08-30T14:59:41Z</time>
      </trkpt>
      <trkpt lat="44.39783" lon="5.4605">
        <ele>708.20001220703</ele>
        <time>2021-08-30T14:59:42Z</time>
      </trkpt>
      <trkpt lat="44.39794" lon="5.46047">
        <ele>708.59997558594</ele>
        <time>2021-08-30T14:59:46Z</time>
      </trkpt>
      <trkpt lat="44.39799" lon="5.46039">
        <ele>708.79998779297</ele>
        <time>2021-08-30T14:59:49Z</time>
      </trkpt>
      <trkpt lat="44.398" lon="5.46031">
        <ele>709</ele>
        <time>2021-08-30T14:59:51Z</time>
      </trkpt>
      <trkpt lat="44.39799" lon="5.46023">
        <ele>709.20001220703</ele>
        <time>2021-08-30T14:59:53Z</time>
      </trkpt>
      <trkpt lat="44.39799" lon="5.46006">
        <ele>710.20001220703</ele>
        <time>2021-08-30T14:59:58Z</time>
      </trkpt>
      <trkpt lat="44.39799" lon="5.45985">
        <ele>711.20001220703</ele>
        <time>2021-08-30T15:00:05Z</time>
      </trkpt>
      <trkpt lat="44.39799" lon="5.45982">
        <ele>711.40002441406</ele>
        <time>2021-08-30T15:00:06Z</time>
      </trkpt>
      <trkpt lat="44.39799" lon="5.45962">
        <ele>712.40002441406</ele>
        <time>2021-08-30T15:00:13Z</time>
      </trkpt>
      <trkpt lat="44.39802" lon="5.45945">
        <ele>713.40002441406</ele>
        <time>2021-08-30T15:00:19Z</time>
      </trkpt>
      <trkpt lat="44.39803" lon="5.45943">
        <ele>713.59997558594</ele>
        <time>2021-08-30T15:00:20Z</time>
      </trkpt>
      <trkpt lat="44.39813" lon="5.45933">
        <ele>714.59997558594</ele>
        <time>2021-08-30T15:00:26Z</time>
      </trkpt>
      <trkpt lat="44.39826" lon="5.4593">
        <ele>715.59997558594</ele>
        <time>2021-08-30T15:00:32Z</time>
      </trkpt>
      <trkpt lat="44.39829" lon="5.45928">
        <ele>715.79998779297</ele>
        <time>2021-08-30T15:00:34Z</time>
      </trkpt>
      <trkpt lat="44.39844" lon="5.45922">
        <ele>716.79998779297</ele>
        <time>2021-08-30T15:00:41Z</time>
      </trkpt>
      <trkpt lat="44.39847" lon="5.45922">
        <ele>717</ele>
        <time>2021-08-30T15:00:43Z</time>
      </trkpt>
      <trkpt lat="44.39857" lon="5.45918">
        <ele>718</ele>
        <time>2021-08-30T15:00:48Z</time>
      </trkpt>
      <trkpt lat="44.39863" lon="5.45916">
        <ele>718.40002441406</ele>
        <time>2021-08-30T15:00:51Z</time>
      </trkpt>
      <trkpt lat="44.39873" lon="5.45912">
        <ele>719</ele>
        <time>2021-08-30T15:00:56Z</time>
      </trkpt>
      <trkpt lat="44.39883" lon="5.45911">
        <ele>719.79998779297</ele>
        <time>2021-08-30T15:01:01Z</time>
      </trkpt>
      <trkpt lat="44.3989" lon="5.45908">
        <ele>720.40002441406</ele>
        <time>2021-08-30T15:01:05Z</time>
      </trkpt>
      <trkpt lat="44.399" lon="5.45904">
        <ele>721</ele>
        <time>2021-08-30T15:01:10Z</time>
      </trkpt>
      <trkpt lat="44.39907" lon="5.45899">
        <ele>721.40002441406</ele>
        <time>2021-08-30T15:01:14Z</time>
      </trkpt>
      <trkpt lat="44.39914" lon="5.45895">
        <ele>722</ele>
        <time>2021-08-30T15:01:18Z</time>
      </trkpt>
      <trkpt lat="44.39921" lon="5.45891">
        <ele>722.40002441406</ele>
        <time>2021-08-30T15:01:22Z</time>
      </trkpt>
      <trkpt lat="44.39927" lon="5.45888">
        <ele>723</ele>
        <time>2021-08-30T15:01:25Z</time>
      </trkpt>
      <trkpt lat="44.39931" lon="5.45885">
        <ele>723.40002441406</ele>
        <time>2021-08-30T15:01:28Z</time>
      </trkpt>
      <trkpt lat="44.39932" lon="5.45882">
        <ele>723.59997558594</ele>
        <time>2021-08-30T15:01:29Z</time>
      </trkpt>
      <trkpt lat="44.39934" lon="5.45877">
        <ele>724</ele>
        <time>2021-08-30T15:01:31Z</time>
      </trkpt>
      <trkpt lat="44.3994" lon="5.45861">
        <ele>724.79998779297</ele>
        <time>2021-08-30T15:01:38Z</time>
      </trkpt>
      <trkpt lat="44.39942" lon="5.45841">
        <ele>725.59997558594</ele>
        <time>2021-08-30T15:01:45Z</time>
      </trkpt>
      <trkpt lat="44.39943" lon="5.45836">
        <ele>725.79998779297</ele>
        <time>2021-08-30T15:01:47Z</time>
      </trkpt>
      <trkpt lat="44.39948" lon="5.45824">
        <ele>726.40002441406</ele>
        <time>2021-08-30T15:01:52Z</time>
      </trkpt>
      <trkpt lat="44.39951" lon="5.45814">
        <ele>727</ele>
        <time>2021-08-30T15:01:56Z</time>
      </trkpt>
      <trkpt lat="44.39954" lon="5.45805">
        <ele>727.59997558594</ele>
        <time>2021-08-30T15:02:00Z</time>
      </trkpt>
      <trkpt lat="44.39959" lon="5.45793">
        <ele>728</ele>
        <time>2021-08-30T15:02:05Z</time>
      </trkpt>
      <trkpt lat="44.39962" lon="5.45786">
        <ele>728.40002441406</ele>
        <time>2021-08-30T15:02:08Z</time>
      </trkpt>
      <trkpt lat="44.39965" lon="5.45775">
        <ele>729</ele>
        <time>2021-08-30T15:02:12Z</time>
      </trkpt>
      <trkpt lat="44.3997" lon="5.45762">
        <ele>729.79998779297</ele>
        <time>2021-08-30T15:02:17Z</time>
      </trkpt>
      <trkpt lat="44.39973" lon="5.45758">
        <ele>730.20001220703</ele>
        <time>2021-08-30T15:02:19Z</time>
      </trkpt>
      <trkpt lat="44.39984" lon="5.45741">
        <ele>731.20001220703</ele>
        <time>2021-08-30T15:02:27Z</time>
      </trkpt>
      <trkpt lat="44.39995" lon="5.45729">
        <ele>732</ele>
        <time>2021-08-30T15:02:34Z</time>
      </trkpt>
      <trkpt lat="44.39999" lon="5.45727">
        <ele>732.40002441406</ele>
        <time>2021-08-30T15:02:36Z</time>
      </trkpt>
      <trkpt lat="44.40004" lon="5.45724">
        <ele>732.59997558594</ele>
        <time>2021-08-30T15:02:39Z</time>
      </trkpt>
      <trkpt lat="44.40011" lon="5.4572">
        <ele>733.40002441406</ele>
        <time>2021-08-30T15:02:43Z</time>
      </trkpt>
      <trkpt lat="44.4002" lon="5.45713">
        <ele>734.20001220703</ele>
        <time>2021-08-30T15:02:48Z</time>
      </trkpt>
      <trkpt lat="44.40023" lon="5.45711">
        <ele>734.40002441406</ele>
        <time>2021-08-30T15:02:50Z</time>
      </trkpt>
      <trkpt lat="44.40037" lon="5.45708">
        <ele>735.20001220703</ele>
        <time>2021-08-30T15:02:57Z</time>
      </trkpt>
      <trkpt lat="44.4004" lon="5.45707">
        <ele>735.59997558594</ele>
        <time>2021-08-30T15:02:59Z</time>
      </trkpt>
      <trkpt lat="44.4005" lon="5.45704">
        <ele>736.20001220703</ele>
        <time>2021-08-30T15:03:04Z</time>
      </trkpt>
      <trkpt lat="44.40056" lon="5.45705">
        <ele>736.59997558594</ele>
        <time>2021-08-30T15:03:07Z</time>
      </trkpt>
      <trkpt lat="44.40064" lon="5.45705">
        <ele>737</ele>
        <time>2021-08-30T15:03:11Z</time>
      </trkpt>
      <trkpt lat="44.40074" lon="5.45708">
        <ele>737.59997558594</ele>
        <time>2021-08-30T15:03:16Z</time>
      </trkpt>
      <trkpt lat="44.40077" lon="5.45711">
        <ele>738</ele>
        <time>2021-08-30T15:03:18Z</time>
      </trkpt>
      <trkpt lat="44.40079" lon="5.4571">
        <ele>738.20001220703</ele>
        <time>2021-08-30T15:03:19Z</time>
      </trkpt>
      <trkpt lat="44.40087" lon="5.45712">
        <ele>738.59997558594</ele>
        <time>2021-08-30T15:03:23Z</time>
      </trkpt>
      <trkpt lat="44.40098" lon="5.45715">
        <ele>739.59997558594</ele>
        <time>2021-08-30T15:03:29Z</time>
      </trkpt>
      <trkpt lat="44.401" lon="5.45715">
        <ele>739.79998779297</ele>
        <time>2021-08-30T15:03:30Z</time>
      </trkpt>
      <trkpt lat="44.40111" lon="5.4572">
        <ele>740.59997558594</ele>
        <time>2021-08-30T15:03:36Z</time>
      </trkpt>
      <trkpt lat="44.40115" lon="5.45721">
        <ele>740.79998779297</ele>
        <time>2021-08-30T15:03:38Z</time>
      </trkpt>
      <trkpt lat="44.40124" lon="5.45724">
        <ele>742</ele>
        <time>2021-08-30T15:03:43Z</time>
      </trkpt>
      <trkpt lat="44.40127" lon="5.45727">
        <ele>742.40002441406</ele>
        <time>2021-08-30T15:03:45Z</time>
      </trkpt>
      <trkpt lat="44.40138" lon="5.4573">
        <ele>742.79998779297</ele>
        <time>2021-08-30T15:03:51Z</time>
      </trkpt>
      <trkpt lat="44.40143" lon="5.45734">
        <ele>743.20001220703</ele>
        <time>2021-08-30T15:03:54Z</time>
      </trkpt>
      <trkpt lat="44.40152" lon="5.45737">
        <ele>743.79998779297</ele>
        <time>2021-08-30T15:03:59Z</time>
      </trkpt>
      <trkpt lat="44.40159" lon="5.45741">
        <ele>744.40002441406</ele>
        <time>2021-08-30T15:04:03Z</time>
      </trkpt>
      <trkpt lat="44.40167" lon="5.45745">
        <ele>745</ele>
        <time>2021-08-30T15:04:07Z</time>
      </trkpt>
      <trkpt lat="44.40171" lon="5.4575">
        <ele>745.40002441406</ele>
        <time>2021-08-30T15:04:10Z</time>
      </trkpt>
      <trkpt lat="44.40178" lon="5.45755">
        <ele>745.59997558594</ele>
        <time>2021-08-30T15:04:14Z</time>
      </trkpt>
      <trkpt lat="44.40188" lon="5.45763">
        <ele>746.40002441406</ele>
        <time>2021-08-30T15:04:20Z</time>
      </trkpt>
      <trkpt lat="44.40193" lon="5.45767">
        <ele>747</ele>
        <time>2021-08-30T15:04:23Z</time>
      </trkpt>
      <trkpt lat="44.40204" lon="5.45774">
        <ele>747.59997558594</ele>
        <time>2021-08-30T15:04:29Z</time>
      </trkpt>
      <trkpt lat="44.40209" lon="5.45778">
        <ele>748</ele>
        <time>2021-08-30T15:04:32Z</time>
      </trkpt>
      <trkpt lat="44.40218" lon="5.45787">
        <ele>748.59997558594</ele>
        <time>2021-08-30T15:04:38Z</time>
      </trkpt>
      <trkpt lat="44.40222" lon="5.45789">
        <ele>748.79998779297</ele>
        <time>2021-08-30T15:04:40Z</time>
      </trkpt>
      <trkpt lat="44.40233" lon="5.45799">
        <ele>749.59997558594</ele>
        <time>2021-08-30T15:04:47Z</time>
      </trkpt>
      <trkpt lat="44.40245" lon="5.45807">
        <ele>750.59997558594</ele>
        <time>2021-08-30T15:04:54Z</time>
      </trkpt>
      <trkpt lat="44.40247" lon="5.45808">
        <ele>750.79998779297</ele>
        <time>2021-08-30T15:04:55Z</time>
      </trkpt>
      <trkpt lat="44.40261" lon="5.45816">
        <ele>751.79998779297</ele>
        <time>2021-08-30T15:05:03Z</time>
      </trkpt>
      <trkpt lat="44.40268" lon="5.45821">
        <ele>752.79998779297</ele>
        <time>2021-08-30T15:05:07Z</time>
      </trkpt>
      <trkpt lat="44.40273" lon="5.45824">
        <ele>753.20001220703</ele>
        <time>2021-08-30T15:05:10Z</time>
      </trkpt>
      <trkpt lat="44.4028" lon="5.45827">
        <ele>754</ele>
        <time>2021-08-30T15:05:14Z</time>
      </trkpt>
      <trkpt lat="44.40291" lon="5.45832">
        <ele>754.20001220703</ele>
        <time>2021-08-30T15:05:20Z</time>
      </trkpt>
      <trkpt lat="44.40298" lon="5.45834">
        <ele>755</ele>
        <time>2021-08-30T15:05:24Z</time>
      </trkpt>
      <trkpt lat="44.40302" lon="5.45836">
        <ele>755.20001220703</ele>
        <time>2021-08-30T15:05:26Z</time>
      </trkpt>
      <trkpt lat="44.40309" lon="5.45842">
        <ele>756.20001220703</ele>
        <time>2021-08-30T15:05:30Z</time>
      </trkpt>
      <trkpt lat="44.40314" lon="5.45846">
        <ele>756.79998779297</ele>
        <time>2021-08-30T15:05:33Z</time>
      </trkpt>
      <trkpt lat="44.40317" lon="5.45849">
        <ele>757.20001220703</ele>
        <time>2021-08-30T15:05:35Z</time>
      </trkpt>
      <trkpt lat="44.40325" lon="5.45859">
        <ele>758.40002441406</ele>
        <time>2021-08-30T15:05:41Z</time>
      </trkpt>
      <trkpt lat="44.40334" lon="5.45866">
        <ele>759.40002441406</ele>
        <time>2021-08-30T15:05:46Z</time>
      </trkpt>
      <trkpt lat="44.4034" lon="5.45873">
        <ele>760.20001220703</ele>
        <time>2021-08-30T15:05:50Z</time>
      </trkpt>
      <trkpt lat="44.40344" lon="5.45879">
        <ele>760.59997558594</ele>
        <time>2021-08-30T15:05:53Z</time>
      </trkpt>
      <trkpt lat="44.4035" lon="5.45886">
        <ele>761.40002441406</ele>
        <time>2021-08-30T15:05:57Z</time>
      </trkpt>
      <trkpt lat="44.40355" lon="5.45891">
        <ele>761.59997558594</ele>
        <time>2021-08-30T15:06:00Z</time>
      </trkpt>
      <trkpt lat="44.40359" lon="5.45903">
        <ele>762.20001220703</ele>
        <time>2021-08-30T15:06:05Z</time>
      </trkpt>
      <trkpt lat="44.40362" lon="5.45912">
        <ele>762.79998779297</ele>
        <time>2021-08-30T15:06:09Z</time>
      </trkpt>
      <trkpt lat="44.40364" lon="5.45917">
        <ele>763</ele>
        <time>2021-08-30T15:06:11Z</time>
      </trkpt>
      <trkpt lat="44.40367" lon="5.4593">
        <ele>763.40002441406</ele>
        <time>2021-08-30T15:06:17Z</time>
      </trkpt>
      <trkpt lat="44.4037" lon="5.45938">
        <ele>763.79998779297</ele>
        <time>2021-08-30T15:06:20Z</time>
      </trkpt>
      <trkpt lat="44.40375" lon="5.45948">
        <ele>764.20001220703</ele>
        <time>2021-08-30T15:06:24Z</time>
      </trkpt>
      <trkpt lat="44.40382" lon="5.45963">
        <ele>764.79998779297</ele>
        <time>2021-08-30T15:06:31Z</time>
      </trkpt>
      <trkpt lat="44.40385" lon="5.4597">
        <ele>765.40002441406</ele>
        <time>2021-08-30T15:06:34Z</time>
      </trkpt>
      <trkpt lat="44.40388" lon="5.45975">
        <ele>765.79998779297</ele>
        <time>2021-08-30T15:06:37Z</time>
      </trkpt>
      <trkpt lat="44.40389" lon="5.45977">
        <ele>765.79998779297</ele>
        <time>2021-08-30T15:06:38Z</time>
      </trkpt>
      <trkpt lat="44.40396" lon="5.4599">
        <ele>766.79998779297</ele>
        <time>2021-08-30T15:06:44Z</time>
      </trkpt>
      <trkpt lat="44.40399" lon="5.45994">
        <ele>767.20001220703</ele>
        <time>2021-08-30T15:06:46Z</time>
      </trkpt>
      <trkpt lat="44.40404" lon="5.46002">
        <ele>768</ele>
        <time>2021-08-30T15:06:50Z</time>
      </trkpt>
      <trkpt lat="44.40407" lon="5.46009">
        <ele>768.40002441406</ele>
        <time>2021-08-30T15:06:53Z</time>
      </trkpt>
      <trkpt lat="44.40411" lon="5.46017">
        <ele>769</ele>
        <time>2021-08-30T15:06:57Z</time>
      </trkpt>
      <trkpt lat="44.40417" lon="5.46024">
        <ele>769.59997558594</ele>
        <time>2021-08-30T15:07:01Z</time>
      </trkpt>
      <trkpt lat="44.40423" lon="5.4603">
        <ele>770</ele>
        <time>2021-08-30T15:07:05Z</time>
      </trkpt>
      <trkpt lat="44.40426" lon="5.46033">
        <ele>770.20001220703</ele>
        <time>2021-08-30T15:07:07Z</time>
      </trkpt>
      <trkpt lat="44.40428" lon="5.46035">
        <ele>770.20001220703</ele>
        <time>2021-08-30T15:07:08Z</time>
      </trkpt>
      <trkpt lat="44.40436" lon="5.46045">
        <ele>771</ele>
        <time>2021-08-30T15:07:14Z</time>
      </trkpt>
      <trkpt lat="44.40438" lon="5.46048">
        <ele>771.40002441406</ele>
        <time>2021-08-30T15:07:16Z</time>
      </trkpt>
      <trkpt lat="44.40445" lon="5.46054">
        <ele>772</ele>
        <time>2021-08-30T15:07:20Z</time>
      </trkpt>
      <trkpt lat="44.40448" lon="5.46058">
        <ele>772.40002441406</ele>
        <time>2021-08-30T15:07:22Z</time>
      </trkpt>
      <trkpt lat="44.40457" lon="5.46067">
        <ele>773.20001220703</ele>
        <time>2021-08-30T15:07:28Z</time>
      </trkpt>
      <trkpt lat="44.40461" lon="5.4607">
        <ele>773.59997558594</ele>
        <time>2021-08-30T15:07:30Z</time>
      </trkpt>
      <trkpt lat="44.40469" lon="5.46075">
        <ele>774.20001220703</ele>
        <time>2021-08-30T15:07:34Z</time>
      </trkpt>
      <trkpt lat="44.40474" lon="5.46081">
        <ele>774.79998779297</ele>
        <time>2021-08-30T15:07:38Z</time>
      </trkpt>
      <trkpt lat="44.40481" lon="5.46086">
        <ele>775.20001220703</ele>
        <time>2021-08-30T15:07:42Z</time>
      </trkpt>
      <trkpt lat="44.40489" lon="5.46091">
        <ele>776</ele>
        <time>2021-08-30T15:07:46Z</time>
      </trkpt>
      <trkpt lat="44.40492" lon="5.46093">
        <ele>776.20001220703</ele>
        <time>2021-08-30T15:07:48Z</time>
      </trkpt>
      <trkpt lat="44.40502" lon="5.46097">
        <ele>777.20001220703</ele>
        <time>2021-08-30T15:07:53Z</time>
      </trkpt>
      <trkpt lat="44.40504" lon="5.46098">
        <ele>777.40002441406</ele>
        <time>2021-08-30T15:07:54Z</time>
      </trkpt>
      <trkpt lat="44.40512" lon="5.46104">
        <ele>778.40002441406</ele>
        <time>2021-08-30T15:07:59Z</time>
      </trkpt>
      <trkpt lat="44.40514" lon="5.46104">
        <ele>778.59997558594</ele>
        <time>2021-08-30T15:08:00Z</time>
      </trkpt>
      <trkpt lat="44.40522" lon="5.46104">
        <ele>779.40002441406</ele>
        <time>2021-08-30T15:08:04Z</time>
      </trkpt>
      <trkpt lat="44.40524" lon="5.46104">
        <ele>779.59997558594</ele>
        <time>2021-08-30T15:08:05Z</time>
      </trkpt>
      <trkpt lat="44.40534" lon="5.46101">
        <ele>780.40002441406</ele>
        <time>2021-08-30T15:08:10Z</time>
      </trkpt>
      <trkpt lat="44.40539" lon="5.461">
        <ele>780.79998779297</ele>
        <time>2021-08-30T15:08:12Z</time>
      </trkpt>
      <trkpt lat="44.40549" lon="5.46095">
        <ele>781.59997558594</ele>
        <time>2021-08-30T15:08:17Z</time>
      </trkpt>
      <trkpt lat="44.40552" lon="5.46095">
        <ele>781.79998779297</ele>
        <time>2021-08-30T15:08:19Z</time>
      </trkpt>
      <trkpt lat="44.40558" lon="5.46093">
        <ele>782.59997558594</ele>
        <time>2021-08-30T15:08:22Z</time>
      </trkpt>
      <trkpt lat="44.40566" lon="5.46092">
        <ele>783.59997558594</ele>
        <time>2021-08-30T15:08:27Z</time>
      </trkpt>
      <trkpt lat="44.40568" lon="5.46092">
        <ele>783.79998779297</ele>
        <time>2021-08-30T15:08:28Z</time>
      </trkpt>
      <trkpt lat="44.40575" lon="5.4609">
        <ele>784.40002441406</ele>
        <time>2021-08-30T15:08:32Z</time>
      </trkpt>
      <trkpt lat="44.40578" lon="5.46086">
        <ele>785</ele>
        <time>2021-08-30T15:08:34Z</time>
      </trkpt>
      <trkpt lat="44.40581" lon="5.46074">
        <ele>786</ele>
        <time>2021-08-30T15:08:39Z</time>
      </trkpt>
      <trkpt lat="44.4058" lon="5.46071">
        <ele>786.20001220703</ele>
        <time>2021-08-30T15:08:40Z</time>
      </trkpt>
      <trkpt lat="44.40572" lon="5.46061">
        <ele>786.20001220703</ele>
        <time>2021-08-30T15:08:46Z</time>
      </trkpt>
      <trkpt lat="44.40569" lon="5.46058">
        <ele>785.79998779297</ele>
        <time>2021-08-30T15:09:08Z</time>
      </trkpt>
      <trkpt lat="44.40567" lon="5.46054">
        <ele>785.59997558594</ele>
        <time>2021-08-30T15:09:10Z</time>
      </trkpt>
      <trkpt lat="44.40561" lon="5.46031">
        <ele>785.20001220703</ele>
        <time>2021-08-30T15:09:16Z</time>
      </trkpt>
      <trkpt lat="44.40558" lon="5.46001">
        <ele>785.20001220703</ele>
        <time>2021-08-30T15:09:23Z</time>
      </trkpt>
      <trkpt lat="44.40561" lon="5.4598">
        <ele>786</ele>
        <time>2021-08-30T15:09:29Z</time>
      </trkpt>
      <trkpt lat="44.40566" lon="5.45964">
        <ele>786.59997558594</ele>
        <time>2021-08-30T15:09:34Z</time>
      </trkpt>
      <trkpt lat="44.40572" lon="5.45938">
        <ele>787</ele>
        <time>2021-08-30T15:09:41Z</time>
      </trkpt>
      <trkpt lat="44.40574" lon="5.45935">
        <ele>787</ele>
        <time>2021-08-30T15:09:42Z</time>
      </trkpt>
      <trkpt lat="44.40583" lon="5.45921">
        <ele>787.40002441406</ele>
        <time>2021-08-30T15:09:47Z</time>
      </trkpt>
      <trkpt lat="44.40597" lon="5.45913">
        <ele>788.20001220703</ele>
        <time>2021-08-30T15:09:53Z</time>
      </trkpt>
      <trkpt lat="44.40599" lon="5.45912">
        <ele>788.20001220703</ele>
        <time>2021-08-30T15:09:54Z</time>
      </trkpt>
      <trkpt lat="44.40617" lon="5.45899">
        <ele>789.20001220703</ele>
        <time>2021-08-30T15:10:02Z</time>
      </trkpt>
      <trkpt lat="44.40617" lon="5.45883">
        <ele>789.59997558594</ele>
        <time>2021-08-30T15:10:06Z</time>
      </trkpt>
      <trkpt lat="44.40609" lon="5.45869">
        <ele>790.40002441406</ele>
        <time>2021-08-30T15:10:11Z</time>
      </trkpt>
      <trkpt lat="44.40608" lon="5.45865">
        <ele>790.59997558594</ele>
        <time>2021-08-30T15:10:12Z</time>
      </trkpt>
      <trkpt lat="44.40598" lon="5.45843">
        <ele>791.40002441406</ele>
        <time>2021-08-30T15:10:19Z</time>
      </trkpt>
      <trkpt lat="44.40597" lon="5.4584">
        <ele>791.59997558594</ele>
        <time>2021-08-30T15:10:20Z</time>
      </trkpt>
      <trkpt lat="44.40589" lon="5.45815">
        <ele>792.59997558594</ele>
        <time>2021-08-30T15:10:28Z</time>
      </trkpt>
      <trkpt lat="44.40581" lon="5.45794">
        <ele>793.59997558594</ele>
        <time>2021-08-30T15:10:35Z</time>
      </trkpt>
      <trkpt lat="44.40572" lon="5.45779">
        <ele>794.79998779297</ele>
        <time>2021-08-30T15:10:41Z</time>
      </trkpt>
      <trkpt lat="44.40568" lon="5.45772">
        <ele>795.20001220703</ele>
        <time>2021-08-30T15:10:44Z</time>
      </trkpt>
      <trkpt lat="44.40565" lon="5.45761">
        <ele>795.79998779297</ele>
        <time>2021-08-30T15:10:48Z</time>
      </trkpt>
      <trkpt lat="44.40564" lon="5.45746">
        <ele>796.59997558594</ele>
        <time>2021-08-30T15:10:53Z</time>
      </trkpt>
      <trkpt lat="44.40563" lon="5.45741">
        <ele>797</ele>
        <time>2021-08-30T15:10:55Z</time>
      </trkpt>
      <trkpt lat="44.40562" lon="5.45724">
        <ele>797.79998779297</ele>
        <time>2021-08-30T15:11:01Z</time>
      </trkpt>
      <trkpt lat="44.40562" lon="5.45721">
        <ele>798</ele>
        <time>2021-08-30T15:11:02Z</time>
      </trkpt>
      <trkpt lat="44.40563" lon="5.45706">
        <ele>799.20001220703</ele>
        <time>2021-08-30T15:11:08Z</time>
      </trkpt>
      <trkpt lat="44.40568" lon="5.45693">
        <ele>800.20001220703</ele>
        <time>2021-08-30T15:11:15Z</time>
      </trkpt>
      <trkpt lat="44.40575" lon="5.45679">
        <ele>801.40002441406</ele>
        <time>2021-08-30T15:11:23Z</time>
      </trkpt>
      <trkpt lat="44.4057" lon="5.45668">
        <ele>801.79998779297</ele>
        <time>2021-08-30T15:11:28Z</time>
      </trkpt>
      <trkpt lat="44.40564" lon="5.45664">
        <ele>802.20001220703</ele>
        <time>2021-08-30T15:11:31Z</time>
      </trkpt>
      <trkpt lat="44.40562" lon="5.45663">
        <ele>802.40002441406</ele>
        <time>2021-08-30T15:11:32Z</time>
      </trkpt>
      <trkpt lat="44.40555" lon="5.4566">
        <ele>802.59997558594</ele>
        <time>2021-08-30T15:11:35Z</time>
      </trkpt>
      <trkpt lat="44.40532" lon="5.45649">
        <ele>803.20001220703</ele>
        <time>2021-08-30T15:11:44Z</time>
      </trkpt>
      <trkpt lat="44.40525" lon="5.45642">
        <ele>803.40002441406</ele>
        <time>2021-08-30T15:11:47Z</time>
      </trkpt>
      <trkpt lat="44.40517" lon="5.45627">
        <ele>804</ele>
        <time>2021-08-30T15:11:52Z</time>
      </trkpt>
      <trkpt lat="44.40515" lon="5.45617">
        <ele>804.40002441406</ele>
        <time>2021-08-30T15:11:55Z</time>
      </trkpt>
      <trkpt lat="44.40515" lon="5.45611">
        <ele>804.79998779297</ele>
        <time>2021-08-30T15:11:57Z</time>
      </trkpt>
      <trkpt lat="44.40513" lon="5.45596">
        <ele>805.59997558594</ele>
        <time>2021-08-30T15:12:02Z</time>
      </trkpt>
      <trkpt lat="44.40512" lon="5.45594">
        <ele>805.59997558594</ele>
        <time>2021-08-30T15:12:03Z</time>
      </trkpt>
      <trkpt lat="44.40504" lon="5.45583">
        <ele>806.59997558594</ele>
        <time>2021-08-30T15:12:08Z</time>
      </trkpt>
      <trkpt lat="44.40498" lon="5.45574">
        <ele>807.20001220703</ele>
        <time>2021-08-30T15:12:12Z</time>
      </trkpt>
      <trkpt lat="44.40492" lon="5.45566">
        <ele>807.59997558594</ele>
        <time>2021-08-30T15:12:16Z</time>
      </trkpt>
      <trkpt lat="44.40489" lon="5.45561">
        <ele>808</ele>
        <time>2021-08-30T15:12:18Z</time>
      </trkpt>
      <trkpt lat="44.40488" lon="5.45559">
        <ele>808.20001220703</ele>
        <time>2021-08-30T15:12:19Z</time>
      </trkpt>
      <trkpt lat="44.40482" lon="5.45551">
        <ele>808.79998779297</ele>
        <time>2021-08-30T15:12:23Z</time>
      </trkpt>
      <trkpt lat="44.40478" lon="5.45546">
        <ele>809.20001220703</ele>
        <time>2021-08-30T15:12:26Z</time>
      </trkpt>
      <trkpt lat="44.40471" lon="5.45539">
        <ele>809.79998779297</ele>
        <time>2021-08-30T15:12:30Z</time>
      </trkpt>
      <trkpt lat="44.40466" lon="5.45534">
        <ele>810.20001220703</ele>
        <time>2021-08-30T15:12:33Z</time>
      </trkpt>
      <trkpt lat="44.40458" lon="5.45527">
        <ele>811</ele>
        <time>2021-08-30T15:12:37Z</time>
      </trkpt>
      <trkpt lat="44.40448" lon="5.45518">
        <ele>812.20001220703</ele>
        <time>2021-08-30T15:12:42Z</time>
      </trkpt>
      <trkpt lat="44.40433" lon="5.45505">
        <ele>813.40002441406</ele>
        <time>2021-08-30T15:12:49Z</time>
      </trkpt>
      <trkpt lat="44.40422" lon="5.45496">
        <ele>814.40002441406</ele>
        <time>2021-08-30T15:12:54Z</time>
      </trkpt>
      <trkpt lat="44.40418" lon="5.45492">
        <ele>814.79998779297</ele>
        <time>2021-08-30T15:12:56Z</time>
      </trkpt>
      <trkpt lat="44.40402" lon="5.45478">
        <ele>815.40002441406</ele>
        <time>2021-08-30T15:13:04Z</time>
      </trkpt>
      <trkpt lat="44.40389" lon="5.45464">
        <ele>816.40002441406</ele>
        <time>2021-08-30T15:13:11Z</time>
      </trkpt>
      <trkpt lat="44.40387" lon="5.45461">
        <ele>816.59997558594</ele>
        <time>2021-08-30T15:13:12Z</time>
      </trkpt>
      <trkpt lat="44.4038" lon="5.45446">
        <ele>817</ele>
        <time>2021-08-30T15:13:18Z</time>
      </trkpt>
      <trkpt lat="44.40378" lon="5.45439">
        <ele>817.59997558594</ele>
        <time>2021-08-30T15:13:21Z</time>
      </trkpt>
      <trkpt lat="44.40375" lon="5.45428">
        <ele>818.40002441406</ele>
        <time>2021-08-30T15:13:25Z</time>
      </trkpt>
      <trkpt lat="44.40373" lon="5.45418">
        <ele>818.79998779297</ele>
        <time>2021-08-30T15:13:29Z</time>
      </trkpt>
      <trkpt lat="44.40371" lon="5.45407">
        <ele>819.40002441406</ele>
        <time>2021-08-30T15:13:33Z</time>
      </trkpt>
      <trkpt lat="44.4037" lon="5.45397">
        <ele>820</ele>
        <time>2021-08-30T15:13:37Z</time>
      </trkpt>
      <trkpt lat="44.4037" lon="5.45386">
        <ele>820.59997558594</ele>
        <time>2021-08-30T15:13:41Z</time>
      </trkpt>
      <trkpt lat="44.40369" lon="5.45381">
        <ele>821</ele>
        <time>2021-08-30T15:13:43Z</time>
      </trkpt>
      <trkpt lat="44.4037" lon="5.4537">
        <ele>821.59997558594</ele>
        <time>2021-08-30T15:13:47Z</time>
      </trkpt>
      <trkpt lat="44.40372" lon="5.45354">
        <ele>821.79998779297</ele>
        <time>2021-08-30T15:13:53Z</time>
      </trkpt>
      <trkpt lat="44.40373" lon="5.4535">
        <ele>822.20001220703</ele>
        <time>2021-08-30T15:13:55Z</time>
      </trkpt>
      <trkpt lat="44.40375" lon="5.45342">
        <ele>822.59997558594</ele>
        <time>2021-08-30T15:13:58Z</time>
      </trkpt>
      <trkpt lat="44.40379" lon="5.45321">
        <ele>823.20001220703</ele>
        <time>2021-08-30T15:14:06Z</time>
      </trkpt>
      <trkpt lat="44.40381" lon="5.45319">
        <ele>823.40002441406</ele>
        <time>2021-08-30T15:14:07Z</time>
      </trkpt>
      <trkpt lat="44.40386" lon="5.45304">
        <ele>824.20001220703</ele>
        <time>2021-08-30T15:14:13Z</time>
      </trkpt>
      <trkpt lat="44.40388" lon="5.45296">
        <ele>824.79998779297</ele>
        <time>2021-08-30T15:14:16Z</time>
      </trkpt>
      <trkpt lat="44.40393" lon="5.45285">
        <ele>825.20001220703</ele>
        <time>2021-08-30T15:14:21Z</time>
      </trkpt>
      <trkpt lat="44.40397" lon="5.45278">
        <ele>825.79998779297</ele>
        <time>2021-08-30T15:14:24Z</time>
      </trkpt>
      <trkpt lat="44.40402" lon="5.4527">
        <ele>826.40002441406</ele>
        <time>2021-08-30T15:14:28Z</time>
      </trkpt>
      <trkpt lat="44.40407" lon="5.45262">
        <ele>826.59997558594</ele>
        <time>2021-08-30T15:14:32Z</time>
      </trkpt>
      <trkpt lat="44.40412" lon="5.45252">
        <ele>827.40002441406</ele>
        <time>2021-08-30T15:14:36Z</time>
      </trkpt>
      <trkpt lat="44.40416" lon="5.45243">
        <ele>828</ele>
        <time>2021-08-30T15:14:40Z</time>
      </trkpt>
      <trkpt lat="44.40418" lon="5.45239">
        <ele>828.40002441406</ele>
        <time>2021-08-30T15:14:42Z</time>
      </trkpt>
      <trkpt lat="44.40426" lon="5.45224">
        <ele>829.40002441406</ele>
        <time>2021-08-30T15:14:49Z</time>
      </trkpt>
      <trkpt lat="44.40427" lon="5.45222">
        <ele>829.40002441406</ele>
        <time>2021-08-30T15:14:50Z</time>
      </trkpt>
      <trkpt lat="44.40432" lon="5.45211">
        <ele>830.20001220703</ele>
        <time>2021-08-30T15:14:55Z</time>
      </trkpt>
      <trkpt lat="44.40435" lon="5.45204">
        <ele>830.59997558594</ele>
        <time>2021-08-30T15:14:58Z</time>
      </trkpt>
      <trkpt lat="44.40442" lon="5.45194">
        <ele>831</ele>
        <time>2021-08-30T15:15:03Z</time>
      </trkpt>
      <trkpt lat="44.40445" lon="5.45187">
        <ele>831.59997558594</ele>
        <time>2021-08-30T15:15:06Z</time>
      </trkpt>
      <trkpt lat="44.40449" lon="5.45178">
        <ele>832.40002441406</ele>
        <time>2021-08-30T15:15:10Z</time>
      </trkpt>
      <trkpt lat="44.40453" lon="5.45173">
        <ele>832.59997558594</ele>
        <time>2021-08-30T15:15:13Z</time>
      </trkpt>
      <trkpt lat="44.4046" lon="5.45163">
        <ele>833.40002441406</ele>
        <time>2021-08-30T15:15:18Z</time>
      </trkpt>
      <trkpt lat="44.40464" lon="5.45153">
        <ele>833.59997558594</ele>
        <time>2021-08-30T15:15:22Z</time>
      </trkpt>
      <trkpt lat="44.4047" lon="5.45145">
        <ele>834.40002441406</ele>
        <time>2021-08-30T15:15:26Z</time>
      </trkpt>
      <trkpt lat="44.40474" lon="5.45138">
        <ele>834.59997558594</ele>
        <time>2021-08-30T15:15:29Z</time>
      </trkpt>
      <trkpt lat="44.40479" lon="5.45127">
        <ele>835.40002441406</ele>
        <time>2021-08-30T15:15:34Z</time>
      </trkpt>
      <trkpt lat="44.40483" lon="5.45121">
        <ele>835.79998779297</ele>
        <time>2021-08-30T15:15:37Z</time>
      </trkpt>
      <trkpt lat="44.40488" lon="5.45111">
        <ele>836</ele>
        <time>2021-08-30T15:15:42Z</time>
      </trkpt>
      <trkpt lat="44.40493" lon="5.451">
        <ele>836.79998779297</ele>
        <time>2021-08-30T15:15:47Z</time>
      </trkpt>
      <trkpt lat="44.40496" lon="5.45096">
        <ele>837.20001220703</ele>
        <time>2021-08-30T15:15:49Z</time>
      </trkpt>
      <trkpt lat="44.405" lon="5.45088">
        <ele>837.79998779297</ele>
        <time>2021-08-30T15:15:53Z</time>
      </trkpt>
      <trkpt lat="44.40504" lon="5.4508">
        <ele>839</ele>
        <time>2021-08-30T15:15:57Z</time>
      </trkpt>
      <trkpt lat="44.40505" lon="5.45078">
        <ele>839.20001220703</ele>
        <time>2021-08-30T15:15:58Z</time>
      </trkpt>
      <trkpt lat="44.40512" lon="5.45066">
        <ele>839.79998779297</ele>
        <time>2021-08-30T15:16:04Z</time>
      </trkpt>
      <trkpt lat="44.40513" lon="5.45064">
        <ele>840</ele>
        <time>2021-08-30T15:16:05Z</time>
      </trkpt>
      <trkpt lat="44.4052" lon="5.45052">
        <ele>840.79998779297</ele>
        <time>2021-08-30T15:16:11Z</time>
      </trkpt>
      <trkpt lat="44.40523" lon="5.45048">
        <ele>841</ele>
        <time>2021-08-30T15:16:13Z</time>
      </trkpt>
      <trkpt lat="44.40531" lon="5.45037">
        <ele>842</ele>
        <time>2021-08-30T15:16:19Z</time>
      </trkpt>
      <trkpt lat="44.40542" lon="5.45027">
        <ele>843.20001220703</ele>
        <time>2021-08-30T15:16:25Z</time>
      </trkpt>
      <trkpt lat="44.40557" lon="5.45017">
        <ele>844</ele>
        <time>2021-08-30T15:16:34Z</time>
      </trkpt>
      <trkpt lat="44.40559" lon="5.45015">
        <ele>844.20001220703</ele>
        <time>2021-08-30T15:16:35Z</time>
      </trkpt>
      <trkpt lat="44.40569" lon="5.45011">
        <ele>845</ele>
        <time>2021-08-30T15:16:41Z</time>
      </trkpt>
      <trkpt lat="44.40572" lon="5.4501">
        <ele>845.40002441406</ele>
        <time>2021-08-30T15:16:43Z</time>
      </trkpt>
      <trkpt lat="44.40582" lon="5.45009">
        <ele>846</ele>
        <time>2021-08-30T15:16:48Z</time>
      </trkpt>
      <trkpt lat="44.40591" lon="5.45013">
        <ele>846.40002441406</ele>
        <time>2021-08-30T15:16:53Z</time>
      </trkpt>
      <trkpt lat="44.40593" lon="5.45014">
        <ele>846.40002441406</ele>
        <time>2021-08-30T15:16:54Z</time>
      </trkpt>
      <trkpt lat="44.40604" lon="5.45019">
        <ele>847.40002441406</ele>
        <time>2021-08-30T15:17:00Z</time>
      </trkpt>
      <trkpt lat="44.40606" lon="5.45019">
        <ele>847.59997558594</ele>
        <time>2021-08-30T15:17:01Z</time>
      </trkpt>
      <trkpt lat="44.40618" lon="5.45015">
        <ele>848.40002441406</ele>
        <time>2021-08-30T15:17:07Z</time>
      </trkpt>
      <trkpt lat="44.40621" lon="5.45013">
        <ele>848.59997558594</ele>
        <time>2021-08-30T15:17:09Z</time>
      </trkpt>
      <trkpt lat="44.40636" lon="5.45005">
        <ele>849.59997558594</ele>
        <time>2021-08-30T15:17:17Z</time>
      </trkpt>
      <trkpt lat="44.40651" lon="5.45002">
        <ele>850.59997558594</ele>
        <time>2021-08-30T15:17:25Z</time>
      </trkpt>
      <trkpt lat="44.40663" lon="5.45">
        <ele>851.59997558594</ele>
        <time>2021-08-30T15:17:32Z</time>
      </trkpt>
      <trkpt lat="44.40665" lon="5.45">
        <ele>851.79998779297</ele>
        <time>2021-08-30T15:17:33Z</time>
      </trkpt>
      <trkpt lat="44.40671" lon="5.45">
        <ele>852.20001220703</ele>
        <time>2021-08-30T15:17:36Z</time>
      </trkpt>
      <trkpt lat="44.40677" lon="5.44999">
        <ele>852.59997558594</ele>
        <time>2021-08-30T15:17:39Z</time>
      </trkpt>
      <trkpt lat="44.40679" lon="5.45">
        <ele>852.79998779297</ele>
        <time>2021-08-30T15:17:40Z</time>
      </trkpt>
      <trkpt lat="44.40688" lon="5.45002">
        <ele>853.40002441406</ele>
        <time>2021-08-30T15:17:45Z</time>
      </trkpt>
      <trkpt lat="44.40701" lon="5.45006">
        <ele>853.79998779297</ele>
        <time>2021-08-30T15:17:52Z</time>
      </trkpt>
      <trkpt lat="44.40714" lon="5.45011">
        <ele>854.79998779297</ele>
        <time>2021-08-30T15:17:59Z</time>
      </trkpt>
      <trkpt lat="44.40716" lon="5.45011">
        <ele>855</ele>
        <time>2021-08-30T15:18:00Z</time>
      </trkpt>
      <trkpt lat="44.40726" lon="5.45017">
        <ele>855.59997558594</ele>
        <time>2021-08-30T15:18:06Z</time>
      </trkpt>
      <trkpt lat="44.40735" lon="5.45021">
        <ele>856.20001220703</ele>
        <time>2021-08-30T15:18:11Z</time>
      </trkpt>
      <trkpt lat="44.4074" lon="5.45024">
        <ele>856.59997558594</ele>
        <time>2021-08-30T15:18:14Z</time>
      </trkpt>
      <trkpt lat="44.40749" lon="5.45028">
        <ele>857.20001220703</ele>
        <time>2021-08-30T15:18:19Z</time>
      </trkpt>
      <trkpt lat="44.40754" lon="5.4503">
        <ele>857.59997558594</ele>
        <time>2021-08-30T15:18:22Z</time>
      </trkpt>
      <trkpt lat="44.40767" lon="5.45037">
        <ele>857.79998779297</ele>
        <time>2021-08-30T15:18:29Z</time>
      </trkpt>
      <trkpt lat="44.4077" lon="5.45038">
        <ele>858.20001220703</ele>
        <time>2021-08-30T15:18:31Z</time>
      </trkpt>
      <trkpt lat="44.40777" lon="5.45043">
        <ele>859.40002441406</ele>
        <time>2021-08-30T15:18:35Z</time>
      </trkpt>
      <trkpt lat="44.4078" lon="5.45045">
        <ele>859.79998779297</ele>
        <time>2021-08-30T15:18:37Z</time>
      </trkpt>
      <trkpt lat="44.40792" lon="5.45054">
        <ele>860.40002441406</ele>
        <time>2021-08-30T15:18:44Z</time>
      </trkpt>
      <trkpt lat="44.40796" lon="5.45056">
        <ele>860.59997558594</ele>
        <time>2021-08-30T15:18:46Z</time>
      </trkpt>
      <trkpt lat="44.40808" lon="5.4506">
        <ele>861.59997558594</ele>
        <time>2021-08-30T15:18:53Z</time>
      </trkpt>
      <trkpt lat="44.40825" lon="5.4506">
        <ele>862.40002441406</ele>
        <time>2021-08-30T15:19:01Z</time>
      </trkpt>
      <trkpt lat="44.40831" lon="5.45058">
        <ele>862.59997558594</ele>
        <time>2021-08-30T15:19:04Z</time>
      </trkpt>
      <trkpt lat="44.40843" lon="5.45058">
        <ele>863.40002441406</ele>
        <time>2021-08-30T15:19:10Z</time>
      </trkpt>
      <trkpt lat="44.40847" lon="5.45057">
        <ele>863.59997558594</ele>
        <time>2021-08-30T15:19:12Z</time>
      </trkpt>
      <trkpt lat="44.40863" lon="5.45053">
        <ele>864.59997558594</ele>
        <time>2021-08-30T15:19:20Z</time>
      </trkpt>
      <trkpt lat="44.40874" lon="5.45048">
        <ele>865.20001220703</ele>
        <time>2021-08-30T15:19:26Z</time>
      </trkpt>
      <trkpt lat="44.40878" lon="5.45045">
        <ele>865.79998779297</ele>
        <time>2021-08-30T15:19:29Z</time>
      </trkpt>
      <trkpt lat="44.40883" lon="5.45042">
        <ele>866.40002441406</ele>
        <time>2021-08-30T15:19:32Z</time>
      </trkpt>
      <trkpt lat="44.40891" lon="5.45039">
        <ele>866.79998779297</ele>
        <time>2021-08-30T15:19:36Z</time>
      </trkpt>
      <trkpt lat="44.40897" lon="5.45039">
        <ele>867.40002441406</ele>
        <time>2021-08-30T15:19:39Z</time>
      </trkpt>
      <trkpt lat="44.40903" lon="5.45041">
        <ele>867.79998779297</ele>
        <time>2021-08-30T15:19:42Z</time>
      </trkpt>
      <trkpt lat="44.40909" lon="5.45042">
        <ele>868</ele>
        <time>2021-08-30T15:19:45Z</time>
      </trkpt>
      <trkpt lat="44.40925" lon="5.45045">
        <ele>869</ele>
        <time>2021-08-30T15:19:53Z</time>
      </trkpt>
      <trkpt lat="44.40926" lon="5.45045">
        <ele>869.40002441406</ele>
        <time>2021-08-30T15:19:54Z</time>
      </trkpt>
      <trkpt lat="44.40939" lon="5.45041">
        <ele>870.20001220703</ele>
        <time>2021-08-30T15:20:01Z</time>
      </trkpt>
      <trkpt lat="44.40941" lon="5.45041">
        <ele>870.20001220703</ele>
        <time>2021-08-30T15:20:02Z</time>
      </trkpt>
      <trkpt lat="44.40953" lon="5.45036">
        <ele>871.20001220703</ele>
        <time>2021-08-30T15:20:08Z</time>
      </trkpt>
      <trkpt lat="44.40956" lon="5.45034">
        <ele>871.59997558594</ele>
        <time>2021-08-30T15:20:10Z</time>
      </trkpt>
      <trkpt lat="44.40966" lon="5.45022">
        <ele>872</ele>
        <time>2021-08-30T15:20:16Z</time>
      </trkpt>
      <trkpt lat="44.40967" lon="5.45021">
        <ele>872.20001220703</ele>
        <time>2021-08-30T15:20:17Z</time>
      </trkpt>
      <trkpt lat="44.40975" lon="5.45008">
        <ele>873.20001220703</ele>
        <time>2021-08-30T15:20:24Z</time>
      </trkpt>
      <trkpt lat="44.40977" lon="5.45006">
        <ele>873.20001220703</ele>
        <time>2021-08-30T15:20:25Z</time>
      </trkpt>
      <trkpt lat="44.40987" lon="5.45">
        <ele>874.20001220703</ele>
        <time>2021-08-30T15:20:31Z</time>
      </trkpt>
      <trkpt lat="44.40988" lon="5.44999">
        <ele>874.40002441406</ele>
        <time>2021-08-30T15:20:32Z</time>
      </trkpt>
      <trkpt lat="44.40993" lon="5.44995">
        <ele>874.79998779297</ele>
        <time>2021-08-30T15:20:35Z</time>
      </trkpt>
      <trkpt lat="44.40995" lon="5.4499">
        <ele>875.40002441406</ele>
        <time>2021-08-30T15:20:37Z</time>
      </trkpt>
      <trkpt lat="44.40996" lon="5.44987">
        <ele>875.59997558594</ele>
        <time>2021-08-30T15:20:38Z</time>
      </trkpt>
      <trkpt lat="44.40998" lon="5.44976">
        <ele>876.59997558594</ele>
        <time>2021-08-30T15:20:42Z</time>
      </trkpt>
      <trkpt lat="44.40998" lon="5.4497">
        <ele>877</ele>
        <time>2021-08-30T15:20:44Z</time>
      </trkpt>
      <trkpt lat="44.41" lon="5.44949">
        <ele>877.59997558594</ele>
        <time>2021-08-30T15:20:52Z</time>
      </trkpt>
      <trkpt lat="44.41" lon="5.44947">
        <ele>877.59997558594</ele>
        <time>2021-08-30T15:20:53Z</time>
      </trkpt>
      <trkpt lat="44.41001" lon="5.44934">
        <ele>878.20001220703</ele>
        <time>2021-08-30T15:20:58Z</time>
      </trkpt>
      <trkpt lat="44.41002" lon="5.44922">
        <ele>878.59997558594</ele>
        <time>2021-08-30T15:21:02Z</time>
      </trkpt>
      <trkpt lat="44.41005" lon="5.44912">
        <ele>879.20001220703</ele>
        <time>2021-08-30T15:21:06Z</time>
      </trkpt>
      <trkpt lat="44.41008" lon="5.44904">
        <ele>879.79998779297</ele>
        <time>2021-08-30T15:21:09Z</time>
      </trkpt>
      <trkpt lat="44.4101" lon="5.44896">
        <ele>880.20001220703</ele>
        <time>2021-08-30T15:21:12Z</time>
      </trkpt>
      <trkpt lat="44.41012" lon="5.44894">
        <ele>880.20001220703</ele>
        <time>2021-08-30T15:21:13Z</time>
      </trkpt>
      <trkpt lat="44.41017" lon="5.4489">
        <ele>880.79998779297</ele>
        <time>2021-08-30T15:21:16Z</time>
      </trkpt>
      <trkpt lat="44.41019" lon="5.44888">
        <ele>881</ele>
        <time>2021-08-30T15:21:17Z</time>
      </trkpt>
      <trkpt lat="44.41027" lon="5.44884">
        <ele>881.59997558594</ele>
        <time>2021-08-30T15:21:22Z</time>
      </trkpt>
      <trkpt lat="44.41031" lon="5.44884">
        <ele>882</ele>
        <time>2021-08-30T15:21:24Z</time>
      </trkpt>
      <trkpt lat="44.41042" lon="5.44883">
        <ele>883.20001220703</ele>
        <time>2021-08-30T15:21:30Z</time>
      </trkpt>
      <trkpt lat="44.41043" lon="5.44884">
        <ele>883.20001220703</ele>
        <time>2021-08-30T15:21:31Z</time>
      </trkpt>
      <trkpt lat="44.41053" lon="5.44886">
        <ele>884.20001220703</ele>
        <time>2021-08-30T15:21:36Z</time>
      </trkpt>
      <trkpt lat="44.41054" lon="5.44887">
        <ele>884.40002441406</ele>
        <time>2021-08-30T15:21:37Z</time>
      </trkpt>
      <trkpt lat="44.41065" lon="5.4489">
        <ele>885.20001220703</ele>
        <time>2021-08-30T15:21:43Z</time>
      </trkpt>
      <trkpt lat="44.41067" lon="5.4489">
        <ele>885.40002441406</ele>
        <time>2021-08-30T15:21:44Z</time>
      </trkpt>
      <trkpt lat="44.41073" lon="5.4489">
        <ele>885.59997558594</ele>
        <time>2021-08-30T15:21:47Z</time>
      </trkpt>
      <trkpt lat="44.41079" lon="5.44889">
        <ele>886</ele>
        <time>2021-08-30T15:21:50Z</time>
      </trkpt>
      <trkpt lat="44.41082" lon="5.44888">
        <ele>886.40002441406</ele>
        <time>2021-08-30T15:21:52Z</time>
      </trkpt>
      <trkpt lat="44.4109" lon="5.44888">
        <ele>886.79998779297</ele>
        <time>2021-08-30T15:21:56Z</time>
      </trkpt>
      <trkpt lat="44.411" lon="5.44886">
        <ele>887.59997558594</ele>
        <time>2021-08-30T15:22:01Z</time>
      </trkpt>
      <trkpt lat="44.41101" lon="5.44886">
        <ele>887.79998779297</ele>
        <time>2021-08-30T15:22:02Z</time>
      </trkpt>
      <trkpt lat="44.41111" lon="5.44881">
        <ele>888.59997558594</ele>
        <time>2021-08-30T15:22:08Z</time>
      </trkpt>
      <trkpt lat="44.41113" lon="5.44881">
        <ele>888.79998779297</ele>
        <time>2021-08-30T15:22:09Z</time>
      </trkpt>
      <trkpt lat="44.41124" lon="5.44885">
        <ele>889.40002441406</ele>
        <time>2021-08-30T15:22:15Z</time>
      </trkpt>
      <trkpt lat="44.41127" lon="5.44887">
        <ele>889.79998779297</ele>
        <time>2021-08-30T15:22:17Z</time>
      </trkpt>
      <trkpt lat="44.41139" lon="5.44892">
        <ele>890.59997558594</ele>
        <time>2021-08-30T15:22:24Z</time>
      </trkpt>
      <trkpt lat="44.4114" lon="5.44894">
        <ele>890.79998779297</ele>
        <time>2021-08-30T15:22:25Z</time>
      </trkpt>
      <trkpt lat="44.41151" lon="5.44904">
        <ele>891.59997558594</ele>
        <time>2021-08-30T15:22:32Z</time>
      </trkpt>
      <trkpt lat="44.41158" lon="5.44909">
        <ele>891.79998779297</ele>
        <time>2021-08-30T15:22:36Z</time>
      </trkpt>
      <trkpt lat="44.41162" lon="5.44915">
        <ele>892.20001220703</ele>
        <time>2021-08-30T15:22:39Z</time>
      </trkpt>
      <trkpt lat="44.4117" lon="5.44923">
        <ele>893</ele>
        <time>2021-08-30T15:22:44Z</time>
      </trkpt>
      <trkpt lat="44.41173" lon="5.44926">
        <ele>893.20001220703</ele>
        <time>2021-08-30T15:22:46Z</time>
      </trkpt>
      <trkpt lat="44.41178" lon="5.44933">
        <ele>894</ele>
        <time>2021-08-30T15:22:50Z</time>
      </trkpt>
      <trkpt lat="44.41185" lon="5.44942">
        <ele>894.40002441406</ele>
        <time>2021-08-30T15:22:55Z</time>
      </trkpt>
      <trkpt lat="44.41192" lon="5.44948">
        <ele>895</ele>
        <time>2021-08-30T15:22:59Z</time>
      </trkpt>
      <trkpt lat="44.41201" lon="5.44956">
        <ele>895.79998779297</ele>
        <time>2021-08-30T15:23:04Z</time>
      </trkpt>
      <trkpt lat="44.41204" lon="5.44959">
        <ele>896.20001220703</ele>
        <time>2021-08-30T15:23:06Z</time>
      </trkpt>
      <trkpt lat="44.41213" lon="5.44968">
        <ele>896.79998779297</ele>
        <time>2021-08-30T15:23:12Z</time>
      </trkpt>
      <trkpt lat="44.41217" lon="5.44971">
        <ele>897.20001220703</ele>
        <time>2021-08-30T15:23:14Z</time>
      </trkpt>
      <trkpt lat="44.41226" lon="5.44976">
        <ele>898</ele>
        <time>2021-08-30T15:23:19Z</time>
      </trkpt>
      <trkpt lat="44.41229" lon="5.44979">
        <ele>898.40002441406</ele>
        <time>2021-08-30T15:23:21Z</time>
      </trkpt>
      <trkpt lat="44.41243" lon="5.44989">
        <ele>899.20001220703</ele>
        <time>2021-08-30T15:23:28Z</time>
      </trkpt>
      <trkpt lat="44.41244" lon="5.4499">
        <ele>899.40002441406</ele>
        <time>2021-08-30T15:23:29Z</time>
      </trkpt>
      <trkpt lat="44.41258" lon="5.44999">
        <ele>900.20001220703</ele>
        <time>2021-08-30T15:23:36Z</time>
      </trkpt>
      <trkpt lat="44.41259" lon="5.45001">
        <ele>900.40002441406</ele>
        <time>2021-08-30T15:23:37Z</time>
      </trkpt>
      <trkpt lat="44.41268" lon="5.45007">
        <ele>901.59997558594</ele>
        <time>2021-08-30T15:23:42Z</time>
      </trkpt>
      <trkpt lat="44.41272" lon="5.4501">
        <ele>902</ele>
        <time>2021-08-30T15:23:44Z</time>
      </trkpt>
      <trkpt lat="44.4128" lon="5.45018">
        <ele>902.59997558594</ele>
        <time>2021-08-30T15:23:49Z</time>
      </trkpt>
      <trkpt lat="44.41285" lon="5.45022">
        <ele>903</ele>
        <time>2021-08-30T15:23:52Z</time>
      </trkpt>
      <trkpt lat="44.4129" lon="5.45026">
        <ele>903.59997558594</ele>
        <time>2021-08-30T15:23:55Z</time>
      </trkpt>
      <trkpt lat="44.41295" lon="5.4503">
        <ele>904</ele>
        <time>2021-08-30T15:23:58Z</time>
      </trkpt>
      <trkpt lat="44.41301" lon="5.45036">
        <ele>904.79998779297</ele>
        <time>2021-08-30T15:24:02Z</time>
      </trkpt>
      <trkpt lat="44.41306" lon="5.45039">
        <ele>905.20001220703</ele>
        <time>2021-08-30T15:24:05Z</time>
      </trkpt>
      <trkpt lat="44.41317" lon="5.45047">
        <ele>905.79998779297</ele>
        <time>2021-08-30T15:24:11Z</time>
      </trkpt>
      <trkpt lat="44.41321" lon="5.45051">
        <ele>906.20001220703</ele>
        <time>2021-08-30T15:24:14Z</time>
      </trkpt>
      <trkpt lat="44.41328" lon="5.45056">
        <ele>907</ele>
        <time>2021-08-30T15:24:18Z</time>
      </trkpt>
      <trkpt lat="44.41336" lon="5.45061">
        <ele>907.59997558594</ele>
        <time>2021-08-30T15:24:23Z</time>
      </trkpt>
      <trkpt lat="44.41341" lon="5.45064">
        <ele>908.20001220703</ele>
        <time>2021-08-30T15:24:26Z</time>
      </trkpt>
      <trkpt lat="44.41349" lon="5.4507">
        <ele>908.79998779297</ele>
        <time>2021-08-30T15:24:31Z</time>
      </trkpt>
      <trkpt lat="44.41354" lon="5.45072">
        <ele>909.20001220703</ele>
        <time>2021-08-30T15:24:34Z</time>
      </trkpt>
      <trkpt lat="44.41363" lon="5.45077">
        <ele>910.20001220703</ele>
        <time>2021-08-30T15:24:40Z</time>
      </trkpt>
      <trkpt lat="44.41365" lon="5.45079">
        <ele>910.40002441406</ele>
        <time>2021-08-30T15:24:41Z</time>
      </trkpt>
      <trkpt lat="44.41376" lon="5.45081">
        <ele>911.20001220703</ele>
        <time>2021-08-30T15:24:46Z</time>
      </trkpt>
      <trkpt lat="44.41377" lon="5.45082">
        <ele>911.40002441406</ele>
        <time>2021-08-30T15:24:47Z</time>
      </trkpt>
      <trkpt lat="44.41386" lon="5.45083">
        <ele>911.79998779297</ele>
        <time>2021-08-30T15:24:52Z</time>
      </trkpt>
      <trkpt lat="44.41394" lon="5.45083">
        <ele>912.40002441406</ele>
        <time>2021-08-30T15:24:56Z</time>
      </trkpt>
      <trkpt lat="44.41399" lon="5.45084">
        <ele>912.59997558594</ele>
        <time>2021-08-30T15:24:58Z</time>
      </trkpt>
      <trkpt lat="44.41412" lon="5.45085">
        <ele>913.20001220703</ele>
        <time>2021-08-30T15:25:04Z</time>
      </trkpt>
      <trkpt lat="44.41416" lon="5.45085">
        <ele>913.59997558594</ele>
        <time>2021-08-30T15:25:06Z</time>
      </trkpt>
      <trkpt lat="44.41423" lon="5.45087">
        <ele>914.20001220703</ele>
        <time>2021-08-30T15:25:10Z</time>
      </trkpt>
      <trkpt lat="44.41432" lon="5.45091">
        <ele>914.59997558594</ele>
        <time>2021-08-30T15:25:15Z</time>
      </trkpt>
      <trkpt lat="44.41436" lon="5.45091">
        <ele>914.79998779297</ele>
        <time>2021-08-30T15:25:17Z</time>
      </trkpt>
      <trkpt lat="44.41448" lon="5.45088">
        <ele>915.40002441406</ele>
        <time>2021-08-30T15:25:23Z</time>
      </trkpt>
      <trkpt lat="44.41452" lon="5.45086">
        <ele>915.59997558594</ele>
        <time>2021-08-30T15:25:25Z</time>
      </trkpt>
      <trkpt lat="44.41461" lon="5.45075">
        <ele>916.40002441406</ele>
        <time>2021-08-30T15:25:30Z</time>
      </trkpt>
      <trkpt lat="44.41464" lon="5.45071">
        <ele>916.59997558594</ele>
        <time>2021-08-30T15:25:32Z</time>
      </trkpt>
      <trkpt lat="44.41476" lon="5.45054">
        <ele>917.59997558594</ele>
        <time>2021-08-30T15:25:40Z</time>
      </trkpt>
      <trkpt lat="44.41479" lon="5.45049">
        <ele>917.79998779297</ele>
        <time>2021-08-30T15:25:42Z</time>
      </trkpt>
      <trkpt lat="44.41483" lon="5.45036">
        <ele>918.40002441406</ele>
        <time>2021-08-30T15:25:47Z</time>
      </trkpt>
      <trkpt lat="44.41487" lon="5.45023">
        <ele>919</ele>
        <time>2021-08-30T15:25:51Z</time>
      </trkpt>
      <trkpt lat="44.41489" lon="5.45016">
        <ele>919.20001220703</ele>
        <time>2021-08-30T15:25:53Z</time>
      </trkpt>
      <trkpt lat="44.41492" lon="5.45007">
        <ele>920</ele>
        <time>2021-08-30T15:25:56Z</time>
      </trkpt>
      <trkpt lat="44.41499" lon="5.44999">
        <ele>920.79998779297</ele>
        <time>2021-08-30T15:26:00Z</time>
      </trkpt>
      <trkpt lat="44.4151" lon="5.45003">
        <ele>921</ele>
        <time>2021-08-30T15:26:04Z</time>
      </trkpt>
      <trkpt lat="44.41518" lon="5.45016">
        <ele>921.79998779297</ele>
        <time>2021-08-30T15:26:10Z</time>
      </trkpt>
      <trkpt lat="44.41523" lon="5.45027">
        <ele>922.20001220703</ele>
        <time>2021-08-30T15:26:14Z</time>
      </trkpt>
      <trkpt lat="44.41528" lon="5.45039">
        <ele>922.59997558594</ele>
        <time>2021-08-30T15:26:18Z</time>
      </trkpt>
      <trkpt lat="44.41536" lon="5.45058">
        <ele>923.20001220703</ele>
        <time>2021-08-30T15:26:24Z</time>
      </trkpt>
      <trkpt lat="44.4154" lon="5.45067">
        <ele>923.59997558594</ele>
        <time>2021-08-30T15:26:27Z</time>
      </trkpt>
      <trkpt lat="44.41548" lon="5.45086">
        <ele>924.40002441406</ele>
        <time>2021-08-30T15:26:33Z</time>
      </trkpt>
      <trkpt lat="44.41552" lon="5.45096">
        <ele>924.59997558594</ele>
        <time>2021-08-30T15:26:36Z</time>
      </trkpt>
      <trkpt lat="44.41558" lon="5.4512">
        <ele>925.59997558594</ele>
        <time>2021-08-30T15:26:43Z</time>
      </trkpt>
      <trkpt lat="44.41564" lon="5.4514">
        <ele>926.59997558594</ele>
        <time>2021-08-30T15:26:50Z</time>
      </trkpt>
      <trkpt lat="44.41565" lon="5.45146">
        <ele>926.79998779297</ele>
        <time>2021-08-30T15:26:52Z</time>
      </trkpt>
      <trkpt lat="44.4157" lon="5.45168">
        <ele>927.59997558594</ele>
        <time>2021-08-30T15:26:59Z</time>
      </trkpt>
      <trkpt lat="44.4157" lon="5.45171">
        <ele>927.79998779297</ele>
        <time>2021-08-30T15:27:00Z</time>
      </trkpt>
      <trkpt lat="44.41576" lon="5.45193">
        <ele>928.79998779297</ele>
        <time>2021-08-30T15:27:08Z</time>
      </trkpt>
      <trkpt lat="44.41581" lon="5.45218">
        <ele>929.59997558594</ele>
        <time>2021-08-30T15:27:16Z</time>
      </trkpt>
      <trkpt lat="44.41584" lon="5.45228">
        <ele>929.79998779297</ele>
        <time>2021-08-30T15:27:19Z</time>
      </trkpt>
      <trkpt lat="44.41586" lon="5.45244">
        <ele>930.40002441406</ele>
        <time>2021-08-30T15:27:24Z</time>
      </trkpt>
      <trkpt lat="44.41589" lon="5.45263">
        <ele>931</ele>
        <time>2021-08-30T15:27:30Z</time>
      </trkpt>
      <trkpt lat="44.4159" lon="5.45266">
        <ele>931</ele>
        <time>2021-08-30T15:27:31Z</time>
      </trkpt>
      <trkpt lat="44.41592" lon="5.45288">
        <ele>931.79998779297</ele>
        <time>2021-08-30T15:27:38Z</time>
      </trkpt>
      <trkpt lat="44.41593" lon="5.45291">
        <ele>932</ele>
        <time>2021-08-30T15:27:39Z</time>
      </trkpt>
      <trkpt lat="44.41594" lon="5.45306">
        <ele>932.59997558594</ele>
        <time>2021-08-30T15:27:44Z</time>
      </trkpt>
      <trkpt lat="44.41594" lon="5.45316">
        <ele>933.20001220703</ele>
        <time>2021-08-30T15:27:47Z</time>
      </trkpt>
      <trkpt lat="44.41599" lon="5.45333">
        <ele>934</ele>
        <time>2021-08-30T15:27:53Z</time>
      </trkpt>
      <trkpt lat="44.41599" lon="5.45339">
        <ele>934.20001220703</ele>
        <time>2021-08-30T15:27:55Z</time>
      </trkpt>
      <trkpt lat="44.41604" lon="5.45354">
        <ele>935</ele>
        <time>2021-08-30T15:28:00Z</time>
      </trkpt>
      <trkpt lat="44.41605" lon="5.45357">
        <ele>935.20001220703</ele>
        <time>2021-08-30T15:28:01Z</time>
      </trkpt>
      <trkpt lat="44.4161" lon="5.45376">
        <ele>936</ele>
        <time>2021-08-30T15:28:07Z</time>
      </trkpt>
      <trkpt lat="44.41612" lon="5.45382">
        <ele>936.40002441406</ele>
        <time>2021-08-30T15:28:09Z</time>
      </trkpt>
      <trkpt lat="44.41619" lon="5.45397">
        <ele>937</ele>
        <time>2021-08-30T15:28:14Z</time>
      </trkpt>
      <trkpt lat="44.41622" lon="5.45403">
        <ele>937.40002441406</ele>
        <time>2021-08-30T15:28:16Z</time>
      </trkpt>
      <trkpt lat="44.41629" lon="5.45421">
        <ele>938</ele>
        <time>2021-08-30T15:28:22Z</time>
      </trkpt>
      <trkpt lat="44.41632" lon="5.45432">
        <ele>938.40002441406</ele>
        <time>2021-08-30T15:28:26Z</time>
      </trkpt>
      <trkpt lat="44.41635" lon="5.45441">
        <ele>938.79998779297</ele>
        <time>2021-08-30T15:28:29Z</time>
      </trkpt>
      <trkpt lat="44.41642" lon="5.45458">
        <ele>939.59997558594</ele>
        <time>2021-08-30T15:28:35Z</time>
      </trkpt>
      <trkpt lat="44.41643" lon="5.45464">
        <ele>939.79998779297</ele>
        <time>2021-08-30T15:28:37Z</time>
      </trkpt>
      <trkpt lat="44.41647" lon="5.45477">
        <ele>940.59997558594</ele>
        <time>2021-08-30T15:28:42Z</time>
      </trkpt>
      <trkpt lat="44.4165" lon="5.45485">
        <ele>941</ele>
        <time>2021-08-30T15:28:45Z</time>
      </trkpt>
      <trkpt lat="44.41655" lon="5.45499">
        <ele>941.79998779297</ele>
        <time>2021-08-30T15:28:50Z</time>
      </trkpt>
      <trkpt lat="44.41657" lon="5.45507">
        <ele>942.20001220703</ele>
        <time>2021-08-30T15:28:53Z</time>
      </trkpt>
      <trkpt lat="44.41663" lon="5.45522">
        <ele>942.79998779297</ele>
        <time>2021-08-30T15:28:58Z</time>
      </trkpt>
      <trkpt lat="44.41665" lon="5.45525">
        <ele>942.79998779297</ele>
        <time>2021-08-30T15:28:59Z</time>
      </trkpt>
      <trkpt lat="44.41679" lon="5.45552">
        <ele>943.79998779297</ele>
        <time>2021-08-30T15:29:07Z</time>
      </trkpt>
      <trkpt lat="44.41686" lon="5.45566">
        <ele>945</ele>
        <time>2021-08-30T15:29:12Z</time>
      </trkpt>
      <trkpt lat="44.41687" lon="5.45569">
        <ele>945</ele>
        <time>2021-08-30T15:29:13Z</time>
      </trkpt>
      <trkpt lat="44.41696" lon="5.45589">
        <ele>946</ele>
        <time>2021-08-30T15:29:20Z</time>
      </trkpt>
      <trkpt lat="44.41698" lon="5.45592">
        <ele>946.20001220703</ele>
        <time>2021-08-30T15:29:21Z</time>
      </trkpt>
      <trkpt lat="44.4171" lon="5.4561">
        <ele>947</ele>
        <time>2021-08-30T15:29:28Z</time>
      </trkpt>
      <trkpt lat="44.41711" lon="5.45613">
        <ele>947.20001220703</ele>
        <time>2021-08-30T15:29:29Z</time>
      </trkpt>
      <trkpt lat="44.41716" lon="5.45621">
        <ele>947.79998779297</ele>
        <time>2021-08-30T15:29:32Z</time>
      </trkpt>
      <trkpt lat="44.41719" lon="5.45626">
        <ele>948</ele>
        <time>2021-08-30T15:29:34Z</time>
      </trkpt>
      <trkpt lat="44.41722" lon="5.4563">
        <ele>948.40002441406</ele>
        <time>2021-08-30T15:29:36Z</time>
      </trkpt>
      <trkpt lat="44.41734" lon="5.45648">
        <ele>949</ele>
        <time>2021-08-30T15:29:43Z</time>
      </trkpt>
      <trkpt lat="44.41736" lon="5.45651">
        <ele>949.20001220703</ele>
        <time>2021-08-30T15:29:44Z</time>
      </trkpt>
      <trkpt lat="44.41744" lon="5.45663">
        <ele>949.59997558594</ele>
        <time>2021-08-30T15:29:49Z</time>
      </trkpt>
      <trkpt lat="44.41749" lon="5.45674">
        <ele>950.20001220703</ele>
        <time>2021-08-30T15:29:54Z</time>
      </trkpt>
      <trkpt lat="44.41751" lon="5.45676">
        <ele>950.40002441406</ele>
        <time>2021-08-30T15:29:55Z</time>
      </trkpt>
      <trkpt lat="44.4176" lon="5.45691">
        <ele>951.20001220703</ele>
        <time>2021-08-30T15:30:01Z</time>
      </trkpt>
      <trkpt lat="44.41763" lon="5.45695">
        <ele>951.40002441406</ele>
        <time>2021-08-30T15:30:03Z</time>
      </trkpt>
      <trkpt lat="44.41769" lon="5.45709">
        <ele>952.20001220703</ele>
        <time>2021-08-30T15:30:09Z</time>
      </trkpt>
      <trkpt lat="44.4177" lon="5.45712">
        <ele>952.40002441406</ele>
        <time>2021-08-30T15:30:10Z</time>
      </trkpt>
      <trkpt lat="44.41779" lon="5.45726">
        <ele>953.20001220703</ele>
        <time>2021-08-30T15:30:16Z</time>
      </trkpt>
      <trkpt lat="44.41781" lon="5.45732">
        <ele>953.40002441406</ele>
        <time>2021-08-30T15:30:18Z</time>
      </trkpt>
      <trkpt lat="44.41787" lon="5.45744">
        <ele>954.20001220703</ele>
        <time>2021-08-30T15:30:22Z</time>
      </trkpt>
      <trkpt lat="44.4179" lon="5.45749">
        <ele>954.59997558594</ele>
        <time>2021-08-30T15:30:24Z</time>
      </trkpt>
      <trkpt lat="44.41797" lon="5.45761">
        <ele>955</ele>
        <time>2021-08-30T15:30:29Z</time>
      </trkpt>
      <trkpt lat="44.41801" lon="5.45773">
        <ele>955.59997558594</ele>
        <time>2021-08-30T15:30:33Z</time>
      </trkpt>
      <trkpt lat="44.41803" lon="5.45778">
        <ele>955.79998779297</ele>
        <time>2021-08-30T15:30:35Z</time>
      </trkpt>
      <trkpt lat="44.41813" lon="5.45799">
        <ele>956.59997558594</ele>
        <time>2021-08-30T15:30:42Z</time>
      </trkpt>
      <trkpt lat="44.41814" lon="5.45802">
        <ele>956.59997558594</ele>
        <time>2021-08-30T15:30:43Z</time>
      </trkpt>
      <trkpt lat="44.41822" lon="5.45821">
        <ele>957.40002441406</ele>
        <time>2021-08-30T15:30:49Z</time>
      </trkpt>
      <trkpt lat="44.41825" lon="5.4583">
        <ele>957.79998779297</ele>
        <time>2021-08-30T15:30:52Z</time>
      </trkpt>
      <trkpt lat="44.41829" lon="5.45842">
        <ele>958.40002441406</ele>
        <time>2021-08-30T15:30:56Z</time>
      </trkpt>
      <trkpt lat="44.41835" lon="5.45853">
        <ele>958.79998779297</ele>
        <time>2021-08-30T15:31:00Z</time>
      </trkpt>
      <trkpt lat="44.41837" lon="5.45859">
        <ele>959</ele>
        <time>2021-08-30T15:31:02Z</time>
      </trkpt>
      <trkpt lat="44.41844" lon="5.45874">
        <ele>960</ele>
        <time>2021-08-30T15:31:08Z</time>
      </trkpt>
      <trkpt lat="44.41848" lon="5.45882">
        <ele>960.59997558594</ele>
        <time>2021-08-30T15:31:11Z</time>
      </trkpt>
      <trkpt lat="44.41854" lon="5.45895">
        <ele>961</ele>
        <time>2021-08-30T15:31:16Z</time>
      </trkpt>
      <trkpt lat="44.41857" lon="5.459">
        <ele>961.20001220703</ele>
        <time>2021-08-30T15:31:18Z</time>
      </trkpt>
      <trkpt lat="44.41866" lon="5.45918">
        <ele>962</ele>
        <time>2021-08-30T15:31:25Z</time>
      </trkpt>
      <trkpt lat="44.41868" lon="5.45921">
        <ele>962.20001220703</ele>
        <time>2021-08-30T15:31:26Z</time>
      </trkpt>
      <trkpt lat="44.41876" lon="5.4594">
        <ele>963.20001220703</ele>
        <time>2021-08-30T15:31:32Z</time>
      </trkpt>
      <trkpt lat="44.41879" lon="5.45962">
        <ele>964</ele>
        <time>2021-08-30T15:31:39Z</time>
      </trkpt>
      <trkpt lat="44.4188" lon="5.45969">
        <ele>964.20001220703</ele>
        <time>2021-08-30T15:31:41Z</time>
      </trkpt>
      <trkpt lat="44.41882" lon="5.45986">
        <ele>965</ele>
        <time>2021-08-30T15:31:46Z</time>
      </trkpt>
      <trkpt lat="44.41884" lon="5.45996">
        <ele>965.40002441406</ele>
        <time>2021-08-30T15:31:49Z</time>
      </trkpt>
      <trkpt lat="44.41888" lon="5.46013">
        <ele>966.20001220703</ele>
        <time>2021-08-30T15:31:54Z</time>
      </trkpt>
      <trkpt lat="44.41889" lon="5.46019">
        <ele>966.59997558594</ele>
        <time>2021-08-30T15:31:56Z</time>
      </trkpt>
      <trkpt lat="44.41893" lon="5.46037">
        <ele>967.40002441406</ele>
        <time>2021-08-30T15:32:01Z</time>
      </trkpt>
      <trkpt lat="44.41894" lon="5.4604">
        <ele>967.59997558594</ele>
        <time>2021-08-30T15:32:02Z</time>
      </trkpt>
      <trkpt lat="44.41899" lon="5.46061">
        <ele>968.59997558594</ele>
        <time>2021-08-30T15:32:08Z</time>
      </trkpt>
      <trkpt lat="44.41901" lon="5.46076">
        <ele>969.40002441406</ele>
        <time>2021-08-30T15:32:12Z</time>
      </trkpt>
      <trkpt lat="44.41902" lon="5.46079">
        <ele>969.59997558594</ele>
        <time>2021-08-30T15:32:13Z</time>
      </trkpt>
      <trkpt lat="44.41902" lon="5.46086">
        <ele>970</ele>
        <time>2021-08-30T15:32:15Z</time>
      </trkpt>
      <trkpt lat="44.41904" lon="5.46104">
        <ele>970.79998779297</ele>
        <time>2021-08-30T15:32:20Z</time>
      </trkpt>
      <trkpt lat="44.41904" lon="5.4611">
        <ele>970.79998779297</ele>
        <time>2021-08-30T15:32:22Z</time>
      </trkpt>
      <trkpt lat="44.41906" lon="5.46134">
        <ele>971.40002441406</ele>
        <time>2021-08-30T15:32:29Z</time>
      </trkpt>
      <trkpt lat="44.41908" lon="5.46149">
        <ele>971.79998779297</ele>
        <time>2021-08-30T15:32:34Z</time>
      </trkpt>
      <trkpt lat="44.41907" lon="5.46156">
        <ele>972</ele>
        <time>2021-08-30T15:32:36Z</time>
      </trkpt>
      <trkpt lat="44.4191" lon="5.46175">
        <ele>972.79998779297</ele>
        <time>2021-08-30T15:32:42Z</time>
      </trkpt>
      <trkpt lat="44.41915" lon="5.462">
        <ele>974</ele>
        <time>2021-08-30T15:32:50Z</time>
      </trkpt>
      <trkpt lat="44.41919" lon="5.46223">
        <ele>974.79998779297</ele>
        <time>2021-08-30T15:32:58Z</time>
      </trkpt>
      <trkpt lat="44.41922" lon="5.46228">
        <ele>975.20001220703</ele>
        <time>2021-08-30T15:33:00Z</time>
      </trkpt>
      <trkpt lat="44.41928" lon="5.46245">
        <ele>975.79998779297</ele>
        <time>2021-08-30T15:33:06Z</time>
      </trkpt>
      <trkpt lat="44.4193" lon="5.4625">
        <ele>976.20001220703</ele>
        <time>2021-08-30T15:33:08Z</time>
      </trkpt>
      <trkpt lat="44.41937" lon="5.46266">
        <ele>977</ele>
        <time>2021-08-30T15:33:15Z</time>
      </trkpt>
      <trkpt lat="44.4194" lon="5.46271">
        <ele>977.20001220703</ele>
        <time>2021-08-30T15:33:17Z</time>
      </trkpt>
      <trkpt lat="44.41946" lon="5.46282">
        <ele>977.79998779297</ele>
        <time>2021-08-30T15:33:22Z</time>
      </trkpt>
      <trkpt lat="44.41951" lon="5.46293">
        <ele>978.20001220703</ele>
        <time>2021-08-30T15:33:26Z</time>
      </trkpt>
      <trkpt lat="44.41957" lon="5.46303">
        <ele>978.59997558594</ele>
        <time>2021-08-30T15:33:30Z</time>
      </trkpt>
      <trkpt lat="44.4196" lon="5.46315">
        <ele>979.40002441406</ele>
        <time>2021-08-30T15:33:34Z</time>
      </trkpt>
      <trkpt lat="44.41964" lon="5.46326">
        <ele>979.79998779297</ele>
        <time>2021-08-30T15:33:38Z</time>
      </trkpt>
      <trkpt lat="44.41969" lon="5.46348">
        <ele>980.40002441406</ele>
        <time>2021-08-30T15:33:45Z</time>
      </trkpt>
      <trkpt lat="44.4197" lon="5.4635">
        <ele>980.59997558594</ele>
        <time>2021-08-30T15:33:46Z</time>
      </trkpt>
      <trkpt lat="44.41983" lon="5.46365">
        <ele>981.40002441406</ele>
        <time>2021-08-30T15:33:53Z</time>
      </trkpt>
      <trkpt lat="44.41985" lon="5.46367">
        <ele>981.59997558594</ele>
        <time>2021-08-30T15:33:54Z</time>
      </trkpt>
      <trkpt lat="44.41996" lon="5.46377">
        <ele>982.59997558594</ele>
        <time>2021-08-30T15:34:00Z</time>
      </trkpt>
      <trkpt lat="44.42004" lon="5.46395">
        <ele>983.40002441406</ele>
        <time>2021-08-30T15:34:07Z</time>
      </trkpt>
      <trkpt lat="44.42006" lon="5.46402">
        <ele>983.59997558594</ele>
        <time>2021-08-30T15:34:09Z</time>
      </trkpt>
      <trkpt lat="44.4201" lon="5.46417">
        <ele>984.20001220703</ele>
        <time>2021-08-30T15:34:14Z</time>
      </trkpt>
      <trkpt lat="44.42017" lon="5.46454">
        <ele>984.40002441406</ele>
        <time>2021-08-30T15:34:24Z</time>
      </trkpt>
      <trkpt lat="44.42019" lon="5.46465">
        <ele>984.79998779297</ele>
        <time>2021-08-30T15:34:27Z</time>
      </trkpt>
      <trkpt lat="44.42021" lon="5.46484">
        <ele>986</ele>
        <time>2021-08-30T15:34:32Z</time>
      </trkpt>
      <trkpt lat="44.42025" lon="5.46506">
        <ele>987</ele>
        <time>2021-08-30T15:34:38Z</time>
      </trkpt>
      <trkpt lat="44.42026" lon="5.46513">
        <ele>987.40002441406</ele>
        <time>2021-08-30T15:34:40Z</time>
      </trkpt>
      <trkpt lat="44.42032" lon="5.46524">
        <ele>988.20001220703</ele>
        <time>2021-08-30T15:34:44Z</time>
      </trkpt>
      <trkpt lat="44.42034" lon="5.46526">
        <ele>988.40002441406</ele>
        <time>2021-08-30T15:34:45Z</time>
      </trkpt>
      <trkpt lat="44.42046" lon="5.46529">
        <ele>989</ele>
        <time>2021-08-30T15:34:50Z</time>
      </trkpt>
      <trkpt lat="44.42051" lon="5.46525">
        <ele>989.40002441406</ele>
        <time>2021-08-30T15:34:52Z</time>
      </trkpt>
      <trkpt lat="44.42056" lon="5.46518">
        <ele>990.20001220703</ele>
        <time>2021-08-30T15:34:55Z</time>
      </trkpt>
      <trkpt lat="44.42061" lon="5.46513">
        <ele>990.59997558594</ele>
        <time>2021-08-30T15:34:58Z</time>
      </trkpt>
      <trkpt lat="44.42068" lon="5.46503">
        <ele>991.20001220703</ele>
        <time>2021-08-30T15:35:02Z</time>
      </trkpt>
      <trkpt lat="44.42073" lon="5.46496">
        <ele>991.79998779297</ele>
        <time>2021-08-30T15:35:05Z</time>
      </trkpt>
      <trkpt lat="44.4208" lon="5.46484">
        <ele>992.59997558594</ele>
        <time>2021-08-30T15:35:10Z</time>
      </trkpt>
      <trkpt lat="44.42081" lon="5.46482">
        <ele>992.79998779297</ele>
        <time>2021-08-30T15:35:11Z</time>
      </trkpt>
      <trkpt lat="44.42083" lon="5.46479">
        <ele>993</ele>
        <time>2021-08-30T15:35:12Z</time>
      </trkpt>
      <trkpt lat="44.42088" lon="5.4647">
        <ele>993.79998779297</ele>
        <time>2021-08-30T15:35:16Z</time>
      </trkpt>
      <trkpt lat="44.42091" lon="5.46465">
        <ele>994</ele>
        <time>2021-08-30T15:35:18Z</time>
      </trkpt>
      <trkpt lat="44.42099" lon="5.46451">
        <ele>994.40002441406</ele>
        <time>2021-08-30T15:35:24Z</time>
      </trkpt>
      <trkpt lat="44.42102" lon="5.46443">
        <ele>994.79998779297</ele>
        <time>2021-08-30T15:35:27Z</time>
      </trkpt>
      <trkpt lat="44.42107" lon="5.46428">
        <ele>995.79998779297</ele>
        <time>2021-08-30T15:35:32Z</time>
      </trkpt>
      <trkpt lat="44.42108" lon="5.46426">
        <ele>996</ele>
        <time>2021-08-30T15:35:33Z</time>
      </trkpt>
      <trkpt lat="44.42118" lon="5.46402">
        <ele>996.79998779297</ele>
        <time>2021-08-30T15:35:41Z</time>
      </trkpt>
      <trkpt lat="44.42119" lon="5.46399">
        <ele>997</ele>
        <time>2021-08-30T15:35:42Z</time>
      </trkpt>
      <trkpt lat="44.42125" lon="5.46385">
        <ele>998.20001220703</ele>
        <time>2021-08-30T15:35:47Z</time>
      </trkpt>
      <trkpt lat="44.42128" lon="5.46377">
        <ele>998.59997558594</ele>
        <time>2021-08-30T15:35:50Z</time>
      </trkpt>
      <trkpt lat="44.42133" lon="5.46367">
        <ele>999.20001220703</ele>
        <time>2021-08-30T15:35:54Z</time>
      </trkpt>
      <trkpt lat="44.42137" lon="5.46357">
        <ele>1000</ele>
        <time>2021-08-30T15:35:58Z</time>
      </trkpt>
      <trkpt lat="44.4214" lon="5.46352">
        <ele>1000.4000244141</ele>
        <time>2021-08-30T15:36:00Z</time>
      </trkpt>
      <trkpt lat="44.42145" lon="5.46335">
        <ele>1001.200012207</ele>
        <time>2021-08-30T15:36:06Z</time>
      </trkpt>
      <trkpt lat="44.42147" lon="5.4633">
        <ele>1001.5999755859</ele>
        <time>2021-08-30T15:36:08Z</time>
      </trkpt>
      <trkpt lat="44.42154" lon="5.46313">
        <ele>1002.4000244141</ele>
        <time>2021-08-30T15:36:14Z</time>
      </trkpt>
      <trkpt lat="44.42155" lon="5.46307">
        <ele>1002.5999755859</ele>
        <time>2021-08-30T15:36:16Z</time>
      </trkpt>
      <trkpt lat="44.42161" lon="5.46295">
        <ele>1003.5999755859</ele>
        <time>2021-08-30T15:36:21Z</time>
      </trkpt>
      <trkpt lat="44.42163" lon="5.46292">
        <ele>1003.799987793</ele>
        <time>2021-08-30T15:36:22Z</time>
      </trkpt>
      <trkpt lat="44.42176" lon="5.46276">
        <ele>1004.200012207</ele>
        <time>2021-08-30T15:36:30Z</time>
      </trkpt>
      <trkpt lat="44.42188" lon="5.4628">
        <ele>1004.799987793</ele>
        <time>2021-08-30T15:36:35Z</time>
      </trkpt>
      <trkpt lat="44.4219" lon="5.46282">
        <ele>1004.799987793</ele>
        <time>2021-08-30T15:36:36Z</time>
      </trkpt>
      <trkpt lat="44.42198" lon="5.46303">
        <ele>1005</ele>
        <time>2021-08-30T15:36:43Z</time>
      </trkpt>
      <trkpt lat="44.42199" lon="5.46312">
        <ele>1006</ele>
        <time>2021-08-30T15:36:46Z</time>
      </trkpt>
      <trkpt lat="44.42202" lon="5.46326">
        <ele>1006.799987793</ele>
        <time>2021-08-30T15:36:51Z</time>
      </trkpt>
      <trkpt lat="44.42203" lon="5.46333">
        <ele>1007</ele>
        <time>2021-08-30T15:36:53Z</time>
      </trkpt>
      <trkpt lat="44.42209" lon="5.46341">
        <ele>1007.5999755859</ele>
        <time>2021-08-30T15:36:57Z</time>
      </trkpt>
      <trkpt lat="44.42217" lon="5.46341">
        <ele>1008</ele>
        <time>2021-08-30T15:37:01Z</time>
      </trkpt>
      <trkpt lat="44.42219" lon="5.46339">
        <ele>1008</ele>
        <time>2021-08-30T15:37:02Z</time>
      </trkpt>
      <trkpt lat="44.42225" lon="5.46337">
        <ele>1008.5999755859</ele>
        <time>2021-08-30T15:37:05Z</time>
      </trkpt>
      <trkpt lat="44.42231" lon="5.46334">
        <ele>1009.200012207</ele>
        <time>2021-08-30T15:37:08Z</time>
      </trkpt>
      <trkpt lat="44.42241" lon="5.46324">
        <ele>1010.200012207</ele>
        <time>2021-08-30T15:37:14Z</time>
      </trkpt>
      <trkpt lat="44.42243" lon="5.46323">
        <ele>1010.4000244141</ele>
        <time>2021-08-30T15:37:15Z</time>
      </trkpt>
      <trkpt lat="44.42254" lon="5.4631">
        <ele>1011.200012207</ele>
        <time>2021-08-30T15:37:22Z</time>
      </trkpt>
      <trkpt lat="44.42256" lon="5.46308">
        <ele>1011.5999755859</ele>
        <time>2021-08-30T15:37:23Z</time>
      </trkpt>
      <trkpt lat="44.42264" lon="5.46294">
        <ele>1012.5999755859</ele>
        <time>2021-08-30T15:37:29Z</time>
      </trkpt>
      <trkpt lat="44.42265" lon="5.46291">
        <ele>1012.799987793</ele>
        <time>2021-08-30T15:37:30Z</time>
      </trkpt>
      <trkpt lat="44.42274" lon="5.46276">
        <ele>1013.5999755859</ele>
        <time>2021-08-30T15:37:36Z</time>
      </trkpt>
      <trkpt lat="44.42275" lon="5.46273">
        <ele>1013.799987793</ele>
        <time>2021-08-30T15:37:37Z</time>
      </trkpt>
      <trkpt lat="44.42282" lon="5.46253">
        <ele>1014.799987793</ele>
        <time>2021-08-30T15:37:44Z</time>
      </trkpt>
      <trkpt lat="44.42283" lon="5.4625">
        <ele>1015</ele>
        <time>2021-08-30T15:37:45Z</time>
      </trkpt>
      <trkpt lat="44.42288" lon="5.46233">
        <ele>1016</ele>
        <time>2021-08-30T15:37:51Z</time>
      </trkpt>
      <trkpt lat="44.4229" lon="5.46224">
        <ele>1016.200012207</ele>
        <time>2021-08-30T15:37:54Z</time>
      </trkpt>
      <trkpt lat="44.42294" lon="5.46208">
        <ele>1017</ele>
        <time>2021-08-30T15:37:59Z</time>
      </trkpt>
      <trkpt lat="44.42297" lon="5.46195">
        <ele>1017.4000244141</ele>
        <time>2021-08-30T15:38:03Z</time>
      </trkpt>
      <trkpt lat="44.423" lon="5.46178">
        <ele>1018.200012207</ele>
        <time>2021-08-30T15:38:09Z</time>
      </trkpt>
      <trkpt lat="44.42302" lon="5.46172">
        <ele>1018.5999755859</ele>
        <time>2021-08-30T15:38:11Z</time>
      </trkpt>
      <trkpt lat="44.42305" lon="5.46157">
        <ele>1019.200012207</ele>
        <time>2021-08-30T15:38:16Z</time>
      </trkpt>
      <trkpt lat="44.42307" lon="5.46145">
        <ele>1019.799987793</ele>
        <time>2021-08-30T15:38:20Z</time>
      </trkpt>
      <trkpt lat="44.42313" lon="5.46129">
        <ele>1020.4000244141</ele>
        <time>2021-08-30T15:38:26Z</time>
      </trkpt>
      <trkpt lat="44.42316" lon="5.46125">
        <ele>1020.799987793</ele>
        <time>2021-08-30T15:38:28Z</time>
      </trkpt>
      <trkpt lat="44.42325" lon="5.46123">
        <ele>1021.4000244141</ele>
        <time>2021-08-30T15:38:32Z</time>
      </trkpt>
      <trkpt lat="44.42328" lon="5.46124">
        <ele>1021.5999755859</ele>
        <time>2021-08-30T15:38:33Z</time>
      </trkpt>
      <trkpt lat="44.42334" lon="5.46129">
        <ele>1022.4000244141</ele>
        <time>2021-08-30T15:38:36Z</time>
      </trkpt>
      <trkpt lat="44.42345" lon="5.46141">
        <ele>1022.799987793</ele>
        <time>2021-08-30T15:38:41Z</time>
      </trkpt>
      <trkpt lat="44.4236" lon="5.46149">
        <ele>1023.200012207</ele>
        <time>2021-08-30T15:38:48Z</time>
      </trkpt>
      <trkpt lat="44.42366" lon="5.46151">
        <ele>1023.5999755859</ele>
        <time>2021-08-30T15:38:51Z</time>
      </trkpt>
      <trkpt lat="44.4238" lon="5.46158">
        <ele>1024.1999511719</ele>
        <time>2021-08-30T15:38:58Z</time>
      </trkpt>
      <trkpt lat="44.42384" lon="5.4616">
        <ele>1024.5999755859</ele>
        <time>2021-08-30T15:39:00Z</time>
      </trkpt>
      <trkpt lat="44.42393" lon="5.46165">
        <ele>1025.8000488281</ele>
        <time>2021-08-30T15:39:04Z</time>
      </trkpt>
      <trkpt lat="44.42397" lon="5.46167">
        <ele>1026.1999511719</ele>
        <time>2021-08-30T15:39:06Z</time>
      </trkpt>
      <trkpt lat="44.42403" lon="5.46171">
        <ele>1027</ele>
        <time>2021-08-30T15:39:09Z</time>
      </trkpt>
      <trkpt lat="44.42411" lon="5.46176">
        <ele>1027.4000244141</ele>
        <time>2021-08-30T15:39:13Z</time>
      </trkpt>
      <trkpt lat="44.42417" lon="5.46178">
        <ele>1028</ele>
        <time>2021-08-30T15:39:16Z</time>
      </trkpt>
      <trkpt lat="44.42425" lon="5.46181">
        <ele>1028.5999755859</ele>
        <time>2021-08-30T15:39:20Z</time>
      </trkpt>
      <trkpt lat="44.4243" lon="5.46182">
        <ele>1029.1999511719</ele>
        <time>2021-08-30T15:39:23Z</time>
      </trkpt>
      <trkpt lat="44.42438" lon="5.46185">
        <ele>1029.8000488281</ele>
        <time>2021-08-30T15:39:27Z</time>
      </trkpt>
      <trkpt lat="44.42444" lon="5.46186">
        <ele>1030.1999511719</ele>
        <time>2021-08-30T15:39:30Z</time>
      </trkpt>
      <trkpt lat="44.42453" lon="5.4619">
        <ele>1030.8000488281</ele>
        <time>2021-08-30T15:39:35Z</time>
      </trkpt>
      <trkpt lat="44.42458" lon="5.46192">
        <ele>1031.1999511719</ele>
        <time>2021-08-30T15:39:38Z</time>
      </trkpt>
      <trkpt lat="44.42468" lon="5.46197">
        <ele>1031.5999755859</ele>
        <time>2021-08-30T15:39:43Z</time>
      </trkpt>
      <trkpt lat="44.42475" lon="5.46199">
        <ele>1032.1999511719</ele>
        <time>2021-08-30T15:39:47Z</time>
      </trkpt>
      <trkpt lat="44.42479" lon="5.46199">
        <ele>1032.4000244141</ele>
        <time>2021-08-30T15:39:49Z</time>
      </trkpt>
      <trkpt lat="44.42491" lon="5.46207">
        <ele>1033.1999511719</ele>
        <time>2021-08-30T15:39:55Z</time>
      </trkpt>
      <trkpt lat="44.42495" lon="5.46207">
        <ele>1033.4000244141</ele>
        <time>2021-08-30T15:39:57Z</time>
      </trkpt>
      <trkpt lat="44.42501" lon="5.46209">
        <ele>1033.5999755859</ele>
        <time>2021-08-30T15:40:00Z</time>
      </trkpt>
      <trkpt lat="44.42505" lon="5.46213">
        <ele>1033.5999755859</ele>
        <time>2021-08-30T15:40:02Z</time>
      </trkpt>
      <trkpt lat="44.42518" lon="5.4622">
        <ele>1034.4000244141</ele>
        <time>2021-08-30T15:40:08Z</time>
      </trkpt>
      <trkpt lat="44.4252" lon="5.46222">
        <ele>1034.5999755859</ele>
        <time>2021-08-30T15:40:09Z</time>
      </trkpt>
      <trkpt lat="44.42528" lon="5.46227">
        <ele>1035.5999755859</ele>
        <time>2021-08-30T15:40:13Z</time>
      </trkpt>
      <trkpt lat="44.42534" lon="5.4623">
        <ele>1036</ele>
        <time>2021-08-30T15:40:16Z</time>
      </trkpt>
      <trkpt lat="44.4254" lon="5.46233">
        <ele>1036.5999755859</ele>
        <time>2021-08-30T15:40:19Z</time>
      </trkpt>
      <trkpt lat="44.42546" lon="5.4624">
        <ele>1037.4000244141</ele>
        <time>2021-08-30T15:40:23Z</time>
      </trkpt>
      <trkpt lat="44.42548" lon="5.46242">
        <ele>1037.5999755859</ele>
        <time>2021-08-30T15:40:24Z</time>
      </trkpt>
      <trkpt lat="44.42558" lon="5.46249">
        <ele>1038.4000244141</ele>
        <time>2021-08-30T15:40:31Z</time>
      </trkpt>
      <trkpt lat="44.42561" lon="5.46251">
        <ele>1038.8000488281</ele>
        <time>2021-08-30T15:40:33Z</time>
      </trkpt>
      <trkpt lat="44.42571" lon="5.46255">
        <ele>1039.5999755859</ele>
        <time>2021-08-30T15:40:38Z</time>
      </trkpt>
      <trkpt lat="44.42575" lon="5.46256">
        <ele>1039.8000488281</ele>
        <time>2021-08-30T15:40:40Z</time>
      </trkpt>
      <trkpt lat="44.42584" lon="5.46259">
        <ele>1040.4000244141</ele>
        <time>2021-08-30T15:40:44Z</time>
      </trkpt>
      <trkpt lat="44.42587" lon="5.46259">
        <ele>1041</ele>
        <time>2021-08-30T15:40:46Z</time>
      </trkpt>
      <trkpt lat="44.42596" lon="5.46258">
        <ele>1041.5999755859</ele>
        <time>2021-08-30T15:40:50Z</time>
      </trkpt>
      <trkpt lat="44.42604" lon="5.46258">
        <ele>1042</ele>
        <time>2021-08-30T15:40:53Z</time>
      </trkpt>
      <trkpt lat="44.4261" lon="5.46257">
        <ele>1042.4000244141</ele>
        <time>2021-08-30T15:40:55Z</time>
      </trkpt>
      <trkpt lat="44.42623" lon="5.46253">
        <ele>1043.1999511719</ele>
        <time>2021-08-30T15:41:00Z</time>
      </trkpt>
      <trkpt lat="44.42628" lon="5.46251">
        <ele>1043.5999755859</ele>
        <time>2021-08-30T15:41:02Z</time>
      </trkpt>
      <trkpt lat="44.42639" lon="5.46248">
        <ele>1044.1999511719</ele>
        <time>2021-08-30T15:41:07Z</time>
      </trkpt>
      <trkpt lat="44.42641" lon="5.46248">
        <ele>1044.1999511719</ele>
        <time>2021-08-30T15:41:08Z</time>
      </trkpt>
      <trkpt lat="44.4265" lon="5.46246">
        <ele>1045.1999511719</ele>
        <time>2021-08-30T15:41:13Z</time>
      </trkpt>
      <trkpt lat="44.42652" lon="5.46244">
        <ele>1045.1999511719</ele>
        <time>2021-08-30T15:41:14Z</time>
      </trkpt>
      <trkpt lat="44.42653" lon="5.46243">
        <ele>1045.4000244141</ele>
        <time>2021-08-30T15:41:15Z</time>
      </trkpt>
      <trkpt lat="44.42658" lon="5.46243">
        <ele>1045.4000244141</ele>
        <time>2021-08-30T15:45:00Z</time>
      </trkpt>
      <trkpt lat="44.42665" lon="5.46246">
        <ele>1045.4000244141</ele>
        <time>2021-08-30T15:45:03Z</time>
      </trkpt>
      <trkpt lat="44.42676" lon="5.46245">
        <ele>1045</ele>
        <time>2021-08-30T15:45:08Z</time>
      </trkpt>
      <trkpt lat="44.4268" lon="5.46251">
        <ele>1043.8000488281</ele>
        <time>2021-08-30T15:45:25Z</time>
      </trkpt>
      <trkpt lat="44.42684" lon="5.46264">
        <ele>1043.5999755859</ele>
        <time>2021-08-30T15:45:31Z</time>
      </trkpt>
      <trkpt lat="44.42682" lon="5.46255">
        <ele>1043.4000244141</ele>
        <time>2021-08-30T15:46:14Z</time>
      </trkpt>
      <trkpt lat="44.4268" lon="5.46252">
        <ele>1043.4000244141</ele>
        <time>2021-08-30T15:46:16Z</time>
      </trkpt>
      <trkpt lat="44.42679" lon="5.46247">
        <ele>1043.5999755859</ele>
        <time>2021-08-30T15:46:19Z</time>
      </trkpt>
      <trkpt lat="44.42676" lon="5.46244">
        <ele>1043.5999755859</ele>
        <time>2021-08-30T15:46:21Z</time>
      </trkpt>
      <trkpt lat="44.42674" lon="5.46243">
        <ele>1043.5999755859</ele>
        <time>2021-08-30T15:46:22Z</time>
      </trkpt>
      <trkpt lat="44.42667" lon="5.46244">
        <ele>1044</ele>
        <time>2021-08-30T15:46:25Z</time>
      </trkpt>
      <trkpt lat="44.42666" lon="5.46245">
        <ele>1044.1999511719</ele>
        <time>2021-08-30T15:46:26Z</time>
      </trkpt>
      <trkpt lat="44.42653" lon="5.46247">
        <ele>1044.8000488281</ele>
        <time>2021-08-30T15:46:32Z</time>
      </trkpt>
      <trkpt lat="44.42651" lon="5.46246">
        <ele>1044.8000488281</ele>
        <time>2021-08-30T15:46:33Z</time>
      </trkpt>
      <trkpt lat="44.4264" lon="5.46249">
        <ele>1045.1999511719</ele>
        <time>2021-08-30T15:46:38Z</time>
      </trkpt>
      <trkpt lat="44.4263" lon="5.46254">
        <ele>1045.1999511719</ele>
        <time>2021-08-30T15:46:43Z</time>
      </trkpt>
      <trkpt lat="44.42628" lon="5.46254">
        <ele>1045</ele>
        <time>2021-08-30T15:46:44Z</time>
      </trkpt>
      <trkpt lat="44.42616" lon="5.46256">
        <ele>1044.1999511719</ele>
        <time>2021-08-30T15:46:50Z</time>
      </trkpt>
      <trkpt lat="44.42617" lon="5.46258">
        <ele>1043.1999511719</ele>
        <time>2021-08-30T15:47:04Z</time>
      </trkpt>
      <trkpt lat="44.42624" lon="5.46253">
        <ele>1043.4000244141</ele>
        <time>2021-08-30T15:47:08Z</time>
      </trkpt>
      <trkpt lat="44.42629" lon="5.46251">
        <ele>1043.5999755859</ele>
        <time>2021-08-30T15:47:10Z</time>
      </trkpt>
      <trkpt lat="44.42645" lon="5.46247">
        <ele>1044.8000488281</ele>
        <time>2021-08-30T15:47:18Z</time>
      </trkpt>
      <trkpt lat="44.42647" lon="5.46246">
        <ele>1044.8000488281</ele>
        <time>2021-08-30T15:47:19Z</time>
      </trkpt>
      <trkpt lat="44.42661" lon="5.46244">
        <ele>1045.4000244141</ele>
        <time>2021-08-30T15:47:25Z</time>
      </trkpt>
      <trkpt lat="44.42671" lon="5.46245">
        <ele>1044.5999755859</ele>
        <time>2021-08-30T15:51:35Z</time>
      </trkpt>
      <trkpt lat="44.42675" lon="5.46242">
        <ele>1044.4000244141</ele>
        <time>2021-08-30T15:51:38Z</time>
      </trkpt>
      <trkpt lat="44.42678" lon="5.46242">
        <ele>1044.1999511719</ele>
        <time>2021-08-30T15:51:46Z</time>
      </trkpt>
      <trkpt lat="44.4268" lon="5.46241">
        <ele>1044.1999511719</ele>
        <time>2021-08-30T15:51:47Z</time>
      </trkpt>
      <trkpt lat="44.42691" lon="5.46231">
        <ele>1044</ele>
        <time>2021-08-30T15:51:52Z</time>
      </trkpt>
      <trkpt lat="44.42695" lon="5.46226">
        <ele>1043.8000488281</ele>
        <time>2021-08-30T15:51:54Z</time>
      </trkpt>
      <trkpt lat="44.42704" lon="5.46219">
        <ele>1042.8000488281</ele>
        <time>2021-08-30T15:51:59Z</time>
      </trkpt>
      <trkpt lat="44.42706" lon="5.46219">
        <ele>1042.5999755859</ele>
        <time>2021-08-30T15:52:00Z</time>
      </trkpt>
      <trkpt lat="44.42716" lon="5.46217">
        <ele>1041.5999755859</ele>
        <time>2021-08-30T15:52:05Z</time>
      </trkpt>
      <trkpt lat="44.42719" lon="5.46217">
        <ele>1041.5999755859</ele>
        <time>2021-08-30T15:52:06Z</time>
      </trkpt>
      <trkpt lat="44.42733" lon="5.46215">
        <ele>1041.1999511719</ele>
        <time>2021-08-30T15:52:10Z</time>
      </trkpt>
      <trkpt lat="44.42745" lon="5.46211">
        <ele>1040.4000244141</ele>
        <time>2021-08-30T15:52:13Z</time>
      </trkpt>
      <trkpt lat="44.42757" lon="5.46206">
        <ele>1039.1999511719</ele>
        <time>2021-08-30T15:52:16Z</time>
      </trkpt>
      <trkpt lat="44.42765" lon="5.46201">
        <ele>1038.4000244141</ele>
        <time>2021-08-30T15:52:18Z</time>
      </trkpt>
      <trkpt lat="44.4277" lon="5.46199">
        <ele>1037.8000488281</ele>
        <time>2021-08-30T15:52:19Z</time>
      </trkpt>
      <trkpt lat="44.42786" lon="5.46192">
        <ele>1035.8000488281</ele>
        <time>2021-08-30T15:52:22Z</time>
      </trkpt>
      <trkpt lat="44.42792" lon="5.46191">
        <ele>1035.1999511719</ele>
        <time>2021-08-30T15:52:23Z</time>
      </trkpt>
      <trkpt lat="44.42798" lon="5.4619">
        <ele>1034.5999755859</ele>
        <time>2021-08-30T15:52:24Z</time>
      </trkpt>
      <trkpt lat="44.42804" lon="5.4619">
        <ele>1034</ele>
        <time>2021-08-30T15:52:25Z</time>
      </trkpt>
      <trkpt lat="44.4281" lon="5.4619">
        <ele>1033.4000244141</ele>
        <time>2021-08-30T15:52:26Z</time>
      </trkpt>
      <trkpt lat="44.42823" lon="5.46194">
        <ele>1032.1999511719</ele>
        <time>2021-08-30T15:52:28Z</time>
      </trkpt>
      <trkpt lat="44.42834" lon="5.46199">
        <ele>1030.8000488281</ele>
        <time>2021-08-30T15:52:30Z</time>
      </trkpt>
      <trkpt lat="44.42845" lon="5.46204">
        <ele>1029.4000244141</ele>
        <time>2021-08-30T15:52:32Z</time>
      </trkpt>
      <trkpt lat="44.42856" lon="5.46208">
        <ele>1028</ele>
        <time>2021-08-30T15:52:34Z</time>
      </trkpt>
      <trkpt lat="44.42867" lon="5.46212">
        <ele>1026.8000488281</ele>
        <time>2021-08-30T15:52:36Z</time>
      </trkpt>
      <trkpt lat="44.42878" lon="5.46216">
        <ele>1025.5999755859</ele>
        <time>2021-08-30T15:52:38Z</time>
      </trkpt>
      <trkpt lat="44.42895" lon="5.46224">
        <ele>1024.1999511719</ele>
        <time>2021-08-30T15:52:41Z</time>
      </trkpt>
      <trkpt lat="44.42908" lon="5.46228">
        <ele>1023.200012207</ele>
        <time>2021-08-30T15:52:43Z</time>
      </trkpt>
      <trkpt lat="44.42927" lon="5.46233">
        <ele>1021.200012207</ele>
        <time>2021-08-30T15:52:46Z</time>
      </trkpt>
      <trkpt lat="44.4294" lon="5.46234">
        <ele>1020.200012207</ele>
        <time>2021-08-30T15:52:48Z</time>
      </trkpt>
      <trkpt lat="44.42945" lon="5.46233">
        <ele>1019.5999755859</ele>
        <time>2021-08-30T15:52:49Z</time>
      </trkpt>
      <trkpt lat="44.42951" lon="5.46232">
        <ele>1018.799987793</ele>
        <time>2021-08-30T15:52:50Z</time>
      </trkpt>
      <trkpt lat="44.42963" lon="5.46227">
        <ele>1017.5999755859</ele>
        <time>2021-08-30T15:52:52Z</time>
      </trkpt>
      <trkpt lat="44.42969" lon="5.46223">
        <ele>1017</ele>
        <time>2021-08-30T15:52:53Z</time>
      </trkpt>
      <trkpt lat="44.42975" lon="5.46219">
        <ele>1016.5999755859</ele>
        <time>2021-08-30T15:52:54Z</time>
      </trkpt>
      <trkpt lat="44.4298" lon="5.46215">
        <ele>1016</ele>
        <time>2021-08-30T15:52:55Z</time>
      </trkpt>
      <trkpt lat="44.42986" lon="5.4621">
        <ele>1015.4000244141</ele>
        <time>2021-08-30T15:52:56Z</time>
      </trkpt>
      <trkpt lat="44.42998" lon="5.46202">
        <ele>1014.200012207</ele>
        <time>2021-08-30T15:52:58Z</time>
      </trkpt>
      <trkpt lat="44.43003" lon="5.46199">
        <ele>1013.5999755859</ele>
        <time>2021-08-30T15:52:59Z</time>
      </trkpt>
      <trkpt lat="44.43009" lon="5.46196">
        <ele>1013</ele>
        <time>2021-08-30T15:53:00Z</time>
      </trkpt>
      <trkpt lat="44.43019" lon="5.46192">
        <ele>1011.799987793</ele>
        <time>2021-08-30T15:53:02Z</time>
      </trkpt>
      <trkpt lat="44.43035" lon="5.46187">
        <ele>1010.5999755859</ele>
        <time>2021-08-30T15:53:05Z</time>
      </trkpt>
      <trkpt lat="44.4304" lon="5.46186">
        <ele>1010.200012207</ele>
        <time>2021-08-30T15:53:06Z</time>
      </trkpt>
      <trkpt lat="44.43051" lon="5.46183">
        <ele>1009.4000244141</ele>
        <time>2021-08-30T15:53:08Z</time>
      </trkpt>
      <trkpt lat="44.43062" lon="5.46182">
        <ele>1008</ele>
        <time>2021-08-30T15:53:10Z</time>
      </trkpt>
      <trkpt lat="44.43074" lon="5.46179">
        <ele>1007.4000244141</ele>
        <time>2021-08-30T15:53:12Z</time>
      </trkpt>
      <trkpt lat="44.43086" lon="5.46176">
        <ele>1007</ele>
        <time>2021-08-30T15:53:14Z</time>
      </trkpt>
      <trkpt lat="44.43105" lon="5.46174">
        <ele>1005.799987793</ele>
        <time>2021-08-30T15:53:17Z</time>
      </trkpt>
      <trkpt lat="44.43111" lon="5.46175">
        <ele>1005.4000244141</ele>
        <time>2021-08-30T15:53:18Z</time>
      </trkpt>
      <trkpt lat="44.43123" lon="5.4618">
        <ele>1004.4000244141</ele>
        <time>2021-08-30T15:53:20Z</time>
      </trkpt>
      <trkpt lat="44.43134" lon="5.46187">
        <ele>1003.4000244141</ele>
        <time>2021-08-30T15:53:22Z</time>
      </trkpt>
      <trkpt lat="44.43139" lon="5.4619">
        <ele>1002.799987793</ele>
        <time>2021-08-30T15:53:23Z</time>
      </trkpt>
      <trkpt lat="44.43149" lon="5.46195">
        <ele>1002</ele>
        <time>2021-08-30T15:53:25Z</time>
      </trkpt>
      <trkpt lat="44.43164" lon="5.462">
        <ele>1000.799987793</ele>
        <time>2021-08-30T15:53:28Z</time>
      </trkpt>
      <trkpt lat="44.43168" lon="5.46202">
        <ele>1000.5999755859</ele>
        <time>2021-08-30T15:53:29Z</time>
      </trkpt>
      <trkpt lat="44.43173" lon="5.46204">
        <ele>1000.200012207</ele>
        <time>2021-08-30T15:53:30Z</time>
      </trkpt>
      <trkpt lat="44.43173" lon="5.4621">
        <ele>1000</ele>
        <time>2021-08-30T15:53:31Z</time>
      </trkpt>
      <trkpt lat="44.43171" lon="5.46215">
        <ele>999.59997558594</ele>
        <time>2021-08-30T15:53:32Z</time>
      </trkpt>
      <trkpt lat="44.43163" lon="5.46219">
        <ele>998.79998779297</ele>
        <time>2021-08-30T15:53:34Z</time>
      </trkpt>
      <trkpt lat="44.43157" lon="5.46217">
        <ele>998.40002441406</ele>
        <time>2021-08-30T15:53:35Z</time>
      </trkpt>
      <trkpt lat="44.43142" lon="5.46214">
        <ele>997.40002441406</ele>
        <time>2021-08-30T15:53:38Z</time>
      </trkpt>
      <trkpt lat="44.43127" lon="5.46213">
        <ele>996.20001220703</ele>
        <time>2021-08-30T15:53:41Z</time>
      </trkpt>
      <trkpt lat="44.43111" lon="5.46215">
        <ele>995.20001220703</ele>
        <time>2021-08-30T15:53:44Z</time>
      </trkpt>
      <trkpt lat="44.43106" lon="5.46218">
        <ele>995</ele>
        <time>2021-08-30T15:53:45Z</time>
      </trkpt>
      <trkpt lat="44.431" lon="5.4622">
        <ele>994.59997558594</ele>
        <time>2021-08-30T15:53:46Z</time>
      </trkpt>
      <trkpt lat="44.43095" lon="5.46225">
        <ele>994.40002441406</ele>
        <time>2021-08-30T15:53:47Z</time>
      </trkpt>
      <trkpt lat="44.43091" lon="5.46228">
        <ele>994</ele>
        <time>2021-08-30T15:53:48Z</time>
      </trkpt>
      <trkpt lat="44.43082" lon="5.46237">
        <ele>993.20001220703</ele>
        <time>2021-08-30T15:53:50Z</time>
      </trkpt>
      <trkpt lat="44.43078" lon="5.46243">
        <ele>993</ele>
        <time>2021-08-30T15:53:51Z</time>
      </trkpt>
      <trkpt lat="44.43074" lon="5.46249">
        <ele>992.59997558594</ele>
        <time>2021-08-30T15:53:52Z</time>
      </trkpt>
      <trkpt lat="44.43067" lon="5.46261">
        <ele>991.79998779297</ele>
        <time>2021-08-30T15:53:54Z</time>
      </trkpt>
      <trkpt lat="44.43063" lon="5.46268">
        <ele>991.40002441406</ele>
        <time>2021-08-30T15:53:55Z</time>
      </trkpt>
      <trkpt lat="44.43051" lon="5.46286">
        <ele>990.20001220703</ele>
        <time>2021-08-30T15:53:58Z</time>
      </trkpt>
      <trkpt lat="44.43038" lon="5.46306">
        <ele>989</ele>
        <time>2021-08-30T15:54:01Z</time>
      </trkpt>
      <trkpt lat="44.43025" lon="5.46325">
        <ele>987.59997558594</ele>
        <time>2021-08-30T15:54:04Z</time>
      </trkpt>
      <trkpt lat="44.43012" lon="5.46344">
        <ele>986.40002441406</ele>
        <time>2021-08-30T15:54:07Z</time>
      </trkpt>
      <trkpt lat="44.42998" lon="5.46364">
        <ele>985</ele>
        <time>2021-08-30T15:54:10Z</time>
      </trkpt>
      <trkpt lat="44.42994" lon="5.4637">
        <ele>984.59997558594</ele>
        <time>2021-08-30T15:54:11Z</time>
      </trkpt>
      <trkpt lat="44.42987" lon="5.4638">
        <ele>983.79998779297</ele>
        <time>2021-08-30T15:54:13Z</time>
      </trkpt>
      <trkpt lat="44.42983" lon="5.4639">
        <ele>982.59997558594</ele>
        <time>2021-08-30T15:54:15Z</time>
      </trkpt>
      <trkpt lat="44.42982" lon="5.46404">
        <ele>981.40002441406</ele>
        <time>2021-08-30T15:54:18Z</time>
      </trkpt>
      <trkpt lat="44.42983" lon="5.46407">
        <ele>981</ele>
        <time>2021-08-30T15:54:19Z</time>
      </trkpt>
      <trkpt lat="44.42988" lon="5.46418">
        <ele>980</ele>
        <time>2021-08-30T15:54:22Z</time>
      </trkpt>
      <trkpt lat="44.42994" lon="5.4643">
        <ele>979.79998779297</ele>
        <time>2021-08-30T15:54:25Z</time>
      </trkpt>
      <trkpt lat="44.43013" lon="5.46461">
        <ele>979</ele>
        <time>2021-08-30T15:54:32Z</time>
      </trkpt>
      <trkpt lat="44.43024" lon="5.46479">
        <ele>978.20001220703</ele>
        <time>2021-08-30T15:54:37Z</time>
      </trkpt>
      <trkpt lat="44.43029" lon="5.46487">
        <ele>978</ele>
        <time>2021-08-30T15:54:39Z</time>
      </trkpt>
      <trkpt lat="44.43039" lon="5.46506">
        <ele>977.20001220703</ele>
        <time>2021-08-30T15:54:43Z</time>
      </trkpt>
      <trkpt lat="44.43042" lon="5.46511">
        <ele>977</ele>
        <time>2021-08-30T15:54:44Z</time>
      </trkpt>
      <trkpt lat="44.43045" lon="5.46516">
        <ele>976.59997558594</ele>
        <time>2021-08-30T15:54:45Z</time>
      </trkpt>
      <trkpt lat="44.4305" lon="5.46535">
        <ele>975.59997558594</ele>
        <time>2021-08-30T15:54:48Z</time>
      </trkpt>
      <trkpt lat="44.43047" lon="5.46561">
        <ele>974.40002441406</ele>
        <time>2021-08-30T15:54:52Z</time>
      </trkpt>
      <trkpt lat="44.4304" lon="5.46572">
        <ele>973.79998779297</ele>
        <time>2021-08-30T15:54:54Z</time>
      </trkpt>
      <trkpt lat="44.43032" lon="5.46583">
        <ele>973</ele>
        <time>2021-08-30T15:54:56Z</time>
      </trkpt>
      <trkpt lat="44.43028" lon="5.46589">
        <ele>972.59997558594</ele>
        <time>2021-08-30T15:54:57Z</time>
      </trkpt>
      <trkpt lat="44.43021" lon="5.46601">
        <ele>972</ele>
        <time>2021-08-30T15:54:59Z</time>
      </trkpt>
      <trkpt lat="44.43011" lon="5.46622">
        <ele>971</ele>
        <time>2021-08-30T15:55:02Z</time>
      </trkpt>
      <trkpt lat="44.43008" lon="5.46629">
        <ele>970.59997558594</ele>
        <time>2021-08-30T15:55:03Z</time>
      </trkpt>
      <trkpt lat="44.43" lon="5.46644">
        <ele>970</ele>
        <time>2021-08-30T15:55:05Z</time>
      </trkpt>
      <trkpt lat="44.42996" lon="5.46651">
        <ele>969.79998779297</ele>
        <time>2021-08-30T15:55:06Z</time>
      </trkpt>
      <trkpt lat="44.42986" lon="5.46662">
        <ele>969</ele>
        <time>2021-08-30T15:55:08Z</time>
      </trkpt>
      <trkpt lat="44.42981" lon="5.46667">
        <ele>968.59997558594</ele>
        <time>2021-08-30T15:55:09Z</time>
      </trkpt>
      <trkpt lat="44.42976" lon="5.46672">
        <ele>968</ele>
        <time>2021-08-30T15:55:10Z</time>
      </trkpt>
      <trkpt lat="44.42966" lon="5.46681">
        <ele>967.59997558594</ele>
        <time>2021-08-30T15:55:12Z</time>
      </trkpt>
      <trkpt lat="44.42952" lon="5.46695">
        <ele>967.20001220703</ele>
        <time>2021-08-30T15:55:15Z</time>
      </trkpt>
      <trkpt lat="44.42931" lon="5.46728">
        <ele>966.59997558594</ele>
        <time>2021-08-30T15:55:20Z</time>
      </trkpt>
      <trkpt lat="44.42927" lon="5.46734">
        <ele>966.20001220703</ele>
        <time>2021-08-30T15:55:21Z</time>
      </trkpt>
      <trkpt lat="44.42923" lon="5.46741">
        <ele>966</ele>
        <time>2021-08-30T15:55:22Z</time>
      </trkpt>
      <trkpt lat="44.4292" lon="5.46756">
        <ele>965.40002441406</ele>
        <time>2021-08-30T15:55:24Z</time>
      </trkpt>
      <trkpt lat="44.4292" lon="5.46764">
        <ele>965.20001220703</ele>
        <time>2021-08-30T15:55:25Z</time>
      </trkpt>
      <trkpt lat="44.42929" lon="5.46784">
        <ele>964.40002441406</ele>
        <time>2021-08-30T15:55:28Z</time>
      </trkpt>
      <trkpt lat="44.42932" lon="5.46789">
        <ele>964.20001220703</ele>
        <time>2021-08-30T15:55:29Z</time>
      </trkpt>
      <trkpt lat="44.42947" lon="5.46816">
        <ele>963.40002441406</ele>
        <time>2021-08-30T15:55:34Z</time>
      </trkpt>
      <trkpt lat="44.42954" lon="5.46826">
        <ele>963.20001220703</ele>
        <time>2021-08-30T15:55:36Z</time>
      </trkpt>
      <trkpt lat="44.42964" lon="5.46833">
        <ele>962.79998779297</ele>
        <time>2021-08-30T15:55:38Z</time>
      </trkpt>
      <trkpt lat="44.42978" lon="5.46841">
        <ele>962</ele>
        <time>2021-08-30T15:55:41Z</time>
      </trkpt>
      <trkpt lat="44.42991" lon="5.46848">
        <ele>961.20001220703</ele>
        <time>2021-08-30T15:55:44Z</time>
      </trkpt>
      <trkpt lat="44.42994" lon="5.46849">
        <ele>961</ele>
        <time>2021-08-30T15:55:45Z</time>
      </trkpt>
      <trkpt lat="44.43001" lon="5.4685">
        <ele>960</ele>
        <time>2021-08-30T15:55:48Z</time>
      </trkpt>
      <trkpt lat="44.43006" lon="5.4685">
        <ele>959.20001220703</ele>
        <time>2021-08-30T15:55:50Z</time>
      </trkpt>
      <trkpt lat="44.43008" lon="5.4685">
        <ele>958.79998779297</ele>
        <time>2021-08-30T15:55:51Z</time>
      </trkpt>
      <trkpt lat="44.43015" lon="5.46846">
        <ele>957.79998779297</ele>
        <time>2021-08-30T15:55:56Z</time>
      </trkpt>
      <trkpt lat="44.43016" lon="5.46844">
        <ele>957.59997558594</ele>
        <time>2021-08-30T15:55:57Z</time>
      </trkpt>
      <trkpt lat="44.43014" lon="5.46841">
        <ele>957</ele>
        <time>2021-08-30T15:56:00Z</time>
      </trkpt>
      <trkpt lat="44.43004" lon="5.46846">
        <ele>957.20001220703</ele>
        <time>2021-08-30T15:56:06Z</time>
      </trkpt>
      <trkpt lat="44.42992" lon="5.46845">
        <ele>957.59997558594</ele>
        <time>2021-08-30T15:56:12Z</time>
      </trkpt>
      <trkpt lat="44.42989" lon="5.46845">
        <ele>957.79998779297</ele>
        <time>2021-08-30T15:56:14Z</time>
      </trkpt>
      <trkpt lat="44.42989" lon="5.46849">
        <ele>958.20001220703</ele>
        <time>2021-08-30T15:56:16Z</time>
      </trkpt>
      <trkpt lat="44.42991" lon="5.46853">
        <ele>958.59997558594</ele>
        <time>2021-08-30T15:56:18Z</time>
      </trkpt>
      <trkpt lat="44.42994" lon="5.46857">
        <ele>958.79998779297</ele>
        <time>2021-08-30T15:56:20Z</time>
      </trkpt>
      <trkpt lat="44.42996" lon="5.4686">
        <ele>959.20001220703</ele>
        <time>2021-08-30T15:56:22Z</time>
      </trkpt>
      <trkpt lat="44.42999" lon="5.46867">
        <ele>959.79998779297</ele>
        <time>2021-08-30T15:56:26Z</time>
      </trkpt>
      <trkpt lat="44.43" lon="5.4687">
        <ele>960.40002441406</ele>
        <time>2021-08-30T15:56:28Z</time>
      </trkpt>
      <trkpt lat="44.43001" lon="5.46871">
        <ele>960.59997558594</ele>
        <time>2021-08-30T15:56:29Z</time>
      </trkpt>
      <trkpt lat="44.43003" lon="5.46871">
        <ele>961</ele>
        <time>2021-08-30T15:56:30Z</time>
      </trkpt>
      <trkpt lat="44.43023" lon="5.46855">
        <ele>957.79998779297</ele>
        <time>2021-08-30T16:34:41Z</time>
      </trkpt>
      <trkpt lat="44.43019" lon="5.46858">
        <ele>993.59997558594</ele>
        <time>2021-08-31T06:43:33Z</time>
      </trkpt>
      <trkpt lat="44.43013" lon="5.46865">
        <ele>994</ele>
        <time>2021-08-31T06:43:40Z</time>
      </trkpt>
      <trkpt lat="44.43006" lon="5.46869">
        <ele>994.20001220703</ele>
        <time>2021-08-31T06:43:48Z</time>
      </trkpt>
      <trkpt lat="44.43002" lon="5.46867">
        <ele>994.59997558594</ele>
        <time>2021-08-31T06:43:52Z</time>
      </trkpt>
      <trkpt lat="44.43001" lon="5.46866">
        <ele>994.79998779297</ele>
        <time>2021-08-31T06:43:53Z</time>
      </trkpt>
      <trkpt lat="44.43" lon="5.46863">
        <ele>994.79998779297</ele>
        <time>2021-08-31T06:43:55Z</time>
      </trkpt>
      <trkpt lat="44.42996" lon="5.46856">
        <ele>992.59997558594</ele>
        <time>2021-08-31T06:44:06Z</time>
      </trkpt>
      <trkpt lat="44.42993" lon="5.46852">
        <ele>992.59997558594</ele>
        <time>2021-08-31T06:44:09Z</time>
      </trkpt>
      <trkpt lat="44.42991" lon="5.46849">
        <ele>992.40002441406</ele>
        <time>2021-08-31T06:44:11Z</time>
      </trkpt>
      <trkpt lat="44.42994" lon="5.46846">
        <ele>992</ele>
        <time>2021-08-31T06:44:14Z</time>
      </trkpt>
      <trkpt lat="44.43002" lon="5.46848">
        <ele>991.79998779297</ele>
        <time>2021-08-31T06:44:17Z</time>
      </trkpt>
      <trkpt lat="44.43007" lon="5.46847">
        <ele>991.40002441406</ele>
        <time>2021-08-31T06:44:19Z</time>
      </trkpt>
      <trkpt lat="44.43023" lon="5.46835">
        <ele>990.40002441406</ele>
        <time>2021-08-31T06:44:24Z</time>
      </trkpt>
      <trkpt lat="44.43035" lon="5.46821">
        <ele>989.20001220703</ele>
        <time>2021-08-31T06:44:28Z</time>
      </trkpt>
      <trkpt lat="44.43043" lon="5.46814">
        <ele>989</ele>
        <time>2021-08-31T06:44:30Z</time>
      </trkpt>
      <trkpt lat="44.43047" lon="5.46811">
        <ele>988.79998779297</ele>
        <time>2021-08-31T06:44:31Z</time>
      </trkpt>
      <trkpt lat="44.43056" lon="5.46809">
        <ele>988</ele>
        <time>2021-08-31T06:44:33Z</time>
      </trkpt>
      <trkpt lat="44.43062" lon="5.46808">
        <ele>987.59997558594</ele>
        <time>2021-08-31T06:44:34Z</time>
      </trkpt>
      <trkpt lat="44.43073" lon="5.46807">
        <ele>986.79998779297</ele>
        <time>2021-08-31T06:44:36Z</time>
      </trkpt>
      <trkpt lat="44.43092" lon="5.46806">
        <ele>985.40002441406</ele>
        <time>2021-08-31T06:44:39Z</time>
      </trkpt>
      <trkpt lat="44.4311" lon="5.46804">
        <ele>984.20001220703</ele>
        <time>2021-08-31T06:44:42Z</time>
      </trkpt>
      <trkpt lat="44.43128" lon="5.46803">
        <ele>983.20001220703</ele>
        <time>2021-08-31T06:44:45Z</time>
      </trkpt>
      <trkpt lat="44.4315" lon="5.46805">
        <ele>982</ele>
        <time>2021-08-31T06:44:49Z</time>
      </trkpt>
      <trkpt lat="44.43156" lon="5.46805">
        <ele>981.59997558594</ele>
        <time>2021-08-31T06:44:50Z</time>
      </trkpt>
      <trkpt lat="44.43165" lon="5.46805">
        <ele>980.40002441406</ele>
        <time>2021-08-31T06:44:52Z</time>
      </trkpt>
      <trkpt lat="44.43169" lon="5.46804">
        <ele>980</ele>
        <time>2021-08-31T06:44:53Z</time>
      </trkpt>
      <trkpt lat="44.43176" lon="5.46803">
        <ele>980</ele>
        <time>2021-08-31T06:44:55Z</time>
      </trkpt>
      <trkpt lat="44.43183" lon="5.46802">
        <ele>979.79998779297</ele>
        <time>2021-08-31T06:44:57Z</time>
      </trkpt>
      <trkpt lat="44.43195" lon="5.46806">
        <ele>980</ele>
        <time>2021-08-31T06:45:01Z</time>
      </trkpt>
      <trkpt lat="44.43202" lon="5.46814">
        <ele>979.79998779297</ele>
        <time>2021-08-31T06:45:05Z</time>
      </trkpt>
      <trkpt lat="44.43204" lon="5.46815">
        <ele>979.40002441406</ele>
        <time>2021-08-31T06:45:07Z</time>
      </trkpt>
      <trkpt lat="44.43206" lon="5.46816">
        <ele>979.20001220703</ele>
        <time>2021-08-31T06:45:08Z</time>
      </trkpt>
      <trkpt lat="44.4321" lon="5.46819">
        <ele>979</ele>
        <time>2021-08-31T06:45:10Z</time>
      </trkpt>
      <trkpt lat="44.43223" lon="5.46829">
        <ele>978.59997558594</ele>
        <time>2021-08-31T06:45:14Z</time>
      </trkpt>
      <trkpt lat="44.43227" lon="5.4683">
        <ele>978.40002441406</ele>
        <time>2021-08-31T06:45:15Z</time>
      </trkpt>
      <trkpt lat="44.43231" lon="5.4683">
        <ele>978.20001220703</ele>
        <time>2021-08-31T06:45:16Z</time>
      </trkpt>
      <trkpt lat="44.43244" lon="5.46823">
        <ele>977.59997558594</ele>
        <time>2021-08-31T06:45:19Z</time>
      </trkpt>
      <trkpt lat="44.43252" lon="5.46813">
        <ele>977</ele>
        <time>2021-08-31T06:45:21Z</time>
      </trkpt>
      <trkpt lat="44.4326" lon="5.468">
        <ele>976.40002441406</ele>
        <time>2021-08-31T06:45:23Z</time>
      </trkpt>
      <trkpt lat="44.43265" lon="5.46794">
        <ele>975.79998779297</ele>
        <time>2021-08-31T06:45:24Z</time>
      </trkpt>
      <trkpt lat="44.4328" lon="5.46774">
        <ele>974.40002441406</ele>
        <time>2021-08-31T06:45:27Z</time>
      </trkpt>
      <trkpt lat="44.43283" lon="5.46768">
        <ele>973.79998779297</ele>
        <time>2021-08-31T06:45:28Z</time>
      </trkpt>
      <trkpt lat="44.43286" lon="5.46761">
        <ele>973</ele>
        <time>2021-08-31T06:45:29Z</time>
      </trkpt>
      <trkpt lat="44.43291" lon="5.46747">
        <ele>971.59997558594</ele>
        <time>2021-08-31T06:45:31Z</time>
      </trkpt>
      <trkpt lat="44.43296" lon="5.46734">
        <ele>970</ele>
        <time>2021-08-31T06:45:33Z</time>
      </trkpt>
      <trkpt lat="44.43299" lon="5.46729">
        <ele>969.40002441406</ele>
        <time>2021-08-31T06:45:34Z</time>
      </trkpt>
      <trkpt lat="44.43303" lon="5.46723">
        <ele>968.79998779297</ele>
        <time>2021-08-31T06:45:35Z</time>
      </trkpt>
      <trkpt lat="44.43304" lon="5.46718">
        <ele>968.20001220703</ele>
        <time>2021-08-31T06:45:36Z</time>
      </trkpt>
      <trkpt lat="44.433" lon="5.4671">
        <ele>967.40002441406</ele>
        <time>2021-08-31T06:45:38Z</time>
      </trkpt>
      <trkpt lat="44.43292" lon="5.4671">
        <ele>966</ele>
        <time>2021-08-31T06:45:40Z</time>
      </trkpt>
      <trkpt lat="44.43289" lon="5.46714">
        <ele>965.79998779297</ele>
        <time>2021-08-31T06:45:41Z</time>
      </trkpt>
      <trkpt lat="44.43284" lon="5.46724">
        <ele>965</ele>
        <time>2021-08-31T06:45:43Z</time>
      </trkpt>
      <trkpt lat="44.43281" lon="5.46729">
        <ele>964.59997558594</ele>
        <time>2021-08-31T06:45:44Z</time>
      </trkpt>
      <trkpt lat="44.43277" lon="5.46734">
        <ele>964</ele>
        <time>2021-08-31T06:45:45Z</time>
      </trkpt>
      <trkpt lat="44.43273" lon="5.46739">
        <ele>963.59997558594</ele>
        <time>2021-08-31T06:45:46Z</time>
      </trkpt>
      <trkpt lat="44.43262" lon="5.46748">
        <ele>963</ele>
        <time>2021-08-31T06:45:48Z</time>
      </trkpt>
      <trkpt lat="44.43257" lon="5.46752">
        <ele>962.59997558594</ele>
        <time>2021-08-31T06:45:49Z</time>
      </trkpt>
      <trkpt lat="44.43238" lon="5.46752">
        <ele>961.79998779297</ele>
        <time>2021-08-31T06:45:52Z</time>
      </trkpt>
      <trkpt lat="44.43233" lon="5.46749">
        <ele>961.40002441406</ele>
        <time>2021-08-31T06:45:53Z</time>
      </trkpt>
      <trkpt lat="44.43229" lon="5.46747">
        <ele>961.20001220703</ele>
        <time>2021-08-31T06:45:54Z</time>
      </trkpt>
      <trkpt lat="44.43223" lon="5.46741">
        <ele>960.40002441406</ele>
        <time>2021-08-31T06:45:56Z</time>
      </trkpt>
      <trkpt lat="44.43223" lon="5.46735">
        <ele>960</ele>
        <time>2021-08-31T06:45:57Z</time>
      </trkpt>
      <trkpt lat="44.43226" lon="5.4673">
        <ele>959.59997558594</ele>
        <time>2021-08-31T06:45:58Z</time>
      </trkpt>
      <trkpt lat="44.43235" lon="5.46726">
        <ele>959</ele>
        <time>2021-08-31T06:46:00Z</time>
      </trkpt>
      <trkpt lat="44.43241" lon="5.46727">
        <ele>958.59997558594</ele>
        <time>2021-08-31T06:46:01Z</time>
      </trkpt>
      <trkpt lat="44.43247" lon="5.46727">
        <ele>958.20001220703</ele>
        <time>2021-08-31T06:46:02Z</time>
      </trkpt>
      <trkpt lat="44.43254" lon="5.46724">
        <ele>957.79998779297</ele>
        <time>2021-08-31T06:46:03Z</time>
      </trkpt>
      <trkpt lat="44.4326" lon="5.46718">
        <ele>957</ele>
        <time>2021-08-31T06:46:04Z</time>
      </trkpt>
      <trkpt lat="44.43265" lon="5.46711">
        <ele>956.40002441406</ele>
        <time>2021-08-31T06:46:05Z</time>
      </trkpt>
      <trkpt lat="44.43273" lon="5.46693">
        <ele>955.59997558594</ele>
        <time>2021-08-31T06:46:07Z</time>
      </trkpt>
      <trkpt lat="44.43277" lon="5.46685">
        <ele>955.20001220703</ele>
        <time>2021-08-31T06:46:08Z</time>
      </trkpt>
      <trkpt lat="44.43288" lon="5.46673">
        <ele>954.20001220703</ele>
        <time>2021-08-31T06:46:10Z</time>
      </trkpt>
      <trkpt lat="44.43295" lon="5.4667">
        <ele>953.59997558594</ele>
        <time>2021-08-31T06:46:11Z</time>
      </trkpt>
      <trkpt lat="44.43308" lon="5.4667">
        <ele>952.20001220703</ele>
        <time>2021-08-31T06:46:13Z</time>
      </trkpt>
      <trkpt lat="44.43322" lon="5.46679">
        <ele>951</ele>
        <time>2021-08-31T06:46:15Z</time>
      </trkpt>
      <trkpt lat="44.43329" lon="5.46684">
        <ele>950.20001220703</ele>
        <time>2021-08-31T06:46:16Z</time>
      </trkpt>
      <trkpt lat="44.43335" lon="5.46687">
        <ele>949.59997558594</ele>
        <time>2021-08-31T06:46:17Z</time>
      </trkpt>
      <trkpt lat="44.4335" lon="5.46688">
        <ele>948.20001220703</ele>
        <time>2021-08-31T06:46:19Z</time>
      </trkpt>
      <trkpt lat="44.43366" lon="5.46681">
        <ele>946.79998779297</ele>
        <time>2021-08-31T06:46:21Z</time>
      </trkpt>
      <trkpt lat="44.43374" lon="5.46677">
        <ele>946.20001220703</ele>
        <time>2021-08-31T06:46:22Z</time>
      </trkpt>
      <trkpt lat="44.43382" lon="5.46675">
        <ele>945.40002441406</ele>
        <time>2021-08-31T06:46:23Z</time>
      </trkpt>
      <trkpt lat="44.43397" lon="5.4668">
        <ele>944</ele>
        <time>2021-08-31T06:46:25Z</time>
      </trkpt>
      <trkpt lat="44.43411" lon="5.4669">
        <ele>942.40002441406</ele>
        <time>2021-08-31T06:46:27Z</time>
      </trkpt>
      <trkpt lat="44.43419" lon="5.46691">
        <ele>941</ele>
        <time>2021-08-31T06:46:28Z</time>
      </trkpt>
      <trkpt lat="44.43427" lon="5.46691">
        <ele>940.40002441406</ele>
        <time>2021-08-31T06:46:29Z</time>
      </trkpt>
      <trkpt lat="44.43434" lon="5.46689">
        <ele>939.79998779297</ele>
        <time>2021-08-31T06:46:30Z</time>
      </trkpt>
      <trkpt lat="44.43442" lon="5.46687">
        <ele>939</ele>
        <time>2021-08-31T06:46:31Z</time>
      </trkpt>
      <trkpt lat="44.4345" lon="5.46685">
        <ele>938.40002441406</ele>
        <time>2021-08-31T06:46:32Z</time>
      </trkpt>
      <trkpt lat="44.43458" lon="5.46681">
        <ele>937.59997558594</ele>
        <time>2021-08-31T06:46:33Z</time>
      </trkpt>
      <trkpt lat="44.43465" lon="5.46675">
        <ele>936.79998779297</ele>
        <time>2021-08-31T06:46:34Z</time>
      </trkpt>
      <trkpt lat="44.4348" lon="5.46664">
        <ele>935.40002441406</ele>
        <time>2021-08-31T06:46:36Z</time>
      </trkpt>
      <trkpt lat="44.43487" lon="5.4666">
        <ele>934.79998779297</ele>
        <time>2021-08-31T06:46:37Z</time>
      </trkpt>
      <trkpt lat="44.43494" lon="5.46658">
        <ele>934.20001220703</ele>
        <time>2021-08-31T06:46:38Z</time>
      </trkpt>
      <trkpt lat="44.43511" lon="5.46656">
        <ele>933.20001220703</ele>
        <time>2021-08-31T06:46:40Z</time>
      </trkpt>
      <trkpt lat="44.4352" lon="5.46656">
        <ele>932.59997558594</ele>
        <time>2021-08-31T06:46:41Z</time>
      </trkpt>
      <trkpt lat="44.43529" lon="5.46655">
        <ele>932</ele>
        <time>2021-08-31T06:46:42Z</time>
      </trkpt>
      <trkpt lat="44.43543" lon="5.46655">
        <ele>930.79998779297</ele>
        <time>2021-08-31T06:46:44Z</time>
      </trkpt>
      <trkpt lat="44.43551" lon="5.46663">
        <ele>929.40002441406</ele>
        <time>2021-08-31T06:46:46Z</time>
      </trkpt>
      <trkpt lat="44.43554" lon="5.4667">
        <ele>928.79998779297</ele>
        <time>2021-08-31T06:46:47Z</time>
      </trkpt>
      <trkpt lat="44.43556" lon="5.46679">
        <ele>928</ele>
        <time>2021-08-31T06:46:48Z</time>
      </trkpt>
      <trkpt lat="44.43554" lon="5.46696">
        <ele>926.40002441406</ele>
        <time>2021-08-31T06:46:50Z</time>
      </trkpt>
      <trkpt lat="44.43549" lon="5.46711">
        <ele>925</ele>
        <time>2021-08-31T06:46:52Z</time>
      </trkpt>
      <trkpt lat="44.43545" lon="5.46726">
        <ele>924.40002441406</ele>
        <time>2021-08-31T06:46:54Z</time>
      </trkpt>
      <trkpt lat="44.43539" lon="5.46746">
        <ele>923.79998779297</ele>
        <time>2021-08-31T06:46:57Z</time>
      </trkpt>
      <trkpt lat="44.43532" lon="5.46767">
        <ele>923.20001220703</ele>
        <time>2021-08-31T06:47:00Z</time>
      </trkpt>
      <trkpt lat="44.4353" lon="5.46791">
        <ele>922.59997558594</ele>
        <time>2021-08-31T06:47:03Z</time>
      </trkpt>
      <trkpt lat="44.4353" lon="5.46809">
        <ele>922</ele>
        <time>2021-08-31T06:47:05Z</time>
      </trkpt>
      <trkpt lat="44.43528" lon="5.46828">
        <ele>921.40002441406</ele>
        <time>2021-08-31T06:47:07Z</time>
      </trkpt>
      <trkpt lat="44.43529" lon="5.46834">
        <ele>921.20001220703</ele>
        <time>2021-08-31T06:47:08Z</time>
      </trkpt>
      <trkpt lat="44.43533" lon="5.46838">
        <ele>920.79998779297</ele>
        <time>2021-08-31T06:47:09Z</time>
      </trkpt>
      <trkpt lat="44.43544" lon="5.46837">
        <ele>920</ele>
        <time>2021-08-31T06:47:11Z</time>
      </trkpt>
      <trkpt lat="44.43562" lon="5.46821">
        <ele>919</ele>
        <time>2021-08-31T06:47:14Z</time>
      </trkpt>
      <trkpt lat="44.43568" lon="5.46814">
        <ele>918.59997558594</ele>
        <time>2021-08-31T06:47:15Z</time>
      </trkpt>
      <trkpt lat="44.43574" lon="5.46805">
        <ele>917.59997558594</ele>
        <time>2021-08-31T06:47:16Z</time>
      </trkpt>
      <trkpt lat="44.4358" lon="5.46795">
        <ele>917</ele>
        <time>2021-08-31T06:47:17Z</time>
      </trkpt>
      <trkpt lat="44.43585" lon="5.46785">
        <ele>916.59997558594</ele>
        <time>2021-08-31T06:47:18Z</time>
      </trkpt>
      <trkpt lat="44.43593" lon="5.46764">
        <ele>915.20001220703</ele>
        <time>2021-08-31T06:47:20Z</time>
      </trkpt>
      <trkpt lat="44.43598" lon="5.46752">
        <ele>914.40002441406</ele>
        <time>2021-08-31T06:47:21Z</time>
      </trkpt>
      <trkpt lat="44.43603" lon="5.46742">
        <ele>913.59997558594</ele>
        <time>2021-08-31T06:47:22Z</time>
      </trkpt>
      <trkpt lat="44.43609" lon="5.46731">
        <ele>912.79998779297</ele>
        <time>2021-08-31T06:47:23Z</time>
      </trkpt>
      <trkpt lat="44.43617" lon="5.46721">
        <ele>911.79998779297</ele>
        <time>2021-08-31T06:47:24Z</time>
      </trkpt>
      <trkpt lat="44.43624" lon="5.4671">
        <ele>911</ele>
        <time>2021-08-31T06:47:25Z</time>
      </trkpt>
      <trkpt lat="44.43631" lon="5.46701">
        <ele>910.20001220703</ele>
        <time>2021-08-31T06:47:26Z</time>
      </trkpt>
      <trkpt lat="44.43643" lon="5.46682">
        <ele>908.59997558594</ele>
        <time>2021-08-31T06:47:28Z</time>
      </trkpt>
      <trkpt lat="44.43648" lon="5.46671">
        <ele>907.59997558594</ele>
        <time>2021-08-31T06:47:29Z</time>
      </trkpt>
      <trkpt lat="44.43653" lon="5.4666">
        <ele>906.59997558594</ele>
        <time>2021-08-31T06:47:30Z</time>
      </trkpt>
      <trkpt lat="44.43658" lon="5.46651">
        <ele>905.59997558594</ele>
        <time>2021-08-31T06:47:31Z</time>
      </trkpt>
      <trkpt lat="44.43665" lon="5.46643">
        <ele>904.59997558594</ele>
        <time>2021-08-31T06:47:32Z</time>
      </trkpt>
      <trkpt lat="44.43673" lon="5.46636">
        <ele>903.79998779297</ele>
        <time>2021-08-31T06:47:33Z</time>
      </trkpt>
      <trkpt lat="44.43687" lon="5.4662">
        <ele>902.20001220703</ele>
        <time>2021-08-31T06:47:35Z</time>
      </trkpt>
      <trkpt lat="44.43703" lon="5.46603">
        <ele>900.40002441406</ele>
        <time>2021-08-31T06:47:37Z</time>
      </trkpt>
      <trkpt lat="44.43711" lon="5.46594">
        <ele>899.40002441406</ele>
        <time>2021-08-31T06:47:38Z</time>
      </trkpt>
      <trkpt lat="44.43719" lon="5.46585">
        <ele>898.40002441406</ele>
        <time>2021-08-31T06:47:39Z</time>
      </trkpt>
      <trkpt lat="44.43727" lon="5.46574">
        <ele>896.59997558594</ele>
        <time>2021-08-31T06:47:40Z</time>
      </trkpt>
      <trkpt lat="44.43741" lon="5.46558">
        <ele>894.79998779297</ele>
        <time>2021-08-31T06:47:42Z</time>
      </trkpt>
      <trkpt lat="44.43748" lon="5.46552">
        <ele>893.79998779297</ele>
        <time>2021-08-31T06:47:43Z</time>
      </trkpt>
      <trkpt lat="44.43756" lon="5.46549">
        <ele>893</ele>
        <time>2021-08-31T06:47:44Z</time>
      </trkpt>
      <trkpt lat="44.43764" lon="5.4655">
        <ele>892</ele>
        <time>2021-08-31T06:47:45Z</time>
      </trkpt>
      <trkpt lat="44.43773" lon="5.46553">
        <ele>890.79998779297</ele>
        <time>2021-08-31T06:47:46Z</time>
      </trkpt>
      <trkpt lat="44.43782" lon="5.46557">
        <ele>890</ele>
        <time>2021-08-31T06:47:47Z</time>
      </trkpt>
      <trkpt lat="44.43791" lon="5.46559">
        <ele>889.20001220703</ele>
        <time>2021-08-31T06:47:48Z</time>
      </trkpt>
      <trkpt lat="44.43799" lon="5.46559">
        <ele>888.40002441406</ele>
        <time>2021-08-31T06:47:49Z</time>
      </trkpt>
      <trkpt lat="44.43807" lon="5.46554">
        <ele>887.59997558594</ele>
        <time>2021-08-31T06:47:50Z</time>
      </trkpt>
      <trkpt lat="44.43821" lon="5.46541">
        <ele>886</ele>
        <time>2021-08-31T06:47:52Z</time>
      </trkpt>
      <trkpt lat="44.43829" lon="5.46534">
        <ele>885</ele>
        <time>2021-08-31T06:47:53Z</time>
      </trkpt>
      <trkpt lat="44.43838" lon="5.46527">
        <ele>884.20001220703</ele>
        <time>2021-08-31T06:47:54Z</time>
      </trkpt>
      <trkpt lat="44.43856" lon="5.46517">
        <ele>882.59997558594</ele>
        <time>2021-08-31T06:47:56Z</time>
      </trkpt>
      <trkpt lat="44.43863" lon="5.46515">
        <ele>882</ele>
        <time>2021-08-31T06:47:57Z</time>
      </trkpt>
      <trkpt lat="44.43872" lon="5.46513">
        <ele>881.20001220703</ele>
        <time>2021-08-31T06:47:58Z</time>
      </trkpt>
      <trkpt lat="44.4389" lon="5.46504">
        <ele>879.40002441406</ele>
        <time>2021-08-31T06:48:00Z</time>
      </trkpt>
      <trkpt lat="44.43899" lon="5.46499">
        <ele>878.59997558594</ele>
        <time>2021-08-31T06:48:01Z</time>
      </trkpt>
      <trkpt lat="44.43909" lon="5.46494">
        <ele>877.79998779297</ele>
        <time>2021-08-31T06:48:02Z</time>
      </trkpt>
      <trkpt lat="44.43918" lon="5.46487">
        <ele>877</ele>
        <time>2021-08-31T06:48:03Z</time>
      </trkpt>
      <trkpt lat="44.43926" lon="5.46477">
        <ele>875.59997558594</ele>
        <time>2021-08-31T06:48:04Z</time>
      </trkpt>
      <trkpt lat="44.43934" lon="5.46467">
        <ele>874.79998779297</ele>
        <time>2021-08-31T06:48:05Z</time>
      </trkpt>
      <trkpt lat="44.43941" lon="5.4646">
        <ele>874</ele>
        <time>2021-08-31T06:48:06Z</time>
      </trkpt>
      <trkpt lat="44.43957" lon="5.46451">
        <ele>872.40002441406</ele>
        <time>2021-08-31T06:48:08Z</time>
      </trkpt>
      <trkpt lat="44.43966" lon="5.46448">
        <ele>871.20001220703</ele>
        <time>2021-08-31T06:48:09Z</time>
      </trkpt>
      <trkpt lat="44.43976" lon="5.46444">
        <ele>870.20001220703</ele>
        <time>2021-08-31T06:48:10Z</time>
      </trkpt>
      <trkpt lat="44.43984" lon="5.46436">
        <ele>869.20001220703</ele>
        <time>2021-08-31T06:48:11Z</time>
      </trkpt>
      <trkpt lat="44.43994" lon="5.4643">
        <ele>868.20001220703</ele>
        <time>2021-08-31T06:48:12Z</time>
      </trkpt>
      <trkpt lat="44.44004" lon="5.46424">
        <ele>867.20001220703</ele>
        <time>2021-08-31T06:48:13Z</time>
      </trkpt>
      <trkpt lat="44.44023" lon="5.46416">
        <ele>865.59997558594</ele>
        <time>2021-08-31T06:48:15Z</time>
      </trkpt>
      <trkpt lat="44.44041" lon="5.46409">
        <ele>863.79998779297</ele>
        <time>2021-08-31T06:48:17Z</time>
      </trkpt>
      <trkpt lat="44.44059" lon="5.46404">
        <ele>862</ele>
        <time>2021-08-31T06:48:19Z</time>
      </trkpt>
      <trkpt lat="44.44067" lon="5.46404">
        <ele>861</ele>
        <time>2021-08-31T06:48:20Z</time>
      </trkpt>
      <trkpt lat="44.44077" lon="5.46419">
        <ele>859</ele>
        <time>2021-08-31T06:48:22Z</time>
      </trkpt>
      <trkpt lat="44.44085" lon="5.46439">
        <ele>857</ele>
        <time>2021-08-31T06:48:24Z</time>
      </trkpt>
      <trkpt lat="44.44089" lon="5.46445">
        <ele>856</ele>
        <time>2021-08-31T06:48:25Z</time>
      </trkpt>
      <trkpt lat="44.44097" lon="5.46447">
        <ele>854.20001220703</ele>
        <time>2021-08-31T06:48:27Z</time>
      </trkpt>
      <trkpt lat="44.44099" lon="5.46445">
        <ele>852.59997558594</ele>
        <time>2021-08-31T06:48:28Z</time>
      </trkpt>
      <trkpt lat="44.44105" lon="5.46433">
        <ele>851</ele>
        <time>2021-08-31T06:48:30Z</time>
      </trkpt>
      <trkpt lat="44.44108" lon="5.46426">
        <ele>850.40002441406</ele>
        <time>2021-08-31T06:48:31Z</time>
      </trkpt>
      <trkpt lat="44.44112" lon="5.46409">
        <ele>849.79998779297</ele>
        <time>2021-08-31T06:48:33Z</time>
      </trkpt>
      <trkpt lat="44.44114" lon="5.464">
        <ele>849.40002441406</ele>
        <time>2021-08-31T06:48:34Z</time>
      </trkpt>
      <trkpt lat="44.44118" lon="5.4638">
        <ele>848.79998779297</ele>
        <time>2021-08-31T06:48:36Z</time>
      </trkpt>
      <trkpt lat="44.44125" lon="5.46352">
        <ele>847.40002441406</ele>
        <time>2021-08-31T06:48:39Z</time>
      </trkpt>
      <trkpt lat="44.44132" lon="5.46339">
        <ele>846.20001220703</ele>
        <time>2021-08-31T06:48:41Z</time>
      </trkpt>
      <trkpt lat="44.44142" lon="5.46329">
        <ele>845</ele>
        <time>2021-08-31T06:48:43Z</time>
      </trkpt>
      <trkpt lat="44.4415" lon="5.46323">
        <ele>843.79998779297</ele>
        <time>2021-08-31T06:48:45Z</time>
      </trkpt>
      <trkpt lat="44.44156" lon="5.46319">
        <ele>842.79998779297</ele>
        <time>2021-08-31T06:48:47Z</time>
      </trkpt>
      <trkpt lat="44.44163" lon="5.46314">
        <ele>841.40002441406</ele>
        <time>2021-08-31T06:48:50Z</time>
      </trkpt>
      <trkpt lat="44.44166" lon="5.46313">
        <ele>839.40002441406</ele>
        <time>2021-08-31T06:49:34Z</time>
      </trkpt>
      <trkpt lat="44.44168" lon="5.46314">
        <ele>839.40002441406</ele>
        <time>2021-08-31T06:49:35Z</time>
      </trkpt>
      <trkpt lat="44.4418" lon="5.46317">
        <ele>839.20001220703</ele>
        <time>2021-08-31T06:49:39Z</time>
      </trkpt>
      <trkpt lat="44.44185" lon="5.46318">
        <ele>839</ele>
        <time>2021-08-31T06:49:40Z</time>
      </trkpt>
      <trkpt lat="44.4419" lon="5.46318">
        <ele>839</ele>
        <time>2021-08-31T06:49:41Z</time>
      </trkpt>
      <trkpt lat="44.44207" lon="5.46313">
        <ele>838.20001220703</ele>
        <time>2021-08-31T06:49:44Z</time>
      </trkpt>
      <trkpt lat="44.44213" lon="5.46307">
        <ele>838</ele>
        <time>2021-08-31T06:49:45Z</time>
      </trkpt>
      <trkpt lat="44.44225" lon="5.46292">
        <ele>837.20001220703</ele>
        <time>2021-08-31T06:49:47Z</time>
      </trkpt>
      <trkpt lat="44.4423" lon="5.46284">
        <ele>836.79998779297</ele>
        <time>2021-08-31T06:49:48Z</time>
      </trkpt>
      <trkpt lat="44.44236" lon="5.46275">
        <ele>836.40002441406</ele>
        <time>2021-08-31T06:49:49Z</time>
      </trkpt>
      <trkpt lat="44.44242" lon="5.46267">
        <ele>835.79998779297</ele>
        <time>2021-08-31T06:49:50Z</time>
      </trkpt>
      <trkpt lat="44.44248" lon="5.46261">
        <ele>835.40002441406</ele>
        <time>2021-08-31T06:49:51Z</time>
      </trkpt>
      <trkpt lat="44.44255" lon="5.46256">
        <ele>834.79998779297</ele>
        <time>2021-08-31T06:49:52Z</time>
      </trkpt>
      <trkpt lat="44.44271" lon="5.46247">
        <ele>833.59997558594</ele>
        <time>2021-08-31T06:49:54Z</time>
      </trkpt>
      <trkpt lat="44.44289" lon="5.4624">
        <ele>832.20001220703</ele>
        <time>2021-08-31T06:49:56Z</time>
      </trkpt>
      <trkpt lat="44.44308" lon="5.46231">
        <ele>830.59997558594</ele>
        <time>2021-08-31T06:49:58Z</time>
      </trkpt>
      <trkpt lat="44.44324" lon="5.46224">
        <ele>829.20001220703</ele>
        <time>2021-08-31T06:50:00Z</time>
      </trkpt>
      <trkpt lat="44.44339" lon="5.46217">
        <ele>827.59997558594</ele>
        <time>2021-08-31T06:50:02Z</time>
      </trkpt>
      <trkpt lat="44.44352" lon="5.46203">
        <ele>825.79998779297</ele>
        <time>2021-08-31T06:50:04Z</time>
      </trkpt>
      <trkpt lat="44.44359" lon="5.46195">
        <ele>824.59997558594</ele>
        <time>2021-08-31T06:50:05Z</time>
      </trkpt>
      <trkpt lat="44.44374" lon="5.46177">
        <ele>823.40002441406</ele>
        <time>2021-08-31T06:50:07Z</time>
      </trkpt>
      <trkpt lat="44.44392" lon="5.4616">
        <ele>822</ele>
        <time>2021-08-31T06:50:09Z</time>
      </trkpt>
      <trkpt lat="44.44406" lon="5.46149">
        <ele>820.40002441406</ele>
        <time>2021-08-31T06:50:11Z</time>
      </trkpt>
      <trkpt lat="44.44413" lon="5.46142">
        <ele>819.59997558594</ele>
        <time>2021-08-31T06:50:12Z</time>
      </trkpt>
      <trkpt lat="44.4442" lon="5.46136">
        <ele>818.59997558594</ele>
        <time>2021-08-31T06:50:13Z</time>
      </trkpt>
      <trkpt lat="44.44434" lon="5.46126">
        <ele>816.79998779297</ele>
        <time>2021-08-31T06:50:15Z</time>
      </trkpt>
      <trkpt lat="44.44439" lon="5.46122">
        <ele>816</ele>
        <time>2021-08-31T06:50:16Z</time>
      </trkpt>
      <trkpt lat="44.44444" lon="5.46117">
        <ele>815.20001220703</ele>
        <time>2021-08-31T06:50:17Z</time>
      </trkpt>
      <trkpt lat="44.44446" lon="5.46112">
        <ele>814.59997558594</ele>
        <time>2021-08-31T06:50:18Z</time>
      </trkpt>
      <trkpt lat="44.44446" lon="5.46106">
        <ele>814</ele>
        <time>2021-08-31T06:50:19Z</time>
      </trkpt>
      <trkpt lat="44.44435" lon="5.46098">
        <ele>812.79998779297</ele>
        <time>2021-08-31T06:50:21Z</time>
      </trkpt>
      <trkpt lat="44.44415" lon="5.461">
        <ele>811.40002441406</ele>
        <time>2021-08-31T06:50:24Z</time>
      </trkpt>
      <trkpt lat="44.44396" lon="5.46101">
        <ele>810.40002441406</ele>
        <time>2021-08-31T06:50:27Z</time>
      </trkpt>
      <trkpt lat="44.44383" lon="5.46102">
        <ele>809.59997558594</ele>
        <time>2021-08-31T06:50:29Z</time>
      </trkpt>
      <trkpt lat="44.44379" lon="5.46098">
        <ele>809.20001220703</ele>
        <time>2021-08-31T06:50:30Z</time>
      </trkpt>
      <trkpt lat="44.44377" lon="5.46092">
        <ele>809</ele>
        <time>2021-08-31T06:50:31Z</time>
      </trkpt>
      <trkpt lat="44.44382" lon="5.4608">
        <ele>808.40002441406</ele>
        <time>2021-08-31T06:50:33Z</time>
      </trkpt>
      <trkpt lat="44.44388" lon="5.46078">
        <ele>808.20001220703</ele>
        <time>2021-08-31T06:50:34Z</time>
      </trkpt>
      <trkpt lat="44.44397" lon="5.4608">
        <ele>807.40002441406</ele>
        <time>2021-08-31T06:50:36Z</time>
      </trkpt>
      <trkpt lat="44.44402" lon="5.46081">
        <ele>807</ele>
        <time>2021-08-31T06:50:37Z</time>
      </trkpt>
      <trkpt lat="44.44412" lon="5.46082">
        <ele>805.79998779297</ele>
        <time>2021-08-31T06:50:40Z</time>
      </trkpt>
      <trkpt lat="44.44415" lon="5.4608">
        <ele>805.20001220703</ele>
        <time>2021-08-31T06:50:41Z</time>
      </trkpt>
      <trkpt lat="44.44422" lon="5.46075">
        <ele>804.40002441406</ele>
        <time>2021-08-31T06:50:43Z</time>
      </trkpt>
      <trkpt lat="44.44426" lon="5.46072">
        <ele>804</ele>
        <time>2021-08-31T06:50:44Z</time>
      </trkpt>
      <trkpt lat="44.44435" lon="5.46066">
        <ele>803.59997558594</ele>
        <time>2021-08-31T06:50:46Z</time>
      </trkpt>
      <trkpt lat="44.4444" lon="5.46064">
        <ele>803.40002441406</ele>
        <time>2021-08-31T06:50:47Z</time>
      </trkpt>
      <trkpt lat="44.44455" lon="5.46064">
        <ele>802.59997558594</ele>
        <time>2021-08-31T06:50:50Z</time>
      </trkpt>
      <trkpt lat="44.44461" lon="5.46065">
        <ele>802.40002441406</ele>
        <time>2021-08-31T06:50:51Z</time>
      </trkpt>
      <trkpt lat="44.44472" lon="5.46066">
        <ele>801.40002441406</ele>
        <time>2021-08-31T06:50:53Z</time>
      </trkpt>
      <trkpt lat="44.44489" lon="5.46064">
        <ele>800.40002441406</ele>
        <time>2021-08-31T06:50:56Z</time>
      </trkpt>
      <trkpt lat="44.44494" lon="5.46062">
        <ele>800</ele>
        <time>2021-08-31T06:50:57Z</time>
      </trkpt>
      <trkpt lat="44.44509" lon="5.46051">
        <ele>798.59997558594</ele>
        <time>2021-08-31T06:51:00Z</time>
      </trkpt>
      <trkpt lat="44.44514" lon="5.46046">
        <ele>798.20001220703</ele>
        <time>2021-08-31T06:51:01Z</time>
      </trkpt>
      <trkpt lat="44.4452" lon="5.4604">
        <ele>798</ele>
        <time>2021-08-31T06:51:02Z</time>
      </trkpt>
      <trkpt lat="44.44526" lon="5.46035">
        <ele>797.79998779297</ele>
        <time>2021-08-31T06:51:03Z</time>
      </trkpt>
      <trkpt lat="44.44533" lon="5.4603">
        <ele>797.40002441406</ele>
        <time>2021-08-31T06:51:04Z</time>
      </trkpt>
      <trkpt lat="44.4454" lon="5.46024">
        <ele>797</ele>
        <time>2021-08-31T06:51:05Z</time>
      </trkpt>
      <trkpt lat="44.44547" lon="5.46017">
        <ele>796.59997558594</ele>
        <time>2021-08-31T06:51:06Z</time>
      </trkpt>
      <trkpt lat="44.44554" lon="5.46009">
        <ele>796.20001220703</ele>
        <time>2021-08-31T06:51:07Z</time>
      </trkpt>
      <trkpt lat="44.44568" lon="5.45991">
        <ele>795</ele>
        <time>2021-08-31T06:51:09Z</time>
      </trkpt>
      <trkpt lat="44.44582" lon="5.45974">
        <ele>793.40002441406</ele>
        <time>2021-08-31T06:51:11Z</time>
      </trkpt>
      <trkpt lat="44.44594" lon="5.45957">
        <ele>792</ele>
        <time>2021-08-31T06:51:13Z</time>
      </trkpt>
      <trkpt lat="44.446" lon="5.4595">
        <ele>791.40002441406</ele>
        <time>2021-08-31T06:51:14Z</time>
      </trkpt>
      <trkpt lat="44.44606" lon="5.45943">
        <ele>790.59997558594</ele>
        <time>2021-08-31T06:51:15Z</time>
      </trkpt>
      <trkpt lat="44.44617" lon="5.45928">
        <ele>788.59997558594</ele>
        <time>2021-08-31T06:51:17Z</time>
      </trkpt>
      <trkpt lat="44.44622" lon="5.45921">
        <ele>788</ele>
        <time>2021-08-31T06:51:18Z</time>
      </trkpt>
      <trkpt lat="44.44626" lon="5.45912">
        <ele>787.40002441406</ele>
        <time>2021-08-31T06:51:19Z</time>
      </trkpt>
      <trkpt lat="44.44631" lon="5.45902">
        <ele>786.79998779297</ele>
        <time>2021-08-31T06:51:20Z</time>
      </trkpt>
      <trkpt lat="44.44636" lon="5.45893">
        <ele>786.40002441406</ele>
        <time>2021-08-31T06:51:21Z</time>
      </trkpt>
      <trkpt lat="44.44655" lon="5.45868">
        <ele>785</ele>
        <time>2021-08-31T06:51:24Z</time>
      </trkpt>
      <trkpt lat="44.44663" lon="5.45862">
        <ele>784.40002441406</ele>
        <time>2021-08-31T06:51:25Z</time>
      </trkpt>
      <trkpt lat="44.44671" lon="5.45856">
        <ele>783.79998779297</ele>
        <time>2021-08-31T06:51:26Z</time>
      </trkpt>
      <trkpt lat="44.44688" lon="5.45849">
        <ele>782.79998779297</ele>
        <time>2021-08-31T06:51:28Z</time>
      </trkpt>
      <trkpt lat="44.44697" lon="5.45846">
        <ele>782.20001220703</ele>
        <time>2021-08-31T06:51:29Z</time>
      </trkpt>
      <trkpt lat="44.44705" lon="5.45845">
        <ele>781.59997558594</ele>
        <time>2021-08-31T06:51:30Z</time>
      </trkpt>
      <trkpt lat="44.44713" lon="5.45844">
        <ele>780.79998779297</ele>
        <time>2021-08-31T06:51:31Z</time>
      </trkpt>
      <trkpt lat="44.44722" lon="5.45842">
        <ele>780</ele>
        <time>2021-08-31T06:51:32Z</time>
      </trkpt>
      <trkpt lat="44.4473" lon="5.45837">
        <ele>779.20001220703</ele>
        <time>2021-08-31T06:51:33Z</time>
      </trkpt>
      <trkpt lat="44.44737" lon="5.45833">
        <ele>778.40002441406</ele>
        <time>2021-08-31T06:51:34Z</time>
      </trkpt>
      <trkpt lat="44.44752" lon="5.45824">
        <ele>776.79998779297</ele>
        <time>2021-08-31T06:51:36Z</time>
      </trkpt>
      <trkpt lat="44.44759" lon="5.45817">
        <ele>776</ele>
        <time>2021-08-31T06:51:37Z</time>
      </trkpt>
      <trkpt lat="44.44765" lon="5.45809">
        <ele>775.40002441406</ele>
        <time>2021-08-31T06:51:38Z</time>
      </trkpt>
      <trkpt lat="44.4478" lon="5.45795">
        <ele>774</ele>
        <time>2021-08-31T06:51:40Z</time>
      </trkpt>
      <trkpt lat="44.44787" lon="5.45787">
        <ele>772.79998779297</ele>
        <time>2021-08-31T06:51:41Z</time>
      </trkpt>
      <trkpt lat="44.44803" lon="5.45771">
        <ele>771.59997558594</ele>
        <time>2021-08-31T06:51:43Z</time>
      </trkpt>
      <trkpt lat="44.44819" lon="5.45756">
        <ele>770.40002441406</ele>
        <time>2021-08-31T06:51:45Z</time>
      </trkpt>
      <trkpt lat="44.44833" lon="5.45738">
        <ele>768.79998779297</ele>
        <time>2021-08-31T06:51:47Z</time>
      </trkpt>
      <trkpt lat="44.4484" lon="5.4573">
        <ele>768</ele>
        <time>2021-08-31T06:51:48Z</time>
      </trkpt>
      <trkpt lat="44.44848" lon="5.45723">
        <ele>767.20001220703</ele>
        <time>2021-08-31T06:51:49Z</time>
      </trkpt>
      <trkpt lat="44.44864" lon="5.45706">
        <ele>765.59997558594</ele>
        <time>2021-08-31T06:51:51Z</time>
      </trkpt>
      <trkpt lat="44.44878" lon="5.45688">
        <ele>763.79998779297</ele>
        <time>2021-08-31T06:51:53Z</time>
      </trkpt>
      <trkpt lat="44.44886" lon="5.45682">
        <ele>762.79998779297</ele>
        <time>2021-08-31T06:51:54Z</time>
      </trkpt>
      <trkpt lat="44.44893" lon="5.45678">
        <ele>761.79998779297</ele>
        <time>2021-08-31T06:51:55Z</time>
      </trkpt>
      <trkpt lat="44.44902" lon="5.45676">
        <ele>760.79998779297</ele>
        <time>2021-08-31T06:51:56Z</time>
      </trkpt>
      <trkpt lat="44.44909" lon="5.4567">
        <ele>759.79998779297</ele>
        <time>2021-08-31T06:51:57Z</time>
      </trkpt>
      <trkpt lat="44.44915" lon="5.45662">
        <ele>758.59997558594</ele>
        <time>2021-08-31T06:51:58Z</time>
      </trkpt>
      <trkpt lat="44.4492" lon="5.45653">
        <ele>757.59997558594</ele>
        <time>2021-08-31T06:51:59Z</time>
      </trkpt>
      <trkpt lat="44.44927" lon="5.45644">
        <ele>756.79998779297</ele>
        <time>2021-08-31T06:52:00Z</time>
      </trkpt>
      <trkpt lat="44.44943" lon="5.45629">
        <ele>755.20001220703</ele>
        <time>2021-08-31T06:52:02Z</time>
      </trkpt>
      <trkpt lat="44.44949" lon="5.4562">
        <ele>754.40002441406</ele>
        <time>2021-08-31T06:52:03Z</time>
      </trkpt>
      <trkpt lat="44.44955" lon="5.4561">
        <ele>753.79998779297</ele>
        <time>2021-08-31T06:52:04Z</time>
      </trkpt>
      <trkpt lat="44.44962" lon="5.45602">
        <ele>752.20001220703</ele>
        <time>2021-08-31T06:52:05Z</time>
      </trkpt>
      <trkpt lat="44.4497" lon="5.45595">
        <ele>751.20001220703</ele>
        <time>2021-08-31T06:52:06Z</time>
      </trkpt>
      <trkpt lat="44.44979" lon="5.45589">
        <ele>750.20001220703</ele>
        <time>2021-08-31T06:52:07Z</time>
      </trkpt>
      <trkpt lat="44.44997" lon="5.45577">
        <ele>748.40002441406</ele>
        <time>2021-08-31T06:52:09Z</time>
      </trkpt>
      <trkpt lat="44.45015" lon="5.45564">
        <ele>746.59997558594</ele>
        <time>2021-08-31T06:52:11Z</time>
      </trkpt>
      <trkpt lat="44.45034" lon="5.45549">
        <ele>745</ele>
        <time>2021-08-31T06:52:13Z</time>
      </trkpt>
      <trkpt lat="44.45051" lon="5.45531">
        <ele>743.59997558594</ele>
        <time>2021-08-31T06:52:15Z</time>
      </trkpt>
      <trkpt lat="44.45069" lon="5.45512">
        <ele>742.20001220703</ele>
        <time>2021-08-31T06:52:17Z</time>
      </trkpt>
      <trkpt lat="44.45087" lon="5.45495">
        <ele>740.40002441406</ele>
        <time>2021-08-31T06:52:19Z</time>
      </trkpt>
      <trkpt lat="44.45094" lon="5.45486">
        <ele>739.59997558594</ele>
        <time>2021-08-31T06:52:20Z</time>
      </trkpt>
      <trkpt lat="44.45099" lon="5.45478">
        <ele>738.59997558594</ele>
        <time>2021-08-31T06:52:21Z</time>
      </trkpt>
      <trkpt lat="44.45106" lon="5.45474">
        <ele>737.40002441406</ele>
        <time>2021-08-31T06:52:22Z</time>
      </trkpt>
      <trkpt lat="44.45113" lon="5.4547">
        <ele>736.40002441406</ele>
        <time>2021-08-31T06:52:23Z</time>
      </trkpt>
      <trkpt lat="44.4512" lon="5.45471">
        <ele>735.20001220703</ele>
        <time>2021-08-31T06:52:24Z</time>
      </trkpt>
      <trkpt lat="44.45127" lon="5.45473">
        <ele>734</ele>
        <time>2021-08-31T06:52:25Z</time>
      </trkpt>
      <trkpt lat="44.45135" lon="5.45477">
        <ele>732.79998779297</ele>
        <time>2021-08-31T06:52:26Z</time>
      </trkpt>
      <trkpt lat="44.45144" lon="5.4548">
        <ele>731.79998779297</ele>
        <time>2021-08-31T06:52:27Z</time>
      </trkpt>
      <trkpt lat="44.45161" lon="5.45485">
        <ele>729.20001220703</ele>
        <time>2021-08-31T06:52:29Z</time>
      </trkpt>
      <trkpt lat="44.45179" lon="5.45487">
        <ele>728</ele>
        <time>2021-08-31T06:52:31Z</time>
      </trkpt>
      <trkpt lat="44.45188" lon="5.45488">
        <ele>727.40002441406</ele>
        <time>2021-08-31T06:52:32Z</time>
      </trkpt>
      <trkpt lat="44.45197" lon="5.45488">
        <ele>726.79998779297</ele>
        <time>2021-08-31T06:52:33Z</time>
      </trkpt>
      <trkpt lat="44.45206" lon="5.45487">
        <ele>726.20001220703</ele>
        <time>2021-08-31T06:52:34Z</time>
      </trkpt>
      <trkpt lat="44.45214" lon="5.45484">
        <ele>725.59997558594</ele>
        <time>2021-08-31T06:52:35Z</time>
      </trkpt>
      <trkpt lat="44.45221" lon="5.45477">
        <ele>725.20001220703</ele>
        <time>2021-08-31T06:52:36Z</time>
      </trkpt>
      <trkpt lat="44.45227" lon="5.45467">
        <ele>724.59997558594</ele>
        <time>2021-08-31T06:52:37Z</time>
      </trkpt>
      <trkpt lat="44.45239" lon="5.45455">
        <ele>723.59997558594</ele>
        <time>2021-08-31T06:52:39Z</time>
      </trkpt>
      <trkpt lat="44.45254" lon="5.45453">
        <ele>722.59997558594</ele>
        <time>2021-08-31T06:52:41Z</time>
      </trkpt>
      <trkpt lat="44.45262" lon="5.45453">
        <ele>722</ele>
        <time>2021-08-31T06:52:42Z</time>
      </trkpt>
      <trkpt lat="44.45269" lon="5.45452">
        <ele>721.20001220703</ele>
        <time>2021-08-31T06:52:43Z</time>
      </trkpt>
      <trkpt lat="44.45285" lon="5.45462">
        <ele>719.79998779297</ele>
        <time>2021-08-31T06:52:45Z</time>
      </trkpt>
      <trkpt lat="44.45302" lon="5.45477">
        <ele>718.59997558594</ele>
        <time>2021-08-31T06:52:47Z</time>
      </trkpt>
      <trkpt lat="44.45311" lon="5.45481">
        <ele>717.79998779297</ele>
        <time>2021-08-31T06:52:48Z</time>
      </trkpt>
      <trkpt lat="44.45321" lon="5.45483">
        <ele>717</ele>
        <time>2021-08-31T06:52:49Z</time>
      </trkpt>
      <trkpt lat="44.45342" lon="5.45484">
        <ele>715.59997558594</ele>
        <time>2021-08-31T06:52:51Z</time>
      </trkpt>
      <trkpt lat="44.45363" lon="5.45484">
        <ele>713</ele>
        <time>2021-08-31T06:52:53Z</time>
      </trkpt>
      <trkpt lat="44.45383" lon="5.45484">
        <ele>711.59997558594</ele>
        <time>2021-08-31T06:52:55Z</time>
      </trkpt>
      <trkpt lat="44.45404" lon="5.45487">
        <ele>710.20001220703</ele>
        <time>2021-08-31T06:52:57Z</time>
      </trkpt>
      <trkpt lat="44.45426" lon="5.4549">
        <ele>708.79998779297</ele>
        <time>2021-08-31T06:52:59Z</time>
      </trkpt>
      <trkpt lat="44.45447" lon="5.45488">
        <ele>707.40002441406</ele>
        <time>2021-08-31T06:53:01Z</time>
      </trkpt>
      <trkpt lat="44.45468" lon="5.45486">
        <ele>705.79998779297</ele>
        <time>2021-08-31T06:53:03Z</time>
      </trkpt>
      <trkpt lat="44.45488" lon="5.45486">
        <ele>704.59997558594</ele>
        <time>2021-08-31T06:53:05Z</time>
      </trkpt>
      <trkpt lat="44.45508" lon="5.4549">
        <ele>703.20001220703</ele>
        <time>2021-08-31T06:53:07Z</time>
      </trkpt>
      <trkpt lat="44.45517" lon="5.45494">
        <ele>702.59997558594</ele>
        <time>2021-08-31T06:53:08Z</time>
      </trkpt>
      <trkpt lat="44.45527" lon="5.45497">
        <ele>702</ele>
        <time>2021-08-31T06:53:09Z</time>
      </trkpt>
      <trkpt lat="44.45546" lon="5.45503">
        <ele>701</ele>
        <time>2021-08-31T06:53:11Z</time>
      </trkpt>
      <trkpt lat="44.45575" lon="5.45511">
        <ele>699.40002441406</ele>
        <time>2021-08-31T06:53:14Z</time>
      </trkpt>
      <trkpt lat="44.45585" lon="5.45513">
        <ele>699</ele>
        <time>2021-08-31T06:53:15Z</time>
      </trkpt>
      <trkpt lat="44.45594" lon="5.45514">
        <ele>698.40002441406</ele>
        <time>2021-08-31T06:53:16Z</time>
      </trkpt>
      <trkpt lat="44.45604" lon="5.45516">
        <ele>697.40002441406</ele>
        <time>2021-08-31T06:53:17Z</time>
      </trkpt>
      <trkpt lat="44.45632" lon="5.45519">
        <ele>696</ele>
        <time>2021-08-31T06:53:20Z</time>
      </trkpt>
      <trkpt lat="44.45651" lon="5.45521">
        <ele>695</ele>
        <time>2021-08-31T06:53:22Z</time>
      </trkpt>
      <trkpt lat="44.45661" lon="5.45522">
        <ele>694.59997558594</ele>
        <time>2021-08-31T06:53:23Z</time>
      </trkpt>
      <trkpt lat="44.45689" lon="5.45521">
        <ele>693.20001220703</ele>
        <time>2021-08-31T06:53:26Z</time>
      </trkpt>
      <trkpt lat="44.45707" lon="5.45513">
        <ele>692.20001220703</ele>
        <time>2021-08-31T06:53:28Z</time>
      </trkpt>
      <trkpt lat="44.45721" lon="5.45498">
        <ele>691.20001220703</ele>
        <time>2021-08-31T06:53:30Z</time>
      </trkpt>
      <trkpt lat="44.45728" lon="5.4549">
        <ele>690.59997558594</ele>
        <time>2021-08-31T06:53:31Z</time>
      </trkpt>
      <trkpt lat="44.45743" lon="5.45479">
        <ele>689.79998779297</ele>
        <time>2021-08-31T06:53:33Z</time>
      </trkpt>
      <trkpt lat="44.45758" lon="5.45473">
        <ele>689</ele>
        <time>2021-08-31T06:53:35Z</time>
      </trkpt>
      <trkpt lat="44.45767" lon="5.45472">
        <ele>688.59997558594</ele>
        <time>2021-08-31T06:53:36Z</time>
      </trkpt>
      <trkpt lat="44.45783" lon="5.45471">
        <ele>687.79998779297</ele>
        <time>2021-08-31T06:53:38Z</time>
      </trkpt>
      <trkpt lat="44.45792" lon="5.4547">
        <ele>687.59997558594</ele>
        <time>2021-08-31T06:53:39Z</time>
      </trkpt>
      <trkpt lat="44.458" lon="5.4547">
        <ele>687.20001220703</ele>
        <time>2021-08-31T06:53:40Z</time>
      </trkpt>
      <trkpt lat="44.45817" lon="5.45468">
        <ele>686.20001220703</ele>
        <time>2021-08-31T06:53:42Z</time>
      </trkpt>
      <trkpt lat="44.45841" lon="5.45462">
        <ele>685.20001220703</ele>
        <time>2021-08-31T06:53:45Z</time>
      </trkpt>
      <trkpt lat="44.45849" lon="5.4546">
        <ele>684.79998779297</ele>
        <time>2021-08-31T06:53:46Z</time>
      </trkpt>
      <trkpt lat="44.45865" lon="5.45453">
        <ele>684</ele>
        <time>2021-08-31T06:53:48Z</time>
      </trkpt>
      <trkpt lat="44.4589" lon="5.45449">
        <ele>683.20001220703</ele>
        <time>2021-08-31T06:53:51Z</time>
      </trkpt>
      <trkpt lat="44.45899" lon="5.45453">
        <ele>682.79998779297</ele>
        <time>2021-08-31T06:53:52Z</time>
      </trkpt>
      <trkpt lat="44.45916" lon="5.45464">
        <ele>682.20001220703</ele>
        <time>2021-08-31T06:53:54Z</time>
      </trkpt>
      <trkpt lat="44.45925" lon="5.45469">
        <ele>681.79998779297</ele>
        <time>2021-08-31T06:53:55Z</time>
      </trkpt>
      <trkpt lat="44.45934" lon="5.45471">
        <ele>681.20001220703</ele>
        <time>2021-08-31T06:53:56Z</time>
      </trkpt>
      <trkpt lat="44.45954" lon="5.45474">
        <ele>680.40002441406</ele>
        <time>2021-08-31T06:53:58Z</time>
      </trkpt>
      <trkpt lat="44.45973" lon="5.45475">
        <ele>679.40002441406</ele>
        <time>2021-08-31T06:54:00Z</time>
      </trkpt>
      <trkpt lat="44.45993" lon="5.45479">
        <ele>678.20001220703</ele>
        <time>2021-08-31T06:54:02Z</time>
      </trkpt>
      <trkpt lat="44.46003" lon="5.45479">
        <ele>677.79998779297</ele>
        <time>2021-08-31T06:54:03Z</time>
      </trkpt>
      <trkpt lat="44.46022" lon="5.4548">
        <ele>676.40002441406</ele>
        <time>2021-08-31T06:54:05Z</time>
      </trkpt>
      <trkpt lat="44.46043" lon="5.4548">
        <ele>675</ele>
        <time>2021-08-31T06:54:07Z</time>
      </trkpt>
      <trkpt lat="44.46051" lon="5.45478">
        <ele>674.59997558594</ele>
        <time>2021-08-31T06:54:08Z</time>
      </trkpt>
      <trkpt lat="44.46056" lon="5.45477">
        <ele>674</ele>
        <time>2021-08-31T06:54:09Z</time>
      </trkpt>
      <trkpt lat="44.46067" lon="5.45478">
        <ele>672.79998779297</ele>
        <time>2021-08-31T06:54:11Z</time>
      </trkpt>
      <trkpt lat="44.46071" lon="5.45478">
        <ele>672.20001220703</ele>
        <time>2021-08-31T06:54:12Z</time>
      </trkpt>
      <trkpt lat="44.46076" lon="5.45476">
        <ele>671.59997558594</ele>
        <time>2021-08-31T06:54:13Z</time>
      </trkpt>
      <trkpt lat="44.46083" lon="5.45472">
        <ele>670.79998779297</ele>
        <time>2021-08-31T06:54:15Z</time>
      </trkpt>
      <trkpt lat="44.46085" lon="5.45469">
        <ele>670.59997558594</ele>
        <time>2021-08-31T06:54:16Z</time>
      </trkpt>
      <trkpt lat="44.46087" lon="5.45467">
        <ele>670.59997558594</ele>
        <time>2021-08-31T06:54:17Z</time>
      </trkpt>
      <trkpt lat="44.46094" lon="5.45461">
        <ele>670.79998779297</ele>
        <time>2021-08-31T06:54:20Z</time>
      </trkpt>
      <trkpt lat="44.46102" lon="5.45453">
        <ele>671.59997558594</ele>
        <time>2021-08-31T06:54:25Z</time>
      </trkpt>
      <trkpt lat="44.46109" lon="5.45445">
        <ele>672.59997558594</ele>
        <time>2021-08-31T06:54:30Z</time>
      </trkpt>
      <trkpt lat="44.46111" lon="5.45445">
        <ele>672.79998779297</ele>
        <time>2021-08-31T06:54:31Z</time>
      </trkpt>
      <trkpt lat="44.46123" lon="5.45438">
        <ele>673.79998779297</ele>
        <time>2021-08-31T06:54:38Z</time>
      </trkpt>
      <trkpt lat="44.46125" lon="5.45437">
        <ele>673.79998779297</ele>
        <time>2021-08-31T06:54:39Z</time>
      </trkpt>
      <trkpt lat="44.46135" lon="5.45432">
        <ele>674.59997558594</ele>
        <time>2021-08-31T06:54:45Z</time>
      </trkpt>
      <trkpt lat="44.46138" lon="5.45431">
        <ele>675</ele>
        <time>2021-08-31T06:54:47Z</time>
      </trkpt>
      <trkpt lat="44.46148" lon="5.45429">
        <ele>676</ele>
        <time>2021-08-31T06:54:53Z</time>
      </trkpt>
      <trkpt lat="44.46161" lon="5.45426">
        <ele>677</ele>
        <time>2021-08-31T06:55:00Z</time>
      </trkpt>
      <trkpt lat="44.46164" lon="5.45426">
        <ele>677.20001220703</ele>
        <time>2021-08-31T06:55:02Z</time>
      </trkpt>
      <trkpt lat="44.46174" lon="5.45423">
        <ele>678</ele>
        <time>2021-08-31T06:55:08Z</time>
      </trkpt>
      <trkpt lat="44.46182" lon="5.45422">
        <ele>678.79998779297</ele>
        <time>2021-08-31T06:55:13Z</time>
      </trkpt>
      <trkpt lat="44.46186" lon="5.45422">
        <ele>679</ele>
        <time>2021-08-31T06:55:15Z</time>
      </trkpt>
      <trkpt lat="44.46193" lon="5.45423">
        <ele>679.79998779297</ele>
        <time>2021-08-31T06:55:19Z</time>
      </trkpt>
      <trkpt lat="44.46198" lon="5.45422">
        <ele>680.20001220703</ele>
        <time>2021-08-31T06:55:22Z</time>
      </trkpt>
      <trkpt lat="44.46207" lon="5.45424">
        <ele>680.59997558594</ele>
        <time>2021-08-31T06:55:27Z</time>
      </trkpt>
      <trkpt lat="44.4622" lon="5.45434">
        <ele>681</ele>
        <time>2021-08-31T06:55:34Z</time>
      </trkpt>
      <trkpt lat="44.46223" lon="5.45441">
        <ele>681.20001220703</ele>
        <time>2021-08-31T06:55:37Z</time>
      </trkpt>
      <trkpt lat="44.46223" lon="5.45447">
        <ele>681.40002441406</ele>
        <time>2021-08-31T06:55:39Z</time>
      </trkpt>
      <trkpt lat="44.46222" lon="5.45449">
        <ele>681.40002441406</ele>
        <time>2021-08-31T06:55:40Z</time>
      </trkpt>
      <trkpt lat="44.46217" lon="5.45457">
        <ele>682</ele>
        <time>2021-08-31T06:55:44Z</time>
      </trkpt>
      <trkpt lat="44.46213" lon="5.45459">
        <ele>682.20001220703</ele>
        <time>2021-08-31T06:55:46Z</time>
      </trkpt>
      <trkpt lat="44.46203" lon="5.45465">
        <ele>683</ele>
        <time>2021-08-31T06:55:52Z</time>
      </trkpt>
      <trkpt lat="44.46199" lon="5.45467">
        <ele>683.20001220703</ele>
        <time>2021-08-31T06:55:54Z</time>
      </trkpt>
      <trkpt lat="44.46189" lon="5.45473">
        <ele>684</ele>
        <time>2021-08-31T06:56:00Z</time>
      </trkpt>
      <trkpt lat="44.46183" lon="5.45476">
        <ele>684.40002441406</ele>
        <time>2021-08-31T06:56:03Z</time>
      </trkpt>
      <trkpt lat="44.46177" lon="5.4548">
        <ele>684.79998779297</ele>
        <time>2021-08-31T06:56:07Z</time>
      </trkpt>
      <trkpt lat="44.4617" lon="5.45482">
        <ele>685.40002441406</ele>
        <time>2021-08-31T06:56:11Z</time>
      </trkpt>
      <trkpt lat="44.46164" lon="5.45486">
        <ele>685.79998779297</ele>
        <time>2021-08-31T06:56:15Z</time>
      </trkpt>
      <trkpt lat="44.46159" lon="5.45489">
        <ele>686.20001220703</ele>
        <time>2021-08-31T06:56:19Z</time>
      </trkpt>
      <trkpt lat="44.46158" lon="5.45491">
        <ele>686.40002441406</ele>
        <time>2021-08-31T06:56:20Z</time>
      </trkpt>
      <trkpt lat="44.46152" lon="5.45504">
        <ele>687.40002441406</ele>
        <time>2021-08-31T06:56:27Z</time>
      </trkpt>
      <trkpt lat="44.46153" lon="5.45508">
        <ele>687.79998779297</ele>
        <time>2021-08-31T06:56:29Z</time>
      </trkpt>
      <trkpt lat="44.4616" lon="5.45516">
        <ele>688.40002441406</ele>
        <time>2021-08-31T06:56:34Z</time>
      </trkpt>
      <trkpt lat="44.46161" lon="5.45517">
        <ele>688.59997558594</ele>
        <time>2021-08-31T06:56:35Z</time>
      </trkpt>
      <trkpt lat="44.46172" lon="5.45522">
        <ele>689.40002441406</ele>
        <time>2021-08-31T06:56:41Z</time>
      </trkpt>
      <trkpt lat="44.46174" lon="5.45523">
        <ele>689.59997558594</ele>
        <time>2021-08-31T06:56:42Z</time>
      </trkpt>
      <trkpt lat="44.46186" lon="5.45528">
        <ele>690.40002441406</ele>
        <time>2021-08-31T06:56:49Z</time>
      </trkpt>
      <trkpt lat="44.46193" lon="5.45532">
        <ele>690.79998779297</ele>
        <time>2021-08-31T06:56:53Z</time>
      </trkpt>
      <trkpt lat="44.46206" lon="5.4554">
        <ele>691.59997558594</ele>
        <time>2021-08-31T06:57:00Z</time>
      </trkpt>
      <trkpt lat="44.46209" lon="5.45543">
        <ele>692</ele>
        <time>2021-08-31T06:57:02Z</time>
      </trkpt>
      <trkpt lat="44.46219" lon="5.45548">
        <ele>692.40002441406</ele>
        <time>2021-08-31T06:57:08Z</time>
      </trkpt>
      <trkpt lat="44.4623" lon="5.45555">
        <ele>693</ele>
        <time>2021-08-31T06:57:14Z</time>
      </trkpt>
      <trkpt lat="44.46233" lon="5.45558">
        <ele>693.20001220703</ele>
        <time>2021-08-31T06:57:16Z</time>
      </trkpt>
      <trkpt lat="44.46249" lon="5.45567">
        <ele>694</ele>
        <time>2021-08-31T06:57:25Z</time>
      </trkpt>
      <trkpt lat="44.46265" lon="5.45575">
        <ele>694.79998779297</ele>
        <time>2021-08-31T06:57:34Z</time>
      </trkpt>
      <trkpt lat="44.46271" lon="5.45577">
        <ele>695.20001220703</ele>
        <time>2021-08-31T06:57:37Z</time>
      </trkpt>
      <trkpt lat="44.46279" lon="5.45583">
        <ele>695.59997558594</ele>
        <time>2021-08-31T06:57:42Z</time>
      </trkpt>
      <trkpt lat="44.46287" lon="5.45588">
        <ele>696.20001220703</ele>
        <time>2021-08-31T06:57:47Z</time>
      </trkpt>
      <trkpt lat="44.46292" lon="5.45594">
        <ele>696.59997558594</ele>
        <time>2021-08-31T06:57:50Z</time>
      </trkpt>
      <trkpt lat="44.463" lon="5.45601">
        <ele>697.20001220703</ele>
        <time>2021-08-31T06:57:55Z</time>
      </trkpt>
      <trkpt lat="44.46305" lon="5.45608">
        <ele>697.59997558594</ele>
        <time>2021-08-31T06:57:59Z</time>
      </trkpt>
      <trkpt lat="44.46313" lon="5.45615">
        <ele>698.20001220703</ele>
        <time>2021-08-31T06:58:04Z</time>
      </trkpt>
      <trkpt lat="44.46316" lon="5.45618">
        <ele>698.79998779297</ele>
        <time>2021-08-31T06:58:06Z</time>
      </trkpt>
      <trkpt lat="44.46321" lon="5.45623">
        <ele>699.40002441406</ele>
        <time>2021-08-31T06:58:10Z</time>
      </trkpt>
      <trkpt lat="44.46328" lon="5.45629">
        <ele>700.20001220703</ele>
        <time>2021-08-31T06:58:15Z</time>
      </trkpt>
      <trkpt lat="44.4633" lon="5.45632">
        <ele>700.40002441406</ele>
        <time>2021-08-31T06:58:17Z</time>
      </trkpt>
      <trkpt lat="44.46335" lon="5.45637">
        <ele>701</ele>
        <time>2021-08-31T06:58:21Z</time>
      </trkpt>
      <trkpt lat="44.46339" lon="5.45642">
        <ele>701.59997558594</ele>
        <time>2021-08-31T06:58:24Z</time>
      </trkpt>
      <trkpt lat="44.46343" lon="5.45645">
        <ele>702</ele>
        <time>2021-08-31T06:58:27Z</time>
      </trkpt>
      <trkpt lat="44.46346" lon="5.45649">
        <ele>702.59997558594</ele>
        <time>2021-08-31T06:58:30Z</time>
      </trkpt>
      <trkpt lat="44.46353" lon="5.45659">
        <ele>703.20001220703</ele>
        <time>2021-08-31T06:58:36Z</time>
      </trkpt>
      <trkpt lat="44.46357" lon="5.45664">
        <ele>703.59997558594</ele>
        <time>2021-08-31T06:58:39Z</time>
      </trkpt>
      <trkpt lat="44.46368" lon="5.45676">
        <ele>704.59997558594</ele>
        <time>2021-08-31T06:58:48Z</time>
      </trkpt>
      <trkpt lat="44.46369" lon="5.45678">
        <ele>704.79998779297</ele>
        <time>2021-08-31T06:58:49Z</time>
      </trkpt>
      <trkpt lat="44.46377" lon="5.45688">
        <ele>705.79998779297</ele>
        <time>2021-08-31T06:58:56Z</time>
      </trkpt>
      <trkpt lat="44.4638" lon="5.45691">
        <ele>706.20001220703</ele>
        <time>2021-08-31T06:58:58Z</time>
      </trkpt>
      <trkpt lat="44.46387" lon="5.45699">
        <ele>707</ele>
        <time>2021-08-31T06:59:04Z</time>
      </trkpt>
      <trkpt lat="44.4639" lon="5.45702">
        <ele>707.20001220703</ele>
        <time>2021-08-31T06:59:06Z</time>
      </trkpt>
      <trkpt lat="44.46398" lon="5.4571">
        <ele>708</ele>
        <time>2021-08-31T06:59:12Z</time>
      </trkpt>
      <trkpt lat="44.46407" lon="5.45719">
        <ele>708.79998779297</ele>
        <time>2021-08-31T06:59:18Z</time>
      </trkpt>
      <trkpt lat="44.46412" lon="5.45725">
        <ele>709</ele>
        <time>2021-08-31T06:59:22Z</time>
      </trkpt>
      <trkpt lat="44.4642" lon="5.45734">
        <ele>709.59997558594</ele>
        <time>2021-08-31T06:59:28Z</time>
      </trkpt>
      <trkpt lat="44.46427" lon="5.45741">
        <ele>710</ele>
        <time>2021-08-31T06:59:33Z</time>
      </trkpt>
      <trkpt lat="44.46434" lon="5.45746">
        <ele>710.40002441406</ele>
        <time>2021-08-31T06:59:37Z</time>
      </trkpt>
      <trkpt lat="44.46443" lon="5.4575">
        <ele>711.20001220703</ele>
        <time>2021-08-31T06:59:42Z</time>
      </trkpt>
      <trkpt lat="44.46447" lon="5.45752">
        <ele>711.40002441406</ele>
        <time>2021-08-31T06:59:44Z</time>
      </trkpt>
      <trkpt lat="44.46463" lon="5.45755">
        <ele>712.20001220703</ele>
        <time>2021-08-31T06:59:52Z</time>
      </trkpt>
      <trkpt lat="44.46465" lon="5.45755">
        <ele>712.40002441406</ele>
        <time>2021-08-31T06:59:53Z</time>
      </trkpt>
      <trkpt lat="44.46477" lon="5.45754">
        <ele>713.20001220703</ele>
        <time>2021-08-31T07:00:00Z</time>
      </trkpt>
      <trkpt lat="44.46479" lon="5.45754">
        <ele>713.40002441406</ele>
        <time>2021-08-31T07:00:01Z</time>
      </trkpt>
      <trkpt lat="44.46491" lon="5.45753">
        <ele>714.20001220703</ele>
        <time>2021-08-31T07:00:07Z</time>
      </trkpt>
      <trkpt lat="44.46493" lon="5.45753">
        <ele>714.40002441406</ele>
        <time>2021-08-31T07:00:08Z</time>
      </trkpt>
      <trkpt lat="44.46503" lon="5.45753">
        <ele>715</ele>
        <time>2021-08-31T07:00:13Z</time>
      </trkpt>
      <trkpt lat="44.46511" lon="5.45754">
        <ele>715.40002441406</ele>
        <time>2021-08-31T07:00:17Z</time>
      </trkpt>
      <trkpt lat="44.46522" lon="5.45755">
        <ele>716.20001220703</ele>
        <time>2021-08-31T07:00:23Z</time>
      </trkpt>
      <trkpt lat="44.46526" lon="5.45756">
        <ele>716.59997558594</ele>
        <time>2021-08-31T07:00:26Z</time>
      </trkpt>
      <trkpt lat="44.46534" lon="5.45756">
        <ele>717.40002441406</ele>
        <time>2021-08-31T07:00:30Z</time>
      </trkpt>
      <trkpt lat="44.46537" lon="5.45756">
        <ele>717.59997558594</ele>
        <time>2021-08-31T07:00:32Z</time>
      </trkpt>
      <trkpt lat="44.46548" lon="5.45755">
        <ele>718.79998779297</ele>
        <time>2021-08-31T07:00:39Z</time>
      </trkpt>
      <trkpt lat="44.46556" lon="5.45756">
        <ele>719.40002441406</ele>
        <time>2021-08-31T07:00:43Z</time>
      </trkpt>
      <trkpt lat="44.4656" lon="5.45756">
        <ele>719.79998779297</ele>
        <time>2021-08-31T07:00:46Z</time>
      </trkpt>
      <trkpt lat="44.46562" lon="5.45755">
        <ele>719.79998779297</ele>
        <time>2021-08-31T07:00:47Z</time>
      </trkpt>
      <trkpt lat="44.46573" lon="5.45755">
        <ele>720.79998779297</ele>
        <time>2021-08-31T07:00:53Z</time>
      </trkpt>
      <trkpt lat="44.46578" lon="5.45752">
        <ele>721.20001220703</ele>
        <time>2021-08-31T07:00:56Z</time>
      </trkpt>
      <trkpt lat="44.46587" lon="5.45744">
        <ele>721.79998779297</ele>
        <time>2021-08-31T07:01:02Z</time>
      </trkpt>
      <trkpt lat="44.46589" lon="5.45741">
        <ele>722.20001220703</ele>
        <time>2021-08-31T07:01:04Z</time>
      </trkpt>
      <trkpt lat="44.46593" lon="5.45733">
        <ele>722.79998779297</ele>
        <time>2021-08-31T07:01:08Z</time>
      </trkpt>
      <trkpt lat="44.46598" lon="5.45725">
        <ele>723.40002441406</ele>
        <time>2021-08-31T07:01:12Z</time>
      </trkpt>
      <trkpt lat="44.46605" lon="5.45713">
        <ele>724</ele>
        <time>2021-08-31T07:01:18Z</time>
      </trkpt>
      <trkpt lat="44.46607" lon="5.45704">
        <ele>724.40002441406</ele>
        <time>2021-08-31T07:01:22Z</time>
      </trkpt>
      <trkpt lat="44.46611" lon="5.45696">
        <ele>725</ele>
        <time>2021-08-31T07:01:26Z</time>
      </trkpt>
      <trkpt lat="44.46611" lon="5.45694">
        <ele>725.20001220703</ele>
        <time>2021-08-31T07:01:27Z</time>
      </trkpt>
      <trkpt lat="44.46611" lon="5.45691">
        <ele>725.40002441406</ele>
        <time>2021-08-31T07:01:28Z</time>
      </trkpt>
      <trkpt lat="44.46614" lon="5.45684">
        <ele>725.79998779297</ele>
        <time>2021-08-31T07:01:31Z</time>
      </trkpt>
      <trkpt lat="44.46615" lon="5.4568">
        <ele>726</ele>
        <time>2021-08-31T07:01:33Z</time>
      </trkpt>
      <trkpt lat="44.46617" lon="5.45673">
        <ele>726.59997558594</ele>
        <time>2021-08-31T07:01:36Z</time>
      </trkpt>
      <trkpt lat="44.46621" lon="5.45661">
        <ele>727.20001220703</ele>
        <time>2021-08-31T07:01:41Z</time>
      </trkpt>
      <trkpt lat="44.46625" lon="5.4566">
        <ele>727.40002441406</ele>
        <time>2021-08-31T07:01:43Z</time>
      </trkpt>
      <trkpt lat="44.4663" lon="5.45662">
        <ele>727.79998779297</ele>
        <time>2021-08-31T07:01:46Z</time>
      </trkpt>
      <trkpt lat="44.46631" lon="5.45667">
        <ele>728.20001220703</ele>
        <time>2021-08-31T07:01:48Z</time>
      </trkpt>
      <trkpt lat="44.46629" lon="5.45683">
        <ele>729.40002441406</ele>
        <time>2021-08-31T07:01:54Z</time>
      </trkpt>
      <trkpt lat="44.46629" lon="5.45685">
        <ele>729.40002441406</ele>
        <time>2021-08-31T07:01:55Z</time>
      </trkpt>
      <trkpt lat="44.46622" lon="5.457">
        <ele>730.40002441406</ele>
        <time>2021-08-31T07:02:02Z</time>
      </trkpt>
      <trkpt lat="44.46618" lon="5.45716">
        <ele>731.40002441406</ele>
        <time>2021-08-31T07:02:09Z</time>
      </trkpt>
      <trkpt lat="44.46616" lon="5.4572">
        <ele>731.79998779297</ele>
        <time>2021-08-31T07:02:11Z</time>
      </trkpt>
      <trkpt lat="44.46611" lon="5.45737">
        <ele>732.59997558594</ele>
        <time>2021-08-31T07:02:18Z</time>
      </trkpt>
      <trkpt lat="44.4661" lon="5.45739">
        <ele>732.79998779297</ele>
        <time>2021-08-31T07:02:19Z</time>
      </trkpt>
      <trkpt lat="44.46607" lon="5.45753">
        <ele>733.59997558594</ele>
        <time>2021-08-31T07:02:25Z</time>
      </trkpt>
      <trkpt lat="44.46606" lon="5.45764">
        <ele>734.20001220703</ele>
        <time>2021-08-31T07:02:29Z</time>
      </trkpt>
      <trkpt lat="44.46608" lon="5.45772">
        <ele>734.59997558594</ele>
        <time>2021-08-31T07:02:32Z</time>
      </trkpt>
      <trkpt lat="44.46608" lon="5.45782">
        <ele>735.20001220703</ele>
        <time>2021-08-31T07:02:36Z</time>
      </trkpt>
      <trkpt lat="44.46607" lon="5.45795">
        <ele>735.79998779297</ele>
        <time>2021-08-31T07:02:41Z</time>
      </trkpt>
      <trkpt lat="44.46604" lon="5.45805">
        <ele>736.59997558594</ele>
        <time>2021-08-31T07:02:45Z</time>
      </trkpt>
      <trkpt lat="44.46602" lon="5.45812">
        <ele>737</ele>
        <time>2021-08-31T07:02:48Z</time>
      </trkpt>
      <trkpt lat="44.46593" lon="5.45835">
        <ele>737.79998779297</ele>
        <time>2021-08-31T07:02:56Z</time>
      </trkpt>
      <trkpt lat="44.46588" lon="5.45843">
        <ele>738</ele>
        <time>2021-08-31T07:02:59Z</time>
      </trkpt>
      <trkpt lat="44.46583" lon="5.45849">
        <ele>738</ele>
        <time>2021-08-31T07:03:02Z</time>
      </trkpt>
      <trkpt lat="44.46572" lon="5.45861">
        <ele>739</ele>
        <time>2021-08-31T07:03:09Z</time>
      </trkpt>
      <trkpt lat="44.46569" lon="5.45864">
        <ele>739.20001220703</ele>
        <time>2021-08-31T07:03:11Z</time>
      </trkpt>
      <trkpt lat="44.46559" lon="5.45875">
        <ele>740</ele>
        <time>2021-08-31T07:03:17Z</time>
      </trkpt>
      <trkpt lat="44.46553" lon="5.45881">
        <ele>740.59997558594</ele>
        <time>2021-08-31T07:03:21Z</time>
      </trkpt>
      <trkpt lat="44.46545" lon="5.45889">
        <ele>741</ele>
        <time>2021-08-31T07:03:25Z</time>
      </trkpt>
      <trkpt lat="44.46542" lon="5.45899">
        <ele>741.40002441406</ele>
        <time>2021-08-31T07:03:28Z</time>
      </trkpt>
      <trkpt lat="44.46534" lon="5.45925">
        <ele>741.59997558594</ele>
        <time>2021-08-31T07:03:35Z</time>
      </trkpt>
      <trkpt lat="44.46532" lon="5.45955">
        <ele>741.40002441406</ele>
        <time>2021-08-31T07:03:41Z</time>
      </trkpt>
      <trkpt lat="44.46523" lon="5.45966">
        <ele>741</ele>
        <time>2021-08-31T07:03:44Z</time>
      </trkpt>
      <trkpt lat="44.46507" lon="5.4597">
        <ele>740.59997558594</ele>
        <time>2021-08-31T07:03:49Z</time>
      </trkpt>
      <trkpt lat="44.46485" lon="5.45982">
        <ele>740.59997558594</ele>
        <time>2021-08-31T07:03:56Z</time>
      </trkpt>
      <trkpt lat="44.46483" lon="5.45989">
        <ele>740.59997558594</ele>
        <time>2021-08-31T07:03:58Z</time>
      </trkpt>
      <trkpt lat="44.46483" lon="5.45996">
        <ele>740.59997558594</ele>
        <time>2021-08-31T07:04:00Z</time>
      </trkpt>
      <trkpt lat="44.46489" lon="5.46011">
        <ele>741</ele>
        <time>2021-08-31T07:04:04Z</time>
      </trkpt>
      <trkpt lat="44.46494" lon="5.4602">
        <ele>741.20001220703</ele>
        <time>2021-08-31T07:04:06Z</time>
      </trkpt>
      <trkpt lat="44.46503" lon="5.46038">
        <ele>740.79998779297</ele>
        <time>2021-08-31T07:04:09Z</time>
      </trkpt>
      <trkpt lat="44.46515" lon="5.46065">
        <ele>739.79998779297</ele>
        <time>2021-08-31T07:04:13Z</time>
      </trkpt>
      <trkpt lat="44.46518" lon="5.46072">
        <ele>739.59997558594</ele>
        <time>2021-08-31T07:04:14Z</time>
      </trkpt>
      <trkpt lat="44.46523" lon="5.46097">
        <ele>738.59997558594</ele>
        <time>2021-08-31T07:04:17Z</time>
      </trkpt>
      <trkpt lat="44.46524" lon="5.46105">
        <ele>738.20001220703</ele>
        <time>2021-08-31T07:04:18Z</time>
      </trkpt>
      <trkpt lat="44.46525" lon="5.4612">
        <ele>737.59997558594</ele>
        <time>2021-08-31T07:04:20Z</time>
      </trkpt>
      <trkpt lat="44.46525" lon="5.46127">
        <ele>737.20001220703</ele>
        <time>2021-08-31T07:04:21Z</time>
      </trkpt>
      <trkpt lat="44.46527" lon="5.46142">
        <ele>736.59997558594</ele>
        <time>2021-08-31T07:04:23Z</time>
      </trkpt>
      <trkpt lat="44.46528" lon="5.4615">
        <ele>736.20001220703</ele>
        <time>2021-08-31T07:04:24Z</time>
      </trkpt>
      <trkpt lat="44.46533" lon="5.46165">
        <ele>735.40002441406</ele>
        <time>2021-08-31T07:04:26Z</time>
      </trkpt>
      <trkpt lat="44.46535" lon="5.46169">
        <ele>735</ele>
        <time>2021-08-31T07:04:27Z</time>
      </trkpt>
      <trkpt lat="44.46537" lon="5.46172">
        <ele>734.20001220703</ele>
        <time>2021-08-31T07:04:29Z</time>
      </trkpt>
      <trkpt lat="44.46539" lon="5.46176">
        <ele>732</ele>
        <time>2021-08-31T07:06:03Z</time>
      </trkpt>
      <trkpt lat="44.46546" lon="5.46186">
        <ele>731.79998779297</ele>
        <time>2021-08-31T07:06:07Z</time>
      </trkpt>
      <trkpt lat="44.46553" lon="5.46197">
        <ele>731.59997558594</ele>
        <time>2021-08-31T07:06:10Z</time>
      </trkpt>
      <trkpt lat="44.4656" lon="5.46207">
        <ele>731.20001220703</ele>
        <time>2021-08-31T07:06:12Z</time>
      </trkpt>
      <trkpt lat="44.46567" lon="5.46215">
        <ele>730.79998779297</ele>
        <time>2021-08-31T07:06:14Z</time>
      </trkpt>
      <trkpt lat="44.46579" lon="5.46228">
        <ele>730.20001220703</ele>
        <time>2021-08-31T07:06:17Z</time>
      </trkpt>
      <trkpt lat="44.46582" lon="5.46233">
        <ele>730</ele>
        <time>2021-08-31T07:06:18Z</time>
      </trkpt>
      <trkpt lat="44.46585" lon="5.46239">
        <ele>729.59997558594</ele>
        <time>2021-08-31T07:06:19Z</time>
      </trkpt>
      <trkpt lat="44.4659" lon="5.46254">
        <ele>729</ele>
        <time>2021-08-31T07:06:21Z</time>
      </trkpt>
      <trkpt lat="44.46591" lon="5.4627">
        <ele>728.20001220703</ele>
        <time>2021-08-31T07:06:23Z</time>
      </trkpt>
      <trkpt lat="44.4659" lon="5.46288">
        <ele>727.59997558594</ele>
        <time>2021-08-31T07:06:25Z</time>
      </trkpt>
      <trkpt lat="44.46589" lon="5.46298">
        <ele>727.20001220703</ele>
        <time>2021-08-31T07:06:26Z</time>
      </trkpt>
      <trkpt lat="44.46586" lon="5.4633">
        <ele>726</ele>
        <time>2021-08-31T07:06:29Z</time>
      </trkpt>
      <trkpt lat="44.46584" lon="5.46341">
        <ele>725.20001220703</ele>
        <time>2021-08-31T07:06:30Z</time>
      </trkpt>
      <trkpt lat="44.46582" lon="5.46353">
        <ele>724.59997558594</ele>
        <time>2021-08-31T07:06:31Z</time>
      </trkpt>
      <trkpt lat="44.4658" lon="5.46376">
        <ele>723.59997558594</ele>
        <time>2021-08-31T07:06:33Z</time>
      </trkpt>
      <trkpt lat="44.4658" lon="5.46398">
        <ele>722.59997558594</ele>
        <time>2021-08-31T07:06:35Z</time>
      </trkpt>
      <trkpt lat="44.46582" lon="5.46418">
        <ele>721.20001220703</ele>
        <time>2021-08-31T07:06:37Z</time>
      </trkpt>
      <trkpt lat="44.46587" lon="5.46436">
        <ele>720</ele>
        <time>2021-08-31T07:06:39Z</time>
      </trkpt>
      <trkpt lat="44.46596" lon="5.4645">
        <ele>718.79998779297</ele>
        <time>2021-08-31T07:06:41Z</time>
      </trkpt>
      <trkpt lat="44.46602" lon="5.46455">
        <ele>718.40002441406</ele>
        <time>2021-08-31T07:06:42Z</time>
      </trkpt>
      <trkpt lat="44.46609" lon="5.46461">
        <ele>717.79998779297</ele>
        <time>2021-08-31T07:06:43Z</time>
      </trkpt>
      <trkpt lat="44.46629" lon="5.46479">
        <ele>716.40002441406</ele>
        <time>2021-08-31T07:06:46Z</time>
      </trkpt>
      <trkpt lat="44.46642" lon="5.4649">
        <ele>715.59997558594</ele>
        <time>2021-08-31T07:06:48Z</time>
      </trkpt>
      <trkpt lat="44.46648" lon="5.46494">
        <ele>715.20001220703</ele>
        <time>2021-08-31T07:06:49Z</time>
      </trkpt>
      <trkpt lat="44.46665" lon="5.46505">
        <ele>713.79998779297</ele>
        <time>2021-08-31T07:06:52Z</time>
      </trkpt>
      <trkpt lat="44.46671" lon="5.46508">
        <ele>713.20001220703</ele>
        <time>2021-08-31T07:06:53Z</time>
      </trkpt>
      <trkpt lat="44.46676" lon="5.46514">
        <ele>712.20001220703</ele>
        <time>2021-08-31T07:06:54Z</time>
      </trkpt>
      <trkpt lat="44.46685" lon="5.46531">
        <ele>711.40002441406</ele>
        <time>2021-08-31T07:06:56Z</time>
      </trkpt>
      <trkpt lat="44.46686" lon="5.46541">
        <ele>711</ele>
        <time>2021-08-31T07:06:57Z</time>
      </trkpt>
      <trkpt lat="44.46684" lon="5.46562">
        <ele>710.20001220703</ele>
        <time>2021-08-31T07:06:59Z</time>
      </trkpt>
      <trkpt lat="44.46681" lon="5.46572">
        <ele>709.79998779297</ele>
        <time>2021-08-31T07:07:00Z</time>
      </trkpt>
      <trkpt lat="44.4667" lon="5.46588">
        <ele>709.20001220703</ele>
        <time>2021-08-31T07:07:02Z</time>
      </trkpt>
      <trkpt lat="44.46664" lon="5.46592">
        <ele>708.79998779297</ele>
        <time>2021-08-31T07:07:03Z</time>
      </trkpt>
      <trkpt lat="44.46648" lon="5.46595">
        <ele>708</ele>
        <time>2021-08-31T07:07:05Z</time>
      </trkpt>
      <trkpt lat="44.4664" lon="5.46596">
        <ele>707.59997558594</ele>
        <time>2021-08-31T07:07:06Z</time>
      </trkpt>
      <trkpt lat="44.46615" lon="5.46603">
        <ele>706</ele>
        <time>2021-08-31T07:07:09Z</time>
      </trkpt>
      <trkpt lat="44.46607" lon="5.46606">
        <ele>705.40002441406</ele>
        <time>2021-08-31T07:07:10Z</time>
      </trkpt>
      <trkpt lat="44.46598" lon="5.4661">
        <ele>704.79998779297</ele>
        <time>2021-08-31T07:07:11Z</time>
      </trkpt>
      <trkpt lat="44.46592" lon="5.46615">
        <ele>704.20001220703</ele>
        <time>2021-08-31T07:07:12Z</time>
      </trkpt>
      <trkpt lat="44.46586" lon="5.46621">
        <ele>703.59997558594</ele>
        <time>2021-08-31T07:07:13Z</time>
      </trkpt>
      <trkpt lat="44.46578" lon="5.46638">
        <ele>702.40002441406</ele>
        <time>2021-08-31T07:07:15Z</time>
      </trkpt>
      <trkpt lat="44.46576" lon="5.46649">
        <ele>701.79998779297</ele>
        <time>2021-08-31T07:07:16Z</time>
      </trkpt>
      <trkpt lat="44.46575" lon="5.4666">
        <ele>701</ele>
        <time>2021-08-31T07:07:17Z</time>
      </trkpt>
      <trkpt lat="44.46574" lon="5.46672">
        <ele>699.79998779297</ele>
        <time>2021-08-31T07:07:18Z</time>
      </trkpt>
      <trkpt lat="44.46576" lon="5.46695">
        <ele>698.79998779297</ele>
        <time>2021-08-31T07:07:20Z</time>
      </trkpt>
      <trkpt lat="44.46585" lon="5.46725">
        <ele>697.40002441406</ele>
        <time>2021-08-31T07:07:23Z</time>
      </trkpt>
      <trkpt lat="44.46595" lon="5.46743">
        <ele>696.59997558594</ele>
        <time>2021-08-31T07:07:25Z</time>
      </trkpt>
      <trkpt lat="44.46601" lon="5.46751">
        <ele>696</ele>
        <time>2021-08-31T07:07:26Z</time>
      </trkpt>
      <trkpt lat="44.46611" lon="5.46767">
        <ele>695.20001220703</ele>
        <time>2021-08-31T07:07:28Z</time>
      </trkpt>
      <trkpt lat="44.46616" lon="5.46773">
        <ele>694.79998779297</ele>
        <time>2021-08-31T07:07:29Z</time>
      </trkpt>
      <trkpt lat="44.46633" lon="5.46793">
        <ele>693.20001220703</ele>
        <time>2021-08-31T07:07:32Z</time>
      </trkpt>
      <trkpt lat="44.46645" lon="5.46804">
        <ele>692.20001220703</ele>
        <time>2021-08-31T07:07:34Z</time>
      </trkpt>
      <trkpt lat="44.46663" lon="5.46822">
        <ele>691</ele>
        <time>2021-08-31T07:07:37Z</time>
      </trkpt>
      <trkpt lat="44.46675" lon="5.46836">
        <ele>690.20001220703</ele>
        <time>2021-08-31T07:07:39Z</time>
      </trkpt>
      <trkpt lat="44.46681" lon="5.46844">
        <ele>690</ele>
        <time>2021-08-31T07:07:40Z</time>
      </trkpt>
      <trkpt lat="44.46692" lon="5.46857">
        <ele>688.79998779297</ele>
        <time>2021-08-31T07:07:42Z</time>
      </trkpt>
      <trkpt lat="44.46697" lon="5.46862">
        <ele>688.20001220703</ele>
        <time>2021-08-31T07:07:43Z</time>
      </trkpt>
      <trkpt lat="44.46704" lon="5.46873">
        <ele>687.40002441406</ele>
        <time>2021-08-31T07:07:45Z</time>
      </trkpt>
      <trkpt lat="44.4671" lon="5.46886">
        <ele>686.20001220703</ele>
        <time>2021-08-31T07:07:47Z</time>
      </trkpt>
      <trkpt lat="44.46713" lon="5.46907">
        <ele>685.20001220703</ele>
        <time>2021-08-31T07:07:50Z</time>
      </trkpt>
      <trkpt lat="44.46714" lon="5.46913">
        <ele>684.79998779297</ele>
        <time>2021-08-31T07:07:51Z</time>
      </trkpt>
      <trkpt lat="44.46713" lon="5.46923">
        <ele>684</ele>
        <time>2021-08-31T07:07:53Z</time>
      </trkpt>
      <trkpt lat="44.46714" lon="5.46935">
        <ele>683</ele>
        <time>2021-08-31T07:07:56Z</time>
      </trkpt>
      <trkpt lat="44.46715" lon="5.46939">
        <ele>682.40002441406</ele>
        <time>2021-08-31T07:07:58Z</time>
      </trkpt>
      <trkpt lat="44.46715" lon="5.46942">
        <ele>681.20001220703</ele>
        <time>2021-08-31T07:08:44Z</time>
      </trkpt>
      <trkpt lat="44.46713" lon="5.46958">
        <ele>681.20001220703</ele>
        <time>2021-08-31T07:08:48Z</time>
      </trkpt>
      <trkpt lat="44.46712" lon="5.46964">
        <ele>681.20001220703</ele>
        <time>2021-08-31T07:08:49Z</time>
      </trkpt>
      <trkpt lat="44.46706" lon="5.4698">
        <ele>680.79998779297</ele>
        <time>2021-08-31T07:08:52Z</time>
      </trkpt>
      <trkpt lat="44.467" lon="5.46989">
        <ele>680</ele>
        <time>2021-08-31T07:08:54Z</time>
      </trkpt>
      <trkpt lat="44.46692" lon="5.46993">
        <ele>679.40002441406</ele>
        <time>2021-08-31T07:08:56Z</time>
      </trkpt>
      <trkpt lat="44.46685" lon="5.46995">
        <ele>678.79998779297</ele>
        <time>2021-08-31T07:08:58Z</time>
      </trkpt>
      <trkpt lat="44.4668" lon="5.47003">
        <ele>678.20001220703</ele>
        <time>2021-08-31T07:09:00Z</time>
      </trkpt>
      <trkpt lat="44.46678" lon="5.47009">
        <ele>677.79998779297</ele>
        <time>2021-08-31T07:09:01Z</time>
      </trkpt>
      <trkpt lat="44.46679" lon="5.47022">
        <ele>677</ele>
        <time>2021-08-31T07:09:03Z</time>
      </trkpt>
      <trkpt lat="44.46681" lon="5.47028">
        <ele>676.79998779297</ele>
        <time>2021-08-31T07:09:04Z</time>
      </trkpt>
      <trkpt lat="44.46682" lon="5.47036">
        <ele>676.40002441406</ele>
        <time>2021-08-31T07:09:05Z</time>
      </trkpt>
      <trkpt lat="44.46682" lon="5.47044">
        <ele>676.20001220703</ele>
        <time>2021-08-31T07:09:06Z</time>
      </trkpt>
      <trkpt lat="44.46681" lon="5.47052">
        <ele>676</ele>
        <time>2021-08-31T07:09:07Z</time>
      </trkpt>
      <trkpt lat="44.46678" lon="5.4706">
        <ele>675.59997558594</ele>
        <time>2021-08-31T07:09:08Z</time>
      </trkpt>
      <trkpt lat="44.46669" lon="5.47077">
        <ele>674.79998779297</ele>
        <time>2021-08-31T07:09:10Z</time>
      </trkpt>
      <trkpt lat="44.46665" lon="5.47087">
        <ele>674.40002441406</ele>
        <time>2021-08-31T07:09:11Z</time>
      </trkpt>
      <trkpt lat="44.4666" lon="5.47109">
        <ele>673.79998779297</ele>
        <time>2021-08-31T07:09:13Z</time>
      </trkpt>
      <trkpt lat="44.46658" lon="5.47121">
        <ele>673.20001220703</ele>
        <time>2021-08-31T07:09:14Z</time>
      </trkpt>
      <trkpt lat="44.46657" lon="5.47132">
        <ele>672.79998779297</ele>
        <time>2021-08-31T07:09:15Z</time>
      </trkpt>
      <trkpt lat="44.46656" lon="5.47142">
        <ele>672.20001220703</ele>
        <time>2021-08-31T07:09:16Z</time>
      </trkpt>
      <trkpt lat="44.46655" lon="5.47151">
        <ele>671.59997558594</ele>
        <time>2021-08-31T07:09:17Z</time>
      </trkpt>
      <trkpt lat="44.46655" lon="5.47159">
        <ele>670.20001220703</ele>
        <time>2021-08-31T07:09:18Z</time>
      </trkpt>
      <trkpt lat="44.4666" lon="5.47175">
        <ele>668.79998779297</ele>
        <time>2021-08-31T07:09:20Z</time>
      </trkpt>
      <trkpt lat="44.46668" lon="5.47189">
        <ele>667.40002441406</ele>
        <time>2021-08-31T07:09:22Z</time>
      </trkpt>
      <trkpt lat="44.4668" lon="5.47214">
        <ele>666</ele>
        <time>2021-08-31T07:09:25Z</time>
      </trkpt>
      <trkpt lat="44.46686" lon="5.47232">
        <ele>665.20001220703</ele>
        <time>2021-08-31T07:09:27Z</time>
      </trkpt>
      <trkpt lat="44.46687" lon="5.47241">
        <ele>664.79998779297</ele>
        <time>2021-08-31T07:09:28Z</time>
      </trkpt>
      <trkpt lat="44.46688" lon="5.4725">
        <ele>664.40002441406</ele>
        <time>2021-08-31T07:09:29Z</time>
      </trkpt>
      <trkpt lat="44.46688" lon="5.47268">
        <ele>663.40002441406</ele>
        <time>2021-08-31T07:09:31Z</time>
      </trkpt>
      <trkpt lat="44.46687" lon="5.47296">
        <ele>662.40002441406</ele>
        <time>2021-08-31T07:09:34Z</time>
      </trkpt>
      <trkpt lat="44.46687" lon="5.47316">
        <ele>661.20001220703</ele>
        <time>2021-08-31T07:09:37Z</time>
      </trkpt>
      <trkpt lat="44.46686" lon="5.47328">
        <ele>660.40002441406</ele>
        <time>2021-08-31T07:09:39Z</time>
      </trkpt>
      <trkpt lat="44.46685" lon="5.47332">
        <ele>660</ele>
        <time>2021-08-31T07:09:40Z</time>
      </trkpt>
      <trkpt lat="44.46681" lon="5.47347">
        <ele>659</ele>
        <time>2021-08-31T07:09:44Z</time>
      </trkpt>
      <trkpt lat="44.4668" lon="5.4735">
        <ele>658.79998779297</ele>
        <time>2021-08-31T07:09:45Z</time>
      </trkpt>
      <trkpt lat="44.46669" lon="5.47363">
        <ele>658.79998779297</ele>
        <time>2021-08-31T07:09:49Z</time>
      </trkpt>
      <trkpt lat="44.46646" lon="5.4739">
        <ele>659</ele>
        <time>2021-08-31T07:09:57Z</time>
      </trkpt>
      <trkpt lat="44.46636" lon="5.47411">
        <ele>659.40002441406</ele>
        <time>2021-08-31T07:10:03Z</time>
      </trkpt>
      <trkpt lat="44.46633" lon="5.47428">
        <ele>660</ele>
        <time>2021-08-31T07:10:07Z</time>
      </trkpt>
      <trkpt lat="44.46632" lon="5.47441">
        <ele>660.20001220703</ele>
        <time>2021-08-31T07:10:10Z</time>
      </trkpt>
      <trkpt lat="44.46631" lon="5.47457">
        <ele>660.40002441406</ele>
        <time>2021-08-31T07:10:15Z</time>
      </trkpt>
      <trkpt lat="44.46634" lon="5.47463">
        <ele>660.40002441406</ele>
        <time>2021-08-31T07:17:29Z</time>
      </trkpt>
      <trkpt lat="44.46635" lon="5.47468">
        <ele>660.40002441406</ele>
        <time>2021-08-31T07:17:31Z</time>
      </trkpt>
      <trkpt lat="44.46637" lon="5.47486">
        <ele>660.40002441406</ele>
        <time>2021-08-31T07:17:36Z</time>
      </trkpt>
      <trkpt lat="44.46635" lon="5.47516">
        <ele>660.40002441406</ele>
        <time>2021-08-31T07:17:43Z</time>
      </trkpt>
      <trkpt lat="44.46628" lon="5.47545">
        <ele>660.79998779297</ele>
        <time>2021-08-31T07:17:50Z</time>
      </trkpt>
      <trkpt lat="44.46624" lon="5.47555">
        <ele>661</ele>
        <time>2021-08-31T07:17:53Z</time>
      </trkpt>
      <trkpt lat="44.4662" lon="5.47567">
        <ele>661.40002441406</ele>
        <time>2021-08-31T07:17:57Z</time>
      </trkpt>
      <trkpt lat="44.46617" lon="5.47571">
        <ele>661.59997558594</ele>
        <time>2021-08-31T07:17:59Z</time>
      </trkpt>
      <trkpt lat="44.46613" lon="5.47572">
        <ele>661.79998779297</ele>
        <time>2021-08-31T07:18:01Z</time>
      </trkpt>
      <trkpt lat="44.4661" lon="5.47569">
        <ele>662</ele>
        <time>2021-08-31T07:18:03Z</time>
      </trkpt>
      <trkpt lat="44.46607" lon="5.47566">
        <ele>662.20001220703</ele>
        <time>2021-08-31T07:18:05Z</time>
      </trkpt>
      <trkpt lat="44.46606" lon="5.47564">
        <ele>662.20001220703</ele>
        <time>2021-08-31T07:18:06Z</time>
      </trkpt>
      <trkpt lat="44.46603" lon="5.47555">
        <ele>663</ele>
        <time>2021-08-31T07:18:10Z</time>
      </trkpt>
      <trkpt lat="44.46603" lon="5.47551">
        <ele>663.40002441406</ele>
        <time>2021-08-31T07:18:12Z</time>
      </trkpt>
      <trkpt lat="44.46604" lon="5.47545">
        <ele>664.20001220703</ele>
        <time>2021-08-31T07:18:15Z</time>
      </trkpt>
      <trkpt lat="44.46605" lon="5.47539">
        <ele>665</ele>
        <time>2021-08-31T07:18:18Z</time>
      </trkpt>
      <trkpt lat="44.46605" lon="5.47537">
        <ele>665.20001220703</ele>
        <time>2021-08-31T07:18:19Z</time>
      </trkpt>
      <trkpt lat="44.46606" lon="5.47535">
        <ele>665.40002441406</ele>
        <time>2021-08-31T07:18:20Z</time>
      </trkpt>
      <trkpt lat="44.46608" lon="5.47532">
        <ele>666</ele>
        <time>2021-08-31T07:18:22Z</time>
      </trkpt>
      <trkpt lat="44.46607" lon="5.47532">
        <ele>666.59997558594</ele>
        <time>2021-08-31T07:23:12Z</time>
      </trkpt>
      <trkpt lat="44.46605" lon="5.4755">
        <ele>666.40002441406</ele>
        <time>2021-08-31T07:23:17Z</time>
      </trkpt>
      <trkpt lat="44.46609" lon="5.47565">
        <ele>665.79998779297</ele>
        <time>2021-08-31T07:23:20Z</time>
      </trkpt>
      <trkpt lat="44.46612" lon="5.47569">
        <ele>665.59997558594</ele>
        <time>2021-08-31T07:23:21Z</time>
      </trkpt>
      <trkpt lat="44.46614" lon="5.47573">
        <ele>665.20001220703</ele>
        <time>2021-08-31T07:23:22Z</time>
      </trkpt>
      <trkpt lat="44.46614" lon="5.47576">
        <ele>664.79998779297</ele>
        <time>2021-08-31T07:23:23Z</time>
      </trkpt>
      <trkpt lat="44.46614" lon="5.4758">
        <ele>664.20001220703</ele>
        <time>2021-08-31T07:23:24Z</time>
      </trkpt>
      <trkpt lat="44.46613" lon="5.47584">
        <ele>663.79998779297</ele>
        <time>2021-08-31T07:23:25Z</time>
      </trkpt>
      <trkpt lat="44.4661" lon="5.47596">
        <ele>662.59997558594</ele>
        <time>2021-08-31T07:23:28Z</time>
      </trkpt>
      <trkpt lat="44.46606" lon="5.47608">
        <ele>662.20001220703</ele>
        <time>2021-08-31T07:23:31Z</time>
      </trkpt>
      <trkpt lat="44.46604" lon="5.47639">
        <ele>662</ele>
        <time>2021-08-31T07:23:37Z</time>
      </trkpt>
      <trkpt lat="44.46614" lon="5.47684">
        <ele>662</ele>
        <time>2021-08-31T07:23:45Z</time>
      </trkpt>
      <trkpt lat="44.46619" lon="5.47701">
        <ele>662</ele>
        <time>2021-08-31T07:23:48Z</time>
      </trkpt>
      <trkpt lat="44.46625" lon="5.47724">
        <ele>662</ele>
        <time>2021-08-31T07:23:52Z</time>
      </trkpt>
      <trkpt lat="44.46628" lon="5.47735">
        <ele>661.79998779297</ele>
        <time>2021-08-31T07:23:54Z</time>
      </trkpt>
      <trkpt lat="44.46634" lon="5.47751">
        <ele>661.79998779297</ele>
        <time>2021-08-31T07:23:57Z</time>
      </trkpt>
      <trkpt lat="44.46635" lon="5.47762">
        <ele>661.79998779297</ele>
        <time>2021-08-31T07:23:59Z</time>
      </trkpt>
      <trkpt lat="44.46631" lon="5.47781">
        <ele>661.79998779297</ele>
        <time>2021-08-31T07:24:03Z</time>
      </trkpt>
      <trkpt lat="44.4662" lon="5.47787">
        <ele>662.20001220703</ele>
        <time>2021-08-31T07:24:07Z</time>
      </trkpt>
      <trkpt lat="44.46615" lon="5.47785">
        <ele>663.40002441406</ele>
        <time>2021-08-31T07:24:35Z</time>
      </trkpt>
      <trkpt lat="44.4662" lon="5.47782">
        <ele>663.40002441406</ele>
        <time>2021-08-31T07:24:38Z</time>
      </trkpt>
      <trkpt lat="44.46622" lon="5.47781">
        <ele>663.20001220703</ele>
        <time>2021-08-31T07:24:39Z</time>
      </trkpt>
      <trkpt lat="44.4663" lon="5.4778">
        <ele>663.20001220703</ele>
        <time>2021-08-31T07:24:42Z</time>
      </trkpt>
      <trkpt lat="44.46633" lon="5.47777">
        <ele>663</ele>
        <time>2021-08-31T07:24:43Z</time>
      </trkpt>
      <trkpt lat="44.46641" lon="5.47769">
        <ele>662.59997558594</ele>
        <time>2021-08-31T07:24:48Z</time>
      </trkpt>
      <trkpt lat="44.46644" lon="5.47766">
        <ele>662.20001220703</ele>
        <time>2021-08-31T07:24:50Z</time>
      </trkpt>
      <trkpt lat="44.46646" lon="5.47764">
        <ele>661.40002441406</ele>
        <time>2021-08-31T07:25:34Z</time>
      </trkpt>
      <trkpt lat="44.46649" lon="5.47767">
        <ele>661.20001220703</ele>
        <time>2021-08-31T07:25:36Z</time>
      </trkpt>
      <trkpt lat="44.46662" lon="5.47771">
        <ele>661</ele>
        <time>2021-08-31T07:25:40Z</time>
      </trkpt>
      <trkpt lat="44.4667" lon="5.47774">
        <ele>661</ele>
        <time>2021-08-31T07:25:42Z</time>
      </trkpt>
      <trkpt lat="44.46679" lon="5.47777">
        <ele>660.79998779297</ele>
        <time>2021-08-31T07:25:44Z</time>
      </trkpt>
      <trkpt lat="44.46684" lon="5.47777">
        <ele>660.40002441406</ele>
        <time>2021-08-31T07:25:45Z</time>
      </trkpt>
      <trkpt lat="44.46689" lon="5.47777">
        <ele>660.20001220703</ele>
        <time>2021-08-31T07:25:46Z</time>
      </trkpt>
      <trkpt lat="44.46715" lon="5.47779">
        <ele>659.59997558594</ele>
        <time>2021-08-31T07:25:51Z</time>
      </trkpt>
      <trkpt lat="44.46725" lon="5.47778">
        <ele>659.20001220703</ele>
        <time>2021-08-31T07:25:53Z</time>
      </trkpt>
      <trkpt lat="44.46748" lon="5.47776">
        <ele>658.79998779297</ele>
        <time>2021-08-31T07:25:58Z</time>
      </trkpt>
      <trkpt lat="44.46757" lon="5.47777">
        <ele>658.79998779297</ele>
        <time>2021-08-31T07:26:00Z</time>
      </trkpt>
      <trkpt lat="44.46775" lon="5.47782">
        <ele>658.59997558594</ele>
        <time>2021-08-31T07:26:04Z</time>
      </trkpt>
      <trkpt lat="44.46805" lon="5.47788">
        <ele>658.59997558594</ele>
        <time>2021-08-31T07:26:10Z</time>
      </trkpt>
      <trkpt lat="44.46814" lon="5.47791">
        <ele>658.20001220703</ele>
        <time>2021-08-31T07:26:12Z</time>
      </trkpt>
      <trkpt lat="44.4682" lon="5.47792">
        <ele>657.59997558594</ele>
        <time>2021-08-31T07:26:14Z</time>
      </trkpt>
      <trkpt lat="44.46826" lon="5.4779">
        <ele>657.40002441406</ele>
        <time>2021-08-31T07:26:16Z</time>
      </trkpt>
      <trkpt lat="44.46831" lon="5.47784">
        <ele>657.40002441406</ele>
        <time>2021-08-31T07:26:18Z</time>
      </trkpt>
      <trkpt lat="44.46835" lon="5.47764">
        <ele>657.20001220703</ele>
        <time>2021-08-31T07:26:22Z</time>
      </trkpt>
      <trkpt lat="44.46835" lon="5.47758">
        <ele>657.20001220703</ele>
        <time>2021-08-31T07:26:23Z</time>
      </trkpt>
      <trkpt lat="44.46836" lon="5.47753">
        <ele>657</ele>
        <time>2021-08-31T07:26:24Z</time>
      </trkpt>
      <trkpt lat="44.4684" lon="5.47721">
        <ele>656.59997558594</ele>
        <time>2021-08-31T07:26:29Z</time>
      </trkpt>
      <trkpt lat="44.46847" lon="5.47673">
        <ele>656</ele>
        <time>2021-08-31T07:26:36Z</time>
      </trkpt>
      <trkpt lat="44.46849" lon="5.47659">
        <ele>655.79998779297</ele>
        <time>2021-08-31T07:26:38Z</time>
      </trkpt>
      <trkpt lat="44.46858" lon="5.47593">
        <ele>655.40002441406</ele>
        <time>2021-08-31T07:26:47Z</time>
      </trkpt>
      <trkpt lat="44.46863" lon="5.47561">
        <ele>654.79998779297</ele>
        <time>2021-08-31T07:26:51Z</time>
      </trkpt>
      <trkpt lat="44.4687" lon="5.47528">
        <ele>654.20001220703</ele>
        <time>2021-08-31T07:26:55Z</time>
      </trkpt>
      <trkpt lat="44.46872" lon="5.4752">
        <ele>654.20001220703</ele>
        <time>2021-08-31T07:26:56Z</time>
      </trkpt>
      <trkpt lat="44.46874" lon="5.47512">
        <ele>653.79998779297</ele>
        <time>2021-08-31T07:26:57Z</time>
      </trkpt>
      <trkpt lat="44.46893" lon="5.4746">
        <ele>653.20001220703</ele>
        <time>2021-08-31T07:27:04Z</time>
      </trkpt>
      <trkpt lat="44.46902" lon="5.47431">
        <ele>652.79998779297</ele>
        <time>2021-08-31T07:27:08Z</time>
      </trkpt>
      <trkpt lat="44.46906" lon="5.47406">
        <ele>652.59997558594</ele>
        <time>2021-08-31T07:27:11Z</time>
      </trkpt>
      <trkpt lat="44.46916" lon="5.47343">
        <ele>651.79998779297</ele>
        <time>2021-08-31T07:27:19Z</time>
      </trkpt>
      <trkpt lat="44.46921" lon="5.4731">
        <ele>651.59997558594</ele>
        <time>2021-08-31T07:27:23Z</time>
      </trkpt>
      <trkpt lat="44.4693" lon="5.47264">
        <ele>651.20001220703</ele>
        <time>2021-08-31T07:27:29Z</time>
      </trkpt>
      <trkpt lat="44.46939" lon="5.47234">
        <ele>651</ele>
        <time>2021-08-31T07:27:33Z</time>
      </trkpt>
      <trkpt lat="44.46942" lon="5.47227">
        <ele>650.79998779297</ele>
        <time>2021-08-31T07:27:34Z</time>
      </trkpt>
      <trkpt lat="44.46947" lon="5.47214">
        <ele>650.79998779297</ele>
        <time>2021-08-31T07:27:36Z</time>
      </trkpt>
      <trkpt lat="44.46976" lon="5.47155">
        <ele>650.79998779297</ele>
        <time>2021-08-31T07:27:46Z</time>
      </trkpt>
      <trkpt lat="44.46987" lon="5.47116">
        <ele>651</ele>
        <time>2021-08-31T07:27:52Z</time>
      </trkpt>
      <trkpt lat="44.46983" lon="5.47093">
        <ele>650.79998779297</ele>
        <time>2021-08-31T07:27:55Z</time>
      </trkpt>
      <trkpt lat="44.46975" lon="5.47079">
        <ele>650.40002441406</ele>
        <time>2021-08-31T07:27:57Z</time>
      </trkpt>
      <trkpt lat="44.46965" lon="5.47058">
        <ele>650</ele>
        <time>2021-08-31T07:28:00Z</time>
      </trkpt>
      <trkpt lat="44.46961" lon="5.4705">
        <ele>649.79998779297</ele>
        <time>2021-08-31T07:28:01Z</time>
      </trkpt>
      <trkpt lat="44.46945" lon="5.47013">
        <ele>649</ele>
        <time>2021-08-31T07:28:06Z</time>
      </trkpt>
      <trkpt lat="44.46943" lon="5.46986">
        <ele>648.59997558594</ele>
        <time>2021-08-31T07:28:09Z</time>
      </trkpt>
      <trkpt lat="44.46943" lon="5.46977">
        <ele>648.59997558594</ele>
        <time>2021-08-31T07:28:10Z</time>
      </trkpt>
      <trkpt lat="44.46942" lon="5.46909">
        <ele>648.20001220703</ele>
        <time>2021-08-31T07:28:18Z</time>
      </trkpt>
      <trkpt lat="44.46943" lon="5.46854">
        <ele>648</ele>
        <time>2021-08-31T07:28:25Z</time>
      </trkpt>
      <trkpt lat="44.46953" lon="5.46803">
        <ele>647.59997558594</ele>
        <time>2021-08-31T07:28:32Z</time>
      </trkpt>
      <trkpt lat="44.46955" lon="5.46796">
        <ele>647.59997558594</ele>
        <time>2021-08-31T07:28:33Z</time>
      </trkpt>
      <trkpt lat="44.46966" lon="5.46763">
        <ele>647.59997558594</ele>
        <time>2021-08-31T07:28:38Z</time>
      </trkpt>
      <trkpt lat="44.46982" lon="5.4671">
        <ele>647.59997558594</ele>
        <time>2021-08-31T07:28:46Z</time>
      </trkpt>
      <trkpt lat="44.4699" lon="5.46676">
        <ele>647.79998779297</ele>
        <time>2021-08-31T07:28:51Z</time>
      </trkpt>
      <trkpt lat="44.46992" lon="5.46662">
        <ele>647.79998779297</ele>
        <time>2021-08-31T07:28:53Z</time>
      </trkpt>
      <trkpt lat="44.46998" lon="5.46591">
        <ele>648</ele>
        <time>2021-08-31T07:29:03Z</time>
      </trkpt>
      <trkpt lat="44.47006" lon="5.46527">
        <ele>648</ele>
        <time>2021-08-31T07:29:12Z</time>
      </trkpt>
      <trkpt lat="44.4702" lon="5.4645">
        <ele>647.40002441406</ele>
        <time>2021-08-31T07:29:22Z</time>
      </trkpt>
      <trkpt lat="44.47035" lon="5.46385">
        <ele>646.59997558594</ele>
        <time>2021-08-31T07:29:30Z</time>
      </trkpt>
      <trkpt lat="44.47051" lon="5.46328">
        <ele>645.40002441406</ele>
        <time>2021-08-31T07:29:37Z</time>
      </trkpt>
      <trkpt lat="44.47052" lon="5.46319">
        <ele>645.20001220703</ele>
        <time>2021-08-31T07:29:38Z</time>
      </trkpt>
      <trkpt lat="44.47055" lon="5.46274">
        <ele>644.40002441406</ele>
        <time>2021-08-31T07:29:43Z</time>
      </trkpt>
      <trkpt lat="44.47058" lon="5.46256">
        <ele>644</ele>
        <time>2021-08-31T07:29:45Z</time>
      </trkpt>
      <trkpt lat="44.47069" lon="5.46211">
        <ele>643.20001220703</ele>
        <time>2021-08-31T07:29:50Z</time>
      </trkpt>
      <trkpt lat="44.47074" lon="5.46204">
        <ele>643</ele>
        <time>2021-08-31T07:29:51Z</time>
      </trkpt>
      <trkpt lat="44.47093" lon="5.46196">
        <ele>642.40002441406</ele>
        <time>2021-08-31T07:29:54Z</time>
      </trkpt>
      <trkpt lat="44.47112" lon="5.46199">
        <ele>642</ele>
        <time>2021-08-31T07:29:57Z</time>
      </trkpt>
      <trkpt lat="44.47124" lon="5.46203">
        <ele>642</ele>
        <time>2021-08-31T07:29:59Z</time>
      </trkpt>
      <trkpt lat="44.47176" lon="5.46214">
        <ele>641.79998779297</ele>
        <time>2021-08-31T07:30:08Z</time>
      </trkpt>
      <trkpt lat="44.47187" lon="5.46215">
        <ele>641.59997558594</ele>
        <time>2021-08-31T07:30:10Z</time>
      </trkpt>
      <trkpt lat="44.47202" lon="5.46209">
        <ele>641.59997558594</ele>
        <time>2021-08-31T07:30:13Z</time>
      </trkpt>
      <trkpt lat="44.47207" lon="5.46206">
        <ele>641.59997558594</ele>
        <time>2021-08-31T07:30:14Z</time>
      </trkpt>
      <trkpt lat="44.47231" lon="5.46188">
        <ele>641.59997558594</ele>
        <time>2021-08-31T07:30:19Z</time>
      </trkpt>
      <trkpt lat="44.47278" lon="5.46152">
        <ele>641.59997558594</ele>
        <time>2021-08-31T07:30:29Z</time>
      </trkpt>
      <trkpt lat="44.47312" lon="5.46118">
        <ele>641.40002441406</ele>
        <time>2021-08-31T07:30:37Z</time>
      </trkpt>
      <trkpt lat="44.47316" lon="5.46113">
        <ele>641.40002441406</ele>
        <time>2021-08-31T07:30:38Z</time>
      </trkpt>
      <trkpt lat="44.47336" lon="5.46074">
        <ele>641.59997558594</ele>
        <time>2021-08-31T07:30:45Z</time>
      </trkpt>
      <trkpt lat="44.4735" lon="5.46052">
        <ele>641.59997558594</ele>
        <time>2021-08-31T07:30:49Z</time>
      </trkpt>
      <trkpt lat="44.47362" lon="5.46038">
        <ele>641.59997558594</ele>
        <time>2021-08-31T07:30:52Z</time>
      </trkpt>
      <trkpt lat="44.47388" lon="5.45997">
        <ele>642</ele>
        <time>2021-08-31T07:31:00Z</time>
      </trkpt>
      <trkpt lat="44.47403" lon="5.45951">
        <ele>642</ele>
        <time>2021-08-31T07:31:07Z</time>
      </trkpt>
      <trkpt lat="44.47406" lon="5.45913">
        <ele>641.59997558594</ele>
        <time>2021-08-31T07:31:12Z</time>
      </trkpt>
      <trkpt lat="44.47404" lon="5.45905">
        <ele>641.59997558594</ele>
        <time>2021-08-31T07:31:13Z</time>
      </trkpt>
      <trkpt lat="44.4739" lon="5.45875">
        <ele>640.79998779297</ele>
        <time>2021-08-31T07:31:17Z</time>
      </trkpt>
      <trkpt lat="44.47366" lon="5.45859">
        <ele>640</ele>
        <time>2021-08-31T07:31:21Z</time>
      </trkpt>
      <trkpt lat="44.4736" lon="5.45855">
        <ele>639.59997558594</ele>
        <time>2021-08-31T07:31:22Z</time>
      </trkpt>
      <trkpt lat="44.47347" lon="5.45848">
        <ele>639.40002441406</ele>
        <time>2021-08-31T07:31:24Z</time>
      </trkpt>
      <trkpt lat="44.47336" lon="5.45836">
        <ele>638.79998779297</ele>
        <time>2021-08-31T07:31:26Z</time>
      </trkpt>
      <trkpt lat="44.4733" lon="5.4583">
        <ele>638.59997558594</ele>
        <time>2021-08-31T07:31:27Z</time>
      </trkpt>
      <trkpt lat="44.47309" lon="5.45801">
        <ele>637.59997558594</ele>
        <time>2021-08-31T07:31:31Z</time>
      </trkpt>
      <trkpt lat="44.47304" lon="5.45795">
        <ele>637.40002441406</ele>
        <time>2021-08-31T07:31:32Z</time>
      </trkpt>
      <trkpt lat="44.47282" lon="5.4577">
        <ele>636.20001220703</ele>
        <time>2021-08-31T07:31:36Z</time>
      </trkpt>
      <trkpt lat="44.47265" lon="5.45755">
        <ele>635.40002441406</ele>
        <time>2021-08-31T07:31:39Z</time>
      </trkpt>
      <trkpt lat="44.47254" lon="5.45746">
        <ele>635</ele>
        <time>2021-08-31T07:31:41Z</time>
      </trkpt>
      <trkpt lat="44.47219" lon="5.45708">
        <ele>634.40002441406</ele>
        <time>2021-08-31T07:31:48Z</time>
      </trkpt>
      <trkpt lat="44.47196" lon="5.45667">
        <ele>634</ele>
        <time>2021-08-31T07:31:54Z</time>
      </trkpt>
      <trkpt lat="44.47192" lon="5.4566">
        <ele>634</ele>
        <time>2021-08-31T07:31:55Z</time>
      </trkpt>
      <trkpt lat="44.47178" lon="5.45631">
        <ele>633.79998779297</ele>
        <time>2021-08-31T07:31:59Z</time>
      </trkpt>
      <trkpt lat="44.47155" lon="5.4558">
        <ele>633.40002441406</ele>
        <time>2021-08-31T07:32:06Z</time>
      </trkpt>
      <trkpt lat="44.47146" lon="5.45539">
        <ele>633</ele>
        <time>2021-08-31T07:32:11Z</time>
      </trkpt>
      <trkpt lat="44.47143" lon="5.45522">
        <ele>633</ele>
        <time>2021-08-31T07:32:13Z</time>
      </trkpt>
      <trkpt lat="44.47134" lon="5.45473">
        <ele>632.59997558594</ele>
        <time>2021-08-31T07:32:19Z</time>
      </trkpt>
      <trkpt lat="44.4712" lon="5.45399">
        <ele>632</ele>
        <time>2021-08-31T07:32:28Z</time>
      </trkpt>
      <trkpt lat="44.47117" lon="5.45383">
        <ele>632</ele>
        <time>2021-08-31T07:32:30Z</time>
      </trkpt>
      <trkpt lat="44.47102" lon="5.45318">
        <ele>631.40002441406</ele>
        <time>2021-08-31T07:32:38Z</time>
      </trkpt>
      <trkpt lat="44.47087" lon="5.45264">
        <ele>631</ele>
        <time>2021-08-31T07:32:45Z</time>
      </trkpt>
      <trkpt lat="44.47081" lon="5.4525">
        <ele>631</ele>
        <time>2021-08-31T07:32:47Z</time>
      </trkpt>
      <trkpt lat="44.47062" lon="5.45208">
        <ele>630.59997558594</ele>
        <time>2021-08-31T07:32:53Z</time>
      </trkpt>
      <trkpt lat="44.47035" lon="5.45155">
        <ele>630.40002441406</ele>
        <time>2021-08-31T07:33:01Z</time>
      </trkpt>
      <trkpt lat="44.47012" lon="5.45114">
        <ele>630.40002441406</ele>
        <time>2021-08-31T07:33:08Z</time>
      </trkpt>
      <trkpt lat="44.4699" lon="5.45074">
        <ele>630.20001220703</ele>
        <time>2021-08-31T07:33:15Z</time>
      </trkpt>
      <trkpt lat="44.46981" lon="5.4506">
        <ele>630.20001220703</ele>
        <time>2021-08-31T07:33:18Z</time>
      </trkpt>
      <trkpt lat="44.46974" lon="5.45048">
        <ele>630</ele>
        <time>2021-08-31T07:33:21Z</time>
      </trkpt>
      <trkpt lat="44.46971" lon="5.45025">
        <ele>630</ele>
        <time>2021-08-31T07:33:26Z</time>
      </trkpt>
      <trkpt lat="44.46973" lon="5.45019">
        <ele>629.79998779297</ele>
        <time>2021-08-31T07:33:27Z</time>
      </trkpt>
      <trkpt lat="44.46982" lon="5.45005">
        <ele>629.79998779297</ele>
        <time>2021-08-31T07:33:30Z</time>
      </trkpt>
      <trkpt lat="44.46992" lon="5.44992">
        <ele>629.79998779297</ele>
        <time>2021-08-31T07:33:33Z</time>
      </trkpt>
      <trkpt lat="44.47001" lon="5.44985">
        <ele>629.79998779297</ele>
        <time>2021-08-31T07:33:36Z</time>
      </trkpt>
      <trkpt lat="44.47013" lon="5.44978">
        <ele>629.59997558594</ele>
        <time>2021-08-31T07:33:42Z</time>
      </trkpt>
      <trkpt lat="44.47021" lon="5.44979">
        <ele>629.40002441406</ele>
        <time>2021-08-31T07:33:45Z</time>
      </trkpt>
      <trkpt lat="44.47024" lon="5.44982">
        <ele>629.59997558594</ele>
        <time>2021-08-31T07:33:46Z</time>
      </trkpt>
      <trkpt lat="44.47037" lon="5.44994">
        <ele>629.59997558594</ele>
        <time>2021-08-31T07:33:50Z</time>
      </trkpt>
      <trkpt lat="44.4704" lon="5.44999">
        <ele>629.59997558594</ele>
        <time>2021-08-31T07:33:51Z</time>
      </trkpt>
      <trkpt lat="44.47054" lon="5.45033">
        <ele>630</ele>
        <time>2021-08-31T07:33:58Z</time>
      </trkpt>
      <trkpt lat="44.47069" lon="5.45071">
        <ele>630.40002441406</ele>
        <time>2021-08-31T07:34:05Z</time>
      </trkpt>
      <trkpt lat="44.47089" lon="5.45108">
        <ele>630</ele>
        <time>2021-08-31T07:34:11Z</time>
      </trkpt>
      <trkpt lat="44.47099" lon="5.45129">
        <ele>629.59997558594</ele>
        <time>2021-08-31T07:34:14Z</time>
      </trkpt>
      <trkpt lat="44.47107" lon="5.45137">
        <ele>629.20001220703</ele>
        <time>2021-08-31T07:34:16Z</time>
      </trkpt>
      <trkpt lat="44.47116" lon="5.45135">
        <ele>628.79998779297</ele>
        <time>2021-08-31T07:34:18Z</time>
      </trkpt>
      <trkpt lat="44.47119" lon="5.45134">
        <ele>628.59997558594</ele>
        <time>2021-08-31T07:34:19Z</time>
      </trkpt>
      <trkpt lat="44.47128" lon="5.45141">
        <ele>627.79998779297</ele>
        <time>2021-08-31T07:34:22Z</time>
      </trkpt>
      <trkpt lat="44.47132" lon="5.4515">
        <ele>627.59997558594</ele>
        <time>2021-08-31T07:34:24Z</time>
      </trkpt>
      <trkpt lat="44.47137" lon="5.4516">
        <ele>627.40002441406</ele>
        <time>2021-08-31T07:34:26Z</time>
      </trkpt>
      <trkpt lat="44.4714" lon="5.45165">
        <ele>627.40002441406</ele>
        <time>2021-08-31T07:34:27Z</time>
      </trkpt>
      <trkpt lat="44.47168" lon="5.45198">
        <ele>627</ele>
        <time>2021-08-31T07:34:34Z</time>
      </trkpt>
      <trkpt lat="44.47195" lon="5.45227">
        <ele>627</ele>
        <time>2021-08-31T07:34:41Z</time>
      </trkpt>
      <trkpt lat="44.4722" lon="5.45253">
        <ele>627.59997558594</ele>
        <time>2021-08-31T07:34:48Z</time>
      </trkpt>
      <trkpt lat="44.47246" lon="5.45274">
        <ele>628.20001220703</ele>
        <time>2021-08-31T07:34:55Z</time>
      </trkpt>
      <trkpt lat="44.4725" lon="5.45277">
        <ele>628.20001220703</ele>
        <time>2021-08-31T07:34:56Z</time>
      </trkpt>
      <trkpt lat="44.47277" lon="5.45287">
        <ele>628.79998779297</ele>
        <time>2021-08-31T07:35:03Z</time>
      </trkpt>
      <trkpt lat="44.47281" lon="5.45289">
        <ele>629</ele>
        <time>2021-08-31T07:35:04Z</time>
      </trkpt>
      <trkpt lat="44.47311" lon="5.45303">
        <ele>629.40002441406</ele>
        <time>2021-08-31T07:35:12Z</time>
      </trkpt>
      <trkpt lat="44.47332" lon="5.45321">
        <ele>629.79998779297</ele>
        <time>2021-08-31T07:35:18Z</time>
      </trkpt>
      <trkpt lat="44.47339" lon="5.45328">
        <ele>630</ele>
        <time>2021-08-31T07:35:20Z</time>
      </trkpt>
      <trkpt lat="44.47357" lon="5.4536">
        <ele>630.59997558594</ele>
        <time>2021-08-31T07:35:27Z</time>
      </trkpt>
      <trkpt lat="44.47361" lon="5.4537">
        <ele>631</ele>
        <time>2021-08-31T07:35:29Z</time>
      </trkpt>
      <trkpt lat="44.47371" lon="5.45388">
        <ele>631.20001220703</ele>
        <time>2021-08-31T07:35:33Z</time>
      </trkpt>
      <trkpt lat="44.47373" lon="5.45392">
        <ele>631.40002441406</ele>
        <time>2021-08-31T07:35:34Z</time>
      </trkpt>
      <trkpt lat="44.47381" lon="5.45405">
        <ele>631.79998779297</ele>
        <time>2021-08-31T07:35:37Z</time>
      </trkpt>
      <trkpt lat="44.47391" lon="5.45416">
        <ele>632</ele>
        <time>2021-08-31T07:35:40Z</time>
      </trkpt>
      <trkpt lat="44.47398" lon="5.45422">
        <ele>632.20001220703</ele>
        <time>2021-08-31T07:35:42Z</time>
      </trkpt>
      <trkpt lat="44.47427" lon="5.45441">
        <ele>633</ele>
        <time>2021-08-31T07:35:50Z</time>
      </trkpt>
      <trkpt lat="44.47434" lon="5.45445">
        <ele>633</ele>
        <time>2021-08-31T07:35:52Z</time>
      </trkpt>
      <trkpt lat="44.47461" lon="5.4546">
        <ele>633.59997558594</ele>
        <time>2021-08-31T07:35:59Z</time>
      </trkpt>
      <trkpt lat="44.4748" lon="5.45471">
        <ele>634</ele>
        <time>2021-08-31T07:36:04Z</time>
      </trkpt>
      <trkpt lat="44.47495" lon="5.45479">
        <ele>634.40002441406</ele>
        <time>2021-08-31T07:36:08Z</time>
      </trkpt>
      <trkpt lat="44.47514" lon="5.45486">
        <ele>635</ele>
        <time>2021-08-31T07:36:13Z</time>
      </trkpt>
      <trkpt lat="44.47518" lon="5.45485">
        <ele>635.20001220703</ele>
        <time>2021-08-31T07:36:14Z</time>
      </trkpt>
      <trkpt lat="44.47538" lon="5.45476">
        <ele>635.59997558594</ele>
        <time>2021-08-31T07:36:19Z</time>
      </trkpt>
      <trkpt lat="44.47545" lon="5.4547">
        <ele>635.79998779297</ele>
        <time>2021-08-31T07:36:21Z</time>
      </trkpt>
      <trkpt lat="44.47562" lon="5.45448">
        <ele>636.20001220703</ele>
        <time>2021-08-31T07:36:27Z</time>
      </trkpt>
      <trkpt lat="44.47564" lon="5.45444">
        <ele>636.20001220703</ele>
        <time>2021-08-31T07:36:28Z</time>
      </trkpt>
      <trkpt lat="44.47579" lon="5.45414">
        <ele>637.20001220703</ele>
        <time>2021-08-31T07:36:35Z</time>
      </trkpt>
      <trkpt lat="44.47594" lon="5.45386">
        <ele>637.79998779297</ele>
        <time>2021-08-31T07:36:42Z</time>
      </trkpt>
      <trkpt lat="44.47601" lon="5.45376">
        <ele>638.20001220703</ele>
        <time>2021-08-31T07:36:45Z</time>
      </trkpt>
      <trkpt lat="44.47612" lon="5.45358">
        <ele>638.79998779297</ele>
        <time>2021-08-31T07:36:50Z</time>
      </trkpt>
      <trkpt lat="44.47623" lon="5.4534">
        <ele>639.40002441406</ele>
        <time>2021-08-31T07:36:55Z</time>
      </trkpt>
      <trkpt lat="44.4763" lon="5.45328">
        <ele>639.79998779297</ele>
        <time>2021-08-31T07:36:58Z</time>
      </trkpt>
      <trkpt lat="44.47639" lon="5.45315">
        <ele>640.40002441406</ele>
        <time>2021-08-31T07:37:02Z</time>
      </trkpt>
      <trkpt lat="44.47646" lon="5.45304">
        <ele>640.79998779297</ele>
        <time>2021-08-31T07:37:05Z</time>
      </trkpt>
      <trkpt lat="44.4766" lon="5.45284">
        <ele>641.59997558594</ele>
        <time>2021-08-31T07:37:11Z</time>
      </trkpt>
      <trkpt lat="44.47666" lon="5.45279">
        <ele>641.79998779297</ele>
        <time>2021-08-31T07:37:13Z</time>
      </trkpt>
      <trkpt lat="44.4768" lon="5.45267">
        <ele>642.59997558594</ele>
        <time>2021-08-31T07:37:18Z</time>
      </trkpt>
      <trkpt lat="44.47692" lon="5.45259">
        <ele>643.20001220703</ele>
        <time>2021-08-31T07:37:22Z</time>
      </trkpt>
      <trkpt lat="44.477" lon="5.45254">
        <ele>643.59997558594</ele>
        <time>2021-08-31T07:37:25Z</time>
      </trkpt>
      <trkpt lat="44.47717" lon="5.45241">
        <ele>644.40002441406</ele>
        <time>2021-08-31T07:37:31Z</time>
      </trkpt>
      <trkpt lat="44.47722" lon="5.45236">
        <ele>644.79998779297</ele>
        <time>2021-08-31T07:37:33Z</time>
      </trkpt>
      <trkpt lat="44.47737" lon="5.4522">
        <ele>645.40002441406</ele>
        <time>2021-08-31T07:37:39Z</time>
      </trkpt>
      <trkpt lat="44.47748" lon="5.45212">
        <ele>645.79998779297</ele>
        <time>2021-08-31T07:37:43Z</time>
      </trkpt>
      <trkpt lat="44.47757" lon="5.45208">
        <ele>646.20001220703</ele>
        <time>2021-08-31T07:37:46Z</time>
      </trkpt>
      <trkpt lat="44.4778" lon="5.45212">
        <ele>646.79998779297</ele>
        <time>2021-08-31T07:37:52Z</time>
      </trkpt>
      <trkpt lat="44.47811" lon="5.4522">
        <ele>647.59997558594</ele>
        <time>2021-08-31T07:38:01Z</time>
      </trkpt>
      <trkpt lat="44.47818" lon="5.45221">
        <ele>648</ele>
        <time>2021-08-31T07:38:03Z</time>
      </trkpt>
      <trkpt lat="44.47836" lon="5.45225">
        <ele>648.79998779297</ele>
        <time>2021-08-31T07:38:09Z</time>
      </trkpt>
      <trkpt lat="44.4784" lon="5.45225">
        <ele>649</ele>
        <time>2021-08-31T07:38:10Z</time>
      </trkpt>
      <trkpt lat="44.47861" lon="5.45221">
        <ele>650.20001220703</ele>
        <time>2021-08-31T07:38:17Z</time>
      </trkpt>
      <trkpt lat="44.47878" lon="5.45213">
        <ele>651</ele>
        <time>2021-08-31T07:38:23Z</time>
      </trkpt>
      <trkpt lat="44.47881" lon="5.45212">
        <ele>651.20001220703</ele>
        <time>2021-08-31T07:38:24Z</time>
      </trkpt>
      <trkpt lat="44.47899" lon="5.45201">
        <ele>652</ele>
        <time>2021-08-31T07:38:31Z</time>
      </trkpt>
      <trkpt lat="44.47904" lon="5.45193">
        <ele>652.59997558594</ele>
        <time>2021-08-31T07:38:34Z</time>
      </trkpt>
      <trkpt lat="44.47915" lon="5.45175">
        <ele>653.40002441406</ele>
        <time>2021-08-31T07:38:40Z</time>
      </trkpt>
      <trkpt lat="44.47918" lon="5.45169">
        <ele>653.59997558594</ele>
        <time>2021-08-31T07:38:42Z</time>
      </trkpt>
      <trkpt lat="44.47928" lon="5.45159">
        <ele>654.40002441406</ele>
        <time>2021-08-31T07:38:47Z</time>
      </trkpt>
      <trkpt lat="44.47932" lon="5.45155">
        <ele>654.79998779297</ele>
        <time>2021-08-31T07:38:49Z</time>
      </trkpt>
      <trkpt lat="44.47945" lon="5.45151">
        <ele>656</ele>
        <time>2021-08-31T07:38:55Z</time>
      </trkpt>
      <trkpt lat="44.47959" lon="5.4515">
        <ele>657</ele>
        <time>2021-08-31T07:39:01Z</time>
      </trkpt>
      <trkpt lat="44.47968" lon="5.45151">
        <ele>657.59997558594</ele>
        <time>2021-08-31T07:39:05Z</time>
      </trkpt>
      <trkpt lat="44.47971" lon="5.45151">
        <ele>658</ele>
        <time>2021-08-31T07:39:07Z</time>
      </trkpt>
      <trkpt lat="44.47984" lon="5.45152">
        <ele>658.79998779297</ele>
        <time>2021-08-31T07:39:13Z</time>
      </trkpt>
      <trkpt lat="44.47988" lon="5.45152">
        <ele>659.20001220703</ele>
        <time>2021-08-31T07:39:15Z</time>
      </trkpt>
      <trkpt lat="44.48003" lon="5.45152">
        <ele>660.20001220703</ele>
        <time>2021-08-31T07:39:22Z</time>
      </trkpt>
      <trkpt lat="44.48005" lon="5.45151">
        <ele>660.40002441406</ele>
        <time>2021-08-31T07:39:23Z</time>
      </trkpt>
      <trkpt lat="44.48017" lon="5.45149">
        <ele>661.20001220703</ele>
        <time>2021-08-31T07:39:29Z</time>
      </trkpt>
      <trkpt lat="44.48023" lon="5.45148">
        <ele>661.59997558594</ele>
        <time>2021-08-31T07:39:32Z</time>
      </trkpt>
      <trkpt lat="44.4803" lon="5.45144">
        <ele>662.40002441406</ele>
        <time>2021-08-31T07:39:36Z</time>
      </trkpt>
      <trkpt lat="44.48036" lon="5.45141">
        <ele>662.79998779297</ele>
        <time>2021-08-31T07:39:39Z</time>
      </trkpt>
      <trkpt lat="44.48044" lon="5.45138">
        <ele>663.40002441406</ele>
        <time>2021-08-31T07:39:43Z</time>
      </trkpt>
      <trkpt lat="44.48051" lon="5.45131">
        <ele>664.20001220703</ele>
        <time>2021-08-31T07:39:47Z</time>
      </trkpt>
      <trkpt lat="44.48054" lon="5.45129">
        <ele>664.59997558594</ele>
        <time>2021-08-31T07:39:49Z</time>
      </trkpt>
      <trkpt lat="44.48062" lon="5.45121">
        <ele>665.20001220703</ele>
        <time>2021-08-31T07:39:54Z</time>
      </trkpt>
      <trkpt lat="44.48065" lon="5.45117">
        <ele>665.59997558594</ele>
        <time>2021-08-31T07:39:56Z</time>
      </trkpt>
      <trkpt lat="44.48075" lon="5.45107">
        <ele>666.59997558594</ele>
        <time>2021-08-31T07:40:02Z</time>
      </trkpt>
      <trkpt lat="44.48076" lon="5.45106">
        <ele>666.79998779297</ele>
        <time>2021-08-31T07:40:03Z</time>
      </trkpt>
      <trkpt lat="44.48083" lon="5.45097">
        <ele>667.59997558594</ele>
        <time>2021-08-31T07:40:08Z</time>
      </trkpt>
      <trkpt lat="44.48086" lon="5.45094">
        <ele>668.20001220703</ele>
        <time>2021-08-31T07:40:10Z</time>
      </trkpt>
      <trkpt lat="44.4809" lon="5.45085">
        <ele>668.79998779297</ele>
        <time>2021-08-31T07:40:14Z</time>
      </trkpt>
      <trkpt lat="44.48095" lon="5.45078">
        <ele>669.59997558594</ele>
        <time>2021-08-31T07:40:18Z</time>
      </trkpt>
      <trkpt lat="44.48098" lon="5.45074">
        <ele>670</ele>
        <time>2021-08-31T07:40:20Z</time>
      </trkpt>
      <trkpt lat="44.48104" lon="5.45065">
        <ele>670.59997558594</ele>
        <time>2021-08-31T07:40:25Z</time>
      </trkpt>
      <trkpt lat="44.48106" lon="5.45061">
        <ele>671</ele>
        <time>2021-08-31T07:40:27Z</time>
      </trkpt>
      <trkpt lat="44.48113" lon="5.45051">
        <ele>672</ele>
        <time>2021-08-31T07:40:33Z</time>
      </trkpt>
      <trkpt lat="44.4812" lon="5.45043">
        <ele>673</ele>
        <time>2021-08-31T07:40:38Z</time>
      </trkpt>
      <trkpt lat="44.48124" lon="5.45036">
        <ele>673.59997558594</ele>
        <time>2021-08-31T07:40:42Z</time>
      </trkpt>
      <trkpt lat="44.48128" lon="5.45031">
        <ele>674.40002441406</ele>
        <time>2021-08-31T07:40:45Z</time>
      </trkpt>
      <trkpt lat="44.48133" lon="5.45024">
        <ele>675</ele>
        <time>2021-08-31T07:40:49Z</time>
      </trkpt>
      <trkpt lat="44.48135" lon="5.45021">
        <ele>675.40002441406</ele>
        <time>2021-08-31T07:40:51Z</time>
      </trkpt>
      <trkpt lat="44.48143" lon="5.45011">
        <ele>676.40002441406</ele>
        <time>2021-08-31T07:40:57Z</time>
      </trkpt>
      <trkpt lat="44.48149" lon="5.44999">
        <ele>677.59997558594</ele>
        <time>2021-08-31T07:41:03Z</time>
      </trkpt>
      <trkpt lat="44.48151" lon="5.44997">
        <ele>677.59997558594</ele>
        <time>2021-08-31T07:41:04Z</time>
      </trkpt>
      <trkpt lat="44.48159" lon="5.44985">
        <ele>678.59997558594</ele>
        <time>2021-08-31T07:41:11Z</time>
      </trkpt>
      <trkpt lat="44.4816" lon="5.44983">
        <ele>678.79998779297</ele>
        <time>2021-08-31T07:41:12Z</time>
      </trkpt>
      <trkpt lat="44.48166" lon="5.4497">
        <ele>679.79998779297</ele>
        <time>2021-08-31T07:41:18Z</time>
      </trkpt>
      <trkpt lat="44.4817" lon="5.44961">
        <ele>680.40002441406</ele>
        <time>2021-08-31T07:41:22Z</time>
      </trkpt>
      <trkpt lat="44.48172" lon="5.44957">
        <ele>680.79998779297</ele>
        <time>2021-08-31T07:41:24Z</time>
      </trkpt>
      <trkpt lat="44.48177" lon="5.44941">
        <ele>681.79998779297</ele>
        <time>2021-08-31T07:41:31Z</time>
      </trkpt>
      <trkpt lat="44.48178" lon="5.44939">
        <ele>681.79998779297</ele>
        <time>2021-08-31T07:41:32Z</time>
      </trkpt>
      <trkpt lat="44.48184" lon="5.44925">
        <ele>682.59997558594</ele>
        <time>2021-08-31T07:41:38Z</time>
      </trkpt>
      <trkpt lat="44.48185" lon="5.44921">
        <ele>683</ele>
        <time>2021-08-31T07:41:40Z</time>
      </trkpt>
      <trkpt lat="44.48191" lon="5.44907">
        <ele>683.79998779297</ele>
        <time>2021-08-31T07:41:46Z</time>
      </trkpt>
      <trkpt lat="44.48192" lon="5.44905">
        <ele>684</ele>
        <time>2021-08-31T07:41:47Z</time>
      </trkpt>
      <trkpt lat="44.48202" lon="5.44892">
        <ele>684.79998779297</ele>
        <time>2021-08-31T07:41:54Z</time>
      </trkpt>
      <trkpt lat="44.48205" lon="5.44889">
        <ele>685.20001220703</ele>
        <time>2021-08-31T07:41:56Z</time>
      </trkpt>
      <trkpt lat="44.48216" lon="5.44883">
        <ele>686.20001220703</ele>
        <time>2021-08-31T07:42:02Z</time>
      </trkpt>
      <trkpt lat="44.48217" lon="5.44882">
        <ele>686.20001220703</ele>
        <time>2021-08-31T07:42:03Z</time>
      </trkpt>
      <trkpt lat="44.4823" lon="5.44877">
        <ele>687.59997558594</ele>
        <time>2021-08-31T07:42:10Z</time>
      </trkpt>
      <trkpt lat="44.48232" lon="5.44876">
        <ele>687.59997558594</ele>
        <time>2021-08-31T07:42:11Z</time>
      </trkpt>
      <trkpt lat="44.4824" lon="5.44877">
        <ele>688.59997558594</ele>
        <time>2021-08-31T07:42:16Z</time>
      </trkpt>
      <trkpt lat="44.48247" lon="5.44877">
        <ele>689.20001220703</ele>
        <time>2021-08-31T07:42:20Z</time>
      </trkpt>
      <trkpt lat="44.48253" lon="5.44878">
        <ele>689.59997558594</ele>
        <time>2021-08-31T07:42:23Z</time>
      </trkpt>
      <trkpt lat="44.48266" lon="5.4488">
        <ele>690.59997558594</ele>
        <time>2021-08-31T07:42:30Z</time>
      </trkpt>
      <trkpt lat="44.48281" lon="5.4488">
        <ele>691.79998779297</ele>
        <time>2021-08-31T07:42:37Z</time>
      </trkpt>
      <trkpt lat="44.48294" lon="5.44877">
        <ele>692.59997558594</ele>
        <time>2021-08-31T07:42:44Z</time>
      </trkpt>
      <trkpt lat="44.48296" lon="5.44876">
        <ele>692.79998779297</ele>
        <time>2021-08-31T07:42:45Z</time>
      </trkpt>
      <trkpt lat="44.48308" lon="5.44868">
        <ele>693.59997558594</ele>
        <time>2021-08-31T07:42:52Z</time>
      </trkpt>
      <trkpt lat="44.4831" lon="5.44867">
        <ele>693.79998779297</ele>
        <time>2021-08-31T07:42:53Z</time>
      </trkpt>
      <trkpt lat="44.48324" lon="5.44856">
        <ele>694.79998779297</ele>
        <time>2021-08-31T07:43:01Z</time>
      </trkpt>
      <trkpt lat="44.48337" lon="5.44845">
        <ele>695.79998779297</ele>
        <time>2021-08-31T07:43:09Z</time>
      </trkpt>
      <trkpt lat="44.48352" lon="5.44836">
        <ele>696.79998779297</ele>
        <time>2021-08-31T07:43:17Z</time>
      </trkpt>
      <trkpt lat="44.48354" lon="5.44836">
        <ele>697</ele>
        <time>2021-08-31T07:43:18Z</time>
      </trkpt>
      <trkpt lat="44.48366" lon="5.44828">
        <ele>698</ele>
        <time>2021-08-31T07:43:25Z</time>
      </trkpt>
      <trkpt lat="44.48381" lon="5.44823">
        <ele>699.20001220703</ele>
        <time>2021-08-31T07:43:33Z</time>
      </trkpt>
      <trkpt lat="44.48395" lon="5.4482">
        <ele>700</ele>
        <time>2021-08-31T07:43:40Z</time>
      </trkpt>
      <trkpt lat="44.48397" lon="5.44819">
        <ele>700.20001220703</ele>
        <time>2021-08-31T07:43:41Z</time>
      </trkpt>
      <trkpt lat="44.4841" lon="5.44817">
        <ele>701.20001220703</ele>
        <time>2021-08-31T07:43:48Z</time>
      </trkpt>
      <trkpt lat="44.48423" lon="5.44817">
        <ele>702.40002441406</ele>
        <time>2021-08-31T07:43:55Z</time>
      </trkpt>
      <trkpt lat="44.48429" lon="5.44819">
        <ele>702.79998779297</ele>
        <time>2021-08-31T07:43:58Z</time>
      </trkpt>
      <trkpt lat="44.48435" lon="5.4482">
        <ele>703.40002441406</ele>
        <time>2021-08-31T07:44:02Z</time>
      </trkpt>
      <trkpt lat="44.48445" lon="5.44822">
        <ele>704.20001220703</ele>
        <time>2021-08-31T07:44:07Z</time>
      </trkpt>
      <trkpt lat="44.48449" lon="5.44823">
        <ele>704.40002441406</ele>
        <time>2021-08-31T07:44:09Z</time>
      </trkpt>
      <trkpt lat="44.4846" lon="5.44823">
        <ele>705.20001220703</ele>
        <time>2021-08-31T07:44:15Z</time>
      </trkpt>
      <trkpt lat="44.48464" lon="5.44823">
        <ele>705.40002441406</ele>
        <time>2021-08-31T07:44:17Z</time>
      </trkpt>
      <trkpt lat="44.48477" lon="5.44826">
        <ele>706.20001220703</ele>
        <time>2021-08-31T07:44:24Z</time>
      </trkpt>
      <trkpt lat="44.48481" lon="5.44826">
        <ele>706.59997558594</ele>
        <time>2021-08-31T07:44:26Z</time>
      </trkpt>
      <trkpt lat="44.48493" lon="5.44828">
        <ele>707.59997558594</ele>
        <time>2021-08-31T07:44:32Z</time>
      </trkpt>
      <trkpt lat="44.48495" lon="5.44829">
        <ele>707.59997558594</ele>
        <time>2021-08-31T07:44:33Z</time>
      </trkpt>
      <trkpt lat="44.48507" lon="5.44832">
        <ele>708.59997558594</ele>
        <time>2021-08-31T07:44:39Z</time>
      </trkpt>
      <trkpt lat="44.48512" lon="5.44834">
        <ele>709.20001220703</ele>
        <time>2021-08-31T07:44:42Z</time>
      </trkpt>
      <trkpt lat="44.48516" lon="5.44835">
        <ele>709.40002441406</ele>
        <time>2021-08-31T07:44:44Z</time>
      </trkpt>
      <trkpt lat="44.48519" lon="5.44837">
        <ele>709.59997558594</ele>
        <time>2021-08-31T07:44:46Z</time>
      </trkpt>
      <trkpt lat="44.48524" lon="5.44837">
        <ele>709.79998779297</ele>
        <time>2021-08-31T07:44:48Z</time>
      </trkpt>
      <trkpt lat="44.48534" lon="5.44836">
        <ele>710.59997558594</ele>
        <time>2021-08-31T07:44:53Z</time>
      </trkpt>
      <trkpt lat="44.4854" lon="5.44834">
        <ele>711</ele>
        <time>2021-08-31T07:44:56Z</time>
      </trkpt>
      <trkpt lat="44.48547" lon="5.44824">
        <ele>711.79998779297</ele>
        <time>2021-08-31T07:45:01Z</time>
      </trkpt>
      <trkpt lat="44.48548" lon="5.44822">
        <ele>711.79998779297</ele>
        <time>2021-08-31T07:45:02Z</time>
      </trkpt>
      <trkpt lat="44.48556" lon="5.44811">
        <ele>712.59997558594</ele>
        <time>2021-08-31T07:45:08Z</time>
      </trkpt>
      <trkpt lat="44.48558" lon="5.44806">
        <ele>712.79998779297</ele>
        <time>2021-08-31T07:45:10Z</time>
      </trkpt>
      <trkpt lat="44.48565" lon="5.44792">
        <ele>713.59997558594</ele>
        <time>2021-08-31T07:45:16Z</time>
      </trkpt>
      <trkpt lat="44.48569" lon="5.44784">
        <ele>713.79998779297</ele>
        <time>2021-08-31T07:45:19Z</time>
      </trkpt>
      <trkpt lat="44.48573" lon="5.44776">
        <ele>714.40002441406</ele>
        <time>2021-08-31T07:45:22Z</time>
      </trkpt>
      <trkpt lat="44.48579" lon="5.44765">
        <ele>715</ele>
        <time>2021-08-31T07:45:26Z</time>
      </trkpt>
      <trkpt lat="44.48583" lon="5.44757">
        <ele>715.40002441406</ele>
        <time>2021-08-31T07:45:29Z</time>
      </trkpt>
      <trkpt lat="44.48593" lon="5.4474">
        <ele>716</ele>
        <time>2021-08-31T07:45:36Z</time>
      </trkpt>
      <trkpt lat="44.48607" lon="5.44724">
        <ele>717</ele>
        <time>2021-08-31T07:45:44Z</time>
      </trkpt>
      <trkpt lat="44.48609" lon="5.44722">
        <ele>717.20001220703</ele>
        <time>2021-08-31T07:45:45Z</time>
      </trkpt>
      <trkpt lat="44.4862" lon="5.44711">
        <ele>718</ele>
        <time>2021-08-31T07:45:51Z</time>
      </trkpt>
      <trkpt lat="44.48628" lon="5.44703">
        <ele>718.40002441406</ele>
        <time>2021-08-31T07:45:55Z</time>
      </trkpt>
      <trkpt lat="44.48637" lon="5.44694">
        <ele>719.20001220703</ele>
        <time>2021-08-31T07:46:00Z</time>
      </trkpt>
      <trkpt lat="44.48645" lon="5.44685">
        <ele>719.79998779297</ele>
        <time>2021-08-31T07:46:05Z</time>
      </trkpt>
      <trkpt lat="44.4865" lon="5.44679">
        <ele>720.20001220703</ele>
        <time>2021-08-31T07:46:08Z</time>
      </trkpt>
      <trkpt lat="44.48666" lon="5.44663">
        <ele>721.40002441406</ele>
        <time>2021-08-31T07:46:16Z</time>
      </trkpt>
      <trkpt lat="44.48682" lon="5.44648">
        <ele>722.40002441406</ele>
        <time>2021-08-31T07:46:24Z</time>
      </trkpt>
      <trkpt lat="44.48684" lon="5.44646">
        <ele>722.40002441406</ele>
        <time>2021-08-31T07:46:25Z</time>
      </trkpt>
      <trkpt lat="44.48696" lon="5.44638">
        <ele>723.20001220703</ele>
        <time>2021-08-31T07:46:30Z</time>
      </trkpt>
      <trkpt lat="44.48708" lon="5.44629">
        <ele>723.40002441406</ele>
        <time>2021-08-31T07:46:35Z</time>
      </trkpt>
      <trkpt lat="44.48716" lon="5.4462">
        <ele>723.79998779297</ele>
        <time>2021-08-31T07:46:39Z</time>
      </trkpt>
      <trkpt lat="44.48729" lon="5.44611">
        <ele>724.59997558594</ele>
        <time>2021-08-31T07:46:45Z</time>
      </trkpt>
      <trkpt lat="44.48732" lon="5.44606">
        <ele>724.79998779297</ele>
        <time>2021-08-31T07:46:47Z</time>
      </trkpt>
      <trkpt lat="44.48746" lon="5.44586">
        <ele>725.40002441406</ele>
        <time>2021-08-31T07:46:55Z</time>
      </trkpt>
      <trkpt lat="44.48747" lon="5.44578">
        <ele>725.59997558594</ele>
        <time>2021-08-31T07:46:57Z</time>
      </trkpt>
      <trkpt lat="44.48751" lon="5.44567">
        <ele>725.79998779297</ele>
        <time>2021-08-31T07:47:00Z</time>
      </trkpt>
      <trkpt lat="44.48762" lon="5.44542">
        <ele>726.40002441406</ele>
        <time>2021-08-31T07:47:08Z</time>
      </trkpt>
      <trkpt lat="44.48765" lon="5.44536">
        <ele>726.59997558594</ele>
        <time>2021-08-31T07:47:10Z</time>
      </trkpt>
      <trkpt lat="44.48775" lon="5.44515">
        <ele>727.79998779297</ele>
        <time>2021-08-31T07:47:18Z</time>
      </trkpt>
      <trkpt lat="44.48786" lon="5.445">
        <ele>728.79998779297</ele>
        <time>2021-08-31T07:47:25Z</time>
      </trkpt>
      <trkpt lat="44.48789" lon="5.44496">
        <ele>729.20001220703</ele>
        <time>2021-08-31T07:47:27Z</time>
      </trkpt>
      <trkpt lat="44.48797" lon="5.44487">
        <ele>730</ele>
        <time>2021-08-31T07:47:32Z</time>
      </trkpt>
      <trkpt lat="44.48804" lon="5.4448">
        <ele>730.59997558594</ele>
        <time>2021-08-31T07:47:36Z</time>
      </trkpt>
      <trkpt lat="44.48808" lon="5.44474">
        <ele>731</ele>
        <time>2021-08-31T07:47:39Z</time>
      </trkpt>
      <trkpt lat="44.48814" lon="5.44467">
        <ele>731.59997558594</ele>
        <time>2021-08-31T07:47:43Z</time>
      </trkpt>
      <trkpt lat="44.48821" lon="5.44459">
        <ele>732.40002441406</ele>
        <time>2021-08-31T07:47:47Z</time>
      </trkpt>
      <trkpt lat="44.48829" lon="5.44446">
        <ele>733.20001220703</ele>
        <time>2021-08-31T07:47:53Z</time>
      </trkpt>
      <trkpt lat="44.48831" lon="5.4444">
        <ele>733.40002441406</ele>
        <time>2021-08-31T07:47:55Z</time>
      </trkpt>
      <trkpt lat="44.48838" lon="5.44428">
        <ele>734.20001220703</ele>
        <time>2021-08-31T07:48:00Z</time>
      </trkpt>
      <trkpt lat="44.48839" lon="5.44426">
        <ele>734.40002441406</ele>
        <time>2021-08-31T07:48:01Z</time>
      </trkpt>
      <trkpt lat="44.48848" lon="5.44413">
        <ele>735.20001220703</ele>
        <time>2021-08-31T07:48:07Z</time>
      </trkpt>
      <trkpt lat="44.48851" lon="5.44409">
        <ele>735.40002441406</ele>
        <time>2021-08-31T07:48:09Z</time>
      </trkpt>
      <trkpt lat="44.48861" lon="5.44401">
        <ele>736.40002441406</ele>
        <time>2021-08-31T07:48:15Z</time>
      </trkpt>
      <trkpt lat="44.48863" lon="5.44399">
        <ele>737</ele>
        <time>2021-08-31T07:48:34Z</time>
      </trkpt>
      <trkpt lat="44.4887" lon="5.44395">
        <ele>737.20001220703</ele>
        <time>2021-08-31T07:48:37Z</time>
      </trkpt>
      <trkpt lat="44.48881" lon="5.44389">
        <ele>737.59997558594</ele>
        <time>2021-08-31T07:48:42Z</time>
      </trkpt>
      <trkpt lat="44.4889" lon="5.44383">
        <ele>738.20001220703</ele>
        <time>2021-08-31T07:48:46Z</time>
      </trkpt>
      <trkpt lat="44.48897" lon="5.44376">
        <ele>738.79998779297</ele>
        <time>2021-08-31T07:48:50Z</time>
      </trkpt>
      <trkpt lat="44.489" lon="5.44371">
        <ele>739</ele>
        <time>2021-08-31T07:48:52Z</time>
      </trkpt>
      <trkpt lat="44.48912" lon="5.44357">
        <ele>740</ele>
        <time>2021-08-31T07:48:59Z</time>
      </trkpt>
      <trkpt lat="44.48915" lon="5.44353">
        <ele>740.20001220703</ele>
        <time>2021-08-31T07:49:01Z</time>
      </trkpt>
      <trkpt lat="44.48928" lon="5.4434">
        <ele>741</ele>
        <time>2021-08-31T07:49:08Z</time>
      </trkpt>
      <trkpt lat="44.4893" lon="5.44338">
        <ele>741</ele>
        <time>2021-08-31T07:49:09Z</time>
      </trkpt>
      <trkpt lat="44.48944" lon="5.44329">
        <ele>742</ele>
        <time>2021-08-31T07:49:16Z</time>
      </trkpt>
      <trkpt lat="44.48948" lon="5.44327">
        <ele>742.20001220703</ele>
        <time>2021-08-31T07:49:18Z</time>
      </trkpt>
      <trkpt lat="44.48962" lon="5.44322">
        <ele>743</ele>
        <time>2021-08-31T07:49:24Z</time>
      </trkpt>
      <trkpt lat="44.48968" lon="5.4432">
        <ele>743.40002441406</ele>
        <time>2021-08-31T07:49:27Z</time>
      </trkpt>
      <trkpt lat="44.48977" lon="5.44319">
        <ele>744.20001220703</ele>
        <time>2021-08-31T07:49:31Z</time>
      </trkpt>
      <trkpt lat="44.48989" lon="5.4432">
        <ele>744.79998779297</ele>
        <time>2021-08-31T07:49:36Z</time>
      </trkpt>
      <trkpt lat="44.48995" lon="5.4432">
        <ele>745.20001220703</ele>
        <time>2021-08-31T07:49:39Z</time>
      </trkpt>
      <trkpt lat="44.49006" lon="5.44322">
        <ele>745.79998779297</ele>
        <time>2021-08-31T07:49:44Z</time>
      </trkpt>
      <trkpt lat="44.49016" lon="5.44323">
        <ele>746.20001220703</ele>
        <time>2021-08-31T07:49:48Z</time>
      </trkpt>
      <trkpt lat="44.49028" lon="5.44326">
        <ele>747.20001220703</ele>
        <time>2021-08-31T07:49:53Z</time>
      </trkpt>
      <trkpt lat="44.49031" lon="5.44326">
        <ele>747.20001220703</ele>
        <time>2021-08-31T07:49:54Z</time>
      </trkpt>
      <trkpt lat="44.49053" lon="5.44328">
        <ele>748.40002441406</ele>
        <time>2021-08-31T07:50:03Z</time>
      </trkpt>
      <trkpt lat="44.49055" lon="5.44327">
        <ele>748.40002441406</ele>
        <time>2021-08-31T07:50:04Z</time>
      </trkpt>
      <trkpt lat="44.49073" lon="5.44326">
        <ele>749.59997558594</ele>
        <time>2021-08-31T07:50:11Z</time>
      </trkpt>
      <trkpt lat="44.49075" lon="5.44325">
        <ele>749.59997558594</ele>
        <time>2021-08-31T07:50:12Z</time>
      </trkpt>
      <trkpt lat="44.49091" lon="5.44321">
        <ele>750.40002441406</ele>
        <time>2021-08-31T07:50:19Z</time>
      </trkpt>
      <trkpt lat="44.49096" lon="5.4432">
        <ele>750.59997558594</ele>
        <time>2021-08-31T07:50:21Z</time>
      </trkpt>
      <trkpt lat="44.49114" lon="5.44317">
        <ele>751.59997558594</ele>
        <time>2021-08-31T07:50:28Z</time>
      </trkpt>
      <trkpt lat="44.49116" lon="5.44316">
        <ele>751.59997558594</ele>
        <time>2021-08-31T07:50:29Z</time>
      </trkpt>
      <trkpt lat="44.49134" lon="5.44317">
        <ele>752.59997558594</ele>
        <time>2021-08-31T07:50:36Z</time>
      </trkpt>
      <trkpt lat="44.49139" lon="5.44318">
        <ele>752.79998779297</ele>
        <time>2021-08-31T07:50:38Z</time>
      </trkpt>
      <trkpt lat="44.49154" lon="5.44328">
        <ele>753.40002441406</ele>
        <time>2021-08-31T07:50:44Z</time>
      </trkpt>
      <trkpt lat="44.49162" lon="5.44337">
        <ele>753.79998779297</ele>
        <time>2021-08-31T07:50:48Z</time>
      </trkpt>
      <trkpt lat="44.49168" lon="5.44346">
        <ele>754.20001220703</ele>
        <time>2021-08-31T07:50:51Z</time>
      </trkpt>
      <trkpt lat="44.49176" lon="5.4436">
        <ele>754.79998779297</ele>
        <time>2021-08-31T07:50:56Z</time>
      </trkpt>
      <trkpt lat="44.49181" lon="5.44369">
        <ele>755.20001220703</ele>
        <time>2021-08-31T07:50:59Z</time>
      </trkpt>
      <trkpt lat="44.49194" lon="5.44389">
        <ele>755.79998779297</ele>
        <time>2021-08-31T07:51:07Z</time>
      </trkpt>
      <trkpt lat="44.49196" lon="5.44392">
        <ele>756</ele>
        <time>2021-08-31T07:51:08Z</time>
      </trkpt>
      <trkpt lat="44.4921" lon="5.4441">
        <ele>757</ele>
        <time>2021-08-31T07:51:15Z</time>
      </trkpt>
      <trkpt lat="44.49212" lon="5.44412">
        <ele>757</ele>
        <time>2021-08-31T07:51:16Z</time>
      </trkpt>
      <trkpt lat="44.49224" lon="5.44426">
        <ele>758</ele>
        <time>2021-08-31T07:51:23Z</time>
      </trkpt>
      <trkpt lat="44.49226" lon="5.44428">
        <ele>758</ele>
        <time>2021-08-31T07:51:24Z</time>
      </trkpt>
      <trkpt lat="44.49237" lon="5.44434">
        <ele>758.79998779297</ele>
        <time>2021-08-31T07:51:29Z</time>
      </trkpt>
      <trkpt lat="44.49244" lon="5.44437">
        <ele>759.20001220703</ele>
        <time>2021-08-31T07:51:32Z</time>
      </trkpt>
      <trkpt lat="44.49252" lon="5.44442">
        <ele>759.59997558594</ele>
        <time>2021-08-31T07:51:35Z</time>
      </trkpt>
      <trkpt lat="44.49265" lon="5.44447">
        <ele>760.20001220703</ele>
        <time>2021-08-31T07:51:40Z</time>
      </trkpt>
      <trkpt lat="44.49274" lon="5.44451">
        <ele>760.59997558594</ele>
        <time>2021-08-31T07:51:43Z</time>
      </trkpt>
      <trkpt lat="44.49284" lon="5.44455">
        <ele>761.40002441406</ele>
        <time>2021-08-31T07:51:47Z</time>
      </trkpt>
      <trkpt lat="44.49301" lon="5.44462">
        <ele>762</ele>
        <time>2021-08-31T07:51:53Z</time>
      </trkpt>
      <trkpt lat="44.49312" lon="5.44467">
        <ele>762.40002441406</ele>
        <time>2021-08-31T07:51:57Z</time>
      </trkpt>
      <trkpt lat="44.49317" lon="5.44469">
        <ele>762.59997558594</ele>
        <time>2021-08-31T07:51:59Z</time>
      </trkpt>
      <trkpt lat="44.4934" lon="5.44479">
        <ele>763.20001220703</ele>
        <time>2021-08-31T07:52:07Z</time>
      </trkpt>
      <trkpt lat="44.49351" lon="5.44483">
        <ele>763.59997558594</ele>
        <time>2021-08-31T07:52:11Z</time>
      </trkpt>
      <trkpt lat="44.49364" lon="5.44488">
        <ele>764</ele>
        <time>2021-08-31T07:52:16Z</time>
      </trkpt>
      <trkpt lat="44.49375" lon="5.44491">
        <ele>764.59997558594</ele>
        <time>2021-08-31T07:52:20Z</time>
      </trkpt>
      <trkpt lat="44.49385" lon="5.44493">
        <ele>765</ele>
        <time>2021-08-31T07:52:24Z</time>
      </trkpt>
      <trkpt lat="44.49403" lon="5.44496">
        <ele>765.59997558594</ele>
        <time>2021-08-31T07:52:30Z</time>
      </trkpt>
      <trkpt lat="44.49409" lon="5.44498">
        <ele>766</ele>
        <time>2021-08-31T07:52:32Z</time>
      </trkpt>
      <trkpt lat="44.49423" lon="5.44503">
        <ele>766.79998779297</ele>
        <time>2021-08-31T07:52:37Z</time>
      </trkpt>
      <trkpt lat="44.49435" lon="5.44507">
        <ele>767</ele>
        <time>2021-08-31T07:52:41Z</time>
      </trkpt>
      <trkpt lat="44.49452" lon="5.44506">
        <ele>767.59997558594</ele>
        <time>2021-08-31T07:52:47Z</time>
      </trkpt>
      <trkpt lat="44.4946" lon="5.44502">
        <ele>767.79998779297</ele>
        <time>2021-08-31T07:52:50Z</time>
      </trkpt>
      <trkpt lat="44.49475" lon="5.44496">
        <ele>768.20001220703</ele>
        <time>2021-08-31T07:52:55Z</time>
      </trkpt>
      <trkpt lat="44.49501" lon="5.44483">
        <ele>767.79998779297</ele>
        <time>2021-08-31T07:53:02Z</time>
      </trkpt>
      <trkpt lat="44.49529" lon="5.44468">
        <ele>767.40002441406</ele>
        <time>2021-08-31T07:53:08Z</time>
      </trkpt>
      <trkpt lat="44.49551" lon="5.44448">
        <ele>766.79998779297</ele>
        <time>2021-08-31T07:53:13Z</time>
      </trkpt>
      <trkpt lat="44.4956" lon="5.44437">
        <ele>766.59997558594</ele>
        <time>2021-08-31T07:53:15Z</time>
      </trkpt>
      <trkpt lat="44.4958" lon="5.44411">
        <ele>765.79998779297</ele>
        <time>2021-08-31T07:53:20Z</time>
      </trkpt>
      <trkpt lat="44.49584" lon="5.44407">
        <ele>765.59997558594</ele>
        <time>2021-08-31T07:53:21Z</time>
      </trkpt>
      <trkpt lat="44.49589" lon="5.44403">
        <ele>765.40002441406</ele>
        <time>2021-08-31T07:53:22Z</time>
      </trkpt>
      <trkpt lat="44.49623" lon="5.44383">
        <ele>764.79998779297</ele>
        <time>2021-08-31T07:53:29Z</time>
      </trkpt>
      <trkpt lat="44.49628" lon="5.44379">
        <ele>764.59997558594</ele>
        <time>2021-08-31T07:53:30Z</time>
      </trkpt>
      <trkpt lat="44.49649" lon="5.44354">
        <ele>764</ele>
        <time>2021-08-31T07:53:35Z</time>
      </trkpt>
      <trkpt lat="44.49662" lon="5.44335">
        <ele>763.59997558594</ele>
        <time>2021-08-31T07:53:38Z</time>
      </trkpt>
      <trkpt lat="44.49675" lon="5.44315">
        <ele>762.79998779297</ele>
        <time>2021-08-31T07:53:41Z</time>
      </trkpt>
      <trkpt lat="44.49686" lon="5.44304">
        <ele>762.40002441406</ele>
        <time>2021-08-31T07:53:43Z</time>
      </trkpt>
      <trkpt lat="44.49697" lon="5.44295">
        <ele>762.40002441406</ele>
        <time>2021-08-31T07:53:45Z</time>
      </trkpt>
      <trkpt lat="44.49703" lon="5.44293">
        <ele>762.20001220703</ele>
        <time>2021-08-31T07:53:46Z</time>
      </trkpt>
      <trkpt lat="44.49729" lon="5.44294">
        <ele>761.59997558594</ele>
        <time>2021-08-31T07:53:50Z</time>
      </trkpt>
      <trkpt lat="44.49735" lon="5.44296">
        <ele>761.40002441406</ele>
        <time>2021-08-31T07:53:51Z</time>
      </trkpt>
      <trkpt lat="44.49741" lon="5.44297">
        <ele>761.40002441406</ele>
        <time>2021-08-31T07:53:52Z</time>
      </trkpt>
      <trkpt lat="44.49777" lon="5.443">
        <ele>760.40002441406</ele>
        <time>2021-08-31T07:53:58Z</time>
      </trkpt>
      <trkpt lat="44.4979" lon="5.44299">
        <ele>760.40002441406</ele>
        <time>2021-08-31T07:54:00Z</time>
      </trkpt>
      <trkpt lat="44.49815" lon="5.44295">
        <ele>760</ele>
        <time>2021-08-31T07:54:04Z</time>
      </trkpt>
      <trkpt lat="44.49846" lon="5.44296">
        <ele>759.40002441406</ele>
        <time>2021-08-31T07:54:09Z</time>
      </trkpt>
      <trkpt lat="44.49867" lon="5.443">
        <ele>759.40002441406</ele>
        <time>2021-08-31T07:54:13Z</time>
      </trkpt>
      <trkpt lat="44.49872" lon="5.443">
        <ele>759.40002441406</ele>
        <time>2021-08-31T07:54:14Z</time>
      </trkpt>
      <trkpt lat="44.49886" lon="5.44298">
        <ele>759.40002441406</ele>
        <time>2021-08-31T07:54:17Z</time>
      </trkpt>
      <trkpt lat="44.499" lon="5.44292">
        <ele>759.20001220703</ele>
        <time>2021-08-31T07:54:20Z</time>
      </trkpt>
      <trkpt lat="44.49904" lon="5.44289">
        <ele>759.20001220703</ele>
        <time>2021-08-31T07:54:21Z</time>
      </trkpt>
      <trkpt lat="44.49919" lon="5.44277">
        <ele>759.40002441406</ele>
        <time>2021-08-31T07:54:25Z</time>
      </trkpt>
      <trkpt lat="44.49924" lon="5.44269">
        <ele>759.40002441406</ele>
        <time>2021-08-31T07:54:27Z</time>
      </trkpt>
      <trkpt lat="44.49929" lon="5.4426">
        <ele>759.59997558594</ele>
        <time>2021-08-31T07:54:29Z</time>
      </trkpt>
      <trkpt lat="44.49946" lon="5.44233">
        <ele>760.20001220703</ele>
        <time>2021-08-31T07:54:36Z</time>
      </trkpt>
      <trkpt lat="44.49948" lon="5.4423">
        <ele>760.40002441406</ele>
        <time>2021-08-31T07:54:37Z</time>
      </trkpt>
      <trkpt lat="44.49962" lon="5.44217">
        <ele>761.20001220703</ele>
        <time>2021-08-31T07:54:42Z</time>
      </trkpt>
      <trkpt lat="44.49968" lon="5.44215">
        <ele>761.40002441406</ele>
        <time>2021-08-31T07:54:44Z</time>
      </trkpt>
      <trkpt lat="44.49981" lon="5.44211">
        <ele>762.20001220703</ele>
        <time>2021-08-31T07:54:49Z</time>
      </trkpt>
      <trkpt lat="44.49991" lon="5.44207">
        <ele>762.59997558594</ele>
        <time>2021-08-31T07:54:53Z</time>
      </trkpt>
      <trkpt lat="44.49998" lon="5.44205">
        <ele>762.79998779297</ele>
        <time>2021-08-31T07:54:56Z</time>
      </trkpt>
      <trkpt lat="44.50017" lon="5.44196">
        <ele>763.40002441406</ele>
        <time>2021-08-31T07:55:04Z</time>
      </trkpt>
      <trkpt lat="44.50022" lon="5.44194">
        <ele>763.59997558594</ele>
        <time>2021-08-31T07:55:06Z</time>
      </trkpt>
      <trkpt lat="44.50041" lon="5.44184">
        <ele>764.40002441406</ele>
        <time>2021-08-31T07:55:14Z</time>
      </trkpt>
      <trkpt lat="44.50045" lon="5.44181">
        <ele>764.59997558594</ele>
        <time>2021-08-31T07:55:16Z</time>
      </trkpt>
      <trkpt lat="44.50059" lon="5.44173">
        <ele>765.20001220703</ele>
        <time>2021-08-31T07:55:22Z</time>
      </trkpt>
      <trkpt lat="44.50066" lon="5.44168">
        <ele>765.59997558594</ele>
        <time>2021-08-31T07:55:25Z</time>
      </trkpt>
      <trkpt lat="44.50085" lon="5.44159">
        <ele>766.59997558594</ele>
        <time>2021-08-31T07:55:33Z</time>
      </trkpt>
      <trkpt lat="44.5009" lon="5.44157">
        <ele>766.79998779297</ele>
        <time>2021-08-31T07:55:35Z</time>
      </trkpt>
      <trkpt lat="44.50109" lon="5.44149">
        <ele>767.79998779297</ele>
        <time>2021-08-31T07:55:43Z</time>
      </trkpt>
      <trkpt lat="44.50115" lon="5.44147">
        <ele>768</ele>
        <time>2021-08-31T07:55:45Z</time>
      </trkpt>
      <trkpt lat="44.50133" lon="5.44144">
        <ele>768.59997558594</ele>
        <time>2021-08-31T07:55:52Z</time>
      </trkpt>
      <trkpt lat="44.50141" lon="5.44145">
        <ele>768.79998779297</ele>
        <time>2021-08-31T07:55:55Z</time>
      </trkpt>
      <trkpt lat="44.50153" lon="5.44145">
        <ele>769.20001220703</ele>
        <time>2021-08-31T07:55:59Z</time>
      </trkpt>
      <trkpt lat="44.50174" lon="5.44142">
        <ele>769.59997558594</ele>
        <time>2021-08-31T07:56:06Z</time>
      </trkpt>
      <trkpt lat="44.50205" lon="5.44127">
        <ele>769.79998779297</ele>
        <time>2021-08-31T07:56:15Z</time>
      </trkpt>
      <trkpt lat="44.50232" lon="5.44112">
        <ele>769.40002441406</ele>
        <time>2021-08-31T07:56:23Z</time>
      </trkpt>
      <trkpt lat="44.50258" lon="5.44095">
        <ele>769.59997558594</ele>
        <time>2021-08-31T07:56:31Z</time>
      </trkpt>
      <trkpt lat="44.50288" lon="5.44074">
        <ele>769.59997558594</ele>
        <time>2021-08-31T07:56:40Z</time>
      </trkpt>
      <trkpt lat="44.50313" lon="5.4406">
        <ele>769.59997558594</ele>
        <time>2021-08-31T07:56:47Z</time>
      </trkpt>
      <trkpt lat="44.50316" lon="5.44061">
        <ele>769.59997558594</ele>
        <time>2021-08-31T07:56:48Z</time>
      </trkpt>
      <trkpt lat="44.50327" lon="5.44066">
        <ele>769.79998779297</ele>
        <time>2021-08-31T07:56:52Z</time>
      </trkpt>
      <trkpt lat="44.50343" lon="5.44074">
        <ele>770.79998779297</ele>
        <time>2021-08-31T07:56:59Z</time>
      </trkpt>
      <trkpt lat="44.50345" lon="5.44076">
        <ele>771.20001220703</ele>
        <time>2021-08-31T07:57:00Z</time>
      </trkpt>
      <trkpt lat="44.50355" lon="5.44082">
        <ele>772</ele>
        <time>2021-08-31T07:57:05Z</time>
      </trkpt>
      <trkpt lat="44.50358" lon="5.44084">
        <ele>772.20001220703</ele>
        <time>2021-08-31T07:57:07Z</time>
      </trkpt>
      <trkpt lat="44.50365" lon="5.4409">
        <ele>772.59997558594</ele>
        <time>2021-08-31T07:57:11Z</time>
      </trkpt>
      <trkpt lat="44.50377" lon="5.441">
        <ele>773.20001220703</ele>
        <time>2021-08-31T07:57:17Z</time>
      </trkpt>
      <trkpt lat="44.50382" lon="5.44103">
        <ele>773.40002441406</ele>
        <time>2021-08-31T07:57:19Z</time>
      </trkpt>
      <trkpt lat="44.50392" lon="5.44108">
        <ele>774.40002441406</ele>
        <time>2021-08-31T07:57:24Z</time>
      </trkpt>
      <trkpt lat="44.50401" lon="5.44112">
        <ele>775</ele>
        <time>2021-08-31T07:57:28Z</time>
      </trkpt>
      <trkpt lat="44.5041" lon="5.44115">
        <ele>775.59997558594</ele>
        <time>2021-08-31T07:57:32Z</time>
      </trkpt>
      <trkpt lat="44.50418" lon="5.44118">
        <ele>776</ele>
        <time>2021-08-31T07:57:36Z</time>
      </trkpt>
      <trkpt lat="44.50424" lon="5.4412">
        <ele>776.59997558594</ele>
        <time>2021-08-31T07:57:39Z</time>
      </trkpt>
      <trkpt lat="44.50435" lon="5.44123">
        <ele>777.20001220703</ele>
        <time>2021-08-31T07:57:44Z</time>
      </trkpt>
      <trkpt lat="44.50444" lon="5.44124">
        <ele>777.79998779297</ele>
        <time>2021-08-31T07:57:48Z</time>
      </trkpt>
      <trkpt lat="44.50456" lon="5.44126">
        <ele>778.40002441406</ele>
        <time>2021-08-31T07:57:53Z</time>
      </trkpt>
      <trkpt lat="44.5046" lon="5.44127">
        <ele>778.79998779297</ele>
        <time>2021-08-31T07:57:55Z</time>
      </trkpt>
      <trkpt lat="44.50474" lon="5.44128">
        <ele>779.59997558594</ele>
        <time>2021-08-31T07:58:01Z</time>
      </trkpt>
      <trkpt lat="44.50476" lon="5.44128">
        <ele>779.79998779297</ele>
        <time>2021-08-31T07:58:02Z</time>
      </trkpt>
      <trkpt lat="44.5049" lon="5.44132">
        <ele>780.59997558594</ele>
        <time>2021-08-31T07:58:08Z</time>
      </trkpt>
      <trkpt lat="44.50495" lon="5.44132">
        <ele>780.79998779297</ele>
        <time>2021-08-31T07:58:10Z</time>
      </trkpt>
      <trkpt lat="44.5051" lon="5.44135">
        <ele>781.59997558594</ele>
        <time>2021-08-31T07:58:17Z</time>
      </trkpt>
      <trkpt lat="44.50517" lon="5.44135">
        <ele>782</ele>
        <time>2021-08-31T07:58:20Z</time>
      </trkpt>
      <trkpt lat="44.50527" lon="5.44136">
        <ele>782.59997558594</ele>
        <time>2021-08-31T07:58:25Z</time>
      </trkpt>
      <trkpt lat="44.50531" lon="5.44137">
        <ele>783</ele>
        <time>2021-08-31T07:58:27Z</time>
      </trkpt>
      <trkpt lat="44.50544" lon="5.44139">
        <ele>783.79998779297</ele>
        <time>2021-08-31T07:58:33Z</time>
      </trkpt>
      <trkpt lat="44.50546" lon="5.4414">
        <ele>784</ele>
        <time>2021-08-31T07:58:34Z</time>
      </trkpt>
      <trkpt lat="44.50557" lon="5.44144">
        <ele>785</ele>
        <time>2021-08-31T07:58:39Z</time>
      </trkpt>
      <trkpt lat="44.50559" lon="5.44144">
        <ele>785</ele>
        <time>2021-08-31T07:58:40Z</time>
      </trkpt>
      <trkpt lat="44.50574" lon="5.44152">
        <ele>786</ele>
        <time>2021-08-31T07:58:47Z</time>
      </trkpt>
      <trkpt lat="44.50576" lon="5.44154">
        <ele>786</ele>
        <time>2021-08-31T07:58:48Z</time>
      </trkpt>
      <trkpt lat="44.50583" lon="5.4417">
        <ele>787</ele>
        <time>2021-08-31T07:58:54Z</time>
      </trkpt>
      <trkpt lat="44.50583" lon="5.44173">
        <ele>787.20001220703</ele>
        <time>2021-08-31T07:58:55Z</time>
      </trkpt>
      <trkpt lat="44.50588" lon="5.44187">
        <ele>788</ele>
        <time>2021-08-31T07:59:00Z</time>
      </trkpt>
      <trkpt lat="44.50589" lon="5.44192">
        <ele>788.20001220703</ele>
        <time>2021-08-31T07:59:02Z</time>
      </trkpt>
      <trkpt lat="44.50593" lon="5.44202">
        <ele>788.79998779297</ele>
        <time>2021-08-31T07:59:06Z</time>
      </trkpt>
      <trkpt lat="44.50597" lon="5.4421">
        <ele>789.40002441406</ele>
        <time>2021-08-31T07:59:09Z</time>
      </trkpt>
      <trkpt lat="44.50604" lon="5.44223">
        <ele>790</ele>
        <time>2021-08-31T07:59:15Z</time>
      </trkpt>
      <trkpt lat="44.50608" lon="5.44229">
        <ele>790.40002441406</ele>
        <time>2021-08-31T07:59:18Z</time>
      </trkpt>
      <trkpt lat="44.50613" lon="5.44237">
        <ele>791</ele>
        <time>2021-08-31T07:59:22Z</time>
      </trkpt>
      <trkpt lat="44.50616" lon="5.44241">
        <ele>791.59997558594</ele>
        <time>2021-08-31T07:59:24Z</time>
      </trkpt>
      <trkpt lat="44.50625" lon="5.44252">
        <ele>792.40002441406</ele>
        <time>2021-08-31T07:59:30Z</time>
      </trkpt>
      <trkpt lat="44.50629" lon="5.44258">
        <ele>792.59997558594</ele>
        <time>2021-08-31T07:59:33Z</time>
      </trkpt>
      <trkpt lat="44.50636" lon="5.44269">
        <ele>793</ele>
        <time>2021-08-31T07:59:38Z</time>
      </trkpt>
      <trkpt lat="44.50643" lon="5.44277">
        <ele>793.59997558594</ele>
        <time>2021-08-31T07:59:42Z</time>
      </trkpt>
      <trkpt lat="44.50651" lon="5.44291">
        <ele>794.59997558594</ele>
        <time>2021-08-31T07:59:48Z</time>
      </trkpt>
      <trkpt lat="44.50663" lon="5.44307">
        <ele>795.79998779297</ele>
        <time>2021-08-31T07:59:56Z</time>
      </trkpt>
      <trkpt lat="44.50667" lon="5.44311">
        <ele>796</ele>
        <time>2021-08-31T07:59:58Z</time>
      </trkpt>
      <trkpt lat="44.5068" lon="5.44319">
        <ele>796.79998779297</ele>
        <time>2021-08-31T08:00:05Z</time>
      </trkpt>
      <trkpt lat="44.50682" lon="5.4432">
        <ele>797</ele>
        <time>2021-08-31T08:00:06Z</time>
      </trkpt>
      <trkpt lat="44.50699" lon="5.44331">
        <ele>797.79998779297</ele>
        <time>2021-08-31T08:00:14Z</time>
      </trkpt>
      <trkpt lat="44.50714" lon="5.44345">
        <ele>798.79998779297</ele>
        <time>2021-08-31T08:00:22Z</time>
      </trkpt>
      <trkpt lat="44.50716" lon="5.44347">
        <ele>799</ele>
        <time>2021-08-31T08:00:23Z</time>
      </trkpt>
      <trkpt lat="44.5073" lon="5.44361">
        <ele>800</ele>
        <time>2021-08-31T08:00:31Z</time>
      </trkpt>
      <trkpt lat="44.50742" lon="5.44373">
        <ele>801</ele>
        <time>2021-08-31T08:00:38Z</time>
      </trkpt>
      <trkpt lat="44.50744" lon="5.44374">
        <ele>801.20001220703</ele>
        <time>2021-08-31T08:00:39Z</time>
      </trkpt>
      <trkpt lat="44.50757" lon="5.44385">
        <ele>802</ele>
        <time>2021-08-31T08:00:46Z</time>
      </trkpt>
      <trkpt lat="44.50762" lon="5.4439">
        <ele>802.40002441406</ele>
        <time>2021-08-31T08:00:49Z</time>
      </trkpt>
      <trkpt lat="44.50773" lon="5.44401">
        <ele>803</ele>
        <time>2021-08-31T08:00:55Z</time>
      </trkpt>
      <trkpt lat="44.50775" lon="5.44402">
        <ele>803.20001220703</ele>
        <time>2021-08-31T08:00:56Z</time>
      </trkpt>
      <trkpt lat="44.50785" lon="5.44413">
        <ele>804.20001220703</ele>
        <time>2021-08-31T08:01:02Z</time>
      </trkpt>
      <trkpt lat="44.50788" lon="5.44418">
        <ele>804.40002441406</ele>
        <time>2021-08-31T08:01:04Z</time>
      </trkpt>
      <trkpt lat="44.508" lon="5.44437">
        <ele>805.20001220703</ele>
        <time>2021-08-31T08:01:12Z</time>
      </trkpt>
      <trkpt lat="44.50808" lon="5.44454">
        <ele>806.20001220703</ele>
        <time>2021-08-31T08:01:19Z</time>
      </trkpt>
      <trkpt lat="44.50815" lon="5.4447">
        <ele>807.20001220703</ele>
        <time>2021-08-31T08:01:25Z</time>
      </trkpt>
      <trkpt lat="44.50816" lon="5.44472">
        <ele>807.40002441406</ele>
        <time>2021-08-31T08:01:26Z</time>
      </trkpt>
      <trkpt lat="44.50824" lon="5.44495">
        <ele>808.40002441406</ele>
        <time>2021-08-31T08:01:34Z</time>
      </trkpt>
      <trkpt lat="44.50829" lon="5.44514">
        <ele>809.40002441406</ele>
        <time>2021-08-31T08:01:41Z</time>
      </trkpt>
      <trkpt lat="44.5083" lon="5.44517">
        <ele>809.59997558594</ele>
        <time>2021-08-31T08:01:42Z</time>
      </trkpt>
      <trkpt lat="44.50836" lon="5.44537">
        <ele>810.59997558594</ele>
        <time>2021-08-31T08:01:49Z</time>
      </trkpt>
      <trkpt lat="44.50843" lon="5.44558">
        <ele>811.59997558594</ele>
        <time>2021-08-31T08:01:57Z</time>
      </trkpt>
      <trkpt lat="44.50848" lon="5.44581">
        <ele>812.40002441406</ele>
        <time>2021-08-31T08:02:05Z</time>
      </trkpt>
      <trkpt lat="44.50848" lon="5.44584">
        <ele>812.59997558594</ele>
        <time>2021-08-31T08:02:06Z</time>
      </trkpt>
      <trkpt lat="44.50846" lon="5.44601">
        <ele>813.40002441406</ele>
        <time>2021-08-31T08:02:12Z</time>
      </trkpt>
      <trkpt lat="44.50845" lon="5.44607">
        <ele>813.59997558594</ele>
        <time>2021-08-31T08:02:14Z</time>
      </trkpt>
      <trkpt lat="44.50841" lon="5.44628">
        <ele>814.59997558594</ele>
        <time>2021-08-31T08:02:21Z</time>
      </trkpt>
      <trkpt lat="44.50842" lon="5.44631">
        <ele>814.79998779297</ele>
        <time>2021-08-31T08:02:22Z</time>
      </trkpt>
      <trkpt lat="44.50844" lon="5.4465">
        <ele>815.79998779297</ele>
        <time>2021-08-31T08:02:29Z</time>
      </trkpt>
      <trkpt lat="44.50847" lon="5.4467">
        <ele>817</ele>
        <time>2021-08-31T08:02:36Z</time>
      </trkpt>
      <trkpt lat="44.50848" lon="5.44673">
        <ele>817</ele>
        <time>2021-08-31T08:02:37Z</time>
      </trkpt>
      <trkpt lat="44.50853" lon="5.44698">
        <ele>818</ele>
        <time>2021-08-31T08:02:46Z</time>
      </trkpt>
      <trkpt lat="44.50855" lon="5.44721">
        <ele>819</ele>
        <time>2021-08-31T08:02:54Z</time>
      </trkpt>
      <trkpt lat="44.50853" lon="5.44739">
        <ele>820</ele>
        <time>2021-08-31T08:03:00Z</time>
      </trkpt>
      <trkpt lat="44.50853" lon="5.44742">
        <ele>820</ele>
        <time>2021-08-31T08:03:01Z</time>
      </trkpt>
      <trkpt lat="44.5085" lon="5.44765">
        <ele>820.79998779297</ele>
        <time>2021-08-31T08:03:09Z</time>
      </trkpt>
      <trkpt lat="44.5085" lon="5.44774">
        <ele>821.20001220703</ele>
        <time>2021-08-31T08:03:12Z</time>
      </trkpt>
      <trkpt lat="44.50851" lon="5.44785">
        <ele>821.59997558594</ele>
        <time>2021-08-31T08:03:16Z</time>
      </trkpt>
      <trkpt lat="44.50858" lon="5.44798">
        <ele>822.40002441406</ele>
        <time>2021-08-31T08:03:22Z</time>
      </trkpt>
      <trkpt lat="44.5086" lon="5.44802">
        <ele>823</ele>
        <time>2021-08-31T08:03:24Z</time>
      </trkpt>
      <trkpt lat="44.50863" lon="5.44806">
        <ele>823.40002441406</ele>
        <time>2021-08-31T08:03:26Z</time>
      </trkpt>
      <trkpt lat="44.50869" lon="5.44813">
        <ele>824.20001220703</ele>
        <time>2021-08-31T08:03:30Z</time>
      </trkpt>
      <trkpt lat="44.50872" lon="5.44817">
        <ele>824.40002441406</ele>
        <time>2021-08-31T08:03:32Z</time>
      </trkpt>
      <trkpt lat="44.50877" lon="5.44829">
        <ele>825.20001220703</ele>
        <time>2021-08-31T08:03:37Z</time>
      </trkpt>
      <trkpt lat="44.5088" lon="5.44839">
        <ele>825.59997558594</ele>
        <time>2021-08-31T08:03:41Z</time>
      </trkpt>
      <trkpt lat="44.50881" lon="5.44848">
        <ele>826</ele>
        <time>2021-08-31T08:03:44Z</time>
      </trkpt>
      <trkpt lat="44.50882" lon="5.44865">
        <ele>826.59997558594</ele>
        <time>2021-08-31T08:03:50Z</time>
      </trkpt>
      <trkpt lat="44.50882" lon="5.44868">
        <ele>826.79998779297</ele>
        <time>2021-08-31T08:03:51Z</time>
      </trkpt>
      <trkpt lat="44.50883" lon="5.4489">
        <ele>827.59997558594</ele>
        <time>2021-08-31T08:03:59Z</time>
      </trkpt>
      <trkpt lat="44.50883" lon="5.44893">
        <ele>827.59997558594</ele>
        <time>2021-08-31T08:04:00Z</time>
      </trkpt>
      <trkpt lat="44.50889" lon="5.44908">
        <ele>828.59997558594</ele>
        <time>2021-08-31T08:04:06Z</time>
      </trkpt>
      <trkpt lat="44.50892" lon="5.44911">
        <ele>828.79998779297</ele>
        <time>2021-08-31T08:04:08Z</time>
      </trkpt>
      <trkpt lat="44.50899" lon="5.44916">
        <ele>829.40002441406</ele>
        <time>2021-08-31T08:04:12Z</time>
      </trkpt>
      <trkpt lat="44.50902" lon="5.44918">
        <ele>829.79998779297</ele>
        <time>2021-08-31T08:04:14Z</time>
      </trkpt>
      <trkpt lat="44.5091" lon="5.44916">
        <ele>830.20001220703</ele>
        <time>2021-08-31T08:04:18Z</time>
      </trkpt>
      <trkpt lat="44.50915" lon="5.44916">
        <ele>830.79998779297</ele>
        <time>2021-08-31T08:04:21Z</time>
      </trkpt>
      <trkpt lat="44.50923" lon="5.44919">
        <ele>831.20001220703</ele>
        <time>2021-08-31T08:04:25Z</time>
      </trkpt>
      <trkpt lat="44.50931" lon="5.44927">
        <ele>831.79998779297</ele>
        <time>2021-08-31T08:04:30Z</time>
      </trkpt>
      <trkpt lat="44.50932" lon="5.44929">
        <ele>831.79998779297</ele>
        <time>2021-08-31T08:04:31Z</time>
      </trkpt>
      <trkpt lat="44.50935" lon="5.4494">
        <ele>832.40002441406</ele>
        <time>2021-08-31T08:04:35Z</time>
      </trkpt>
      <trkpt lat="44.50934" lon="5.44955">
        <ele>833</ele>
        <time>2021-08-31T08:04:40Z</time>
      </trkpt>
      <trkpt lat="44.50931" lon="5.4496">
        <ele>833.40002441406</ele>
        <time>2021-08-31T08:04:42Z</time>
      </trkpt>
      <trkpt lat="44.50927" lon="5.44968">
        <ele>834</ele>
        <time>2021-08-31T08:04:45Z</time>
      </trkpt>
      <trkpt lat="44.50921" lon="5.4498">
        <ele>835</ele>
        <time>2021-08-31T08:04:50Z</time>
      </trkpt>
      <trkpt lat="44.5092" lon="5.44983">
        <ele>835.20001220703</ele>
        <time>2021-08-31T08:04:51Z</time>
      </trkpt>
      <trkpt lat="44.50919" lon="5.44986">
        <ele>835.40002441406</ele>
        <time>2021-08-31T08:04:52Z</time>
      </trkpt>
      <trkpt lat="44.50918" lon="5.44995">
        <ele>835.59997558594</ele>
        <time>2021-08-31T08:04:55Z</time>
      </trkpt>
      <trkpt lat="44.50918" lon="5.45004">
        <ele>836</ele>
        <time>2021-08-31T08:04:58Z</time>
      </trkpt>
      <trkpt lat="44.50918" lon="5.4501">
        <ele>836.40002441406</ele>
        <time>2021-08-31T08:05:00Z</time>
      </trkpt>
      <trkpt lat="44.50918" lon="5.45018">
        <ele>836.79998779297</ele>
        <time>2021-08-31T08:05:03Z</time>
      </trkpt>
      <trkpt lat="44.5092" lon="5.45033">
        <ele>837.40002441406</ele>
        <time>2021-08-31T08:05:08Z</time>
      </trkpt>
      <trkpt lat="44.50921" lon="5.45041">
        <ele>837.79998779297</ele>
        <time>2021-08-31T08:05:11Z</time>
      </trkpt>
      <trkpt lat="44.50922" lon="5.45052">
        <ele>838.40002441406</ele>
        <time>2021-08-31T08:05:15Z</time>
      </trkpt>
      <trkpt lat="44.50921" lon="5.45061">
        <ele>839</ele>
        <time>2021-08-31T08:05:18Z</time>
      </trkpt>
      <trkpt lat="44.50917" lon="5.45071">
        <ele>839.59997558594</ele>
        <time>2021-08-31T08:05:22Z</time>
      </trkpt>
      <trkpt lat="44.50915" lon="5.45079">
        <ele>840.20001220703</ele>
        <time>2021-08-31T08:05:25Z</time>
      </trkpt>
      <trkpt lat="44.5091" lon="5.45093">
        <ele>840.59997558594</ele>
        <time>2021-08-31T08:05:30Z</time>
      </trkpt>
      <trkpt lat="44.50909" lon="5.45095">
        <ele>840.79998779297</ele>
        <time>2021-08-31T08:05:31Z</time>
      </trkpt>
      <trkpt lat="44.50897" lon="5.45113">
        <ele>841.59997558594</ele>
        <time>2021-08-31T08:05:39Z</time>
      </trkpt>
      <trkpt lat="44.50892" lon="5.45117">
        <ele>841.79998779297</ele>
        <time>2021-08-31T08:05:41Z</time>
      </trkpt>
      <trkpt lat="44.50883" lon="5.45123">
        <ele>842.20001220703</ele>
        <time>2021-08-31T08:05:45Z</time>
      </trkpt>
      <trkpt lat="44.50876" lon="5.45132">
        <ele>842.79998779297</ele>
        <time>2021-08-31T08:05:49Z</time>
      </trkpt>
      <trkpt lat="44.50876" lon="5.45136">
        <ele>843</ele>
        <time>2021-08-31T08:05:50Z</time>
      </trkpt>
      <trkpt lat="44.50878" lon="5.45152">
        <ele>843.59997558594</ele>
        <time>2021-08-31T08:05:55Z</time>
      </trkpt>
      <trkpt lat="44.50886" lon="5.45163">
        <ele>844</ele>
        <time>2021-08-31T08:05:59Z</time>
      </trkpt>
      <trkpt lat="44.50893" lon="5.45174">
        <ele>844.40002441406</ele>
        <time>2021-08-31T08:06:03Z</time>
      </trkpt>
      <trkpt lat="44.50902" lon="5.45191">
        <ele>845</ele>
        <time>2021-08-31T08:06:09Z</time>
      </trkpt>
      <trkpt lat="44.50907" lon="5.45199">
        <ele>845.59997558594</ele>
        <time>2021-08-31T08:06:12Z</time>
      </trkpt>
      <trkpt lat="44.50913" lon="5.45208">
        <ele>846</ele>
        <time>2021-08-31T08:06:16Z</time>
      </trkpt>
      <trkpt lat="44.5092" lon="5.4522">
        <ele>846.79998779297</ele>
        <time>2021-08-31T08:06:21Z</time>
      </trkpt>
      <trkpt lat="44.50922" lon="5.45225">
        <ele>847.20001220703</ele>
        <time>2021-08-31T08:06:23Z</time>
      </trkpt>
      <trkpt lat="44.50924" lon="5.4524">
        <ele>847.79998779297</ele>
        <time>2021-08-31T08:06:28Z</time>
      </trkpt>
      <trkpt lat="44.50924" lon="5.4525">
        <ele>848.20001220703</ele>
        <time>2021-08-31T08:06:31Z</time>
      </trkpt>
      <trkpt lat="44.50921" lon="5.45262">
        <ele>848.79998779297</ele>
        <time>2021-08-31T08:06:35Z</time>
      </trkpt>
      <trkpt lat="44.5092" lon="5.45268">
        <ele>849.40002441406</ele>
        <time>2021-08-31T08:06:37Z</time>
      </trkpt>
      <trkpt lat="44.50915" lon="5.45284">
        <ele>850.20001220703</ele>
        <time>2021-08-31T08:06:43Z</time>
      </trkpt>
      <trkpt lat="44.50913" lon="5.45289">
        <ele>850.40002441406</ele>
        <time>2021-08-31T08:06:45Z</time>
      </trkpt>
      <trkpt lat="44.50904" lon="5.45303">
        <ele>851.20001220703</ele>
        <time>2021-08-31T08:06:51Z</time>
      </trkpt>
      <trkpt lat="44.50901" lon="5.45308">
        <ele>851.40002441406</ele>
        <time>2021-08-31T08:06:53Z</time>
      </trkpt>
      <trkpt lat="44.50894" lon="5.45324">
        <ele>852.59997558594</ele>
        <time>2021-08-31T08:06:59Z</time>
      </trkpt>
      <trkpt lat="44.50893" lon="5.45326">
        <ele>852.79998779297</ele>
        <time>2021-08-31T08:07:00Z</time>
      </trkpt>
      <trkpt lat="44.50889" lon="5.45352">
        <ele>853.59997558594</ele>
        <time>2021-08-31T08:07:08Z</time>
      </trkpt>
      <trkpt lat="44.50889" lon="5.45373">
        <ele>854.59997558594</ele>
        <time>2021-08-31T08:07:15Z</time>
      </trkpt>
      <trkpt lat="44.5089" lon="5.45376">
        <ele>854.59997558594</ele>
        <time>2021-08-31T08:07:16Z</time>
      </trkpt>
      <trkpt lat="44.50895" lon="5.45389">
        <ele>855.59997558594</ele>
        <time>2021-08-31T08:07:21Z</time>
      </trkpt>
      <trkpt lat="44.50897" lon="5.45395">
        <ele>855.79998779297</ele>
        <time>2021-08-31T08:07:23Z</time>
      </trkpt>
      <trkpt lat="44.509" lon="5.45415">
        <ele>856.79998779297</ele>
        <time>2021-08-31T08:07:29Z</time>
      </trkpt>
      <trkpt lat="44.509" lon="5.45419">
        <ele>856.79998779297</ele>
        <time>2021-08-31T08:07:30Z</time>
      </trkpt>
      <trkpt lat="44.50899" lon="5.45446">
        <ele>858</ele>
        <time>2021-08-31T08:07:38Z</time>
      </trkpt>
      <trkpt lat="44.50899" lon="5.45472">
        <ele>859</ele>
        <time>2021-08-31T08:07:46Z</time>
      </trkpt>
      <trkpt lat="44.50895" lon="5.45496">
        <ele>860.20001220703</ele>
        <time>2021-08-31T08:07:53Z</time>
      </trkpt>
      <trkpt lat="44.50888" lon="5.45513">
        <ele>861</ele>
        <time>2021-08-31T08:07:59Z</time>
      </trkpt>
      <trkpt lat="44.50884" lon="5.45521">
        <ele>861.20001220703</ele>
        <time>2021-08-31T08:08:01Z</time>
      </trkpt>
      <trkpt lat="44.50877" lon="5.45541">
        <ele>861.79998779297</ele>
        <time>2021-08-31T08:08:06Z</time>
      </trkpt>
      <trkpt lat="44.50871" lon="5.45559">
        <ele>862.40002441406</ele>
        <time>2021-08-31T08:08:11Z</time>
      </trkpt>
      <trkpt lat="44.50864" lon="5.45574">
        <ele>862.79998779297</ele>
        <time>2021-08-31T08:08:15Z</time>
      </trkpt>
      <trkpt lat="44.50858" lon="5.45586">
        <ele>863.40002441406</ele>
        <time>2021-08-31T08:08:19Z</time>
      </trkpt>
      <trkpt lat="44.50854" lon="5.45591">
        <ele>863.59997558594</ele>
        <time>2021-08-31T08:08:21Z</time>
      </trkpt>
      <trkpt lat="44.50845" lon="5.45603">
        <ele>864.40002441406</ele>
        <time>2021-08-31T08:08:26Z</time>
      </trkpt>
      <trkpt lat="44.50838" lon="5.45611">
        <ele>865</ele>
        <time>2021-08-31T08:08:30Z</time>
      </trkpt>
      <trkpt lat="44.50829" lon="5.45629">
        <ele>865.59997558594</ele>
        <time>2021-08-31T08:08:36Z</time>
      </trkpt>
      <trkpt lat="44.50826" lon="5.45635">
        <ele>865.79998779297</ele>
        <time>2021-08-31T08:08:38Z</time>
      </trkpt>
      <trkpt lat="44.5082" lon="5.45651">
        <ele>866.59997558594</ele>
        <time>2021-08-31T08:08:44Z</time>
      </trkpt>
      <trkpt lat="44.5082" lon="5.45654">
        <ele>866.79998779297</ele>
        <time>2021-08-31T08:08:45Z</time>
      </trkpt>
      <trkpt lat="44.50815" lon="5.45669">
        <ele>867.59997558594</ele>
        <time>2021-08-31T08:08:50Z</time>
      </trkpt>
      <trkpt lat="44.50811" lon="5.45676">
        <ele>868.20001220703</ele>
        <time>2021-08-31T08:08:53Z</time>
      </trkpt>
      <trkpt lat="44.50807" lon="5.45686">
        <ele>868.59997558594</ele>
        <time>2021-08-31T08:08:57Z</time>
      </trkpt>
      <trkpt lat="44.50802" lon="5.45696">
        <ele>869.40002441406</ele>
        <time>2021-08-31T08:09:01Z</time>
      </trkpt>
      <trkpt lat="44.50799" lon="5.45701">
        <ele>869.79998779297</ele>
        <time>2021-08-31T08:09:03Z</time>
      </trkpt>
      <trkpt lat="44.50792" lon="5.45714">
        <ele>870.40002441406</ele>
        <time>2021-08-31T08:09:08Z</time>
      </trkpt>
      <trkpt lat="44.50789" lon="5.45722">
        <ele>870.79998779297</ele>
        <time>2021-08-31T08:09:11Z</time>
      </trkpt>
      <trkpt lat="44.50787" lon="5.45734">
        <ele>871.40002441406</ele>
        <time>2021-08-31T08:09:15Z</time>
      </trkpt>
      <trkpt lat="44.50786" lon="5.45743">
        <ele>871.79998779297</ele>
        <time>2021-08-31T08:09:18Z</time>
      </trkpt>
      <trkpt lat="44.50783" lon="5.45766">
        <ele>872.79998779297</ele>
        <time>2021-08-31T08:09:25Z</time>
      </trkpt>
      <trkpt lat="44.50782" lon="5.45769">
        <ele>872.79998779297</ele>
        <time>2021-08-31T08:09:26Z</time>
      </trkpt>
      <trkpt lat="44.50777" lon="5.45787">
        <ele>873.40002441406</ele>
        <time>2021-08-31T08:09:32Z</time>
      </trkpt>
      <trkpt lat="44.50774" lon="5.45798">
        <ele>874</ele>
        <time>2021-08-31T08:09:36Z</time>
      </trkpt>
      <trkpt lat="44.50774" lon="5.45806">
        <ele>874.20001220703</ele>
        <time>2021-08-31T08:09:39Z</time>
      </trkpt>
      <trkpt lat="44.50773" lon="5.45812">
        <ele>874.59997558594</ele>
        <time>2021-08-31T08:09:41Z</time>
      </trkpt>
      <trkpt lat="44.5077" lon="5.45825">
        <ele>875</ele>
        <time>2021-08-31T08:09:45Z</time>
      </trkpt>
      <trkpt lat="44.50767" lon="5.45836">
        <ele>875.59997558594</ele>
        <time>2021-08-31T08:09:49Z</time>
      </trkpt>
      <trkpt lat="44.50764" lon="5.45845">
        <ele>876</ele>
        <time>2021-08-31T08:09:52Z</time>
      </trkpt>
      <trkpt lat="44.50762" lon="5.45857">
        <ele>876.59997558594</ele>
        <time>2021-08-31T08:09:56Z</time>
      </trkpt>
      <trkpt lat="44.5076" lon="5.45868">
        <ele>877.20001220703</ele>
        <time>2021-08-31T08:10:00Z</time>
      </trkpt>
      <trkpt lat="44.5076" lon="5.45883">
        <ele>877.79998779297</ele>
        <time>2021-08-31T08:10:05Z</time>
      </trkpt>
      <trkpt lat="44.5076" lon="5.45892">
        <ele>878.20001220703</ele>
        <time>2021-08-31T08:10:08Z</time>
      </trkpt>
      <trkpt lat="44.50757" lon="5.45897">
        <ele>878.79998779297</ele>
        <time>2021-08-31T08:10:11Z</time>
      </trkpt>
      <trkpt lat="44.50755" lon="5.45898">
        <ele>879</ele>
        <time>2021-08-31T08:10:12Z</time>
      </trkpt>
      <trkpt lat="44.50752" lon="5.45895">
        <ele>879.40002441406</ele>
        <time>2021-08-31T08:10:14Z</time>
      </trkpt>
      <trkpt lat="44.50751" lon="5.45892">
        <ele>879.59997558594</ele>
        <time>2021-08-31T08:10:15Z</time>
      </trkpt>
      <trkpt lat="44.50751" lon="5.45878">
        <ele>880.20001220703</ele>
        <time>2021-08-31T08:10:19Z</time>
      </trkpt>
      <trkpt lat="44.50752" lon="5.4587">
        <ele>880.40002441406</ele>
        <time>2021-08-31T08:10:21Z</time>
      </trkpt>
      <trkpt lat="44.50758" lon="5.45837">
        <ele>881.40002441406</ele>
        <time>2021-08-31T08:10:30Z</time>
      </trkpt>
      <trkpt lat="44.50758" lon="5.45826">
        <ele>881.59997558594</ele>
        <time>2021-08-31T08:10:33Z</time>
      </trkpt>
      <trkpt lat="44.50758" lon="5.45808">
        <ele>882.20001220703</ele>
        <time>2021-08-31T08:10:38Z</time>
      </trkpt>
      <trkpt lat="44.50757" lon="5.45792">
        <ele>882.59997558594</ele>
        <time>2021-08-31T08:10:43Z</time>
      </trkpt>
      <trkpt lat="44.50757" lon="5.45781">
        <ele>883</ele>
        <time>2021-08-31T08:10:46Z</time>
      </trkpt>
      <trkpt lat="44.50758" lon="5.45762">
        <ele>883.79998779297</ele>
        <time>2021-08-31T08:10:52Z</time>
      </trkpt>
      <trkpt lat="44.50757" lon="5.45757">
        <ele>884</ele>
        <time>2021-08-31T08:10:54Z</time>
      </trkpt>
      <trkpt lat="44.50758" lon="5.45743">
        <ele>884.79998779297</ele>
        <time>2021-08-31T08:10:59Z</time>
      </trkpt>
      <trkpt lat="44.50759" lon="5.45731">
        <ele>885.59997558594</ele>
        <time>2021-08-31T08:11:03Z</time>
      </trkpt>
      <trkpt lat="44.50759" lon="5.45728">
        <ele>885.79998779297</ele>
        <time>2021-08-31T08:11:04Z</time>
      </trkpt>
      <trkpt lat="44.50758" lon="5.45707">
        <ele>886.79998779297</ele>
        <time>2021-08-31T08:11:11Z</time>
      </trkpt>
      <trkpt lat="44.50756" lon="5.45688">
        <ele>887.79998779297</ele>
        <time>2021-08-31T08:11:17Z</time>
      </trkpt>
      <trkpt lat="44.50755" lon="5.45685">
        <ele>888</ele>
        <time>2021-08-31T08:11:18Z</time>
      </trkpt>
      <trkpt lat="44.50755" lon="5.45664">
        <ele>888.59997558594</ele>
        <time>2021-08-31T08:11:24Z</time>
      </trkpt>
      <trkpt lat="44.50756" lon="5.45657">
        <ele>889</ele>
        <time>2021-08-31T08:11:26Z</time>
      </trkpt>
      <trkpt lat="44.50758" lon="5.45634">
        <ele>890</ele>
        <time>2021-08-31T08:11:33Z</time>
      </trkpt>
      <trkpt lat="44.50761" lon="5.45612">
        <ele>891</ele>
        <time>2021-08-31T08:11:40Z</time>
      </trkpt>
      <trkpt lat="44.50761" lon="5.45609">
        <ele>891.20001220703</ele>
        <time>2021-08-31T08:11:41Z</time>
      </trkpt>
      <trkpt lat="44.50764" lon="5.45587">
        <ele>892.20001220703</ele>
        <time>2021-08-31T08:11:48Z</time>
      </trkpt>
      <trkpt lat="44.50767" lon="5.4557">
        <ele>893.40002441406</ele>
        <time>2021-08-31T08:11:54Z</time>
      </trkpt>
      <trkpt lat="44.50768" lon="5.45567">
        <ele>893.59997558594</ele>
        <time>2021-08-31T08:11:55Z</time>
      </trkpt>
      <trkpt lat="44.50777" lon="5.45546">
        <ele>894.40002441406</ele>
        <time>2021-08-31T08:12:02Z</time>
      </trkpt>
      <trkpt lat="44.50778" lon="5.45543">
        <ele>894.40002441406</ele>
        <time>2021-08-31T08:12:03Z</time>
      </trkpt>
      <trkpt lat="44.50784" lon="5.4552">
        <ele>895.40002441406</ele>
        <time>2021-08-31T08:12:10Z</time>
      </trkpt>
      <trkpt lat="44.50785" lon="5.45517">
        <ele>895.59997558594</ele>
        <time>2021-08-31T08:12:11Z</time>
      </trkpt>
      <trkpt lat="44.50785" lon="5.45506">
        <ele>896</ele>
        <time>2021-08-31T08:12:14Z</time>
      </trkpt>
      <trkpt lat="44.50783" lon="5.45504">
        <ele>896.20001220703</ele>
        <time>2021-08-31T08:12:15Z</time>
      </trkpt>
      <trkpt lat="44.50775" lon="5.45503">
        <ele>896.59997558594</ele>
        <time>2021-08-31T08:12:18Z</time>
      </trkpt>
      <trkpt lat="44.50772" lon="5.45505">
        <ele>896.79998779297</ele>
        <time>2021-08-31T08:12:19Z</time>
      </trkpt>
      <trkpt lat="44.50764" lon="5.45516">
        <ele>897</ele>
        <time>2021-08-31T08:12:23Z</time>
      </trkpt>
      <trkpt lat="44.50763" lon="5.45519">
        <ele>897.20001220703</ele>
        <time>2021-08-31T08:12:24Z</time>
      </trkpt>
      <trkpt lat="44.50757" lon="5.45533">
        <ele>897.59997558594</ele>
        <time>2021-08-31T08:12:28Z</time>
      </trkpt>
      <trkpt lat="44.50749" lon="5.45548">
        <ele>898.40002441406</ele>
        <time>2021-08-31T08:12:34Z</time>
      </trkpt>
      <trkpt lat="44.50746" lon="5.45554">
        <ele>898.59997558594</ele>
        <time>2021-08-31T08:12:36Z</time>
      </trkpt>
      <trkpt lat="44.50735" lon="5.45575">
        <ele>899.79998779297</ele>
        <time>2021-08-31T08:12:43Z</time>
      </trkpt>
      <trkpt lat="44.50722" lon="5.45597">
        <ele>900.79998779297</ele>
        <time>2021-08-31T08:12:50Z</time>
      </trkpt>
      <trkpt lat="44.5072" lon="5.45601">
        <ele>901</ele>
        <time>2021-08-31T08:12:51Z</time>
      </trkpt>
      <trkpt lat="44.50712" lon="5.45625">
        <ele>901.79998779297</ele>
        <time>2021-08-31T08:12:58Z</time>
      </trkpt>
      <trkpt lat="44.50712" lon="5.45629">
        <ele>902</ele>
        <time>2021-08-31T08:12:59Z</time>
      </trkpt>
      <trkpt lat="44.5071" lon="5.45647">
        <ele>903.20001220703</ele>
        <time>2021-08-31T08:13:04Z</time>
      </trkpt>
      <trkpt lat="44.50709" lon="5.45664">
        <ele>904.20001220703</ele>
        <time>2021-08-31T08:13:09Z</time>
      </trkpt>
      <trkpt lat="44.50709" lon="5.45674">
        <ele>904.59997558594</ele>
        <time>2021-08-31T08:13:12Z</time>
      </trkpt>
      <trkpt lat="44.50708" lon="5.45689">
        <ele>905.20001220703</ele>
        <time>2021-08-31T08:13:16Z</time>
      </trkpt>
      <trkpt lat="44.50709" lon="5.45695">
        <ele>905.59997558594</ele>
        <time>2021-08-31T08:13:18Z</time>
      </trkpt>
      <trkpt lat="44.50709" lon="5.45712">
        <ele>906.20001220703</ele>
        <time>2021-08-31T08:13:23Z</time>
      </trkpt>
      <trkpt lat="44.50708" lon="5.45718">
        <ele>906.59997558594</ele>
        <time>2021-08-31T08:13:25Z</time>
      </trkpt>
      <trkpt lat="44.50704" lon="5.45731">
        <ele>907.40002441406</ele>
        <time>2021-08-31T08:13:29Z</time>
      </trkpt>
      <trkpt lat="44.507" lon="5.45741">
        <ele>907.79998779297</ele>
        <time>2021-08-31T08:13:32Z</time>
      </trkpt>
      <trkpt lat="44.50695" lon="5.45749">
        <ele>908.40002441406</ele>
        <time>2021-08-31T08:13:35Z</time>
      </trkpt>
      <trkpt lat="44.5069" lon="5.45758">
        <ele>909</ele>
        <time>2021-08-31T08:13:38Z</time>
      </trkpt>
      <trkpt lat="44.50687" lon="5.45771">
        <ele>909.59997558594</ele>
        <time>2021-08-31T08:13:42Z</time>
      </trkpt>
      <trkpt lat="44.50686" lon="5.45778">
        <ele>910</ele>
        <time>2021-08-31T08:13:44Z</time>
      </trkpt>
      <trkpt lat="44.50683" lon="5.45791">
        <ele>910.59997558594</ele>
        <time>2021-08-31T08:13:48Z</time>
      </trkpt>
      <trkpt lat="44.50678" lon="5.45804">
        <ele>911.40002441406</ele>
        <time>2021-08-31T08:13:52Z</time>
      </trkpt>
      <trkpt lat="44.50677" lon="5.4581">
        <ele>911.79998779297</ele>
        <time>2021-08-31T08:13:54Z</time>
      </trkpt>
      <trkpt lat="44.50671" lon="5.4583">
        <ele>912.79998779297</ele>
        <time>2021-08-31T08:14:00Z</time>
      </trkpt>
      <trkpt lat="44.5067" lon="5.45833">
        <ele>913</ele>
        <time>2021-08-31T08:14:01Z</time>
      </trkpt>
      <trkpt lat="44.50668" lon="5.4585">
        <ele>913.79998779297</ele>
        <time>2021-08-31T08:14:07Z</time>
      </trkpt>
      <trkpt lat="44.50667" lon="5.45853">
        <ele>914</ele>
        <time>2021-08-31T08:14:08Z</time>
      </trkpt>
      <trkpt lat="44.50665" lon="5.45864">
        <ele>914.79998779297</ele>
        <time>2021-08-31T08:14:12Z</time>
      </trkpt>
      <trkpt lat="44.50663" lon="5.4587">
        <ele>915.20001220703</ele>
        <time>2021-08-31T08:14:14Z</time>
      </trkpt>
      <trkpt lat="44.50657" lon="5.45887">
        <ele>916</ele>
        <time>2021-08-31T08:14:20Z</time>
      </trkpt>
      <trkpt lat="44.50652" lon="5.45898">
        <ele>916.40002441406</ele>
        <time>2021-08-31T08:14:24Z</time>
      </trkpt>
      <trkpt lat="44.50649" lon="5.45905">
        <ele>916.79998779297</ele>
        <time>2021-08-31T08:14:27Z</time>
      </trkpt>
      <trkpt lat="44.50645" lon="5.45916">
        <ele>917.59997558594</ele>
        <time>2021-08-31T08:14:31Z</time>
      </trkpt>
      <trkpt lat="44.50642" lon="5.45925">
        <ele>918</ele>
        <time>2021-08-31T08:14:34Z</time>
      </trkpt>
      <trkpt lat="44.50639" lon="5.45937">
        <ele>918.59997558594</ele>
        <time>2021-08-31T08:14:38Z</time>
      </trkpt>
      <trkpt lat="44.50638" lon="5.45949">
        <ele>919.20001220703</ele>
        <time>2021-08-31T08:14:42Z</time>
      </trkpt>
      <trkpt lat="44.50636" lon="5.45959">
        <ele>919.79998779297</ele>
        <time>2021-08-31T08:14:45Z</time>
      </trkpt>
      <trkpt lat="44.50637" lon="5.45971">
        <ele>920.20001220703</ele>
        <time>2021-08-31T08:14:49Z</time>
      </trkpt>
      <trkpt lat="44.50641" lon="5.45987">
        <ele>920.79998779297</ele>
        <time>2021-08-31T08:14:54Z</time>
      </trkpt>
      <trkpt lat="44.50643" lon="5.45995">
        <ele>921</ele>
        <time>2021-08-31T08:14:57Z</time>
      </trkpt>
      <trkpt lat="44.50646" lon="5.46008">
        <ele>921.79998779297</ele>
        <time>2021-08-31T08:15:01Z</time>
      </trkpt>
      <trkpt lat="44.50648" lon="5.46021">
        <ele>922.40002441406</ele>
        <time>2021-08-31T08:15:05Z</time>
      </trkpt>
      <trkpt lat="44.50649" lon="5.4603">
        <ele>922.79998779297</ele>
        <time>2021-08-31T08:15:08Z</time>
      </trkpt>
      <trkpt lat="44.50647" lon="5.46043">
        <ele>923.40002441406</ele>
        <time>2021-08-31T08:15:12Z</time>
      </trkpt>
      <trkpt lat="44.50643" lon="5.46058">
        <ele>924</ele>
        <time>2021-08-31T08:15:17Z</time>
      </trkpt>
      <trkpt lat="44.50642" lon="5.46061">
        <ele>924.20001220703</ele>
        <time>2021-08-31T08:15:18Z</time>
      </trkpt>
      <trkpt lat="44.50637" lon="5.46085">
        <ele>925.20001220703</ele>
        <time>2021-08-31T08:15:26Z</time>
      </trkpt>
      <trkpt lat="44.50636" lon="5.46089">
        <ele>925.40002441406</ele>
        <time>2021-08-31T08:15:27Z</time>
      </trkpt>
      <trkpt lat="44.50632" lon="5.4611">
        <ele>926.20001220703</ele>
        <time>2021-08-31T08:15:34Z</time>
      </trkpt>
      <trkpt lat="44.50631" lon="5.46113">
        <ele>926.40002441406</ele>
        <time>2021-08-31T08:15:35Z</time>
      </trkpt>
      <trkpt lat="44.50623" lon="5.46126">
        <ele>927.20001220703</ele>
        <time>2021-08-31T08:15:41Z</time>
      </trkpt>
      <trkpt lat="44.50621" lon="5.46127">
        <ele>927.40002441406</ele>
        <time>2021-08-31T08:15:42Z</time>
      </trkpt>
      <trkpt lat="44.50613" lon="5.46134">
        <ele>928</ele>
        <time>2021-08-31T08:15:46Z</time>
      </trkpt>
      <trkpt lat="44.50604" lon="5.46137">
        <ele>928.59997558594</ele>
        <time>2021-08-31T08:15:50Z</time>
      </trkpt>
      <trkpt lat="44.50602" lon="5.46137">
        <ele>928.79998779297</ele>
        <time>2021-08-31T08:15:51Z</time>
      </trkpt>
      <trkpt lat="44.50592" lon="5.46142">
        <ele>929.59997558594</ele>
        <time>2021-08-31T08:15:56Z</time>
      </trkpt>
      <trkpt lat="44.5059" lon="5.46144">
        <ele>929.79998779297</ele>
        <time>2021-08-31T08:15:57Z</time>
      </trkpt>
      <trkpt lat="44.5058" lon="5.46157">
        <ele>930.59997558594</ele>
        <time>2021-08-31T08:16:03Z</time>
      </trkpt>
      <trkpt lat="44.50573" lon="5.46172">
        <ele>931.20001220703</ele>
        <time>2021-08-31T08:16:08Z</time>
      </trkpt>
      <trkpt lat="44.50572" lon="5.46178">
        <ele>931.40002441406</ele>
        <time>2021-08-31T08:16:10Z</time>
      </trkpt>
      <trkpt lat="44.50573" lon="5.46191">
        <ele>931.79998779297</ele>
        <time>2021-08-31T08:16:14Z</time>
      </trkpt>
      <trkpt lat="44.50575" lon="5.462">
        <ele>932.20001220703</ele>
        <time>2021-08-31T08:16:17Z</time>
      </trkpt>
      <trkpt lat="44.50576" lon="5.46215">
        <ele>933</ele>
        <time>2021-08-31T08:16:22Z</time>
      </trkpt>
      <trkpt lat="44.50574" lon="5.46226">
        <ele>933.79998779297</ele>
        <time>2021-08-31T08:16:26Z</time>
      </trkpt>
      <trkpt lat="44.50573" lon="5.46231">
        <ele>934</ele>
        <time>2021-08-31T08:16:28Z</time>
      </trkpt>
      <trkpt lat="44.50569" lon="5.46246">
        <ele>934.79998779297</ele>
        <time>2021-08-31T08:16:33Z</time>
      </trkpt>
      <trkpt lat="44.50567" lon="5.46253">
        <ele>935.20001220703</ele>
        <time>2021-08-31T08:16:35Z</time>
      </trkpt>
      <trkpt lat="44.50564" lon="5.46266">
        <ele>936</ele>
        <time>2021-08-31T08:16:40Z</time>
      </trkpt>
      <trkpt lat="44.50564" lon="5.4627">
        <ele>936.20001220703</ele>
        <time>2021-08-31T08:16:41Z</time>
      </trkpt>
      <trkpt lat="44.50562" lon="5.46285">
        <ele>936.59997558594</ele>
        <time>2021-08-31T08:16:46Z</time>
      </trkpt>
      <trkpt lat="44.50559" lon="5.463">
        <ele>937.20001220703</ele>
        <time>2021-08-31T08:16:51Z</time>
      </trkpt>
      <trkpt lat="44.50557" lon="5.46305">
        <ele>937.40002441406</ele>
        <time>2021-08-31T08:16:53Z</time>
      </trkpt>
      <trkpt lat="44.50552" lon="5.46317">
        <ele>938.40002441406</ele>
        <time>2021-08-31T08:16:58Z</time>
      </trkpt>
      <trkpt lat="44.5055" lon="5.46319">
        <ele>938.40002441406</ele>
        <time>2021-08-31T08:16:59Z</time>
      </trkpt>
      <trkpt lat="44.50544" lon="5.46334">
        <ele>939.40002441406</ele>
        <time>2021-08-31T08:17:05Z</time>
      </trkpt>
      <trkpt lat="44.50543" lon="5.46337">
        <ele>939.40002441406</ele>
        <time>2021-08-31T08:17:06Z</time>
      </trkpt>
      <trkpt lat="44.50542" lon="5.46354">
        <ele>940.40002441406</ele>
        <time>2021-08-31T08:17:12Z</time>
      </trkpt>
      <trkpt lat="44.50542" lon="5.46357">
        <ele>940.40002441406</ele>
        <time>2021-08-31T08:17:13Z</time>
      </trkpt>
      <trkpt lat="44.50536" lon="5.46374">
        <ele>941.40002441406</ele>
        <time>2021-08-31T08:17:19Z</time>
      </trkpt>
      <trkpt lat="44.50534" lon="5.4638">
        <ele>941.59997558594</ele>
        <time>2021-08-31T08:17:21Z</time>
      </trkpt>
      <trkpt lat="44.5053" lon="5.46396">
        <ele>942.59997558594</ele>
        <time>2021-08-31T08:17:27Z</time>
      </trkpt>
      <trkpt lat="44.5053" lon="5.46399">
        <ele>942.59997558594</ele>
        <time>2021-08-31T08:17:28Z</time>
      </trkpt>
      <trkpt lat="44.50526" lon="5.46411">
        <ele>943.40002441406</ele>
        <time>2021-08-31T08:17:33Z</time>
      </trkpt>
      <trkpt lat="44.50526" lon="5.46414">
        <ele>943.40002441406</ele>
        <time>2021-08-31T08:17:34Z</time>
      </trkpt>
      <trkpt lat="44.50525" lon="5.46417">
        <ele>943.59997558594</ele>
        <time>2021-08-31T08:17:35Z</time>
      </trkpt>
      <trkpt lat="44.50522" lon="5.46425">
        <ele>944.20001220703</ele>
        <time>2021-08-31T08:17:38Z</time>
      </trkpt>
      <trkpt lat="44.5052" lon="5.46433">
        <ele>944.59997558594</ele>
        <time>2021-08-31T08:17:41Z</time>
      </trkpt>
      <trkpt lat="44.50519" lon="5.46438">
        <ele>944.79998779297</ele>
        <time>2021-08-31T08:17:43Z</time>
      </trkpt>
      <trkpt lat="44.50516" lon="5.46451">
        <ele>945.59997558594</ele>
        <time>2021-08-31T08:17:48Z</time>
      </trkpt>
      <trkpt lat="44.50515" lon="5.46453">
        <ele>945.79998779297</ele>
        <time>2021-08-31T08:17:49Z</time>
      </trkpt>
      <trkpt lat="44.50513" lon="5.46456">
        <ele>946</ele>
        <time>2021-08-31T08:17:50Z</time>
      </trkpt>
      <trkpt lat="44.50511" lon="5.46461">
        <ele>946.20001220703</ele>
        <time>2021-08-31T08:17:52Z</time>
      </trkpt>
      <trkpt lat="44.5051" lon="5.46464">
        <ele>946.40002441406</ele>
        <time>2021-08-31T08:17:53Z</time>
      </trkpt>
      <trkpt lat="44.50509" lon="5.46469">
        <ele>946.79998779297</ele>
        <time>2021-08-31T08:17:55Z</time>
      </trkpt>
      <trkpt lat="44.50508" lon="5.46474">
        <ele>947.20001220703</ele>
        <time>2021-08-31T08:17:57Z</time>
      </trkpt>
      <trkpt lat="44.50508" lon="5.46477">
        <ele>947.20001220703</ele>
        <time>2021-08-31T08:17:58Z</time>
      </trkpt>
      <trkpt lat="44.50507" lon="5.46483">
        <ele>947.59997558594</ele>
        <time>2021-08-31T08:18:00Z</time>
      </trkpt>
      <trkpt lat="44.50505" lon="5.46494">
        <ele>948.20001220703</ele>
        <time>2021-08-31T08:18:04Z</time>
      </trkpt>
      <trkpt lat="44.50504" lon="5.46496">
        <ele>948.20001220703</ele>
        <time>2021-08-31T08:18:05Z</time>
      </trkpt>
      <trkpt lat="44.50503" lon="5.46513">
        <ele>949.20001220703</ele>
        <time>2021-08-31T08:18:11Z</time>
      </trkpt>
      <trkpt lat="44.50501" lon="5.46529">
        <ele>950.40002441406</ele>
        <time>2021-08-31T08:18:17Z</time>
      </trkpt>
      <trkpt lat="44.50503" lon="5.46545">
        <ele>951</ele>
        <time>2021-08-31T08:18:23Z</time>
      </trkpt>
      <trkpt lat="44.50504" lon="5.46553">
        <ele>951.40002441406</ele>
        <time>2021-08-31T08:18:26Z</time>
      </trkpt>
      <trkpt lat="44.50501" lon="5.46567">
        <ele>951.79998779297</ele>
        <time>2021-08-31T08:18:31Z</time>
      </trkpt>
      <trkpt lat="44.50499" lon="5.46577">
        <ele>952.40002441406</ele>
        <time>2021-08-31T08:18:35Z</time>
      </trkpt>
      <trkpt lat="44.50495" lon="5.46584">
        <ele>953</ele>
        <time>2021-08-31T08:18:38Z</time>
      </trkpt>
      <trkpt lat="44.50493" lon="5.46595">
        <ele>953.40002441406</ele>
        <time>2021-08-31T08:18:42Z</time>
      </trkpt>
      <trkpt lat="44.50493" lon="5.46598">
        <ele>953.59997558594</ele>
        <time>2021-08-31T08:18:43Z</time>
      </trkpt>
      <trkpt lat="44.50486" lon="5.46612">
        <ele>954.40002441406</ele>
        <time>2021-08-31T08:18:49Z</time>
      </trkpt>
      <trkpt lat="44.50478" lon="5.46627">
        <ele>955.40002441406</ele>
        <time>2021-08-31T08:18:56Z</time>
      </trkpt>
      <trkpt lat="44.50476" lon="5.4663">
        <ele>955.59997558594</ele>
        <time>2021-08-31T08:18:57Z</time>
      </trkpt>
      <trkpt lat="44.50469" lon="5.46649">
        <ele>956.59997558594</ele>
        <time>2021-08-31T08:19:04Z</time>
      </trkpt>
      <trkpt lat="44.50465" lon="5.46668">
        <ele>957.40002441406</ele>
        <time>2021-08-31T08:19:11Z</time>
      </trkpt>
      <trkpt lat="44.50464" lon="5.46673">
        <ele>957.79998779297</ele>
        <time>2021-08-31T08:19:13Z</time>
      </trkpt>
      <trkpt lat="44.5046" lon="5.46689">
        <ele>958.40002441406</ele>
        <time>2021-08-31T08:19:19Z</time>
      </trkpt>
      <trkpt lat="44.50458" lon="5.46698">
        <ele>958.79998779297</ele>
        <time>2021-08-31T08:19:22Z</time>
      </trkpt>
      <trkpt lat="44.50456" lon="5.46709">
        <ele>959.40002441406</ele>
        <time>2021-08-31T08:19:26Z</time>
      </trkpt>
      <trkpt lat="44.50454" lon="5.4672">
        <ele>960</ele>
        <time>2021-08-31T08:19:30Z</time>
      </trkpt>
      <trkpt lat="44.50452" lon="5.46729">
        <ele>960.40002441406</ele>
        <time>2021-08-31T08:19:33Z</time>
      </trkpt>
      <trkpt lat="44.50449" lon="5.46739">
        <ele>961</ele>
        <time>2021-08-31T08:19:37Z</time>
      </trkpt>
      <trkpt lat="44.50446" lon="5.46747">
        <ele>961.40002441406</ele>
        <time>2021-08-31T08:19:40Z</time>
      </trkpt>
      <trkpt lat="44.50445" lon="5.46757">
        <ele>962</ele>
        <time>2021-08-31T08:19:44Z</time>
      </trkpt>
      <trkpt lat="44.50444" lon="5.46768">
        <ele>962.59997558594</ele>
        <time>2021-08-31T08:19:48Z</time>
      </trkpt>
      <trkpt lat="44.50441" lon="5.46773">
        <ele>963.20001220703</ele>
        <time>2021-08-31T08:19:50Z</time>
      </trkpt>
      <trkpt lat="44.50436" lon="5.46785">
        <ele>963.79998779297</ele>
        <time>2021-08-31T08:19:55Z</time>
      </trkpt>
      <trkpt lat="44.50433" lon="5.46793">
        <ele>964.20001220703</ele>
        <time>2021-08-31T08:19:58Z</time>
      </trkpt>
      <trkpt lat="44.50431" lon="5.46801">
        <ele>964.79998779297</ele>
        <time>2021-08-31T08:20:01Z</time>
      </trkpt>
      <trkpt lat="44.50429" lon="5.46811">
        <ele>965.40002441406</ele>
        <time>2021-08-31T08:20:05Z</time>
      </trkpt>
      <trkpt lat="44.50428" lon="5.46814">
        <ele>965.59997558594</ele>
        <time>2021-08-31T08:20:06Z</time>
      </trkpt>
      <trkpt lat="44.50425" lon="5.46831">
        <ele>966.59997558594</ele>
        <time>2021-08-31T08:20:12Z</time>
      </trkpt>
      <trkpt lat="44.50425" lon="5.46833">
        <ele>966.79998779297</ele>
        <time>2021-08-31T08:20:13Z</time>
      </trkpt>
      <trkpt lat="44.50422" lon="5.46848">
        <ele>967.59997558594</ele>
        <time>2021-08-31T08:20:19Z</time>
      </trkpt>
      <trkpt lat="44.5042" lon="5.46848">
        <ele>967.79998779297</ele>
        <time>2021-08-31T08:20:20Z</time>
      </trkpt>
      <trkpt lat="44.50417" lon="5.46839">
        <ele>968.59997558594</ele>
        <time>2021-08-31T08:20:24Z</time>
      </trkpt>
      <trkpt lat="44.50417" lon="5.46836">
        <ele>968.79998779297</ele>
        <time>2021-08-31T08:20:25Z</time>
      </trkpt>
      <trkpt lat="44.50418" lon="5.46813">
        <ele>969.40002441406</ele>
        <time>2021-08-31T08:20:32Z</time>
      </trkpt>
      <trkpt lat="44.50421" lon="5.468">
        <ele>969.79998779297</ele>
        <time>2021-08-31T08:20:37Z</time>
      </trkpt>
      <trkpt lat="44.50422" lon="5.46791">
        <ele>970.20001220703</ele>
        <time>2021-08-31T08:20:40Z</time>
      </trkpt>
      <trkpt lat="44.50424" lon="5.46776">
        <ele>971</ele>
        <time>2021-08-31T08:20:45Z</time>
      </trkpt>
      <trkpt lat="44.50426" lon="5.46759">
        <ele>971.59997558594</ele>
        <time>2021-08-31T08:20:50Z</time>
      </trkpt>
      <trkpt lat="44.50427" lon="5.46747">
        <ele>972</ele>
        <time>2021-08-31T08:20:54Z</time>
      </trkpt>
      <trkpt lat="44.50428" lon="5.46739">
        <ele>972.40002441406</ele>
        <time>2021-08-31T08:20:57Z</time>
      </trkpt>
      <trkpt lat="44.50429" lon="5.46727">
        <ele>973</ele>
        <time>2021-08-31T08:21:01Z</time>
      </trkpt>
      <trkpt lat="44.5043" lon="5.46715">
        <ele>973.79998779297</ele>
        <time>2021-08-31T08:21:05Z</time>
      </trkpt>
      <trkpt lat="44.50431" lon="5.46711">
        <ele>974</ele>
        <time>2021-08-31T08:21:07Z</time>
      </trkpt>
      <trkpt lat="44.50431" lon="5.46694">
        <ele>975</ele>
        <time>2021-08-31T08:21:13Z</time>
      </trkpt>
      <trkpt lat="44.50431" lon="5.46691">
        <ele>975.20001220703</ele>
        <time>2021-08-31T08:21:14Z</time>
      </trkpt>
      <trkpt lat="44.50432" lon="5.46676">
        <ele>976.20001220703</ele>
        <time>2021-08-31T08:21:20Z</time>
      </trkpt>
      <trkpt lat="44.50432" lon="5.4667">
        <ele>976.40002441406</ele>
        <time>2021-08-31T08:21:22Z</time>
      </trkpt>
      <trkpt lat="44.50432" lon="5.46659">
        <ele>977.20001220703</ele>
        <time>2021-08-31T08:21:26Z</time>
      </trkpt>
      <trkpt lat="44.50433" lon="5.46654">
        <ele>977.40002441406</ele>
        <time>2021-08-31T08:21:28Z</time>
      </trkpt>
      <trkpt lat="44.50434" lon="5.46638">
        <ele>978.20001220703</ele>
        <time>2021-08-31T08:21:34Z</time>
      </trkpt>
      <trkpt lat="44.50434" lon="5.46635">
        <ele>978.40002441406</ele>
        <time>2021-08-31T08:21:35Z</time>
      </trkpt>
      <trkpt lat="44.50433" lon="5.46619">
        <ele>979.20001220703</ele>
        <time>2021-08-31T08:21:41Z</time>
      </trkpt>
      <trkpt lat="44.50433" lon="5.46614">
        <ele>979.59997558594</ele>
        <time>2021-08-31T08:21:43Z</time>
      </trkpt>
      <trkpt lat="44.50435" lon="5.46601">
        <ele>980.20001220703</ele>
        <time>2021-08-31T08:21:48Z</time>
      </trkpt>
      <trkpt lat="44.50436" lon="5.46594">
        <ele>980.59997558594</ele>
        <time>2021-08-31T08:21:51Z</time>
      </trkpt>
      <trkpt lat="44.50436" lon="5.46588">
        <ele>980.79998779297</ele>
        <time>2021-08-31T08:21:53Z</time>
      </trkpt>
      <trkpt lat="44.50435" lon="5.46582">
        <ele>981</ele>
        <time>2021-08-31T08:21:55Z</time>
      </trkpt>
      <trkpt lat="44.50436" lon="5.46573">
        <ele>981.59997558594</ele>
        <time>2021-08-31T08:21:59Z</time>
      </trkpt>
      <trkpt lat="44.50436" lon="5.46569">
        <ele>981.79998779297</ele>
        <time>2021-08-31T08:22:01Z</time>
      </trkpt>
      <trkpt lat="44.50435" lon="5.46561">
        <ele>982.20001220703</ele>
        <time>2021-08-31T08:22:04Z</time>
      </trkpt>
      <trkpt lat="44.50432" lon="5.46552">
        <ele>982.59997558594</ele>
        <time>2021-08-31T08:22:07Z</time>
      </trkpt>
      <trkpt lat="44.50429" lon="5.46539">
        <ele>983.20001220703</ele>
        <time>2021-08-31T08:22:11Z</time>
      </trkpt>
      <trkpt lat="44.50427" lon="5.4653">
        <ele>983.79998779297</ele>
        <time>2021-08-31T08:22:14Z</time>
      </trkpt>
      <trkpt lat="44.50423" lon="5.46515">
        <ele>984.40002441406</ele>
        <time>2021-08-31T08:22:19Z</time>
      </trkpt>
      <trkpt lat="44.50423" lon="5.46507">
        <ele>985</ele>
        <time>2021-08-31T08:22:22Z</time>
      </trkpt>
      <trkpt lat="44.50422" lon="5.46499">
        <ele>985.20001220703</ele>
        <time>2021-08-31T08:22:25Z</time>
      </trkpt>
      <trkpt lat="44.50423" lon="5.4648">
        <ele>986</ele>
        <time>2021-08-31T08:22:31Z</time>
      </trkpt>
      <trkpt lat="44.50425" lon="5.46475">
        <ele>986.20001220703</ele>
        <time>2021-08-31T08:22:33Z</time>
      </trkpt>
      <trkpt lat="44.50428" lon="5.46456">
        <ele>987</ele>
        <time>2021-08-31T08:22:40Z</time>
      </trkpt>
      <trkpt lat="44.50432" lon="5.46436">
        <ele>988</ele>
        <time>2021-08-31T08:22:47Z</time>
      </trkpt>
      <trkpt lat="44.50433" lon="5.4643">
        <ele>988.20001220703</ele>
        <time>2021-08-31T08:22:49Z</time>
      </trkpt>
      <trkpt lat="44.50435" lon="5.46412">
        <ele>989</ele>
        <time>2021-08-31T08:22:55Z</time>
      </trkpt>
      <trkpt lat="44.50436" lon="5.46406">
        <ele>989.20001220703</ele>
        <time>2021-08-31T08:22:57Z</time>
      </trkpt>
      <trkpt lat="44.50439" lon="5.46387">
        <ele>989.79998779297</ele>
        <time>2021-08-31T08:23:03Z</time>
      </trkpt>
      <trkpt lat="44.5044" lon="5.46375">
        <ele>990.40002441406</ele>
        <time>2021-08-31T08:23:07Z</time>
      </trkpt>
      <trkpt lat="44.50442" lon="5.4636">
        <ele>991</ele>
        <time>2021-08-31T08:23:12Z</time>
      </trkpt>
      <trkpt lat="44.50442" lon="5.46351">
        <ele>991.40002441406</ele>
        <time>2021-08-31T08:23:15Z</time>
      </trkpt>
      <trkpt lat="44.50442" lon="5.46346">
        <ele>991.59997558594</ele>
        <time>2021-08-31T08:23:17Z</time>
      </trkpt>
      <trkpt lat="44.50441" lon="5.46329">
        <ele>992.40002441406</ele>
        <time>2021-08-31T08:23:22Z</time>
      </trkpt>
      <trkpt lat="44.50441" lon="5.46322">
        <ele>992.79998779297</ele>
        <time>2021-08-31T08:23:24Z</time>
      </trkpt>
      <trkpt lat="44.50441" lon="5.46313">
        <ele>993.59997558594</ele>
        <time>2021-08-31T08:23:27Z</time>
      </trkpt>
      <trkpt lat="44.50443" lon="5.46297">
        <ele>994.20001220703</ele>
        <time>2021-08-31T08:23:32Z</time>
      </trkpt>
      <trkpt lat="44.50445" lon="5.46287">
        <ele>994.59997558594</ele>
        <time>2021-08-31T08:23:35Z</time>
      </trkpt>
      <trkpt lat="44.50447" lon="5.46274">
        <ele>995.20001220703</ele>
        <time>2021-08-31T08:23:39Z</time>
      </trkpt>
      <trkpt lat="44.50446" lon="5.46265">
        <ele>995.79998779297</ele>
        <time>2021-08-31T08:23:42Z</time>
      </trkpt>
      <trkpt lat="44.50444" lon="5.46264">
        <ele>996</ele>
        <time>2021-08-31T08:23:43Z</time>
      </trkpt>
      <trkpt lat="44.50441" lon="5.46264">
        <ele>996.20001220703</ele>
        <time>2021-08-31T08:23:44Z</time>
      </trkpt>
      <trkpt lat="44.50431" lon="5.46274">
        <ele>996.79998779297</ele>
        <time>2021-08-31T08:23:48Z</time>
      </trkpt>
      <trkpt lat="44.5043" lon="5.46277">
        <ele>996.79998779297</ele>
        <time>2021-08-31T08:23:49Z</time>
      </trkpt>
      <trkpt lat="44.50426" lon="5.46293">
        <ele>997.40002441406</ele>
        <time>2021-08-31T08:23:54Z</time>
      </trkpt>
      <trkpt lat="44.50425" lon="5.46304">
        <ele>997.79998779297</ele>
        <time>2021-08-31T08:23:57Z</time>
      </trkpt>
      <trkpt lat="44.50423" lon="5.46317">
        <ele>998.40002441406</ele>
        <time>2021-08-31T08:24:01Z</time>
      </trkpt>
      <trkpt lat="44.50422" lon="5.46332">
        <ele>999</ele>
        <time>2021-08-31T08:24:06Z</time>
      </trkpt>
      <trkpt lat="44.50421" lon="5.46341">
        <ele>999.40002441406</ele>
        <time>2021-08-31T08:24:09Z</time>
      </trkpt>
      <trkpt lat="44.50419" lon="5.46356">
        <ele>1000.200012207</ele>
        <time>2021-08-31T08:24:14Z</time>
      </trkpt>
      <trkpt lat="44.50417" lon="5.46367">
        <ele>1000.5999755859</ele>
        <time>2021-08-31T08:24:18Z</time>
      </trkpt>
      <trkpt lat="44.50413" lon="5.46381">
        <ele>1001.200012207</ele>
        <time>2021-08-31T08:24:22Z</time>
      </trkpt>
      <trkpt lat="44.5041" lon="5.46392">
        <ele>1001.799987793</ele>
        <time>2021-08-31T08:24:26Z</time>
      </trkpt>
      <trkpt lat="44.50407" lon="5.46403">
        <ele>1002.4000244141</ele>
        <time>2021-08-31T08:24:30Z</time>
      </trkpt>
      <trkpt lat="44.50404" lon="5.46413">
        <ele>1002.799987793</ele>
        <time>2021-08-31T08:24:33Z</time>
      </trkpt>
      <trkpt lat="44.504" lon="5.46423">
        <ele>1003.4000244141</ele>
        <time>2021-08-31T08:24:37Z</time>
      </trkpt>
      <trkpt lat="44.50398" lon="5.46432">
        <ele>1004</ele>
        <time>2021-08-31T08:24:40Z</time>
      </trkpt>
      <trkpt lat="44.50395" lon="5.46441">
        <ele>1004.5999755859</ele>
        <time>2021-08-31T08:24:43Z</time>
      </trkpt>
      <trkpt lat="44.5039" lon="5.46451">
        <ele>1005</ele>
        <time>2021-08-31T08:24:47Z</time>
      </trkpt>
      <trkpt lat="44.50384" lon="5.46464">
        <ele>1005.5999755859</ele>
        <time>2021-08-31T08:24:52Z</time>
      </trkpt>
      <trkpt lat="44.5038" lon="5.46472">
        <ele>1006</ele>
        <time>2021-08-31T08:24:55Z</time>
      </trkpt>
      <trkpt lat="44.50376" lon="5.46483">
        <ele>1006.5999755859</ele>
        <time>2021-08-31T08:24:59Z</time>
      </trkpt>
      <trkpt lat="44.50374" lon="5.46492">
        <ele>1007.200012207</ele>
        <time>2021-08-31T08:25:02Z</time>
      </trkpt>
      <trkpt lat="44.50373" lon="5.46501">
        <ele>1007.5999755859</ele>
        <time>2021-08-31T08:25:05Z</time>
      </trkpt>
      <trkpt lat="44.50369" lon="5.46512">
        <ele>1008.200012207</ele>
        <time>2021-08-31T08:25:09Z</time>
      </trkpt>
      <trkpt lat="44.50368" lon="5.46524">
        <ele>1008.799987793</ele>
        <time>2021-08-31T08:25:13Z</time>
      </trkpt>
      <trkpt lat="44.50367" lon="5.46537">
        <ele>1009.4000244141</ele>
        <time>2021-08-31T08:25:17Z</time>
      </trkpt>
      <trkpt lat="44.50366" lon="5.46543">
        <ele>1009.799987793</ele>
        <time>2021-08-31T08:25:19Z</time>
      </trkpt>
      <trkpt lat="44.50364" lon="5.4656">
        <ele>1010.799987793</ele>
        <time>2021-08-31T08:25:25Z</time>
      </trkpt>
      <trkpt lat="44.50363" lon="5.46563">
        <ele>1011.200012207</ele>
        <time>2021-08-31T08:25:26Z</time>
      </trkpt>
      <trkpt lat="44.50359" lon="5.46584">
        <ele>1012.4000244141</ele>
        <time>2021-08-31T08:25:33Z</time>
      </trkpt>
      <trkpt lat="44.50357" lon="5.466">
        <ele>1013.200012207</ele>
        <time>2021-08-31T08:25:39Z</time>
      </trkpt>
      <trkpt lat="44.50356" lon="5.46603">
        <ele>1013.4000244141</ele>
        <time>2021-08-31T08:25:40Z</time>
      </trkpt>
      <trkpt lat="44.50353" lon="5.46619">
        <ele>1014.200012207</ele>
        <time>2021-08-31T08:25:46Z</time>
      </trkpt>
      <trkpt lat="44.50352" lon="5.46625">
        <ele>1014.5999755859</ele>
        <time>2021-08-31T08:25:48Z</time>
      </trkpt>
      <trkpt lat="44.5035" lon="5.46642">
        <ele>1015.5999755859</ele>
        <time>2021-08-31T08:25:54Z</time>
      </trkpt>
      <trkpt lat="44.50349" lon="5.46662">
        <ele>1016.4000244141</ele>
        <time>2021-08-31T08:26:01Z</time>
      </trkpt>
      <trkpt lat="44.50348" lon="5.46668">
        <ele>1016.5999755859</ele>
        <time>2021-08-31T08:26:03Z</time>
      </trkpt>
      <trkpt lat="44.50344" lon="5.46677">
        <ele>1017.200012207</ele>
        <time>2021-08-31T08:26:07Z</time>
      </trkpt>
      <trkpt lat="44.50342" lon="5.46686">
        <ele>1017.799987793</ele>
        <time>2021-08-31T08:26:10Z</time>
      </trkpt>
      <trkpt lat="44.5034" lon="5.46694">
        <ele>1018</ele>
        <time>2021-08-31T08:26:13Z</time>
      </trkpt>
      <trkpt lat="44.50338" lon="5.4671">
        <ele>1018.799987793</ele>
        <time>2021-08-31T08:26:19Z</time>
      </trkpt>
      <trkpt lat="44.50337" lon="5.46713">
        <ele>1019</ele>
        <time>2021-08-31T08:26:20Z</time>
      </trkpt>
      <trkpt lat="44.50332" lon="5.46732">
        <ele>1020</ele>
        <time>2021-08-31T08:26:27Z</time>
      </trkpt>
      <trkpt lat="44.50328" lon="5.46753">
        <ele>1021</ele>
        <time>2021-08-31T08:26:34Z</time>
      </trkpt>
      <trkpt lat="44.50322" lon="5.46768">
        <ele>1022</ele>
        <time>2021-08-31T08:26:40Z</time>
      </trkpt>
      <trkpt lat="44.50321" lon="5.46771">
        <ele>1022</ele>
        <time>2021-08-31T08:26:41Z</time>
      </trkpt>
      <trkpt lat="44.50316" lon="5.46783">
        <ele>1022.799987793</ele>
        <time>2021-08-31T08:26:46Z</time>
      </trkpt>
      <trkpt lat="44.50313" lon="5.46787">
        <ele>1023.200012207</ele>
        <time>2021-08-31T08:26:48Z</time>
      </trkpt>
      <trkpt lat="44.50307" lon="5.46805">
        <ele>1024.1999511719</ele>
        <time>2021-08-31T08:26:55Z</time>
      </trkpt>
      <trkpt lat="44.50306" lon="5.46808">
        <ele>1024.4000244141</ele>
        <time>2021-08-31T08:26:56Z</time>
      </trkpt>
      <trkpt lat="44.503" lon="5.46829">
        <ele>1025.5999755859</ele>
        <time>2021-08-31T08:27:03Z</time>
      </trkpt>
      <trkpt lat="44.50293" lon="5.46848">
        <ele>1026.4000244141</ele>
        <time>2021-08-31T08:27:10Z</time>
      </trkpt>
      <trkpt lat="44.50292" lon="5.46851">
        <ele>1026.5999755859</ele>
        <time>2021-08-31T08:27:11Z</time>
      </trkpt>
      <trkpt lat="44.50286" lon="5.46864">
        <ele>1027.1999511719</ele>
        <time>2021-08-31T08:27:16Z</time>
      </trkpt>
      <trkpt lat="44.50283" lon="5.46871">
        <ele>1027.5999755859</ele>
        <time>2021-08-31T08:27:19Z</time>
      </trkpt>
      <trkpt lat="44.50278" lon="5.46885">
        <ele>1028.5999755859</ele>
        <time>2021-08-31T08:27:24Z</time>
      </trkpt>
      <trkpt lat="44.50275" lon="5.4689">
        <ele>1028.8000488281</ele>
        <time>2021-08-31T08:27:26Z</time>
      </trkpt>
      <trkpt lat="44.50271" lon="5.46908">
        <ele>1029.8000488281</ele>
        <time>2021-08-31T08:27:32Z</time>
      </trkpt>
      <trkpt lat="44.5027" lon="5.46911">
        <ele>1030</ele>
        <time>2021-08-31T08:27:33Z</time>
      </trkpt>
      <trkpt lat="44.50264" lon="5.46928">
        <ele>1030.8000488281</ele>
        <time>2021-08-31T08:27:39Z</time>
      </trkpt>
      <trkpt lat="44.50262" lon="5.46934">
        <ele>1031.1999511719</ele>
        <time>2021-08-31T08:27:41Z</time>
      </trkpt>
      <trkpt lat="44.50258" lon="5.46952">
        <ele>1032</ele>
        <time>2021-08-31T08:27:47Z</time>
      </trkpt>
      <trkpt lat="44.50257" lon="5.46958">
        <ele>1032.4000244141</ele>
        <time>2021-08-31T08:27:49Z</time>
      </trkpt>
      <trkpt lat="44.50252" lon="5.46971">
        <ele>1033</ele>
        <time>2021-08-31T08:27:54Z</time>
      </trkpt>
      <trkpt lat="44.5025" lon="5.46981">
        <ele>1033.4000244141</ele>
        <time>2021-08-31T08:27:57Z</time>
      </trkpt>
      <trkpt lat="44.50246" lon="5.46992">
        <ele>1034.1999511719</ele>
        <time>2021-08-31T08:28:01Z</time>
      </trkpt>
      <trkpt lat="44.50244" lon="5.47">
        <ele>1034.5999755859</ele>
        <time>2021-08-31T08:28:04Z</time>
      </trkpt>
      <trkpt lat="44.5024" lon="5.47014">
        <ele>1035.1999511719</ele>
        <time>2021-08-31T08:28:09Z</time>
      </trkpt>
      <trkpt lat="44.50239" lon="5.47017">
        <ele>1035.4000244141</ele>
        <time>2021-08-31T08:28:10Z</time>
      </trkpt>
      <trkpt lat="44.50235" lon="5.47033">
        <ele>1036.4000244141</ele>
        <time>2021-08-31T08:28:16Z</time>
      </trkpt>
      <trkpt lat="44.50234" lon="5.4704">
        <ele>1036.5999755859</ele>
        <time>2021-08-31T08:28:18Z</time>
      </trkpt>
      <trkpt lat="44.50231" lon="5.47058">
        <ele>1037.4000244141</ele>
        <time>2021-08-31T08:28:24Z</time>
      </trkpt>
      <trkpt lat="44.5023" lon="5.47067">
        <ele>1037.8000488281</ele>
        <time>2021-08-31T08:28:27Z</time>
      </trkpt>
      <trkpt lat="44.50227" lon="5.47083">
        <ele>1038.4000244141</ele>
        <time>2021-08-31T08:28:32Z</time>
      </trkpt>
      <trkpt lat="44.50224" lon="5.47094">
        <ele>1039</ele>
        <time>2021-08-31T08:28:35Z</time>
      </trkpt>
      <trkpt lat="44.50221" lon="5.47106">
        <ele>1039.5999755859</ele>
        <time>2021-08-31T08:28:39Z</time>
      </trkpt>
      <trkpt lat="44.50217" lon="5.47122">
        <ele>1040.4000244141</ele>
        <time>2021-08-31T08:28:44Z</time>
      </trkpt>
      <trkpt lat="44.50217" lon="5.47129">
        <ele>1040.8000488281</ele>
        <time>2021-08-31T08:28:46Z</time>
      </trkpt>
      <trkpt lat="44.50214" lon="5.47147">
        <ele>1041.8000488281</ele>
        <time>2021-08-31T08:28:52Z</time>
      </trkpt>
      <trkpt lat="44.50214" lon="5.4715">
        <ele>1042</ele>
        <time>2021-08-31T08:28:53Z</time>
      </trkpt>
      <trkpt lat="44.50209" lon="5.47171">
        <ele>1043</ele>
        <time>2021-08-31T08:29:00Z</time>
      </trkpt>
      <trkpt lat="44.50208" lon="5.47174">
        <ele>1043.1999511719</ele>
        <time>2021-08-31T08:29:01Z</time>
      </trkpt>
      <trkpt lat="44.50206" lon="5.47196">
        <ele>1044.1999511719</ele>
        <time>2021-08-31T08:29:08Z</time>
      </trkpt>
      <trkpt lat="44.50206" lon="5.4722">
        <ele>1045</ele>
        <time>2021-08-31T08:29:15Z</time>
      </trkpt>
      <trkpt lat="44.50206" lon="5.47226">
        <ele>1045.1999511719</ele>
        <time>2021-08-31T08:29:17Z</time>
      </trkpt>
      <trkpt lat="44.50206" lon="5.47245">
        <ele>1046</ele>
        <time>2021-08-31T08:29:23Z</time>
      </trkpt>
      <trkpt lat="44.50207" lon="5.47251">
        <ele>1046.4000244141</ele>
        <time>2021-08-31T08:29:25Z</time>
      </trkpt>
      <trkpt lat="44.5021" lon="5.47263">
        <ele>1047</ele>
        <time>2021-08-31T08:29:29Z</time>
      </trkpt>
      <trkpt lat="44.50211" lon="5.47271">
        <ele>1047.4000244141</ele>
        <time>2021-08-31T08:29:32Z</time>
      </trkpt>
      <trkpt lat="44.50215" lon="5.47279">
        <ele>1047.8000488281</ele>
        <time>2021-08-31T08:29:35Z</time>
      </trkpt>
      <trkpt lat="44.5022" lon="5.47293">
        <ele>1048.4000244141</ele>
        <time>2021-08-31T08:29:40Z</time>
      </trkpt>
      <trkpt lat="44.50224" lon="5.47299">
        <ele>1048.8000488281</ele>
        <time>2021-08-31T08:29:42Z</time>
      </trkpt>
      <trkpt lat="44.5023" lon="5.4731">
        <ele>1049.5999755859</ele>
        <time>2021-08-31T08:29:47Z</time>
      </trkpt>
      <trkpt lat="44.50232" lon="5.47313">
        <ele>1049.8000488281</ele>
        <time>2021-08-31T08:29:49Z</time>
      </trkpt>
      <trkpt lat="44.50235" lon="5.47323">
        <ele>1050.5999755859</ele>
        <time>2021-08-31T08:30:48Z</time>
      </trkpt>
      <trkpt lat="44.50241" lon="5.47338">
        <ele>1051</ele>
        <time>2021-08-31T08:30:53Z</time>
      </trkpt>
      <trkpt lat="44.50248" lon="5.47361">
        <ele>1051.5999755859</ele>
        <time>2021-08-31T08:31:00Z</time>
      </trkpt>
      <trkpt lat="44.50249" lon="5.47364">
        <ele>1051.8000488281</ele>
        <time>2021-08-31T08:31:01Z</time>
      </trkpt>
      <trkpt lat="44.50254" lon="5.47384">
        <ele>1052.5999755859</ele>
        <time>2021-08-31T08:31:07Z</time>
      </trkpt>
      <trkpt lat="44.50256" lon="5.4739">
        <ele>1053</ele>
        <time>2021-08-31T08:31:09Z</time>
      </trkpt>
      <trkpt lat="44.50257" lon="5.47411">
        <ele>1053.8000488281</ele>
        <time>2021-08-31T08:31:15Z</time>
      </trkpt>
      <trkpt lat="44.50257" lon="5.47437">
        <ele>1054.8000488281</ele>
        <time>2021-08-31T08:31:23Z</time>
      </trkpt>
      <trkpt lat="44.50257" lon="5.47444">
        <ele>1055</ele>
        <time>2021-08-31T08:31:25Z</time>
      </trkpt>
      <trkpt lat="44.50257" lon="5.4746">
        <ele>1056</ele>
        <time>2021-08-31T08:31:30Z</time>
      </trkpt>
      <trkpt lat="44.50257" lon="5.47471">
        <ele>1056.4000244141</ele>
        <time>2021-08-31T08:31:33Z</time>
      </trkpt>
      <trkpt lat="44.5026" lon="5.47494">
        <ele>1057</ele>
        <time>2021-08-31T08:31:40Z</time>
      </trkpt>
      <trkpt lat="44.50261" lon="5.475">
        <ele>1057.1999511719</ele>
        <time>2021-08-31T08:31:42Z</time>
      </trkpt>
      <trkpt lat="44.50267" lon="5.47517">
        <ele>1058</ele>
        <time>2021-08-31T08:31:48Z</time>
      </trkpt>
      <trkpt lat="44.5027" lon="5.47523">
        <ele>1058.4000244141</ele>
        <time>2021-08-31T08:31:50Z</time>
      </trkpt>
      <trkpt lat="44.50274" lon="5.4753">
        <ele>1059.1999511719</ele>
        <time>2021-08-31T08:31:53Z</time>
      </trkpt>
      <trkpt lat="44.50282" lon="5.47537">
        <ele>1059.5999755859</ele>
        <time>2021-08-31T08:31:57Z</time>
      </trkpt>
      <trkpt lat="44.50287" lon="5.47543">
        <ele>1060.1999511719</ele>
        <time>2021-08-31T08:32:00Z</time>
      </trkpt>
      <trkpt lat="44.50296" lon="5.47552">
        <ele>1061</ele>
        <time>2021-08-31T08:32:05Z</time>
      </trkpt>
      <trkpt lat="44.503" lon="5.47555">
        <ele>1061.1999511719</ele>
        <time>2021-08-31T08:32:07Z</time>
      </trkpt>
      <trkpt lat="44.50311" lon="5.47563">
        <ele>1062</ele>
        <time>2021-08-31T08:32:12Z</time>
      </trkpt>
      <trkpt lat="44.50313" lon="5.47564">
        <ele>1062.1999511719</ele>
        <time>2021-08-31T08:32:13Z</time>
      </trkpt>
      <trkpt lat="44.50326" lon="5.47572">
        <ele>1063.1999511719</ele>
        <time>2021-08-31T08:32:19Z</time>
      </trkpt>
      <trkpt lat="44.50343" lon="5.47584">
        <ele>1064.1999511719</ele>
        <time>2021-08-31T08:32:27Z</time>
      </trkpt>
      <trkpt lat="44.50345" lon="5.47586">
        <ele>1064.4000244141</ele>
        <time>2021-08-31T08:32:28Z</time>
      </trkpt>
      <trkpt lat="44.50353" lon="5.47604">
        <ele>1065.1999511719</ele>
        <time>2021-08-31T08:32:34Z</time>
      </trkpt>
      <trkpt lat="44.50354" lon="5.47607">
        <ele>1065.4000244141</ele>
        <time>2021-08-31T08:32:35Z</time>
      </trkpt>
      <trkpt lat="44.50353" lon="5.47625">
        <ele>1066</ele>
        <time>2021-08-31T08:32:40Z</time>
      </trkpt>
      <trkpt lat="44.50344" lon="5.47635">
        <ele>1066.5999755859</ele>
        <time>2021-08-31T08:32:44Z</time>
      </trkpt>
      <trkpt lat="44.50342" lon="5.47637">
        <ele>1066.5999755859</ele>
        <time>2021-08-31T08:32:45Z</time>
      </trkpt>
      <trkpt lat="44.50323" lon="5.47653">
        <ele>1067.5999755859</ele>
        <time>2021-08-31T08:32:53Z</time>
      </trkpt>
      <trkpt lat="44.50318" lon="5.47657">
        <ele>1067.8000488281</ele>
        <time>2021-08-31T08:32:55Z</time>
      </trkpt>
      <trkpt lat="44.50303" lon="5.47668">
        <ele>1068.4000244141</ele>
        <time>2021-08-31T08:33:01Z</time>
      </trkpt>
      <trkpt lat="44.50299" lon="5.47672">
        <ele>1068.5999755859</ele>
        <time>2021-08-31T08:33:03Z</time>
      </trkpt>
      <trkpt lat="44.50281" lon="5.47682">
        <ele>1069</ele>
        <time>2021-08-31T08:33:10Z</time>
      </trkpt>
      <trkpt lat="44.50266" lon="5.47689">
        <ele>1069.5999755859</ele>
        <time>2021-08-31T08:33:16Z</time>
      </trkpt>
      <trkpt lat="44.5026" lon="5.47692">
        <ele>1069.8000488281</ele>
        <time>2021-08-31T08:33:18Z</time>
      </trkpt>
      <trkpt lat="44.50242" lon="5.47707">
        <ele>1070.4000244141</ele>
        <time>2021-08-31T08:33:25Z</time>
      </trkpt>
      <trkpt lat="44.50239" lon="5.47714">
        <ele>1070.5999755859</ele>
        <time>2021-08-31T08:33:27Z</time>
      </trkpt>
      <trkpt lat="44.50231" lon="5.47732">
        <ele>1071.1999511719</ele>
        <time>2021-08-31T08:33:32Z</time>
      </trkpt>
      <trkpt lat="44.50226" lon="5.47748">
        <ele>1071.5999755859</ele>
        <time>2021-08-31T08:33:36Z</time>
      </trkpt>
      <trkpt lat="44.50221" lon="5.47767">
        <ele>1072.1999511719</ele>
        <time>2021-08-31T08:33:41Z</time>
      </trkpt>
      <trkpt lat="44.50214" lon="5.47786">
        <ele>1072.8000488281</ele>
        <time>2021-08-31T08:33:46Z</time>
      </trkpt>
      <trkpt lat="44.50208" lon="5.47797">
        <ele>1073.1999511719</ele>
        <time>2021-08-31T08:33:49Z</time>
      </trkpt>
      <trkpt lat="44.50202" lon="5.47808">
        <ele>1073.8000488281</ele>
        <time>2021-08-31T08:33:52Z</time>
      </trkpt>
      <trkpt lat="44.50193" lon="5.47822">
        <ele>1074.1999511719</ele>
        <time>2021-08-31T08:33:56Z</time>
      </trkpt>
      <trkpt lat="44.50178" lon="5.47841">
        <ele>1074.8000488281</ele>
        <time>2021-08-31T08:34:02Z</time>
      </trkpt>
      <trkpt lat="44.50173" lon="5.47848">
        <ele>1075</ele>
        <time>2021-08-31T08:34:04Z</time>
      </trkpt>
      <trkpt lat="44.50169" lon="5.47869">
        <ele>1075.4000244141</ele>
        <time>2021-08-31T08:34:09Z</time>
      </trkpt>
      <trkpt lat="44.5017" lon="5.47901">
        <ele>1075.8000488281</ele>
        <time>2021-08-31T08:34:15Z</time>
      </trkpt>
      <trkpt lat="44.5017" lon="5.47907">
        <ele>1075.8000488281</ele>
        <time>2021-08-31T08:34:16Z</time>
      </trkpt>
      <trkpt lat="44.50174" lon="5.47954">
        <ele>1075.4000244141</ele>
        <time>2021-08-31T08:34:23Z</time>
      </trkpt>
      <trkpt lat="44.50173" lon="5.47974">
        <ele>1075.1999511719</ele>
        <time>2021-08-31T08:34:26Z</time>
      </trkpt>
      <trkpt lat="44.50168" lon="5.47993">
        <ele>1075.1999511719</ele>
        <time>2021-08-31T08:34:29Z</time>
      </trkpt>
      <trkpt lat="44.50165" lon="5.48">
        <ele>1075.1999511719</ele>
        <time>2021-08-31T08:34:30Z</time>
      </trkpt>
      <trkpt lat="44.50151" lon="5.4804">
        <ele>1074.8000488281</ele>
        <time>2021-08-31T08:34:36Z</time>
      </trkpt>
      <trkpt lat="44.50147" lon="5.48054">
        <ele>1074.5999755859</ele>
        <time>2021-08-31T08:34:38Z</time>
      </trkpt>
      <trkpt lat="44.50148" lon="5.48077">
        <ele>1074.4000244141</ele>
        <time>2021-08-31T08:34:41Z</time>
      </trkpt>
      <trkpt lat="44.50156" lon="5.48096">
        <ele>1074.1999511719</ele>
        <time>2021-08-31T08:34:44Z</time>
      </trkpt>
      <trkpt lat="44.50159" lon="5.48103">
        <ele>1074.1999511719</ele>
        <time>2021-08-31T08:34:45Z</time>
      </trkpt>
      <trkpt lat="44.50168" lon="5.48123">
        <ele>1073.8000488281</ele>
        <time>2021-08-31T08:34:48Z</time>
      </trkpt>
      <trkpt lat="44.5017" lon="5.4813">
        <ele>1073.5999755859</ele>
        <time>2021-08-31T08:34:49Z</time>
      </trkpt>
      <trkpt lat="44.50172" lon="5.48146">
        <ele>1073.4000244141</ele>
        <time>2021-08-31T08:34:51Z</time>
      </trkpt>
      <trkpt lat="44.50171" lon="5.48169">
        <ele>1072.8000488281</ele>
        <time>2021-08-31T08:34:54Z</time>
      </trkpt>
      <trkpt lat="44.50172" lon="5.48177">
        <ele>1072.5999755859</ele>
        <time>2021-08-31T08:34:55Z</time>
      </trkpt>
      <trkpt lat="44.50173" lon="5.48192">
        <ele>1072.5999755859</ele>
        <time>2021-08-31T08:34:57Z</time>
      </trkpt>
      <trkpt lat="44.5018" lon="5.48222">
        <ele>1072.4000244141</ele>
        <time>2021-08-31T08:35:01Z</time>
      </trkpt>
      <trkpt lat="44.50186" lon="5.48253">
        <ele>1072</ele>
        <time>2021-08-31T08:35:05Z</time>
      </trkpt>
      <trkpt lat="44.50187" lon="5.4826">
        <ele>1071.8000488281</ele>
        <time>2021-08-31T08:35:06Z</time>
      </trkpt>
      <trkpt lat="44.50187" lon="5.48268">
        <ele>1071.5999755859</ele>
        <time>2021-08-31T08:35:07Z</time>
      </trkpt>
      <trkpt lat="44.50186" lon="5.48281">
        <ele>1071.1999511719</ele>
        <time>2021-08-31T08:35:09Z</time>
      </trkpt>
      <trkpt lat="44.50185" lon="5.48287">
        <ele>1070.8000488281</ele>
        <time>2021-08-31T08:35:11Z</time>
      </trkpt>
      <trkpt lat="44.50186" lon="5.48291">
        <ele>1069</ele>
        <time>2021-08-31T08:35:46Z</time>
      </trkpt>
      <trkpt lat="44.50186" lon="5.48294">
        <ele>1069</ele>
        <time>2021-08-31T08:35:47Z</time>
      </trkpt>
      <trkpt lat="44.50185" lon="5.48313">
        <ele>1069</ele>
        <time>2021-08-31T08:35:51Z</time>
      </trkpt>
      <trkpt lat="44.50185" lon="5.48319">
        <ele>1069</ele>
        <time>2021-08-31T08:35:52Z</time>
      </trkpt>
      <trkpt lat="44.50185" lon="5.48361">
        <ele>1068.1999511719</ele>
        <time>2021-08-31T08:35:59Z</time>
      </trkpt>
      <trkpt lat="44.50186" lon="5.48389">
        <ele>1068</ele>
        <time>2021-08-31T08:36:03Z</time>
      </trkpt>
      <trkpt lat="44.50186" lon="5.48411">
        <ele>1067.4000244141</ele>
        <time>2021-08-31T08:36:06Z</time>
      </trkpt>
      <trkpt lat="44.50189" lon="5.4844">
        <ele>1066.8000488281</ele>
        <time>2021-08-31T08:36:10Z</time>
      </trkpt>
      <trkpt lat="44.50191" lon="5.48463">
        <ele>1066.4000244141</ele>
        <time>2021-08-31T08:36:13Z</time>
      </trkpt>
      <trkpt lat="44.50194" lon="5.48495">
        <ele>1065.5999755859</ele>
        <time>2021-08-31T08:36:17Z</time>
      </trkpt>
      <trkpt lat="44.50198" lon="5.48528">
        <ele>1065.1999511719</ele>
        <time>2021-08-31T08:36:21Z</time>
      </trkpt>
      <trkpt lat="44.502" lon="5.48536">
        <ele>1065</ele>
        <time>2021-08-31T08:36:22Z</time>
      </trkpt>
      <trkpt lat="44.50206" lon="5.48552">
        <ele>1064.5999755859</ele>
        <time>2021-08-31T08:36:24Z</time>
      </trkpt>
      <trkpt lat="44.50215" lon="5.48564">
        <ele>1064.1999511719</ele>
        <time>2021-08-31T08:36:26Z</time>
      </trkpt>
      <trkpt lat="44.50237" lon="5.4858">
        <ele>1063.8000488281</ele>
        <time>2021-08-31T08:36:30Z</time>
      </trkpt>
      <trkpt lat="44.50243" lon="5.48583">
        <ele>1063.5999755859</ele>
        <time>2021-08-31T08:36:31Z</time>
      </trkpt>
      <trkpt lat="44.50255" lon="5.48586">
        <ele>1063.1999511719</ele>
        <time>2021-08-31T08:36:33Z</time>
      </trkpt>
      <trkpt lat="44.50268" lon="5.48588">
        <ele>1062.8000488281</ele>
        <time>2021-08-31T08:36:35Z</time>
      </trkpt>
      <trkpt lat="44.50281" lon="5.4859">
        <ele>1062.5999755859</ele>
        <time>2021-08-31T08:36:37Z</time>
      </trkpt>
      <trkpt lat="44.50309" lon="5.48596">
        <ele>1061.4000244141</ele>
        <time>2021-08-31T08:36:41Z</time>
      </trkpt>
      <trkpt lat="44.50316" lon="5.48596">
        <ele>1061.1999511719</ele>
        <time>2021-08-31T08:36:42Z</time>
      </trkpt>
      <trkpt lat="44.50323" lon="5.48595">
        <ele>1061</ele>
        <time>2021-08-31T08:36:43Z</time>
      </trkpt>
      <trkpt lat="44.50344" lon="5.48589">
        <ele>1060.4000244141</ele>
        <time>2021-08-31T08:36:46Z</time>
      </trkpt>
      <trkpt lat="44.50351" lon="5.48586">
        <ele>1060</ele>
        <time>2021-08-31T08:36:47Z</time>
      </trkpt>
      <trkpt lat="44.5037" lon="5.48573">
        <ele>1059.4000244141</ele>
        <time>2021-08-31T08:36:50Z</time>
      </trkpt>
      <trkpt lat="44.50376" lon="5.48566">
        <ele>1059.1999511719</ele>
        <time>2021-08-31T08:36:51Z</time>
      </trkpt>
      <trkpt lat="44.50394" lon="5.48547">
        <ele>1058.4000244141</ele>
        <time>2021-08-31T08:36:54Z</time>
      </trkpt>
      <trkpt lat="44.50419" lon="5.48525">
        <ele>1057.1999511719</ele>
        <time>2021-08-31T08:36:58Z</time>
      </trkpt>
      <trkpt lat="44.50445" lon="5.48506">
        <ele>1055.5999755859</ele>
        <time>2021-08-31T08:37:03Z</time>
      </trkpt>
      <trkpt lat="44.50451" lon="5.48496">
        <ele>1054.5999755859</ele>
        <time>2021-08-31T08:37:06Z</time>
      </trkpt>
      <trkpt lat="44.50452" lon="5.48495">
        <ele>1054.4000244141</ele>
        <time>2021-08-31T08:37:07Z</time>
      </trkpt>
      <trkpt lat="44.50455" lon="5.48495">
        <ele>1053.4000244141</ele>
        <time>2021-08-31T08:37:47Z</time>
      </trkpt>
      <trkpt lat="44.50456" lon="5.48494">
        <ele>1053.4000244141</ele>
        <time>2021-08-31T08:37:48Z</time>
      </trkpt>
      <trkpt lat="44.50468" lon="5.48486">
        <ele>1053.4000244141</ele>
        <time>2021-08-31T08:37:53Z</time>
      </trkpt>
      <trkpt lat="44.50486" lon="5.48471">
        <ele>1053</ele>
        <time>2021-08-31T08:37:58Z</time>
      </trkpt>
      <trkpt lat="44.50513" lon="5.48452">
        <ele>1052.1999511719</ele>
        <time>2021-08-31T08:38:04Z</time>
      </trkpt>
      <trkpt lat="44.50523" lon="5.48446">
        <ele>1052</ele>
        <time>2021-08-31T08:38:06Z</time>
      </trkpt>
      <trkpt lat="44.50558" lon="5.48418">
        <ele>1051.1999511719</ele>
        <time>2021-08-31T08:38:13Z</time>
      </trkpt>
      <trkpt lat="44.50562" lon="5.48414">
        <ele>1051</ele>
        <time>2021-08-31T08:38:14Z</time>
      </trkpt>
      <trkpt lat="44.50582" lon="5.48399">
        <ele>1050.1999511719</ele>
        <time>2021-08-31T08:38:18Z</time>
      </trkpt>
      <trkpt lat="44.50593" lon="5.48393">
        <ele>1049.8000488281</ele>
        <time>2021-08-31T08:38:20Z</time>
      </trkpt>
      <trkpt lat="44.50599" lon="5.48388">
        <ele>1049.8000488281</ele>
        <time>2021-08-31T08:38:21Z</time>
      </trkpt>
      <trkpt lat="44.50614" lon="5.48372">
        <ele>1049.5999755859</ele>
        <time>2021-08-31T08:38:24Z</time>
      </trkpt>
      <trkpt lat="44.50623" lon="5.48359">
        <ele>1049.4000244141</ele>
        <time>2021-08-31T08:38:26Z</time>
      </trkpt>
      <trkpt lat="44.50637" lon="5.48337">
        <ele>1049</ele>
        <time>2021-08-31T08:38:29Z</time>
      </trkpt>
      <trkpt lat="44.50652" lon="5.48316">
        <ele>1048.5999755859</ele>
        <time>2021-08-31T08:38:32Z</time>
      </trkpt>
      <trkpt lat="44.50668" lon="5.48293">
        <ele>1047.8000488281</ele>
        <time>2021-08-31T08:38:35Z</time>
      </trkpt>
      <trkpt lat="44.50688" lon="5.48262">
        <ele>1047</ele>
        <time>2021-08-31T08:38:39Z</time>
      </trkpt>
      <trkpt lat="44.50693" lon="5.48254">
        <ele>1046.5999755859</ele>
        <time>2021-08-31T08:38:40Z</time>
      </trkpt>
      <trkpt lat="44.50721" lon="5.48216">
        <ele>1045.4000244141</ele>
        <time>2021-08-31T08:38:45Z</time>
      </trkpt>
      <trkpt lat="44.50726" lon="5.48208">
        <ele>1045</ele>
        <time>2021-08-31T08:38:46Z</time>
      </trkpt>
      <trkpt lat="44.50745" lon="5.48188">
        <ele>1044.4000244141</ele>
        <time>2021-08-31T08:38:49Z</time>
      </trkpt>
      <trkpt lat="44.50759" lon="5.48176">
        <ele>1043.8000488281</ele>
        <time>2021-08-31T08:38:51Z</time>
      </trkpt>
      <trkpt lat="44.50773" lon="5.48166">
        <ele>1043.1999511719</ele>
        <time>2021-08-31T08:38:53Z</time>
      </trkpt>
      <trkpt lat="44.50801" lon="5.48144">
        <ele>1042.4000244141</ele>
        <time>2021-08-31T08:38:57Z</time>
      </trkpt>
      <trkpt lat="44.50806" lon="5.48136">
        <ele>1042.4000244141</ele>
        <time>2021-08-31T08:38:58Z</time>
      </trkpt>
      <trkpt lat="44.50816" lon="5.4812">
        <ele>1042.1999511719</ele>
        <time>2021-08-31T08:39:00Z</time>
      </trkpt>
      <trkpt lat="44.50822" lon="5.48113">
        <ele>1042</ele>
        <time>2021-08-31T08:39:01Z</time>
      </trkpt>
      <trkpt lat="44.50842" lon="5.48085">
        <ele>1041.1999511719</ele>
        <time>2021-08-31T08:39:05Z</time>
      </trkpt>
      <trkpt lat="44.50852" lon="5.48073">
        <ele>1040.8000488281</ele>
        <time>2021-08-31T08:39:07Z</time>
      </trkpt>
      <trkpt lat="44.5087" lon="5.48059">
        <ele>1040.1999511719</ele>
        <time>2021-08-31T08:39:10Z</time>
      </trkpt>
      <trkpt lat="44.50889" lon="5.48048">
        <ele>1039.5999755859</ele>
        <time>2021-08-31T08:39:13Z</time>
      </trkpt>
      <trkpt lat="44.50917" lon="5.48041">
        <ele>1039</ele>
        <time>2021-08-31T08:39:17Z</time>
      </trkpt>
      <trkpt lat="44.50924" lon="5.48041">
        <ele>1038.8000488281</ele>
        <time>2021-08-31T08:39:18Z</time>
      </trkpt>
      <trkpt lat="44.50954" lon="5.48044">
        <ele>1038.1999511719</ele>
        <time>2021-08-31T08:39:23Z</time>
      </trkpt>
      <trkpt lat="44.50965" lon="5.48045">
        <ele>1038</ele>
        <time>2021-08-31T08:39:25Z</time>
      </trkpt>
      <trkpt lat="44.50994" lon="5.48049">
        <ele>1038</ele>
        <time>2021-08-31T08:39:31Z</time>
      </trkpt>
      <trkpt lat="44.51036" lon="5.48053">
        <ele>1038.5999755859</ele>
        <time>2021-08-31T08:39:41Z</time>
      </trkpt>
      <trkpt lat="44.51058" lon="5.48054">
        <ele>1039</ele>
        <time>2021-08-31T08:39:47Z</time>
      </trkpt>
      <trkpt lat="44.51068" lon="5.48056">
        <ele>1039.4000244141</ele>
        <time>2021-08-31T08:39:50Z</time>
      </trkpt>
      <trkpt lat="44.51083" lon="5.48057">
        <ele>1040</ele>
        <time>2021-08-31T08:39:55Z</time>
      </trkpt>
      <trkpt lat="44.51091" lon="5.48057">
        <ele>1040.4000244141</ele>
        <time>2021-08-31T08:39:58Z</time>
      </trkpt>
      <trkpt lat="44.5111" lon="5.4806">
        <ele>1041.1999511719</ele>
        <time>2021-08-31T08:40:05Z</time>
      </trkpt>
      <trkpt lat="44.51133" lon="5.48062">
        <ele>1042</ele>
        <time>2021-08-31T08:40:14Z</time>
      </trkpt>
      <trkpt lat="44.51135" lon="5.48063">
        <ele>1042.1999511719</ele>
        <time>2021-08-31T08:40:15Z</time>
      </trkpt>
      <trkpt lat="44.51158" lon="5.48065">
        <ele>1043.1999511719</ele>
        <time>2021-08-31T08:40:24Z</time>
      </trkpt>
      <trkpt lat="44.51161" lon="5.48065">
        <ele>1043.4000244141</ele>
        <time>2021-08-31T08:40:25Z</time>
      </trkpt>
      <trkpt lat="44.51181" lon="5.48067">
        <ele>1044.1999511719</ele>
        <time>2021-08-31T08:40:33Z</time>
      </trkpt>
      <trkpt lat="44.51184" lon="5.48068">
        <ele>1044.4000244141</ele>
        <time>2021-08-31T08:40:34Z</time>
      </trkpt>
      <trkpt lat="44.51203" lon="5.4807">
        <ele>1045.4000244141</ele>
        <time>2021-08-31T08:40:42Z</time>
      </trkpt>
      <trkpt lat="44.51208" lon="5.4807">
        <ele>1045.5999755859</ele>
        <time>2021-08-31T08:40:44Z</time>
      </trkpt>
      <trkpt lat="44.51221" lon="5.48072">
        <ele>1046.4000244141</ele>
        <time>2021-08-31T08:40:49Z</time>
      </trkpt>
      <trkpt lat="44.5123" lon="5.48073">
        <ele>1046.8000488281</ele>
        <time>2021-08-31T08:40:53Z</time>
      </trkpt>
      <trkpt lat="44.51248" lon="5.48074">
        <ele>1047.4000244141</ele>
        <time>2021-08-31T08:41:00Z</time>
      </trkpt>
      <trkpt lat="44.51255" lon="5.48075">
        <ele>1047.8000488281</ele>
        <time>2021-08-31T08:41:03Z</time>
      </trkpt>
      <trkpt lat="44.51269" lon="5.48076">
        <ele>1048.5999755859</ele>
        <time>2021-08-31T08:41:08Z</time>
      </trkpt>
      <trkpt lat="44.51281" lon="5.48077">
        <ele>1049</ele>
        <time>2021-08-31T08:41:13Z</time>
      </trkpt>
      <trkpt lat="44.51296" lon="5.48078">
        <ele>1049.5999755859</ele>
        <time>2021-08-31T08:41:19Z</time>
      </trkpt>
      <trkpt lat="44.51301" lon="5.48079">
        <ele>1050</ele>
        <time>2021-08-31T08:41:21Z</time>
      </trkpt>
      <trkpt lat="44.51318" lon="5.4808">
        <ele>1050.8000488281</ele>
        <time>2021-08-31T08:41:28Z</time>
      </trkpt>
      <trkpt lat="44.51323" lon="5.48081">
        <ele>1051</ele>
        <time>2021-08-31T08:41:30Z</time>
      </trkpt>
      <trkpt lat="44.51343" lon="5.48083">
        <ele>1051.8000488281</ele>
        <time>2021-08-31T08:41:38Z</time>
      </trkpt>
      <trkpt lat="44.51351" lon="5.48084">
        <ele>1052.1999511719</ele>
        <time>2021-08-31T08:41:41Z</time>
      </trkpt>
      <trkpt lat="44.51369" lon="5.48086">
        <ele>1053</ele>
        <time>2021-08-31T08:41:48Z</time>
      </trkpt>
      <trkpt lat="44.51377" lon="5.48087">
        <ele>1053.1999511719</ele>
        <time>2021-08-31T08:41:51Z</time>
      </trkpt>
      <trkpt lat="44.51389" lon="5.48088">
        <ele>1054</ele>
        <time>2021-08-31T08:41:56Z</time>
      </trkpt>
      <trkpt lat="44.51402" lon="5.48089">
        <ele>1054.5999755859</ele>
        <time>2021-08-31T08:42:01Z</time>
      </trkpt>
      <trkpt lat="44.51417" lon="5.4809">
        <ele>1055</ele>
        <time>2021-08-31T08:42:07Z</time>
      </trkpt>
      <trkpt lat="44.51425" lon="5.48092">
        <ele>1055.1999511719</ele>
        <time>2021-08-31T08:42:10Z</time>
      </trkpt>
      <trkpt lat="44.5144" lon="5.48097">
        <ele>1056</ele>
        <time>2021-08-31T08:42:16Z</time>
      </trkpt>
      <trkpt lat="44.51441" lon="5.48101">
        <ele>1056</ele>
        <time>2021-08-31T08:42:17Z</time>
      </trkpt>
      <trkpt lat="44.51443" lon="5.48112">
        <ele>1056.4000244141</ele>
        <time>2021-08-31T08:42:20Z</time>
      </trkpt>
      <trkpt lat="44.51446" lon="5.4814">
        <ele>1057</ele>
        <time>2021-08-31T08:42:27Z</time>
      </trkpt>
      <trkpt lat="44.51446" lon="5.48149">
        <ele>1057</ele>
        <time>2021-08-31T08:42:29Z</time>
      </trkpt>
      <trkpt lat="44.51445" lon="5.4817">
        <ele>1057.1999511719</ele>
        <time>2021-08-31T08:42:34Z</time>
      </trkpt>
      <trkpt lat="44.5144" lon="5.48203">
        <ele>1058.1999511719</ele>
        <time>2021-08-31T08:42:42Z</time>
      </trkpt>
      <trkpt lat="44.51431" lon="5.48231">
        <ele>1058.5999755859</ele>
        <time>2021-08-31T08:42:49Z</time>
      </trkpt>
      <trkpt lat="44.51414" lon="5.48266">
        <ele>1059.1999511719</ele>
        <time>2021-08-31T08:42:57Z</time>
      </trkpt>
      <trkpt lat="44.51412" lon="5.4827">
        <ele>1059.1999511719</ele>
        <time>2021-08-31T08:42:58Z</time>
      </trkpt>
      <trkpt lat="44.51388" lon="5.483">
        <ele>1059.8000488281</ele>
        <time>2021-08-31T08:43:06Z</time>
      </trkpt>
      <trkpt lat="44.51376" lon="5.48314">
        <ele>1060</ele>
        <time>2021-08-31T08:43:10Z</time>
      </trkpt>
      <trkpt lat="44.51374" lon="5.48318">
        <ele>1060</ele>
        <time>2021-08-31T08:43:11Z</time>
      </trkpt>
      <trkpt lat="44.51367" lon="5.48324">
        <ele>1060.1999511719</ele>
        <time>2021-08-31T08:43:13Z</time>
      </trkpt>
      <trkpt lat="44.5136" lon="5.4833">
        <ele>1060.1999511719</ele>
        <time>2021-08-31T08:43:15Z</time>
      </trkpt>
      <trkpt lat="44.51339" lon="5.48353">
        <ele>1061</ele>
        <time>2021-08-31T08:43:22Z</time>
      </trkpt>
      <trkpt lat="44.51329" lon="5.48362">
        <ele>1061.1999511719</ele>
        <time>2021-08-31T08:43:25Z</time>
      </trkpt>
      <trkpt lat="44.51321" lon="5.48374">
        <ele>1061.8000488281</ele>
        <time>2021-08-31T08:43:28Z</time>
      </trkpt>
      <trkpt lat="44.51306" lon="5.48391">
        <ele>1062.1999511719</ele>
        <time>2021-08-31T08:43:33Z</time>
      </trkpt>
      <trkpt lat="44.51297" lon="5.48401">
        <ele>1062.5999755859</ele>
        <time>2021-08-31T08:43:36Z</time>
      </trkpt>
      <trkpt lat="44.51273" lon="5.48417">
        <ele>1063</ele>
        <time>2021-08-31T08:43:43Z</time>
      </trkpt>
      <trkpt lat="44.51246" lon="5.48425">
        <ele>1063.4000244141</ele>
        <time>2021-08-31T08:43:50Z</time>
      </trkpt>
      <trkpt lat="44.5122" lon="5.48428">
        <ele>1064.4000244141</ele>
        <time>2021-08-31T08:43:57Z</time>
      </trkpt>
      <trkpt lat="44.51217" lon="5.48429">
        <ele>1064.4000244141</ele>
        <time>2021-08-31T08:43:58Z</time>
      </trkpt>
      <trkpt lat="44.51191" lon="5.48437">
        <ele>1065.4000244141</ele>
        <time>2021-08-31T08:44:05Z</time>
      </trkpt>
      <trkpt lat="44.51188" lon="5.48438">
        <ele>1065.4000244141</ele>
        <time>2021-08-31T08:44:06Z</time>
      </trkpt>
      <trkpt lat="44.5117" lon="5.48451">
        <ele>1066</ele>
        <time>2021-08-31T08:44:11Z</time>
      </trkpt>
      <trkpt lat="44.5116" lon="5.48473">
        <ele>1066.4000244141</ele>
        <time>2021-08-31T08:44:16Z</time>
      </trkpt>
      <trkpt lat="44.51159" lon="5.48478">
        <ele>1066.5999755859</ele>
        <time>2021-08-31T08:44:17Z</time>
      </trkpt>
      <trkpt lat="44.51159" lon="5.48495">
        <ele>1066.8000488281</ele>
        <time>2021-08-31T08:44:20Z</time>
      </trkpt>
      <trkpt lat="44.5116" lon="5.48501">
        <ele>1066.8000488281</ele>
        <time>2021-08-31T08:44:21Z</time>
      </trkpt>
      <trkpt lat="44.51169" lon="5.48536">
        <ele>1067.5999755859</ele>
        <time>2021-08-31T08:44:28Z</time>
      </trkpt>
      <trkpt lat="44.51179" lon="5.48567">
        <ele>1068.4000244141</ele>
        <time>2021-08-31T08:44:35Z</time>
      </trkpt>
      <trkpt lat="44.51182" lon="5.48576">
        <ele>1068.5999755859</ele>
        <time>2021-08-31T08:44:37Z</time>
      </trkpt>
      <trkpt lat="44.51191" lon="5.48606">
        <ele>1069.4000244141</ele>
        <time>2021-08-31T08:44:44Z</time>
      </trkpt>
      <trkpt lat="44.51194" lon="5.48614">
        <ele>1069.5999755859</ele>
        <time>2021-08-31T08:44:46Z</time>
      </trkpt>
      <trkpt lat="44.51196" lon="5.48619">
        <ele>1069.5999755859</ele>
        <time>2021-08-31T08:44:47Z</time>
      </trkpt>
      <trkpt lat="44.51203" lon="5.48638">
        <ele>1070.4000244141</ele>
        <time>2021-08-31T08:44:52Z</time>
      </trkpt>
      <trkpt lat="44.51208" lon="5.4865">
        <ele>1070.5999755859</ele>
        <time>2021-08-31T08:44:55Z</time>
      </trkpt>
      <trkpt lat="44.51221" lon="5.48679">
        <ele>1071.1999511719</ele>
        <time>2021-08-31T08:45:02Z</time>
      </trkpt>
      <trkpt lat="44.51234" lon="5.48711">
        <ele>1071.8000488281</ele>
        <time>2021-08-31T08:45:09Z</time>
      </trkpt>
      <trkpt lat="44.51238" lon="5.48721">
        <ele>1071.8000488281</ele>
        <time>2021-08-31T08:45:11Z</time>
      </trkpt>
      <trkpt lat="44.5125" lon="5.48763">
        <ele>1072.1999511719</ele>
        <time>2021-08-31T08:45:19Z</time>
      </trkpt>
      <trkpt lat="44.5126" lon="5.48804">
        <ele>1072</ele>
        <time>2021-08-31T08:45:27Z</time>
      </trkpt>
      <trkpt lat="44.51269" lon="5.48837">
        <ele>1072.5999755859</ele>
        <time>2021-08-31T08:45:34Z</time>
      </trkpt>
      <trkpt lat="44.5127" lon="5.48842">
        <ele>1072.8000488281</ele>
        <time>2021-08-31T08:45:35Z</time>
      </trkpt>
      <trkpt lat="44.51279" lon="5.48877">
        <ele>1073.4000244141</ele>
        <time>2021-08-31T08:45:43Z</time>
      </trkpt>
      <trkpt lat="44.5129" lon="5.48916">
        <ele>1073.4000244141</ele>
        <time>2021-08-31T08:45:51Z</time>
      </trkpt>
      <trkpt lat="44.51297" lon="5.48944">
        <ele>1073.8000488281</ele>
        <time>2021-08-31T08:45:57Z</time>
      </trkpt>
      <trkpt lat="44.513" lon="5.48953">
        <ele>1074</ele>
        <time>2021-08-31T08:45:59Z</time>
      </trkpt>
      <trkpt lat="44.51313" lon="5.48978">
        <ele>1074.4000244141</ele>
        <time>2021-08-31T08:46:05Z</time>
      </trkpt>
      <trkpt lat="44.51339" lon="5.49019">
        <ele>1074.5999755859</ele>
        <time>2021-08-31T08:46:15Z</time>
      </trkpt>
      <trkpt lat="44.51359" lon="5.49058">
        <ele>1074.8000488281</ele>
        <time>2021-08-31T08:46:23Z</time>
      </trkpt>
      <trkpt lat="44.51372" lon="5.49087">
        <ele>1074.8000488281</ele>
        <time>2021-08-31T08:46:29Z</time>
      </trkpt>
      <trkpt lat="44.51376" lon="5.49096">
        <ele>1075</ele>
        <time>2021-08-31T08:46:31Z</time>
      </trkpt>
      <trkpt lat="44.51391" lon="5.49133">
        <ele>1075.8000488281</ele>
        <time>2021-08-31T08:46:39Z</time>
      </trkpt>
      <trkpt lat="44.51392" lon="5.49138">
        <ele>1076</ele>
        <time>2021-08-31T08:46:40Z</time>
      </trkpt>
      <trkpt lat="44.51399" lon="5.49176">
        <ele>1076.5999755859</ele>
        <time>2021-08-31T08:46:47Z</time>
      </trkpt>
      <trkpt lat="44.51401" lon="5.49188">
        <ele>1076.5999755859</ele>
        <time>2021-08-31T08:46:49Z</time>
      </trkpt>
      <trkpt lat="44.51402" lon="5.492">
        <ele>1076.5999755859</ele>
        <time>2021-08-31T08:46:51Z</time>
      </trkpt>
      <trkpt lat="44.51402" lon="5.49225">
        <ele>1076.5999755859</ele>
        <time>2021-08-31T08:46:55Z</time>
      </trkpt>
      <trkpt lat="44.51394" lon="5.49248">
        <ele>1076.5999755859</ele>
        <time>2021-08-31T08:46:59Z</time>
      </trkpt>
      <trkpt lat="44.51387" lon="5.49257">
        <ele>1076.5999755859</ele>
        <time>2021-08-31T08:47:01Z</time>
      </trkpt>
      <trkpt lat="44.51384" lon="5.49262">
        <ele>1076.5999755859</ele>
        <time>2021-08-31T08:47:02Z</time>
      </trkpt>
      <trkpt lat="44.51375" lon="5.4927">
        <ele>1076.5999755859</ele>
        <time>2021-08-31T08:47:04Z</time>
      </trkpt>
      <trkpt lat="44.51357" lon="5.49286">
        <ele>1076.4000244141</ele>
        <time>2021-08-31T08:47:08Z</time>
      </trkpt>
      <trkpt lat="44.51347" lon="5.49292">
        <ele>1076.1999511719</ele>
        <time>2021-08-31T08:47:10Z</time>
      </trkpt>
      <trkpt lat="44.51339" lon="5.49296">
        <ele>1076.1999511719</ele>
        <time>2021-08-31T08:47:12Z</time>
      </trkpt>
      <trkpt lat="44.51324" lon="5.49297">
        <ele>1076.1999511719</ele>
        <time>2021-08-31T08:47:15Z</time>
      </trkpt>
      <trkpt lat="44.51319" lon="5.49296">
        <ele>1076.4000244141</ele>
        <time>2021-08-31T08:47:16Z</time>
      </trkpt>
      <trkpt lat="44.51315" lon="5.49295">
        <ele>1076.4000244141</ele>
        <time>2021-08-31T08:47:17Z</time>
      </trkpt>
      <trkpt lat="44.51291" lon="5.49291">
        <ele>1076.5999755859</ele>
        <time>2021-08-31T08:47:22Z</time>
      </trkpt>
      <trkpt lat="44.51277" lon="5.49302">
        <ele>1076.8000488281</ele>
        <time>2021-08-31T08:47:26Z</time>
      </trkpt>
      <trkpt lat="44.51276" lon="5.49307">
        <ele>1077</ele>
        <time>2021-08-31T08:47:27Z</time>
      </trkpt>
      <trkpt lat="44.51275" lon="5.49325">
        <ele>1077.5999755859</ele>
        <time>2021-08-31T08:47:30Z</time>
      </trkpt>
      <trkpt lat="44.51282" lon="5.49346">
        <ele>1078</ele>
        <time>2021-08-31T08:47:34Z</time>
      </trkpt>
      <trkpt lat="44.51283" lon="5.49351">
        <ele>1078</ele>
        <time>2021-08-31T08:47:35Z</time>
      </trkpt>
      <trkpt lat="44.51293" lon="5.49383">
        <ele>1078.5999755859</ele>
        <time>2021-08-31T08:47:42Z</time>
      </trkpt>
      <trkpt lat="44.513" lon="5.49411">
        <ele>1079</ele>
        <time>2021-08-31T08:47:48Z</time>
      </trkpt>
      <trkpt lat="44.513" lon="5.49416">
        <ele>1079</ele>
        <time>2021-08-31T08:47:49Z</time>
      </trkpt>
      <trkpt lat="44.51305" lon="5.49457">
        <ele>1079.4000244141</ele>
        <time>2021-08-31T08:47:57Z</time>
      </trkpt>
      <trkpt lat="44.51305" lon="5.49491">
        <ele>1080</ele>
        <time>2021-08-31T08:48:04Z</time>
      </trkpt>
      <trkpt lat="44.51305" lon="5.49496">
        <ele>1080.1999511719</ele>
        <time>2021-08-31T08:48:05Z</time>
      </trkpt>
      <trkpt lat="44.51305" lon="5.49524">
        <ele>1080.8000488281</ele>
        <time>2021-08-31T08:48:11Z</time>
      </trkpt>
      <trkpt lat="44.51305" lon="5.49537">
        <ele>1081.1999511719</ele>
        <time>2021-08-31T08:48:14Z</time>
      </trkpt>
      <trkpt lat="44.51306" lon="5.49562">
        <ele>1081.8000488281</ele>
        <time>2021-08-31T08:48:19Z</time>
      </trkpt>
      <trkpt lat="44.51307" lon="5.49589">
        <ele>1082.1999511719</ele>
        <time>2021-08-31T08:48:24Z</time>
      </trkpt>
      <trkpt lat="44.51305" lon="5.49605">
        <ele>1082.4000244141</ele>
        <time>2021-08-31T08:48:27Z</time>
      </trkpt>
      <trkpt lat="44.51295" lon="5.49635">
        <ele>1083</ele>
        <time>2021-08-31T08:48:34Z</time>
      </trkpt>
      <trkpt lat="44.51293" lon="5.49639">
        <ele>1083.4000244141</ele>
        <time>2021-08-31T08:48:35Z</time>
      </trkpt>
      <trkpt lat="44.51278" lon="5.49682">
        <ele>1084.1999511719</ele>
        <time>2021-08-31T08:48:45Z</time>
      </trkpt>
      <trkpt lat="44.51267" lon="5.49725">
        <ele>1084</ele>
        <time>2021-08-31T08:48:53Z</time>
      </trkpt>
      <trkpt lat="44.51253" lon="5.4978">
        <ele>1083.8000488281</ele>
        <time>2021-08-31T08:49:03Z</time>
      </trkpt>
      <trkpt lat="44.5124" lon="5.49829">
        <ele>1083.8000488281</ele>
        <time>2021-08-31T08:49:12Z</time>
      </trkpt>
      <trkpt lat="44.51234" lon="5.49859">
        <ele>1083.8000488281</ele>
        <time>2021-08-31T08:49:18Z</time>
      </trkpt>
      <trkpt lat="44.51227" lon="5.49882">
        <ele>1084</ele>
        <time>2021-08-31T08:49:23Z</time>
      </trkpt>
      <trkpt lat="44.51222" lon="5.49902">
        <ele>1084.4000244141</ele>
        <time>2021-08-31T08:49:27Z</time>
      </trkpt>
      <trkpt lat="44.5122" lon="5.49911">
        <ele>1084.5999755859</ele>
        <time>2021-08-31T08:49:29Z</time>
      </trkpt>
      <trkpt lat="44.5121" lon="5.49944">
        <ele>1084.8000488281</ele>
        <time>2021-08-31T08:49:37Z</time>
      </trkpt>
      <trkpt lat="44.51205" lon="5.49967">
        <ele>1085.4000244141</ele>
        <time>2021-08-31T08:49:43Z</time>
      </trkpt>
      <trkpt lat="44.51204" lon="5.49971">
        <ele>1085.4000244141</ele>
        <time>2021-08-31T08:49:44Z</time>
      </trkpt>
      <trkpt lat="44.51195" lon="5.49991">
        <ele>1086.1999511719</ele>
        <time>2021-08-31T08:49:50Z</time>
      </trkpt>
      <trkpt lat="44.5119" lon="5.49996">
        <ele>1086.5999755859</ele>
        <time>2021-08-31T08:49:52Z</time>
      </trkpt>
      <trkpt lat="44.51182" lon="5.50006">
        <ele>1087</ele>
        <time>2021-08-31T08:49:56Z</time>
      </trkpt>
      <trkpt lat="44.51171" lon="5.50017">
        <ele>1087.8000488281</ele>
        <time>2021-08-31T08:50:01Z</time>
      </trkpt>
      <trkpt lat="44.51168" lon="5.50022">
        <ele>1088</ele>
        <time>2021-08-31T08:50:03Z</time>
      </trkpt>
      <trkpt lat="44.5116" lon="5.50044">
        <ele>1088.8000488281</ele>
        <time>2021-08-31T08:50:10Z</time>
      </trkpt>
      <trkpt lat="44.51159" lon="5.50048">
        <ele>1088.8000488281</ele>
        <time>2021-08-31T08:50:11Z</time>
      </trkpt>
      <trkpt lat="44.51151" lon="5.5007">
        <ele>1089.4000244141</ele>
        <time>2021-08-31T08:50:17Z</time>
      </trkpt>
      <trkpt lat="44.51144" lon="5.50084">
        <ele>1089.8000488281</ele>
        <time>2021-08-31T08:50:21Z</time>
      </trkpt>
      <trkpt lat="44.5114" lon="5.5009">
        <ele>1090.1999511719</ele>
        <time>2021-08-31T08:50:23Z</time>
      </trkpt>
      <trkpt lat="44.5112" lon="5.50104">
        <ele>1090.8000488281</ele>
        <time>2021-08-31T08:50:30Z</time>
      </trkpt>
      <trkpt lat="44.51108" lon="5.50104">
        <ele>1090.8000488281</ele>
        <time>2021-08-31T08:50:34Z</time>
      </trkpt>
      <trkpt lat="44.51096" lon="5.501">
        <ele>1091.1999511719</ele>
        <time>2021-08-31T08:50:38Z</time>
      </trkpt>
      <trkpt lat="44.51082" lon="5.50094">
        <ele>1092</ele>
        <time>2021-08-31T08:50:43Z</time>
      </trkpt>
      <trkpt lat="44.51079" lon="5.50093">
        <ele>1092</ele>
        <time>2021-08-31T08:50:44Z</time>
      </trkpt>
      <trkpt lat="44.51063" lon="5.501">
        <ele>1092.8000488281</ele>
        <time>2021-08-31T08:50:49Z</time>
      </trkpt>
      <trkpt lat="44.51061" lon="5.50103">
        <ele>1093</ele>
        <time>2021-08-31T08:50:50Z</time>
      </trkpt>
      <trkpt lat="44.51053" lon="5.50118">
        <ele>1093.5999755859</ele>
        <time>2021-08-31T08:50:54Z</time>
      </trkpt>
      <trkpt lat="44.51047" lon="5.5014">
        <ele>1094</ele>
        <time>2021-08-31T08:50:59Z</time>
      </trkpt>
      <trkpt lat="44.51045" lon="5.50149">
        <ele>1094.1999511719</ele>
        <time>2021-08-31T08:51:01Z</time>
      </trkpt>
      <trkpt lat="44.51038" lon="5.50175">
        <ele>1094.8000488281</ele>
        <time>2021-08-31T08:51:07Z</time>
      </trkpt>
      <trkpt lat="44.51037" lon="5.50184">
        <ele>1095</ele>
        <time>2021-08-31T08:51:09Z</time>
      </trkpt>
      <trkpt lat="44.51034" lon="5.50215">
        <ele>1095.8000488281</ele>
        <time>2021-08-31T08:51:15Z</time>
      </trkpt>
      <trkpt lat="44.51036" lon="5.50241">
        <ele>1096.1999511719</ele>
        <time>2021-08-31T08:51:20Z</time>
      </trkpt>
      <trkpt lat="44.51035" lon="5.50251">
        <ele>1096.4000244141</ele>
        <time>2021-08-31T08:51:22Z</time>
      </trkpt>
      <trkpt lat="44.51029" lon="5.50284">
        <ele>1097</ele>
        <time>2021-08-31T08:51:29Z</time>
      </trkpt>
      <trkpt lat="44.51016" lon="5.50312">
        <ele>1097</ele>
        <time>2021-08-31T08:51:35Z</time>
      </trkpt>
      <trkpt lat="44.51013" lon="5.50316">
        <ele>1097.1999511719</ele>
        <time>2021-08-31T08:51:36Z</time>
      </trkpt>
      <trkpt lat="44.50997" lon="5.50337">
        <ele>1097.5999755859</ele>
        <time>2021-08-31T08:51:42Z</time>
      </trkpt>
      <trkpt lat="44.50977" lon="5.50363">
        <ele>1098.1999511719</ele>
        <time>2021-08-31T08:51:49Z</time>
      </trkpt>
      <trkpt lat="44.50971" lon="5.5037">
        <ele>1098.4000244141</ele>
        <time>2021-08-31T08:51:51Z</time>
      </trkpt>
      <trkpt lat="44.5095" lon="5.50383">
        <ele>1098.8000488281</ele>
        <time>2021-08-31T08:51:57Z</time>
      </trkpt>
      <trkpt lat="44.50932" lon="5.50386">
        <ele>1099.4000244141</ele>
        <time>2021-08-31T08:52:02Z</time>
      </trkpt>
      <trkpt lat="44.50928" lon="5.50386">
        <ele>1099.4000244141</ele>
        <time>2021-08-31T08:52:03Z</time>
      </trkpt>
      <trkpt lat="44.50898" lon="5.50396">
        <ele>1100</ele>
        <time>2021-08-31T08:52:11Z</time>
      </trkpt>
      <trkpt lat="44.50882" lon="5.50411">
        <ele>1100.4000244141</ele>
        <time>2021-08-31T08:52:16Z</time>
      </trkpt>
      <trkpt lat="44.50879" lon="5.50416">
        <ele>1100.5999755859</ele>
        <time>2021-08-31T08:52:17Z</time>
      </trkpt>
      <trkpt lat="44.50853" lon="5.50454">
        <ele>1101</ele>
        <time>2021-08-31T08:52:26Z</time>
      </trkpt>
      <trkpt lat="44.50845" lon="5.5047">
        <ele>1101.4000244141</ele>
        <time>2021-08-31T08:52:30Z</time>
      </trkpt>
      <trkpt lat="44.50839" lon="5.50483">
        <ele>1101.8000488281</ele>
        <time>2021-08-31T08:52:33Z</time>
      </trkpt>
      <trkpt lat="44.50836" lon="5.50508">
        <ele>1102.5999755859</ele>
        <time>2021-08-31T08:52:38Z</time>
      </trkpt>
      <trkpt lat="44.50835" lon="5.50513">
        <ele>1102.5999755859</ele>
        <time>2021-08-31T08:52:39Z</time>
      </trkpt>
      <trkpt lat="44.50835" lon="5.50537">
        <ele>1103.5999755859</ele>
        <time>2021-08-31T08:52:44Z</time>
      </trkpt>
      <trkpt lat="44.50833" lon="5.50556">
        <ele>1104</ele>
        <time>2021-08-31T08:52:48Z</time>
      </trkpt>
      <trkpt lat="44.50827" lon="5.50596">
        <ele>1104.5999755859</ele>
        <time>2021-08-31T08:52:56Z</time>
      </trkpt>
      <trkpt lat="44.50826" lon="5.506">
        <ele>1104.5999755859</ele>
        <time>2021-08-31T08:52:57Z</time>
      </trkpt>
      <trkpt lat="44.50817" lon="5.50637">
        <ele>1105.4000244141</ele>
        <time>2021-08-31T08:53:05Z</time>
      </trkpt>
      <trkpt lat="44.50814" lon="5.50645">
        <ele>1105.5999755859</ele>
        <time>2021-08-31T08:53:07Z</time>
      </trkpt>
      <trkpt lat="44.50805" lon="5.50676">
        <ele>1106.1999511719</ele>
        <time>2021-08-31T08:53:14Z</time>
      </trkpt>
      <trkpt lat="44.50801" lon="5.50694">
        <ele>1106.8000488281</ele>
        <time>2021-08-31T08:53:18Z</time>
      </trkpt>
      <trkpt lat="44.50795" lon="5.50715">
        <ele>1107.5999755859</ele>
        <time>2021-08-31T08:53:23Z</time>
      </trkpt>
      <trkpt lat="44.50794" lon="5.50719">
        <ele>1107.8000488281</ele>
        <time>2021-08-31T08:53:24Z</time>
      </trkpt>
      <trkpt lat="44.50785" lon="5.50752">
        <ele>1108.5999755859</ele>
        <time>2021-08-31T08:53:32Z</time>
      </trkpt>
      <trkpt lat="44.5078" lon="5.50771">
        <ele>1109</ele>
        <time>2021-08-31T08:53:36Z</time>
      </trkpt>
      <trkpt lat="44.50775" lon="5.50788">
        <ele>1109.4000244141</ele>
        <time>2021-08-31T08:53:40Z</time>
      </trkpt>
      <trkpt lat="44.50769" lon="5.50814">
        <ele>1110</ele>
        <time>2021-08-31T08:53:46Z</time>
      </trkpt>
      <trkpt lat="44.50765" lon="5.50827">
        <ele>1110.1999511719</ele>
        <time>2021-08-31T08:53:49Z</time>
      </trkpt>
      <trkpt lat="44.50758" lon="5.50857">
        <ele>1111</ele>
        <time>2021-08-31T08:53:56Z</time>
      </trkpt>
      <trkpt lat="44.50748" lon="5.50893">
        <ele>1111.5999755859</ele>
        <time>2021-08-31T08:54:04Z</time>
      </trkpt>
      <trkpt lat="44.50744" lon="5.50913">
        <ele>1112.1999511719</ele>
        <time>2021-08-31T08:54:08Z</time>
      </trkpt>
      <trkpt lat="44.5074" lon="5.50929">
        <ele>1112.5999755859</ele>
        <time>2021-08-31T08:54:11Z</time>
      </trkpt>
      <trkpt lat="44.50737" lon="5.50945">
        <ele>1113.1999511719</ele>
        <time>2021-08-31T08:54:14Z</time>
      </trkpt>
      <trkpt lat="44.50729" lon="5.50969">
        <ele>1113.8000488281</ele>
        <time>2021-08-31T08:54:19Z</time>
      </trkpt>
      <trkpt lat="44.5072" lon="5.50988">
        <ele>1114.1999511719</ele>
        <time>2021-08-31T08:54:23Z</time>
      </trkpt>
      <trkpt lat="44.50715" lon="5.50995">
        <ele>1114.4000244141</ele>
        <time>2021-08-31T08:54:25Z</time>
      </trkpt>
      <trkpt lat="44.50694" lon="5.51018">
        <ele>1115</ele>
        <time>2021-08-31T08:54:33Z</time>
      </trkpt>
      <trkpt lat="44.50687" lon="5.51024">
        <ele>1115.1999511719</ele>
        <time>2021-08-31T08:54:36Z</time>
      </trkpt>
      <trkpt lat="44.50678" lon="5.51032">
        <ele>1116</ele>
        <time>2021-08-31T08:54:41Z</time>
      </trkpt>
      <trkpt lat="44.50673" lon="5.51041">
        <ele>1116.5999755859</ele>
        <time>2021-08-31T08:57:07Z</time>
      </trkpt>
      <trkpt lat="44.5067" lon="5.51049">
        <ele>1116.4000244141</ele>
        <time>2021-08-31T08:57:11Z</time>
      </trkpt>
      <trkpt lat="44.50668" lon="5.51051">
        <ele>1116.4000244141</ele>
        <time>2021-08-31T08:57:12Z</time>
      </trkpt>
      <trkpt lat="44.50658" lon="5.51075">
        <ele>1116.1999511719</ele>
        <time>2021-08-31T08:57:19Z</time>
      </trkpt>
      <trkpt lat="44.50645" lon="5.51103">
        <ele>1115.8000488281</ele>
        <time>2021-08-31T08:57:25Z</time>
      </trkpt>
      <trkpt lat="44.50642" lon="5.51108">
        <ele>1115.5999755859</ele>
        <time>2021-08-31T08:57:26Z</time>
      </trkpt>
      <trkpt lat="44.50637" lon="5.5112">
        <ele>1115.4000244141</ele>
        <time>2021-08-31T08:57:28Z</time>
      </trkpt>
      <trkpt lat="44.50635" lon="5.51126">
        <ele>1115.1999511719</ele>
        <time>2021-08-31T08:57:29Z</time>
      </trkpt>
      <trkpt lat="44.50629" lon="5.51139">
        <ele>1115</ele>
        <time>2021-08-31T08:57:31Z</time>
      </trkpt>
      <trkpt lat="44.50616" lon="5.51167">
        <ele>1114.4000244141</ele>
        <time>2021-08-31T08:57:35Z</time>
      </trkpt>
      <trkpt lat="44.50607" lon="5.51181">
        <ele>1113.8000488281</ele>
        <time>2021-08-31T08:57:37Z</time>
      </trkpt>
      <trkpt lat="44.50597" lon="5.51194">
        <ele>1113.4000244141</ele>
        <time>2021-08-31T08:57:39Z</time>
      </trkpt>
      <trkpt lat="44.50592" lon="5.51199">
        <ele>1113.1999511719</ele>
        <time>2021-08-31T08:57:40Z</time>
      </trkpt>
      <trkpt lat="44.5058" lon="5.51209">
        <ele>1113</ele>
        <time>2021-08-31T08:57:42Z</time>
      </trkpt>
      <trkpt lat="44.50554" lon="5.51228">
        <ele>1112</ele>
        <time>2021-08-31T08:57:46Z</time>
      </trkpt>
      <trkpt lat="44.50527" lon="5.51246">
        <ele>1111.1999511719</ele>
        <time>2021-08-31T08:57:50Z</time>
      </trkpt>
      <trkpt lat="44.5052" lon="5.51251">
        <ele>1111</ele>
        <time>2021-08-31T08:57:51Z</time>
      </trkpt>
      <trkpt lat="44.50502" lon="5.51267">
        <ele>1109.5999755859</ele>
        <time>2021-08-31T08:57:54Z</time>
      </trkpt>
      <trkpt lat="44.50496" lon="5.51275">
        <ele>1109.4000244141</ele>
        <time>2021-08-31T08:57:55Z</time>
      </trkpt>
      <trkpt lat="44.5048" lon="5.51299">
        <ele>1108.4000244141</ele>
        <time>2021-08-31T08:57:58Z</time>
      </trkpt>
      <trkpt lat="44.50467" lon="5.51327">
        <ele>1107.5999755859</ele>
        <time>2021-08-31T08:58:01Z</time>
      </trkpt>
      <trkpt lat="44.50463" lon="5.51337">
        <ele>1107.1999511719</ele>
        <time>2021-08-31T08:58:02Z</time>
      </trkpt>
      <trkpt lat="44.5046" lon="5.5136">
        <ele>1106.5999755859</ele>
        <time>2021-08-31T08:58:04Z</time>
      </trkpt>
      <trkpt lat="44.5046" lon="5.51371">
        <ele>1106.4000244141</ele>
        <time>2021-08-31T08:58:05Z</time>
      </trkpt>
      <trkpt lat="44.50461" lon="5.51383">
        <ele>1106</ele>
        <time>2021-08-31T08:58:06Z</time>
      </trkpt>
      <trkpt lat="44.50467" lon="5.51441">
        <ele>1104.8000488281</ele>
        <time>2021-08-31T08:58:11Z</time>
      </trkpt>
      <trkpt lat="44.50466" lon="5.51477">
        <ele>1103.5999755859</ele>
        <time>2021-08-31T08:58:14Z</time>
      </trkpt>
      <trkpt lat="44.50462" lon="5.51501">
        <ele>1102.8000488281</ele>
        <time>2021-08-31T08:58:16Z</time>
      </trkpt>
      <trkpt lat="44.5046" lon="5.51512">
        <ele>1102</ele>
        <time>2021-08-31T08:58:17Z</time>
      </trkpt>
      <trkpt lat="44.50457" lon="5.51547">
        <ele>1100.8000488281</ele>
        <time>2021-08-31T08:58:20Z</time>
      </trkpt>
      <trkpt lat="44.50457" lon="5.51559">
        <ele>1100.5999755859</ele>
        <time>2021-08-31T08:58:21Z</time>
      </trkpt>
      <trkpt lat="44.50461" lon="5.51594">
        <ele>1099.5999755859</ele>
        <time>2021-08-31T08:58:24Z</time>
      </trkpt>
      <trkpt lat="44.50466" lon="5.51629">
        <ele>1098.8000488281</ele>
        <time>2021-08-31T08:58:27Z</time>
      </trkpt>
      <trkpt lat="44.50468" lon="5.51641">
        <ele>1098.4000244141</ele>
        <time>2021-08-31T08:58:28Z</time>
      </trkpt>
      <trkpt lat="44.50471" lon="5.51676">
        <ele>1097.4000244141</ele>
        <time>2021-08-31T08:58:31Z</time>
      </trkpt>
      <trkpt lat="44.50469" lon="5.51688">
        <ele>1097.1999511719</ele>
        <time>2021-08-31T08:58:32Z</time>
      </trkpt>
      <trkpt lat="44.50458" lon="5.51722">
        <ele>1096.1999511719</ele>
        <time>2021-08-31T08:58:35Z</time>
      </trkpt>
      <trkpt lat="44.50447" lon="5.51739">
        <ele>1095</ele>
        <time>2021-08-31T08:58:37Z</time>
      </trkpt>
      <trkpt lat="44.50441" lon="5.51748">
        <ele>1094.4000244141</ele>
        <time>2021-08-31T08:58:38Z</time>
      </trkpt>
      <trkpt lat="44.50435" lon="5.51756">
        <ele>1093.8000488281</ele>
        <time>2021-08-31T08:58:39Z</time>
      </trkpt>
      <trkpt lat="44.5043" lon="5.51765">
        <ele>1093.4000244141</ele>
        <time>2021-08-31T08:58:40Z</time>
      </trkpt>
      <trkpt lat="44.50425" lon="5.51775">
        <ele>1092.4000244141</ele>
        <time>2021-08-31T08:58:41Z</time>
      </trkpt>
      <trkpt lat="44.50418" lon="5.51795">
        <ele>1091.8000488281</ele>
        <time>2021-08-31T08:58:43Z</time>
      </trkpt>
      <trkpt lat="44.50412" lon="5.51815">
        <ele>1091.4000244141</ele>
        <time>2021-08-31T08:58:45Z</time>
      </trkpt>
      <trkpt lat="44.5041" lon="5.51826">
        <ele>1091.1999511719</ele>
        <time>2021-08-31T08:58:46Z</time>
      </trkpt>
      <trkpt lat="44.50408" lon="5.51847">
        <ele>1090.4000244141</ele>
        <time>2021-08-31T08:58:48Z</time>
      </trkpt>
      <trkpt lat="44.50414" lon="5.5189">
        <ele>1089.1999511719</ele>
        <time>2021-08-31T08:58:52Z</time>
      </trkpt>
      <trkpt lat="44.5042" lon="5.51921">
        <ele>1088.1999511719</ele>
        <time>2021-08-31T08:58:55Z</time>
      </trkpt>
      <trkpt lat="44.50426" lon="5.51941">
        <ele>1087.5999755859</ele>
        <time>2021-08-31T08:58:57Z</time>
      </trkpt>
      <trkpt lat="44.5043" lon="5.5195">
        <ele>1087.4000244141</ele>
        <time>2021-08-31T08:58:58Z</time>
      </trkpt>
      <trkpt lat="44.50434" lon="5.5196">
        <ele>1087.1999511719</ele>
        <time>2021-08-31T08:58:59Z</time>
      </trkpt>
      <trkpt lat="44.50444" lon="5.51991">
        <ele>1086</ele>
        <time>2021-08-31T08:59:02Z</time>
      </trkpt>
      <trkpt lat="44.50444" lon="5.52024">
        <ele>1084</ele>
        <time>2021-08-31T08:59:05Z</time>
      </trkpt>
      <trkpt lat="44.5044" lon="5.52055">
        <ele>1083.1999511719</ele>
        <time>2021-08-31T08:59:08Z</time>
      </trkpt>
      <trkpt lat="44.50438" lon="5.52066">
        <ele>1083</ele>
        <time>2021-08-31T08:59:09Z</time>
      </trkpt>
      <trkpt lat="44.50436" lon="5.52076">
        <ele>1082.8000488281</ele>
        <time>2021-08-31T08:59:10Z</time>
      </trkpt>
      <trkpt lat="44.50431" lon="5.52105">
        <ele>1082</ele>
        <time>2021-08-31T08:59:13Z</time>
      </trkpt>
      <trkpt lat="44.50431" lon="5.52126">
        <ele>1081.5999755859</ele>
        <time>2021-08-31T08:59:15Z</time>
      </trkpt>
      <trkpt lat="44.50432" lon="5.52136">
        <ele>1081.4000244141</ele>
        <time>2021-08-31T08:59:16Z</time>
      </trkpt>
      <trkpt lat="44.50441" lon="5.52165">
        <ele>1080.8000488281</ele>
        <time>2021-08-31T08:59:19Z</time>
      </trkpt>
      <trkpt lat="44.50445" lon="5.52174">
        <ele>1080.4000244141</ele>
        <time>2021-08-31T08:59:20Z</time>
      </trkpt>
      <trkpt lat="44.50458" lon="5.522">
        <ele>1079.4000244141</ele>
        <time>2021-08-31T08:59:23Z</time>
      </trkpt>
      <trkpt lat="44.50466" lon="5.52219">
        <ele>1078.5999755859</ele>
        <time>2021-08-31T08:59:25Z</time>
      </trkpt>
      <trkpt lat="44.50468" lon="5.52229">
        <ele>1078</ele>
        <time>2021-08-31T08:59:26Z</time>
      </trkpt>
      <trkpt lat="44.50468" lon="5.52262">
        <ele>1076.4000244141</ele>
        <time>2021-08-31T08:59:29Z</time>
      </trkpt>
      <trkpt lat="44.50466" lon="5.52273">
        <ele>1076</ele>
        <time>2021-08-31T08:59:30Z</time>
      </trkpt>
      <trkpt lat="44.50463" lon="5.52294">
        <ele>1075.1999511719</ele>
        <time>2021-08-31T08:59:32Z</time>
      </trkpt>
      <trkpt lat="44.50458" lon="5.52325">
        <ele>1074.4000244141</ele>
        <time>2021-08-31T08:59:35Z</time>
      </trkpt>
      <trkpt lat="44.50456" lon="5.52335">
        <ele>1074.1999511719</ele>
        <time>2021-08-31T08:59:36Z</time>
      </trkpt>
      <trkpt lat="44.50454" lon="5.52373">
        <ele>1073.4000244141</ele>
        <time>2021-08-31T08:59:40Z</time>
      </trkpt>
      <trkpt lat="44.50456" lon="5.52382">
        <ele>1073</ele>
        <time>2021-08-31T08:59:41Z</time>
      </trkpt>
      <trkpt lat="44.50463" lon="5.52418">
        <ele>1072.4000244141</ele>
        <time>2021-08-31T08:59:45Z</time>
      </trkpt>
      <trkpt lat="44.50465" lon="5.52427">
        <ele>1072</ele>
        <time>2021-08-31T08:59:46Z</time>
      </trkpt>
      <trkpt lat="44.50474" lon="5.52468">
        <ele>1070.8000488281</ele>
        <time>2021-08-31T08:59:50Z</time>
      </trkpt>
      <trkpt lat="44.50476" lon="5.52479">
        <ele>1070.4000244141</ele>
        <time>2021-08-31T08:59:51Z</time>
      </trkpt>
      <trkpt lat="44.50479" lon="5.52501">
        <ele>1069.1999511719</ele>
        <time>2021-08-31T08:59:53Z</time>
      </trkpt>
      <trkpt lat="44.50482" lon="5.52534">
        <ele>1068</ele>
        <time>2021-08-31T08:59:56Z</time>
      </trkpt>
      <trkpt lat="44.50484" lon="5.52567">
        <ele>1067.1999511719</ele>
        <time>2021-08-31T08:59:59Z</time>
      </trkpt>
      <trkpt lat="44.50485" lon="5.52578">
        <ele>1067</ele>
        <time>2021-08-31T09:00:00Z</time>
      </trkpt>
      <trkpt lat="44.50488" lon="5.52599">
        <ele>1066.4000244141</ele>
        <time>2021-08-31T09:00:02Z</time>
      </trkpt>
      <trkpt lat="44.5049" lon="5.5262">
        <ele>1066</ele>
        <time>2021-08-31T09:00:05Z</time>
      </trkpt>
      <trkpt lat="44.50492" lon="5.52631">
        <ele>1065.8000488281</ele>
        <time>2021-08-31T09:00:06Z</time>
      </trkpt>
      <trkpt lat="44.50501" lon="5.52686">
        <ele>1064.5999755859</ele>
        <time>2021-08-31T09:00:11Z</time>
      </trkpt>
      <trkpt lat="44.50502" lon="5.52698">
        <ele>1064.1999511719</ele>
        <time>2021-08-31T09:00:12Z</time>
      </trkpt>
      <trkpt lat="44.50503" lon="5.52722">
        <ele>1063.4000244141</ele>
        <time>2021-08-31T09:00:14Z</time>
      </trkpt>
      <trkpt lat="44.50502" lon="5.52735">
        <ele>1063.1999511719</ele>
        <time>2021-08-31T09:00:15Z</time>
      </trkpt>
      <trkpt lat="44.505" lon="5.52746">
        <ele>1062.8000488281</ele>
        <time>2021-08-31T09:00:16Z</time>
      </trkpt>
      <trkpt lat="44.50497" lon="5.52758">
        <ele>1062.1999511719</ele>
        <time>2021-08-31T09:00:17Z</time>
      </trkpt>
      <trkpt lat="44.50494" lon="5.52769">
        <ele>1061.1999511719</ele>
        <time>2021-08-31T09:00:18Z</time>
      </trkpt>
      <trkpt lat="44.50486" lon="5.52802">
        <ele>1060</ele>
        <time>2021-08-31T09:00:21Z</time>
      </trkpt>
      <trkpt lat="44.50487" lon="5.52846">
        <ele>1059</ele>
        <time>2021-08-31T09:00:25Z</time>
      </trkpt>
      <trkpt lat="44.50495" lon="5.52876">
        <ele>1058.1999511719</ele>
        <time>2021-08-31T09:00:28Z</time>
      </trkpt>
      <trkpt lat="44.50497" lon="5.52885">
        <ele>1058</ele>
        <time>2021-08-31T09:00:29Z</time>
      </trkpt>
      <trkpt lat="44.505" lon="5.52895">
        <ele>1057.5999755859</ele>
        <time>2021-08-31T09:00:30Z</time>
      </trkpt>
      <trkpt lat="44.50511" lon="5.52944">
        <ele>1056.8000488281</ele>
        <time>2021-08-31T09:00:35Z</time>
      </trkpt>
      <trkpt lat="44.50511" lon="5.52955">
        <ele>1056.5999755859</ele>
        <time>2021-08-31T09:00:36Z</time>
      </trkpt>
      <trkpt lat="44.50507" lon="5.52987">
        <ele>1056</ele>
        <time>2021-08-31T09:00:39Z</time>
      </trkpt>
      <trkpt lat="44.50505" lon="5.52998">
        <ele>1055.8000488281</ele>
        <time>2021-08-31T09:00:40Z</time>
      </trkpt>
      <trkpt lat="44.50502" lon="5.53009">
        <ele>1055.4000244141</ele>
        <time>2021-08-31T09:00:41Z</time>
      </trkpt>
      <trkpt lat="44.50493" lon="5.53042">
        <ele>1054.1999511719</ele>
        <time>2021-08-31T09:00:44Z</time>
      </trkpt>
      <trkpt lat="44.5049" lon="5.53053">
        <ele>1053.8000488281</ele>
        <time>2021-08-31T09:00:45Z</time>
      </trkpt>
      <trkpt lat="44.50484" lon="5.53076">
        <ele>1052.8000488281</ele>
        <time>2021-08-31T09:00:47Z</time>
      </trkpt>
      <trkpt lat="44.50485" lon="5.53089">
        <ele>1052.5999755859</ele>
        <time>2021-08-31T09:00:48Z</time>
      </trkpt>
      <trkpt lat="44.50492" lon="5.53113">
        <ele>1051.8000488281</ele>
        <time>2021-08-31T09:00:50Z</time>
      </trkpt>
      <trkpt lat="44.50496" lon="5.53125">
        <ele>1051.4000244141</ele>
        <time>2021-08-31T09:00:51Z</time>
      </trkpt>
      <trkpt lat="44.50501" lon="5.53139">
        <ele>1050.8000488281</ele>
        <time>2021-08-31T09:00:52Z</time>
      </trkpt>
      <trkpt lat="44.50507" lon="5.53166">
        <ele>1049.1999511719</ele>
        <time>2021-08-31T09:00:54Z</time>
      </trkpt>
      <trkpt lat="44.50507" lon="5.53181">
        <ele>1048.4000244141</ele>
        <time>2021-08-31T09:00:55Z</time>
      </trkpt>
      <trkpt lat="44.50506" lon="5.53196">
        <ele>1047.5999755859</ele>
        <time>2021-08-31T09:00:56Z</time>
      </trkpt>
      <trkpt lat="44.50501" lon="5.53223">
        <ele>1046</ele>
        <time>2021-08-31T09:00:58Z</time>
      </trkpt>
      <trkpt lat="44.50494" lon="5.53248">
        <ele>1045</ele>
        <time>2021-08-31T09:01:00Z</time>
      </trkpt>
      <trkpt lat="44.50492" lon="5.53259">
        <ele>1044.5999755859</ele>
        <time>2021-08-31T09:01:01Z</time>
      </trkpt>
      <trkpt lat="44.50494" lon="5.53271">
        <ele>1044.1999511719</ele>
        <time>2021-08-31T09:01:02Z</time>
      </trkpt>
      <trkpt lat="44.50497" lon="5.53282">
        <ele>1043.8000488281</ele>
        <time>2021-08-31T09:01:03Z</time>
      </trkpt>
      <trkpt lat="44.50508" lon="5.53302">
        <ele>1042.8000488281</ele>
        <time>2021-08-31T09:01:05Z</time>
      </trkpt>
      <trkpt lat="44.50511" lon="5.53313">
        <ele>1041.5999755859</ele>
        <time>2021-08-31T09:01:06Z</time>
      </trkpt>
      <trkpt lat="44.50518" lon="5.53337">
        <ele>1040.1999511719</ele>
        <time>2021-08-31T09:01:08Z</time>
      </trkpt>
      <trkpt lat="44.50526" lon="5.5336">
        <ele>1039</ele>
        <time>2021-08-31T09:01:10Z</time>
      </trkpt>
      <trkpt lat="44.50533" lon="5.53369">
        <ele>1038.1999511719</ele>
        <time>2021-08-31T09:01:11Z</time>
      </trkpt>
      <trkpt lat="44.50541" lon="5.53375">
        <ele>1037.5999755859</ele>
        <time>2021-08-31T09:01:12Z</time>
      </trkpt>
      <trkpt lat="44.50558" lon="5.53388">
        <ele>1036.4000244141</ele>
        <time>2021-08-31T09:01:14Z</time>
      </trkpt>
      <trkpt lat="44.50573" lon="5.53407">
        <ele>1035.1999511719</ele>
        <time>2021-08-31T09:01:16Z</time>
      </trkpt>
      <trkpt lat="44.50579" lon="5.53419">
        <ele>1034.5999755859</ele>
        <time>2021-08-31T09:01:17Z</time>
      </trkpt>
      <trkpt lat="44.50584" lon="5.53432">
        <ele>1033.8000488281</ele>
        <time>2021-08-31T09:01:18Z</time>
      </trkpt>
      <trkpt lat="44.50589" lon="5.53445">
        <ele>1033.1999511719</ele>
        <time>2021-08-31T09:01:19Z</time>
      </trkpt>
      <trkpt lat="44.50593" lon="5.53459">
        <ele>1032.5999755859</ele>
        <time>2021-08-31T09:01:20Z</time>
      </trkpt>
      <trkpt lat="44.50596" lon="5.53473">
        <ele>1031.8000488281</ele>
        <time>2021-08-31T09:01:21Z</time>
      </trkpt>
      <trkpt lat="44.50598" lon="5.53488">
        <ele>1031.1999511719</ele>
        <time>2021-08-31T09:01:22Z</time>
      </trkpt>
      <trkpt lat="44.50596" lon="5.53517">
        <ele>1029.8000488281</ele>
        <time>2021-08-31T09:01:24Z</time>
      </trkpt>
      <trkpt lat="44.50587" lon="5.53546">
        <ele>1028.4000244141</ele>
        <time>2021-08-31T09:01:26Z</time>
      </trkpt>
      <trkpt lat="44.50581" lon="5.53559">
        <ele>1027.5999755859</ele>
        <time>2021-08-31T09:01:27Z</time>
      </trkpt>
      <trkpt lat="44.50574" lon="5.53571">
        <ele>1027</ele>
        <time>2021-08-31T09:01:28Z</time>
      </trkpt>
      <trkpt lat="44.50561" lon="5.53598">
        <ele>1024.8000488281</ele>
        <time>2021-08-31T09:01:30Z</time>
      </trkpt>
      <trkpt lat="44.50554" lon="5.53628">
        <ele>1023</ele>
        <time>2021-08-31T09:01:32Z</time>
      </trkpt>
      <trkpt lat="44.50553" lon="5.53643">
        <ele>1022.200012207</ele>
        <time>2021-08-31T09:01:33Z</time>
      </trkpt>
      <trkpt lat="44.50552" lon="5.53658">
        <ele>1021.5999755859</ele>
        <time>2021-08-31T09:01:34Z</time>
      </trkpt>
      <trkpt lat="44.50552" lon="5.53673">
        <ele>1020.799987793</ele>
        <time>2021-08-31T09:01:35Z</time>
      </trkpt>
      <trkpt lat="44.50552" lon="5.53688">
        <ele>1020.200012207</ele>
        <time>2021-08-31T09:01:36Z</time>
      </trkpt>
      <trkpt lat="44.50554" lon="5.53703">
        <ele>1019.5999755859</ele>
        <time>2021-08-31T09:01:37Z</time>
      </trkpt>
      <trkpt lat="44.50557" lon="5.53717">
        <ele>1019</ele>
        <time>2021-08-31T09:01:38Z</time>
      </trkpt>
      <trkpt lat="44.50564" lon="5.53745">
        <ele>1017.799987793</ele>
        <time>2021-08-31T09:01:40Z</time>
      </trkpt>
      <trkpt lat="44.50569" lon="5.53758">
        <ele>1017.200012207</ele>
        <time>2021-08-31T09:01:41Z</time>
      </trkpt>
      <trkpt lat="44.50574" lon="5.53772">
        <ele>1016.799987793</ele>
        <time>2021-08-31T09:01:42Z</time>
      </trkpt>
      <trkpt lat="44.50576" lon="5.53786">
        <ele>1016.200012207</ele>
        <time>2021-08-31T09:01:43Z</time>
      </trkpt>
      <trkpt lat="44.50576" lon="5.53802">
        <ele>1015.4000244141</ele>
        <time>2021-08-31T09:01:44Z</time>
      </trkpt>
      <trkpt lat="44.50575" lon="5.53817">
        <ele>1014.799987793</ele>
        <time>2021-08-31T09:01:45Z</time>
      </trkpt>
      <trkpt lat="44.50573" lon="5.53833">
        <ele>1014</ele>
        <time>2021-08-31T09:01:46Z</time>
      </trkpt>
      <trkpt lat="44.50565" lon="5.53862">
        <ele>1012.5999755859</ele>
        <time>2021-08-31T09:01:48Z</time>
      </trkpt>
      <trkpt lat="44.50561" lon="5.53876">
        <ele>1012</ele>
        <time>2021-08-31T09:01:49Z</time>
      </trkpt>
      <trkpt lat="44.50559" lon="5.53891">
        <ele>1011.200012207</ele>
        <time>2021-08-31T09:01:50Z</time>
      </trkpt>
      <trkpt lat="44.50555" lon="5.53922">
        <ele>1010</ele>
        <time>2021-08-31T09:01:52Z</time>
      </trkpt>
      <trkpt lat="44.50555" lon="5.53953">
        <ele>1008</ele>
        <time>2021-08-31T09:01:54Z</time>
      </trkpt>
      <trkpt lat="44.50558" lon="5.53984">
        <ele>1006.4000244141</ele>
        <time>2021-08-31T09:01:56Z</time>
      </trkpt>
      <trkpt lat="44.50563" lon="5.54016">
        <ele>1005</ele>
        <time>2021-08-31T09:01:58Z</time>
      </trkpt>
      <trkpt lat="44.50564" lon="5.54032">
        <ele>1004.4000244141</ele>
        <time>2021-08-31T09:01:59Z</time>
      </trkpt>
      <trkpt lat="44.50564" lon="5.54049">
        <ele>1003.5999755859</ele>
        <time>2021-08-31T09:02:00Z</time>
      </trkpt>
      <trkpt lat="44.50563" lon="5.54083">
        <ele>1002</ele>
        <time>2021-08-31T09:02:02Z</time>
      </trkpt>
      <trkpt lat="44.50561" lon="5.541">
        <ele>1001</ele>
        <time>2021-08-31T09:02:03Z</time>
      </trkpt>
      <trkpt lat="44.5056" lon="5.54116">
        <ele>999.79998779297</ele>
        <time>2021-08-31T09:02:04Z</time>
      </trkpt>
      <trkpt lat="44.50559" lon="5.54133">
        <ele>998.59997558594</ele>
        <time>2021-08-31T09:02:05Z</time>
      </trkpt>
      <trkpt lat="44.50557" lon="5.5415">
        <ele>997.40002441406</ele>
        <time>2021-08-31T09:02:06Z</time>
      </trkpt>
      <trkpt lat="44.50553" lon="5.54166">
        <ele>996.40002441406</ele>
        <time>2021-08-31T09:02:07Z</time>
      </trkpt>
      <trkpt lat="44.50549" lon="5.54181">
        <ele>995.40002441406</ele>
        <time>2021-08-31T09:02:08Z</time>
      </trkpt>
      <trkpt lat="44.50542" lon="5.54211">
        <ele>993.59997558594</ele>
        <time>2021-08-31T09:02:10Z</time>
      </trkpt>
      <trkpt lat="44.50533" lon="5.54239">
        <ele>992.20001220703</ele>
        <time>2021-08-31T09:02:12Z</time>
      </trkpt>
      <trkpt lat="44.50525" lon="5.54265">
        <ele>991</ele>
        <time>2021-08-31T09:02:14Z</time>
      </trkpt>
      <trkpt lat="44.50514" lon="5.54303">
        <ele>989.59997558594</ele>
        <time>2021-08-31T09:02:17Z</time>
      </trkpt>
      <trkpt lat="44.50505" lon="5.54325">
        <ele>988.40002441406</ele>
        <time>2021-08-31T09:02:19Z</time>
      </trkpt>
      <trkpt lat="44.505" lon="5.54335">
        <ele>988.20001220703</ele>
        <time>2021-08-31T09:02:20Z</time>
      </trkpt>
      <trkpt lat="44.50475" lon="5.54385">
        <ele>987.40002441406</ele>
        <time>2021-08-31T09:02:25Z</time>
      </trkpt>
      <trkpt lat="44.50463" lon="5.54421">
        <ele>986.40002441406</ele>
        <time>2021-08-31T09:02:28Z</time>
      </trkpt>
      <trkpt lat="44.50453" lon="5.54459">
        <ele>984.79998779297</ele>
        <time>2021-08-31T09:02:31Z</time>
      </trkpt>
      <trkpt lat="44.50448" lon="5.54486">
        <ele>983.40002441406</ele>
        <time>2021-08-31T09:02:33Z</time>
      </trkpt>
      <trkpt lat="44.50444" lon="5.54514">
        <ele>982.20001220703</ele>
        <time>2021-08-31T09:02:35Z</time>
      </trkpt>
      <trkpt lat="44.50444" lon="5.54528">
        <ele>981.59997558594</ele>
        <time>2021-08-31T09:02:36Z</time>
      </trkpt>
      <trkpt lat="44.50444" lon="5.54543">
        <ele>981</ele>
        <time>2021-08-31T09:02:37Z</time>
      </trkpt>
      <trkpt lat="44.50442" lon="5.54558">
        <ele>980.20001220703</ele>
        <time>2021-08-31T09:02:38Z</time>
      </trkpt>
      <trkpt lat="44.50439" lon="5.54572">
        <ele>979.40002441406</ele>
        <time>2021-08-31T09:02:39Z</time>
      </trkpt>
      <trkpt lat="44.50436" lon="5.54586">
        <ele>978.59997558594</ele>
        <time>2021-08-31T09:02:40Z</time>
      </trkpt>
      <trkpt lat="44.50431" lon="5.546">
        <ele>977.79998779297</ele>
        <time>2021-08-31T09:02:41Z</time>
      </trkpt>
      <trkpt lat="44.50427" lon="5.54613">
        <ele>976.20001220703</ele>
        <time>2021-08-31T09:02:42Z</time>
      </trkpt>
      <trkpt lat="44.50423" lon="5.54643">
        <ele>974.59997558594</ele>
        <time>2021-08-31T09:02:44Z</time>
      </trkpt>
      <trkpt lat="44.50426" lon="5.54673">
        <ele>973</ele>
        <time>2021-08-31T09:02:46Z</time>
      </trkpt>
      <trkpt lat="44.50427" lon="5.54688">
        <ele>972.40002441406</ele>
        <time>2021-08-31T09:02:47Z</time>
      </trkpt>
      <trkpt lat="44.50427" lon="5.54704">
        <ele>971.79998779297</ele>
        <time>2021-08-31T09:02:48Z</time>
      </trkpt>
      <trkpt lat="44.50424" lon="5.54736">
        <ele>970.20001220703</ele>
        <time>2021-08-31T09:02:50Z</time>
      </trkpt>
      <trkpt lat="44.50422" lon="5.54752">
        <ele>969.40002441406</ele>
        <time>2021-08-31T09:02:51Z</time>
      </trkpt>
      <trkpt lat="44.50421" lon="5.54767">
        <ele>968.40002441406</ele>
        <time>2021-08-31T09:02:52Z</time>
      </trkpt>
      <trkpt lat="44.50421" lon="5.54799">
        <ele>966.79998779297</ele>
        <time>2021-08-31T09:02:54Z</time>
      </trkpt>
      <trkpt lat="44.50421" lon="5.54815">
        <ele>966</ele>
        <time>2021-08-31T09:02:55Z</time>
      </trkpt>
      <trkpt lat="44.50421" lon="5.5483">
        <ele>965.20001220703</ele>
        <time>2021-08-31T09:02:56Z</time>
      </trkpt>
      <trkpt lat="44.50424" lon="5.54862">
        <ele>963.59997558594</ele>
        <time>2021-08-31T09:02:58Z</time>
      </trkpt>
      <trkpt lat="44.50427" lon="5.54876">
        <ele>962.79998779297</ele>
        <time>2021-08-31T09:02:59Z</time>
      </trkpt>
      <trkpt lat="44.5043" lon="5.54891">
        <ele>961.79998779297</ele>
        <time>2021-08-31T09:03:00Z</time>
      </trkpt>
      <trkpt lat="44.50437" lon="5.54919">
        <ele>960.20001220703</ele>
        <time>2021-08-31T09:03:02Z</time>
      </trkpt>
      <trkpt lat="44.50445" lon="5.54945">
        <ele>958.59997558594</ele>
        <time>2021-08-31T09:03:04Z</time>
      </trkpt>
      <trkpt lat="44.50449" lon="5.54955">
        <ele>957.79998779297</ele>
        <time>2021-08-31T09:03:05Z</time>
      </trkpt>
      <trkpt lat="44.5045" lon="5.54963">
        <ele>956.20001220703</ele>
        <time>2021-08-31T09:03:06Z</time>
      </trkpt>
      <trkpt lat="44.50447" lon="5.54973">
        <ele>954.40002441406</ele>
        <time>2021-08-31T09:03:08Z</time>
      </trkpt>
      <trkpt lat="44.5044" lon="5.54961">
        <ele>952.59997558594</ele>
        <time>2021-08-31T09:03:10Z</time>
      </trkpt>
      <trkpt lat="44.50436" lon="5.54944">
        <ele>951.40002441406</ele>
        <time>2021-08-31T09:03:12Z</time>
      </trkpt>
      <trkpt lat="44.50431" lon="5.54926">
        <ele>950.59997558594</ele>
        <time>2021-08-31T09:03:14Z</time>
      </trkpt>
      <trkpt lat="44.50428" lon="5.54916">
        <ele>950.20001220703</ele>
        <time>2021-08-31T09:03:15Z</time>
      </trkpt>
      <trkpt lat="44.50419" lon="5.54897">
        <ele>949.40002441406</ele>
        <time>2021-08-31T09:03:17Z</time>
      </trkpt>
      <trkpt lat="44.50413" lon="5.54888">
        <ele>949</ele>
        <time>2021-08-31T09:03:18Z</time>
      </trkpt>
      <trkpt lat="44.5039" lon="5.54862">
        <ele>947.59997558594</ele>
        <time>2021-08-31T09:03:21Z</time>
      </trkpt>
      <trkpt lat="44.50383" lon="5.54852">
        <ele>947</ele>
        <time>2021-08-31T09:03:22Z</time>
      </trkpt>
      <trkpt lat="44.50377" lon="5.5484">
        <ele>946.40002441406</ele>
        <time>2021-08-31T09:03:23Z</time>
      </trkpt>
      <trkpt lat="44.50368" lon="5.54814">
        <ele>945</ele>
        <time>2021-08-31T09:03:25Z</time>
      </trkpt>
      <trkpt lat="44.50356" lon="5.54788">
        <ele>943.79998779297</ele>
        <time>2021-08-31T09:03:27Z</time>
      </trkpt>
      <trkpt lat="44.50341" lon="5.54764">
        <ele>942.40002441406</ele>
        <time>2021-08-31T09:03:29Z</time>
      </trkpt>
      <trkpt lat="44.50333" lon="5.54754">
        <ele>940.79998779297</ele>
        <time>2021-08-31T09:03:30Z</time>
      </trkpt>
      <trkpt lat="44.50313" lon="5.5474">
        <ele>939.40002441406</ele>
        <time>2021-08-31T09:03:32Z</time>
      </trkpt>
      <trkpt lat="44.50292" lon="5.54734">
        <ele>937.59997558594</ele>
        <time>2021-08-31T09:03:34Z</time>
      </trkpt>
      <trkpt lat="44.50285" lon="5.54729">
        <ele>936.79998779297</ele>
        <time>2021-08-31T09:03:35Z</time>
      </trkpt>
      <trkpt lat="44.5028" lon="5.5472">
        <ele>936</ele>
        <time>2021-08-31T09:03:36Z</time>
      </trkpt>
      <trkpt lat="44.50277" lon="5.54709">
        <ele>935.20001220703</ele>
        <time>2021-08-31T09:03:37Z</time>
      </trkpt>
      <trkpt lat="44.50277" lon="5.54696">
        <ele>934.40002441406</ele>
        <time>2021-08-31T09:03:38Z</time>
      </trkpt>
      <trkpt lat="44.50279" lon="5.5467">
        <ele>932.59997558594</ele>
        <time>2021-08-31T09:03:40Z</time>
      </trkpt>
      <trkpt lat="44.50279" lon="5.54656">
        <ele>931.59997558594</ele>
        <time>2021-08-31T09:03:41Z</time>
      </trkpt>
      <trkpt lat="44.50279" lon="5.54642">
        <ele>930.59997558594</ele>
        <time>2021-08-31T09:03:42Z</time>
      </trkpt>
      <trkpt lat="44.5028" lon="5.54616">
        <ele>928.79998779297</ele>
        <time>2021-08-31T09:03:44Z</time>
      </trkpt>
      <trkpt lat="44.50279" lon="5.54605">
        <ele>928</ele>
        <time>2021-08-31T09:03:45Z</time>
      </trkpt>
      <trkpt lat="44.50276" lon="5.54598">
        <ele>927.40002441406</ele>
        <time>2021-08-31T09:03:46Z</time>
      </trkpt>
      <trkpt lat="44.5027" lon="5.54594">
        <ele>926.79998779297</ele>
        <time>2021-08-31T09:03:47Z</time>
      </trkpt>
      <trkpt lat="44.50263" lon="5.54595">
        <ele>926.20001220703</ele>
        <time>2021-08-31T09:03:48Z</time>
      </trkpt>
      <trkpt lat="44.50257" lon="5.546">
        <ele>925.59997558594</ele>
        <time>2021-08-31T09:03:49Z</time>
      </trkpt>
      <trkpt lat="44.50253" lon="5.54609">
        <ele>925</ele>
        <time>2021-08-31T09:03:50Z</time>
      </trkpt>
      <trkpt lat="44.50251" lon="5.54619">
        <ele>924.40002441406</ele>
        <time>2021-08-31T09:03:51Z</time>
      </trkpt>
      <trkpt lat="44.50249" lon="5.54629">
        <ele>923.79998779297</ele>
        <time>2021-08-31T09:03:52Z</time>
      </trkpt>
      <trkpt lat="44.50247" lon="5.5464">
        <ele>923.59997558594</ele>
        <time>2021-08-31T09:03:53Z</time>
      </trkpt>
      <trkpt lat="44.50246" lon="5.54665">
        <ele>922.59997558594</ele>
        <time>2021-08-31T09:03:55Z</time>
      </trkpt>
      <trkpt lat="44.50247" lon="5.54704">
        <ele>921.20001220703</ele>
        <time>2021-08-31T09:03:58Z</time>
      </trkpt>
      <trkpt lat="44.50247" lon="5.54732">
        <ele>920</ele>
        <time>2021-08-31T09:04:00Z</time>
      </trkpt>
      <trkpt lat="44.50248" lon="5.54745">
        <ele>919.40002441406</ele>
        <time>2021-08-31T09:04:01Z</time>
      </trkpt>
      <trkpt lat="44.50249" lon="5.54758">
        <ele>918.79998779297</ele>
        <time>2021-08-31T09:04:02Z</time>
      </trkpt>
      <trkpt lat="44.50252" lon="5.54772">
        <ele>918.20001220703</ele>
        <time>2021-08-31T09:04:03Z</time>
      </trkpt>
      <trkpt lat="44.50254" lon="5.54786">
        <ele>917.40002441406</ele>
        <time>2021-08-31T09:04:04Z</time>
      </trkpt>
      <trkpt lat="44.50259" lon="5.54817">
        <ele>916.20001220703</ele>
        <time>2021-08-31T09:04:06Z</time>
      </trkpt>
      <trkpt lat="44.50261" lon="5.54832">
        <ele>915.40002441406</ele>
        <time>2021-08-31T09:04:07Z</time>
      </trkpt>
      <trkpt lat="44.50263" lon="5.54847">
        <ele>914.59997558594</ele>
        <time>2021-08-31T09:04:08Z</time>
      </trkpt>
      <trkpt lat="44.50266" lon="5.54862">
        <ele>913.79998779297</ele>
        <time>2021-08-31T09:04:09Z</time>
      </trkpt>
      <trkpt lat="44.50271" lon="5.54876">
        <ele>913.20001220703</ele>
        <time>2021-08-31T09:04:10Z</time>
      </trkpt>
      <trkpt lat="44.50276" lon="5.5489">
        <ele>912.40002441406</ele>
        <time>2021-08-31T09:04:11Z</time>
      </trkpt>
      <trkpt lat="44.5028" lon="5.54904">
        <ele>911.59997558594</ele>
        <time>2021-08-31T09:04:12Z</time>
      </trkpt>
      <trkpt lat="44.50286" lon="5.54934">
        <ele>910.20001220703</ele>
        <time>2021-08-31T09:04:14Z</time>
      </trkpt>
      <trkpt lat="44.50287" lon="5.5495">
        <ele>909.20001220703</ele>
        <time>2021-08-31T09:04:15Z</time>
      </trkpt>
      <trkpt lat="44.50287" lon="5.54965">
        <ele>908.59997558594</ele>
        <time>2021-08-31T09:04:16Z</time>
      </trkpt>
      <trkpt lat="44.50288" lon="5.5498">
        <ele>907.79998779297</ele>
        <time>2021-08-31T09:04:17Z</time>
      </trkpt>
      <trkpt lat="44.5029" lon="5.54995">
        <ele>906.40002441406</ele>
        <time>2021-08-31T09:04:18Z</time>
      </trkpt>
      <trkpt lat="44.50292" lon="5.55011">
        <ele>905.79998779297</ele>
        <time>2021-08-31T09:04:19Z</time>
      </trkpt>
      <trkpt lat="44.50295" lon="5.55025">
        <ele>905.20001220703</ele>
        <time>2021-08-31T09:04:20Z</time>
      </trkpt>
      <trkpt lat="44.50305" lon="5.55054">
        <ele>904</ele>
        <time>2021-08-31T09:04:22Z</time>
      </trkpt>
      <trkpt lat="44.50317" lon="5.55083">
        <ele>902.40002441406</ele>
        <time>2021-08-31T09:04:24Z</time>
      </trkpt>
      <trkpt lat="44.50333" lon="5.55109">
        <ele>900.59997558594</ele>
        <time>2021-08-31T09:04:26Z</time>
      </trkpt>
      <trkpt lat="44.50352" lon="5.55131">
        <ele>898.79998779297</ele>
        <time>2021-08-31T09:04:28Z</time>
      </trkpt>
      <trkpt lat="44.50369" lon="5.55155">
        <ele>897</ele>
        <time>2021-08-31T09:04:30Z</time>
      </trkpt>
      <trkpt lat="44.50383" lon="5.55182">
        <ele>895.20001220703</ele>
        <time>2021-08-31T09:04:32Z</time>
      </trkpt>
      <trkpt lat="44.50397" lon="5.55207">
        <ele>893.20001220703</ele>
        <time>2021-08-31T09:04:34Z</time>
      </trkpt>
      <trkpt lat="44.50406" lon="5.55217">
        <ele>892.20001220703</ele>
        <time>2021-08-31T09:04:35Z</time>
      </trkpt>
      <trkpt lat="44.50414" lon="5.55225">
        <ele>891.20001220703</ele>
        <time>2021-08-31T09:04:36Z</time>
      </trkpt>
      <trkpt lat="44.50422" lon="5.55233">
        <ele>890.20001220703</ele>
        <time>2021-08-31T09:04:37Z</time>
      </trkpt>
      <trkpt lat="44.50427" lon="5.55244">
        <ele>889</ele>
        <time>2021-08-31T09:04:38Z</time>
      </trkpt>
      <trkpt lat="44.50431" lon="5.55257">
        <ele>888</ele>
        <time>2021-08-31T09:04:39Z</time>
      </trkpt>
      <trkpt lat="44.50432" lon="5.55271">
        <ele>887</ele>
        <time>2021-08-31T09:04:40Z</time>
      </trkpt>
      <trkpt lat="44.50433" lon="5.55286">
        <ele>886</ele>
        <time>2021-08-31T09:04:41Z</time>
      </trkpt>
      <trkpt lat="44.50436" lon="5.553">
        <ele>884.40002441406</ele>
        <time>2021-08-31T09:04:42Z</time>
      </trkpt>
      <trkpt lat="44.50441" lon="5.55329">
        <ele>883</ele>
        <time>2021-08-31T09:04:44Z</time>
      </trkpt>
      <trkpt lat="44.5045" lon="5.55358">
        <ele>881.40002441406</ele>
        <time>2021-08-31T09:04:46Z</time>
      </trkpt>
      <trkpt lat="44.50455" lon="5.55371">
        <ele>880.59997558594</ele>
        <time>2021-08-31T09:04:47Z</time>
      </trkpt>
      <trkpt lat="44.50461" lon="5.55385">
        <ele>879.79998779297</ele>
        <time>2021-08-31T09:04:48Z</time>
      </trkpt>
      <trkpt lat="44.50473" lon="5.55412">
        <ele>878</ele>
        <time>2021-08-31T09:04:50Z</time>
      </trkpt>
      <trkpt lat="44.50481" lon="5.55443">
        <ele>876.20001220703</ele>
        <time>2021-08-31T09:04:52Z</time>
      </trkpt>
      <trkpt lat="44.50486" lon="5.55476">
        <ele>874.40002441406</ele>
        <time>2021-08-31T09:04:54Z</time>
      </trkpt>
      <trkpt lat="44.50489" lon="5.55509">
        <ele>872.40002441406</ele>
        <time>2021-08-31T09:04:56Z</time>
      </trkpt>
      <trkpt lat="44.50492" lon="5.55543">
        <ele>870.59997558594</ele>
        <time>2021-08-31T09:04:58Z</time>
      </trkpt>
      <trkpt lat="44.50496" lon="5.55577">
        <ele>868.59997558594</ele>
        <time>2021-08-31T09:05:00Z</time>
      </trkpt>
      <trkpt lat="44.50498" lon="5.55594">
        <ele>867.59997558594</ele>
        <time>2021-08-31T09:05:01Z</time>
      </trkpt>
      <trkpt lat="44.50497" lon="5.55612">
        <ele>866.59997558594</ele>
        <time>2021-08-31T09:05:02Z</time>
      </trkpt>
      <trkpt lat="44.50496" lon="5.55629">
        <ele>865.59997558594</ele>
        <time>2021-08-31T09:05:03Z</time>
      </trkpt>
      <trkpt lat="44.50495" lon="5.55647">
        <ele>864.59997558594</ele>
        <time>2021-08-31T09:05:04Z</time>
      </trkpt>
      <trkpt lat="44.50493" lon="5.55664">
        <ele>863.40002441406</ele>
        <time>2021-08-31T09:05:05Z</time>
      </trkpt>
      <trkpt lat="44.50491" lon="5.55682">
        <ele>861.40002441406</ele>
        <time>2021-08-31T09:05:06Z</time>
      </trkpt>
      <trkpt lat="44.50486" lon="5.55716">
        <ele>859.59997558594</ele>
        <time>2021-08-31T09:05:08Z</time>
      </trkpt>
      <trkpt lat="44.50483" lon="5.55733">
        <ele>858.59997558594</ele>
        <time>2021-08-31T09:05:09Z</time>
      </trkpt>
      <trkpt lat="44.5048" lon="5.5575">
        <ele>857.40002441406</ele>
        <time>2021-08-31T09:05:10Z</time>
      </trkpt>
      <trkpt lat="44.50472" lon="5.55784">
        <ele>855.59997558594</ele>
        <time>2021-08-31T09:05:12Z</time>
      </trkpt>
      <trkpt lat="44.50468" lon="5.55818">
        <ele>853.79998779297</ele>
        <time>2021-08-31T09:05:14Z</time>
      </trkpt>
      <trkpt lat="44.50462" lon="5.55851">
        <ele>852</ele>
        <time>2021-08-31T09:05:16Z</time>
      </trkpt>
      <trkpt lat="44.50458" lon="5.55885">
        <ele>850.20001220703</ele>
        <time>2021-08-31T09:05:18Z</time>
      </trkpt>
      <trkpt lat="44.50455" lon="5.55902">
        <ele>849.20001220703</ele>
        <time>2021-08-31T09:05:19Z</time>
      </trkpt>
      <trkpt lat="44.50453" lon="5.55919">
        <ele>848.40002441406</ele>
        <time>2021-08-31T09:05:20Z</time>
      </trkpt>
      <trkpt lat="44.50449" lon="5.55952">
        <ele>846.59997558594</ele>
        <time>2021-08-31T09:05:22Z</time>
      </trkpt>
      <trkpt lat="44.50447" lon="5.55985">
        <ele>844.79998779297</ele>
        <time>2021-08-31T09:05:24Z</time>
      </trkpt>
      <trkpt lat="44.50447" lon="5.56001">
        <ele>844.20001220703</ele>
        <time>2021-08-31T09:05:25Z</time>
      </trkpt>
      <trkpt lat="44.50447" lon="5.56017">
        <ele>843.40002441406</ele>
        <time>2021-08-31T09:05:26Z</time>
      </trkpt>
      <trkpt lat="44.50449" lon="5.56049">
        <ele>842</ele>
        <time>2021-08-31T09:05:28Z</time>
      </trkpt>
      <trkpt lat="44.50452" lon="5.5608">
        <ele>839.79998779297</ele>
        <time>2021-08-31T09:05:30Z</time>
      </trkpt>
      <trkpt lat="44.50456" lon="5.56111">
        <ele>838.59997558594</ele>
        <time>2021-08-31T09:05:32Z</time>
      </trkpt>
      <trkpt lat="44.50462" lon="5.5614">
        <ele>837.20001220703</ele>
        <time>2021-08-31T09:05:34Z</time>
      </trkpt>
      <trkpt lat="44.50469" lon="5.56169">
        <ele>836</ele>
        <time>2021-08-31T09:05:36Z</time>
      </trkpt>
      <trkpt lat="44.50473" lon="5.56183">
        <ele>835.40002441406</ele>
        <time>2021-08-31T09:05:37Z</time>
      </trkpt>
      <trkpt lat="44.50477" lon="5.56197">
        <ele>834.79998779297</ele>
        <time>2021-08-31T09:05:38Z</time>
      </trkpt>
      <trkpt lat="44.50485" lon="5.56226">
        <ele>833.40002441406</ele>
        <time>2021-08-31T09:05:40Z</time>
      </trkpt>
      <trkpt lat="44.50494" lon="5.56255">
        <ele>832</ele>
        <time>2021-08-31T09:05:42Z</time>
      </trkpt>
      <trkpt lat="44.50502" lon="5.56284">
        <ele>830.59997558594</ele>
        <time>2021-08-31T09:05:44Z</time>
      </trkpt>
      <trkpt lat="44.5051" lon="5.56312">
        <ele>829.40002441406</ele>
        <time>2021-08-31T09:05:46Z</time>
      </trkpt>
      <trkpt lat="44.50518" lon="5.56339">
        <ele>828.20001220703</ele>
        <time>2021-08-31T09:05:48Z</time>
      </trkpt>
      <trkpt lat="44.50522" lon="5.5635">
        <ele>827.40002441406</ele>
        <time>2021-08-31T09:05:49Z</time>
      </trkpt>
      <trkpt lat="44.50528" lon="5.56357">
        <ele>826.59997558594</ele>
        <time>2021-08-31T09:05:50Z</time>
      </trkpt>
      <trkpt lat="44.5054" lon="5.56361">
        <ele>825.20001220703</ele>
        <time>2021-08-31T09:05:52Z</time>
      </trkpt>
      <trkpt lat="44.50554" lon="5.56352">
        <ele>822.79998779297</ele>
        <time>2021-08-31T09:05:54Z</time>
      </trkpt>
      <trkpt lat="44.50562" lon="5.56345">
        <ele>822.20001220703</ele>
        <time>2021-08-31T09:05:55Z</time>
      </trkpt>
      <trkpt lat="44.5057" lon="5.56337">
        <ele>821.59997558594</ele>
        <time>2021-08-31T09:05:56Z</time>
      </trkpt>
      <trkpt lat="44.50584" lon="5.56328">
        <ele>820.40002441406</ele>
        <time>2021-08-31T09:05:58Z</time>
      </trkpt>
      <trkpt lat="44.50597" lon="5.56336">
        <ele>819.40002441406</ele>
        <time>2021-08-31T09:06:00Z</time>
      </trkpt>
      <trkpt lat="44.50603" lon="5.56357">
        <ele>818</ele>
        <time>2021-08-31T09:06:02Z</time>
      </trkpt>
      <trkpt lat="44.50598" lon="5.56379">
        <ele>816.79998779297</ele>
        <time>2021-08-31T09:06:04Z</time>
      </trkpt>
      <trkpt lat="44.50588" lon="5.56399">
        <ele>815.59997558594</ele>
        <time>2021-08-31T09:06:06Z</time>
      </trkpt>
      <trkpt lat="44.50582" lon="5.56407">
        <ele>815.20001220703</ele>
        <time>2021-08-31T09:06:07Z</time>
      </trkpt>
      <trkpt lat="44.50575" lon="5.56415">
        <ele>814.59997558594</ele>
        <time>2021-08-31T09:06:08Z</time>
      </trkpt>
      <trkpt lat="44.50568" lon="5.56423">
        <ele>814.20001220703</ele>
        <time>2021-08-31T09:06:09Z</time>
      </trkpt>
      <trkpt lat="44.50554" lon="5.56438">
        <ele>813.40002441406</ele>
        <time>2021-08-31T09:06:11Z</time>
      </trkpt>
      <trkpt lat="44.50548" lon="5.56447">
        <ele>813</ele>
        <time>2021-08-31T09:06:12Z</time>
      </trkpt>
      <trkpt lat="44.50537" lon="5.56466">
        <ele>812.20001220703</ele>
        <time>2021-08-31T09:06:14Z</time>
      </trkpt>
      <trkpt lat="44.50528" lon="5.56485">
        <ele>811.40002441406</ele>
        <time>2021-08-31T09:06:16Z</time>
      </trkpt>
      <trkpt lat="44.50527" lon="5.56496">
        <ele>810.79998779297</ele>
        <time>2021-08-31T09:06:17Z</time>
      </trkpt>
      <trkpt lat="44.50526" lon="5.56507">
        <ele>809.79998779297</ele>
        <time>2021-08-31T09:06:18Z</time>
      </trkpt>
      <trkpt lat="44.50527" lon="5.56531">
        <ele>808.79998779297</ele>
        <time>2021-08-31T09:06:20Z</time>
      </trkpt>
      <trkpt lat="44.50528" lon="5.56543">
        <ele>808.40002441406</ele>
        <time>2021-08-31T09:06:21Z</time>
      </trkpt>
      <trkpt lat="44.50529" lon="5.56578">
        <ele>807</ele>
        <time>2021-08-31T09:06:24Z</time>
      </trkpt>
      <trkpt lat="44.50529" lon="5.5661">
        <ele>806</ele>
        <time>2021-08-31T09:06:27Z</time>
      </trkpt>
      <trkpt lat="44.50529" lon="5.56662">
        <ele>804.79998779297</ele>
        <time>2021-08-31T09:06:32Z</time>
      </trkpt>
      <trkpt lat="44.50527" lon="5.56703">
        <ele>804.40002441406</ele>
        <time>2021-08-31T09:06:36Z</time>
      </trkpt>
      <trkpt lat="44.50525" lon="5.56744">
        <ele>803.79998779297</ele>
        <time>2021-08-31T09:06:40Z</time>
      </trkpt>
      <trkpt lat="44.50522" lon="5.56782">
        <ele>802.59997558594</ele>
        <time>2021-08-31T09:06:44Z</time>
      </trkpt>
      <trkpt lat="44.50521" lon="5.56792">
        <ele>802</ele>
        <time>2021-08-31T09:06:47Z</time>
      </trkpt>
      <trkpt lat="44.50521" lon="5.56794">
        <ele>801.59997558594</ele>
        <time>2021-08-31T09:06:48Z</time>
      </trkpt>
      <trkpt lat="44.50522" lon="5.568">
        <ele>800.40002441406</ele>
        <time>2021-08-31T09:08:05Z</time>
      </trkpt>
      <trkpt lat="44.50519" lon="5.56816">
        <ele>800.40002441406</ele>
        <time>2021-08-31T09:08:10Z</time>
      </trkpt>
      <trkpt lat="44.50516" lon="5.56846">
        <ele>800.20001220703</ele>
        <time>2021-08-31T09:08:16Z</time>
      </trkpt>
      <trkpt lat="44.50511" lon="5.56892">
        <ele>800</ele>
        <time>2021-08-31T09:08:23Z</time>
      </trkpt>
      <trkpt lat="44.50505" lon="5.56943">
        <ele>800.20001220703</ele>
        <time>2021-08-31T09:08:31Z</time>
      </trkpt>
      <trkpt lat="44.50499" lon="5.56992">
        <ele>801.20001220703</ele>
        <time>2021-08-31T09:08:40Z</time>
      </trkpt>
      <trkpt lat="44.50498" lon="5.57004">
        <ele>801.40002441406</ele>
        <time>2021-08-31T09:08:42Z</time>
      </trkpt>
      <trkpt lat="44.50498" lon="5.57037">
        <ele>801.40002441406</ele>
        <time>2021-08-31T09:08:47Z</time>
      </trkpt>
      <trkpt lat="44.50499" lon="5.57061">
        <ele>801.20001220703</ele>
        <time>2021-08-31T09:08:50Z</time>
      </trkpt>
      <trkpt lat="44.50503" lon="5.57079">
        <ele>800.79998779297</ele>
        <time>2021-08-31T09:08:52Z</time>
      </trkpt>
      <trkpt lat="44.50507" lon="5.57098">
        <ele>800</ele>
        <time>2021-08-31T09:08:54Z</time>
      </trkpt>
      <trkpt lat="44.50515" lon="5.57137">
        <ele>798.79998779297</ele>
        <time>2021-08-31T09:08:58Z</time>
      </trkpt>
      <trkpt lat="44.50519" lon="5.57156">
        <ele>798.40002441406</ele>
        <time>2021-08-31T09:09:00Z</time>
      </trkpt>
      <trkpt lat="44.50524" lon="5.57176">
        <ele>797.40002441406</ele>
        <time>2021-08-31T09:09:02Z</time>
      </trkpt>
      <trkpt lat="44.50528" lon="5.57185">
        <ele>797</ele>
        <time>2021-08-31T09:09:03Z</time>
      </trkpt>
      <trkpt lat="44.50535" lon="5.57203">
        <ele>796.20001220703</ele>
        <time>2021-08-31T09:09:05Z</time>
      </trkpt>
      <trkpt lat="44.50549" lon="5.57229">
        <ele>795.20001220703</ele>
        <time>2021-08-31T09:09:08Z</time>
      </trkpt>
      <trkpt lat="44.50564" lon="5.57253">
        <ele>794.40002441406</ele>
        <time>2021-08-31T09:09:11Z</time>
      </trkpt>
      <trkpt lat="44.5057" lon="5.57262">
        <ele>794</ele>
        <time>2021-08-31T09:09:12Z</time>
      </trkpt>
      <trkpt lat="44.50584" lon="5.57289">
        <ele>793</ele>
        <time>2021-08-31T09:09:15Z</time>
      </trkpt>
      <trkpt lat="44.50591" lon="5.5731">
        <ele>792.40002441406</ele>
        <time>2021-08-31T09:09:17Z</time>
      </trkpt>
      <trkpt lat="44.50594" lon="5.5732">
        <ele>792</ele>
        <time>2021-08-31T09:09:18Z</time>
      </trkpt>
      <trkpt lat="44.50603" lon="5.57348">
        <ele>791</ele>
        <time>2021-08-31T09:09:21Z</time>
      </trkpt>
      <trkpt lat="44.50604" lon="5.57358">
        <ele>790.59997558594</ele>
        <time>2021-08-31T09:09:22Z</time>
      </trkpt>
      <trkpt lat="44.50605" lon="5.57367">
        <ele>790.40002441406</ele>
        <time>2021-08-31T09:09:23Z</time>
      </trkpt>
      <trkpt lat="44.506" lon="5.57392">
        <ele>790</ele>
        <time>2021-08-31T09:09:26Z</time>
      </trkpt>
      <trkpt lat="44.50595" lon="5.57403">
        <ele>789.79998779297</ele>
        <time>2021-08-31T09:09:28Z</time>
      </trkpt>
      <trkpt lat="44.50593" lon="5.57408">
        <ele>789.79998779297</ele>
        <time>2021-08-31T09:09:29Z</time>
      </trkpt>
      <trkpt lat="44.5059" lon="5.57412">
        <ele>789.79998779297</ele>
        <time>2021-08-31T09:09:30Z</time>
      </trkpt>
      <trkpt lat="44.50578" lon="5.57436">
        <ele>790.59997558594</ele>
        <time>2021-08-31T09:09:36Z</time>
      </trkpt>
      <trkpt lat="44.50575" lon="5.57442">
        <ele>791</ele>
        <time>2021-08-31T09:09:38Z</time>
      </trkpt>
      <trkpt lat="44.50569" lon="5.57452">
        <ele>791.20001220703</ele>
        <time>2021-08-31T09:09:42Z</time>
      </trkpt>
      <trkpt lat="44.50565" lon="5.57454">
        <ele>791.59997558594</ele>
        <time>2021-08-31T09:09:44Z</time>
      </trkpt>
      <trkpt lat="44.50565" lon="5.57451">
        <ele>791.79998779297</ele>
        <time>2021-08-31T09:09:46Z</time>
      </trkpt>
      <trkpt lat="44.50565" lon="5.57446">
        <ele>792</ele>
        <time>2021-08-31T09:09:49Z</time>
      </trkpt>
      <trkpt lat="44.50565" lon="5.57437">
        <ele>792.20001220703</ele>
        <time>2021-08-31T09:09:53Z</time>
      </trkpt>
      <trkpt lat="44.50562" lon="5.57433">
        <ele>792.20001220703</ele>
        <time>2021-08-31T09:09:55Z</time>
      </trkpt>
      <trkpt lat="44.50559" lon="5.57434">
        <ele>793</ele>
        <time>2021-08-31T09:10:11Z</time>
      </trkpt>
      <trkpt lat="44.50563" lon="5.57441">
        <ele>793</ele>
        <time>2021-08-31T09:10:13Z</time>
      </trkpt>
      <trkpt lat="44.50566" lon="5.57461">
        <ele>792.79998779297</ele>
        <time>2021-08-31T09:10:17Z</time>
      </trkpt>
      <trkpt lat="44.50562" lon="5.57473">
        <ele>792.20001220703</ele>
        <time>2021-08-31T09:10:21Z</time>
      </trkpt>
      <trkpt lat="44.50562" lon="5.57475">
        <ele>792</ele>
        <time>2021-08-31T09:10:22Z</time>
      </trkpt>
      <trkpt lat="44.50563" lon="5.57483">
        <ele>791.79998779297</ele>
        <time>2021-08-31T09:10:26Z</time>
      </trkpt>
      <trkpt lat="44.50553" lon="5.5749">
        <ele>791.59997558594</ele>
        <time>2021-08-31T09:10:30Z</time>
      </trkpt>
      <trkpt lat="44.50538" lon="5.57497">
        <ele>791.20001220703</ele>
        <time>2021-08-31T09:10:34Z</time>
      </trkpt>
      <trkpt lat="44.50529" lon="5.57501">
        <ele>791</ele>
        <time>2021-08-31T09:10:36Z</time>
      </trkpt>
      <trkpt lat="44.50498" lon="5.5752">
        <ele>790.20001220703</ele>
        <time>2021-08-31T09:10:44Z</time>
      </trkpt>
      <trkpt lat="44.50485" lon="5.57529">
        <ele>790.20001220703</ele>
        <time>2021-08-31T09:10:49Z</time>
      </trkpt>
      <trkpt lat="44.50473" lon="5.57521">
        <ele>790.40002441406</ele>
        <time>2021-08-31T09:10:53Z</time>
      </trkpt>
      <trkpt lat="44.50458" lon="5.575">
        <ele>791</ele>
        <time>2021-08-31T09:10:59Z</time>
      </trkpt>
      <trkpt lat="44.50444" lon="5.57482">
        <ele>792</ele>
        <time>2021-08-31T09:11:06Z</time>
      </trkpt>
      <trkpt lat="44.50442" lon="5.57479">
        <ele>792</ele>
        <time>2021-08-31T09:11:07Z</time>
      </trkpt>
      <trkpt lat="44.50429" lon="5.57469">
        <ele>792.59997558594</ele>
        <time>2021-08-31T09:11:12Z</time>
      </trkpt>
      <trkpt lat="44.50418" lon="5.57456">
        <ele>793.20001220703</ele>
        <time>2021-08-31T09:11:17Z</time>
      </trkpt>
      <trkpt lat="44.50414" lon="5.5745">
        <ele>793.20001220703</ele>
        <time>2021-08-31T09:11:19Z</time>
      </trkpt>
      <trkpt lat="44.50402" lon="5.5743">
        <ele>794</ele>
        <time>2021-08-31T09:11:26Z</time>
      </trkpt>
      <trkpt lat="44.50399" lon="5.57425">
        <ele>794.20001220703</ele>
        <time>2021-08-31T09:11:28Z</time>
      </trkpt>
      <trkpt lat="44.50393" lon="5.57408">
        <ele>794.59997558594</ele>
        <time>2021-08-31T09:11:33Z</time>
      </trkpt>
      <trkpt lat="44.50388" lon="5.57392">
        <ele>795.20001220703</ele>
        <time>2021-08-31T09:11:37Z</time>
      </trkpt>
      <trkpt lat="44.50385" lon="5.57376">
        <ele>795.59997558594</ele>
        <time>2021-08-31T09:11:41Z</time>
      </trkpt>
      <trkpt lat="44.50379" lon="5.57347">
        <ele>796.20001220703</ele>
        <time>2021-08-31T09:11:48Z</time>
      </trkpt>
      <trkpt lat="44.50379" lon="5.57343">
        <ele>796.20001220703</ele>
        <time>2021-08-31T09:11:49Z</time>
      </trkpt>
      <trkpt lat="44.50376" lon="5.57311">
        <ele>797.20001220703</ele>
        <time>2021-08-31T09:11:57Z</time>
      </trkpt>
      <trkpt lat="44.50376" lon="5.57307">
        <ele>797.20001220703</ele>
        <time>2021-08-31T09:11:58Z</time>
      </trkpt>
      <trkpt lat="44.50375" lon="5.5728">
        <ele>798</ele>
        <time>2021-08-31T09:12:05Z</time>
      </trkpt>
      <trkpt lat="44.50373" lon="5.57268">
        <ele>798.20001220703</ele>
        <time>2021-08-31T09:12:08Z</time>
      </trkpt>
      <trkpt lat="44.50372" lon="5.57244">
        <ele>798.79998779297</ele>
        <time>2021-08-31T09:12:14Z</time>
      </trkpt>
      <trkpt lat="44.50371" lon="5.57224">
        <ele>799.40002441406</ele>
        <time>2021-08-31T09:12:19Z</time>
      </trkpt>
      <trkpt lat="44.5037" lon="5.57216">
        <ele>799.59997558594</ele>
        <time>2021-08-31T09:12:21Z</time>
      </trkpt>
      <trkpt lat="44.50367" lon="5.57193">
        <ele>800.20001220703</ele>
        <time>2021-08-31T09:12:28Z</time>
      </trkpt>
      <trkpt lat="44.50368" lon="5.5719">
        <ele>800.40002441406</ele>
        <time>2021-08-31T09:12:31Z</time>
      </trkpt>
      <trkpt lat="44.50369" lon="5.57191">
        <ele>800.40002441406</ele>
        <time>2021-08-31T09:12:32Z</time>
      </trkpt>
      <trkpt lat="44.50376" lon="5.57193">
        <ele>800.40002441406</ele>
        <time>2021-08-31T09:12:36Z</time>
      </trkpt>
      <trkpt lat="44.50382" lon="5.57185">
        <ele>800.20001220703</ele>
        <time>2021-08-31T09:12:39Z</time>
      </trkpt>
      <trkpt lat="44.50386" lon="5.5718">
        <ele>800.20001220703</ele>
        <time>2021-08-31T09:12:41Z</time>
      </trkpt>
      <trkpt lat="44.50389" lon="5.57175">
        <ele>800.59997558594</ele>
        <time>2021-08-31T09:12:43Z</time>
      </trkpt>
      <trkpt lat="44.50393" lon="5.57169">
        <ele>800.79998779297</ele>
        <time>2021-08-31T09:12:47Z</time>
      </trkpt>
      <trkpt lat="44.50393" lon="5.57167">
        <ele>800.79998779297</ele>
        <time>2021-08-31T09:12:48Z</time>
      </trkpt>
      <trkpt lat="44.50388" lon="5.5716">
        <ele>800.79998779297</ele>
        <time>2021-08-31T09:12:51Z</time>
      </trkpt>
      <trkpt lat="44.50386" lon="5.57157">
        <ele>800.79998779297</ele>
        <time>2021-08-31T09:12:52Z</time>
      </trkpt>
      <trkpt lat="44.50374" lon="5.57132">
        <ele>801</ele>
        <time>2021-08-31T09:12:59Z</time>
      </trkpt>
      <trkpt lat="44.50362" lon="5.57104">
        <ele>801.59997558594</ele>
        <time>2021-08-31T09:13:07Z</time>
      </trkpt>
      <trkpt lat="44.50354" lon="5.57081">
        <ele>802.79998779297</ele>
        <time>2021-08-31T09:13:15Z</time>
      </trkpt>
      <trkpt lat="44.50349" lon="5.5707">
        <ele>803.79998779297</ele>
        <time>2021-08-31T09:13:20Z</time>
      </trkpt>
      <trkpt lat="44.50349" lon="5.57068">
        <ele>804</ele>
        <time>2021-08-31T09:13:21Z</time>
      </trkpt>
      <trkpt lat="44.5035" lon="5.57067">
        <ele>804</ele>
        <time>2021-08-31T09:13:22Z</time>
      </trkpt>
      <trkpt lat="44.50351" lon="5.57068">
        <ele>804</ele>
        <time>2021-08-31T09:13:23Z</time>
      </trkpt>
      <trkpt lat="44.50352" lon="5.57072">
        <ele>804.20001220703</ele>
        <time>2021-08-31T09:13:26Z</time>
      </trkpt>
      <trkpt lat="44.50352" lon="5.57075">
        <ele>804.20001220703</ele>
        <time>2021-08-31T09:13:27Z</time>
      </trkpt>
      <trkpt lat="44.50356" lon="5.57085">
        <ele>804.20001220703</ele>
        <time>2021-08-31T09:13:31Z</time>
      </trkpt>
      <trkpt lat="44.50366" lon="5.57111">
        <ele>803.79998779297</ele>
        <time>2021-08-31T09:13:36Z</time>
      </trkpt>
      <trkpt lat="44.5038" lon="5.57147">
        <ele>802.59997558594</ele>
        <time>2021-08-31T09:13:41Z</time>
      </trkpt>
      <trkpt lat="44.50389" lon="5.57166">
        <ele>802</ele>
        <time>2021-08-31T09:13:44Z</time>
      </trkpt>
      <trkpt lat="44.50395" lon="5.5718">
        <ele>801.59997558594</ele>
        <time>2021-08-31T09:13:47Z</time>
      </trkpt>
      <trkpt lat="44.50396" lon="5.57182">
        <ele>801.40002441406</ele>
        <time>2021-08-31T09:13:48Z</time>
      </trkpt>
      <trkpt lat="44.50399" lon="5.57185">
        <ele>801</ele>
        <time>2021-08-31T09:14:52Z</time>
      </trkpt>
      <trkpt lat="44.50404" lon="5.57194">
        <ele>801.20001220703</ele>
        <time>2021-08-31T09:15:45Z</time>
      </trkpt>
      <trkpt lat="44.5041" lon="5.57209">
        <ele>801.40002441406</ele>
        <time>2021-08-31T09:15:51Z</time>
      </trkpt>
      <trkpt lat="44.50419" lon="5.5722">
        <ele>802.59997558594</ele>
        <time>2021-08-31T09:15:57Z</time>
      </trkpt>
      <trkpt lat="44.50421" lon="5.57221">
        <ele>802.79998779297</ele>
        <time>2021-08-31T09:15:58Z</time>
      </trkpt>
      <trkpt lat="44.50424" lon="5.57225">
        <ele>803.59997558594</ele>
        <time>2021-08-31T09:16:01Z</time>
      </trkpt>
      <trkpt lat="44.50429" lon="5.57228">
        <ele>804.59997558594</ele>
        <time>2021-08-31T09:16:04Z</time>
      </trkpt>
      <trkpt lat="44.5043" lon="5.5723">
        <ele>805</ele>
        <time>2021-08-31T09:16:05Z</time>
      </trkpt>
      <trkpt lat="44.50435" lon="5.57234">
        <ele>806.40002441406</ele>
        <time>2021-08-31T09:16:08Z</time>
      </trkpt>
      <trkpt lat="44.50437" lon="5.57235">
        <ele>807.40002441406</ele>
        <time>2021-08-31T09:16:10Z</time>
      </trkpt>
      <trkpt lat="44.50439" lon="5.57236">
        <ele>807.59997558594</ele>
        <time>2021-08-31T09:16:11Z</time>
      </trkpt>
      <trkpt lat="44.50445" lon="5.5724">
        <ele>809</ele>
        <time>2021-08-31T09:16:15Z</time>
      </trkpt>
      <trkpt lat="44.50446" lon="5.57245">
        <ele>810</ele>
        <time>2021-08-31T09:16:18Z</time>
      </trkpt>
      <trkpt lat="44.50445" lon="5.57247">
        <ele>810.40002441406</ele>
        <time>2021-08-31T09:16:19Z</time>
      </trkpt>
      <trkpt lat="44.50445" lon="5.5725">
        <ele>810.40002441406</ele>
        <time>2021-08-31T09:16:20Z</time>
      </trkpt>
      <trkpt lat="44.50446" lon="5.57263">
        <ele>811.20001220703</ele>
        <time>2021-08-31T09:16:27Z</time>
      </trkpt>
      <trkpt lat="44.50447" lon="5.57265">
        <ele>811.40002441406</ele>
        <time>2021-08-31T09:16:28Z</time>
      </trkpt>
      <trkpt lat="44.50447" lon="5.57265">
        <ele>811.40002441406</ele>
        <time>2021-08-31T09:16:29Z</time>
      </trkpt>
      <trkpt lat="44.50453" lon="5.57266">
        <ele>811.79998779297</ele>
        <time>2021-08-31T09:16:33Z</time>
      </trkpt>
      <trkpt lat="44.50453" lon="5.57266">
        <ele>754.59997558594</ele>
        <time>2021-08-31T09:46:31Z</time>
      </trkpt>
      <trkpt lat="44.50449" lon="5.57262">
        <ele>754.79998779297</ele>
        <time>2021-08-31T09:47:08Z</time>
      </trkpt>
      <trkpt lat="44.50446" lon="5.57259">
        <ele>754.79998779297</ele>
        <time>2021-08-31T09:47:10Z</time>
      </trkpt>
      <trkpt lat="44.50447" lon="5.57248">
        <ele>754.79998779297</ele>
        <time>2021-08-31T09:47:15Z</time>
      </trkpt>
      <trkpt lat="44.50448" lon="5.57244">
        <ele>753.59997558594</ele>
        <time>2021-08-31T09:47:36Z</time>
      </trkpt>
      <trkpt lat="44.5045" lon="5.57249">
        <ele>753.59997558594</ele>
        <time>2021-08-31T09:47:38Z</time>
      </trkpt>
      <trkpt lat="44.50454" lon="5.57254">
        <ele>753.40002441406</ele>
        <time>2021-08-31T09:47:40Z</time>
      </trkpt>
      <trkpt lat="44.50464" lon="5.57259">
        <ele>753</ele>
        <time>2021-08-31T09:47:43Z</time>
      </trkpt>
      <trkpt lat="44.50471" lon="5.57265">
        <ele>752.59997558594</ele>
        <time>2021-08-31T09:47:45Z</time>
      </trkpt>
      <trkpt lat="44.50475" lon="5.57269">
        <ele>752.20001220703</ele>
        <time>2021-08-31T09:47:46Z</time>
      </trkpt>
      <trkpt lat="44.50487" lon="5.57289">
        <ele>751</ele>
        <time>2021-08-31T09:47:50Z</time>
      </trkpt>
      <trkpt lat="44.5049" lon="5.57294">
        <ele>750.59997558594</ele>
        <time>2021-08-31T09:47:51Z</time>
      </trkpt>
      <trkpt lat="44.50499" lon="5.57313">
        <ele>749.79998779297</ele>
        <time>2021-08-31T09:47:54Z</time>
      </trkpt>
      <trkpt lat="44.50512" lon="5.57337">
        <ele>748.59997558594</ele>
        <time>2021-08-31T09:47:57Z</time>
      </trkpt>
      <trkpt lat="44.50521" lon="5.57355">
        <ele>747.59997558594</ele>
        <time>2021-08-31T09:47:59Z</time>
      </trkpt>
      <trkpt lat="44.50525" lon="5.57362">
        <ele>747.20001220703</ele>
        <time>2021-08-31T09:48:00Z</time>
      </trkpt>
      <trkpt lat="44.50535" lon="5.57378">
        <ele>745.40002441406</ele>
        <time>2021-08-31T09:48:02Z</time>
      </trkpt>
      <trkpt lat="44.5054" lon="5.57387">
        <ele>745</ele>
        <time>2021-08-31T09:48:03Z</time>
      </trkpt>
      <trkpt lat="44.50545" lon="5.57397">
        <ele>744.40002441406</ele>
        <time>2021-08-31T09:48:04Z</time>
      </trkpt>
      <trkpt lat="44.50553" lon="5.57415">
        <ele>743</ele>
        <time>2021-08-31T09:48:06Z</time>
      </trkpt>
      <trkpt lat="44.50556" lon="5.57423">
        <ele>742.40002441406</ele>
        <time>2021-08-31T09:48:07Z</time>
      </trkpt>
      <trkpt lat="44.50559" lon="5.5743">
        <ele>741.79998779297</ele>
        <time>2021-08-31T09:48:08Z</time>
      </trkpt>
      <trkpt lat="44.50564" lon="5.57445">
        <ele>740.40002441406</ele>
        <time>2021-08-31T09:48:10Z</time>
      </trkpt>
      <trkpt lat="44.50565" lon="5.57452">
        <ele>739.79998779297</ele>
        <time>2021-08-31T09:48:11Z</time>
      </trkpt>
      <trkpt lat="44.50566" lon="5.57457">
        <ele>739</ele>
        <time>2021-08-31T09:48:12Z</time>
      </trkpt>
      <trkpt lat="44.50565" lon="5.57466">
        <ele>737.59997558594</ele>
        <time>2021-08-31T09:48:14Z</time>
      </trkpt>
      <trkpt lat="44.50564" lon="5.57469">
        <ele>737</ele>
        <time>2021-08-31T09:48:15Z</time>
      </trkpt>
      <trkpt lat="44.50563" lon="5.57473">
        <ele>736.59997558594</ele>
        <time>2021-08-31T09:48:16Z</time>
      </trkpt>
      <trkpt lat="44.50566" lon="5.5749">
        <ele>735.59997558594</ele>
        <time>2021-08-31T09:48:20Z</time>
      </trkpt>
      <trkpt lat="44.50569" lon="5.57492">
        <ele>735.59997558594</ele>
        <time>2021-08-31T09:48:21Z</time>
      </trkpt>
      <trkpt lat="44.5058" lon="5.57504">
        <ele>735.20001220703</ele>
        <time>2021-08-31T09:48:25Z</time>
      </trkpt>
      <trkpt lat="44.50594" lon="5.5753">
        <ele>734.79998779297</ele>
        <time>2021-08-31T09:48:31Z</time>
      </trkpt>
      <trkpt lat="44.50617" lon="5.57566">
        <ele>734.59997558594</ele>
        <time>2021-08-31T09:48:39Z</time>
      </trkpt>
      <trkpt lat="44.50621" lon="5.57576">
        <ele>734.59997558594</ele>
        <time>2021-08-31T09:48:41Z</time>
      </trkpt>
      <trkpt lat="44.5062" lon="5.57588">
        <ele>734.79998779297</ele>
        <time>2021-08-31T09:48:43Z</time>
      </trkpt>
      <trkpt lat="44.50614" lon="5.57602">
        <ele>734.79998779297</ele>
        <time>2021-08-31T09:48:46Z</time>
      </trkpt>
      <trkpt lat="44.50612" lon="5.57605">
        <ele>734.79998779297</ele>
        <time>2021-08-31T09:48:47Z</time>
      </trkpt>
      <trkpt lat="44.50598" lon="5.57625">
        <ele>735.40002441406</ele>
        <time>2021-08-31T09:48:53Z</time>
      </trkpt>
      <trkpt lat="44.50582" lon="5.57647">
        <ele>736.59997558594</ele>
        <time>2021-08-31T09:49:01Z</time>
      </trkpt>
      <trkpt lat="44.5058" lon="5.5765">
        <ele>736.79998779297</ele>
        <time>2021-08-31T09:49:02Z</time>
      </trkpt>
      <trkpt lat="44.50565" lon="5.5767">
        <ele>737.59997558594</ele>
        <time>2021-08-31T09:49:09Z</time>
      </trkpt>
      <trkpt lat="44.50563" lon="5.57673">
        <ele>737.59997558594</ele>
        <time>2021-08-31T09:49:10Z</time>
      </trkpt>
      <trkpt lat="44.50551" lon="5.57692">
        <ele>738</ele>
        <time>2021-08-31T09:49:15Z</time>
      </trkpt>
      <trkpt lat="44.50529" lon="5.57724">
        <ele>737.59997558594</ele>
        <time>2021-08-31T09:49:23Z</time>
      </trkpt>
      <trkpt lat="44.50509" lon="5.57745">
        <ele>737.40002441406</ele>
        <time>2021-08-31T09:49:29Z</time>
      </trkpt>
      <trkpt lat="44.50482" lon="5.57755">
        <ele>736.79998779297</ele>
        <time>2021-08-31T09:49:34Z</time>
      </trkpt>
      <trkpt lat="44.50477" lon="5.57758">
        <ele>736.59997558594</ele>
        <time>2021-08-31T09:49:35Z</time>
      </trkpt>
      <trkpt lat="44.50473" lon="5.57763">
        <ele>736.40002441406</ele>
        <time>2021-08-31T09:49:36Z</time>
      </trkpt>
      <trkpt lat="44.50466" lon="5.57774">
        <ele>735.79998779297</ele>
        <time>2021-08-31T09:49:38Z</time>
      </trkpt>
      <trkpt lat="44.50438" lon="5.57811">
        <ele>735.79998779297</ele>
        <time>2021-08-31T09:49:46Z</time>
      </trkpt>
      <trkpt lat="44.50413" lon="5.57844">
        <ele>736.40002441406</ele>
        <time>2021-08-31T09:49:54Z</time>
      </trkpt>
      <trkpt lat="44.50388" lon="5.57876">
        <ele>737.59997558594</ele>
        <time>2021-08-31T09:50:03Z</time>
      </trkpt>
      <trkpt lat="44.50383" lon="5.57883">
        <ele>738</ele>
        <time>2021-08-31T09:50:05Z</time>
      </trkpt>
      <trkpt lat="44.50373" lon="5.57894">
        <ele>738.40002441406</ele>
        <time>2021-08-31T09:50:09Z</time>
      </trkpt>
      <trkpt lat="44.50368" lon="5.579">
        <ele>738.79998779297</ele>
        <time>2021-08-31T09:50:11Z</time>
      </trkpt>
      <trkpt lat="44.50356" lon="5.57914">
        <ele>739.59997558594</ele>
        <time>2021-08-31T09:50:16Z</time>
      </trkpt>
      <trkpt lat="44.50352" lon="5.57918">
        <ele>739.79998779297</ele>
        <time>2021-08-31T09:50:18Z</time>
      </trkpt>
      <trkpt lat="44.5034" lon="5.57928">
        <ele>740.79998779297</ele>
        <time>2021-08-31T09:50:23Z</time>
      </trkpt>
      <trkpt lat="44.50338" lon="5.57929">
        <ele>740.79998779297</ele>
        <time>2021-08-31T09:50:24Z</time>
      </trkpt>
      <trkpt lat="44.50326" lon="5.57945">
        <ele>741.79998779297</ele>
        <time>2021-08-31T09:50:30Z</time>
      </trkpt>
      <trkpt lat="44.50324" lon="5.57948">
        <ele>742</ele>
        <time>2021-08-31T09:50:31Z</time>
      </trkpt>
      <trkpt lat="44.50307" lon="5.57965">
        <ele>743</ele>
        <time>2021-08-31T09:50:39Z</time>
      </trkpt>
      <trkpt lat="44.50302" lon="5.57969">
        <ele>743.20001220703</ele>
        <time>2021-08-31T09:50:41Z</time>
      </trkpt>
      <trkpt lat="44.5029" lon="5.57983">
        <ele>743.79998779297</ele>
        <time>2021-08-31T09:50:47Z</time>
      </trkpt>
      <trkpt lat="44.50283" lon="5.57988">
        <ele>744.20001220703</ele>
        <time>2021-08-31T09:50:50Z</time>
      </trkpt>
      <trkpt lat="44.50271" lon="5.57997">
        <ele>744.79998779297</ele>
        <time>2021-08-31T09:50:55Z</time>
      </trkpt>
      <trkpt lat="44.50258" lon="5.58007">
        <ele>745.20001220703</ele>
        <time>2021-08-31T09:51:00Z</time>
      </trkpt>
      <trkpt lat="44.50252" lon="5.58012">
        <ele>745.59997558594</ele>
        <time>2021-08-31T09:51:03Z</time>
      </trkpt>
      <trkpt lat="44.50235" lon="5.58032">
        <ele>746.20001220703</ele>
        <time>2021-08-31T09:51:11Z</time>
      </trkpt>
      <trkpt lat="44.50225" lon="5.58057">
        <ele>747.20001220703</ele>
        <time>2021-08-31T09:51:19Z</time>
      </trkpt>
      <trkpt lat="44.50224" lon="5.58061">
        <ele>747.40002441406</ele>
        <time>2021-08-31T09:51:20Z</time>
      </trkpt>
      <trkpt lat="44.50218" lon="5.58085">
        <ele>748</ele>
        <time>2021-08-31T09:51:27Z</time>
      </trkpt>
      <trkpt lat="44.50217" lon="5.58089">
        <ele>748</ele>
        <time>2021-08-31T09:51:28Z</time>
      </trkpt>
      <trkpt lat="44.50213" lon="5.58102">
        <ele>748.20001220703</ele>
        <time>2021-08-31T09:51:32Z</time>
      </trkpt>
      <trkpt lat="44.5021" lon="5.58116">
        <ele>748.59997558594</ele>
        <time>2021-08-31T09:51:36Z</time>
      </trkpt>
      <trkpt lat="44.50209" lon="5.5814">
        <ele>749.40002441406</ele>
        <time>2021-08-31T09:51:42Z</time>
      </trkpt>
      <trkpt lat="44.50208" lon="5.5815">
        <ele>749.40002441406</ele>
        <time>2021-08-31T09:51:44Z</time>
      </trkpt>
      <trkpt lat="44.50206" lon="5.58185">
        <ele>750</ele>
        <time>2021-08-31T09:51:51Z</time>
      </trkpt>
      <trkpt lat="44.50206" lon="5.58229">
        <ele>750.40002441406</ele>
        <time>2021-08-31T09:51:59Z</time>
      </trkpt>
      <trkpt lat="44.50206" lon="5.58235">
        <ele>750.40002441406</ele>
        <time>2021-08-31T09:52:00Z</time>
      </trkpt>
      <trkpt lat="44.50209" lon="5.58279">
        <ele>750.59997558594</ele>
        <time>2021-08-31T09:52:07Z</time>
      </trkpt>
      <trkpt lat="44.5021" lon="5.58284">
        <ele>750.59997558594</ele>
        <time>2021-08-31T09:52:08Z</time>
      </trkpt>
      <trkpt lat="44.50216" lon="5.58302">
        <ele>750.40002441406</ele>
        <time>2021-08-31T09:52:11Z</time>
      </trkpt>
      <trkpt lat="44.50223" lon="5.58318">
        <ele>750.40002441406</ele>
        <time>2021-08-31T09:52:14Z</time>
      </trkpt>
      <trkpt lat="44.50231" lon="5.58334">
        <ele>750.40002441406</ele>
        <time>2021-08-31T09:52:17Z</time>
      </trkpt>
      <trkpt lat="44.50243" lon="5.58355">
        <ele>750.40002441406</ele>
        <time>2021-08-31T09:52:21Z</time>
      </trkpt>
      <trkpt lat="44.50244" lon="5.58361">
        <ele>750.40002441406</ele>
        <time>2021-08-31T09:52:22Z</time>
      </trkpt>
      <trkpt lat="44.50244" lon="5.58375">
        <ele>750.59997558594</ele>
        <time>2021-08-31T09:52:24Z</time>
      </trkpt>
      <trkpt lat="44.50234" lon="5.58404">
        <ele>750.79998779297</ele>
        <time>2021-08-31T09:52:29Z</time>
      </trkpt>
      <trkpt lat="44.5022" lon="5.58444">
        <ele>751.40002441406</ele>
        <time>2021-08-31T09:52:37Z</time>
      </trkpt>
      <trkpt lat="44.50214" lon="5.58468">
        <ele>752</ele>
        <time>2021-08-31T09:52:43Z</time>
      </trkpt>
      <trkpt lat="44.50211" lon="5.58477">
        <ele>752.40002441406</ele>
        <time>2021-08-31T09:52:46Z</time>
      </trkpt>
      <trkpt lat="44.50208" lon="5.58493">
        <ele>753.40002441406</ele>
        <time>2021-08-31T09:52:51Z</time>
      </trkpt>
      <trkpt lat="44.50207" lon="5.58496">
        <ele>753.59997558594</ele>
        <time>2021-08-31T09:52:52Z</time>
      </trkpt>
      <trkpt lat="44.50201" lon="5.58516">
        <ele>754.59997558594</ele>
        <time>2021-08-31T09:52:59Z</time>
      </trkpt>
      <trkpt lat="44.502" lon="5.58519">
        <ele>754.59997558594</ele>
        <time>2021-08-31T09:53:00Z</time>
      </trkpt>
      <trkpt lat="44.50196" lon="5.58542">
        <ele>755.79998779297</ele>
        <time>2021-08-31T09:53:08Z</time>
      </trkpt>
      <trkpt lat="44.50196" lon="5.58561">
        <ele>756.79998779297</ele>
        <time>2021-08-31T09:53:14Z</time>
      </trkpt>
      <trkpt lat="44.50196" lon="5.58564">
        <ele>757</ele>
        <time>2021-08-31T09:53:15Z</time>
      </trkpt>
      <trkpt lat="44.50197" lon="5.58585">
        <ele>758</ele>
        <time>2021-08-31T09:53:22Z</time>
      </trkpt>
      <trkpt lat="44.50198" lon="5.58588">
        <ele>758</ele>
        <time>2021-08-31T09:53:23Z</time>
      </trkpt>
      <trkpt lat="44.50199" lon="5.58613">
        <ele>759</ele>
        <time>2021-08-31T09:53:31Z</time>
      </trkpt>
      <trkpt lat="44.502" lon="5.58616">
        <ele>759.20001220703</ele>
        <time>2021-08-31T09:53:32Z</time>
      </trkpt>
      <trkpt lat="44.50202" lon="5.58634">
        <ele>760.20001220703</ele>
        <time>2021-08-31T09:53:38Z</time>
      </trkpt>
      <trkpt lat="44.50202" lon="5.58637">
        <ele>760.40002441406</ele>
        <time>2021-08-31T09:53:39Z</time>
      </trkpt>
      <trkpt lat="44.50206" lon="5.58662">
        <ele>761.40002441406</ele>
        <time>2021-08-31T09:53:47Z</time>
      </trkpt>
      <trkpt lat="44.50207" lon="5.58665">
        <ele>761.59997558594</ele>
        <time>2021-08-31T09:53:48Z</time>
      </trkpt>
      <trkpt lat="44.50215" lon="5.58693">
        <ele>762.20001220703</ele>
        <time>2021-08-31T09:53:55Z</time>
      </trkpt>
      <trkpt lat="44.50219" lon="5.58706">
        <ele>762.40002441406</ele>
        <time>2021-08-31T09:53:58Z</time>
      </trkpt>
      <trkpt lat="44.50228" lon="5.58731">
        <ele>763.20001220703</ele>
        <time>2021-08-31T09:54:04Z</time>
      </trkpt>
      <trkpt lat="44.50237" lon="5.58753">
        <ele>763.40002441406</ele>
        <time>2021-08-31T09:54:09Z</time>
      </trkpt>
      <trkpt lat="44.50243" lon="5.58771">
        <ele>763.79998779297</ele>
        <time>2021-08-31T09:54:13Z</time>
      </trkpt>
      <trkpt lat="44.50252" lon="5.58811">
        <ele>764.40002441406</ele>
        <time>2021-08-31T09:54:21Z</time>
      </trkpt>
      <trkpt lat="44.50252" lon="5.58815">
        <ele>764.59997558594</ele>
        <time>2021-08-31T09:54:22Z</time>
      </trkpt>
      <trkpt lat="44.50253" lon="5.58852">
        <ele>765</ele>
        <time>2021-08-31T09:54:29Z</time>
      </trkpt>
      <trkpt lat="44.50251" lon="5.58908">
        <ele>765.40002441406</ele>
        <time>2021-08-31T09:54:40Z</time>
      </trkpt>
      <trkpt lat="44.50251" lon="5.58913">
        <ele>765.59997558594</ele>
        <time>2021-08-31T09:54:41Z</time>
      </trkpt>
      <trkpt lat="44.50258" lon="5.58944">
        <ele>766.20001220703</ele>
        <time>2021-08-31T09:54:48Z</time>
      </trkpt>
      <trkpt lat="44.50262" lon="5.5896">
        <ele>766.79998779297</ele>
        <time>2021-08-31T09:54:52Z</time>
      </trkpt>
      <trkpt lat="44.50265" lon="5.58978">
        <ele>767.40002441406</ele>
        <time>2021-08-31T09:54:57Z</time>
      </trkpt>
      <trkpt lat="44.50268" lon="5.58992">
        <ele>767.79998779297</ele>
        <time>2021-08-31T09:55:01Z</time>
      </trkpt>
      <trkpt lat="44.50272" lon="5.59005">
        <ele>768.59997558594</ele>
        <time>2021-08-31T09:55:05Z</time>
      </trkpt>
      <trkpt lat="44.50274" lon="5.59011">
        <ele>769</ele>
        <time>2021-08-31T09:55:07Z</time>
      </trkpt>
      <trkpt lat="44.50278" lon="5.59024">
        <ele>769.20001220703</ele>
        <time>2021-08-31T09:55:11Z</time>
      </trkpt>
      <trkpt lat="44.50282" lon="5.59037">
        <ele>770</ele>
        <time>2021-08-31T09:55:15Z</time>
      </trkpt>
      <trkpt lat="44.50286" lon="5.5905">
        <ele>770.40002441406</ele>
        <time>2021-08-31T09:55:19Z</time>
      </trkpt>
      <trkpt lat="44.5029" lon="5.59063">
        <ele>771</ele>
        <time>2021-08-31T09:55:23Z</time>
      </trkpt>
      <trkpt lat="44.50295" lon="5.59083">
        <ele>771.79998779297</ele>
        <time>2021-08-31T09:55:29Z</time>
      </trkpt>
      <trkpt lat="44.50297" lon="5.59089">
        <ele>772</ele>
        <time>2021-08-31T09:55:31Z</time>
      </trkpt>
      <trkpt lat="44.50305" lon="5.59115">
        <ele>773.20001220703</ele>
        <time>2021-08-31T09:55:39Z</time>
      </trkpt>
      <trkpt lat="44.50306" lon="5.59117">
        <ele>773.20001220703</ele>
        <time>2021-08-31T09:55:40Z</time>
      </trkpt>
      <trkpt lat="44.50317" lon="5.59134">
        <ele>774.20001220703</ele>
        <time>2021-08-31T09:55:46Z</time>
      </trkpt>
      <trkpt lat="44.50322" lon="5.59145">
        <ele>774.59997558594</ele>
        <time>2021-08-31T09:55:50Z</time>
      </trkpt>
      <trkpt lat="44.50331" lon="5.59161">
        <ele>775.40002441406</ele>
        <time>2021-08-31T09:55:56Z</time>
      </trkpt>
      <trkpt lat="44.50339" lon="5.59179">
        <ele>776.20001220703</ele>
        <time>2021-08-31T09:56:02Z</time>
      </trkpt>
      <trkpt lat="44.50342" lon="5.59184">
        <ele>776.40002441406</ele>
        <time>2021-08-31T09:56:04Z</time>
      </trkpt>
      <trkpt lat="44.50353" lon="5.59202">
        <ele>777.40002441406</ele>
        <time>2021-08-31T09:56:11Z</time>
      </trkpt>
      <trkpt lat="44.50355" lon="5.59205">
        <ele>777.40002441406</ele>
        <time>2021-08-31T09:56:12Z</time>
      </trkpt>
      <trkpt lat="44.50369" lon="5.59223">
        <ele>778.40002441406</ele>
        <time>2021-08-31T09:56:20Z</time>
      </trkpt>
      <trkpt lat="44.5037" lon="5.59225">
        <ele>778.59997558594</ele>
        <time>2021-08-31T09:56:21Z</time>
      </trkpt>
      <trkpt lat="44.50382" lon="5.5924">
        <ele>779.59997558594</ele>
        <time>2021-08-31T09:56:28Z</time>
      </trkpt>
      <trkpt lat="44.50386" lon="5.59245">
        <ele>779.79998779297</ele>
        <time>2021-08-31T09:56:30Z</time>
      </trkpt>
      <trkpt lat="44.50397" lon="5.59257">
        <ele>780.59997558594</ele>
        <time>2021-08-31T09:56:36Z</time>
      </trkpt>
      <trkpt lat="44.50405" lon="5.59265">
        <ele>781</ele>
        <time>2021-08-31T09:56:40Z</time>
      </trkpt>
      <trkpt lat="44.50416" lon="5.59278">
        <ele>781.59997558594</ele>
        <time>2021-08-31T09:56:45Z</time>
      </trkpt>
      <trkpt lat="44.50424" lon="5.59288">
        <ele>782</ele>
        <time>2021-08-31T09:56:49Z</time>
      </trkpt>
      <trkpt lat="44.50433" lon="5.59297">
        <ele>782.79998779297</ele>
        <time>2021-08-31T09:56:53Z</time>
      </trkpt>
      <trkpt lat="44.50445" lon="5.59308">
        <ele>783.40002441406</ele>
        <time>2021-08-31T09:56:58Z</time>
      </trkpt>
      <trkpt lat="44.50454" lon="5.59317">
        <ele>783.79998779297</ele>
        <time>2021-08-31T09:57:02Z</time>
      </trkpt>
      <trkpt lat="44.50467" lon="5.59331">
        <ele>784.59997558594</ele>
        <time>2021-08-31T09:57:08Z</time>
      </trkpt>
      <trkpt lat="44.50474" lon="5.59338">
        <ele>784.79998779297</ele>
        <time>2021-08-31T09:57:11Z</time>
      </trkpt>
      <trkpt lat="44.50482" lon="5.59347">
        <ele>785.40002441406</ele>
        <time>2021-08-31T09:57:15Z</time>
      </trkpt>
      <trkpt lat="44.5049" lon="5.59356">
        <ele>786</ele>
        <time>2021-08-31T09:57:19Z</time>
      </trkpt>
      <trkpt lat="44.50502" lon="5.59365">
        <ele>786.59997558594</ele>
        <time>2021-08-31T09:57:24Z</time>
      </trkpt>
      <trkpt lat="44.50508" lon="5.59372">
        <ele>787</ele>
        <time>2021-08-31T09:57:27Z</time>
      </trkpt>
      <trkpt lat="44.50519" lon="5.59382">
        <ele>787.40002441406</ele>
        <time>2021-08-31T09:57:32Z</time>
      </trkpt>
      <trkpt lat="44.5053" lon="5.59393">
        <ele>788</ele>
        <time>2021-08-31T09:57:38Z</time>
      </trkpt>
      <trkpt lat="44.50532" lon="5.59396">
        <ele>788.40002441406</ele>
        <time>2021-08-31T09:57:39Z</time>
      </trkpt>
      <trkpt lat="44.50545" lon="5.59407">
        <ele>789</ele>
        <time>2021-08-31T09:57:45Z</time>
      </trkpt>
      <trkpt lat="44.50547" lon="5.59409">
        <ele>789</ele>
        <time>2021-08-31T09:57:46Z</time>
      </trkpt>
      <trkpt lat="44.50562" lon="5.59421">
        <ele>789.79998779297</ele>
        <time>2021-08-31T09:57:53Z</time>
      </trkpt>
      <trkpt lat="44.50574" lon="5.59429">
        <ele>790.20001220703</ele>
        <time>2021-08-31T09:57:58Z</time>
      </trkpt>
      <trkpt lat="44.50576" lon="5.59431">
        <ele>790.20001220703</ele>
        <time>2021-08-31T09:57:59Z</time>
      </trkpt>
      <trkpt lat="44.50592" lon="5.59448">
        <ele>791.20001220703</ele>
        <time>2021-08-31T09:58:06Z</time>
      </trkpt>
      <trkpt lat="44.50595" lon="5.59451">
        <ele>791.20001220703</ele>
        <time>2021-08-31T09:58:07Z</time>
      </trkpt>
      <trkpt lat="44.50609" lon="5.5947">
        <ele>792</ele>
        <time>2021-08-31T09:58:14Z</time>
      </trkpt>
      <trkpt lat="44.50615" lon="5.59479">
        <ele>792.40002441406</ele>
        <time>2021-08-31T09:58:17Z</time>
      </trkpt>
      <trkpt lat="44.50623" lon="5.5949">
        <ele>792.59997558594</ele>
        <time>2021-08-31T09:58:21Z</time>
      </trkpt>
      <trkpt lat="44.50633" lon="5.59507">
        <ele>793.40002441406</ele>
        <time>2021-08-31T09:58:27Z</time>
      </trkpt>
      <trkpt lat="44.50635" lon="5.5951">
        <ele>793.59997558594</ele>
        <time>2021-08-31T09:58:28Z</time>
      </trkpt>
      <trkpt lat="44.50646" lon="5.59531">
        <ele>794.40002441406</ele>
        <time>2021-08-31T09:58:35Z</time>
      </trkpt>
      <trkpt lat="44.50647" lon="5.59535">
        <ele>794.59997558594</ele>
        <time>2021-08-31T09:58:36Z</time>
      </trkpt>
      <trkpt lat="44.5065" lon="5.59539">
        <ele>795.20001220703</ele>
        <time>2021-08-31T09:59:11Z</time>
      </trkpt>
      <trkpt lat="44.50652" lon="5.59541">
        <ele>795.20001220703</ele>
        <time>2021-08-31T09:59:12Z</time>
      </trkpt>
      <trkpt lat="44.50661" lon="5.59556">
        <ele>795.59997558594</ele>
        <time>2021-08-31T09:59:18Z</time>
      </trkpt>
      <trkpt lat="44.50663" lon="5.59559">
        <ele>795.59997558594</ele>
        <time>2021-08-31T09:59:19Z</time>
      </trkpt>
      <trkpt lat="44.50671" lon="5.59585">
        <ele>796.40002441406</ele>
        <time>2021-08-31T09:59:26Z</time>
      </trkpt>
      <trkpt lat="44.50672" lon="5.59589">
        <ele>796.59997558594</ele>
        <time>2021-08-31T09:59:27Z</time>
      </trkpt>
      <trkpt lat="44.50683" lon="5.5962">
        <ele>797.20001220703</ele>
        <time>2021-08-31T09:59:35Z</time>
      </trkpt>
      <trkpt lat="44.50687" lon="5.5963">
        <ele>797.59997558594</ele>
        <time>2021-08-31T09:59:38Z</time>
      </trkpt>
      <trkpt lat="44.50693" lon="5.59649">
        <ele>798.40002441406</ele>
        <time>2021-08-31T09:59:43Z</time>
      </trkpt>
      <trkpt lat="44.50696" lon="5.59664">
        <ele>798.59997558594</ele>
        <time>2021-08-31T09:59:47Z</time>
      </trkpt>
      <trkpt lat="44.50701" lon="5.59678">
        <ele>799.20001220703</ele>
        <time>2021-08-31T09:59:51Z</time>
      </trkpt>
      <trkpt lat="44.50711" lon="5.59702">
        <ele>799.59997558594</ele>
        <time>2021-08-31T09:59:57Z</time>
      </trkpt>
      <trkpt lat="44.50714" lon="5.5971">
        <ele>799.79998779297</ele>
        <time>2021-08-31T09:59:59Z</time>
      </trkpt>
      <trkpt lat="44.50732" lon="5.59744">
        <ele>800.40002441406</ele>
        <time>2021-08-31T10:00:08Z</time>
      </trkpt>
      <trkpt lat="44.50737" lon="5.59751">
        <ele>800.79998779297</ele>
        <time>2021-08-31T10:00:10Z</time>
      </trkpt>
      <trkpt lat="44.50749" lon="5.59773">
        <ele>801.40002441406</ele>
        <time>2021-08-31T10:00:16Z</time>
      </trkpt>
      <trkpt lat="44.50762" lon="5.59796">
        <ele>801.79998779297</ele>
        <time>2021-08-31T10:00:22Z</time>
      </trkpt>
      <trkpt lat="44.50785" lon="5.59826">
        <ele>802.59997558594</ele>
        <time>2021-08-31T10:00:31Z</time>
      </trkpt>
      <trkpt lat="44.50796" lon="5.59854">
        <ele>802.79998779297</ele>
        <time>2021-08-31T10:00:37Z</time>
      </trkpt>
      <trkpt lat="44.50797" lon="5.5986">
        <ele>802.79998779297</ele>
        <time>2021-08-31T10:00:38Z</time>
      </trkpt>
      <trkpt lat="44.50806" lon="5.59901">
        <ele>803.59997558594</ele>
        <time>2021-08-31T10:00:46Z</time>
      </trkpt>
      <trkpt lat="44.50809" lon="5.5993">
        <ele>803.79998779297</ele>
        <time>2021-08-31T10:00:51Z</time>
      </trkpt>
      <trkpt lat="44.5081" lon="5.5994">
        <ele>804</ele>
        <time>2021-08-31T10:00:53Z</time>
      </trkpt>
      <trkpt lat="44.50814" lon="5.59955">
        <ele>804.20001220703</ele>
        <time>2021-08-31T10:00:56Z</time>
      </trkpt>
      <trkpt lat="44.50818" lon="5.59965">
        <ele>804.40002441406</ele>
        <time>2021-08-31T10:00:58Z</time>
      </trkpt>
      <trkpt lat="44.50836" lon="5.59999">
        <ele>804.79998779297</ele>
        <time>2021-08-31T10:01:05Z</time>
      </trkpt>
      <trkpt lat="44.50838" lon="5.60004">
        <ele>804.79998779297</ele>
        <time>2021-08-31T10:01:06Z</time>
      </trkpt>
      <trkpt lat="44.5084" lon="5.60009">
        <ele>804.79998779297</ele>
        <time>2021-08-31T10:01:07Z</time>
      </trkpt>
      <trkpt lat="44.50847" lon="5.60029">
        <ele>805.20001220703</ele>
        <time>2021-08-31T10:01:11Z</time>
      </trkpt>
      <trkpt lat="44.50848" lon="5.60041">
        <ele>805.59997558594</ele>
        <time>2021-08-31T10:01:13Z</time>
      </trkpt>
      <trkpt lat="44.5085" lon="5.60058">
        <ele>805.79998779297</ele>
        <time>2021-08-31T10:01:16Z</time>
      </trkpt>
      <trkpt lat="44.50854" lon="5.60079">
        <ele>806.20001220703</ele>
        <time>2021-08-31T10:01:20Z</time>
      </trkpt>
      <trkpt lat="44.50859" lon="5.6011">
        <ele>806.79998779297</ele>
        <time>2021-08-31T10:01:26Z</time>
      </trkpt>
      <trkpt lat="44.5086" lon="5.60115">
        <ele>807</ele>
        <time>2021-08-31T10:01:27Z</time>
      </trkpt>
      <trkpt lat="44.50862" lon="5.60125">
        <ele>807</ele>
        <time>2021-08-31T10:01:29Z</time>
      </trkpt>
      <trkpt lat="44.50871" lon="5.60163">
        <ele>808</ele>
        <time>2021-08-31T10:01:37Z</time>
      </trkpt>
      <trkpt lat="44.50881" lon="5.60186">
        <ele>808.59997558594</ele>
        <time>2021-08-31T10:01:42Z</time>
      </trkpt>
      <trkpt lat="44.50892" lon="5.60216">
        <ele>809</ele>
        <time>2021-08-31T10:01:48Z</time>
      </trkpt>
      <trkpt lat="44.50897" lon="5.6023">
        <ele>809.20001220703</ele>
        <time>2021-08-31T10:01:51Z</time>
      </trkpt>
      <trkpt lat="44.50913" lon="5.60275">
        <ele>809.79998779297</ele>
        <time>2021-08-31T10:02:00Z</time>
      </trkpt>
      <trkpt lat="44.50915" lon="5.6028">
        <ele>810</ele>
        <time>2021-08-31T10:02:01Z</time>
      </trkpt>
      <trkpt lat="44.50924" lon="5.60316">
        <ele>810.59997558594</ele>
        <time>2021-08-31T10:02:08Z</time>
      </trkpt>
      <trkpt lat="44.50934" lon="5.60357">
        <ele>811</ele>
        <time>2021-08-31T10:02:16Z</time>
      </trkpt>
      <trkpt lat="44.50944" lon="5.60401">
        <ele>811.59997558594</ele>
        <time>2021-08-31T10:02:24Z</time>
      </trkpt>
      <trkpt lat="44.50949" lon="5.60436">
        <ele>812</ele>
        <time>2021-08-31T10:02:30Z</time>
      </trkpt>
      <trkpt lat="44.50951" lon="5.60453">
        <ele>812.20001220703</ele>
        <time>2021-08-31T10:02:33Z</time>
      </trkpt>
      <trkpt lat="44.50959" lon="5.60489">
        <ele>812.79998779297</ele>
        <time>2021-08-31T10:02:40Z</time>
      </trkpt>
      <trkpt lat="44.5096" lon="5.605">
        <ele>813</ele>
        <time>2021-08-31T10:02:42Z</time>
      </trkpt>
      <trkpt lat="44.50961" lon="5.60534">
        <ele>813.40002441406</ele>
        <time>2021-08-31T10:02:48Z</time>
      </trkpt>
      <trkpt lat="44.50963" lon="5.60572">
        <ele>814.20001220703</ele>
        <time>2021-08-31T10:02:55Z</time>
      </trkpt>
      <trkpt lat="44.50964" lon="5.60583">
        <ele>814.20001220703</ele>
        <time>2021-08-31T10:02:57Z</time>
      </trkpt>
      <trkpt lat="44.50968" lon="5.60632">
        <ele>815</ele>
        <time>2021-08-31T10:03:06Z</time>
      </trkpt>
      <trkpt lat="44.50971" lon="5.60647">
        <ele>815.20001220703</ele>
        <time>2021-08-31T10:03:09Z</time>
      </trkpt>
      <trkpt lat="44.50974" lon="5.60662">
        <ele>815.59997558594</ele>
        <time>2021-08-31T10:03:12Z</time>
      </trkpt>
      <trkpt lat="44.50982" lon="5.60691">
        <ele>816.20001220703</ele>
        <time>2021-08-31T10:03:18Z</time>
      </trkpt>
      <trkpt lat="44.50987" lon="5.6073">
        <ele>817</ele>
        <time>2021-08-31T10:03:26Z</time>
      </trkpt>
      <trkpt lat="44.50988" lon="5.6074">
        <ele>817.20001220703</ele>
        <time>2021-08-31T10:03:28Z</time>
      </trkpt>
      <trkpt lat="44.50991" lon="5.60767">
        <ele>817.79998779297</ele>
        <time>2021-08-31T10:03:34Z</time>
      </trkpt>
      <trkpt lat="44.50993" lon="5.6078">
        <ele>818.40002441406</ele>
        <time>2021-08-31T10:03:37Z</time>
      </trkpt>
      <trkpt lat="44.50999" lon="5.60803">
        <ele>819.20001220703</ele>
        <time>2021-08-31T10:03:42Z</time>
      </trkpt>
      <trkpt lat="44.51002" lon="5.60811">
        <ele>819.40002441406</ele>
        <time>2021-08-31T10:03:44Z</time>
      </trkpt>
      <trkpt lat="44.51008" lon="5.60832">
        <ele>820.20001220703</ele>
        <time>2021-08-31T10:03:49Z</time>
      </trkpt>
      <trkpt lat="44.51009" lon="5.60841">
        <ele>820.40002441406</ele>
        <time>2021-08-31T10:03:51Z</time>
      </trkpt>
      <trkpt lat="44.51016" lon="5.60876">
        <ele>821.40002441406</ele>
        <time>2021-08-31T10:03:59Z</time>
      </trkpt>
      <trkpt lat="44.51017" lon="5.60881">
        <ele>821.40002441406</ele>
        <time>2021-08-31T10:04:00Z</time>
      </trkpt>
      <trkpt lat="44.51022" lon="5.60912">
        <ele>822.40002441406</ele>
        <time>2021-08-31T10:04:07Z</time>
      </trkpt>
      <trkpt lat="44.51024" lon="5.60921">
        <ele>822.59997558594</ele>
        <time>2021-08-31T10:04:09Z</time>
      </trkpt>
      <trkpt lat="44.51029" lon="5.60944">
        <ele>823.20001220703</ele>
        <time>2021-08-31T10:04:14Z</time>
      </trkpt>
      <trkpt lat="44.51034" lon="5.60966">
        <ele>823.59997558594</ele>
        <time>2021-08-31T10:04:19Z</time>
      </trkpt>
      <trkpt lat="44.51036" lon="5.60974">
        <ele>823.79998779297</ele>
        <time>2021-08-31T10:04:21Z</time>
      </trkpt>
      <trkpt lat="44.51041" lon="5.60995">
        <ele>824.59997558594</ele>
        <time>2021-08-31T10:04:26Z</time>
      </trkpt>
      <trkpt lat="44.51047" lon="5.61005">
        <ele>825.20001220703</ele>
        <time>2021-08-31T10:04:29Z</time>
      </trkpt>
      <trkpt lat="44.51056" lon="5.61026">
        <ele>825.79998779297</ele>
        <time>2021-08-31T10:04:35Z</time>
      </trkpt>
      <trkpt lat="44.51059" lon="5.61038">
        <ele>826</ele>
        <time>2021-08-31T10:04:38Z</time>
      </trkpt>
      <trkpt lat="44.51067" lon="5.61057">
        <ele>827</ele>
        <time>2021-08-31T10:04:44Z</time>
      </trkpt>
      <trkpt lat="44.5107" lon="5.61063">
        <ele>827.20001220703</ele>
        <time>2021-08-31T10:04:46Z</time>
      </trkpt>
      <trkpt lat="44.51076" lon="5.6108">
        <ele>828.20001220703</ele>
        <time>2021-08-31T10:04:51Z</time>
      </trkpt>
      <trkpt lat="44.51077" lon="5.61091">
        <ele>828.59997558594</ele>
        <time>2021-08-31T10:04:54Z</time>
      </trkpt>
      <trkpt lat="44.51078" lon="5.61105">
        <ele>829.20001220703</ele>
        <time>2021-08-31T10:04:58Z</time>
      </trkpt>
      <trkpt lat="44.51081" lon="5.61119">
        <ele>829.79998779297</ele>
        <time>2021-08-31T10:05:02Z</time>
      </trkpt>
      <trkpt lat="44.51084" lon="5.61133">
        <ele>830.20001220703</ele>
        <time>2021-08-31T10:05:06Z</time>
      </trkpt>
      <trkpt lat="44.51089" lon="5.6115">
        <ele>831</ele>
        <time>2021-08-31T10:05:11Z</time>
      </trkpt>
      <trkpt lat="44.51092" lon="5.61165">
        <ele>831.40002441406</ele>
        <time>2021-08-31T10:05:15Z</time>
      </trkpt>
      <trkpt lat="44.51094" lon="5.61183">
        <ele>832</ele>
        <time>2021-08-31T10:05:20Z</time>
      </trkpt>
      <trkpt lat="44.51094" lon="5.61199">
        <ele>832.59997558594</ele>
        <time>2021-08-31T10:05:24Z</time>
      </trkpt>
      <trkpt lat="44.51095" lon="5.61219">
        <ele>833</ele>
        <time>2021-08-31T10:05:29Z</time>
      </trkpt>
      <trkpt lat="44.51096" lon="5.61237">
        <ele>833.59997558594</ele>
        <time>2021-08-31T10:05:34Z</time>
      </trkpt>
      <trkpt lat="44.51097" lon="5.6124">
        <ele>833.79998779297</ele>
        <time>2021-08-31T10:05:35Z</time>
      </trkpt>
      <trkpt lat="44.51102" lon="5.61257">
        <ele>834.59997558594</ele>
        <time>2021-08-31T10:05:40Z</time>
      </trkpt>
      <trkpt lat="44.51105" lon="5.61263">
        <ele>834.79998779297</ele>
        <time>2021-08-31T10:05:42Z</time>
      </trkpt>
      <trkpt lat="44.51116" lon="5.61279">
        <ele>835.79998779297</ele>
        <time>2021-08-31T10:05:48Z</time>
      </trkpt>
      <trkpt lat="44.51128" lon="5.61303">
        <ele>836.79998779297</ele>
        <time>2021-08-31T10:05:56Z</time>
      </trkpt>
      <trkpt lat="44.51129" lon="5.61306">
        <ele>837</ele>
        <time>2021-08-31T10:05:57Z</time>
      </trkpt>
      <trkpt lat="44.51132" lon="5.61325">
        <ele>838</ele>
        <time>2021-08-31T10:06:03Z</time>
      </trkpt>
      <trkpt lat="44.51134" lon="5.61335">
        <ele>838.40002441406</ele>
        <time>2021-08-31T10:06:06Z</time>
      </trkpt>
      <trkpt lat="44.51136" lon="5.61348">
        <ele>839</ele>
        <time>2021-08-31T10:06:10Z</time>
      </trkpt>
      <trkpt lat="44.51139" lon="5.6136">
        <ele>839.59997558594</ele>
        <time>2021-08-31T10:06:14Z</time>
      </trkpt>
      <trkpt lat="44.51147" lon="5.61379">
        <ele>840.20001220703</ele>
        <time>2021-08-31T10:06:20Z</time>
      </trkpt>
      <trkpt lat="44.51158" lon="5.61403">
        <ele>841</ele>
        <time>2021-08-31T10:06:28Z</time>
      </trkpt>
      <trkpt lat="44.51159" lon="5.61406">
        <ele>841.20001220703</ele>
        <time>2021-08-31T10:06:29Z</time>
      </trkpt>
      <trkpt lat="44.51165" lon="5.61423">
        <ele>842</ele>
        <time>2021-08-31T10:06:35Z</time>
      </trkpt>
      <trkpt lat="44.51167" lon="5.6143">
        <ele>842.20001220703</ele>
        <time>2021-08-31T10:06:37Z</time>
      </trkpt>
      <trkpt lat="44.51172" lon="5.61445">
        <ele>842.79998779297</ele>
        <time>2021-08-31T10:06:42Z</time>
      </trkpt>
      <trkpt lat="44.51175" lon="5.61459">
        <ele>843.20001220703</ele>
        <time>2021-08-31T10:06:46Z</time>
      </trkpt>
      <trkpt lat="44.51178" lon="5.61472">
        <ele>843.79998779297</ele>
        <time>2021-08-31T10:06:50Z</time>
      </trkpt>
      <trkpt lat="44.51179" lon="5.61483">
        <ele>844.40002441406</ele>
        <time>2021-08-31T10:06:53Z</time>
      </trkpt>
      <trkpt lat="44.51182" lon="5.61502">
        <ele>845</ele>
        <time>2021-08-31T10:06:59Z</time>
      </trkpt>
      <trkpt lat="44.51183" lon="5.61511">
        <ele>845.59997558594</ele>
        <time>2021-08-31T10:07:02Z</time>
      </trkpt>
      <trkpt lat="44.51187" lon="5.61528">
        <ele>846.20001220703</ele>
        <time>2021-08-31T10:07:07Z</time>
      </trkpt>
      <trkpt lat="44.51189" lon="5.61539">
        <ele>846.59997558594</ele>
        <time>2021-08-31T10:07:10Z</time>
      </trkpt>
      <trkpt lat="44.51193" lon="5.61555">
        <ele>847.40002441406</ele>
        <time>2021-08-31T10:07:15Z</time>
      </trkpt>
      <trkpt lat="44.51195" lon="5.61564">
        <ele>847.59997558594</ele>
        <time>2021-08-31T10:07:18Z</time>
      </trkpt>
      <trkpt lat="44.51196" lon="5.61578">
        <ele>848</ele>
        <time>2021-08-31T10:07:22Z</time>
      </trkpt>
      <trkpt lat="44.51196" lon="5.61598">
        <ele>848.79998779297</ele>
        <time>2021-08-31T10:07:28Z</time>
      </trkpt>
      <trkpt lat="44.51196" lon="5.61602">
        <ele>848.79998779297</ele>
        <time>2021-08-31T10:07:29Z</time>
      </trkpt>
      <trkpt lat="44.51196" lon="5.61622">
        <ele>849.79998779297</ele>
        <time>2021-08-31T10:07:35Z</time>
      </trkpt>
      <trkpt lat="44.51196" lon="5.61628">
        <ele>850</ele>
        <time>2021-08-31T10:07:37Z</time>
      </trkpt>
      <trkpt lat="44.51199" lon="5.61645">
        <ele>850.79998779297</ele>
        <time>2021-08-31T10:07:42Z</time>
      </trkpt>
      <trkpt lat="44.51202" lon="5.61655">
        <ele>851.20001220703</ele>
        <time>2021-08-31T10:07:45Z</time>
      </trkpt>
      <trkpt lat="44.51208" lon="5.61673">
        <ele>852</ele>
        <time>2021-08-31T10:07:51Z</time>
      </trkpt>
      <trkpt lat="44.51211" lon="5.61682">
        <ele>852.20001220703</ele>
        <time>2021-08-31T10:07:54Z</time>
      </trkpt>
      <trkpt lat="44.51221" lon="5.61702">
        <ele>853</ele>
        <time>2021-08-31T10:08:01Z</time>
      </trkpt>
      <trkpt lat="44.51232" lon="5.61719">
        <ele>854.20001220703</ele>
        <time>2021-08-31T10:08:08Z</time>
      </trkpt>
      <trkpt lat="44.51235" lon="5.61725">
        <ele>854.40002441406</ele>
        <time>2021-08-31T10:08:10Z</time>
      </trkpt>
      <trkpt lat="44.5124" lon="5.61741">
        <ele>855.20001220703</ele>
        <time>2021-08-31T10:08:16Z</time>
      </trkpt>
      <trkpt lat="44.51241" lon="5.61744">
        <ele>855.40002441406</ele>
        <time>2021-08-31T10:08:17Z</time>
      </trkpt>
      <trkpt lat="44.51245" lon="5.61762">
        <ele>856.40002441406</ele>
        <time>2021-08-31T10:08:23Z</time>
      </trkpt>
      <trkpt lat="44.51246" lon="5.61768">
        <ele>856.59997558594</ele>
        <time>2021-08-31T10:08:25Z</time>
      </trkpt>
      <trkpt lat="44.51249" lon="5.6178">
        <ele>857.40002441406</ele>
        <time>2021-08-31T10:08:29Z</time>
      </trkpt>
      <trkpt lat="44.51254" lon="5.61795">
        <ele>858</ele>
        <time>2021-08-31T10:08:34Z</time>
      </trkpt>
      <trkpt lat="44.51258" lon="5.61806">
        <ele>858.40002441406</ele>
        <time>2021-08-31T10:08:38Z</time>
      </trkpt>
      <trkpt lat="44.51266" lon="5.61825">
        <ele>859.40002441406</ele>
        <time>2021-08-31T10:08:45Z</time>
      </trkpt>
      <trkpt lat="44.51267" lon="5.61828">
        <ele>859.59997558594</ele>
        <time>2021-08-31T10:08:46Z</time>
      </trkpt>
      <trkpt lat="44.51271" lon="5.61848">
        <ele>860.59997558594</ele>
        <time>2021-08-31T10:08:53Z</time>
      </trkpt>
      <trkpt lat="44.51274" lon="5.61872">
        <ele>861.79998779297</ele>
        <time>2021-08-31T10:09:01Z</time>
      </trkpt>
      <trkpt lat="44.51276" lon="5.61892">
        <ele>862.59997558594</ele>
        <time>2021-08-31T10:09:07Z</time>
      </trkpt>
      <trkpt lat="44.51277" lon="5.61898">
        <ele>863</ele>
        <time>2021-08-31T10:09:09Z</time>
      </trkpt>
      <trkpt lat="44.51277" lon="5.61921">
        <ele>863.79998779297</ele>
        <time>2021-08-31T10:09:15Z</time>
      </trkpt>
      <trkpt lat="44.51277" lon="5.61925">
        <ele>864</ele>
        <time>2021-08-31T10:09:16Z</time>
      </trkpt>
      <trkpt lat="44.51277" lon="5.61956">
        <ele>864.20001220703</ele>
        <time>2021-08-31T10:09:23Z</time>
      </trkpt>
      <trkpt lat="44.51278" lon="5.61991">
        <ele>864</ele>
        <time>2021-08-31T10:09:31Z</time>
      </trkpt>
      <trkpt lat="44.5128" lon="5.62018">
        <ele>863.40002441406</ele>
        <time>2021-08-31T10:09:35Z</time>
      </trkpt>
      <trkpt lat="44.5128" lon="5.62038">
        <ele>862.79998779297</ele>
        <time>2021-08-31T10:09:37Z</time>
      </trkpt>
      <trkpt lat="44.5128" lon="5.62059">
        <ele>862.40002441406</ele>
        <time>2021-08-31T10:09:39Z</time>
      </trkpt>
      <trkpt lat="44.51278" lon="5.62071">
        <ele>861.59997558594</ele>
        <time>2021-08-31T10:09:40Z</time>
      </trkpt>
      <trkpt lat="44.51274" lon="5.62106">
        <ele>860.40002441406</ele>
        <time>2021-08-31T10:09:43Z</time>
      </trkpt>
      <trkpt lat="44.5127" lon="5.62129">
        <ele>859.79998779297</ele>
        <time>2021-08-31T10:09:45Z</time>
      </trkpt>
      <trkpt lat="44.51268" lon="5.62148">
        <ele>859.20001220703</ele>
        <time>2021-08-31T10:09:47Z</time>
      </trkpt>
      <trkpt lat="44.51269" lon="5.62157">
        <ele>859</ele>
        <time>2021-08-31T10:09:48Z</time>
      </trkpt>
      <trkpt lat="44.51271" lon="5.62165">
        <ele>859</ele>
        <time>2021-08-31T10:09:49Z</time>
      </trkpt>
      <trkpt lat="44.51277" lon="5.62187">
        <ele>859.20001220703</ele>
        <time>2021-08-31T10:09:53Z</time>
      </trkpt>
      <trkpt lat="44.51281" lon="5.62195">
        <ele>860.20001220703</ele>
        <time>2021-08-31T10:09:57Z</time>
      </trkpt>
      <trkpt lat="44.51281" lon="5.62197">
        <ele>860.40002441406</ele>
        <time>2021-08-31T10:09:58Z</time>
      </trkpt>
      <trkpt lat="44.51286" lon="5.62208">
        <ele>861.59997558594</ele>
        <time>2021-08-31T10:10:03Z</time>
      </trkpt>
      <trkpt lat="44.51286" lon="5.62211">
        <ele>862</ele>
        <time>2021-08-31T10:10:04Z</time>
      </trkpt>
      <trkpt lat="44.51289" lon="5.62216">
        <ele>862.59997558594</ele>
        <time>2021-08-31T10:10:07Z</time>
      </trkpt>
      <trkpt lat="44.51295" lon="5.62226">
        <ele>863.59997558594</ele>
        <time>2021-08-31T10:10:12Z</time>
      </trkpt>
      <trkpt lat="44.51296" lon="5.62227">
        <ele>864</ele>
        <time>2021-08-31T10:10:13Z</time>
      </trkpt>
      <trkpt lat="44.51299" lon="5.62233">
        <ele>864.79998779297</ele>
        <time>2021-08-31T10:10:17Z</time>
      </trkpt>
      <trkpt lat="44.51301" lon="5.62235">
        <ele>865</ele>
        <time>2021-08-31T10:10:19Z</time>
      </trkpt>
      <trkpt lat="44.51307" lon="5.62235">
        <ele>866</ele>
        <time>2021-08-31T10:10:23Z</time>
      </trkpt>
      <trkpt lat="44.5131" lon="5.62236">
        <ele>866.40002441406</ele>
        <time>2021-08-31T10:10:25Z</time>
      </trkpt>
      <trkpt lat="44.51311" lon="5.62238">
        <ele>866.59997558594</ele>
        <time>2021-08-31T10:10:26Z</time>
      </trkpt>
      <trkpt lat="44.51315" lon="5.62239">
        <ele>867</ele>
        <time>2021-08-31T10:10:29Z</time>
      </trkpt>
      <trkpt lat="44.51319" lon="5.62239">
        <ele>867.40002441406</ele>
        <time>2021-08-31T10:10:31Z</time>
      </trkpt>
      <trkpt lat="44.51321" lon="5.62238">
        <ele>867.59997558594</ele>
        <time>2021-08-31T10:10:32Z</time>
      </trkpt>
      <trkpt lat="44.51326" lon="5.62237">
        <ele>868</ele>
        <time>2021-08-31T10:10:35Z</time>
      </trkpt>
      <trkpt lat="44.51334" lon="5.62239">
        <ele>868.59997558594</ele>
        <time>2021-08-31T10:10:40Z</time>
      </trkpt>
      <trkpt lat="44.51336" lon="5.62238">
        <ele>868.59997558594</ele>
        <time>2021-08-31T10:10:41Z</time>
      </trkpt>
      <trkpt lat="44.51342" lon="5.62236">
        <ele>869.20001220703</ele>
        <time>2021-08-31T10:10:45Z</time>
      </trkpt>
      <trkpt lat="44.51354" lon="5.62235">
        <ele>870.40002441406</ele>
        <time>2021-08-31T10:10:52Z</time>
      </trkpt>
      <trkpt lat="44.51356" lon="5.62236">
        <ele>870.59997558594</ele>
        <time>2021-08-31T10:10:54Z</time>
      </trkpt>
      <trkpt lat="44.51361" lon="5.62237">
        <ele>871.20001220703</ele>
        <time>2021-08-31T10:10:57Z</time>
      </trkpt>
      <trkpt lat="44.51362" lon="5.62239">
        <ele>871.59997558594</ele>
        <time>2021-08-31T10:10:58Z</time>
      </trkpt>
      <trkpt lat="44.51364" lon="5.62243">
        <ele>871.79998779297</ele>
        <time>2021-08-31T10:11:00Z</time>
      </trkpt>
      <trkpt lat="44.51367" lon="5.62248">
        <ele>872.59997558594</ele>
        <time>2021-08-31T10:11:03Z</time>
      </trkpt>
      <trkpt lat="44.51371" lon="5.62256">
        <ele>873.20001220703</ele>
        <time>2021-08-31T10:11:07Z</time>
      </trkpt>
      <trkpt lat="44.51374" lon="5.62261">
        <ele>873.59997558594</ele>
        <time>2021-08-31T10:11:10Z</time>
      </trkpt>
      <trkpt lat="44.5138" lon="5.6227">
        <ele>874.59997558594</ele>
        <time>2021-08-31T10:11:15Z</time>
      </trkpt>
      <trkpt lat="44.51381" lon="5.62272">
        <ele>874.79998779297</ele>
        <time>2021-08-31T10:11:16Z</time>
      </trkpt>
      <trkpt lat="44.51389" lon="5.62279">
        <ele>875.40002441406</ele>
        <time>2021-08-31T10:11:22Z</time>
      </trkpt>
      <trkpt lat="44.51392" lon="5.62281">
        <ele>875.79998779297</ele>
        <time>2021-08-31T10:11:24Z</time>
      </trkpt>
      <trkpt lat="44.51397" lon="5.62288">
        <ele>876.79998779297</ele>
        <time>2021-08-31T10:11:29Z</time>
      </trkpt>
      <trkpt lat="44.51398" lon="5.62289">
        <ele>877</ele>
        <time>2021-08-31T10:11:30Z</time>
      </trkpt>
      <trkpt lat="44.51401" lon="5.62292">
        <ele>877.59997558594</ele>
        <time>2021-08-31T10:11:33Z</time>
      </trkpt>
      <trkpt lat="44.51404" lon="5.62294">
        <ele>878</ele>
        <time>2021-08-31T10:11:35Z</time>
      </trkpt>
      <trkpt lat="44.51405" lon="5.62296">
        <ele>878.20001220703</ele>
        <time>2021-08-31T10:11:36Z</time>
      </trkpt>
      <trkpt lat="44.51409" lon="5.62303">
        <ele>879</ele>
        <time>2021-08-31T10:11:40Z</time>
      </trkpt>
      <trkpt lat="44.5141" lon="5.62305">
        <ele>879.20001220703</ele>
        <time>2021-08-31T10:11:41Z</time>
      </trkpt>
      <trkpt lat="44.51412" lon="5.6231">
        <ele>879.79998779297</ele>
        <time>2021-08-31T10:11:44Z</time>
      </trkpt>
      <trkpt lat="44.51416" lon="5.62314">
        <ele>880.40002441406</ele>
        <time>2021-08-31T10:11:47Z</time>
      </trkpt>
      <trkpt lat="44.51417" lon="5.62318">
        <ele>880.59997558594</ele>
        <time>2021-08-31T10:11:49Z</time>
      </trkpt>
      <trkpt lat="44.51417" lon="5.62321">
        <ele>880.79998779297</ele>
        <time>2021-08-31T10:11:50Z</time>
      </trkpt>
      <trkpt lat="44.51419" lon="5.62328">
        <ele>881.59997558594</ele>
        <time>2021-08-31T10:11:54Z</time>
      </trkpt>
      <trkpt lat="44.51421" lon="5.62333">
        <ele>882.40002441406</ele>
        <time>2021-08-31T10:11:57Z</time>
      </trkpt>
      <trkpt lat="44.51422" lon="5.62335">
        <ele>882.59997558594</ele>
        <time>2021-08-31T10:11:58Z</time>
      </trkpt>
      <trkpt lat="44.51426" lon="5.62345">
        <ele>883.79998779297</ele>
        <time>2021-08-31T10:12:04Z</time>
      </trkpt>
      <trkpt lat="44.51429" lon="5.6235">
        <ele>884.40002441406</ele>
        <time>2021-08-31T10:12:07Z</time>
      </trkpt>
      <trkpt lat="44.51432" lon="5.62351">
        <ele>884.79998779297</ele>
        <time>2021-08-31T10:12:09Z</time>
      </trkpt>
      <trkpt lat="44.51436" lon="5.62355">
        <ele>885.40002441406</ele>
        <time>2021-08-31T10:12:13Z</time>
      </trkpt>
      <trkpt lat="44.51438" lon="5.62355">
        <ele>885.59997558594</ele>
        <time>2021-08-31T10:12:14Z</time>
      </trkpt>
      <trkpt lat="44.51439" lon="5.62354">
        <ele>885.79998779297</ele>
        <time>2021-08-31T10:12:15Z</time>
      </trkpt>
      <trkpt lat="44.51445" lon="5.62352">
        <ele>886.59997558594</ele>
        <time>2021-08-31T10:12:19Z</time>
      </trkpt>
      <trkpt lat="44.51448" lon="5.62351">
        <ele>887</ele>
        <time>2021-08-31T10:12:21Z</time>
      </trkpt>
      <trkpt lat="44.51455" lon="5.62343">
        <ele>887.79998779297</ele>
        <time>2021-08-31T10:12:27Z</time>
      </trkpt>
      <trkpt lat="44.51456" lon="5.62341">
        <ele>888.20001220703</ele>
        <time>2021-08-31T10:12:28Z</time>
      </trkpt>
      <trkpt lat="44.51459" lon="5.6234">
        <ele>888.40002441406</ele>
        <time>2021-08-31T10:12:30Z</time>
      </trkpt>
      <trkpt lat="44.51464" lon="5.62336">
        <ele>889</ele>
        <time>2021-08-31T10:12:34Z</time>
      </trkpt>
      <trkpt lat="44.51466" lon="5.62336">
        <ele>889.20001220703</ele>
        <time>2021-08-31T10:12:35Z</time>
      </trkpt>
      <trkpt lat="44.51467" lon="5.62335">
        <ele>889.40002441406</ele>
        <time>2021-08-31T10:12:36Z</time>
      </trkpt>
      <trkpt lat="44.51476" lon="5.62332">
        <ele>890.20001220703</ele>
        <time>2021-08-31T10:12:42Z</time>
      </trkpt>
      <trkpt lat="44.5148" lon="5.62337">
        <ele>891</ele>
        <time>2021-08-31T10:12:46Z</time>
      </trkpt>
      <trkpt lat="44.51482" lon="5.62341">
        <ele>891.20001220703</ele>
        <time>2021-08-31T10:12:48Z</time>
      </trkpt>
      <trkpt lat="44.51483" lon="5.62342">
        <ele>891.40002441406</ele>
        <time>2021-08-31T10:12:49Z</time>
      </trkpt>
      <trkpt lat="44.51484" lon="5.62348">
        <ele>892.40002441406</ele>
        <time>2021-08-31T10:12:52Z</time>
      </trkpt>
      <trkpt lat="44.51484" lon="5.62352">
        <ele>893</ele>
        <time>2021-08-31T10:12:54Z</time>
      </trkpt>
      <trkpt lat="44.51485" lon="5.62361">
        <ele>893.40002441406</ele>
        <time>2021-08-31T10:12:58Z</time>
      </trkpt>
      <trkpt lat="44.51485" lon="5.62368">
        <ele>893.79998779297</ele>
        <time>2021-08-31T10:13:01Z</time>
      </trkpt>
      <trkpt lat="44.51485" lon="5.62379">
        <ele>894.59997558594</ele>
        <time>2021-08-31T10:13:05Z</time>
      </trkpt>
      <trkpt lat="44.51483" lon="5.62389">
        <ele>895.20001220703</ele>
        <time>2021-08-31T10:13:09Z</time>
      </trkpt>
      <trkpt lat="44.51476" lon="5.62409">
        <ele>895.40002441406</ele>
        <time>2021-08-31T10:13:15Z</time>
      </trkpt>
      <trkpt lat="44.51467" lon="5.62419">
        <ele>895.59997558594</ele>
        <time>2021-08-31T10:13:19Z</time>
      </trkpt>
      <trkpt lat="44.51462" lon="5.62421">
        <ele>895.79998779297</ele>
        <time>2021-08-31T10:13:21Z</time>
      </trkpt>
      <trkpt lat="44.5144" lon="5.62423">
        <ele>896.40002441406</ele>
        <time>2021-08-31T10:13:29Z</time>
      </trkpt>
      <trkpt lat="44.51435" lon="5.62422">
        <ele>896.59997558594</ele>
        <time>2021-08-31T10:13:31Z</time>
      </trkpt>
      <trkpt lat="44.51418" lon="5.62413">
        <ele>897.40002441406</ele>
        <time>2021-08-31T10:13:38Z</time>
      </trkpt>
      <trkpt lat="44.51412" lon="5.62408">
        <ele>897.79998779297</ele>
        <time>2021-08-31T10:13:41Z</time>
      </trkpt>
      <trkpt lat="44.51401" lon="5.624">
        <ele>898.20001220703</ele>
        <time>2021-08-31T10:13:46Z</time>
      </trkpt>
      <trkpt lat="44.51396" lon="5.62396">
        <ele>898.79998779297</ele>
        <time>2021-08-31T10:13:49Z</time>
      </trkpt>
      <trkpt lat="44.51388" lon="5.62392">
        <ele>899.20001220703</ele>
        <time>2021-08-31T10:13:53Z</time>
      </trkpt>
      <trkpt lat="44.51379" lon="5.62393">
        <ele>899.79998779297</ele>
        <time>2021-08-31T10:13:57Z</time>
      </trkpt>
      <trkpt lat="44.51376" lon="5.62395">
        <ele>900</ele>
        <time>2021-08-31T10:13:59Z</time>
      </trkpt>
      <trkpt lat="44.5137" lon="5.62407">
        <ele>900.79998779297</ele>
        <time>2021-08-31T10:14:04Z</time>
      </trkpt>
      <trkpt lat="44.51369" lon="5.62409">
        <ele>901</ele>
        <time>2021-08-31T10:14:05Z</time>
      </trkpt>
      <trkpt lat="44.5136" lon="5.62432">
        <ele>901.59997558594</ele>
        <time>2021-08-31T10:14:13Z</time>
      </trkpt>
      <trkpt lat="44.51353" lon="5.62446">
        <ele>902</ele>
        <time>2021-08-31T10:14:18Z</time>
      </trkpt>
      <trkpt lat="44.51347" lon="5.6246">
        <ele>902.20001220703</ele>
        <time>2021-08-31T10:14:23Z</time>
      </trkpt>
      <trkpt lat="44.51341" lon="5.62474">
        <ele>903</ele>
        <time>2021-08-31T10:14:28Z</time>
      </trkpt>
      <trkpt lat="44.51338" lon="5.62483">
        <ele>903.40002441406</ele>
        <time>2021-08-31T10:14:31Z</time>
      </trkpt>
      <trkpt lat="44.51334" lon="5.62496">
        <ele>904</ele>
        <time>2021-08-31T10:14:36Z</time>
      </trkpt>
      <trkpt lat="44.51332" lon="5.62504">
        <ele>904.40002441406</ele>
        <time>2021-08-31T10:14:39Z</time>
      </trkpt>
      <trkpt lat="44.5133" lon="5.62519">
        <ele>905</ele>
        <time>2021-08-31T10:14:44Z</time>
      </trkpt>
      <trkpt lat="44.51329" lon="5.6253">
        <ele>905.79998779297</ele>
        <time>2021-08-31T10:14:48Z</time>
      </trkpt>
      <trkpt lat="44.51329" lon="5.62539">
        <ele>906.20001220703</ele>
        <time>2021-08-31T10:14:51Z</time>
      </trkpt>
      <trkpt lat="44.51329" lon="5.62542">
        <ele>906.40002441406</ele>
        <time>2021-08-31T10:14:52Z</time>
      </trkpt>
      <trkpt lat="44.51329" lon="5.62551">
        <ele>907</ele>
        <time>2021-08-31T10:14:55Z</time>
      </trkpt>
      <trkpt lat="44.5133" lon="5.62557">
        <ele>907.20001220703</ele>
        <time>2021-08-31T10:14:57Z</time>
      </trkpt>
      <trkpt lat="44.5133" lon="5.62569">
        <ele>907.79998779297</ele>
        <time>2021-08-31T10:15:01Z</time>
      </trkpt>
      <trkpt lat="44.51331" lon="5.62581">
        <ele>908.40002441406</ele>
        <time>2021-08-31T10:15:06Z</time>
      </trkpt>
      <trkpt lat="44.51332" lon="5.6259">
        <ele>908.79998779297</ele>
        <time>2021-08-31T10:15:09Z</time>
      </trkpt>
      <trkpt lat="44.5133" lon="5.62604">
        <ele>909.40002441406</ele>
        <time>2021-08-31T10:15:14Z</time>
      </trkpt>
      <trkpt lat="44.51329" lon="5.6261">
        <ele>909.79998779297</ele>
        <time>2021-08-31T10:15:16Z</time>
      </trkpt>
      <trkpt lat="44.51326" lon="5.62624">
        <ele>910.59997558594</ele>
        <time>2021-08-31T10:15:21Z</time>
      </trkpt>
      <trkpt lat="44.51324" lon="5.62632">
        <ele>911</ele>
        <time>2021-08-31T10:15:24Z</time>
      </trkpt>
      <trkpt lat="44.51321" lon="5.62647">
        <ele>911.59997558594</ele>
        <time>2021-08-31T10:15:29Z</time>
      </trkpt>
      <trkpt lat="44.5132" lon="5.62655">
        <ele>912</ele>
        <time>2021-08-31T10:15:32Z</time>
      </trkpt>
      <trkpt lat="44.51318" lon="5.62668">
        <ele>912.59997558594</ele>
        <time>2021-08-31T10:15:36Z</time>
      </trkpt>
      <trkpt lat="44.51317" lon="5.62681">
        <ele>913.40002441406</ele>
        <time>2021-08-31T10:15:40Z</time>
      </trkpt>
      <trkpt lat="44.51318" lon="5.62691">
        <ele>913.79998779297</ele>
        <time>2021-08-31T10:15:43Z</time>
      </trkpt>
      <trkpt lat="44.51317" lon="5.627">
        <ele>914</ele>
        <time>2021-08-31T10:15:46Z</time>
      </trkpt>
      <trkpt lat="44.51316" lon="5.62723">
        <ele>914.79998779297</ele>
        <time>2021-08-31T10:15:53Z</time>
      </trkpt>
      <trkpt lat="44.51315" lon="5.62725">
        <ele>915</ele>
        <time>2021-08-31T10:15:54Z</time>
      </trkpt>
      <trkpt lat="44.5131" lon="5.62742">
        <ele>916</ele>
        <time>2021-08-31T10:16:00Z</time>
      </trkpt>
      <trkpt lat="44.51308" lon="5.6275">
        <ele>916.40002441406</ele>
        <time>2021-08-31T10:16:03Z</time>
      </trkpt>
      <trkpt lat="44.51306" lon="5.62755">
        <ele>917</ele>
        <time>2021-08-31T10:16:05Z</time>
      </trkpt>
      <trkpt lat="44.51298" lon="5.62769">
        <ele>918</ele>
        <time>2021-08-31T10:16:11Z</time>
      </trkpt>
      <trkpt lat="44.51297" lon="5.62772">
        <ele>918.20001220703</ele>
        <time>2021-08-31T10:16:12Z</time>
      </trkpt>
      <trkpt lat="44.5129" lon="5.62787">
        <ele>918.79998779297</ele>
        <time>2021-08-31T10:16:18Z</time>
      </trkpt>
      <trkpt lat="44.51289" lon="5.62796">
        <ele>919.20001220703</ele>
        <time>2021-08-31T10:16:21Z</time>
      </trkpt>
      <trkpt lat="44.51289" lon="5.62805">
        <ele>919.79998779297</ele>
        <time>2021-08-31T10:16:24Z</time>
      </trkpt>
      <trkpt lat="44.51287" lon="5.62817">
        <ele>920.40002441406</ele>
        <time>2021-08-31T10:16:28Z</time>
      </trkpt>
      <trkpt lat="44.51283" lon="5.62827">
        <ele>921</ele>
        <time>2021-08-31T10:16:32Z</time>
      </trkpt>
      <trkpt lat="44.51279" lon="5.62833">
        <ele>921.40002441406</ele>
        <time>2021-08-31T10:16:35Z</time>
      </trkpt>
      <trkpt lat="44.51272" lon="5.62845">
        <ele>922.20001220703</ele>
        <time>2021-08-31T10:16:40Z</time>
      </trkpt>
      <trkpt lat="44.5127" lon="5.6285">
        <ele>922.40002441406</ele>
        <time>2021-08-31T10:16:42Z</time>
      </trkpt>
      <trkpt lat="44.51266" lon="5.6286">
        <ele>923</ele>
        <time>2021-08-31T10:16:46Z</time>
      </trkpt>
      <trkpt lat="44.51263" lon="5.62868">
        <ele>923.59997558594</ele>
        <time>2021-08-31T10:16:49Z</time>
      </trkpt>
      <trkpt lat="44.51259" lon="5.62881">
        <ele>924.20001220703</ele>
        <time>2021-08-31T10:16:54Z</time>
      </trkpt>
      <trkpt lat="44.51257" lon="5.62887">
        <ele>924.59997558594</ele>
        <time>2021-08-31T10:16:56Z</time>
      </trkpt>
      <trkpt lat="44.51254" lon="5.62903">
        <ele>924.79998779297</ele>
        <time>2021-08-31T10:17:00Z</time>
      </trkpt>
      <trkpt lat="44.51251" lon="5.62931">
        <ele>925.40002441406</ele>
        <time>2021-08-31T10:17:08Z</time>
      </trkpt>
      <trkpt lat="44.51251" lon="5.62938">
        <ele>925.59997558594</ele>
        <time>2021-08-31T10:17:10Z</time>
      </trkpt>
      <trkpt lat="44.51252" lon="5.62956">
        <ele>926.59997558594</ele>
        <time>2021-08-31T10:17:15Z</time>
      </trkpt>
      <trkpt lat="44.51252" lon="5.62962">
        <ele>926.79998779297</ele>
        <time>2021-08-31T10:17:17Z</time>
      </trkpt>
      <trkpt lat="44.5125" lon="5.6298">
        <ele>927.59997558594</ele>
        <time>2021-08-31T10:17:23Z</time>
      </trkpt>
      <trkpt lat="44.5125" lon="5.62983">
        <ele>927.79998779297</ele>
        <time>2021-08-31T10:17:24Z</time>
      </trkpt>
      <trkpt lat="44.51251" lon="5.63001">
        <ele>928.79998779297</ele>
        <time>2021-08-31T10:17:30Z</time>
      </trkpt>
      <trkpt lat="44.51254" lon="5.63021">
        <ele>930</ele>
        <time>2021-08-31T10:17:37Z</time>
      </trkpt>
      <trkpt lat="44.51255" lon="5.63027">
        <ele>930.20001220703</ele>
        <time>2021-08-31T10:17:39Z</time>
      </trkpt>
      <trkpt lat="44.51256" lon="5.63042">
        <ele>931</ele>
        <time>2021-08-31T10:17:44Z</time>
      </trkpt>
      <trkpt lat="44.51255" lon="5.63048">
        <ele>931.20001220703</ele>
        <time>2021-08-31T10:17:46Z</time>
      </trkpt>
      <trkpt lat="44.5125" lon="5.63067">
        <ele>932.20001220703</ele>
        <time>2021-08-31T10:17:53Z</time>
      </trkpt>
      <trkpt lat="44.51245" lon="5.63087">
        <ele>933</ele>
        <time>2021-08-31T10:18:00Z</time>
      </trkpt>
      <trkpt lat="44.51245" lon="5.6309">
        <ele>933.20001220703</ele>
        <time>2021-08-31T10:18:01Z</time>
      </trkpt>
      <trkpt lat="44.51245" lon="5.63108">
        <ele>934</ele>
        <time>2021-08-31T10:18:07Z</time>
      </trkpt>
      <trkpt lat="44.51245" lon="5.63114">
        <ele>934.20001220703</ele>
        <time>2021-08-31T10:18:09Z</time>
      </trkpt>
      <trkpt lat="44.51243" lon="5.63135">
        <ele>935.20001220703</ele>
        <time>2021-08-31T10:18:16Z</time>
      </trkpt>
      <trkpt lat="44.51244" lon="5.63141">
        <ele>935.40002441406</ele>
        <time>2021-08-31T10:18:18Z</time>
      </trkpt>
      <trkpt lat="44.51246" lon="5.63158">
        <ele>936.20001220703</ele>
        <time>2021-08-31T10:18:24Z</time>
      </trkpt>
      <trkpt lat="44.51246" lon="5.63161">
        <ele>936.40002441406</ele>
        <time>2021-08-31T10:18:25Z</time>
      </trkpt>
      <trkpt lat="44.51251" lon="5.63179">
        <ele>937.20001220703</ele>
        <time>2021-08-31T10:18:31Z</time>
      </trkpt>
      <trkpt lat="44.51252" lon="5.63186">
        <ele>937.40002441406</ele>
        <time>2021-08-31T10:18:33Z</time>
      </trkpt>
      <trkpt lat="44.51256" lon="5.63212">
        <ele>938.40002441406</ele>
        <time>2021-08-31T10:18:41Z</time>
      </trkpt>
      <trkpt lat="44.51256" lon="5.63216">
        <ele>938.59997558594</ele>
        <time>2021-08-31T10:18:42Z</time>
      </trkpt>
      <trkpt lat="44.51261" lon="5.6324">
        <ele>939.79998779297</ele>
        <time>2021-08-31T10:18:49Z</time>
      </trkpt>
      <trkpt lat="44.51268" lon="5.63255">
        <ele>940.79998779297</ele>
        <time>2021-08-31T10:18:54Z</time>
      </trkpt>
      <trkpt lat="44.51271" lon="5.63261">
        <ele>941.20001220703</ele>
        <time>2021-08-31T10:18:56Z</time>
      </trkpt>
      <trkpt lat="44.51285" lon="5.63282">
        <ele>941.79998779297</ele>
        <time>2021-08-31T10:19:04Z</time>
      </trkpt>
      <trkpt lat="44.51286" lon="5.63285">
        <ele>942</ele>
        <time>2021-08-31T10:19:05Z</time>
      </trkpt>
      <trkpt lat="44.51293" lon="5.63301">
        <ele>942.79998779297</ele>
        <time>2021-08-31T10:19:11Z</time>
      </trkpt>
      <trkpt lat="44.51295" lon="5.63306">
        <ele>943.20001220703</ele>
        <time>2021-08-31T10:19:13Z</time>
      </trkpt>
      <trkpt lat="44.51301" lon="5.63318">
        <ele>944.20001220703</ele>
        <time>2021-08-31T10:19:18Z</time>
      </trkpt>
      <trkpt lat="44.51309" lon="5.6334">
        <ele>945.40002441406</ele>
        <time>2021-08-31T10:19:26Z</time>
      </trkpt>
      <trkpt lat="44.51315" lon="5.63357">
        <ele>946.40002441406</ele>
        <time>2021-08-31T10:19:33Z</time>
      </trkpt>
      <trkpt lat="44.51317" lon="5.63362">
        <ele>946.79998779297</ele>
        <time>2021-08-31T10:19:35Z</time>
      </trkpt>
      <trkpt lat="44.51325" lon="5.63375">
        <ele>947.59997558594</ele>
        <time>2021-08-31T10:19:41Z</time>
      </trkpt>
      <trkpt lat="44.51328" lon="5.63379">
        <ele>947.79998779297</ele>
        <time>2021-08-31T10:19:43Z</time>
      </trkpt>
      <trkpt lat="44.51339" lon="5.63389">
        <ele>948.59997558594</ele>
        <time>2021-08-31T10:19:49Z</time>
      </trkpt>
      <trkpt lat="44.51341" lon="5.63391">
        <ele>948.59997558594</ele>
        <time>2021-08-31T10:19:50Z</time>
      </trkpt>
      <trkpt lat="44.51357" lon="5.63408">
        <ele>949.59997558594</ele>
        <time>2021-08-31T10:19:59Z</time>
      </trkpt>
      <trkpt lat="44.51359" lon="5.63409">
        <ele>949.79998779297</ele>
        <time>2021-08-31T10:20:00Z</time>
      </trkpt>
      <trkpt lat="44.5137" lon="5.63423">
        <ele>950.79998779297</ele>
        <time>2021-08-31T10:20:07Z</time>
      </trkpt>
      <trkpt lat="44.51371" lon="5.63425">
        <ele>950.79998779297</ele>
        <time>2021-08-31T10:20:08Z</time>
      </trkpt>
      <trkpt lat="44.51377" lon="5.63443">
        <ele>951.79998779297</ele>
        <time>2021-08-31T10:20:15Z</time>
      </trkpt>
      <trkpt lat="44.51379" lon="5.63459">
        <ele>953</ele>
        <time>2021-08-31T10:20:21Z</time>
      </trkpt>
      <trkpt lat="44.51379" lon="5.63461">
        <ele>953</ele>
        <time>2021-08-31T10:20:22Z</time>
      </trkpt>
      <trkpt lat="44.51379" lon="5.63477">
        <ele>953.79998779297</ele>
        <time>2021-08-31T10:20:28Z</time>
      </trkpt>
      <trkpt lat="44.51379" lon="5.63479">
        <ele>954</ele>
        <time>2021-08-31T10:20:29Z</time>
      </trkpt>
      <trkpt lat="44.5138" lon="5.63502">
        <ele>955</ele>
        <time>2021-08-31T10:20:37Z</time>
      </trkpt>
      <trkpt lat="44.51379" lon="5.63505">
        <ele>955.20001220703</ele>
        <time>2021-08-31T10:20:38Z</time>
      </trkpt>
      <trkpt lat="44.5138" lon="5.63521">
        <ele>956</ele>
        <time>2021-08-31T10:20:44Z</time>
      </trkpt>
      <trkpt lat="44.5138" lon="5.63523">
        <ele>956.20001220703</ele>
        <time>2021-08-31T10:20:45Z</time>
      </trkpt>
      <trkpt lat="44.5138" lon="5.63534">
        <ele>956.79998779297</ele>
        <time>2021-08-31T10:20:49Z</time>
      </trkpt>
      <trkpt lat="44.51381" lon="5.6354">
        <ele>957.40002441406</ele>
        <time>2021-08-31T10:20:51Z</time>
      </trkpt>
      <trkpt lat="44.51385" lon="5.6356">
        <ele>958.40002441406</ele>
        <time>2021-08-31T10:20:58Z</time>
      </trkpt>
      <trkpt lat="44.51386" lon="5.63563">
        <ele>958.40002441406</ele>
        <time>2021-08-31T10:20:59Z</time>
      </trkpt>
      <trkpt lat="44.51394" lon="5.63591">
        <ele>959</ele>
        <time>2021-08-31T10:21:07Z</time>
      </trkpt>
      <trkpt lat="44.51399" lon="5.63602">
        <ele>959.40002441406</ele>
        <time>2021-08-31T10:21:11Z</time>
      </trkpt>
      <trkpt lat="44.51404" lon="5.63611">
        <ele>960.20001220703</ele>
        <time>2021-08-31T10:21:15Z</time>
      </trkpt>
      <trkpt lat="44.51407" lon="5.63616">
        <ele>960.40002441406</ele>
        <time>2021-08-31T10:21:17Z</time>
      </trkpt>
      <trkpt lat="44.51414" lon="5.6363">
        <ele>961.40002441406</ele>
        <time>2021-08-31T10:21:23Z</time>
      </trkpt>
      <trkpt lat="44.51415" lon="5.63632">
        <ele>961.59997558594</ele>
        <time>2021-08-31T10:21:24Z</time>
      </trkpt>
      <trkpt lat="44.51417" lon="5.63647">
        <ele>962.40002441406</ele>
        <time>2021-08-31T10:21:30Z</time>
      </trkpt>
      <trkpt lat="44.51417" lon="5.6365">
        <ele>962.59997558594</ele>
        <time>2021-08-31T10:21:31Z</time>
      </trkpt>
      <trkpt lat="44.51416" lon="5.63666">
        <ele>963.79998779297</ele>
        <time>2021-08-31T10:21:37Z</time>
      </trkpt>
      <trkpt lat="44.51416" lon="5.63669">
        <ele>964</ele>
        <time>2021-08-31T10:21:38Z</time>
      </trkpt>
      <trkpt lat="44.51414" lon="5.63681">
        <ele>964.79998779297</ele>
        <time>2021-08-31T10:21:43Z</time>
      </trkpt>
      <trkpt lat="44.51414" lon="5.63687">
        <ele>965</ele>
        <time>2021-08-31T10:21:45Z</time>
      </trkpt>
      <trkpt lat="44.51415" lon="5.63708">
        <ele>965.79998779297</ele>
        <time>2021-08-31T10:21:53Z</time>
      </trkpt>
      <trkpt lat="44.51421" lon="5.63727">
        <ele>967</ele>
        <time>2021-08-31T10:22:01Z</time>
      </trkpt>
      <trkpt lat="44.51422" lon="5.63729">
        <ele>967</ele>
        <time>2021-08-31T10:22:02Z</time>
      </trkpt>
      <trkpt lat="44.51424" lon="5.63733">
        <ele>967.40002441406</ele>
        <time>2021-08-31T10:22:04Z</time>
      </trkpt>
      <trkpt lat="44.51425" lon="5.6374">
        <ele>968</ele>
        <time>2021-08-31T10:22:07Z</time>
      </trkpt>
      <trkpt lat="44.51426" lon="5.63742">
        <ele>968.20001220703</ele>
        <time>2021-08-31T10:22:08Z</time>
      </trkpt>
      <trkpt lat="44.51428" lon="5.63752">
        <ele>968.79998779297</ele>
        <time>2021-08-31T10:22:13Z</time>
      </trkpt>
      <trkpt lat="44.51428" lon="5.63754">
        <ele>969</ele>
        <time>2021-08-31T10:22:14Z</time>
      </trkpt>
      <trkpt lat="44.51425" lon="5.63763">
        <ele>969.40002441406</ele>
        <time>2021-08-31T10:22:18Z</time>
      </trkpt>
      <trkpt lat="44.51424" lon="5.6377">
        <ele>969.79998779297</ele>
        <time>2021-08-31T10:22:21Z</time>
      </trkpt>
      <trkpt lat="44.51422" lon="5.63774">
        <ele>970</ele>
        <time>2021-08-31T10:22:23Z</time>
      </trkpt>
      <trkpt lat="44.51421" lon="5.63784">
        <ele>970.59997558594</ele>
        <time>2021-08-31T10:22:27Z</time>
      </trkpt>
      <trkpt lat="44.5142" lon="5.63787">
        <ele>970.79998779297</ele>
        <time>2021-08-31T10:22:28Z</time>
      </trkpt>
      <trkpt lat="44.51417" lon="5.63797">
        <ele>971.20001220703</ele>
        <time>2021-08-31T10:22:32Z</time>
      </trkpt>
      <trkpt lat="44.51416" lon="5.63805">
        <ele>971.79998779297</ele>
        <time>2021-08-31T10:22:35Z</time>
      </trkpt>
      <trkpt lat="44.51408" lon="5.63827">
        <ele>972.20001220703</ele>
        <time>2021-08-31T10:22:43Z</time>
      </trkpt>
      <trkpt lat="44.51396" lon="5.63844">
        <ele>973.20001220703</ele>
        <time>2021-08-31T10:22:52Z</time>
      </trkpt>
      <trkpt lat="44.51395" lon="5.63846">
        <ele>973.40002441406</ele>
        <time>2021-08-31T10:22:53Z</time>
      </trkpt>
      <trkpt lat="44.5139" lon="5.63854">
        <ele>973.79998779297</ele>
        <time>2021-08-31T10:22:58Z</time>
      </trkpt>
      <trkpt lat="44.51388" lon="5.63854">
        <ele>974.59997558594</ele>
        <time>2021-08-31T10:26:14Z</time>
      </trkpt>
      <trkpt lat="44.51382" lon="5.63851">
        <ele>974.79998779297</ele>
        <time>2021-08-31T10:26:17Z</time>
      </trkpt>
      <trkpt lat="44.51368" lon="5.63845">
        <ele>974.79998779297</ele>
        <time>2021-08-31T10:26:23Z</time>
      </trkpt>
      <trkpt lat="44.51344" lon="5.63843">
        <ele>975.20001220703</ele>
        <time>2021-08-31T10:26:31Z</time>
      </trkpt>
      <trkpt lat="44.5132" lon="5.63839">
        <ele>975.20001220703</ele>
        <time>2021-08-31T10:26:38Z</time>
      </trkpt>
      <trkpt lat="44.51309" lon="5.63834">
        <ele>975.20001220703</ele>
        <time>2021-08-31T10:26:41Z</time>
      </trkpt>
      <trkpt lat="44.51298" lon="5.63825">
        <ele>975.20001220703</ele>
        <time>2021-08-31T10:26:44Z</time>
      </trkpt>
      <trkpt lat="44.51274" lon="5.63805">
        <ele>974.79998779297</ele>
        <time>2021-08-31T10:26:49Z</time>
      </trkpt>
      <trkpt lat="44.51269" lon="5.638">
        <ele>974.59997558594</ele>
        <time>2021-08-31T10:26:50Z</time>
      </trkpt>
      <trkpt lat="44.51262" lon="5.63784">
        <ele>974</ele>
        <time>2021-08-31T10:26:53Z</time>
      </trkpt>
      <trkpt lat="44.5126" lon="5.63779">
        <ele>974</ele>
        <time>2021-08-31T10:26:54Z</time>
      </trkpt>
      <trkpt lat="44.51255" lon="5.63754">
        <ele>974.79998779297</ele>
        <time>2021-08-31T10:27:00Z</time>
      </trkpt>
      <trkpt lat="44.5125" lon="5.63736">
        <ele>975.79998779297</ele>
        <time>2021-08-31T10:27:06Z</time>
      </trkpt>
      <trkpt lat="44.5125" lon="5.63733">
        <ele>976</ele>
        <time>2021-08-31T10:27:07Z</time>
      </trkpt>
      <trkpt lat="44.51247" lon="5.6372">
        <ele>976.79998779297</ele>
        <time>2021-08-31T10:27:12Z</time>
      </trkpt>
      <trkpt lat="44.51246" lon="5.63718">
        <ele>976.79998779297</ele>
        <time>2021-08-31T10:27:13Z</time>
      </trkpt>
      <trkpt lat="44.51244" lon="5.63707">
        <ele>977.79998779297</ele>
        <time>2021-08-31T10:27:18Z</time>
      </trkpt>
      <trkpt lat="44.51243" lon="5.63699">
        <ele>978.40002441406</ele>
        <time>2021-08-31T10:27:21Z</time>
      </trkpt>
      <trkpt lat="44.51242" lon="5.6369">
        <ele>978.79998779297</ele>
        <time>2021-08-31T10:27:24Z</time>
      </trkpt>
      <trkpt lat="44.5124" lon="5.63685">
        <ele>979</ele>
        <time>2021-08-31T10:27:26Z</time>
      </trkpt>
      <trkpt lat="44.51239" lon="5.63675">
        <ele>979.40002441406</ele>
        <time>2021-08-31T10:27:29Z</time>
      </trkpt>
      <trkpt lat="44.51235" lon="5.63664">
        <ele>980</ele>
        <time>2021-08-31T10:27:33Z</time>
      </trkpt>
      <trkpt lat="44.51231" lon="5.63656">
        <ele>980.40002441406</ele>
        <time>2021-08-31T10:27:36Z</time>
      </trkpt>
      <trkpt lat="44.51227" lon="5.63647">
        <ele>981.20001220703</ele>
        <time>2021-08-31T10:27:40Z</time>
      </trkpt>
      <trkpt lat="44.51221" lon="5.63637">
        <ele>981.79998779297</ele>
        <time>2021-08-31T10:27:44Z</time>
      </trkpt>
      <trkpt lat="44.51214" lon="5.63624">
        <ele>982.20001220703</ele>
        <time>2021-08-31T10:27:50Z</time>
      </trkpt>
      <trkpt lat="44.51213" lon="5.63621">
        <ele>982.20001220703</ele>
        <time>2021-08-31T10:27:51Z</time>
      </trkpt>
      <trkpt lat="44.51206" lon="5.63606">
        <ele>983.20001220703</ele>
        <time>2021-08-31T10:27:57Z</time>
      </trkpt>
      <trkpt lat="44.51205" lon="5.63604">
        <ele>983.20001220703</ele>
        <time>2021-08-31T10:27:58Z</time>
      </trkpt>
      <trkpt lat="44.51197" lon="5.63587">
        <ele>984</ele>
        <time>2021-08-31T10:28:05Z</time>
      </trkpt>
      <trkpt lat="44.51195" lon="5.63586">
        <ele>984.20001220703</ele>
        <time>2021-08-31T10:28:06Z</time>
      </trkpt>
      <trkpt lat="44.51186" lon="5.63588">
        <ele>984.79998779297</ele>
        <time>2021-08-31T10:28:11Z</time>
      </trkpt>
      <trkpt lat="44.51183" lon="5.63594">
        <ele>985.40002441406</ele>
        <time>2021-08-31T10:28:14Z</time>
      </trkpt>
      <trkpt lat="44.5118" lon="5.63601">
        <ele>985.79998779297</ele>
        <time>2021-08-31T10:28:17Z</time>
      </trkpt>
      <trkpt lat="44.51176" lon="5.63614">
        <ele>986.40002441406</ele>
        <time>2021-08-31T10:28:23Z</time>
      </trkpt>
      <trkpt lat="44.51174" lon="5.63618">
        <ele>986.59997558594</ele>
        <time>2021-08-31T10:28:25Z</time>
      </trkpt>
      <trkpt lat="44.51168" lon="5.63629">
        <ele>987.40002441406</ele>
        <time>2021-08-31T10:28:30Z</time>
      </trkpt>
      <trkpt lat="44.51164" lon="5.63635">
        <ele>987.79998779297</ele>
        <time>2021-08-31T10:28:33Z</time>
      </trkpt>
      <trkpt lat="44.51158" lon="5.63646">
        <ele>988.59997558594</ele>
        <time>2021-08-31T10:28:38Z</time>
      </trkpt>
      <trkpt lat="44.51156" lon="5.63648">
        <ele>988.79998779297</ele>
        <time>2021-08-31T10:28:39Z</time>
      </trkpt>
      <trkpt lat="44.51153" lon="5.63652">
        <ele>989</ele>
        <time>2021-08-31T10:28:41Z</time>
      </trkpt>
      <trkpt lat="44.51147" lon="5.63659">
        <ele>989.59997558594</ele>
        <time>2021-08-31T10:28:45Z</time>
      </trkpt>
      <trkpt lat="44.51139" lon="5.63662">
        <ele>990.40002441406</ele>
        <time>2021-08-31T10:28:49Z</time>
      </trkpt>
      <trkpt lat="44.51134" lon="5.63662">
        <ele>990.79998779297</ele>
        <time>2021-08-31T10:28:52Z</time>
      </trkpt>
      <trkpt lat="44.5113" lon="5.6366">
        <ele>991.20001220703</ele>
        <time>2021-08-31T10:28:55Z</time>
      </trkpt>
      <trkpt lat="44.51124" lon="5.63655">
        <ele>991.79998779297</ele>
        <time>2021-08-31T10:28:59Z</time>
      </trkpt>
      <trkpt lat="44.51119" lon="5.63649">
        <ele>992.40002441406</ele>
        <time>2021-08-31T10:29:03Z</time>
      </trkpt>
      <trkpt lat="44.51116" lon="5.63645">
        <ele>993</ele>
        <time>2021-08-31T10:29:06Z</time>
      </trkpt>
      <trkpt lat="44.5111" lon="5.6364">
        <ele>993.59997558594</ele>
        <time>2021-08-31T10:29:10Z</time>
      </trkpt>
      <trkpt lat="44.51106" lon="5.63636">
        <ele>994</ele>
        <time>2021-08-31T10:29:13Z</time>
      </trkpt>
      <trkpt lat="44.51098" lon="5.6363">
        <ele>994.59997558594</ele>
        <time>2021-08-31T10:29:18Z</time>
      </trkpt>
      <trkpt lat="44.51092" lon="5.63623">
        <ele>995.20001220703</ele>
        <time>2021-08-31T10:29:22Z</time>
      </trkpt>
      <trkpt lat="44.51087" lon="5.63619">
        <ele>995.40002441406</ele>
        <time>2021-08-31T10:29:25Z</time>
      </trkpt>
      <trkpt lat="44.51081" lon="5.63612">
        <ele>996.20001220703</ele>
        <time>2021-08-31T10:29:30Z</time>
      </trkpt>
      <trkpt lat="44.51068" lon="5.63606">
        <ele>997</ele>
        <time>2021-08-31T10:29:37Z</time>
      </trkpt>
      <trkpt lat="44.51065" lon="5.63607">
        <ele>997.40002441406</ele>
        <time>2021-08-31T10:29:39Z</time>
      </trkpt>
      <trkpt lat="44.5106" lon="5.6361">
        <ele>998</ele>
        <time>2021-08-31T10:29:42Z</time>
      </trkpt>
      <trkpt lat="44.51055" lon="5.63612">
        <ele>998.40002441406</ele>
        <time>2021-08-31T10:29:45Z</time>
      </trkpt>
      <trkpt lat="44.51049" lon="5.63614">
        <ele>998.79998779297</ele>
        <time>2021-08-31T10:29:49Z</time>
      </trkpt>
      <trkpt lat="44.51041" lon="5.63615">
        <ele>999.40002441406</ele>
        <time>2021-08-31T10:29:54Z</time>
      </trkpt>
      <trkpt lat="44.51037" lon="5.63614">
        <ele>999.79998779297</ele>
        <time>2021-08-31T10:29:56Z</time>
      </trkpt>
      <trkpt lat="44.5103" lon="5.63609">
        <ele>1000.4000244141</ele>
        <time>2021-08-31T10:30:01Z</time>
      </trkpt>
      <trkpt lat="44.51026" lon="5.63605">
        <ele>1001</ele>
        <time>2021-08-31T10:30:04Z</time>
      </trkpt>
      <trkpt lat="44.51023" lon="5.63603">
        <ele>1001.5999755859</ele>
        <time>2021-08-31T10:30:06Z</time>
      </trkpt>
      <trkpt lat="44.51016" lon="5.636">
        <ele>1002</ele>
        <time>2021-08-31T10:30:10Z</time>
      </trkpt>
      <trkpt lat="44.5101" lon="5.63598">
        <ele>1002.5999755859</ele>
        <time>2021-08-31T10:30:14Z</time>
      </trkpt>
      <trkpt lat="44.51003" lon="5.63597">
        <ele>1003.200012207</ele>
        <time>2021-08-31T10:30:18Z</time>
      </trkpt>
      <trkpt lat="44.50995" lon="5.63596">
        <ele>1003.799987793</ele>
        <time>2021-08-31T10:30:23Z</time>
      </trkpt>
      <trkpt lat="44.50991" lon="5.63597">
        <ele>1004.4000244141</ele>
        <time>2021-08-31T10:30:26Z</time>
      </trkpt>
      <trkpt lat="44.50986" lon="5.63595">
        <ele>1004.799987793</ele>
        <time>2021-08-31T10:30:29Z</time>
      </trkpt>
      <trkpt lat="44.5098" lon="5.63595">
        <ele>1005.4000244141</ele>
        <time>2021-08-31T10:30:33Z</time>
      </trkpt>
      <trkpt lat="44.50976" lon="5.63595">
        <ele>1005.799987793</ele>
        <time>2021-08-31T10:30:36Z</time>
      </trkpt>
      <trkpt lat="44.50965" lon="5.63594">
        <ele>1006.799987793</ele>
        <time>2021-08-31T10:30:42Z</time>
      </trkpt>
      <trkpt lat="44.50963" lon="5.63594">
        <ele>1007</ele>
        <time>2021-08-31T10:30:43Z</time>
      </trkpt>
      <trkpt lat="44.50948" lon="5.63592">
        <ele>1008</ele>
        <time>2021-08-31T10:30:51Z</time>
      </trkpt>
      <trkpt lat="44.50947" lon="5.63593">
        <ele>1008</ele>
        <time>2021-08-31T10:30:52Z</time>
      </trkpt>
      <trkpt lat="44.50945" lon="5.63594">
        <ele>1008.200012207</ele>
        <time>2021-08-31T10:30:53Z</time>
      </trkpt>
      <trkpt lat="44.50944" lon="5.636">
        <ele>1008.5999755859</ele>
        <time>2021-08-31T10:30:56Z</time>
      </trkpt>
      <trkpt lat="44.50947" lon="5.63607">
        <ele>1009</ele>
        <time>2021-08-31T10:31:00Z</time>
      </trkpt>
      <trkpt lat="44.50948" lon="5.63608">
        <ele>1009.200012207</ele>
        <time>2021-08-31T10:31:01Z</time>
      </trkpt>
      <trkpt lat="44.5095" lon="5.63609">
        <ele>1009.4000244141</ele>
        <time>2021-08-31T10:31:02Z</time>
      </trkpt>
      <trkpt lat="44.5096" lon="5.63611">
        <ele>1009.799987793</ele>
        <time>2021-08-31T10:31:09Z</time>
      </trkpt>
      <trkpt lat="44.50966" lon="5.63613">
        <ele>1010.200012207</ele>
        <time>2021-08-31T10:31:13Z</time>
      </trkpt>
      <trkpt lat="44.5097" lon="5.63614">
        <ele>1010.799987793</ele>
        <time>2021-08-31T10:31:16Z</time>
      </trkpt>
      <trkpt lat="44.50975" lon="5.63616">
        <ele>1011.200012207</ele>
        <time>2021-08-31T10:31:19Z</time>
      </trkpt>
      <trkpt lat="44.50977" lon="5.63616">
        <ele>1011.4000244141</ele>
        <time>2021-08-31T10:31:20Z</time>
      </trkpt>
      <trkpt lat="44.50982" lon="5.63619">
        <ele>1011.5999755859</ele>
        <time>2021-08-31T10:31:23Z</time>
      </trkpt>
      <trkpt lat="44.50989" lon="5.63624">
        <ele>1012.200012207</ele>
        <time>2021-08-31T10:31:28Z</time>
      </trkpt>
      <trkpt lat="44.50991" lon="5.63625">
        <ele>1012.4000244141</ele>
        <time>2021-08-31T10:31:29Z</time>
      </trkpt>
      <trkpt lat="44.50994" lon="5.63626">
        <ele>1012.5999755859</ele>
        <time>2021-08-31T10:31:31Z</time>
      </trkpt>
      <trkpt lat="44.50998" lon="5.63629">
        <ele>1012.799987793</ele>
        <time>2021-08-31T10:31:34Z</time>
      </trkpt>
      <trkpt lat="44.51006" lon="5.63641">
        <ele>1013.4000244141</ele>
        <time>2021-08-31T10:31:41Z</time>
      </trkpt>
      <trkpt lat="44.51007" lon="5.63643">
        <ele>1013.799987793</ele>
        <time>2021-08-31T10:31:42Z</time>
      </trkpt>
      <trkpt lat="44.51016" lon="5.63656">
        <ele>1014.5999755859</ele>
        <time>2021-08-31T10:31:49Z</time>
      </trkpt>
      <trkpt lat="44.51018" lon="5.63658">
        <ele>1014.799987793</ele>
        <time>2021-08-31T10:31:51Z</time>
      </trkpt>
      <trkpt lat="44.51025" lon="5.6366">
        <ele>1015.4000244141</ele>
        <time>2021-08-31T10:31:55Z</time>
      </trkpt>
      <trkpt lat="44.51034" lon="5.63662">
        <ele>1016</ele>
        <time>2021-08-31T10:32:01Z</time>
      </trkpt>
      <trkpt lat="44.51038" lon="5.63663">
        <ele>1016.4000244141</ele>
        <time>2021-08-31T10:32:03Z</time>
      </trkpt>
      <trkpt lat="44.51044" lon="5.63663">
        <ele>1017.200012207</ele>
        <time>2021-08-31T10:32:07Z</time>
      </trkpt>
      <trkpt lat="44.51049" lon="5.63667">
        <ele>1017.200012207</ele>
        <time>2021-08-31T10:32:10Z</time>
      </trkpt>
      <trkpt lat="44.51051" lon="5.63671">
        <ele>1017.4000244141</ele>
        <time>2021-08-31T10:32:12Z</time>
      </trkpt>
      <trkpt lat="44.51053" lon="5.63679">
        <ele>1018.200012207</ele>
        <time>2021-08-31T10:32:15Z</time>
      </trkpt>
      <trkpt lat="44.51053" lon="5.63696">
        <ele>1019</ele>
        <time>2021-08-31T10:32:22Z</time>
      </trkpt>
      <trkpt lat="44.51054" lon="5.63701">
        <ele>1019.200012207</ele>
        <time>2021-08-31T10:32:24Z</time>
      </trkpt>
      <trkpt lat="44.51054" lon="5.63706">
        <ele>1019.5999755859</ele>
        <time>2021-08-31T10:32:26Z</time>
      </trkpt>
      <trkpt lat="44.51054" lon="5.63711">
        <ele>1019.799987793</ele>
        <time>2021-08-31T10:32:28Z</time>
      </trkpt>
      <trkpt lat="44.51054" lon="5.63716">
        <ele>1020.200012207</ele>
        <time>2021-08-31T10:32:30Z</time>
      </trkpt>
      <trkpt lat="44.51054" lon="5.63728">
        <ele>1020.799987793</ele>
        <time>2021-08-31T10:32:34Z</time>
      </trkpt>
      <trkpt lat="44.51054" lon="5.63737">
        <ele>1021.4000244141</ele>
        <time>2021-08-31T10:32:37Z</time>
      </trkpt>
      <trkpt lat="44.51056" lon="5.63748">
        <ele>1022</ele>
        <time>2021-08-31T10:32:41Z</time>
      </trkpt>
      <trkpt lat="44.51058" lon="5.63757">
        <ele>1022.4000244141</ele>
        <time>2021-08-31T10:32:44Z</time>
      </trkpt>
      <trkpt lat="44.51059" lon="5.63774">
        <ele>1023.4000244141</ele>
        <time>2021-08-31T10:32:50Z</time>
      </trkpt>
      <trkpt lat="44.5106" lon="5.63776">
        <ele>1023.5999755859</ele>
        <time>2021-08-31T10:32:51Z</time>
      </trkpt>
      <trkpt lat="44.51062" lon="5.63794">
        <ele>1024.5999755859</ele>
        <time>2021-08-31T10:32:57Z</time>
      </trkpt>
      <trkpt lat="44.51066" lon="5.63817">
        <ele>1025.5999755859</ele>
        <time>2021-08-31T10:33:06Z</time>
      </trkpt>
      <trkpt lat="44.51069" lon="5.63831">
        <ele>1026.5999755859</ele>
        <time>2021-08-31T10:33:12Z</time>
      </trkpt>
      <trkpt lat="44.5107" lon="5.63834">
        <ele>1026.8000488281</ele>
        <time>2021-08-31T10:33:13Z</time>
      </trkpt>
      <trkpt lat="44.51074" lon="5.63852">
        <ele>1027.5999755859</ele>
        <time>2021-08-31T10:33:20Z</time>
      </trkpt>
      <trkpt lat="44.51075" lon="5.63857">
        <ele>1027.8000488281</ele>
        <time>2021-08-31T10:33:22Z</time>
      </trkpt>
      <trkpt lat="44.5108" lon="5.63874">
        <ele>1028.8000488281</ele>
        <time>2021-08-31T10:33:29Z</time>
      </trkpt>
      <trkpt lat="44.51081" lon="5.63877">
        <ele>1028.8000488281</ele>
        <time>2021-08-31T10:33:30Z</time>
      </trkpt>
      <trkpt lat="44.51083" lon="5.63896">
        <ele>1029.5999755859</ele>
        <time>2021-08-31T10:33:37Z</time>
      </trkpt>
      <trkpt lat="44.51083" lon="5.63902">
        <ele>1030</ele>
        <time>2021-08-31T10:33:39Z</time>
      </trkpt>
      <trkpt lat="44.51078" lon="5.63917">
        <ele>1031</ele>
        <time>2021-08-31T10:33:45Z</time>
      </trkpt>
      <trkpt lat="44.51077" lon="5.63919">
        <ele>1031</ele>
        <time>2021-08-31T10:33:46Z</time>
      </trkpt>
      <trkpt lat="44.51074" lon="5.63923">
        <ele>1031.4000244141</ele>
        <time>2021-08-31T10:33:49Z</time>
      </trkpt>
      <trkpt lat="44.51068" lon="5.63929">
        <ele>1032</ele>
        <time>2021-08-31T10:33:53Z</time>
      </trkpt>
      <trkpt lat="44.51065" lon="5.63933">
        <ele>1032.1999511719</ele>
        <time>2021-08-31T10:33:55Z</time>
      </trkpt>
      <trkpt lat="44.51058" lon="5.63944">
        <ele>1032.8000488281</ele>
        <time>2021-08-31T10:34:01Z</time>
      </trkpt>
      <trkpt lat="44.51052" lon="5.6395">
        <ele>1033.1999511719</ele>
        <time>2021-08-31T10:34:05Z</time>
      </trkpt>
      <trkpt lat="44.51047" lon="5.63956">
        <ele>1033.8000488281</ele>
        <time>2021-08-31T10:34:09Z</time>
      </trkpt>
      <trkpt lat="44.51042" lon="5.63961">
        <ele>1034.1999511719</ele>
        <time>2021-08-31T10:34:12Z</time>
      </trkpt>
      <trkpt lat="44.51037" lon="5.63968">
        <ele>1034.8000488281</ele>
        <time>2021-08-31T10:34:16Z</time>
      </trkpt>
      <trkpt lat="44.51032" lon="5.63975">
        <ele>1035.1999511719</ele>
        <time>2021-08-31T10:34:20Z</time>
      </trkpt>
      <trkpt lat="44.51029" lon="5.63981">
        <ele>1035.5999755859</ele>
        <time>2021-08-31T10:34:23Z</time>
      </trkpt>
      <trkpt lat="44.51026" lon="5.63992">
        <ele>1036.4000244141</ele>
        <time>2021-08-31T10:34:28Z</time>
      </trkpt>
      <trkpt lat="44.51021" lon="5.64007">
        <ele>1037.4000244141</ele>
        <time>2021-08-31T10:34:35Z</time>
      </trkpt>
      <trkpt lat="44.51015" lon="5.64023">
        <ele>1038.5999755859</ele>
        <time>2021-08-31T10:34:42Z</time>
      </trkpt>
      <trkpt lat="44.51013" lon="5.64027">
        <ele>1038.8000488281</ele>
        <time>2021-08-31T10:34:44Z</time>
      </trkpt>
      <trkpt lat="44.51008" lon="5.64041">
        <ele>1039.5999755859</ele>
        <time>2021-08-31T10:34:50Z</time>
      </trkpt>
      <trkpt lat="44.51004" lon="5.64048">
        <ele>1040.1999511719</ele>
        <time>2021-08-31T10:34:53Z</time>
      </trkpt>
      <trkpt lat="44.50998" lon="5.64058">
        <ele>1040.8000488281</ele>
        <time>2021-08-31T10:34:58Z</time>
      </trkpt>
      <trkpt lat="44.50992" lon="5.64064">
        <ele>1041.4000244141</ele>
        <time>2021-08-31T10:35:02Z</time>
      </trkpt>
      <trkpt lat="44.50985" lon="5.64073">
        <ele>1041.8000488281</ele>
        <time>2021-08-31T10:35:07Z</time>
      </trkpt>
      <trkpt lat="44.5098" lon="5.64081">
        <ele>1042.4000244141</ele>
        <time>2021-08-31T10:35:11Z</time>
      </trkpt>
      <trkpt lat="44.50975" lon="5.64088">
        <ele>1043</ele>
        <time>2021-08-31T10:35:15Z</time>
      </trkpt>
      <trkpt lat="44.50966" lon="5.64097">
        <ele>1043.4000244141</ele>
        <time>2021-08-31T10:35:20Z</time>
      </trkpt>
      <trkpt lat="44.50958" lon="5.64103">
        <ele>1044</ele>
        <time>2021-08-31T10:35:25Z</time>
      </trkpt>
      <trkpt lat="44.50954" lon="5.64105">
        <ele>1044.1999511719</ele>
        <time>2021-08-31T10:35:27Z</time>
      </trkpt>
      <trkpt lat="44.50946" lon="5.64111">
        <ele>1045</ele>
        <time>2021-08-31T10:35:33Z</time>
      </trkpt>
      <trkpt lat="44.50943" lon="5.64113">
        <ele>1045.4000244141</ele>
        <time>2021-08-31T10:35:35Z</time>
      </trkpt>
      <trkpt lat="44.50931" lon="5.64123">
        <ele>1046.1999511719</ele>
        <time>2021-08-31T10:35:42Z</time>
      </trkpt>
      <trkpt lat="44.50922" lon="5.64135">
        <ele>1047</ele>
        <time>2021-08-31T10:35:49Z</time>
      </trkpt>
      <trkpt lat="44.50921" lon="5.64137">
        <ele>1047.1999511719</ele>
        <time>2021-08-31T10:35:50Z</time>
      </trkpt>
      <trkpt lat="44.50914" lon="5.64151">
        <ele>1048.4000244141</ele>
        <time>2021-08-31T10:35:57Z</time>
      </trkpt>
      <trkpt lat="44.50912" lon="5.64153">
        <ele>1048.4000244141</ele>
        <time>2021-08-31T10:35:58Z</time>
      </trkpt>
      <trkpt lat="44.50899" lon="5.64168">
        <ele>1049.4000244141</ele>
        <time>2021-08-31T10:36:06Z</time>
      </trkpt>
      <trkpt lat="44.50896" lon="5.64171">
        <ele>1049.5999755859</ele>
        <time>2021-08-31T10:36:08Z</time>
      </trkpt>
      <trkpt lat="44.50887" lon="5.64181">
        <ele>1050.4000244141</ele>
        <time>2021-08-31T10:36:14Z</time>
      </trkpt>
      <trkpt lat="44.50885" lon="5.64183">
        <ele>1050.5999755859</ele>
        <time>2021-08-31T10:36:15Z</time>
      </trkpt>
      <trkpt lat="44.50878" lon="5.6419">
        <ele>1051.4000244141</ele>
        <time>2021-08-31T10:36:20Z</time>
      </trkpt>
      <trkpt lat="44.50873" lon="5.64196">
        <ele>1052</ele>
        <time>2021-08-31T10:36:24Z</time>
      </trkpt>
      <trkpt lat="44.50868" lon="5.64204">
        <ele>1052.4000244141</ele>
        <time>2021-08-31T10:36:28Z</time>
      </trkpt>
      <trkpt lat="44.50862" lon="5.64209">
        <ele>1053</ele>
        <time>2021-08-31T10:36:32Z</time>
      </trkpt>
      <trkpt lat="44.50858" lon="5.64215">
        <ele>1053.5999755859</ele>
        <time>2021-08-31T10:36:35Z</time>
      </trkpt>
      <trkpt lat="44.50851" lon="5.64226">
        <ele>1054.4000244141</ele>
        <time>2021-08-31T10:36:41Z</time>
      </trkpt>
      <trkpt lat="44.5085" lon="5.64228">
        <ele>1054.5999755859</ele>
        <time>2021-08-31T10:36:42Z</time>
      </trkpt>
      <trkpt lat="44.50843" lon="5.64242">
        <ele>1055.5999755859</ele>
        <time>2021-08-31T10:36:49Z</time>
      </trkpt>
      <trkpt lat="44.50836" lon="5.64257">
        <ele>1056.5999755859</ele>
        <time>2021-08-31T10:36:56Z</time>
      </trkpt>
      <trkpt lat="44.50827" lon="5.64274">
        <ele>1057.8000488281</ele>
        <time>2021-08-31T10:37:04Z</time>
      </trkpt>
      <trkpt lat="44.50822" lon="5.64293">
        <ele>1059</ele>
        <time>2021-08-31T10:37:12Z</time>
      </trkpt>
      <trkpt lat="44.50822" lon="5.64313">
        <ele>1060.1999511719</ele>
        <time>2021-08-31T10:37:20Z</time>
      </trkpt>
      <trkpt lat="44.50824" lon="5.64329">
        <ele>1061.1999511719</ele>
        <time>2021-08-31T10:37:26Z</time>
      </trkpt>
      <trkpt lat="44.50823" lon="5.64331">
        <ele>1061.4000244141</ele>
        <time>2021-08-31T10:37:27Z</time>
      </trkpt>
      <trkpt lat="44.50818" lon="5.64344">
        <ele>1062.1999511719</ele>
        <time>2021-08-31T10:37:33Z</time>
      </trkpt>
      <trkpt lat="44.50817" lon="5.64346">
        <ele>1062.4000244141</ele>
        <time>2021-08-31T10:37:34Z</time>
      </trkpt>
      <trkpt lat="44.50809" lon="5.6436">
        <ele>1063.1999511719</ele>
        <time>2021-08-31T10:37:41Z</time>
      </trkpt>
      <trkpt lat="44.50807" lon="5.64361">
        <ele>1063.4000244141</ele>
        <time>2021-08-31T10:37:42Z</time>
      </trkpt>
      <trkpt lat="44.50797" lon="5.64375">
        <ele>1064.4000244141</ele>
        <time>2021-08-31T10:37:49Z</time>
      </trkpt>
      <trkpt lat="44.50795" lon="5.64377">
        <ele>1064.5999755859</ele>
        <time>2021-08-31T10:37:50Z</time>
      </trkpt>
      <trkpt lat="44.5078" lon="5.64388">
        <ele>1065.4000244141</ele>
        <time>2021-08-31T10:37:58Z</time>
      </trkpt>
      <trkpt lat="44.50777" lon="5.64391">
        <ele>1065.5999755859</ele>
        <time>2021-08-31T10:38:00Z</time>
      </trkpt>
      <trkpt lat="44.50767" lon="5.64398">
        <ele>1066.5999755859</ele>
        <time>2021-08-31T10:38:06Z</time>
      </trkpt>
      <trkpt lat="44.50764" lon="5.64401">
        <ele>1066.8000488281</ele>
        <time>2021-08-31T10:38:08Z</time>
      </trkpt>
      <trkpt lat="44.50752" lon="5.64406">
        <ele>1067.8000488281</ele>
        <time>2021-08-31T10:38:15Z</time>
      </trkpt>
      <trkpt lat="44.50749" lon="5.64408">
        <ele>1067.8000488281</ele>
        <time>2021-08-31T10:38:17Z</time>
      </trkpt>
      <trkpt lat="44.50743" lon="5.64413">
        <ele>1068.4000244141</ele>
        <time>2021-08-31T10:38:21Z</time>
      </trkpt>
      <trkpt lat="44.50738" lon="5.64417">
        <ele>1069</ele>
        <time>2021-08-31T10:38:25Z</time>
      </trkpt>
      <trkpt lat="44.50733" lon="5.64419">
        <ele>1069.4000244141</ele>
        <time>2021-08-31T10:38:28Z</time>
      </trkpt>
      <trkpt lat="44.50723" lon="5.6443">
        <ele>1070.1999511719</ele>
        <time>2021-08-31T10:38:34Z</time>
      </trkpt>
      <trkpt lat="44.50716" lon="5.64439">
        <ele>1071.1999511719</ele>
        <time>2021-08-31T10:38:40Z</time>
      </trkpt>
      <trkpt lat="44.50713" lon="5.64442">
        <ele>1071.4000244141</ele>
        <time>2021-08-31T10:38:42Z</time>
      </trkpt>
      <trkpt lat="44.50705" lon="5.64452">
        <ele>1072.4000244141</ele>
        <time>2021-08-31T10:38:49Z</time>
      </trkpt>
      <trkpt lat="44.50703" lon="5.64455">
        <ele>1072.8000488281</ele>
        <time>2021-08-31T10:38:51Z</time>
      </trkpt>
      <trkpt lat="44.50699" lon="5.64462">
        <ele>1073.5999755859</ele>
        <time>2021-08-31T10:38:56Z</time>
      </trkpt>
      <trkpt lat="44.50696" lon="5.64467">
        <ele>1074</ele>
        <time>2021-08-31T10:38:59Z</time>
      </trkpt>
      <trkpt lat="44.50692" lon="5.64477">
        <ele>1074.5999755859</ele>
        <time>2021-08-31T10:39:04Z</time>
      </trkpt>
      <trkpt lat="44.5069" lon="5.64479">
        <ele>1074.5999755859</ele>
        <time>2021-08-31T10:39:05Z</time>
      </trkpt>
      <trkpt lat="44.50687" lon="5.64482">
        <ele>1075</ele>
        <time>2021-08-31T10:39:07Z</time>
      </trkpt>
      <trkpt lat="44.50678" lon="5.64494">
        <ele>1075.8000488281</ele>
        <time>2021-08-31T10:39:14Z</time>
      </trkpt>
      <trkpt lat="44.50671" lon="5.64506">
        <ele>1077</ele>
        <time>2021-08-31T10:39:20Z</time>
      </trkpt>
      <trkpt lat="44.50658" lon="5.64511">
        <ele>1078.1999511719</ele>
        <time>2021-08-31T10:39:27Z</time>
      </trkpt>
      <trkpt lat="44.50649" lon="5.64502">
        <ele>1079</ele>
        <time>2021-08-31T10:39:33Z</time>
      </trkpt>
      <trkpt lat="44.50648" lon="5.64499">
        <ele>1079.1999511719</ele>
        <time>2021-08-31T10:39:34Z</time>
      </trkpt>
      <trkpt lat="44.50649" lon="5.64488">
        <ele>1079.5999755859</ele>
        <time>2021-08-31T10:39:38Z</time>
      </trkpt>
      <trkpt lat="44.50657" lon="5.64474">
        <ele>1080.1999511719</ele>
        <time>2021-08-31T10:39:45Z</time>
      </trkpt>
      <trkpt lat="44.5066" lon="5.64469">
        <ele>1080.1999511719</ele>
        <time>2021-08-31T10:39:47Z</time>
      </trkpt>
      <trkpt lat="44.50665" lon="5.64459">
        <ele>1081.1999511719</ele>
        <time>2021-08-31T10:39:52Z</time>
      </trkpt>
      <trkpt lat="44.50666" lon="5.64456">
        <ele>1081.4000244141</ele>
        <time>2021-08-31T10:39:53Z</time>
      </trkpt>
      <trkpt lat="44.50673" lon="5.64441">
        <ele>1082.4000244141</ele>
        <time>2021-08-31T10:39:59Z</time>
      </trkpt>
      <trkpt lat="44.5068" lon="5.6442">
        <ele>1083.5999755859</ele>
        <time>2021-08-31T10:40:08Z</time>
      </trkpt>
      <trkpt lat="44.50687" lon="5.64398">
        <ele>1084.5999755859</ele>
        <time>2021-08-31T10:40:16Z</time>
      </trkpt>
      <trkpt lat="44.50688" lon="5.64395">
        <ele>1084.5999755859</ele>
        <time>2021-08-31T10:40:17Z</time>
      </trkpt>
      <trkpt lat="44.50687" lon="5.64381">
        <ele>1085.1999511719</ele>
        <time>2021-08-31T10:40:23Z</time>
      </trkpt>
      <trkpt lat="44.5068" lon="5.64384">
        <ele>1085.5999755859</ele>
        <time>2021-08-31T10:40:27Z</time>
      </trkpt>
      <trkpt lat="44.50676" lon="5.64387">
        <ele>1085.5999755859</ele>
        <time>2021-08-31T10:40:29Z</time>
      </trkpt>
      <trkpt lat="44.50671" lon="5.64394">
        <ele>1086</ele>
        <time>2021-08-31T10:40:32Z</time>
      </trkpt>
      <trkpt lat="44.5067" lon="5.64397">
        <ele>1086</ele>
        <time>2021-08-31T10:40:33Z</time>
      </trkpt>
      <trkpt lat="44.50663" lon="5.64412">
        <ele>1086.8000488281</ele>
        <time>2021-08-31T10:40:40Z</time>
      </trkpt>
      <trkpt lat="44.50661" lon="5.64414">
        <ele>1087</ele>
        <time>2021-08-31T10:40:41Z</time>
      </trkpt>
      <trkpt lat="44.50653" lon="5.64425">
        <ele>1088</ele>
        <time>2021-08-31T10:40:48Z</time>
      </trkpt>
      <trkpt lat="44.50646" lon="5.64439">
        <ele>1088.8000488281</ele>
        <time>2021-08-31T10:40:55Z</time>
      </trkpt>
      <trkpt lat="44.50645" lon="5.64441">
        <ele>1089.1999511719</ele>
        <time>2021-08-31T10:40:56Z</time>
      </trkpt>
      <trkpt lat="44.50636" lon="5.64454">
        <ele>1090</ele>
        <time>2021-08-31T10:41:03Z</time>
      </trkpt>
      <trkpt lat="44.50635" lon="5.64456">
        <ele>1090.1999511719</ele>
        <time>2021-08-31T10:41:04Z</time>
      </trkpt>
      <trkpt lat="44.50628" lon="5.6447">
        <ele>1091.1999511719</ele>
        <time>2021-08-31T10:41:11Z</time>
      </trkpt>
      <trkpt lat="44.5062" lon="5.64483">
        <ele>1092.1999511719</ele>
        <time>2021-08-31T10:41:18Z</time>
      </trkpt>
      <trkpt lat="44.5061" lon="5.64493">
        <ele>1093.1999511719</ele>
        <time>2021-08-31T10:41:25Z</time>
      </trkpt>
      <trkpt lat="44.50609" lon="5.64495">
        <ele>1093.4000244141</ele>
        <time>2021-08-31T10:41:26Z</time>
      </trkpt>
      <trkpt lat="44.506" lon="5.64503">
        <ele>1094</ele>
        <time>2021-08-31T10:41:33Z</time>
      </trkpt>
      <trkpt lat="44.50596" lon="5.64506">
        <ele>1094.4000244141</ele>
        <time>2021-08-31T10:41:36Z</time>
      </trkpt>
      <trkpt lat="44.50589" lon="5.6451">
        <ele>1095.4000244141</ele>
        <time>2021-08-31T10:41:41Z</time>
      </trkpt>
      <trkpt lat="44.50588" lon="5.64511">
        <ele>1095.4000244141</ele>
        <time>2021-08-31T10:41:42Z</time>
      </trkpt>
      <trkpt lat="44.50578" lon="5.6452">
        <ele>1096.5999755859</ele>
        <time>2021-08-31T10:41:49Z</time>
      </trkpt>
      <trkpt lat="44.50566" lon="5.64535">
        <ele>1097.5999755859</ele>
        <time>2021-08-31T10:41:57Z</time>
      </trkpt>
      <trkpt lat="44.5056" lon="5.6455">
        <ele>1098.8000488281</ele>
        <time>2021-08-31T10:42:04Z</time>
      </trkpt>
      <trkpt lat="44.50558" lon="5.64567">
        <ele>1099.8000488281</ele>
        <time>2021-08-31T10:42:11Z</time>
      </trkpt>
      <trkpt lat="44.50562" lon="5.64589">
        <ele>1100.8000488281</ele>
        <time>2021-08-31T10:42:19Z</time>
      </trkpt>
      <trkpt lat="44.50565" lon="5.64606">
        <ele>1102</ele>
        <time>2021-08-31T10:42:26Z</time>
      </trkpt>
      <trkpt lat="44.50567" lon="5.64611">
        <ele>1102.1999511719</ele>
        <time>2021-08-31T10:42:28Z</time>
      </trkpt>
      <trkpt lat="44.50567" lon="5.64621">
        <ele>1103</ele>
        <time>2021-08-31T10:42:32Z</time>
      </trkpt>
      <trkpt lat="44.50566" lon="5.6463">
        <ele>1103.4000244141</ele>
        <time>2021-08-31T10:42:36Z</time>
      </trkpt>
      <trkpt lat="44.50563" lon="5.64648">
        <ele>1103.8000488281</ele>
        <time>2021-08-31T10:42:43Z</time>
      </trkpt>
      <trkpt lat="44.50561" lon="5.64652">
        <ele>1104.1999511719</ele>
        <time>2021-08-31T10:42:45Z</time>
      </trkpt>
      <trkpt lat="44.50555" lon="5.64663">
        <ele>1104.8000488281</ele>
        <time>2021-08-31T10:42:51Z</time>
      </trkpt>
      <trkpt lat="44.50552" lon="5.64667">
        <ele>1105.1999511719</ele>
        <time>2021-08-31T10:42:53Z</time>
      </trkpt>
      <trkpt lat="44.50546" lon="5.64676">
        <ele>1106.1999511719</ele>
        <time>2021-08-31T10:42:59Z</time>
      </trkpt>
      <trkpt lat="44.50537" lon="5.64688">
        <ele>1107.1999511719</ele>
        <time>2021-08-31T10:43:06Z</time>
      </trkpt>
      <trkpt lat="44.50526" lon="5.64699">
        <ele>1108</ele>
        <time>2021-08-31T10:43:13Z</time>
      </trkpt>
      <trkpt lat="44.50523" lon="5.64702">
        <ele>1108.4000244141</ele>
        <time>2021-08-31T10:43:15Z</time>
      </trkpt>
      <trkpt lat="44.50516" lon="5.64708">
        <ele>1108.5999755859</ele>
        <time>2021-08-31T10:43:19Z</time>
      </trkpt>
      <trkpt lat="44.50515" lon="5.6471">
        <ele>1108.8000488281</ele>
        <time>2021-08-31T10:43:20Z</time>
      </trkpt>
      <trkpt lat="44.50507" lon="5.6472">
        <ele>1109.4000244141</ele>
        <time>2021-08-31T10:43:25Z</time>
      </trkpt>
      <trkpt lat="44.50502" lon="5.64725">
        <ele>1109.8000488281</ele>
        <time>2021-08-31T10:43:28Z</time>
      </trkpt>
      <trkpt lat="44.50486" lon="5.64742">
        <ele>1110.4000244141</ele>
        <time>2021-08-31T10:43:38Z</time>
      </trkpt>
      <trkpt lat="44.50483" lon="5.64747">
        <ele>1110.4000244141</ele>
        <time>2021-08-31T10:43:40Z</time>
      </trkpt>
      <trkpt lat="44.50479" lon="5.64752">
        <ele>1110.8000488281</ele>
        <time>2021-08-31T10:43:43Z</time>
      </trkpt>
      <trkpt lat="44.50479" lon="5.64758">
        <ele>1111</ele>
        <time>2021-08-31T10:43:45Z</time>
      </trkpt>
      <trkpt lat="44.50479" lon="5.64769">
        <ele>1111.4000244141</ele>
        <time>2021-08-31T10:43:49Z</time>
      </trkpt>
      <trkpt lat="44.50479" lon="5.64774">
        <ele>1111.8000488281</ele>
        <time>2021-08-31T10:43:51Z</time>
      </trkpt>
      <trkpt lat="44.50479" lon="5.64777">
        <ele>1112</ele>
        <time>2021-08-31T10:43:52Z</time>
      </trkpt>
      <trkpt lat="44.5048" lon="5.64793">
        <ele>1112.5999755859</ele>
        <time>2021-08-31T10:43:58Z</time>
      </trkpt>
      <trkpt lat="44.50481" lon="5.64798">
        <ele>1112.8000488281</ele>
        <time>2021-08-31T10:44:00Z</time>
      </trkpt>
      <trkpt lat="44.50484" lon="5.64815">
        <ele>1113.5999755859</ele>
        <time>2021-08-31T10:44:07Z</time>
      </trkpt>
      <trkpt lat="44.50486" lon="5.64822">
        <ele>1114.1999511719</ele>
        <time>2021-08-31T10:44:10Z</time>
      </trkpt>
      <trkpt lat="44.50487" lon="5.64832">
        <ele>1114.5999755859</ele>
        <time>2021-08-31T10:44:14Z</time>
      </trkpt>
      <trkpt lat="44.50489" lon="5.64841">
        <ele>1115.1999511719</ele>
        <time>2021-08-31T10:44:18Z</time>
      </trkpt>
      <trkpt lat="44.50491" lon="5.6485">
        <ele>1115.5999755859</ele>
        <time>2021-08-31T10:44:22Z</time>
      </trkpt>
      <trkpt lat="44.50493" lon="5.64861">
        <ele>1116.4000244141</ele>
        <time>2021-08-31T10:44:26Z</time>
      </trkpt>
      <trkpt lat="44.50497" lon="5.64872">
        <ele>1116.8000488281</ele>
        <time>2021-08-31T10:44:30Z</time>
      </trkpt>
      <trkpt lat="44.50501" lon="5.64877">
        <ele>1117</ele>
        <time>2021-08-31T10:44:33Z</time>
      </trkpt>
      <trkpt lat="44.5051" lon="5.6489">
        <ele>1117.8000488281</ele>
        <time>2021-08-31T10:44:40Z</time>
      </trkpt>
      <trkpt lat="44.50512" lon="5.64892">
        <ele>1118</ele>
        <time>2021-08-31T10:44:41Z</time>
      </trkpt>
      <trkpt lat="44.5052" lon="5.64906">
        <ele>1119</ele>
        <time>2021-08-31T10:44:47Z</time>
      </trkpt>
      <trkpt lat="44.50523" lon="5.64911">
        <ele>1119.1999511719</ele>
        <time>2021-08-31T10:44:49Z</time>
      </trkpt>
      <trkpt lat="44.50532" lon="5.64923">
        <ele>1120</ele>
        <time>2021-08-31T10:44:55Z</time>
      </trkpt>
      <trkpt lat="44.50535" lon="5.64927">
        <ele>1120.1999511719</ele>
        <time>2021-08-31T10:44:57Z</time>
      </trkpt>
      <trkpt lat="44.50545" lon="5.6493">
        <ele>1121</ele>
        <time>2021-08-31T10:45:02Z</time>
      </trkpt>
      <trkpt lat="44.50547" lon="5.64929">
        <ele>1121.1999511719</ele>
        <time>2021-08-31T10:45:03Z</time>
      </trkpt>
      <trkpt lat="44.50556" lon="5.64923">
        <ele>1122.1999511719</ele>
        <time>2021-08-31T10:45:08Z</time>
      </trkpt>
      <trkpt lat="44.50558" lon="5.64922">
        <ele>1122.4000244141</ele>
        <time>2021-08-31T10:45:09Z</time>
      </trkpt>
      <trkpt lat="44.5057" lon="5.6492">
        <ele>1123.1999511719</ele>
        <time>2021-08-31T10:45:15Z</time>
      </trkpt>
      <trkpt lat="44.50582" lon="5.64919">
        <ele>1124.1999511719</ele>
        <time>2021-08-31T10:45:21Z</time>
      </trkpt>
      <trkpt lat="44.50587" lon="5.64919">
        <ele>1124.5999755859</ele>
        <time>2021-08-31T10:45:24Z</time>
      </trkpt>
      <trkpt lat="44.506" lon="5.64921">
        <ele>1125.4000244141</ele>
        <time>2021-08-31T10:45:30Z</time>
      </trkpt>
      <trkpt lat="44.50606" lon="5.6492">
        <ele>1125.5999755859</ele>
        <time>2021-08-31T10:45:33Z</time>
      </trkpt>
      <trkpt lat="44.50618" lon="5.64919">
        <ele>1126.4000244141</ele>
        <time>2021-08-31T10:45:39Z</time>
      </trkpt>
      <trkpt lat="44.50624" lon="5.64917">
        <ele>1126.8000488281</ele>
        <time>2021-08-31T10:45:42Z</time>
      </trkpt>
      <trkpt lat="44.50637" lon="5.64911">
        <ele>1127.8000488281</ele>
        <time>2021-08-31T10:45:48Z</time>
      </trkpt>
      <trkpt lat="44.50641" lon="5.64912">
        <ele>1128</ele>
        <time>2021-08-31T10:45:50Z</time>
      </trkpt>
      <trkpt lat="44.50656" lon="5.64919">
        <ele>1128.5999755859</ele>
        <time>2021-08-31T10:45:57Z</time>
      </trkpt>
      <trkpt lat="44.50658" lon="5.6492">
        <ele>1128.8000488281</ele>
        <time>2021-08-31T10:45:58Z</time>
      </trkpt>
      <trkpt lat="44.5067" lon="5.64932">
        <ele>1129.5999755859</ele>
        <time>2021-08-31T10:46:05Z</time>
      </trkpt>
      <trkpt lat="44.50673" lon="5.64937">
        <ele>1129.8000488281</ele>
        <time>2021-08-31T10:46:07Z</time>
      </trkpt>
      <trkpt lat="44.50681" lon="5.64948">
        <ele>1130.8000488281</ele>
        <time>2021-08-31T10:46:13Z</time>
      </trkpt>
      <trkpt lat="44.50689" lon="5.64956">
        <ele>1132</ele>
        <time>2021-08-31T10:46:19Z</time>
      </trkpt>
      <trkpt lat="44.50695" lon="5.64964">
        <ele>1132.5999755859</ele>
        <time>2021-08-31T10:46:23Z</time>
      </trkpt>
      <trkpt lat="44.507" lon="5.6497">
        <ele>1133</ele>
        <time>2021-08-31T10:46:26Z</time>
      </trkpt>
      <trkpt lat="44.50709" lon="5.64975">
        <ele>1133.5999755859</ele>
        <time>2021-08-31T10:46:31Z</time>
      </trkpt>
      <trkpt lat="44.50712" lon="5.64978">
        <ele>1134</ele>
        <time>2021-08-31T10:46:33Z</time>
      </trkpt>
      <trkpt lat="44.50723" lon="5.64983">
        <ele>1134.8000488281</ele>
        <time>2021-08-31T10:46:39Z</time>
      </trkpt>
      <trkpt lat="44.50726" lon="5.64983">
        <ele>1135</ele>
        <time>2021-08-31T10:46:41Z</time>
      </trkpt>
      <trkpt lat="44.50733" lon="5.64986">
        <ele>1135.5999755859</ele>
        <time>2021-08-31T10:46:45Z</time>
      </trkpt>
      <trkpt lat="44.50741" lon="5.64987">
        <ele>1136</ele>
        <time>2021-08-31T10:46:49Z</time>
      </trkpt>
      <trkpt lat="44.50748" lon="5.64988">
        <ele>1136.4000244141</ele>
        <time>2021-08-31T10:46:53Z</time>
      </trkpt>
      <trkpt lat="44.5076" lon="5.64989">
        <ele>1137.1999511719</ele>
        <time>2021-08-31T10:47:00Z</time>
      </trkpt>
      <trkpt lat="44.50764" lon="5.64987">
        <ele>1137.4000244141</ele>
        <time>2021-08-31T10:47:02Z</time>
      </trkpt>
      <trkpt lat="44.50772" lon="5.64981">
        <ele>1138.1999511719</ele>
        <time>2021-08-31T10:47:08Z</time>
      </trkpt>
      <trkpt lat="44.50773" lon="5.6498">
        <ele>1138.4000244141</ele>
        <time>2021-08-31T10:47:09Z</time>
      </trkpt>
      <trkpt lat="44.50782" lon="5.64983">
        <ele>1139</ele>
        <time>2021-08-31T10:47:14Z</time>
      </trkpt>
      <trkpt lat="44.50783" lon="5.64985">
        <ele>1139.1999511719</ele>
        <time>2021-08-31T10:47:15Z</time>
      </trkpt>
      <trkpt lat="44.50782" lon="5.64989">
        <ele>1139.4000244141</ele>
        <time>2021-08-31T10:47:17Z</time>
      </trkpt>
      <trkpt lat="44.5078" lon="5.64992">
        <ele>1139.5999755859</ele>
        <time>2021-08-31T10:47:19Z</time>
      </trkpt>
      <trkpt lat="44.50774" lon="5.64998">
        <ele>1140</ele>
        <time>2021-08-31T10:47:23Z</time>
      </trkpt>
      <trkpt lat="44.50768" lon="5.65004">
        <ele>1140.4000244141</ele>
        <time>2021-08-31T10:47:27Z</time>
      </trkpt>
      <trkpt lat="44.50754" lon="5.65017">
        <ele>1141.5999755859</ele>
        <time>2021-08-31T10:47:36Z</time>
      </trkpt>
      <trkpt lat="44.50741" lon="5.65025">
        <ele>1142.5999755859</ele>
        <time>2021-08-31T10:47:44Z</time>
      </trkpt>
      <trkpt lat="44.50738" lon="5.65027">
        <ele>1143</ele>
        <time>2021-08-31T10:47:46Z</time>
      </trkpt>
      <trkpt lat="44.50731" lon="5.65032">
        <ele>1143.5999755859</ele>
        <time>2021-08-31T10:47:51Z</time>
      </trkpt>
      <trkpt lat="44.50727" lon="5.65034">
        <ele>1144</ele>
        <time>2021-08-31T10:47:53Z</time>
      </trkpt>
      <trkpt lat="44.5072" lon="5.6504">
        <ele>1144.5999755859</ele>
        <time>2021-08-31T10:47:58Z</time>
      </trkpt>
      <trkpt lat="44.50715" lon="5.65043">
        <ele>1145</ele>
        <time>2021-08-31T10:48:01Z</time>
      </trkpt>
      <trkpt lat="44.50707" lon="5.65048">
        <ele>1145.8000488281</ele>
        <time>2021-08-31T10:48:06Z</time>
      </trkpt>
      <trkpt lat="44.50701" lon="5.6505">
        <ele>1146.4000244141</ele>
        <time>2021-08-31T10:48:10Z</time>
      </trkpt>
      <trkpt lat="44.50696" lon="5.65051">
        <ele>1146.8000488281</ele>
        <time>2021-08-31T10:48:13Z</time>
      </trkpt>
      <trkpt lat="44.50688" lon="5.65051">
        <ele>1147.4000244141</ele>
        <time>2021-08-31T10:48:17Z</time>
      </trkpt>
      <trkpt lat="44.50683" lon="5.65052">
        <ele>1147.8000488281</ele>
        <time>2021-08-31T10:48:20Z</time>
      </trkpt>
      <trkpt lat="44.50674" lon="5.65055">
        <ele>1148.8000488281</ele>
        <time>2021-08-31T10:48:26Z</time>
      </trkpt>
      <trkpt lat="44.50672" lon="5.65056">
        <ele>1148.8000488281</ele>
        <time>2021-08-31T10:48:27Z</time>
      </trkpt>
      <trkpt lat="44.50663" lon="5.65062">
        <ele>1149.8000488281</ele>
        <time>2021-08-31T10:48:33Z</time>
      </trkpt>
      <trkpt lat="44.50661" lon="5.65063">
        <ele>1150</ele>
        <time>2021-08-31T10:48:34Z</time>
      </trkpt>
      <trkpt lat="44.50651" lon="5.6507">
        <ele>1150.5999755859</ele>
        <time>2021-08-31T10:48:40Z</time>
      </trkpt>
      <trkpt lat="44.50647" lon="5.65074">
        <ele>1151</ele>
        <time>2021-08-31T10:48:43Z</time>
      </trkpt>
      <trkpt lat="44.5064" lon="5.65075">
        <ele>1151.4000244141</ele>
        <time>2021-08-31T10:48:47Z</time>
      </trkpt>
      <trkpt lat="44.50632" lon="5.65075">
        <ele>1152</ele>
        <time>2021-08-31T10:48:52Z</time>
      </trkpt>
      <trkpt lat="44.50629" lon="5.65076">
        <ele>1152.4000244141</ele>
        <time>2021-08-31T10:48:54Z</time>
      </trkpt>
      <trkpt lat="44.50619" lon="5.6508">
        <ele>1153.1999511719</ele>
        <time>2021-08-31T10:49:00Z</time>
      </trkpt>
      <trkpt lat="44.50616" lon="5.65083">
        <ele>1153.4000244141</ele>
        <time>2021-08-31T10:49:02Z</time>
      </trkpt>
      <trkpt lat="44.50611" lon="5.6509">
        <ele>1154.1999511719</ele>
        <time>2021-08-31T10:49:07Z</time>
      </trkpt>
      <trkpt lat="44.5061" lon="5.65093">
        <ele>1154.4000244141</ele>
        <time>2021-08-31T10:49:08Z</time>
      </trkpt>
      <trkpt lat="44.50609" lon="5.65102">
        <ele>1155</ele>
        <time>2021-08-31T10:49:12Z</time>
      </trkpt>
      <trkpt lat="44.5061" lon="5.65107">
        <ele>1155.4000244141</ele>
        <time>2021-08-31T10:49:14Z</time>
      </trkpt>
      <trkpt lat="44.50609" lon="5.65126">
        <ele>1156.4000244141</ele>
        <time>2021-08-31T10:49:21Z</time>
      </trkpt>
      <trkpt lat="44.50608" lon="5.65133">
        <ele>1156.5999755859</ele>
        <time>2021-08-31T10:49:24Z</time>
      </trkpt>
      <trkpt lat="44.506" lon="5.6515">
        <ele>1157.4000244141</ele>
        <time>2021-08-31T10:49:32Z</time>
      </trkpt>
      <trkpt lat="44.50588" lon="5.65161">
        <ele>1158.1999511719</ele>
        <time>2021-08-31T10:49:40Z</time>
      </trkpt>
      <trkpt lat="44.50583" lon="5.65165">
        <ele>1158.5999755859</ele>
        <time>2021-08-31T10:49:43Z</time>
      </trkpt>
      <trkpt lat="44.50574" lon="5.65168">
        <ele>1159.1999511719</ele>
        <time>2021-08-31T10:49:48Z</time>
      </trkpt>
      <trkpt lat="44.50569" lon="5.65171">
        <ele>1159.5999755859</ele>
        <time>2021-08-31T10:49:51Z</time>
      </trkpt>
      <trkpt lat="44.50562" lon="5.65174">
        <ele>1160</ele>
        <time>2021-08-31T10:49:55Z</time>
      </trkpt>
      <trkpt lat="44.50554" lon="5.65182">
        <ele>1160.5999755859</ele>
        <time>2021-08-31T10:50:01Z</time>
      </trkpt>
      <trkpt lat="44.50551" lon="5.65185">
        <ele>1160.8000488281</ele>
        <time>2021-08-31T10:50:03Z</time>
      </trkpt>
      <trkpt lat="44.50544" lon="5.65193">
        <ele>1161.5999755859</ele>
        <time>2021-08-31T10:50:08Z</time>
      </trkpt>
      <trkpt lat="44.50542" lon="5.65194">
        <ele>1162</ele>
        <time>2021-08-31T10:50:09Z</time>
      </trkpt>
      <trkpt lat="44.50531" lon="5.65201">
        <ele>1162.8000488281</ele>
        <time>2021-08-31T10:50:16Z</time>
      </trkpt>
      <trkpt lat="44.5053" lon="5.65202">
        <ele>1162.8000488281</ele>
        <time>2021-08-31T10:50:17Z</time>
      </trkpt>
      <trkpt lat="44.50516" lon="5.6521">
        <ele>1163.8000488281</ele>
        <time>2021-08-31T10:50:25Z</time>
      </trkpt>
      <trkpt lat="44.50514" lon="5.65211">
        <ele>1164</ele>
        <time>2021-08-31T10:50:26Z</time>
      </trkpt>
      <trkpt lat="44.50502" lon="5.65219">
        <ele>1164.8000488281</ele>
        <time>2021-08-31T10:50:33Z</time>
      </trkpt>
      <trkpt lat="44.50488" lon="5.65225">
        <ele>1165.4000244141</ele>
        <time>2021-08-31T10:50:40Z</time>
      </trkpt>
      <trkpt lat="44.50482" lon="5.65225">
        <ele>1166</ele>
        <time>2021-08-31T10:50:43Z</time>
      </trkpt>
      <trkpt lat="44.50474" lon="5.65223">
        <ele>1166.4000244141</ele>
        <time>2021-08-31T10:50:47Z</time>
      </trkpt>
      <trkpt lat="44.50467" lon="5.65222">
        <ele>1167</ele>
        <time>2021-08-31T10:50:51Z</time>
      </trkpt>
      <trkpt lat="44.50462" lon="5.65219">
        <ele>1167.4000244141</ele>
        <time>2021-08-31T10:50:54Z</time>
      </trkpt>
      <trkpt lat="44.50455" lon="5.65215">
        <ele>1168.1999511719</ele>
        <time>2021-08-31T10:50:58Z</time>
      </trkpt>
      <trkpt lat="44.50449" lon="5.65214">
        <ele>1168.5999755859</ele>
        <time>2021-08-31T10:51:02Z</time>
      </trkpt>
      <trkpt lat="44.50439" lon="5.65215">
        <ele>1169.1999511719</ele>
        <time>2021-08-31T10:51:07Z</time>
      </trkpt>
      <trkpt lat="44.50435" lon="5.65216">
        <ele>1169.5999755859</ele>
        <time>2021-08-31T10:51:09Z</time>
      </trkpt>
      <trkpt lat="44.50427" lon="5.65222">
        <ele>1170.4000244141</ele>
        <time>2021-08-31T10:51:14Z</time>
      </trkpt>
      <trkpt lat="44.50424" lon="5.65224">
        <ele>1170.5999755859</ele>
        <time>2021-08-31T10:51:16Z</time>
      </trkpt>
      <trkpt lat="44.50412" lon="5.6523">
        <ele>1171.4000244141</ele>
        <time>2021-08-31T10:51:22Z</time>
      </trkpt>
      <trkpt lat="44.50409" lon="5.65232">
        <ele>1171.4000244141</ele>
        <time>2021-08-31T10:51:24Z</time>
      </trkpt>
      <trkpt lat="44.50398" lon="5.65231">
        <ele>1172.1999511719</ele>
        <time>2021-08-31T10:51:30Z</time>
      </trkpt>
      <trkpt lat="44.50396" lon="5.65231">
        <ele>1172.4000244141</ele>
        <time>2021-08-31T10:51:31Z</time>
      </trkpt>
      <trkpt lat="44.50383" lon="5.65231">
        <ele>1173.4000244141</ele>
        <time>2021-08-31T10:51:38Z</time>
      </trkpt>
      <trkpt lat="44.50381" lon="5.65231">
        <ele>1173.5999755859</ele>
        <time>2021-08-31T10:51:39Z</time>
      </trkpt>
      <trkpt lat="44.50368" lon="5.65231">
        <ele>1174.5999755859</ele>
        <time>2021-08-31T10:51:46Z</time>
      </trkpt>
      <trkpt lat="44.50366" lon="5.65231">
        <ele>1174.8000488281</ele>
        <time>2021-08-31T10:51:47Z</time>
      </trkpt>
      <trkpt lat="44.50351" lon="5.65233">
        <ele>1175.8000488281</ele>
        <time>2021-08-31T10:51:55Z</time>
      </trkpt>
      <trkpt lat="44.5035" lon="5.65234">
        <ele>1175.8000488281</ele>
        <time>2021-08-31T10:51:56Z</time>
      </trkpt>
      <trkpt lat="44.50336" lon="5.65239">
        <ele>1176.8000488281</ele>
        <time>2021-08-31T10:52:04Z</time>
      </trkpt>
      <trkpt lat="44.50334" lon="5.65239">
        <ele>1177</ele>
        <time>2021-08-31T10:52:05Z</time>
      </trkpt>
      <trkpt lat="44.50322" lon="5.65245">
        <ele>1177.8000488281</ele>
        <time>2021-08-31T10:52:12Z</time>
      </trkpt>
      <trkpt lat="44.50321" lon="5.65246">
        <ele>1178</ele>
        <time>2021-08-31T10:52:13Z</time>
      </trkpt>
      <trkpt lat="44.50309" lon="5.65255">
        <ele>1178.8000488281</ele>
        <time>2021-08-31T10:52:20Z</time>
      </trkpt>
      <trkpt lat="44.50306" lon="5.65257">
        <ele>1179.1999511719</ele>
        <time>2021-08-31T10:52:22Z</time>
      </trkpt>
      <trkpt lat="44.50298" lon="5.65265">
        <ele>1179.8000488281</ele>
        <time>2021-08-31T10:52:28Z</time>
      </trkpt>
      <trkpt lat="44.50294" lon="5.65269">
        <ele>1180.1999511719</ele>
        <time>2021-08-31T10:52:31Z</time>
      </trkpt>
      <trkpt lat="44.50284" lon="5.65279">
        <ele>1181.4000244141</ele>
        <time>2021-08-31T10:52:38Z</time>
      </trkpt>
      <trkpt lat="44.50272" lon="5.65293">
        <ele>1182.1999511719</ele>
        <time>2021-08-31T10:52:45Z</time>
      </trkpt>
      <trkpt lat="44.5027" lon="5.65295">
        <ele>1182.4000244141</ele>
        <time>2021-08-31T10:52:46Z</time>
      </trkpt>
      <trkpt lat="44.50258" lon="5.65309">
        <ele>1183.4000244141</ele>
        <time>2021-08-31T10:52:54Z</time>
      </trkpt>
      <trkpt lat="44.50246" lon="5.65324">
        <ele>1184.4000244141</ele>
        <time>2021-08-31T10:53:02Z</time>
      </trkpt>
      <trkpt lat="44.50243" lon="5.65328">
        <ele>1184.5999755859</ele>
        <time>2021-08-31T10:53:04Z</time>
      </trkpt>
      <trkpt lat="44.50231" lon="5.65336">
        <ele>1185.1999511719</ele>
        <time>2021-08-31T10:53:11Z</time>
      </trkpt>
      <trkpt lat="44.50227" lon="5.65338">
        <ele>1185.5999755859</ele>
        <time>2021-08-31T10:53:13Z</time>
      </trkpt>
      <trkpt lat="44.50215" lon="5.65344">
        <ele>1186.4000244141</ele>
        <time>2021-08-31T10:53:19Z</time>
      </trkpt>
      <trkpt lat="44.50213" lon="5.65345">
        <ele>1186.5999755859</ele>
        <time>2021-08-31T10:53:20Z</time>
      </trkpt>
      <trkpt lat="44.50202" lon="5.65352">
        <ele>1187.1999511719</ele>
        <time>2021-08-31T10:53:26Z</time>
      </trkpt>
      <trkpt lat="44.50198" lon="5.65354">
        <ele>1187.5999755859</ele>
        <time>2021-08-31T10:53:28Z</time>
      </trkpt>
      <trkpt lat="44.50187" lon="5.65359">
        <ele>1188.1999511719</ele>
        <time>2021-08-31T10:53:33Z</time>
      </trkpt>
      <trkpt lat="44.5018" lon="5.65361">
        <ele>1188.5999755859</ele>
        <time>2021-08-31T10:53:36Z</time>
      </trkpt>
      <trkpt lat="44.50171" lon="5.65363">
        <ele>1189.1999511719</ele>
        <time>2021-08-31T10:53:40Z</time>
      </trkpt>
      <trkpt lat="44.50163" lon="5.65363">
        <ele>1189.5999755859</ele>
        <time>2021-08-31T10:53:43Z</time>
      </trkpt>
      <trkpt lat="44.50151" lon="5.65367">
        <ele>1190.4000244141</ele>
        <time>2021-08-31T10:53:48Z</time>
      </trkpt>
      <trkpt lat="44.50146" lon="5.65369">
        <ele>1190.8000488281</ele>
        <time>2021-08-31T10:53:50Z</time>
      </trkpt>
      <trkpt lat="44.50128" lon="5.65372">
        <ele>1191.8000488281</ele>
        <time>2021-08-31T10:53:57Z</time>
      </trkpt>
      <trkpt lat="44.50111" lon="5.65375">
        <ele>1192.8000488281</ele>
        <time>2021-08-31T10:54:04Z</time>
      </trkpt>
      <trkpt lat="44.50095" lon="5.6538">
        <ele>1193.8000488281</ele>
        <time>2021-08-31T10:54:11Z</time>
      </trkpt>
      <trkpt lat="44.50094" lon="5.65381">
        <ele>1193.8000488281</ele>
        <time>2021-08-31T10:54:12Z</time>
      </trkpt>
      <trkpt lat="44.50082" lon="5.65386">
        <ele>1194.8000488281</ele>
        <time>2021-08-31T10:54:18Z</time>
      </trkpt>
      <trkpt lat="44.5008" lon="5.65387">
        <ele>1195</ele>
        <time>2021-08-31T10:54:19Z</time>
      </trkpt>
      <trkpt lat="44.50069" lon="5.65395">
        <ele>1196</ele>
        <time>2021-08-31T10:54:25Z</time>
      </trkpt>
      <trkpt lat="44.50068" lon="5.65396">
        <ele>1196</ele>
        <time>2021-08-31T10:54:26Z</time>
      </trkpt>
      <trkpt lat="44.50063" lon="5.65399">
        <ele>1196.4000244141</ele>
        <time>2021-08-31T10:54:29Z</time>
      </trkpt>
      <trkpt lat="44.50061" lon="5.65396">
        <ele>1196.8000488281</ele>
        <time>2021-08-31T10:54:31Z</time>
      </trkpt>
      <trkpt lat="44.50057" lon="5.65399">
        <ele>1197</ele>
        <time>2021-08-31T10:58:24Z</time>
      </trkpt>
      <trkpt lat="44.50056" lon="5.65401">
        <ele>1197</ele>
        <time>2021-08-31T10:58:25Z</time>
      </trkpt>
      <trkpt lat="44.50052" lon="5.65415">
        <ele>1197</ele>
        <time>2021-08-31T10:58:32Z</time>
      </trkpt>
      <trkpt lat="44.50049" lon="5.65434">
        <ele>1196.8000488281</ele>
        <time>2021-08-31T10:58:38Z</time>
      </trkpt>
      <trkpt lat="44.50054" lon="5.65458">
        <ele>1196.5999755859</ele>
        <time>2021-08-31T10:58:44Z</time>
      </trkpt>
      <trkpt lat="44.50056" lon="5.65475">
        <ele>1196.4000244141</ele>
        <time>2021-08-31T10:58:47Z</time>
      </trkpt>
      <trkpt lat="44.50055" lon="5.65481">
        <ele>1196.1999511719</ele>
        <time>2021-08-31T10:58:48Z</time>
      </trkpt>
      <trkpt lat="44.5005" lon="5.65493">
        <ele>1196</ele>
        <time>2021-08-31T10:58:50Z</time>
      </trkpt>
      <trkpt lat="44.50043" lon="5.65504">
        <ele>1195.8000488281</ele>
        <time>2021-08-31T10:58:52Z</time>
      </trkpt>
      <trkpt lat="44.5004" lon="5.65509">
        <ele>1195.5999755859</ele>
        <time>2021-08-31T10:58:53Z</time>
      </trkpt>
      <trkpt lat="44.50038" lon="5.65522">
        <ele>1195.5999755859</ele>
        <time>2021-08-31T10:58:55Z</time>
      </trkpt>
      <trkpt lat="44.50039" lon="5.65529">
        <ele>1195.4000244141</ele>
        <time>2021-08-31T10:58:56Z</time>
      </trkpt>
      <trkpt lat="44.50046" lon="5.65542">
        <ele>1195</ele>
        <time>2021-08-31T10:58:58Z</time>
      </trkpt>
      <trkpt lat="44.50049" lon="5.6555">
        <ele>1194.8000488281</ele>
        <time>2021-08-31T10:58:59Z</time>
      </trkpt>
      <trkpt lat="44.50051" lon="5.65559">
        <ele>1194.5999755859</ele>
        <time>2021-08-31T10:59:00Z</time>
      </trkpt>
      <trkpt lat="44.50047" lon="5.65588">
        <ele>1193.8000488281</ele>
        <time>2021-08-31T10:59:03Z</time>
      </trkpt>
      <trkpt lat="44.50035" lon="5.65624">
        <ele>1192.8000488281</ele>
        <time>2021-08-31T10:59:07Z</time>
      </trkpt>
      <trkpt lat="44.50027" lon="5.65642">
        <ele>1192</ele>
        <time>2021-08-31T10:59:09Z</time>
      </trkpt>
      <trkpt lat="44.50024" lon="5.65654">
        <ele>1191.8000488281</ele>
        <time>2021-08-31T10:59:10Z</time>
      </trkpt>
      <trkpt lat="44.50017" lon="5.65674">
        <ele>1191.1999511719</ele>
        <time>2021-08-31T10:59:12Z</time>
      </trkpt>
      <trkpt lat="44.50009" lon="5.6569">
        <ele>1190.4000244141</ele>
        <time>2021-08-31T10:59:14Z</time>
      </trkpt>
      <trkpt lat="44.50007" lon="5.65696">
        <ele>1189.5999755859</ele>
        <time>2021-08-31T10:59:16Z</time>
      </trkpt>
      <trkpt lat="44.50006" lon="5.65699">
        <ele>1189.4000244141</ele>
        <time>2021-08-31T10:59:17Z</time>
      </trkpt>
      <trkpt lat="44.50003" lon="5.65708">
        <ele>1188</ele>
        <time>2021-08-31T10:59:20Z</time>
      </trkpt>
      <trkpt lat="44.50002" lon="5.65715">
        <ele>1186.8000488281</ele>
        <time>2021-08-31T10:59:22Z</time>
      </trkpt>
      <trkpt lat="44.5" lon="5.65719">
        <ele>1186.5999755859</ele>
        <time>2021-08-31T10:59:23Z</time>
      </trkpt>
      <trkpt lat="44.49996" lon="5.65731">
        <ele>1186</ele>
        <time>2021-08-31T10:59:27Z</time>
      </trkpt>
      <trkpt lat="44.49996" lon="5.65733">
        <ele>1185.8000488281</ele>
        <time>2021-08-31T10:59:28Z</time>
      </trkpt>
      <trkpt lat="44.49994" lon="5.65734">
        <ele>1185.1999511719</ele>
        <time>2021-08-31T10:59:30Z</time>
      </trkpt>
      <trkpt lat="44.49994" lon="5.65729">
        <ele>1184.8000488281</ele>
        <time>2021-08-31T10:59:32Z</time>
      </trkpt>
      <trkpt lat="44.49995" lon="5.65728">
        <ele>1184.5999755859</ele>
        <time>2021-08-31T10:59:33Z</time>
      </trkpt>
      <trkpt lat="44.49998" lon="5.65725">
        <ele>1184.4000244141</ele>
        <time>2021-08-31T10:59:36Z</time>
      </trkpt>
      <trkpt lat="44.5" lon="5.65723">
        <ele>1184.4000244141</ele>
        <time>2021-08-31T10:59:38Z</time>
      </trkpt>
      <trkpt lat="44.50003" lon="5.6572">
        <ele>1184.5999755859</ele>
        <time>2021-08-31T10:59:40Z</time>
      </trkpt>
      <trkpt lat="44.50007" lon="5.65711">
        <ele>1185</ele>
        <time>2021-08-31T10:59:44Z</time>
      </trkpt>
      <trkpt lat="44.5001" lon="5.65699">
        <ele>1185.8000488281</ele>
        <time>2021-08-31T10:59:48Z</time>
      </trkpt>
      <trkpt lat="44.50014" lon="5.65688">
        <ele>1186.1999511719</ele>
        <time>2021-08-31T10:59:52Z</time>
      </trkpt>
      <trkpt lat="44.50018" lon="5.65679">
        <ele>1186.5999755859</ele>
        <time>2021-08-31T10:59:55Z</time>
      </trkpt>
      <trkpt lat="44.50016" lon="5.65677">
        <ele>1186.8000488281</ele>
        <time>2021-08-31T10:59:57Z</time>
      </trkpt>
      <trkpt lat="44.50014" lon="5.65681">
        <ele>1186.8000488281</ele>
        <time>2021-08-31T11:00:06Z</time>
      </trkpt>
      <trkpt lat="44.50014" lon="5.65684">
        <ele>1186.8000488281</ele>
        <time>2021-08-31T11:00:07Z</time>
      </trkpt>
      <trkpt lat="44.50007" lon="5.65706">
        <ele>1186.5999755859</ele>
        <time>2021-08-31T11:00:13Z</time>
      </trkpt>
      <trkpt lat="44.49999" lon="5.65728">
        <ele>1186.1999511719</ele>
        <time>2021-08-31T11:00:17Z</time>
      </trkpt>
      <trkpt lat="44.49997" lon="5.65734">
        <ele>1186</ele>
        <time>2021-08-31T11:00:18Z</time>
      </trkpt>
      <trkpt lat="44.49992" lon="5.65739">
        <ele>1186</ele>
        <time>2021-08-31T11:00:19Z</time>
      </trkpt>
      <trkpt lat="44.49987" lon="5.65745">
        <ele>1185.8000488281</ele>
        <time>2021-08-31T11:00:20Z</time>
      </trkpt>
      <trkpt lat="44.49982" lon="5.65749">
        <ele>1185.5999755859</ele>
        <time>2021-08-31T11:00:21Z</time>
      </trkpt>
      <trkpt lat="44.49969" lon="5.65756">
        <ele>1185</ele>
        <time>2021-08-31T11:00:23Z</time>
      </trkpt>
      <trkpt lat="44.49963" lon="5.6576">
        <ele>1184.8000488281</ele>
        <time>2021-08-31T11:00:24Z</time>
      </trkpt>
      <trkpt lat="44.49957" lon="5.65766">
        <ele>1184.4000244141</ele>
        <time>2021-08-31T11:00:25Z</time>
      </trkpt>
      <trkpt lat="44.49952" lon="5.65772">
        <ele>1184</ele>
        <time>2021-08-31T11:00:26Z</time>
      </trkpt>
      <trkpt lat="44.49942" lon="5.65788">
        <ele>1183.4000244141</ele>
        <time>2021-08-31T11:00:28Z</time>
      </trkpt>
      <trkpt lat="44.49934" lon="5.65807">
        <ele>1182.8000488281</ele>
        <time>2021-08-31T11:00:30Z</time>
      </trkpt>
      <trkpt lat="44.49926" lon="5.65826">
        <ele>1182.1999511719</ele>
        <time>2021-08-31T11:00:32Z</time>
      </trkpt>
      <trkpt lat="44.49918" lon="5.65845">
        <ele>1181.1999511719</ele>
        <time>2021-08-31T11:00:34Z</time>
      </trkpt>
      <trkpt lat="44.49916" lon="5.65855">
        <ele>1181</ele>
        <time>2021-08-31T11:00:35Z</time>
      </trkpt>
      <trkpt lat="44.49914" lon="5.65866">
        <ele>1180.5999755859</ele>
        <time>2021-08-31T11:00:36Z</time>
      </trkpt>
      <trkpt lat="44.49904" lon="5.65882">
        <ele>1179.8000488281</ele>
        <time>2021-08-31T11:00:38Z</time>
      </trkpt>
      <trkpt lat="44.49888" lon="5.65891">
        <ele>1178.8000488281</ele>
        <time>2021-08-31T11:00:40Z</time>
      </trkpt>
      <trkpt lat="44.4988" lon="5.65896">
        <ele>1178.5999755859</ele>
        <time>2021-08-31T11:00:41Z</time>
      </trkpt>
      <trkpt lat="44.49873" lon="5.65901">
        <ele>1178.1999511719</ele>
        <time>2021-08-31T11:00:42Z</time>
      </trkpt>
      <trkpt lat="44.49856" lon="5.6591">
        <ele>1177.1999511719</ele>
        <time>2021-08-31T11:00:44Z</time>
      </trkpt>
      <trkpt lat="44.49831" lon="5.65922">
        <ele>1176</ele>
        <time>2021-08-31T11:00:47Z</time>
      </trkpt>
      <trkpt lat="44.49806" lon="5.65935">
        <ele>1174.8000488281</ele>
        <time>2021-08-31T11:00:50Z</time>
      </trkpt>
      <trkpt lat="44.49788" lon="5.65939">
        <ele>1173.8000488281</ele>
        <time>2021-08-31T11:00:52Z</time>
      </trkpt>
      <trkpt lat="44.4977" lon="5.65938">
        <ele>1172.5999755859</ele>
        <time>2021-08-31T11:00:54Z</time>
      </trkpt>
      <trkpt lat="44.4975" lon="5.65936">
        <ele>1171.4000244141</ele>
        <time>2021-08-31T11:00:56Z</time>
      </trkpt>
      <trkpt lat="44.49731" lon="5.65936">
        <ele>1169.8000488281</ele>
        <time>2021-08-31T11:00:58Z</time>
      </trkpt>
      <trkpt lat="44.49712" lon="5.65938">
        <ele>1168.8000488281</ele>
        <time>2021-08-31T11:01:00Z</time>
      </trkpt>
      <trkpt lat="44.49703" lon="5.65939">
        <ele>1168.1999511719</ele>
        <time>2021-08-31T11:01:01Z</time>
      </trkpt>
      <trkpt lat="44.49688" lon="5.65945">
        <ele>1167.4000244141</ele>
        <time>2021-08-31T11:01:03Z</time>
      </trkpt>
      <trkpt lat="44.49682" lon="5.6595">
        <ele>1166.8000488281</ele>
        <time>2021-08-31T11:01:04Z</time>
      </trkpt>
      <trkpt lat="44.49674" lon="5.65962">
        <ele>1166</ele>
        <time>2021-08-31T11:01:06Z</time>
      </trkpt>
      <trkpt lat="44.49671" lon="5.65968">
        <ele>1165.4000244141</ele>
        <time>2021-08-31T11:01:07Z</time>
      </trkpt>
      <trkpt lat="44.49669" lon="5.65972">
        <ele>1164.8000488281</ele>
        <time>2021-08-31T11:01:08Z</time>
      </trkpt>
      <trkpt lat="44.49666" lon="5.65978">
        <ele>1163.8000488281</ele>
        <time>2021-08-31T11:01:10Z</time>
      </trkpt>
      <trkpt lat="44.49664" lon="5.6598">
        <ele>1162.8000488281</ele>
        <time>2021-08-31T11:01:12Z</time>
      </trkpt>
      <trkpt lat="44.49665" lon="5.65986">
        <ele>1161.4000244141</ele>
        <time>2021-08-31T11:01:54Z</time>
      </trkpt>
      <trkpt lat="44.49665" lon="5.65988">
        <ele>1161.4000244141</ele>
        <time>2021-08-31T11:01:55Z</time>
      </trkpt>
      <trkpt lat="44.49667" lon="5.66008">
        <ele>1161.5999755859</ele>
        <time>2021-08-31T11:02:00Z</time>
      </trkpt>
      <trkpt lat="44.49669" lon="5.66044">
        <ele>1161</ele>
        <time>2021-08-31T11:02:05Z</time>
      </trkpt>
      <trkpt lat="44.49673" lon="5.6607">
        <ele>1160.4000244141</ele>
        <time>2021-08-31T11:02:08Z</time>
      </trkpt>
      <trkpt lat="44.49678" lon="5.66098">
        <ele>1159.5999755859</ele>
        <time>2021-08-31T11:02:11Z</time>
      </trkpt>
      <trkpt lat="44.4968" lon="5.66108">
        <ele>1159.1999511719</ele>
        <time>2021-08-31T11:02:12Z</time>
      </trkpt>
      <trkpt lat="44.49684" lon="5.6613">
        <ele>1158.5999755859</ele>
        <time>2021-08-31T11:02:14Z</time>
      </trkpt>
      <trkpt lat="44.49688" lon="5.66141">
        <ele>1158.1999511719</ele>
        <time>2021-08-31T11:02:15Z</time>
      </trkpt>
      <trkpt lat="44.49704" lon="5.66173">
        <ele>1156.5999755859</ele>
        <time>2021-08-31T11:02:18Z</time>
      </trkpt>
      <trkpt lat="44.4971" lon="5.66183">
        <ele>1156.1999511719</ele>
        <time>2021-08-31T11:02:19Z</time>
      </trkpt>
      <trkpt lat="44.49723" lon="5.66204">
        <ele>1155.1999511719</ele>
        <time>2021-08-31T11:02:21Z</time>
      </trkpt>
      <trkpt lat="44.49739" lon="5.66237">
        <ele>1153.8000488281</ele>
        <time>2021-08-31T11:02:24Z</time>
      </trkpt>
      <trkpt lat="44.49741" lon="5.66262">
        <ele>1152.8000488281</ele>
        <time>2021-08-31T11:02:26Z</time>
      </trkpt>
      <trkpt lat="44.49736" lon="5.66287">
        <ele>1151.5999755859</ele>
        <time>2021-08-31T11:02:28Z</time>
      </trkpt>
      <trkpt lat="44.49733" lon="5.66296">
        <ele>1150.8000488281</ele>
        <time>2021-08-31T11:02:29Z</time>
      </trkpt>
      <trkpt lat="44.49729" lon="5.66304">
        <ele>1150.1999511719</ele>
        <time>2021-08-31T11:02:30Z</time>
      </trkpt>
      <trkpt lat="44.49715" lon="5.66311">
        <ele>1149</ele>
        <time>2021-08-31T11:02:32Z</time>
      </trkpt>
      <trkpt lat="44.49699" lon="5.66311">
        <ele>1147</ele>
        <time>2021-08-31T11:02:34Z</time>
      </trkpt>
      <trkpt lat="44.49691" lon="5.66313">
        <ele>1146.4000244141</ele>
        <time>2021-08-31T11:02:35Z</time>
      </trkpt>
      <trkpt lat="44.49683" lon="5.66315">
        <ele>1146</ele>
        <time>2021-08-31T11:02:36Z</time>
      </trkpt>
      <trkpt lat="44.49661" lon="5.66333">
        <ele>1144.5999755859</ele>
        <time>2021-08-31T11:02:39Z</time>
      </trkpt>
      <trkpt lat="44.49644" lon="5.66346">
        <ele>1143.4000244141</ele>
        <time>2021-08-31T11:02:41Z</time>
      </trkpt>
      <trkpt lat="44.49636" lon="5.66352">
        <ele>1142.8000488281</ele>
        <time>2021-08-31T11:02:42Z</time>
      </trkpt>
      <trkpt lat="44.49627" lon="5.66356">
        <ele>1142.4000244141</ele>
        <time>2021-08-31T11:02:43Z</time>
      </trkpt>
      <trkpt lat="44.49608" lon="5.66366">
        <ele>1141</ele>
        <time>2021-08-31T11:02:45Z</time>
      </trkpt>
      <trkpt lat="44.4959" lon="5.66378">
        <ele>1139.8000488281</ele>
        <time>2021-08-31T11:02:47Z</time>
      </trkpt>
      <trkpt lat="44.49581" lon="5.66383">
        <ele>1139.1999511719</ele>
        <time>2021-08-31T11:02:48Z</time>
      </trkpt>
      <trkpt lat="44.49573" lon="5.66388">
        <ele>1138.5999755859</ele>
        <time>2021-08-31T11:02:49Z</time>
      </trkpt>
      <trkpt lat="44.49558" lon="5.66395">
        <ele>1137.5999755859</ele>
        <time>2021-08-31T11:02:51Z</time>
      </trkpt>
      <trkpt lat="44.49546" lon="5.66391">
        <ele>1136.4000244141</ele>
        <time>2021-08-31T11:02:53Z</time>
      </trkpt>
      <trkpt lat="44.49535" lon="5.66377">
        <ele>1135</ele>
        <time>2021-08-31T11:02:55Z</time>
      </trkpt>
      <trkpt lat="44.4953" lon="5.66369">
        <ele>1134.5999755859</ele>
        <time>2021-08-31T11:02:56Z</time>
      </trkpt>
      <trkpt lat="44.49525" lon="5.66362">
        <ele>1134</ele>
        <time>2021-08-31T11:02:57Z</time>
      </trkpt>
      <trkpt lat="44.49514" lon="5.66348">
        <ele>1132.5999755859</ele>
        <time>2021-08-31T11:02:59Z</time>
      </trkpt>
      <trkpt lat="44.49502" lon="5.66337">
        <ele>1131.8000488281</ele>
        <time>2021-08-31T11:03:01Z</time>
      </trkpt>
      <trkpt lat="44.49496" lon="5.66332">
        <ele>1131.1999511719</ele>
        <time>2021-08-31T11:03:02Z</time>
      </trkpt>
      <trkpt lat="44.49482" lon="5.66324">
        <ele>1130.4000244141</ele>
        <time>2021-08-31T11:03:04Z</time>
      </trkpt>
      <trkpt lat="44.49475" lon="5.66321">
        <ele>1130.1999511719</ele>
        <time>2021-08-31T11:03:05Z</time>
      </trkpt>
      <trkpt lat="44.49442" lon="5.66311">
        <ele>1128.8000488281</ele>
        <time>2021-08-31T11:03:09Z</time>
      </trkpt>
      <trkpt lat="44.49434" lon="5.6631">
        <ele>1128.4000244141</ele>
        <time>2021-08-31T11:03:10Z</time>
      </trkpt>
      <trkpt lat="44.49417" lon="5.66311">
        <ele>1127.5999755859</ele>
        <time>2021-08-31T11:03:12Z</time>
      </trkpt>
      <trkpt lat="44.4939" lon="5.66312">
        <ele>1126.5999755859</ele>
        <time>2021-08-31T11:03:15Z</time>
      </trkpt>
      <trkpt lat="44.49364" lon="5.66313">
        <ele>1125.4000244141</ele>
        <time>2021-08-31T11:03:18Z</time>
      </trkpt>
      <trkpt lat="44.49337" lon="5.66317">
        <ele>1124.4000244141</ele>
        <time>2021-08-31T11:03:21Z</time>
      </trkpt>
      <trkpt lat="44.49319" lon="5.66318">
        <ele>1123.1999511719</ele>
        <time>2021-08-31T11:03:23Z</time>
      </trkpt>
      <trkpt lat="44.4929" lon="5.66319">
        <ele>1122.1999511719</ele>
        <time>2021-08-31T11:03:26Z</time>
      </trkpt>
      <trkpt lat="44.4928" lon="5.66322">
        <ele>1121.8000488281</ele>
        <time>2021-08-31T11:03:27Z</time>
      </trkpt>
      <trkpt lat="44.49259" lon="5.66326">
        <ele>1120.8000488281</ele>
        <time>2021-08-31T11:03:29Z</time>
      </trkpt>
      <trkpt lat="44.49238" lon="5.66325">
        <ele>1119.5999755859</ele>
        <time>2021-08-31T11:03:31Z</time>
      </trkpt>
      <trkpt lat="44.49217" lon="5.66326">
        <ele>1118.4000244141</ele>
        <time>2021-08-31T11:03:33Z</time>
      </trkpt>
      <trkpt lat="44.49197" lon="5.6633">
        <ele>1117.1999511719</ele>
        <time>2021-08-31T11:03:35Z</time>
      </trkpt>
      <trkpt lat="44.49188" lon="5.66334">
        <ele>1116.4000244141</ele>
        <time>2021-08-31T11:03:36Z</time>
      </trkpt>
      <trkpt lat="44.49179" lon="5.66339">
        <ele>1115.8000488281</ele>
        <time>2021-08-31T11:03:37Z</time>
      </trkpt>
      <trkpt lat="44.49169" lon="5.66342">
        <ele>1115</ele>
        <time>2021-08-31T11:03:38Z</time>
      </trkpt>
      <trkpt lat="44.4916" lon="5.66341">
        <ele>1114.4000244141</ele>
        <time>2021-08-31T11:03:39Z</time>
      </trkpt>
      <trkpt lat="44.49151" lon="5.66338">
        <ele>1113.5999755859</ele>
        <time>2021-08-31T11:03:40Z</time>
      </trkpt>
      <trkpt lat="44.49142" lon="5.66335">
        <ele>1113</ele>
        <time>2021-08-31T11:03:41Z</time>
      </trkpt>
      <trkpt lat="44.49123" lon="5.66337">
        <ele>1111.1999511719</ele>
        <time>2021-08-31T11:03:43Z</time>
      </trkpt>
      <trkpt lat="44.49104" lon="5.66347">
        <ele>1109.8000488281</ele>
        <time>2021-08-31T11:03:45Z</time>
      </trkpt>
      <trkpt lat="44.49096" lon="5.66354">
        <ele>1108.4000244141</ele>
        <time>2021-08-31T11:03:46Z</time>
      </trkpt>
      <trkpt lat="44.49081" lon="5.66373">
        <ele>1107.1999511719</ele>
        <time>2021-08-31T11:03:48Z</time>
      </trkpt>
      <trkpt lat="44.49064" lon="5.66392">
        <ele>1106.1999511719</ele>
        <time>2021-08-31T11:03:50Z</time>
      </trkpt>
      <trkpt lat="44.49045" lon="5.66406">
        <ele>1105</ele>
        <time>2021-08-31T11:03:52Z</time>
      </trkpt>
      <trkpt lat="44.49035" lon="5.66412">
        <ele>1104.5999755859</ele>
        <time>2021-08-31T11:03:53Z</time>
      </trkpt>
      <trkpt lat="44.49017" lon="5.66425">
        <ele>1103.5999755859</ele>
        <time>2021-08-31T11:03:55Z</time>
      </trkpt>
      <trkpt lat="44.49008" lon="5.66431">
        <ele>1103.1999511719</ele>
        <time>2021-08-31T11:03:56Z</time>
      </trkpt>
      <trkpt lat="44.48998" lon="5.66436">
        <ele>1102.5999755859</ele>
        <time>2021-08-31T11:03:57Z</time>
      </trkpt>
      <trkpt lat="44.48988" lon="5.66439">
        <ele>1102</ele>
        <time>2021-08-31T11:03:58Z</time>
      </trkpt>
      <trkpt lat="44.48968" lon="5.66443">
        <ele>1100.8000488281</ele>
        <time>2021-08-31T11:04:00Z</time>
      </trkpt>
      <trkpt lat="44.48958" lon="5.66445">
        <ele>1100.1999511719</ele>
        <time>2021-08-31T11:04:01Z</time>
      </trkpt>
      <trkpt lat="44.4895" lon="5.66447">
        <ele>1099.8000488281</ele>
        <time>2021-08-31T11:04:02Z</time>
      </trkpt>
      <trkpt lat="44.48942" lon="5.66447">
        <ele>1099.1999511719</ele>
        <time>2021-08-31T11:04:03Z</time>
      </trkpt>
      <trkpt lat="44.48937" lon="5.66444">
        <ele>1098.8000488281</ele>
        <time>2021-08-31T11:04:04Z</time>
      </trkpt>
      <trkpt lat="44.48932" lon="5.66438">
        <ele>1098.4000244141</ele>
        <time>2021-08-31T11:04:05Z</time>
      </trkpt>
      <trkpt lat="44.48932" lon="5.66432">
        <ele>1097.8000488281</ele>
        <time>2021-08-31T11:04:06Z</time>
      </trkpt>
      <trkpt lat="44.48935" lon="5.66425">
        <ele>1097.1999511719</ele>
        <time>2021-08-31T11:04:07Z</time>
      </trkpt>
      <trkpt lat="44.48942" lon="5.6642">
        <ele>1096.5999755859</ele>
        <time>2021-08-31T11:04:08Z</time>
      </trkpt>
      <trkpt lat="44.48948" lon="5.66417">
        <ele>1096.1999511719</ele>
        <time>2021-08-31T11:04:09Z</time>
      </trkpt>
      <trkpt lat="44.48963" lon="5.66412">
        <ele>1095</ele>
        <time>2021-08-31T11:04:11Z</time>
      </trkpt>
      <trkpt lat="44.48987" lon="5.664">
        <ele>1093.5999755859</ele>
        <time>2021-08-31T11:04:14Z</time>
      </trkpt>
      <trkpt lat="44.49001" lon="5.66385">
        <ele>1092.5999755859</ele>
        <time>2021-08-31T11:04:16Z</time>
      </trkpt>
      <trkpt lat="44.49007" lon="5.66377">
        <ele>1092.1999511719</ele>
        <time>2021-08-31T11:04:17Z</time>
      </trkpt>
      <trkpt lat="44.49013" lon="5.66368">
        <ele>1091.5999755859</ele>
        <time>2021-08-31T11:04:18Z</time>
      </trkpt>
      <trkpt lat="44.49028" lon="5.66355">
        <ele>1090.5999755859</ele>
        <time>2021-08-31T11:04:20Z</time>
      </trkpt>
      <trkpt lat="44.49052" lon="5.66349">
        <ele>1089.4000244141</ele>
        <time>2021-08-31T11:04:23Z</time>
      </trkpt>
      <trkpt lat="44.49074" lon="5.66336">
        <ele>1088.1999511719</ele>
        <time>2021-08-31T11:04:26Z</time>
      </trkpt>
      <trkpt lat="44.49098" lon="5.66311">
        <ele>1086.8000488281</ele>
        <time>2021-08-31T11:04:29Z</time>
      </trkpt>
      <trkpt lat="44.49121" lon="5.66283">
        <ele>1085.5999755859</ele>
        <time>2021-08-31T11:04:32Z</time>
      </trkpt>
      <trkpt lat="44.49138" lon="5.6627">
        <ele>1083.8000488281</ele>
        <time>2021-08-31T11:04:34Z</time>
      </trkpt>
      <trkpt lat="44.49166" lon="5.66254">
        <ele>1082.4000244141</ele>
        <time>2021-08-31T11:04:37Z</time>
      </trkpt>
      <trkpt lat="44.49184" lon="5.66242">
        <ele>1081.4000244141</ele>
        <time>2021-08-31T11:04:39Z</time>
      </trkpt>
      <trkpt lat="44.49201" lon="5.66231">
        <ele>1080.4000244141</ele>
        <time>2021-08-31T11:04:41Z</time>
      </trkpt>
      <trkpt lat="44.49219" lon="5.66227">
        <ele>1079.1999511719</ele>
        <time>2021-08-31T11:04:43Z</time>
      </trkpt>
      <trkpt lat="44.49236" lon="5.66222">
        <ele>1078</ele>
        <time>2021-08-31T11:04:45Z</time>
      </trkpt>
      <trkpt lat="44.49245" lon="5.66217">
        <ele>1077.4000244141</ele>
        <time>2021-08-31T11:04:46Z</time>
      </trkpt>
      <trkpt lat="44.49253" lon="5.66211">
        <ele>1076.8000488281</ele>
        <time>2021-08-31T11:04:47Z</time>
      </trkpt>
      <trkpt lat="44.49269" lon="5.66195">
        <ele>1075.5999755859</ele>
        <time>2021-08-31T11:04:49Z</time>
      </trkpt>
      <trkpt lat="44.49284" lon="5.66179">
        <ele>1074.4000244141</ele>
        <time>2021-08-31T11:04:51Z</time>
      </trkpt>
      <trkpt lat="44.49299" lon="5.66164">
        <ele>1073</ele>
        <time>2021-08-31T11:04:53Z</time>
      </trkpt>
      <trkpt lat="44.49306" lon="5.66158">
        <ele>1072.4000244141</ele>
        <time>2021-08-31T11:04:54Z</time>
      </trkpt>
      <trkpt lat="44.49313" lon="5.66152">
        <ele>1072</ele>
        <time>2021-08-31T11:04:55Z</time>
      </trkpt>
      <trkpt lat="44.49321" lon="5.66147">
        <ele>1071.5999755859</ele>
        <time>2021-08-31T11:04:56Z</time>
      </trkpt>
      <trkpt lat="44.49338" lon="5.6614">
        <ele>1070.4000244141</ele>
        <time>2021-08-31T11:04:58Z</time>
      </trkpt>
      <trkpt lat="44.49355" lon="5.66133">
        <ele>1068.8000488281</ele>
        <time>2021-08-31T11:05:00Z</time>
      </trkpt>
      <trkpt lat="44.4938" lon="5.6612">
        <ele>1067.5999755859</ele>
        <time>2021-08-31T11:05:03Z</time>
      </trkpt>
      <trkpt lat="44.49407" lon="5.66104">
        <ele>1066.5999755859</ele>
        <time>2021-08-31T11:05:06Z</time>
      </trkpt>
      <trkpt lat="44.49415" lon="5.66098">
        <ele>1066.1999511719</ele>
        <time>2021-08-31T11:05:07Z</time>
      </trkpt>
      <trkpt lat="44.49423" lon="5.6609">
        <ele>1065.5999755859</ele>
        <time>2021-08-31T11:05:08Z</time>
      </trkpt>
      <trkpt lat="44.49429" lon="5.6608">
        <ele>1065.1999511719</ele>
        <time>2021-08-31T11:05:09Z</time>
      </trkpt>
      <trkpt lat="44.4944" lon="5.66059">
        <ele>1064.1999511719</ele>
        <time>2021-08-31T11:05:11Z</time>
      </trkpt>
      <trkpt lat="44.49446" lon="5.66051">
        <ele>1063.5999755859</ele>
        <time>2021-08-31T11:05:12Z</time>
      </trkpt>
      <trkpt lat="44.49453" lon="5.66046">
        <ele>1063</ele>
        <time>2021-08-31T11:05:13Z</time>
      </trkpt>
      <trkpt lat="44.49462" lon="5.66037">
        <ele>1062.1999511719</ele>
        <time>2021-08-31T11:05:15Z</time>
      </trkpt>
      <trkpt lat="44.49464" lon="5.6603">
        <ele>1061.5999755859</ele>
        <time>2021-08-31T11:05:16Z</time>
      </trkpt>
      <trkpt lat="44.49462" lon="5.66024">
        <ele>1061.1999511719</ele>
        <time>2021-08-31T11:05:17Z</time>
      </trkpt>
      <trkpt lat="44.49452" lon="5.66022">
        <ele>1060.4000244141</ele>
        <time>2021-08-31T11:05:19Z</time>
      </trkpt>
      <trkpt lat="44.49436" lon="5.66037">
        <ele>1059.4000244141</ele>
        <time>2021-08-31T11:05:22Z</time>
      </trkpt>
      <trkpt lat="44.49431" lon="5.66045">
        <ele>1058.8000488281</ele>
        <time>2021-08-31T11:05:23Z</time>
      </trkpt>
      <trkpt lat="44.49425" lon="5.66052">
        <ele>1058.1999511719</ele>
        <time>2021-08-31T11:05:24Z</time>
      </trkpt>
      <trkpt lat="44.49419" lon="5.66058">
        <ele>1057.8000488281</ele>
        <time>2021-08-31T11:05:25Z</time>
      </trkpt>
      <trkpt lat="44.49411" lon="5.66063">
        <ele>1057.1999511719</ele>
        <time>2021-08-31T11:05:26Z</time>
      </trkpt>
      <trkpt lat="44.49386" lon="5.66074">
        <ele>1055.8000488281</ele>
        <time>2021-08-31T11:05:29Z</time>
      </trkpt>
      <trkpt lat="44.49377" lon="5.66077">
        <ele>1055.4000244141</ele>
        <time>2021-08-31T11:05:30Z</time>
      </trkpt>
      <trkpt lat="44.49358" lon="5.66081">
        <ele>1054.4000244141</ele>
        <time>2021-08-31T11:05:32Z</time>
      </trkpt>
      <trkpt lat="44.49338" lon="5.66084">
        <ele>1053.1999511719</ele>
        <time>2021-08-31T11:05:34Z</time>
      </trkpt>
      <trkpt lat="44.49319" lon="5.66088">
        <ele>1052</ele>
        <time>2021-08-31T11:05:36Z</time>
      </trkpt>
      <trkpt lat="44.49309" lon="5.66091">
        <ele>1051.1999511719</ele>
        <time>2021-08-31T11:05:37Z</time>
      </trkpt>
      <trkpt lat="44.49299" lon="5.66094">
        <ele>1050.4000244141</ele>
        <time>2021-08-31T11:05:38Z</time>
      </trkpt>
      <trkpt lat="44.49279" lon="5.66103">
        <ele>1048.5999755859</ele>
        <time>2021-08-31T11:05:40Z</time>
      </trkpt>
      <trkpt lat="44.49258" lon="5.66109">
        <ele>1047</ele>
        <time>2021-08-31T11:05:42Z</time>
      </trkpt>
      <trkpt lat="44.49236" lon="5.66113">
        <ele>1045.4000244141</ele>
        <time>2021-08-31T11:05:44Z</time>
      </trkpt>
      <trkpt lat="44.49212" lon="5.66116">
        <ele>1043</ele>
        <time>2021-08-31T11:05:46Z</time>
      </trkpt>
      <trkpt lat="44.49189" lon="5.66119">
        <ele>1041.4000244141</ele>
        <time>2021-08-31T11:05:48Z</time>
      </trkpt>
      <trkpt lat="44.49178" lon="5.66119">
        <ele>1040.5999755859</ele>
        <time>2021-08-31T11:05:49Z</time>
      </trkpt>
      <trkpt lat="44.49167" lon="5.66117">
        <ele>1039.5999755859</ele>
        <time>2021-08-31T11:05:50Z</time>
      </trkpt>
      <trkpt lat="44.49156" lon="5.66115">
        <ele>1038.5999755859</ele>
        <time>2021-08-31T11:05:51Z</time>
      </trkpt>
      <trkpt lat="44.49145" lon="5.66113">
        <ele>1037.5999755859</ele>
        <time>2021-08-31T11:05:52Z</time>
      </trkpt>
      <trkpt lat="44.49122" lon="5.66112">
        <ele>1035.8000488281</ele>
        <time>2021-08-31T11:05:54Z</time>
      </trkpt>
      <trkpt lat="44.49111" lon="5.66114">
        <ele>1035.1999511719</ele>
        <time>2021-08-31T11:05:55Z</time>
      </trkpt>
      <trkpt lat="44.491" lon="5.66115">
        <ele>1034.4000244141</ele>
        <time>2021-08-31T11:05:56Z</time>
      </trkpt>
      <trkpt lat="44.49076" lon="5.66116">
        <ele>1032.8000488281</ele>
        <time>2021-08-31T11:05:58Z</time>
      </trkpt>
      <trkpt lat="44.49053" lon="5.66117">
        <ele>1031</ele>
        <time>2021-08-31T11:06:00Z</time>
      </trkpt>
      <trkpt lat="44.49042" lon="5.66119">
        <ele>1030.1999511719</ele>
        <time>2021-08-31T11:06:01Z</time>
      </trkpt>
      <trkpt lat="44.49032" lon="5.6612">
        <ele>1029.4000244141</ele>
        <time>2021-08-31T11:06:02Z</time>
      </trkpt>
      <trkpt lat="44.49023" lon="5.66122">
        <ele>1028.5999755859</ele>
        <time>2021-08-31T11:06:03Z</time>
      </trkpt>
      <trkpt lat="44.49014" lon="5.66126">
        <ele>1027.8000488281</ele>
        <time>2021-08-31T11:06:04Z</time>
      </trkpt>
      <trkpt lat="44.49007" lon="5.6613">
        <ele>1026.8000488281</ele>
        <time>2021-08-31T11:06:05Z</time>
      </trkpt>
      <trkpt lat="44.49003" lon="5.66132">
        <ele>1025.8000488281</ele>
        <time>2021-08-31T11:06:06Z</time>
      </trkpt>
      <trkpt lat="44.48999" lon="5.66135">
        <ele>1024.8000488281</ele>
        <time>2021-08-31T11:06:07Z</time>
      </trkpt>
      <trkpt lat="44.48997" lon="5.66136">
        <ele>1024</ele>
        <time>2021-08-31T11:06:08Z</time>
      </trkpt>
      <trkpt lat="44.48995" lon="5.66138">
        <ele>1021.799987793</ele>
        <time>2021-08-31T11:06:10Z</time>
      </trkpt>
      <trkpt lat="44.48996" lon="5.66138">
        <ele>1020</ele>
        <time>2021-08-31T11:06:42Z</time>
      </trkpt>
      <trkpt lat="44.48988" lon="5.66146">
        <ele>1020</ele>
        <time>2021-08-31T11:06:46Z</time>
      </trkpt>
      <trkpt lat="44.48972" lon="5.66159">
        <ele>1019.200012207</ele>
        <time>2021-08-31T11:06:50Z</time>
      </trkpt>
      <trkpt lat="44.48967" lon="5.66164">
        <ele>1019</ele>
        <time>2021-08-31T11:06:51Z</time>
      </trkpt>
      <trkpt lat="44.48954" lon="5.66173">
        <ele>1018.4000244141</ele>
        <time>2021-08-31T11:06:53Z</time>
      </trkpt>
      <trkpt lat="44.48947" lon="5.66176">
        <ele>1018.200012207</ele>
        <time>2021-08-31T11:06:54Z</time>
      </trkpt>
      <trkpt lat="44.48939" lon="5.66178">
        <ele>1017.799987793</ele>
        <time>2021-08-31T11:06:55Z</time>
      </trkpt>
      <trkpt lat="44.48912" lon="5.6618">
        <ele>1016.4000244141</ele>
        <time>2021-08-31T11:06:58Z</time>
      </trkpt>
      <trkpt lat="44.48903" lon="5.66179">
        <ele>1016</ele>
        <time>2021-08-31T11:06:59Z</time>
      </trkpt>
      <trkpt lat="44.48886" lon="5.66176">
        <ele>1015</ele>
        <time>2021-08-31T11:07:01Z</time>
      </trkpt>
      <trkpt lat="44.48878" lon="5.66175">
        <ele>1014.4000244141</ele>
        <time>2021-08-31T11:07:02Z</time>
      </trkpt>
      <trkpt lat="44.48871" lon="5.66174">
        <ele>1014</ele>
        <time>2021-08-31T11:07:03Z</time>
      </trkpt>
      <trkpt lat="44.48855" lon="5.66173">
        <ele>1012.799987793</ele>
        <time>2021-08-31T11:07:05Z</time>
      </trkpt>
      <trkpt lat="44.48839" lon="5.66174">
        <ele>1011.4000244141</ele>
        <time>2021-08-31T11:07:07Z</time>
      </trkpt>
      <trkpt lat="44.48823" lon="5.66175">
        <ele>1010.200012207</ele>
        <time>2021-08-31T11:07:09Z</time>
      </trkpt>
      <trkpt lat="44.48805" lon="5.66178">
        <ele>1009</ele>
        <time>2021-08-31T11:07:11Z</time>
      </trkpt>
      <trkpt lat="44.48796" lon="5.66179">
        <ele>1008.4000244141</ele>
        <time>2021-08-31T11:07:12Z</time>
      </trkpt>
      <trkpt lat="44.48787" lon="5.6618">
        <ele>1007.799987793</ele>
        <time>2021-08-31T11:07:13Z</time>
      </trkpt>
      <trkpt lat="44.48767" lon="5.66183">
        <ele>1006.799987793</ele>
        <time>2021-08-31T11:07:15Z</time>
      </trkpt>
      <trkpt lat="44.48757" lon="5.66184">
        <ele>1006.200012207</ele>
        <time>2021-08-31T11:07:16Z</time>
      </trkpt>
      <trkpt lat="44.48747" lon="5.66185">
        <ele>1005.5999755859</ele>
        <time>2021-08-31T11:07:17Z</time>
      </trkpt>
      <trkpt lat="44.48736" lon="5.66186">
        <ele>1004.799987793</ele>
        <time>2021-08-31T11:07:18Z</time>
      </trkpt>
      <trkpt lat="44.48726" lon="5.66186">
        <ele>1004.200012207</ele>
        <time>2021-08-31T11:07:19Z</time>
      </trkpt>
      <trkpt lat="44.48706" lon="5.66184">
        <ele>1003</ele>
        <time>2021-08-31T11:07:21Z</time>
      </trkpt>
      <trkpt lat="44.48696" lon="5.66182">
        <ele>1001.4000244141</ele>
        <time>2021-08-31T11:07:22Z</time>
      </trkpt>
      <trkpt lat="44.48686" lon="5.66181">
        <ele>1000.4000244141</ele>
        <time>2021-08-31T11:07:23Z</time>
      </trkpt>
      <trkpt lat="44.48676" lon="5.66181">
        <ele>999.59997558594</ele>
        <time>2021-08-31T11:07:24Z</time>
      </trkpt>
      <trkpt lat="44.48656" lon="5.66181">
        <ele>997.79998779297</ele>
        <time>2021-08-31T11:07:26Z</time>
      </trkpt>
      <trkpt lat="44.48636" lon="5.66179">
        <ele>996</ele>
        <time>2021-08-31T11:07:28Z</time>
      </trkpt>
      <trkpt lat="44.48627" lon="5.66178">
        <ele>995.20001220703</ele>
        <time>2021-08-31T11:07:29Z</time>
      </trkpt>
      <trkpt lat="44.48617" lon="5.66174">
        <ele>994.40002441406</ele>
        <time>2021-08-31T11:07:30Z</time>
      </trkpt>
      <trkpt lat="44.48601" lon="5.66166">
        <ele>992.79998779297</ele>
        <time>2021-08-31T11:07:32Z</time>
      </trkpt>
      <trkpt lat="44.48587" lon="5.6616">
        <ele>991</ele>
        <time>2021-08-31T11:07:34Z</time>
      </trkpt>
      <trkpt lat="44.4858" lon="5.6616">
        <ele>990.20001220703</ele>
        <time>2021-08-31T11:07:35Z</time>
      </trkpt>
      <trkpt lat="44.48573" lon="5.66162">
        <ele>989.59997558594</ele>
        <time>2021-08-31T11:07:36Z</time>
      </trkpt>
      <trkpt lat="44.4856" lon="5.66165">
        <ele>988</ele>
        <time>2021-08-31T11:07:38Z</time>
      </trkpt>
      <trkpt lat="44.48553" lon="5.66165">
        <ele>987.40002441406</ele>
        <time>2021-08-31T11:07:39Z</time>
      </trkpt>
      <trkpt lat="44.48546" lon="5.66162">
        <ele>986.59997558594</ele>
        <time>2021-08-31T11:07:40Z</time>
      </trkpt>
      <trkpt lat="44.48531" lon="5.66155">
        <ele>985.40002441406</ele>
        <time>2021-08-31T11:07:42Z</time>
      </trkpt>
      <trkpt lat="44.48524" lon="5.66151">
        <ele>984.79998779297</ele>
        <time>2021-08-31T11:07:43Z</time>
      </trkpt>
      <trkpt lat="44.48518" lon="5.66147">
        <ele>984.40002441406</ele>
        <time>2021-08-31T11:07:44Z</time>
      </trkpt>
      <trkpt lat="44.48508" lon="5.66142">
        <ele>982.59997558594</ele>
        <time>2021-08-31T11:07:46Z</time>
      </trkpt>
      <trkpt lat="44.48505" lon="5.66139">
        <ele>982</ele>
        <time>2021-08-31T11:07:47Z</time>
      </trkpt>
      <trkpt lat="44.48502" lon="5.66136">
        <ele>981.20001220703</ele>
        <time>2021-08-31T11:07:48Z</time>
      </trkpt>
      <trkpt lat="44.48502" lon="5.66129">
        <ele>980</ele>
        <time>2021-08-31T11:07:50Z</time>
      </trkpt>
      <trkpt lat="44.48502" lon="5.66126">
        <ele>979.40002441406</ele>
        <time>2021-08-31T11:07:51Z</time>
      </trkpt>
      <trkpt lat="44.48504" lon="5.66121">
        <ele>978.59997558594</ele>
        <time>2021-08-31T11:07:53Z</time>
      </trkpt>
      <trkpt lat="44.48508" lon="5.66116">
        <ele>978.20001220703</ele>
        <time>2021-08-31T11:07:55Z</time>
      </trkpt>
      <trkpt lat="44.4852" lon="5.66111">
        <ele>977.59997558594</ele>
        <time>2021-08-31T11:07:58Z</time>
      </trkpt>
      <trkpt lat="44.48524" lon="5.66111">
        <ele>977.40002441406</ele>
        <time>2021-08-31T11:07:59Z</time>
      </trkpt>
      <trkpt lat="44.48547" lon="5.66104">
        <ele>976.40002441406</ele>
        <time>2021-08-31T11:08:04Z</time>
      </trkpt>
      <trkpt lat="44.48553" lon="5.66102">
        <ele>976.20001220703</ele>
        <time>2021-08-31T11:08:05Z</time>
      </trkpt>
      <trkpt lat="44.48573" lon="5.66094">
        <ele>975.40002441406</ele>
        <time>2021-08-31T11:08:08Z</time>
      </trkpt>
      <trkpt lat="44.48587" lon="5.66087">
        <ele>974.40002441406</ele>
        <time>2021-08-31T11:08:10Z</time>
      </trkpt>
      <trkpt lat="44.48595" lon="5.66084">
        <ele>974</ele>
        <time>2021-08-31T11:08:11Z</time>
      </trkpt>
      <trkpt lat="44.48612" lon="5.66079">
        <ele>973</ele>
        <time>2021-08-31T11:08:13Z</time>
      </trkpt>
      <trkpt lat="44.48621" lon="5.66079">
        <ele>972.40002441406</ele>
        <time>2021-08-31T11:08:14Z</time>
      </trkpt>
      <trkpt lat="44.48641" lon="5.6608">
        <ele>971.20001220703</ele>
        <time>2021-08-31T11:08:16Z</time>
      </trkpt>
      <trkpt lat="44.48661" lon="5.66077">
        <ele>969.79998779297</ele>
        <time>2021-08-31T11:08:18Z</time>
      </trkpt>
      <trkpt lat="44.48681" lon="5.66071">
        <ele>968.59997558594</ele>
        <time>2021-08-31T11:08:20Z</time>
      </trkpt>
      <trkpt lat="44.48702" lon="5.66064">
        <ele>967.20001220703</ele>
        <time>2021-08-31T11:08:22Z</time>
      </trkpt>
      <trkpt lat="44.48712" lon="5.66058">
        <ele>966.59997558594</ele>
        <time>2021-08-31T11:08:23Z</time>
      </trkpt>
      <trkpt lat="44.48722" lon="5.66052">
        <ele>965.79998779297</ele>
        <time>2021-08-31T11:08:24Z</time>
      </trkpt>
      <trkpt lat="44.48741" lon="5.6604">
        <ele>964</ele>
        <time>2021-08-31T11:08:26Z</time>
      </trkpt>
      <trkpt lat="44.4876" lon="5.66025">
        <ele>962.20001220703</ele>
        <time>2021-08-31T11:08:28Z</time>
      </trkpt>
      <trkpt lat="44.48776" lon="5.6601">
        <ele>960.59997558594</ele>
        <time>2021-08-31T11:08:30Z</time>
      </trkpt>
      <trkpt lat="44.48791" lon="5.66">
        <ele>959</ele>
        <time>2021-08-31T11:08:32Z</time>
      </trkpt>
      <trkpt lat="44.48804" lon="5.65995">
        <ele>957</ele>
        <time>2021-08-31T11:08:34Z</time>
      </trkpt>
      <trkpt lat="44.48808" lon="5.65991">
        <ele>956.20001220703</ele>
        <time>2021-08-31T11:08:35Z</time>
      </trkpt>
      <trkpt lat="44.48811" lon="5.65987">
        <ele>955.59997558594</ele>
        <time>2021-08-31T11:08:36Z</time>
      </trkpt>
      <trkpt lat="44.48813" lon="5.65984">
        <ele>955</ele>
        <time>2021-08-31T11:08:37Z</time>
      </trkpt>
      <trkpt lat="44.48814" lon="5.65981">
        <ele>954.40002441406</ele>
        <time>2021-08-31T11:08:38Z</time>
      </trkpt>
      <trkpt lat="44.48814" lon="5.65975">
        <ele>953.20001220703</ele>
        <time>2021-08-31T11:08:41Z</time>
      </trkpt>
      <trkpt lat="44.48813" lon="5.65967">
        <ele>951.79998779297</ele>
        <time>2021-08-31T11:09:01Z</time>
      </trkpt>
      <trkpt lat="44.48805" lon="5.65955">
        <ele>951.59997558594</ele>
        <time>2021-08-31T11:09:06Z</time>
      </trkpt>
      <trkpt lat="44.48789" lon="5.65948">
        <ele>951.40002441406</ele>
        <time>2021-08-31T11:09:10Z</time>
      </trkpt>
      <trkpt lat="44.48779" lon="5.65947">
        <ele>951</ele>
        <time>2021-08-31T11:09:12Z</time>
      </trkpt>
      <trkpt lat="44.48769" lon="5.65946">
        <ele>950.59997558594</ele>
        <time>2021-08-31T11:09:14Z</time>
      </trkpt>
      <trkpt lat="44.48764" lon="5.65948">
        <ele>950.40002441406</ele>
        <time>2021-08-31T11:09:15Z</time>
      </trkpt>
      <trkpt lat="44.4875" lon="5.65957">
        <ele>949.59997558594</ele>
        <time>2021-08-31T11:09:18Z</time>
      </trkpt>
      <trkpt lat="44.48739" lon="5.65962">
        <ele>948.79998779297</ele>
        <time>2021-08-31T11:09:20Z</time>
      </trkpt>
      <trkpt lat="44.48733" lon="5.65963">
        <ele>948.59997558594</ele>
        <time>2021-08-31T11:09:21Z</time>
      </trkpt>
      <trkpt lat="44.48719" lon="5.65963">
        <ele>947.20001220703</ele>
        <time>2021-08-31T11:09:23Z</time>
      </trkpt>
      <trkpt lat="44.48711" lon="5.65964">
        <ele>946.79998779297</ele>
        <time>2021-08-31T11:09:24Z</time>
      </trkpt>
      <trkpt lat="44.48694" lon="5.65965">
        <ele>946</ele>
        <time>2021-08-31T11:09:26Z</time>
      </trkpt>
      <trkpt lat="44.48677" lon="5.65962">
        <ele>945</ele>
        <time>2021-08-31T11:09:28Z</time>
      </trkpt>
      <trkpt lat="44.48669" lon="5.65959">
        <ele>944.40002441406</ele>
        <time>2021-08-31T11:09:29Z</time>
      </trkpt>
      <trkpt lat="44.48653" lon="5.6595">
        <ele>943.20001220703</ele>
        <time>2021-08-31T11:09:31Z</time>
      </trkpt>
      <trkpt lat="44.48645" lon="5.65945">
        <ele>942.59997558594</ele>
        <time>2021-08-31T11:09:32Z</time>
      </trkpt>
      <trkpt lat="44.48637" lon="5.65939">
        <ele>942</ele>
        <time>2021-08-31T11:09:33Z</time>
      </trkpt>
      <trkpt lat="44.48628" lon="5.65933">
        <ele>941.40002441406</ele>
        <time>2021-08-31T11:09:34Z</time>
      </trkpt>
      <trkpt lat="44.4862" lon="5.65926">
        <ele>940.79998779297</ele>
        <time>2021-08-31T11:09:35Z</time>
      </trkpt>
      <trkpt lat="44.48605" lon="5.65909">
        <ele>939.40002441406</ele>
        <time>2021-08-31T11:09:37Z</time>
      </trkpt>
      <trkpt lat="44.4859" lon="5.6589">
        <ele>938.40002441406</ele>
        <time>2021-08-31T11:09:39Z</time>
      </trkpt>
      <trkpt lat="44.48573" lon="5.65872">
        <ele>937.20001220703</ele>
        <time>2021-08-31T11:09:41Z</time>
      </trkpt>
      <trkpt lat="44.48557" lon="5.65853">
        <ele>936</ele>
        <time>2021-08-31T11:09:43Z</time>
      </trkpt>
      <trkpt lat="44.48543" lon="5.65837">
        <ele>934.79998779297</ele>
        <time>2021-08-31T11:09:45Z</time>
      </trkpt>
      <trkpt lat="44.48536" lon="5.65832">
        <ele>934.20001220703</ele>
        <time>2021-08-31T11:09:46Z</time>
      </trkpt>
      <trkpt lat="44.48529" lon="5.65831">
        <ele>933.40002441406</ele>
        <time>2021-08-31T11:09:47Z</time>
      </trkpt>
      <trkpt lat="44.48509" lon="5.65842">
        <ele>932</ele>
        <time>2021-08-31T11:09:50Z</time>
      </trkpt>
      <trkpt lat="44.48489" lon="5.65858">
        <ele>931</ele>
        <time>2021-08-31T11:09:53Z</time>
      </trkpt>
      <trkpt lat="44.48481" lon="5.65863">
        <ele>930.59997558594</ele>
        <time>2021-08-31T11:09:54Z</time>
      </trkpt>
      <trkpt lat="44.48454" lon="5.65873">
        <ele>929.59997558594</ele>
        <time>2021-08-31T11:09:57Z</time>
      </trkpt>
      <trkpt lat="44.48445" lon="5.65878">
        <ele>929.20001220703</ele>
        <time>2021-08-31T11:09:58Z</time>
      </trkpt>
      <trkpt lat="44.48426" lon="5.65886">
        <ele>928.20001220703</ele>
        <time>2021-08-31T11:10:00Z</time>
      </trkpt>
      <trkpt lat="44.48406" lon="5.65891">
        <ele>927.20001220703</ele>
        <time>2021-08-31T11:10:02Z</time>
      </trkpt>
      <trkpt lat="44.48396" lon="5.65892">
        <ele>926.59997558594</ele>
        <time>2021-08-31T11:10:03Z</time>
      </trkpt>
      <trkpt lat="44.48378" lon="5.65887">
        <ele>925.20001220703</ele>
        <time>2021-08-31T11:10:05Z</time>
      </trkpt>
      <trkpt lat="44.48361" lon="5.65879">
        <ele>924</ele>
        <time>2021-08-31T11:10:07Z</time>
      </trkpt>
      <trkpt lat="44.48354" lon="5.65872">
        <ele>923.20001220703</ele>
        <time>2021-08-31T11:10:08Z</time>
      </trkpt>
      <trkpt lat="44.48349" lon="5.65863">
        <ele>922.40002441406</ele>
        <time>2021-08-31T11:10:09Z</time>
      </trkpt>
      <trkpt lat="44.48344" lon="5.65855">
        <ele>921.20001220703</ele>
        <time>2021-08-31T11:10:10Z</time>
      </trkpt>
      <trkpt lat="44.48339" lon="5.65847">
        <ele>919</ele>
        <time>2021-08-31T11:10:11Z</time>
      </trkpt>
      <trkpt lat="44.48333" lon="5.65841">
        <ele>918</ele>
        <time>2021-08-31T11:10:12Z</time>
      </trkpt>
      <trkpt lat="44.48326" lon="5.65837">
        <ele>917.20001220703</ele>
        <time>2021-08-31T11:10:13Z</time>
      </trkpt>
      <trkpt lat="44.48319" lon="5.65834">
        <ele>916.40002441406</ele>
        <time>2021-08-31T11:10:14Z</time>
      </trkpt>
      <trkpt lat="44.48303" lon="5.65829">
        <ele>914.79998779297</ele>
        <time>2021-08-31T11:10:16Z</time>
      </trkpt>
      <trkpt lat="44.48285" lon="5.65826">
        <ele>913.20001220703</ele>
        <time>2021-08-31T11:10:18Z</time>
      </trkpt>
      <trkpt lat="44.48268" lon="5.65824">
        <ele>912</ele>
        <time>2021-08-31T11:10:20Z</time>
      </trkpt>
      <trkpt lat="44.48259" lon="5.65822">
        <ele>911.40002441406</ele>
        <time>2021-08-31T11:10:21Z</time>
      </trkpt>
      <trkpt lat="44.48251" lon="5.6582">
        <ele>910.79998779297</ele>
        <time>2021-08-31T11:10:22Z</time>
      </trkpt>
      <trkpt lat="44.48234" lon="5.65823">
        <ele>909.40002441406</ele>
        <time>2021-08-31T11:10:24Z</time>
      </trkpt>
      <trkpt lat="44.48225" lon="5.65827">
        <ele>908.79998779297</ele>
        <time>2021-08-31T11:10:25Z</time>
      </trkpt>
      <trkpt lat="44.48216" lon="5.6583">
        <ele>908.20001220703</ele>
        <time>2021-08-31T11:10:26Z</time>
      </trkpt>
      <trkpt lat="44.48197" lon="5.65835">
        <ele>907</ele>
        <time>2021-08-31T11:10:28Z</time>
      </trkpt>
      <trkpt lat="44.48187" lon="5.65836">
        <ele>906.20001220703</ele>
        <time>2021-08-31T11:10:29Z</time>
      </trkpt>
      <trkpt lat="44.48176" lon="5.65838">
        <ele>905.59997558594</ele>
        <time>2021-08-31T11:10:30Z</time>
      </trkpt>
      <trkpt lat="44.48157" lon="5.65841">
        <ele>904.40002441406</ele>
        <time>2021-08-31T11:10:32Z</time>
      </trkpt>
      <trkpt lat="44.4814" lon="5.65847">
        <ele>902.59997558594</ele>
        <time>2021-08-31T11:10:34Z</time>
      </trkpt>
      <trkpt lat="44.48132" lon="5.65848">
        <ele>901</ele>
        <time>2021-08-31T11:10:35Z</time>
      </trkpt>
      <trkpt lat="44.48117" lon="5.65845">
        <ele>899.40002441406</ele>
        <time>2021-08-31T11:10:37Z</time>
      </trkpt>
      <trkpt lat="44.48108" lon="5.65845">
        <ele>898.40002441406</ele>
        <time>2021-08-31T11:10:38Z</time>
      </trkpt>
      <trkpt lat="44.48099" lon="5.65847">
        <ele>897.59997558594</ele>
        <time>2021-08-31T11:10:39Z</time>
      </trkpt>
      <trkpt lat="44.48091" lon="5.65852">
        <ele>896.79998779297</ele>
        <time>2021-08-31T11:10:40Z</time>
      </trkpt>
      <trkpt lat="44.48083" lon="5.65859">
        <ele>896.40002441406</ele>
        <time>2021-08-31T11:10:41Z</time>
      </trkpt>
      <trkpt lat="44.48074" lon="5.65865">
        <ele>895.79998779297</ele>
        <time>2021-08-31T11:10:42Z</time>
      </trkpt>
      <trkpt lat="44.48065" lon="5.6587">
        <ele>895.20001220703</ele>
        <time>2021-08-31T11:10:43Z</time>
      </trkpt>
      <trkpt lat="44.48056" lon="5.65874">
        <ele>894.59997558594</ele>
        <time>2021-08-31T11:10:44Z</time>
      </trkpt>
      <trkpt lat="44.48047" lon="5.65878">
        <ele>893.79998779297</ele>
        <time>2021-08-31T11:10:45Z</time>
      </trkpt>
      <trkpt lat="44.4803" lon="5.65882">
        <ele>892.20001220703</ele>
        <time>2021-08-31T11:10:47Z</time>
      </trkpt>
      <trkpt lat="44.48022" lon="5.65881">
        <ele>891.40002441406</ele>
        <time>2021-08-31T11:10:48Z</time>
      </trkpt>
      <trkpt lat="44.48012" lon="5.6588">
        <ele>890.40002441406</ele>
        <time>2021-08-31T11:10:49Z</time>
      </trkpt>
      <trkpt lat="44.48004" lon="5.65879">
        <ele>889.40002441406</ele>
        <time>2021-08-31T11:10:50Z</time>
      </trkpt>
      <trkpt lat="44.47996" lon="5.65881">
        <ele>888.40002441406</ele>
        <time>2021-08-31T11:10:51Z</time>
      </trkpt>
      <trkpt lat="44.47981" lon="5.65889">
        <ele>886.79998779297</ele>
        <time>2021-08-31T11:10:53Z</time>
      </trkpt>
      <trkpt lat="44.47973" lon="5.65894">
        <ele>886.20001220703</ele>
        <time>2021-08-31T11:10:54Z</time>
      </trkpt>
      <trkpt lat="44.47964" lon="5.65896">
        <ele>885.40002441406</ele>
        <time>2021-08-31T11:10:55Z</time>
      </trkpt>
      <trkpt lat="44.47945" lon="5.65898">
        <ele>884</ele>
        <time>2021-08-31T11:10:57Z</time>
      </trkpt>
      <trkpt lat="44.47928" lon="5.65898">
        <ele>881.79998779297</ele>
        <time>2021-08-31T11:10:59Z</time>
      </trkpt>
      <trkpt lat="44.47912" lon="5.65893">
        <ele>880.59997558594</ele>
        <time>2021-08-31T11:11:01Z</time>
      </trkpt>
      <trkpt lat="44.47897" lon="5.65889">
        <ele>879.79998779297</ele>
        <time>2021-08-31T11:11:03Z</time>
      </trkpt>
      <trkpt lat="44.47891" lon="5.6589">
        <ele>879.40002441406</ele>
        <time>2021-08-31T11:11:04Z</time>
      </trkpt>
      <trkpt lat="44.4788" lon="5.65908">
        <ele>878.20001220703</ele>
        <time>2021-08-31T11:11:07Z</time>
      </trkpt>
      <trkpt lat="44.47877" lon="5.65923">
        <ele>877.40002441406</ele>
        <time>2021-08-31T11:11:09Z</time>
      </trkpt>
      <trkpt lat="44.47876" lon="5.65932">
        <ele>877</ele>
        <time>2021-08-31T11:11:10Z</time>
      </trkpt>
      <trkpt lat="44.47874" lon="5.65949">
        <ele>876</ele>
        <time>2021-08-31T11:11:12Z</time>
      </trkpt>
      <trkpt lat="44.47873" lon="5.65958">
        <ele>875.40002441406</ele>
        <time>2021-08-31T11:11:13Z</time>
      </trkpt>
      <trkpt lat="44.47869" lon="5.65988">
        <ele>874</ele>
        <time>2021-08-31T11:11:16Z</time>
      </trkpt>
      <trkpt lat="44.47868" lon="5.6601">
        <ele>873.20001220703</ele>
        <time>2021-08-31T11:11:18Z</time>
      </trkpt>
      <trkpt lat="44.47868" lon="5.66022">
        <ele>872.79998779297</ele>
        <time>2021-08-31T11:11:19Z</time>
      </trkpt>
      <trkpt lat="44.47867" lon="5.66042">
        <ele>871.40002441406</ele>
        <time>2021-08-31T11:11:21Z</time>
      </trkpt>
      <trkpt lat="44.47865" lon="5.66051">
        <ele>870.79998779297</ele>
        <time>2021-08-31T11:11:22Z</time>
      </trkpt>
      <trkpt lat="44.47861" lon="5.66058">
        <ele>869.40002441406</ele>
        <time>2021-08-31T11:11:23Z</time>
      </trkpt>
      <trkpt lat="44.4785" lon="5.66067">
        <ele>868</ele>
        <time>2021-08-31T11:11:25Z</time>
      </trkpt>
      <trkpt lat="44.47837" lon="5.66064">
        <ele>866.79998779297</ele>
        <time>2021-08-31T11:11:27Z</time>
      </trkpt>
      <trkpt lat="44.4783" lon="5.66049">
        <ele>865.59997558594</ele>
        <time>2021-08-31T11:11:29Z</time>
      </trkpt>
      <trkpt lat="44.47821" lon="5.6602">
        <ele>864.20001220703</ele>
        <time>2021-08-31T11:11:32Z</time>
      </trkpt>
      <trkpt lat="44.47815" lon="5.66011">
        <ele>863.79998779297</ele>
        <time>2021-08-31T11:11:33Z</time>
      </trkpt>
      <trkpt lat="44.47809" lon="5.66001">
        <ele>863.20001220703</ele>
        <time>2021-08-31T11:11:34Z</time>
      </trkpt>
      <trkpt lat="44.47803" lon="5.65992">
        <ele>862.79998779297</ele>
        <time>2021-08-31T11:11:35Z</time>
      </trkpt>
      <trkpt lat="44.47798" lon="5.65982">
        <ele>862.40002441406</ele>
        <time>2021-08-31T11:11:36Z</time>
      </trkpt>
      <trkpt lat="44.47794" lon="5.65972">
        <ele>862</ele>
        <time>2021-08-31T11:11:37Z</time>
      </trkpt>
      <trkpt lat="44.4779" lon="5.65963">
        <ele>861.40002441406</ele>
        <time>2021-08-31T11:11:38Z</time>
      </trkpt>
      <trkpt lat="44.4778" lon="5.65949">
        <ele>860.20001220703</ele>
        <time>2021-08-31T11:11:40Z</time>
      </trkpt>
      <trkpt lat="44.47773" lon="5.65945">
        <ele>859.59997558594</ele>
        <time>2021-08-31T11:11:41Z</time>
      </trkpt>
      <trkpt lat="44.47766" lon="5.65943">
        <ele>858.79998779297</ele>
        <time>2021-08-31T11:11:42Z</time>
      </trkpt>
      <trkpt lat="44.47749" lon="5.65941">
        <ele>857.40002441406</ele>
        <time>2021-08-31T11:11:44Z</time>
      </trkpt>
      <trkpt lat="44.4774" lon="5.65941">
        <ele>856.79998779297</ele>
        <time>2021-08-31T11:11:45Z</time>
      </trkpt>
      <trkpt lat="44.47731" lon="5.6594">
        <ele>856.20001220703</ele>
        <time>2021-08-31T11:11:46Z</time>
      </trkpt>
      <trkpt lat="44.47722" lon="5.65939">
        <ele>855.20001220703</ele>
        <time>2021-08-31T11:11:47Z</time>
      </trkpt>
      <trkpt lat="44.47714" lon="5.65934">
        <ele>854.79998779297</ele>
        <time>2021-08-31T11:11:48Z</time>
      </trkpt>
      <trkpt lat="44.47707" lon="5.65928">
        <ele>854.20001220703</ele>
        <time>2021-08-31T11:11:49Z</time>
      </trkpt>
      <trkpt lat="44.47701" lon="5.65921">
        <ele>853.40002441406</ele>
        <time>2021-08-31T11:11:50Z</time>
      </trkpt>
      <trkpt lat="44.47697" lon="5.65904">
        <ele>852</ele>
        <time>2021-08-31T11:11:52Z</time>
      </trkpt>
      <trkpt lat="44.47702" lon="5.6589">
        <ele>850.59997558594</ele>
        <time>2021-08-31T11:11:54Z</time>
      </trkpt>
      <trkpt lat="44.47708" lon="5.65884">
        <ele>849.79998779297</ele>
        <time>2021-08-31T11:11:55Z</time>
      </trkpt>
      <trkpt lat="44.47713" lon="5.65879">
        <ele>849.20001220703</ele>
        <time>2021-08-31T11:11:56Z</time>
      </trkpt>
      <trkpt lat="44.47719" lon="5.65872">
        <ele>848.40002441406</ele>
        <time>2021-08-31T11:11:57Z</time>
      </trkpt>
      <trkpt lat="44.47723" lon="5.65863">
        <ele>847.79998779297</ele>
        <time>2021-08-31T11:11:58Z</time>
      </trkpt>
      <trkpt lat="44.47725" lon="5.65853">
        <ele>847.20001220703</ele>
        <time>2021-08-31T11:11:59Z</time>
      </trkpt>
      <trkpt lat="44.47725" lon="5.65843">
        <ele>846.79998779297</ele>
        <time>2021-08-31T11:12:00Z</time>
      </trkpt>
      <trkpt lat="44.4772" lon="5.65824">
        <ele>845.79998779297</ele>
        <time>2021-08-31T11:12:02Z</time>
      </trkpt>
      <trkpt lat="44.4771" lon="5.65807">
        <ele>844.40002441406</ele>
        <time>2021-08-31T11:12:04Z</time>
      </trkpt>
      <trkpt lat="44.47703" lon="5.65799">
        <ele>843.79998779297</ele>
        <time>2021-08-31T11:12:05Z</time>
      </trkpt>
      <trkpt lat="44.47696" lon="5.65791">
        <ele>843</ele>
        <time>2021-08-31T11:12:06Z</time>
      </trkpt>
      <trkpt lat="44.47684" lon="5.65776">
        <ele>841.59997558594</ele>
        <time>2021-08-31T11:12:08Z</time>
      </trkpt>
      <trkpt lat="44.47672" lon="5.65761">
        <ele>840.40002441406</ele>
        <time>2021-08-31T11:12:10Z</time>
      </trkpt>
      <trkpt lat="44.47665" lon="5.65754">
        <ele>839</ele>
        <time>2021-08-31T11:12:11Z</time>
      </trkpt>
      <trkpt lat="44.47651" lon="5.65739">
        <ele>837.79998779297</ele>
        <time>2021-08-31T11:12:13Z</time>
      </trkpt>
      <trkpt lat="44.47645" lon="5.65732">
        <ele>837.20001220703</ele>
        <time>2021-08-31T11:12:14Z</time>
      </trkpt>
      <trkpt lat="44.47639" lon="5.65724">
        <ele>836.40002441406</ele>
        <time>2021-08-31T11:12:15Z</time>
      </trkpt>
      <trkpt lat="44.47634" lon="5.65717">
        <ele>835.79998779297</ele>
        <time>2021-08-31T11:12:16Z</time>
      </trkpt>
      <trkpt lat="44.47629" lon="5.6571">
        <ele>835.20001220703</ele>
        <time>2021-08-31T11:12:17Z</time>
      </trkpt>
      <trkpt lat="44.4762" lon="5.65697">
        <ele>834.20001220703</ele>
        <time>2021-08-31T11:12:19Z</time>
      </trkpt>
      <trkpt lat="44.47616" lon="5.65689">
        <ele>833.79998779297</ele>
        <time>2021-08-31T11:12:20Z</time>
      </trkpt>
      <trkpt lat="44.47602" lon="5.65659">
        <ele>832.79998779297</ele>
        <time>2021-08-31T11:12:24Z</time>
      </trkpt>
      <trkpt lat="44.47593" lon="5.65644">
        <ele>832.40002441406</ele>
        <time>2021-08-31T11:12:26Z</time>
      </trkpt>
      <trkpt lat="44.47574" lon="5.65613">
        <ele>831.79998779297</ele>
        <time>2021-08-31T11:12:31Z</time>
      </trkpt>
      <trkpt lat="44.47568" lon="5.65602">
        <ele>831.79998779297</ele>
        <time>2021-08-31T11:12:33Z</time>
      </trkpt>
      <trkpt lat="44.47553" lon="5.65576">
        <ele>832</ele>
        <time>2021-08-31T11:12:39Z</time>
      </trkpt>
      <trkpt lat="44.47537" lon="5.65547">
        <ele>832.20001220703</ele>
        <time>2021-08-31T11:12:46Z</time>
      </trkpt>
      <trkpt lat="44.47528" lon="5.6553">
        <ele>831.40002441406</ele>
        <time>2021-08-31T11:12:51Z</time>
      </trkpt>
      <trkpt lat="44.47517" lon="5.65536">
        <ele>830.59997558594</ele>
        <time>2021-08-31T11:12:55Z</time>
      </trkpt>
      <trkpt lat="44.47513" lon="5.65539">
        <ele>830.59997558594</ele>
        <time>2021-08-31T11:12:56Z</time>
      </trkpt>
      <trkpt lat="44.47507" lon="5.65547">
        <ele>830</ele>
        <time>2021-08-31T11:12:58Z</time>
      </trkpt>
      <trkpt lat="44.47504" lon="5.65549">
        <ele>829.40002441406</ele>
        <time>2021-08-31T11:12:59Z</time>
      </trkpt>
      <trkpt lat="44.47502" lon="5.65552">
        <ele>829</ele>
        <time>2021-08-31T11:13:00Z</time>
      </trkpt>
      <trkpt lat="44.47497" lon="5.65559">
        <ele>828</ele>
        <time>2021-08-31T11:13:02Z</time>
      </trkpt>
      <trkpt lat="44.4749" lon="5.65569">
        <ele>827.20001220703</ele>
        <time>2021-08-31T11:13:04Z</time>
      </trkpt>
      <trkpt lat="44.47485" lon="5.65574">
        <ele>827</ele>
        <time>2021-08-31T11:13:05Z</time>
      </trkpt>
      <trkpt lat="44.47473" lon="5.65588">
        <ele>826</ele>
        <time>2021-08-31T11:13:08Z</time>
      </trkpt>
      <trkpt lat="44.47465" lon="5.65598">
        <ele>825</ele>
        <time>2021-08-31T11:13:10Z</time>
      </trkpt>
      <trkpt lat="44.4746" lon="5.65604">
        <ele>824.59997558594</ele>
        <time>2021-08-31T11:13:11Z</time>
      </trkpt>
      <trkpt lat="44.47445" lon="5.65623">
        <ele>823.20001220703</ele>
        <time>2021-08-31T11:13:14Z</time>
      </trkpt>
      <trkpt lat="44.4744" lon="5.65629">
        <ele>822.79998779297</ele>
        <time>2021-08-31T11:13:15Z</time>
      </trkpt>
      <trkpt lat="44.47431" lon="5.65639">
        <ele>822</ele>
        <time>2021-08-31T11:13:17Z</time>
      </trkpt>
      <trkpt lat="44.47429" lon="5.65642">
        <ele>821.59997558594</ele>
        <time>2021-08-31T11:13:18Z</time>
      </trkpt>
      <trkpt lat="44.47427" lon="5.65643">
        <ele>821</ele>
        <time>2021-08-31T11:13:19Z</time>
      </trkpt>
      <trkpt lat="44.47426" lon="5.65646">
        <ele>817.20001220703</ele>
        <time>2021-08-31T11:14:09Z</time>
      </trkpt>
      <trkpt lat="44.47423" lon="5.6565">
        <ele>817.20001220703</ele>
        <time>2021-08-31T11:14:11Z</time>
      </trkpt>
      <trkpt lat="44.4741" lon="5.65668">
        <ele>816.79998779297</ele>
        <time>2021-08-31T11:14:15Z</time>
      </trkpt>
      <trkpt lat="44.47389" lon="5.65691">
        <ele>816</ele>
        <time>2021-08-31T11:14:19Z</time>
      </trkpt>
      <trkpt lat="44.47384" lon="5.65698">
        <ele>815.59997558594</ele>
        <time>2021-08-31T11:14:20Z</time>
      </trkpt>
      <trkpt lat="44.47372" lon="5.65713">
        <ele>815</ele>
        <time>2021-08-31T11:14:22Z</time>
      </trkpt>
      <trkpt lat="44.47352" lon="5.65737">
        <ele>813.79998779297</ele>
        <time>2021-08-31T11:14:25Z</time>
      </trkpt>
      <trkpt lat="44.4733" lon="5.65765">
        <ele>812.20001220703</ele>
        <time>2021-08-31T11:14:28Z</time>
      </trkpt>
      <trkpt lat="44.47315" lon="5.65786">
        <ele>811.20001220703</ele>
        <time>2021-08-31T11:14:30Z</time>
      </trkpt>
      <trkpt lat="44.473" lon="5.65808">
        <ele>810.20001220703</ele>
        <time>2021-08-31T11:14:32Z</time>
      </trkpt>
      <trkpt lat="44.47284" lon="5.6583">
        <ele>808.79998779297</ele>
        <time>2021-08-31T11:14:34Z</time>
      </trkpt>
      <trkpt lat="44.47276" lon="5.65842">
        <ele>807.40002441406</ele>
        <time>2021-08-31T11:14:35Z</time>
      </trkpt>
      <trkpt lat="44.4726" lon="5.65865">
        <ele>805.79998779297</ele>
        <time>2021-08-31T11:14:37Z</time>
      </trkpt>
      <trkpt lat="44.47247" lon="5.65891">
        <ele>804.20001220703</ele>
        <time>2021-08-31T11:14:39Z</time>
      </trkpt>
      <trkpt lat="44.47238" lon="5.65921">
        <ele>802.59997558594</ele>
        <time>2021-08-31T11:14:41Z</time>
      </trkpt>
      <trkpt lat="44.4723" lon="5.65951">
        <ele>801.20001220703</ele>
        <time>2021-08-31T11:14:43Z</time>
      </trkpt>
      <trkpt lat="44.47223" lon="5.65982">
        <ele>799.79998779297</ele>
        <time>2021-08-31T11:14:45Z</time>
      </trkpt>
      <trkpt lat="44.47216" lon="5.66011">
        <ele>798.40002441406</ele>
        <time>2021-08-31T11:14:47Z</time>
      </trkpt>
      <trkpt lat="44.47212" lon="5.66026">
        <ele>797.79998779297</ele>
        <time>2021-08-31T11:14:48Z</time>
      </trkpt>
      <trkpt lat="44.47209" lon="5.6604">
        <ele>797.20001220703</ele>
        <time>2021-08-31T11:14:49Z</time>
      </trkpt>
      <trkpt lat="44.47201" lon="5.66069">
        <ele>796</ele>
        <time>2021-08-31T11:14:51Z</time>
      </trkpt>
      <trkpt lat="44.47194" lon="5.66098">
        <ele>795</ele>
        <time>2021-08-31T11:14:53Z</time>
      </trkpt>
      <trkpt lat="44.47187" lon="5.66128">
        <ele>794</ele>
        <time>2021-08-31T11:14:55Z</time>
      </trkpt>
      <trkpt lat="44.4718" lon="5.66157">
        <ele>792.79998779297</ele>
        <time>2021-08-31T11:14:57Z</time>
      </trkpt>
      <trkpt lat="44.47173" lon="5.66186">
        <ele>791.20001220703</ele>
        <time>2021-08-31T11:14:59Z</time>
      </trkpt>
      <trkpt lat="44.47166" lon="5.66214">
        <ele>790.20001220703</ele>
        <time>2021-08-31T11:15:01Z</time>
      </trkpt>
      <trkpt lat="44.47164" lon="5.66227">
        <ele>789.59997558594</ele>
        <time>2021-08-31T11:15:02Z</time>
      </trkpt>
      <trkpt lat="44.47163" lon="5.66238">
        <ele>788.79998779297</ele>
        <time>2021-08-31T11:15:03Z</time>
      </trkpt>
      <trkpt lat="44.47165" lon="5.66249">
        <ele>788.20001220703</ele>
        <time>2021-08-31T11:15:04Z</time>
      </trkpt>
      <trkpt lat="44.4717" lon="5.66257">
        <ele>787.40002441406</ele>
        <time>2021-08-31T11:15:05Z</time>
      </trkpt>
      <trkpt lat="44.47177" lon="5.66263">
        <ele>786.59997558594</ele>
        <time>2021-08-31T11:15:06Z</time>
      </trkpt>
      <trkpt lat="44.47185" lon="5.66266">
        <ele>785.79998779297</ele>
        <time>2021-08-31T11:15:07Z</time>
      </trkpt>
      <trkpt lat="44.47203" lon="5.66268">
        <ele>784.20001220703</ele>
        <time>2021-08-31T11:15:09Z</time>
      </trkpt>
      <trkpt lat="44.4722" lon="5.66272">
        <ele>783.20001220703</ele>
        <time>2021-08-31T11:15:11Z</time>
      </trkpt>
      <trkpt lat="44.47242" lon="5.66277">
        <ele>781.79998779297</ele>
        <time>2021-08-31T11:15:14Z</time>
      </trkpt>
      <trkpt lat="44.47254" lon="5.66298">
        <ele>780.79998779297</ele>
        <time>2021-08-31T11:15:17Z</time>
      </trkpt>
      <trkpt lat="44.4726" lon="5.66329">
        <ele>779.40002441406</ele>
        <time>2021-08-31T11:15:20Z</time>
      </trkpt>
      <trkpt lat="44.47263" lon="5.66339">
        <ele>779</ele>
        <time>2021-08-31T11:15:21Z</time>
      </trkpt>
      <trkpt lat="44.4727" lon="5.66358">
        <ele>777.79998779297</ele>
        <time>2021-08-31T11:15:23Z</time>
      </trkpt>
      <trkpt lat="44.4728" lon="5.66386">
        <ele>776.59997558594</ele>
        <time>2021-08-31T11:15:26Z</time>
      </trkpt>
      <trkpt lat="44.47276" lon="5.66415">
        <ele>775.59997558594</ele>
        <time>2021-08-31T11:15:29Z</time>
      </trkpt>
      <trkpt lat="44.47272" lon="5.66424">
        <ele>775.40002441406</ele>
        <time>2021-08-31T11:15:30Z</time>
      </trkpt>
      <trkpt lat="44.47262" lon="5.66441">
        <ele>775</ele>
        <time>2021-08-31T11:15:32Z</time>
      </trkpt>
      <trkpt lat="44.47257" lon="5.66449">
        <ele>774.79998779297</ele>
        <time>2021-08-31T11:15:33Z</time>
      </trkpt>
      <trkpt lat="44.47247" lon="5.66466">
        <ele>774.40002441406</ele>
        <time>2021-08-31T11:15:35Z</time>
      </trkpt>
      <trkpt lat="44.47231" lon="5.6649">
        <ele>773.59997558594</ele>
        <time>2021-08-31T11:15:38Z</time>
      </trkpt>
      <trkpt lat="44.47224" lon="5.66496">
        <ele>773.20001220703</ele>
        <time>2021-08-31T11:15:39Z</time>
      </trkpt>
      <trkpt lat="44.47204" lon="5.6651">
        <ele>772.59997558594</ele>
        <time>2021-08-31T11:15:42Z</time>
      </trkpt>
      <trkpt lat="44.47197" lon="5.66514">
        <ele>772.40002441406</ele>
        <time>2021-08-31T11:15:43Z</time>
      </trkpt>
      <trkpt lat="44.4719" lon="5.66519">
        <ele>772.20001220703</ele>
        <time>2021-08-31T11:15:44Z</time>
      </trkpt>
      <trkpt lat="44.47173" lon="5.6654">
        <ele>771.20001220703</ele>
        <time>2021-08-31T11:15:47Z</time>
      </trkpt>
      <trkpt lat="44.47157" lon="5.66576">
        <ele>770.40002441406</ele>
        <time>2021-08-31T11:15:51Z</time>
      </trkpt>
      <trkpt lat="44.47153" lon="5.66584">
        <ele>770.40002441406</ele>
        <time>2021-08-31T11:15:52Z</time>
      </trkpt>
      <trkpt lat="44.47148" lon="5.66589">
        <ele>770.20001220703</ele>
        <time>2021-08-31T11:15:53Z</time>
      </trkpt>
      <trkpt lat="44.47142" lon="5.66592">
        <ele>770</ele>
        <time>2021-08-31T11:15:54Z</time>
      </trkpt>
      <trkpt lat="44.47131" lon="5.66597">
        <ele>769.79998779297</ele>
        <time>2021-08-31T11:15:56Z</time>
      </trkpt>
      <trkpt lat="44.47109" lon="5.66605">
        <ele>769.59997558594</ele>
        <time>2021-08-31T11:16:00Z</time>
      </trkpt>
      <trkpt lat="44.47082" lon="5.66616">
        <ele>769.79998779297</ele>
        <time>2021-08-31T11:16:06Z</time>
      </trkpt>
      <trkpt lat="44.47078" lon="5.66618">
        <ele>770</ele>
        <time>2021-08-31T11:16:07Z</time>
      </trkpt>
      <trkpt lat="44.47045" lon="5.66642">
        <ele>771.20001220703</ele>
        <time>2021-08-31T11:16:16Z</time>
      </trkpt>
      <trkpt lat="44.4702" lon="5.66666">
        <ele>771.59997558594</ele>
        <time>2021-08-31T11:16:23Z</time>
      </trkpt>
      <trkpt lat="44.47017" lon="5.6667">
        <ele>771.59997558594</ele>
        <time>2021-08-31T11:16:24Z</time>
      </trkpt>
      <trkpt lat="44.47004" lon="5.66688">
        <ele>771.59997558594</ele>
        <time>2021-08-31T11:16:28Z</time>
      </trkpt>
      <trkpt lat="44.47001" lon="5.66693">
        <ele>771.59997558594</ele>
        <time>2021-08-31T11:16:29Z</time>
      </trkpt>
      <trkpt lat="44.46996" lon="5.66704">
        <ele>771.59997558594</ele>
        <time>2021-08-31T11:16:31Z</time>
      </trkpt>
      <trkpt lat="44.46987" lon="5.6673">
        <ele>771.79998779297</ele>
        <time>2021-08-31T11:16:35Z</time>
      </trkpt>
      <trkpt lat="44.46976" lon="5.66781">
        <ele>771.79998779297</ele>
        <time>2021-08-31T11:16:42Z</time>
      </trkpt>
      <trkpt lat="44.46968" lon="5.66802">
        <ele>771.59997558594</ele>
        <time>2021-08-31T11:16:45Z</time>
      </trkpt>
      <trkpt lat="44.4696" lon="5.66814">
        <ele>771.59997558594</ele>
        <time>2021-08-31T11:16:47Z</time>
      </trkpt>
      <trkpt lat="44.4693" lon="5.66853">
        <ele>771.40002441406</ele>
        <time>2021-08-31T11:16:54Z</time>
      </trkpt>
      <trkpt lat="44.46926" lon="5.6686">
        <ele>771.40002441406</ele>
        <time>2021-08-31T11:16:55Z</time>
      </trkpt>
      <trkpt lat="44.46917" lon="5.66882">
        <ele>771.40002441406</ele>
        <time>2021-08-31T11:16:58Z</time>
      </trkpt>
      <trkpt lat="44.46903" lon="5.66935">
        <ele>770.59997558594</ele>
        <time>2021-08-31T11:17:04Z</time>
      </trkpt>
      <trkpt lat="44.46897" lon="5.66967">
        <ele>770</ele>
        <time>2021-08-31T11:17:07Z</time>
      </trkpt>
      <trkpt lat="44.46896" lon="5.67003">
        <ele>769</ele>
        <time>2021-08-31T11:17:10Z</time>
      </trkpt>
      <trkpt lat="44.46895" lon="5.67041">
        <ele>767.79998779297</ele>
        <time>2021-08-31T11:17:13Z</time>
      </trkpt>
      <trkpt lat="44.46894" lon="5.67055">
        <ele>767.40002441406</ele>
        <time>2021-08-31T11:17:14Z</time>
      </trkpt>
      <trkpt lat="44.46887" lon="5.6708">
        <ele>766.59997558594</ele>
        <time>2021-08-31T11:17:16Z</time>
      </trkpt>
      <trkpt lat="44.46877" lon="5.67103">
        <ele>765.79998779297</ele>
        <time>2021-08-31T11:17:18Z</time>
      </trkpt>
      <trkpt lat="44.46872" lon="5.67115">
        <ele>765.20001220703</ele>
        <time>2021-08-31T11:17:19Z</time>
      </trkpt>
      <trkpt lat="44.46866" lon="5.67126">
        <ele>764.79998779297</ele>
        <time>2021-08-31T11:17:20Z</time>
      </trkpt>
      <trkpt lat="44.46859" lon="5.67136">
        <ele>764.20001220703</ele>
        <time>2021-08-31T11:17:21Z</time>
      </trkpt>
      <trkpt lat="44.46846" lon="5.67156">
        <ele>763.20001220703</ele>
        <time>2021-08-31T11:17:23Z</time>
      </trkpt>
      <trkpt lat="44.46835" lon="5.67179">
        <ele>762</ele>
        <time>2021-08-31T11:17:25Z</time>
      </trkpt>
      <trkpt lat="44.4682" lon="5.67214">
        <ele>760.79998779297</ele>
        <time>2021-08-31T11:17:28Z</time>
      </trkpt>
      <trkpt lat="44.46804" lon="5.6725">
        <ele>759.40002441406</ele>
        <time>2021-08-31T11:17:31Z</time>
      </trkpt>
      <trkpt lat="44.46794" lon="5.67273">
        <ele>758.20001220703</ele>
        <time>2021-08-31T11:17:33Z</time>
      </trkpt>
      <trkpt lat="44.46779" lon="5.67309">
        <ele>756.79998779297</ele>
        <time>2021-08-31T11:17:36Z</time>
      </trkpt>
      <trkpt lat="44.46773" lon="5.6732">
        <ele>756.40002441406</ele>
        <time>2021-08-31T11:17:37Z</time>
      </trkpt>
      <trkpt lat="44.46766" lon="5.6733">
        <ele>755.79998779297</ele>
        <time>2021-08-31T11:17:38Z</time>
      </trkpt>
      <trkpt lat="44.46758" lon="5.67339">
        <ele>755.20001220703</ele>
        <time>2021-08-31T11:17:39Z</time>
      </trkpt>
      <trkpt lat="44.46745" lon="5.67358">
        <ele>754.20001220703</ele>
        <time>2021-08-31T11:17:41Z</time>
      </trkpt>
      <trkpt lat="44.46739" lon="5.67369">
        <ele>753.79998779297</ele>
        <time>2021-08-31T11:17:42Z</time>
      </trkpt>
      <trkpt lat="44.46734" lon="5.6738">
        <ele>753.20001220703</ele>
        <time>2021-08-31T11:17:43Z</time>
      </trkpt>
      <trkpt lat="44.46721" lon="5.67414">
        <ele>751.79998779297</ele>
        <time>2021-08-31T11:17:46Z</time>
      </trkpt>
      <trkpt lat="44.46713" lon="5.67435">
        <ele>750.40002441406</ele>
        <time>2021-08-31T11:17:48Z</time>
      </trkpt>
      <trkpt lat="44.46709" lon="5.67446">
        <ele>750.20001220703</ele>
        <time>2021-08-31T11:17:49Z</time>
      </trkpt>
      <trkpt lat="44.46698" lon="5.67478">
        <ele>749.40002441406</ele>
        <time>2021-08-31T11:17:52Z</time>
      </trkpt>
      <trkpt lat="44.46689" lon="5.67498">
        <ele>749</ele>
        <time>2021-08-31T11:17:54Z</time>
      </trkpt>
      <trkpt lat="44.46678" lon="5.67514">
        <ele>748.40002441406</ele>
        <time>2021-08-31T11:17:56Z</time>
      </trkpt>
      <trkpt lat="44.46671" lon="5.67521">
        <ele>748.20001220703</ele>
        <time>2021-08-31T11:17:57Z</time>
      </trkpt>
      <trkpt lat="44.46665" lon="5.67528">
        <ele>747.79998779297</ele>
        <time>2021-08-31T11:17:58Z</time>
      </trkpt>
      <trkpt lat="44.46649" lon="5.67553">
        <ele>747</ele>
        <time>2021-08-31T11:18:01Z</time>
      </trkpt>
      <trkpt lat="44.46631" lon="5.67589">
        <ele>745.79998779297</ele>
        <time>2021-08-31T11:18:05Z</time>
      </trkpt>
      <trkpt lat="44.46621" lon="5.67617">
        <ele>744.79998779297</ele>
        <time>2021-08-31T11:18:08Z</time>
      </trkpt>
      <trkpt lat="44.46619" lon="5.67627">
        <ele>744.59997558594</ele>
        <time>2021-08-31T11:18:09Z</time>
      </trkpt>
      <trkpt lat="44.46619" lon="5.67649">
        <ele>743.79998779297</ele>
        <time>2021-08-31T11:18:11Z</time>
      </trkpt>
      <trkpt lat="44.4662" lon="5.6766">
        <ele>743.59997558594</ele>
        <time>2021-08-31T11:18:12Z</time>
      </trkpt>
      <trkpt lat="44.46621" lon="5.6767">
        <ele>743.20001220703</ele>
        <time>2021-08-31T11:18:13Z</time>
      </trkpt>
      <trkpt lat="44.46626" lon="5.67704">
        <ele>742.40002441406</ele>
        <time>2021-08-31T11:18:16Z</time>
      </trkpt>
      <trkpt lat="44.46629" lon="5.67738">
        <ele>741.20001220703</ele>
        <time>2021-08-31T11:18:19Z</time>
      </trkpt>
      <trkpt lat="44.46627" lon="5.67771">
        <ele>740.40002441406</ele>
        <time>2021-08-31T11:18:22Z</time>
      </trkpt>
      <trkpt lat="44.46625" lon="5.67782">
        <ele>740</ele>
        <time>2021-08-31T11:18:23Z</time>
      </trkpt>
      <trkpt lat="44.46617" lon="5.67814">
        <ele>739.40002441406</ele>
        <time>2021-08-31T11:18:26Z</time>
      </trkpt>
      <trkpt lat="44.46613" lon="5.67824">
        <ele>739.20001220703</ele>
        <time>2021-08-31T11:18:27Z</time>
      </trkpt>
      <trkpt lat="44.4661" lon="5.67835">
        <ele>739</ele>
        <time>2021-08-31T11:18:28Z</time>
      </trkpt>
      <trkpt lat="44.46592" lon="5.67887">
        <ele>738</ele>
        <time>2021-08-31T11:18:33Z</time>
      </trkpt>
      <trkpt lat="44.46584" lon="5.67908">
        <ele>737.59997558594</ele>
        <time>2021-08-31T11:18:35Z</time>
      </trkpt>
      <trkpt lat="44.46577" lon="5.67928">
        <ele>736.79998779297</ele>
        <time>2021-08-31T11:18:37Z</time>
      </trkpt>
      <trkpt lat="44.46561" lon="5.67974">
        <ele>736.40002441406</ele>
        <time>2021-08-31T11:18:42Z</time>
      </trkpt>
      <trkpt lat="44.46554" lon="5.68001">
        <ele>735.79998779297</ele>
        <time>2021-08-31T11:18:45Z</time>
      </trkpt>
      <trkpt lat="44.46554" lon="5.6801">
        <ele>735.79998779297</ele>
        <time>2021-08-31T11:18:46Z</time>
      </trkpt>
      <trkpt lat="44.46554" lon="5.68019">
        <ele>735.59997558594</ele>
        <time>2021-08-31T11:18:47Z</time>
      </trkpt>
      <trkpt lat="44.46557" lon="5.68035">
        <ele>735.59997558594</ele>
        <time>2021-08-31T11:18:49Z</time>
      </trkpt>
      <trkpt lat="44.46559" lon="5.6806">
        <ele>735.40002441406</ele>
        <time>2021-08-31T11:18:52Z</time>
      </trkpt>
      <trkpt lat="44.46554" lon="5.6809">
        <ele>735.40002441406</ele>
        <time>2021-08-31T11:18:56Z</time>
      </trkpt>
      <trkpt lat="44.4654" lon="5.68143">
        <ele>735.59997558594</ele>
        <time>2021-08-31T11:19:03Z</time>
      </trkpt>
      <trkpt lat="44.46534" lon="5.68158">
        <ele>735.40002441406</ele>
        <time>2021-08-31T11:19:05Z</time>
      </trkpt>
      <trkpt lat="44.46523" lon="5.68171">
        <ele>735.40002441406</ele>
        <time>2021-08-31T11:19:07Z</time>
      </trkpt>
      <trkpt lat="44.46499" lon="5.68203">
        <ele>734.79998779297</ele>
        <time>2021-08-31T11:19:12Z</time>
      </trkpt>
      <trkpt lat="44.46495" lon="5.68212">
        <ele>734.59997558594</ele>
        <time>2021-08-31T11:19:13Z</time>
      </trkpt>
      <trkpt lat="44.46485" lon="5.6825">
        <ele>733.59997558594</ele>
        <time>2021-08-31T11:19:17Z</time>
      </trkpt>
      <trkpt lat="44.46479" lon="5.68292">
        <ele>732.40002441406</ele>
        <time>2021-08-31T11:19:21Z</time>
      </trkpt>
      <trkpt lat="44.46473" lon="5.68334">
        <ele>731.59997558594</ele>
        <time>2021-08-31T11:19:25Z</time>
      </trkpt>
      <trkpt lat="44.46471" lon="5.68344">
        <ele>731.40002441406</ele>
        <time>2021-08-31T11:19:26Z</time>
      </trkpt>
      <trkpt lat="44.46462" lon="5.68398">
        <ele>730.40002441406</ele>
        <time>2021-08-31T11:19:32Z</time>
      </trkpt>
      <trkpt lat="44.46461" lon="5.68406">
        <ele>730.40002441406</ele>
        <time>2021-08-31T11:19:33Z</time>
      </trkpt>
      <trkpt lat="44.46459" lon="5.68424">
        <ele>730.20001220703</ele>
        <time>2021-08-31T11:19:35Z</time>
      </trkpt>
      <trkpt lat="44.46458" lon="5.68432">
        <ele>730.20001220703</ele>
        <time>2021-08-31T11:19:36Z</time>
      </trkpt>
      <trkpt lat="44.46457" lon="5.68442">
        <ele>730.20001220703</ele>
        <time>2021-08-31T11:19:37Z</time>
      </trkpt>
      <trkpt lat="44.46455" lon="5.68471">
        <ele>729.59997558594</ele>
        <time>2021-08-31T11:19:40Z</time>
      </trkpt>
      <trkpt lat="44.46456" lon="5.68504">
        <ele>729</ele>
        <time>2021-08-31T11:19:43Z</time>
      </trkpt>
      <trkpt lat="44.46455" lon="5.68527">
        <ele>728.20001220703</ele>
        <time>2021-08-31T11:19:45Z</time>
      </trkpt>
      <trkpt lat="44.46454" lon="5.68539">
        <ele>727.79998779297</ele>
        <time>2021-08-31T11:19:46Z</time>
      </trkpt>
      <trkpt lat="44.4645" lon="5.68563">
        <ele>726.59997558594</ele>
        <time>2021-08-31T11:19:48Z</time>
      </trkpt>
      <trkpt lat="44.46448" lon="5.68575">
        <ele>726.20001220703</ele>
        <time>2021-08-31T11:19:49Z</time>
      </trkpt>
      <trkpt lat="44.46446" lon="5.68587">
        <ele>725.79998779297</ele>
        <time>2021-08-31T11:19:50Z</time>
      </trkpt>
      <trkpt lat="44.46444" lon="5.68599">
        <ele>725.40002441406</ele>
        <time>2021-08-31T11:19:51Z</time>
      </trkpt>
      <trkpt lat="44.46438" lon="5.68636">
        <ele>724.40002441406</ele>
        <time>2021-08-31T11:19:54Z</time>
      </trkpt>
      <trkpt lat="44.46436" lon="5.6866">
        <ele>723.40002441406</ele>
        <time>2021-08-31T11:19:56Z</time>
      </trkpt>
      <trkpt lat="44.46435" lon="5.68673">
        <ele>722.79998779297</ele>
        <time>2021-08-31T11:19:57Z</time>
      </trkpt>
      <trkpt lat="44.46431" lon="5.68711">
        <ele>721.59997558594</ele>
        <time>2021-08-31T11:20:00Z</time>
      </trkpt>
      <trkpt lat="44.46425" lon="5.68737">
        <ele>720.79998779297</ele>
        <time>2021-08-31T11:20:02Z</time>
      </trkpt>
      <trkpt lat="44.46421" lon="5.68748">
        <ele>720.40002441406</ele>
        <time>2021-08-31T11:20:03Z</time>
      </trkpt>
      <trkpt lat="44.46411" lon="5.6877">
        <ele>719.20001220703</ele>
        <time>2021-08-31T11:20:05Z</time>
      </trkpt>
      <trkpt lat="44.46405" lon="5.68781">
        <ele>718.79998779297</ele>
        <time>2021-08-31T11:20:06Z</time>
      </trkpt>
      <trkpt lat="44.46395" lon="5.68802">
        <ele>718</ele>
        <time>2021-08-31T11:20:08Z</time>
      </trkpt>
      <trkpt lat="44.46371" lon="5.68842">
        <ele>716.40002441406</ele>
        <time>2021-08-31T11:20:12Z</time>
      </trkpt>
      <trkpt lat="44.46359" lon="5.68862">
        <ele>715.79998779297</ele>
        <time>2021-08-31T11:20:14Z</time>
      </trkpt>
      <trkpt lat="44.46347" lon="5.68882">
        <ele>715.20001220703</ele>
        <time>2021-08-31T11:20:16Z</time>
      </trkpt>
      <trkpt lat="44.46326" lon="5.68921">
        <ele>714.59997558594</ele>
        <time>2021-08-31T11:20:20Z</time>
      </trkpt>
      <trkpt lat="44.46307" lon="5.68948">
        <ele>714</ele>
        <time>2021-08-31T11:20:23Z</time>
      </trkpt>
      <trkpt lat="44.463" lon="5.68955">
        <ele>713.59997558594</ele>
        <time>2021-08-31T11:20:24Z</time>
      </trkpt>
      <trkpt lat="44.46292" lon="5.68962">
        <ele>713.40002441406</ele>
        <time>2021-08-31T11:20:25Z</time>
      </trkpt>
      <trkpt lat="44.46276" lon="5.68974">
        <ele>713</ele>
        <time>2021-08-31T11:20:27Z</time>
      </trkpt>
      <trkpt lat="44.46252" lon="5.68992">
        <ele>711.59997558594</ele>
        <time>2021-08-31T11:20:30Z</time>
      </trkpt>
      <trkpt lat="44.46213" lon="5.69023">
        <ele>710.59997558594</ele>
        <time>2021-08-31T11:20:35Z</time>
      </trkpt>
      <trkpt lat="44.46201" lon="5.69041">
        <ele>710.20001220703</ele>
        <time>2021-08-31T11:20:37Z</time>
      </trkpt>
      <trkpt lat="44.4619" lon="5.69061">
        <ele>709.59997558594</ele>
        <time>2021-08-31T11:20:39Z</time>
      </trkpt>
      <trkpt lat="44.46185" lon="5.69071">
        <ele>709</ele>
        <time>2021-08-31T11:20:40Z</time>
      </trkpt>
      <trkpt lat="44.46177" lon="5.69093">
        <ele>708.40002441406</ele>
        <time>2021-08-31T11:20:42Z</time>
      </trkpt>
      <trkpt lat="44.46161" lon="5.69132">
        <ele>707</ele>
        <time>2021-08-31T11:20:46Z</time>
      </trkpt>
      <trkpt lat="44.46153" lon="5.6915">
        <ele>706.40002441406</ele>
        <time>2021-08-31T11:20:48Z</time>
      </trkpt>
      <trkpt lat="44.46142" lon="5.69174">
        <ele>706</ele>
        <time>2021-08-31T11:20:51Z</time>
      </trkpt>
      <trkpt lat="44.4614" lon="5.6918">
        <ele>705.79998779297</ele>
        <time>2021-08-31T11:20:52Z</time>
      </trkpt>
      <trkpt lat="44.46138" lon="5.69185">
        <ele>705.59997558594</ele>
        <time>2021-08-31T11:20:53Z</time>
      </trkpt>
      <trkpt lat="44.46136" lon="5.69191">
        <ele>703.59997558594</ele>
        <time>2021-08-31T11:21:29Z</time>
      </trkpt>
      <trkpt lat="44.46133" lon="5.69196">
        <ele>703.59997558594</ele>
        <time>2021-08-31T11:21:32Z</time>
      </trkpt>
      <trkpt lat="44.46126" lon="5.69211">
        <ele>703.40002441406</ele>
        <time>2021-08-31T11:21:37Z</time>
      </trkpt>
      <trkpt lat="44.4612" lon="5.69226">
        <ele>703.40002441406</ele>
        <time>2021-08-31T11:21:40Z</time>
      </trkpt>
      <trkpt lat="44.46118" lon="5.69232">
        <ele>703.40002441406</ele>
        <time>2021-08-31T11:21:41Z</time>
      </trkpt>
      <trkpt lat="44.461" lon="5.69264">
        <ele>703.20001220703</ele>
        <time>2021-08-31T11:21:47Z</time>
      </trkpt>
      <trkpt lat="44.46097" lon="5.69269">
        <ele>703.20001220703</ele>
        <time>2021-08-31T11:21:48Z</time>
      </trkpt>
      <trkpt lat="44.4608" lon="5.6929">
        <ele>702.59997558594</ele>
        <time>2021-08-31T11:21:53Z</time>
      </trkpt>
      <trkpt lat="44.46074" lon="5.69294">
        <ele>702.40002441406</ele>
        <time>2021-08-31T11:21:54Z</time>
      </trkpt>
      <trkpt lat="44.46069" lon="5.69298">
        <ele>702.20001220703</ele>
        <time>2021-08-31T11:21:55Z</time>
      </trkpt>
      <trkpt lat="44.46054" lon="5.69307">
        <ele>701.79998779297</ele>
        <time>2021-08-31T11:21:58Z</time>
      </trkpt>
      <trkpt lat="44.4605" lon="5.69311">
        <ele>701.79998779297</ele>
        <time>2021-08-31T11:21:59Z</time>
      </trkpt>
      <trkpt lat="44.46033" lon="5.69328">
        <ele>701.40002441406</ele>
        <time>2021-08-31T11:22:03Z</time>
      </trkpt>
      <trkpt lat="44.46029" lon="5.69333">
        <ele>701.40002441406</ele>
        <time>2021-08-31T11:22:04Z</time>
      </trkpt>
      <trkpt lat="44.46022" lon="5.69345">
        <ele>701.40002441406</ele>
        <time>2021-08-31T11:22:06Z</time>
      </trkpt>
      <trkpt lat="44.4601" lon="5.6937">
        <ele>701</ele>
        <time>2021-08-31T11:22:10Z</time>
      </trkpt>
      <trkpt lat="44.45985" lon="5.69418">
        <ele>700.40002441406</ele>
        <time>2021-08-31T11:22:17Z</time>
      </trkpt>
      <trkpt lat="44.45982" lon="5.69423">
        <ele>700.40002441406</ele>
        <time>2021-08-31T11:22:18Z</time>
      </trkpt>
      <trkpt lat="44.45971" lon="5.69428">
        <ele>700.40002441406</ele>
        <time>2021-08-31T11:22:20Z</time>
      </trkpt>
      <trkpt lat="44.45955" lon="5.69418">
        <ele>700.40002441406</ele>
        <time>2021-08-31T11:22:23Z</time>
      </trkpt>
      <trkpt lat="44.45935" lon="5.69419">
        <ele>700.40002441406</ele>
        <time>2021-08-31T11:22:26Z</time>
      </trkpt>
      <trkpt lat="44.4592" lon="5.69421">
        <ele>700.40002441406</ele>
        <time>2021-08-31T11:22:28Z</time>
      </trkpt>
      <trkpt lat="44.45913" lon="5.69422">
        <ele>700.20001220703</ele>
        <time>2021-08-31T11:22:29Z</time>
      </trkpt>
      <trkpt lat="44.45897" lon="5.69421">
        <ele>700</ele>
        <time>2021-08-31T11:22:31Z</time>
      </trkpt>
      <trkpt lat="44.45858" lon="5.69413">
        <ele>699.20001220703</ele>
        <time>2021-08-31T11:22:36Z</time>
      </trkpt>
      <trkpt lat="44.45843" lon="5.69407">
        <ele>698.59997558594</ele>
        <time>2021-08-31T11:22:38Z</time>
      </trkpt>
      <trkpt lat="44.45822" lon="5.69395">
        <ele>698.20001220703</ele>
        <time>2021-08-31T11:22:41Z</time>
      </trkpt>
      <trkpt lat="44.45815" lon="5.69393">
        <ele>698</ele>
        <time>2021-08-31T11:22:42Z</time>
      </trkpt>
      <trkpt lat="44.45808" lon="5.69391">
        <ele>698</ele>
        <time>2021-08-31T11:22:43Z</time>
      </trkpt>
      <trkpt lat="44.45788" lon="5.69397">
        <ele>697.59997558594</ele>
        <time>2021-08-31T11:22:46Z</time>
      </trkpt>
      <trkpt lat="44.45774" lon="5.69422">
        <ele>697.20001220703</ele>
        <time>2021-08-31T11:22:49Z</time>
      </trkpt>
      <trkpt lat="44.45769" lon="5.69431">
        <ele>697</ele>
        <time>2021-08-31T11:22:50Z</time>
      </trkpt>
      <trkpt lat="44.45763" lon="5.69438">
        <ele>696.79998779297</ele>
        <time>2021-08-31T11:22:51Z</time>
      </trkpt>
      <trkpt lat="44.4575" lon="5.6945">
        <ele>696.40002441406</ele>
        <time>2021-08-31T11:22:53Z</time>
      </trkpt>
      <trkpt lat="44.45735" lon="5.69449">
        <ele>696</ele>
        <time>2021-08-31T11:22:55Z</time>
      </trkpt>
      <trkpt lat="44.45716" lon="5.69427">
        <ele>695.40002441406</ele>
        <time>2021-08-31T11:22:58Z</time>
      </trkpt>
      <trkpt lat="44.45708" lon="5.69406">
        <ele>695</ele>
        <time>2021-08-31T11:23:00Z</time>
      </trkpt>
      <trkpt lat="44.45703" lon="5.69396">
        <ele>694.59997558594</ele>
        <time>2021-08-31T11:23:01Z</time>
      </trkpt>
      <trkpt lat="44.45698" lon="5.69386">
        <ele>694.20001220703</ele>
        <time>2021-08-31T11:23:02Z</time>
      </trkpt>
      <trkpt lat="44.45691" lon="5.69378">
        <ele>693.79998779297</ele>
        <time>2021-08-31T11:23:03Z</time>
      </trkpt>
      <trkpt lat="44.45682" lon="5.69373">
        <ele>693.59997558594</ele>
        <time>2021-08-31T11:23:04Z</time>
      </trkpt>
      <trkpt lat="44.45673" lon="5.69371">
        <ele>693.20001220703</ele>
        <time>2021-08-31T11:23:05Z</time>
      </trkpt>
      <trkpt lat="44.45655" lon="5.69369">
        <ele>692.20001220703</ele>
        <time>2021-08-31T11:23:07Z</time>
      </trkpt>
      <trkpt lat="44.45645" lon="5.69367">
        <ele>691.79998779297</ele>
        <time>2021-08-31T11:23:08Z</time>
      </trkpt>
      <trkpt lat="44.45629" lon="5.69354">
        <ele>691.20001220703</ele>
        <time>2021-08-31T11:23:10Z</time>
      </trkpt>
      <trkpt lat="44.45622" lon="5.69344">
        <ele>690.79998779297</ele>
        <time>2021-08-31T11:23:11Z</time>
      </trkpt>
      <trkpt lat="44.45615" lon="5.69334">
        <ele>690.20001220703</ele>
        <time>2021-08-31T11:23:12Z</time>
      </trkpt>
      <trkpt lat="44.45607" lon="5.69326">
        <ele>689.59997558594</ele>
        <time>2021-08-31T11:23:13Z</time>
      </trkpt>
      <trkpt lat="44.45588" lon="5.6932">
        <ele>688.20001220703</ele>
        <time>2021-08-31T11:23:15Z</time>
      </trkpt>
      <trkpt lat="44.45565" lon="5.69324">
        <ele>686.79998779297</ele>
        <time>2021-08-31T11:23:17Z</time>
      </trkpt>
      <trkpt lat="44.45553" lon="5.69325">
        <ele>686</ele>
        <time>2021-08-31T11:23:18Z</time>
      </trkpt>
      <trkpt lat="44.45542" lon="5.69326">
        <ele>685.20001220703</ele>
        <time>2021-08-31T11:23:19Z</time>
      </trkpt>
      <trkpt lat="44.4552" lon="5.69329">
        <ele>683.59997558594</ele>
        <time>2021-08-31T11:23:21Z</time>
      </trkpt>
      <trkpt lat="44.45498" lon="5.69331">
        <ele>682.20001220703</ele>
        <time>2021-08-31T11:23:23Z</time>
      </trkpt>
      <trkpt lat="44.45488" lon="5.69332">
        <ele>681.79998779297</ele>
        <time>2021-08-31T11:23:24Z</time>
      </trkpt>
      <trkpt lat="44.45477" lon="5.69332">
        <ele>680.79998779297</ele>
        <time>2021-08-31T11:23:25Z</time>
      </trkpt>
      <trkpt lat="44.45442" lon="5.69328">
        <ele>679.79998779297</ele>
        <time>2021-08-31T11:23:29Z</time>
      </trkpt>
      <trkpt lat="44.45395" lon="5.69321">
        <ele>679.20001220703</ele>
        <time>2021-08-31T11:23:35Z</time>
      </trkpt>
      <trkpt lat="44.45379" lon="5.69319">
        <ele>678.59997558594</ele>
        <time>2021-08-31T11:23:37Z</time>
      </trkpt>
      <trkpt lat="44.45348" lon="5.69315">
        <ele>677.59997558594</ele>
        <time>2021-08-31T11:23:41Z</time>
      </trkpt>
      <trkpt lat="44.45334" lon="5.69313">
        <ele>677.20001220703</ele>
        <time>2021-08-31T11:23:43Z</time>
      </trkpt>
      <trkpt lat="44.4532" lon="5.69313">
        <ele>677</ele>
        <time>2021-08-31T11:23:45Z</time>
      </trkpt>
      <trkpt lat="44.45306" lon="5.69318">
        <ele>676.79998779297</ele>
        <time>2021-08-31T11:23:47Z</time>
      </trkpt>
      <trkpt lat="44.45287" lon="5.69328">
        <ele>676.59997558594</ele>
        <time>2021-08-31T11:23:50Z</time>
      </trkpt>
      <trkpt lat="44.45275" lon="5.69339">
        <ele>676.59997558594</ele>
        <time>2021-08-31T11:23:52Z</time>
      </trkpt>
      <trkpt lat="44.4527" lon="5.69344">
        <ele>676.59997558594</ele>
        <time>2021-08-31T11:23:53Z</time>
      </trkpt>
      <trkpt lat="44.4525" lon="5.6937">
        <ele>676.40002441406</ele>
        <time>2021-08-31T11:23:57Z</time>
      </trkpt>
      <trkpt lat="44.45218" lon="5.69401">
        <ele>675.79998779297</ele>
        <time>2021-08-31T11:24:03Z</time>
      </trkpt>
      <trkpt lat="44.452" lon="5.69411">
        <ele>675.59997558594</ele>
        <time>2021-08-31T11:24:06Z</time>
      </trkpt>
      <trkpt lat="44.4518" lon="5.6942">
        <ele>675.20001220703</ele>
        <time>2021-08-31T11:24:09Z</time>
      </trkpt>
      <trkpt lat="44.45155" lon="5.69431">
        <ele>674.40002441406</ele>
        <time>2021-08-31T11:24:13Z</time>
      </trkpt>
      <trkpt lat="44.4513" lon="5.69446">
        <ele>674</ele>
        <time>2021-08-31T11:24:17Z</time>
      </trkpt>
      <trkpt lat="44.45096" lon="5.69478">
        <ele>673.40002441406</ele>
        <time>2021-08-31T11:24:23Z</time>
      </trkpt>
      <trkpt lat="44.45091" lon="5.69484">
        <ele>673.40002441406</ele>
        <time>2021-08-31T11:24:24Z</time>
      </trkpt>
      <trkpt lat="44.45065" lon="5.69514">
        <ele>672.40002441406</ele>
        <time>2021-08-31T11:24:29Z</time>
      </trkpt>
      <trkpt lat="44.45032" lon="5.69538">
        <ele>671.20001220703</ele>
        <time>2021-08-31T11:24:34Z</time>
      </trkpt>
      <trkpt lat="44.45025" lon="5.69542">
        <ele>671</ele>
        <time>2021-08-31T11:24:35Z</time>
      </trkpt>
      <trkpt lat="44.45004" lon="5.69557">
        <ele>670.20001220703</ele>
        <time>2021-08-31T11:24:38Z</time>
      </trkpt>
      <trkpt lat="44.44983" lon="5.69575">
        <ele>669.59997558594</ele>
        <time>2021-08-31T11:24:41Z</time>
      </trkpt>
      <trkpt lat="44.4497" lon="5.69587">
        <ele>669</ele>
        <time>2021-08-31T11:24:43Z</time>
      </trkpt>
      <trkpt lat="44.44939" lon="5.69624">
        <ele>668</ele>
        <time>2021-08-31T11:24:48Z</time>
      </trkpt>
      <trkpt lat="44.44915" lon="5.6967">
        <ele>667.40002441406</ele>
        <time>2021-08-31T11:24:53Z</time>
      </trkpt>
      <trkpt lat="44.449" lon="5.69708">
        <ele>667</ele>
        <time>2021-08-31T11:24:57Z</time>
      </trkpt>
      <trkpt lat="44.44892" lon="5.69739">
        <ele>666.79998779297</ele>
        <time>2021-08-31T11:25:00Z</time>
      </trkpt>
      <trkpt lat="44.4487" lon="5.69797">
        <ele>666.20001220703</ele>
        <time>2021-08-31T11:25:06Z</time>
      </trkpt>
      <trkpt lat="44.44854" lon="5.69855">
        <ele>666</ele>
        <time>2021-08-31T11:25:12Z</time>
      </trkpt>
      <trkpt lat="44.44847" lon="5.69885">
        <ele>666</ele>
        <time>2021-08-31T11:25:15Z</time>
      </trkpt>
      <trkpt lat="44.44839" lon="5.6991">
        <ele>666</ele>
        <time>2021-08-31T11:25:18Z</time>
      </trkpt>
      <trkpt lat="44.44817" lon="5.69934">
        <ele>666</ele>
        <time>2021-08-31T11:25:22Z</time>
      </trkpt>
      <trkpt lat="44.4481" lon="5.69939">
        <ele>666</ele>
        <time>2021-08-31T11:25:23Z</time>
      </trkpt>
      <trkpt lat="44.44789" lon="5.69948">
        <ele>665.59997558594</ele>
        <time>2021-08-31T11:25:26Z</time>
      </trkpt>
      <trkpt lat="44.44745" lon="5.69974">
        <ele>664.79998779297</ele>
        <time>2021-08-31T11:25:32Z</time>
      </trkpt>
      <trkpt lat="44.44737" lon="5.69979">
        <ele>664.79998779297</ele>
        <time>2021-08-31T11:25:33Z</time>
      </trkpt>
      <trkpt lat="44.44702" lon="5.70007">
        <ele>663.79998779297</ele>
        <time>2021-08-31T11:25:38Z</time>
      </trkpt>
      <trkpt lat="44.44688" lon="5.70019">
        <ele>663.40002441406</ele>
        <time>2021-08-31T11:25:40Z</time>
      </trkpt>
      <trkpt lat="44.44662" lon="5.70042">
        <ele>662.59997558594</ele>
        <time>2021-08-31T11:25:44Z</time>
      </trkpt>
      <trkpt lat="44.44638" lon="5.70066">
        <ele>662</ele>
        <time>2021-08-31T11:25:48Z</time>
      </trkpt>
      <trkpt lat="44.44627" lon="5.7008">
        <ele>661.59997558594</ele>
        <time>2021-08-31T11:25:50Z</time>
      </trkpt>
      <trkpt lat="44.44617" lon="5.70096">
        <ele>661.20001220703</ele>
        <time>2021-08-31T11:25:52Z</time>
      </trkpt>
      <trkpt lat="44.44613" lon="5.70105">
        <ele>661</ele>
        <time>2021-08-31T11:25:53Z</time>
      </trkpt>
      <trkpt lat="44.44607" lon="5.70125">
        <ele>660.59997558594</ele>
        <time>2021-08-31T11:25:55Z</time>
      </trkpt>
      <trkpt lat="44.44604" lon="5.70145">
        <ele>660.20001220703</ele>
        <time>2021-08-31T11:25:57Z</time>
      </trkpt>
      <trkpt lat="44.44603" lon="5.70166">
        <ele>659.79998779297</ele>
        <time>2021-08-31T11:25:59Z</time>
      </trkpt>
      <trkpt lat="44.44599" lon="5.702">
        <ele>659.40002441406</ele>
        <time>2021-08-31T11:26:02Z</time>
      </trkpt>
      <trkpt lat="44.44591" lon="5.70244">
        <ele>658.20001220703</ele>
        <time>2021-08-31T11:26:06Z</time>
      </trkpt>
      <trkpt lat="44.44587" lon="5.70254">
        <ele>658</ele>
        <time>2021-08-31T11:26:07Z</time>
      </trkpt>
      <trkpt lat="44.44583" lon="5.70263">
        <ele>657.59997558594</ele>
        <time>2021-08-31T11:26:08Z</time>
      </trkpt>
      <trkpt lat="44.44565" lon="5.70285">
        <ele>657</ele>
        <time>2021-08-31T11:26:11Z</time>
      </trkpt>
      <trkpt lat="44.44558" lon="5.70292">
        <ele>656.79998779297</ele>
        <time>2021-08-31T11:26:12Z</time>
      </trkpt>
      <trkpt lat="44.44528" lon="5.70317">
        <ele>655.79998779297</ele>
        <time>2021-08-31T11:26:16Z</time>
      </trkpt>
      <trkpt lat="44.4451" lon="5.70326">
        <ele>655.20001220703</ele>
        <time>2021-08-31T11:26:18Z</time>
      </trkpt>
      <trkpt lat="44.44491" lon="5.70329">
        <ele>654.59997558594</ele>
        <time>2021-08-31T11:26:20Z</time>
      </trkpt>
      <trkpt lat="44.44474" lon="5.70329">
        <ele>654</ele>
        <time>2021-08-31T11:26:22Z</time>
      </trkpt>
      <trkpt lat="44.44457" lon="5.7033">
        <ele>653.59997558594</ele>
        <time>2021-08-31T11:26:24Z</time>
      </trkpt>
      <trkpt lat="44.44427" lon="5.70336">
        <ele>652.79998779297</ele>
        <time>2021-08-31T11:26:28Z</time>
      </trkpt>
      <trkpt lat="44.44406" lon="5.70347">
        <ele>652.40002441406</ele>
        <time>2021-08-31T11:26:31Z</time>
      </trkpt>
      <trkpt lat="44.44387" lon="5.70357">
        <ele>652.20001220703</ele>
        <time>2021-08-31T11:26:34Z</time>
      </trkpt>
      <trkpt lat="44.4435" lon="5.70378">
        <ele>652.20001220703</ele>
        <time>2021-08-31T11:26:40Z</time>
      </trkpt>
      <trkpt lat="44.44345" lon="5.70383">
        <ele>652.20001220703</ele>
        <time>2021-08-31T11:26:41Z</time>
      </trkpt>
      <trkpt lat="44.44329" lon="5.70411">
        <ele>652.40002441406</ele>
        <time>2021-08-31T11:26:45Z</time>
      </trkpt>
      <trkpt lat="44.4431" lon="5.70449">
        <ele>652.40002441406</ele>
        <time>2021-08-31T11:26:50Z</time>
      </trkpt>
      <trkpt lat="44.44305" lon="5.70455">
        <ele>652.20001220703</ele>
        <time>2021-08-31T11:26:51Z</time>
      </trkpt>
      <trkpt lat="44.44287" lon="5.70468">
        <ele>651.59997558594</ele>
        <time>2021-08-31T11:26:54Z</time>
      </trkpt>
      <trkpt lat="44.44281" lon="5.70472">
        <ele>651.40002441406</ele>
        <time>2021-08-31T11:26:55Z</time>
      </trkpt>
      <trkpt lat="44.44274" lon="5.70475">
        <ele>651.40002441406</ele>
        <time>2021-08-31T11:26:56Z</time>
      </trkpt>
      <trkpt lat="44.44238" lon="5.705">
        <ele>650.79998779297</ele>
        <time>2021-08-31T11:27:02Z</time>
      </trkpt>
      <trkpt lat="44.44209" lon="5.70521">
        <ele>650.20001220703</ele>
        <time>2021-08-31T11:27:07Z</time>
      </trkpt>
      <trkpt lat="44.44204" lon="5.70527">
        <ele>650.20001220703</ele>
        <time>2021-08-31T11:27:08Z</time>
      </trkpt>
      <trkpt lat="44.44192" lon="5.70546">
        <ele>650.20001220703</ele>
        <time>2021-08-31T11:27:11Z</time>
      </trkpt>
      <trkpt lat="44.44189" lon="5.70553">
        <ele>650.20001220703</ele>
        <time>2021-08-31T11:27:12Z</time>
      </trkpt>
      <trkpt lat="44.44185" lon="5.70561">
        <ele>650.20001220703</ele>
        <time>2021-08-31T11:27:13Z</time>
      </trkpt>
      <trkpt lat="44.44157" lon="5.70604">
        <ele>649.59997558594</ele>
        <time>2021-08-31T11:27:20Z</time>
      </trkpt>
      <trkpt lat="44.44147" lon="5.70614">
        <ele>649.20001220703</ele>
        <time>2021-08-31T11:27:22Z</time>
      </trkpt>
      <trkpt lat="44.44132" lon="5.70627">
        <ele>649</ele>
        <time>2021-08-31T11:27:25Z</time>
      </trkpt>
      <trkpt lat="44.44126" lon="5.7063">
        <ele>649</ele>
        <time>2021-08-31T11:27:26Z</time>
      </trkpt>
      <trkpt lat="44.44094" lon="5.70635">
        <ele>648.59997558594</ele>
        <time>2021-08-31T11:27:31Z</time>
      </trkpt>
      <trkpt lat="44.44069" lon="5.7064">
        <ele>648.20001220703</ele>
        <time>2021-08-31T11:27:35Z</time>
      </trkpt>
      <trkpt lat="44.44051" lon="5.70648">
        <ele>647.79998779297</ele>
        <time>2021-08-31T11:27:38Z</time>
      </trkpt>
      <trkpt lat="44.44026" lon="5.70672">
        <ele>647.40002441406</ele>
        <time>2021-08-31T11:27:43Z</time>
      </trkpt>
      <trkpt lat="44.44009" lon="5.70695">
        <ele>647</ele>
        <time>2021-08-31T11:27:47Z</time>
      </trkpt>
      <trkpt lat="44.43996" lon="5.70714">
        <ele>646.59997558594</ele>
        <time>2021-08-31T11:27:50Z</time>
      </trkpt>
      <trkpt lat="44.43993" lon="5.70721">
        <ele>646.40002441406</ele>
        <time>2021-08-31T11:27:51Z</time>
      </trkpt>
      <trkpt lat="44.43985" lon="5.70746">
        <ele>646</ele>
        <time>2021-08-31T11:27:54Z</time>
      </trkpt>
      <trkpt lat="44.43983" lon="5.70754">
        <ele>646</ele>
        <time>2021-08-31T11:27:55Z</time>
      </trkpt>
      <trkpt lat="44.43976" lon="5.70768">
        <ele>645.79998779297</ele>
        <time>2021-08-31T11:27:57Z</time>
      </trkpt>
      <trkpt lat="44.43967" lon="5.70779">
        <ele>645.79998779297</ele>
        <time>2021-08-31T11:27:59Z</time>
      </trkpt>
      <trkpt lat="44.43925" lon="5.70814">
        <ele>645.20001220703</ele>
        <time>2021-08-31T11:28:07Z</time>
      </trkpt>
      <trkpt lat="44.4389" lon="5.70837">
        <ele>645.20001220703</ele>
        <time>2021-08-31T11:28:13Z</time>
      </trkpt>
      <trkpt lat="44.43841" lon="5.70866">
        <ele>645</ele>
        <time>2021-08-31T11:28:21Z</time>
      </trkpt>
      <trkpt lat="44.43805" lon="5.70899">
        <ele>644.40002441406</ele>
        <time>2021-08-31T11:28:27Z</time>
      </trkpt>
      <trkpt lat="44.43771" lon="5.70932">
        <ele>644.40002441406</ele>
        <time>2021-08-31T11:28:33Z</time>
      </trkpt>
      <trkpt lat="44.43743" lon="5.70953">
        <ele>645.20001220703</ele>
        <time>2021-08-31T11:28:39Z</time>
      </trkpt>
      <trkpt lat="44.43728" lon="5.70964">
        <ele>646</ele>
        <time>2021-08-31T11:28:43Z</time>
      </trkpt>
      <trkpt lat="44.43725" lon="5.70966">
        <ele>646.20001220703</ele>
        <time>2021-08-31T11:28:44Z</time>
      </trkpt>
      <trkpt lat="44.43721" lon="5.70968">
        <ele>646.20001220703</ele>
        <time>2021-08-31T11:28:45Z</time>
      </trkpt>
      <trkpt lat="44.43704" lon="5.70974">
        <ele>647</ele>
        <time>2021-08-31T11:28:49Z</time>
      </trkpt>
      <trkpt lat="44.43701" lon="5.70975">
        <ele>647.20001220703</ele>
        <time>2021-08-31T11:28:50Z</time>
      </trkpt>
      <trkpt lat="44.43697" lon="5.70977">
        <ele>647.40002441406</ele>
        <time>2021-08-31T11:28:51Z</time>
      </trkpt>
      <trkpt lat="44.4367" lon="5.70982">
        <ele>648.20001220703</ele>
        <time>2021-08-31T11:28:57Z</time>
      </trkpt>
      <trkpt lat="44.43666" lon="5.70983">
        <ele>648.40002441406</ele>
        <time>2021-08-31T11:28:58Z</time>
      </trkpt>
      <trkpt lat="44.43636" lon="5.70988">
        <ele>649</ele>
        <time>2021-08-31T11:29:05Z</time>
      </trkpt>
      <trkpt lat="44.43604" lon="5.70993">
        <ele>648.59997558594</ele>
        <time>2021-08-31T11:29:11Z</time>
      </trkpt>
      <trkpt lat="44.43555" lon="5.71004">
        <ele>647.59997558594</ele>
        <time>2021-08-31T11:29:19Z</time>
      </trkpt>
      <trkpt lat="44.43535" lon="5.71008">
        <ele>647</ele>
        <time>2021-08-31T11:29:22Z</time>
      </trkpt>
      <trkpt lat="44.4351" lon="5.71015">
        <ele>646.40002441406</ele>
        <time>2021-08-31T11:29:26Z</time>
      </trkpt>
      <trkpt lat="44.43504" lon="5.71018">
        <ele>646.20001220703</ele>
        <time>2021-08-31T11:29:27Z</time>
      </trkpt>
      <trkpt lat="44.43497" lon="5.71021">
        <ele>646</ele>
        <time>2021-08-31T11:29:28Z</time>
      </trkpt>
      <trkpt lat="44.43475" lon="5.7103">
        <ele>645.20001220703</ele>
        <time>2021-08-31T11:29:31Z</time>
      </trkpt>
      <trkpt lat="44.4346" lon="5.71037">
        <ele>644.59997558594</ele>
        <time>2021-08-31T11:29:33Z</time>
      </trkpt>
      <trkpt lat="44.43436" lon="5.71049">
        <ele>643.59997558594</ele>
        <time>2021-08-31T11:29:36Z</time>
      </trkpt>
      <trkpt lat="44.43427" lon="5.71053">
        <ele>643.20001220703</ele>
        <time>2021-08-31T11:29:37Z</time>
      </trkpt>
      <trkpt lat="44.4341" lon="5.71063">
        <ele>642.20001220703</ele>
        <time>2021-08-31T11:29:39Z</time>
      </trkpt>
      <trkpt lat="44.43383" lon="5.71076">
        <ele>641</ele>
        <time>2021-08-31T11:29:42Z</time>
      </trkpt>
      <trkpt lat="44.43373" lon="5.7108">
        <ele>640.59997558594</ele>
        <time>2021-08-31T11:29:43Z</time>
      </trkpt>
      <trkpt lat="44.43355" lon="5.71091">
        <ele>639.79998779297</ele>
        <time>2021-08-31T11:29:45Z</time>
      </trkpt>
      <trkpt lat="44.43326" lon="5.7111">
        <ele>638.40002441406</ele>
        <time>2021-08-31T11:29:48Z</time>
      </trkpt>
      <trkpt lat="44.43317" lon="5.71118">
        <ele>637</ele>
        <time>2021-08-31T11:29:49Z</time>
      </trkpt>
      <trkpt lat="44.43298" lon="5.71137">
        <ele>635.59997558594</ele>
        <time>2021-08-31T11:29:51Z</time>
      </trkpt>
      <trkpt lat="44.4329" lon="5.71147">
        <ele>635</ele>
        <time>2021-08-31T11:29:52Z</time>
      </trkpt>
      <trkpt lat="44.43283" lon="5.71159">
        <ele>634.40002441406</ele>
        <time>2021-08-31T11:29:53Z</time>
      </trkpt>
      <trkpt lat="44.43273" lon="5.71188">
        <ele>633.20001220703</ele>
        <time>2021-08-31T11:29:55Z</time>
      </trkpt>
      <trkpt lat="44.43264" lon="5.71215">
        <ele>632</ele>
        <time>2021-08-31T11:29:57Z</time>
      </trkpt>
      <trkpt lat="44.43252" lon="5.71239">
        <ele>630.79998779297</ele>
        <time>2021-08-31T11:29:59Z</time>
      </trkpt>
      <trkpt lat="44.43246" lon="5.7125">
        <ele>630.40002441406</ele>
        <time>2021-08-31T11:30:00Z</time>
      </trkpt>
      <trkpt lat="44.43234" lon="5.7127">
        <ele>629.59997558594</ele>
        <time>2021-08-31T11:30:02Z</time>
      </trkpt>
      <trkpt lat="44.43224" lon="5.71286">
        <ele>628.79998779297</ele>
        <time>2021-08-31T11:30:04Z</time>
      </trkpt>
      <trkpt lat="44.4322" lon="5.71292">
        <ele>628.20001220703</ele>
        <time>2021-08-31T11:30:05Z</time>
      </trkpt>
      <trkpt lat="44.43214" lon="5.71301">
        <ele>627.40002441406</ele>
        <time>2021-08-31T11:30:07Z</time>
      </trkpt>
      <trkpt lat="44.43213" lon="5.71304">
        <ele>627.20001220703</ele>
        <time>2021-08-31T11:30:08Z</time>
      </trkpt>
      <trkpt lat="44.43208" lon="5.71307">
        <ele>626.40002441406</ele>
        <time>2021-08-31T11:30:11Z</time>
      </trkpt>
      <trkpt lat="44.43205" lon="5.71307">
        <ele>626</ele>
        <time>2021-08-31T11:30:13Z</time>
      </trkpt>
      <trkpt lat="44.43201" lon="5.71306">
        <ele>625.79998779297</ele>
        <time>2021-08-31T11:30:59Z</time>
      </trkpt>
      <trkpt lat="44.43199" lon="5.71306">
        <ele>625.79998779297</ele>
        <time>2021-08-31T11:31:00Z</time>
      </trkpt>
      <trkpt lat="44.43183" lon="5.71306">
        <ele>626</ele>
        <time>2021-08-31T11:31:06Z</time>
      </trkpt>
      <trkpt lat="44.43163" lon="5.71314">
        <ele>626.20001220703</ele>
        <time>2021-08-31T11:31:11Z</time>
      </trkpt>
      <trkpt lat="44.43143" lon="5.71327">
        <ele>626.20001220703</ele>
        <time>2021-08-31T11:31:16Z</time>
      </trkpt>
      <trkpt lat="44.43124" lon="5.71347">
        <ele>626</ele>
        <time>2021-08-31T11:31:22Z</time>
      </trkpt>
      <trkpt lat="44.43118" lon="5.71356">
        <ele>626</ele>
        <time>2021-08-31T11:31:24Z</time>
      </trkpt>
      <trkpt lat="44.43106" lon="5.71374">
        <ele>626</ele>
        <time>2021-08-31T11:31:28Z</time>
      </trkpt>
      <trkpt lat="44.43097" lon="5.7139">
        <ele>626</ele>
        <time>2021-08-31T11:31:31Z</time>
      </trkpt>
      <trkpt lat="44.43099" lon="5.71408">
        <ele>626.20001220703</ele>
        <time>2021-08-31T11:31:33Z</time>
      </trkpt>
      <trkpt lat="44.43088" lon="5.71465">
        <ele>626.79998779297</ele>
        <time>2021-08-31T11:31:42Z</time>
      </trkpt>
      <trkpt lat="44.43082" lon="5.7148">
        <ele>627</ele>
        <time>2021-08-31T11:31:45Z</time>
      </trkpt>
      <trkpt lat="44.43079" lon="5.71484">
        <ele>627.20001220703</ele>
        <time>2021-08-31T11:31:46Z</time>
      </trkpt>
      <trkpt lat="44.43072" lon="5.71501">
        <ele>627.59997558594</ele>
        <time>2021-08-31T11:31:49Z</time>
      </trkpt>
      <trkpt lat="44.43066" lon="5.71517">
        <ele>627.79998779297</ele>
        <time>2021-08-31T11:31:52Z</time>
      </trkpt>
      <trkpt lat="44.43063" lon="5.71529">
        <ele>628</ele>
        <time>2021-08-31T11:31:54Z</time>
      </trkpt>
      <trkpt lat="44.43061" lon="5.71535">
        <ele>628.20001220703</ele>
        <time>2021-08-31T11:31:55Z</time>
      </trkpt>
      <trkpt lat="44.43059" lon="5.71541">
        <ele>628.20001220703</ele>
        <time>2021-08-31T11:31:56Z</time>
      </trkpt>
      <trkpt lat="44.43051" lon="5.71581">
        <ele>628.20001220703</ele>
        <time>2021-08-31T11:32:02Z</time>
      </trkpt>
      <trkpt lat="44.43036" lon="5.71636">
        <ele>627.40002441406</ele>
        <time>2021-08-31T11:32:09Z</time>
      </trkpt>
      <trkpt lat="44.43026" lon="5.7166">
        <ele>627</ele>
        <time>2021-08-31T11:32:12Z</time>
      </trkpt>
      <trkpt lat="44.43015" lon="5.71685">
        <ele>626.20001220703</ele>
        <time>2021-08-31T11:32:15Z</time>
      </trkpt>
      <trkpt lat="44.43003" lon="5.7171">
        <ele>625.79998779297</ele>
        <time>2021-08-31T11:32:18Z</time>
      </trkpt>
      <trkpt lat="44.42989" lon="5.71729">
        <ele>625.40002441406</ele>
        <time>2021-08-31T11:32:21Z</time>
      </trkpt>
      <trkpt lat="44.42969" lon="5.71733">
        <ele>624.79998779297</ele>
        <time>2021-08-31T11:32:24Z</time>
      </trkpt>
      <trkpt lat="44.42955" lon="5.71731">
        <ele>624.20001220703</ele>
        <time>2021-08-31T11:32:26Z</time>
      </trkpt>
      <trkpt lat="44.42946" lon="5.71728">
        <ele>623.79998779297</ele>
        <time>2021-08-31T11:32:28Z</time>
      </trkpt>
      <trkpt lat="44.42937" lon="5.71721">
        <ele>622.59997558594</ele>
        <time>2021-08-31T11:32:32Z</time>
      </trkpt>
      <trkpt lat="44.42933" lon="5.71715">
        <ele>621.79998779297</ele>
        <time>2021-08-31T11:32:35Z</time>
      </trkpt>
      <trkpt lat="44.42931" lon="5.71715">
        <ele>621.59997558594</ele>
        <time>2021-08-31T11:32:36Z</time>
      </trkpt>
      <trkpt lat="44.4293" lon="5.71714">
        <ele>621.59997558594</ele>
        <time>2021-08-31T11:32:37Z</time>
      </trkpt>
      <trkpt lat="44.42924" lon="5.71714">
        <ele>621</ele>
        <time>2021-08-31T11:33:29Z</time>
      </trkpt>
      <trkpt lat="44.42917" lon="5.71717">
        <ele>621</ele>
        <time>2021-08-31T11:33:33Z</time>
      </trkpt>
      <trkpt lat="44.42915" lon="5.7172">
        <ele>621</ele>
        <time>2021-08-31T11:33:34Z</time>
      </trkpt>
      <trkpt lat="44.42907" lon="5.71741">
        <ele>621.20001220703</ele>
        <time>2021-08-31T11:33:39Z</time>
      </trkpt>
      <trkpt lat="44.42889" lon="5.7176">
        <ele>621.59997558594</ele>
        <time>2021-08-31T11:33:45Z</time>
      </trkpt>
      <trkpt lat="44.42868" lon="5.71781">
        <ele>622.20001220703</ele>
        <time>2021-08-31T11:33:52Z</time>
      </trkpt>
      <trkpt lat="44.42851" lon="5.71797">
        <ele>622.20001220703</ele>
        <time>2021-08-31T11:33:59Z</time>
      </trkpt>
      <trkpt lat="44.42836" lon="5.71802">
        <ele>622.20001220703</ele>
        <time>2021-08-31T11:34:05Z</time>
      </trkpt>
      <trkpt lat="44.42825" lon="5.71804">
        <ele>622.59997558594</ele>
        <time>2021-08-31T11:34:09Z</time>
      </trkpt>
      <trkpt lat="44.42809" lon="5.71809">
        <ele>623.40002441406</ele>
        <time>2021-08-31T11:34:16Z</time>
      </trkpt>
      <trkpt lat="44.42804" lon="5.71811">
        <ele>623.59997558594</ele>
        <time>2021-08-31T11:34:18Z</time>
      </trkpt>
      <trkpt lat="44.42796" lon="5.71811">
        <ele>624.40002441406</ele>
        <time>2021-08-31T11:34:23Z</time>
      </trkpt>
      <trkpt lat="44.42797" lon="5.71814">
        <ele>624.79998779297</ele>
        <time>2021-08-31T11:34:54Z</time>
      </trkpt>
      <trkpt lat="44.42798" lon="5.71815">
        <ele>624.79998779297</ele>
        <time>2021-08-31T11:34:55Z</time>
      </trkpt>
      <trkpt lat="44.42802" lon="5.71819">
        <ele>624.79998779297</ele>
        <time>2021-08-31T11:34:58Z</time>
      </trkpt>
      <trkpt lat="44.42808" lon="5.71817">
        <ele>624.59997558594</ele>
        <time>2021-08-31T11:35:00Z</time>
      </trkpt>
      <trkpt lat="44.42822" lon="5.71811">
        <ele>624.59997558594</ele>
        <time>2021-08-31T11:35:05Z</time>
      </trkpt>
      <trkpt lat="44.42829" lon="5.71808">
        <ele>624</ele>
        <time>2021-08-31T11:35:10Z</time>
      </trkpt>
      <trkpt lat="44.42827" lon="5.71803">
        <ele>623</ele>
        <time>2021-08-31T11:41:42Z</time>
      </trkpt>
      <trkpt lat="44.42829" lon="5.71801">
        <ele>623</ele>
        <time>2021-08-31T11:41:43Z</time>
      </trkpt>
      <trkpt lat="44.42846" lon="5.71797">
        <ele>622.79998779297</ele>
        <time>2021-08-31T11:41:49Z</time>
      </trkpt>
      <trkpt lat="44.4286" lon="5.71782">
        <ele>622.40002441406</ele>
        <time>2021-08-31T11:41:54Z</time>
      </trkpt>
      <trkpt lat="44.4286" lon="5.7177">
        <ele>622</ele>
        <time>2021-08-31T11:41:57Z</time>
      </trkpt>
      <trkpt lat="44.42858" lon="5.71765">
        <ele>621.79998779297</ele>
        <time>2021-08-31T11:41:58Z</time>
      </trkpt>
      <trkpt lat="44.42853" lon="5.71756">
        <ele>621.79998779297</ele>
        <time>2021-08-31T11:42:00Z</time>
      </trkpt>
      <trkpt lat="44.42846" lon="5.71744">
        <ele>621.40002441406</ele>
        <time>2021-08-31T11:42:02Z</time>
      </trkpt>
      <trkpt lat="44.42838" lon="5.71731">
        <ele>620.79998779297</ele>
        <time>2021-08-31T11:42:04Z</time>
      </trkpt>
      <trkpt lat="44.42835" lon="5.71727">
        <ele>620.40002441406</ele>
        <time>2021-08-31T11:42:05Z</time>
      </trkpt>
      <trkpt lat="44.42826" lon="5.71717">
        <ele>619.79998779297</ele>
        <time>2021-08-31T11:42:07Z</time>
      </trkpt>
      <trkpt lat="44.42822" lon="5.71712">
        <ele>619.59997558594</ele>
        <time>2021-08-31T11:42:08Z</time>
      </trkpt>
      <trkpt lat="44.42804" lon="5.71694">
        <ele>618.40002441406</ele>
        <time>2021-08-31T11:42:12Z</time>
      </trkpt>
      <trkpt lat="44.428" lon="5.7169">
        <ele>618.20001220703</ele>
        <time>2021-08-31T11:42:13Z</time>
      </trkpt>
      <trkpt lat="44.42787" lon="5.71673">
        <ele>617.40002441406</ele>
        <time>2021-08-31T11:42:18Z</time>
      </trkpt>
      <trkpt lat="44.42776" lon="5.71658">
        <ele>617.40002441406</ele>
        <time>2021-08-31T11:42:24Z</time>
      </trkpt>
      <trkpt lat="44.42771" lon="5.71653">
        <ele>617.20001220703</ele>
        <time>2021-08-31T11:42:26Z</time>
      </trkpt>
      <trkpt lat="44.42755" lon="5.71636">
        <ele>617.20001220703</ele>
        <time>2021-08-31T11:42:32Z</time>
      </trkpt>
      <trkpt lat="44.42742" lon="5.71624">
        <ele>617.40002441406</ele>
        <time>2021-08-31T11:42:38Z</time>
      </trkpt>
      <trkpt lat="44.42747" lon="5.71694">
        <ele>620.40002441406</ele>
        <time>2021-08-31T12:44:52Z</time>
      </trkpt>
      <trkpt lat="44.42747" lon="5.71686">
        <ele>620.79998779297</ele>
        <time>2021-08-31T12:45:49Z</time>
      </trkpt>
      <trkpt lat="44.42748" lon="5.71686">
        <ele>620.79998779297</ele>
        <time>2021-08-31T12:45:50Z</time>
      </trkpt>
      <trkpt lat="44.42749" lon="5.71685">
        <ele>620.79998779297</ele>
        <time>2021-08-31T12:45:51Z</time>
      </trkpt>
      <trkpt lat="44.42756" lon="5.71676">
        <ele>620.40002441406</ele>
        <time>2021-08-31T12:45:55Z</time>
      </trkpt>
      <trkpt lat="44.4277" lon="5.71662">
        <ele>620</ele>
        <time>2021-08-31T12:46:01Z</time>
      </trkpt>
      <trkpt lat="44.42777" lon="5.71668">
        <ele>620</ele>
        <time>2021-08-31T12:46:04Z</time>
      </trkpt>
      <trkpt lat="44.42779" lon="5.71671">
        <ele>620</ele>
        <time>2021-08-31T12:46:05Z</time>
      </trkpt>
      <trkpt lat="44.42788" lon="5.71686">
        <ele>620.20001220703</ele>
        <time>2021-08-31T12:46:10Z</time>
      </trkpt>
      <trkpt lat="44.42783" lon="5.71698">
        <ele>620.20001220703</ele>
        <time>2021-08-31T12:46:14Z</time>
      </trkpt>
      <trkpt lat="44.42777" lon="5.71714">
        <ele>620.40002441406</ele>
        <time>2021-08-31T12:46:20Z</time>
      </trkpt>
      <trkpt lat="44.4277" lon="5.71732">
        <ele>621.40002441406</ele>
        <time>2021-08-31T12:46:28Z</time>
      </trkpt>
      <trkpt lat="44.42769" lon="5.71734">
        <ele>621.59997558594</ele>
        <time>2021-08-31T12:46:29Z</time>
      </trkpt>
      <trkpt lat="44.42764" lon="5.71745">
        <ele>622.20001220703</ele>
        <time>2021-08-31T12:46:34Z</time>
      </trkpt>
      <trkpt lat="44.42762" lon="5.71751">
        <ele>622.59997558594</ele>
        <time>2021-08-31T12:46:37Z</time>
      </trkpt>
      <trkpt lat="44.42759" lon="5.7176">
        <ele>623</ele>
        <time>2021-08-31T12:46:41Z</time>
      </trkpt>
      <trkpt lat="44.42756" lon="5.71767">
        <ele>623.59997558594</ele>
        <time>2021-08-31T12:46:45Z</time>
      </trkpt>
      <trkpt lat="44.42753" lon="5.71775">
        <ele>624.20001220703</ele>
        <time>2021-08-31T12:46:49Z</time>
      </trkpt>
      <trkpt lat="44.4275" lon="5.71781">
        <ele>624.59997558594</ele>
        <time>2021-08-31T12:46:52Z</time>
      </trkpt>
      <trkpt lat="44.42748" lon="5.71786">
        <ele>625.20001220703</ele>
        <time>2021-08-31T12:46:55Z</time>
      </trkpt>
      <trkpt lat="44.42748" lon="5.71787">
        <ele>625.40002441406</ele>
        <time>2021-08-31T12:46:56Z</time>
      </trkpt>
      <trkpt lat="44.42747" lon="5.7179">
        <ele>625.79998779297</ele>
        <time>2021-08-31T12:46:58Z</time>
      </trkpt>
      <trkpt lat="44.42745" lon="5.71801">
        <ele>626.79998779297</ele>
        <time>2021-08-31T12:47:03Z</time>
      </trkpt>
      <trkpt lat="44.42743" lon="5.71806">
        <ele>627.40002441406</ele>
        <time>2021-08-31T12:47:06Z</time>
      </trkpt>
      <trkpt lat="44.42744" lon="5.71811">
        <ele>627.79998779297</ele>
        <time>2021-08-31T12:47:08Z</time>
      </trkpt>
      <trkpt lat="44.42744" lon="5.71813">
        <ele>627.79998779297</ele>
        <time>2021-08-31T12:47:09Z</time>
      </trkpt>
      <trkpt lat="44.42741" lon="5.71819">
        <ele>628.59997558594</ele>
        <time>2021-08-31T12:47:13Z</time>
      </trkpt>
      <trkpt lat="44.42735" lon="5.7182">
        <ele>629</ele>
        <time>2021-08-31T12:47:16Z</time>
      </trkpt>
      <trkpt lat="44.42727" lon="5.7182">
        <ele>629.59997558594</ele>
        <time>2021-08-31T12:47:21Z</time>
      </trkpt>
      <trkpt lat="44.42721" lon="5.71819">
        <ele>630</ele>
        <time>2021-08-31T12:47:24Z</time>
      </trkpt>
      <trkpt lat="44.42715" lon="5.71817">
        <ele>630.59997558594</ele>
        <time>2021-08-31T12:47:28Z</time>
      </trkpt>
      <trkpt lat="44.42704" lon="5.71814">
        <ele>630.79998779297</ele>
        <time>2021-08-31T12:47:34Z</time>
      </trkpt>
      <trkpt lat="44.42703" lon="5.71813">
        <ele>631</ele>
        <time>2021-08-31T12:47:35Z</time>
      </trkpt>
      <trkpt lat="44.4269" lon="5.71812">
        <ele>631.40002441406</ele>
        <time>2021-08-31T12:47:41Z</time>
      </trkpt>
      <trkpt lat="44.42677" lon="5.71811">
        <ele>632</ele>
        <time>2021-08-31T12:47:48Z</time>
      </trkpt>
      <trkpt lat="44.42675" lon="5.71812">
        <ele>632.20001220703</ele>
        <time>2021-08-31T12:47:49Z</time>
      </trkpt>
      <trkpt lat="44.42662" lon="5.71823">
        <ele>632.79998779297</ele>
        <time>2021-08-31T12:47:56Z</time>
      </trkpt>
      <trkpt lat="44.42646" lon="5.71837">
        <ele>633</ele>
        <time>2021-08-31T12:48:04Z</time>
      </trkpt>
      <trkpt lat="44.42637" lon="5.71841">
        <ele>633.20001220703</ele>
        <time>2021-08-31T12:48:08Z</time>
      </trkpt>
      <trkpt lat="44.42626" lon="5.71845">
        <ele>633.59997558594</ele>
        <time>2021-08-31T12:48:13Z</time>
      </trkpt>
      <trkpt lat="44.42614" lon="5.71847">
        <ele>634.20001220703</ele>
        <time>2021-08-31T12:48:19Z</time>
      </trkpt>
      <trkpt lat="44.42612" lon="5.71848">
        <ele>634.40002441406</ele>
        <time>2021-08-31T12:48:20Z</time>
      </trkpt>
      <trkpt lat="44.42593" lon="5.71854">
        <ele>635.20001220703</ele>
        <time>2021-08-31T12:48:29Z</time>
      </trkpt>
      <trkpt lat="44.42591" lon="5.71854">
        <ele>635.40002441406</ele>
        <time>2021-08-31T12:48:30Z</time>
      </trkpt>
      <trkpt lat="44.42578" lon="5.71858">
        <ele>636.40002441406</ele>
        <time>2021-08-31T12:48:36Z</time>
      </trkpt>
      <trkpt lat="44.42573" lon="5.71859">
        <ele>636.59997558594</ele>
        <time>2021-08-31T12:48:38Z</time>
      </trkpt>
      <trkpt lat="44.42564" lon="5.71861">
        <ele>637.40002441406</ele>
        <time>2021-08-31T12:48:42Z</time>
      </trkpt>
      <trkpt lat="44.42553" lon="5.71863">
        <ele>638</ele>
        <time>2021-08-31T12:48:47Z</time>
      </trkpt>
      <trkpt lat="44.42542" lon="5.71866">
        <ele>638.40002441406</ele>
        <time>2021-08-31T12:48:52Z</time>
      </trkpt>
      <trkpt lat="44.42531" lon="5.71869">
        <ele>639.20001220703</ele>
        <time>2021-08-31T12:48:57Z</time>
      </trkpt>
      <trkpt lat="44.42527" lon="5.7187">
        <ele>639.40002441406</ele>
        <time>2021-08-31T12:48:59Z</time>
      </trkpt>
      <trkpt lat="44.42513" lon="5.71873">
        <ele>640</ele>
        <time>2021-08-31T12:49:05Z</time>
      </trkpt>
      <trkpt lat="44.42504" lon="5.71875">
        <ele>640.59997558594</ele>
        <time>2021-08-31T12:49:09Z</time>
      </trkpt>
      <trkpt lat="44.42493" lon="5.71878">
        <ele>641.20001220703</ele>
        <time>2021-08-31T12:49:13Z</time>
      </trkpt>
      <trkpt lat="44.42469" lon="5.71883">
        <ele>641</ele>
        <time>2021-08-31T12:49:19Z</time>
      </trkpt>
      <trkpt lat="44.42433" lon="5.71891">
        <ele>640.40002441406</ele>
        <time>2021-08-31T12:49:26Z</time>
      </trkpt>
      <trkpt lat="44.42386" lon="5.71902">
        <ele>639.79998779297</ele>
        <time>2021-08-31T12:49:34Z</time>
      </trkpt>
      <trkpt lat="44.42373" lon="5.71905">
        <ele>639.59997558594</ele>
        <time>2021-08-31T12:49:36Z</time>
      </trkpt>
      <trkpt lat="44.4233" lon="5.71915">
        <ele>639.59997558594</ele>
        <time>2021-08-31T12:49:43Z</time>
      </trkpt>
      <trkpt lat="44.42318" lon="5.71917">
        <ele>639.79998779297</ele>
        <time>2021-08-31T12:49:45Z</time>
      </trkpt>
      <trkpt lat="44.42273" lon="5.71927">
        <ele>639.59997558594</ele>
        <time>2021-08-31T12:49:53Z</time>
      </trkpt>
      <trkpt lat="44.42225" lon="5.71937">
        <ele>639.79998779297</ele>
        <time>2021-08-31T12:50:02Z</time>
      </trkpt>
      <trkpt lat="44.42176" lon="5.71945">
        <ele>640.59997558594</ele>
        <time>2021-08-31T12:50:12Z</time>
      </trkpt>
      <trkpt lat="44.4214" lon="5.71954">
        <ele>641.59997558594</ele>
        <time>2021-08-31T12:50:20Z</time>
      </trkpt>
      <trkpt lat="44.42135" lon="5.71954">
        <ele>641.59997558594</ele>
        <time>2021-08-31T12:50:21Z</time>
      </trkpt>
      <trkpt lat="44.42093" lon="5.71961">
        <ele>642.40002441406</ele>
        <time>2021-08-31T12:50:30Z</time>
      </trkpt>
      <trkpt lat="44.42074" lon="5.71964">
        <ele>642.59997558594</ele>
        <time>2021-08-31T12:50:34Z</time>
      </trkpt>
      <trkpt lat="44.42046" lon="5.71969">
        <ele>643</ele>
        <time>2021-08-31T12:50:40Z</time>
      </trkpt>
      <trkpt lat="44.42008" lon="5.71977">
        <ele>643.40002441406</ele>
        <time>2021-08-31T12:50:48Z</time>
      </trkpt>
      <trkpt lat="44.41985" lon="5.71981">
        <ele>643.79998779297</ele>
        <time>2021-08-31T12:50:53Z</time>
      </trkpt>
      <trkpt lat="44.41973" lon="5.71985">
        <ele>644.20001220703</ele>
        <time>2021-08-31T12:50:56Z</time>
      </trkpt>
      <trkpt lat="44.41954" lon="5.71989">
        <ele>644.79998779297</ele>
        <time>2021-08-31T12:51:01Z</time>
      </trkpt>
      <trkpt lat="44.41947" lon="5.71991">
        <ele>645.20001220703</ele>
        <time>2021-08-31T12:51:03Z</time>
      </trkpt>
      <trkpt lat="44.41934" lon="5.71994">
        <ele>646</ele>
        <time>2021-08-31T12:51:07Z</time>
      </trkpt>
      <trkpt lat="44.4192" lon="5.71998">
        <ele>646.59997558594</ele>
        <time>2021-08-31T12:51:11Z</time>
      </trkpt>
      <trkpt lat="44.41913" lon="5.72001">
        <ele>647</ele>
        <time>2021-08-31T12:51:13Z</time>
      </trkpt>
      <trkpt lat="44.41894" lon="5.72011">
        <ele>647.59997558594</ele>
        <time>2021-08-31T12:51:18Z</time>
      </trkpt>
      <trkpt lat="44.41865" lon="5.72032">
        <ele>648</ele>
        <time>2021-08-31T12:51:26Z</time>
      </trkpt>
      <trkpt lat="44.41836" lon="5.72051">
        <ele>649</ele>
        <time>2021-08-31T12:51:35Z</time>
      </trkpt>
      <trkpt lat="44.41818" lon="5.72064">
        <ele>650.20001220703</ele>
        <time>2021-08-31T12:51:41Z</time>
      </trkpt>
      <trkpt lat="44.41815" lon="5.72066">
        <ele>650.59997558594</ele>
        <time>2021-08-31T12:51:42Z</time>
      </trkpt>
      <trkpt lat="44.41796" lon="5.72079">
        <ele>651.20001220703</ele>
        <time>2021-08-31T12:51:48Z</time>
      </trkpt>
      <trkpt lat="44.41783" lon="5.72089">
        <ele>651.79998779297</ele>
        <time>2021-08-31T12:51:52Z</time>
      </trkpt>
      <trkpt lat="44.41757" lon="5.72109">
        <ele>652</ele>
        <time>2021-08-31T12:51:58Z</time>
      </trkpt>
      <trkpt lat="44.4172" lon="5.72137">
        <ele>650.79998779297</ele>
        <time>2021-08-31T12:52:04Z</time>
      </trkpt>
      <trkpt lat="44.41706" lon="5.72148">
        <ele>650</ele>
        <time>2021-08-31T12:52:06Z</time>
      </trkpt>
      <trkpt lat="44.41683" lon="5.72165">
        <ele>648.79998779297</ele>
        <time>2021-08-31T12:52:09Z</time>
      </trkpt>
      <trkpt lat="44.41667" lon="5.72177">
        <ele>648</ele>
        <time>2021-08-31T12:52:11Z</time>
      </trkpt>
      <trkpt lat="44.41658" lon="5.72184">
        <ele>647.59997558594</ele>
        <time>2021-08-31T12:52:12Z</time>
      </trkpt>
      <trkpt lat="44.41633" lon="5.72203">
        <ele>646.40002441406</ele>
        <time>2021-08-31T12:52:15Z</time>
      </trkpt>
      <trkpt lat="44.41615" lon="5.72216">
        <ele>645.40002441406</ele>
        <time>2021-08-31T12:52:17Z</time>
      </trkpt>
      <trkpt lat="44.41599" lon="5.72229">
        <ele>644.40002441406</ele>
        <time>2021-08-31T12:52:19Z</time>
      </trkpt>
      <trkpt lat="44.4159" lon="5.72236">
        <ele>644</ele>
        <time>2021-08-31T12:52:20Z</time>
      </trkpt>
      <trkpt lat="44.41566" lon="5.72255">
        <ele>642.79998779297</ele>
        <time>2021-08-31T12:52:23Z</time>
      </trkpt>
      <trkpt lat="44.4155" lon="5.72266">
        <ele>642.40002441406</ele>
        <time>2021-08-31T12:52:25Z</time>
      </trkpt>
      <trkpt lat="44.41526" lon="5.72283">
        <ele>641.59997558594</ele>
        <time>2021-08-31T12:52:28Z</time>
      </trkpt>
      <trkpt lat="44.41503" lon="5.72299">
        <ele>640.59997558594</ele>
        <time>2021-08-31T12:52:31Z</time>
      </trkpt>
      <trkpt lat="44.41488" lon="5.72309">
        <ele>640</ele>
        <time>2021-08-31T12:52:33Z</time>
      </trkpt>
      <trkpt lat="44.41468" lon="5.72323">
        <ele>639.59997558594</ele>
        <time>2021-08-31T12:52:36Z</time>
      </trkpt>
      <trkpt lat="44.41443" lon="5.72343">
        <ele>639.40002441406</ele>
        <time>2021-08-31T12:52:40Z</time>
      </trkpt>
      <trkpt lat="44.41392" lon="5.72381">
        <ele>639</ele>
        <time>2021-08-31T12:52:48Z</time>
      </trkpt>
      <trkpt lat="44.41385" lon="5.72386">
        <ele>639</ele>
        <time>2021-08-31T12:52:49Z</time>
      </trkpt>
      <trkpt lat="44.41346" lon="5.72415">
        <ele>638.59997558594</ele>
        <time>2021-08-31T12:52:55Z</time>
      </trkpt>
      <trkpt lat="44.41325" lon="5.72429">
        <ele>638</ele>
        <time>2021-08-31T12:52:58Z</time>
      </trkpt>
      <trkpt lat="44.4129" lon="5.72457">
        <ele>637.40002441406</ele>
        <time>2021-08-31T12:53:03Z</time>
      </trkpt>
      <trkpt lat="44.41276" lon="5.72467">
        <ele>637</ele>
        <time>2021-08-31T12:53:05Z</time>
      </trkpt>
      <trkpt lat="44.41246" lon="5.72489">
        <ele>636.20001220703</ele>
        <time>2021-08-31T12:53:09Z</time>
      </trkpt>
      <trkpt lat="44.4121" lon="5.72517">
        <ele>635.20001220703</ele>
        <time>2021-08-31T12:53:14Z</time>
      </trkpt>
      <trkpt lat="44.41202" lon="5.72522">
        <ele>634.79998779297</ele>
        <time>2021-08-31T12:53:15Z</time>
      </trkpt>
      <trkpt lat="44.41181" lon="5.72538">
        <ele>634</ele>
        <time>2021-08-31T12:53:18Z</time>
      </trkpt>
      <trkpt lat="44.41147" lon="5.72563">
        <ele>633.79998779297</ele>
        <time>2021-08-31T12:53:23Z</time>
      </trkpt>
      <trkpt lat="44.41104" lon="5.72595">
        <ele>633</ele>
        <time>2021-08-31T12:53:29Z</time>
      </trkpt>
      <trkpt lat="44.41075" lon="5.72617">
        <ele>632</ele>
        <time>2021-08-31T12:53:33Z</time>
      </trkpt>
      <trkpt lat="44.41068" lon="5.72622">
        <ele>631.59997558594</ele>
        <time>2021-08-31T12:53:34Z</time>
      </trkpt>
      <trkpt lat="44.41032" lon="5.72654">
        <ele>630.40002441406</ele>
        <time>2021-08-31T12:53:39Z</time>
      </trkpt>
      <trkpt lat="44.41026" lon="5.72663">
        <ele>630</ele>
        <time>2021-08-31T12:53:40Z</time>
      </trkpt>
      <trkpt lat="44.41013" lon="5.72681">
        <ele>629</ele>
        <time>2021-08-31T12:53:42Z</time>
      </trkpt>
      <trkpt lat="44.41006" lon="5.72688">
        <ele>628.79998779297</ele>
        <time>2021-08-31T12:53:43Z</time>
      </trkpt>
      <trkpt lat="44.40981" lon="5.72697">
        <ele>628</ele>
        <time>2021-08-31T12:53:46Z</time>
      </trkpt>
      <trkpt lat="44.40973" lon="5.72699">
        <ele>627.79998779297</ele>
        <time>2021-08-31T12:53:47Z</time>
      </trkpt>
      <trkpt lat="44.4095" lon="5.72712">
        <ele>627.40002441406</ele>
        <time>2021-08-31T12:53:50Z</time>
      </trkpt>
      <trkpt lat="44.40911" lon="5.72738">
        <ele>626.59997558594</ele>
        <time>2021-08-31T12:53:55Z</time>
      </trkpt>
      <trkpt lat="44.40888" lon="5.72754">
        <ele>626.20001220703</ele>
        <time>2021-08-31T12:53:58Z</time>
      </trkpt>
      <trkpt lat="44.40858" lon="5.72776">
        <ele>625.59997558594</ele>
        <time>2021-08-31T12:54:02Z</time>
      </trkpt>
      <trkpt lat="44.40837" lon="5.72791">
        <ele>625.20001220703</ele>
        <time>2021-08-31T12:54:05Z</time>
      </trkpt>
      <trkpt lat="44.40786" lon="5.72829">
        <ele>625.20001220703</ele>
        <time>2021-08-31T12:54:13Z</time>
      </trkpt>
      <trkpt lat="44.40736" lon="5.72865">
        <ele>625.79998779297</ele>
        <time>2021-08-31T12:54:22Z</time>
      </trkpt>
      <trkpt lat="44.4069" lon="5.72899">
        <ele>626.20001220703</ele>
        <time>2021-08-31T12:54:30Z</time>
      </trkpt>
      <trkpt lat="44.40638" lon="5.72938">
        <ele>624.59997558594</ele>
        <time>2021-08-31T12:54:38Z</time>
      </trkpt>
      <trkpt lat="44.40631" lon="5.72943">
        <ele>624.40002441406</ele>
        <time>2021-08-31T12:54:39Z</time>
      </trkpt>
      <trkpt lat="44.40593" lon="5.72971">
        <ele>623.20001220703</ele>
        <time>2021-08-31T12:54:44Z</time>
      </trkpt>
      <trkpt lat="44.40577" lon="5.72983">
        <ele>622.59997558594</ele>
        <time>2021-08-31T12:54:46Z</time>
      </trkpt>
      <trkpt lat="44.40562" lon="5.72994">
        <ele>622</ele>
        <time>2021-08-31T12:54:48Z</time>
      </trkpt>
      <trkpt lat="44.40533" lon="5.73019">
        <ele>620.79998779297</ele>
        <time>2021-08-31T12:54:52Z</time>
      </trkpt>
      <trkpt lat="44.40526" lon="5.73024">
        <ele>620.59997558594</ele>
        <time>2021-08-31T12:54:53Z</time>
      </trkpt>
      <trkpt lat="44.40486" lon="5.73055">
        <ele>621</ele>
        <time>2021-08-31T12:54:59Z</time>
      </trkpt>
      <trkpt lat="44.40465" lon="5.73078">
        <ele>621.79998779297</ele>
        <time>2021-08-31T12:55:03Z</time>
      </trkpt>
      <trkpt lat="44.40461" lon="5.73101">
        <ele>622.20001220703</ele>
        <time>2021-08-31T12:55:06Z</time>
      </trkpt>
      <trkpt lat="44.40465" lon="5.73122">
        <ele>622.40002441406</ele>
        <time>2021-08-31T12:55:09Z</time>
      </trkpt>
      <trkpt lat="44.40468" lon="5.73135">
        <ele>622.59997558594</ele>
        <time>2021-08-31T12:55:11Z</time>
      </trkpt>
      <trkpt lat="44.40471" lon="5.73148">
        <ele>622.79998779297</ele>
        <time>2021-08-31T12:55:13Z</time>
      </trkpt>
      <trkpt lat="44.40485" lon="5.73199">
        <ele>623.79998779297</ele>
        <time>2021-08-31T12:55:21Z</time>
      </trkpt>
      <trkpt lat="44.40494" lon="5.73236">
        <ele>623.79998779297</ele>
        <time>2021-08-31T12:55:27Z</time>
      </trkpt>
      <trkpt lat="44.40496" lon="5.73242">
        <ele>624</ele>
        <time>2021-08-31T12:55:28Z</time>
      </trkpt>
      <trkpt lat="44.40499" lon="5.73254">
        <ele>624.20001220703</ele>
        <time>2021-08-31T12:55:30Z</time>
      </trkpt>
      <trkpt lat="44.40513" lon="5.73308">
        <ele>624.59997558594</ele>
        <time>2021-08-31T12:55:39Z</time>
      </trkpt>
      <trkpt lat="44.40519" lon="5.73331">
        <ele>624.79998779297</ele>
        <time>2021-08-31T12:55:43Z</time>
      </trkpt>
      <trkpt lat="44.40529" lon="5.73371">
        <ele>625.59997558594</ele>
        <time>2021-08-31T12:55:50Z</time>
      </trkpt>
      <trkpt lat="44.40534" lon="5.73388">
        <ele>625.79998779297</ele>
        <time>2021-08-31T12:55:53Z</time>
      </trkpt>
      <trkpt lat="44.40542" lon="5.73422">
        <ele>626.40002441406</ele>
        <time>2021-08-31T12:55:59Z</time>
      </trkpt>
      <trkpt lat="44.40553" lon="5.73459">
        <ele>627</ele>
        <time>2021-08-31T12:56:06Z</time>
      </trkpt>
      <trkpt lat="44.40554" lon="5.73465">
        <ele>627.20001220703</ele>
        <time>2021-08-31T12:56:07Z</time>
      </trkpt>
      <trkpt lat="44.40563" lon="5.73499">
        <ele>627.79998779297</ele>
        <time>2021-08-31T12:56:14Z</time>
      </trkpt>
      <trkpt lat="44.40566" lon="5.73514">
        <ele>628</ele>
        <time>2021-08-31T12:56:17Z</time>
      </trkpt>
      <trkpt lat="44.40569" lon="5.7354">
        <ele>628.59997558594</ele>
        <time>2021-08-31T12:56:22Z</time>
      </trkpt>
      <trkpt lat="44.40565" lon="5.7358">
        <ele>629.20001220703</ele>
        <time>2021-08-31T12:56:30Z</time>
      </trkpt>
      <trkpt lat="44.40559" lon="5.73616">
        <ele>629.79998779297</ele>
        <time>2021-08-31T12:56:37Z</time>
      </trkpt>
      <trkpt lat="44.40554" lon="5.73643">
        <ele>630.20001220703</ele>
        <time>2021-08-31T12:56:42Z</time>
      </trkpt>
      <trkpt lat="44.40549" lon="5.73663">
        <ele>630.20001220703</ele>
        <time>2021-08-31T12:56:46Z</time>
      </trkpt>
      <trkpt lat="44.40539" lon="5.73708">
        <ele>630.40002441406</ele>
        <time>2021-08-31T12:56:54Z</time>
      </trkpt>
      <trkpt lat="44.40536" lon="5.73748">
        <ele>630.79998779297</ele>
        <time>2021-08-31T12:57:01Z</time>
      </trkpt>
      <trkpt lat="44.40533" lon="5.73812">
        <ele>631.20001220703</ele>
        <time>2021-08-31T12:57:12Z</time>
      </trkpt>
      <trkpt lat="44.40532" lon="5.73852">
        <ele>632.20001220703</ele>
        <time>2021-08-31T12:57:19Z</time>
      </trkpt>
      <trkpt lat="44.40532" lon="5.73857">
        <ele>632.20001220703</ele>
        <time>2021-08-31T12:57:20Z</time>
      </trkpt>
      <trkpt lat="44.40532" lon="5.73863">
        <ele>632.20001220703</ele>
        <time>2021-08-31T12:57:21Z</time>
      </trkpt>
      <trkpt lat="44.40532" lon="5.73875">
        <ele>632</ele>
        <time>2021-08-31T12:57:23Z</time>
      </trkpt>
      <trkpt lat="44.40529" lon="5.73906">
        <ele>632</ele>
        <time>2021-08-31T12:57:28Z</time>
      </trkpt>
      <trkpt lat="44.40531" lon="5.73951">
        <ele>632.20001220703</ele>
        <time>2021-08-31T12:57:35Z</time>
      </trkpt>
      <trkpt lat="44.40536" lon="5.74003">
        <ele>632.59997558594</ele>
        <time>2021-08-31T12:57:43Z</time>
      </trkpt>
      <trkpt lat="44.4054" lon="5.74051">
        <ele>633.20001220703</ele>
        <time>2021-08-31T12:57:51Z</time>
      </trkpt>
      <trkpt lat="44.4054" lon="5.74056">
        <ele>633.40002441406</ele>
        <time>2021-08-31T12:57:52Z</time>
      </trkpt>
      <trkpt lat="44.40546" lon="5.74108">
        <ele>634</ele>
        <time>2021-08-31T12:58:01Z</time>
      </trkpt>
      <trkpt lat="44.40547" lon="5.74124">
        <ele>634.40002441406</ele>
        <time>2021-08-31T12:58:04Z</time>
      </trkpt>
      <trkpt lat="44.40549" lon="5.7415">
        <ele>634.79998779297</ele>
        <time>2021-08-31T12:58:09Z</time>
      </trkpt>
      <trkpt lat="44.40551" lon="5.7418">
        <ele>635.40002441406</ele>
        <time>2021-08-31T12:58:15Z</time>
      </trkpt>
      <trkpt lat="44.40553" lon="5.74195">
        <ele>635.79998779297</ele>
        <time>2021-08-31T12:58:18Z</time>
      </trkpt>
      <trkpt lat="44.40557" lon="5.74243">
        <ele>636.40002441406</ele>
        <time>2021-08-31T12:58:28Z</time>
      </trkpt>
      <trkpt lat="44.40556" lon="5.74274">
        <ele>637.20001220703</ele>
        <time>2021-08-31T12:58:35Z</time>
      </trkpt>
      <trkpt lat="44.40555" lon="5.74287">
        <ele>637.59997558594</ele>
        <time>2021-08-31T12:58:38Z</time>
      </trkpt>
      <trkpt lat="44.40553" lon="5.74307">
        <ele>638.20001220703</ele>
        <time>2021-08-31T12:58:43Z</time>
      </trkpt>
      <trkpt lat="44.40551" lon="5.74316">
        <ele>638.59997558594</ele>
        <time>2021-08-31T12:58:45Z</time>
      </trkpt>
      <trkpt lat="44.40545" lon="5.74346">
        <ele>639.20001220703</ele>
        <time>2021-08-31T12:58:52Z</time>
      </trkpt>
      <trkpt lat="44.40541" lon="5.74364">
        <ele>639.59997558594</ele>
        <time>2021-08-31T12:58:56Z</time>
      </trkpt>
      <trkpt lat="44.40537" lon="5.74382">
        <ele>640</ele>
        <time>2021-08-31T12:59:00Z</time>
      </trkpt>
      <trkpt lat="44.40527" lon="5.74415">
        <ele>640.40002441406</ele>
        <time>2021-08-31T12:59:07Z</time>
      </trkpt>
      <trkpt lat="44.40523" lon="5.74425">
        <ele>640.59997558594</ele>
        <time>2021-08-31T12:59:09Z</time>
      </trkpt>
      <trkpt lat="44.40519" lon="5.74451">
        <ele>640.59997558594</ele>
        <time>2021-08-31T12:59:13Z</time>
      </trkpt>
      <trkpt lat="44.40518" lon="5.74498">
        <ele>640.40002441406</ele>
        <time>2021-08-31T12:59:19Z</time>
      </trkpt>
      <trkpt lat="44.4052" lon="5.74541">
        <ele>639.59997558594</ele>
        <time>2021-08-31T12:59:24Z</time>
      </trkpt>
      <trkpt lat="44.40522" lon="5.74558">
        <ele>639.20001220703</ele>
        <time>2021-08-31T12:59:26Z</time>
      </trkpt>
      <trkpt lat="44.40522" lon="5.74594">
        <ele>638.59997558594</ele>
        <time>2021-08-31T12:59:30Z</time>
      </trkpt>
      <trkpt lat="44.40523" lon="5.74623">
        <ele>637.79998779297</ele>
        <time>2021-08-31T12:59:33Z</time>
      </trkpt>
      <trkpt lat="44.40524" lon="5.74642">
        <ele>637.40002441406</ele>
        <time>2021-08-31T12:59:35Z</time>
      </trkpt>
      <trkpt lat="44.40525" lon="5.74693">
        <ele>636.20001220703</ele>
        <time>2021-08-31T12:59:40Z</time>
      </trkpt>
      <trkpt lat="44.40526" lon="5.74712">
        <ele>635.79998779297</ele>
        <time>2021-08-31T12:59:42Z</time>
      </trkpt>
      <trkpt lat="44.40529" lon="5.74762">
        <ele>635.59997558594</ele>
        <time>2021-08-31T12:59:48Z</time>
      </trkpt>
      <trkpt lat="44.40532" lon="5.74818">
        <ele>636.40002441406</ele>
        <time>2021-08-31T12:59:56Z</time>
      </trkpt>
      <trkpt lat="44.40538" lon="5.74881">
        <ele>636.79998779297</ele>
        <time>2021-08-31T13:00:05Z</time>
      </trkpt>
      <trkpt lat="44.40541" lon="5.74936">
        <ele>636.59997558594</ele>
        <time>2021-08-31T13:00:12Z</time>
      </trkpt>
      <trkpt lat="44.4055" lon="5.75009">
        <ele>635.79998779297</ele>
        <time>2021-08-31T13:00:20Z</time>
      </trkpt>
      <trkpt lat="44.40556" lon="5.75026">
        <ele>635.59997558594</ele>
        <time>2021-08-31T13:00:22Z</time>
      </trkpt>
      <trkpt lat="44.40566" lon="5.75051">
        <ele>635.20001220703</ele>
        <time>2021-08-31T13:00:25Z</time>
      </trkpt>
      <trkpt lat="44.40569" lon="5.7506">
        <ele>635</ele>
        <time>2021-08-31T13:00:26Z</time>
      </trkpt>
      <trkpt lat="44.40594" lon="5.75125">
        <ele>634.59997558594</ele>
        <time>2021-08-31T13:00:34Z</time>
      </trkpt>
      <trkpt lat="44.40618" lon="5.75186">
        <ele>634.20001220703</ele>
        <time>2021-08-31T13:00:42Z</time>
      </trkpt>
      <trkpt lat="44.40624" lon="5.752">
        <ele>634</ele>
        <time>2021-08-31T13:00:44Z</time>
      </trkpt>
      <trkpt lat="44.4064" lon="5.75243">
        <ele>633.79998779297</ele>
        <time>2021-08-31T13:00:50Z</time>
      </trkpt>
      <trkpt lat="44.40663" lon="5.75297">
        <ele>633.79998779297</ele>
        <time>2021-08-31T13:00:58Z</time>
      </trkpt>
      <trkpt lat="44.40666" lon="5.75302">
        <ele>633.79998779297</ele>
        <time>2021-08-31T13:00:59Z</time>
      </trkpt>
      <trkpt lat="44.40682" lon="5.75323">
        <ele>633.79998779297</ele>
        <time>2021-08-31T13:01:03Z</time>
      </trkpt>
      <trkpt lat="44.40714" lon="5.75354">
        <ele>633.59997558594</ele>
        <time>2021-08-31T13:01:10Z</time>
      </trkpt>
      <trkpt lat="44.40738" lon="5.75376">
        <ele>633</ele>
        <time>2021-08-31T13:01:15Z</time>
      </trkpt>
      <trkpt lat="44.40748" lon="5.75385">
        <ele>632.79998779297</ele>
        <time>2021-08-31T13:01:17Z</time>
      </trkpt>
      <trkpt lat="44.40786" lon="5.75424">
        <ele>632</ele>
        <time>2021-08-31T13:01:25Z</time>
      </trkpt>
      <trkpt lat="44.40795" lon="5.75434">
        <ele>632</ele>
        <time>2021-08-31T13:01:27Z</time>
      </trkpt>
      <trkpt lat="44.40814" lon="5.75459">
        <ele>631.79998779297</ele>
        <time>2021-08-31T13:01:32Z</time>
      </trkpt>
      <trkpt lat="44.40834" lon="5.75493">
        <ele>632.20001220703</ele>
        <time>2021-08-31T13:01:39Z</time>
      </trkpt>
      <trkpt lat="44.40849" lon="5.7552">
        <ele>633</ele>
        <time>2021-08-31T13:01:46Z</time>
      </trkpt>
      <trkpt lat="44.40861" lon="5.75551">
        <ele>633.79998779297</ele>
        <time>2021-08-31T13:01:54Z</time>
      </trkpt>
      <trkpt lat="44.40862" lon="5.75554">
        <ele>634</ele>
        <time>2021-08-31T13:01:55Z</time>
      </trkpt>
      <trkpt lat="44.40874" lon="5.75579">
        <ele>635</ele>
        <time>2021-08-31T13:02:02Z</time>
      </trkpt>
      <trkpt lat="44.40878" lon="5.75586">
        <ele>635</ele>
        <time>2021-08-31T13:02:04Z</time>
      </trkpt>
      <trkpt lat="44.40891" lon="5.75605">
        <ele>635.79998779297</ele>
        <time>2021-08-31T13:02:10Z</time>
      </trkpt>
      <trkpt lat="44.40898" lon="5.75613">
        <ele>636.20001220703</ele>
        <time>2021-08-31T13:02:13Z</time>
      </trkpt>
      <trkpt lat="44.40906" lon="5.75623">
        <ele>636.79998779297</ele>
        <time>2021-08-31T13:02:17Z</time>
      </trkpt>
      <trkpt lat="44.4091" lon="5.75629">
        <ele>637.20001220703</ele>
        <time>2021-08-31T13:02:19Z</time>
      </trkpt>
      <trkpt lat="44.40932" lon="5.75651">
        <ele>638</ele>
        <time>2021-08-31T13:02:28Z</time>
      </trkpt>
      <trkpt lat="44.40934" lon="5.75653">
        <ele>638.20001220703</ele>
        <time>2021-08-31T13:02:29Z</time>
      </trkpt>
      <trkpt lat="44.40957" lon="5.75683">
        <ele>639</ele>
        <time>2021-08-31T13:02:39Z</time>
      </trkpt>
      <trkpt lat="44.40961" lon="5.7569">
        <ele>639.20001220703</ele>
        <time>2021-08-31T13:02:41Z</time>
      </trkpt>
      <trkpt lat="44.40975" lon="5.75712">
        <ele>640</ele>
        <time>2021-08-31T13:02:48Z</time>
      </trkpt>
      <trkpt lat="44.40977" lon="5.75715">
        <ele>640.20001220703</ele>
        <time>2021-08-31T13:02:49Z</time>
      </trkpt>
      <trkpt lat="44.40979" lon="5.75718">
        <ele>640.20001220703</ele>
        <time>2021-08-31T13:02:50Z</time>
      </trkpt>
      <trkpt lat="44.4099" lon="5.75738">
        <ele>641.20001220703</ele>
        <time>2021-08-31T13:02:56Z</time>
      </trkpt>
      <trkpt lat="44.40994" lon="5.75745">
        <ele>641.59997558594</ele>
        <time>2021-08-31T13:02:58Z</time>
      </trkpt>
      <trkpt lat="44.41007" lon="5.75763">
        <ele>642.40002441406</ele>
        <time>2021-08-31T13:03:04Z</time>
      </trkpt>
      <trkpt lat="44.41011" lon="5.75769">
        <ele>642.59997558594</ele>
        <time>2021-08-31T13:03:06Z</time>
      </trkpt>
      <trkpt lat="44.41027" lon="5.75799">
        <ele>643.40002441406</ele>
        <time>2021-08-31T13:03:14Z</time>
      </trkpt>
      <trkpt lat="44.41029" lon="5.75802">
        <ele>643.40002441406</ele>
        <time>2021-08-31T13:03:15Z</time>
      </trkpt>
      <trkpt lat="44.41049" lon="5.75832">
        <ele>644.40002441406</ele>
        <time>2021-08-31T13:03:24Z</time>
      </trkpt>
      <trkpt lat="44.41073" lon="5.75861">
        <ele>645</ele>
        <time>2021-08-31T13:03:33Z</time>
      </trkpt>
      <trkpt lat="44.41096" lon="5.75888">
        <ele>645.59997558594</ele>
        <time>2021-08-31T13:03:42Z</time>
      </trkpt>
      <trkpt lat="44.41098" lon="5.75892">
        <ele>645.59997558594</ele>
        <time>2021-08-31T13:03:43Z</time>
      </trkpt>
      <trkpt lat="44.41131" lon="5.7593">
        <ele>646</ele>
        <time>2021-08-31T13:03:55Z</time>
      </trkpt>
      <trkpt lat="44.41149" lon="5.75954">
        <ele>646.40002441406</ele>
        <time>2021-08-31T13:04:02Z</time>
      </trkpt>
      <trkpt lat="44.41152" lon="5.75957">
        <ele>646.40002441406</ele>
        <time>2021-08-31T13:04:03Z</time>
      </trkpt>
      <trkpt lat="44.41163" lon="5.75968">
        <ele>646.59997558594</ele>
        <time>2021-08-31T13:04:07Z</time>
      </trkpt>
      <trkpt lat="44.41175" lon="5.75979">
        <ele>647</ele>
        <time>2021-08-31T13:04:11Z</time>
      </trkpt>
      <trkpt lat="44.41198" lon="5.75989">
        <ele>647.40002441406</ele>
        <time>2021-08-31T13:04:18Z</time>
      </trkpt>
      <trkpt lat="44.41201" lon="5.75991">
        <ele>647.59997558594</ele>
        <time>2021-08-31T13:04:19Z</time>
      </trkpt>
      <trkpt lat="44.41228" lon="5.76">
        <ele>648.40002441406</ele>
        <time>2021-08-31T13:04:27Z</time>
      </trkpt>
      <trkpt lat="44.41249" lon="5.76011">
        <ele>648.59997558594</ele>
        <time>2021-08-31T13:04:33Z</time>
      </trkpt>
      <trkpt lat="44.41258" lon="5.76018">
        <ele>648.79998779297</ele>
        <time>2021-08-31T13:04:36Z</time>
      </trkpt>
      <trkpt lat="44.41277" lon="5.76041">
        <ele>649.20001220703</ele>
        <time>2021-08-31T13:04:43Z</time>
      </trkpt>
      <trkpt lat="44.41295" lon="5.76062">
        <ele>649.59997558594</ele>
        <time>2021-08-31T13:04:50Z</time>
      </trkpt>
      <trkpt lat="44.41298" lon="5.76064">
        <ele>649.79998779297</ele>
        <time>2021-08-31T13:04:51Z</time>
      </trkpt>
      <trkpt lat="44.41317" lon="5.7607">
        <ele>650.59997558594</ele>
        <time>2021-08-31T13:04:57Z</time>
      </trkpt>
      <trkpt lat="44.41338" lon="5.76062">
        <ele>650.79998779297</ele>
        <time>2021-08-31T13:05:03Z</time>
      </trkpt>
      <trkpt lat="44.41362" lon="5.76054">
        <ele>651</ele>
        <time>2021-08-31T13:05:10Z</time>
      </trkpt>
      <trkpt lat="44.41385" lon="5.7606">
        <ele>651.20001220703</ele>
        <time>2021-08-31T13:05:17Z</time>
      </trkpt>
      <trkpt lat="44.41396" lon="5.7607">
        <ele>651.79998779297</ele>
        <time>2021-08-31T13:05:21Z</time>
      </trkpt>
      <trkpt lat="44.41403" lon="5.7608">
        <ele>652.20001220703</ele>
        <time>2021-08-31T13:05:24Z</time>
      </trkpt>
      <trkpt lat="44.41411" lon="5.76105">
        <ele>652.40002441406</ele>
        <time>2021-08-31T13:05:30Z</time>
      </trkpt>
      <trkpt lat="44.41421" lon="5.76133">
        <ele>652.79998779297</ele>
        <time>2021-08-31T13:05:37Z</time>
      </trkpt>
      <trkpt lat="44.41423" lon="5.76136">
        <ele>653</ele>
        <time>2021-08-31T13:05:38Z</time>
      </trkpt>
      <trkpt lat="44.41429" lon="5.76147">
        <ele>653.20001220703</ele>
        <time>2021-08-31T13:05:42Z</time>
      </trkpt>
      <trkpt lat="44.41434" lon="5.76155">
        <ele>653.20001220703</ele>
        <time>2021-08-31T13:05:45Z</time>
      </trkpt>
      <trkpt lat="44.41447" lon="5.76166">
        <ele>654</ele>
        <time>2021-08-31T13:05:51Z</time>
      </trkpt>
      <trkpt lat="44.41451" lon="5.7617">
        <ele>654.40002441406</ele>
        <time>2021-08-31T13:05:53Z</time>
      </trkpt>
      <trkpt lat="44.41463" lon="5.76182">
        <ele>655.20001220703</ele>
        <time>2021-08-31T13:05:59Z</time>
      </trkpt>
      <trkpt lat="44.41465" lon="5.76184">
        <ele>655.20001220703</ele>
        <time>2021-08-31T13:06:00Z</time>
      </trkpt>
      <trkpt lat="44.41481" lon="5.76199">
        <ele>656.40002441406</ele>
        <time>2021-08-31T13:06:08Z</time>
      </trkpt>
      <trkpt lat="44.41494" lon="5.76212">
        <ele>657.20001220703</ele>
        <time>2021-08-31T13:06:15Z</time>
      </trkpt>
      <trkpt lat="44.415" lon="5.76218">
        <ele>657.59997558594</ele>
        <time>2021-08-31T13:06:18Z</time>
      </trkpt>
      <trkpt lat="44.41512" lon="5.76229">
        <ele>658.59997558594</ele>
        <time>2021-08-31T13:06:24Z</time>
      </trkpt>
      <trkpt lat="44.41526" lon="5.76252">
        <ele>659.40002441406</ele>
        <time>2021-08-31T13:06:33Z</time>
      </trkpt>
      <trkpt lat="44.41528" lon="5.76257">
        <ele>659.59997558594</ele>
        <time>2021-08-31T13:06:35Z</time>
      </trkpt>
      <trkpt lat="44.41531" lon="5.76272">
        <ele>660.20001220703</ele>
        <time>2021-08-31T13:06:40Z</time>
      </trkpt>
      <trkpt lat="44.41533" lon="5.76283">
        <ele>660.79998779297</ele>
        <time>2021-08-31T13:06:44Z</time>
      </trkpt>
      <trkpt lat="44.41533" lon="5.76292">
        <ele>661.20001220703</ele>
        <time>2021-08-31T13:06:47Z</time>
      </trkpt>
      <trkpt lat="44.41534" lon="5.7631">
        <ele>662</ele>
        <time>2021-08-31T13:06:53Z</time>
      </trkpt>
      <trkpt lat="44.41534" lon="5.76316">
        <ele>662.20001220703</ele>
        <time>2021-08-31T13:06:55Z</time>
      </trkpt>
      <trkpt lat="44.41533" lon="5.76336">
        <ele>663</ele>
        <time>2021-08-31T13:07:02Z</time>
      </trkpt>
      <trkpt lat="44.41534" lon="5.76338">
        <ele>663</ele>
        <time>2021-08-31T13:07:03Z</time>
      </trkpt>
      <trkpt lat="44.41535" lon="5.76359">
        <ele>664</ele>
        <time>2021-08-31T13:07:10Z</time>
      </trkpt>
      <trkpt lat="44.41536" lon="5.76369">
        <ele>664.40002441406</ele>
        <time>2021-08-31T13:07:13Z</time>
      </trkpt>
      <trkpt lat="44.41537" lon="5.76384">
        <ele>665</ele>
        <time>2021-08-31T13:07:18Z</time>
      </trkpt>
      <trkpt lat="44.41537" lon="5.76395">
        <ele>665.59997558594</ele>
        <time>2021-08-31T13:07:22Z</time>
      </trkpt>
      <trkpt lat="44.41538" lon="5.76401">
        <ele>666</ele>
        <time>2021-08-31T13:07:24Z</time>
      </trkpt>
      <trkpt lat="44.41539" lon="5.7642">
        <ele>667</ele>
        <time>2021-08-31T13:07:30Z</time>
      </trkpt>
      <trkpt lat="44.41539" lon="5.76423">
        <ele>667</ele>
        <time>2021-08-31T13:07:31Z</time>
      </trkpt>
      <trkpt lat="44.4154" lon="5.76444">
        <ele>667.79998779297</ele>
        <time>2021-08-31T13:07:38Z</time>
      </trkpt>
      <trkpt lat="44.4154" lon="5.76447">
        <ele>668</ele>
        <time>2021-08-31T13:07:39Z</time>
      </trkpt>
      <trkpt lat="44.41541" lon="5.76462">
        <ele>669</ele>
        <time>2021-08-31T13:07:44Z</time>
      </trkpt>
      <trkpt lat="44.41541" lon="5.76465">
        <ele>669.20001220703</ele>
        <time>2021-08-31T13:07:45Z</time>
      </trkpt>
      <trkpt lat="44.41545" lon="5.7649">
        <ele>670.20001220703</ele>
        <time>2021-08-31T13:07:53Z</time>
      </trkpt>
      <trkpt lat="44.41546" lon="5.76493">
        <ele>670.20001220703</ele>
        <time>2021-08-31T13:07:54Z</time>
      </trkpt>
      <trkpt lat="44.41554" lon="5.76517">
        <ele>671</ele>
        <time>2021-08-31T13:08:02Z</time>
      </trkpt>
      <trkpt lat="44.41556" lon="5.76523">
        <ele>671.20001220703</ele>
        <time>2021-08-31T13:08:04Z</time>
      </trkpt>
      <trkpt lat="44.41565" lon="5.76546">
        <ele>672</ele>
        <time>2021-08-31T13:08:11Z</time>
      </trkpt>
      <trkpt lat="44.41581" lon="5.76577">
        <ele>672.20001220703</ele>
        <time>2021-08-31T13:08:19Z</time>
      </trkpt>
      <trkpt lat="44.41604" lon="5.76626">
        <ele>672.40002441406</ele>
        <time>2021-08-31T13:08:30Z</time>
      </trkpt>
      <trkpt lat="44.41623" lon="5.76669">
        <ele>672.59997558594</ele>
        <time>2021-08-31T13:08:39Z</time>
      </trkpt>
      <trkpt lat="44.41641" lon="5.76709">
        <ele>671.40002441406</ele>
        <time>2021-08-31T13:08:46Z</time>
      </trkpt>
      <trkpt lat="44.41648" lon="5.76719">
        <ele>671</ele>
        <time>2021-08-31T13:08:48Z</time>
      </trkpt>
      <trkpt lat="44.41668" lon="5.7675">
        <ele>670.20001220703</ele>
        <time>2021-08-31T13:08:54Z</time>
      </trkpt>
      <trkpt lat="44.41691" lon="5.76776">
        <ele>670</ele>
        <time>2021-08-31T13:09:00Z</time>
      </trkpt>
      <trkpt lat="44.41707" lon="5.76793">
        <ele>668.59997558594</ele>
        <time>2021-08-31T13:09:04Z</time>
      </trkpt>
      <trkpt lat="44.41724" lon="5.76816">
        <ele>667.79998779297</ele>
        <time>2021-08-31T13:09:09Z</time>
      </trkpt>
      <trkpt lat="44.41739" lon="5.76843">
        <ele>668</ele>
        <time>2021-08-31T13:09:15Z</time>
      </trkpt>
      <trkpt lat="44.41748" lon="5.76871">
        <ele>669</ele>
        <time>2021-08-31T13:09:22Z</time>
      </trkpt>
      <trkpt lat="44.41755" lon="5.7689">
        <ele>669.79998779297</ele>
        <time>2021-08-31T13:09:27Z</time>
      </trkpt>
      <trkpt lat="44.4176" lon="5.76902">
        <ele>670.59997558594</ele>
        <time>2021-08-31T13:09:30Z</time>
      </trkpt>
      <trkpt lat="44.41761" lon="5.76906">
        <ele>670.79998779297</ele>
        <time>2021-08-31T13:09:31Z</time>
      </trkpt>
      <trkpt lat="44.41773" lon="5.76934">
        <ele>671.59997558594</ele>
        <time>2021-08-31T13:09:38Z</time>
      </trkpt>
      <trkpt lat="44.41783" lon="5.76957">
        <ele>671.79998779297</ele>
        <time>2021-08-31T13:09:44Z</time>
      </trkpt>
      <trkpt lat="44.41793" lon="5.76975">
        <ele>672.40002441406</ele>
        <time>2021-08-31T13:09:49Z</time>
      </trkpt>
      <trkpt lat="44.41809" lon="5.76996">
        <ele>672.59997558594</ele>
        <time>2021-08-31T13:09:55Z</time>
      </trkpt>
      <trkpt lat="44.41818" lon="5.77008">
        <ele>672.40002441406</ele>
        <time>2021-08-31T13:09:58Z</time>
      </trkpt>
      <trkpt lat="44.41826" lon="5.77022">
        <ele>672.20001220703</ele>
        <time>2021-08-31T13:10:01Z</time>
      </trkpt>
      <trkpt lat="44.41837" lon="5.77059">
        <ele>672.40002441406</ele>
        <time>2021-08-31T13:10:08Z</time>
      </trkpt>
      <trkpt lat="44.41848" lon="5.77096">
        <ele>672.40002441406</ele>
        <time>2021-08-31T13:10:15Z</time>
      </trkpt>
      <trkpt lat="44.41853" lon="5.77116">
        <ele>672.40002441406</ele>
        <time>2021-08-31T13:10:19Z</time>
      </trkpt>
      <trkpt lat="44.41857" lon="5.77128">
        <ele>672.40002441406</ele>
        <time>2021-08-31T13:10:21Z</time>
      </trkpt>
      <trkpt lat="44.41864" lon="5.77159">
        <ele>672.59997558594</ele>
        <time>2021-08-31T13:10:26Z</time>
      </trkpt>
      <trkpt lat="44.41867" lon="5.77172">
        <ele>673.20001220703</ele>
        <time>2021-08-31T13:10:28Z</time>
      </trkpt>
      <trkpt lat="44.41869" lon="5.77178">
        <ele>673.40002441406</ele>
        <time>2021-08-31T13:10:29Z</time>
      </trkpt>
      <trkpt lat="44.41881" lon="5.77239">
        <ele>672.20001220703</ele>
        <time>2021-08-31T13:10:38Z</time>
      </trkpt>
      <trkpt lat="44.41882" lon="5.77246">
        <ele>672.20001220703</ele>
        <time>2021-08-31T13:10:39Z</time>
      </trkpt>
      <trkpt lat="44.41884" lon="5.77297">
        <ele>671</ele>
        <time>2021-08-31T13:10:45Z</time>
      </trkpt>
      <trkpt lat="44.41882" lon="5.77357">
        <ele>669.79998779297</ele>
        <time>2021-08-31T13:10:52Z</time>
      </trkpt>
      <trkpt lat="44.41884" lon="5.77406">
        <ele>669.59997558594</ele>
        <time>2021-08-31T13:10:58Z</time>
      </trkpt>
      <trkpt lat="44.41895" lon="5.77448">
        <ele>669.79998779297</ele>
        <time>2021-08-31T13:11:04Z</time>
      </trkpt>
      <trkpt lat="44.41912" lon="5.7749">
        <ele>670.40002441406</ele>
        <time>2021-08-31T13:11:11Z</time>
      </trkpt>
      <trkpt lat="44.41929" lon="5.7754">
        <ele>670.20001220703</ele>
        <time>2021-08-31T13:11:18Z</time>
      </trkpt>
      <trkpt lat="44.41947" lon="5.776">
        <ele>669.20001220703</ele>
        <time>2021-08-31T13:11:25Z</time>
      </trkpt>
      <trkpt lat="44.41953" lon="5.77617">
        <ele>668.79998779297</ele>
        <time>2021-08-31T13:11:27Z</time>
      </trkpt>
      <trkpt lat="44.4197" lon="5.77675">
        <ele>668.20001220703</ele>
        <time>2021-08-31T13:11:34Z</time>
      </trkpt>
      <trkpt lat="44.41984" lon="5.77728">
        <ele>667.79998779297</ele>
        <time>2021-08-31T13:11:41Z</time>
      </trkpt>
      <trkpt lat="44.41987" lon="5.77742">
        <ele>667.79998779297</ele>
        <time>2021-08-31T13:11:43Z</time>
      </trkpt>
      <trkpt lat="44.4199" lon="5.77761">
        <ele>668.59997558594</ele>
        <time>2021-08-31T13:11:46Z</time>
      </trkpt>
      <trkpt lat="44.41993" lon="5.77778">
        <ele>668.79998779297</ele>
        <time>2021-08-31T13:11:49Z</time>
      </trkpt>
      <trkpt lat="44.41997" lon="5.77811">
        <ele>669.40002441406</ele>
        <time>2021-08-31T13:11:55Z</time>
      </trkpt>
      <trkpt lat="44.42001" lon="5.77832">
        <ele>670</ele>
        <time>2021-08-31T13:11:59Z</time>
      </trkpt>
      <trkpt lat="44.42004" lon="5.77851">
        <ele>670.40002441406</ele>
        <time>2021-08-31T13:12:03Z</time>
      </trkpt>
      <trkpt lat="44.42006" lon="5.7787">
        <ele>671</ele>
        <time>2021-08-31T13:12:07Z</time>
      </trkpt>
      <trkpt lat="44.42009" lon="5.77887">
        <ele>671.40002441406</ele>
        <time>2021-08-31T13:12:11Z</time>
      </trkpt>
      <trkpt lat="44.42011" lon="5.77904">
        <ele>672</ele>
        <time>2021-08-31T13:12:15Z</time>
      </trkpt>
      <trkpt lat="44.42014" lon="5.77924">
        <ele>672.59997558594</ele>
        <time>2021-08-31T13:12:20Z</time>
      </trkpt>
      <trkpt lat="44.42015" lon="5.77935">
        <ele>673.20001220703</ele>
        <time>2021-08-31T13:12:23Z</time>
      </trkpt>
      <trkpt lat="44.42018" lon="5.7796">
        <ele>674.20001220703</ele>
        <time>2021-08-31T13:12:29Z</time>
      </trkpt>
      <trkpt lat="44.42018" lon="5.7799">
        <ele>675</ele>
        <time>2021-08-31T13:12:36Z</time>
      </trkpt>
      <trkpt lat="44.42018" lon="5.78003">
        <ele>675.20001220703</ele>
        <time>2021-08-31T13:12:39Z</time>
      </trkpt>
      <trkpt lat="44.42017" lon="5.78031">
        <ele>675.79998779297</ele>
        <time>2021-08-31T13:12:45Z</time>
      </trkpt>
      <trkpt lat="44.42015" lon="5.78055">
        <ele>676.40002441406</ele>
        <time>2021-08-31T13:12:50Z</time>
      </trkpt>
      <trkpt lat="44.42014" lon="5.7807">
        <ele>676.59997558594</ele>
        <time>2021-08-31T13:12:53Z</time>
      </trkpt>
      <trkpt lat="44.42011" lon="5.78117">
        <ele>677</ele>
        <time>2021-08-31T13:13:02Z</time>
      </trkpt>
      <trkpt lat="44.42009" lon="5.78132">
        <ele>677.40002441406</ele>
        <time>2021-08-31T13:13:05Z</time>
      </trkpt>
      <trkpt lat="44.42007" lon="5.78157">
        <ele>677.59997558594</ele>
        <time>2021-08-31T13:13:10Z</time>
      </trkpt>
      <trkpt lat="44.42005" lon="5.78195">
        <ele>678.40002441406</ele>
        <time>2021-08-31T13:13:18Z</time>
      </trkpt>
      <trkpt lat="44.42005" lon="5.782">
        <ele>678.40002441406</ele>
        <time>2021-08-31T13:13:19Z</time>
      </trkpt>
      <trkpt lat="44.42007" lon="5.78241">
        <ele>679.20001220703</ele>
        <time>2021-08-31T13:13:27Z</time>
      </trkpt>
      <trkpt lat="44.42009" lon="5.78256">
        <ele>679.59997558594</ele>
        <time>2021-08-31T13:13:30Z</time>
      </trkpt>
      <trkpt lat="44.42011" lon="5.7828">
        <ele>679.79998779297</ele>
        <time>2021-08-31T13:13:35Z</time>
      </trkpt>
      <trkpt lat="44.42016" lon="5.78314">
        <ele>680.59997558594</ele>
        <time>2021-08-31T13:13:43Z</time>
      </trkpt>
      <trkpt lat="44.42018" lon="5.7833">
        <ele>681.59997558594</ele>
        <time>2021-08-31T13:13:48Z</time>
      </trkpt>
      <trkpt lat="44.42018" lon="5.78336">
        <ele>681.79998779297</ele>
        <time>2021-08-31T13:13:50Z</time>
      </trkpt>
      <trkpt lat="44.42021" lon="5.78348">
        <ele>682.59997558594</ele>
        <time>2021-08-31T13:13:55Z</time>
      </trkpt>
      <trkpt lat="44.42022" lon="5.7836">
        <ele>683.20001220703</ele>
        <time>2021-08-31T13:13:59Z</time>
      </trkpt>
      <trkpt lat="44.42023" lon="5.7837">
        <ele>683.79998779297</ele>
        <time>2021-08-31T13:14:03Z</time>
      </trkpt>
      <trkpt lat="44.42024" lon="5.78383">
        <ele>684.40002441406</ele>
        <time>2021-08-31T13:14:08Z</time>
      </trkpt>
      <trkpt lat="44.42024" lon="5.78389">
        <ele>684.79998779297</ele>
        <time>2021-08-31T13:14:10Z</time>
      </trkpt>
      <trkpt lat="44.42027" lon="5.78408">
        <ele>685.79998779297</ele>
        <time>2021-08-31T13:14:18Z</time>
      </trkpt>
      <trkpt lat="44.42027" lon="5.7841">
        <ele>686</ele>
        <time>2021-08-31T13:14:19Z</time>
      </trkpt>
      <trkpt lat="44.42029" lon="5.78423">
        <ele>687</ele>
        <time>2021-08-31T13:14:24Z</time>
      </trkpt>
      <trkpt lat="44.4203" lon="5.7843">
        <ele>687.40002441406</ele>
        <time>2021-08-31T13:14:27Z</time>
      </trkpt>
      <trkpt lat="44.4203" lon="5.78437">
        <ele>688</ele>
        <time>2021-08-31T13:14:30Z</time>
      </trkpt>
      <trkpt lat="44.4203" lon="5.78447">
        <ele>688.79998779297</ele>
        <time>2021-08-31T13:14:34Z</time>
      </trkpt>
      <trkpt lat="44.42031" lon="5.78451">
        <ele>689</ele>
        <time>2021-08-31T13:14:36Z</time>
      </trkpt>
      <trkpt lat="44.42032" lon="5.78466">
        <ele>690</ele>
        <time>2021-08-31T13:14:42Z</time>
      </trkpt>
      <trkpt lat="44.42032" lon="5.78468">
        <ele>690.20001220703</ele>
        <time>2021-08-31T13:14:43Z</time>
      </trkpt>
      <trkpt lat="44.42035" lon="5.78483">
        <ele>690.79998779297</ele>
        <time>2021-08-31T13:14:49Z</time>
      </trkpt>
      <trkpt lat="44.42036" lon="5.7849">
        <ele>691.20001220703</ele>
        <time>2021-08-31T13:14:52Z</time>
      </trkpt>
      <trkpt lat="44.42039" lon="5.78504">
        <ele>692.40002441406</ele>
        <time>2021-08-31T13:14:58Z</time>
      </trkpt>
      <trkpt lat="44.4204" lon="5.78519">
        <ele>693.20001220703</ele>
        <time>2021-08-31T13:15:04Z</time>
      </trkpt>
      <trkpt lat="44.4204" lon="5.78526">
        <ele>693.59997558594</ele>
        <time>2021-08-31T13:15:07Z</time>
      </trkpt>
      <trkpt lat="44.42041" lon="5.78538">
        <ele>694.20001220703</ele>
        <time>2021-08-31T13:15:12Z</time>
      </trkpt>
      <trkpt lat="44.42042" lon="5.78548">
        <ele>694.59997558594</ele>
        <time>2021-08-31T13:15:16Z</time>
      </trkpt>
      <trkpt lat="44.42042" lon="5.7856">
        <ele>695.40002441406</ele>
        <time>2021-08-31T13:15:21Z</time>
      </trkpt>
      <trkpt lat="44.42042" lon="5.78565">
        <ele>695.59997558594</ele>
        <time>2021-08-31T13:15:23Z</time>
      </trkpt>
      <trkpt lat="44.42041" lon="5.7858">
        <ele>696.40002441406</ele>
        <time>2021-08-31T13:15:29Z</time>
      </trkpt>
      <trkpt lat="44.42041" lon="5.78585">
        <ele>696.59997558594</ele>
        <time>2021-08-31T13:15:31Z</time>
      </trkpt>
      <trkpt lat="44.42041" lon="5.78602">
        <ele>697.40002441406</ele>
        <time>2021-08-31T13:15:38Z</time>
      </trkpt>
      <trkpt lat="44.42041" lon="5.78609">
        <ele>697.79998779297</ele>
        <time>2021-08-31T13:15:41Z</time>
      </trkpt>
      <trkpt lat="44.4204" lon="5.78622">
        <ele>699</ele>
        <time>2021-08-31T13:15:46Z</time>
      </trkpt>
      <trkpt lat="44.42039" lon="5.78642">
        <ele>700</ele>
        <time>2021-08-31T13:15:54Z</time>
      </trkpt>
      <trkpt lat="44.42039" lon="5.78644">
        <ele>700</ele>
        <time>2021-08-31T13:15:55Z</time>
      </trkpt>
      <trkpt lat="44.42039" lon="5.7865">
        <ele>700.59997558594</ele>
        <time>2021-08-31T13:16:00Z</time>
      </trkpt>
      <trkpt lat="44.42038" lon="5.78656">
        <ele>700.79998779297</ele>
        <time>2021-08-31T13:16:17Z</time>
      </trkpt>
      <trkpt lat="44.42038" lon="5.78662">
        <ele>700.79998779297</ele>
        <time>2021-08-31T13:16:19Z</time>
      </trkpt>
      <trkpt lat="44.4204" lon="5.78687">
        <ele>700.59997558594</ele>
        <time>2021-08-31T13:16:24Z</time>
      </trkpt>
      <trkpt lat="44.4204" lon="5.78728">
        <ele>700.40002441406</ele>
        <time>2021-08-31T13:16:30Z</time>
      </trkpt>
      <trkpt lat="44.42038" lon="5.78774">
        <ele>699</ele>
        <time>2021-08-31T13:16:36Z</time>
      </trkpt>
      <trkpt lat="44.42038" lon="5.78782">
        <ele>698.79998779297</ele>
        <time>2021-08-31T13:16:37Z</time>
      </trkpt>
      <trkpt lat="44.4203" lon="5.78829">
        <ele>698.20001220703</ele>
        <time>2021-08-31T13:16:44Z</time>
      </trkpt>
      <trkpt lat="44.42028" lon="5.78843">
        <ele>698</ele>
        <time>2021-08-31T13:16:46Z</time>
      </trkpt>
      <trkpt lat="44.4202" lon="5.78886">
        <ele>697.79998779297</ele>
        <time>2021-08-31T13:16:52Z</time>
      </trkpt>
      <trkpt lat="44.42011" lon="5.78939">
        <ele>697.20001220703</ele>
        <time>2021-08-31T13:16:58Z</time>
      </trkpt>
      <trkpt lat="44.4201" lon="5.78959">
        <ele>697</ele>
        <time>2021-08-31T13:17:00Z</time>
      </trkpt>
      <trkpt lat="44.42011" lon="5.7897">
        <ele>696.79998779297</ele>
        <time>2021-08-31T13:17:01Z</time>
      </trkpt>
      <trkpt lat="44.42012" lon="5.78992">
        <ele>696.40002441406</ele>
        <time>2021-08-31T13:17:03Z</time>
      </trkpt>
      <trkpt lat="44.42015" lon="5.79025">
        <ele>695.79998779297</ele>
        <time>2021-08-31T13:17:06Z</time>
      </trkpt>
      <trkpt lat="44.42018" lon="5.79058">
        <ele>695.40002441406</ele>
        <time>2021-08-31T13:17:09Z</time>
      </trkpt>
      <trkpt lat="44.42023" lon="5.79098">
        <ele>694.59997558594</ele>
        <time>2021-08-31T13:17:13Z</time>
      </trkpt>
      <trkpt lat="44.42024" lon="5.79107">
        <ele>694.40002441406</ele>
        <time>2021-08-31T13:17:14Z</time>
      </trkpt>
      <trkpt lat="44.42028" lon="5.79138">
        <ele>694</ele>
        <time>2021-08-31T13:17:18Z</time>
      </trkpt>
      <trkpt lat="44.42029" lon="5.79143">
        <ele>693.59997558594</ele>
        <time>2021-08-31T13:17:19Z</time>
      </trkpt>
      <trkpt lat="44.4203" lon="5.79147">
        <ele>693.40002441406</ele>
        <time>2021-08-31T13:17:20Z</time>
      </trkpt>
      <trkpt lat="44.42033" lon="5.79149">
        <ele>693</ele>
        <time>2021-08-31T13:17:57Z</time>
      </trkpt>
      <trkpt lat="44.42036" lon="5.79155">
        <ele>693</ele>
        <time>2021-08-31T13:18:00Z</time>
      </trkpt>
      <trkpt lat="44.42044" lon="5.79171">
        <ele>693.20001220703</ele>
        <time>2021-08-31T13:18:05Z</time>
      </trkpt>
      <trkpt lat="44.42056" lon="5.79203">
        <ele>693.40002441406</ele>
        <time>2021-08-31T13:18:12Z</time>
      </trkpt>
      <trkpt lat="44.42067" lon="5.79252">
        <ele>693.40002441406</ele>
        <time>2021-08-31T13:18:21Z</time>
      </trkpt>
      <trkpt lat="44.42075" lon="5.79297">
        <ele>694</ele>
        <time>2021-08-31T13:18:30Z</time>
      </trkpt>
      <trkpt lat="44.42082" lon="5.79324">
        <ele>694.20001220703</ele>
        <time>2021-08-31T13:18:36Z</time>
      </trkpt>
      <trkpt lat="44.42091" lon="5.79345">
        <ele>694.40002441406</ele>
        <time>2021-08-31T13:18:41Z</time>
      </trkpt>
      <trkpt lat="44.42096" lon="5.79358">
        <ele>694.59997558594</ele>
        <time>2021-08-31T13:18:44Z</time>
      </trkpt>
      <trkpt lat="44.42116" lon="5.79392">
        <ele>695.40002441406</ele>
        <time>2021-08-31T13:18:53Z</time>
      </trkpt>
      <trkpt lat="44.42142" lon="5.79417">
        <ele>696.20001220703</ele>
        <time>2021-08-31T13:19:01Z</time>
      </trkpt>
      <trkpt lat="44.42171" lon="5.79442">
        <ele>695.79998779297</ele>
        <time>2021-08-31T13:19:09Z</time>
      </trkpt>
      <trkpt lat="44.42196" lon="5.79466">
        <ele>695.59997558594</ele>
        <time>2021-08-31T13:19:17Z</time>
      </trkpt>
      <trkpt lat="44.42209" lon="5.79476">
        <ele>695.40002441406</ele>
        <time>2021-08-31T13:19:22Z</time>
      </trkpt>
      <trkpt lat="44.42221" lon="5.79476">
        <ele>695.59997558594</ele>
        <time>2021-08-31T13:19:26Z</time>
      </trkpt>
      <trkpt lat="44.42232" lon="5.79476">
        <ele>696</ele>
        <time>2021-08-31T13:19:31Z</time>
      </trkpt>
      <trkpt lat="44.4224" lon="5.79476">
        <ele>696.59997558594</ele>
        <time>2021-08-31T13:19:35Z</time>
      </trkpt>
      <trkpt lat="44.42244" lon="5.79476">
        <ele>696.79998779297</ele>
        <time>2021-08-31T13:19:37Z</time>
      </trkpt>
      <trkpt lat="44.42258" lon="5.7947">
        <ele>697.40002441406</ele>
        <time>2021-08-31T13:19:45Z</time>
      </trkpt>
      <trkpt lat="44.42259" lon="5.79471">
        <ele>697.40002441406</ele>
        <time>2021-08-31T13:19:46Z</time>
      </trkpt>
      <trkpt lat="44.42261" lon="5.79472">
        <ele>697.59997558594</ele>
        <time>2021-08-31T13:19:47Z</time>
      </trkpt>
      <trkpt lat="44.42266" lon="5.79471">
        <ele>698.20001220703</ele>
        <time>2021-08-31T13:19:50Z</time>
      </trkpt>
      <trkpt lat="44.42275" lon="5.79472">
        <ele>698.40002441406</ele>
        <time>2021-08-31T13:19:54Z</time>
      </trkpt>
      <trkpt lat="44.4228" lon="5.79473">
        <ele>698.59997558594</ele>
        <time>2021-08-31T13:19:56Z</time>
      </trkpt>
      <trkpt lat="44.42298" lon="5.79472">
        <ele>699.79998779297</ele>
        <time>2021-08-31T13:20:03Z</time>
      </trkpt>
      <trkpt lat="44.423" lon="5.79473">
        <ele>699.79998779297</ele>
        <time>2021-08-31T13:20:04Z</time>
      </trkpt>
      <trkpt lat="44.42317" lon="5.79475">
        <ele>700.79998779297</ele>
        <time>2021-08-31T13:20:11Z</time>
      </trkpt>
      <trkpt lat="44.42334" lon="5.79479">
        <ele>701.79998779297</ele>
        <time>2021-08-31T13:20:18Z</time>
      </trkpt>
      <trkpt lat="44.42353" lon="5.79484">
        <ele>702.79998779297</ele>
        <time>2021-08-31T13:20:26Z</time>
      </trkpt>
      <trkpt lat="44.42356" lon="5.79484">
        <ele>703</ele>
        <time>2021-08-31T13:20:27Z</time>
      </trkpt>
      <trkpt lat="44.4238" lon="5.79491">
        <ele>703.79998779297</ele>
        <time>2021-08-31T13:20:37Z</time>
      </trkpt>
      <trkpt lat="44.42382" lon="5.79492">
        <ele>703.79998779297</ele>
        <time>2021-08-31T13:20:38Z</time>
      </trkpt>
      <trkpt lat="44.42402" lon="5.79499">
        <ele>704.79998779297</ele>
        <time>2021-08-31T13:20:46Z</time>
      </trkpt>
      <trkpt lat="44.42407" lon="5.795">
        <ele>705</ele>
        <time>2021-08-31T13:20:48Z</time>
      </trkpt>
      <trkpt lat="44.4242" lon="5.79505">
        <ele>705.59997558594</ele>
        <time>2021-08-31T13:20:53Z</time>
      </trkpt>
      <trkpt lat="44.4244" lon="5.79516">
        <ele>705.79998779297</ele>
        <time>2021-08-31T13:21:01Z</time>
      </trkpt>
      <trkpt lat="44.42469" lon="5.79533">
        <ele>705.59997558594</ele>
        <time>2021-08-31T13:21:11Z</time>
      </trkpt>
      <trkpt lat="44.42485" lon="5.79542">
        <ele>706</ele>
        <time>2021-08-31T13:21:16Z</time>
      </trkpt>
      <trkpt lat="44.42492" lon="5.79547">
        <ele>706.20001220703</ele>
        <time>2021-08-31T13:21:18Z</time>
      </trkpt>
      <trkpt lat="44.42525" lon="5.79569">
        <ele>706.59997558594</ele>
        <time>2021-08-31T13:21:27Z</time>
      </trkpt>
      <trkpt lat="44.42543" lon="5.79581">
        <ele>707.20001220703</ele>
        <time>2021-08-31T13:21:33Z</time>
      </trkpt>
      <trkpt lat="44.42551" lon="5.79586">
        <ele>707.40002441406</ele>
        <time>2021-08-31T13:21:36Z</time>
      </trkpt>
      <trkpt lat="44.42566" lon="5.79593">
        <ele>708.20001220703</ele>
        <time>2021-08-31T13:21:42Z</time>
      </trkpt>
      <trkpt lat="44.42575" lon="5.79597">
        <ele>708.79998779297</ele>
        <time>2021-08-31T13:21:45Z</time>
      </trkpt>
      <trkpt lat="44.42587" lon="5.79602">
        <ele>709.40002441406</ele>
        <time>2021-08-31T13:21:50Z</time>
      </trkpt>
      <trkpt lat="44.42595" lon="5.79604">
        <ele>709.79998779297</ele>
        <time>2021-08-31T13:21:53Z</time>
      </trkpt>
      <trkpt lat="44.42611" lon="5.79605">
        <ele>710.40002441406</ele>
        <time>2021-08-31T13:21:59Z</time>
      </trkpt>
      <trkpt lat="44.42629" lon="5.79609">
        <ele>711.40002441406</ele>
        <time>2021-08-31T13:22:06Z</time>
      </trkpt>
      <trkpt lat="44.42631" lon="5.79609">
        <ele>711.59997558594</ele>
        <time>2021-08-31T13:22:07Z</time>
      </trkpt>
      <trkpt lat="44.42646" lon="5.79609">
        <ele>712.59997558594</ele>
        <time>2021-08-31T13:22:13Z</time>
      </trkpt>
      <trkpt lat="44.42653" lon="5.79608">
        <ele>713</ele>
        <time>2021-08-31T13:22:16Z</time>
      </trkpt>
      <trkpt lat="44.42675" lon="5.79601">
        <ele>713.59997558594</ele>
        <time>2021-08-31T13:22:25Z</time>
      </trkpt>
      <trkpt lat="44.42691" lon="5.7959">
        <ele>714.20001220703</ele>
        <time>2021-08-31T13:22:32Z</time>
      </trkpt>
      <trkpt lat="44.42702" lon="5.79582">
        <ele>714.59997558594</ele>
        <time>2021-08-31T13:22:37Z</time>
      </trkpt>
      <trkpt lat="44.42708" lon="5.79574">
        <ele>715</ele>
        <time>2021-08-31T13:22:40Z</time>
      </trkpt>
      <trkpt lat="44.4272" lon="5.79546">
        <ele>715.79998779297</ele>
        <time>2021-08-31T13:22:49Z</time>
      </trkpt>
      <trkpt lat="44.42731" lon="5.79515">
        <ele>716.20001220703</ele>
        <time>2021-08-31T13:22:57Z</time>
      </trkpt>
      <trkpt lat="44.42746" lon="5.79498">
        <ele>716.59997558594</ele>
        <time>2021-08-31T13:23:04Z</time>
      </trkpt>
      <trkpt lat="44.42751" lon="5.79496">
        <ele>716.79998779297</ele>
        <time>2021-08-31T13:23:06Z</time>
      </trkpt>
      <trkpt lat="44.42761" lon="5.79494">
        <ele>717.40002441406</ele>
        <time>2021-08-31T13:23:10Z</time>
      </trkpt>
      <trkpt lat="44.42769" lon="5.79494">
        <ele>717.79998779297</ele>
        <time>2021-08-31T13:23:13Z</time>
      </trkpt>
      <trkpt lat="44.42776" lon="5.79494">
        <ele>718.40002441406</ele>
        <time>2021-08-31T13:23:17Z</time>
      </trkpt>
      <trkpt lat="44.4278" lon="5.79494">
        <ele>718.79998779297</ele>
        <time>2021-08-31T13:23:19Z</time>
      </trkpt>
      <trkpt lat="44.4279" lon="5.79495">
        <ele>720</ele>
        <time>2021-08-31T13:23:24Z</time>
      </trkpt>
      <trkpt lat="44.42794" lon="5.79495">
        <ele>720.40002441406</ele>
        <time>2021-08-31T13:23:26Z</time>
      </trkpt>
      <trkpt lat="44.42807" lon="5.795">
        <ele>721.20001220703</ele>
        <time>2021-08-31T13:23:33Z</time>
      </trkpt>
      <trkpt lat="44.42809" lon="5.79499">
        <ele>721.20001220703</ele>
        <time>2021-08-31T13:23:34Z</time>
      </trkpt>
      <trkpt lat="44.42827" lon="5.79493">
        <ele>722.20001220703</ele>
        <time>2021-08-31T13:23:44Z</time>
      </trkpt>
      <trkpt lat="44.42828" lon="5.79492">
        <ele>722.40002441406</ele>
        <time>2021-08-31T13:23:45Z</time>
      </trkpt>
      <trkpt lat="44.42836" lon="5.79481">
        <ele>722.79998779297</ele>
        <time>2021-08-31T13:23:51Z</time>
      </trkpt>
      <trkpt lat="44.42843" lon="5.79475">
        <ele>723.40002441406</ele>
        <time>2021-08-31T13:23:56Z</time>
      </trkpt>
      <trkpt lat="44.42848" lon="5.7947">
        <ele>723.59997558594</ele>
        <time>2021-08-31T13:23:59Z</time>
      </trkpt>
      <trkpt lat="44.42862" lon="5.79463">
        <ele>724.40002441406</ele>
        <time>2021-08-31T13:24:07Z</time>
      </trkpt>
      <trkpt lat="44.42863" lon="5.79462">
        <ele>724.59997558594</ele>
        <time>2021-08-31T13:24:08Z</time>
      </trkpt>
      <trkpt lat="44.42875" lon="5.79459">
        <ele>725.40002441406</ele>
        <time>2021-08-31T13:24:14Z</time>
      </trkpt>
      <trkpt lat="44.42877" lon="5.7946">
        <ele>725.59997558594</ele>
        <time>2021-08-31T13:24:15Z</time>
      </trkpt>
      <trkpt lat="44.42885" lon="5.79464">
        <ele>726.40002441406</ele>
        <time>2021-08-31T13:24:20Z</time>
      </trkpt>
      <trkpt lat="44.42892" lon="5.79468">
        <ele>727</ele>
        <time>2021-08-31T13:24:24Z</time>
      </trkpt>
      <trkpt lat="44.42899" lon="5.79475">
        <ele>727.59997558594</ele>
        <time>2021-08-31T13:24:29Z</time>
      </trkpt>
      <trkpt lat="44.42903" lon="5.79478">
        <ele>727.79998779297</ele>
        <time>2021-08-31T13:24:31Z</time>
      </trkpt>
      <trkpt lat="44.42911" lon="5.79484">
        <ele>728.59997558594</ele>
        <time>2021-08-31T13:24:36Z</time>
      </trkpt>
      <trkpt lat="44.42917" lon="5.79488">
        <ele>729.20001220703</ele>
        <time>2021-08-31T13:24:40Z</time>
      </trkpt>
      <trkpt lat="44.42923" lon="5.79493">
        <ele>729.79998779297</ele>
        <time>2021-08-31T13:24:44Z</time>
      </trkpt>
      <trkpt lat="44.42928" lon="5.79496">
        <ele>730.20001220703</ele>
        <time>2021-08-31T13:24:47Z</time>
      </trkpt>
      <trkpt lat="44.42937" lon="5.79503">
        <ele>730.79998779297</ele>
        <time>2021-08-31T13:24:52Z</time>
      </trkpt>
      <trkpt lat="44.4294" lon="5.79506">
        <ele>731.20001220703</ele>
        <time>2021-08-31T13:24:54Z</time>
      </trkpt>
      <trkpt lat="44.42943" lon="5.79515">
        <ele>732.20001220703</ele>
        <time>2021-08-31T13:24:58Z</time>
      </trkpt>
      <trkpt lat="44.42945" lon="5.79522">
        <ele>732.59997558594</ele>
        <time>2021-08-31T13:25:01Z</time>
      </trkpt>
      <trkpt lat="44.42948" lon="5.79533">
        <ele>733.20001220703</ele>
        <time>2021-08-31T13:25:06Z</time>
      </trkpt>
      <trkpt lat="44.4295" lon="5.79537">
        <ele>733.59997558594</ele>
        <time>2021-08-31T13:25:08Z</time>
      </trkpt>
      <trkpt lat="44.42951" lon="5.79537">
        <ele>733.79998779297</ele>
        <time>2021-08-31T13:25:09Z</time>
      </trkpt>
      <trkpt lat="44.42957" lon="5.79536">
        <ele>734.20001220703</ele>
        <time>2021-08-31T13:25:13Z</time>
      </trkpt>
      <trkpt lat="44.4296" lon="5.79535">
        <ele>734.40002441406</ele>
        <time>2021-08-31T13:25:15Z</time>
      </trkpt>
      <trkpt lat="44.42968" lon="5.79523">
        <ele>735.40002441406</ele>
        <time>2021-08-31T13:25:22Z</time>
      </trkpt>
      <trkpt lat="44.42969" lon="5.79521">
        <ele>735.59997558594</ele>
        <time>2021-08-31T13:25:23Z</time>
      </trkpt>
      <trkpt lat="44.42974" lon="5.79511">
        <ele>736.40002441406</ele>
        <time>2021-08-31T13:25:28Z</time>
      </trkpt>
      <trkpt lat="44.42979" lon="5.79505">
        <ele>737</ele>
        <time>2021-08-31T13:25:32Z</time>
      </trkpt>
      <trkpt lat="44.42983" lon="5.79501">
        <ele>737.40002441406</ele>
        <time>2021-08-31T13:25:35Z</time>
      </trkpt>
      <trkpt lat="44.4299" lon="5.7949">
        <ele>738.40002441406</ele>
        <time>2021-08-31T13:25:42Z</time>
      </trkpt>
      <trkpt lat="44.42991" lon="5.79488">
        <ele>738.59997558594</ele>
        <time>2021-08-31T13:25:43Z</time>
      </trkpt>
      <trkpt lat="44.42999" lon="5.79476">
        <ele>739.40002441406</ele>
        <time>2021-08-31T13:25:50Z</time>
      </trkpt>
      <trkpt lat="44.43" lon="5.79474">
        <ele>739.59997558594</ele>
        <time>2021-08-31T13:25:51Z</time>
      </trkpt>
      <trkpt lat="44.43006" lon="5.79466">
        <ele>740.40002441406</ele>
        <time>2021-08-31T13:25:56Z</time>
      </trkpt>
      <trkpt lat="44.43008" lon="5.79459">
        <ele>740.59997558594</ele>
        <time>2021-08-31T13:25:59Z</time>
      </trkpt>
      <trkpt lat="44.43007" lon="5.79447">
        <ele>741.40002441406</ele>
        <time>2021-08-31T13:26:04Z</time>
      </trkpt>
      <trkpt lat="44.43007" lon="5.7944">
        <ele>741.79998779297</ele>
        <time>2021-08-31T13:26:07Z</time>
      </trkpt>
      <trkpt lat="44.43009" lon="5.79427">
        <ele>742.79998779297</ele>
        <time>2021-08-31T13:26:13Z</time>
      </trkpt>
      <trkpt lat="44.43011" lon="5.79426">
        <ele>743</ele>
        <time>2021-08-31T13:26:14Z</time>
      </trkpt>
      <trkpt lat="44.43017" lon="5.79422">
        <ele>743.59997558594</ele>
        <time>2021-08-31T13:26:18Z</time>
      </trkpt>
      <trkpt lat="44.43019" lon="5.79421">
        <ele>743.79998779297</ele>
        <time>2021-08-31T13:26:19Z</time>
      </trkpt>
      <trkpt lat="44.43021" lon="5.79421">
        <ele>744</ele>
        <time>2021-08-31T13:26:20Z</time>
      </trkpt>
      <trkpt lat="44.4303" lon="5.79417">
        <ele>745</ele>
        <time>2021-08-31T13:26:26Z</time>
      </trkpt>
      <trkpt lat="44.43033" lon="5.79415">
        <ele>745.20001220703</ele>
        <time>2021-08-31T13:26:28Z</time>
      </trkpt>
      <trkpt lat="44.43043" lon="5.79406">
        <ele>746</ele>
        <time>2021-08-31T13:26:35Z</time>
      </trkpt>
      <trkpt lat="44.43044" lon="5.79404">
        <ele>746.20001220703</ele>
        <time>2021-08-31T13:26:36Z</time>
      </trkpt>
      <trkpt lat="44.43052" lon="5.79391">
        <ele>747.20001220703</ele>
        <time>2021-08-31T13:26:43Z</time>
      </trkpt>
      <trkpt lat="44.43056" lon="5.79386">
        <ele>747.59997558594</ele>
        <time>2021-08-31T13:26:46Z</time>
      </trkpt>
      <trkpt lat="44.43056" lon="5.79381">
        <ele>747.79998779297</ele>
        <time>2021-08-31T13:26:48Z</time>
      </trkpt>
      <trkpt lat="44.43056" lon="5.79373">
        <ele>748.20001220703</ele>
        <time>2021-08-31T13:26:51Z</time>
      </trkpt>
      <trkpt lat="44.43056" lon="5.79371">
        <ele>748.20001220703</ele>
        <time>2021-08-31T13:26:52Z</time>
      </trkpt>
      <trkpt lat="44.43051" lon="5.7936">
        <ele>749</ele>
        <time>2021-08-31T13:26:58Z</time>
      </trkpt>
      <trkpt lat="44.4305" lon="5.79358">
        <ele>749.20001220703</ele>
        <time>2021-08-31T13:26:59Z</time>
      </trkpt>
      <trkpt lat="44.43041" lon="5.79353">
        <ele>749.79998779297</ele>
        <time>2021-08-31T13:27:04Z</time>
      </trkpt>
      <trkpt lat="44.43039" lon="5.79353">
        <ele>750</ele>
        <time>2021-08-31T13:27:05Z</time>
      </trkpt>
      <trkpt lat="44.43032" lon="5.79351">
        <ele>750.40002441406</ele>
        <time>2021-08-31T13:27:09Z</time>
      </trkpt>
      <trkpt lat="44.43026" lon="5.79348">
        <ele>750.59997558594</ele>
        <time>2021-08-31T13:27:12Z</time>
      </trkpt>
      <trkpt lat="44.43023" lon="5.79335">
        <ele>751.20001220703</ele>
        <time>2021-08-31T13:27:18Z</time>
      </trkpt>
      <trkpt lat="44.43023" lon="5.7933">
        <ele>751.40002441406</ele>
        <time>2021-08-31T13:27:20Z</time>
      </trkpt>
      <trkpt lat="44.43028" lon="5.79324">
        <ele>752.20001220703</ele>
        <time>2021-08-31T13:27:24Z</time>
      </trkpt>
      <trkpt lat="44.43029" lon="5.79322">
        <ele>752.59997558594</ele>
        <time>2021-08-31T13:27:25Z</time>
      </trkpt>
      <trkpt lat="44.43038" lon="5.79316">
        <ele>753.59997558594</ele>
        <time>2021-08-31T13:27:31Z</time>
      </trkpt>
      <trkpt lat="44.43051" lon="5.79314">
        <ele>754.20001220703</ele>
        <time>2021-08-31T13:27:38Z</time>
      </trkpt>
      <trkpt lat="44.43056" lon="5.79315">
        <ele>754.79998779297</ele>
        <time>2021-08-31T13:27:41Z</time>
      </trkpt>
      <trkpt lat="44.43065" lon="5.79318">
        <ele>755.59997558594</ele>
        <time>2021-08-31T13:27:46Z</time>
      </trkpt>
      <trkpt lat="44.43067" lon="5.79318">
        <ele>755.79998779297</ele>
        <time>2021-08-31T13:27:47Z</time>
      </trkpt>
      <trkpt lat="44.43068" lon="5.79319">
        <ele>755.79998779297</ele>
        <time>2021-08-31T13:27:48Z</time>
      </trkpt>
      <trkpt lat="44.43076" lon="5.79325">
        <ele>756.59997558594</ele>
        <time>2021-08-31T13:27:53Z</time>
      </trkpt>
      <trkpt lat="44.43079" lon="5.79326">
        <ele>757</ele>
        <time>2021-08-31T13:27:55Z</time>
      </trkpt>
      <trkpt lat="44.43087" lon="5.79332">
        <ele>757.59997558594</ele>
        <time>2021-08-31T13:28:00Z</time>
      </trkpt>
      <trkpt lat="44.43092" lon="5.79335">
        <ele>758</ele>
        <time>2021-08-31T13:28:03Z</time>
      </trkpt>
      <trkpt lat="44.43098" lon="5.79338">
        <ele>758.40002441406</ele>
        <time>2021-08-31T13:28:07Z</time>
      </trkpt>
      <trkpt lat="44.43102" lon="5.79341">
        <ele>759.40002441406</ele>
        <time>2021-08-31T13:28:10Z</time>
      </trkpt>
      <trkpt lat="44.43106" lon="5.79348">
        <ele>760.20001220703</ele>
        <time>2021-08-31T13:28:14Z</time>
      </trkpt>
      <trkpt lat="44.43108" lon="5.79351">
        <ele>760.40002441406</ele>
        <time>2021-08-31T13:28:16Z</time>
      </trkpt>
      <trkpt lat="44.43117" lon="5.79363">
        <ele>761.20001220703</ele>
        <time>2021-08-31T13:28:23Z</time>
      </trkpt>
      <trkpt lat="44.43122" lon="5.79367">
        <ele>761.59997558594</ele>
        <time>2021-08-31T13:28:26Z</time>
      </trkpt>
      <trkpt lat="44.43129" lon="5.79375">
        <ele>762.59997558594</ele>
        <time>2021-08-31T13:28:32Z</time>
      </trkpt>
      <trkpt lat="44.43138" lon="5.79384">
        <ele>763.59997558594</ele>
        <time>2021-08-31T13:28:39Z</time>
      </trkpt>
      <trkpt lat="44.43139" lon="5.79386">
        <ele>763.79998779297</ele>
        <time>2021-08-31T13:28:40Z</time>
      </trkpt>
      <trkpt lat="44.43146" lon="5.79395">
        <ele>764.40002441406</ele>
        <time>2021-08-31T13:28:45Z</time>
      </trkpt>
      <trkpt lat="44.43149" lon="5.79404">
        <ele>764.79998779297</ele>
        <time>2021-08-31T13:28:49Z</time>
      </trkpt>
      <trkpt lat="44.43153" lon="5.79418">
        <ele>765.59997558594</ele>
        <time>2021-08-31T13:28:55Z</time>
      </trkpt>
      <trkpt lat="44.43152" lon="5.79423">
        <ele>765.79998779297</ele>
        <time>2021-08-31T13:28:57Z</time>
      </trkpt>
      <trkpt lat="44.43152" lon="5.79439">
        <ele>766.59997558594</ele>
        <time>2021-08-31T13:29:04Z</time>
      </trkpt>
      <trkpt lat="44.43149" lon="5.79445">
        <ele>766.79998779297</ele>
        <time>2021-08-31T13:29:07Z</time>
      </trkpt>
      <trkpt lat="44.43147" lon="5.79452">
        <ele>767.20001220703</ele>
        <time>2021-08-31T13:29:10Z</time>
      </trkpt>
      <trkpt lat="44.43144" lon="5.7946">
        <ele>767.79998779297</ele>
        <time>2021-08-31T13:29:14Z</time>
      </trkpt>
      <trkpt lat="44.43141" lon="5.79471">
        <ele>768.40002441406</ele>
        <time>2021-08-31T13:29:19Z</time>
      </trkpt>
      <trkpt lat="44.43139" lon="5.79477">
        <ele>769</ele>
        <time>2021-08-31T13:29:22Z</time>
      </trkpt>
      <trkpt lat="44.43139" lon="5.7949">
        <ele>770</ele>
        <time>2021-08-31T13:29:28Z</time>
      </trkpt>
      <trkpt lat="44.43139" lon="5.79493">
        <ele>770.20001220703</ele>
        <time>2021-08-31T13:29:29Z</time>
      </trkpt>
      <trkpt lat="44.43142" lon="5.79509">
        <ele>771</ele>
        <time>2021-08-31T13:29:36Z</time>
      </trkpt>
      <trkpt lat="44.43143" lon="5.79513">
        <ele>771.20001220703</ele>
        <time>2021-08-31T13:29:38Z</time>
      </trkpt>
      <trkpt lat="44.43147" lon="5.79519">
        <ele>771.79998779297</ele>
        <time>2021-08-31T13:29:42Z</time>
      </trkpt>
      <trkpt lat="44.43149" lon="5.79519">
        <ele>772</ele>
        <time>2021-08-31T13:29:43Z</time>
      </trkpt>
      <trkpt lat="44.4315" lon="5.7952">
        <ele>772.20001220703</ele>
        <time>2021-08-31T13:29:44Z</time>
      </trkpt>
      <trkpt lat="44.43158" lon="5.79518">
        <ele>773.40002441406</ele>
        <time>2021-08-31T13:29:49Z</time>
      </trkpt>
      <trkpt lat="44.43159" lon="5.79516">
        <ele>773.40002441406</ele>
        <time>2021-08-31T13:29:50Z</time>
      </trkpt>
      <trkpt lat="44.4316" lon="5.79504">
        <ele>774</ele>
        <time>2021-08-31T13:29:55Z</time>
      </trkpt>
      <trkpt lat="44.4316" lon="5.79501">
        <ele>774.20001220703</ele>
        <time>2021-08-31T13:29:56Z</time>
      </trkpt>
      <trkpt lat="44.43159" lon="5.79497">
        <ele>774.40002441406</ele>
        <time>2021-08-31T13:29:58Z</time>
      </trkpt>
      <trkpt lat="44.43157" lon="5.79485">
        <ele>775</ele>
        <time>2021-08-31T13:30:03Z</time>
      </trkpt>
      <trkpt lat="44.43158" lon="5.79473">
        <ele>775.40002441406</ele>
        <time>2021-08-31T13:30:08Z</time>
      </trkpt>
      <trkpt lat="44.4316" lon="5.79467">
        <ele>776</ele>
        <time>2021-08-31T13:30:11Z</time>
      </trkpt>
      <trkpt lat="44.43162" lon="5.79461">
        <ele>776.40002441406</ele>
        <time>2021-08-31T13:30:14Z</time>
      </trkpt>
      <trkpt lat="44.43167" lon="5.79455">
        <ele>777.20001220703</ele>
        <time>2021-08-31T13:30:18Z</time>
      </trkpt>
      <trkpt lat="44.4317" lon="5.79453">
        <ele>777.59997558594</ele>
        <time>2021-08-31T13:30:20Z</time>
      </trkpt>
      <trkpt lat="44.43178" lon="5.79451">
        <ele>778.59997558594</ele>
        <time>2021-08-31T13:30:25Z</time>
      </trkpt>
      <trkpt lat="44.4318" lon="5.79451">
        <ele>778.79998779297</ele>
        <time>2021-08-31T13:30:26Z</time>
      </trkpt>
      <trkpt lat="44.43195" lon="5.7945">
        <ele>779.59997558594</ele>
        <time>2021-08-31T13:30:35Z</time>
      </trkpt>
      <trkpt lat="44.43199" lon="5.79448">
        <ele>779.79998779297</ele>
        <time>2021-08-31T13:30:38Z</time>
      </trkpt>
      <trkpt lat="44.43202" lon="5.79446">
        <ele>780.20001220703</ele>
        <time>2021-08-31T13:30:40Z</time>
      </trkpt>
      <trkpt lat="44.43205" lon="5.79443">
        <ele>780.59997558594</ele>
        <time>2021-08-31T13:30:42Z</time>
      </trkpt>
      <trkpt lat="44.43206" lon="5.79441">
        <ele>781</ele>
        <time>2021-08-31T13:30:43Z</time>
      </trkpt>
      <trkpt lat="44.43213" lon="5.79426">
        <ele>782</ele>
        <time>2021-08-31T13:30:51Z</time>
      </trkpt>
      <trkpt lat="44.43216" lon="5.79414">
        <ele>783.20001220703</ele>
        <time>2021-08-31T13:30:57Z</time>
      </trkpt>
      <trkpt lat="44.43218" lon="5.79407">
        <ele>784</ele>
        <time>2021-08-31T13:31:00Z</time>
      </trkpt>
      <trkpt lat="44.43221" lon="5.79401">
        <ele>784.40002441406</ele>
        <time>2021-08-31T13:31:03Z</time>
      </trkpt>
      <trkpt lat="44.43225" lon="5.79399">
        <ele>784.59997558594</ele>
        <time>2021-08-31T13:31:06Z</time>
      </trkpt>
      <trkpt lat="44.43234" lon="5.79394">
        <ele>785.40002441406</ele>
        <time>2021-08-31T13:31:12Z</time>
      </trkpt>
      <trkpt lat="44.43237" lon="5.79392">
        <ele>785.79998779297</ele>
        <time>2021-08-31T13:31:14Z</time>
      </trkpt>
      <trkpt lat="44.43244" lon="5.79387">
        <ele>786.59997558594</ele>
        <time>2021-08-31T13:31:19Z</time>
      </trkpt>
      <trkpt lat="44.43246" lon="5.79384">
        <ele>787</ele>
        <time>2021-08-31T13:31:21Z</time>
      </trkpt>
      <trkpt lat="44.43253" lon="5.79374">
        <ele>787.59997558594</ele>
        <time>2021-08-31T13:31:27Z</time>
      </trkpt>
      <trkpt lat="44.43257" lon="5.79367">
        <ele>788</ele>
        <time>2021-08-31T13:31:31Z</time>
      </trkpt>
      <trkpt lat="44.43261" lon="5.79358">
        <ele>788.79998779297</ele>
        <time>2021-08-31T13:31:36Z</time>
      </trkpt>
      <trkpt lat="44.43265" lon="5.7935">
        <ele>789.20001220703</ele>
        <time>2021-08-31T13:31:40Z</time>
      </trkpt>
      <trkpt lat="44.43269" lon="5.79344">
        <ele>789.79998779297</ele>
        <time>2021-08-31T13:31:44Z</time>
      </trkpt>
      <trkpt lat="44.43275" lon="5.79339">
        <ele>791</ele>
        <time>2021-08-31T13:31:48Z</time>
      </trkpt>
      <trkpt lat="44.43284" lon="5.79331">
        <ele>791.59997558594</ele>
        <time>2021-08-31T13:31:55Z</time>
      </trkpt>
      <trkpt lat="44.43287" lon="5.7933">
        <ele>792</ele>
        <time>2021-08-31T13:31:57Z</time>
      </trkpt>
      <trkpt lat="44.43298" lon="5.79325">
        <ele>792.79998779297</ele>
        <time>2021-08-31T13:32:04Z</time>
      </trkpt>
      <trkpt lat="44.43301" lon="5.79323">
        <ele>793.20001220703</ele>
        <time>2021-08-31T13:32:06Z</time>
      </trkpt>
      <trkpt lat="44.43306" lon="5.79322">
        <ele>793.59997558594</ele>
        <time>2021-08-31T13:32:09Z</time>
      </trkpt>
      <trkpt lat="44.43307" lon="5.79322">
        <ele>794</ele>
        <time>2021-08-31T13:32:10Z</time>
      </trkpt>
      <trkpt lat="44.43309" lon="5.79323">
        <ele>794.20001220703</ele>
        <time>2021-08-31T13:32:11Z</time>
      </trkpt>
      <trkpt lat="44.43323" lon="5.7932">
        <ele>794.20001220703</ele>
        <time>2021-08-31T13:32:18Z</time>
      </trkpt>
      <trkpt lat="44.43334" lon="5.79321">
        <ele>793.79998779297</ele>
        <time>2021-08-31T13:32:24Z</time>
      </trkpt>
      <trkpt lat="44.43336" lon="5.79324">
        <ele>793.59997558594</ele>
        <time>2021-08-31T13:32:54Z</time>
      </trkpt>
      <trkpt lat="44.4334" lon="5.79328">
        <ele>793.40002441406</ele>
        <time>2021-08-31T13:32:56Z</time>
      </trkpt>
      <trkpt lat="44.43344" lon="5.79333">
        <ele>793.20001220703</ele>
        <time>2021-08-31T13:32:58Z</time>
      </trkpt>
      <trkpt lat="44.43353" lon="5.79341">
        <ele>792.59997558594</ele>
        <time>2021-08-31T13:33:01Z</time>
      </trkpt>
      <trkpt lat="44.43357" lon="5.79343">
        <ele>792.59997558594</ele>
        <time>2021-08-31T13:33:02Z</time>
      </trkpt>
      <trkpt lat="44.43372" lon="5.79351">
        <ele>792</ele>
        <time>2021-08-31T13:33:05Z</time>
      </trkpt>
      <trkpt lat="44.43397" lon="5.7937">
        <ele>790.79998779297</ele>
        <time>2021-08-31T13:33:09Z</time>
      </trkpt>
      <trkpt lat="44.43404" lon="5.79375">
        <ele>790.40002441406</ele>
        <time>2021-08-31T13:33:10Z</time>
      </trkpt>
      <trkpt lat="44.43419" lon="5.79386">
        <ele>789.20001220703</ele>
        <time>2021-08-31T13:33:12Z</time>
      </trkpt>
      <trkpt lat="44.43433" lon="5.79396">
        <ele>788.20001220703</ele>
        <time>2021-08-31T13:33:14Z</time>
      </trkpt>
      <trkpt lat="44.43444" lon="5.79405">
        <ele>787.20001220703</ele>
        <time>2021-08-31T13:33:16Z</time>
      </trkpt>
      <trkpt lat="44.43449" lon="5.79408">
        <ele>787</ele>
        <time>2021-08-31T13:33:17Z</time>
      </trkpt>
      <trkpt lat="44.43459" lon="5.79416">
        <ele>786.79998779297</ele>
        <time>2021-08-31T13:33:20Z</time>
      </trkpt>
      <trkpt lat="44.43473" lon="5.79427">
        <ele>787.79998779297</ele>
        <time>2021-08-31T13:33:26Z</time>
      </trkpt>
      <trkpt lat="44.43477" lon="5.79429">
        <ele>788</ele>
        <time>2021-08-31T13:33:28Z</time>
      </trkpt>
      <trkpt lat="44.43489" lon="5.79436">
        <ele>788.79998779297</ele>
        <time>2021-08-31T13:33:34Z</time>
      </trkpt>
      <trkpt lat="44.43493" lon="5.79439">
        <ele>789.20001220703</ele>
        <time>2021-08-31T13:33:36Z</time>
      </trkpt>
      <trkpt lat="44.43508" lon="5.79445">
        <ele>790.20001220703</ele>
        <time>2021-08-31T13:33:43Z</time>
      </trkpt>
      <trkpt lat="44.43511" lon="5.79446">
        <ele>790.40002441406</ele>
        <time>2021-08-31T13:33:44Z</time>
      </trkpt>
      <trkpt lat="44.43524" lon="5.79449">
        <ele>791.40002441406</ele>
        <time>2021-08-31T13:33:50Z</time>
      </trkpt>
      <trkpt lat="44.43538" lon="5.79445">
        <ele>791.79998779297</ele>
        <time>2021-08-31T13:33:56Z</time>
      </trkpt>
      <trkpt lat="44.43554" lon="5.79436">
        <ele>792.40002441406</ele>
        <time>2021-08-31T13:34:03Z</time>
      </trkpt>
      <trkpt lat="44.43574" lon="5.79426">
        <ele>793</ele>
        <time>2021-08-31T13:34:12Z</time>
      </trkpt>
      <trkpt lat="44.43594" lon="5.7942">
        <ele>793.40002441406</ele>
        <time>2021-08-31T13:34:20Z</time>
      </trkpt>
      <trkpt lat="44.43596" lon="5.7942">
        <ele>793.59997558594</ele>
        <time>2021-08-31T13:34:21Z</time>
      </trkpt>
      <trkpt lat="44.43623" lon="5.79413">
        <ele>794.40002441406</ele>
        <time>2021-08-31T13:34:31Z</time>
      </trkpt>
      <trkpt lat="44.43629" lon="5.79412">
        <ele>794.40002441406</ele>
        <time>2021-08-31T13:34:33Z</time>
      </trkpt>
      <trkpt lat="44.43649" lon="5.79409">
        <ele>795.20001220703</ele>
        <time>2021-08-31T13:34:40Z</time>
      </trkpt>
      <trkpt lat="44.43657" lon="5.79407">
        <ele>795.40002441406</ele>
        <time>2021-08-31T13:34:43Z</time>
      </trkpt>
      <trkpt lat="44.43675" lon="5.79402">
        <ele>796.20001220703</ele>
        <time>2021-08-31T13:34:50Z</time>
      </trkpt>
      <trkpt lat="44.43692" lon="5.79398">
        <ele>796.59997558594</ele>
        <time>2021-08-31T13:34:57Z</time>
      </trkpt>
      <trkpt lat="44.43695" lon="5.79397">
        <ele>796.79998779297</ele>
        <time>2021-08-31T13:34:58Z</time>
      </trkpt>
      <trkpt lat="44.4371" lon="5.79393">
        <ele>797.59997558594</ele>
        <time>2021-08-31T13:35:04Z</time>
      </trkpt>
      <trkpt lat="44.43714" lon="5.79392">
        <ele>797.59997558594</ele>
        <time>2021-08-31T13:35:06Z</time>
      </trkpt>
      <trkpt lat="44.43724" lon="5.79392">
        <ele>798</ele>
        <time>2021-08-31T13:35:10Z</time>
      </trkpt>
      <trkpt lat="44.43726" lon="5.79395">
        <ele>798</ele>
        <time>2021-08-31T13:35:11Z</time>
      </trkpt>
      <trkpt lat="44.43731" lon="5.7941">
        <ele>798.59997558594</ele>
        <time>2021-08-31T13:35:17Z</time>
      </trkpt>
      <trkpt lat="44.43728" lon="5.79408">
        <ele>798.40002441406</ele>
        <time>2021-08-31T13:36:31Z</time>
      </trkpt>
      <trkpt lat="44.43728" lon="5.79405">
        <ele>798.40002441406</ele>
        <time>2021-08-31T13:36:32Z</time>
      </trkpt>
      <trkpt lat="44.4373" lon="5.79395">
        <ele>798.40002441406</ele>
        <time>2021-08-31T13:36:35Z</time>
      </trkpt>
      <trkpt lat="44.43731" lon="5.7939">
        <ele>798.40002441406</ele>
        <time>2021-08-31T13:36:36Z</time>
      </trkpt>
      <trkpt lat="44.43736" lon="5.79382">
        <ele>798.20001220703</ele>
        <time>2021-08-31T13:36:38Z</time>
      </trkpt>
      <trkpt lat="44.43743" lon="5.79377">
        <ele>798</ele>
        <time>2021-08-31T13:36:40Z</time>
      </trkpt>
      <trkpt lat="44.43759" lon="5.79368">
        <ele>797.59997558594</ele>
        <time>2021-08-31T13:36:44Z</time>
      </trkpt>
      <trkpt lat="44.43769" lon="5.79363">
        <ele>797.20001220703</ele>
        <time>2021-08-31T13:36:47Z</time>
      </trkpt>
      <trkpt lat="44.43795" lon="5.79351">
        <ele>796.59997558594</ele>
        <time>2021-08-31T13:36:54Z</time>
      </trkpt>
      <trkpt lat="44.43799" lon="5.79349">
        <ele>796.59997558594</ele>
        <time>2021-08-31T13:36:55Z</time>
      </trkpt>
      <trkpt lat="44.43803" lon="5.79347">
        <ele>796.59997558594</ele>
        <time>2021-08-31T13:36:56Z</time>
      </trkpt>
      <trkpt lat="44.43845" lon="5.79328">
        <ele>795.59997558594</ele>
        <time>2021-08-31T13:37:06Z</time>
      </trkpt>
      <trkpt lat="44.43857" lon="5.79322">
        <ele>795.59997558594</ele>
        <time>2021-08-31T13:37:09Z</time>
      </trkpt>
      <trkpt lat="44.43861" lon="5.79321">
        <ele>795.59997558594</ele>
        <time>2021-08-31T13:37:10Z</time>
      </trkpt>
      <trkpt lat="44.43874" lon="5.79317">
        <ele>795.40002441406</ele>
        <time>2021-08-31T13:37:13Z</time>
      </trkpt>
      <trkpt lat="44.43907" lon="5.79305">
        <ele>795.20001220703</ele>
        <time>2021-08-31T13:37:21Z</time>
      </trkpt>
      <trkpt lat="44.43937" lon="5.79301">
        <ele>795.40002441406</ele>
        <time>2021-08-31T13:37:29Z</time>
      </trkpt>
      <trkpt lat="44.43968" lon="5.79295">
        <ele>795.40002441406</ele>
        <time>2021-08-31T13:37:37Z</time>
      </trkpt>
      <trkpt lat="44.43999" lon="5.79284">
        <ele>795.40002441406</ele>
        <time>2021-08-31T13:37:46Z</time>
      </trkpt>
      <trkpt lat="44.44018" lon="5.79272">
        <ele>795.40002441406</ele>
        <time>2021-08-31T13:37:53Z</time>
      </trkpt>
      <trkpt lat="44.44022" lon="5.79272">
        <ele>794.40002441406</ele>
        <time>2021-08-31T13:38:59Z</time>
      </trkpt>
      <trkpt lat="44.44024" lon="5.79272">
        <ele>794.20001220703</ele>
        <time>2021-08-31T13:39:00Z</time>
      </trkpt>
      <trkpt lat="44.4404" lon="5.79264">
        <ele>794.20001220703</ele>
        <time>2021-08-31T13:39:05Z</time>
      </trkpt>
      <trkpt lat="44.44055" lon="5.79251">
        <ele>793.59997558594</ele>
        <time>2021-08-31T13:39:09Z</time>
      </trkpt>
      <trkpt lat="44.44063" lon="5.79243">
        <ele>793.40002441406</ele>
        <time>2021-08-31T13:39:11Z</time>
      </trkpt>
      <trkpt lat="44.44072" lon="5.79235">
        <ele>793.20001220703</ele>
        <time>2021-08-31T13:39:13Z</time>
      </trkpt>
      <trkpt lat="44.44076" lon="5.7923">
        <ele>793</ele>
        <time>2021-08-31T13:39:14Z</time>
      </trkpt>
      <trkpt lat="44.44084" lon="5.79217">
        <ele>792.59997558594</ele>
        <time>2021-08-31T13:39:16Z</time>
      </trkpt>
      <trkpt lat="44.44091" lon="5.79203">
        <ele>792.20001220703</ele>
        <time>2021-08-31T13:39:18Z</time>
      </trkpt>
      <trkpt lat="44.4411" lon="5.79169">
        <ele>790.79998779297</ele>
        <time>2021-08-31T13:39:23Z</time>
      </trkpt>
      <trkpt lat="44.44133" lon="5.79128">
        <ele>789.79998779297</ele>
        <time>2021-08-31T13:39:30Z</time>
      </trkpt>
      <trkpt lat="44.44135" lon="5.79123">
        <ele>789.79998779297</ele>
        <time>2021-08-31T13:39:31Z</time>
      </trkpt>
      <trkpt lat="44.44153" lon="5.79082">
        <ele>789.40002441406</ele>
        <time>2021-08-31T13:39:38Z</time>
      </trkpt>
      <trkpt lat="44.44172" lon="5.79037">
        <ele>788.79998779297</ele>
        <time>2021-08-31T13:39:44Z</time>
      </trkpt>
      <trkpt lat="44.44176" lon="5.7903">
        <ele>788.59997558594</ele>
        <time>2021-08-31T13:39:45Z</time>
      </trkpt>
      <trkpt lat="44.44186" lon="5.79006">
        <ele>787.59997558594</ele>
        <time>2021-08-31T13:39:48Z</time>
      </trkpt>
      <trkpt lat="44.44191" lon="5.78998">
        <ele>787.20001220703</ele>
        <time>2021-08-31T13:39:49Z</time>
      </trkpt>
      <trkpt lat="44.44201" lon="5.78983">
        <ele>786.59997558594</ele>
        <time>2021-08-31T13:39:51Z</time>
      </trkpt>
      <trkpt lat="44.44222" lon="5.78968">
        <ele>785.59997558594</ele>
        <time>2021-08-31T13:39:54Z</time>
      </trkpt>
      <trkpt lat="44.4423" lon="5.78965">
        <ele>785.40002441406</ele>
        <time>2021-08-31T13:39:55Z</time>
      </trkpt>
      <trkpt lat="44.44255" lon="5.78955">
        <ele>784.20001220703</ele>
        <time>2021-08-31T13:39:58Z</time>
      </trkpt>
      <trkpt lat="44.44279" lon="5.7894">
        <ele>783</ele>
        <time>2021-08-31T13:40:01Z</time>
      </trkpt>
      <trkpt lat="44.44303" lon="5.78923">
        <ele>781.79998779297</ele>
        <time>2021-08-31T13:40:04Z</time>
      </trkpt>
      <trkpt lat="44.44311" lon="5.78918">
        <ele>781.59997558594</ele>
        <time>2021-08-31T13:40:05Z</time>
      </trkpt>
      <trkpt lat="44.44327" lon="5.78907">
        <ele>780.59997558594</ele>
        <time>2021-08-31T13:40:07Z</time>
      </trkpt>
      <trkpt lat="44.44349" lon="5.78889">
        <ele>779.40002441406</ele>
        <time>2021-08-31T13:40:10Z</time>
      </trkpt>
      <trkpt lat="44.44361" lon="5.78874">
        <ele>777.79998779297</ele>
        <time>2021-08-31T13:40:12Z</time>
      </trkpt>
      <trkpt lat="44.44365" lon="5.78866">
        <ele>777.20001220703</ele>
        <time>2021-08-31T13:40:13Z</time>
      </trkpt>
      <trkpt lat="44.44369" lon="5.78856">
        <ele>776.59997558594</ele>
        <time>2021-08-31T13:40:14Z</time>
      </trkpt>
      <trkpt lat="44.44373" lon="5.78843">
        <ele>775.20001220703</ele>
        <time>2021-08-31T13:40:16Z</time>
      </trkpt>
      <trkpt lat="44.44376" lon="5.78831">
        <ele>773.79998779297</ele>
        <time>2021-08-31T13:40:18Z</time>
      </trkpt>
      <trkpt lat="44.44378" lon="5.78817">
        <ele>772.20001220703</ele>
        <time>2021-08-31T13:40:20Z</time>
      </trkpt>
      <trkpt lat="44.44378" lon="5.78808">
        <ele>771.40002441406</ele>
        <time>2021-08-31T13:40:21Z</time>
      </trkpt>
      <trkpt lat="44.4438" lon="5.788">
        <ele>770.59997558594</ele>
        <time>2021-08-31T13:40:22Z</time>
      </trkpt>
      <trkpt lat="44.44382" lon="5.7878">
        <ele>769.40002441406</ele>
        <time>2021-08-31T13:40:24Z</time>
      </trkpt>
      <trkpt lat="44.44386" lon="5.7876">
        <ele>768.79998779297</ele>
        <time>2021-08-31T13:40:26Z</time>
      </trkpt>
      <trkpt lat="44.4439" lon="5.78738">
        <ele>768.20001220703</ele>
        <time>2021-08-31T13:40:28Z</time>
      </trkpt>
      <trkpt lat="44.44394" lon="5.78715">
        <ele>767.20001220703</ele>
        <time>2021-08-31T13:40:30Z</time>
      </trkpt>
      <trkpt lat="44.444" lon="5.7869">
        <ele>766</ele>
        <time>2021-08-31T13:40:32Z</time>
      </trkpt>
      <trkpt lat="44.4441" lon="5.78653">
        <ele>764.40002441406</ele>
        <time>2021-08-31T13:40:35Z</time>
      </trkpt>
      <trkpt lat="44.44418" lon="5.78628">
        <ele>763</ele>
        <time>2021-08-31T13:40:37Z</time>
      </trkpt>
      <trkpt lat="44.44425" lon="5.78603">
        <ele>761.59997558594</ele>
        <time>2021-08-31T13:40:39Z</time>
      </trkpt>
      <trkpt lat="44.44428" lon="5.78591">
        <ele>761</ele>
        <time>2021-08-31T13:40:40Z</time>
      </trkpt>
      <trkpt lat="44.44429" lon="5.78578">
        <ele>760.20001220703</ele>
        <time>2021-08-31T13:40:41Z</time>
      </trkpt>
      <trkpt lat="44.44431" lon="5.78551">
        <ele>759</ele>
        <time>2021-08-31T13:40:43Z</time>
      </trkpt>
      <trkpt lat="44.44436" lon="5.78526">
        <ele>757.79998779297</ele>
        <time>2021-08-31T13:40:45Z</time>
      </trkpt>
      <trkpt lat="44.4444" lon="5.78515">
        <ele>757.20001220703</ele>
        <time>2021-08-31T13:40:46Z</time>
      </trkpt>
      <trkpt lat="44.44444" lon="5.78504">
        <ele>756.59997558594</ele>
        <time>2021-08-31T13:40:47Z</time>
      </trkpt>
      <trkpt lat="44.44457" lon="5.78473">
        <ele>755.40002441406</ele>
        <time>2021-08-31T13:40:50Z</time>
      </trkpt>
      <trkpt lat="44.44465" lon="5.78452">
        <ele>754.79998779297</ele>
        <time>2021-08-31T13:40:52Z</time>
      </trkpt>
      <trkpt lat="44.44473" lon="5.78432">
        <ele>754</ele>
        <time>2021-08-31T13:40:54Z</time>
      </trkpt>
      <trkpt lat="44.44481" lon="5.78413">
        <ele>753</ele>
        <time>2021-08-31T13:40:56Z</time>
      </trkpt>
      <trkpt lat="44.4449" lon="5.78394">
        <ele>751.79998779297</ele>
        <time>2021-08-31T13:40:58Z</time>
      </trkpt>
      <trkpt lat="44.44493" lon="5.78385">
        <ele>750.79998779297</ele>
        <time>2021-08-31T13:40:59Z</time>
      </trkpt>
      <trkpt lat="44.44497" lon="5.78375">
        <ele>750.40002441406</ele>
        <time>2021-08-31T13:41:00Z</time>
      </trkpt>
      <trkpt lat="44.44509" lon="5.78347">
        <ele>749.20001220703</ele>
        <time>2021-08-31T13:41:03Z</time>
      </trkpt>
      <trkpt lat="44.44519" lon="5.78328">
        <ele>748</ele>
        <time>2021-08-31T13:41:05Z</time>
      </trkpt>
      <trkpt lat="44.44538" lon="5.78307">
        <ele>747</ele>
        <time>2021-08-31T13:41:08Z</time>
      </trkpt>
      <trkpt lat="44.44557" lon="5.78308">
        <ele>746.40002441406</ele>
        <time>2021-08-31T13:41:10Z</time>
      </trkpt>
      <trkpt lat="44.44575" lon="5.78321">
        <ele>745.40002441406</ele>
        <time>2021-08-31T13:41:12Z</time>
      </trkpt>
      <trkpt lat="44.44584" lon="5.78328">
        <ele>744.40002441406</ele>
        <time>2021-08-31T13:41:13Z</time>
      </trkpt>
      <trkpt lat="44.44592" lon="5.78333">
        <ele>743.59997558594</ele>
        <time>2021-08-31T13:41:14Z</time>
      </trkpt>
      <trkpt lat="44.44609" lon="5.78335">
        <ele>742.20001220703</ele>
        <time>2021-08-31T13:41:16Z</time>
      </trkpt>
      <trkpt lat="44.44628" lon="5.78326">
        <ele>741.59997558594</ele>
        <time>2021-08-31T13:41:19Z</time>
      </trkpt>
      <trkpt lat="44.44638" lon="5.78317">
        <ele>741.59997558594</ele>
        <time>2021-08-31T13:41:21Z</time>
      </trkpt>
      <trkpt lat="44.44654" lon="5.78301">
        <ele>742.40002441406</ele>
        <time>2021-08-31T13:41:25Z</time>
      </trkpt>
      <trkpt lat="44.44668" lon="5.78287">
        <ele>742.79998779297</ele>
        <time>2021-08-31T13:41:29Z</time>
      </trkpt>
      <trkpt lat="44.44674" lon="5.7828">
        <ele>743</ele>
        <time>2021-08-31T13:41:31Z</time>
      </trkpt>
      <trkpt lat="44.44688" lon="5.78268">
        <ele>743</ele>
        <time>2021-08-31T13:41:35Z</time>
      </trkpt>
      <trkpt lat="44.44698" lon="5.7826">
        <ele>742.59997558594</ele>
        <time>2021-08-31T13:41:38Z</time>
      </trkpt>
      <trkpt lat="44.44719" lon="5.78239">
        <ele>743</ele>
        <time>2021-08-31T13:41:46Z</time>
      </trkpt>
      <trkpt lat="44.44722" lon="5.78237">
        <ele>743.40002441406</ele>
        <time>2021-08-31T13:41:47Z</time>
      </trkpt>
      <trkpt lat="44.44739" lon="5.78221">
        <ele>744</ele>
        <time>2021-08-31T13:41:54Z</time>
      </trkpt>
      <trkpt lat="44.44755" lon="5.78208">
        <ele>744.40002441406</ele>
        <time>2021-08-31T13:42:00Z</time>
      </trkpt>
      <trkpt lat="44.44763" lon="5.78203">
        <ele>744.79998779297</ele>
        <time>2021-08-31T13:42:03Z</time>
      </trkpt>
      <trkpt lat="44.44788" lon="5.78195">
        <ele>745.40002441406</ele>
        <time>2021-08-31T13:42:11Z</time>
      </trkpt>
      <trkpt lat="44.44791" lon="5.78195">
        <ele>745.40002441406</ele>
        <time>2021-08-31T13:42:12Z</time>
      </trkpt>
      <trkpt lat="44.4481" lon="5.78195">
        <ele>746.20001220703</ele>
        <time>2021-08-31T13:42:18Z</time>
      </trkpt>
      <trkpt lat="44.44824" lon="5.78197">
        <ele>746.40002441406</ele>
        <time>2021-08-31T13:42:22Z</time>
      </trkpt>
      <trkpt lat="44.44844" lon="5.782">
        <ele>746.59997558594</ele>
        <time>2021-08-31T13:42:28Z</time>
      </trkpt>
      <trkpt lat="44.44879" lon="5.78206">
        <ele>747</ele>
        <time>2021-08-31T13:42:38Z</time>
      </trkpt>
      <trkpt lat="44.44902" lon="5.78218">
        <ele>747.40002441406</ele>
        <time>2021-08-31T13:42:46Z</time>
      </trkpt>
      <trkpt lat="44.44904" lon="5.7822">
        <ele>747.59997558594</ele>
        <time>2021-08-31T13:42:47Z</time>
      </trkpt>
      <trkpt lat="44.44919" lon="5.78232">
        <ele>748.40002441406</ele>
        <time>2021-08-31T13:42:54Z</time>
      </trkpt>
      <trkpt lat="44.44923" lon="5.78237">
        <ele>748.59997558594</ele>
        <time>2021-08-31T13:42:56Z</time>
      </trkpt>
      <trkpt lat="44.44936" lon="5.78248">
        <ele>749.40002441406</ele>
        <time>2021-08-31T13:43:02Z</time>
      </trkpt>
      <trkpt lat="44.4494" lon="5.78252">
        <ele>749.79998779297</ele>
        <time>2021-08-31T13:43:04Z</time>
      </trkpt>
      <trkpt lat="44.44955" lon="5.78266">
        <ele>750</ele>
        <time>2021-08-31T13:43:11Z</time>
      </trkpt>
      <trkpt lat="44.44977" lon="5.78286">
        <ele>750.20001220703</ele>
        <time>2021-08-31T13:43:20Z</time>
      </trkpt>
      <trkpt lat="44.44992" lon="5.78299">
        <ele>750.79998779297</ele>
        <time>2021-08-31T13:43:26Z</time>
      </trkpt>
      <trkpt lat="44.44997" lon="5.78303">
        <ele>750.79998779297</ele>
        <time>2021-08-31T13:43:28Z</time>
      </trkpt>
      <trkpt lat="44.45013" lon="5.78319">
        <ele>751</ele>
        <time>2021-08-31T13:43:34Z</time>
      </trkpt>
      <trkpt lat="44.45023" lon="5.78335">
        <ele>751</ele>
        <time>2021-08-31T13:43:38Z</time>
      </trkpt>
      <trkpt lat="44.45027" lon="5.78346">
        <ele>751</ele>
        <time>2021-08-31T13:43:40Z</time>
      </trkpt>
      <trkpt lat="44.45026" lon="5.78369">
        <ele>750.59997558594</ele>
        <time>2021-08-31T13:43:44Z</time>
      </trkpt>
      <trkpt lat="44.45022" lon="5.7838">
        <ele>750.40002441406</ele>
        <time>2021-08-31T13:43:46Z</time>
      </trkpt>
      <trkpt lat="44.45015" lon="5.78402">
        <ele>750</ele>
        <time>2021-08-31T13:43:50Z</time>
      </trkpt>
      <trkpt lat="44.45013" lon="5.78408">
        <ele>750</ele>
        <time>2021-08-31T13:43:51Z</time>
      </trkpt>
      <trkpt lat="44.45011" lon="5.7842">
        <ele>750</ele>
        <time>2021-08-31T13:43:53Z</time>
      </trkpt>
      <trkpt lat="44.45013" lon="5.78438">
        <ele>750</ele>
        <time>2021-08-31T13:43:56Z</time>
      </trkpt>
      <trkpt lat="44.45018" lon="5.78448">
        <ele>750</ele>
        <time>2021-08-31T13:43:58Z</time>
      </trkpt>
      <trkpt lat="44.45021" lon="5.78451">
        <ele>750.20001220703</ele>
        <time>2021-08-31T13:43:59Z</time>
      </trkpt>
      <trkpt lat="44.45025" lon="5.78454">
        <ele>750.20001220703</ele>
        <time>2021-08-31T13:44:00Z</time>
      </trkpt>
      <trkpt lat="44.45039" lon="5.78451">
        <ele>750.20001220703</ele>
        <time>2021-08-31T13:44:03Z</time>
      </trkpt>
      <trkpt lat="44.45044" lon="5.78448">
        <ele>750.20001220703</ele>
        <time>2021-08-31T13:44:04Z</time>
      </trkpt>
      <trkpt lat="44.45061" lon="5.78437">
        <ele>750.20001220703</ele>
        <time>2021-08-31T13:44:08Z</time>
      </trkpt>
      <trkpt lat="44.45074" lon="5.78428">
        <ele>750.20001220703</ele>
        <time>2021-08-31T13:44:11Z</time>
      </trkpt>
      <trkpt lat="44.45088" lon="5.78426">
        <ele>750.20001220703</ele>
        <time>2021-08-31T13:44:14Z</time>
      </trkpt>
      <trkpt lat="44.45106" lon="5.78438">
        <ele>750</ele>
        <time>2021-08-31T13:44:18Z</time>
      </trkpt>
      <trkpt lat="44.45118" lon="5.7845">
        <ele>750</ele>
        <time>2021-08-31T13:44:21Z</time>
      </trkpt>
      <trkpt lat="44.45128" lon="5.78453">
        <ele>749.79998779297</ele>
        <time>2021-08-31T13:44:23Z</time>
      </trkpt>
      <trkpt lat="44.45138" lon="5.78449">
        <ele>749.59997558594</ele>
        <time>2021-08-31T13:44:25Z</time>
      </trkpt>
      <trkpt lat="44.45143" lon="5.78446">
        <ele>749.59997558594</ele>
        <time>2021-08-31T13:44:26Z</time>
      </trkpt>
      <trkpt lat="44.45156" lon="5.78433">
        <ele>749.40002441406</ele>
        <time>2021-08-31T13:44:29Z</time>
      </trkpt>
      <trkpt lat="44.45164" lon="5.78424">
        <ele>749.40002441406</ele>
        <time>2021-08-31T13:44:31Z</time>
      </trkpt>
      <trkpt lat="44.45169" lon="5.78421">
        <ele>749.40002441406</ele>
        <time>2021-08-31T13:44:32Z</time>
      </trkpt>
      <trkpt lat="44.45183" lon="5.78419">
        <ele>749.59997558594</ele>
        <time>2021-08-31T13:44:35Z</time>
      </trkpt>
      <trkpt lat="44.45201" lon="5.78432">
        <ele>749.40002441406</ele>
        <time>2021-08-31T13:44:39Z</time>
      </trkpt>
      <trkpt lat="44.45227" lon="5.78467">
        <ele>748.79998779297</ele>
        <time>2021-08-31T13:44:46Z</time>
      </trkpt>
      <trkpt lat="44.45253" lon="5.78499">
        <ele>748.79998779297</ele>
        <time>2021-08-31T13:44:53Z</time>
      </trkpt>
      <trkpt lat="44.45257" lon="5.78502">
        <ele>748.79998779297</ele>
        <time>2021-08-31T13:44:54Z</time>
      </trkpt>
      <trkpt lat="44.45267" lon="5.78507">
        <ele>748.59997558594</ele>
        <time>2021-08-31T13:44:56Z</time>
      </trkpt>
      <trkpt lat="44.45272" lon="5.78508">
        <ele>748.40002441406</ele>
        <time>2021-08-31T13:44:57Z</time>
      </trkpt>
      <trkpt lat="44.4529" lon="5.78502">
        <ele>748.20001220703</ele>
        <time>2021-08-31T13:45:01Z</time>
      </trkpt>
      <trkpt lat="44.453" lon="5.78494">
        <ele>748.59997558594</ele>
        <time>2021-08-31T13:45:04Z</time>
      </trkpt>
      <trkpt lat="44.45306" lon="5.78488">
        <ele>749</ele>
        <time>2021-08-31T13:45:06Z</time>
      </trkpt>
      <trkpt lat="44.45316" lon="5.78472">
        <ele>749.79998779297</ele>
        <time>2021-08-31T13:45:12Z</time>
      </trkpt>
      <trkpt lat="44.45334" lon="5.78448">
        <ele>750.79998779297</ele>
        <time>2021-08-31T13:45:22Z</time>
      </trkpt>
      <trkpt lat="44.45345" lon="5.78433">
        <ele>751.79998779297</ele>
        <time>2021-08-31T13:45:29Z</time>
      </trkpt>
      <trkpt lat="44.45348" lon="5.78429">
        <ele>752.20001220703</ele>
        <time>2021-08-31T13:45:31Z</time>
      </trkpt>
      <trkpt lat="44.45359" lon="5.78414">
        <ele>753</ele>
        <time>2021-08-31T13:45:38Z</time>
      </trkpt>
      <trkpt lat="44.45371" lon="5.78399">
        <ele>754.20001220703</ele>
        <time>2021-08-31T13:45:46Z</time>
      </trkpt>
      <trkpt lat="44.45372" lon="5.78397">
        <ele>754.40002441406</ele>
        <time>2021-08-31T13:45:47Z</time>
      </trkpt>
      <trkpt lat="44.45381" lon="5.78386">
        <ele>755</ele>
        <time>2021-08-31T13:45:53Z</time>
      </trkpt>
      <trkpt lat="44.45386" lon="5.78378">
        <ele>755.20001220703</ele>
        <time>2021-08-31T13:45:57Z</time>
      </trkpt>
      <trkpt lat="44.4539" lon="5.78373">
        <ele>755.59997558594</ele>
        <time>2021-08-31T13:46:00Z</time>
      </trkpt>
      <trkpt lat="44.45396" lon="5.78366">
        <ele>756.20001220703</ele>
        <time>2021-08-31T13:46:04Z</time>
      </trkpt>
      <trkpt lat="44.45401" lon="5.7836">
        <ele>756.79998779297</ele>
        <time>2021-08-31T13:46:07Z</time>
      </trkpt>
      <trkpt lat="44.45406" lon="5.78354">
        <ele>757.40002441406</ele>
        <time>2021-08-31T13:46:11Z</time>
      </trkpt>
      <trkpt lat="44.4541" lon="5.78349">
        <ele>757.59997558594</ele>
        <time>2021-08-31T13:46:14Z</time>
      </trkpt>
      <trkpt lat="44.4542" lon="5.78337">
        <ele>758.40002441406</ele>
        <time>2021-08-31T13:46:21Z</time>
      </trkpt>
      <trkpt lat="44.45422" lon="5.78336">
        <ele>758.59997558594</ele>
        <time>2021-08-31T13:46:22Z</time>
      </trkpt>
      <trkpt lat="44.45435" lon="5.78323">
        <ele>759.40002441406</ele>
        <time>2021-08-31T13:46:30Z</time>
      </trkpt>
      <trkpt lat="44.45437" lon="5.78322">
        <ele>759.59997558594</ele>
        <time>2021-08-31T13:46:31Z</time>
      </trkpt>
      <trkpt lat="44.45447" lon="5.78317">
        <ele>759.79998779297</ele>
        <time>2021-08-31T13:46:35Z</time>
      </trkpt>
      <trkpt lat="44.45464" lon="5.78316">
        <ele>760</ele>
        <time>2021-08-31T13:46:40Z</time>
      </trkpt>
      <trkpt lat="44.45497" lon="5.78317">
        <ele>759.20001220703</ele>
        <time>2021-08-31T13:46:47Z</time>
      </trkpt>
      <trkpt lat="44.45519" lon="5.78318">
        <ele>758.40002441406</ele>
        <time>2021-08-31T13:46:51Z</time>
      </trkpt>
      <trkpt lat="44.45547" lon="5.78321">
        <ele>757.40002441406</ele>
        <time>2021-08-31T13:46:56Z</time>
      </trkpt>
      <trkpt lat="44.45553" lon="5.7832">
        <ele>757.20001220703</ele>
        <time>2021-08-31T13:46:57Z</time>
      </trkpt>
      <trkpt lat="44.4557" lon="5.78318">
        <ele>756.40002441406</ele>
        <time>2021-08-31T13:47:00Z</time>
      </trkpt>
      <trkpt lat="44.45576" lon="5.78315">
        <ele>756.20001220703</ele>
        <time>2021-08-31T13:47:01Z</time>
      </trkpt>
      <trkpt lat="44.45596" lon="5.78295">
        <ele>755.40002441406</ele>
        <time>2021-08-31T13:47:05Z</time>
      </trkpt>
      <trkpt lat="44.456" lon="5.78289">
        <ele>755.20001220703</ele>
        <time>2021-08-31T13:47:06Z</time>
      </trkpt>
      <trkpt lat="44.45613" lon="5.78269">
        <ele>754</ele>
        <time>2021-08-31T13:47:09Z</time>
      </trkpt>
      <trkpt lat="44.45618" lon="5.78264">
        <ele>753.79998779297</ele>
        <time>2021-08-31T13:47:10Z</time>
      </trkpt>
      <trkpt lat="44.45637" lon="5.78264">
        <ele>753</ele>
        <time>2021-08-31T13:47:13Z</time>
      </trkpt>
      <trkpt lat="44.45652" lon="5.78281">
        <ele>752.59997558594</ele>
        <time>2021-08-31T13:47:16Z</time>
      </trkpt>
      <trkpt lat="44.45659" lon="5.78299">
        <ele>752</ele>
        <time>2021-08-31T13:47:18Z</time>
      </trkpt>
      <trkpt lat="44.45661" lon="5.78308">
        <ele>751.59997558594</ele>
        <time>2021-08-31T13:47:19Z</time>
      </trkpt>
      <trkpt lat="44.45664" lon="5.78317">
        <ele>751.20001220703</ele>
        <time>2021-08-31T13:47:20Z</time>
      </trkpt>
      <trkpt lat="44.45667" lon="5.78326">
        <ele>750.79998779297</ele>
        <time>2021-08-31T13:47:21Z</time>
      </trkpt>
      <trkpt lat="44.45673" lon="5.78345">
        <ele>749.59997558594</ele>
        <time>2021-08-31T13:47:23Z</time>
      </trkpt>
      <trkpt lat="44.45684" lon="5.78374">
        <ele>748.59997558594</ele>
        <time>2021-08-31T13:47:26Z</time>
      </trkpt>
      <trkpt lat="44.45688" lon="5.78383">
        <ele>748.20001220703</ele>
        <time>2021-08-31T13:47:27Z</time>
      </trkpt>
      <trkpt lat="44.45694" lon="5.78391">
        <ele>748</ele>
        <time>2021-08-31T13:47:28Z</time>
      </trkpt>
      <trkpt lat="44.45709" lon="5.78402">
        <ele>747.40002441406</ele>
        <time>2021-08-31T13:47:30Z</time>
      </trkpt>
      <trkpt lat="44.45725" lon="5.78408">
        <ele>746.59997558594</ele>
        <time>2021-08-31T13:47:32Z</time>
      </trkpt>
      <trkpt lat="44.45732" lon="5.7841">
        <ele>746.40002441406</ele>
        <time>2021-08-31T13:47:33Z</time>
      </trkpt>
      <trkpt lat="44.45747" lon="5.78411">
        <ele>745.79998779297</ele>
        <time>2021-08-31T13:47:35Z</time>
      </trkpt>
      <trkpt lat="44.45765" lon="5.78403">
        <ele>745.40002441406</ele>
        <time>2021-08-31T13:47:38Z</time>
      </trkpt>
      <trkpt lat="44.4577" lon="5.78399">
        <ele>745.40002441406</ele>
        <time>2021-08-31T13:47:39Z</time>
      </trkpt>
      <trkpt lat="44.45778" lon="5.78388">
        <ele>745.20001220703</ele>
        <time>2021-08-31T13:47:41Z</time>
      </trkpt>
      <trkpt lat="44.45783" lon="5.78383">
        <ele>745</ele>
        <time>2021-08-31T13:47:42Z</time>
      </trkpt>
      <trkpt lat="44.45787" lon="5.78378">
        <ele>744.79998779297</ele>
        <time>2021-08-31T13:47:43Z</time>
      </trkpt>
      <trkpt lat="44.45808" lon="5.78352">
        <ele>744.20001220703</ele>
        <time>2021-08-31T13:47:48Z</time>
      </trkpt>
      <trkpt lat="44.45836" lon="5.78317">
        <ele>743</ele>
        <time>2021-08-31T13:47:54Z</time>
      </trkpt>
      <trkpt lat="44.45846" lon="5.78305">
        <ele>742.20001220703</ele>
        <time>2021-08-31T13:47:56Z</time>
      </trkpt>
      <trkpt lat="44.45852" lon="5.783">
        <ele>741.79998779297</ele>
        <time>2021-08-31T13:47:57Z</time>
      </trkpt>
      <trkpt lat="44.45865" lon="5.78291">
        <ele>741.20001220703</ele>
        <time>2021-08-31T13:47:59Z</time>
      </trkpt>
      <trkpt lat="44.45879" lon="5.78285">
        <ele>740.59997558594</ele>
        <time>2021-08-31T13:48:01Z</time>
      </trkpt>
      <trkpt lat="44.45901" lon="5.78281">
        <ele>739.40002441406</ele>
        <time>2021-08-31T13:48:04Z</time>
      </trkpt>
      <trkpt lat="44.45909" lon="5.78281">
        <ele>738.79998779297</ele>
        <time>2021-08-31T13:48:05Z</time>
      </trkpt>
      <trkpt lat="44.45925" lon="5.78283">
        <ele>737.79998779297</ele>
        <time>2021-08-31T13:48:07Z</time>
      </trkpt>
      <trkpt lat="44.45933" lon="5.78286">
        <ele>737.40002441406</ele>
        <time>2021-08-31T13:48:08Z</time>
      </trkpt>
      <trkpt lat="44.45941" lon="5.78293">
        <ele>737</ele>
        <time>2021-08-31T13:48:09Z</time>
      </trkpt>
      <trkpt lat="44.45947" lon="5.78303">
        <ele>736.59997558594</ele>
        <time>2021-08-31T13:48:10Z</time>
      </trkpt>
      <trkpt lat="44.45959" lon="5.78322">
        <ele>735</ele>
        <time>2021-08-31T13:48:12Z</time>
      </trkpt>
      <trkpt lat="44.45976" lon="5.78329">
        <ele>734.20001220703</ele>
        <time>2021-08-31T13:48:14Z</time>
      </trkpt>
      <trkpt lat="44.45984" lon="5.7833">
        <ele>733.79998779297</ele>
        <time>2021-08-31T13:48:15Z</time>
      </trkpt>
      <trkpt lat="44.45993" lon="5.7833">
        <ele>733.40002441406</ele>
        <time>2021-08-31T13:48:16Z</time>
      </trkpt>
      <trkpt lat="44.46008" lon="5.78332">
        <ele>732.79998779297</ele>
        <time>2021-08-31T13:48:18Z</time>
      </trkpt>
      <trkpt lat="44.46016" lon="5.78332">
        <ele>732.59997558594</ele>
        <time>2021-08-31T13:48:19Z</time>
      </trkpt>
      <trkpt lat="44.46042" lon="5.78327">
        <ele>731.59997558594</ele>
        <time>2021-08-31T13:48:24Z</time>
      </trkpt>
      <trkpt lat="44.46048" lon="5.78324">
        <ele>731.40002441406</ele>
        <time>2021-08-31T13:48:25Z</time>
      </trkpt>
      <trkpt lat="44.46063" lon="5.7831">
        <ele>730.79998779297</ele>
        <time>2021-08-31T13:48:28Z</time>
      </trkpt>
      <trkpt lat="44.46071" lon="5.783">
        <ele>730.79998779297</ele>
        <time>2021-08-31T13:48:30Z</time>
      </trkpt>
      <trkpt lat="44.46085" lon="5.78281">
        <ele>730.79998779297</ele>
        <time>2021-08-31T13:48:34Z</time>
      </trkpt>
      <trkpt lat="44.46097" lon="5.78268">
        <ele>730.79998779297</ele>
        <time>2021-08-31T13:48:37Z</time>
      </trkpt>
      <trkpt lat="44.46111" lon="5.78259">
        <ele>730.59997558594</ele>
        <time>2021-08-31T13:48:40Z</time>
      </trkpt>
      <trkpt lat="44.46127" lon="5.78255">
        <ele>730.59997558594</ele>
        <time>2021-08-31T13:48:43Z</time>
      </trkpt>
      <trkpt lat="44.46132" lon="5.78255">
        <ele>730.59997558594</ele>
        <time>2021-08-31T13:48:44Z</time>
      </trkpt>
      <trkpt lat="44.46138" lon="5.78255">
        <ele>730.40002441406</ele>
        <time>2021-08-31T13:48:45Z</time>
      </trkpt>
      <trkpt lat="44.46144" lon="5.78254">
        <ele>730.20001220703</ele>
        <time>2021-08-31T13:48:46Z</time>
      </trkpt>
      <trkpt lat="44.46186" lon="5.78252">
        <ele>729.20001220703</ele>
        <time>2021-08-31T13:48:53Z</time>
      </trkpt>
      <trkpt lat="44.46216" lon="5.7826">
        <ele>728</ele>
        <time>2021-08-31T13:48:58Z</time>
      </trkpt>
      <trkpt lat="44.46221" lon="5.78264">
        <ele>728</ele>
        <time>2021-08-31T13:48:59Z</time>
      </trkpt>
      <trkpt lat="44.46245" lon="5.7828">
        <ele>727.20001220703</ele>
        <time>2021-08-31T13:49:03Z</time>
      </trkpt>
      <trkpt lat="44.46256" lon="5.78288">
        <ele>727</ele>
        <time>2021-08-31T13:49:05Z</time>
      </trkpt>
      <trkpt lat="44.46278" lon="5.78306">
        <ele>726.59997558594</ele>
        <time>2021-08-31T13:49:09Z</time>
      </trkpt>
      <trkpt lat="44.46296" lon="5.78317">
        <ele>726.20001220703</ele>
        <time>2021-08-31T13:49:12Z</time>
      </trkpt>
      <trkpt lat="44.46309" lon="5.7832">
        <ele>725.79998779297</ele>
        <time>2021-08-31T13:49:14Z</time>
      </trkpt>
      <trkpt lat="44.46322" lon="5.78321">
        <ele>725.59997558594</ele>
        <time>2021-08-31T13:49:16Z</time>
      </trkpt>
      <trkpt lat="44.46345" lon="5.78321">
        <ele>725.40002441406</ele>
        <time>2021-08-31T13:49:20Z</time>
      </trkpt>
      <trkpt lat="44.46386" lon="5.78327">
        <ele>725.40002441406</ele>
        <time>2021-08-31T13:49:27Z</time>
      </trkpt>
      <trkpt lat="44.46415" lon="5.78325">
        <ele>725</ele>
        <time>2021-08-31T13:49:32Z</time>
      </trkpt>
      <trkpt lat="44.46426" lon="5.78319">
        <ele>724.79998779297</ele>
        <time>2021-08-31T13:49:34Z</time>
      </trkpt>
      <trkpt lat="44.46447" lon="5.78308">
        <ele>724.59997558594</ele>
        <time>2021-08-31T13:49:38Z</time>
      </trkpt>
      <trkpt lat="44.46458" lon="5.78304">
        <ele>724.59997558594</ele>
        <time>2021-08-31T13:49:40Z</time>
      </trkpt>
      <trkpt lat="44.46475" lon="5.78305">
        <ele>724.40002441406</ele>
        <time>2021-08-31T13:49:43Z</time>
      </trkpt>
      <trkpt lat="44.46481" lon="5.78306">
        <ele>724.20001220703</ele>
        <time>2021-08-31T13:49:44Z</time>
      </trkpt>
      <trkpt lat="44.46515" lon="5.78317">
        <ele>723.79998779297</ele>
        <time>2021-08-31T13:49:50Z</time>
      </trkpt>
      <trkpt lat="44.46555" lon="5.78331">
        <ele>723</ele>
        <time>2021-08-31T13:49:57Z</time>
      </trkpt>
      <trkpt lat="44.46592" lon="5.78354">
        <ele>722.79998779297</ele>
        <time>2021-08-31T13:50:04Z</time>
      </trkpt>
      <trkpt lat="44.46613" lon="5.78369">
        <ele>722.59997558594</ele>
        <time>2021-08-31T13:50:08Z</time>
      </trkpt>
      <trkpt lat="44.4664" lon="5.78387">
        <ele>722.20001220703</ele>
        <time>2021-08-31T13:50:13Z</time>
      </trkpt>
      <trkpt lat="44.46665" lon="5.7841">
        <ele>721.79998779297</ele>
        <time>2021-08-31T13:50:18Z</time>
      </trkpt>
      <trkpt lat="44.46669" lon="5.78416">
        <ele>721.79998779297</ele>
        <time>2021-08-31T13:50:19Z</time>
      </trkpt>
      <trkpt lat="44.46679" lon="5.78436">
        <ele>721.59997558594</ele>
        <time>2021-08-31T13:50:22Z</time>
      </trkpt>
      <trkpt lat="44.46688" lon="5.78458">
        <ele>721.59997558594</ele>
        <time>2021-08-31T13:50:25Z</time>
      </trkpt>
      <trkpt lat="44.46702" lon="5.78483">
        <ele>721.20001220703</ele>
        <time>2021-08-31T13:50:29Z</time>
      </trkpt>
      <trkpt lat="44.4671" lon="5.78494">
        <ele>721.20001220703</ele>
        <time>2021-08-31T13:50:31Z</time>
      </trkpt>
      <trkpt lat="44.46741" lon="5.78523">
        <ele>721.40002441406</ele>
        <time>2021-08-31T13:50:38Z</time>
      </trkpt>
      <trkpt lat="44.46778" lon="5.78556">
        <ele>720.79998779297</ele>
        <time>2021-08-31T13:50:45Z</time>
      </trkpt>
      <trkpt lat="44.46789" lon="5.78566">
        <ele>720.59997558594</ele>
        <time>2021-08-31T13:50:47Z</time>
      </trkpt>
      <trkpt lat="44.46815" lon="5.78588">
        <ele>719.79998779297</ele>
        <time>2021-08-31T13:50:52Z</time>
      </trkpt>
      <trkpt lat="44.46819" lon="5.78592">
        <ele>719.59997558594</ele>
        <time>2021-08-31T13:50:53Z</time>
      </trkpt>
      <trkpt lat="44.46849" lon="5.78619">
        <ele>719</ele>
        <time>2021-08-31T13:50:59Z</time>
      </trkpt>
      <trkpt lat="44.46869" lon="5.78637">
        <ele>718.40002441406</ele>
        <time>2021-08-31T13:51:03Z</time>
      </trkpt>
      <trkpt lat="44.46883" lon="5.78649">
        <ele>718.20001220703</ele>
        <time>2021-08-31T13:51:06Z</time>
      </trkpt>
      <trkpt lat="44.46908" lon="5.78663">
        <ele>718.59997558594</ele>
        <time>2021-08-31T13:51:12Z</time>
      </trkpt>
      <trkpt lat="44.4692" lon="5.7867">
        <ele>719</ele>
        <time>2021-08-31T13:51:15Z</time>
      </trkpt>
      <trkpt lat="44.46939" lon="5.78686">
        <ele>719.40002441406</ele>
        <time>2021-08-31T13:51:20Z</time>
      </trkpt>
      <trkpt lat="44.46959" lon="5.78716">
        <ele>719.40002441406</ele>
        <time>2021-08-31T13:51:26Z</time>
      </trkpt>
      <trkpt lat="44.46966" lon="5.78727">
        <ele>719.20001220703</ele>
        <time>2021-08-31T13:51:28Z</time>
      </trkpt>
      <trkpt lat="44.46985" lon="5.78745">
        <ele>718.59997558594</ele>
        <time>2021-08-31T13:51:32Z</time>
      </trkpt>
      <trkpt lat="44.46995" lon="5.78751">
        <ele>718.20001220703</ele>
        <time>2021-08-31T13:51:34Z</time>
      </trkpt>
      <trkpt lat="44.47012" lon="5.78757">
        <ele>718</ele>
        <time>2021-08-31T13:51:37Z</time>
      </trkpt>
      <trkpt lat="44.47022" lon="5.78759">
        <ele>717.79998779297</ele>
        <time>2021-08-31T13:51:39Z</time>
      </trkpt>
      <trkpt lat="44.47033" lon="5.78755">
        <ele>717.59997558594</ele>
        <time>2021-08-31T13:51:41Z</time>
      </trkpt>
      <trkpt lat="44.47042" lon="5.78746">
        <ele>717.40002441406</ele>
        <time>2021-08-31T13:51:43Z</time>
      </trkpt>
      <trkpt lat="44.4705" lon="5.78736">
        <ele>717</ele>
        <time>2021-08-31T13:51:45Z</time>
      </trkpt>
      <trkpt lat="44.4706" lon="5.78719">
        <ele>716.79998779297</ele>
        <time>2021-08-31T13:51:48Z</time>
      </trkpt>
      <trkpt lat="44.47069" lon="5.78702">
        <ele>717</ele>
        <time>2021-08-31T13:51:51Z</time>
      </trkpt>
      <trkpt lat="44.47083" lon="5.78675">
        <ele>717.40002441406</ele>
        <time>2021-08-31T13:51:56Z</time>
      </trkpt>
      <trkpt lat="44.47092" lon="5.78661">
        <ele>717.40002441406</ele>
        <time>2021-08-31T13:51:59Z</time>
      </trkpt>
      <trkpt lat="44.47117" lon="5.78615">
        <ele>717.79998779297</ele>
        <time>2021-08-31T13:52:09Z</time>
      </trkpt>
      <trkpt lat="44.47137" lon="5.78583">
        <ele>718.40002441406</ele>
        <time>2021-08-31T13:52:16Z</time>
      </trkpt>
      <trkpt lat="44.47143" lon="5.78573">
        <ele>718.40002441406</ele>
        <time>2021-08-31T13:52:18Z</time>
      </trkpt>
      <trkpt lat="44.47167" lon="5.78529">
        <ele>717.79998779297</ele>
        <time>2021-08-31T13:52:26Z</time>
      </trkpt>
      <trkpt lat="44.47189" lon="5.78492">
        <ele>717.40002441406</ele>
        <time>2021-08-31T13:52:33Z</time>
      </trkpt>
      <trkpt lat="44.47197" lon="5.78477">
        <ele>717.20001220703</ele>
        <time>2021-08-31T13:52:36Z</time>
      </trkpt>
      <trkpt lat="44.47223" lon="5.78434">
        <ele>717.20001220703</ele>
        <time>2021-08-31T13:52:45Z</time>
      </trkpt>
      <trkpt lat="44.47247" lon="5.78391">
        <ele>717.40002441406</ele>
        <time>2021-08-31T13:52:54Z</time>
      </trkpt>
      <trkpt lat="44.47268" lon="5.78353">
        <ele>717.40002441406</ele>
        <time>2021-08-31T13:53:02Z</time>
      </trkpt>
      <trkpt lat="44.47292" lon="5.78313">
        <ele>717.79998779297</ele>
        <time>2021-08-31T13:53:11Z</time>
      </trkpt>
      <trkpt lat="44.47309" lon="5.78282">
        <ele>718</ele>
        <time>2021-08-31T13:53:18Z</time>
      </trkpt>
      <trkpt lat="44.47329" lon="5.7825">
        <ele>718.40002441406</ele>
        <time>2021-08-31T13:53:25Z</time>
      </trkpt>
      <trkpt lat="44.47331" lon="5.78245">
        <ele>718.40002441406</ele>
        <time>2021-08-31T13:53:26Z</time>
      </trkpt>
      <trkpt lat="44.47354" lon="5.78205">
        <ele>719.20001220703</ele>
        <time>2021-08-31T13:53:35Z</time>
      </trkpt>
      <trkpt lat="44.47359" lon="5.78196">
        <ele>719.40002441406</ele>
        <time>2021-08-31T13:53:37Z</time>
      </trkpt>
      <trkpt lat="44.47369" lon="5.78178">
        <ele>720</ele>
        <time>2021-08-31T13:53:42Z</time>
      </trkpt>
      <trkpt lat="44.47373" lon="5.78171">
        <ele>720.40002441406</ele>
        <time>2021-08-31T13:53:44Z</time>
      </trkpt>
      <trkpt lat="44.47383" lon="5.78155">
        <ele>721</ele>
        <time>2021-08-31T13:53:50Z</time>
      </trkpt>
      <trkpt lat="44.4739" lon="5.78153">
        <ele>721.20001220703</ele>
        <time>2021-08-31T13:53:53Z</time>
      </trkpt>
      <trkpt lat="44.47393" lon="5.78155">
        <ele>721.40002441406</ele>
        <time>2021-08-31T13:53:54Z</time>
      </trkpt>
      <trkpt lat="44.47395" lon="5.78156">
        <ele>721.40002441406</ele>
        <time>2021-08-31T13:53:55Z</time>
      </trkpt>
      <trkpt lat="44.47409" lon="5.78163">
        <ele>722</ele>
        <time>2021-08-31T13:54:00Z</time>
      </trkpt>
      <trkpt lat="44.47436" lon="5.78177">
        <ele>722</ele>
        <time>2021-08-31T13:54:09Z</time>
      </trkpt>
      <trkpt lat="44.47462" lon="5.78189">
        <ele>722.40002441406</ele>
        <time>2021-08-31T13:54:17Z</time>
      </trkpt>
      <trkpt lat="44.47471" lon="5.78192">
        <ele>722.59997558594</ele>
        <time>2021-08-31T13:54:20Z</time>
      </trkpt>
      <trkpt lat="44.47483" lon="5.78196">
        <ele>722.79998779297</ele>
        <time>2021-08-31T13:54:24Z</time>
      </trkpt>
      <trkpt lat="44.47504" lon="5.78206">
        <ele>723.40002441406</ele>
        <time>2021-08-31T13:54:32Z</time>
      </trkpt>
      <trkpt lat="44.47507" lon="5.78208">
        <ele>723.59997558594</ele>
        <time>2021-08-31T13:54:33Z</time>
      </trkpt>
      <trkpt lat="44.47521" lon="5.78221">
        <ele>724.40002441406</ele>
        <time>2021-08-31T13:54:40Z</time>
      </trkpt>
      <trkpt lat="44.47525" lon="5.78225">
        <ele>724.59997558594</ele>
        <time>2021-08-31T13:54:42Z</time>
      </trkpt>
      <trkpt lat="44.47536" lon="5.78239">
        <ele>725.59997558594</ele>
        <time>2021-08-31T13:54:48Z</time>
      </trkpt>
      <trkpt lat="44.47537" lon="5.78241">
        <ele>725.79998779297</ele>
        <time>2021-08-31T13:54:49Z</time>
      </trkpt>
      <trkpt lat="44.47549" lon="5.7826">
        <ele>726.59997558594</ele>
        <time>2021-08-31T13:54:57Z</time>
      </trkpt>
      <trkpt lat="44.47554" lon="5.78268">
        <ele>726.79998779297</ele>
        <time>2021-08-31T13:55:00Z</time>
      </trkpt>
      <trkpt lat="44.47561" lon="5.7828">
        <ele>727</ele>
        <time>2021-08-31T13:55:04Z</time>
      </trkpt>
      <trkpt lat="44.47581" lon="5.78304">
        <ele>727.40002441406</ele>
        <time>2021-08-31T13:55:13Z</time>
      </trkpt>
      <trkpt lat="44.47602" lon="5.7832">
        <ele>727.79998779297</ele>
        <time>2021-08-31T13:55:21Z</time>
      </trkpt>
      <trkpt lat="44.47607" lon="5.78322">
        <ele>727.79998779297</ele>
        <time>2021-08-31T13:55:23Z</time>
      </trkpt>
      <trkpt lat="44.47617" lon="5.78327">
        <ele>728.20001220703</ele>
        <time>2021-08-31T13:55:27Z</time>
      </trkpt>
      <trkpt lat="44.47639" lon="5.78342">
        <ele>728.59997558594</ele>
        <time>2021-08-31T13:55:36Z</time>
      </trkpt>
      <trkpt lat="44.47655" lon="5.78356">
        <ele>728.79998779297</ele>
        <time>2021-08-31T13:55:43Z</time>
      </trkpt>
      <trkpt lat="44.47661" lon="5.78363">
        <ele>729.40002441406</ele>
        <time>2021-08-31T13:55:46Z</time>
      </trkpt>
      <trkpt lat="44.47671" lon="5.78375">
        <ele>729.79998779297</ele>
        <time>2021-08-31T13:55:51Z</time>
      </trkpt>
      <trkpt lat="44.47675" lon="5.78378">
        <ele>730</ele>
        <time>2021-08-31T13:55:53Z</time>
      </trkpt>
      <trkpt lat="44.47688" lon="5.78385">
        <ele>731</ele>
        <time>2021-08-31T13:55:59Z</time>
      </trkpt>
      <trkpt lat="44.47691" lon="5.78386">
        <ele>731</ele>
        <time>2021-08-31T13:56:00Z</time>
      </trkpt>
      <trkpt lat="44.47707" lon="5.7839">
        <ele>731.59997558594</ele>
        <time>2021-08-31T13:56:07Z</time>
      </trkpt>
      <trkpt lat="44.47722" lon="5.78393">
        <ele>732</ele>
        <time>2021-08-31T13:56:13Z</time>
      </trkpt>
      <trkpt lat="44.47724" lon="5.78393">
        <ele>732</ele>
        <time>2021-08-31T13:56:14Z</time>
      </trkpt>
      <trkpt lat="44.4774" lon="5.78392">
        <ele>733</ele>
        <time>2021-08-31T13:56:21Z</time>
      </trkpt>
      <trkpt lat="44.47744" lon="5.78392">
        <ele>733.20001220703</ele>
        <time>2021-08-31T13:56:23Z</time>
      </trkpt>
      <trkpt lat="44.47758" lon="5.78392">
        <ele>734</ele>
        <time>2021-08-31T13:56:30Z</time>
      </trkpt>
      <trkpt lat="44.47762" lon="5.78392">
        <ele>734.40002441406</ele>
        <time>2021-08-31T13:56:32Z</time>
      </trkpt>
      <trkpt lat="44.47772" lon="5.78392">
        <ele>735.20001220703</ele>
        <time>2021-08-31T13:56:37Z</time>
      </trkpt>
      <trkpt lat="44.4778" lon="5.78391">
        <ele>735.59997558594</ele>
        <time>2021-08-31T13:56:41Z</time>
      </trkpt>
      <trkpt lat="44.47787" lon="5.7839">
        <ele>736.20001220703</ele>
        <time>2021-08-31T13:56:44Z</time>
      </trkpt>
      <trkpt lat="44.47796" lon="5.78386">
        <ele>736.40002441406</ele>
        <time>2021-08-31T13:56:47Z</time>
      </trkpt>
      <trkpt lat="44.47816" lon="5.78382">
        <ele>736.20001220703</ele>
        <time>2021-08-31T13:56:52Z</time>
      </trkpt>
      <trkpt lat="44.47821" lon="5.78383">
        <ele>736</ele>
        <time>2021-08-31T13:56:53Z</time>
      </trkpt>
      <trkpt lat="44.47851" lon="5.7839">
        <ele>735.20001220703</ele>
        <time>2021-08-31T13:57:00Z</time>
      </trkpt>
      <trkpt lat="44.47855" lon="5.78391">
        <ele>735</ele>
        <time>2021-08-31T13:57:01Z</time>
      </trkpt>
      <trkpt lat="44.47881" lon="5.78399">
        <ele>734.40002441406</ele>
        <time>2021-08-31T13:57:07Z</time>
      </trkpt>
      <trkpt lat="44.47903" lon="5.78404">
        <ele>734.20001220703</ele>
        <time>2021-08-31T13:57:12Z</time>
      </trkpt>
      <trkpt lat="44.47913" lon="5.78403">
        <ele>734.20001220703</ele>
        <time>2021-08-31T13:57:14Z</time>
      </trkpt>
      <trkpt lat="44.47929" lon="5.78397">
        <ele>734.20001220703</ele>
        <time>2021-08-31T13:57:17Z</time>
      </trkpt>
      <trkpt lat="44.47939" lon="5.78392">
        <ele>734</ele>
        <time>2021-08-31T13:57:19Z</time>
      </trkpt>
      <trkpt lat="44.47944" lon="5.78388">
        <ele>733.79998779297</ele>
        <time>2021-08-31T13:57:20Z</time>
      </trkpt>
      <trkpt lat="44.47982" lon="5.78365">
        <ele>733</ele>
        <time>2021-08-31T13:57:27Z</time>
      </trkpt>
      <trkpt lat="44.48016" lon="5.78363">
        <ele>731.79998779297</ele>
        <time>2021-08-31T13:57:33Z</time>
      </trkpt>
      <trkpt lat="44.48048" lon="5.78365">
        <ele>730.79998779297</ele>
        <time>2021-08-31T13:57:38Z</time>
      </trkpt>
      <trkpt lat="44.48061" lon="5.78363">
        <ele>730.40002441406</ele>
        <time>2021-08-31T13:57:40Z</time>
      </trkpt>
      <trkpt lat="44.4808" lon="5.78356">
        <ele>729.59997558594</ele>
        <time>2021-08-31T13:57:43Z</time>
      </trkpt>
      <trkpt lat="44.48099" lon="5.78347">
        <ele>728.79998779297</ele>
        <time>2021-08-31T13:57:46Z</time>
      </trkpt>
      <trkpt lat="44.48105" lon="5.78344">
        <ele>728.59997558594</ele>
        <time>2021-08-31T13:57:47Z</time>
      </trkpt>
      <trkpt lat="44.48147" lon="5.78323">
        <ele>727.59997558594</ele>
        <time>2021-08-31T13:57:54Z</time>
      </trkpt>
      <trkpt lat="44.48183" lon="5.78304">
        <ele>726.79998779297</ele>
        <time>2021-08-31T13:58:01Z</time>
      </trkpt>
      <trkpt lat="44.48219" lon="5.7829">
        <ele>727.20001220703</ele>
        <time>2021-08-31T13:58:09Z</time>
      </trkpt>
      <trkpt lat="44.48247" lon="5.78281">
        <ele>727.59997558594</ele>
        <time>2021-08-31T13:58:16Z</time>
      </trkpt>
      <trkpt lat="44.4827" lon="5.78273">
        <ele>728.40002441406</ele>
        <time>2021-08-31T13:58:23Z</time>
      </trkpt>
      <trkpt lat="44.48273" lon="5.78272">
        <ele>728.59997558594</ele>
        <time>2021-08-31T13:58:24Z</time>
      </trkpt>
      <trkpt lat="44.48292" lon="5.78262">
        <ele>729.59997558594</ele>
        <time>2021-08-31T13:58:31Z</time>
      </trkpt>
      <trkpt lat="44.48311" lon="5.78251">
        <ele>730.59997558594</ele>
        <time>2021-08-31T13:58:38Z</time>
      </trkpt>
      <trkpt lat="44.48314" lon="5.78249">
        <ele>730.79998779297</ele>
        <time>2021-08-31T13:58:39Z</time>
      </trkpt>
      <trkpt lat="44.48328" lon="5.78236">
        <ele>731.59997558594</ele>
        <time>2021-08-31T13:58:45Z</time>
      </trkpt>
      <trkpt lat="44.48342" lon="5.78213">
        <ele>732.59997558594</ele>
        <time>2021-08-31T13:58:52Z</time>
      </trkpt>
      <trkpt lat="44.48344" lon="5.78209">
        <ele>732.79998779297</ele>
        <time>2021-08-31T13:58:53Z</time>
      </trkpt>
      <trkpt lat="44.48356" lon="5.78182">
        <ele>733.59997558594</ele>
        <time>2021-08-31T13:59:00Z</time>
      </trkpt>
      <trkpt lat="44.48359" lon="5.78175">
        <ele>733.79998779297</ele>
        <time>2021-08-31T13:59:02Z</time>
      </trkpt>
      <trkpt lat="44.48366" lon="5.78162">
        <ele>734.40002441406</ele>
        <time>2021-08-31T13:59:06Z</time>
      </trkpt>
      <trkpt lat="44.48382" lon="5.78134">
        <ele>734.59997558594</ele>
        <time>2021-08-31T13:59:13Z</time>
      </trkpt>
      <trkpt lat="44.48395" lon="5.78118">
        <ele>734.20001220703</ele>
        <time>2021-08-31T13:59:16Z</time>
      </trkpt>
      <trkpt lat="44.48407" lon="5.78109">
        <ele>733.79998779297</ele>
        <time>2021-08-31T13:59:18Z</time>
      </trkpt>
      <trkpt lat="44.48435" lon="5.781">
        <ele>732.59997558594</ele>
        <time>2021-08-31T13:59:22Z</time>
      </trkpt>
      <trkpt lat="44.48457" lon="5.781">
        <ele>731.20001220703</ele>
        <time>2021-08-31T13:59:25Z</time>
      </trkpt>
      <trkpt lat="44.48473" lon="5.78101">
        <ele>730.20001220703</ele>
        <time>2021-08-31T13:59:27Z</time>
      </trkpt>
      <trkpt lat="44.4848" lon="5.78101">
        <ele>729.79998779297</ele>
        <time>2021-08-31T13:59:28Z</time>
      </trkpt>
      <trkpt lat="44.48503" lon="5.78106">
        <ele>728.59997558594</ele>
        <time>2021-08-31T13:59:31Z</time>
      </trkpt>
      <trkpt lat="44.48516" lon="5.78112">
        <ele>728</ele>
        <time>2021-08-31T13:59:33Z</time>
      </trkpt>
      <trkpt lat="44.48528" lon="5.78119">
        <ele>727.59997558594</ele>
        <time>2021-08-31T13:59:35Z</time>
      </trkpt>
      <trkpt lat="44.48544" lon="5.78132">
        <ele>727</ele>
        <time>2021-08-31T13:59:38Z</time>
      </trkpt>
      <trkpt lat="44.48555" lon="5.78141">
        <ele>726.59997558594</ele>
        <time>2021-08-31T13:59:40Z</time>
      </trkpt>
      <trkpt lat="44.48578" lon="5.78156">
        <ele>725.59997558594</ele>
        <time>2021-08-31T13:59:44Z</time>
      </trkpt>
      <trkpt lat="44.48584" lon="5.78159">
        <ele>725.59997558594</ele>
        <time>2021-08-31T13:59:45Z</time>
      </trkpt>
      <trkpt lat="44.48591" lon="5.7816">
        <ele>725.40002441406</ele>
        <time>2021-08-31T13:59:46Z</time>
      </trkpt>
      <trkpt lat="44.48604" lon="5.7816">
        <ele>725</ele>
        <time>2021-08-31T13:59:48Z</time>
      </trkpt>
      <trkpt lat="44.48618" lon="5.78158">
        <ele>724.40002441406</ele>
        <time>2021-08-31T13:59:50Z</time>
      </trkpt>
      <trkpt lat="44.48649" lon="5.78153">
        <ele>723.20001220703</ele>
        <time>2021-08-31T13:59:54Z</time>
      </trkpt>
      <trkpt lat="44.48657" lon="5.78152">
        <ele>722.79998779297</ele>
        <time>2021-08-31T13:59:55Z</time>
      </trkpt>
      <trkpt lat="44.48672" lon="5.78149">
        <ele>722.20001220703</ele>
        <time>2021-08-31T13:59:57Z</time>
      </trkpt>
      <trkpt lat="44.48703" lon="5.78144">
        <ele>721</ele>
        <time>2021-08-31T14:00:01Z</time>
      </trkpt>
      <trkpt lat="44.48724" lon="5.78141">
        <ele>720.59997558594</ele>
        <time>2021-08-31T14:00:04Z</time>
      </trkpt>
      <trkpt lat="44.48759" lon="5.78138">
        <ele>720</ele>
        <time>2021-08-31T14:00:09Z</time>
      </trkpt>
      <trkpt lat="44.48772" lon="5.78138">
        <ele>719.79998779297</ele>
        <time>2021-08-31T14:00:11Z</time>
      </trkpt>
      <trkpt lat="44.48806" lon="5.78143">
        <ele>719.59997558594</ele>
        <time>2021-08-31T14:00:17Z</time>
      </trkpt>
      <trkpt lat="44.48839" lon="5.78149">
        <ele>719.79998779297</ele>
        <time>2021-08-31T14:00:24Z</time>
      </trkpt>
      <trkpt lat="44.48875" lon="5.78155">
        <ele>720</ele>
        <time>2021-08-31T14:00:33Z</time>
      </trkpt>
      <trkpt lat="44.48908" lon="5.78161">
        <ele>720.40002441406</ele>
        <time>2021-08-31T14:00:42Z</time>
      </trkpt>
      <trkpt lat="44.48933" lon="5.78165">
        <ele>721</ele>
        <time>2021-08-31T14:00:49Z</time>
      </trkpt>
      <trkpt lat="44.48937" lon="5.78166">
        <ele>721.20001220703</ele>
        <time>2021-08-31T14:00:50Z</time>
      </trkpt>
      <trkpt lat="44.48968" lon="5.7817">
        <ele>722</ele>
        <time>2021-08-31T14:00:59Z</time>
      </trkpt>
      <trkpt lat="44.48971" lon="5.78171">
        <ele>722.20001220703</ele>
        <time>2021-08-31T14:01:00Z</time>
      </trkpt>
      <trkpt lat="44.48999" lon="5.78176">
        <ele>722.79998779297</ele>
        <time>2021-08-31T14:01:08Z</time>
      </trkpt>
      <trkpt lat="44.49021" lon="5.78179">
        <ele>722.79998779297</ele>
        <time>2021-08-31T14:01:15Z</time>
      </trkpt>
      <trkpt lat="44.49024" lon="5.7818">
        <ele>722.20001220703</ele>
        <time>2021-08-31T14:01:47Z</time>
      </trkpt>
      <trkpt lat="44.49037" lon="5.78182">
        <ele>722.40002441406</ele>
        <time>2021-08-31T14:01:53Z</time>
      </trkpt>
      <trkpt lat="44.49063" lon="5.78186">
        <ele>722.40002441406</ele>
        <time>2021-08-31T14:02:00Z</time>
      </trkpt>
      <trkpt lat="44.49097" lon="5.78193">
        <ele>722.40002441406</ele>
        <time>2021-08-31T14:02:08Z</time>
      </trkpt>
      <trkpt lat="44.49128" lon="5.78206">
        <ele>722.40002441406</ele>
        <time>2021-08-31T14:02:15Z</time>
      </trkpt>
      <trkpt lat="44.49132" lon="5.78211">
        <ele>722.40002441406</ele>
        <time>2021-08-31T14:02:16Z</time>
      </trkpt>
      <trkpt lat="44.49148" lon="5.78238">
        <ele>722.40002441406</ele>
        <time>2021-08-31T14:02:22Z</time>
      </trkpt>
      <trkpt lat="44.49174" lon="5.78281">
        <ele>723</ele>
        <time>2021-08-31T14:02:32Z</time>
      </trkpt>
      <trkpt lat="44.49188" lon="5.78307">
        <ele>723.20001220703</ele>
        <time>2021-08-31T14:02:38Z</time>
      </trkpt>
      <trkpt lat="44.49193" lon="5.78315">
        <ele>723.40002441406</ele>
        <time>2021-08-31T14:02:40Z</time>
      </trkpt>
      <trkpt lat="44.49196" lon="5.78319">
        <ele>723.40002441406</ele>
        <time>2021-08-31T14:02:41Z</time>
      </trkpt>
      <trkpt lat="44.49214" lon="5.78351">
        <ele>723.79998779297</ele>
        <time>2021-08-31T14:02:49Z</time>
      </trkpt>
      <trkpt lat="44.49234" lon="5.78381">
        <ele>724.40002441406</ele>
        <time>2021-08-31T14:02:57Z</time>
      </trkpt>
      <trkpt lat="44.4926" lon="5.78404">
        <ele>725.20001220703</ele>
        <time>2021-08-31T14:03:06Z</time>
      </trkpt>
      <trkpt lat="44.49265" lon="5.78409">
        <ele>725.40002441406</ele>
        <time>2021-08-31T14:03:08Z</time>
      </trkpt>
      <trkpt lat="44.4928" lon="5.78421">
        <ele>725.79998779297</ele>
        <time>2021-08-31T14:03:13Z</time>
      </trkpt>
      <trkpt lat="44.49294" lon="5.78436">
        <ele>726.59997558594</ele>
        <time>2021-08-31T14:03:19Z</time>
      </trkpt>
      <trkpt lat="44.49299" lon="5.7844">
        <ele>726.59997558594</ele>
        <time>2021-08-31T14:03:21Z</time>
      </trkpt>
      <trkpt lat="44.49318" lon="5.78457">
        <ele>727.40002441406</ele>
        <time>2021-08-31T14:03:29Z</time>
      </trkpt>
      <trkpt lat="44.49328" lon="5.78466">
        <ele>727.59997558594</ele>
        <time>2021-08-31T14:03:33Z</time>
      </trkpt>
      <trkpt lat="44.49338" lon="5.78472">
        <ele>727.79998779297</ele>
        <time>2021-08-31T14:03:37Z</time>
      </trkpt>
      <trkpt lat="44.49356" lon="5.78489">
        <ele>728.59997558594</ele>
        <time>2021-08-31T14:03:45Z</time>
      </trkpt>
      <trkpt lat="44.49372" lon="5.78504">
        <ele>729.59997558594</ele>
        <time>2021-08-31T14:03:52Z</time>
      </trkpt>
      <trkpt lat="44.49374" lon="5.78507">
        <ele>729.59997558594</ele>
        <time>2021-08-31T14:03:53Z</time>
      </trkpt>
      <trkpt lat="44.49388" lon="5.78521">
        <ele>730.20001220703</ele>
        <time>2021-08-31T14:03:59Z</time>
      </trkpt>
      <trkpt lat="44.49407" lon="5.78537">
        <ele>730.79998779297</ele>
        <time>2021-08-31T14:04:07Z</time>
      </trkpt>
      <trkpt lat="44.49409" lon="5.78539">
        <ele>730.79998779297</ele>
        <time>2021-08-31T14:04:08Z</time>
      </trkpt>
      <trkpt lat="44.49432" lon="5.78554">
        <ele>731.59997558594</ele>
        <time>2021-08-31T14:04:16Z</time>
      </trkpt>
      <trkpt lat="44.49448" lon="5.78561">
        <ele>731.59997558594</ele>
        <time>2021-08-31T14:04:21Z</time>
      </trkpt>
      <trkpt lat="44.49475" lon="5.78577">
        <ele>731.59997558594</ele>
        <time>2021-08-31T14:04:29Z</time>
      </trkpt>
      <trkpt lat="44.49489" lon="5.78585">
        <ele>731.79998779297</ele>
        <time>2021-08-31T14:04:33Z</time>
      </trkpt>
      <trkpt lat="44.49503" lon="5.78591">
        <ele>732</ele>
        <time>2021-08-31T14:04:37Z</time>
      </trkpt>
      <trkpt lat="44.49532" lon="5.78607">
        <ele>732.20001220703</ele>
        <time>2021-08-31T14:04:45Z</time>
      </trkpt>
      <trkpt lat="44.49562" lon="5.7863">
        <ele>732.40002441406</ele>
        <time>2021-08-31T14:04:52Z</time>
      </trkpt>
      <trkpt lat="44.49593" lon="5.7866">
        <ele>732.40002441406</ele>
        <time>2021-08-31T14:05:00Z</time>
      </trkpt>
      <trkpt lat="44.49613" lon="5.78684">
        <ele>732.79998779297</ele>
        <time>2021-08-31T14:05:07Z</time>
      </trkpt>
      <trkpt lat="44.49616" lon="5.78688">
        <ele>732.79998779297</ele>
        <time>2021-08-31T14:05:08Z</time>
      </trkpt>
      <trkpt lat="44.49635" lon="5.78709">
        <ele>733.20001220703</ele>
        <time>2021-08-31T14:05:15Z</time>
      </trkpt>
      <trkpt lat="44.49652" lon="5.78729">
        <ele>733.79998779297</ele>
        <time>2021-08-31T14:05:22Z</time>
      </trkpt>
      <trkpt lat="44.49655" lon="5.78731">
        <ele>734</ele>
        <time>2021-08-31T14:05:23Z</time>
      </trkpt>
      <trkpt lat="44.4967" lon="5.78749">
        <ele>734.59997558594</ele>
        <time>2021-08-31T14:05:30Z</time>
      </trkpt>
      <trkpt lat="44.49676" lon="5.78754">
        <ele>735</ele>
        <time>2021-08-31T14:05:33Z</time>
      </trkpt>
      <trkpt lat="44.49692" lon="5.78768">
        <ele>735.20001220703</ele>
        <time>2021-08-31T14:05:40Z</time>
      </trkpt>
      <trkpt lat="44.49711" lon="5.78779">
        <ele>735.79998779297</ele>
        <time>2021-08-31T14:05:48Z</time>
      </trkpt>
      <trkpt lat="44.49713" lon="5.7878">
        <ele>736</ele>
        <time>2021-08-31T14:05:49Z</time>
      </trkpt>
      <trkpt lat="44.49729" lon="5.78789">
        <ele>736.59997558594</ele>
        <time>2021-08-31T14:05:56Z</time>
      </trkpt>
      <trkpt lat="44.49742" lon="5.78795">
        <ele>737</ele>
        <time>2021-08-31T14:06:01Z</time>
      </trkpt>
      <trkpt lat="44.4975" lon="5.78797">
        <ele>737.40002441406</ele>
        <time>2021-08-31T14:06:04Z</time>
      </trkpt>
      <trkpt lat="44.4977" lon="5.78808">
        <ele>738</ele>
        <time>2021-08-31T14:06:12Z</time>
      </trkpt>
      <trkpt lat="44.49773" lon="5.78809">
        <ele>738.20001220703</ele>
        <time>2021-08-31T14:06:13Z</time>
      </trkpt>
      <trkpt lat="44.49788" lon="5.78816">
        <ele>738.79998779297</ele>
        <time>2021-08-31T14:06:19Z</time>
      </trkpt>
      <trkpt lat="44.49799" lon="5.78821">
        <ele>739.20001220703</ele>
        <time>2021-08-31T14:06:24Z</time>
      </trkpt>
      <trkpt lat="44.49808" lon="5.78826">
        <ele>739.59997558594</ele>
        <time>2021-08-31T14:06:28Z</time>
      </trkpt>
      <trkpt lat="44.49823" lon="5.78833">
        <ele>740.20001220703</ele>
        <time>2021-08-31T14:06:35Z</time>
      </trkpt>
      <trkpt lat="44.49829" lon="5.78837">
        <ele>740.59997558594</ele>
        <time>2021-08-31T14:06:38Z</time>
      </trkpt>
      <trkpt lat="44.49843" lon="5.78844">
        <ele>741.40002441406</ele>
        <time>2021-08-31T14:06:45Z</time>
      </trkpt>
      <trkpt lat="44.49844" lon="5.78846">
        <ele>741.40002441406</ele>
        <time>2021-08-31T14:06:46Z</time>
      </trkpt>
      <trkpt lat="44.49857" lon="5.78852">
        <ele>742</ele>
        <time>2021-08-31T14:06:53Z</time>
      </trkpt>
      <trkpt lat="44.49863" lon="5.78856">
        <ele>742.40002441406</ele>
        <time>2021-08-31T14:06:56Z</time>
      </trkpt>
      <trkpt lat="44.49869" lon="5.78862">
        <ele>742.79998779297</ele>
        <time>2021-08-31T14:07:00Z</time>
      </trkpt>
      <trkpt lat="44.49878" lon="5.7887">
        <ele>743.40002441406</ele>
        <time>2021-08-31T14:07:05Z</time>
      </trkpt>
      <trkpt lat="44.49885" lon="5.78876">
        <ele>743.79998779297</ele>
        <time>2021-08-31T14:07:09Z</time>
      </trkpt>
      <trkpt lat="44.49896" lon="5.78887">
        <ele>744.59997558594</ele>
        <time>2021-08-31T14:07:16Z</time>
      </trkpt>
      <trkpt lat="44.49904" lon="5.78892">
        <ele>745</ele>
        <time>2021-08-31T14:07:20Z</time>
      </trkpt>
      <trkpt lat="44.49914" lon="5.78901">
        <ele>745.79998779297</ele>
        <time>2021-08-31T14:07:26Z</time>
      </trkpt>
      <trkpt lat="44.49918" lon="5.78904">
        <ele>746</ele>
        <time>2021-08-31T14:07:28Z</time>
      </trkpt>
      <trkpt lat="44.49928" lon="5.78914">
        <ele>746.79998779297</ele>
        <time>2021-08-31T14:07:34Z</time>
      </trkpt>
      <trkpt lat="44.49933" lon="5.7892">
        <ele>747</ele>
        <time>2021-08-31T14:07:38Z</time>
      </trkpt>
      <trkpt lat="44.49947" lon="5.7893">
        <ele>747.40002441406</ele>
        <time>2021-08-31T14:07:46Z</time>
      </trkpt>
      <trkpt lat="44.49953" lon="5.78935">
        <ele>748</ele>
        <time>2021-08-31T14:07:50Z</time>
      </trkpt>
      <trkpt lat="44.49961" lon="5.78942">
        <ele>748.59997558594</ele>
        <time>2021-08-31T14:07:55Z</time>
      </trkpt>
      <trkpt lat="44.49969" lon="5.78948">
        <ele>749</ele>
        <time>2021-08-31T14:08:00Z</time>
      </trkpt>
      <trkpt lat="44.49972" lon="5.7895">
        <ele>749.20001220703</ele>
        <time>2021-08-31T14:08:02Z</time>
      </trkpt>
      <trkpt lat="44.49987" lon="5.7896">
        <ele>750</ele>
        <time>2021-08-31T14:08:11Z</time>
      </trkpt>
      <trkpt lat="44.49989" lon="5.78961">
        <ele>750</ele>
        <time>2021-08-31T14:08:12Z</time>
      </trkpt>
      <trkpt lat="44.50003" lon="5.78961">
        <ele>751</ele>
        <time>2021-08-31T14:08:20Z</time>
      </trkpt>
      <trkpt lat="44.50005" lon="5.78961">
        <ele>751.20001220703</ele>
        <time>2021-08-31T14:08:21Z</time>
      </trkpt>
      <trkpt lat="44.50018" lon="5.78956">
        <ele>751.79998779297</ele>
        <time>2021-08-31T14:08:28Z</time>
      </trkpt>
      <trkpt lat="44.50026" lon="5.78957">
        <ele>752.20001220703</ele>
        <time>2021-08-31T14:08:32Z</time>
      </trkpt>
      <trkpt lat="44.50036" lon="5.7896">
        <ele>753</ele>
        <time>2021-08-31T14:08:37Z</time>
      </trkpt>
      <trkpt lat="44.50043" lon="5.78966">
        <ele>753.40002441406</ele>
        <time>2021-08-31T14:08:41Z</time>
      </trkpt>
      <trkpt lat="44.50047" lon="5.78972">
        <ele>753.40002441406</ele>
        <time>2021-08-31T14:08:44Z</time>
      </trkpt>
      <trkpt lat="44.50054" lon="5.78988">
        <ele>754.40002441406</ele>
        <time>2021-08-31T14:08:51Z</time>
      </trkpt>
      <trkpt lat="44.50066" lon="5.79011">
        <ele>755</ele>
        <time>2021-08-31T14:09:01Z</time>
      </trkpt>
      <trkpt lat="44.50075" lon="5.79022">
        <ele>755.40002441406</ele>
        <time>2021-08-31T14:09:07Z</time>
      </trkpt>
      <trkpt lat="44.50076" lon="5.79024">
        <ele>755.40002441406</ele>
        <time>2021-08-31T14:09:08Z</time>
      </trkpt>
      <trkpt lat="44.50088" lon="5.79038">
        <ele>756</ele>
        <time>2021-08-31T14:09:16Z</time>
      </trkpt>
      <trkpt lat="44.50098" lon="5.79051">
        <ele>756.59997558594</ele>
        <time>2021-08-31T14:09:23Z</time>
      </trkpt>
      <trkpt lat="44.50102" lon="5.79054">
        <ele>756.79998779297</ele>
        <time>2021-08-31T14:09:25Z</time>
      </trkpt>
      <trkpt lat="44.50117" lon="5.79071">
        <ele>757.59997558594</ele>
        <time>2021-08-31T14:09:35Z</time>
      </trkpt>
      <trkpt lat="44.50132" lon="5.79085">
        <ele>758.59997558594</ele>
        <time>2021-08-31T14:09:44Z</time>
      </trkpt>
      <trkpt lat="44.50133" lon="5.79086">
        <ele>758.59997558594</ele>
        <time>2021-08-31T14:09:45Z</time>
      </trkpt>
      <trkpt lat="44.50144" lon="5.79099">
        <ele>759.79998779297</ele>
        <time>2021-08-31T14:09:52Z</time>
      </trkpt>
      <trkpt lat="44.50145" lon="5.79101">
        <ele>759.79998779297</ele>
        <time>2021-08-31T14:09:53Z</time>
      </trkpt>
      <trkpt lat="44.50153" lon="5.79116">
        <ele>760</ele>
        <time>2021-08-31T14:10:00Z</time>
      </trkpt>
      <trkpt lat="44.50161" lon="5.79132">
        <ele>760.59997558594</ele>
        <time>2021-08-31T14:10:07Z</time>
      </trkpt>
      <trkpt lat="44.50165" lon="5.79141">
        <ele>760.79998779297</ele>
        <time>2021-08-31T14:10:11Z</time>
      </trkpt>
      <trkpt lat="44.50168" lon="5.79148">
        <ele>761</ele>
        <time>2021-08-31T14:10:14Z</time>
      </trkpt>
      <trkpt lat="44.50176" lon="5.79166">
        <ele>761.79998779297</ele>
        <time>2021-08-31T14:10:22Z</time>
      </trkpt>
      <trkpt lat="44.50177" lon="5.79168">
        <ele>761.79998779297</ele>
        <time>2021-08-31T14:10:23Z</time>
      </trkpt>
      <trkpt lat="44.50186" lon="5.79188">
        <ele>762.59997558594</ele>
        <time>2021-08-31T14:10:32Z</time>
      </trkpt>
      <trkpt lat="44.50189" lon="5.79194">
        <ele>762.79998779297</ele>
        <time>2021-08-31T14:10:35Z</time>
      </trkpt>
      <trkpt lat="44.50195" lon="5.79206">
        <ele>763.79998779297</ele>
        <time>2021-08-31T14:10:41Z</time>
      </trkpt>
      <trkpt lat="44.50196" lon="5.79209">
        <ele>764</ele>
        <time>2021-08-31T14:10:42Z</time>
      </trkpt>
      <trkpt lat="44.50205" lon="5.79221">
        <ele>764.20001220703</ele>
        <time>2021-08-31T14:10:49Z</time>
      </trkpt>
      <trkpt lat="44.50213" lon="5.79234">
        <ele>765</ele>
        <time>2021-08-31T14:10:56Z</time>
      </trkpt>
      <trkpt lat="44.50226" lon="5.79246">
        <ele>766</ele>
        <time>2021-08-31T14:11:04Z</time>
      </trkpt>
      <trkpt lat="44.50228" lon="5.79248">
        <ele>766.20001220703</ele>
        <time>2021-08-31T14:11:05Z</time>
      </trkpt>
      <trkpt lat="44.50243" lon="5.79268">
        <ele>767</ele>
        <time>2021-08-31T14:11:15Z</time>
      </trkpt>
      <trkpt lat="44.5025" lon="5.79289">
        <ele>767.59997558594</ele>
        <time>2021-08-31T14:11:23Z</time>
      </trkpt>
      <trkpt lat="44.50256" lon="5.79301">
        <ele>768.20001220703</ele>
        <time>2021-08-31T14:11:28Z</time>
      </trkpt>
      <trkpt lat="44.50259" lon="5.79312">
        <ele>768.40002441406</ele>
        <time>2021-08-31T14:11:32Z</time>
      </trkpt>
      <trkpt lat="44.50268" lon="5.7933">
        <ele>769</ele>
        <time>2021-08-31T14:11:40Z</time>
      </trkpt>
      <trkpt lat="44.50269" lon="5.79336">
        <ele>769.20001220703</ele>
        <time>2021-08-31T14:11:42Z</time>
      </trkpt>
      <trkpt lat="44.50277" lon="5.79348">
        <ele>769.59997558594</ele>
        <time>2021-08-31T14:11:48Z</time>
      </trkpt>
      <trkpt lat="44.50283" lon="5.79354">
        <ele>770</ele>
        <time>2021-08-31T14:11:51Z</time>
      </trkpt>
      <trkpt lat="44.50287" lon="5.79358">
        <ele>770.20001220703</ele>
        <time>2021-08-31T14:11:53Z</time>
      </trkpt>
      <trkpt lat="44.50288" lon="5.7936">
        <ele>770.40002441406</ele>
        <time>2021-08-31T14:11:54Z</time>
      </trkpt>
      <trkpt lat="44.503" lon="5.79377">
        <ele>771</ele>
        <time>2021-08-31T14:12:02Z</time>
      </trkpt>
      <trkpt lat="44.50305" lon="5.79383">
        <ele>771.20001220703</ele>
        <time>2021-08-31T14:12:05Z</time>
      </trkpt>
      <trkpt lat="44.50313" lon="5.79395">
        <ele>771.40002441406</ele>
        <time>2021-08-31T14:12:10Z</time>
      </trkpt>
      <trkpt lat="44.50324" lon="5.79417">
        <ele>772</ele>
        <time>2021-08-31T14:12:17Z</time>
      </trkpt>
      <trkpt lat="44.50336" lon="5.79441">
        <ele>771.79998779297</ele>
        <time>2021-08-31T14:12:23Z</time>
      </trkpt>
      <trkpt lat="44.50351" lon="5.79473">
        <ele>771.59997558594</ele>
        <time>2021-08-31T14:12:30Z</time>
      </trkpt>
      <trkpt lat="44.50364" lon="5.79508">
        <ele>771.59997558594</ele>
        <time>2021-08-31T14:12:38Z</time>
      </trkpt>
      <trkpt lat="44.50377" lon="5.79544">
        <ele>771.20001220703</ele>
        <time>2021-08-31T14:12:45Z</time>
      </trkpt>
      <trkpt lat="44.50392" lon="5.79593">
        <ele>770.79998779297</ele>
        <time>2021-08-31T14:12:54Z</time>
      </trkpt>
      <trkpt lat="44.50399" lon="5.79629">
        <ele>770.59997558594</ele>
        <time>2021-08-31T14:13:01Z</time>
      </trkpt>
      <trkpt lat="44.504" lon="5.79668">
        <ele>771</ele>
        <time>2021-08-31T14:13:07Z</time>
      </trkpt>
      <trkpt lat="44.50394" lon="5.7971">
        <ele>770.59997558594</ele>
        <time>2021-08-31T14:13:13Z</time>
      </trkpt>
      <trkpt lat="44.50381" lon="5.79742">
        <ele>770.20001220703</ele>
        <time>2021-08-31T14:13:19Z</time>
      </trkpt>
      <trkpt lat="44.50378" lon="5.79747">
        <ele>770.20001220703</ele>
        <time>2021-08-31T14:13:20Z</time>
      </trkpt>
      <trkpt lat="44.50374" lon="5.79759">
        <ele>770.20001220703</ele>
        <time>2021-08-31T14:13:22Z</time>
      </trkpt>
      <trkpt lat="44.5037" lon="5.79776">
        <ele>770.20001220703</ele>
        <time>2021-08-31T14:13:25Z</time>
      </trkpt>
      <trkpt lat="44.50368" lon="5.79788">
        <ele>770.59997558594</ele>
        <time>2021-08-31T14:13:27Z</time>
      </trkpt>
      <trkpt lat="44.50368" lon="5.79806">
        <ele>770.79998779297</ele>
        <time>2021-08-31T14:13:30Z</time>
      </trkpt>
      <trkpt lat="44.50366" lon="5.79839">
        <ele>771.20001220703</ele>
        <time>2021-08-31T14:13:36Z</time>
      </trkpt>
      <trkpt lat="44.50365" lon="5.79866">
        <ele>771.59997558594</ele>
        <time>2021-08-31T14:13:41Z</time>
      </trkpt>
      <trkpt lat="44.50369" lon="5.799">
        <ele>771.79998779297</ele>
        <time>2021-08-31T14:13:47Z</time>
      </trkpt>
      <trkpt lat="44.50378" lon="5.79955">
        <ele>771.40002441406</ele>
        <time>2021-08-31T14:13:56Z</time>
      </trkpt>
      <trkpt lat="44.50383" lon="5.7999">
        <ele>771.59997558594</ele>
        <time>2021-08-31T14:14:03Z</time>
      </trkpt>
      <trkpt lat="44.50383" lon="5.8002">
        <ele>772.40002441406</ele>
        <time>2021-08-31T14:14:10Z</time>
      </trkpt>
      <trkpt lat="44.50383" lon="5.80024">
        <ele>772.40002441406</ele>
        <time>2021-08-31T14:14:11Z</time>
      </trkpt>
      <trkpt lat="44.50381" lon="5.80052">
        <ele>773.40002441406</ele>
        <time>2021-08-31T14:14:19Z</time>
      </trkpt>
      <trkpt lat="44.50381" lon="5.80055">
        <ele>773.40002441406</ele>
        <time>2021-08-31T14:14:20Z</time>
      </trkpt>
      <trkpt lat="44.50377" lon="5.80078">
        <ele>774.20001220703</ele>
        <time>2021-08-31T14:14:27Z</time>
      </trkpt>
      <trkpt lat="44.50376" lon="5.80084">
        <ele>774.59997558594</ele>
        <time>2021-08-31T14:14:29Z</time>
      </trkpt>
      <trkpt lat="44.50377" lon="5.80098">
        <ele>775</ele>
        <time>2021-08-31T14:14:34Z</time>
      </trkpt>
      <trkpt lat="44.5038" lon="5.80113">
        <ele>775.59997558594</ele>
        <time>2021-08-31T14:14:40Z</time>
      </trkpt>
      <trkpt lat="44.50382" lon="5.80118">
        <ele>775.79998779297</ele>
        <time>2021-08-31T14:14:42Z</time>
      </trkpt>
      <trkpt lat="44.50389" lon="5.80132">
        <ele>776.59997558594</ele>
        <time>2021-08-31T14:14:49Z</time>
      </trkpt>
      <trkpt lat="44.50399" lon="5.80143">
        <ele>777.40002441406</ele>
        <time>2021-08-31T14:14:56Z</time>
      </trkpt>
      <trkpt lat="44.504" lon="5.80144">
        <ele>777.59997558594</ele>
        <time>2021-08-31T14:14:57Z</time>
      </trkpt>
      <trkpt lat="44.50407" lon="5.80155">
        <ele>778.59997558594</ele>
        <time>2021-08-31T14:15:03Z</time>
      </trkpt>
      <trkpt lat="44.50412" lon="5.80163">
        <ele>779.40002441406</ele>
        <time>2021-08-31T14:15:08Z</time>
      </trkpt>
      <trkpt lat="44.50412" lon="5.80165">
        <ele>779.40002441406</ele>
        <time>2021-08-31T14:15:09Z</time>
      </trkpt>
      <trkpt lat="44.50414" lon="5.80169">
        <ele>779.59997558594</ele>
        <time>2021-08-31T14:15:11Z</time>
      </trkpt>
      <trkpt lat="44.50416" lon="5.80179">
        <ele>780.40002441406</ele>
        <time>2021-08-31T14:15:16Z</time>
      </trkpt>
      <trkpt lat="44.50416" lon="5.80183">
        <ele>780.79998779297</ele>
        <time>2021-08-31T14:15:18Z</time>
      </trkpt>
      <trkpt lat="44.50415" lon="5.80196">
        <ele>781.79998779297</ele>
        <time>2021-08-31T14:15:24Z</time>
      </trkpt>
      <trkpt lat="44.50415" lon="5.80201">
        <ele>782</ele>
        <time>2021-08-31T14:15:26Z</time>
      </trkpt>
      <trkpt lat="44.50415" lon="5.80216">
        <ele>782.40002441406</ele>
        <time>2021-08-31T14:15:32Z</time>
      </trkpt>
      <trkpt lat="44.50416" lon="5.80234">
        <ele>782.59997558594</ele>
        <time>2021-08-31T14:15:38Z</time>
      </trkpt>
      <trkpt lat="44.5042" lon="5.8025">
        <ele>783</ele>
        <time>2021-08-31T14:15:43Z</time>
      </trkpt>
      <trkpt lat="44.50421" lon="5.80253">
        <ele>783</ele>
        <time>2021-08-31T14:15:44Z</time>
      </trkpt>
      <trkpt lat="44.50426" lon="5.80277">
        <ele>783.20001220703</ele>
        <time>2021-08-31T14:15:51Z</time>
      </trkpt>
      <trkpt lat="44.50436" lon="5.80308">
        <ele>783.79998779297</ele>
        <time>2021-08-31T14:16:00Z</time>
      </trkpt>
      <trkpt lat="44.50442" lon="5.80325">
        <ele>784</ele>
        <time>2021-08-31T14:16:05Z</time>
      </trkpt>
      <trkpt lat="44.50445" lon="5.80333">
        <ele>784.20001220703</ele>
        <time>2021-08-31T14:16:08Z</time>
      </trkpt>
      <trkpt lat="44.5045" lon="5.80357">
        <ele>784.40002441406</ele>
        <time>2021-08-31T14:16:16Z</time>
      </trkpt>
      <trkpt lat="44.50452" lon="5.80372">
        <ele>785</ele>
        <time>2021-08-31T14:16:21Z</time>
      </trkpt>
      <trkpt lat="44.50455" lon="5.80382">
        <ele>785.59997558594</ele>
        <time>2021-08-31T14:16:25Z</time>
      </trkpt>
      <trkpt lat="44.50456" lon="5.80402">
        <ele>786</ele>
        <time>2021-08-31T14:16:32Z</time>
      </trkpt>
      <trkpt lat="44.50457" lon="5.80413">
        <ele>786.59997558594</ele>
        <time>2021-08-31T14:16:36Z</time>
      </trkpt>
      <trkpt lat="44.50459" lon="5.80429">
        <ele>787.20001220703</ele>
        <time>2021-08-31T14:16:42Z</time>
      </trkpt>
      <trkpt lat="44.5046" lon="5.80436">
        <ele>787.59997558594</ele>
        <time>2021-08-31T14:16:45Z</time>
      </trkpt>
      <trkpt lat="44.50463" lon="5.80446">
        <ele>788.20001220703</ele>
        <time>2021-08-31T14:16:50Z</time>
      </trkpt>
      <trkpt lat="44.50465" lon="5.80451">
        <ele>788.79998779297</ele>
        <time>2021-08-31T14:16:53Z</time>
      </trkpt>
      <trkpt lat="44.50469" lon="5.80453">
        <ele>789</ele>
        <time>2021-08-31T14:16:56Z</time>
      </trkpt>
      <trkpt lat="44.50473" lon="5.80452">
        <ele>789.20001220703</ele>
        <time>2021-08-31T14:16:59Z</time>
      </trkpt>
      <trkpt lat="44.50475" lon="5.80451">
        <ele>789.40002441406</ele>
        <time>2021-08-31T14:17:00Z</time>
      </trkpt>
      <trkpt lat="44.50485" lon="5.80449">
        <ele>790.20001220703</ele>
        <time>2021-08-31T14:18:10Z</time>
      </trkpt>
      <trkpt lat="44.50492" lon="5.80449">
        <ele>790.20001220703</ele>
        <time>2021-08-31T14:18:13Z</time>
      </trkpt>
      <trkpt lat="44.50509" lon="5.80448">
        <ele>790.40002441406</ele>
        <time>2021-08-31T14:18:20Z</time>
      </trkpt>
      <trkpt lat="44.50512" lon="5.80447">
        <ele>790.40002441406</ele>
        <time>2021-08-31T14:18:21Z</time>
      </trkpt>
      <trkpt lat="44.50529" lon="5.80443">
        <ele>790.79998779297</ele>
        <time>2021-08-31T14:18:27Z</time>
      </trkpt>
      <trkpt lat="44.50553" lon="5.80429">
        <ele>791.40002441406</ele>
        <time>2021-08-31T14:18:35Z</time>
      </trkpt>
      <trkpt lat="44.50556" lon="5.80427">
        <ele>791.40002441406</ele>
        <time>2021-08-31T14:18:36Z</time>
      </trkpt>
      <trkpt lat="44.50579" lon="5.8041">
        <ele>791.79998779297</ele>
        <time>2021-08-31T14:18:44Z</time>
      </trkpt>
      <trkpt lat="44.50596" lon="5.80397">
        <ele>792</ele>
        <time>2021-08-31T14:18:51Z</time>
      </trkpt>
      <trkpt lat="44.50609" lon="5.80387">
        <ele>792.40002441406</ele>
        <time>2021-08-31T14:18:56Z</time>
      </trkpt>
      <trkpt lat="44.50612" lon="5.80386">
        <ele>792.59997558594</ele>
        <time>2021-08-31T14:18:57Z</time>
      </trkpt>
      <trkpt lat="44.50627" lon="5.80388">
        <ele>792.79998779297</ele>
        <time>2021-08-31T14:19:01Z</time>
      </trkpt>
      <trkpt lat="44.50635" lon="5.80394">
        <ele>792.59997558594</ele>
        <time>2021-08-31T14:19:03Z</time>
      </trkpt>
      <trkpt lat="44.50647" lon="5.80407">
        <ele>792.20001220703</ele>
        <time>2021-08-31T14:19:06Z</time>
      </trkpt>
      <trkpt lat="44.50651" lon="5.80412">
        <ele>792</ele>
        <time>2021-08-31T14:19:07Z</time>
      </trkpt>
      <trkpt lat="44.50671" lon="5.80433">
        <ele>791.40002441406</ele>
        <time>2021-08-31T14:19:11Z</time>
      </trkpt>
      <trkpt lat="44.50676" lon="5.80439">
        <ele>791.20001220703</ele>
        <time>2021-08-31T14:19:12Z</time>
      </trkpt>
      <trkpt lat="44.50693" lon="5.80456">
        <ele>790.59997558594</ele>
        <time>2021-08-31T14:19:15Z</time>
      </trkpt>
      <trkpt lat="44.50706" lon="5.80464">
        <ele>790.20001220703</ele>
        <time>2021-08-31T14:19:17Z</time>
      </trkpt>
      <trkpt lat="44.50725" lon="5.80468">
        <ele>789.40002441406</ele>
        <time>2021-08-31T14:19:20Z</time>
      </trkpt>
      <trkpt lat="44.50732" lon="5.80469">
        <ele>789.20001220703</ele>
        <time>2021-08-31T14:19:21Z</time>
      </trkpt>
      <trkpt lat="44.50738" lon="5.80471">
        <ele>788.79998779297</ele>
        <time>2021-08-31T14:19:22Z</time>
      </trkpt>
      <trkpt lat="44.50751" lon="5.80471">
        <ele>788.20001220703</ele>
        <time>2021-08-31T14:19:24Z</time>
      </trkpt>
      <trkpt lat="44.50758" lon="5.80469">
        <ele>788</ele>
        <time>2021-08-31T14:19:25Z</time>
      </trkpt>
      <trkpt lat="44.50764" lon="5.80465">
        <ele>787.79998779297</ele>
        <time>2021-08-31T14:19:26Z</time>
      </trkpt>
      <trkpt lat="44.50779" lon="5.8045">
        <ele>787</ele>
        <time>2021-08-31T14:19:29Z</time>
      </trkpt>
      <trkpt lat="44.50784" lon="5.80444">
        <ele>786.79998779297</ele>
        <time>2021-08-31T14:19:30Z</time>
      </trkpt>
      <trkpt lat="44.50789" lon="5.80439">
        <ele>786.59997558594</ele>
        <time>2021-08-31T14:19:31Z</time>
      </trkpt>
      <trkpt lat="44.50804" lon="5.80423">
        <ele>785.79998779297</ele>
        <time>2021-08-31T14:19:34Z</time>
      </trkpt>
      <trkpt lat="44.50815" lon="5.80418">
        <ele>785.40002441406</ele>
        <time>2021-08-31T14:19:36Z</time>
      </trkpt>
      <trkpt lat="44.50835" lon="5.80422">
        <ele>784.79998779297</ele>
        <time>2021-08-31T14:19:39Z</time>
      </trkpt>
      <trkpt lat="44.5086" lon="5.80436">
        <ele>783.40002441406</ele>
        <time>2021-08-31T14:19:43Z</time>
      </trkpt>
      <trkpt lat="44.50872" lon="5.80446">
        <ele>782.59997558594</ele>
        <time>2021-08-31T14:19:45Z</time>
      </trkpt>
      <trkpt lat="44.50877" lon="5.80451">
        <ele>782.40002441406</ele>
        <time>2021-08-31T14:19:46Z</time>
      </trkpt>
      <trkpt lat="44.509" lon="5.80477">
        <ele>781.59997558594</ele>
        <time>2021-08-31T14:19:51Z</time>
      </trkpt>
      <trkpt lat="44.50916" lon="5.80499">
        <ele>781.20001220703</ele>
        <time>2021-08-31T14:19:55Z</time>
      </trkpt>
      <trkpt lat="44.50941" lon="5.8053">
        <ele>780.79998779297</ele>
        <time>2021-08-31T14:20:01Z</time>
      </trkpt>
      <trkpt lat="44.50973" lon="5.8057">
        <ele>780.59997558594</ele>
        <time>2021-08-31T14:20:09Z</time>
      </trkpt>
      <trkpt lat="44.50991" lon="5.80595">
        <ele>781.40002441406</ele>
        <time>2021-08-31T14:20:15Z</time>
      </trkpt>
      <trkpt lat="44.51006" lon="5.80613">
        <ele>781.79998779297</ele>
        <time>2021-08-31T14:20:21Z</time>
      </trkpt>
      <trkpt lat="44.51016" lon="5.80627">
        <ele>782.40002441406</ele>
        <time>2021-08-31T14:20:26Z</time>
      </trkpt>
      <trkpt lat="44.5102" lon="5.80632">
        <ele>782.59997558594</ele>
        <time>2021-08-31T14:20:28Z</time>
      </trkpt>
      <trkpt lat="44.51037" lon="5.80656">
        <ele>783.20001220703</ele>
        <time>2021-08-31T14:20:37Z</time>
      </trkpt>
      <trkpt lat="44.5104" lon="5.80661">
        <ele>783.59997558594</ele>
        <time>2021-08-31T14:20:39Z</time>
      </trkpt>
      <trkpt lat="44.51047" lon="5.8068">
        <ele>784</ele>
        <time>2021-08-31T14:20:45Z</time>
      </trkpt>
      <trkpt lat="44.51054" lon="5.80698">
        <ele>784.59997558594</ele>
        <time>2021-08-31T14:20:51Z</time>
      </trkpt>
      <trkpt lat="44.51055" lon="5.807">
        <ele>784.79998779297</ele>
        <time>2021-08-31T14:20:52Z</time>
      </trkpt>
      <trkpt lat="44.51068" lon="5.80708">
        <ele>785.59997558594</ele>
        <time>2021-08-31T14:20:58Z</time>
      </trkpt>
      <trkpt lat="44.51071" lon="5.80709">
        <ele>785.79998779297</ele>
        <time>2021-08-31T14:20:59Z</time>
      </trkpt>
      <trkpt lat="44.51086" lon="5.80709">
        <ele>786.20001220703</ele>
        <time>2021-08-31T14:21:05Z</time>
      </trkpt>
      <trkpt lat="44.51103" lon="5.80711">
        <ele>786.20001220703</ele>
        <time>2021-08-31T14:21:11Z</time>
      </trkpt>
      <trkpt lat="44.51131" lon="5.80714">
        <ele>786.79998779297</ele>
        <time>2021-08-31T14:21:21Z</time>
      </trkpt>
      <trkpt lat="44.51134" lon="5.80714">
        <ele>786.79998779297</ele>
        <time>2021-08-31T14:21:22Z</time>
      </trkpt>
      <trkpt lat="44.51158" lon="5.80718">
        <ele>787.40002441406</ele>
        <time>2021-08-31T14:21:30Z</time>
      </trkpt>
      <trkpt lat="44.51172" lon="5.80729">
        <ele>788</ele>
        <time>2021-08-31T14:21:36Z</time>
      </trkpt>
      <trkpt lat="44.51182" lon="5.80746">
        <ele>788.59997558594</ele>
        <time>2021-08-31T14:21:42Z</time>
      </trkpt>
      <trkpt lat="44.51184" lon="5.80752">
        <ele>789</ele>
        <time>2021-08-31T14:21:44Z</time>
      </trkpt>
      <trkpt lat="44.51193" lon="5.80779">
        <ele>789.59997558594</ele>
        <time>2021-08-31T14:21:52Z</time>
      </trkpt>
      <trkpt lat="44.51199" lon="5.808">
        <ele>789.40002441406</ele>
        <time>2021-08-31T14:21:57Z</time>
      </trkpt>
      <trkpt lat="44.51214" lon="5.80835">
        <ele>788.20001220703</ele>
        <time>2021-08-31T14:22:05Z</time>
      </trkpt>
      <trkpt lat="44.51214" lon="5.80844">
        <ele>788</ele>
        <time>2021-08-31T14:22:07Z</time>
      </trkpt>
      <trkpt lat="44.51212" lon="5.80851">
        <ele>787.59997558594</ele>
        <time>2021-08-31T14:22:09Z</time>
      </trkpt>
      <trkpt lat="44.51205" lon="5.80869">
        <ele>787.79998779297</ele>
        <time>2021-08-31T14:22:16Z</time>
      </trkpt>
      <trkpt lat="44.51199" lon="5.80893">
        <ele>789</ele>
        <time>2021-08-31T14:22:25Z</time>
      </trkpt>
      <trkpt lat="44.51199" lon="5.80919">
        <ele>790</ele>
        <time>2021-08-31T14:22:34Z</time>
      </trkpt>
      <trkpt lat="44.51199" lon="5.80922">
        <ele>790.20001220703</ele>
        <time>2021-08-31T14:22:35Z</time>
      </trkpt>
      <trkpt lat="44.51206" lon="5.80942">
        <ele>791</ele>
        <time>2021-08-31T14:22:43Z</time>
      </trkpt>
      <trkpt lat="44.51213" lon="5.80961">
        <ele>792.20001220703</ele>
        <time>2021-08-31T14:22:51Z</time>
      </trkpt>
      <trkpt lat="44.51215" lon="5.80966">
        <ele>792.40002441406</ele>
        <time>2021-08-31T14:22:53Z</time>
      </trkpt>
      <trkpt lat="44.5122" lon="5.80983">
        <ele>793.20001220703</ele>
        <time>2021-08-31T14:23:00Z</time>
      </trkpt>
      <trkpt lat="44.51221" lon="5.80988">
        <ele>793.40002441406</ele>
        <time>2021-08-31T14:23:02Z</time>
      </trkpt>
      <trkpt lat="44.51219" lon="5.81005">
        <ele>794</ele>
        <time>2021-08-31T14:23:08Z</time>
      </trkpt>
      <trkpt lat="44.51219" lon="5.81008">
        <ele>794.20001220703</ele>
        <time>2021-08-31T14:23:09Z</time>
      </trkpt>
      <trkpt lat="44.51215" lon="5.81025">
        <ele>794.79998779297</ele>
        <time>2021-08-31T14:23:15Z</time>
      </trkpt>
      <trkpt lat="44.51209" lon="5.81035">
        <ele>795.20001220703</ele>
        <time>2021-08-31T14:23:19Z</time>
      </trkpt>
      <trkpt lat="44.51205" lon="5.81043">
        <ele>795.40002441406</ele>
        <time>2021-08-31T14:23:22Z</time>
      </trkpt>
      <trkpt lat="44.51196" lon="5.81063">
        <ele>796</ele>
        <time>2021-08-31T14:23:29Z</time>
      </trkpt>
      <trkpt lat="44.51194" lon="5.81069">
        <ele>796.20001220703</ele>
        <time>2021-08-31T14:23:31Z</time>
      </trkpt>
      <trkpt lat="44.51183" lon="5.81085">
        <ele>796.79998779297</ele>
        <time>2021-08-31T14:23:37Z</time>
      </trkpt>
      <trkpt lat="44.51177" lon="5.811">
        <ele>797.20001220703</ele>
        <time>2021-08-31T14:23:42Z</time>
      </trkpt>
      <trkpt lat="44.51168" lon="5.81116">
        <ele>797.79998779297</ele>
        <time>2021-08-31T14:23:48Z</time>
      </trkpt>
      <trkpt lat="44.51163" lon="5.81127">
        <ele>798.40002441406</ele>
        <time>2021-08-31T14:23:52Z</time>
      </trkpt>
      <trkpt lat="44.51158" lon="5.81142">
        <ele>798.79998779297</ele>
        <time>2021-08-31T14:23:57Z</time>
      </trkpt>
      <trkpt lat="44.51144" lon="5.81162">
        <ele>799.40002441406</ele>
        <time>2021-08-31T14:24:05Z</time>
      </trkpt>
      <trkpt lat="44.51131" lon="5.81182">
        <ele>800</ele>
        <time>2021-08-31T14:24:13Z</time>
      </trkpt>
      <trkpt lat="44.51124" lon="5.81193">
        <ele>800.59997558594</ele>
        <time>2021-08-31T14:24:17Z</time>
      </trkpt>
      <trkpt lat="44.51115" lon="5.81205">
        <ele>801</ele>
        <time>2021-08-31T14:24:22Z</time>
      </trkpt>
      <trkpt lat="44.511" lon="5.81219">
        <ele>801.59997558594</ele>
        <time>2021-08-31T14:24:29Z</time>
      </trkpt>
      <trkpt lat="44.51098" lon="5.81221">
        <ele>801.79998779297</ele>
        <time>2021-08-31T14:24:30Z</time>
      </trkpt>
      <trkpt lat="44.51085" lon="5.8123">
        <ele>802.40002441406</ele>
        <time>2021-08-31T14:24:36Z</time>
      </trkpt>
      <trkpt lat="44.51081" lon="5.81233">
        <ele>802.59997558594</ele>
        <time>2021-08-31T14:24:38Z</time>
      </trkpt>
      <trkpt lat="44.51071" lon="5.8124">
        <ele>803.20001220703</ele>
        <time>2021-08-31T14:24:43Z</time>
      </trkpt>
      <trkpt lat="44.51063" lon="5.81246">
        <ele>803.59997558594</ele>
        <time>2021-08-31T14:24:47Z</time>
      </trkpt>
      <trkpt lat="44.51053" lon="5.81254">
        <ele>804</ele>
        <time>2021-08-31T14:24:52Z</time>
      </trkpt>
      <trkpt lat="44.51038" lon="5.81263">
        <ele>804.59997558594</ele>
        <time>2021-08-31T14:24:59Z</time>
      </trkpt>
      <trkpt lat="44.51036" lon="5.81265">
        <ele>804.59997558594</ele>
        <time>2021-08-31T14:25:00Z</time>
      </trkpt>
      <trkpt lat="44.51023" lon="5.81274">
        <ele>805.20001220703</ele>
        <time>2021-08-31T14:25:06Z</time>
      </trkpt>
      <trkpt lat="44.51011" lon="5.81285">
        <ele>805.79998779297</ele>
        <time>2021-08-31T14:25:12Z</time>
      </trkpt>
      <trkpt lat="44.51009" lon="5.81287">
        <ele>805.79998779297</ele>
        <time>2021-08-31T14:25:13Z</time>
      </trkpt>
      <trkpt lat="44.50998" lon="5.81305">
        <ele>806.59997558594</ele>
        <time>2021-08-31T14:25:21Z</time>
      </trkpt>
      <trkpt lat="44.50997" lon="5.81308">
        <ele>806.79998779297</ele>
        <time>2021-08-31T14:25:22Z</time>
      </trkpt>
      <trkpt lat="44.50988" lon="5.81326">
        <ele>807.79998779297</ele>
        <time>2021-08-31T14:25:29Z</time>
      </trkpt>
      <trkpt lat="44.50986" lon="5.81332">
        <ele>807.79998779297</ele>
        <time>2021-08-31T14:25:31Z</time>
      </trkpt>
      <trkpt lat="44.5098" lon="5.81348">
        <ele>808.59997558594</ele>
        <time>2021-08-31T14:25:37Z</time>
      </trkpt>
      <trkpt lat="44.50977" lon="5.81356">
        <ele>808.79998779297</ele>
        <time>2021-08-31T14:25:40Z</time>
      </trkpt>
      <trkpt lat="44.50969" lon="5.81374">
        <ele>809.59997558594</ele>
        <time>2021-08-31T14:25:47Z</time>
      </trkpt>
      <trkpt lat="44.50966" lon="5.81382">
        <ele>809.79998779297</ele>
        <time>2021-08-31T14:25:50Z</time>
      </trkpt>
      <trkpt lat="44.5096" lon="5.81394">
        <ele>810.59997558594</ele>
        <time>2021-08-31T14:25:55Z</time>
      </trkpt>
      <trkpt lat="44.50954" lon="5.81402">
        <ele>811</ele>
        <time>2021-08-31T14:25:59Z</time>
      </trkpt>
      <trkpt lat="44.50949" lon="5.81407">
        <ele>811.40002441406</ele>
        <time>2021-08-31T14:26:02Z</time>
      </trkpt>
      <trkpt lat="44.50932" lon="5.81414">
        <ele>812.20001220703</ele>
        <time>2021-08-31T14:26:10Z</time>
      </trkpt>
      <trkpt lat="44.50921" lon="5.8141">
        <ele>813</ele>
        <time>2021-08-31T14:26:15Z</time>
      </trkpt>
      <trkpt lat="44.5092" lon="5.81409">
        <ele>813.20001220703</ele>
        <time>2021-08-31T14:26:16Z</time>
      </trkpt>
      <trkpt lat="44.50908" lon="5.81403">
        <ele>813.79998779297</ele>
        <time>2021-08-31T14:26:22Z</time>
      </trkpt>
      <trkpt lat="44.50898" lon="5.81399">
        <ele>814.40002441406</ele>
        <time>2021-08-31T14:26:27Z</time>
      </trkpt>
      <trkpt lat="44.50894" lon="5.81397">
        <ele>814.59997558594</ele>
        <time>2021-08-31T14:26:29Z</time>
      </trkpt>
      <trkpt lat="44.5088" lon="5.81389">
        <ele>815.40002441406</ele>
        <time>2021-08-31T14:26:36Z</time>
      </trkpt>
      <trkpt lat="44.50878" lon="5.81388">
        <ele>815.59997558594</ele>
        <time>2021-08-31T14:26:37Z</time>
      </trkpt>
      <trkpt lat="44.50868" lon="5.81382">
        <ele>816.40002441406</ele>
        <time>2021-08-31T14:26:43Z</time>
      </trkpt>
      <trkpt lat="44.50866" lon="5.81381">
        <ele>816.40002441406</ele>
        <time>2021-08-31T14:26:44Z</time>
      </trkpt>
      <trkpt lat="44.50856" lon="5.81377">
        <ele>817.20001220703</ele>
        <time>2021-08-31T14:26:50Z</time>
      </trkpt>
      <trkpt lat="44.5085" lon="5.81374">
        <ele>817.40002441406</ele>
        <time>2021-08-31T14:26:53Z</time>
      </trkpt>
      <trkpt lat="44.50847" lon="5.81371">
        <ele>817.79998779297</ele>
        <time>2021-08-31T14:26:55Z</time>
      </trkpt>
      <trkpt lat="44.50836" lon="5.81362">
        <ele>818.40002441406</ele>
        <time>2021-08-31T14:27:01Z</time>
      </trkpt>
      <trkpt lat="44.50831" lon="5.81357">
        <ele>818.59997558594</ele>
        <time>2021-08-31T14:27:04Z</time>
      </trkpt>
      <trkpt lat="44.50826" lon="5.8135">
        <ele>819</ele>
        <time>2021-08-31T14:27:08Z</time>
      </trkpt>
      <trkpt lat="44.50815" lon="5.81338">
        <ele>819.59997558594</ele>
        <time>2021-08-31T14:27:15Z</time>
      </trkpt>
      <trkpt lat="44.50814" lon="5.81336">
        <ele>819.79998779297</ele>
        <time>2021-08-31T14:27:16Z</time>
      </trkpt>
      <trkpt lat="44.50802" lon="5.81329">
        <ele>820.40002441406</ele>
        <time>2021-08-31T14:27:23Z</time>
      </trkpt>
      <trkpt lat="44.50795" lon="5.81326">
        <ele>820.79998779297</ele>
        <time>2021-08-31T14:27:27Z</time>
      </trkpt>
      <trkpt lat="44.50788" lon="5.81323">
        <ele>821.40002441406</ele>
        <time>2021-08-31T14:27:31Z</time>
      </trkpt>
      <trkpt lat="44.50778" lon="5.81316">
        <ele>821.79998779297</ele>
        <time>2021-08-31T14:27:37Z</time>
      </trkpt>
      <trkpt lat="44.50776" lon="5.81315">
        <ele>822</ele>
        <time>2021-08-31T14:27:38Z</time>
      </trkpt>
      <trkpt lat="44.5077" lon="5.81315">
        <ele>822.20001220703</ele>
        <time>2021-08-31T14:27:41Z</time>
      </trkpt>
      <trkpt lat="44.50765" lon="5.8132">
        <ele>822.59997558594</ele>
        <time>2021-08-31T14:27:44Z</time>
      </trkpt>
      <trkpt lat="44.50761" lon="5.8133">
        <ele>823</ele>
        <time>2021-08-31T14:27:48Z</time>
      </trkpt>
      <trkpt lat="44.5076" lon="5.81336">
        <ele>823.20001220703</ele>
        <time>2021-08-31T14:27:50Z</time>
      </trkpt>
      <trkpt lat="44.50754" lon="5.81348">
        <ele>823.79998779297</ele>
        <time>2021-08-31T14:27:56Z</time>
      </trkpt>
      <trkpt lat="44.50746" lon="5.81348">
        <ele>824.20001220703</ele>
        <time>2021-08-31T14:28:01Z</time>
      </trkpt>
      <trkpt lat="44.50743" lon="5.81349">
        <ele>824.40002441406</ele>
        <time>2021-08-31T14:28:03Z</time>
      </trkpt>
      <trkpt lat="44.50734" lon="5.81353">
        <ele>825</ele>
        <time>2021-08-31T14:28:09Z</time>
      </trkpt>
      <trkpt lat="44.50729" lon="5.81354">
        <ele>825.20001220703</ele>
        <time>2021-08-31T14:28:12Z</time>
      </trkpt>
      <trkpt lat="44.50723" lon="5.81356">
        <ele>825.79998779297</ele>
        <time>2021-08-31T14:28:16Z</time>
      </trkpt>
      <trkpt lat="44.50719" lon="5.81357">
        <ele>826.20001220703</ele>
        <time>2021-08-31T14:28:19Z</time>
      </trkpt>
      <trkpt lat="44.50712" lon="5.81362">
        <ele>827</ele>
        <time>2021-08-31T14:28:24Z</time>
      </trkpt>
      <trkpt lat="44.50708" lon="5.81365">
        <ele>827.40002441406</ele>
        <time>2021-08-31T14:28:27Z</time>
      </trkpt>
      <trkpt lat="44.507" lon="5.81369">
        <ele>828</ele>
        <time>2021-08-31T14:28:33Z</time>
      </trkpt>
      <trkpt lat="44.50695" lon="5.81372">
        <ele>828.40002441406</ele>
        <time>2021-08-31T14:28:36Z</time>
      </trkpt>
      <trkpt lat="44.50688" lon="5.81374">
        <ele>829.20001220703</ele>
        <time>2021-08-31T14:28:40Z</time>
      </trkpt>
      <trkpt lat="44.50685" lon="5.81376">
        <ele>829.59997558594</ele>
        <time>2021-08-31T14:28:42Z</time>
      </trkpt>
      <trkpt lat="44.50679" lon="5.81382">
        <ele>830.40002441406</ele>
        <time>2021-08-31T14:28:47Z</time>
      </trkpt>
      <trkpt lat="44.50676" lon="5.81384">
        <ele>830.79998779297</ele>
        <time>2021-08-31T14:28:49Z</time>
      </trkpt>
      <trkpt lat="44.5067" lon="5.8139">
        <ele>831.59997558594</ele>
        <time>2021-08-31T14:28:54Z</time>
      </trkpt>
      <trkpt lat="44.50667" lon="5.81393">
        <ele>832</ele>
        <time>2021-08-31T14:28:56Z</time>
      </trkpt>
      <trkpt lat="44.50662" lon="5.81402">
        <ele>832.79998779297</ele>
        <time>2021-08-31T14:29:02Z</time>
      </trkpt>
      <trkpt lat="44.50662" lon="5.81404">
        <ele>833</ele>
        <time>2021-08-31T14:29:03Z</time>
      </trkpt>
      <trkpt lat="44.50659" lon="5.81414">
        <ele>834</ele>
        <time>2021-08-31T14:29:08Z</time>
      </trkpt>
      <trkpt lat="44.50658" lon="5.81422">
        <ele>834.40002441406</ele>
        <time>2021-08-31T14:29:12Z</time>
      </trkpt>
      <trkpt lat="44.50655" lon="5.81426">
        <ele>834.79998779297</ele>
        <time>2021-08-31T14:29:15Z</time>
      </trkpt>
      <trkpt lat="44.50652" lon="5.8143">
        <ele>835</ele>
        <time>2021-08-31T14:29:17Z</time>
      </trkpt>
      <trkpt lat="44.50649" lon="5.81432">
        <ele>835.40002441406</ele>
        <time>2021-08-31T14:29:19Z</time>
      </trkpt>
      <trkpt lat="44.50641" lon="5.8144">
        <ele>836.20001220703</ele>
        <time>2021-08-31T14:29:25Z</time>
      </trkpt>
      <trkpt lat="44.50639" lon="5.81444">
        <ele>836.40002441406</ele>
        <time>2021-08-31T14:29:27Z</time>
      </trkpt>
      <trkpt lat="44.50638" lon="5.81447">
        <ele>836.79998779297</ele>
        <time>2021-08-31T14:29:29Z</time>
      </trkpt>
      <trkpt lat="44.50635" lon="5.81448">
        <ele>837.20001220703</ele>
        <time>2021-08-31T14:29:31Z</time>
      </trkpt>
      <trkpt lat="44.50633" lon="5.81452">
        <ele>838.40002441406</ele>
        <time>2021-08-31T14:31:44Z</time>
      </trkpt>
      <trkpt lat="44.50631" lon="5.81458">
        <ele>838.40002441406</ele>
        <time>2021-08-31T14:31:47Z</time>
      </trkpt>
      <trkpt lat="44.50629" lon="5.81464">
        <ele>838.59997558594</ele>
        <time>2021-08-31T14:31:50Z</time>
      </trkpt>
      <trkpt lat="44.50625" lon="5.81472">
        <ele>839</ele>
        <time>2021-08-31T14:31:54Z</time>
      </trkpt>
      <trkpt lat="44.50623" lon="5.81475">
        <ele>839.40002441406</ele>
        <time>2021-08-31T14:31:56Z</time>
      </trkpt>
      <trkpt lat="44.50618" lon="5.81483">
        <ele>840.20001220703</ele>
        <time>2021-08-31T14:32:01Z</time>
      </trkpt>
      <trkpt lat="44.50615" lon="5.81488">
        <ele>840.59997558594</ele>
        <time>2021-08-31T14:32:04Z</time>
      </trkpt>
      <trkpt lat="44.5061" lon="5.81495">
        <ele>841.20001220703</ele>
        <time>2021-08-31T14:32:09Z</time>
      </trkpt>
      <trkpt lat="44.50607" lon="5.81501">
        <ele>841.59997558594</ele>
        <time>2021-08-31T14:32:12Z</time>
      </trkpt>
      <trkpt lat="44.50602" lon="5.81508">
        <ele>842.40002441406</ele>
        <time>2021-08-31T14:32:17Z</time>
      </trkpt>
      <trkpt lat="44.50598" lon="5.81512">
        <ele>842.79998779297</ele>
        <time>2021-08-31T14:32:20Z</time>
      </trkpt>
      <trkpt lat="44.50592" lon="5.81521">
        <ele>843.59997558594</ele>
        <time>2021-08-31T14:32:26Z</time>
      </trkpt>
      <trkpt lat="44.50591" lon="5.81522">
        <ele>843.79998779297</ele>
        <time>2021-08-31T14:32:27Z</time>
      </trkpt>
      <trkpt lat="44.50586" lon="5.81531">
        <ele>844.79998779297</ele>
        <time>2021-08-31T14:32:33Z</time>
      </trkpt>
      <trkpt lat="44.50585" lon="5.81532">
        <ele>845</ele>
        <time>2021-08-31T14:32:34Z</time>
      </trkpt>
      <trkpt lat="44.5058" lon="5.81541">
        <ele>846</ele>
        <time>2021-08-31T14:32:40Z</time>
      </trkpt>
      <trkpt lat="44.50576" lon="5.81544">
        <ele>846.40002441406</ele>
        <time>2021-08-31T14:32:43Z</time>
      </trkpt>
      <trkpt lat="44.5057" lon="5.81552">
        <ele>847.20001220703</ele>
        <time>2021-08-31T14:32:49Z</time>
      </trkpt>
      <trkpt lat="44.50567" lon="5.81555">
        <ele>847.40002441406</ele>
        <time>2021-08-31T14:32:52Z</time>
      </trkpt>
      <trkpt lat="44.50561" lon="5.81558">
        <ele>848.20001220703</ele>
        <time>2021-08-31T14:32:56Z</time>
      </trkpt>
      <trkpt lat="44.50559" lon="5.8156">
        <ele>848.40002441406</ele>
        <time>2021-08-31T14:32:58Z</time>
      </trkpt>
      <trkpt lat="44.5055" lon="5.81564">
        <ele>849</ele>
        <time>2021-08-31T14:33:04Z</time>
      </trkpt>
      <trkpt lat="44.50549" lon="5.81565">
        <ele>849.20001220703</ele>
        <time>2021-08-31T14:33:05Z</time>
      </trkpt>
      <trkpt lat="44.50539" lon="5.81571">
        <ele>850.20001220703</ele>
        <time>2021-08-31T14:33:13Z</time>
      </trkpt>
      <trkpt lat="44.50538" lon="5.81572">
        <ele>850.40002441406</ele>
        <time>2021-08-31T14:33:14Z</time>
      </trkpt>
      <trkpt lat="44.5053" lon="5.81578">
        <ele>851.40002441406</ele>
        <time>2021-08-31T14:33:21Z</time>
      </trkpt>
      <trkpt lat="44.50521" lon="5.81583">
        <ele>852.40002441406</ele>
        <time>2021-08-31T14:33:27Z</time>
      </trkpt>
      <trkpt lat="44.50518" lon="5.81587">
        <ele>853</ele>
        <time>2021-08-31T14:33:30Z</time>
      </trkpt>
      <trkpt lat="44.50513" lon="5.81591">
        <ele>853.40002441406</ele>
        <time>2021-08-31T14:33:34Z</time>
      </trkpt>
      <trkpt lat="44.50509" lon="5.81595">
        <ele>854</ele>
        <time>2021-08-31T14:33:38Z</time>
      </trkpt>
      <trkpt lat="44.50506" lon="5.816">
        <ele>854.40002441406</ele>
        <time>2021-08-31T14:33:41Z</time>
      </trkpt>
      <trkpt lat="44.50501" lon="5.81609">
        <ele>855.20001220703</ele>
        <time>2021-08-31T14:33:46Z</time>
      </trkpt>
      <trkpt lat="44.50499" lon="5.81614">
        <ele>855.59997558594</ele>
        <time>2021-08-31T14:33:49Z</time>
      </trkpt>
      <trkpt lat="44.50494" lon="5.81623">
        <ele>856.59997558594</ele>
        <time>2021-08-31T14:33:54Z</time>
      </trkpt>
      <trkpt lat="44.50488" lon="5.81637">
        <ele>857.79998779297</ele>
        <time>2021-08-31T14:34:02Z</time>
      </trkpt>
      <trkpt lat="44.50486" lon="5.81639">
        <ele>857.79998779297</ele>
        <time>2021-08-31T14:34:03Z</time>
      </trkpt>
      <trkpt lat="44.5048" lon="5.81647">
        <ele>858.79998779297</ele>
        <time>2021-08-31T14:34:09Z</time>
      </trkpt>
      <trkpt lat="44.50475" lon="5.81654">
        <ele>859.40002441406</ele>
        <time>2021-08-31T14:34:13Z</time>
      </trkpt>
      <trkpt lat="44.50472" lon="5.81657">
        <ele>859.79998779297</ele>
        <time>2021-08-31T14:34:16Z</time>
      </trkpt>
      <trkpt lat="44.50466" lon="5.81663">
        <ele>860.59997558594</ele>
        <time>2021-08-31T14:34:21Z</time>
      </trkpt>
      <trkpt lat="44.50463" lon="5.81665">
        <ele>861</ele>
        <time>2021-08-31T14:34:23Z</time>
      </trkpt>
      <trkpt lat="44.50457" lon="5.81671">
        <ele>861.79998779297</ele>
        <time>2021-08-31T14:34:29Z</time>
      </trkpt>
      <trkpt lat="44.50455" lon="5.81673">
        <ele>862.20001220703</ele>
        <time>2021-08-31T14:34:31Z</time>
      </trkpt>
      <trkpt lat="44.50449" lon="5.81682">
        <ele>863</ele>
        <time>2021-08-31T14:34:37Z</time>
      </trkpt>
      <trkpt lat="44.50446" lon="5.81684">
        <ele>863.20001220703</ele>
        <time>2021-08-31T14:34:39Z</time>
      </trkpt>
      <trkpt lat="44.50442" lon="5.81692">
        <ele>864.20001220703</ele>
        <time>2021-08-31T14:34:44Z</time>
      </trkpt>
      <trkpt lat="44.50441" lon="5.81694">
        <ele>864.40002441406</ele>
        <time>2021-08-31T14:34:45Z</time>
      </trkpt>
      <trkpt lat="44.50435" lon="5.817">
        <ele>865.20001220703</ele>
        <time>2021-08-31T14:34:50Z</time>
      </trkpt>
      <trkpt lat="44.50432" lon="5.81701">
        <ele>865.40002441406</ele>
        <time>2021-08-31T14:34:52Z</time>
      </trkpt>
      <trkpt lat="44.50426" lon="5.81706">
        <ele>866</ele>
        <time>2021-08-31T14:34:57Z</time>
      </trkpt>
      <trkpt lat="44.50422" lon="5.81709">
        <ele>866.40002441406</ele>
        <time>2021-08-31T14:35:00Z</time>
      </trkpt>
      <trkpt lat="44.50414" lon="5.81715">
        <ele>867.59997558594</ele>
        <time>2021-08-31T14:35:07Z</time>
      </trkpt>
      <trkpt lat="44.50412" lon="5.81716">
        <ele>867.79998779297</ele>
        <time>2021-08-31T14:35:08Z</time>
      </trkpt>
      <trkpt lat="44.50407" lon="5.81723">
        <ele>868.59997558594</ele>
        <time>2021-08-31T14:35:13Z</time>
      </trkpt>
      <trkpt lat="44.50405" lon="5.81725">
        <ele>868.79998779297</ele>
        <time>2021-08-31T14:35:14Z</time>
      </trkpt>
      <trkpt lat="44.50403" lon="5.81728">
        <ele>869.20001220703</ele>
        <time>2021-08-31T14:35:16Z</time>
      </trkpt>
      <trkpt lat="44.504" lon="5.81735">
        <ele>869.79998779297</ele>
        <time>2021-08-31T14:35:20Z</time>
      </trkpt>
      <trkpt lat="44.50395" lon="5.81744">
        <ele>870.40002441406</ele>
        <time>2021-08-31T14:35:25Z</time>
      </trkpt>
      <trkpt lat="44.50392" lon="5.81749">
        <ele>870.79998779297</ele>
        <time>2021-08-31T14:35:28Z</time>
      </trkpt>
      <trkpt lat="44.50388" lon="5.81756">
        <ele>871.59997558594</ele>
        <time>2021-08-31T14:35:32Z</time>
      </trkpt>
      <trkpt lat="44.50385" lon="5.81759">
        <ele>871.79998779297</ele>
        <time>2021-08-31T14:35:34Z</time>
      </trkpt>
      <trkpt lat="44.50377" lon="5.81772">
        <ele>872.79998779297</ele>
        <time>2021-08-31T14:35:42Z</time>
      </trkpt>
      <trkpt lat="44.50376" lon="5.81774">
        <ele>873</ele>
        <time>2021-08-31T14:35:43Z</time>
      </trkpt>
      <trkpt lat="44.50371" lon="5.81782">
        <ele>874</ele>
        <time>2021-08-31T14:35:48Z</time>
      </trkpt>
      <trkpt lat="44.50369" lon="5.81786">
        <ele>874.40002441406</ele>
        <time>2021-08-31T14:35:50Z</time>
      </trkpt>
      <trkpt lat="44.50365" lon="5.81793">
        <ele>875</ele>
        <time>2021-08-31T14:35:54Z</time>
      </trkpt>
      <trkpt lat="44.50361" lon="5.81799">
        <ele>875.59997558594</ele>
        <time>2021-08-31T14:35:58Z</time>
      </trkpt>
      <trkpt lat="44.50357" lon="5.81805">
        <ele>876.20001220703</ele>
        <time>2021-08-31T14:36:02Z</time>
      </trkpt>
      <trkpt lat="44.50352" lon="5.81815">
        <ele>876.79998779297</ele>
        <time>2021-08-31T14:36:07Z</time>
      </trkpt>
      <trkpt lat="44.50348" lon="5.81819">
        <ele>877.20001220703</ele>
        <time>2021-08-31T14:36:11Z</time>
      </trkpt>
      <trkpt lat="44.50342" lon="5.81831">
        <ele>878.20001220703</ele>
        <time>2021-08-31T14:36:18Z</time>
      </trkpt>
      <trkpt lat="44.5034" lon="5.81832">
        <ele>878.40002441406</ele>
        <time>2021-08-31T14:36:19Z</time>
      </trkpt>
      <trkpt lat="44.50335" lon="5.81839">
        <ele>879</ele>
        <time>2021-08-31T14:36:23Z</time>
      </trkpt>
      <trkpt lat="44.50334" lon="5.81843">
        <ele>879.40002441406</ele>
        <time>2021-08-31T14:36:25Z</time>
      </trkpt>
      <trkpt lat="44.50334" lon="5.81845">
        <ele>879.59997558594</ele>
        <time>2021-08-31T14:36:26Z</time>
      </trkpt>
      <trkpt lat="44.50334" lon="5.81858">
        <ele>880.40002441406</ele>
        <time>2021-08-31T14:36:32Z</time>
      </trkpt>
      <trkpt lat="44.50334" lon="5.81861">
        <ele>880.59997558594</ele>
        <time>2021-08-31T14:36:33Z</time>
      </trkpt>
      <trkpt lat="44.50335" lon="5.81869">
        <ele>881.40002441406</ele>
        <time>2021-08-31T14:36:37Z</time>
      </trkpt>
      <trkpt lat="44.50335" lon="5.81871">
        <ele>881.40002441406</ele>
        <time>2021-08-31T14:36:38Z</time>
      </trkpt>
      <trkpt lat="44.50336" lon="5.81877">
        <ele>881.79998779297</ele>
        <time>2021-08-31T14:36:41Z</time>
      </trkpt>
      <trkpt lat="44.50337" lon="5.81888">
        <ele>882.59997558594</ele>
        <time>2021-08-31T14:36:46Z</time>
      </trkpt>
      <trkpt lat="44.50336" lon="5.81895">
        <ele>883.20001220703</ele>
        <time>2021-08-31T14:36:49Z</time>
      </trkpt>
      <trkpt lat="44.50334" lon="5.81899">
        <ele>883.59997558594</ele>
        <time>2021-08-31T14:36:51Z</time>
      </trkpt>
      <trkpt lat="44.5033" lon="5.81911">
        <ele>884.20001220703</ele>
        <time>2021-08-31T14:36:57Z</time>
      </trkpt>
      <trkpt lat="44.50328" lon="5.81914">
        <ele>884.79998779297</ele>
        <time>2021-08-31T14:36:59Z</time>
      </trkpt>
      <trkpt lat="44.50323" lon="5.81923">
        <ele>885.59997558594</ele>
        <time>2021-08-31T14:37:04Z</time>
      </trkpt>
      <trkpt lat="44.5032" lon="5.81926">
        <ele>885.79998779297</ele>
        <time>2021-08-31T14:37:06Z</time>
      </trkpt>
      <trkpt lat="44.5031" lon="5.81938">
        <ele>887</ele>
        <time>2021-08-31T14:37:14Z</time>
      </trkpt>
      <trkpt lat="44.50302" lon="5.81949">
        <ele>888</ele>
        <time>2021-08-31T14:37:21Z</time>
      </trkpt>
      <trkpt lat="44.50301" lon="5.8195">
        <ele>888.20001220703</ele>
        <time>2021-08-31T14:37:22Z</time>
      </trkpt>
      <trkpt lat="44.50295" lon="5.8196">
        <ele>889</ele>
        <time>2021-08-31T14:37:28Z</time>
      </trkpt>
      <trkpt lat="44.50294" lon="5.81962">
        <ele>889.20001220703</ele>
        <time>2021-08-31T14:37:29Z</time>
      </trkpt>
      <trkpt lat="44.50289" lon="5.81976">
        <ele>890.40002441406</ele>
        <time>2021-08-31T14:37:36Z</time>
      </trkpt>
      <trkpt lat="44.50287" lon="5.81979">
        <ele>890.79998779297</ele>
        <time>2021-08-31T14:37:38Z</time>
      </trkpt>
      <trkpt lat="44.50283" lon="5.81987">
        <ele>891.40002441406</ele>
        <time>2021-08-31T14:37:43Z</time>
      </trkpt>
      <trkpt lat="44.50282" lon="5.81988">
        <ele>891.59997558594</ele>
        <time>2021-08-31T14:37:44Z</time>
      </trkpt>
      <trkpt lat="44.50281" lon="5.81992">
        <ele>891.40002441406</ele>
        <time>2021-08-31T14:41:07Z</time>
      </trkpt>
      <trkpt lat="44.50279" lon="5.81997">
        <ele>891.40002441406</ele>
        <time>2021-08-31T14:41:09Z</time>
      </trkpt>
      <trkpt lat="44.50269" lon="5.82012">
        <ele>891</ele>
        <time>2021-08-31T14:41:14Z</time>
      </trkpt>
      <trkpt lat="44.50263" lon="5.82018">
        <ele>890.40002441406</ele>
        <time>2021-08-31T14:41:16Z</time>
      </trkpt>
      <trkpt lat="44.50255" lon="5.8202">
        <ele>890</ele>
        <time>2021-08-31T14:41:18Z</time>
      </trkpt>
      <trkpt lat="44.5025" lon="5.82021">
        <ele>889.79998779297</ele>
        <time>2021-08-31T14:41:19Z</time>
      </trkpt>
      <trkpt lat="44.50241" lon="5.82023">
        <ele>889.40002441406</ele>
        <time>2021-08-31T14:41:21Z</time>
      </trkpt>
      <trkpt lat="44.50236" lon="5.82025">
        <ele>889.20001220703</ele>
        <time>2021-08-31T14:41:22Z</time>
      </trkpt>
      <trkpt lat="44.50225" lon="5.82029">
        <ele>889</ele>
        <time>2021-08-31T14:41:24Z</time>
      </trkpt>
      <trkpt lat="44.50206" lon="5.82036">
        <ele>888.20001220703</ele>
        <time>2021-08-31T14:41:27Z</time>
      </trkpt>
      <trkpt lat="44.50185" lon="5.82045">
        <ele>887</ele>
        <time>2021-08-31T14:41:30Z</time>
      </trkpt>
      <trkpt lat="44.50154" lon="5.82056">
        <ele>885.79998779297</ele>
        <time>2021-08-31T14:41:34Z</time>
      </trkpt>
      <trkpt lat="44.50137" lon="5.82059">
        <ele>885.20001220703</ele>
        <time>2021-08-31T14:41:36Z</time>
      </trkpt>
      <trkpt lat="44.50119" lon="5.82058">
        <ele>884.40002441406</ele>
        <time>2021-08-31T14:41:38Z</time>
      </trkpt>
      <trkpt lat="44.5009" lon="5.82056">
        <ele>883.40002441406</ele>
        <time>2021-08-31T14:41:41Z</time>
      </trkpt>
      <trkpt lat="44.5008" lon="5.82054">
        <ele>883</ele>
        <time>2021-08-31T14:41:42Z</time>
      </trkpt>
      <trkpt lat="44.50059" lon="5.82052">
        <ele>882.40002441406</ele>
        <time>2021-08-31T14:41:44Z</time>
      </trkpt>
      <trkpt lat="44.5005" lon="5.82048">
        <ele>881.79998779297</ele>
        <time>2021-08-31T14:41:45Z</time>
      </trkpt>
      <trkpt lat="44.50032" lon="5.82039">
        <ele>881</ele>
        <time>2021-08-31T14:41:47Z</time>
      </trkpt>
      <trkpt lat="44.4999" lon="5.82023">
        <ele>880</ele>
        <time>2021-08-31T14:41:52Z</time>
      </trkpt>
      <trkpt lat="44.49981" lon="5.82023">
        <ele>879.79998779297</ele>
        <time>2021-08-31T14:41:53Z</time>
      </trkpt>
      <trkpt lat="44.49965" lon="5.8203">
        <ele>878.40002441406</ele>
        <time>2021-08-31T14:41:55Z</time>
      </trkpt>
      <trkpt lat="44.49949" lon="5.82044">
        <ele>877.20001220703</ele>
        <time>2021-08-31T14:41:57Z</time>
      </trkpt>
      <trkpt lat="44.49942" lon="5.82053">
        <ele>876.40002441406</ele>
        <time>2021-08-31T14:41:58Z</time>
      </trkpt>
      <trkpt lat="44.49934" lon="5.82062">
        <ele>875.79998779297</ele>
        <time>2021-08-31T14:41:59Z</time>
      </trkpt>
      <trkpt lat="44.49927" lon="5.82069">
        <ele>875.20001220703</ele>
        <time>2021-08-31T14:42:00Z</time>
      </trkpt>
      <trkpt lat="44.49918" lon="5.82077">
        <ele>874.59997558594</ele>
        <time>2021-08-31T14:42:01Z</time>
      </trkpt>
      <trkpt lat="44.49901" lon="5.8209">
        <ele>873.20001220703</ele>
        <time>2021-08-31T14:42:03Z</time>
      </trkpt>
      <trkpt lat="44.49882" lon="5.82103">
        <ele>872.20001220703</ele>
        <time>2021-08-31T14:42:05Z</time>
      </trkpt>
      <trkpt lat="44.49854" lon="5.82122">
        <ele>870.59997558594</ele>
        <time>2021-08-31T14:42:08Z</time>
      </trkpt>
      <trkpt lat="44.49837" lon="5.82134">
        <ele>869.79998779297</ele>
        <time>2021-08-31T14:42:10Z</time>
      </trkpt>
      <trkpt lat="44.49829" lon="5.82139">
        <ele>869.59997558594</ele>
        <time>2021-08-31T14:42:11Z</time>
      </trkpt>
      <trkpt lat="44.49821" lon="5.82142">
        <ele>869.20001220703</ele>
        <time>2021-08-31T14:42:12Z</time>
      </trkpt>
      <trkpt lat="44.49812" lon="5.82143">
        <ele>868.79998779297</ele>
        <time>2021-08-31T14:42:13Z</time>
      </trkpt>
      <trkpt lat="44.49803" lon="5.82144">
        <ele>868.40002441406</ele>
        <time>2021-08-31T14:42:14Z</time>
      </trkpt>
      <trkpt lat="44.49775" lon="5.82146">
        <ele>867</ele>
        <time>2021-08-31T14:42:17Z</time>
      </trkpt>
      <trkpt lat="44.49765" lon="5.82148">
        <ele>866</ele>
        <time>2021-08-31T14:42:18Z</time>
      </trkpt>
      <trkpt lat="44.49755" lon="5.8215">
        <ele>865.40002441406</ele>
        <time>2021-08-31T14:42:19Z</time>
      </trkpt>
      <trkpt lat="44.49745" lon="5.82154">
        <ele>864.79998779297</ele>
        <time>2021-08-31T14:42:20Z</time>
      </trkpt>
      <trkpt lat="44.49725" lon="5.82163">
        <ele>863.40002441406</ele>
        <time>2021-08-31T14:42:22Z</time>
      </trkpt>
      <trkpt lat="44.49715" lon="5.82168">
        <ele>862.59997558594</ele>
        <time>2021-08-31T14:42:23Z</time>
      </trkpt>
      <trkpt lat="44.49706" lon="5.82172">
        <ele>861.79998779297</ele>
        <time>2021-08-31T14:42:24Z</time>
      </trkpt>
      <trkpt lat="44.49698" lon="5.82177">
        <ele>860.79998779297</ele>
        <time>2021-08-31T14:42:25Z</time>
      </trkpt>
      <trkpt lat="44.49692" lon="5.82186">
        <ele>860</ele>
        <time>2021-08-31T14:42:26Z</time>
      </trkpt>
      <trkpt lat="44.49681" lon="5.82207">
        <ele>858.20001220703</ele>
        <time>2021-08-31T14:42:28Z</time>
      </trkpt>
      <trkpt lat="44.49675" lon="5.82216">
        <ele>857.40002441406</ele>
        <time>2021-08-31T14:42:29Z</time>
      </trkpt>
      <trkpt lat="44.49669" lon="5.82224">
        <ele>856.59997558594</ele>
        <time>2021-08-31T14:42:30Z</time>
      </trkpt>
      <trkpt lat="44.49653" lon="5.82239">
        <ele>855.20001220703</ele>
        <time>2021-08-31T14:42:32Z</time>
      </trkpt>
      <trkpt lat="44.49638" lon="5.82252">
        <ele>853.79998779297</ele>
        <time>2021-08-31T14:42:34Z</time>
      </trkpt>
      <trkpt lat="44.49627" lon="5.82262">
        <ele>852.20001220703</ele>
        <time>2021-08-31T14:42:36Z</time>
      </trkpt>
      <trkpt lat="44.49624" lon="5.82267">
        <ele>851.40002441406</ele>
        <time>2021-08-31T14:42:37Z</time>
      </trkpt>
      <trkpt lat="44.49622" lon="5.82273">
        <ele>850.59997558594</ele>
        <time>2021-08-31T14:42:38Z</time>
      </trkpt>
      <trkpt lat="44.49621" lon="5.8228">
        <ele>850</ele>
        <time>2021-08-31T14:42:39Z</time>
      </trkpt>
      <trkpt lat="44.49622" lon="5.82288">
        <ele>849.20001220703</ele>
        <time>2021-08-31T14:42:40Z</time>
      </trkpt>
      <trkpt lat="44.49629" lon="5.82301">
        <ele>847.79998779297</ele>
        <time>2021-08-31T14:42:42Z</time>
      </trkpt>
      <trkpt lat="44.4964" lon="5.82311">
        <ele>847</ele>
        <time>2021-08-31T14:42:44Z</time>
      </trkpt>
      <trkpt lat="44.49644" lon="5.82318">
        <ele>846.79998779297</ele>
        <time>2021-08-31T14:42:45Z</time>
      </trkpt>
      <trkpt lat="44.49645" lon="5.82327">
        <ele>846.40002441406</ele>
        <time>2021-08-31T14:42:46Z</time>
      </trkpt>
      <trkpt lat="44.49645" lon="5.82337">
        <ele>846</ele>
        <time>2021-08-31T14:42:47Z</time>
      </trkpt>
      <trkpt lat="44.49638" lon="5.82353">
        <ele>845.20001220703</ele>
        <time>2021-08-31T14:42:49Z</time>
      </trkpt>
      <trkpt lat="44.49632" lon="5.82359">
        <ele>844.79998779297</ele>
        <time>2021-08-31T14:42:50Z</time>
      </trkpt>
      <trkpt lat="44.49621" lon="5.8237">
        <ele>843.79998779297</ele>
        <time>2021-08-31T14:42:52Z</time>
      </trkpt>
      <trkpt lat="44.49603" lon="5.82387">
        <ele>842.79998779297</ele>
        <time>2021-08-31T14:42:55Z</time>
      </trkpt>
      <trkpt lat="44.49571" lon="5.8242">
        <ele>841.59997558594</ele>
        <time>2021-08-31T14:43:00Z</time>
      </trkpt>
      <trkpt lat="44.49564" lon="5.82427">
        <ele>841.40002441406</ele>
        <time>2021-08-31T14:43:01Z</time>
      </trkpt>
      <trkpt lat="44.49542" lon="5.8245">
        <ele>840.40002441406</ele>
        <time>2021-08-31T14:43:04Z</time>
      </trkpt>
      <trkpt lat="44.49527" lon="5.82466">
        <ele>839.20001220703</ele>
        <time>2021-08-31T14:43:06Z</time>
      </trkpt>
      <trkpt lat="44.49519" lon="5.82474">
        <ele>838.79998779297</ele>
        <time>2021-08-31T14:43:07Z</time>
      </trkpt>
      <trkpt lat="44.49503" lon="5.8249">
        <ele>837.79998779297</ele>
        <time>2021-08-31T14:43:09Z</time>
      </trkpt>
      <trkpt lat="44.49478" lon="5.82514">
        <ele>836.59997558594</ele>
        <time>2021-08-31T14:43:12Z</time>
      </trkpt>
      <trkpt lat="44.49454" lon="5.82538">
        <ele>835.59997558594</ele>
        <time>2021-08-31T14:43:15Z</time>
      </trkpt>
      <trkpt lat="44.49447" lon="5.82545">
        <ele>835.40002441406</ele>
        <time>2021-08-31T14:43:16Z</time>
      </trkpt>
      <trkpt lat="44.49415" lon="5.82577">
        <ele>834.40002441406</ele>
        <time>2021-08-31T14:43:20Z</time>
      </trkpt>
      <trkpt lat="44.49392" lon="5.826">
        <ele>833.40002441406</ele>
        <time>2021-08-31T14:43:23Z</time>
      </trkpt>
      <trkpt lat="44.49384" lon="5.82608">
        <ele>832.59997558594</ele>
        <time>2021-08-31T14:43:24Z</time>
      </trkpt>
      <trkpt lat="44.49376" lon="5.82618">
        <ele>832</ele>
        <time>2021-08-31T14:43:25Z</time>
      </trkpt>
      <trkpt lat="44.49363" lon="5.82641">
        <ele>830.59997558594</ele>
        <time>2021-08-31T14:43:27Z</time>
      </trkpt>
      <trkpt lat="44.49359" lon="5.82655">
        <ele>830</ele>
        <time>2021-08-31T14:43:28Z</time>
      </trkpt>
      <trkpt lat="44.49353" lon="5.82668">
        <ele>829.40002441406</ele>
        <time>2021-08-31T14:43:29Z</time>
      </trkpt>
      <trkpt lat="44.49346" lon="5.82681">
        <ele>828.20001220703</ele>
        <time>2021-08-31T14:43:30Z</time>
      </trkpt>
      <trkpt lat="44.49339" lon="5.82691">
        <ele>827.59997558594</ele>
        <time>2021-08-31T14:43:31Z</time>
      </trkpt>
      <trkpt lat="44.4933" lon="5.827">
        <ele>827</ele>
        <time>2021-08-31T14:43:32Z</time>
      </trkpt>
      <trkpt lat="44.49312" lon="5.82712">
        <ele>825.79998779297</ele>
        <time>2021-08-31T14:43:34Z</time>
      </trkpt>
      <trkpt lat="44.49303" lon="5.82717">
        <ele>825.20001220703</ele>
        <time>2021-08-31T14:43:35Z</time>
      </trkpt>
      <trkpt lat="44.49296" lon="5.82723">
        <ele>824.79998779297</ele>
        <time>2021-08-31T14:43:36Z</time>
      </trkpt>
      <trkpt lat="44.4929" lon="5.82732">
        <ele>824.40002441406</ele>
        <time>2021-08-31T14:43:37Z</time>
      </trkpt>
      <trkpt lat="44.49269" lon="5.82763">
        <ele>824.20001220703</ele>
        <time>2021-08-31T14:43:41Z</time>
      </trkpt>
      <trkpt lat="44.4926" lon="5.82777">
        <ele>824.20001220703</ele>
        <time>2021-08-31T14:43:43Z</time>
      </trkpt>
      <trkpt lat="44.49254" lon="5.82794">
        <ele>824.20001220703</ele>
        <time>2021-08-31T14:43:45Z</time>
      </trkpt>
      <trkpt lat="44.49244" lon="5.82826">
        <ele>823.59997558594</ele>
        <time>2021-08-31T14:43:49Z</time>
      </trkpt>
      <trkpt lat="44.49242" lon="5.82844">
        <ele>823.40002441406</ele>
        <time>2021-08-31T14:43:51Z</time>
      </trkpt>
      <trkpt lat="44.49244" lon="5.82884">
        <ele>822.79998779297</ele>
        <time>2021-08-31T14:43:55Z</time>
      </trkpt>
      <trkpt lat="44.49241" lon="5.82903">
        <ele>822.40002441406</ele>
        <time>2021-08-31T14:43:57Z</time>
      </trkpt>
      <trkpt lat="44.49237" lon="5.8291">
        <ele>822.20001220703</ele>
        <time>2021-08-31T14:43:58Z</time>
      </trkpt>
      <trkpt lat="44.49225" lon="5.82923">
        <ele>821.79998779297</ele>
        <time>2021-08-31T14:44:01Z</time>
      </trkpt>
      <trkpt lat="44.49221" lon="5.82926">
        <ele>821.79998779297</ele>
        <time>2021-08-31T14:44:02Z</time>
      </trkpt>
      <trkpt lat="44.4921" lon="5.82933">
        <ele>822.59997558594</ele>
        <time>2021-08-31T14:44:06Z</time>
      </trkpt>
      <trkpt lat="44.49202" lon="5.8294">
        <ele>823.40002441406</ele>
        <time>2021-08-31T14:44:10Z</time>
      </trkpt>
      <trkpt lat="44.49199" lon="5.82942">
        <ele>823.79998779297</ele>
        <time>2021-08-31T14:44:12Z</time>
      </trkpt>
      <trkpt lat="44.49198" lon="5.82944">
        <ele>824</ele>
        <time>2021-08-31T14:44:13Z</time>
      </trkpt>
      <trkpt lat="44.49195" lon="5.8295">
        <ele>824.40002441406</ele>
        <time>2021-08-31T14:44:16Z</time>
      </trkpt>
      <trkpt lat="44.49194" lon="5.82951">
        <ele>824.59997558594</ele>
        <time>2021-08-31T14:44:17Z</time>
      </trkpt>
      <trkpt lat="44.49192" lon="5.82952">
        <ele>824.79998779297</ele>
        <time>2021-08-31T14:44:18Z</time>
      </trkpt>
      <trkpt lat="44.49185" lon="5.82963">
        <ele>825.40002441406</ele>
        <time>2021-08-31T14:44:24Z</time>
      </trkpt>
      <trkpt lat="44.49184" lon="5.82965">
        <ele>825.59997558594</ele>
        <time>2021-08-31T14:44:25Z</time>
      </trkpt>
      <trkpt lat="44.49178" lon="5.8298">
        <ele>826.40002441406</ele>
        <time>2021-08-31T14:44:32Z</time>
      </trkpt>
      <trkpt lat="44.49177" lon="5.82985">
        <ele>826.59997558594</ele>
        <time>2021-08-31T14:44:34Z</time>
      </trkpt>
      <trkpt lat="44.49174" lon="5.83001">
        <ele>827</ele>
        <time>2021-08-31T14:44:40Z</time>
      </trkpt>
      <trkpt lat="44.49169" lon="5.83013">
        <ele>827.59997558594</ele>
        <time>2021-08-31T14:44:45Z</time>
      </trkpt>
      <trkpt lat="44.49168" lon="5.83018">
        <ele>827.79998779297</ele>
        <time>2021-08-31T14:44:47Z</time>
      </trkpt>
      <trkpt lat="44.49164" lon="5.83034">
        <ele>828.79998779297</ele>
        <time>2021-08-31T14:44:53Z</time>
      </trkpt>
      <trkpt lat="44.49163" lon="5.83036">
        <ele>829</ele>
        <time>2021-08-31T14:44:54Z</time>
      </trkpt>
      <trkpt lat="44.49158" lon="5.83052">
        <ele>829.79998779297</ele>
        <time>2021-08-31T14:45:01Z</time>
      </trkpt>
      <trkpt lat="44.49157" lon="5.83054">
        <ele>829.79998779297</ele>
        <time>2021-08-31T14:45:02Z</time>
      </trkpt>
      <trkpt lat="44.49153" lon="5.8307">
        <ele>830.79998779297</ele>
        <time>2021-08-31T14:45:09Z</time>
      </trkpt>
      <trkpt lat="44.49152" lon="5.83073">
        <ele>830.79998779297</ele>
        <time>2021-08-31T14:45:10Z</time>
      </trkpt>
      <trkpt lat="44.49147" lon="5.83089">
        <ele>831.40002441406</ele>
        <time>2021-08-31T14:45:17Z</time>
      </trkpt>
      <trkpt lat="44.49145" lon="5.831">
        <ele>832</ele>
        <time>2021-08-31T14:45:22Z</time>
      </trkpt>
      <trkpt lat="44.49145" lon="5.83104">
        <ele>832.40002441406</ele>
        <time>2021-08-31T14:45:24Z</time>
      </trkpt>
      <trkpt lat="44.49144" lon="5.83119">
        <ele>833.20001220703</ele>
        <time>2021-08-31T14:45:30Z</time>
      </trkpt>
      <trkpt lat="44.49145" lon="5.83126">
        <ele>833.40002441406</ele>
        <time>2021-08-31T14:45:33Z</time>
      </trkpt>
      <trkpt lat="44.4915" lon="5.83147">
        <ele>834.20001220703</ele>
        <time>2021-08-31T14:45:41Z</time>
      </trkpt>
      <trkpt lat="44.49152" lon="5.83149">
        <ele>834.20001220703</ele>
        <time>2021-08-31T14:45:42Z</time>
      </trkpt>
      <trkpt lat="44.49162" lon="5.83165">
        <ele>834.59997558594</ele>
        <time>2021-08-31T14:45:49Z</time>
      </trkpt>
      <trkpt lat="44.49175" lon="5.83183">
        <ele>835.20001220703</ele>
        <time>2021-08-31T14:45:57Z</time>
      </trkpt>
      <trkpt lat="44.49176" lon="5.83186">
        <ele>835.20001220703</ele>
        <time>2021-08-31T14:45:58Z</time>
      </trkpt>
      <trkpt lat="44.49187" lon="5.83204">
        <ele>835.79998779297</ele>
        <time>2021-08-31T14:46:05Z</time>
      </trkpt>
      <trkpt lat="44.492" lon="5.83224">
        <ele>836.40002441406</ele>
        <time>2021-08-31T14:46:14Z</time>
      </trkpt>
      <trkpt lat="44.49201" lon="5.83226">
        <ele>836.40002441406</ele>
        <time>2021-08-31T14:46:15Z</time>
      </trkpt>
      <trkpt lat="44.49217" lon="5.83248">
        <ele>837.20001220703</ele>
        <time>2021-08-31T14:46:25Z</time>
      </trkpt>
      <trkpt lat="44.49218" lon="5.8325">
        <ele>837.40002441406</ele>
        <time>2021-08-31T14:46:26Z</time>
      </trkpt>
      <trkpt lat="44.49228" lon="5.83269">
        <ele>838</ele>
        <time>2021-08-31T14:46:34Z</time>
      </trkpt>
      <trkpt lat="44.49232" lon="5.83276">
        <ele>838.40002441406</ele>
        <time>2021-08-31T14:46:37Z</time>
      </trkpt>
      <trkpt lat="44.49239" lon="5.83289">
        <ele>839.20001220703</ele>
        <time>2021-08-31T14:46:43Z</time>
      </trkpt>
      <trkpt lat="44.49242" lon="5.83293">
        <ele>839.59997558594</ele>
        <time>2021-08-31T14:46:45Z</time>
      </trkpt>
      <trkpt lat="44.49251" lon="5.83311">
        <ele>840.40002441406</ele>
        <time>2021-08-31T14:46:53Z</time>
      </trkpt>
      <trkpt lat="44.49252" lon="5.8332">
        <ele>840.59997558594</ele>
        <time>2021-08-31T14:46:56Z</time>
      </trkpt>
      <trkpt lat="44.49254" lon="5.83332">
        <ele>841.20001220703</ele>
        <time>2021-08-31T14:47:00Z</time>
      </trkpt>
      <trkpt lat="44.49255" lon="5.83353">
        <ele>841.59997558594</ele>
        <time>2021-08-31T14:47:06Z</time>
      </trkpt>
      <trkpt lat="44.49255" lon="5.83361">
        <ele>841.79998779297</ele>
        <time>2021-08-31T14:47:08Z</time>
      </trkpt>
      <trkpt lat="44.49256" lon="5.8338">
        <ele>842.20001220703</ele>
        <time>2021-08-31T14:47:13Z</time>
      </trkpt>
      <trkpt lat="44.49257" lon="5.83398">
        <ele>842.59997558594</ele>
        <time>2021-08-31T14:47:18Z</time>
      </trkpt>
      <trkpt lat="44.49257" lon="5.83406">
        <ele>842.79998779297</ele>
        <time>2021-08-31T14:47:20Z</time>
      </trkpt>
      <trkpt lat="44.49256" lon="5.83436">
        <ele>843.40002441406</ele>
        <time>2021-08-31T14:47:28Z</time>
      </trkpt>
      <trkpt lat="44.49258" lon="5.83463">
        <ele>843.59997558594</ele>
        <time>2021-08-31T14:47:34Z</time>
      </trkpt>
      <trkpt lat="44.4926" lon="5.83494">
        <ele>843.79998779297</ele>
        <time>2021-08-31T14:47:40Z</time>
      </trkpt>
      <trkpt lat="44.49262" lon="5.83508">
        <ele>844</ele>
        <time>2021-08-31T14:47:43Z</time>
      </trkpt>
      <trkpt lat="44.4927" lon="5.83551">
        <ele>843.79998779297</ele>
        <time>2021-08-31T14:47:52Z</time>
      </trkpt>
      <trkpt lat="44.49277" lon="5.83582">
        <ele>843.79998779297</ele>
        <time>2021-08-31T14:47:59Z</time>
      </trkpt>
      <trkpt lat="44.49282" lon="5.83603">
        <ele>844.20001220703</ele>
        <time>2021-08-31T14:48:05Z</time>
      </trkpt>
      <trkpt lat="44.49285" lon="5.83619">
        <ele>844.79998779297</ele>
        <time>2021-08-31T14:48:11Z</time>
      </trkpt>
      <trkpt lat="44.49287" lon="5.83624">
        <ele>845.20001220703</ele>
        <time>2021-08-31T14:48:13Z</time>
      </trkpt>
      <trkpt lat="44.49291" lon="5.8364">
        <ele>845.79998779297</ele>
        <time>2021-08-31T14:48:20Z</time>
      </trkpt>
      <trkpt lat="44.49292" lon="5.83654">
        <ele>847</ele>
        <time>2021-08-31T14:48:26Z</time>
      </trkpt>
      <trkpt lat="44.49292" lon="5.83657">
        <ele>847</ele>
        <time>2021-08-31T14:48:27Z</time>
      </trkpt>
      <trkpt lat="44.49298" lon="5.83673">
        <ele>848</ele>
        <time>2021-08-31T14:48:35Z</time>
      </trkpt>
      <trkpt lat="44.49298" lon="5.83675">
        <ele>848</ele>
        <time>2021-08-31T14:48:36Z</time>
      </trkpt>
      <trkpt lat="44.493" lon="5.8369">
        <ele>849.20001220703</ele>
        <time>2021-08-31T14:48:43Z</time>
      </trkpt>
      <trkpt lat="44.49301" lon="5.83694">
        <ele>849.40002441406</ele>
        <time>2021-08-31T14:48:45Z</time>
      </trkpt>
      <trkpt lat="44.49306" lon="5.83709">
        <ele>850</ele>
        <time>2021-08-31T14:48:52Z</time>
      </trkpt>
      <trkpt lat="44.49307" lon="5.83711">
        <ele>850.20001220703</ele>
        <time>2021-08-31T14:48:53Z</time>
      </trkpt>
      <trkpt lat="44.49307" lon="5.83713">
        <ele>850.40002441406</ele>
        <time>2021-08-31T14:48:54Z</time>
      </trkpt>
      <trkpt lat="44.49309" lon="5.83728">
        <ele>851.20001220703</ele>
        <time>2021-08-31T14:49:01Z</time>
      </trkpt>
      <trkpt lat="44.49311" lon="5.83734">
        <ele>851.59997558594</ele>
        <time>2021-08-31T14:49:04Z</time>
      </trkpt>
      <trkpt lat="44.49315" lon="5.83746">
        <ele>852.40002441406</ele>
        <time>2021-08-31T14:49:10Z</time>
      </trkpt>
      <trkpt lat="44.49318" lon="5.83763">
        <ele>853.40002441406</ele>
        <time>2021-08-31T14:49:18Z</time>
      </trkpt>
      <trkpt lat="44.49322" lon="5.83778">
        <ele>854.40002441406</ele>
        <time>2021-08-31T14:49:25Z</time>
      </trkpt>
      <trkpt lat="44.49322" lon="5.8378">
        <ele>854.40002441406</ele>
        <time>2021-08-31T14:49:26Z</time>
      </trkpt>
      <trkpt lat="44.49326" lon="5.83796">
        <ele>855.40002441406</ele>
        <time>2021-08-31T14:49:33Z</time>
      </trkpt>
      <trkpt lat="44.49327" lon="5.838">
        <ele>855.40002441406</ele>
        <time>2021-08-31T14:49:35Z</time>
      </trkpt>
      <trkpt lat="44.4933" lon="5.8381">
        <ele>856.20001220703</ele>
        <time>2021-08-31T14:49:40Z</time>
      </trkpt>
      <trkpt lat="44.49332" lon="5.83816">
        <ele>856.59997558594</ele>
        <time>2021-08-31T14:49:43Z</time>
      </trkpt>
      <trkpt lat="44.49334" lon="5.83827">
        <ele>857.40002441406</ele>
        <time>2021-08-31T14:49:48Z</time>
      </trkpt>
      <trkpt lat="44.49335" lon="5.83831">
        <ele>857.59997558594</ele>
        <time>2021-08-31T14:49:50Z</time>
      </trkpt>
      <trkpt lat="44.49338" lon="5.83843">
        <ele>858.40002441406</ele>
        <time>2021-08-31T14:49:56Z</time>
      </trkpt>
      <trkpt lat="44.49339" lon="5.83845">
        <ele>858.59997558594</ele>
        <time>2021-08-31T14:49:57Z</time>
      </trkpt>
      <trkpt lat="44.49339" lon="5.83847">
        <ele>858.59997558594</ele>
        <time>2021-08-31T14:49:58Z</time>
      </trkpt>
      <trkpt lat="44.49342" lon="5.83857">
        <ele>859.40002441406</ele>
        <time>2021-08-31T14:50:03Z</time>
      </trkpt>
      <trkpt lat="44.49344" lon="5.83866">
        <ele>859.79998779297</ele>
        <time>2021-08-31T14:50:07Z</time>
      </trkpt>
      <trkpt lat="44.49346" lon="5.83876">
        <ele>860.40002441406</ele>
        <time>2021-08-31T14:50:11Z</time>
      </trkpt>
      <trkpt lat="44.4935" lon="5.83893">
        <ele>860.79998779297</ele>
        <time>2021-08-31T14:50:18Z</time>
      </trkpt>
      <trkpt lat="44.49351" lon="5.83894">
        <ele>861</ele>
        <time>2021-08-31T14:50:19Z</time>
      </trkpt>
      <trkpt lat="44.49357" lon="5.83914">
        <ele>861.79998779297</ele>
        <time>2021-08-31T14:50:27Z</time>
      </trkpt>
      <trkpt lat="44.49359" lon="5.83919">
        <ele>861.79998779297</ele>
        <time>2021-08-31T14:50:29Z</time>
      </trkpt>
      <trkpt lat="44.49366" lon="5.83932">
        <ele>862.40002441406</ele>
        <time>2021-08-31T14:50:34Z</time>
      </trkpt>
      <trkpt lat="44.49372" lon="5.83946">
        <ele>863</ele>
        <time>2021-08-31T14:50:39Z</time>
      </trkpt>
      <trkpt lat="44.49375" lon="5.83954">
        <ele>863.20001220703</ele>
        <time>2021-08-31T14:50:42Z</time>
      </trkpt>
      <trkpt lat="44.4938" lon="5.83971">
        <ele>864</ele>
        <time>2021-08-31T14:50:48Z</time>
      </trkpt>
      <trkpt lat="44.49383" lon="5.83979">
        <ele>864.40002441406</ele>
        <time>2021-08-31T14:50:51Z</time>
      </trkpt>
      <trkpt lat="44.49392" lon="5.83995">
        <ele>865</ele>
        <time>2021-08-31T14:50:58Z</time>
      </trkpt>
      <trkpt lat="44.494" lon="5.84019">
        <ele>866</ele>
        <time>2021-08-31T14:51:06Z</time>
      </trkpt>
      <trkpt lat="44.49402" lon="5.84022">
        <ele>866.20001220703</ele>
        <time>2021-08-31T14:51:07Z</time>
      </trkpt>
      <trkpt lat="44.49414" lon="5.84047">
        <ele>867.20001220703</ele>
        <time>2021-08-31T14:51:16Z</time>
      </trkpt>
      <trkpt lat="44.49417" lon="5.84053">
        <ele>867.40002441406</ele>
        <time>2021-08-31T14:51:18Z</time>
      </trkpt>
      <trkpt lat="44.49426" lon="5.8407">
        <ele>867.79998779297</ele>
        <time>2021-08-31T14:51:24Z</time>
      </trkpt>
      <trkpt lat="44.49434" lon="5.84086">
        <ele>868.40002441406</ele>
        <time>2021-08-31T14:51:29Z</time>
      </trkpt>
      <trkpt lat="44.49437" lon="5.84092">
        <ele>868.59997558594</ele>
        <time>2021-08-31T14:51:31Z</time>
      </trkpt>
      <trkpt lat="44.49451" lon="5.84117">
        <ele>869</ele>
        <time>2021-08-31T14:51:39Z</time>
      </trkpt>
      <trkpt lat="44.49455" lon="5.84128">
        <ele>869.40002441406</ele>
        <time>2021-08-31T14:51:42Z</time>
      </trkpt>
      <trkpt lat="44.49463" lon="5.84145">
        <ele>869.59997558594</ele>
        <time>2021-08-31T14:51:47Z</time>
      </trkpt>
      <trkpt lat="44.49473" lon="5.84172">
        <ele>870.40002441406</ele>
        <time>2021-08-31T14:51:55Z</time>
      </trkpt>
      <trkpt lat="44.49476" lon="5.84178">
        <ele>870.59997558594</ele>
        <time>2021-08-31T14:51:57Z</time>
      </trkpt>
      <trkpt lat="44.49483" lon="5.84195">
        <ele>871.20001220703</ele>
        <time>2021-08-31T14:52:02Z</time>
      </trkpt>
      <trkpt lat="44.49487" lon="5.84202">
        <ele>871.40002441406</ele>
        <time>2021-08-31T14:52:04Z</time>
      </trkpt>
      <trkpt lat="44.49489" lon="5.84204">
        <ele>871.59997558594</ele>
        <time>2021-08-31T14:52:05Z</time>
      </trkpt>
      <trkpt lat="44.49502" lon="5.84224">
        <ele>872</ele>
        <time>2021-08-31T14:52:12Z</time>
      </trkpt>
      <trkpt lat="44.49511" lon="5.84238">
        <ele>872.59997558594</ele>
        <time>2021-08-31T14:52:17Z</time>
      </trkpt>
      <trkpt lat="44.49513" lon="5.84241">
        <ele>872.79998779297</ele>
        <time>2021-08-31T14:52:18Z</time>
      </trkpt>
      <trkpt lat="44.49527" lon="5.84264">
        <ele>873.59997558594</ele>
        <time>2021-08-31T14:52:25Z</time>
      </trkpt>
      <trkpt lat="44.4953" lon="5.84273">
        <ele>873.79998779297</ele>
        <time>2021-08-31T14:52:27Z</time>
      </trkpt>
      <trkpt lat="44.49533" lon="5.84302">
        <ele>873.79998779297</ele>
        <time>2021-08-31T14:52:33Z</time>
      </trkpt>
      <trkpt lat="44.49527" lon="5.84335">
        <ele>873.40002441406</ele>
        <time>2021-08-31T14:52:39Z</time>
      </trkpt>
      <trkpt lat="44.49513" lon="5.84376">
        <ele>873.40002441406</ele>
        <time>2021-08-31T14:52:47Z</time>
      </trkpt>
      <trkpt lat="44.49508" lon="5.84417">
        <ele>873.59997558594</ele>
        <time>2021-08-31T14:52:55Z</time>
      </trkpt>
      <trkpt lat="44.49507" lon="5.84455">
        <ele>874</ele>
        <time>2021-08-31T14:53:04Z</time>
      </trkpt>
      <trkpt lat="44.49508" lon="5.84469">
        <ele>874.59997558594</ele>
        <time>2021-08-31T14:53:09Z</time>
      </trkpt>
      <trkpt lat="44.4951" lon="5.84485">
        <ele>875.79998779297</ele>
        <time>2021-08-31T14:53:16Z</time>
      </trkpt>
      <trkpt lat="44.49511" lon="5.84488">
        <ele>876</ele>
        <time>2021-08-31T14:53:17Z</time>
      </trkpt>
      <trkpt lat="44.49515" lon="5.845">
        <ele>876.79998779297</ele>
        <time>2021-08-31T14:53:23Z</time>
      </trkpt>
      <trkpt lat="44.49524" lon="5.84515">
        <ele>877.79998779297</ele>
        <time>2021-08-31T14:53:31Z</time>
      </trkpt>
      <trkpt lat="44.49527" lon="5.84518">
        <ele>877.79998779297</ele>
        <time>2021-08-31T14:53:33Z</time>
      </trkpt>
      <trkpt lat="44.49531" lon="5.84522">
        <ele>878</ele>
        <time>2021-08-31T14:53:36Z</time>
      </trkpt>
      <trkpt lat="44.49539" lon="5.84527">
        <ele>878.59997558594</ele>
        <time>2021-08-31T14:53:42Z</time>
      </trkpt>
      <trkpt lat="44.49543" lon="5.84528">
        <ele>878.79998779297</ele>
        <time>2021-08-31T14:53:44Z</time>
      </trkpt>
      <trkpt lat="44.49552" lon="5.84528">
        <ele>880</ele>
        <time>2021-08-31T14:53:50Z</time>
      </trkpt>
      <trkpt lat="44.49558" lon="5.84533">
        <ele>881</ele>
        <time>2021-08-31T14:53:55Z</time>
      </trkpt>
      <trkpt lat="44.49558" lon="5.84533">
        <ele>881</ele>
        <time>2021-08-31T14:53:56Z</time>
      </trkpt>
      <trkpt lat="44.49562" lon="5.8453">
        <ele>880.40002441406</ele>
        <time>2021-08-31T14:58:23Z</time>
      </trkpt>
      <trkpt lat="44.49567" lon="5.84528">
        <ele>880.40002441406</ele>
        <time>2021-08-31T14:58:25Z</time>
      </trkpt>
      <trkpt lat="44.49582" lon="5.84517">
        <ele>880</ele>
        <time>2021-08-31T14:58:29Z</time>
      </trkpt>
      <trkpt lat="44.49585" lon="5.84514">
        <ele>880</ele>
        <time>2021-08-31T14:58:30Z</time>
      </trkpt>
      <trkpt lat="44.49589" lon="5.84512">
        <ele>879.79998779297</ele>
        <time>2021-08-31T14:58:31Z</time>
      </trkpt>
      <trkpt lat="44.496" lon="5.84502">
        <ele>879.59997558594</ele>
        <time>2021-08-31T14:58:34Z</time>
      </trkpt>
      <trkpt lat="44.49603" lon="5.84499">
        <ele>879.40002441406</ele>
        <time>2021-08-31T14:58:35Z</time>
      </trkpt>
      <trkpt lat="44.49624" lon="5.84479">
        <ele>879.40002441406</ele>
        <time>2021-08-31T14:58:42Z</time>
      </trkpt>
      <trkpt lat="44.49635" lon="5.84464">
        <ele>879.79998779297</ele>
        <time>2021-08-31T14:58:48Z</time>
      </trkpt>
      <trkpt lat="44.49641" lon="5.84447">
        <ele>881</ele>
        <time>2021-08-31T14:58:55Z</time>
      </trkpt>
      <trkpt lat="44.49646" lon="5.8443">
        <ele>882.20001220703</ele>
        <time>2021-08-31T14:59:02Z</time>
      </trkpt>
      <trkpt lat="44.49651" lon="5.84414">
        <ele>883</ele>
        <time>2021-08-31T14:59:09Z</time>
      </trkpt>
      <trkpt lat="44.49654" lon="5.84408">
        <ele>883.20001220703</ele>
        <time>2021-08-31T14:59:12Z</time>
      </trkpt>
      <trkpt lat="44.49661" lon="5.84397">
        <ele>883.79998779297</ele>
        <time>2021-08-31T14:59:18Z</time>
      </trkpt>
      <trkpt lat="44.49668" lon="5.84399">
        <ele>884.40002441406</ele>
        <time>2021-08-31T14:59:23Z</time>
      </trkpt>
      <trkpt lat="44.4967" lon="5.844">
        <ele>884.40002441406</ele>
        <time>2021-08-31T14:59:24Z</time>
      </trkpt>
      <trkpt lat="44.49677" lon="5.84405">
        <ele>885.40002441406</ele>
        <time>2021-08-31T14:59:30Z</time>
      </trkpt>
      <trkpt lat="44.49685" lon="5.84417">
        <ele>886.59997558594</ele>
        <time>2021-08-31T14:59:37Z</time>
      </trkpt>
      <trkpt lat="44.49686" lon="5.84419">
        <ele>886.59997558594</ele>
        <time>2021-08-31T14:59:38Z</time>
      </trkpt>
      <trkpt lat="44.49691" lon="5.84428">
        <ele>887.40002441406</ele>
        <time>2021-08-31T14:59:44Z</time>
      </trkpt>
      <trkpt lat="44.49693" lon="5.84432">
        <ele>887.59997558594</ele>
        <time>2021-08-31T14:59:46Z</time>
      </trkpt>
      <trkpt lat="44.49702" lon="5.84443">
        <ele>888.59997558594</ele>
        <time>2021-08-31T14:59:53Z</time>
      </trkpt>
      <trkpt lat="44.49704" lon="5.84446">
        <ele>888.59997558594</ele>
        <time>2021-08-31T14:59:55Z</time>
      </trkpt>
      <trkpt lat="44.49709" lon="5.84452">
        <ele>889.40002441406</ele>
        <time>2021-08-31T14:59:59Z</time>
      </trkpt>
      <trkpt lat="44.49713" lon="5.84459">
        <ele>889.79998779297</ele>
        <time>2021-08-31T15:00:03Z</time>
      </trkpt>
      <trkpt lat="44.49718" lon="5.84466">
        <ele>890.40002441406</ele>
        <time>2021-08-31T15:00:07Z</time>
      </trkpt>
      <trkpt lat="44.49724" lon="5.84474">
        <ele>890.79998779297</ele>
        <time>2021-08-31T15:00:12Z</time>
      </trkpt>
      <trkpt lat="44.49728" lon="5.84479">
        <ele>891.20001220703</ele>
        <time>2021-08-31T15:00:15Z</time>
      </trkpt>
      <trkpt lat="44.49734" lon="5.8449">
        <ele>892</ele>
        <time>2021-08-31T15:00:21Z</time>
      </trkpt>
      <trkpt lat="44.49738" lon="5.84495">
        <ele>892.20001220703</ele>
        <time>2021-08-31T15:00:24Z</time>
      </trkpt>
      <trkpt lat="44.49745" lon="5.84505">
        <ele>892.79998779297</ele>
        <time>2021-08-31T15:00:30Z</time>
      </trkpt>
      <trkpt lat="44.49746" lon="5.84506">
        <ele>893</ele>
        <time>2021-08-31T15:00:31Z</time>
      </trkpt>
      <trkpt lat="44.49747" lon="5.84508">
        <ele>893</ele>
        <time>2021-08-31T15:00:32Z</time>
      </trkpt>
      <trkpt lat="44.49753" lon="5.84514">
        <ele>893.40002441406</ele>
        <time>2021-08-31T15:00:36Z</time>
      </trkpt>
      <trkpt lat="44.49757" lon="5.84518">
        <ele>893.79998779297</ele>
        <time>2021-08-31T15:00:39Z</time>
      </trkpt>
      <trkpt lat="44.49761" lon="5.84522">
        <ele>894</ele>
        <time>2021-08-31T15:00:42Z</time>
      </trkpt>
      <trkpt lat="44.4977" lon="5.84529">
        <ele>894.79998779297</ele>
        <time>2021-08-31T15:00:48Z</time>
      </trkpt>
      <trkpt lat="44.49775" lon="5.84533">
        <ele>895</ele>
        <time>2021-08-31T15:00:51Z</time>
      </trkpt>
      <trkpt lat="44.49778" lon="5.84534">
        <ele>895.40002441406</ele>
        <time>2021-08-31T15:00:53Z</time>
      </trkpt>
      <trkpt lat="44.4978" lon="5.84534">
        <ele>895.40002441406</ele>
        <time>2021-08-31T15:00:54Z</time>
      </trkpt>
      <trkpt lat="44.4979" lon="5.84538">
        <ele>896.20001220703</ele>
        <time>2021-08-31T15:01:00Z</time>
      </trkpt>
      <trkpt lat="44.49792" lon="5.84538">
        <ele>896.40002441406</ele>
        <time>2021-08-31T15:01:01Z</time>
      </trkpt>
      <trkpt lat="44.49805" lon="5.84538">
        <ele>897.20001220703</ele>
        <time>2021-08-31T15:01:08Z</time>
      </trkpt>
      <trkpt lat="44.49815" lon="5.8454">
        <ele>897.79998779297</ele>
        <time>2021-08-31T15:01:14Z</time>
      </trkpt>
      <trkpt lat="44.4982" lon="5.84542">
        <ele>898.20001220703</ele>
        <time>2021-08-31T15:01:17Z</time>
      </trkpt>
      <trkpt lat="44.49829" lon="5.84546">
        <ele>899</ele>
        <time>2021-08-31T15:01:23Z</time>
      </trkpt>
      <trkpt lat="44.49831" lon="5.8455">
        <ele>899.40002441406</ele>
        <time>2021-08-31T15:01:25Z</time>
      </trkpt>
      <trkpt lat="44.49836" lon="5.84554">
        <ele>899.59997558594</ele>
        <time>2021-08-31T15:01:28Z</time>
      </trkpt>
      <trkpt lat="44.49837" lon="5.84555">
        <ele>899.79998779297</ele>
        <time>2021-08-31T15:01:29Z</time>
      </trkpt>
      <trkpt lat="44.4984" lon="5.8456">
        <ele>900.40002441406</ele>
        <time>2021-08-31T15:01:32Z</time>
      </trkpt>
      <trkpt lat="44.49843" lon="5.84565">
        <ele>900.79998779297</ele>
        <time>2021-08-31T15:01:35Z</time>
      </trkpt>
      <trkpt lat="44.49848" lon="5.84574">
        <ele>901.40002441406</ele>
        <time>2021-08-31T15:01:40Z</time>
      </trkpt>
      <trkpt lat="44.4985" lon="5.84577">
        <ele>901.59997558594</ele>
        <time>2021-08-31T15:01:42Z</time>
      </trkpt>
      <trkpt lat="44.49856" lon="5.84588">
        <ele>902.40002441406</ele>
        <time>2021-08-31T15:01:48Z</time>
      </trkpt>
      <trkpt lat="44.49858" lon="5.84591">
        <ele>902.59997558594</ele>
        <time>2021-08-31T15:01:50Z</time>
      </trkpt>
      <trkpt lat="44.49864" lon="5.846">
        <ele>903.40002441406</ele>
        <time>2021-08-31T15:01:56Z</time>
      </trkpt>
      <trkpt lat="44.49865" lon="5.84602">
        <ele>903.59997558594</ele>
        <time>2021-08-31T15:01:57Z</time>
      </trkpt>
      <trkpt lat="44.49869" lon="5.84606">
        <ele>903.79998779297</ele>
        <time>2021-08-31T15:02:00Z</time>
      </trkpt>
      <trkpt lat="44.49873" lon="5.84613">
        <ele>904.59997558594</ele>
        <time>2021-08-31T15:02:27Z</time>
      </trkpt>
      <trkpt lat="44.49882" lon="5.84622">
        <ele>905</ele>
        <time>2021-08-31T15:02:33Z</time>
      </trkpt>
      <trkpt lat="44.49892" lon="5.84631">
        <ele>905.79998779297</ele>
        <time>2021-08-31T15:02:40Z</time>
      </trkpt>
      <trkpt lat="44.49905" lon="5.84644">
        <ele>907</ele>
        <time>2021-08-31T15:02:49Z</time>
      </trkpt>
      <trkpt lat="44.49919" lon="5.84657">
        <ele>908</ele>
        <time>2021-08-31T15:02:58Z</time>
      </trkpt>
      <trkpt lat="44.49928" lon="5.84667">
        <ele>909</ele>
        <time>2021-08-31T15:03:05Z</time>
      </trkpt>
      <trkpt lat="44.4993" lon="5.84669">
        <ele>909</ele>
        <time>2021-08-31T15:03:06Z</time>
      </trkpt>
      <trkpt lat="44.49938" lon="5.84679">
        <ele>910</ele>
        <time>2021-08-31T15:03:13Z</time>
      </trkpt>
      <trkpt lat="44.49946" lon="5.8469">
        <ele>910.79998779297</ele>
        <time>2021-08-31T15:03:20Z</time>
      </trkpt>
      <trkpt lat="44.49949" lon="5.84692">
        <ele>911.20001220703</ele>
        <time>2021-08-31T15:03:22Z</time>
      </trkpt>
      <trkpt lat="44.49957" lon="5.84698">
        <ele>911.79998779297</ele>
        <time>2021-08-31T15:03:27Z</time>
      </trkpt>
      <trkpt lat="44.49961" lon="5.84702">
        <ele>912.20001220703</ele>
        <time>2021-08-31T15:03:30Z</time>
      </trkpt>
      <trkpt lat="44.49969" lon="5.84707">
        <ele>913.20001220703</ele>
        <time>2021-08-31T15:03:35Z</time>
      </trkpt>
      <trkpt lat="44.4997" lon="5.84707">
        <ele>913.40002441406</ele>
        <time>2021-08-31T15:03:36Z</time>
      </trkpt>
      <trkpt lat="44.49981" lon="5.84711">
        <ele>914.40002441406</ele>
        <time>2021-08-31T15:03:43Z</time>
      </trkpt>
      <trkpt lat="44.49993" lon="5.84715">
        <ele>915.40002441406</ele>
        <time>2021-08-31T15:03:51Z</time>
      </trkpt>
      <trkpt lat="44.49995" lon="5.84715">
        <ele>915.59997558594</ele>
        <time>2021-08-31T15:03:52Z</time>
      </trkpt>
      <trkpt lat="44.50004" lon="5.84718">
        <ele>916.59997558594</ele>
        <time>2021-08-31T15:03:58Z</time>
      </trkpt>
      <trkpt lat="44.50009" lon="5.8472">
        <ele>917</ele>
        <time>2021-08-31T15:04:01Z</time>
      </trkpt>
      <trkpt lat="44.50018" lon="5.84723">
        <ele>917.79998779297</ele>
        <time>2021-08-31T15:04:07Z</time>
      </trkpt>
      <trkpt lat="44.5003" lon="5.84728">
        <ele>918.79998779297</ele>
        <time>2021-08-31T15:04:15Z</time>
      </trkpt>
      <trkpt lat="44.5004" lon="5.84733">
        <ele>919.79998779297</ele>
        <time>2021-08-31T15:04:22Z</time>
      </trkpt>
      <trkpt lat="44.50042" lon="5.84734">
        <ele>920</ele>
        <time>2021-08-31T15:04:23Z</time>
      </trkpt>
      <trkpt lat="44.50052" lon="5.84739">
        <ele>920.79998779297</ele>
        <time>2021-08-31T15:04:30Z</time>
      </trkpt>
      <trkpt lat="44.50054" lon="5.8474">
        <ele>921</ele>
        <time>2021-08-31T15:04:31Z</time>
      </trkpt>
      <trkpt lat="44.50067" lon="5.84748">
        <ele>921.79998779297</ele>
        <time>2021-08-31T15:04:39Z</time>
      </trkpt>
      <trkpt lat="44.50082" lon="5.84759">
        <ele>923</ele>
        <time>2021-08-31T15:04:48Z</time>
      </trkpt>
      <trkpt lat="44.50083" lon="5.8476">
        <ele>923</ele>
        <time>2021-08-31T15:04:49Z</time>
      </trkpt>
      <trkpt lat="44.50096" lon="5.84776">
        <ele>923.59997558594</ele>
        <time>2021-08-31T15:04:58Z</time>
      </trkpt>
      <trkpt lat="44.501" lon="5.84784">
        <ele>924</ele>
        <time>2021-08-31T15:05:02Z</time>
      </trkpt>
      <trkpt lat="44.50108" lon="5.84793">
        <ele>924.79998779297</ele>
        <time>2021-08-31T15:05:08Z</time>
      </trkpt>
      <trkpt lat="44.5011" lon="5.84798">
        <ele>925</ele>
        <time>2021-08-31T15:05:10Z</time>
      </trkpt>
      <trkpt lat="44.50117" lon="5.84808">
        <ele>925.59997558594</ele>
        <time>2021-08-31T15:05:16Z</time>
      </trkpt>
      <trkpt lat="44.50122" lon="5.84817">
        <ele>926</ele>
        <time>2021-08-31T15:05:21Z</time>
      </trkpt>
      <trkpt lat="44.50126" lon="5.84826">
        <ele>926.79998779297</ele>
        <time>2021-08-31T15:05:25Z</time>
      </trkpt>
      <trkpt lat="44.50132" lon="5.84832">
        <ele>927.20001220703</ele>
        <time>2021-08-31T15:05:29Z</time>
      </trkpt>
      <trkpt lat="44.50138" lon="5.84839">
        <ele>927.79998779297</ele>
        <time>2021-08-31T15:05:34Z</time>
      </trkpt>
      <trkpt lat="44.50142" lon="5.84843">
        <ele>928.20001220703</ele>
        <time>2021-08-31T15:05:37Z</time>
      </trkpt>
      <trkpt lat="44.50149" lon="5.84849">
        <ele>928.79998779297</ele>
        <time>2021-08-31T15:05:42Z</time>
      </trkpt>
      <trkpt lat="44.50155" lon="5.84851">
        <ele>929.20001220703</ele>
        <time>2021-08-31T15:05:45Z</time>
      </trkpt>
      <trkpt lat="44.50158" lon="5.84853">
        <ele>929.40002441406</ele>
        <time>2021-08-31T15:05:47Z</time>
      </trkpt>
      <trkpt lat="44.50161" lon="5.84855">
        <ele>929.40002441406</ele>
        <time>2021-08-31T15:05:49Z</time>
      </trkpt>
      <trkpt lat="44.50172" lon="5.8486">
        <ele>930.40002441406</ele>
        <time>2021-08-31T15:05:56Z</time>
      </trkpt>
      <trkpt lat="44.50186" lon="5.84864">
        <ele>931.40002441406</ele>
        <time>2021-08-31T15:06:04Z</time>
      </trkpt>
      <trkpt lat="44.50188" lon="5.84865">
        <ele>931.59997558594</ele>
        <time>2021-08-31T15:06:05Z</time>
      </trkpt>
      <trkpt lat="44.50202" lon="5.84871">
        <ele>932.40002441406</ele>
        <time>2021-08-31T15:06:13Z</time>
      </trkpt>
      <trkpt lat="44.50205" lon="5.84872">
        <ele>932.59997558594</ele>
        <time>2021-08-31T15:06:14Z</time>
      </trkpt>
      <trkpt lat="44.50221" lon="5.84878">
        <ele>933.20001220703</ele>
        <time>2021-08-31T15:06:22Z</time>
      </trkpt>
      <trkpt lat="44.50226" lon="5.84881">
        <ele>933.59997558594</ele>
        <time>2021-08-31T15:06:25Z</time>
      </trkpt>
      <trkpt lat="44.50235" lon="5.84884">
        <ele>934.40002441406</ele>
        <time>2021-08-31T15:06:29Z</time>
      </trkpt>
      <trkpt lat="44.50238" lon="5.84886">
        <ele>934.79998779297</ele>
        <time>2021-08-31T15:06:31Z</time>
      </trkpt>
      <trkpt lat="44.50251" lon="5.84891">
        <ele>935.40002441406</ele>
        <time>2021-08-31T15:06:38Z</time>
      </trkpt>
      <trkpt lat="44.50254" lon="5.84891">
        <ele>935.79998779297</ele>
        <time>2021-08-31T15:06:40Z</time>
      </trkpt>
      <trkpt lat="44.50262" lon="5.84893">
        <ele>936.59997558594</ele>
        <time>2021-08-31T15:06:45Z</time>
      </trkpt>
      <trkpt lat="44.50265" lon="5.84894">
        <ele>936.79998779297</ele>
        <time>2021-08-31T15:06:47Z</time>
      </trkpt>
      <trkpt lat="44.50274" lon="5.84892">
        <ele>937.59997558594</ele>
        <time>2021-08-31T15:06:52Z</time>
      </trkpt>
      <trkpt lat="44.50276" lon="5.84891">
        <ele>937.79998779297</ele>
        <time>2021-08-31T15:06:54Z</time>
      </trkpt>
      <trkpt lat="44.50278" lon="5.8489">
        <ele>938</ele>
        <time>2021-08-31T15:06:55Z</time>
      </trkpt>
      <trkpt lat="44.50281" lon="5.84889">
        <ele>938.20001220703</ele>
        <time>2021-08-31T15:06:57Z</time>
      </trkpt>
      <trkpt lat="44.50293" lon="5.84888">
        <ele>939</ele>
        <time>2021-08-31T15:07:04Z</time>
      </trkpt>
      <trkpt lat="44.50295" lon="5.84888">
        <ele>939.20001220703</ele>
        <time>2021-08-31T15:07:05Z</time>
      </trkpt>
      <trkpt lat="44.50305" lon="5.84885">
        <ele>940.20001220703</ele>
        <time>2021-08-31T15:07:11Z</time>
      </trkpt>
      <trkpt lat="44.50317" lon="5.84885">
        <ele>941.20001220703</ele>
        <time>2021-08-31T15:07:18Z</time>
      </trkpt>
      <trkpt lat="44.50319" lon="5.84885">
        <ele>941.40002441406</ele>
        <time>2021-08-31T15:07:19Z</time>
      </trkpt>
      <trkpt lat="44.50327" lon="5.84884">
        <ele>942</ele>
        <time>2021-08-31T15:07:24Z</time>
      </trkpt>
      <trkpt lat="44.50333" lon="5.84883">
        <ele>942.40002441406</ele>
        <time>2021-08-31T15:07:27Z</time>
      </trkpt>
      <trkpt lat="44.50342" lon="5.84882">
        <ele>943</ele>
        <time>2021-08-31T15:07:32Z</time>
      </trkpt>
      <trkpt lat="44.50347" lon="5.84881">
        <ele>943.40002441406</ele>
        <time>2021-08-31T15:07:35Z</time>
      </trkpt>
      <trkpt lat="44.50355" lon="5.84881">
        <ele>943.79998779297</ele>
        <time>2021-08-31T15:07:39Z</time>
      </trkpt>
      <trkpt lat="44.50363" lon="5.84882">
        <ele>944.40002441406</ele>
        <time>2021-08-31T15:07:44Z</time>
      </trkpt>
      <trkpt lat="44.50364" lon="5.84883">
        <ele>944.40002441406</ele>
        <time>2021-08-31T15:07:45Z</time>
      </trkpt>
      <trkpt lat="44.50376" lon="5.84885">
        <ele>945.20001220703</ele>
        <time>2021-08-31T15:07:51Z</time>
      </trkpt>
      <trkpt lat="44.50382" lon="5.84886">
        <ele>945.40002441406</ele>
        <time>2021-08-31T15:07:54Z</time>
      </trkpt>
      <trkpt lat="44.5039" lon="5.84891">
        <ele>945.79998779297</ele>
        <time>2021-08-31T15:07:58Z</time>
      </trkpt>
      <trkpt lat="44.50399" lon="5.84904">
        <ele>946.20001220703</ele>
        <time>2021-08-31T15:08:05Z</time>
      </trkpt>
      <trkpt lat="44.50402" lon="5.84909">
        <ele>946.40002441406</ele>
        <time>2021-08-31T15:08:07Z</time>
      </trkpt>
      <trkpt lat="44.50407" lon="5.84922">
        <ele>947</ele>
        <time>2021-08-31T15:08:13Z</time>
      </trkpt>
      <trkpt lat="44.5041" lon="5.84938">
        <ele>947.59997558594</ele>
        <time>2021-08-31T15:08:19Z</time>
      </trkpt>
      <trkpt lat="44.50411" lon="5.84943">
        <ele>947.59997558594</ele>
        <time>2021-08-31T15:08:21Z</time>
      </trkpt>
      <trkpt lat="44.50418" lon="5.84957">
        <ele>948.40002441406</ele>
        <time>2021-08-31T15:08:29Z</time>
      </trkpt>
      <trkpt lat="44.50421" lon="5.84959">
        <ele>948.79998779297</ele>
        <time>2021-08-31T15:08:31Z</time>
      </trkpt>
      <trkpt lat="44.50423" lon="5.8496">
        <ele>949</ele>
        <time>2021-08-31T15:08:32Z</time>
      </trkpt>
      <trkpt lat="44.50427" lon="5.84959">
        <ele>949.59997558594</ele>
        <time>2021-08-31T15:08:35Z</time>
      </trkpt>
      <trkpt lat="44.50433" lon="5.84959">
        <ele>949.79998779297</ele>
        <time>2021-08-31T15:08:38Z</time>
      </trkpt>
      <trkpt lat="44.50437" lon="5.84959">
        <ele>950.20001220703</ele>
        <time>2021-08-31T15:08:41Z</time>
      </trkpt>
      <trkpt lat="44.50441" lon="5.84959">
        <ele>950.40002441406</ele>
        <time>2021-08-31T15:08:44Z</time>
      </trkpt>
      <trkpt lat="44.50443" lon="5.84958">
        <ele>950.79998779297</ele>
        <time>2021-08-31T15:08:45Z</time>
      </trkpt>
      <trkpt lat="44.50447" lon="5.84958">
        <ele>951.20001220703</ele>
        <time>2021-08-31T15:08:48Z</time>
      </trkpt>
      <trkpt lat="44.50454" lon="5.84957">
        <ele>951.79998779297</ele>
        <time>2021-08-31T15:08:53Z</time>
      </trkpt>
      <trkpt lat="44.50457" lon="5.84955">
        <ele>952.20001220703</ele>
        <time>2021-08-31T15:08:55Z</time>
      </trkpt>
      <trkpt lat="44.50458" lon="5.84955">
        <ele>952.59997558594</ele>
        <time>2021-08-31T15:08:56Z</time>
      </trkpt>
      <trkpt lat="44.50461" lon="5.84956">
        <ele>953.20001220703</ele>
        <time>2021-08-31T15:08:58Z</time>
      </trkpt>
      <trkpt lat="44.50465" lon="5.84956">
        <ele>953.59997558594</ele>
        <time>2021-08-31T15:09:00Z</time>
      </trkpt>
      <trkpt lat="44.5047" lon="5.84957">
        <ele>954.20001220703</ele>
        <time>2021-08-31T15:09:04Z</time>
      </trkpt>
      <trkpt lat="44.50474" lon="5.84957">
        <ele>954.59997558594</ele>
        <time>2021-08-31T15:09:07Z</time>
      </trkpt>
      <trkpt lat="44.50479" lon="5.84958">
        <ele>955.20001220703</ele>
        <time>2021-08-31T15:09:10Z</time>
      </trkpt>
      <trkpt lat="44.5048" lon="5.84958">
        <ele>955.40002441406</ele>
        <time>2021-08-31T15:09:11Z</time>
      </trkpt>
      <trkpt lat="44.50483" lon="5.8496">
        <ele>955.79998779297</ele>
        <time>2021-08-31T15:09:13Z</time>
      </trkpt>
      <trkpt lat="44.50487" lon="5.84961">
        <ele>956.40002441406</ele>
        <time>2021-08-31T15:09:16Z</time>
      </trkpt>
      <trkpt lat="44.5049" lon="5.84962">
        <ele>956.79998779297</ele>
        <time>2021-08-31T15:09:18Z</time>
      </trkpt>
      <trkpt lat="44.50497" lon="5.84967">
        <ele>957.59997558594</ele>
        <time>2021-08-31T15:09:23Z</time>
      </trkpt>
      <trkpt lat="44.50502" lon="5.8497">
        <ele>958.20001220703</ele>
        <time>2021-08-31T15:09:27Z</time>
      </trkpt>
      <trkpt lat="44.50508" lon="5.84973">
        <ele>958.59997558594</ele>
        <time>2021-08-31T15:09:31Z</time>
      </trkpt>
      <trkpt lat="44.50514" lon="5.84976">
        <ele>959.40002441406</ele>
        <time>2021-08-31T15:09:35Z</time>
      </trkpt>
      <trkpt lat="44.50518" lon="5.84979">
        <ele>959.59997558594</ele>
        <time>2021-08-31T15:09:38Z</time>
      </trkpt>
      <trkpt lat="44.50524" lon="5.84984">
        <ele>960.59997558594</ele>
        <time>2021-08-31T15:09:43Z</time>
      </trkpt>
      <trkpt lat="44.50527" lon="5.84985">
        <ele>960.79998779297</ele>
        <time>2021-08-31T15:09:45Z</time>
      </trkpt>
      <trkpt lat="44.50535" lon="5.8499">
        <ele>961.79998779297</ele>
        <time>2021-08-31T15:09:51Z</time>
      </trkpt>
      <trkpt lat="44.50538" lon="5.84992">
        <ele>962</ele>
        <time>2021-08-31T15:09:53Z</time>
      </trkpt>
      <trkpt lat="44.5054" lon="5.84995">
        <ele>962.20001220703</ele>
        <time>2021-08-31T15:09:55Z</time>
      </trkpt>
      <trkpt lat="44.50542" lon="5.84997">
        <ele>962.79998779297</ele>
        <time>2021-08-31T15:09:57Z</time>
      </trkpt>
      <trkpt lat="44.50543" lon="5.84998">
        <ele>962.79998779297</ele>
        <time>2021-08-31T15:09:58Z</time>
      </trkpt>
      <trkpt lat="44.5055" lon="5.85004">
        <ele>963.79998779297</ele>
        <time>2021-08-31T15:10:04Z</time>
      </trkpt>
      <trkpt lat="44.50551" lon="5.85006">
        <ele>964</ele>
        <time>2021-08-31T15:10:05Z</time>
      </trkpt>
      <trkpt lat="44.50555" lon="5.85012">
        <ele>964.79998779297</ele>
        <time>2021-08-31T15:10:10Z</time>
      </trkpt>
      <trkpt lat="44.50558" lon="5.85015">
        <ele>965.20001220703</ele>
        <time>2021-08-31T15:10:12Z</time>
      </trkpt>
      <trkpt lat="44.50561" lon="5.85021">
        <ele>966</ele>
        <time>2021-08-31T15:10:16Z</time>
      </trkpt>
      <trkpt lat="44.50562" lon="5.85025">
        <ele>966.40002441406</ele>
        <time>2021-08-31T15:10:18Z</time>
      </trkpt>
      <trkpt lat="44.50565" lon="5.85029">
        <ele>967</ele>
        <time>2021-08-31T15:10:21Z</time>
      </trkpt>
      <trkpt lat="44.50569" lon="5.85034">
        <ele>967.59997558594</ele>
        <time>2021-08-31T15:10:24Z</time>
      </trkpt>
      <trkpt lat="44.50571" lon="5.85039">
        <ele>968</ele>
        <time>2021-08-31T15:10:27Z</time>
      </trkpt>
      <trkpt lat="44.50576" lon="5.85044">
        <ele>969</ele>
        <time>2021-08-31T15:10:31Z</time>
      </trkpt>
      <trkpt lat="44.50576" lon="5.85046">
        <ele>969.20001220703</ele>
        <time>2021-08-31T15:10:32Z</time>
      </trkpt>
      <trkpt lat="44.50577" lon="5.85052">
        <ele>970</ele>
        <time>2021-08-31T15:10:35Z</time>
      </trkpt>
      <trkpt lat="44.50578" lon="5.85058">
        <ele>970.40002441406</ele>
        <time>2021-08-31T15:10:38Z</time>
      </trkpt>
      <trkpt lat="44.50578" lon="5.8506">
        <ele>970.40002441406</ele>
        <time>2021-08-31T15:10:39Z</time>
      </trkpt>
      <trkpt lat="44.50579" lon="5.85069">
        <ele>971</ele>
        <time>2021-08-31T15:10:44Z</time>
      </trkpt>
      <trkpt lat="44.5058" lon="5.85074">
        <ele>971.40002441406</ele>
        <time>2021-08-31T15:10:46Z</time>
      </trkpt>
      <trkpt lat="44.50581" lon="5.85084">
        <ele>972.59997558594</ele>
        <time>2021-08-31T15:10:51Z</time>
      </trkpt>
      <trkpt lat="44.50581" lon="5.85086">
        <ele>972.59997558594</ele>
        <time>2021-08-31T15:10:52Z</time>
      </trkpt>
      <trkpt lat="44.50582" lon="5.85092">
        <ele>973</ele>
        <time>2021-08-31T15:10:55Z</time>
      </trkpt>
      <trkpt lat="44.5058" lon="5.85098">
        <ele>973.79998779297</ele>
        <time>2021-08-31T15:10:58Z</time>
      </trkpt>
      <trkpt lat="44.50578" lon="5.85115">
        <ele>974</ele>
        <time>2021-08-31T15:11:06Z</time>
      </trkpt>
      <trkpt lat="44.50577" lon="5.85125">
        <ele>974.79998779297</ele>
        <time>2021-08-31T15:11:11Z</time>
      </trkpt>
      <trkpt lat="44.50575" lon="5.85131">
        <ele>975.59997558594</ele>
        <time>2021-08-31T15:11:14Z</time>
      </trkpt>
      <trkpt lat="44.50574" lon="5.85133">
        <ele>975.79998779297</ele>
        <time>2021-08-31T15:11:15Z</time>
      </trkpt>
      <trkpt lat="44.50573" lon="5.85144">
        <ele>976.40002441406</ele>
        <time>2021-08-31T15:11:20Z</time>
      </trkpt>
      <trkpt lat="44.50573" lon="5.85149">
        <ele>976.79998779297</ele>
        <time>2021-08-31T15:11:22Z</time>
      </trkpt>
      <trkpt lat="44.50571" lon="5.85167">
        <ele>977.59997558594</ele>
        <time>2021-08-31T15:11:30Z</time>
      </trkpt>
      <trkpt lat="44.50572" lon="5.85174">
        <ele>977.79998779297</ele>
        <time>2021-08-31T15:11:33Z</time>
      </trkpt>
      <trkpt lat="44.50574" lon="5.85191">
        <ele>978.79998779297</ele>
        <time>2021-08-31T15:11:40Z</time>
      </trkpt>
      <trkpt lat="44.50575" lon="5.85207">
        <ele>979.79998779297</ele>
        <time>2021-08-31T15:11:47Z</time>
      </trkpt>
      <trkpt lat="44.50575" lon="5.8521">
        <ele>979.79998779297</ele>
        <time>2021-08-31T15:11:48Z</time>
      </trkpt>
      <trkpt lat="44.50576" lon="5.8523">
        <ele>981</ele>
        <time>2021-08-31T15:11:57Z</time>
      </trkpt>
      <trkpt lat="44.5058" lon="5.85246">
        <ele>981.79998779297</ele>
        <time>2021-08-31T15:12:04Z</time>
      </trkpt>
      <trkpt lat="44.50581" lon="5.85248">
        <ele>982</ele>
        <time>2021-08-31T15:12:05Z</time>
      </trkpt>
      <trkpt lat="44.50588" lon="5.8526">
        <ele>982.79998779297</ele>
        <time>2021-08-31T15:12:11Z</time>
      </trkpt>
      <trkpt lat="44.50592" lon="5.85265">
        <ele>983</ele>
        <time>2021-08-31T15:12:14Z</time>
      </trkpt>
      <trkpt lat="44.506" lon="5.85272">
        <ele>983.79998779297</ele>
        <time>2021-08-31T15:12:19Z</time>
      </trkpt>
      <trkpt lat="44.50603" lon="5.85276">
        <ele>984.20001220703</ele>
        <time>2021-08-31T15:12:21Z</time>
      </trkpt>
      <trkpt lat="44.50608" lon="5.85284">
        <ele>984.79998779297</ele>
        <time>2021-08-31T15:12:25Z</time>
      </trkpt>
      <trkpt lat="44.5061" lon="5.85287">
        <ele>985.20001220703</ele>
        <time>2021-08-31T15:12:27Z</time>
      </trkpt>
      <trkpt lat="44.50616" lon="5.85298">
        <ele>986.20001220703</ele>
        <time>2021-08-31T15:12:32Z</time>
      </trkpt>
      <trkpt lat="44.50617" lon="5.853">
        <ele>986.40002441406</ele>
        <time>2021-08-31T15:12:33Z</time>
      </trkpt>
      <trkpt lat="44.50623" lon="5.85312">
        <ele>987.20001220703</ele>
        <time>2021-08-31T15:12:40Z</time>
      </trkpt>
      <trkpt lat="44.50628" lon="5.85312">
        <ele>987.59997558594</ele>
        <time>2021-08-31T15:13:59Z</time>
      </trkpt>
      <trkpt lat="44.50629" lon="5.85313">
        <ele>987.59997558594</ele>
        <time>2021-08-31T15:14:00Z</time>
      </trkpt>
      <trkpt lat="44.50639" lon="5.85324">
        <ele>987.79998779297</ele>
        <time>2021-08-31T15:14:06Z</time>
      </trkpt>
      <trkpt lat="44.50657" lon="5.85342">
        <ele>988.20001220703</ele>
        <time>2021-08-31T15:14:14Z</time>
      </trkpt>
      <trkpt lat="44.50665" lon="5.85356">
        <ele>988</ele>
        <time>2021-08-31T15:14:17Z</time>
      </trkpt>
      <trkpt lat="44.50667" lon="5.85362">
        <ele>988</ele>
        <time>2021-08-31T15:14:18Z</time>
      </trkpt>
      <trkpt lat="44.50665" lon="5.85388">
        <ele>986.79998779297</ele>
        <time>2021-08-31T15:14:22Z</time>
      </trkpt>
      <trkpt lat="44.50661" lon="5.854">
        <ele>985.79998779297</ele>
        <time>2021-08-31T15:14:24Z</time>
      </trkpt>
      <trkpt lat="44.50653" lon="5.85413">
        <ele>984.79998779297</ele>
        <time>2021-08-31T15:14:26Z</time>
      </trkpt>
      <trkpt lat="44.50643" lon="5.85426">
        <ele>983.59997558594</ele>
        <time>2021-08-31T15:14:28Z</time>
      </trkpt>
      <trkpt lat="44.50634" lon="5.85441">
        <ele>982.59997558594</ele>
        <time>2021-08-31T15:14:30Z</time>
      </trkpt>
      <trkpt lat="44.5063" lon="5.85449">
        <ele>982</ele>
        <time>2021-08-31T15:14:31Z</time>
      </trkpt>
      <trkpt lat="44.50627" lon="5.85457">
        <ele>981.40002441406</ele>
        <time>2021-08-31T15:14:32Z</time>
      </trkpt>
      <trkpt lat="44.50621" lon="5.85475">
        <ele>980</ele>
        <time>2021-08-31T15:14:34Z</time>
      </trkpt>
      <trkpt lat="44.5062" lon="5.85484">
        <ele>979.20001220703</ele>
        <time>2021-08-31T15:14:35Z</time>
      </trkpt>
      <trkpt lat="44.5062" lon="5.85494">
        <ele>978.40002441406</ele>
        <time>2021-08-31T15:14:36Z</time>
      </trkpt>
      <trkpt lat="44.50623" lon="5.85515">
        <ele>977</ele>
        <time>2021-08-31T15:14:38Z</time>
      </trkpt>
      <trkpt lat="44.5063" lon="5.85539">
        <ele>975.79998779297</ele>
        <time>2021-08-31T15:14:40Z</time>
      </trkpt>
      <trkpt lat="44.50638" lon="5.85562">
        <ele>974.20001220703</ele>
        <time>2021-08-31T15:14:42Z</time>
      </trkpt>
      <trkpt lat="44.50647" lon="5.85586">
        <ele>972.59997558594</ele>
        <time>2021-08-31T15:14:44Z</time>
      </trkpt>
      <trkpt lat="44.50652" lon="5.85598">
        <ele>970.79998779297</ele>
        <time>2021-08-31T15:14:45Z</time>
      </trkpt>
      <trkpt lat="44.50659" lon="5.8561">
        <ele>969.79998779297</ele>
        <time>2021-08-31T15:14:46Z</time>
      </trkpt>
      <trkpt lat="44.50665" lon="5.85622">
        <ele>968.79998779297</ele>
        <time>2021-08-31T15:14:47Z</time>
      </trkpt>
      <trkpt lat="44.50681" lon="5.85644">
        <ele>966.79998779297</ele>
        <time>2021-08-31T15:14:49Z</time>
      </trkpt>
      <trkpt lat="44.50698" lon="5.85665">
        <ele>965.20001220703</ele>
        <time>2021-08-31T15:14:51Z</time>
      </trkpt>
      <trkpt lat="44.50712" lon="5.85688">
        <ele>963.20001220703</ele>
        <time>2021-08-31T15:14:53Z</time>
      </trkpt>
      <trkpt lat="44.50719" lon="5.85701">
        <ele>962.20001220703</ele>
        <time>2021-08-31T15:14:54Z</time>
      </trkpt>
      <trkpt lat="44.50726" lon="5.85714">
        <ele>961.20001220703</ele>
        <time>2021-08-31T15:14:55Z</time>
      </trkpt>
      <trkpt lat="44.50732" lon="5.85728">
        <ele>960</ele>
        <time>2021-08-31T15:14:56Z</time>
      </trkpt>
      <trkpt lat="44.50737" lon="5.85743">
        <ele>958.79998779297</ele>
        <time>2021-08-31T15:14:57Z</time>
      </trkpt>
      <trkpt lat="44.50742" lon="5.85757">
        <ele>957.59997558594</ele>
        <time>2021-08-31T15:14:58Z</time>
      </trkpt>
      <trkpt lat="44.50746" lon="5.85772">
        <ele>956.40002441406</ele>
        <time>2021-08-31T15:14:59Z</time>
      </trkpt>
      <trkpt lat="44.50751" lon="5.85786">
        <ele>955.20001220703</ele>
        <time>2021-08-31T15:15:00Z</time>
      </trkpt>
      <trkpt lat="44.50757" lon="5.85799">
        <ele>954.20001220703</ele>
        <time>2021-08-31T15:15:01Z</time>
      </trkpt>
      <trkpt lat="44.50764" lon="5.85811">
        <ele>953.59997558594</ele>
        <time>2021-08-31T15:15:02Z</time>
      </trkpt>
      <trkpt lat="44.50779" lon="5.85831">
        <ele>952.40002441406</ele>
        <time>2021-08-31T15:15:04Z</time>
      </trkpt>
      <trkpt lat="44.50792" lon="5.85854">
        <ele>951.40002441406</ele>
        <time>2021-08-31T15:15:06Z</time>
      </trkpt>
      <trkpt lat="44.50795" lon="5.85867">
        <ele>951</ele>
        <time>2021-08-31T15:15:07Z</time>
      </trkpt>
      <trkpt lat="44.508" lon="5.85892">
        <ele>950</ele>
        <time>2021-08-31T15:15:09Z</time>
      </trkpt>
      <trkpt lat="44.50801" lon="5.85918">
        <ele>949.59997558594</ele>
        <time>2021-08-31T15:15:11Z</time>
      </trkpt>
      <trkpt lat="44.50801" lon="5.85944">
        <ele>949.40002441406</ele>
        <time>2021-08-31T15:15:13Z</time>
      </trkpt>
      <trkpt lat="44.50805" lon="5.85987">
        <ele>948.40002441406</ele>
        <time>2021-08-31T15:15:16Z</time>
      </trkpt>
      <trkpt lat="44.50807" lon="5.86001">
        <ele>947.59997558594</ele>
        <time>2021-08-31T15:15:17Z</time>
      </trkpt>
      <trkpt lat="44.50812" lon="5.86014">
        <ele>946.59997558594</ele>
        <time>2021-08-31T15:15:18Z</time>
      </trkpt>
      <trkpt lat="44.50825" lon="5.86036">
        <ele>945</ele>
        <time>2021-08-31T15:15:20Z</time>
      </trkpt>
      <trkpt lat="44.50852" lon="5.86057">
        <ele>943.79998779297</ele>
        <time>2021-08-31T15:15:23Z</time>
      </trkpt>
      <trkpt lat="44.50869" lon="5.86073">
        <ele>942.79998779297</ele>
        <time>2021-08-31T15:15:25Z</time>
      </trkpt>
      <trkpt lat="44.50876" lon="5.86084">
        <ele>942.20001220703</ele>
        <time>2021-08-31T15:15:26Z</time>
      </trkpt>
      <trkpt lat="44.50888" lon="5.86109">
        <ele>940.40002441406</ele>
        <time>2021-08-31T15:15:28Z</time>
      </trkpt>
      <trkpt lat="44.509" lon="5.86131">
        <ele>938.40002441406</ele>
        <time>2021-08-31T15:15:30Z</time>
      </trkpt>
      <trkpt lat="44.50918" lon="5.86146">
        <ele>936.59997558594</ele>
        <time>2021-08-31T15:15:32Z</time>
      </trkpt>
      <trkpt lat="44.50927" lon="5.86152">
        <ele>935.20001220703</ele>
        <time>2021-08-31T15:15:33Z</time>
      </trkpt>
      <trkpt lat="44.50954" lon="5.86174">
        <ele>933.79998779297</ele>
        <time>2021-08-31T15:15:36Z</time>
      </trkpt>
      <trkpt lat="44.50962" lon="5.86183">
        <ele>933.20001220703</ele>
        <time>2021-08-31T15:15:37Z</time>
      </trkpt>
      <trkpt lat="44.5097" lon="5.86192">
        <ele>932.79998779297</ele>
        <time>2021-08-31T15:15:38Z</time>
      </trkpt>
      <trkpt lat="44.50994" lon="5.86216">
        <ele>931.40002441406</ele>
        <time>2021-08-31T15:15:41Z</time>
      </trkpt>
      <trkpt lat="44.51021" lon="5.86239">
        <ele>930</ele>
        <time>2021-08-31T15:15:44Z</time>
      </trkpt>
      <trkpt lat="44.5104" lon="5.86253">
        <ele>928.79998779297</ele>
        <time>2021-08-31T15:15:46Z</time>
      </trkpt>
      <trkpt lat="44.5106" lon="5.86265">
        <ele>927.40002441406</ele>
        <time>2021-08-31T15:15:48Z</time>
      </trkpt>
      <trkpt lat="44.5107" lon="5.86272">
        <ele>926.79998779297</ele>
        <time>2021-08-31T15:15:49Z</time>
      </trkpt>
      <trkpt lat="44.51082" lon="5.86278">
        <ele>926</ele>
        <time>2021-08-31T15:15:50Z</time>
      </trkpt>
      <trkpt lat="44.511" lon="5.86293">
        <ele>924.59997558594</ele>
        <time>2021-08-31T15:15:52Z</time>
      </trkpt>
      <trkpt lat="44.51109" lon="5.86314">
        <ele>923.20001220703</ele>
        <time>2021-08-31T15:15:54Z</time>
      </trkpt>
      <trkpt lat="44.5111" lon="5.86326">
        <ele>922.40002441406</ele>
        <time>2021-08-31T15:15:55Z</time>
      </trkpt>
      <trkpt lat="44.51112" lon="5.86337">
        <ele>922</ele>
        <time>2021-08-31T15:15:56Z</time>
      </trkpt>
      <trkpt lat="44.51119" lon="5.86366">
        <ele>920.79998779297</ele>
        <time>2021-08-31T15:15:59Z</time>
      </trkpt>
      <trkpt lat="44.51124" lon="5.86383">
        <ele>920.79998779297</ele>
        <time>2021-08-31T15:16:01Z</time>
      </trkpt>
      <trkpt lat="44.51137" lon="5.86411">
        <ele>920.79998779297</ele>
        <time>2021-08-31T15:16:05Z</time>
      </trkpt>
      <trkpt lat="44.51141" lon="5.86417">
        <ele>920.79998779297</ele>
        <time>2021-08-31T15:16:06Z</time>
      </trkpt>
      <trkpt lat="44.51158" lon="5.8643">
        <ele>921</ele>
        <time>2021-08-31T15:16:10Z</time>
      </trkpt>
      <trkpt lat="44.51167" lon="5.86438">
        <ele>921</ele>
        <time>2021-08-31T15:16:13Z</time>
      </trkpt>
      <trkpt lat="44.51175" lon="5.86446">
        <ele>921.40002441406</ele>
        <time>2021-08-31T15:16:16Z</time>
      </trkpt>
      <trkpt lat="44.51188" lon="5.86458">
        <ele>921.59997558594</ele>
        <time>2021-08-31T15:16:22Z</time>
      </trkpt>
      <trkpt lat="44.51191" lon="5.86457">
        <ele>921.59997558594</ele>
        <time>2021-08-31T15:16:24Z</time>
      </trkpt>
      <trkpt lat="44.51195" lon="5.86452">
        <ele>921.59997558594</ele>
        <time>2021-08-31T15:16:26Z</time>
      </trkpt>
      <trkpt lat="44.51199" lon="5.86443">
        <ele>922</ele>
        <time>2021-08-31T15:16:30Z</time>
      </trkpt>
      <trkpt lat="44.51202" lon="5.86437">
        <ele>922.40002441406</ele>
        <time>2021-08-31T15:16:33Z</time>
      </trkpt>
      <trkpt lat="44.51208" lon="5.86426">
        <ele>923.20001220703</ele>
        <time>2021-08-31T15:16:38Z</time>
      </trkpt>
      <trkpt lat="44.5121" lon="5.86419">
        <ele>923.59997558594</ele>
        <time>2021-08-31T15:16:41Z</time>
      </trkpt>
      <trkpt lat="44.5121" lon="5.86414">
        <ele>923.79998779297</ele>
        <time>2021-08-31T15:16:43Z</time>
      </trkpt>
      <trkpt lat="44.51212" lon="5.86411">
        <ele>924.20001220703</ele>
        <time>2021-08-31T15:16:46Z</time>
      </trkpt>
      <trkpt lat="44.51214" lon="5.86412">
        <ele>924.40002441406</ele>
        <time>2021-08-31T15:16:48Z</time>
      </trkpt>
      <trkpt lat="44.5122" lon="5.86413">
        <ele>924.59997558594</ele>
        <time>2021-08-31T15:16:51Z</time>
      </trkpt>
      <trkpt lat="44.51221" lon="5.8641">
        <ele>925.20001220703</ele>
        <time>2021-08-31T15:17:01Z</time>
      </trkpt>
      <trkpt lat="44.51217" lon="5.86412">
        <ele>925.20001220703</ele>
        <time>2021-08-31T15:17:03Z</time>
      </trkpt>
      <trkpt lat="44.5121" lon="5.86419">
        <ele>925</ele>
        <time>2021-08-31T15:17:06Z</time>
      </trkpt>
      <trkpt lat="44.51208" lon="5.86423">
        <ele>925</ele>
        <time>2021-08-31T15:17:07Z</time>
      </trkpt>
      <trkpt lat="44.51196" lon="5.86449">
        <ele>924.59997558594</ele>
        <time>2021-08-31T15:17:12Z</time>
      </trkpt>
      <trkpt lat="44.51188" lon="5.86463">
        <ele>923.79998779297</ele>
        <time>2021-08-31T15:17:15Z</time>
      </trkpt>
      <trkpt lat="44.51185" lon="5.86474">
        <ele>923</ele>
        <time>2021-08-31T15:17:17Z</time>
      </trkpt>
      <trkpt lat="44.51182" lon="5.86487">
        <ele>922.20001220703</ele>
        <time>2021-08-31T15:17:19Z</time>
      </trkpt>
      <trkpt lat="44.5118" lon="5.86495">
        <ele>921.79998779297</ele>
        <time>2021-08-31T15:17:20Z</time>
      </trkpt>
      <trkpt lat="44.51177" lon="5.86504">
        <ele>921.59997558594</ele>
        <time>2021-08-31T15:17:21Z</time>
      </trkpt>
      <trkpt lat="44.51173" lon="5.86521">
        <ele>920.79998779297</ele>
        <time>2021-08-31T15:17:23Z</time>
      </trkpt>
      <trkpt lat="44.51167" lon="5.86536">
        <ele>920</ele>
        <time>2021-08-31T15:17:25Z</time>
      </trkpt>
      <trkpt lat="44.51164" lon="5.86545">
        <ele>919.40002441406</ele>
        <time>2021-08-31T15:17:26Z</time>
      </trkpt>
      <trkpt lat="44.51158" lon="5.86561">
        <ele>918.20001220703</ele>
        <time>2021-08-31T15:17:28Z</time>
      </trkpt>
      <trkpt lat="44.51153" lon="5.86575">
        <ele>917</ele>
        <time>2021-08-31T15:17:30Z</time>
      </trkpt>
      <trkpt lat="44.5115" lon="5.86585">
        <ele>916</ele>
        <time>2021-08-31T15:17:32Z</time>
      </trkpt>
      <trkpt lat="44.51149" lon="5.86589">
        <ele>914.79998779297</ele>
        <time>2021-08-31T15:17:33Z</time>
      </trkpt>
      <trkpt lat="44.51148" lon="5.86592">
        <ele>914.20001220703</ele>
        <time>2021-08-31T15:17:34Z</time>
      </trkpt>
      <trkpt lat="44.51145" lon="5.86598">
        <ele>913.40002441406</ele>
        <time>2021-08-31T15:17:36Z</time>
      </trkpt>
      <trkpt lat="44.51144" lon="5.86601">
        <ele>912.79998779297</ele>
        <time>2021-08-31T15:17:37Z</time>
      </trkpt>
      <trkpt lat="44.51141" lon="5.86603">
        <ele>912.20001220703</ele>
        <time>2021-08-31T15:17:39Z</time>
      </trkpt>
      <trkpt lat="44.51141" lon="5.86607">
        <ele>911.79998779297</ele>
        <time>2021-08-31T15:22:54Z</time>
      </trkpt>
      <trkpt lat="44.51141" lon="5.8661">
        <ele>911.59997558594</ele>
        <time>2021-08-31T15:22:55Z</time>
      </trkpt>
      <trkpt lat="44.51131" lon="5.86622">
        <ele>911.59997558594</ele>
        <time>2021-08-31T15:22:59Z</time>
      </trkpt>
      <trkpt lat="44.51128" lon="5.86625">
        <ele>911.40002441406</ele>
        <time>2021-08-31T15:23:00Z</time>
      </trkpt>
      <trkpt lat="44.51126" lon="5.86633">
        <ele>911</ele>
        <time>2021-08-31T15:23:02Z</time>
      </trkpt>
      <trkpt lat="44.51126" lon="5.86638">
        <ele>911</ele>
        <time>2021-08-31T15:23:03Z</time>
      </trkpt>
      <trkpt lat="44.51124" lon="5.86659">
        <ele>910</ele>
        <time>2021-08-31T15:23:07Z</time>
      </trkpt>
      <trkpt lat="44.51122" lon="5.86672">
        <ele>909.20001220703</ele>
        <time>2021-08-31T15:23:10Z</time>
      </trkpt>
      <trkpt lat="44.51121" lon="5.86676">
        <ele>909</ele>
        <time>2021-08-31T15:23:11Z</time>
      </trkpt>
      <trkpt lat="44.51118" lon="5.86686">
        <ele>908.59997558594</ele>
        <time>2021-08-31T15:23:13Z</time>
      </trkpt>
      <trkpt lat="44.51114" lon="5.86696">
        <ele>908.20001220703</ele>
        <time>2021-08-31T15:23:15Z</time>
      </trkpt>
      <trkpt lat="44.51113" lon="5.86703">
        <ele>908</ele>
        <time>2021-08-31T15:23:16Z</time>
      </trkpt>
      <trkpt lat="44.51105" lon="5.86733">
        <ele>906.79998779297</ele>
        <time>2021-08-31T15:23:20Z</time>
      </trkpt>
      <trkpt lat="44.51103" lon="5.8674">
        <ele>906.59997558594</ele>
        <time>2021-08-31T15:23:21Z</time>
      </trkpt>
      <trkpt lat="44.51097" lon="5.86762">
        <ele>905.59997558594</ele>
        <time>2021-08-31T15:23:24Z</time>
      </trkpt>
      <trkpt lat="44.51091" lon="5.86783">
        <ele>904.40002441406</ele>
        <time>2021-08-31T15:23:27Z</time>
      </trkpt>
      <trkpt lat="44.51088" lon="5.86797">
        <ele>903.59997558594</ele>
        <time>2021-08-31T15:23:29Z</time>
      </trkpt>
      <trkpt lat="44.51086" lon="5.86804">
        <ele>903.20001220703</ele>
        <time>2021-08-31T15:23:30Z</time>
      </trkpt>
      <trkpt lat="44.51083" lon="5.86816">
        <ele>902.59997558594</ele>
        <time>2021-08-31T15:23:32Z</time>
      </trkpt>
      <trkpt lat="44.51078" lon="5.86828">
        <ele>901.79998779297</ele>
        <time>2021-08-31T15:23:34Z</time>
      </trkpt>
      <trkpt lat="44.51075" lon="5.86832">
        <ele>901.59997558594</ele>
        <time>2021-08-31T15:23:35Z</time>
      </trkpt>
      <trkpt lat="44.51069" lon="5.86839">
        <ele>901.20001220703</ele>
        <time>2021-08-31T15:23:37Z</time>
      </trkpt>
      <trkpt lat="44.51058" lon="5.86859">
        <ele>900.79998779297</ele>
        <time>2021-08-31T15:23:42Z</time>
      </trkpt>
      <trkpt lat="44.51057" lon="5.86864">
        <ele>900.79998779297</ele>
        <time>2021-08-31T15:23:43Z</time>
      </trkpt>
      <trkpt lat="44.51056" lon="5.8688">
        <ele>900.40002441406</ele>
        <time>2021-08-31T15:23:47Z</time>
      </trkpt>
      <trkpt lat="44.51067" lon="5.869">
        <ele>900.40002441406</ele>
        <time>2021-08-31T15:23:53Z</time>
      </trkpt>
      <trkpt lat="44.51088" lon="5.86922">
        <ele>900.20001220703</ele>
        <time>2021-08-31T15:24:00Z</time>
      </trkpt>
      <trkpt lat="44.51109" lon="5.86945">
        <ele>899.79998779297</ele>
        <time>2021-08-31T15:24:08Z</time>
      </trkpt>
      <trkpt lat="44.51111" lon="5.86948">
        <ele>899.59997558594</ele>
        <time>2021-08-31T15:24:09Z</time>
      </trkpt>
      <trkpt lat="44.51115" lon="5.86964">
        <ele>899.20001220703</ele>
        <time>2021-08-31T15:24:13Z</time>
      </trkpt>
      <trkpt lat="44.51115" lon="5.86981">
        <ele>898.79998779297</ele>
        <time>2021-08-31T15:24:17Z</time>
      </trkpt>
      <trkpt lat="44.51114" lon="5.86986">
        <ele>898.59997558594</ele>
        <time>2021-08-31T15:24:18Z</time>
      </trkpt>
      <trkpt lat="44.51111" lon="5.87012">
        <ele>897.59997558594</ele>
        <time>2021-08-31T15:24:23Z</time>
      </trkpt>
      <trkpt lat="44.5111" lon="5.87018">
        <ele>897.40002441406</ele>
        <time>2021-08-31T15:24:24Z</time>
      </trkpt>
      <trkpt lat="44.51108" lon="5.87054">
        <ele>896.40002441406</ele>
        <time>2021-08-31T15:24:30Z</time>
      </trkpt>
      <trkpt lat="44.51107" lon="5.87094">
        <ele>895.20001220703</ele>
        <time>2021-08-31T15:24:36Z</time>
      </trkpt>
      <trkpt lat="44.51107" lon="5.87101">
        <ele>895</ele>
        <time>2021-08-31T15:24:37Z</time>
      </trkpt>
      <trkpt lat="44.51107" lon="5.87108">
        <ele>894.59997558594</ele>
        <time>2021-08-31T15:24:38Z</time>
      </trkpt>
      <trkpt lat="44.51113" lon="5.87124">
        <ele>893.79998779297</ele>
        <time>2021-08-31T15:24:41Z</time>
      </trkpt>
      <trkpt lat="44.51123" lon="5.87138">
        <ele>893</ele>
        <time>2021-08-31T15:24:45Z</time>
      </trkpt>
      <trkpt lat="44.51125" lon="5.87142">
        <ele>892.59997558594</ele>
        <time>2021-08-31T15:24:46Z</time>
      </trkpt>
      <trkpt lat="44.51128" lon="5.87154">
        <ele>892.20001220703</ele>
        <time>2021-08-31T15:24:49Z</time>
      </trkpt>
      <trkpt lat="44.51128" lon="5.87159">
        <ele>892</ele>
        <time>2021-08-31T15:24:50Z</time>
      </trkpt>
      <trkpt lat="44.51125" lon="5.87182">
        <ele>891.59997558594</ele>
        <time>2021-08-31T15:24:55Z</time>
      </trkpt>
      <trkpt lat="44.51123" lon="5.87205">
        <ele>891.59997558594</ele>
        <time>2021-08-31T15:25:00Z</time>
      </trkpt>
      <trkpt lat="44.51121" lon="5.87219">
        <ele>891.40002441406</ele>
        <time>2021-08-31T15:25:03Z</time>
      </trkpt>
      <trkpt lat="44.51117" lon="5.87255">
        <ele>891</ele>
        <time>2021-08-31T15:25:10Z</time>
      </trkpt>
      <trkpt lat="44.51114" lon="5.87308">
        <ele>890.59997558594</ele>
        <time>2021-08-31T15:25:19Z</time>
      </trkpt>
      <trkpt lat="44.51113" lon="5.87316">
        <ele>890.40002441406</ele>
        <time>2021-08-31T15:25:20Z</time>
      </trkpt>
      <trkpt lat="44.51111" lon="5.87338">
        <ele>890.20001220703</ele>
        <time>2021-08-31T15:25:23Z</time>
      </trkpt>
      <trkpt lat="44.51111" lon="5.87345">
        <ele>890</ele>
        <time>2021-08-31T15:25:24Z</time>
      </trkpt>
      <trkpt lat="44.5111" lon="5.87369">
        <ele>889.20001220703</ele>
        <time>2021-08-31T15:25:28Z</time>
      </trkpt>
      <trkpt lat="44.5111" lon="5.87376">
        <ele>889</ele>
        <time>2021-08-31T15:25:29Z</time>
      </trkpt>
      <trkpt lat="44.5111" lon="5.87395">
        <ele>888.20001220703</ele>
        <time>2021-08-31T15:25:32Z</time>
      </trkpt>
      <trkpt lat="44.5111" lon="5.87401">
        <ele>888</ele>
        <time>2021-08-31T15:25:33Z</time>
      </trkpt>
      <trkpt lat="44.5111" lon="5.87409">
        <ele>887.79998779297</ele>
        <time>2021-08-31T15:25:34Z</time>
      </trkpt>
      <trkpt lat="44.51111" lon="5.87431">
        <ele>887</ele>
        <time>2021-08-31T15:25:37Z</time>
      </trkpt>
      <trkpt lat="44.51112" lon="5.87458">
        <ele>886.40002441406</ele>
        <time>2021-08-31T15:25:40Z</time>
      </trkpt>
      <trkpt lat="44.51112" lon="5.87475">
        <ele>885.79998779297</ele>
        <time>2021-08-31T15:25:42Z</time>
      </trkpt>
      <trkpt lat="44.51112" lon="5.87501">
        <ele>884.79998779297</ele>
        <time>2021-08-31T15:25:45Z</time>
      </trkpt>
      <trkpt lat="44.51113" lon="5.87525">
        <ele>883.59997558594</ele>
        <time>2021-08-31T15:25:48Z</time>
      </trkpt>
      <trkpt lat="44.51113" lon="5.87538">
        <ele>883</ele>
        <time>2021-08-31T15:25:50Z</time>
      </trkpt>
      <trkpt lat="44.51114" lon="5.87547">
        <ele>882.40002441406</ele>
        <time>2021-08-31T15:25:52Z</time>
      </trkpt>
      <trkpt lat="44.51113" lon="5.87553">
        <ele>881.79998779297</ele>
        <time>2021-08-31T15:25:54Z</time>
      </trkpt>
      <trkpt lat="44.51113" lon="5.87561">
        <ele>881.20001220703</ele>
        <time>2021-08-31T15:25:56Z</time>
      </trkpt>
      <trkpt lat="44.51114" lon="5.87577">
        <ele>880.40002441406</ele>
        <time>2021-08-31T15:25:59Z</time>
      </trkpt>
      <trkpt lat="44.51115" lon="5.87584">
        <ele>880.20001220703</ele>
        <time>2021-08-31T15:26:00Z</time>
      </trkpt>
      <trkpt lat="44.51116" lon="5.87603">
        <ele>879.59997558594</ele>
        <time>2021-08-31T15:26:03Z</time>
      </trkpt>
      <trkpt lat="44.51116" lon="5.87609">
        <ele>879.40002441406</ele>
        <time>2021-08-31T15:26:04Z</time>
      </trkpt>
      <trkpt lat="44.51117" lon="5.87616">
        <ele>879</ele>
        <time>2021-08-31T15:26:05Z</time>
      </trkpt>
      <trkpt lat="44.51117" lon="5.87646">
        <ele>877.79998779297</ele>
        <time>2021-08-31T15:26:09Z</time>
      </trkpt>
      <trkpt lat="44.51116" lon="5.87678">
        <ele>876.59997558594</ele>
        <time>2021-08-31T15:26:13Z</time>
      </trkpt>
      <trkpt lat="44.51117" lon="5.87711">
        <ele>876.20001220703</ele>
        <time>2021-08-31T15:26:17Z</time>
      </trkpt>
      <trkpt lat="44.51118" lon="5.87728">
        <ele>875.59997558594</ele>
        <time>2021-08-31T15:26:19Z</time>
      </trkpt>
      <trkpt lat="44.51118" lon="5.87757">
        <ele>874.59997558594</ele>
        <time>2021-08-31T15:26:23Z</time>
      </trkpt>
      <trkpt lat="44.51118" lon="5.87762">
        <ele>874.40002441406</ele>
        <time>2021-08-31T15:26:24Z</time>
      </trkpt>
      <trkpt lat="44.51118" lon="5.87781">
        <ele>873.79998779297</ele>
        <time>2021-08-31T15:26:28Z</time>
      </trkpt>
      <trkpt lat="44.51117" lon="5.8779">
        <ele>873.40002441406</ele>
        <time>2021-08-31T15:26:31Z</time>
      </trkpt>
      <trkpt lat="44.51116" lon="5.87793">
        <ele>873.20001220703</ele>
        <time>2021-08-31T15:26:33Z</time>
      </trkpt>
      <trkpt lat="44.51117" lon="5.87798">
        <ele>872.59997558594</ele>
        <time>2021-08-31T15:29:09Z</time>
      </trkpt>
      <trkpt lat="44.51119" lon="5.87801">
        <ele>872.59997558594</ele>
        <time>2021-08-31T15:29:11Z</time>
      </trkpt>
      <trkpt lat="44.51125" lon="5.87817">
        <ele>872.59997558594</ele>
        <time>2021-08-31T15:29:16Z</time>
      </trkpt>
      <trkpt lat="44.51132" lon="5.87839">
        <ele>872.59997558594</ele>
        <time>2021-08-31T15:29:22Z</time>
      </trkpt>
      <trkpt lat="44.51144" lon="5.87859">
        <ele>872.40002441406</ele>
        <time>2021-08-31T15:29:29Z</time>
      </trkpt>
      <trkpt lat="44.51146" lon="5.87861">
        <ele>872.40002441406</ele>
        <time>2021-08-31T15:29:30Z</time>
      </trkpt>
      <trkpt lat="44.51148" lon="5.87868">
        <ele>872.40002441406</ele>
        <time>2021-08-31T15:29:34Z</time>
      </trkpt>
      <trkpt lat="44.51147" lon="5.87869">
        <ele>872.40002441406</ele>
        <time>2021-08-31T15:29:35Z</time>
      </trkpt>
      <trkpt lat="44.51147" lon="5.87872">
        <ele>872.40002441406</ele>
        <time>2021-08-31T15:29:37Z</time>
      </trkpt>
      <trkpt lat="44.51149" lon="5.87873">
        <ele>872.59997558594</ele>
        <time>2021-08-31T15:29:41Z</time>
      </trkpt>
      <trkpt lat="44.51149" lon="5.87866">
        <ele>872.59997558594</ele>
        <time>2021-08-31T15:29:46Z</time>
      </trkpt>
      <trkpt lat="44.51143" lon="5.87873">
        <ele>872.59997558594</ele>
        <time>2021-08-31T15:29:50Z</time>
      </trkpt>
      <trkpt lat="44.51134" lon="5.87885">
        <ele>872.59997558594</ele>
        <time>2021-08-31T15:29:55Z</time>
      </trkpt>
      <trkpt lat="44.51129" lon="5.87888">
        <ele>872.79998779297</ele>
        <time>2021-08-31T15:29:57Z</time>
      </trkpt>
      <trkpt lat="44.51114" lon="5.87896">
        <ele>873</ele>
        <time>2021-08-31T15:30:02Z</time>
      </trkpt>
      <trkpt lat="44.51093" lon="5.87915">
        <ele>873.20001220703</ele>
        <time>2021-08-31T15:30:09Z</time>
      </trkpt>
      <trkpt lat="44.51074" lon="5.87927">
        <ele>873</ele>
        <time>2021-08-31T15:30:15Z</time>
      </trkpt>
      <trkpt lat="44.51053" lon="5.87946">
        <ele>872.59997558594</ele>
        <time>2021-08-31T15:30:23Z</time>
      </trkpt>
      <trkpt lat="44.51039" lon="5.87957">
        <ele>872.40002441406</ele>
        <time>2021-08-31T15:30:29Z</time>
      </trkpt>
      <trkpt lat="44.51023" lon="5.8797">
        <ele>872.40002441406</ele>
        <time>2021-08-31T15:30:37Z</time>
      </trkpt>
      <trkpt lat="44.51017" lon="5.87978">
        <ele>872.40002441406</ele>
        <time>2021-08-31T15:30:44Z</time>
      </trkpt>
      <trkpt lat="44.51015" lon="5.87978">
        <ele>872.40002441406</ele>
        <time>2021-08-31T15:30:46Z</time>
      </trkpt>
      <trkpt lat="44.51011" lon="5.87982">
        <ele>872.59997558594</ele>
        <time>2021-08-31T15:30:49Z</time>
      </trkpt>
      <trkpt lat="44.51004" lon="5.87988">
        <ele>872.59997558594</ele>
        <time>2021-08-31T15:30:52Z</time>
      </trkpt>
      <trkpt lat="44.50999" lon="5.87992">
        <ele>872.59997558594</ele>
        <time>2021-08-31T15:30:54Z</time>
      </trkpt>
      <trkpt lat="44.50979" lon="5.88007">
        <ele>872.59997558594</ele>
        <time>2021-08-31T15:31:01Z</time>
      </trkpt>
      <trkpt lat="44.5096" lon="5.88022">
        <ele>873</ele>
        <time>2021-08-31T15:31:08Z</time>
      </trkpt>
      <trkpt lat="44.50945" lon="5.88034">
        <ele>873.40002441406</ele>
        <time>2021-08-31T15:31:14Z</time>
      </trkpt>
      <trkpt lat="44.50934" lon="5.88042">
        <ele>873.79998779297</ele>
        <time>2021-08-31T15:31:18Z</time>
      </trkpt>
      <trkpt lat="44.50913" lon="5.88059">
        <ele>874</ele>
        <time>2021-08-31T15:31:26Z</time>
      </trkpt>
      <trkpt lat="44.50892" lon="5.88076">
        <ele>874.40002441406</ele>
        <time>2021-08-31T15:31:34Z</time>
      </trkpt>
      <trkpt lat="44.50871" lon="5.88093">
        <ele>875</ele>
        <time>2021-08-31T15:31:42Z</time>
      </trkpt>
      <trkpt lat="44.50858" lon="5.88104">
        <ele>875.40002441406</ele>
        <time>2021-08-31T15:31:47Z</time>
      </trkpt>
      <trkpt lat="44.50847" lon="5.88113">
        <ele>875.79998779297</ele>
        <time>2021-08-31T15:31:51Z</time>
      </trkpt>
      <trkpt lat="44.50825" lon="5.8813">
        <ele>876.20001220703</ele>
        <time>2021-08-31T15:31:59Z</time>
      </trkpt>
      <trkpt lat="44.50811" lon="5.88141">
        <ele>876.59997558594</ele>
        <time>2021-08-31T15:32:04Z</time>
      </trkpt>
      <trkpt lat="44.50804" lon="5.88148">
        <ele>876.79998779297</ele>
        <time>2021-08-31T15:32:07Z</time>
      </trkpt>
      <trkpt lat="44.5078" lon="5.88167">
        <ele>877.59997558594</ele>
        <time>2021-08-31T15:32:16Z</time>
      </trkpt>
      <trkpt lat="44.50775" lon="5.88171">
        <ele>877.59997558594</ele>
        <time>2021-08-31T15:32:18Z</time>
      </trkpt>
      <trkpt lat="44.50759" lon="5.88183">
        <ele>878</ele>
        <time>2021-08-31T15:32:24Z</time>
      </trkpt>
      <trkpt lat="44.50738" lon="5.88201">
        <ele>878.79998779297</ele>
        <time>2021-08-31T15:32:32Z</time>
      </trkpt>
      <trkpt lat="44.50715" lon="5.88221">
        <ele>879.40002441406</ele>
        <time>2021-08-31T15:32:41Z</time>
      </trkpt>
      <trkpt lat="44.50695" lon="5.88235">
        <ele>879.59997558594</ele>
        <time>2021-08-31T15:32:48Z</time>
      </trkpt>
      <trkpt lat="44.50693" lon="5.88238">
        <ele>879.79998779297</ele>
        <time>2021-08-31T15:32:49Z</time>
      </trkpt>
      <trkpt lat="44.50677" lon="5.88251">
        <ele>880</ele>
        <time>2021-08-31T15:32:55Z</time>
      </trkpt>
      <trkpt lat="44.50656" lon="5.88268">
        <ele>880.59997558594</ele>
        <time>2021-08-31T15:33:03Z</time>
      </trkpt>
      <trkpt lat="44.50654" lon="5.8827">
        <ele>880.79998779297</ele>
        <time>2021-08-31T15:33:04Z</time>
      </trkpt>
      <trkpt lat="44.50636" lon="5.88283">
        <ele>881.79998779297</ele>
        <time>2021-08-31T15:33:11Z</time>
      </trkpt>
      <trkpt lat="44.50634" lon="5.88285">
        <ele>881.79998779297</ele>
        <time>2021-08-31T15:33:12Z</time>
      </trkpt>
      <trkpt lat="44.50617" lon="5.88299">
        <ele>882.40002441406</ele>
        <time>2021-08-31T15:33:19Z</time>
      </trkpt>
      <trkpt lat="44.50605" lon="5.88308">
        <ele>883</ele>
        <time>2021-08-31T15:33:24Z</time>
      </trkpt>
      <trkpt lat="44.50599" lon="5.88315">
        <ele>883.20001220703</ele>
        <time>2021-08-31T15:33:27Z</time>
      </trkpt>
      <trkpt lat="44.50584" lon="5.88328">
        <ele>884</ele>
        <time>2021-08-31T15:33:34Z</time>
      </trkpt>
      <trkpt lat="44.50569" lon="5.8834">
        <ele>884.79998779297</ele>
        <time>2021-08-31T15:33:41Z</time>
      </trkpt>
      <trkpt lat="44.50566" lon="5.88344">
        <ele>885</ele>
        <time>2021-08-31T15:33:43Z</time>
      </trkpt>
      <trkpt lat="44.50559" lon="5.88355">
        <ele>885.59997558594</ele>
        <time>2021-08-31T15:33:47Z</time>
      </trkpt>
      <trkpt lat="44.50558" lon="5.88374">
        <ele>885.79998779297</ele>
        <time>2021-08-31T15:33:52Z</time>
      </trkpt>
      <trkpt lat="44.50565" lon="5.88397">
        <ele>885.79998779297</ele>
        <time>2021-08-31T15:33:59Z</time>
      </trkpt>
      <trkpt lat="44.50572" lon="5.8842">
        <ele>886</ele>
        <time>2021-08-31T15:34:07Z</time>
      </trkpt>
      <trkpt lat="44.50578" lon="5.88443">
        <ele>886</ele>
        <time>2021-08-31T15:34:14Z</time>
      </trkpt>
      <trkpt lat="44.50583" lon="5.88472">
        <ele>886.20001220703</ele>
        <time>2021-08-31T15:34:21Z</time>
      </trkpt>
      <trkpt lat="44.50584" lon="5.88481">
        <ele>886.20001220703</ele>
        <time>2021-08-31T15:34:23Z</time>
      </trkpt>
      <trkpt lat="44.50579" lon="5.88498">
        <ele>886.59997558594</ele>
        <time>2021-08-31T15:34:28Z</time>
      </trkpt>
      <trkpt lat="44.50571" lon="5.88515">
        <ele>887.20001220703</ele>
        <time>2021-08-31T15:34:34Z</time>
      </trkpt>
      <trkpt lat="44.50569" lon="5.8852">
        <ele>887.40002441406</ele>
        <time>2021-08-31T15:34:36Z</time>
      </trkpt>
      <trkpt lat="44.50557" lon="5.88541">
        <ele>888.20001220703</ele>
        <time>2021-08-31T15:34:44Z</time>
      </trkpt>
      <trkpt lat="44.50543" lon="5.88556">
        <ele>889</ele>
        <time>2021-08-31T15:34:52Z</time>
      </trkpt>
      <trkpt lat="44.5054" lon="5.88556">
        <ele>889.20001220703</ele>
        <time>2021-08-31T15:34:53Z</time>
      </trkpt>
      <trkpt lat="44.50529" lon="5.88556">
        <ele>889.59997558594</ele>
        <time>2021-08-31T15:34:58Z</time>
      </trkpt>
      <trkpt lat="44.50521" lon="5.88556">
        <ele>890.20001220703</ele>
        <time>2021-08-31T15:35:02Z</time>
      </trkpt>
      <trkpt lat="44.50515" lon="5.88556">
        <ele>890.59997558594</ele>
        <time>2021-08-31T15:35:05Z</time>
      </trkpt>
      <trkpt lat="44.50501" lon="5.8856">
        <ele>891.20001220703</ele>
        <time>2021-08-31T15:35:12Z</time>
      </trkpt>
      <trkpt lat="44.50499" lon="5.88564">
        <ele>891.20001220703</ele>
        <time>2021-08-31T15:35:14Z</time>
      </trkpt>
      <trkpt lat="44.50499" lon="5.88567">
        <ele>891.40002441406</ele>
        <time>2021-08-31T15:35:15Z</time>
      </trkpt>
      <trkpt lat="44.50498" lon="5.88572">
        <ele>891.40002441406</ele>
        <time>2021-08-31T15:35:17Z</time>
      </trkpt>
      <trkpt lat="44.50494" lon="5.88587">
        <ele>891.79998779297</ele>
        <time>2021-08-31T15:35:23Z</time>
      </trkpt>
      <trkpt lat="44.50489" lon="5.8861">
        <ele>892</ele>
        <time>2021-08-31T15:35:30Z</time>
      </trkpt>
      <trkpt lat="44.50479" lon="5.88631">
        <ele>892.40002441406</ele>
        <time>2021-08-31T15:35:37Z</time>
      </trkpt>
      <trkpt lat="44.50465" lon="5.88654">
        <ele>892.79998779297</ele>
        <time>2021-08-31T15:35:46Z</time>
      </trkpt>
      <trkpt lat="44.50453" lon="5.8867">
        <ele>893.20001220703</ele>
        <time>2021-08-31T15:35:53Z</time>
      </trkpt>
      <trkpt lat="44.5045" lon="5.88674">
        <ele>893.40002441406</ele>
        <time>2021-08-31T15:35:55Z</time>
      </trkpt>
      <trkpt lat="44.50445" lon="5.88684">
        <ele>893.79998779297</ele>
        <time>2021-08-31T15:35:59Z</time>
      </trkpt>
      <trkpt lat="44.50446" lon="5.88685">
        <ele>893.79998779297</ele>
        <time>2021-08-31T15:36:00Z</time>
      </trkpt>
      <trkpt lat="44.50448" lon="5.88683">
        <ele>894.20001220703</ele>
        <time>2021-08-31T15:36:03Z</time>
      </trkpt>
      <trkpt lat="44.50449" lon="5.88681">
        <ele>894.20001220703</ele>
        <time>2021-08-31T15:36:04Z</time>
      </trkpt>
      <trkpt lat="44.50451" lon="5.88678">
        <ele>894.40002441406</ele>
        <time>2021-08-31T15:36:06Z</time>
      </trkpt>
      <trkpt lat="44.50453" lon="5.88673">
        <ele>894</ele>
        <time>2021-08-31T15:36:57Z</time>
      </trkpt>
      <trkpt lat="44.50456" lon="5.88663">
        <ele>894</ele>
        <time>2021-08-31T15:37:00Z</time>
      </trkpt>
      <trkpt lat="44.50468" lon="5.88645">
        <ele>893.79998779297</ele>
        <time>2021-08-31T15:37:05Z</time>
      </trkpt>
      <trkpt lat="44.50484" lon="5.88618">
        <ele>893.20001220703</ele>
        <time>2021-08-31T15:37:11Z</time>
      </trkpt>
      <trkpt lat="44.5049" lon="5.88603">
        <ele>893</ele>
        <time>2021-08-31T15:37:14Z</time>
      </trkpt>
      <trkpt lat="44.50498" lon="5.88574">
        <ele>892.59997558594</ele>
        <time>2021-08-31T15:37:20Z</time>
      </trkpt>
      <trkpt lat="44.505" lon="5.88572">
        <ele>892.59997558594</ele>
        <time>2021-08-31T15:37:22Z</time>
      </trkpt>
      <trkpt lat="44.50501" lon="5.88575">
        <ele>892.40002441406</ele>
        <time>2021-08-31T15:37:24Z</time>
      </trkpt>
      <trkpt lat="44.50502" lon="5.88576">
        <ele>892.20001220703</ele>
        <time>2021-08-31T15:37:25Z</time>
      </trkpt>
      <trkpt lat="44.50509" lon="5.88583">
        <ele>953</ele>
        <time>2021-09-01T06:31:36Z</time>
      </trkpt>
      <trkpt lat="44.50505" lon="5.8858">
        <ele>953.20001220703</ele>
        <time>2021-09-01T06:32:01Z</time>
      </trkpt>
      <trkpt lat="44.50501" lon="5.88581">
        <ele>953.20001220703</ele>
        <time>2021-09-01T06:32:03Z</time>
      </trkpt>
      <trkpt lat="44.50496" lon="5.88589">
        <ele>953</ele>
        <time>2021-09-01T06:32:07Z</time>
      </trkpt>
      <trkpt lat="44.50495" lon="5.88592">
        <ele>953.20001220703</ele>
        <time>2021-09-01T06:32:08Z</time>
      </trkpt>
      <trkpt lat="44.5049" lon="5.88609">
        <ele>953.40002441406</ele>
        <time>2021-09-01T06:32:14Z</time>
      </trkpt>
      <trkpt lat="44.50479" lon="5.88629">
        <ele>953.59997558594</ele>
        <time>2021-09-01T06:32:21Z</time>
      </trkpt>
      <trkpt lat="44.5047" lon="5.88644">
        <ele>954</ele>
        <time>2021-09-01T06:32:27Z</time>
      </trkpt>
      <trkpt lat="44.50466" lon="5.88648">
        <ele>954</ele>
        <time>2021-09-01T06:32:29Z</time>
      </trkpt>
      <trkpt lat="44.5046" lon="5.88658">
        <ele>954.20001220703</ele>
        <time>2021-09-01T06:32:33Z</time>
      </trkpt>
      <trkpt lat="44.50451" lon="5.88672">
        <ele>954.79998779297</ele>
        <time>2021-09-01T06:32:39Z</time>
      </trkpt>
      <trkpt lat="44.50449" lon="5.88677">
        <ele>955.20001220703</ele>
        <time>2021-09-01T06:32:41Z</time>
      </trkpt>
      <trkpt lat="44.50448" lon="5.88684">
        <ele>955.40002441406</ele>
        <time>2021-09-01T06:32:44Z</time>
      </trkpt>
      <trkpt lat="44.5045" lon="5.88688">
        <ele>955.59997558594</ele>
        <time>2021-09-01T06:32:46Z</time>
      </trkpt>
      <trkpt lat="44.50455" lon="5.88692">
        <ele>956</ele>
        <time>2021-09-01T06:32:50Z</time>
      </trkpt>
      <trkpt lat="44.50456" lon="5.88692">
        <ele>956</ele>
        <time>2021-09-01T06:32:51Z</time>
      </trkpt>
      <trkpt lat="44.50458" lon="5.88692">
        <ele>956.20001220703</ele>
        <time>2021-09-01T06:32:52Z</time>
      </trkpt>
      <trkpt lat="44.5046" lon="5.88692">
        <ele>956.40002441406</ele>
        <time>2021-09-01T06:32:54Z</time>
      </trkpt>
      <trkpt lat="44.50463" lon="5.8869">
        <ele>956.59997558594</ele>
        <time>2021-09-01T06:32:56Z</time>
      </trkpt>
      <trkpt lat="44.50469" lon="5.88685">
        <ele>957</ele>
        <time>2021-09-01T06:33:00Z</time>
      </trkpt>
      <trkpt lat="44.50472" lon="5.88685">
        <ele>957.20001220703</ele>
        <time>2021-09-01T06:33:02Z</time>
      </trkpt>
      <trkpt lat="44.50475" lon="5.88685">
        <ele>957.20001220703</ele>
        <time>2021-09-01T06:33:04Z</time>
      </trkpt>
      <trkpt lat="44.50485" lon="5.88684">
        <ele>958</ele>
        <time>2021-09-01T06:33:11Z</time>
      </trkpt>
      <trkpt lat="44.50488" lon="5.88684">
        <ele>958.20001220703</ele>
        <time>2021-09-01T06:33:13Z</time>
      </trkpt>
      <trkpt lat="44.50495" lon="5.88685">
        <ele>958.79998779297</ele>
        <time>2021-09-01T06:33:18Z</time>
      </trkpt>
      <trkpt lat="44.505" lon="5.88685">
        <ele>959.20001220703</ele>
        <time>2021-09-01T06:33:22Z</time>
      </trkpt>
      <trkpt lat="44.50501" lon="5.88686">
        <ele>959.40002441406</ele>
        <time>2021-09-01T06:33:23Z</time>
      </trkpt>
      <trkpt lat="44.50505" lon="5.88687">
        <ele>959.79998779297</ele>
        <time>2021-09-01T06:33:26Z</time>
      </trkpt>
      <trkpt lat="44.50506" lon="5.88688">
        <ele>960</ele>
        <time>2021-09-01T06:33:27Z</time>
      </trkpt>
      <trkpt lat="44.50509" lon="5.8869">
        <ele>960.40002441406</ele>
        <time>2021-09-01T06:33:29Z</time>
      </trkpt>
      <trkpt lat="44.50513" lon="5.88694">
        <ele>961</ele>
        <time>2021-09-01T06:33:33Z</time>
      </trkpt>
      <trkpt lat="44.50514" lon="5.88695">
        <ele>961.20001220703</ele>
        <time>2021-09-01T06:33:34Z</time>
      </trkpt>
      <trkpt lat="44.50516" lon="5.88696">
        <ele>961.40002441406</ele>
        <time>2021-09-01T06:33:36Z</time>
      </trkpt>
      <trkpt lat="44.50522" lon="5.88703">
        <ele>962</ele>
        <time>2021-09-01T06:33:42Z</time>
      </trkpt>
      <trkpt lat="44.50522" lon="5.88705">
        <ele>962</ele>
        <time>2021-09-01T06:33:43Z</time>
      </trkpt>
      <trkpt lat="44.50522" lon="5.88709">
        <ele>962.40002441406</ele>
        <time>2021-09-01T06:33:45Z</time>
      </trkpt>
      <trkpt lat="44.50523" lon="5.8871">
        <ele>962.40002441406</ele>
        <time>2021-09-01T06:33:46Z</time>
      </trkpt>
      <trkpt lat="44.50528" lon="5.88719">
        <ele>963.59997558594</ele>
        <time>2021-09-01T06:33:53Z</time>
      </trkpt>
      <trkpt lat="44.5053" lon="5.88728">
        <ele>964.40002441406</ele>
        <time>2021-09-01T06:33:59Z</time>
      </trkpt>
      <trkpt lat="44.5053" lon="5.8873">
        <ele>964.59997558594</ele>
        <time>2021-09-01T06:34:00Z</time>
      </trkpt>
      <trkpt lat="44.5053" lon="5.88736">
        <ele>965</ele>
        <time>2021-09-01T06:34:04Z</time>
      </trkpt>
      <trkpt lat="44.50531" lon="5.88741">
        <ele>965.40002441406</ele>
        <time>2021-09-01T06:34:07Z</time>
      </trkpt>
      <trkpt lat="44.5053" lon="5.88745">
        <ele>965.59997558594</ele>
        <time>2021-09-01T06:34:09Z</time>
      </trkpt>
      <trkpt lat="44.50531" lon="5.88751">
        <ele>966.20001220703</ele>
        <time>2021-09-01T06:34:13Z</time>
      </trkpt>
      <trkpt lat="44.50531" lon="5.88752">
        <ele>966.40002441406</ele>
        <time>2021-09-01T06:34:14Z</time>
      </trkpt>
      <trkpt lat="44.50532" lon="5.88755">
        <ele>966.59997558594</ele>
        <time>2021-09-01T06:34:16Z</time>
      </trkpt>
      <trkpt lat="44.50535" lon="5.88767">
        <ele>967.79998779297</ele>
        <time>2021-09-01T06:34:23Z</time>
      </trkpt>
      <trkpt lat="44.5054" lon="5.88778">
        <ele>968.79998779297</ele>
        <time>2021-09-01T06:34:30Z</time>
      </trkpt>
      <trkpt lat="44.50541" lon="5.88782">
        <ele>969.20001220703</ele>
        <time>2021-09-01T06:34:33Z</time>
      </trkpt>
      <trkpt lat="44.50545" lon="5.88794">
        <ele>969.79998779297</ele>
        <time>2021-09-01T06:34:40Z</time>
      </trkpt>
      <trkpt lat="44.50548" lon="5.88803">
        <ele>970.59997558594</ele>
        <time>2021-09-01T06:34:46Z</time>
      </trkpt>
      <trkpt lat="44.50549" lon="5.88806">
        <ele>970.79998779297</ele>
        <time>2021-09-01T06:34:48Z</time>
      </trkpt>
      <trkpt lat="44.50551" lon="5.88816">
        <ele>971.59997558594</ele>
        <time>2021-09-01T06:34:55Z</time>
      </trkpt>
      <trkpt lat="44.50552" lon="5.88818">
        <ele>971.59997558594</ele>
        <time>2021-09-01T06:34:56Z</time>
      </trkpt>
      <trkpt lat="44.50552" lon="5.88821">
        <ele>972</ele>
        <time>2021-09-01T06:34:58Z</time>
      </trkpt>
      <trkpt lat="44.50553" lon="5.88827">
        <ele>972.59997558594</ele>
        <time>2021-09-01T06:35:02Z</time>
      </trkpt>
      <trkpt lat="44.50553" lon="5.88832">
        <ele>973</ele>
        <time>2021-09-01T06:35:05Z</time>
      </trkpt>
      <trkpt lat="44.50553" lon="5.88833">
        <ele>973.20001220703</ele>
        <time>2021-09-01T06:35:06Z</time>
      </trkpt>
      <trkpt lat="44.50554" lon="5.88836">
        <ele>973.40002441406</ele>
        <time>2021-09-01T06:35:08Z</time>
      </trkpt>
      <trkpt lat="44.50552" lon="5.88846">
        <ele>974</ele>
        <time>2021-09-01T06:35:14Z</time>
      </trkpt>
      <trkpt lat="44.5055" lon="5.88849">
        <ele>974.40002441406</ele>
        <time>2021-09-01T06:35:16Z</time>
      </trkpt>
      <trkpt lat="44.50545" lon="5.88859">
        <ele>975.20001220703</ele>
        <time>2021-09-01T06:35:23Z</time>
      </trkpt>
      <trkpt lat="44.50544" lon="5.8886">
        <ele>975.40002441406</ele>
        <time>2021-09-01T06:35:24Z</time>
      </trkpt>
      <trkpt lat="44.5054" lon="5.88869">
        <ele>976.40002441406</ele>
        <time>2021-09-01T06:35:30Z</time>
      </trkpt>
      <trkpt lat="44.50537" lon="5.88878">
        <ele>977.20001220703</ele>
        <time>2021-09-01T06:35:36Z</time>
      </trkpt>
      <trkpt lat="44.50536" lon="5.8888">
        <ele>977.20001220703</ele>
        <time>2021-09-01T06:35:37Z</time>
      </trkpt>
      <trkpt lat="44.50536" lon="5.88881">
        <ele>977.40002441406</ele>
        <time>2021-09-01T06:35:38Z</time>
      </trkpt>
      <trkpt lat="44.50532" lon="5.88893">
        <ele>978.40002441406</ele>
        <time>2021-09-01T06:35:46Z</time>
      </trkpt>
      <trkpt lat="44.5053" lon="5.88905">
        <ele>979.40002441406</ele>
        <time>2021-09-01T06:35:53Z</time>
      </trkpt>
      <trkpt lat="44.5053" lon="5.88908">
        <ele>979.79998779297</ele>
        <time>2021-09-01T06:35:55Z</time>
      </trkpt>
      <trkpt lat="44.50529" lon="5.88915">
        <ele>980.40002441406</ele>
        <time>2021-09-01T06:36:00Z</time>
      </trkpt>
      <trkpt lat="44.50529" lon="5.8892">
        <ele>980.79998779297</ele>
        <time>2021-09-01T06:36:03Z</time>
      </trkpt>
      <trkpt lat="44.5053" lon="5.88927">
        <ele>981.59997558594</ele>
        <time>2021-09-01T06:36:07Z</time>
      </trkpt>
      <trkpt lat="44.50532" lon="5.88931">
        <ele>981.79998779297</ele>
        <time>2021-09-01T06:36:10Z</time>
      </trkpt>
      <trkpt lat="44.50536" lon="5.88936">
        <ele>982.40002441406</ele>
        <time>2021-09-01T06:36:14Z</time>
      </trkpt>
      <trkpt lat="44.50537" lon="5.88937">
        <ele>982.40002441406</ele>
        <time>2021-09-01T06:36:15Z</time>
      </trkpt>
      <trkpt lat="44.50538" lon="5.88938">
        <ele>982.59997558594</ele>
        <time>2021-09-01T06:36:16Z</time>
      </trkpt>
      <trkpt lat="44.50545" lon="5.88943">
        <ele>983.59997558594</ele>
        <time>2021-09-01T06:36:23Z</time>
      </trkpt>
      <trkpt lat="44.50546" lon="5.88944">
        <ele>983.59997558594</ele>
        <time>2021-09-01T06:36:24Z</time>
      </trkpt>
      <trkpt lat="44.50549" lon="5.88952">
        <ele>984.40002441406</ele>
        <time>2021-09-01T06:36:29Z</time>
      </trkpt>
      <trkpt lat="44.50549" lon="5.88956">
        <ele>984.79998779297</ele>
        <time>2021-09-01T06:36:31Z</time>
      </trkpt>
      <trkpt lat="44.50549" lon="5.88964">
        <ele>985.40002441406</ele>
        <time>2021-09-01T06:36:36Z</time>
      </trkpt>
      <trkpt lat="44.50547" lon="5.88971">
        <ele>985.79998779297</ele>
        <time>2021-09-01T06:36:40Z</time>
      </trkpt>
      <trkpt lat="44.50546" lon="5.88975">
        <ele>986.40002441406</ele>
        <time>2021-09-01T06:36:43Z</time>
      </trkpt>
      <trkpt lat="44.50546" lon="5.88977">
        <ele>986.59997558594</ele>
        <time>2021-09-01T06:36:44Z</time>
      </trkpt>
      <trkpt lat="44.50545" lon="5.88982">
        <ele>987</ele>
        <time>2021-09-01T06:36:47Z</time>
      </trkpt>
      <trkpt lat="44.50546" lon="5.88989">
        <ele>987.59997558594</ele>
        <time>2021-09-01T06:36:52Z</time>
      </trkpt>
      <trkpt lat="44.50546" lon="5.88991">
        <ele>987.59997558594</ele>
        <time>2021-09-01T06:36:53Z</time>
      </trkpt>
      <trkpt lat="44.50547" lon="5.88994">
        <ele>988</ele>
        <time>2021-09-01T06:36:55Z</time>
      </trkpt>
      <trkpt lat="44.50549" lon="5.89">
        <ele>988.40002441406</ele>
        <time>2021-09-01T06:36:59Z</time>
      </trkpt>
      <trkpt lat="44.50551" lon="5.89006">
        <ele>989</ele>
        <time>2021-09-01T06:37:03Z</time>
      </trkpt>
      <trkpt lat="44.50553" lon="5.8901">
        <ele>989.59997558594</ele>
        <time>2021-09-01T06:37:06Z</time>
      </trkpt>
      <trkpt lat="44.50554" lon="5.89014">
        <ele>990</ele>
        <time>2021-09-01T06:37:09Z</time>
      </trkpt>
      <trkpt lat="44.50554" lon="5.89021">
        <ele>990.59997558594</ele>
        <time>2021-09-01T06:37:13Z</time>
      </trkpt>
      <trkpt lat="44.50553" lon="5.89024">
        <ele>990.79998779297</ele>
        <time>2021-09-01T06:37:15Z</time>
      </trkpt>
      <trkpt lat="44.50553" lon="5.89027">
        <ele>991.20001220703</ele>
        <time>2021-09-01T06:37:17Z</time>
      </trkpt>
      <trkpt lat="44.50551" lon="5.89035">
        <ele>991.59997558594</ele>
        <time>2021-09-01T06:37:22Z</time>
      </trkpt>
      <trkpt lat="44.50551" lon="5.89042">
        <ele>992.20001220703</ele>
        <time>2021-09-01T06:37:26Z</time>
      </trkpt>
      <trkpt lat="44.5055" lon="5.89048">
        <ele>992.79998779297</ele>
        <time>2021-09-01T06:37:30Z</time>
      </trkpt>
      <trkpt lat="44.50549" lon="5.89053">
        <ele>993.20001220703</ele>
        <time>2021-09-01T06:37:33Z</time>
      </trkpt>
      <trkpt lat="44.50548" lon="5.8906">
        <ele>993.79998779297</ele>
        <time>2021-09-01T06:37:37Z</time>
      </trkpt>
      <trkpt lat="44.50547" lon="5.89069">
        <ele>994.40002441406</ele>
        <time>2021-09-01T06:37:42Z</time>
      </trkpt>
      <trkpt lat="44.50547" lon="5.89073">
        <ele>994.59997558594</ele>
        <time>2021-09-01T06:37:44Z</time>
      </trkpt>
      <trkpt lat="44.50546" lon="5.89079">
        <ele>995.20001220703</ele>
        <time>2021-09-01T06:37:48Z</time>
      </trkpt>
      <trkpt lat="44.50546" lon="5.89082">
        <ele>995.59997558594</ele>
        <time>2021-09-01T06:37:50Z</time>
      </trkpt>
      <trkpt lat="44.50546" lon="5.89084">
        <ele>995.59997558594</ele>
        <time>2021-09-01T06:37:51Z</time>
      </trkpt>
      <trkpt lat="44.50545" lon="5.89094">
        <ele>996.59997558594</ele>
        <time>2021-09-01T06:37:57Z</time>
      </trkpt>
      <trkpt lat="44.50545" lon="5.89097">
        <ele>996.79998779297</ele>
        <time>2021-09-01T06:37:59Z</time>
      </trkpt>
      <trkpt lat="44.50545" lon="5.89102">
        <ele>997.20001220703</ele>
        <time>2021-09-01T06:38:02Z</time>
      </trkpt>
      <trkpt lat="44.50544" lon="5.89108">
        <ele>997.59997558594</ele>
        <time>2021-09-01T06:38:05Z</time>
      </trkpt>
      <trkpt lat="44.50544" lon="5.8912">
        <ele>998.59997558594</ele>
        <time>2021-09-01T06:38:12Z</time>
      </trkpt>
      <trkpt lat="44.50544" lon="5.89121">
        <ele>998.59997558594</ele>
        <time>2021-09-01T06:38:13Z</time>
      </trkpt>
      <trkpt lat="44.50544" lon="5.8913">
        <ele>999.40002441406</ele>
        <time>2021-09-01T06:38:18Z</time>
      </trkpt>
      <trkpt lat="44.50544" lon="5.89132">
        <ele>999.40002441406</ele>
        <time>2021-09-01T06:38:19Z</time>
      </trkpt>
      <trkpt lat="44.50544" lon="5.89133">
        <ele>999.59997558594</ele>
        <time>2021-09-01T06:38:20Z</time>
      </trkpt>
      <trkpt lat="44.50544" lon="5.89135">
        <ele>999.79998779297</ele>
        <time>2021-09-01T06:38:21Z</time>
      </trkpt>
      <trkpt lat="44.50545" lon="5.89141">
        <ele>1000.200012207</ele>
        <time>2021-09-01T06:38:25Z</time>
      </trkpt>
      <trkpt lat="44.50546" lon="5.89147">
        <ele>1000.799987793</ele>
        <time>2021-09-01T06:38:29Z</time>
      </trkpt>
      <trkpt lat="44.50548" lon="5.89154">
        <ele>1001.4000244141</ele>
        <time>2021-09-01T06:38:33Z</time>
      </trkpt>
      <trkpt lat="44.50549" lon="5.8916">
        <ele>1001.799987793</ele>
        <time>2021-09-01T06:38:37Z</time>
      </trkpt>
      <trkpt lat="44.50551" lon="5.89168">
        <ele>1002.4000244141</ele>
        <time>2021-09-01T06:38:41Z</time>
      </trkpt>
      <trkpt lat="44.50554" lon="5.89174">
        <ele>1003</ele>
        <time>2021-09-01T06:38:45Z</time>
      </trkpt>
      <trkpt lat="44.50555" lon="5.89178">
        <ele>1003.200012207</ele>
        <time>2021-09-01T06:38:48Z</time>
      </trkpt>
      <trkpt lat="44.50556" lon="5.8918">
        <ele>1003.4000244141</ele>
        <time>2021-09-01T06:38:49Z</time>
      </trkpt>
      <trkpt lat="44.50559" lon="5.89187">
        <ele>1004</ele>
        <time>2021-09-01T06:38:54Z</time>
      </trkpt>
      <trkpt lat="44.50559" lon="5.89189">
        <ele>1004</ele>
        <time>2021-09-01T06:38:55Z</time>
      </trkpt>
      <trkpt lat="44.50561" lon="5.89194">
        <ele>1004.4000244141</ele>
        <time>2021-09-01T06:38:59Z</time>
      </trkpt>
      <trkpt lat="44.50564" lon="5.89197">
        <ele>1005</ele>
        <time>2021-09-01T06:39:02Z</time>
      </trkpt>
      <trkpt lat="44.50564" lon="5.89199">
        <ele>1005</ele>
        <time>2021-09-01T06:39:03Z</time>
      </trkpt>
      <trkpt lat="44.50564" lon="5.89206">
        <ele>1005.799987793</ele>
        <time>2021-09-01T06:39:07Z</time>
      </trkpt>
      <trkpt lat="44.50563" lon="5.89209">
        <ele>1006</ele>
        <time>2021-09-01T06:39:09Z</time>
      </trkpt>
      <trkpt lat="44.50562" lon="5.8921">
        <ele>1006.200012207</ele>
        <time>2021-09-01T06:39:10Z</time>
      </trkpt>
      <trkpt lat="44.50556" lon="5.89212">
        <ele>1006.5999755859</ele>
        <time>2021-09-01T06:39:15Z</time>
      </trkpt>
      <trkpt lat="44.50554" lon="5.89212">
        <ele>1006.5999755859</ele>
        <time>2021-09-01T06:39:16Z</time>
      </trkpt>
      <trkpt lat="44.50549" lon="5.89203">
        <ele>1007</ele>
        <time>2021-09-01T06:39:22Z</time>
      </trkpt>
      <trkpt lat="44.50549" lon="5.89199">
        <ele>1007.200012207</ele>
        <time>2021-09-01T06:39:24Z</time>
      </trkpt>
      <trkpt lat="44.50547" lon="5.8919">
        <ele>1007.5999755859</ele>
        <time>2021-09-01T06:39:29Z</time>
      </trkpt>
      <trkpt lat="44.50546" lon="5.89185">
        <ele>1007.799987793</ele>
        <time>2021-09-01T06:40:31Z</time>
      </trkpt>
      <trkpt lat="44.50545" lon="5.89183">
        <ele>1007.799987793</ele>
        <time>2021-09-01T06:40:32Z</time>
      </trkpt>
      <trkpt lat="44.50539" lon="5.89173">
        <ele>1008.200012207</ele>
        <time>2021-09-01T06:40:39Z</time>
      </trkpt>
      <trkpt lat="44.50531" lon="5.89162">
        <ele>1009.4000244141</ele>
        <time>2021-09-01T06:40:47Z</time>
      </trkpt>
      <trkpt lat="44.50525" lon="5.89153">
        <ele>1010.4000244141</ele>
        <time>2021-09-01T06:40:54Z</time>
      </trkpt>
      <trkpt lat="44.50519" lon="5.89144">
        <ele>1011.4000244141</ele>
        <time>2021-09-01T06:41:01Z</time>
      </trkpt>
      <trkpt lat="44.50514" lon="5.89135">
        <ele>1012.4000244141</ele>
        <time>2021-09-01T06:41:07Z</time>
      </trkpt>
      <trkpt lat="44.50513" lon="5.89133">
        <ele>1012.5999755859</ele>
        <time>2021-09-01T06:41:08Z</time>
      </trkpt>
      <trkpt lat="44.50509" lon="5.89125">
        <ele>1013.4000244141</ele>
        <time>2021-09-01T06:41:14Z</time>
      </trkpt>
      <trkpt lat="44.50507" lon="5.89121">
        <ele>1013.799987793</ele>
        <time>2021-09-01T06:41:17Z</time>
      </trkpt>
      <trkpt lat="44.50503" lon="5.89113">
        <ele>1014.5999755859</ele>
        <time>2021-09-01T06:41:22Z</time>
      </trkpt>
      <trkpt lat="44.50502" lon="5.8911">
        <ele>1014.799987793</ele>
        <time>2021-09-01T06:41:24Z</time>
      </trkpt>
      <trkpt lat="44.505" lon="5.89102">
        <ele>1015.5999755859</ele>
        <time>2021-09-01T06:41:29Z</time>
      </trkpt>
      <trkpt lat="44.50498" lon="5.891">
        <ele>1015.799987793</ele>
        <time>2021-09-01T06:41:31Z</time>
      </trkpt>
      <trkpt lat="44.50495" lon="5.89089">
        <ele>1016.5999755859</ele>
        <time>2021-09-01T06:41:38Z</time>
      </trkpt>
      <trkpt lat="44.50494" lon="5.89087">
        <ele>1016.799987793</ele>
        <time>2021-09-01T06:41:39Z</time>
      </trkpt>
      <trkpt lat="44.50492" lon="5.89081">
        <ele>1017.4000244141</ele>
        <time>2021-09-01T06:41:43Z</time>
      </trkpt>
      <trkpt lat="44.5049" lon="5.89077">
        <ele>1017.5999755859</ele>
        <time>2021-09-01T06:41:45Z</time>
      </trkpt>
      <trkpt lat="44.5049" lon="5.89075">
        <ele>1017.5999755859</ele>
        <time>2021-09-01T06:41:46Z</time>
      </trkpt>
      <trkpt lat="44.50487" lon="5.89068">
        <ele>1018.200012207</ele>
        <time>2021-09-01T06:41:51Z</time>
      </trkpt>
      <trkpt lat="44.50485" lon="5.89065">
        <ele>1018.5999755859</ele>
        <time>2021-09-01T06:41:53Z</time>
      </trkpt>
      <trkpt lat="44.50482" lon="5.89059">
        <ele>1019.200012207</ele>
        <time>2021-09-01T06:41:57Z</time>
      </trkpt>
      <trkpt lat="44.5048" lon="5.89054">
        <ele>1019.799987793</ele>
        <time>2021-09-01T06:42:01Z</time>
      </trkpt>
      <trkpt lat="44.50477" lon="5.8905">
        <ele>1020.200012207</ele>
        <time>2021-09-01T06:42:05Z</time>
      </trkpt>
      <trkpt lat="44.50473" lon="5.89046">
        <ele>1020.799987793</ele>
        <time>2021-09-01T06:42:09Z</time>
      </trkpt>
      <trkpt lat="44.5047" lon="5.89043">
        <ele>1021.4000244141</ele>
        <time>2021-09-01T06:42:12Z</time>
      </trkpt>
      <trkpt lat="44.50466" lon="5.8904">
        <ele>1021.799987793</ele>
        <time>2021-09-01T06:42:16Z</time>
      </trkpt>
      <trkpt lat="44.50461" lon="5.89038">
        <ele>1022.5999755859</ele>
        <time>2021-09-01T06:42:20Z</time>
      </trkpt>
      <trkpt lat="44.50458" lon="5.89036">
        <ele>1023</ele>
        <time>2021-09-01T06:42:23Z</time>
      </trkpt>
      <trkpt lat="44.50451" lon="5.89035">
        <ele>1023.5999755859</ele>
        <time>2021-09-01T06:42:28Z</time>
      </trkpt>
      <trkpt lat="44.50447" lon="5.89036">
        <ele>1024.1999511719</ele>
        <time>2021-09-01T06:42:31Z</time>
      </trkpt>
      <trkpt lat="44.5044" lon="5.89038">
        <ele>1024.8000488281</ele>
        <time>2021-09-01T06:42:37Z</time>
      </trkpt>
      <trkpt lat="44.50437" lon="5.89039">
        <ele>1025.1999511719</ele>
        <time>2021-09-01T06:42:39Z</time>
      </trkpt>
      <trkpt lat="44.50433" lon="5.8904">
        <ele>1025.8000488281</ele>
        <time>2021-09-01T06:42:43Z</time>
      </trkpt>
      <trkpt lat="44.50428" lon="5.8904">
        <ele>1026.1999511719</ele>
        <time>2021-09-01T06:42:47Z</time>
      </trkpt>
      <trkpt lat="44.50424" lon="5.89038">
        <ele>1026.5999755859</ele>
        <time>2021-09-01T06:42:50Z</time>
      </trkpt>
      <trkpt lat="44.50419" lon="5.89034">
        <ele>1027.1999511719</ele>
        <time>2021-09-01T06:42:55Z</time>
      </trkpt>
      <trkpt lat="44.50415" lon="5.89031">
        <ele>1027.5999755859</ele>
        <time>2021-09-01T06:42:58Z</time>
      </trkpt>
      <trkpt lat="44.50409" lon="5.89024">
        <ele>1028.4000244141</ele>
        <time>2021-09-01T06:43:04Z</time>
      </trkpt>
      <trkpt lat="44.50409" lon="5.89023">
        <ele>1028.4000244141</ele>
        <time>2021-09-01T06:43:05Z</time>
      </trkpt>
      <trkpt lat="44.50405" lon="5.89015">
        <ele>1029.4000244141</ele>
        <time>2021-09-01T06:43:11Z</time>
      </trkpt>
      <trkpt lat="44.50404" lon="5.89012">
        <ele>1029.8000488281</ele>
        <time>2021-09-01T06:43:13Z</time>
      </trkpt>
      <trkpt lat="44.50402" lon="5.89006">
        <ele>1030.1999511719</ele>
        <time>2021-09-01T06:43:17Z</time>
      </trkpt>
      <trkpt lat="44.50402" lon="5.89003">
        <ele>1030.5999755859</ele>
        <time>2021-09-01T06:43:19Z</time>
      </trkpt>
      <trkpt lat="44.50399" lon="5.88999">
        <ele>1031</ele>
        <time>2021-09-01T06:43:22Z</time>
      </trkpt>
      <trkpt lat="44.50394" lon="5.88993">
        <ele>1031.5999755859</ele>
        <time>2021-09-01T06:43:27Z</time>
      </trkpt>
      <trkpt lat="44.50394" lon="5.88991">
        <ele>1031.5999755859</ele>
        <time>2021-09-01T06:43:28Z</time>
      </trkpt>
      <trkpt lat="44.50392" lon="5.88989">
        <ele>1032</ele>
        <time>2021-09-01T06:43:30Z</time>
      </trkpt>
      <trkpt lat="44.50388" lon="5.88987">
        <ele>1032.4000244141</ele>
        <time>2021-09-01T06:43:33Z</time>
      </trkpt>
      <trkpt lat="44.50385" lon="5.88984">
        <ele>1032.8000488281</ele>
        <time>2021-09-01T06:43:36Z</time>
      </trkpt>
      <trkpt lat="44.50379" lon="5.88983">
        <ele>1033.4000244141</ele>
        <time>2021-09-01T06:43:41Z</time>
      </trkpt>
      <trkpt lat="44.50375" lon="5.88984">
        <ele>1034</ele>
        <time>2021-09-01T06:43:44Z</time>
      </trkpt>
      <trkpt lat="44.50372" lon="5.88987">
        <ele>1034.4000244141</ele>
        <time>2021-09-01T06:43:47Z</time>
      </trkpt>
      <trkpt lat="44.50369" lon="5.88996">
        <ele>1035</ele>
        <time>2021-09-01T06:43:52Z</time>
      </trkpt>
      <trkpt lat="44.50369" lon="5.88999">
        <ele>1035.1999511719</ele>
        <time>2021-09-01T06:43:54Z</time>
      </trkpt>
      <trkpt lat="44.50368" lon="5.89001">
        <ele>1035.4000244141</ele>
        <time>2021-09-01T06:43:55Z</time>
      </trkpt>
      <trkpt lat="44.50366" lon="5.89008">
        <ele>1036</ele>
        <time>2021-09-01T06:44:00Z</time>
      </trkpt>
      <trkpt lat="44.50358" lon="5.8902">
        <ele>1037</ele>
        <time>2021-09-01T06:44:09Z</time>
      </trkpt>
      <trkpt lat="44.50358" lon="5.89022">
        <ele>1037.1999511719</ele>
        <time>2021-09-01T06:44:10Z</time>
      </trkpt>
      <trkpt lat="44.50352" lon="5.89031">
        <ele>1038.1999511719</ele>
        <time>2021-09-01T06:44:17Z</time>
      </trkpt>
      <trkpt lat="44.50352" lon="5.89033">
        <ele>1038.5999755859</ele>
        <time>2021-09-01T06:44:18Z</time>
      </trkpt>
      <trkpt lat="44.50348" lon="5.89039">
        <ele>1039.1999511719</ele>
        <time>2021-09-01T06:44:23Z</time>
      </trkpt>
      <trkpt lat="44.50346" lon="5.89044">
        <ele>1039.5999755859</ele>
        <time>2021-09-01T06:44:26Z</time>
      </trkpt>
      <trkpt lat="44.50344" lon="5.89055">
        <ele>1040.1999511719</ele>
        <time>2021-09-01T06:44:32Z</time>
      </trkpt>
      <trkpt lat="44.50344" lon="5.89058">
        <ele>1040.5999755859</ele>
        <time>2021-09-01T06:44:34Z</time>
      </trkpt>
      <trkpt lat="44.50341" lon="5.89069">
        <ele>1041.4000244141</ele>
        <time>2021-09-01T06:44:40Z</time>
      </trkpt>
      <trkpt lat="44.50341" lon="5.89071">
        <ele>1041.4000244141</ele>
        <time>2021-09-01T06:44:41Z</time>
      </trkpt>
      <trkpt lat="44.50339" lon="5.89078">
        <ele>1042.1999511719</ele>
        <time>2021-09-01T06:44:45Z</time>
      </trkpt>
      <trkpt lat="44.50337" lon="5.89081">
        <ele>1042.4000244141</ele>
        <time>2021-09-01T06:44:47Z</time>
      </trkpt>
      <trkpt lat="44.50336" lon="5.89082">
        <ele>1042.5999755859</ele>
        <time>2021-09-01T06:44:48Z</time>
      </trkpt>
      <trkpt lat="44.50332" lon="5.89091">
        <ele>1043.4000244141</ele>
        <time>2021-09-01T06:44:53Z</time>
      </trkpt>
      <trkpt lat="44.50332" lon="5.89092">
        <ele>1043.5999755859</ele>
        <time>2021-09-01T06:44:54Z</time>
      </trkpt>
      <trkpt lat="44.5033" lon="5.89095">
        <ele>1043.8000488281</ele>
        <time>2021-09-01T06:44:56Z</time>
      </trkpt>
      <trkpt lat="44.50329" lon="5.89096">
        <ele>1044</ele>
        <time>2021-09-01T06:44:57Z</time>
      </trkpt>
      <trkpt lat="44.50325" lon="5.89101">
        <ele>1044.5999755859</ele>
        <time>2021-09-01T06:45:01Z</time>
      </trkpt>
      <trkpt lat="44.50324" lon="5.89102">
        <ele>1044.8000488281</ele>
        <time>2021-09-01T06:45:02Z</time>
      </trkpt>
      <trkpt lat="44.50319" lon="5.89111">
        <ele>1045.5999755859</ele>
        <time>2021-09-01T06:45:08Z</time>
      </trkpt>
      <trkpt lat="44.50319" lon="5.89114">
        <ele>1045.8000488281</ele>
        <time>2021-09-01T06:45:10Z</time>
      </trkpt>
      <trkpt lat="44.5032" lon="5.89118">
        <ele>1046.5999755859</ele>
        <time>2021-09-01T06:45:35Z</time>
      </trkpt>
      <trkpt lat="44.50322" lon="5.89121">
        <ele>1046.5999755859</ele>
        <time>2021-09-01T06:45:37Z</time>
      </trkpt>
      <trkpt lat="44.50324" lon="5.89122">
        <ele>1046.5999755859</ele>
        <time>2021-09-01T06:45:38Z</time>
      </trkpt>
      <trkpt lat="44.50325" lon="5.89122">
        <ele>1046.8000488281</ele>
        <time>2021-09-01T06:45:39Z</time>
      </trkpt>
      <trkpt lat="44.50327" lon="5.89122">
        <ele>1046.8000488281</ele>
        <time>2021-09-01T06:45:40Z</time>
      </trkpt>
      <trkpt lat="44.50334" lon="5.89118">
        <ele>1047</ele>
        <time>2021-09-01T06:45:45Z</time>
      </trkpt>
      <trkpt lat="44.50338" lon="5.89109">
        <ele>1047.5999755859</ele>
        <time>2021-09-01T06:45:50Z</time>
      </trkpt>
      <trkpt lat="44.50339" lon="5.89108">
        <ele>1047.5999755859</ele>
        <time>2021-09-01T06:45:51Z</time>
      </trkpt>
      <trkpt lat="44.50341" lon="5.89106">
        <ele>1047.8000488281</ele>
        <time>2021-09-01T06:45:52Z</time>
      </trkpt>
      <trkpt lat="44.50348" lon="5.89104">
        <ele>1048.4000244141</ele>
        <time>2021-09-01T06:45:57Z</time>
      </trkpt>
      <trkpt lat="44.50351" lon="5.89105">
        <ele>1048.5999755859</ele>
        <time>2021-09-01T06:45:59Z</time>
      </trkpt>
      <trkpt lat="44.50352" lon="5.89106">
        <ele>1048.8000488281</ele>
        <time>2021-09-01T06:46:00Z</time>
      </trkpt>
      <trkpt lat="44.5036" lon="5.89115">
        <ele>1049.8000488281</ele>
        <time>2021-09-01T06:46:07Z</time>
      </trkpt>
      <trkpt lat="44.5036" lon="5.8913">
        <ele>1050.8000488281</ele>
        <time>2021-09-01T06:46:15Z</time>
      </trkpt>
      <trkpt lat="44.50359" lon="5.89132">
        <ele>1050.8000488281</ele>
        <time>2021-09-01T06:46:16Z</time>
      </trkpt>
      <trkpt lat="44.50359" lon="5.89148">
        <ele>1052</ele>
        <time>2021-09-01T06:46:24Z</time>
      </trkpt>
      <trkpt lat="44.50364" lon="5.89159">
        <ele>1053</ele>
        <time>2021-09-01T06:46:30Z</time>
      </trkpt>
      <trkpt lat="44.50365" lon="5.8916">
        <ele>1053.1999511719</ele>
        <time>2021-09-01T06:46:31Z</time>
      </trkpt>
      <trkpt lat="44.5037" lon="5.89169">
        <ele>1054.1999511719</ele>
        <time>2021-09-01T06:46:37Z</time>
      </trkpt>
      <trkpt lat="44.50378" lon="5.89177">
        <ele>1055.4000244141</ele>
        <time>2021-09-01T06:46:44Z</time>
      </trkpt>
      <trkpt lat="44.5038" lon="5.8918">
        <ele>1055.5999755859</ele>
        <time>2021-09-01T06:46:46Z</time>
      </trkpt>
      <trkpt lat="44.50389" lon="5.89186">
        <ele>1056.4000244141</ele>
        <time>2021-09-01T06:46:53Z</time>
      </trkpt>
      <trkpt lat="44.50398" lon="5.89194">
        <ele>1057.4000244141</ele>
        <time>2021-09-01T06:47:01Z</time>
      </trkpt>
      <trkpt lat="44.50401" lon="5.89195">
        <ele>1057.8000488281</ele>
        <time>2021-09-01T06:47:03Z</time>
      </trkpt>
      <trkpt lat="44.50408" lon="5.89201">
        <ele>1058.5999755859</ele>
        <time>2021-09-01T06:47:09Z</time>
      </trkpt>
      <trkpt lat="44.50411" lon="5.89203">
        <ele>1059</ele>
        <time>2021-09-01T06:47:12Z</time>
      </trkpt>
      <trkpt lat="44.50415" lon="5.89208">
        <ele>1059.5999755859</ele>
        <time>2021-09-01T06:47:16Z</time>
      </trkpt>
      <trkpt lat="44.50417" lon="5.89211">
        <ele>1059.8000488281</ele>
        <time>2021-09-01T06:47:18Z</time>
      </trkpt>
      <trkpt lat="44.5042" lon="5.89216">
        <ele>1060.1999511719</ele>
        <time>2021-09-01T06:47:21Z</time>
      </trkpt>
      <trkpt lat="44.50423" lon="5.89222">
        <ele>1060.5999755859</ele>
        <time>2021-09-01T06:47:25Z</time>
      </trkpt>
      <trkpt lat="44.50427" lon="5.89236">
        <ele>1061.8000488281</ele>
        <time>2021-09-01T06:47:33Z</time>
      </trkpt>
      <trkpt lat="44.50428" lon="5.89237">
        <ele>1062</ele>
        <time>2021-09-01T06:47:34Z</time>
      </trkpt>
      <trkpt lat="44.50432" lon="5.89248">
        <ele>1062.8000488281</ele>
        <time>2021-09-01T06:47:41Z</time>
      </trkpt>
      <trkpt lat="44.50432" lon="5.89249">
        <ele>1063</ele>
        <time>2021-09-01T06:47:42Z</time>
      </trkpt>
      <trkpt lat="44.50436" lon="5.89255">
        <ele>1063.5999755859</ele>
        <time>2021-09-01T06:49:54Z</time>
      </trkpt>
      <trkpt lat="44.50437" lon="5.89259">
        <ele>1063.8000488281</ele>
        <time>2021-09-01T06:49:56Z</time>
      </trkpt>
      <trkpt lat="44.50438" lon="5.89261">
        <ele>1063.8000488281</ele>
        <time>2021-09-01T06:49:57Z</time>
      </trkpt>
      <trkpt lat="44.50443" lon="5.89277">
        <ele>1065</ele>
        <time>2021-09-01T06:50:05Z</time>
      </trkpt>
      <trkpt lat="44.50448" lon="5.89289">
        <ele>1066</ele>
        <time>2021-09-01T06:50:12Z</time>
      </trkpt>
      <trkpt lat="44.50448" lon="5.89291">
        <ele>1066.1999511719</ele>
        <time>2021-09-01T06:50:13Z</time>
      </trkpt>
      <trkpt lat="44.50451" lon="5.893">
        <ele>1067.1999511719</ele>
        <time>2021-09-01T06:50:18Z</time>
      </trkpt>
      <trkpt lat="44.50454" lon="5.89305">
        <ele>1067.4000244141</ele>
        <time>2021-09-01T06:50:21Z</time>
      </trkpt>
      <trkpt lat="44.50455" lon="5.89314">
        <ele>1068.1999511719</ele>
        <time>2021-09-01T06:50:26Z</time>
      </trkpt>
      <trkpt lat="44.50456" lon="5.89315">
        <ele>1068.4000244141</ele>
        <time>2021-09-01T06:50:27Z</time>
      </trkpt>
      <trkpt lat="44.50459" lon="5.89326">
        <ele>1069.1999511719</ele>
        <time>2021-09-01T06:50:34Z</time>
      </trkpt>
      <trkpt lat="44.50461" lon="5.8933">
        <ele>1069.5999755859</ele>
        <time>2021-09-01T06:50:36Z</time>
      </trkpt>
      <trkpt lat="44.50461" lon="5.89331">
        <ele>1069.5999755859</ele>
        <time>2021-09-01T06:50:37Z</time>
      </trkpt>
      <trkpt lat="44.50461" lon="5.89338">
        <ele>1070.1999511719</ele>
        <time>2021-09-01T06:50:41Z</time>
      </trkpt>
      <trkpt lat="44.50462" lon="5.89339">
        <ele>1070.4000244141</ele>
        <time>2021-09-01T06:50:42Z</time>
      </trkpt>
      <trkpt lat="44.50464" lon="5.89353">
        <ele>1071.4000244141</ele>
        <time>2021-09-01T06:50:50Z</time>
      </trkpt>
      <trkpt lat="44.50464" lon="5.89357">
        <ele>1071.8000488281</ele>
        <time>2021-09-01T06:50:52Z</time>
      </trkpt>
      <trkpt lat="44.50464" lon="5.89368">
        <ele>1072.5999755859</ele>
        <time>2021-09-01T06:50:58Z</time>
      </trkpt>
      <trkpt lat="44.50464" lon="5.89375">
        <ele>1073</ele>
        <time>2021-09-01T06:51:02Z</time>
      </trkpt>
      <trkpt lat="44.50463" lon="5.89382">
        <ele>1073.5999755859</ele>
        <time>2021-09-01T06:51:06Z</time>
      </trkpt>
      <trkpt lat="44.50464" lon="5.89392">
        <ele>1074.1999511719</ele>
        <time>2021-09-01T06:51:11Z</time>
      </trkpt>
      <trkpt lat="44.50464" lon="5.89397">
        <ele>1074.5999755859</ele>
        <time>2021-09-01T06:51:14Z</time>
      </trkpt>
      <trkpt lat="44.50465" lon="5.89403">
        <ele>1075.1999511719</ele>
        <time>2021-09-01T06:51:17Z</time>
      </trkpt>
      <trkpt lat="44.50467" lon="5.89411">
        <ele>1075.8000488281</ele>
        <time>2021-09-01T06:51:22Z</time>
      </trkpt>
      <trkpt lat="44.50469" lon="5.89418">
        <ele>1076.1999511719</ele>
        <time>2021-09-01T06:51:26Z</time>
      </trkpt>
      <trkpt lat="44.50471" lon="5.89422">
        <ele>1076.8000488281</ele>
        <time>2021-09-01T06:51:29Z</time>
      </trkpt>
      <trkpt lat="44.50477" lon="5.89429">
        <ele>1077.5999755859</ele>
        <time>2021-09-01T06:51:34Z</time>
      </trkpt>
      <trkpt lat="44.50479" lon="5.89431">
        <ele>1077.8000488281</ele>
        <time>2021-09-01T06:51:36Z</time>
      </trkpt>
      <trkpt lat="44.50487" lon="5.89436">
        <ele>1078.5999755859</ele>
        <time>2021-09-01T06:51:43Z</time>
      </trkpt>
      <trkpt lat="44.50489" lon="5.89438">
        <ele>1078.8000488281</ele>
        <time>2021-09-01T06:51:45Z</time>
      </trkpt>
      <trkpt lat="44.50495" lon="5.89442">
        <ele>1079.4000244141</ele>
        <time>2021-09-01T06:51:50Z</time>
      </trkpt>
      <trkpt lat="44.505" lon="5.89447">
        <ele>1080.1999511719</ele>
        <time>2021-09-01T06:51:54Z</time>
      </trkpt>
      <trkpt lat="44.50504" lon="5.8945">
        <ele>1080.8000488281</ele>
        <time>2021-09-01T06:51:58Z</time>
      </trkpt>
      <trkpt lat="44.50508" lon="5.89453">
        <ele>1081.1999511719</ele>
        <time>2021-09-01T06:52:01Z</time>
      </trkpt>
      <trkpt lat="44.50513" lon="5.89457">
        <ele>1081.8000488281</ele>
        <time>2021-09-01T06:52:05Z</time>
      </trkpt>
      <trkpt lat="44.50519" lon="5.89461">
        <ele>1082.4000244141</ele>
        <time>2021-09-01T06:52:09Z</time>
      </trkpt>
      <trkpt lat="44.50521" lon="5.89463">
        <ele>1082.5999755859</ele>
        <time>2021-09-01T06:52:11Z</time>
      </trkpt>
      <trkpt lat="44.50528" lon="5.89471">
        <ele>1083.4000244141</ele>
        <time>2021-09-01T06:52:18Z</time>
      </trkpt>
      <trkpt lat="44.5053" lon="5.89472">
        <ele>1083.5999755859</ele>
        <time>2021-09-01T06:52:19Z</time>
      </trkpt>
      <trkpt lat="44.50536" lon="5.89479">
        <ele>1084.4000244141</ele>
        <time>2021-09-01T06:52:25Z</time>
      </trkpt>
      <trkpt lat="44.50538" lon="5.8948">
        <ele>1084.5999755859</ele>
        <time>2021-09-01T06:52:26Z</time>
      </trkpt>
      <trkpt lat="44.50543" lon="5.89488">
        <ele>1085.5999755859</ele>
        <time>2021-09-01T06:52:32Z</time>
      </trkpt>
      <trkpt lat="44.50545" lon="5.89491">
        <ele>1086</ele>
        <time>2021-09-01T06:52:34Z</time>
      </trkpt>
      <trkpt lat="44.50548" lon="5.895">
        <ele>1086.5999755859</ele>
        <time>2021-09-01T06:52:39Z</time>
      </trkpt>
      <trkpt lat="44.50548" lon="5.89502">
        <ele>1086.8000488281</ele>
        <time>2021-09-01T06:52:40Z</time>
      </trkpt>
      <trkpt lat="44.5055" lon="5.89511">
        <ele>1087.5999755859</ele>
        <time>2021-09-01T06:52:45Z</time>
      </trkpt>
      <trkpt lat="44.50552" lon="5.89519">
        <ele>1088.1999511719</ele>
        <time>2021-09-01T06:52:49Z</time>
      </trkpt>
      <trkpt lat="44.50553" lon="5.89525">
        <ele>1088.8000488281</ele>
        <time>2021-09-01T06:52:53Z</time>
      </trkpt>
      <trkpt lat="44.50555" lon="5.8953">
        <ele>1089.1999511719</ele>
        <time>2021-09-01T06:52:56Z</time>
      </trkpt>
      <trkpt lat="44.50559" lon="5.89536">
        <ele>1089.8000488281</ele>
        <time>2021-09-01T06:53:01Z</time>
      </trkpt>
      <trkpt lat="44.50561" lon="5.89537">
        <ele>1090.1999511719</ele>
        <time>2021-09-01T06:53:03Z</time>
      </trkpt>
      <trkpt lat="44.50566" lon="5.8954">
        <ele>1090.8000488281</ele>
        <time>2021-09-01T06:53:07Z</time>
      </trkpt>
      <trkpt lat="44.50572" lon="5.89542">
        <ele>1091.4000244141</ele>
        <time>2021-09-01T06:53:12Z</time>
      </trkpt>
      <trkpt lat="44.50576" lon="5.89542">
        <ele>1091.8000488281</ele>
        <time>2021-09-01T06:53:15Z</time>
      </trkpt>
      <trkpt lat="44.50585" lon="5.89545">
        <ele>1092.5999755859</ele>
        <time>2021-09-01T06:53:21Z</time>
      </trkpt>
      <trkpt lat="44.50587" lon="5.89548">
        <ele>1093</ele>
        <time>2021-09-01T06:53:23Z</time>
      </trkpt>
      <trkpt lat="44.50588" lon="5.89552">
        <ele>1093.1999511719</ele>
        <time>2021-09-01T06:53:25Z</time>
      </trkpt>
      <trkpt lat="44.50589" lon="5.89557">
        <ele>1093.5999755859</ele>
        <time>2021-09-01T06:53:28Z</time>
      </trkpt>
      <trkpt lat="44.50586" lon="5.89561">
        <ele>1094.1999511719</ele>
        <time>2021-09-01T06:53:31Z</time>
      </trkpt>
      <trkpt lat="44.50582" lon="5.89565">
        <ele>1094.4000244141</ele>
        <time>2021-09-01T06:53:34Z</time>
      </trkpt>
      <trkpt lat="44.50571" lon="5.89563">
        <ele>1095.1999511719</ele>
        <time>2021-09-01T06:53:41Z</time>
      </trkpt>
      <trkpt lat="44.5057" lon="5.89563">
        <ele>1095.1999511719</ele>
        <time>2021-09-01T06:53:42Z</time>
      </trkpt>
      <trkpt lat="44.50561" lon="5.89563">
        <ele>1095.8000488281</ele>
        <time>2021-09-01T06:53:48Z</time>
      </trkpt>
      <trkpt lat="44.50557" lon="5.89563">
        <ele>1096.4000244141</ele>
        <time>2021-09-01T06:53:52Z</time>
      </trkpt>
      <trkpt lat="44.50554" lon="5.89563">
        <ele>1096.4000244141</ele>
        <time>2021-09-01T06:53:54Z</time>
      </trkpt>
      <trkpt lat="44.5055" lon="5.89564">
        <ele>1096.8000488281</ele>
        <time>2021-09-01T06:53:57Z</time>
      </trkpt>
      <trkpt lat="44.50545" lon="5.89563">
        <ele>1097.4000244141</ele>
        <time>2021-09-01T06:54:01Z</time>
      </trkpt>
      <trkpt lat="44.50543" lon="5.89563">
        <ele>1097.4000244141</ele>
        <time>2021-09-01T06:54:02Z</time>
      </trkpt>
      <trkpt lat="44.50535" lon="5.89558">
        <ele>1098.4000244141</ele>
        <time>2021-09-01T06:54:09Z</time>
      </trkpt>
      <trkpt lat="44.50533" lon="5.89558">
        <ele>1098.5999755859</ele>
        <time>2021-09-01T06:54:10Z</time>
      </trkpt>
      <trkpt lat="44.50527" lon="5.89552">
        <ele>1099.4000244141</ele>
        <time>2021-09-01T06:54:16Z</time>
      </trkpt>
      <trkpt lat="44.50527" lon="5.8955">
        <ele>1099.5999755859</ele>
        <time>2021-09-01T06:54:17Z</time>
      </trkpt>
      <trkpt lat="44.5052" lon="5.89544">
        <ele>1100.4000244141</ele>
        <time>2021-09-01T06:54:23Z</time>
      </trkpt>
      <trkpt lat="44.50512" lon="5.8954">
        <ele>1101.5999755859</ele>
        <time>2021-09-01T06:54:30Z</time>
      </trkpt>
      <trkpt lat="44.50508" lon="5.89539">
        <ele>1102</ele>
        <time>2021-09-01T06:54:33Z</time>
      </trkpt>
      <trkpt lat="44.50502" lon="5.8954">
        <ele>1102.5999755859</ele>
        <time>2021-09-01T06:54:37Z</time>
      </trkpt>
      <trkpt lat="44.50498" lon="5.8954">
        <ele>1103</ele>
        <time>2021-09-01T06:54:40Z</time>
      </trkpt>
      <trkpt lat="44.50493" lon="5.89543">
        <ele>1103.5999755859</ele>
        <time>2021-09-01T06:54:44Z</time>
      </trkpt>
      <trkpt lat="44.50489" lon="5.89548">
        <ele>1104</ele>
        <time>2021-09-01T06:54:48Z</time>
      </trkpt>
      <trkpt lat="44.50487" lon="5.89554">
        <ele>1104.5999755859</ele>
        <time>2021-09-01T06:54:52Z</time>
      </trkpt>
      <trkpt lat="44.50484" lon="5.89562">
        <ele>1105.4000244141</ele>
        <time>2021-09-01T06:54:57Z</time>
      </trkpt>
      <trkpt lat="44.50482" lon="5.89568">
        <ele>1105.5999755859</ele>
        <time>2021-09-01T06:55:00Z</time>
      </trkpt>
      <trkpt lat="44.50481" lon="5.89576">
        <ele>1106.4000244141</ele>
        <time>2021-09-01T06:55:05Z</time>
      </trkpt>
      <trkpt lat="44.5048" lon="5.89579">
        <ele>1106.8000488281</ele>
        <time>2021-09-01T06:55:07Z</time>
      </trkpt>
      <trkpt lat="44.50477" lon="5.89591">
        <ele>1107.4000244141</ele>
        <time>2021-09-01T06:55:13Z</time>
      </trkpt>
      <trkpt lat="44.50476" lon="5.89595">
        <ele>1107.8000488281</ele>
        <time>2021-09-01T06:55:15Z</time>
      </trkpt>
      <trkpt lat="44.50476" lon="5.89605">
        <ele>1108.4000244141</ele>
        <time>2021-09-01T06:55:20Z</time>
      </trkpt>
      <trkpt lat="44.50476" lon="5.89609">
        <ele>1108.8000488281</ele>
        <time>2021-09-01T06:55:22Z</time>
      </trkpt>
      <trkpt lat="44.50474" lon="5.89623">
        <ele>1110</ele>
        <time>2021-09-01T06:55:29Z</time>
      </trkpt>
      <trkpt lat="44.50473" lon="5.89636">
        <ele>1110.8000488281</ele>
        <time>2021-09-01T06:55:35Z</time>
      </trkpt>
      <trkpt lat="44.50473" lon="5.89638">
        <ele>1111</ele>
        <time>2021-09-01T06:55:36Z</time>
      </trkpt>
      <trkpt lat="44.5047" lon="5.89651">
        <ele>1111.8000488281</ele>
        <time>2021-09-01T06:55:43Z</time>
      </trkpt>
      <trkpt lat="44.50469" lon="5.89655">
        <ele>1112</ele>
        <time>2021-09-01T06:55:45Z</time>
      </trkpt>
      <trkpt lat="44.50468" lon="5.89664">
        <ele>1112.5999755859</ele>
        <time>2021-09-01T06:55:49Z</time>
      </trkpt>
      <trkpt lat="44.50468" lon="5.89671">
        <ele>1113</ele>
        <time>2021-09-01T06:55:53Z</time>
      </trkpt>
      <trkpt lat="44.50469" lon="5.89678">
        <ele>1113.4000244141</ele>
        <time>2021-09-01T06:55:56Z</time>
      </trkpt>
      <trkpt lat="44.50476" lon="5.89685">
        <ele>1113.8000488281</ele>
        <time>2021-09-01T06:56:01Z</time>
      </trkpt>
      <trkpt lat="44.50477" lon="5.89685">
        <ele>1114</ele>
        <time>2021-09-01T06:56:02Z</time>
      </trkpt>
      <trkpt lat="44.50479" lon="5.89685">
        <ele>1114</ele>
        <time>2021-09-01T06:56:03Z</time>
      </trkpt>
      <trkpt lat="44.50484" lon="5.89683">
        <ele>1114.5999755859</ele>
        <time>2021-09-01T06:56:07Z</time>
      </trkpt>
      <trkpt lat="44.50486" lon="5.8968">
        <ele>1114.8000488281</ele>
        <time>2021-09-01T06:56:09Z</time>
      </trkpt>
      <trkpt lat="44.50488" lon="5.89676">
        <ele>1115</ele>
        <time>2021-09-01T06:56:11Z</time>
      </trkpt>
      <trkpt lat="44.50488" lon="5.89674">
        <ele>1115.1999511719</ele>
        <time>2021-09-01T06:56:12Z</time>
      </trkpt>
      <trkpt lat="44.50489" lon="5.89666">
        <ele>1115.4000244141</ele>
        <time>2021-09-01T06:56:15Z</time>
      </trkpt>
      <trkpt lat="44.50488" lon="5.8965">
        <ele>1116.1999511719</ele>
        <time>2021-09-01T06:56:21Z</time>
      </trkpt>
      <trkpt lat="44.50493" lon="5.89634">
        <ele>1116.4000244141</ele>
        <time>2021-09-01T06:56:26Z</time>
      </trkpt>
      <trkpt lat="44.50503" lon="5.89633">
        <ele>1116.4000244141</ele>
        <time>2021-09-01T06:56:30Z</time>
      </trkpt>
      <trkpt lat="44.50508" lon="5.89638">
        <ele>1116.4000244141</ele>
        <time>2021-09-01T06:56:33Z</time>
      </trkpt>
      <trkpt lat="44.5051" lon="5.89643">
        <ele>1116.5999755859</ele>
        <time>2021-09-01T06:56:35Z</time>
      </trkpt>
      <trkpt lat="44.50514" lon="5.89652">
        <ele>1117.1999511719</ele>
        <time>2021-09-01T06:56:40Z</time>
      </trkpt>
      <trkpt lat="44.50514" lon="5.89654">
        <ele>1117.4000244141</ele>
        <time>2021-09-01T06:56:41Z</time>
      </trkpt>
      <trkpt lat="44.50516" lon="5.89658">
        <ele>1117.8000488281</ele>
        <time>2021-09-01T06:56:43Z</time>
      </trkpt>
      <trkpt lat="44.50518" lon="5.89663">
        <ele>1118.4000244141</ele>
        <time>2021-09-01T06:56:46Z</time>
      </trkpt>
      <trkpt lat="44.50518" lon="5.89665">
        <ele>1118.4000244141</ele>
        <time>2021-09-01T06:56:47Z</time>
      </trkpt>
      <trkpt lat="44.50519" lon="5.89667">
        <ele>1118.5999755859</ele>
        <time>2021-09-01T06:56:48Z</time>
      </trkpt>
      <trkpt lat="44.50522" lon="5.89677">
        <ele>1119.4000244141</ele>
        <time>2021-09-01T06:56:54Z</time>
      </trkpt>
      <trkpt lat="44.50527" lon="5.8969">
        <ele>1120.5999755859</ele>
        <time>2021-09-01T06:57:01Z</time>
      </trkpt>
      <trkpt lat="44.50528" lon="5.89691">
        <ele>1120.8000488281</ele>
        <time>2021-09-01T06:57:02Z</time>
      </trkpt>
      <trkpt lat="44.5053" lon="5.89697">
        <ele>1121.4000244141</ele>
        <time>2021-09-01T06:57:06Z</time>
      </trkpt>
      <trkpt lat="44.5053" lon="5.89698">
        <ele>1121.5999755859</ele>
        <time>2021-09-01T06:57:07Z</time>
      </trkpt>
      <trkpt lat="44.5053" lon="5.897">
        <ele>1121.5999755859</ele>
        <time>2021-09-01T06:57:08Z</time>
      </trkpt>
      <trkpt lat="44.50533" lon="5.89706">
        <ele>1122.4000244141</ele>
        <time>2021-09-01T06:57:12Z</time>
      </trkpt>
      <trkpt lat="44.50534" lon="5.89709">
        <ele>1122.5999755859</ele>
        <time>2021-09-01T06:57:14Z</time>
      </trkpt>
      <trkpt lat="44.50537" lon="5.89716">
        <ele>1123.4000244141</ele>
        <time>2021-09-01T06:57:19Z</time>
      </trkpt>
      <trkpt lat="44.50539" lon="5.89719">
        <ele>1123.5999755859</ele>
        <time>2021-09-01T06:57:21Z</time>
      </trkpt>
      <trkpt lat="44.50545" lon="5.89727">
        <ele>1124.4000244141</ele>
        <time>2021-09-01T06:57:27Z</time>
      </trkpt>
      <trkpt lat="44.50547" lon="5.89731">
        <ele>1124.8000488281</ele>
        <time>2021-09-01T06:57:30Z</time>
      </trkpt>
      <trkpt lat="44.50552" lon="5.89736">
        <ele>1125.5999755859</ele>
        <time>2021-09-01T06:57:35Z</time>
      </trkpt>
      <trkpt lat="44.50553" lon="5.89737">
        <ele>1125.8000488281</ele>
        <time>2021-09-01T06:57:36Z</time>
      </trkpt>
      <trkpt lat="44.50559" lon="5.89743">
        <ele>1126.5999755859</ele>
        <time>2021-09-01T06:57:43Z</time>
      </trkpt>
      <trkpt lat="44.5056" lon="5.89744">
        <ele>1126.5999755859</ele>
        <time>2021-09-01T06:57:44Z</time>
      </trkpt>
      <trkpt lat="44.50562" lon="5.89746">
        <ele>1126.8000488281</ele>
        <time>2021-09-01T06:57:46Z</time>
      </trkpt>
      <trkpt lat="44.50568" lon="5.8975">
        <ele>1127.5999755859</ele>
        <time>2021-09-01T06:57:51Z</time>
      </trkpt>
      <trkpt lat="44.50569" lon="5.89752">
        <ele>1128</ele>
        <time>2021-09-01T06:57:53Z</time>
      </trkpt>
      <trkpt lat="44.50573" lon="5.89756">
        <ele>1128.5999755859</ele>
        <time>2021-09-01T06:57:57Z</time>
      </trkpt>
      <trkpt lat="44.50577" lon="5.89759">
        <ele>1129</ele>
        <time>2021-09-01T06:58:00Z</time>
      </trkpt>
      <trkpt lat="44.50581" lon="5.89762">
        <ele>1129.4000244141</ele>
        <time>2021-09-01T06:58:04Z</time>
      </trkpt>
      <trkpt lat="44.50586" lon="5.89767">
        <ele>1130</ele>
        <time>2021-09-01T06:58:09Z</time>
      </trkpt>
      <trkpt lat="44.50588" lon="5.89769">
        <ele>1130.1999511719</ele>
        <time>2021-09-01T06:58:11Z</time>
      </trkpt>
      <trkpt lat="44.50592" lon="5.89773">
        <ele>1131</ele>
        <time>2021-09-01T06:58:16Z</time>
      </trkpt>
      <trkpt lat="44.50593" lon="5.89774">
        <ele>1131.1999511719</ele>
        <time>2021-09-01T06:58:17Z</time>
      </trkpt>
      <trkpt lat="44.506" lon="5.89779">
        <ele>1132</ele>
        <time>2021-09-01T06:58:24Z</time>
      </trkpt>
      <trkpt lat="44.50602" lon="5.8978">
        <ele>1132.1999511719</ele>
        <time>2021-09-01T06:58:25Z</time>
      </trkpt>
      <trkpt lat="44.5061" lon="5.89787">
        <ele>1133.1999511719</ele>
        <time>2021-09-01T06:58:32Z</time>
      </trkpt>
      <trkpt lat="44.50612" lon="5.8979">
        <ele>1133.4000244141</ele>
        <time>2021-09-01T06:58:34Z</time>
      </trkpt>
      <trkpt lat="44.50618" lon="5.89796">
        <ele>1134.1999511719</ele>
        <time>2021-09-01T06:58:40Z</time>
      </trkpt>
      <trkpt lat="44.5062" lon="5.89797">
        <ele>1134.4000244141</ele>
        <time>2021-09-01T06:58:42Z</time>
      </trkpt>
      <trkpt lat="44.50627" lon="5.89803">
        <ele>1135.4000244141</ele>
        <time>2021-09-01T06:58:48Z</time>
      </trkpt>
      <trkpt lat="44.50631" lon="5.89805">
        <ele>1135.8000488281</ele>
        <time>2021-09-01T06:58:51Z</time>
      </trkpt>
      <trkpt lat="44.50634" lon="5.89806">
        <ele>1136.1999511719</ele>
        <time>2021-09-01T06:58:54Z</time>
      </trkpt>
      <trkpt lat="44.50636" lon="5.89806">
        <ele>1136.4000244141</ele>
        <time>2021-09-01T06:58:55Z</time>
      </trkpt>
      <trkpt lat="44.50643" lon="5.89808">
        <ele>1137.1999511719</ele>
        <time>2021-09-01T06:59:01Z</time>
      </trkpt>
      <trkpt lat="44.50646" lon="5.8981">
        <ele>1137.5999755859</ele>
        <time>2021-09-01T06:59:04Z</time>
      </trkpt>
      <trkpt lat="44.50651" lon="5.89812">
        <ele>1138.4000244141</ele>
        <time>2021-09-01T06:59:08Z</time>
      </trkpt>
      <trkpt lat="44.50653" lon="5.89813">
        <ele>1138.5999755859</ele>
        <time>2021-09-01T06:59:09Z</time>
      </trkpt>
      <trkpt lat="44.50661" lon="5.89819">
        <ele>1139.5999755859</ele>
        <time>2021-09-01T06:59:16Z</time>
      </trkpt>
      <trkpt lat="44.50663" lon="5.89821">
        <ele>1139.5999755859</ele>
        <time>2021-09-01T06:59:17Z</time>
      </trkpt>
      <trkpt lat="44.50672" lon="5.89826">
        <ele>1140.4000244141</ele>
        <time>2021-09-01T06:59:24Z</time>
      </trkpt>
      <trkpt lat="44.50672" lon="5.89828">
        <ele>1140.5999755859</ele>
        <time>2021-09-01T06:59:25Z</time>
      </trkpt>
      <trkpt lat="44.50675" lon="5.89829">
        <ele>1140.5999755859</ele>
        <time>2021-09-01T06:59:27Z</time>
      </trkpt>
      <trkpt lat="44.50678" lon="5.89832">
        <ele>1141</ele>
        <time>2021-09-01T06:59:30Z</time>
      </trkpt>
      <trkpt lat="44.50681" lon="5.89838">
        <ele>1141.4000244141</ele>
        <time>2021-09-01T06:59:34Z</time>
      </trkpt>
      <trkpt lat="44.50681" lon="5.89841">
        <ele>1141.8000488281</ele>
        <time>2021-09-01T06:59:36Z</time>
      </trkpt>
      <trkpt lat="44.50673" lon="5.89843">
        <ele>1142.1999511719</ele>
        <time>2021-09-01T06:59:41Z</time>
      </trkpt>
      <trkpt lat="44.5067" lon="5.89842">
        <ele>1142.4000244141</ele>
        <time>2021-09-01T06:59:43Z</time>
      </trkpt>
      <trkpt lat="44.50665" lon="5.89841">
        <ele>1142.8000488281</ele>
        <time>2021-09-01T06:59:47Z</time>
      </trkpt>
      <trkpt lat="44.50661" lon="5.89841">
        <ele>1143</ele>
        <time>2021-09-01T06:59:49Z</time>
      </trkpt>
      <trkpt lat="44.50652" lon="5.89841">
        <ele>1143.8000488281</ele>
        <time>2021-09-01T06:59:55Z</time>
      </trkpt>
      <trkpt lat="44.50649" lon="5.89842">
        <ele>1144</ele>
        <time>2021-09-01T06:59:57Z</time>
      </trkpt>
      <trkpt lat="44.5064" lon="5.89845">
        <ele>1144.8000488281</ele>
        <time>2021-09-01T07:00:03Z</time>
      </trkpt>
      <trkpt lat="44.50639" lon="5.89846">
        <ele>1144.8000488281</ele>
        <time>2021-09-01T07:00:04Z</time>
      </trkpt>
      <trkpt lat="44.50631" lon="5.89846">
        <ele>1145.8000488281</ele>
        <time>2021-09-01T07:00:10Z</time>
      </trkpt>
      <trkpt lat="44.5063" lon="5.89845">
        <ele>1146</ele>
        <time>2021-09-01T07:00:11Z</time>
      </trkpt>
      <trkpt lat="44.50626" lon="5.89846">
        <ele>1146.1999511719</ele>
        <time>2021-09-01T07:00:14Z</time>
      </trkpt>
      <trkpt lat="44.50622" lon="5.89846">
        <ele>1146.8000488281</ele>
        <time>2021-09-01T07:00:17Z</time>
      </trkpt>
      <trkpt lat="44.50621" lon="5.89846">
        <ele>1147</ele>
        <time>2021-09-01T07:00:18Z</time>
      </trkpt>
      <trkpt lat="44.50614" lon="5.89848">
        <ele>1147.8000488281</ele>
        <time>2021-09-01T07:00:23Z</time>
      </trkpt>
      <trkpt lat="44.50613" lon="5.89849">
        <ele>1148</ele>
        <time>2021-09-01T07:00:24Z</time>
      </trkpt>
      <trkpt lat="44.50612" lon="5.8985">
        <ele>1148</ele>
        <time>2021-09-01T07:00:25Z</time>
      </trkpt>
      <trkpt lat="44.50607" lon="5.89853">
        <ele>1148.5999755859</ele>
        <time>2021-09-01T07:00:29Z</time>
      </trkpt>
      <trkpt lat="44.50604" lon="5.89856">
        <ele>1149</ele>
        <time>2021-09-01T07:00:32Z</time>
      </trkpt>
      <trkpt lat="44.50597" lon="5.89863">
        <ele>1150</ele>
        <time>2021-09-01T07:00:38Z</time>
      </trkpt>
      <trkpt lat="44.50595" lon="5.89865">
        <ele>1150.1999511719</ele>
        <time>2021-09-01T07:00:40Z</time>
      </trkpt>
      <trkpt lat="44.50592" lon="5.8987">
        <ele>1150.8000488281</ele>
        <time>2021-09-01T07:00:44Z</time>
      </trkpt>
      <trkpt lat="44.50589" lon="5.89875">
        <ele>1151.1999511719</ele>
        <time>2021-09-01T07:00:47Z</time>
      </trkpt>
      <trkpt lat="44.50585" lon="5.8988">
        <ele>1151.8000488281</ele>
        <time>2021-09-01T07:00:51Z</time>
      </trkpt>
      <trkpt lat="44.50582" lon="5.89887">
        <ele>1152.4000244141</ele>
        <time>2021-09-01T07:00:55Z</time>
      </trkpt>
      <trkpt lat="44.50579" lon="5.89893">
        <ele>1153</ele>
        <time>2021-09-01T07:00:59Z</time>
      </trkpt>
      <trkpt lat="44.50577" lon="5.89899">
        <ele>1153.4000244141</ele>
        <time>2021-09-01T07:01:03Z</time>
      </trkpt>
      <trkpt lat="44.50575" lon="5.89902">
        <ele>1153.8000488281</ele>
        <time>2021-09-01T07:01:05Z</time>
      </trkpt>
      <trkpt lat="44.50573" lon="5.89906">
        <ele>1154.4000244141</ele>
        <time>2021-09-01T07:01:08Z</time>
      </trkpt>
      <trkpt lat="44.50569" lon="5.89912">
        <ele>1155</ele>
        <time>2021-09-01T07:01:12Z</time>
      </trkpt>
      <trkpt lat="44.50566" lon="5.89916">
        <ele>1155.5999755859</ele>
        <time>2021-09-01T07:01:15Z</time>
      </trkpt>
      <trkpt lat="44.50564" lon="5.89923">
        <ele>1156.1999511719</ele>
        <time>2021-09-01T07:01:19Z</time>
      </trkpt>
      <trkpt lat="44.50561" lon="5.89931">
        <ele>1156.5999755859</ele>
        <time>2021-09-01T07:01:24Z</time>
      </trkpt>
      <trkpt lat="44.5056" lon="5.89936">
        <ele>1157.1999511719</ele>
        <time>2021-09-01T07:01:27Z</time>
      </trkpt>
      <trkpt lat="44.50559" lon="5.89942">
        <ele>1157.8000488281</ele>
        <time>2021-09-01T07:01:31Z</time>
      </trkpt>
      <trkpt lat="44.50558" lon="5.8995">
        <ele>1158.4000244141</ele>
        <time>2021-09-01T07:01:35Z</time>
      </trkpt>
      <trkpt lat="44.50559" lon="5.89958">
        <ele>1159</ele>
        <time>2021-09-01T07:01:40Z</time>
      </trkpt>
      <trkpt lat="44.5056" lon="5.89964">
        <ele>1159.4000244141</ele>
        <time>2021-09-01T07:01:43Z</time>
      </trkpt>
      <trkpt lat="44.50562" lon="5.8997">
        <ele>1160</ele>
        <time>2021-09-01T07:01:47Z</time>
      </trkpt>
      <trkpt lat="44.50564" lon="5.89978">
        <ele>1160.4000244141</ele>
        <time>2021-09-01T07:01:51Z</time>
      </trkpt>
      <trkpt lat="44.50565" lon="5.89986">
        <ele>1161.1999511719</ele>
        <time>2021-09-01T07:01:55Z</time>
      </trkpt>
      <trkpt lat="44.50565" lon="5.89993">
        <ele>1161.8000488281</ele>
        <time>2021-09-01T07:01:59Z</time>
      </trkpt>
      <trkpt lat="44.50565" lon="5.9">
        <ele>1162.1999511719</ele>
        <time>2021-09-01T07:02:03Z</time>
      </trkpt>
      <trkpt lat="44.50565" lon="5.9001">
        <ele>1163</ele>
        <time>2021-09-01T07:02:08Z</time>
      </trkpt>
      <trkpt lat="44.50564" lon="5.90013">
        <ele>1163.4000244141</ele>
        <time>2021-09-01T07:02:10Z</time>
      </trkpt>
      <trkpt lat="44.50563" lon="5.90021">
        <ele>1163.8000488281</ele>
        <time>2021-09-01T07:02:14Z</time>
      </trkpt>
      <trkpt lat="44.50561" lon="5.90029">
        <ele>1164.5999755859</ele>
        <time>2021-09-01T07:02:19Z</time>
      </trkpt>
      <trkpt lat="44.5056" lon="5.90033">
        <ele>1164.8000488281</ele>
        <time>2021-09-01T07:02:21Z</time>
      </trkpt>
      <trkpt lat="44.50556" lon="5.90042">
        <ele>1165.5999755859</ele>
        <time>2021-09-01T07:02:27Z</time>
      </trkpt>
      <trkpt lat="44.50555" lon="5.90046">
        <ele>1165.8000488281</ele>
        <time>2021-09-01T07:02:29Z</time>
      </trkpt>
      <trkpt lat="44.50554" lon="5.90048">
        <ele>1166</ele>
        <time>2021-09-01T07:02:31Z</time>
      </trkpt>
      <trkpt lat="44.50551" lon="5.90054">
        <ele>1166.5999755859</ele>
        <time>2021-09-01T07:02:35Z</time>
      </trkpt>
      <trkpt lat="44.5055" lon="5.90055">
        <ele>1166.5999755859</ele>
        <time>2021-09-01T07:02:36Z</time>
      </trkpt>
      <trkpt lat="44.50545" lon="5.90062">
        <ele>1167.1999511719</ele>
        <time>2021-09-01T07:02:41Z</time>
      </trkpt>
      <trkpt lat="44.50546" lon="5.90068">
        <ele>1167.5999755859</ele>
        <time>2021-09-01T07:02:44Z</time>
      </trkpt>
      <trkpt lat="44.50547" lon="5.9007">
        <ele>1167.8000488281</ele>
        <time>2021-09-01T07:02:45Z</time>
      </trkpt>
      <trkpt lat="44.50549" lon="5.90072">
        <ele>1168</ele>
        <time>2021-09-01T07:02:47Z</time>
      </trkpt>
      <trkpt lat="44.50551" lon="5.90073">
        <ele>1168.1999511719</ele>
        <time>2021-09-01T07:02:48Z</time>
      </trkpt>
      <trkpt lat="44.50556" lon="5.90071">
        <ele>1168.5999755859</ele>
        <time>2021-09-01T07:02:52Z</time>
      </trkpt>
      <trkpt lat="44.50562" lon="5.90064">
        <ele>1168.5999755859</ele>
        <time>2021-09-01T07:02:57Z</time>
      </trkpt>
      <trkpt lat="44.50564" lon="5.90063">
        <ele>1168.5999755859</ele>
        <time>2021-09-01T07:02:58Z</time>
      </trkpt>
      <trkpt lat="44.50566" lon="5.90059">
        <ele>1168.8000488281</ele>
        <time>2021-09-01T07:03:00Z</time>
      </trkpt>
      <trkpt lat="44.50572" lon="5.90049">
        <ele>1169.5999755859</ele>
        <time>2021-09-01T07:03:07Z</time>
      </trkpt>
      <trkpt lat="44.50573" lon="5.90048">
        <ele>1169.8000488281</ele>
        <time>2021-09-01T07:03:08Z</time>
      </trkpt>
      <trkpt lat="44.50579" lon="5.9004">
        <ele>1170.4000244141</ele>
        <time>2021-09-01T07:03:13Z</time>
      </trkpt>
      <trkpt lat="44.50581" lon="5.90036">
        <ele>1170.8000488281</ele>
        <time>2021-09-01T07:03:16Z</time>
      </trkpt>
      <trkpt lat="44.50586" lon="5.90029">
        <ele>1171.4000244141</ele>
        <time>2021-09-01T07:03:21Z</time>
      </trkpt>
      <trkpt lat="44.50589" lon="5.90026">
        <ele>1171.8000488281</ele>
        <time>2021-09-01T07:03:24Z</time>
      </trkpt>
      <trkpt lat="44.50591" lon="5.90021">
        <ele>1172.4000244141</ele>
        <time>2021-09-01T07:03:27Z</time>
      </trkpt>
      <trkpt lat="44.50594" lon="5.90017">
        <ele>1172.8000488281</ele>
        <time>2021-09-01T07:03:31Z</time>
      </trkpt>
      <trkpt lat="44.50598" lon="5.90012">
        <ele>1173.5999755859</ele>
        <time>2021-09-01T07:03:35Z</time>
      </trkpt>
      <trkpt lat="44.50601" lon="5.90008">
        <ele>1174</ele>
        <time>2021-09-01T07:03:38Z</time>
      </trkpt>
      <trkpt lat="44.50606" lon="5.90006">
        <ele>1174.4000244141</ele>
        <time>2021-09-01T07:03:42Z</time>
      </trkpt>
      <trkpt lat="44.50611" lon="5.90006">
        <ele>1175</ele>
        <time>2021-09-01T07:03:46Z</time>
      </trkpt>
      <trkpt lat="44.50615" lon="5.90006">
        <ele>1175.4000244141</ele>
        <time>2021-09-01T07:03:49Z</time>
      </trkpt>
      <trkpt lat="44.50623" lon="5.90007">
        <ele>1176.1999511719</ele>
        <time>2021-09-01T07:03:54Z</time>
      </trkpt>
      <trkpt lat="44.50625" lon="5.90008">
        <ele>1176.5999755859</ele>
        <time>2021-09-01T07:03:56Z</time>
      </trkpt>
      <trkpt lat="44.5063" lon="5.90012">
        <ele>1177.1999511719</ele>
        <time>2021-09-01T07:04:00Z</time>
      </trkpt>
      <trkpt lat="44.50634" lon="5.90012">
        <ele>1177.5999755859</ele>
        <time>2021-09-01T07:04:03Z</time>
      </trkpt>
      <trkpt lat="44.50636" lon="5.90012">
        <ele>1177.5999755859</ele>
        <time>2021-09-01T07:04:04Z</time>
      </trkpt>
      <trkpt lat="44.50641" lon="5.90011">
        <ele>1178.1999511719</ele>
        <time>2021-09-01T07:04:08Z</time>
      </trkpt>
      <trkpt lat="44.50644" lon="5.90009">
        <ele>1178.4000244141</ele>
        <time>2021-09-01T07:04:10Z</time>
      </trkpt>
      <trkpt lat="44.5065" lon="5.90008">
        <ele>1179.1999511719</ele>
        <time>2021-09-01T07:04:16Z</time>
      </trkpt>
      <trkpt lat="44.50651" lon="5.90009">
        <ele>1179.1999511719</ele>
        <time>2021-09-01T07:04:17Z</time>
      </trkpt>
      <trkpt lat="44.50659" lon="5.90017">
        <ele>1180</ele>
        <time>2021-09-01T07:04:23Z</time>
      </trkpt>
      <trkpt lat="44.5066" lon="5.90022">
        <ele>1180</ele>
        <time>2021-09-01T07:04:25Z</time>
      </trkpt>
      <trkpt lat="44.50657" lon="5.90027">
        <ele>1180.1999511719</ele>
        <time>2021-09-01T07:04:28Z</time>
      </trkpt>
      <trkpt lat="44.50652" lon="5.90029">
        <ele>1180.4000244141</ele>
        <time>2021-09-01T07:04:32Z</time>
      </trkpt>
      <trkpt lat="44.50649" lon="5.90029">
        <ele>1180.5999755859</ele>
        <time>2021-09-01T07:04:34Z</time>
      </trkpt>
      <trkpt lat="44.50637" lon="5.9003">
        <ele>1181.1999511719</ele>
        <time>2021-09-01T07:04:42Z</time>
      </trkpt>
      <trkpt lat="44.50636" lon="5.9003">
        <ele>1181.4000244141</ele>
        <time>2021-09-01T07:04:43Z</time>
      </trkpt>
      <trkpt lat="44.50632" lon="5.90033">
        <ele>1181.8000488281</ele>
        <time>2021-09-01T07:04:46Z</time>
      </trkpt>
      <trkpt lat="44.50629" lon="5.90037">
        <ele>1182.4000244141</ele>
        <time>2021-09-01T07:04:49Z</time>
      </trkpt>
      <trkpt lat="44.50627" lon="5.9004">
        <ele>1182.5999755859</ele>
        <time>2021-09-01T07:04:51Z</time>
      </trkpt>
      <trkpt lat="44.50626" lon="5.90042">
        <ele>1182.8000488281</ele>
        <time>2021-09-01T07:04:52Z</time>
      </trkpt>
      <trkpt lat="44.50621" lon="5.90051">
        <ele>1183.4000244141</ele>
        <time>2021-09-01T07:04:58Z</time>
      </trkpt>
      <trkpt lat="44.50621" lon="5.90053">
        <ele>1183.5999755859</ele>
        <time>2021-09-01T07:04:59Z</time>
      </trkpt>
      <trkpt lat="44.50617" lon="5.90067">
        <ele>1184.5999755859</ele>
        <time>2021-09-01T07:05:07Z</time>
      </trkpt>
      <trkpt lat="44.50613" lon="5.90078">
        <ele>1185.8000488281</ele>
        <time>2021-09-01T07:05:14Z</time>
      </trkpt>
      <trkpt lat="44.50612" lon="5.90081">
        <ele>1186</ele>
        <time>2021-09-01T07:05:16Z</time>
      </trkpt>
      <trkpt lat="44.5061" lon="5.90092">
        <ele>1186.8000488281</ele>
        <time>2021-09-01T07:05:22Z</time>
      </trkpt>
      <trkpt lat="44.5061" lon="5.90095">
        <ele>1187.1999511719</ele>
        <time>2021-09-01T07:05:24Z</time>
      </trkpt>
      <trkpt lat="44.50611" lon="5.90105">
        <ele>1187.8000488281</ele>
        <time>2021-09-01T07:05:30Z</time>
      </trkpt>
      <trkpt lat="44.50611" lon="5.90109">
        <ele>1188.4000244141</ele>
        <time>2021-09-01T07:05:32Z</time>
      </trkpt>
      <trkpt lat="44.50614" lon="5.90115">
        <ele>1188.8000488281</ele>
        <time>2021-09-01T07:05:36Z</time>
      </trkpt>
      <trkpt lat="44.50615" lon="5.90118">
        <ele>1189.1999511719</ele>
        <time>2021-09-01T07:05:38Z</time>
      </trkpt>
      <trkpt lat="44.50617" lon="5.90127">
        <ele>1189.5999755859</ele>
        <time>2021-09-01T07:05:44Z</time>
      </trkpt>
      <trkpt lat="44.50618" lon="5.90129">
        <ele>1189.5999755859</ele>
        <time>2021-09-01T07:05:45Z</time>
      </trkpt>
      <trkpt lat="44.50618" lon="5.90132">
        <ele>1190</ele>
        <time>2021-09-01T07:05:47Z</time>
      </trkpt>
      <trkpt lat="44.50619" lon="5.9014">
        <ele>1190.5999755859</ele>
        <time>2021-09-01T07:05:52Z</time>
      </trkpt>
      <trkpt lat="44.50619" lon="5.90144">
        <ele>1191</ele>
        <time>2021-09-01T07:05:55Z</time>
      </trkpt>
      <trkpt lat="44.5062" lon="5.90156">
        <ele>1191.8000488281</ele>
        <time>2021-09-01T07:06:01Z</time>
      </trkpt>
      <trkpt lat="44.5062" lon="5.90158">
        <ele>1192</ele>
        <time>2021-09-01T07:06:02Z</time>
      </trkpt>
      <trkpt lat="44.50619" lon="5.9017">
        <ele>1193</ele>
        <time>2021-09-01T07:06:09Z</time>
      </trkpt>
      <trkpt lat="44.50618" lon="5.90173">
        <ele>1193.1999511719</ele>
        <time>2021-09-01T07:06:10Z</time>
      </trkpt>
      <trkpt lat="44.50616" lon="5.9018">
        <ele>1193.8000488281</ele>
        <time>2021-09-01T07:06:15Z</time>
      </trkpt>
      <trkpt lat="44.50615" lon="5.90183">
        <ele>1194.1999511719</ele>
        <time>2021-09-01T07:06:17Z</time>
      </trkpt>
      <trkpt lat="44.5061" lon="5.90191">
        <ele>1195.1999511719</ele>
        <time>2021-09-01T07:06:23Z</time>
      </trkpt>
      <trkpt lat="44.50609" lon="5.90192">
        <ele>1195.4000244141</ele>
        <time>2021-09-01T07:06:24Z</time>
      </trkpt>
      <trkpt lat="44.50604" lon="5.90199">
        <ele>1196</ele>
        <time>2021-09-01T07:06:30Z</time>
      </trkpt>
      <trkpt lat="44.50597" lon="5.90205">
        <ele>1197.1999511719</ele>
        <time>2021-09-01T07:08:21Z</time>
      </trkpt>
      <trkpt lat="44.50596" lon="5.90206">
        <ele>1197.1999511719</ele>
        <time>2021-09-01T07:08:22Z</time>
      </trkpt>
      <trkpt lat="44.50593" lon="5.90209">
        <ele>1197.5999755859</ele>
        <time>2021-09-01T07:08:25Z</time>
      </trkpt>
      <trkpt lat="44.50586" lon="5.90215">
        <ele>1198.4000244141</ele>
        <time>2021-09-01T07:08:31Z</time>
      </trkpt>
      <trkpt lat="44.50584" lon="5.90217">
        <ele>1198.5999755859</ele>
        <time>2021-09-01T07:08:33Z</time>
      </trkpt>
      <trkpt lat="44.50578" lon="5.9022">
        <ele>1199</ele>
        <time>2021-09-01T07:08:37Z</time>
      </trkpt>
      <trkpt lat="44.50576" lon="5.90222">
        <ele>1199</ele>
        <time>2021-09-01T07:08:39Z</time>
      </trkpt>
      <trkpt lat="44.50572" lon="5.90224">
        <ele>1199.4000244141</ele>
        <time>2021-09-01T07:08:43Z</time>
      </trkpt>
      <trkpt lat="44.5057" lon="5.90224">
        <ele>1200</ele>
        <time>2021-09-01T07:08:44Z</time>
      </trkpt>
      <trkpt lat="44.50569" lon="5.90225">
        <ele>1200.1999511719</ele>
        <time>2021-09-01T07:08:45Z</time>
      </trkpt>
      <trkpt lat="44.50569" lon="5.90226">
        <ele>1200.4000244141</ele>
        <time>2021-09-01T07:08:46Z</time>
      </trkpt>
      <trkpt lat="44.50566" lon="5.9023">
        <ele>1200.8000488281</ele>
        <time>2021-09-01T07:08:49Z</time>
      </trkpt>
      <trkpt lat="44.50564" lon="5.90232">
        <ele>1201</ele>
        <time>2021-09-01T07:08:51Z</time>
      </trkpt>
      <trkpt lat="44.5056" lon="5.90237">
        <ele>1201.5999755859</ele>
        <time>2021-09-01T07:08:55Z</time>
      </trkpt>
      <trkpt lat="44.50559" lon="5.90237">
        <ele>1201.8000488281</ele>
        <time>2021-09-01T07:08:56Z</time>
      </trkpt>
      <trkpt lat="44.50556" lon="5.9024">
        <ele>1202.1999511719</ele>
        <time>2021-09-01T07:08:59Z</time>
      </trkpt>
      <trkpt lat="44.50549" lon="5.90246">
        <ele>1203</ele>
        <time>2021-09-01T07:09:05Z</time>
      </trkpt>
      <trkpt lat="44.50547" lon="5.90249">
        <ele>1203.4000244141</ele>
        <time>2021-09-01T07:09:08Z</time>
      </trkpt>
      <trkpt lat="44.50543" lon="5.90255">
        <ele>1204.4000244141</ele>
        <time>2021-09-01T07:09:39Z</time>
      </trkpt>
      <trkpt lat="44.50542" lon="5.90256">
        <ele>1204.4000244141</ele>
        <time>2021-09-01T07:09:40Z</time>
      </trkpt>
      <trkpt lat="44.50536" lon="5.90265">
        <ele>1205.1999511719</ele>
        <time>2021-09-01T07:09:47Z</time>
      </trkpt>
      <trkpt lat="44.50533" lon="5.90269">
        <ele>1205.5999755859</ele>
        <time>2021-09-01T07:09:50Z</time>
      </trkpt>
      <trkpt lat="44.50529" lon="5.90274">
        <ele>1206.1999511719</ele>
        <time>2021-09-01T07:09:54Z</time>
      </trkpt>
      <trkpt lat="44.50527" lon="5.90275">
        <ele>1206.5999755859</ele>
        <time>2021-09-01T07:09:56Z</time>
      </trkpt>
      <trkpt lat="44.50519" lon="5.90281">
        <ele>1207.5999755859</ele>
        <time>2021-09-01T07:10:03Z</time>
      </trkpt>
      <trkpt lat="44.50519" lon="5.90282">
        <ele>1207.8000488281</ele>
        <time>2021-09-01T07:10:04Z</time>
      </trkpt>
      <trkpt lat="44.50514" lon="5.90296">
        <ele>1208.5999755859</ele>
        <time>2021-09-01T07:10:12Z</time>
      </trkpt>
      <trkpt lat="44.50515" lon="5.903">
        <ele>1208.8000488281</ele>
        <time>2021-09-01T07:10:14Z</time>
      </trkpt>
      <trkpt lat="44.50517" lon="5.90303">
        <ele>1208.8000488281</ele>
        <time>2021-09-01T07:10:16Z</time>
      </trkpt>
      <trkpt lat="44.5052" lon="5.90304">
        <ele>1209</ele>
        <time>2021-09-01T07:10:18Z</time>
      </trkpt>
      <trkpt lat="44.50521" lon="5.90304">
        <ele>1209</ele>
        <time>2021-09-01T07:10:19Z</time>
      </trkpt>
      <trkpt lat="44.50526" lon="5.90301">
        <ele>1209.5999755859</ele>
        <time>2021-09-01T07:10:23Z</time>
      </trkpt>
      <trkpt lat="44.50529" lon="5.90299">
        <ele>1209.8000488281</ele>
        <time>2021-09-01T07:10:25Z</time>
      </trkpt>
      <trkpt lat="44.50533" lon="5.90293">
        <ele>1210.4000244141</ele>
        <time>2021-09-01T07:10:30Z</time>
      </trkpt>
      <trkpt lat="44.50534" lon="5.90292">
        <ele>1210.4000244141</ele>
        <time>2021-09-01T07:10:31Z</time>
      </trkpt>
      <trkpt lat="44.50539" lon="5.90288">
        <ele>1210.8000488281</ele>
        <time>2021-09-01T07:10:35Z</time>
      </trkpt>
      <trkpt lat="44.5054" lon="5.90287">
        <ele>1211</ele>
        <time>2021-09-01T07:10:36Z</time>
      </trkpt>
      <trkpt lat="44.50549" lon="5.90283">
        <ele>1212.1999511719</ele>
        <time>2021-09-01T07:10:44Z</time>
      </trkpt>
      <trkpt lat="44.50552" lon="5.90281">
        <ele>1212.4000244141</ele>
        <time>2021-09-01T07:10:46Z</time>
      </trkpt>
      <trkpt lat="44.50557" lon="5.90281">
        <ele>1213</ele>
        <time>2021-09-01T07:10:50Z</time>
      </trkpt>
      <trkpt lat="44.50559" lon="5.90282">
        <ele>1213.1999511719</ele>
        <time>2021-09-01T07:10:52Z</time>
      </trkpt>
      <trkpt lat="44.50563" lon="5.90284">
        <ele>1213.8000488281</ele>
        <time>2021-09-01T07:10:56Z</time>
      </trkpt>
      <trkpt lat="44.50567" lon="5.90285">
        <ele>1214.1999511719</ele>
        <time>2021-09-01T07:11:00Z</time>
      </trkpt>
      <trkpt lat="44.50605" lon="5.903">
        <ele>1218.5999755859</ele>
        <time>2021-09-01T07:11:30Z</time>
      </trkpt>
      <trkpt lat="44.50606" lon="5.903">
        <ele>1218.5999755859</ele>
        <time>2021-09-01T07:11:31Z</time>
      </trkpt>
      <trkpt lat="44.50622" lon="5.90299">
        <ele>1220.5999755859</ele>
        <time>2021-09-01T07:11:44Z</time>
      </trkpt>
      <trkpt lat="44.50625" lon="5.90299">
        <ele>1220.8000488281</ele>
        <time>2021-09-01T07:11:46Z</time>
      </trkpt>
      <trkpt lat="44.50631" lon="5.903">
        <ele>1221.5999755859</ele>
        <time>2021-09-01T07:11:51Z</time>
      </trkpt>
      <trkpt lat="44.50634" lon="5.903">
        <ele>1222</ele>
        <time>2021-09-01T07:11:53Z</time>
      </trkpt>
      <trkpt lat="44.50644" lon="5.90302">
        <ele>1222.8000488281</ele>
        <time>2021-09-01T07:11:59Z</time>
      </trkpt>
      <trkpt lat="44.50645" lon="5.90302">
        <ele>1223</ele>
        <time>2021-09-01T07:12:00Z</time>
      </trkpt>
      <trkpt lat="44.50652" lon="5.90302">
        <ele>1224</ele>
        <time>2021-09-01T07:12:06Z</time>
      </trkpt>
      <trkpt lat="44.50655" lon="5.90304">
        <ele>1224.1999511719</ele>
        <time>2021-09-01T07:12:08Z</time>
      </trkpt>
      <trkpt lat="44.50695" lon="5.90309">
        <ele>1228.4000244141</ele>
        <time>2021-09-01T07:12:41Z</time>
      </trkpt>
      <trkpt lat="44.507" lon="5.90309">
        <ele>1229</ele>
        <time>2021-09-01T07:12:45Z</time>
      </trkpt>
      <trkpt lat="44.50703" lon="5.90308">
        <ele>1229.5999755859</ele>
        <time>2021-09-01T07:12:48Z</time>
      </trkpt>
      <trkpt lat="44.50708" lon="5.90309">
        <ele>1230</ele>
        <time>2021-09-01T07:12:52Z</time>
      </trkpt>
      <trkpt lat="44.50715" lon="5.9031">
        <ele>1230.5999755859</ele>
        <time>2021-09-01T07:12:58Z</time>
      </trkpt>
      <trkpt lat="44.50719" lon="5.90313">
        <ele>1231.1999511719</ele>
        <time>2021-09-01T07:13:01Z</time>
      </trkpt>
      <trkpt lat="44.50723" lon="5.90315">
        <ele>1231.5999755859</ele>
        <time>2021-09-01T07:13:04Z</time>
      </trkpt>
      <trkpt lat="44.50726" lon="5.90318">
        <ele>1232.5999755859</ele>
        <time>2021-09-01T07:13:26Z</time>
      </trkpt>
      <trkpt lat="44.50719" lon="5.9032">
        <ele>1232.5999755859</ele>
        <time>2021-09-01T07:13:30Z</time>
      </trkpt>
      <trkpt lat="44.50715" lon="5.90322">
        <ele>1232.4000244141</ele>
        <time>2021-09-01T07:13:32Z</time>
      </trkpt>
      <trkpt lat="44.50704" lon="5.90322">
        <ele>1232</ele>
        <time>2021-09-01T07:13:39Z</time>
      </trkpt>
      <trkpt lat="44.50693" lon="5.90322">
        <ele>1232.8000488281</ele>
        <time>2021-09-01T07:13:46Z</time>
      </trkpt>
      <trkpt lat="44.50685" lon="5.90325">
        <ele>1233.4000244141</ele>
        <time>2021-09-01T07:13:53Z</time>
      </trkpt>
      <trkpt lat="44.50682" lon="5.90326">
        <ele>1233.8000488281</ele>
        <time>2021-09-01T07:13:55Z</time>
      </trkpt>
      <trkpt lat="44.50681" lon="5.90327">
        <ele>1234</ele>
        <time>2021-09-01T07:13:56Z</time>
      </trkpt>
      <trkpt lat="44.50677" lon="5.90328">
        <ele>1234.5999755859</ele>
        <time>2021-09-01T07:14:00Z</time>
      </trkpt>
      <trkpt lat="44.50674" lon="5.9033">
        <ele>1235</ele>
        <time>2021-09-01T07:14:03Z</time>
      </trkpt>
      <trkpt lat="44.50666" lon="5.90334">
        <ele>1235.8000488281</ele>
        <time>2021-09-01T07:14:09Z</time>
      </trkpt>
      <trkpt lat="44.50663" lon="5.90334">
        <ele>1236</ele>
        <time>2021-09-01T07:14:11Z</time>
      </trkpt>
      <trkpt lat="44.50656" lon="5.90338">
        <ele>1236.5999755859</ele>
        <time>2021-09-01T07:14:16Z</time>
      </trkpt>
      <trkpt lat="44.50652" lon="5.90341">
        <ele>1237.1999511719</ele>
        <time>2021-09-01T07:14:19Z</time>
      </trkpt>
      <trkpt lat="44.50649" lon="5.90345">
        <ele>1237.8000488281</ele>
        <time>2021-09-01T07:14:23Z</time>
      </trkpt>
      <trkpt lat="44.50645" lon="5.90348">
        <ele>1238.1999511719</ele>
        <time>2021-09-01T07:14:26Z</time>
      </trkpt>
      <trkpt lat="44.50639" lon="5.90353">
        <ele>1238.8000488281</ele>
        <time>2021-09-01T07:14:30Z</time>
      </trkpt>
      <trkpt lat="44.50635" lon="5.90357">
        <ele>1239.1999511719</ele>
        <time>2021-09-01T07:14:34Z</time>
      </trkpt>
      <trkpt lat="44.50632" lon="5.90361">
        <ele>1239.5999755859</ele>
        <time>2021-09-01T07:14:37Z</time>
      </trkpt>
      <trkpt lat="44.50627" lon="5.90365">
        <ele>1240.4000244141</ele>
        <time>2021-09-01T07:14:41Z</time>
      </trkpt>
      <trkpt lat="44.50618" lon="5.9037">
        <ele>1241.8000488281</ele>
        <time>2021-09-01T07:14:49Z</time>
      </trkpt>
      <trkpt lat="44.50616" lon="5.90372">
        <ele>1242</ele>
        <time>2021-09-01T07:14:51Z</time>
      </trkpt>
      <trkpt lat="44.50613" lon="5.90373">
        <ele>1242.1999511719</ele>
        <time>2021-09-01T07:14:53Z</time>
      </trkpt>
      <trkpt lat="44.50607" lon="5.90375">
        <ele>1242.8000488281</ele>
        <time>2021-09-01T07:14:58Z</time>
      </trkpt>
      <trkpt lat="44.50604" lon="5.90377">
        <ele>1243.1999511719</ele>
        <time>2021-09-01T07:15:01Z</time>
      </trkpt>
      <trkpt lat="44.50597" lon="5.90379">
        <ele>1244</ele>
        <time>2021-09-01T07:15:06Z</time>
      </trkpt>
      <trkpt lat="44.50592" lon="5.9038">
        <ele>1244.5999755859</ele>
        <time>2021-09-01T07:15:09Z</time>
      </trkpt>
      <trkpt lat="44.5059" lon="5.90383">
        <ele>1244.8000488281</ele>
        <time>2021-09-01T07:15:11Z</time>
      </trkpt>
      <trkpt lat="44.50589" lon="5.90385">
        <ele>1245</ele>
        <time>2021-09-01T07:15:12Z</time>
      </trkpt>
      <trkpt lat="44.50583" lon="5.90389">
        <ele>1245.5999755859</ele>
        <time>2021-09-01T07:15:17Z</time>
      </trkpt>
      <trkpt lat="44.50581" lon="5.90391">
        <ele>1245.8000488281</ele>
        <time>2021-09-01T07:15:19Z</time>
      </trkpt>
      <trkpt lat="44.50578" lon="5.90394">
        <ele>1246.1999511719</ele>
        <time>2021-09-01T07:15:22Z</time>
      </trkpt>
      <trkpt lat="44.50577" lon="5.90395">
        <ele>1246.1999511719</ele>
        <time>2021-09-01T07:15:23Z</time>
      </trkpt>
      <trkpt lat="44.50571" lon="5.90398">
        <ele>1247</ele>
        <time>2021-09-01T07:15:28Z</time>
      </trkpt>
      <trkpt lat="44.50568" lon="5.90398">
        <ele>1247.1999511719</ele>
        <time>2021-09-01T07:15:30Z</time>
      </trkpt>
      <trkpt lat="44.50562" lon="5.90401">
        <ele>1248</ele>
        <time>2021-09-01T07:15:35Z</time>
      </trkpt>
      <trkpt lat="44.50559" lon="5.90402">
        <ele>1248.1999511719</ele>
        <time>2021-09-01T07:15:37Z</time>
      </trkpt>
      <trkpt lat="44.50554" lon="5.90408">
        <ele>1249</ele>
        <time>2021-09-01T07:15:42Z</time>
      </trkpt>
      <trkpt lat="44.50552" lon="5.90413">
        <ele>1249.4000244141</ele>
        <time>2021-09-01T07:15:45Z</time>
      </trkpt>
      <trkpt lat="44.50553" lon="5.90419">
        <ele>1249.5999755859</ele>
        <time>2021-09-01T07:15:48Z</time>
      </trkpt>
      <trkpt lat="44.50556" lon="5.90424">
        <ele>1250</ele>
        <time>2021-09-01T07:15:52Z</time>
      </trkpt>
      <trkpt lat="44.50559" lon="5.90424">
        <ele>1250.1999511719</ele>
        <time>2021-09-01T07:15:54Z</time>
      </trkpt>
      <trkpt lat="44.5056" lon="5.90424">
        <ele>1250.4000244141</ele>
        <time>2021-09-01T07:15:55Z</time>
      </trkpt>
      <trkpt lat="44.50567" lon="5.9042">
        <ele>1251</ele>
        <time>2021-09-01T07:16:01Z</time>
      </trkpt>
      <trkpt lat="44.50572" lon="5.90414">
        <ele>1251.4000244141</ele>
        <time>2021-09-01T07:16:06Z</time>
      </trkpt>
      <trkpt lat="44.50575" lon="5.90412">
        <ele>1252</ele>
        <time>2021-09-01T07:16:09Z</time>
      </trkpt>
      <trkpt lat="44.50581" lon="5.90409">
        <ele>1252.5999755859</ele>
        <time>2021-09-01T07:16:14Z</time>
      </trkpt>
      <trkpt lat="44.50583" lon="5.90408">
        <ele>1252.8000488281</ele>
        <time>2021-09-01T07:16:16Z</time>
      </trkpt>
      <trkpt lat="44.50651" lon="5.90402">
        <ele>1260.1999511719</ele>
        <time>2021-09-01T07:17:11Z</time>
      </trkpt>
      <trkpt lat="44.50654" lon="5.90402">
        <ele>1260.4000244141</ele>
        <time>2021-09-01T07:17:13Z</time>
      </trkpt>
      <trkpt lat="44.50662" lon="5.90403">
        <ele>1261.4000244141</ele>
        <time>2021-09-01T07:17:20Z</time>
      </trkpt>
      <trkpt lat="44.50665" lon="5.90403">
        <ele>1261.5999755859</ele>
        <time>2021-09-01T07:17:22Z</time>
      </trkpt>
      <trkpt lat="44.50667" lon="5.90403">
        <ele>1261.8000488281</ele>
        <time>2021-09-01T07:17:24Z</time>
      </trkpt>
      <trkpt lat="44.50673" lon="5.90403">
        <ele>1262.4000244141</ele>
        <time>2021-09-01T07:17:28Z</time>
      </trkpt>
      <trkpt lat="44.50675" lon="5.90404">
        <ele>1262.5999755859</ele>
        <time>2021-09-01T07:17:30Z</time>
      </trkpt>
      <trkpt lat="44.50769" lon="5.90494">
        <ele>1276</ele>
        <time>2021-09-01T07:19:07Z</time>
      </trkpt>
      <trkpt lat="44.5077" lon="5.90499">
        <ele>1276.1999511719</ele>
        <time>2021-09-01T07:19:09Z</time>
      </trkpt>
      <trkpt lat="44.50773" lon="5.9051">
        <ele>1276.8000488281</ele>
        <time>2021-09-01T07:19:14Z</time>
      </trkpt>
      <trkpt lat="44.50773" lon="5.90512">
        <ele>1277</ele>
        <time>2021-09-01T07:19:15Z</time>
      </trkpt>
      <trkpt lat="44.50775" lon="5.90522">
        <ele>1277.4000244141</ele>
        <time>2021-09-01T07:19:20Z</time>
      </trkpt>
      <trkpt lat="44.50774" lon="5.90525">
        <ele>1277.1999511719</ele>
        <time>2021-09-01T07:19:22Z</time>
      </trkpt>
      <trkpt lat="44.50768" lon="5.90527">
        <ele>1278</ele>
        <time>2021-09-01T07:19:47Z</time>
      </trkpt>
      <trkpt lat="44.50765" lon="5.90521">
        <ele>1278</ele>
        <time>2021-09-01T07:19:51Z</time>
      </trkpt>
      <trkpt lat="44.50765" lon="5.90517">
        <ele>1278</ele>
        <time>2021-09-01T07:19:53Z</time>
      </trkpt>
      <trkpt lat="44.50766" lon="5.90514">
        <ele>1278</ele>
        <time>2021-09-01T07:19:54Z</time>
      </trkpt>
      <trkpt lat="44.50767" lon="5.90508">
        <ele>1278.4000244141</ele>
        <time>2021-09-01T07:19:57Z</time>
      </trkpt>
      <trkpt lat="44.50766" lon="5.90504">
        <ele>1278.5999755859</ele>
        <time>2021-09-01T07:19:59Z</time>
      </trkpt>
      <trkpt lat="44.50763" lon="5.90493">
        <ele>1279</ele>
        <time>2021-09-01T07:20:05Z</time>
      </trkpt>
      <trkpt lat="44.50763" lon="5.90491">
        <ele>1279.1999511719</ele>
        <time>2021-09-01T07:20:06Z</time>
      </trkpt>
      <trkpt lat="44.50755" lon="5.90485">
        <ele>1280</ele>
        <time>2021-09-01T07:20:13Z</time>
      </trkpt>
      <trkpt lat="44.50753" lon="5.90483">
        <ele>1280.1999511719</ele>
        <time>2021-09-01T07:20:15Z</time>
      </trkpt>
      <trkpt lat="44.50746" lon="5.90479">
        <ele>1281.1999511719</ele>
        <time>2021-09-01T07:20:21Z</time>
      </trkpt>
      <trkpt lat="44.50745" lon="5.90478">
        <ele>1281.1999511719</ele>
        <time>2021-09-01T07:20:22Z</time>
      </trkpt>
      <trkpt lat="44.50737" lon="5.90475">
        <ele>1281.8000488281</ele>
        <time>2021-09-01T07:20:27Z</time>
      </trkpt>
      <trkpt lat="44.50735" lon="5.90473">
        <ele>1282.1999511719</ele>
        <time>2021-09-01T07:20:29Z</time>
      </trkpt>
      <trkpt lat="44.50734" lon="5.90473">
        <ele>1282.4000244141</ele>
        <time>2021-09-01T07:20:30Z</time>
      </trkpt>
      <trkpt lat="44.50728" lon="5.90471">
        <ele>1282.8000488281</ele>
        <time>2021-09-01T07:20:34Z</time>
      </trkpt>
      <trkpt lat="44.50727" lon="5.9047">
        <ele>1283</ele>
        <time>2021-09-01T07:20:35Z</time>
      </trkpt>
      <trkpt lat="44.50723" lon="5.90469">
        <ele>1283.4000244141</ele>
        <time>2021-09-01T07:20:38Z</time>
      </trkpt>
      <trkpt lat="44.50718" lon="5.90468">
        <ele>1283.8000488281</ele>
        <time>2021-09-01T07:20:42Z</time>
      </trkpt>
      <trkpt lat="44.50717" lon="5.90467">
        <ele>1284</ele>
        <time>2021-09-01T07:20:43Z</time>
      </trkpt>
      <trkpt lat="44.50713" lon="5.90465">
        <ele>1284.5999755859</ele>
        <time>2021-09-01T07:20:46Z</time>
      </trkpt>
      <trkpt lat="44.50708" lon="5.90463">
        <ele>1285.1999511719</ele>
        <time>2021-09-01T07:20:50Z</time>
      </trkpt>
      <trkpt lat="44.50706" lon="5.90463">
        <ele>1285.1999511719</ele>
        <time>2021-09-01T07:20:51Z</time>
      </trkpt>
      <trkpt lat="44.50703" lon="5.90462">
        <ele>1285.5999755859</ele>
        <time>2021-09-01T07:20:54Z</time>
      </trkpt>
      <trkpt lat="44.50697" lon="5.90462">
        <ele>1286.1999511719</ele>
        <time>2021-09-01T07:20:58Z</time>
      </trkpt>
      <trkpt lat="44.50691" lon="5.90462">
        <ele>1286.8000488281</ele>
        <time>2021-09-01T07:21:03Z</time>
      </trkpt>
      <trkpt lat="44.50687" lon="5.90461">
        <ele>1287.1999511719</ele>
        <time>2021-09-01T07:21:06Z</time>
      </trkpt>
      <trkpt lat="44.50683" lon="5.90461">
        <ele>1287.8000488281</ele>
        <time>2021-09-01T07:21:09Z</time>
      </trkpt>
      <trkpt lat="44.50682" lon="5.90461">
        <ele>1287.8000488281</ele>
        <time>2021-09-01T07:21:10Z</time>
      </trkpt>
      <trkpt lat="44.50678" lon="5.90462">
        <ele>1288.4000244141</ele>
        <time>2021-09-01T07:21:14Z</time>
      </trkpt>
      <trkpt lat="44.50651" lon="5.90478">
        <ele>1291.5999755859</ele>
        <time>2021-09-01T07:21:39Z</time>
      </trkpt>
      <trkpt lat="44.5065" lon="5.90478">
        <ele>1291.5999755859</ele>
        <time>2021-09-01T07:21:40Z</time>
      </trkpt>
      <trkpt lat="44.50642" lon="5.90483">
        <ele>1292.4000244141</ele>
        <time>2021-09-01T07:21:47Z</time>
      </trkpt>
      <trkpt lat="44.5064" lon="5.90484">
        <ele>1292.5999755859</ele>
        <time>2021-09-01T07:21:49Z</time>
      </trkpt>
      <trkpt lat="44.50632" lon="5.9049">
        <ele>1293.8000488281</ele>
        <time>2021-09-01T07:21:56Z</time>
      </trkpt>
      <trkpt lat="44.50625" lon="5.90494">
        <ele>1294.8000488281</ele>
        <time>2021-09-01T07:22:03Z</time>
      </trkpt>
      <trkpt lat="44.50623" lon="5.90496">
        <ele>1295</ele>
        <time>2021-09-01T07:22:05Z</time>
      </trkpt>
      <trkpt lat="44.50616" lon="5.90504">
        <ele>1295.8000488281</ele>
        <time>2021-09-01T07:22:12Z</time>
      </trkpt>
      <trkpt lat="44.50615" lon="5.90505">
        <ele>1296</ele>
        <time>2021-09-01T07:22:13Z</time>
      </trkpt>
      <trkpt lat="44.50606" lon="5.90512">
        <ele>1297</ele>
        <time>2021-09-01T07:22:21Z</time>
      </trkpt>
      <trkpt lat="44.50598" lon="5.9052">
        <ele>1298.1999511719</ele>
        <time>2021-09-01T07:22:29Z</time>
      </trkpt>
      <trkpt lat="44.50592" lon="5.9053">
        <ele>1299.1999511719</ele>
        <time>2021-09-01T07:22:37Z</time>
      </trkpt>
      <trkpt lat="44.50591" lon="5.90531">
        <ele>1299.4000244141</ele>
        <time>2021-09-01T07:22:38Z</time>
      </trkpt>
      <trkpt lat="44.5059" lon="5.90535">
        <ele>1299.5999755859</ele>
        <time>2021-09-01T07:22:40Z</time>
      </trkpt>
      <trkpt lat="44.50586" lon="5.90542">
        <ele>1300.4000244141</ele>
        <time>2021-09-01T07:22:45Z</time>
      </trkpt>
      <trkpt lat="44.50581" lon="5.90552">
        <ele>1301</ele>
        <time>2021-09-01T07:22:51Z</time>
      </trkpt>
      <trkpt lat="44.50579" lon="5.90557">
        <ele>1301.4000244141</ele>
        <time>2021-09-01T07:22:54Z</time>
      </trkpt>
      <trkpt lat="44.50576" lon="5.90565">
        <ele>1302.1999511719</ele>
        <time>2021-09-01T07:22:59Z</time>
      </trkpt>
      <trkpt lat="44.50575" lon="5.9057">
        <ele>1302.5999755859</ele>
        <time>2021-09-01T07:23:02Z</time>
      </trkpt>
      <trkpt lat="44.50575" lon="5.9058">
        <ele>1303.1999511719</ele>
        <time>2021-09-01T07:23:07Z</time>
      </trkpt>
      <trkpt lat="44.50575" lon="5.90586">
        <ele>1303.5999755859</ele>
        <time>2021-09-01T07:23:10Z</time>
      </trkpt>
      <trkpt lat="44.50577" lon="5.90597">
        <ele>1304</ele>
        <time>2021-09-01T07:23:15Z</time>
      </trkpt>
      <trkpt lat="44.50579" lon="5.90607">
        <ele>1304.1999511719</ele>
        <time>2021-09-01T07:23:20Z</time>
      </trkpt>
      <trkpt lat="44.5058" lon="5.90611">
        <ele>1304.4000244141</ele>
        <time>2021-09-01T07:23:22Z</time>
      </trkpt>
      <trkpt lat="44.50582" lon="5.90614">
        <ele>1304.5999755859</ele>
        <time>2021-09-01T07:23:24Z</time>
      </trkpt>
      <trkpt lat="44.50586" lon="5.90623">
        <ele>1305</ele>
        <time>2021-09-01T07:23:29Z</time>
      </trkpt>
      <trkpt lat="44.50596" lon="5.90636">
        <ele>1305.5999755859</ele>
        <time>2021-09-01T07:23:37Z</time>
      </trkpt>
      <trkpt lat="44.50598" lon="5.90638">
        <ele>1305.8000488281</ele>
        <time>2021-09-01T07:23:39Z</time>
      </trkpt>
      <trkpt lat="44.50603" lon="5.90643">
        <ele>1306</ele>
        <time>2021-09-01T07:23:43Z</time>
      </trkpt>
      <trkpt lat="44.50614" lon="5.90652">
        <ele>1306.4000244141</ele>
        <time>2021-09-01T07:23:51Z</time>
      </trkpt>
      <trkpt lat="44.50618" lon="5.90654">
        <ele>1306.5999755859</ele>
        <time>2021-09-01T07:23:54Z</time>
      </trkpt>
      <trkpt lat="44.50619" lon="5.90656">
        <ele>1306.5999755859</ele>
        <time>2021-09-01T07:23:55Z</time>
      </trkpt>
      <trkpt lat="44.5062" lon="5.90662">
        <ele>1307</ele>
        <time>2021-09-01T07:23:58Z</time>
      </trkpt>
      <trkpt lat="44.50627" lon="5.90665">
        <ele>1307.5999755859</ele>
        <time>2021-09-01T07:25:44Z</time>
      </trkpt>
      <trkpt lat="44.50629" lon="5.90664">
        <ele>1307.5999755859</ele>
        <time>2021-09-01T07:25:46Z</time>
      </trkpt>
      <trkpt lat="44.50632" lon="5.90665">
        <ele>1307.5999755859</ele>
        <time>2021-09-01T07:25:48Z</time>
      </trkpt>
      <trkpt lat="44.50634" lon="5.90668">
        <ele>1307.8000488281</ele>
        <time>2021-09-01T07:25:50Z</time>
      </trkpt>
      <trkpt lat="44.50638" lon="5.90675">
        <ele>1308</ele>
        <time>2021-09-01T07:25:54Z</time>
      </trkpt>
      <trkpt lat="44.50639" lon="5.90678">
        <ele>1308.1999511719</ele>
        <time>2021-09-01T07:25:56Z</time>
      </trkpt>
      <trkpt lat="44.5064" lon="5.90684">
        <ele>1308.5999755859</ele>
        <time>2021-09-01T07:25:59Z</time>
      </trkpt>
      <trkpt lat="44.50641" lon="5.9069">
        <ele>1308.5999755859</ele>
        <time>2021-09-01T07:26:02Z</time>
      </trkpt>
      <trkpt lat="44.50641" lon="5.90693">
        <ele>1308.8000488281</ele>
        <time>2021-09-01T07:26:03Z</time>
      </trkpt>
      <trkpt lat="44.50641" lon="5.907">
        <ele>1309.4000244141</ele>
        <time>2021-09-01T07:26:06Z</time>
      </trkpt>
      <trkpt lat="44.50641" lon="5.90706">
        <ele>1309.8000488281</ele>
        <time>2021-09-01T07:26:09Z</time>
      </trkpt>
      <trkpt lat="44.5064" lon="5.90713">
        <ele>1310.4000244141</ele>
        <time>2021-09-01T07:26:13Z</time>
      </trkpt>
      <trkpt lat="44.5064" lon="5.90715">
        <ele>1310.4000244141</ele>
        <time>2021-09-01T07:26:14Z</time>
      </trkpt>
      <trkpt lat="44.50638" lon="5.9072">
        <ele>1310.8000488281</ele>
        <time>2021-09-01T07:26:17Z</time>
      </trkpt>
      <trkpt lat="44.50635" lon="5.90725">
        <ele>1311.1999511719</ele>
        <time>2021-09-01T07:26:20Z</time>
      </trkpt>
      <trkpt lat="44.50634" lon="5.90726">
        <ele>1311.4000244141</ele>
        <time>2021-09-01T07:26:21Z</time>
      </trkpt>
      <trkpt lat="44.50624" lon="5.90736">
        <ele>1311.8000488281</ele>
        <time>2021-09-01T07:26:29Z</time>
      </trkpt>
      <trkpt lat="44.50622" lon="5.90737">
        <ele>1311.8000488281</ele>
        <time>2021-09-01T07:26:30Z</time>
      </trkpt>
      <trkpt lat="44.50614" lon="5.90744">
        <ele>1312.5999755859</ele>
        <time>2021-09-01T07:26:37Z</time>
      </trkpt>
      <trkpt lat="44.50612" lon="5.90745">
        <ele>1312.8000488281</ele>
        <time>2021-09-01T07:26:39Z</time>
      </trkpt>
      <trkpt lat="44.50604" lon="5.90749">
        <ele>1313.5999755859</ele>
        <time>2021-09-01T07:26:45Z</time>
      </trkpt>
      <trkpt lat="44.50603" lon="5.9075">
        <ele>1313.5999755859</ele>
        <time>2021-09-01T07:26:46Z</time>
      </trkpt>
      <trkpt lat="44.506" lon="5.90753">
        <ele>1314</ele>
        <time>2021-09-01T07:26:49Z</time>
      </trkpt>
      <trkpt lat="44.50599" lon="5.90755">
        <ele>1314.1999511719</ele>
        <time>2021-09-01T07:26:50Z</time>
      </trkpt>
      <trkpt lat="44.50597" lon="5.90757">
        <ele>1314.1999511719</ele>
        <time>2021-09-01T07:26:52Z</time>
      </trkpt>
      <trkpt lat="44.50589" lon="5.90762">
        <ele>1315</ele>
        <time>2021-09-01T07:26:58Z</time>
      </trkpt>
      <trkpt lat="44.50588" lon="5.90763">
        <ele>1315</ele>
        <time>2021-09-01T07:26:59Z</time>
      </trkpt>
      <trkpt lat="44.5058" lon="5.90769">
        <ele>1315.5999755859</ele>
        <time>2021-09-01T07:27:05Z</time>
      </trkpt>
      <trkpt lat="44.50575" lon="5.90772">
        <ele>1316.1999511719</ele>
        <time>2021-09-01T07:27:09Z</time>
      </trkpt>
      <trkpt lat="44.50571" lon="5.90776">
        <ele>1316.5999755859</ele>
        <time>2021-09-01T07:27:13Z</time>
      </trkpt>
      <trkpt lat="44.50569" lon="5.90781">
        <ele>1317.1999511719</ele>
        <time>2021-09-01T07:27:16Z</time>
      </trkpt>
      <trkpt lat="44.50567" lon="5.90784">
        <ele>1317.5999755859</ele>
        <time>2021-09-01T07:27:19Z</time>
      </trkpt>
      <trkpt lat="44.50564" lon="5.90788">
        <ele>1318.1999511719</ele>
        <time>2021-09-01T07:27:22Z</time>
      </trkpt>
      <trkpt lat="44.50561" lon="5.90793">
        <ele>1318.8000488281</ele>
        <time>2021-09-01T07:27:26Z</time>
      </trkpt>
      <trkpt lat="44.5056" lon="5.90796">
        <ele>1319</ele>
        <time>2021-09-01T07:27:28Z</time>
      </trkpt>
      <trkpt lat="44.50558" lon="5.908">
        <ele>1319.4000244141</ele>
        <time>2021-09-01T07:27:31Z</time>
      </trkpt>
      <trkpt lat="44.50557" lon="5.90801">
        <ele>1319.4000244141</ele>
        <time>2021-09-01T07:27:32Z</time>
      </trkpt>
      <trkpt lat="44.50552" lon="5.90812">
        <ele>1320</ele>
        <time>2021-09-01T07:27:40Z</time>
      </trkpt>
      <trkpt lat="44.50548" lon="5.90817">
        <ele>1320.4000244141</ele>
        <time>2021-09-01T07:27:44Z</time>
      </trkpt>
      <trkpt lat="44.50546" lon="5.90819">
        <ele>1320.5999755859</ele>
        <time>2021-09-01T07:27:46Z</time>
      </trkpt>
      <trkpt lat="44.50544" lon="5.90821">
        <ele>1320.8000488281</ele>
        <time>2021-09-01T07:27:48Z</time>
      </trkpt>
      <trkpt lat="44.50535" lon="5.90826">
        <ele>1321.4000244141</ele>
        <time>2021-09-01T07:27:55Z</time>
      </trkpt>
      <trkpt lat="44.50534" lon="5.90827">
        <ele>1321.4000244141</ele>
        <time>2021-09-01T07:27:56Z</time>
      </trkpt>
      <trkpt lat="44.50526" lon="5.90831">
        <ele>1322.4000244141</ele>
        <time>2021-09-01T07:28:02Z</time>
      </trkpt>
      <trkpt lat="44.50524" lon="5.90832">
        <ele>1322.5999755859</ele>
        <time>2021-09-01T07:28:04Z</time>
      </trkpt>
      <trkpt lat="44.50522" lon="5.90833">
        <ele>1322.5999755859</ele>
        <time>2021-09-01T07:28:05Z</time>
      </trkpt>
      <trkpt lat="44.50518" lon="5.90833">
        <ele>1323</ele>
        <time>2021-09-01T07:28:08Z</time>
      </trkpt>
      <trkpt lat="44.50511" lon="5.90836">
        <ele>1323.5999755859</ele>
        <time>2021-09-01T07:28:13Z</time>
      </trkpt>
      <trkpt lat="44.50508" lon="5.90835">
        <ele>1323.8000488281</ele>
        <time>2021-09-01T07:28:15Z</time>
      </trkpt>
      <trkpt lat="44.50506" lon="5.90834">
        <ele>1324</ele>
        <time>2021-09-01T07:28:17Z</time>
      </trkpt>
      <trkpt lat="44.50502" lon="5.90832">
        <ele>1324.1999511719</ele>
        <time>2021-09-01T07:28:20Z</time>
      </trkpt>
      <trkpt lat="44.50497" lon="5.90834">
        <ele>1324.5999755859</ele>
        <time>2021-09-01T07:28:23Z</time>
      </trkpt>
      <trkpt lat="44.50492" lon="5.90834">
        <ele>1324.8000488281</ele>
        <time>2021-09-01T07:28:27Z</time>
      </trkpt>
      <trkpt lat="44.5049" lon="5.90834">
        <ele>1325.1999511719</ele>
        <time>2021-09-01T07:28:29Z</time>
      </trkpt>
      <trkpt lat="44.50482" lon="5.90837">
        <ele>1325.5999755859</ele>
        <time>2021-09-01T07:28:35Z</time>
      </trkpt>
      <trkpt lat="44.5048" lon="5.90836">
        <ele>1325.8000488281</ele>
        <time>2021-09-01T07:28:37Z</time>
      </trkpt>
      <trkpt lat="44.50474" lon="5.90835">
        <ele>1326</ele>
        <time>2021-09-01T07:28:41Z</time>
      </trkpt>
      <trkpt lat="44.50464" lon="5.90832">
        <ele>1326.5999755859</ele>
        <time>2021-09-01T07:28:48Z</time>
      </trkpt>
      <trkpt lat="44.50462" lon="5.90831">
        <ele>1326.5999755859</ele>
        <time>2021-09-01T07:28:49Z</time>
      </trkpt>
      <trkpt lat="44.50451" lon="5.90826">
        <ele>1327.5999755859</ele>
        <time>2021-09-01T07:28:56Z</time>
      </trkpt>
      <trkpt lat="44.50448" lon="5.90824">
        <ele>1327.8000488281</ele>
        <time>2021-09-01T07:28:58Z</time>
      </trkpt>
      <trkpt lat="44.50438" lon="5.90816">
        <ele>1328.1999511719</ele>
        <time>2021-09-01T07:29:04Z</time>
      </trkpt>
      <trkpt lat="44.50428" lon="5.90811">
        <ele>1328.8000488281</ele>
        <time>2021-09-01T07:29:10Z</time>
      </trkpt>
      <trkpt lat="44.50417" lon="5.90801">
        <ele>1329.4000244141</ele>
        <time>2021-09-01T07:29:17Z</time>
      </trkpt>
      <trkpt lat="44.50411" lon="5.90796">
        <ele>1329.8000488281</ele>
        <time>2021-09-01T07:29:21Z</time>
      </trkpt>
      <trkpt lat="44.50406" lon="5.9079">
        <ele>1330.1999511719</ele>
        <time>2021-09-01T07:29:25Z</time>
      </trkpt>
      <trkpt lat="44.504" lon="5.90782">
        <ele>1331</ele>
        <time>2021-09-01T07:29:30Z</time>
      </trkpt>
      <trkpt lat="44.50395" lon="5.90779">
        <ele>1331.4000244141</ele>
        <time>2021-09-01T07:29:34Z</time>
      </trkpt>
      <trkpt lat="44.50388" lon="5.90777">
        <ele>1331.8000488281</ele>
        <time>2021-09-01T07:29:39Z</time>
      </trkpt>
      <trkpt lat="44.50387" lon="5.90776">
        <ele>1332</ele>
        <time>2021-09-01T07:29:40Z</time>
      </trkpt>
      <trkpt lat="44.50373" lon="5.9078">
        <ele>1332.5999755859</ele>
        <time>2021-09-01T07:29:47Z</time>
      </trkpt>
      <trkpt lat="44.50367" lon="5.90785">
        <ele>1333</ele>
        <time>2021-09-01T07:29:50Z</time>
      </trkpt>
      <trkpt lat="44.50363" lon="5.90791">
        <ele>1333.5999755859</ele>
        <time>2021-09-01T07:29:54Z</time>
      </trkpt>
      <trkpt lat="44.50354" lon="5.90799">
        <ele>1334</ele>
        <time>2021-09-01T07:29:59Z</time>
      </trkpt>
      <trkpt lat="44.50349" lon="5.90803">
        <ele>1334.4000244141</ele>
        <time>2021-09-01T07:30:02Z</time>
      </trkpt>
      <trkpt lat="44.50335" lon="5.90809">
        <ele>1335</ele>
        <time>2021-09-01T07:30:10Z</time>
      </trkpt>
      <trkpt lat="44.50331" lon="5.9081">
        <ele>1335.1999511719</ele>
        <time>2021-09-01T07:30:12Z</time>
      </trkpt>
      <trkpt lat="44.50322" lon="5.90812">
        <ele>1335.4000244141</ele>
        <time>2021-09-01T07:30:17Z</time>
      </trkpt>
      <trkpt lat="44.50314" lon="5.90814">
        <ele>1336.1999511719</ele>
        <time>2021-09-01T07:30:22Z</time>
      </trkpt>
      <trkpt lat="44.50311" lon="5.90815">
        <ele>1336.4000244141</ele>
        <time>2021-09-01T07:30:24Z</time>
      </trkpt>
      <trkpt lat="44.503" lon="5.90817">
        <ele>1337</ele>
        <time>2021-09-01T07:30:31Z</time>
      </trkpt>
      <trkpt lat="44.50298" lon="5.90817">
        <ele>1337.1999511719</ele>
        <time>2021-09-01T07:30:32Z</time>
      </trkpt>
      <trkpt lat="44.50287" lon="5.90823">
        <ele>1337.8000488281</ele>
        <time>2021-09-01T07:30:39Z</time>
      </trkpt>
      <trkpt lat="44.50274" lon="5.9083">
        <ele>1338.1999511719</ele>
        <time>2021-09-01T07:30:46Z</time>
      </trkpt>
      <trkpt lat="44.50273" lon="5.9083">
        <ele>1338.1999511719</ele>
        <time>2021-09-01T07:30:47Z</time>
      </trkpt>
      <trkpt lat="44.50272" lon="5.90832">
        <ele>1338.4000244141</ele>
        <time>2021-09-01T07:30:48Z</time>
      </trkpt>
      <trkpt lat="44.50267" lon="5.90834">
        <ele>1338.4000244141</ele>
        <time>2021-09-01T07:30:51Z</time>
      </trkpt>
      <trkpt lat="44.50265" lon="5.90835">
        <ele>1338.4000244141</ele>
        <time>2021-09-01T07:30:52Z</time>
      </trkpt>
      <trkpt lat="44.5025" lon="5.90842">
        <ele>1339</ele>
        <time>2021-09-01T07:31:00Z</time>
      </trkpt>
      <trkpt lat="44.50245" lon="5.90844">
        <ele>1339.4000244141</ele>
        <time>2021-09-01T07:31:03Z</time>
      </trkpt>
      <trkpt lat="44.50238" lon="5.90847">
        <ele>1339.5999755859</ele>
        <time>2021-09-01T07:31:08Z</time>
      </trkpt>
      <trkpt lat="44.50228" lon="5.90853">
        <ele>1340.1999511719</ele>
        <time>2021-09-01T07:31:14Z</time>
      </trkpt>
      <trkpt lat="44.50227" lon="5.90854">
        <ele>1340.4000244141</ele>
        <time>2021-09-01T07:31:15Z</time>
      </trkpt>
      <trkpt lat="44.50219" lon="5.90861">
        <ele>1340.5999755859</ele>
        <time>2021-09-01T07:31:20Z</time>
      </trkpt>
      <trkpt lat="44.50207" lon="5.90875">
        <ele>1341.1999511719</ele>
        <time>2021-09-01T07:31:29Z</time>
      </trkpt>
      <trkpt lat="44.50204" lon="5.90878">
        <ele>1341.4000244141</ele>
        <time>2021-09-01T07:31:31Z</time>
      </trkpt>
      <trkpt lat="44.50198" lon="5.90887">
        <ele>1342</ele>
        <time>2021-09-01T07:31:36Z</time>
      </trkpt>
      <trkpt lat="44.50189" lon="5.90898">
        <ele>1342.1999511719</ele>
        <time>2021-09-01T07:31:42Z</time>
      </trkpt>
      <trkpt lat="44.50183" lon="5.90904">
        <ele>1342.4000244141</ele>
        <time>2021-09-01T07:31:46Z</time>
      </trkpt>
      <trkpt lat="44.50177" lon="5.90913">
        <ele>1342.5999755859</ele>
        <time>2021-09-01T07:31:50Z</time>
      </trkpt>
      <trkpt lat="44.50167" lon="5.90921">
        <ele>1342.5999755859</ele>
        <time>2021-09-01T07:31:55Z</time>
      </trkpt>
      <trkpt lat="44.50156" lon="5.90931">
        <ele>1342.5999755859</ele>
        <time>2021-09-01T07:32:02Z</time>
      </trkpt>
      <trkpt lat="44.50151" lon="5.90941">
        <ele>1343.1999511719</ele>
        <time>2021-09-01T07:32:08Z</time>
      </trkpt>
      <trkpt lat="44.50149" lon="5.90944">
        <ele>1343.5999755859</ele>
        <time>2021-09-01T07:32:10Z</time>
      </trkpt>
      <trkpt lat="44.50145" lon="5.90946">
        <ele>1344</ele>
        <time>2021-09-01T07:32:13Z</time>
      </trkpt>
      <trkpt lat="44.50135" lon="5.90944">
        <ele>1343.8000488281</ele>
        <time>2021-09-01T07:32:19Z</time>
      </trkpt>
      <trkpt lat="44.50123" lon="5.90944">
        <ele>1343.4000244141</ele>
        <time>2021-09-01T07:32:25Z</time>
      </trkpt>
      <trkpt lat="44.50112" lon="5.90949">
        <ele>1343.1999511719</ele>
        <time>2021-09-01T07:32:32Z</time>
      </trkpt>
      <trkpt lat="44.50098" lon="5.90956">
        <ele>1342.8000488281</ele>
        <time>2021-09-01T07:32:39Z</time>
      </trkpt>
      <trkpt lat="44.50091" lon="5.9096">
        <ele>1342.5999755859</ele>
        <time>2021-09-01T07:32:42Z</time>
      </trkpt>
      <trkpt lat="44.50084" lon="5.90965">
        <ele>1342.1999511719</ele>
        <time>2021-09-01T07:32:45Z</time>
      </trkpt>
      <trkpt lat="44.50078" lon="5.90972">
        <ele>1341.5999755859</ele>
        <time>2021-09-01T07:32:48Z</time>
      </trkpt>
      <trkpt lat="44.5007" lon="5.90983">
        <ele>1341</ele>
        <time>2021-09-01T07:32:52Z</time>
      </trkpt>
      <trkpt lat="44.50062" lon="5.90994">
        <ele>1340.4000244141</ele>
        <time>2021-09-01T07:32:56Z</time>
      </trkpt>
      <trkpt lat="44.50056" lon="5.91001">
        <ele>1340.1999511719</ele>
        <time>2021-09-01T07:32:58Z</time>
      </trkpt>
      <trkpt lat="44.50047" lon="5.91013">
        <ele>1339.1999511719</ele>
        <time>2021-09-01T07:33:02Z</time>
      </trkpt>
      <trkpt lat="44.50041" lon="5.91024">
        <ele>1338.8000488281</ele>
        <time>2021-09-01T07:33:05Z</time>
      </trkpt>
      <trkpt lat="44.5004" lon="5.91029">
        <ele>1338.5999755859</ele>
        <time>2021-09-01T07:33:06Z</time>
      </trkpt>
      <trkpt lat="44.50039" lon="5.91038">
        <ele>1338.1999511719</ele>
        <time>2021-09-01T07:33:08Z</time>
      </trkpt>
      <trkpt lat="44.50038" lon="5.91048">
        <ele>1337.5999755859</ele>
        <time>2021-09-01T07:33:10Z</time>
      </trkpt>
      <trkpt lat="44.50035" lon="5.91055">
        <ele>1336.8000488281</ele>
        <time>2021-09-01T07:33:12Z</time>
      </trkpt>
      <trkpt lat="44.50029" lon="5.91061">
        <ele>1336.4000244141</ele>
        <time>2021-09-01T07:33:14Z</time>
      </trkpt>
      <trkpt lat="44.5002" lon="5.91065">
        <ele>1335.8000488281</ele>
        <time>2021-09-01T07:33:18Z</time>
      </trkpt>
      <trkpt lat="44.50018" lon="5.91067">
        <ele>1335.5999755859</ele>
        <time>2021-09-01T07:33:19Z</time>
      </trkpt>
      <trkpt lat="44.50004" lon="5.91074">
        <ele>1335.4000244141</ele>
        <time>2021-09-01T07:33:25Z</time>
      </trkpt>
      <trkpt lat="44.49989" lon="5.91081">
        <ele>1334.8000488281</ele>
        <time>2021-09-01T07:33:30Z</time>
      </trkpt>
      <trkpt lat="44.49986" lon="5.91082">
        <ele>1334.5999755859</ele>
        <time>2021-09-01T07:33:31Z</time>
      </trkpt>
      <trkpt lat="44.49971" lon="5.91084">
        <ele>1333.5999755859</ele>
        <time>2021-09-01T07:33:36Z</time>
      </trkpt>
      <trkpt lat="44.49969" lon="5.91084">
        <ele>1333.4000244141</ele>
        <time>2021-09-01T07:33:37Z</time>
      </trkpt>
      <trkpt lat="44.49957" lon="5.91084">
        <ele>1332.4000244141</ele>
        <time>2021-09-01T07:33:41Z</time>
      </trkpt>
      <trkpt lat="44.49954" lon="5.91083">
        <ele>1332.4000244141</ele>
        <time>2021-09-01T07:33:42Z</time>
      </trkpt>
      <trkpt lat="44.49936" lon="5.91076">
        <ele>1331.4000244141</ele>
        <time>2021-09-01T07:33:47Z</time>
      </trkpt>
      <trkpt lat="44.4992" lon="5.91071">
        <ele>1330</ele>
        <time>2021-09-01T07:33:52Z</time>
      </trkpt>
      <trkpt lat="44.49911" lon="5.91069">
        <ele>1329</ele>
        <time>2021-09-01T07:33:55Z</time>
      </trkpt>
      <trkpt lat="44.49896" lon="5.9107">
        <ele>1328.1999511719</ele>
        <time>2021-09-01T07:34:00Z</time>
      </trkpt>
      <trkpt lat="44.49891" lon="5.91072">
        <ele>1327.8000488281</ele>
        <time>2021-09-01T07:34:02Z</time>
      </trkpt>
      <trkpt lat="44.49886" lon="5.9108">
        <ele>1327.4000244141</ele>
        <time>2021-09-01T07:34:05Z</time>
      </trkpt>
      <trkpt lat="44.49885" lon="5.91098">
        <ele>1326.8000488281</ele>
        <time>2021-09-01T07:34:10Z</time>
      </trkpt>
      <trkpt lat="44.4989" lon="5.91123">
        <ele>1325.8000488281</ele>
        <time>2021-09-01T07:34:16Z</time>
      </trkpt>
      <trkpt lat="44.4989" lon="5.91128">
        <ele>1325.5999755859</ele>
        <time>2021-09-01T07:34:17Z</time>
      </trkpt>
      <trkpt lat="44.49888" lon="5.91143">
        <ele>1324.5999755859</ele>
        <time>2021-09-01T07:34:21Z</time>
      </trkpt>
      <trkpt lat="44.49888" lon="5.91146">
        <ele>1324.5999755859</ele>
        <time>2021-09-01T07:34:22Z</time>
      </trkpt>
      <trkpt lat="44.49881" lon="5.91167">
        <ele>1324</ele>
        <time>2021-09-01T07:34:28Z</time>
      </trkpt>
      <trkpt lat="44.49879" lon="5.91176">
        <ele>1323.5999755859</ele>
        <time>2021-09-01T07:34:30Z</time>
      </trkpt>
      <trkpt lat="44.49872" lon="5.91195">
        <ele>1322.4000244141</ele>
        <time>2021-09-01T07:34:35Z</time>
      </trkpt>
      <trkpt lat="44.49871" lon="5.912">
        <ele>1321</ele>
        <time>2021-09-01T07:37:03Z</time>
      </trkpt>
      <trkpt lat="44.49871" lon="5.91202">
        <ele>1320.8000488281</ele>
        <time>2021-09-01T07:37:04Z</time>
      </trkpt>
      <trkpt lat="44.49867" lon="5.91215">
        <ele>1320.5999755859</ele>
        <time>2021-09-01T07:37:09Z</time>
      </trkpt>
      <trkpt lat="44.49866" lon="5.91218">
        <ele>1320.5999755859</ele>
        <time>2021-09-01T07:37:10Z</time>
      </trkpt>
      <trkpt lat="44.49861" lon="5.91244">
        <ele>1319.8000488281</ele>
        <time>2021-09-01T07:37:17Z</time>
      </trkpt>
      <trkpt lat="44.49853" lon="5.91265">
        <ele>1318.8000488281</ele>
        <time>2021-09-01T07:37:23Z</time>
      </trkpt>
      <trkpt lat="44.49845" lon="5.91285">
        <ele>1317.5999755859</ele>
        <time>2021-09-01T07:37:28Z</time>
      </trkpt>
      <trkpt lat="44.49843" lon="5.91288">
        <ele>1317.4000244141</ele>
        <time>2021-09-01T07:37:29Z</time>
      </trkpt>
      <trkpt lat="44.49835" lon="5.913">
        <ele>1316.5999755859</ele>
        <time>2021-09-01T07:37:34Z</time>
      </trkpt>
      <trkpt lat="44.49833" lon="5.91303">
        <ele>1316.4000244141</ele>
        <time>2021-09-01T07:37:35Z</time>
      </trkpt>
      <trkpt lat="44.49823" lon="5.91322">
        <ele>1315.5999755859</ele>
        <time>2021-09-01T07:37:41Z</time>
      </trkpt>
      <trkpt lat="44.49818" lon="5.91347">
        <ele>1315</ele>
        <time>2021-09-01T07:37:48Z</time>
      </trkpt>
      <trkpt lat="44.49811" lon="5.91359">
        <ele>1314.8000488281</ele>
        <time>2021-09-01T07:37:52Z</time>
      </trkpt>
      <trkpt lat="44.49798" lon="5.91358">
        <ele>1314.5999755859</ele>
        <time>2021-09-01T07:37:56Z</time>
      </trkpt>
      <trkpt lat="44.49783" lon="5.91345">
        <ele>1314.4000244141</ele>
        <time>2021-09-01T07:38:01Z</time>
      </trkpt>
      <trkpt lat="44.49776" lon="5.9134">
        <ele>1314.1999511719</ele>
        <time>2021-09-01T07:38:03Z</time>
      </trkpt>
      <trkpt lat="44.49761" lon="5.91331">
        <ele>1313.1999511719</ele>
        <time>2021-09-01T07:38:08Z</time>
      </trkpt>
      <trkpt lat="44.49745" lon="5.91329">
        <ele>1312.1999511719</ele>
        <time>2021-09-01T07:38:13Z</time>
      </trkpt>
      <trkpt lat="44.49737" lon="5.91329">
        <ele>1311.4000244141</ele>
        <time>2021-09-01T07:38:16Z</time>
      </trkpt>
      <trkpt lat="44.49735" lon="5.91331">
        <ele>1311</ele>
        <time>2021-09-01T07:38:17Z</time>
      </trkpt>
      <trkpt lat="44.49732" lon="5.91333">
        <ele>1310.8000488281</ele>
        <time>2021-09-01T07:38:18Z</time>
      </trkpt>
      <trkpt lat="44.49723" lon="5.91341">
        <ele>1310</ele>
        <time>2021-09-01T07:38:21Z</time>
      </trkpt>
      <trkpt lat="44.49717" lon="5.91347">
        <ele>1309.1999511719</ele>
        <time>2021-09-01T07:38:23Z</time>
      </trkpt>
      <trkpt lat="44.4971" lon="5.91351">
        <ele>1308.8000488281</ele>
        <time>2021-09-01T07:38:25Z</time>
      </trkpt>
      <trkpt lat="44.49699" lon="5.91351">
        <ele>1308.1999511719</ele>
        <time>2021-09-01T07:38:28Z</time>
      </trkpt>
      <trkpt lat="44.49689" lon="5.91348">
        <ele>1307.5999755859</ele>
        <time>2021-09-01T07:38:32Z</time>
      </trkpt>
      <trkpt lat="44.49686" lon="5.91345">
        <ele>1307.4000244141</ele>
        <time>2021-09-01T07:38:34Z</time>
      </trkpt>
      <trkpt lat="44.49681" lon="5.91339">
        <ele>1307</ele>
        <time>2021-09-01T07:38:37Z</time>
      </trkpt>
      <trkpt lat="44.49671" lon="5.91333">
        <ele>1306.5999755859</ele>
        <time>2021-09-01T07:38:41Z</time>
      </trkpt>
      <trkpt lat="44.49662" lon="5.91331">
        <ele>1306</ele>
        <time>2021-09-01T07:38:44Z</time>
      </trkpt>
      <trkpt lat="44.4965" lon="5.91331">
        <ele>1305.5999755859</ele>
        <time>2021-09-01T07:38:48Z</time>
      </trkpt>
      <trkpt lat="44.4964" lon="5.91331">
        <ele>1305.1999511719</ele>
        <time>2021-09-01T07:38:51Z</time>
      </trkpt>
      <trkpt lat="44.49617" lon="5.91329">
        <ele>1304.5999755859</ele>
        <time>2021-09-01T07:38:57Z</time>
      </trkpt>
      <trkpt lat="44.49614" lon="5.91328">
        <ele>1304.4000244141</ele>
        <time>2021-09-01T07:38:58Z</time>
      </trkpt>
      <trkpt lat="44.496" lon="5.91327">
        <ele>1304</ele>
        <time>2021-09-01T07:39:02Z</time>
      </trkpt>
      <trkpt lat="44.49584" lon="5.91338">
        <ele>1304</ele>
        <time>2021-09-01T07:39:07Z</time>
      </trkpt>
      <trkpt lat="44.49575" lon="5.91352">
        <ele>1303.4000244141</ele>
        <time>2021-09-01T07:39:11Z</time>
      </trkpt>
      <trkpt lat="44.49574" lon="5.91357">
        <ele>1303.1999511719</ele>
        <time>2021-09-01T07:39:12Z</time>
      </trkpt>
      <trkpt lat="44.49571" lon="5.91381">
        <ele>1302.4000244141</ele>
        <time>2021-09-01T07:39:17Z</time>
      </trkpt>
      <trkpt lat="44.49571" lon="5.91387">
        <ele>1302.1999511719</ele>
        <time>2021-09-01T07:39:18Z</time>
      </trkpt>
      <trkpt lat="44.49574" lon="5.91408">
        <ele>1301.8000488281</ele>
        <time>2021-09-01T07:39:22Z</time>
      </trkpt>
      <trkpt lat="44.49574" lon="5.91425">
        <ele>1301.1999511719</ele>
        <time>2021-09-01T07:39:26Z</time>
      </trkpt>
      <trkpt lat="44.49574" lon="5.91429">
        <ele>1301</ele>
        <time>2021-09-01T07:39:27Z</time>
      </trkpt>
      <trkpt lat="44.49578" lon="5.91438">
        <ele>1300.5999755859</ele>
        <time>2021-09-01T07:39:30Z</time>
      </trkpt>
      <trkpt lat="44.4958" lon="5.91442">
        <ele>1300.5999755859</ele>
        <time>2021-09-01T07:39:31Z</time>
      </trkpt>
      <trkpt lat="44.49588" lon="5.91451">
        <ele>1300.5999755859</ele>
        <time>2021-09-01T07:39:34Z</time>
      </trkpt>
      <trkpt lat="44.4959" lon="5.91454">
        <ele>1300.1999511719</ele>
        <time>2021-09-01T07:39:35Z</time>
      </trkpt>
      <trkpt lat="44.49595" lon="5.91458">
        <ele>1300</ele>
        <time>2021-09-01T07:39:37Z</time>
      </trkpt>
      <trkpt lat="44.49603" lon="5.91468">
        <ele>1300</ele>
        <time>2021-09-01T07:39:42Z</time>
      </trkpt>
      <trkpt lat="44.49615" lon="5.9149">
        <ele>1300.1999511719</ele>
        <time>2021-09-01T07:39:49Z</time>
      </trkpt>
      <trkpt lat="44.49622" lon="5.91519">
        <ele>1299.8000488281</ele>
        <time>2021-09-01T07:39:56Z</time>
      </trkpt>
      <trkpt lat="44.49638" lon="5.91546">
        <ele>1299.1999511719</ele>
        <time>2021-09-01T07:40:02Z</time>
      </trkpt>
      <trkpt lat="44.4964" lon="5.91552">
        <ele>1299</ele>
        <time>2021-09-01T07:40:03Z</time>
      </trkpt>
      <trkpt lat="44.49639" lon="5.91563">
        <ele>1298.5999755859</ele>
        <time>2021-09-01T07:40:05Z</time>
      </trkpt>
      <trkpt lat="44.49639" lon="5.91584">
        <ele>1298.1999511719</ele>
        <time>2021-09-01T07:40:10Z</time>
      </trkpt>
      <trkpt lat="44.4964" lon="5.91588">
        <ele>1298.1999511719</ele>
        <time>2021-09-01T07:40:11Z</time>
      </trkpt>
      <trkpt lat="44.49646" lon="5.91611">
        <ele>1298</ele>
        <time>2021-09-01T07:40:17Z</time>
      </trkpt>
      <trkpt lat="44.49646" lon="5.91615">
        <ele>1298</ele>
        <time>2021-09-01T07:40:18Z</time>
      </trkpt>
      <trkpt lat="44.49643" lon="5.91632">
        <ele>1297.8000488281</ele>
        <time>2021-09-01T07:40:22Z</time>
      </trkpt>
      <trkpt lat="44.49632" lon="5.91636">
        <ele>1297.5999755859</ele>
        <time>2021-09-01T07:40:26Z</time>
      </trkpt>
      <trkpt lat="44.49612" lon="5.9163">
        <ele>1298</ele>
        <time>2021-09-01T07:40:32Z</time>
      </trkpt>
      <trkpt lat="44.49595" lon="5.91618">
        <ele>1298.5999755859</ele>
        <time>2021-09-01T07:40:38Z</time>
      </trkpt>
      <trkpt lat="44.49581" lon="5.91611">
        <ele>1299</ele>
        <time>2021-09-01T07:40:43Z</time>
      </trkpt>
      <trkpt lat="44.49578" lon="5.91611">
        <ele>1299</ele>
        <time>2021-09-01T07:40:44Z</time>
      </trkpt>
      <trkpt lat="44.49557" lon="5.91613">
        <ele>1299.5999755859</ele>
        <time>2021-09-01T07:40:51Z</time>
      </trkpt>
      <trkpt lat="44.49533" lon="5.91616">
        <ele>1299.5999755859</ele>
        <time>2021-09-01T07:40:58Z</time>
      </trkpt>
      <trkpt lat="44.49519" lon="5.91626">
        <ele>1299.4000244141</ele>
        <time>2021-09-01T07:41:03Z</time>
      </trkpt>
      <trkpt lat="44.49518" lon="5.91626">
        <ele>1299.4000244141</ele>
        <time>2021-09-01T07:41:04Z</time>
      </trkpt>
      <trkpt lat="44.49515" lon="5.91626">
        <ele>1299</ele>
        <time>2021-09-01T07:41:07Z</time>
      </trkpt>
      <trkpt lat="44.49517" lon="5.91632">
        <ele>1298.5999755859</ele>
        <time>2021-09-01T07:41:17Z</time>
      </trkpt>
      <trkpt lat="44.49516" lon="5.91638">
        <ele>1298.8000488281</ele>
        <time>2021-09-01T07:41:19Z</time>
      </trkpt>
      <trkpt lat="44.49513" lon="5.91657">
        <ele>1298.8000488281</ele>
        <time>2021-09-01T07:41:25Z</time>
      </trkpt>
      <trkpt lat="44.49511" lon="5.91668">
        <ele>1298.8000488281</ele>
        <time>2021-09-01T07:41:28Z</time>
      </trkpt>
      <trkpt lat="44.4951" lon="5.91681">
        <ele>1298.8000488281</ele>
        <time>2021-09-01T07:41:31Z</time>
      </trkpt>
      <trkpt lat="44.49509" lon="5.91699">
        <ele>1299.1999511719</ele>
        <time>2021-09-01T07:41:35Z</time>
      </trkpt>
      <trkpt lat="44.49508" lon="5.91722">
        <ele>1299.1999511719</ele>
        <time>2021-09-01T07:41:40Z</time>
      </trkpt>
      <trkpt lat="44.49514" lon="5.91752">
        <ele>1299.5999755859</ele>
        <time>2021-09-01T07:41:47Z</time>
      </trkpt>
      <trkpt lat="44.49522" lon="5.91773">
        <ele>1300</ele>
        <time>2021-09-01T07:41:52Z</time>
      </trkpt>
      <trkpt lat="44.49525" lon="5.91781">
        <ele>1300.1999511719</ele>
        <time>2021-09-01T07:41:54Z</time>
      </trkpt>
      <trkpt lat="44.49535" lon="5.91804">
        <ele>1300.4000244141</ele>
        <time>2021-09-01T07:42:00Z</time>
      </trkpt>
      <trkpt lat="44.49542" lon="5.91828">
        <ele>1300.8000488281</ele>
        <time>2021-09-01T07:42:06Z</time>
      </trkpt>
      <trkpt lat="44.49546" lon="5.91844">
        <ele>1301</ele>
        <time>2021-09-01T07:42:10Z</time>
      </trkpt>
      <trkpt lat="44.49544" lon="5.91857">
        <ele>1301.1999511719</ele>
        <time>2021-09-01T07:42:13Z</time>
      </trkpt>
      <trkpt lat="44.4954" lon="5.9186">
        <ele>1301.4000244141</ele>
        <time>2021-09-01T07:42:14Z</time>
      </trkpt>
      <trkpt lat="44.49533" lon="5.91862">
        <ele>1301.4000244141</ele>
        <time>2021-09-01T07:42:16Z</time>
      </trkpt>
      <trkpt lat="44.49521" lon="5.91863">
        <ele>1301.4000244141</ele>
        <time>2021-09-01T07:42:19Z</time>
      </trkpt>
      <trkpt lat="44.49513" lon="5.91865">
        <ele>1301.4000244141</ele>
        <time>2021-09-01T07:42:21Z</time>
      </trkpt>
      <trkpt lat="44.49494" lon="5.91876">
        <ele>1301.4000244141</ele>
        <time>2021-09-01T07:42:27Z</time>
      </trkpt>
      <trkpt lat="44.49474" lon="5.91887">
        <ele>1301.5999755859</ele>
        <time>2021-09-01T07:42:34Z</time>
      </trkpt>
      <trkpt lat="44.49452" lon="5.91902">
        <ele>1302</ele>
        <time>2021-09-01T07:42:42Z</time>
      </trkpt>
      <trkpt lat="44.49443" lon="5.91914">
        <ele>1302.1999511719</ele>
        <time>2021-09-01T07:42:46Z</time>
      </trkpt>
      <trkpt lat="44.4944" lon="5.91921">
        <ele>1302.1999511719</ele>
        <time>2021-09-01T07:42:48Z</time>
      </trkpt>
      <trkpt lat="44.49435" lon="5.91943">
        <ele>1302.4000244141</ele>
        <time>2021-09-01T07:42:54Z</time>
      </trkpt>
      <trkpt lat="44.49427" lon="5.91958">
        <ele>1302.5999755859</ele>
        <time>2021-09-01T07:42:59Z</time>
      </trkpt>
      <trkpt lat="44.49411" lon="5.9197">
        <ele>1303</ele>
        <time>2021-09-01T07:43:06Z</time>
      </trkpt>
      <trkpt lat="44.49402" lon="5.91975">
        <ele>1303.1999511719</ele>
        <time>2021-09-01T07:43:09Z</time>
      </trkpt>
      <trkpt lat="44.49391" lon="5.91982">
        <ele>1303.4000244141</ele>
        <time>2021-09-01T07:43:13Z</time>
      </trkpt>
      <trkpt lat="44.49368" lon="5.91994">
        <ele>1303.8000488281</ele>
        <time>2021-09-01T07:43:21Z</time>
      </trkpt>
      <trkpt lat="44.49345" lon="5.92012">
        <ele>1303.8000488281</ele>
        <time>2021-09-01T07:43:30Z</time>
      </trkpt>
      <trkpt lat="44.4933" lon="5.92028">
        <ele>1304</ele>
        <time>2021-09-01T07:43:37Z</time>
      </trkpt>
      <trkpt lat="44.49324" lon="5.92033">
        <ele>1304.1999511719</ele>
        <time>2021-09-01T07:43:39Z</time>
      </trkpt>
      <trkpt lat="44.49307" lon="5.92045">
        <ele>1304.5999755859</ele>
        <time>2021-09-01T07:43:45Z</time>
      </trkpt>
      <trkpt lat="44.49282" lon="5.92066">
        <ele>1305</ele>
        <time>2021-09-01T07:43:54Z</time>
      </trkpt>
      <trkpt lat="44.49269" lon="5.92087">
        <ele>1305</ele>
        <time>2021-09-01T07:44:01Z</time>
      </trkpt>
      <trkpt lat="44.49269" lon="5.92093">
        <ele>1305</ele>
        <time>2021-09-01T07:44:03Z</time>
      </trkpt>
      <trkpt lat="44.49273" lon="5.92101">
        <ele>1305</ele>
        <time>2021-09-01T07:44:06Z</time>
      </trkpt>
      <trkpt lat="44.49286" lon="5.92113">
        <ele>1305.1999511719</ele>
        <time>2021-09-01T07:44:12Z</time>
      </trkpt>
      <trkpt lat="44.49291" lon="5.92117">
        <ele>1305.1999511719</ele>
        <time>2021-09-01T07:44:14Z</time>
      </trkpt>
      <trkpt lat="44.49302" lon="5.92132">
        <ele>1305.4000244141</ele>
        <time>2021-09-01T07:44:19Z</time>
      </trkpt>
      <trkpt lat="44.49308" lon="5.92157">
        <ele>1305.5999755859</ele>
        <time>2021-09-01T07:44:25Z</time>
      </trkpt>
      <trkpt lat="44.4931" lon="5.92187">
        <ele>1305.8000488281</ele>
        <time>2021-09-01T07:44:32Z</time>
      </trkpt>
      <trkpt lat="44.4931" lon="5.92215">
        <ele>1306.1999511719</ele>
        <time>2021-09-01T07:44:38Z</time>
      </trkpt>
      <trkpt lat="44.49311" lon="5.92224">
        <ele>1306.4000244141</ele>
        <time>2021-09-01T07:44:40Z</time>
      </trkpt>
      <trkpt lat="44.49314" lon="5.92265">
        <ele>1306.4000244141</ele>
        <time>2021-09-01T07:44:49Z</time>
      </trkpt>
      <trkpt lat="44.49321" lon="5.92301">
        <ele>1306.8000488281</ele>
        <time>2021-09-01T07:44:57Z</time>
      </trkpt>
      <trkpt lat="44.49327" lon="5.92335">
        <ele>1307</ele>
        <time>2021-09-01T07:45:05Z</time>
      </trkpt>
      <trkpt lat="44.49328" lon="5.92348">
        <ele>1307.1999511719</ele>
        <time>2021-09-01T07:45:08Z</time>
      </trkpt>
      <trkpt lat="44.4933" lon="5.9236">
        <ele>1307.4000244141</ele>
        <time>2021-09-01T07:45:11Z</time>
      </trkpt>
      <trkpt lat="44.49337" lon="5.92377">
        <ele>1307.5999755859</ele>
        <time>2021-09-01T07:45:16Z</time>
      </trkpt>
      <trkpt lat="44.49348" lon="5.9239">
        <ele>1307.8000488281</ele>
        <time>2021-09-01T07:45:21Z</time>
      </trkpt>
      <trkpt lat="44.49361" lon="5.92415">
        <ele>1308</ele>
        <time>2021-09-01T07:45:28Z</time>
      </trkpt>
      <trkpt lat="44.49373" lon="5.92438">
        <ele>1308.1999511719</ele>
        <time>2021-09-01T07:45:34Z</time>
      </trkpt>
      <trkpt lat="44.49374" lon="5.92443">
        <ele>1308.4000244141</ele>
        <time>2021-09-01T07:45:35Z</time>
      </trkpt>
      <trkpt lat="44.49383" lon="5.92467">
        <ele>1308.5999755859</ele>
        <time>2021-09-01T07:45:41Z</time>
      </trkpt>
      <trkpt lat="44.49386" lon="5.92491">
        <ele>1309</ele>
        <time>2021-09-01T07:45:46Z</time>
      </trkpt>
      <trkpt lat="44.49396" lon="5.92517">
        <ele>1309.1999511719</ele>
        <time>2021-09-01T07:45:52Z</time>
      </trkpt>
      <trkpt lat="44.49406" lon="5.92533">
        <ele>1309.4000244141</ele>
        <time>2021-09-01T07:45:57Z</time>
      </trkpt>
      <trkpt lat="44.4941" lon="5.92541">
        <ele>1309.8000488281</ele>
        <time>2021-09-01T07:46:00Z</time>
      </trkpt>
      <trkpt lat="44.49414" lon="5.92554">
        <ele>1310.4000244141</ele>
        <time>2021-09-01T07:46:06Z</time>
      </trkpt>
      <trkpt lat="44.49414" lon="5.92557">
        <ele>1310.5999755859</ele>
        <time>2021-09-01T07:46:07Z</time>
      </trkpt>
      <trkpt lat="44.4941" lon="5.92574">
        <ele>1311.1999511719</ele>
        <time>2021-09-01T07:46:12Z</time>
      </trkpt>
      <trkpt lat="44.49394" lon="5.92587">
        <ele>1311.4000244141</ele>
        <time>2021-09-01T07:46:18Z</time>
      </trkpt>
      <trkpt lat="44.49389" lon="5.92591">
        <ele>1311.4000244141</ele>
        <time>2021-09-01T07:46:20Z</time>
      </trkpt>
      <trkpt lat="44.49375" lon="5.92596">
        <ele>1312</ele>
        <time>2021-09-01T07:46:25Z</time>
      </trkpt>
      <trkpt lat="44.49359" lon="5.92595">
        <ele>1312</ele>
        <time>2021-09-01T07:46:31Z</time>
      </trkpt>
      <trkpt lat="44.49341" lon="5.92593">
        <ele>1312</ele>
        <time>2021-09-01T07:46:37Z</time>
      </trkpt>
      <trkpt lat="44.49329" lon="5.92601">
        <ele>1312.1999511719</ele>
        <time>2021-09-01T07:46:41Z</time>
      </trkpt>
      <trkpt lat="44.49315" lon="5.92603">
        <ele>1312</ele>
        <time>2021-09-01T07:46:45Z</time>
      </trkpt>
      <trkpt lat="44.49292" lon="5.92594">
        <ele>1311.4000244141</ele>
        <time>2021-09-01T07:46:51Z</time>
      </trkpt>
      <trkpt lat="44.49281" lon="5.92587">
        <ele>1311.4000244141</ele>
        <time>2021-09-01T07:46:55Z</time>
      </trkpt>
      <trkpt lat="44.49261" lon="5.92584">
        <ele>1312</ele>
        <time>2021-09-01T07:47:01Z</time>
      </trkpt>
      <trkpt lat="44.4924" lon="5.92588">
        <ele>1312</ele>
        <time>2021-09-01T07:47:07Z</time>
      </trkpt>
      <trkpt lat="44.49223" lon="5.92591">
        <ele>1312</ele>
        <time>2021-09-01T07:47:12Z</time>
      </trkpt>
      <trkpt lat="44.49207" lon="5.92594">
        <ele>1312</ele>
        <time>2021-09-01T07:47:17Z</time>
      </trkpt>
      <trkpt lat="44.49189" lon="5.92593">
        <ele>1312.1999511719</ele>
        <time>2021-09-01T07:47:23Z</time>
      </trkpt>
      <trkpt lat="44.49168" lon="5.9259">
        <ele>1312.1999511719</ele>
        <time>2021-09-01T07:47:29Z</time>
      </trkpt>
      <trkpt lat="44.4916" lon="5.9259">
        <ele>1312.1999511719</ele>
        <time>2021-09-01T07:47:31Z</time>
      </trkpt>
      <trkpt lat="44.49152" lon="5.92591">
        <ele>1312.1999511719</ele>
        <time>2021-09-01T07:47:33Z</time>
      </trkpt>
      <trkpt lat="44.49143" lon="5.92594">
        <ele>1312.1999511719</ele>
        <time>2021-09-01T07:47:35Z</time>
      </trkpt>
      <trkpt lat="44.49131" lon="5.926">
        <ele>1312.1999511719</ele>
        <time>2021-09-01T07:47:38Z</time>
      </trkpt>
      <trkpt lat="44.49116" lon="5.92612">
        <ele>1312.1999511719</ele>
        <time>2021-09-01T07:47:42Z</time>
      </trkpt>
      <trkpt lat="44.49109" lon="5.92618">
        <ele>1312.1999511719</ele>
        <time>2021-09-01T07:47:44Z</time>
      </trkpt>
      <trkpt lat="44.49094" lon="5.92633">
        <ele>1312.4000244141</ele>
        <time>2021-09-01T07:47:48Z</time>
      </trkpt>
      <trkpt lat="44.49071" lon="5.9266">
        <ele>1312.1999511719</ele>
        <time>2021-09-01T07:47:55Z</time>
      </trkpt>
      <trkpt lat="44.49068" lon="5.92666">
        <ele>1312.1999511719</ele>
        <time>2021-09-01T07:47:56Z</time>
      </trkpt>
      <trkpt lat="44.49062" lon="5.92683">
        <ele>1312.1999511719</ele>
        <time>2021-09-01T07:47:59Z</time>
      </trkpt>
      <trkpt lat="44.49061" lon="5.92689">
        <ele>1312.1999511719</ele>
        <time>2021-09-01T07:48:00Z</time>
      </trkpt>
      <trkpt lat="44.49055" lon="5.92726">
        <ele>1312.1999511719</ele>
        <time>2021-09-01T07:48:06Z</time>
      </trkpt>
      <trkpt lat="44.49054" lon="5.92739">
        <ele>1312.1999511719</ele>
        <time>2021-09-01T07:48:08Z</time>
      </trkpt>
      <trkpt lat="44.49053" lon="5.9275">
        <ele>1312.1999511719</ele>
        <time>2021-09-01T07:48:10Z</time>
      </trkpt>
      <trkpt lat="44.49046" lon="5.92769">
        <ele>1312.1999511719</ele>
        <time>2021-09-01T07:48:14Z</time>
      </trkpt>
      <trkpt lat="44.49039" lon="5.92791">
        <ele>1312.1999511719</ele>
        <time>2021-09-01T07:48:18Z</time>
      </trkpt>
      <trkpt lat="44.49037" lon="5.92802">
        <ele>1312.1999511719</ele>
        <time>2021-09-01T07:48:20Z</time>
      </trkpt>
      <trkpt lat="44.49031" lon="5.92833">
        <ele>1312.1999511719</ele>
        <time>2021-09-01T07:48:26Z</time>
      </trkpt>
      <trkpt lat="44.49035" lon="5.92859">
        <ele>1312.5999755859</ele>
        <time>2021-09-01T07:48:31Z</time>
      </trkpt>
      <trkpt lat="44.49033" lon="5.92869">
        <ele>1312.5999755859</ele>
        <time>2021-09-01T07:48:33Z</time>
      </trkpt>
      <trkpt lat="44.4903" lon="5.92873">
        <ele>1312.8000488281</ele>
        <time>2021-09-01T07:48:34Z</time>
      </trkpt>
      <trkpt lat="44.49017" lon="5.92882">
        <ele>1313.1999511719</ele>
        <time>2021-09-01T07:48:38Z</time>
      </trkpt>
      <trkpt lat="44.49007" lon="5.92892">
        <ele>1313.4000244141</ele>
        <time>2021-09-01T07:48:41Z</time>
      </trkpt>
      <trkpt lat="44.49" lon="5.92898">
        <ele>1313.4000244141</ele>
        <time>2021-09-01T07:48:43Z</time>
      </trkpt>
      <trkpt lat="44.48996" lon="5.92902">
        <ele>1313.1999511719</ele>
        <time>2021-09-01T07:48:44Z</time>
      </trkpt>
      <trkpt lat="44.48989" lon="5.92917">
        <ele>1313</ele>
        <time>2021-09-01T07:48:47Z</time>
      </trkpt>
      <trkpt lat="44.48978" lon="5.92953">
        <ele>1312.1999511719</ele>
        <time>2021-09-01T07:48:54Z</time>
      </trkpt>
      <trkpt lat="44.48975" lon="5.92964">
        <ele>1312.1999511719</ele>
        <time>2021-09-01T07:48:56Z</time>
      </trkpt>
      <trkpt lat="44.48967" lon="5.92984">
        <ele>1312.1999511719</ele>
        <time>2021-09-01T07:49:00Z</time>
      </trkpt>
      <trkpt lat="44.48964" lon="5.92988">
        <ele>1312.1999511719</ele>
        <time>2021-09-01T07:49:01Z</time>
      </trkpt>
      <trkpt lat="44.48961" lon="5.92992">
        <ele>1312.1999511719</ele>
        <time>2021-09-01T07:49:02Z</time>
      </trkpt>
      <trkpt lat="44.48948" lon="5.93007">
        <ele>1312.1999511719</ele>
        <time>2021-09-01T07:49:06Z</time>
      </trkpt>
      <trkpt lat="44.48944" lon="5.9301">
        <ele>1312.1999511719</ele>
        <time>2021-09-01T07:49:07Z</time>
      </trkpt>
      <trkpt lat="44.48936" lon="5.93014">
        <ele>1312.4000244141</ele>
        <time>2021-09-01T07:49:09Z</time>
      </trkpt>
      <trkpt lat="44.48921" lon="5.93022">
        <ele>1312.5999755859</ele>
        <time>2021-09-01T07:49:13Z</time>
      </trkpt>
      <trkpt lat="44.489" lon="5.93034">
        <ele>1312.5999755859</ele>
        <time>2021-09-01T07:49:19Z</time>
      </trkpt>
      <trkpt lat="44.48892" lon="5.9304">
        <ele>1312.5999755859</ele>
        <time>2021-09-01T07:49:21Z</time>
      </trkpt>
      <trkpt lat="44.48882" lon="5.93051">
        <ele>1312.5999755859</ele>
        <time>2021-09-01T07:49:24Z</time>
      </trkpt>
      <trkpt lat="44.48878" lon="5.93054">
        <ele>1312.5999755859</ele>
        <time>2021-09-01T07:49:25Z</time>
      </trkpt>
      <trkpt lat="44.48874" lon="5.93057">
        <ele>1312.5999755859</ele>
        <time>2021-09-01T07:49:26Z</time>
      </trkpt>
      <trkpt lat="44.48863" lon="5.93063">
        <ele>1312.5999755859</ele>
        <time>2021-09-01T07:49:29Z</time>
      </trkpt>
      <trkpt lat="44.48857" lon="5.93067">
        <ele>1312.5999755859</ele>
        <time>2021-09-01T07:49:31Z</time>
      </trkpt>
      <trkpt lat="44.48848" lon="5.93076">
        <ele>1312.5999755859</ele>
        <time>2021-09-01T07:49:34Z</time>
      </trkpt>
      <trkpt lat="44.48829" lon="5.93101">
        <ele>1312.4000244141</ele>
        <time>2021-09-01T07:49:41Z</time>
      </trkpt>
      <trkpt lat="44.48831" lon="5.93115">
        <ele>1312.1999511719</ele>
        <time>2021-09-01T07:49:45Z</time>
      </trkpt>
      <trkpt lat="44.48833" lon="5.93118">
        <ele>1312.1999511719</ele>
        <time>2021-09-01T07:49:46Z</time>
      </trkpt>
      <trkpt lat="44.4884" lon="5.93121">
        <ele>1312</ele>
        <time>2021-09-01T07:49:50Z</time>
      </trkpt>
      <trkpt lat="44.48848" lon="5.93118">
        <ele>1312</ele>
        <time>2021-09-01T07:49:53Z</time>
      </trkpt>
      <trkpt lat="44.48857" lon="5.93115">
        <ele>1312</ele>
        <time>2021-09-01T07:49:56Z</time>
      </trkpt>
      <trkpt lat="44.48876" lon="5.9311">
        <ele>1312.1999511719</ele>
        <time>2021-09-01T07:50:02Z</time>
      </trkpt>
      <trkpt lat="44.489" lon="5.931">
        <ele>1312.4000244141</ele>
        <time>2021-09-01T07:50:09Z</time>
      </trkpt>
      <trkpt lat="44.48926" lon="5.93088">
        <ele>1312.4000244141</ele>
        <time>2021-09-01T07:50:16Z</time>
      </trkpt>
      <trkpt lat="44.48941" lon="5.93081">
        <ele>1312.4000244141</ele>
        <time>2021-09-01T07:50:21Z</time>
      </trkpt>
      <trkpt lat="44.48941" lon="5.93081">
        <ele>1312.4000244141</ele>
        <time>2021-09-01T07:50:22Z</time>
      </trkpt>
      <trkpt lat="44.48944" lon="5.93078">
        <ele>1312.5999755859</ele>
        <time>2021-09-01T07:50:54Z</time>
      </trkpt>
      <trkpt lat="44.48947" lon="5.93076">
        <ele>1312.5999755859</ele>
        <time>2021-09-01T07:50:56Z</time>
      </trkpt>
      <trkpt lat="44.48963" lon="5.93062">
        <ele>1312.8000488281</ele>
        <time>2021-09-01T07:51:04Z</time>
      </trkpt>
      <trkpt lat="44.48989" lon="5.93052">
        <ele>1312.8000488281</ele>
        <time>2021-09-01T07:51:12Z</time>
      </trkpt>
      <trkpt lat="44.4901" lon="5.93053">
        <ele>1312.8000488281</ele>
        <time>2021-09-01T07:51:18Z</time>
      </trkpt>
      <trkpt lat="44.49029" lon="5.9306">
        <ele>1313</ele>
        <time>2021-09-01T07:51:23Z</time>
      </trkpt>
      <trkpt lat="44.49052" lon="5.93059">
        <ele>1313</ele>
        <time>2021-09-01T07:51:29Z</time>
      </trkpt>
      <trkpt lat="44.49065" lon="5.93061">
        <ele>1313.4000244141</ele>
        <time>2021-09-01T07:51:34Z</time>
      </trkpt>
      <trkpt lat="44.49067" lon="5.93062">
        <ele>1313.5999755859</ele>
        <time>2021-09-01T07:51:35Z</time>
      </trkpt>
      <trkpt lat="44.49073" lon="5.93061">
        <ele>1313.5999755859</ele>
        <time>2021-09-01T07:51:38Z</time>
      </trkpt>
      <trkpt lat="44.49076" lon="5.93062">
        <ele>1313.5999755859</ele>
        <time>2021-09-01T07:51:39Z</time>
      </trkpt>
      <trkpt lat="44.49086" lon="5.93066">
        <ele>1313.5999755859</ele>
        <time>2021-09-01T07:51:43Z</time>
      </trkpt>
      <trkpt lat="44.49092" lon="5.93069">
        <ele>1313.5999755859</ele>
        <time>2021-09-01T07:51:45Z</time>
      </trkpt>
      <trkpt lat="44.49109" lon="5.93071">
        <ele>1313.5999755859</ele>
        <time>2021-09-01T07:51:51Z</time>
      </trkpt>
      <trkpt lat="44.49115" lon="5.93073">
        <ele>1313.5999755859</ele>
        <time>2021-09-01T07:51:54Z</time>
      </trkpt>
      <trkpt lat="44.49118" lon="5.93077">
        <ele>1313.5999755859</ele>
        <time>2021-09-01T07:51:56Z</time>
      </trkpt>
      <trkpt lat="44.49122" lon="5.93098">
        <ele>1313.8000488281</ele>
        <time>2021-09-01T07:52:01Z</time>
      </trkpt>
      <trkpt lat="44.4913" lon="5.93127">
        <ele>1313.8000488281</ele>
        <time>2021-09-01T07:52:07Z</time>
      </trkpt>
      <trkpt lat="44.49144" lon="5.93145">
        <ele>1313.4000244141</ele>
        <time>2021-09-01T07:52:12Z</time>
      </trkpt>
      <trkpt lat="44.49161" lon="5.93169">
        <ele>1313.1999511719</ele>
        <time>2021-09-01T07:52:18Z</time>
      </trkpt>
      <trkpt lat="44.49172" lon="5.9318">
        <ele>1313.1999511719</ele>
        <time>2021-09-01T07:52:21Z</time>
      </trkpt>
      <trkpt lat="44.49183" lon="5.93188">
        <ele>1313.1999511719</ele>
        <time>2021-09-01T07:52:24Z</time>
      </trkpt>
      <trkpt lat="44.49187" lon="5.93191">
        <ele>1313.1999511719</ele>
        <time>2021-09-01T07:52:25Z</time>
      </trkpt>
      <trkpt lat="44.49195" lon="5.93209">
        <ele>1313.1999511719</ele>
        <time>2021-09-01T07:52:29Z</time>
      </trkpt>
      <trkpt lat="44.49193" lon="5.93227">
        <ele>1313.4000244141</ele>
        <time>2021-09-01T07:52:33Z</time>
      </trkpt>
      <trkpt lat="44.49182" lon="5.93242">
        <ele>1313.8000488281</ele>
        <time>2021-09-01T07:52:37Z</time>
      </trkpt>
      <trkpt lat="44.49164" lon="5.93264">
        <ele>1313.8000488281</ele>
        <time>2021-09-01T07:52:43Z</time>
      </trkpt>
      <trkpt lat="44.49143" lon="5.93273">
        <ele>1313.5999755859</ele>
        <time>2021-09-01T07:52:48Z</time>
      </trkpt>
      <trkpt lat="44.49138" lon="5.93273">
        <ele>1313.5999755859</ele>
        <time>2021-09-01T07:52:49Z</time>
      </trkpt>
      <trkpt lat="44.49125" lon="5.93271">
        <ele>1313.5999755859</ele>
        <time>2021-09-01T07:52:52Z</time>
      </trkpt>
      <trkpt lat="44.49121" lon="5.9327">
        <ele>1313.4000244141</ele>
        <time>2021-09-01T07:52:53Z</time>
      </trkpt>
      <trkpt lat="44.491" lon="5.93268">
        <ele>1313.4000244141</ele>
        <time>2021-09-01T07:52:58Z</time>
      </trkpt>
      <trkpt lat="44.49082" lon="5.93277">
        <ele>1313.5999755859</ele>
        <time>2021-09-01T07:53:03Z</time>
      </trkpt>
      <trkpt lat="44.49072" lon="5.93288">
        <ele>1313.8000488281</ele>
        <time>2021-09-01T07:53:06Z</time>
      </trkpt>
      <trkpt lat="44.49064" lon="5.93303">
        <ele>1313.8000488281</ele>
        <time>2021-09-01T07:53:09Z</time>
      </trkpt>
      <trkpt lat="44.49056" lon="5.93318">
        <ele>1313.8000488281</ele>
        <time>2021-09-01T07:53:12Z</time>
      </trkpt>
      <trkpt lat="44.49052" lon="5.93328">
        <ele>1313.8000488281</ele>
        <time>2021-09-01T07:53:14Z</time>
      </trkpt>
      <trkpt lat="44.49045" lon="5.93336">
        <ele>1313.8000488281</ele>
        <time>2021-09-01T07:53:16Z</time>
      </trkpt>
      <trkpt lat="44.49033" lon="5.93339">
        <ele>1314</ele>
        <time>2021-09-01T07:53:19Z</time>
      </trkpt>
      <trkpt lat="44.49019" lon="5.9335">
        <ele>1314.1999511719</ele>
        <time>2021-09-01T07:53:23Z</time>
      </trkpt>
      <trkpt lat="44.49015" lon="5.93354">
        <ele>1314.1999511719</ele>
        <time>2021-09-01T07:53:24Z</time>
      </trkpt>
      <trkpt lat="44.48995" lon="5.93384">
        <ele>1314.5999755859</ele>
        <time>2021-09-01T07:53:31Z</time>
      </trkpt>
      <trkpt lat="44.48987" lon="5.93404">
        <ele>1314.5999755859</ele>
        <time>2021-09-01T07:53:35Z</time>
      </trkpt>
      <trkpt lat="44.48986" lon="5.9341">
        <ele>1314.5999755859</ele>
        <time>2021-09-01T07:53:36Z</time>
      </trkpt>
      <trkpt lat="44.48985" lon="5.93416">
        <ele>1314.5999755859</ele>
        <time>2021-09-01T07:53:37Z</time>
      </trkpt>
      <trkpt lat="44.48986" lon="5.93443">
        <ele>1314.8000488281</ele>
        <time>2021-09-01T07:53:41Z</time>
      </trkpt>
      <trkpt lat="44.48986" lon="5.93473">
        <ele>1315</ele>
        <time>2021-09-01T07:53:46Z</time>
      </trkpt>
      <trkpt lat="44.48976" lon="5.935">
        <ele>1315</ele>
        <time>2021-09-01T07:53:51Z</time>
      </trkpt>
      <trkpt lat="44.48966" lon="5.93529">
        <ele>1314.8000488281</ele>
        <time>2021-09-01T07:53:56Z</time>
      </trkpt>
      <trkpt lat="44.48963" lon="5.93532">
        <ele>1314.5999755859</ele>
        <time>2021-09-01T07:53:57Z</time>
      </trkpt>
      <trkpt lat="44.48951" lon="5.93541">
        <ele>1314.4000244141</ele>
        <time>2021-09-01T07:54:00Z</time>
      </trkpt>
      <trkpt lat="44.48946" lon="5.93543">
        <ele>1314.4000244141</ele>
        <time>2021-09-01T07:54:01Z</time>
      </trkpt>
      <trkpt lat="44.48932" lon="5.93556">
        <ele>1314.1999511719</ele>
        <time>2021-09-01T07:54:05Z</time>
      </trkpt>
      <trkpt lat="44.48928" lon="5.93561">
        <ele>1314.1999511719</ele>
        <time>2021-09-01T07:54:06Z</time>
      </trkpt>
      <trkpt lat="44.4892" lon="5.93586">
        <ele>1314</ele>
        <time>2021-09-01T07:54:11Z</time>
      </trkpt>
      <trkpt lat="44.48929" lon="5.93602">
        <ele>1314</ele>
        <time>2021-09-01T07:54:14Z</time>
      </trkpt>
      <trkpt lat="44.48937" lon="5.93618">
        <ele>1314</ele>
        <time>2021-09-01T07:54:17Z</time>
      </trkpt>
      <trkpt lat="44.48941" lon="5.9363">
        <ele>1314</ele>
        <time>2021-09-01T07:54:19Z</time>
      </trkpt>
      <trkpt lat="44.48955" lon="5.93659">
        <ele>1314</ele>
        <time>2021-09-01T07:54:25Z</time>
      </trkpt>
      <trkpt lat="44.48954" lon="5.93675">
        <ele>1314.1999511719</ele>
        <time>2021-09-01T07:54:28Z</time>
      </trkpt>
      <trkpt lat="44.48951" lon="5.93683">
        <ele>1314.1999511719</ele>
        <time>2021-09-01T07:54:30Z</time>
      </trkpt>
      <trkpt lat="44.48947" lon="5.93688">
        <ele>1314.1999511719</ele>
        <time>2021-09-01T07:54:32Z</time>
      </trkpt>
      <trkpt lat="44.48936" lon="5.93706">
        <ele>1314.1999511719</ele>
        <time>2021-09-01T07:54:37Z</time>
      </trkpt>
      <trkpt lat="44.48939" lon="5.93718">
        <ele>1314.4000244141</ele>
        <time>2021-09-01T07:54:40Z</time>
      </trkpt>
      <trkpt lat="44.48942" lon="5.9373">
        <ele>1314.5999755859</ele>
        <time>2021-09-01T07:54:44Z</time>
      </trkpt>
      <trkpt lat="44.4894" lon="5.93738">
        <ele>1314.8000488281</ele>
        <time>2021-09-01T07:54:46Z</time>
      </trkpt>
      <trkpt lat="44.48937" lon="5.93742">
        <ele>1315</ele>
        <time>2021-09-01T07:54:48Z</time>
      </trkpt>
      <trkpt lat="44.48928" lon="5.93744">
        <ele>1315.1999511719</ele>
        <time>2021-09-01T07:54:51Z</time>
      </trkpt>
      <trkpt lat="44.48925" lon="5.93743">
        <ele>1315.1999511719</ele>
        <time>2021-09-01T07:54:52Z</time>
      </trkpt>
      <trkpt lat="44.4891" lon="5.93736">
        <ele>1315.4000244141</ele>
        <time>2021-09-01T07:54:57Z</time>
      </trkpt>
      <trkpt lat="44.48887" lon="5.93718">
        <ele>1314.8000488281</ele>
        <time>2021-09-01T07:55:04Z</time>
      </trkpt>
      <trkpt lat="44.48877" lon="5.93723">
        <ele>1314.4000244141</ele>
        <time>2021-09-01T07:55:07Z</time>
      </trkpt>
      <trkpt lat="44.48874" lon="5.93725">
        <ele>1314.4000244141</ele>
        <time>2021-09-01T07:55:08Z</time>
      </trkpt>
      <trkpt lat="44.48862" lon="5.9374">
        <ele>1314.4000244141</ele>
        <time>2021-09-01T07:55:13Z</time>
      </trkpt>
      <trkpt lat="44.48858" lon="5.93765">
        <ele>1314.5999755859</ele>
        <time>2021-09-01T07:55:18Z</time>
      </trkpt>
      <trkpt lat="44.48863" lon="5.93782">
        <ele>1314.8000488281</ele>
        <time>2021-09-01T07:55:22Z</time>
      </trkpt>
      <trkpt lat="44.48865" lon="5.93807">
        <ele>1315.1999511719</ele>
        <time>2021-09-01T07:55:28Z</time>
      </trkpt>
      <trkpt lat="44.48864" lon="5.9383">
        <ele>1315.5999755859</ele>
        <time>2021-09-01T07:55:33Z</time>
      </trkpt>
      <trkpt lat="44.48865" lon="5.93842">
        <ele>1315.8000488281</ele>
        <time>2021-09-01T07:55:36Z</time>
      </trkpt>
      <trkpt lat="44.48864" lon="5.93845">
        <ele>1316</ele>
        <time>2021-09-01T07:55:37Z</time>
      </trkpt>
      <trkpt lat="44.48857" lon="5.93854">
        <ele>1316.1999511719</ele>
        <time>2021-09-01T07:55:41Z</time>
      </trkpt>
      <trkpt lat="44.48855" lon="5.93853">
        <ele>1316.4000244141</ele>
        <time>2021-09-01T07:55:42Z</time>
      </trkpt>
      <trkpt lat="44.48841" lon="5.93853">
        <ele>1316.5999755859</ele>
        <time>2021-09-01T07:55:46Z</time>
      </trkpt>
      <trkpt lat="44.48825" lon="5.93847">
        <ele>1316.4000244141</ele>
        <time>2021-09-01T07:55:51Z</time>
      </trkpt>
      <trkpt lat="44.4881" lon="5.9383">
        <ele>1315.8000488281</ele>
        <time>2021-09-01T07:55:58Z</time>
      </trkpt>
      <trkpt lat="44.48789" lon="5.93819">
        <ele>1315.4000244141</ele>
        <time>2021-09-01T07:56:04Z</time>
      </trkpt>
      <trkpt lat="44.4877" lon="5.93821">
        <ele>1314.8000488281</ele>
        <time>2021-09-01T07:56:09Z</time>
      </trkpt>
      <trkpt lat="44.48746" lon="5.93822">
        <ele>1314.5999755859</ele>
        <time>2021-09-01T07:56:15Z</time>
      </trkpt>
      <trkpt lat="44.48738" lon="5.93825">
        <ele>1314.5999755859</ele>
        <time>2021-09-01T07:56:17Z</time>
      </trkpt>
      <trkpt lat="44.48724" lon="5.93824">
        <ele>1314.8000488281</ele>
        <time>2021-09-01T07:56:21Z</time>
      </trkpt>
      <trkpt lat="44.48722" lon="5.9382">
        <ele>1315</ele>
        <time>2021-09-01T07:56:22Z</time>
      </trkpt>
      <trkpt lat="44.4872" lon="5.93806">
        <ele>1315.1999511719</ele>
        <time>2021-09-01T07:56:25Z</time>
      </trkpt>
      <trkpt lat="44.48721" lon="5.93795">
        <ele>1315.1999511719</ele>
        <time>2021-09-01T07:56:27Z</time>
      </trkpt>
      <trkpt lat="44.48729" lon="5.93767">
        <ele>1314.8000488281</ele>
        <time>2021-09-01T07:56:32Z</time>
      </trkpt>
      <trkpt lat="44.48729" lon="5.93761">
        <ele>1314.8000488281</ele>
        <time>2021-09-01T07:56:33Z</time>
      </trkpt>
      <trkpt lat="44.48721" lon="5.9375">
        <ele>1314.5999755859</ele>
        <time>2021-09-01T07:56:36Z</time>
      </trkpt>
      <trkpt lat="44.48713" lon="5.93746">
        <ele>1314.4000244141</ele>
        <time>2021-09-01T07:56:38Z</time>
      </trkpt>
      <trkpt lat="44.48707" lon="5.93739">
        <ele>1314.1999511719</ele>
        <time>2021-09-01T07:56:40Z</time>
      </trkpt>
      <trkpt lat="44.48706" lon="5.93723">
        <ele>1314.1999511719</ele>
        <time>2021-09-01T07:56:43Z</time>
      </trkpt>
      <trkpt lat="44.48707" lon="5.93718">
        <ele>1314.1999511719</ele>
        <time>2021-09-01T07:56:44Z</time>
      </trkpt>
      <trkpt lat="44.48708" lon="5.93702">
        <ele>1314.4000244141</ele>
        <time>2021-09-01T07:56:47Z</time>
      </trkpt>
      <trkpt lat="44.48706" lon="5.93691">
        <ele>1314.5999755859</ele>
        <time>2021-09-01T07:56:49Z</time>
      </trkpt>
      <trkpt lat="44.48704" lon="5.93679">
        <ele>1314.5999755859</ele>
        <time>2021-09-01T07:56:51Z</time>
      </trkpt>
      <trkpt lat="44.48704" lon="5.93662">
        <ele>1314.5999755859</ele>
        <time>2021-09-01T07:56:54Z</time>
      </trkpt>
      <trkpt lat="44.48703" lon="5.93652">
        <ele>1314.4000244141</ele>
        <time>2021-09-01T07:56:56Z</time>
      </trkpt>
      <trkpt lat="44.48697" lon="5.93644">
        <ele>1314.4000244141</ele>
        <time>2021-09-01T07:56:58Z</time>
      </trkpt>
      <trkpt lat="44.48694" lon="5.93644">
        <ele>1314.1999511719</ele>
        <time>2021-09-01T07:56:59Z</time>
      </trkpt>
      <trkpt lat="44.4869" lon="5.93645">
        <ele>1314.1999511719</ele>
        <time>2021-09-01T07:57:00Z</time>
      </trkpt>
      <trkpt lat="44.48683" lon="5.93652">
        <ele>1314</ele>
        <time>2021-09-01T07:57:02Z</time>
      </trkpt>
      <trkpt lat="44.48674" lon="5.93665">
        <ele>1313.8000488281</ele>
        <time>2021-09-01T07:57:05Z</time>
      </trkpt>
      <trkpt lat="44.4867" lon="5.93668">
        <ele>1313.8000488281</ele>
        <time>2021-09-01T07:57:06Z</time>
      </trkpt>
      <trkpt lat="44.48662" lon="5.93668">
        <ele>1313.8000488281</ele>
        <time>2021-09-01T07:57:08Z</time>
      </trkpt>
      <trkpt lat="44.48653" lon="5.93663">
        <ele>1313.5999755859</ele>
        <time>2021-09-01T07:57:11Z</time>
      </trkpt>
      <trkpt lat="44.48648" lon="5.93658">
        <ele>1313.4000244141</ele>
        <time>2021-09-01T07:57:13Z</time>
      </trkpt>
      <trkpt lat="44.48644" lon="5.93656">
        <ele>1313.4000244141</ele>
        <time>2021-09-01T07:57:14Z</time>
      </trkpt>
      <trkpt lat="44.4864" lon="5.93656">
        <ele>1313.5999755859</ele>
        <time>2021-09-01T07:57:15Z</time>
      </trkpt>
      <trkpt lat="44.48632" lon="5.93658">
        <ele>1313.5999755859</ele>
        <time>2021-09-01T07:57:17Z</time>
      </trkpt>
      <trkpt lat="44.48615" lon="5.93677">
        <ele>1313.5999755859</ele>
        <time>2021-09-01T07:57:22Z</time>
      </trkpt>
      <trkpt lat="44.48605" lon="5.93687">
        <ele>1313.5999755859</ele>
        <time>2021-09-01T07:57:25Z</time>
      </trkpt>
      <trkpt lat="44.48601" lon="5.9369">
        <ele>1313.5999755859</ele>
        <time>2021-09-01T07:57:26Z</time>
      </trkpt>
      <trkpt lat="44.48594" lon="5.93695">
        <ele>1313.5999755859</ele>
        <time>2021-09-01T07:57:28Z</time>
      </trkpt>
      <trkpt lat="44.48585" lon="5.93705">
        <ele>1313.5999755859</ele>
        <time>2021-09-01T07:57:31Z</time>
      </trkpt>
      <trkpt lat="44.48581" lon="5.93722">
        <ele>1313.8000488281</ele>
        <time>2021-09-01T07:57:35Z</time>
      </trkpt>
      <trkpt lat="44.48581" lon="5.93731">
        <ele>1314.1999511719</ele>
        <time>2021-09-01T07:57:41Z</time>
      </trkpt>
      <trkpt lat="44.4858" lon="5.93732">
        <ele>1314.1999511719</ele>
        <time>2021-09-01T07:57:42Z</time>
      </trkpt>
      <trkpt lat="44.48579" lon="5.93734">
        <ele>1314.4000244141</ele>
        <time>2021-09-01T07:57:43Z</time>
      </trkpt>
      <trkpt lat="44.48575" lon="5.93736">
        <ele>1314.8000488281</ele>
        <time>2021-09-01T07:57:46Z</time>
      </trkpt>
      <trkpt lat="44.48565" lon="5.93741">
        <ele>1315.8000488281</ele>
        <time>2021-09-01T07:57:52Z</time>
      </trkpt>
      <trkpt lat="44.4856" lon="5.93744">
        <ele>1316.4000244141</ele>
        <time>2021-09-01T07:57:56Z</time>
      </trkpt>
      <trkpt lat="44.48558" lon="5.93745">
        <ele>1316.4000244141</ele>
        <time>2021-09-01T07:57:57Z</time>
      </trkpt>
      <trkpt lat="44.48553" lon="5.93743">
        <ele>1316.8000488281</ele>
        <time>2021-09-01T07:58:01Z</time>
      </trkpt>
      <trkpt lat="44.48552" lon="5.93739">
        <ele>1317</ele>
        <time>2021-09-01T07:58:03Z</time>
      </trkpt>
      <trkpt lat="44.48552" lon="5.9373">
        <ele>1317</ele>
        <time>2021-09-01T07:58:06Z</time>
      </trkpt>
      <trkpt lat="44.48553" lon="5.93724">
        <ele>1316.8000488281</ele>
        <time>2021-09-01T07:58:08Z</time>
      </trkpt>
      <trkpt lat="44.48552" lon="5.93719">
        <ele>1316.5999755859</ele>
        <time>2021-09-01T07:58:10Z</time>
      </trkpt>
      <trkpt lat="44.48549" lon="5.93716">
        <ele>1316</ele>
        <time>2021-09-01T07:58:12Z</time>
      </trkpt>
      <trkpt lat="44.48548" lon="5.93715">
        <ele>1315.8000488281</ele>
        <time>2021-09-01T07:58:13Z</time>
      </trkpt>
      <trkpt lat="44.48541" lon="5.93717">
        <ele>1315.1999511719</ele>
        <time>2021-09-01T07:58:17Z</time>
      </trkpt>
      <trkpt lat="44.48534" lon="5.93717">
        <ele>1314.5999755859</ele>
        <time>2021-09-01T07:58:20Z</time>
      </trkpt>
      <trkpt lat="44.48533" lon="5.93718">
        <ele>1314.5999755859</ele>
        <time>2021-09-01T07:58:21Z</time>
      </trkpt>
      <trkpt lat="44.48526" lon="5.93723">
        <ele>1314</ele>
        <time>2021-09-01T07:58:26Z</time>
      </trkpt>
      <trkpt lat="44.48523" lon="5.93725">
        <ele>1313.8000488281</ele>
        <time>2021-09-01T07:58:28Z</time>
      </trkpt>
      <trkpt lat="44.48519" lon="5.93727">
        <ele>1313.5999755859</ele>
        <time>2021-09-01T07:58:31Z</time>
      </trkpt>
      <trkpt lat="44.48517" lon="5.93729">
        <ele>1313</ele>
        <time>2021-09-01T07:59:02Z</time>
      </trkpt>
      <trkpt lat="44.48514" lon="5.93738">
        <ele>1313</ele>
        <time>2021-09-01T07:59:07Z</time>
      </trkpt>
      <trkpt lat="44.48506" lon="5.93751">
        <ele>1312.5999755859</ele>
        <time>2021-09-01T07:59:11Z</time>
      </trkpt>
      <trkpt lat="44.48503" lon="5.93756">
        <ele>1312.4000244141</ele>
        <time>2021-09-01T07:59:12Z</time>
      </trkpt>
      <trkpt lat="44.48495" lon="5.93776">
        <ele>1311.4000244141</ele>
        <time>2021-09-01T07:59:17Z</time>
      </trkpt>
      <trkpt lat="44.48494" lon="5.93791">
        <ele>1310.4000244141</ele>
        <time>2021-09-01T07:59:21Z</time>
      </trkpt>
      <trkpt lat="44.48494" lon="5.93795">
        <ele>1310</ele>
        <time>2021-09-01T07:59:22Z</time>
      </trkpt>
      <trkpt lat="44.48493" lon="5.93804">
        <ele>1309.1999511719</ele>
        <time>2021-09-01T07:59:25Z</time>
      </trkpt>
      <trkpt lat="44.48494" lon="5.93814">
        <ele>1308.5999755859</ele>
        <time>2021-09-01T07:59:28Z</time>
      </trkpt>
      <trkpt lat="44.48494" lon="5.93824">
        <ele>1308.1999511719</ele>
        <time>2021-09-01T07:59:30Z</time>
      </trkpt>
      <trkpt lat="44.48495" lon="5.93837">
        <ele>1307.8000488281</ele>
        <time>2021-09-01T07:59:32Z</time>
      </trkpt>
      <trkpt lat="44.48497" lon="5.93859">
        <ele>1307.1999511719</ele>
        <time>2021-09-01T07:59:35Z</time>
      </trkpt>
      <trkpt lat="44.48497" lon="5.93865">
        <ele>1307</ele>
        <time>2021-09-01T07:59:36Z</time>
      </trkpt>
      <trkpt lat="44.48498" lon="5.93869">
        <ele>1306.4000244141</ele>
        <time>2021-09-01T07:59:37Z</time>
      </trkpt>
      <trkpt lat="44.48499" lon="5.93873">
        <ele>1306</ele>
        <time>2021-09-01T07:59:38Z</time>
      </trkpt>
      <trkpt lat="44.485" lon="5.93884">
        <ele>1304.8000488281</ele>
        <time>2021-09-01T07:59:41Z</time>
      </trkpt>
      <trkpt lat="44.48501" lon="5.93887">
        <ele>1304.5999755859</ele>
        <time>2021-09-01T07:59:42Z</time>
      </trkpt>
      <trkpt lat="44.48503" lon="5.93894">
        <ele>1303.8000488281</ele>
        <time>2021-09-01T07:59:44Z</time>
      </trkpt>
      <trkpt lat="44.48504" lon="5.93896">
        <ele>1303.5999755859</ele>
        <time>2021-09-01T07:59:45Z</time>
      </trkpt>
      <trkpt lat="44.48505" lon="5.93899">
        <ele>1301.5999755859</ele>
        <time>2021-09-01T08:00:45Z</time>
      </trkpt>
      <trkpt lat="44.48508" lon="5.93904">
        <ele>1301.5999755859</ele>
        <time>2021-09-01T08:00:48Z</time>
      </trkpt>
      <trkpt lat="44.48509" lon="5.93906">
        <ele>1301</ele>
        <time>2021-09-01T08:01:02Z</time>
      </trkpt>
      <trkpt lat="44.4851" lon="5.93908">
        <ele>1301</ele>
        <time>2021-09-01T08:01:03Z</time>
      </trkpt>
      <trkpt lat="44.48518" lon="5.93924">
        <ele>1301</ele>
        <time>2021-09-01T08:01:08Z</time>
      </trkpt>
      <trkpt lat="44.48524" lon="5.9394">
        <ele>1300.5999755859</ele>
        <time>2021-09-01T08:01:12Z</time>
      </trkpt>
      <trkpt lat="44.48528" lon="5.93948">
        <ele>1300.1999511719</ele>
        <time>2021-09-01T08:01:14Z</time>
      </trkpt>
      <trkpt lat="44.48535" lon="5.93962">
        <ele>1299.4000244141</ele>
        <time>2021-09-01T08:01:17Z</time>
      </trkpt>
      <trkpt lat="44.4854" lon="5.93973">
        <ele>1299</ele>
        <time>2021-09-01T08:01:19Z</time>
      </trkpt>
      <trkpt lat="44.4855" lon="5.9399">
        <ele>1298.4000244141</ele>
        <time>2021-09-01T08:01:22Z</time>
      </trkpt>
      <trkpt lat="44.48561" lon="5.94008">
        <ele>1297.5999755859</ele>
        <time>2021-09-01T08:01:25Z</time>
      </trkpt>
      <trkpt lat="44.48565" lon="5.94014">
        <ele>1297.1999511719</ele>
        <time>2021-09-01T08:01:26Z</time>
      </trkpt>
      <trkpt lat="44.4858" lon="5.94029">
        <ele>1296.4000244141</ele>
        <time>2021-09-01T08:01:29Z</time>
      </trkpt>
      <trkpt lat="44.48593" lon="5.94037">
        <ele>1296</ele>
        <time>2021-09-01T08:01:31Z</time>
      </trkpt>
      <trkpt lat="44.48608" lon="5.94043">
        <ele>1295.1999511719</ele>
        <time>2021-09-01T08:01:33Z</time>
      </trkpt>
      <trkpt lat="44.48615" lon="5.94047">
        <ele>1294.8000488281</ele>
        <time>2021-09-01T08:01:34Z</time>
      </trkpt>
      <trkpt lat="44.48626" lon="5.94053">
        <ele>1293.8000488281</ele>
        <time>2021-09-01T08:01:36Z</time>
      </trkpt>
      <trkpt lat="44.48629" lon="5.94058">
        <ele>1292.8000488281</ele>
        <time>2021-09-01T08:01:37Z</time>
      </trkpt>
      <trkpt lat="44.48634" lon="5.94071">
        <ele>1291.5999755859</ele>
        <time>2021-09-01T08:01:39Z</time>
      </trkpt>
      <trkpt lat="44.48634" lon="5.94089">
        <ele>1290.5999755859</ele>
        <time>2021-09-01T08:01:41Z</time>
      </trkpt>
      <trkpt lat="44.48631" lon="5.94098">
        <ele>1290.1999511719</ele>
        <time>2021-09-01T08:01:42Z</time>
      </trkpt>
      <trkpt lat="44.48624" lon="5.94115">
        <ele>1289.1999511719</ele>
        <time>2021-09-01T08:01:44Z</time>
      </trkpt>
      <trkpt lat="44.48611" lon="5.94143">
        <ele>1288</ele>
        <time>2021-09-01T08:01:47Z</time>
      </trkpt>
      <trkpt lat="44.48599" lon="5.94174">
        <ele>1287</ele>
        <time>2021-09-01T08:01:50Z</time>
      </trkpt>
      <trkpt lat="44.48585" lon="5.94207">
        <ele>1285.4000244141</ele>
        <time>2021-09-01T08:01:53Z</time>
      </trkpt>
      <trkpt lat="44.48574" lon="5.94229">
        <ele>1284</ele>
        <time>2021-09-01T08:01:55Z</time>
      </trkpt>
      <trkpt lat="44.48565" lon="5.94251">
        <ele>1283</ele>
        <time>2021-09-01T08:01:57Z</time>
      </trkpt>
      <trkpt lat="44.48556" lon="5.94274">
        <ele>1281.8000488281</ele>
        <time>2021-09-01T08:01:59Z</time>
      </trkpt>
      <trkpt lat="44.48546" lon="5.94297">
        <ele>1278.8000488281</ele>
        <time>2021-09-01T08:02:01Z</time>
      </trkpt>
      <trkpt lat="44.48538" lon="5.94321">
        <ele>1277.5999755859</ele>
        <time>2021-09-01T08:02:03Z</time>
      </trkpt>
      <trkpt lat="44.48534" lon="5.94334">
        <ele>1277</ele>
        <time>2021-09-01T08:02:04Z</time>
      </trkpt>
      <trkpt lat="44.48531" lon="5.94347">
        <ele>1276</ele>
        <time>2021-09-01T08:02:05Z</time>
      </trkpt>
      <trkpt lat="44.48525" lon="5.94372">
        <ele>1274.1999511719</ele>
        <time>2021-09-01T08:02:07Z</time>
      </trkpt>
      <trkpt lat="44.48518" lon="5.94396">
        <ele>1272.4000244141</ele>
        <time>2021-09-01T08:02:09Z</time>
      </trkpt>
      <trkpt lat="44.48511" lon="5.94421">
        <ele>1270.4000244141</ele>
        <time>2021-09-01T08:02:11Z</time>
      </trkpt>
      <trkpt lat="44.48504" lon="5.94446">
        <ele>1268.5999755859</ele>
        <time>2021-09-01T08:02:13Z</time>
      </trkpt>
      <trkpt lat="44.485" lon="5.94458">
        <ele>1267.8000488281</ele>
        <time>2021-09-01T08:02:14Z</time>
      </trkpt>
      <trkpt lat="44.48494" lon="5.94469">
        <ele>1267</ele>
        <time>2021-09-01T08:02:15Z</time>
      </trkpt>
      <trkpt lat="44.48488" lon="5.9448">
        <ele>1266</ele>
        <time>2021-09-01T08:02:16Z</time>
      </trkpt>
      <trkpt lat="44.48482" lon="5.9449">
        <ele>1264.8000488281</ele>
        <time>2021-09-01T08:02:17Z</time>
      </trkpt>
      <trkpt lat="44.48476" lon="5.945">
        <ele>1263.8000488281</ele>
        <time>2021-09-01T08:02:18Z</time>
      </trkpt>
      <trkpt lat="44.48467" lon="5.94524">
        <ele>1262</ele>
        <time>2021-09-01T08:02:20Z</time>
      </trkpt>
      <trkpt lat="44.48463" lon="5.94537">
        <ele>1261.1999511719</ele>
        <time>2021-09-01T08:02:21Z</time>
      </trkpt>
      <trkpt lat="44.48461" lon="5.9455">
        <ele>1260.4000244141</ele>
        <time>2021-09-01T08:02:22Z</time>
      </trkpt>
      <trkpt lat="44.4846" lon="5.94577">
        <ele>1258.5999755859</ele>
        <time>2021-09-01T08:02:24Z</time>
      </trkpt>
      <trkpt lat="44.4846" lon="5.9459">
        <ele>1257.1999511719</ele>
        <time>2021-09-01T08:02:25Z</time>
      </trkpt>
      <trkpt lat="44.48461" lon="5.94616">
        <ele>1256</ele>
        <time>2021-09-01T08:02:27Z</time>
      </trkpt>
      <trkpt lat="44.48461" lon="5.94653">
        <ele>1254.5999755859</ele>
        <time>2021-09-01T08:02:30Z</time>
      </trkpt>
      <trkpt lat="44.48465" lon="5.94688">
        <ele>1253.1999511719</ele>
        <time>2021-09-01T08:02:33Z</time>
      </trkpt>
      <trkpt lat="44.48469" lon="5.94709">
        <ele>1252.4000244141</ele>
        <time>2021-09-01T08:02:35Z</time>
      </trkpt>
      <trkpt lat="44.48472" lon="5.94719">
        <ele>1252.1999511719</ele>
        <time>2021-09-01T08:02:36Z</time>
      </trkpt>
      <trkpt lat="44.4848" lon="5.94749">
        <ele>1251</ele>
        <time>2021-09-01T08:02:39Z</time>
      </trkpt>
      <trkpt lat="44.48488" lon="5.94778">
        <ele>1249.8000488281</ele>
        <time>2021-09-01T08:02:42Z</time>
      </trkpt>
      <trkpt lat="44.48496" lon="5.94809">
        <ele>1248.8000488281</ele>
        <time>2021-09-01T08:02:45Z</time>
      </trkpt>
      <trkpt lat="44.48498" lon="5.94819">
        <ele>1248.4000244141</ele>
        <time>2021-09-01T08:02:46Z</time>
      </trkpt>
      <trkpt lat="44.485" lon="5.94836">
        <ele>1247.8000488281</ele>
        <time>2021-09-01T08:02:48Z</time>
      </trkpt>
      <trkpt lat="44.48501" lon="5.94848">
        <ele>1246.8000488281</ele>
        <time>2021-09-01T08:02:50Z</time>
      </trkpt>
      <trkpt lat="44.48504" lon="5.9487">
        <ele>1245.4000244141</ele>
        <time>2021-09-01T08:02:54Z</time>
      </trkpt>
      <trkpt lat="44.48507" lon="5.94885">
        <ele>1244.4000244141</ele>
        <time>2021-09-01T08:02:58Z</time>
      </trkpt>
      <trkpt lat="44.48507" lon="5.94887">
        <ele>1244.1999511719</ele>
        <time>2021-09-01T08:02:59Z</time>
      </trkpt>
      <trkpt lat="44.48509" lon="5.9489">
        <ele>1242.8000488281</ele>
        <time>2021-09-01T08:05:04Z</time>
      </trkpt>
      <trkpt lat="44.4851" lon="5.94895">
        <ele>1242.8000488281</ele>
        <time>2021-09-01T08:05:06Z</time>
      </trkpt>
      <trkpt lat="44.48515" lon="5.94915">
        <ele>1242.5999755859</ele>
        <time>2021-09-01T08:05:11Z</time>
      </trkpt>
      <trkpt lat="44.48522" lon="5.9496">
        <ele>1241.8000488281</ele>
        <time>2021-09-01T08:05:18Z</time>
      </trkpt>
      <trkpt lat="44.48524" lon="5.94967">
        <ele>1241.5999755859</ele>
        <time>2021-09-01T08:05:19Z</time>
      </trkpt>
      <trkpt lat="44.48532" lon="5.95003">
        <ele>1240.5999755859</ele>
        <time>2021-09-01T08:05:24Z</time>
      </trkpt>
      <trkpt lat="44.48534" lon="5.9502">
        <ele>1240.1999511719</ele>
        <time>2021-09-01T08:05:26Z</time>
      </trkpt>
      <trkpt lat="44.48538" lon="5.95061">
        <ele>1239.4000244141</ele>
        <time>2021-09-01T08:05:31Z</time>
      </trkpt>
      <trkpt lat="44.48541" lon="5.95087">
        <ele>1238.8000488281</ele>
        <time>2021-09-01T08:05:34Z</time>
      </trkpt>
      <trkpt lat="44.48542" lon="5.95105">
        <ele>1238.1999511719</ele>
        <time>2021-09-01T08:05:36Z</time>
      </trkpt>
      <trkpt lat="44.48546" lon="5.95149">
        <ele>1237.1999511719</ele>
        <time>2021-09-01T08:05:41Z</time>
      </trkpt>
      <trkpt lat="44.48549" lon="5.95167">
        <ele>1236.8000488281</ele>
        <time>2021-09-01T08:05:43Z</time>
      </trkpt>
      <trkpt lat="44.48557" lon="5.95202">
        <ele>1236</ele>
        <time>2021-09-01T08:05:47Z</time>
      </trkpt>
      <trkpt lat="44.48565" lon="5.95238">
        <ele>1235.1999511719</ele>
        <time>2021-09-01T08:05:51Z</time>
      </trkpt>
      <trkpt lat="44.4857" lon="5.95256">
        <ele>1234.8000488281</ele>
        <time>2021-09-01T08:05:53Z</time>
      </trkpt>
      <trkpt lat="44.48579" lon="5.95294">
        <ele>1233.5999755859</ele>
        <time>2021-09-01T08:05:57Z</time>
      </trkpt>
      <trkpt lat="44.48583" lon="5.95313">
        <ele>1233</ele>
        <time>2021-09-01T08:05:59Z</time>
      </trkpt>
      <trkpt lat="44.48589" lon="5.95331">
        <ele>1232.4000244141</ele>
        <time>2021-09-01T08:06:01Z</time>
      </trkpt>
      <trkpt lat="44.48597" lon="5.95346">
        <ele>1231.5999755859</ele>
        <time>2021-09-01T08:06:03Z</time>
      </trkpt>
      <trkpt lat="44.48608" lon="5.95361">
        <ele>1231.1999511719</ele>
        <time>2021-09-01T08:06:05Z</time>
      </trkpt>
      <trkpt lat="44.48631" lon="5.95386">
        <ele>1230</ele>
        <time>2021-09-01T08:06:09Z</time>
      </trkpt>
      <trkpt lat="44.48647" lon="5.95407">
        <ele>1229</ele>
        <time>2021-09-01T08:06:12Z</time>
      </trkpt>
      <trkpt lat="44.48651" lon="5.95415">
        <ele>1228.8000488281</ele>
        <time>2021-09-01T08:06:13Z</time>
      </trkpt>
      <trkpt lat="44.48653" lon="5.95425">
        <ele>1228.5999755859</ele>
        <time>2021-09-01T08:06:14Z</time>
      </trkpt>
      <trkpt lat="44.48651" lon="5.9544">
        <ele>1228.4000244141</ele>
        <time>2021-09-01T08:06:16Z</time>
      </trkpt>
      <trkpt lat="44.4864" lon="5.95446">
        <ele>1227.8000488281</ele>
        <time>2021-09-01T08:06:18Z</time>
      </trkpt>
      <trkpt lat="44.48634" lon="5.95447">
        <ele>1227.5999755859</ele>
        <time>2021-09-01T08:06:19Z</time>
      </trkpt>
      <trkpt lat="44.48627" lon="5.95447">
        <ele>1227.1999511719</ele>
        <time>2021-09-01T08:06:20Z</time>
      </trkpt>
      <trkpt lat="44.48607" lon="5.9545">
        <ele>1226.8000488281</ele>
        <time>2021-09-01T08:06:23Z</time>
      </trkpt>
      <trkpt lat="44.48592" lon="5.95455">
        <ele>1226.4000244141</ele>
        <time>2021-09-01T08:06:25Z</time>
      </trkpt>
      <trkpt lat="44.48576" lon="5.95458">
        <ele>1225.5999755859</ele>
        <time>2021-09-01T08:06:27Z</time>
      </trkpt>
      <trkpt lat="44.48568" lon="5.95459">
        <ele>1225.1999511719</ele>
        <time>2021-09-01T08:06:28Z</time>
      </trkpt>
      <trkpt lat="44.48545" lon="5.95455">
        <ele>1224</ele>
        <time>2021-09-01T08:06:31Z</time>
      </trkpt>
      <trkpt lat="44.48537" lon="5.95452">
        <ele>1223.8000488281</ele>
        <time>2021-09-01T08:06:32Z</time>
      </trkpt>
      <trkpt lat="44.4853" lon="5.9545">
        <ele>1223.5999755859</ele>
        <time>2021-09-01T08:06:33Z</time>
      </trkpt>
      <trkpt lat="44.48514" lon="5.95455">
        <ele>1222.8000488281</ele>
        <time>2021-09-01T08:06:35Z</time>
      </trkpt>
      <trkpt lat="44.48499" lon="5.95469">
        <ele>1221.8000488281</ele>
        <time>2021-09-01T08:06:37Z</time>
      </trkpt>
      <trkpt lat="44.48492" lon="5.95478">
        <ele>1221.1999511719</ele>
        <time>2021-09-01T08:06:38Z</time>
      </trkpt>
      <trkpt lat="44.48485" lon="5.95487">
        <ele>1220.5999755859</ele>
        <time>2021-09-01T08:06:39Z</time>
      </trkpt>
      <trkpt lat="44.48478" lon="5.95497">
        <ele>1220</ele>
        <time>2021-09-01T08:06:40Z</time>
      </trkpt>
      <trkpt lat="44.48472" lon="5.95508">
        <ele>1219.1999511719</ele>
        <time>2021-09-01T08:06:41Z</time>
      </trkpt>
      <trkpt lat="44.48468" lon="5.95522">
        <ele>1218.4000244141</ele>
        <time>2021-09-01T08:06:42Z</time>
      </trkpt>
      <trkpt lat="44.48466" lon="5.95536">
        <ele>1217.5999755859</ele>
        <time>2021-09-01T08:06:43Z</time>
      </trkpt>
      <trkpt lat="44.48465" lon="5.95567">
        <ele>1216</ele>
        <time>2021-09-01T08:06:45Z</time>
      </trkpt>
      <trkpt lat="44.48465" lon="5.95598">
        <ele>1214.4000244141</ele>
        <time>2021-09-01T08:06:47Z</time>
      </trkpt>
      <trkpt lat="44.48465" lon="5.9563">
        <ele>1212.5999755859</ele>
        <time>2021-09-01T08:06:49Z</time>
      </trkpt>
      <trkpt lat="44.48465" lon="5.95646">
        <ele>1210.8000488281</ele>
        <time>2021-09-01T08:06:50Z</time>
      </trkpt>
      <trkpt lat="44.48466" lon="5.95679">
        <ele>1209</ele>
        <time>2021-09-01T08:06:52Z</time>
      </trkpt>
      <trkpt lat="44.48466" lon="5.95712">
        <ele>1207</ele>
        <time>2021-09-01T08:06:54Z</time>
      </trkpt>
      <trkpt lat="44.48463" lon="5.95745">
        <ele>1205.4000244141</ele>
        <time>2021-09-01T08:06:56Z</time>
      </trkpt>
      <trkpt lat="44.48458" lon="5.95777">
        <ele>1203.5999755859</ele>
        <time>2021-09-01T08:06:58Z</time>
      </trkpt>
      <trkpt lat="44.48452" lon="5.95809">
        <ele>1201.5999755859</ele>
        <time>2021-09-01T08:07:00Z</time>
      </trkpt>
      <trkpt lat="44.4845" lon="5.95825">
        <ele>1200.8000488281</ele>
        <time>2021-09-01T08:07:01Z</time>
      </trkpt>
      <trkpt lat="44.48447" lon="5.9584">
        <ele>1200</ele>
        <time>2021-09-01T08:07:02Z</time>
      </trkpt>
      <trkpt lat="44.48441" lon="5.95871">
        <ele>1198</ele>
        <time>2021-09-01T08:07:04Z</time>
      </trkpt>
      <trkpt lat="44.48435" lon="5.95902">
        <ele>1196.1999511719</ele>
        <time>2021-09-01T08:07:06Z</time>
      </trkpt>
      <trkpt lat="44.48429" lon="5.95932">
        <ele>1194.8000488281</ele>
        <time>2021-09-01T08:07:08Z</time>
      </trkpt>
      <trkpt lat="44.48425" lon="5.95946">
        <ele>1194.1999511719</ele>
        <time>2021-09-01T08:07:09Z</time>
      </trkpt>
      <trkpt lat="44.48421" lon="5.95958">
        <ele>1193.5999755859</ele>
        <time>2021-09-01T08:07:10Z</time>
      </trkpt>
      <trkpt lat="44.48414" lon="5.95967">
        <ele>1192.8000488281</ele>
        <time>2021-09-01T08:07:11Z</time>
      </trkpt>
      <trkpt lat="44.48407" lon="5.95974">
        <ele>1192</ele>
        <time>2021-09-01T08:07:12Z</time>
      </trkpt>
      <trkpt lat="44.48398" lon="5.95977">
        <ele>1191.1999511719</ele>
        <time>2021-09-01T08:07:13Z</time>
      </trkpt>
      <trkpt lat="44.48389" lon="5.95979">
        <ele>1189.5999755859</ele>
        <time>2021-09-01T08:07:14Z</time>
      </trkpt>
      <trkpt lat="44.48379" lon="5.95979">
        <ele>1188.8000488281</ele>
        <time>2021-09-01T08:07:15Z</time>
      </trkpt>
      <trkpt lat="44.4837" lon="5.95981">
        <ele>1188</ele>
        <time>2021-09-01T08:07:16Z</time>
      </trkpt>
      <trkpt lat="44.48361" lon="5.95982">
        <ele>1187.4000244141</ele>
        <time>2021-09-01T08:07:17Z</time>
      </trkpt>
      <trkpt lat="44.48352" lon="5.95985">
        <ele>1186.5999755859</ele>
        <time>2021-09-01T08:07:18Z</time>
      </trkpt>
      <trkpt lat="44.48345" lon="5.9599">
        <ele>1186</ele>
        <time>2021-09-01T08:07:19Z</time>
      </trkpt>
      <trkpt lat="44.48339" lon="5.95999">
        <ele>1185.1999511719</ele>
        <time>2021-09-01T08:07:20Z</time>
      </trkpt>
      <trkpt lat="44.48334" lon="5.96021">
        <ele>1184</ele>
        <time>2021-09-01T08:07:22Z</time>
      </trkpt>
      <trkpt lat="44.48335" lon="5.96046">
        <ele>1182.8000488281</ele>
        <time>2021-09-01T08:07:24Z</time>
      </trkpt>
      <trkpt lat="44.48337" lon="5.96059">
        <ele>1182.4000244141</ele>
        <time>2021-09-01T08:07:25Z</time>
      </trkpt>
      <trkpt lat="44.4834" lon="5.96072">
        <ele>1182</ele>
        <time>2021-09-01T08:07:26Z</time>
      </trkpt>
      <trkpt lat="44.48343" lon="5.96085">
        <ele>1181.4000244141</ele>
        <time>2021-09-01T08:07:27Z</time>
      </trkpt>
      <trkpt lat="44.48348" lon="5.96112">
        <ele>1180.4000244141</ele>
        <time>2021-09-01T08:07:29Z</time>
      </trkpt>
      <trkpt lat="44.48353" lon="5.96141">
        <ele>1179</ele>
        <time>2021-09-01T08:07:31Z</time>
      </trkpt>
      <trkpt lat="44.48354" lon="5.96171">
        <ele>1177.5999755859</ele>
        <time>2021-09-01T08:07:33Z</time>
      </trkpt>
      <trkpt lat="44.48354" lon="5.96202">
        <ele>1176.1999511719</ele>
        <time>2021-09-01T08:07:35Z</time>
      </trkpt>
      <trkpt lat="44.48353" lon="5.96233">
        <ele>1174.5999755859</ele>
        <time>2021-09-01T08:07:37Z</time>
      </trkpt>
      <trkpt lat="44.48353" lon="5.96249">
        <ele>1173</ele>
        <time>2021-09-01T08:07:38Z</time>
      </trkpt>
      <trkpt lat="44.48352" lon="5.96281">
        <ele>1171.4000244141</ele>
        <time>2021-09-01T08:07:40Z</time>
      </trkpt>
      <trkpt lat="44.4835" lon="5.96297">
        <ele>1170.4000244141</ele>
        <time>2021-09-01T08:07:41Z</time>
      </trkpt>
      <trkpt lat="44.48348" lon="5.96313">
        <ele>1169.5999755859</ele>
        <time>2021-09-01T08:07:42Z</time>
      </trkpt>
      <trkpt lat="44.48344" lon="5.96345">
        <ele>1168</ele>
        <time>2021-09-01T08:07:44Z</time>
      </trkpt>
      <trkpt lat="44.4834" lon="5.96378">
        <ele>1165.8000488281</ele>
        <time>2021-09-01T08:07:46Z</time>
      </trkpt>
      <trkpt lat="44.48339" lon="5.96392">
        <ele>1164.8000488281</ele>
        <time>2021-09-01T08:07:47Z</time>
      </trkpt>
      <trkpt lat="44.4834" lon="5.96417">
        <ele>1163</ele>
        <time>2021-09-01T08:07:49Z</time>
      </trkpt>
      <trkpt lat="44.48339" lon="5.96425">
        <ele>1162.1999511719</ele>
        <time>2021-09-01T08:07:50Z</time>
      </trkpt>
      <trkpt lat="44.48337" lon="5.96431">
        <ele>1161.4000244141</ele>
        <time>2021-09-01T08:07:51Z</time>
      </trkpt>
      <trkpt lat="44.48333" lon="5.96434">
        <ele>1160.4000244141</ele>
        <time>2021-09-01T08:07:52Z</time>
      </trkpt>
      <trkpt lat="44.48327" lon="5.96434">
        <ele>1159.5999755859</ele>
        <time>2021-09-01T08:07:53Z</time>
      </trkpt>
      <trkpt lat="44.48322" lon="5.96429">
        <ele>1158.8000488281</ele>
        <time>2021-09-01T08:07:54Z</time>
      </trkpt>
      <trkpt lat="44.48317" lon="5.96423">
        <ele>1157.8000488281</ele>
        <time>2021-09-01T08:07:55Z</time>
      </trkpt>
      <trkpt lat="44.48307" lon="5.96408">
        <ele>1156.1999511719</ele>
        <time>2021-09-01T08:07:57Z</time>
      </trkpt>
      <trkpt lat="44.48296" lon="5.96394">
        <ele>1155</ele>
        <time>2021-09-01T08:07:59Z</time>
      </trkpt>
      <trkpt lat="44.48282" lon="5.96381">
        <ele>1154</ele>
        <time>2021-09-01T08:08:01Z</time>
      </trkpt>
      <trkpt lat="44.48273" lon="5.96377">
        <ele>1153.1999511719</ele>
        <time>2021-09-01T08:08:02Z</time>
      </trkpt>
      <trkpt lat="44.48255" lon="5.96368">
        <ele>1152</ele>
        <time>2021-09-01T08:08:04Z</time>
      </trkpt>
      <trkpt lat="44.48246" lon="5.96365">
        <ele>1151.4000244141</ele>
        <time>2021-09-01T08:08:05Z</time>
      </trkpt>
      <trkpt lat="44.48236" lon="5.96362">
        <ele>1150.8000488281</ele>
        <time>2021-09-01T08:08:06Z</time>
      </trkpt>
      <trkpt lat="44.48215" lon="5.96356">
        <ele>1149.4000244141</ele>
        <time>2021-09-01T08:08:08Z</time>
      </trkpt>
      <trkpt lat="44.48204" lon="5.96352">
        <ele>1148.5999755859</ele>
        <time>2021-09-01T08:08:09Z</time>
      </trkpt>
      <trkpt lat="44.48194" lon="5.96346">
        <ele>1147.8000488281</ele>
        <time>2021-09-01T08:08:10Z</time>
      </trkpt>
      <trkpt lat="44.48175" lon="5.96331">
        <ele>1146.1999511719</ele>
        <time>2021-09-01T08:08:12Z</time>
      </trkpt>
      <trkpt lat="44.48162" lon="5.96322">
        <ele>1144.4000244141</ele>
        <time>2021-09-01T08:08:14Z</time>
      </trkpt>
      <trkpt lat="44.48152" lon="5.9633">
        <ele>1142.4000244141</ele>
        <time>2021-09-01T08:08:16Z</time>
      </trkpt>
      <trkpt lat="44.48149" lon="5.96339">
        <ele>1141.1999511719</ele>
        <time>2021-09-01T08:08:17Z</time>
      </trkpt>
      <trkpt lat="44.48147" lon="5.9635">
        <ele>1140.1999511719</ele>
        <time>2021-09-01T08:08:18Z</time>
      </trkpt>
      <trkpt lat="44.48147" lon="5.96362">
        <ele>1139</ele>
        <time>2021-09-01T08:08:19Z</time>
      </trkpt>
      <trkpt lat="44.48145" lon="5.96387">
        <ele>1137.4000244141</ele>
        <time>2021-09-01T08:08:21Z</time>
      </trkpt>
      <trkpt lat="44.48144" lon="5.96408">
        <ele>1135.8000488281</ele>
        <time>2021-09-01T08:08:23Z</time>
      </trkpt>
      <trkpt lat="44.48144" lon="5.96418">
        <ele>1135</ele>
        <time>2021-09-01T08:08:24Z</time>
      </trkpt>
      <trkpt lat="44.48144" lon="5.96426">
        <ele>1134.1999511719</ele>
        <time>2021-09-01T08:08:25Z</time>
      </trkpt>
      <trkpt lat="44.48143" lon="5.96431">
        <ele>1132.5999755859</ele>
        <time>2021-09-01T08:08:26Z</time>
      </trkpt>
      <trkpt lat="44.48143" lon="5.96434">
        <ele>1131.8000488281</ele>
        <time>2021-09-01T08:08:27Z</time>
      </trkpt>
      <trkpt lat="44.48142" lon="5.96436">
        <ele>1131</ele>
        <time>2021-09-01T08:08:28Z</time>
      </trkpt>
      <trkpt lat="44.48142" lon="5.96439">
        <ele>1129.8000488281</ele>
        <time>2021-09-01T08:08:30Z</time>
      </trkpt>
      <trkpt lat="44.48143" lon="5.96441">
        <ele>1128.8000488281</ele>
        <time>2021-09-01T08:08:32Z</time>
      </trkpt>
      <trkpt lat="44.48143" lon="5.96443">
        <ele>1128.5999755859</ele>
        <time>2021-09-01T08:08:33Z</time>
      </trkpt>
      <trkpt lat="44.48143" lon="5.96453">
        <ele>1128</ele>
        <time>2021-09-01T08:08:36Z</time>
      </trkpt>
      <trkpt lat="44.48143" lon="5.96481">
        <ele>1127.4000244141</ele>
        <time>2021-09-01T08:08:40Z</time>
      </trkpt>
      <trkpt lat="44.4814" lon="5.96525">
        <ele>1126.1999511719</ele>
        <time>2021-09-01T08:08:44Z</time>
      </trkpt>
      <trkpt lat="44.48138" lon="5.96551">
        <ele>1125</ele>
        <time>2021-09-01T08:08:46Z</time>
      </trkpt>
      <trkpt lat="44.48136" lon="5.96579">
        <ele>1123.5999755859</ele>
        <time>2021-09-01T08:08:48Z</time>
      </trkpt>
      <trkpt lat="44.48134" lon="5.96592">
        <ele>1122.8000488281</ele>
        <time>2021-09-01T08:08:49Z</time>
      </trkpt>
      <trkpt lat="44.48133" lon="5.96606">
        <ele>1121</ele>
        <time>2021-09-01T08:08:50Z</time>
      </trkpt>
      <trkpt lat="44.48132" lon="5.96635">
        <ele>1119.1999511719</ele>
        <time>2021-09-01T08:08:52Z</time>
      </trkpt>
      <trkpt lat="44.48132" lon="5.96664">
        <ele>1117.1999511719</ele>
        <time>2021-09-01T08:08:54Z</time>
      </trkpt>
      <trkpt lat="44.48132" lon="5.9668">
        <ele>1116.1999511719</ele>
        <time>2021-09-01T08:08:55Z</time>
      </trkpt>
      <trkpt lat="44.48133" lon="5.96696">
        <ele>1115</ele>
        <time>2021-09-01T08:08:56Z</time>
      </trkpt>
      <trkpt lat="44.48133" lon="5.96712">
        <ele>1113.8000488281</ele>
        <time>2021-09-01T08:08:57Z</time>
      </trkpt>
      <trkpt lat="44.48133" lon="5.96728">
        <ele>1112.5999755859</ele>
        <time>2021-09-01T08:08:58Z</time>
      </trkpt>
      <trkpt lat="44.48133" lon="5.96744">
        <ele>1111.5999755859</ele>
        <time>2021-09-01T08:08:59Z</time>
      </trkpt>
      <trkpt lat="44.48133" lon="5.96761">
        <ele>1110.4000244141</ele>
        <time>2021-09-01T08:09:00Z</time>
      </trkpt>
      <trkpt lat="44.48133" lon="5.96777">
        <ele>1109.1999511719</ele>
        <time>2021-09-01T08:09:01Z</time>
      </trkpt>
      <trkpt lat="44.48132" lon="5.96793">
        <ele>1108.1999511719</ele>
        <time>2021-09-01T08:09:02Z</time>
      </trkpt>
      <trkpt lat="44.48132" lon="5.9681">
        <ele>1107</ele>
        <time>2021-09-01T08:09:03Z</time>
      </trkpt>
      <trkpt lat="44.48131" lon="5.96826">
        <ele>1105.8000488281</ele>
        <time>2021-09-01T08:09:04Z</time>
      </trkpt>
      <trkpt lat="44.48131" lon="5.96843">
        <ele>1104.5999755859</ele>
        <time>2021-09-01T08:09:05Z</time>
      </trkpt>
      <trkpt lat="44.48131" lon="5.9686">
        <ele>1103.4000244141</ele>
        <time>2021-09-01T08:09:06Z</time>
      </trkpt>
      <trkpt lat="44.4813" lon="5.96877">
        <ele>1102</ele>
        <time>2021-09-01T08:09:07Z</time>
      </trkpt>
      <trkpt lat="44.4813" lon="5.96894">
        <ele>1100.8000488281</ele>
        <time>2021-09-01T08:09:08Z</time>
      </trkpt>
      <trkpt lat="44.48129" lon="5.9691">
        <ele>1099.5999755859</ele>
        <time>2021-09-01T08:09:09Z</time>
      </trkpt>
      <trkpt lat="44.48129" lon="5.96926">
        <ele>1098.5999755859</ele>
        <time>2021-09-01T08:09:10Z</time>
      </trkpt>
      <trkpt lat="44.48129" lon="5.96942">
        <ele>1097.4000244141</ele>
        <time>2021-09-01T08:09:11Z</time>
      </trkpt>
      <trkpt lat="44.4813" lon="5.96957">
        <ele>1096.4000244141</ele>
        <time>2021-09-01T08:09:12Z</time>
      </trkpt>
      <trkpt lat="44.48131" lon="5.96973">
        <ele>1095.4000244141</ele>
        <time>2021-09-01T08:09:13Z</time>
      </trkpt>
      <trkpt lat="44.48132" lon="5.96989">
        <ele>1093.5999755859</ele>
        <time>2021-09-01T08:09:14Z</time>
      </trkpt>
      <trkpt lat="44.48135" lon="5.9702">
        <ele>1091.8000488281</ele>
        <time>2021-09-01T08:09:16Z</time>
      </trkpt>
      <trkpt lat="44.48138" lon="5.97051">
        <ele>1090</ele>
        <time>2021-09-01T08:09:18Z</time>
      </trkpt>
      <trkpt lat="44.4814" lon="5.97081">
        <ele>1088.4000244141</ele>
        <time>2021-09-01T08:09:20Z</time>
      </trkpt>
      <trkpt lat="44.4814" lon="5.97097">
        <ele>1087.8000488281</ele>
        <time>2021-09-01T08:09:21Z</time>
      </trkpt>
      <trkpt lat="44.48136" lon="5.97112">
        <ele>1087</ele>
        <time>2021-09-01T08:09:22Z</time>
      </trkpt>
      <trkpt lat="44.48131" lon="5.97126">
        <ele>1086.4000244141</ele>
        <time>2021-09-01T08:09:23Z</time>
      </trkpt>
      <trkpt lat="44.48125" lon="5.97139">
        <ele>1085.5999755859</ele>
        <time>2021-09-01T08:09:24Z</time>
      </trkpt>
      <trkpt lat="44.48112" lon="5.97162">
        <ele>1083.8000488281</ele>
        <time>2021-09-01T08:09:26Z</time>
      </trkpt>
      <trkpt lat="44.48107" lon="5.97174">
        <ele>1082.8000488281</ele>
        <time>2021-09-01T08:09:27Z</time>
      </trkpt>
      <trkpt lat="44.48103" lon="5.97187">
        <ele>1081.5999755859</ele>
        <time>2021-09-01T08:09:28Z</time>
      </trkpt>
      <trkpt lat="44.48101" lon="5.97201">
        <ele>1080.4000244141</ele>
        <time>2021-09-01T08:09:29Z</time>
      </trkpt>
      <trkpt lat="44.481" lon="5.97215">
        <ele>1079.4000244141</ele>
        <time>2021-09-01T08:09:30Z</time>
      </trkpt>
      <trkpt lat="44.48101" lon="5.97228">
        <ele>1078.1999511719</ele>
        <time>2021-09-01T08:09:31Z</time>
      </trkpt>
      <trkpt lat="44.48103" lon="5.97241">
        <ele>1076.8000488281</ele>
        <time>2021-09-01T08:09:32Z</time>
      </trkpt>
      <trkpt lat="44.48105" lon="5.97252">
        <ele>1075.5999755859</ele>
        <time>2021-09-01T08:09:33Z</time>
      </trkpt>
      <trkpt lat="44.48105" lon="5.97263">
        <ele>1074.1999511719</ele>
        <time>2021-09-01T08:09:34Z</time>
      </trkpt>
      <trkpt lat="44.48103" lon="5.97274">
        <ele>1073</ele>
        <time>2021-09-01T08:09:35Z</time>
      </trkpt>
      <trkpt lat="44.48099" lon="5.97282">
        <ele>1071.5999755859</ele>
        <time>2021-09-01T08:09:36Z</time>
      </trkpt>
      <trkpt lat="44.48093" lon="5.97288">
        <ele>1070.4000244141</ele>
        <time>2021-09-01T08:09:37Z</time>
      </trkpt>
      <trkpt lat="44.48085" lon="5.97293">
        <ele>1068</ele>
        <time>2021-09-01T08:09:38Z</time>
      </trkpt>
      <trkpt lat="44.48076" lon="5.97296">
        <ele>1067</ele>
        <time>2021-09-01T08:09:39Z</time>
      </trkpt>
      <trkpt lat="44.48066" lon="5.97298">
        <ele>1066</ele>
        <time>2021-09-01T08:09:40Z</time>
      </trkpt>
      <trkpt lat="44.48054" lon="5.973">
        <ele>1065.1999511719</ele>
        <time>2021-09-01T08:09:41Z</time>
      </trkpt>
      <trkpt lat="44.4803" lon="5.97301">
        <ele>1063.4000244141</ele>
        <time>2021-09-01T08:09:43Z</time>
      </trkpt>
      <trkpt lat="44.48018" lon="5.97301">
        <ele>1062.5999755859</ele>
        <time>2021-09-01T08:09:44Z</time>
      </trkpt>
      <trkpt lat="44.48006" lon="5.97301">
        <ele>1061.5999755859</ele>
        <time>2021-09-01T08:09:45Z</time>
      </trkpt>
      <trkpt lat="44.47981" lon="5.97303">
        <ele>1059.8000488281</ele>
        <time>2021-09-01T08:09:47Z</time>
      </trkpt>
      <trkpt lat="44.47969" lon="5.97307">
        <ele>1058.8000488281</ele>
        <time>2021-09-01T08:09:48Z</time>
      </trkpt>
      <trkpt lat="44.47956" lon="5.97311">
        <ele>1058</ele>
        <time>2021-09-01T08:09:49Z</time>
      </trkpt>
      <trkpt lat="44.4793" lon="5.97317">
        <ele>1056</ele>
        <time>2021-09-01T08:09:51Z</time>
      </trkpt>
      <trkpt lat="44.47917" lon="5.97317">
        <ele>1054.8000488281</ele>
        <time>2021-09-01T08:09:52Z</time>
      </trkpt>
      <trkpt lat="44.47904" lon="5.97317">
        <ele>1053.8000488281</ele>
        <time>2021-09-01T08:09:53Z</time>
      </trkpt>
      <trkpt lat="44.47892" lon="5.97319">
        <ele>1052.5999755859</ele>
        <time>2021-09-01T08:09:54Z</time>
      </trkpt>
      <trkpt lat="44.4788" lon="5.97322">
        <ele>1051.4000244141</ele>
        <time>2021-09-01T08:09:55Z</time>
      </trkpt>
      <trkpt lat="44.47871" lon="5.9733">
        <ele>1050.1999511719</ele>
        <time>2021-09-01T08:09:56Z</time>
      </trkpt>
      <trkpt lat="44.47865" lon="5.97341">
        <ele>1048.8000488281</ele>
        <time>2021-09-01T08:09:57Z</time>
      </trkpt>
      <trkpt lat="44.4786" lon="5.97353">
        <ele>1047.5999755859</ele>
        <time>2021-09-01T08:09:58Z</time>
      </trkpt>
      <trkpt lat="44.47859" lon="5.97367">
        <ele>1046.4000244141</ele>
        <time>2021-09-01T08:09:59Z</time>
      </trkpt>
      <trkpt lat="44.47858" lon="5.97381">
        <ele>1045</ele>
        <time>2021-09-01T08:10:00Z</time>
      </trkpt>
      <trkpt lat="44.47859" lon="5.97395">
        <ele>1043.5999755859</ele>
        <time>2021-09-01T08:10:01Z</time>
      </trkpt>
      <trkpt lat="44.47859" lon="5.9741">
        <ele>1041.1999511719</ele>
        <time>2021-09-01T08:10:02Z</time>
      </trkpt>
      <trkpt lat="44.47857" lon="5.97425">
        <ele>1040.1999511719</ele>
        <time>2021-09-01T08:10:03Z</time>
      </trkpt>
      <trkpt lat="44.47854" lon="5.97438">
        <ele>1039</ele>
        <time>2021-09-01T08:10:04Z</time>
      </trkpt>
      <trkpt lat="44.47847" lon="5.97451">
        <ele>1038</ele>
        <time>2021-09-01T08:10:05Z</time>
      </trkpt>
      <trkpt lat="44.47839" lon="5.97462">
        <ele>1036.8000488281</ele>
        <time>2021-09-01T08:10:06Z</time>
      </trkpt>
      <trkpt lat="44.47829" lon="5.97472">
        <ele>1035.8000488281</ele>
        <time>2021-09-01T08:10:07Z</time>
      </trkpt>
      <trkpt lat="44.4782" lon="5.97482">
        <ele>1034.5999755859</ele>
        <time>2021-09-01T08:10:08Z</time>
      </trkpt>
      <trkpt lat="44.4781" lon="5.97491">
        <ele>1033.4000244141</ele>
        <time>2021-09-01T08:10:09Z</time>
      </trkpt>
      <trkpt lat="44.478" lon="5.975">
        <ele>1032.4000244141</ele>
        <time>2021-09-01T08:10:10Z</time>
      </trkpt>
      <trkpt lat="44.4779" lon="5.97508">
        <ele>1031.4000244141</ele>
        <time>2021-09-01T08:10:11Z</time>
      </trkpt>
      <trkpt lat="44.47781" lon="5.97514">
        <ele>1030.5999755859</ele>
        <time>2021-09-01T08:10:12Z</time>
      </trkpt>
      <trkpt lat="44.47764" lon="5.97518">
        <ele>1028.8000488281</ele>
        <time>2021-09-01T08:10:14Z</time>
      </trkpt>
      <trkpt lat="44.47749" lon="5.97521">
        <ele>1027</ele>
        <time>2021-09-01T08:10:16Z</time>
      </trkpt>
      <trkpt lat="44.4774" lon="5.97523">
        <ele>1025.4000244141</ele>
        <time>2021-09-01T08:10:18Z</time>
      </trkpt>
      <trkpt lat="44.47735" lon="5.97524">
        <ele>1024.1999511719</ele>
        <time>2021-09-01T08:10:20Z</time>
      </trkpt>
      <trkpt lat="44.47728" lon="5.97524">
        <ele>1023</ele>
        <time>2021-09-01T08:10:23Z</time>
      </trkpt>
      <trkpt lat="44.4772" lon="5.97527">
        <ele>1022</ele>
        <time>2021-09-01T08:10:45Z</time>
      </trkpt>
      <trkpt lat="44.47719" lon="5.97534">
        <ele>1022</ele>
        <time>2021-09-01T08:10:51Z</time>
      </trkpt>
      <trkpt lat="44.47716" lon="5.97535">
        <ele>1021.799987793</ele>
        <time>2021-09-01T08:10:55Z</time>
      </trkpt>
      <trkpt lat="44.47712" lon="5.97534">
        <ele>1021.799987793</ele>
        <time>2021-09-01T08:10:59Z</time>
      </trkpt>
      <trkpt lat="44.47719" lon="5.97534">
        <ele>1021.5999755859</ele>
        <time>2021-09-01T08:11:47Z</time>
      </trkpt>
      <trkpt lat="44.47721" lon="5.97536">
        <ele>1021.5999755859</ele>
        <time>2021-09-01T08:11:48Z</time>
      </trkpt>
      <trkpt lat="44.47732" lon="5.97548">
        <ele>1021.5999755859</ele>
        <time>2021-09-01T08:11:53Z</time>
      </trkpt>
      <trkpt lat="44.47747" lon="5.97575">
        <ele>1021.200012207</ele>
        <time>2021-09-01T08:11:58Z</time>
      </trkpt>
      <trkpt lat="44.47753" lon="5.97588">
        <ele>1020.799987793</ele>
        <time>2021-09-01T08:12:00Z</time>
      </trkpt>
      <trkpt lat="44.47768" lon="5.97614">
        <ele>1019.799987793</ele>
        <time>2021-09-01T08:12:04Z</time>
      </trkpt>
      <trkpt lat="44.47772" lon="5.9762">
        <ele>1019.5999755859</ele>
        <time>2021-09-01T08:12:05Z</time>
      </trkpt>
      <trkpt lat="44.4778" lon="5.97633">
        <ele>1019.200012207</ele>
        <time>2021-09-01T08:12:07Z</time>
      </trkpt>
      <trkpt lat="44.47791" lon="5.97654">
        <ele>1018.799987793</ele>
        <time>2021-09-01T08:12:10Z</time>
      </trkpt>
      <trkpt lat="44.47798" lon="5.97673">
        <ele>1018</ele>
        <time>2021-09-01T08:12:14Z</time>
      </trkpt>
      <trkpt lat="44.47801" lon="5.97679">
        <ele>1017.4000244141</ele>
        <time>2021-09-01T08:12:16Z</time>
      </trkpt>
      <trkpt lat="44.47808" lon="5.9769">
        <ele>1017</ele>
        <time>2021-09-01T08:12:20Z</time>
      </trkpt>
      <trkpt lat="44.47809" lon="5.97687">
        <ele>1016.799987793</ele>
        <time>2021-09-01T08:12:22Z</time>
      </trkpt>
      <trkpt lat="44.47805" lon="5.97681">
        <ele>1016.5999755859</ele>
        <time>2021-09-01T08:12:25Z</time>
      </trkpt>
      <trkpt lat="44.47804" lon="5.97679">
        <ele>1016.5999755859</ele>
        <time>2021-09-01T08:12:26Z</time>
      </trkpt>
      <trkpt lat="44.47795" lon="5.97658">
        <ele>1016.799987793</ele>
        <time>2021-09-01T08:12:32Z</time>
      </trkpt>
      <trkpt lat="44.47781" lon="5.97629">
        <ele>1017.4000244141</ele>
        <time>2021-09-01T08:12:40Z</time>
      </trkpt>
      <trkpt lat="44.4777" lon="5.9761">
        <ele>1018</ele>
        <time>2021-09-01T08:12:46Z</time>
      </trkpt>
      <trkpt lat="44.47761" lon="5.97594">
        <ele>1018.5999755859</ele>
        <time>2021-09-01T08:12:51Z</time>
      </trkpt>
      <trkpt lat="44.47755" lon="5.97582">
        <ele>1019</ele>
        <time>2021-09-01T08:12:55Z</time>
      </trkpt>
      <trkpt lat="44.47744" lon="5.9756">
        <ele>1019.5999755859</ele>
        <time>2021-09-01T08:13:02Z</time>
      </trkpt>
      <trkpt lat="44.47742" lon="5.97557">
        <ele>1019.799987793</ele>
        <time>2021-09-01T08:13:03Z</time>
      </trkpt>
      <trkpt lat="44.4773" lon="5.97536">
        <ele>1020.799987793</ele>
        <time>2021-09-01T08:13:11Z</time>
      </trkpt>
      <trkpt lat="44.47725" lon="5.97518">
        <ele>1021.5999755859</ele>
        <time>2021-09-01T08:13:17Z</time>
      </trkpt>
      <trkpt lat="44.47724" lon="5.97511">
        <ele>1021.799987793</ele>
        <time>2021-09-01T08:13:19Z</time>
      </trkpt>
      <trkpt lat="44.47724" lon="5.97489">
        <ele>1022.4000244141</ele>
        <time>2021-09-01T08:13:25Z</time>
      </trkpt>
      <trkpt lat="44.47727" lon="5.97464">
        <ele>1022.799987793</ele>
        <time>2021-09-01T08:13:32Z</time>
      </trkpt>
      <trkpt lat="44.47727" lon="5.97434">
        <ele>1023.4000244141</ele>
        <time>2021-09-01T08:13:39Z</time>
      </trkpt>
      <trkpt lat="44.47729" lon="5.97409">
        <ele>1023.4000244141</ele>
        <time>2021-09-01T08:13:44Z</time>
      </trkpt>
      <trkpt lat="44.47733" lon="5.97398">
        <ele>1023.5999755859</ele>
        <time>2021-09-01T08:13:46Z</time>
      </trkpt>
      <trkpt lat="44.47746" lon="5.97382">
        <ele>1023.5999755859</ele>
        <time>2021-09-01T08:13:50Z</time>
      </trkpt>
      <trkpt lat="44.47776" lon="5.97362">
        <ele>1023.200012207</ele>
        <time>2021-09-01T08:13:57Z</time>
      </trkpt>
      <trkpt lat="44.47788" lon="5.97348">
        <ele>1023.200012207</ele>
        <time>2021-09-01T08:14:00Z</time>
      </trkpt>
      <trkpt lat="44.47794" lon="5.97337">
        <ele>1022.799987793</ele>
        <time>2021-09-01T08:14:02Z</time>
      </trkpt>
      <trkpt lat="44.47794" lon="5.97315">
        <ele>1022.799987793</ele>
        <time>2021-09-01T08:14:05Z</time>
      </trkpt>
      <trkpt lat="44.47781" lon="5.97291">
        <ele>1022.5999755859</ele>
        <time>2021-09-01T08:14:09Z</time>
      </trkpt>
      <trkpt lat="44.47765" lon="5.97284">
        <ele>1022.5999755859</ele>
        <time>2021-09-01T08:14:12Z</time>
      </trkpt>
      <trkpt lat="44.47749" lon="5.97277">
        <ele>1022.4000244141</ele>
        <time>2021-09-01T08:14:15Z</time>
      </trkpt>
      <trkpt lat="44.47718" lon="5.97256">
        <ele>1022.4000244141</ele>
        <time>2021-09-01T08:14:21Z</time>
      </trkpt>
      <trkpt lat="44.47706" lon="5.97239">
        <ele>1022.200012207</ele>
        <time>2021-09-01T08:14:24Z</time>
      </trkpt>
      <trkpt lat="44.477" lon="5.97226">
        <ele>1022</ele>
        <time>2021-09-01T08:14:26Z</time>
      </trkpt>
      <trkpt lat="44.47694" lon="5.97213">
        <ele>1021.799987793</ele>
        <time>2021-09-01T08:14:28Z</time>
      </trkpt>
      <trkpt lat="44.4767" lon="5.97164">
        <ele>1021.5999755859</ele>
        <time>2021-09-01T08:14:36Z</time>
      </trkpt>
      <trkpt lat="44.47644" lon="5.97111">
        <ele>1021.5999755859</ele>
        <time>2021-09-01T08:14:44Z</time>
      </trkpt>
      <trkpt lat="44.47613" lon="5.97063">
        <ele>1021.5999755859</ele>
        <time>2021-09-01T08:14:52Z</time>
      </trkpt>
      <trkpt lat="44.4758" lon="5.97029">
        <ele>1021.4000244141</ele>
        <time>2021-09-01T08:14:59Z</time>
      </trkpt>
      <trkpt lat="44.47547" lon="5.96995">
        <ele>1021.200012207</ele>
        <time>2021-09-01T08:15:06Z</time>
      </trkpt>
      <trkpt lat="44.47511" lon="5.96954">
        <ele>1021.200012207</ele>
        <time>2021-09-01T08:15:14Z</time>
      </trkpt>
      <trkpt lat="44.47497" lon="5.96932">
        <ele>1021.200012207</ele>
        <time>2021-09-01T08:15:18Z</time>
      </trkpt>
      <trkpt lat="44.47496" lon="5.96925">
        <ele>1021.200012207</ele>
        <time>2021-09-01T08:15:19Z</time>
      </trkpt>
      <trkpt lat="44.475" lon="5.96904">
        <ele>1021.200012207</ele>
        <time>2021-09-01T08:15:22Z</time>
      </trkpt>
      <trkpt lat="44.47514" lon="5.9688">
        <ele>1021</ele>
        <time>2021-09-01T08:15:26Z</time>
      </trkpt>
      <trkpt lat="44.47518" lon="5.96873">
        <ele>1021</ele>
        <time>2021-09-01T08:15:27Z</time>
      </trkpt>
      <trkpt lat="44.47528" lon="5.96858">
        <ele>1020.799987793</ele>
        <time>2021-09-01T08:15:29Z</time>
      </trkpt>
      <trkpt lat="44.47537" lon="5.96842">
        <ele>1020.4000244141</ele>
        <time>2021-09-01T08:15:31Z</time>
      </trkpt>
      <trkpt lat="44.4754" lon="5.96833">
        <ele>1020.200012207</ele>
        <time>2021-09-01T08:15:32Z</time>
      </trkpt>
      <trkpt lat="44.47546" lon="5.96814">
        <ele>1019.799987793</ele>
        <time>2021-09-01T08:15:34Z</time>
      </trkpt>
      <trkpt lat="44.47547" lon="5.96804">
        <ele>1019.5999755859</ele>
        <time>2021-09-01T08:15:35Z</time>
      </trkpt>
      <trkpt lat="44.47546" lon="5.96793">
        <ele>1019.4000244141</ele>
        <time>2021-09-01T08:15:36Z</time>
      </trkpt>
      <trkpt lat="44.47547" lon="5.96769">
        <ele>1018.4000244141</ele>
        <time>2021-09-01T08:15:38Z</time>
      </trkpt>
      <trkpt lat="44.47555" lon="5.96748">
        <ele>1017.4000244141</ele>
        <time>2021-09-01T08:15:40Z</time>
      </trkpt>
      <trkpt lat="44.4756" lon="5.96738">
        <ele>1017</ele>
        <time>2021-09-01T08:15:41Z</time>
      </trkpt>
      <trkpt lat="44.47564" lon="5.96727">
        <ele>1016.5999755859</ele>
        <time>2021-09-01T08:15:42Z</time>
      </trkpt>
      <trkpt lat="44.47573" lon="5.96706">
        <ele>1016</ele>
        <time>2021-09-01T08:15:44Z</time>
      </trkpt>
      <trkpt lat="44.47577" lon="5.96696">
        <ele>1015.5999755859</ele>
        <time>2021-09-01T08:15:45Z</time>
      </trkpt>
      <trkpt lat="44.47581" lon="5.96686">
        <ele>1015.200012207</ele>
        <time>2021-09-01T08:15:46Z</time>
      </trkpt>
      <trkpt lat="44.47584" lon="5.96666">
        <ele>1014.799987793</ele>
        <time>2021-09-01T08:15:48Z</time>
      </trkpt>
      <trkpt lat="44.47576" lon="5.9665">
        <ele>1014.4000244141</ele>
        <time>2021-09-01T08:15:50Z</time>
      </trkpt>
      <trkpt lat="44.47558" lon="5.96635">
        <ele>1014</ele>
        <time>2021-09-01T08:15:53Z</time>
      </trkpt>
      <trkpt lat="44.47546" lon="5.96635">
        <ele>1013.799987793</ele>
        <time>2021-09-01T08:15:55Z</time>
      </trkpt>
      <trkpt lat="44.4754" lon="5.9664">
        <ele>1013.5999755859</ele>
        <time>2021-09-01T08:15:56Z</time>
      </trkpt>
      <trkpt lat="44.47528" lon="5.96648">
        <ele>1013.4000244141</ele>
        <time>2021-09-01T08:15:58Z</time>
      </trkpt>
      <trkpt lat="44.47511" lon="5.96662">
        <ele>1013.200012207</ele>
        <time>2021-09-01T08:16:01Z</time>
      </trkpt>
      <trkpt lat="44.47484" lon="5.96688">
        <ele>1013.5999755859</ele>
        <time>2021-09-01T08:16:07Z</time>
      </trkpt>
      <trkpt lat="44.47474" lon="5.96702">
        <ele>1013.799987793</ele>
        <time>2021-09-01T08:16:10Z</time>
      </trkpt>
      <trkpt lat="44.47469" lon="5.96713">
        <ele>1014</ele>
        <time>2021-09-01T08:16:12Z</time>
      </trkpt>
      <trkpt lat="44.47467" lon="5.96719">
        <ele>1014</ele>
        <time>2021-09-01T08:16:13Z</time>
      </trkpt>
      <trkpt lat="44.47458" lon="5.96736">
        <ele>1014</ele>
        <time>2021-09-01T08:16:16Z</time>
      </trkpt>
      <trkpt lat="44.4745" lon="5.96744">
        <ele>1014.200012207</ele>
        <time>2021-09-01T08:16:18Z</time>
      </trkpt>
      <trkpt lat="44.47427" lon="5.96748">
        <ele>1014.200012207</ele>
        <time>2021-09-01T08:16:22Z</time>
      </trkpt>
      <trkpt lat="44.47421" lon="5.96747">
        <ele>1014.200012207</ele>
        <time>2021-09-01T08:16:23Z</time>
      </trkpt>
      <trkpt lat="44.47408" lon="5.96746">
        <ele>1014</ele>
        <time>2021-09-01T08:16:25Z</time>
      </trkpt>
      <trkpt lat="44.47396" lon="5.96744">
        <ele>1013.5999755859</ele>
        <time>2021-09-01T08:16:27Z</time>
      </trkpt>
      <trkpt lat="44.4739" lon="5.96744">
        <ele>1013.5999755859</ele>
        <time>2021-09-01T08:16:28Z</time>
      </trkpt>
      <trkpt lat="44.4735" lon="5.96751">
        <ele>1012.4000244141</ele>
        <time>2021-09-01T08:16:34Z</time>
      </trkpt>
      <trkpt lat="44.47343" lon="5.96753">
        <ele>1012.200012207</ele>
        <time>2021-09-01T08:16:35Z</time>
      </trkpt>
      <trkpt lat="44.47321" lon="5.96758">
        <ele>1011.4000244141</ele>
        <time>2021-09-01T08:16:38Z</time>
      </trkpt>
      <trkpt lat="44.47304" lon="5.96763">
        <ele>1010.799987793</ele>
        <time>2021-09-01T08:16:40Z</time>
      </trkpt>
      <trkpt lat="44.47295" lon="5.96766">
        <ele>1010.200012207</ele>
        <time>2021-09-01T08:16:41Z</time>
      </trkpt>
      <trkpt lat="44.47271" lon="5.96776">
        <ele>1009</ele>
        <time>2021-09-01T08:16:44Z</time>
      </trkpt>
      <trkpt lat="44.47255" lon="5.96781">
        <ele>1008.200012207</ele>
        <time>2021-09-01T08:16:46Z</time>
      </trkpt>
      <trkpt lat="44.47248" lon="5.96781">
        <ele>1007.799987793</ele>
        <time>2021-09-01T08:16:47Z</time>
      </trkpt>
      <trkpt lat="44.47235" lon="5.96776">
        <ele>1007</ele>
        <time>2021-09-01T08:16:49Z</time>
      </trkpt>
      <trkpt lat="44.47214" lon="5.96768">
        <ele>1007.200012207</ele>
        <time>2021-09-01T08:16:53Z</time>
      </trkpt>
      <trkpt lat="44.47172" lon="5.96759">
        <ele>1008</ele>
        <time>2021-09-01T08:17:01Z</time>
      </trkpt>
      <trkpt lat="44.47128" lon="5.96758">
        <ele>1007.4000244141</ele>
        <time>2021-09-01T08:17:08Z</time>
      </trkpt>
      <trkpt lat="44.47108" lon="5.96765">
        <ele>1006.799987793</ele>
        <time>2021-09-01T08:17:11Z</time>
      </trkpt>
      <trkpt lat="44.47102" lon="5.9677">
        <ele>1006.4000244141</ele>
        <time>2021-09-01T08:17:12Z</time>
      </trkpt>
      <trkpt lat="44.47095" lon="5.96774">
        <ele>1006.200012207</ele>
        <time>2021-09-01T08:17:13Z</time>
      </trkpt>
      <trkpt lat="44.47081" lon="5.96782">
        <ele>1005.5999755859</ele>
        <time>2021-09-01T08:17:15Z</time>
      </trkpt>
      <trkpt lat="44.47054" lon="5.96802">
        <ele>1004.5999755859</ele>
        <time>2021-09-01T08:17:19Z</time>
      </trkpt>
      <trkpt lat="44.47047" lon="5.96805">
        <ele>1004.200012207</ele>
        <time>2021-09-01T08:17:20Z</time>
      </trkpt>
      <trkpt lat="44.4702" lon="5.96817">
        <ele>1003.4000244141</ele>
        <time>2021-09-01T08:17:24Z</time>
      </trkpt>
      <trkpt lat="44.47006" lon="5.96822">
        <ele>1003.4000244141</ele>
        <time>2021-09-01T08:17:26Z</time>
      </trkpt>
      <trkpt lat="44.46967" lon="5.96837">
        <ele>1002.4000244141</ele>
        <time>2021-09-01T08:17:32Z</time>
      </trkpt>
      <trkpt lat="44.46961" lon="5.96839">
        <ele>1002.200012207</ele>
        <time>2021-09-01T08:17:33Z</time>
      </trkpt>
      <trkpt lat="44.46947" lon="5.96841">
        <ele>1002</ele>
        <time>2021-09-01T08:17:35Z</time>
      </trkpt>
      <trkpt lat="44.46933" lon="5.96839">
        <ele>1001.799987793</ele>
        <time>2021-09-01T08:17:37Z</time>
      </trkpt>
      <trkpt lat="44.46918" lon="5.96834">
        <ele>1001.5999755859</ele>
        <time>2021-09-01T08:17:39Z</time>
      </trkpt>
      <trkpt lat="44.46904" lon="5.96828">
        <ele>1001.200012207</ele>
        <time>2021-09-01T08:17:41Z</time>
      </trkpt>
      <trkpt lat="44.4689" lon="5.96821">
        <ele>1001</ele>
        <time>2021-09-01T08:17:43Z</time>
      </trkpt>
      <trkpt lat="44.46839" lon="5.96798">
        <ele>1000.200012207</ele>
        <time>2021-09-01T08:17:50Z</time>
      </trkpt>
      <trkpt lat="44.46832" lon="5.96794">
        <ele>1000</ele>
        <time>2021-09-01T08:17:51Z</time>
      </trkpt>
      <trkpt lat="44.46797" lon="5.96779">
        <ele>999</ele>
        <time>2021-09-01T08:17:56Z</time>
      </trkpt>
      <trkpt lat="44.46777" lon="5.9677">
        <ele>998.59997558594</ele>
        <time>2021-09-01T08:17:59Z</time>
      </trkpt>
      <trkpt lat="44.46733" lon="5.96749">
        <ele>998</ele>
        <time>2021-09-01T08:18:06Z</time>
      </trkpt>
      <trkpt lat="44.46727" lon="5.96747">
        <ele>998</ele>
        <time>2021-09-01T08:18:07Z</time>
      </trkpt>
      <trkpt lat="44.46679" lon="5.96725">
        <ele>998</ele>
        <time>2021-09-01T08:18:15Z</time>
      </trkpt>
      <trkpt lat="44.46623" lon="5.96701">
        <ele>997.79998779297</ele>
        <time>2021-09-01T08:18:25Z</time>
      </trkpt>
      <trkpt lat="44.46575" lon="5.96681">
        <ele>998</ele>
        <time>2021-09-01T08:18:34Z</time>
      </trkpt>
      <trkpt lat="44.46533" lon="5.96661">
        <ele>998.20001220703</ele>
        <time>2021-09-01T08:18:42Z</time>
      </trkpt>
      <trkpt lat="44.46523" lon="5.96657">
        <ele>998.20001220703</ele>
        <time>2021-09-01T08:18:44Z</time>
      </trkpt>
      <trkpt lat="44.46507" lon="5.96659">
        <ele>998.20001220703</ele>
        <time>2021-09-01T08:18:47Z</time>
      </trkpt>
      <trkpt lat="44.46488" lon="5.96673">
        <ele>998.20001220703</ele>
        <time>2021-09-01T08:18:51Z</time>
      </trkpt>
      <trkpt lat="44.46484" lon="5.96679">
        <ele>998.20001220703</ele>
        <time>2021-09-01T08:18:53Z</time>
      </trkpt>
      <trkpt lat="44.4646" lon="5.96717">
        <ele>998.20001220703</ele>
        <time>2021-09-01T08:18:59Z</time>
      </trkpt>
      <trkpt lat="44.46439" lon="5.96729">
        <ele>998.20001220703</ele>
        <time>2021-09-01T08:19:03Z</time>
      </trkpt>
      <trkpt lat="44.46433" lon="5.96731">
        <ele>998.20001220703</ele>
        <time>2021-09-01T08:19:04Z</time>
      </trkpt>
      <trkpt lat="44.46402" lon="5.96737">
        <ele>998</ele>
        <time>2021-09-01T08:19:10Z</time>
      </trkpt>
      <trkpt lat="44.46367" lon="5.96751">
        <ele>998</ele>
        <time>2021-09-01T08:19:17Z</time>
      </trkpt>
      <trkpt lat="44.46352" lon="5.96757">
        <ele>998</ele>
        <time>2021-09-01T08:19:20Z</time>
      </trkpt>
      <trkpt lat="44.46337" lon="5.9676">
        <ele>998</ele>
        <time>2021-09-01T08:19:23Z</time>
      </trkpt>
      <trkpt lat="44.46332" lon="5.9676">
        <ele>998</ele>
        <time>2021-09-01T08:19:24Z</time>
      </trkpt>
      <trkpt lat="44.46317" lon="5.96761">
        <ele>998.20001220703</ele>
        <time>2021-09-01T08:19:27Z</time>
      </trkpt>
      <trkpt lat="44.46303" lon="5.96766">
        <ele>998.40002441406</ele>
        <time>2021-09-01T08:19:30Z</time>
      </trkpt>
      <trkpt lat="44.46281" lon="5.96783">
        <ele>998.59997558594</ele>
        <time>2021-09-01T08:19:35Z</time>
      </trkpt>
      <trkpt lat="44.46278" lon="5.96786">
        <ele>998.79998779297</ele>
        <time>2021-09-01T08:19:36Z</time>
      </trkpt>
      <trkpt lat="44.46271" lon="5.96795">
        <ele>998.79998779297</ele>
        <time>2021-09-01T08:19:38Z</time>
      </trkpt>
      <trkpt lat="44.46258" lon="5.96816">
        <ele>999</ele>
        <time>2021-09-01T08:19:42Z</time>
      </trkpt>
      <trkpt lat="44.4624" lon="5.96852">
        <ele>999.40002441406</ele>
        <time>2021-09-01T08:19:48Z</time>
      </trkpt>
      <trkpt lat="44.46238" lon="5.96859">
        <ele>999.40002441406</ele>
        <time>2021-09-01T08:19:49Z</time>
      </trkpt>
      <trkpt lat="44.46228" lon="5.96893">
        <ele>999.79998779297</ele>
        <time>2021-09-01T08:19:54Z</time>
      </trkpt>
      <trkpt lat="44.46222" lon="5.96921">
        <ele>1000</ele>
        <time>2021-09-01T08:19:58Z</time>
      </trkpt>
      <trkpt lat="44.46217" lon="5.96943">
        <ele>1000.200012207</ele>
        <time>2021-09-01T08:20:01Z</time>
      </trkpt>
      <trkpt lat="44.46215" lon="5.96949">
        <ele>1000.200012207</ele>
        <time>2021-09-01T08:20:02Z</time>
      </trkpt>
      <trkpt lat="44.46204" lon="5.96963">
        <ele>1000.200012207</ele>
        <time>2021-09-01T08:20:05Z</time>
      </trkpt>
      <trkpt lat="44.4619" lon="5.9697">
        <ele>1000.200012207</ele>
        <time>2021-09-01T08:20:08Z</time>
      </trkpt>
      <trkpt lat="44.46185" lon="5.96972">
        <ele>1000.200012207</ele>
        <time>2021-09-01T08:20:09Z</time>
      </trkpt>
      <trkpt lat="44.46181" lon="5.96972">
        <ele>1000.200012207</ele>
        <time>2021-09-01T08:20:10Z</time>
      </trkpt>
      <trkpt lat="44.46169" lon="5.96977">
        <ele>1000.200012207</ele>
        <time>2021-09-01T08:20:13Z</time>
      </trkpt>
      <trkpt lat="44.46164" lon="5.96981">
        <ele>1000.4000244141</ele>
        <time>2021-09-01T08:20:14Z</time>
      </trkpt>
      <trkpt lat="44.46151" lon="5.96996">
        <ele>1000.4000244141</ele>
        <time>2021-09-01T08:20:17Z</time>
      </trkpt>
      <trkpt lat="44.46144" lon="5.97006">
        <ele>1000.4000244141</ele>
        <time>2021-09-01T08:20:19Z</time>
      </trkpt>
      <trkpt lat="44.4613" lon="5.9704">
        <ele>1000.4000244141</ele>
        <time>2021-09-01T08:20:24Z</time>
      </trkpt>
      <trkpt lat="44.46128" lon="5.97047">
        <ele>1000.5999755859</ele>
        <time>2021-09-01T08:20:25Z</time>
      </trkpt>
      <trkpt lat="44.46117" lon="5.97092">
        <ele>1000.799987793</ele>
        <time>2021-09-01T08:20:31Z</time>
      </trkpt>
      <trkpt lat="44.46114" lon="5.97099">
        <ele>1000.799987793</ele>
        <time>2021-09-01T08:20:32Z</time>
      </trkpt>
      <trkpt lat="44.46096" lon="5.97116">
        <ele>1000.799987793</ele>
        <time>2021-09-01T08:20:36Z</time>
      </trkpt>
      <trkpt lat="44.46074" lon="5.97122">
        <ele>1000.799987793</ele>
        <time>2021-09-01T08:20:40Z</time>
      </trkpt>
      <trkpt lat="44.4607" lon="5.97123">
        <ele>1000.799987793</ele>
        <time>2021-09-01T08:20:41Z</time>
      </trkpt>
      <trkpt lat="44.46065" lon="5.97125">
        <ele>1000.799987793</ele>
        <time>2021-09-01T08:20:42Z</time>
      </trkpt>
      <trkpt lat="44.46047" lon="5.97139">
        <ele>1001</ele>
        <time>2021-09-01T08:20:46Z</time>
      </trkpt>
      <trkpt lat="44.46039" lon="5.97148">
        <ele>1001</ele>
        <time>2021-09-01T08:20:48Z</time>
      </trkpt>
      <trkpt lat="44.46029" lon="5.97164">
        <ele>1001</ele>
        <time>2021-09-01T08:20:51Z</time>
      </trkpt>
      <trkpt lat="44.46004" lon="5.97209">
        <ele>1001.5999755859</ele>
        <time>2021-09-01T08:20:59Z</time>
      </trkpt>
      <trkpt lat="44.45986" lon="5.97246">
        <ele>1001.799987793</ele>
        <time>2021-09-01T08:21:05Z</time>
      </trkpt>
      <trkpt lat="44.45974" lon="5.97275">
        <ele>1002.200012207</ele>
        <time>2021-09-01T08:21:10Z</time>
      </trkpt>
      <trkpt lat="44.45972" lon="5.97281">
        <ele>1002.200012207</ele>
        <time>2021-09-01T08:21:11Z</time>
      </trkpt>
      <trkpt lat="44.45958" lon="5.97322">
        <ele>1002.4000244141</ele>
        <time>2021-09-01T08:21:17Z</time>
      </trkpt>
      <trkpt lat="44.45944" lon="5.97364">
        <ele>1002.4000244141</ele>
        <time>2021-09-01T08:21:23Z</time>
      </trkpt>
      <trkpt lat="44.45942" lon="5.97391">
        <ele>1002.4000244141</ele>
        <time>2021-09-01T08:21:27Z</time>
      </trkpt>
      <trkpt lat="44.45945" lon="5.97405">
        <ele>1002.5999755859</ele>
        <time>2021-09-01T08:21:29Z</time>
      </trkpt>
      <trkpt lat="44.45956" lon="5.97427">
        <ele>1002.799987793</ele>
        <time>2021-09-01T08:21:33Z</time>
      </trkpt>
      <trkpt lat="44.45963" lon="5.97436">
        <ele>1002.799987793</ele>
        <time>2021-09-01T08:21:35Z</time>
      </trkpt>
      <trkpt lat="44.4597" lon="5.97443">
        <ele>1002.799987793</ele>
        <time>2021-09-01T08:21:37Z</time>
      </trkpt>
      <trkpt lat="44.45978" lon="5.97447">
        <ele>1002.799987793</ele>
        <time>2021-09-01T08:21:39Z</time>
      </trkpt>
      <trkpt lat="44.46001" lon="5.97458">
        <ele>1003.200012207</ele>
        <time>2021-09-01T08:21:45Z</time>
      </trkpt>
      <trkpt lat="44.46005" lon="5.97459">
        <ele>1003.200012207</ele>
        <time>2021-09-01T08:21:46Z</time>
      </trkpt>
      <trkpt lat="44.46025" lon="5.97471">
        <ele>1003.4000244141</ele>
        <time>2021-09-01T08:21:52Z</time>
      </trkpt>
      <trkpt lat="44.46034" lon="5.97486">
        <ele>1003.4000244141</ele>
        <time>2021-09-01T08:21:57Z</time>
      </trkpt>
      <trkpt lat="44.46037" lon="5.9751">
        <ele>1003.4000244141</ele>
        <time>2021-09-01T08:22:02Z</time>
      </trkpt>
      <trkpt lat="44.46036" lon="5.97532">
        <ele>1003.799987793</ele>
        <time>2021-09-01T08:22:08Z</time>
      </trkpt>
      <trkpt lat="44.46035" lon="5.97535">
        <ele>1003.799987793</ele>
        <time>2021-09-01T08:22:16Z</time>
      </trkpt>
      <trkpt lat="44.46034" lon="5.97537">
        <ele>1003.799987793</ele>
        <time>2021-09-01T08:22:17Z</time>
      </trkpt>
      <trkpt lat="44.4603" lon="5.97553">
        <ele>1003.799987793</ele>
        <time>2021-09-01T08:22:22Z</time>
      </trkpt>
      <trkpt lat="44.46026" lon="5.97566">
        <ele>1003.799987793</ele>
        <time>2021-09-01T08:24:01Z</time>
      </trkpt>
      <trkpt lat="44.46019" lon="5.97584">
        <ele>1003.799987793</ele>
        <time>2021-09-01T08:24:07Z</time>
      </trkpt>
      <trkpt lat="44.46011" lon="5.97607">
        <ele>1004</ele>
        <time>2021-09-01T08:24:12Z</time>
      </trkpt>
      <trkpt lat="44.4601" lon="5.97612">
        <ele>1004.200012207</ele>
        <time>2021-09-01T08:24:13Z</time>
      </trkpt>
      <trkpt lat="44.45998" lon="5.97641">
        <ele>1004.4000244141</ele>
        <time>2021-09-01T08:24:19Z</time>
      </trkpt>
      <trkpt lat="44.45994" lon="5.97651">
        <ele>1004.4000244141</ele>
        <time>2021-09-01T08:24:21Z</time>
      </trkpt>
      <trkpt lat="44.4598" lon="5.97674">
        <ele>1004.5999755859</ele>
        <time>2021-09-01T08:24:26Z</time>
      </trkpt>
      <trkpt lat="44.4596" lon="5.97686">
        <ele>1004.799987793</ele>
        <time>2021-09-01T08:24:31Z</time>
      </trkpt>
      <trkpt lat="44.4595" lon="5.97689">
        <ele>1005</ele>
        <time>2021-09-01T08:24:33Z</time>
      </trkpt>
      <trkpt lat="44.45938" lon="5.97693">
        <ele>1005.200012207</ele>
        <time>2021-09-01T08:24:36Z</time>
      </trkpt>
      <trkpt lat="44.45929" lon="5.97697">
        <ele>1005.200012207</ele>
        <time>2021-09-01T08:24:38Z</time>
      </trkpt>
      <trkpt lat="44.45917" lon="5.97707">
        <ele>1005.4000244141</ele>
        <time>2021-09-01T08:24:41Z</time>
      </trkpt>
      <trkpt lat="44.45907" lon="5.9772">
        <ele>1005.5999755859</ele>
        <time>2021-09-01T08:24:44Z</time>
      </trkpt>
      <trkpt lat="44.459" lon="5.97729">
        <ele>1005.5999755859</ele>
        <time>2021-09-01T08:24:46Z</time>
      </trkpt>
      <trkpt lat="44.45885" lon="5.97752">
        <ele>1005.799987793</ele>
        <time>2021-09-01T08:24:51Z</time>
      </trkpt>
      <trkpt lat="44.45878" lon="5.97776">
        <ele>1005.799987793</ele>
        <time>2021-09-01T08:24:55Z</time>
      </trkpt>
      <trkpt lat="44.45877" lon="5.97782">
        <ele>1005.799987793</ele>
        <time>2021-09-01T08:24:56Z</time>
      </trkpt>
      <trkpt lat="44.45876" lon="5.97801">
        <ele>1006</ele>
        <time>2021-09-01T08:24:59Z</time>
      </trkpt>
      <trkpt lat="44.45877" lon="5.97819">
        <ele>1006</ele>
        <time>2021-09-01T08:25:02Z</time>
      </trkpt>
      <trkpt lat="44.45877" lon="5.97866">
        <ele>1006.200012207</ele>
        <time>2021-09-01T08:25:10Z</time>
      </trkpt>
      <trkpt lat="44.45869" lon="5.9788">
        <ele>1006.4000244141</ele>
        <time>2021-09-01T08:25:14Z</time>
      </trkpt>
      <trkpt lat="44.45854" lon="5.9791">
        <ele>1007.200012207</ele>
        <time>2021-09-01T08:25:21Z</time>
      </trkpt>
      <trkpt lat="44.45841" lon="5.97937">
        <ele>1007.5999755859</ele>
        <time>2021-09-01T08:25:27Z</time>
      </trkpt>
      <trkpt lat="44.45826" lon="5.9797">
        <ele>1008.200012207</ele>
        <time>2021-09-01T08:25:34Z</time>
      </trkpt>
      <trkpt lat="44.45822" lon="5.97979">
        <ele>1008.200012207</ele>
        <time>2021-09-01T08:25:36Z</time>
      </trkpt>
      <trkpt lat="44.4581" lon="5.98003">
        <ele>1008.5999755859</ele>
        <time>2021-09-01T08:25:41Z</time>
      </trkpt>
      <trkpt lat="44.45792" lon="5.98038">
        <ele>1009</ele>
        <time>2021-09-01T08:25:48Z</time>
      </trkpt>
      <trkpt lat="44.45783" lon="5.98052">
        <ele>1009.4000244141</ele>
        <time>2021-09-01T08:25:51Z</time>
      </trkpt>
      <trkpt lat="44.4578" lon="5.98056">
        <ele>1009.4000244141</ele>
        <time>2021-09-01T08:25:52Z</time>
      </trkpt>
      <trkpt lat="44.4577" lon="5.98066">
        <ele>1009.4000244141</ele>
        <time>2021-09-01T08:25:55Z</time>
      </trkpt>
      <trkpt lat="44.45743" lon="5.98087">
        <ele>1010.200012207</ele>
        <time>2021-09-01T08:26:03Z</time>
      </trkpt>
      <trkpt lat="44.4574" lon="5.9809">
        <ele>1010.4000244141</ele>
        <time>2021-09-01T08:26:04Z</time>
      </trkpt>
      <trkpt lat="44.45723" lon="5.98104">
        <ele>1011</ele>
        <time>2021-09-01T08:26:10Z</time>
      </trkpt>
      <trkpt lat="44.45714" lon="5.98112">
        <ele>1011.5999755859</ele>
        <time>2021-09-01T08:26:14Z</time>
      </trkpt>
      <trkpt lat="44.45706" lon="5.9812">
        <ele>1012.200012207</ele>
        <time>2021-09-01T08:26:18Z</time>
      </trkpt>
      <trkpt lat="44.45702" lon="5.98123">
        <ele>1012.5999755859</ele>
        <time>2021-09-01T08:26:20Z</time>
      </trkpt>
      <trkpt lat="44.45693" lon="5.98128">
        <ele>1013.200012207</ele>
        <time>2021-09-01T08:26:25Z</time>
      </trkpt>
      <trkpt lat="44.45688" lon="5.98133">
        <ele>1013.799987793</ele>
        <time>2021-09-01T08:26:28Z</time>
      </trkpt>
      <trkpt lat="44.45676" lon="5.98142">
        <ele>1014.4000244141</ele>
        <time>2021-09-01T08:26:34Z</time>
      </trkpt>
      <trkpt lat="44.45668" lon="5.98149">
        <ele>1014.799987793</ele>
        <time>2021-09-01T08:26:38Z</time>
      </trkpt>
      <trkpt lat="44.45659" lon="5.98158">
        <ele>1015.4000244141</ele>
        <time>2021-09-01T08:26:43Z</time>
      </trkpt>
      <trkpt lat="44.45649" lon="5.98165">
        <ele>1016</ele>
        <time>2021-09-01T08:26:48Z</time>
      </trkpt>
      <trkpt lat="44.45645" lon="5.98168">
        <ele>1016.200012207</ele>
        <time>2021-09-01T08:26:50Z</time>
      </trkpt>
      <trkpt lat="44.45633" lon="5.98175">
        <ele>1017</ele>
        <time>2021-09-01T08:26:56Z</time>
      </trkpt>
      <trkpt lat="44.45628" lon="5.98176">
        <ele>1017.4000244141</ele>
        <time>2021-09-01T08:26:59Z</time>
      </trkpt>
      <trkpt lat="44.45618" lon="5.98179">
        <ele>1018.200012207</ele>
        <time>2021-09-01T08:27:04Z</time>
      </trkpt>
      <trkpt lat="44.45612" lon="5.98181">
        <ele>1018.5999755859</ele>
        <time>2021-09-01T08:27:07Z</time>
      </trkpt>
      <trkpt lat="44.45602" lon="5.98182">
        <ele>1019.200012207</ele>
        <time>2021-09-01T08:27:12Z</time>
      </trkpt>
      <trkpt lat="44.45598" lon="5.98183">
        <ele>1019.4000244141</ele>
        <time>2021-09-01T08:27:14Z</time>
      </trkpt>
      <trkpt lat="44.45588" lon="5.98187">
        <ele>1020.200012207</ele>
        <time>2021-09-01T08:27:19Z</time>
      </trkpt>
      <trkpt lat="44.45584" lon="5.98187">
        <ele>1020.5999755859</ele>
        <time>2021-09-01T08:27:21Z</time>
      </trkpt>
      <trkpt lat="44.45574" lon="5.9819">
        <ele>1021.200012207</ele>
        <time>2021-09-01T08:27:26Z</time>
      </trkpt>
      <trkpt lat="44.4557" lon="5.98192">
        <ele>1021.5999755859</ele>
        <time>2021-09-01T08:27:28Z</time>
      </trkpt>
      <trkpt lat="44.45558" lon="5.98194">
        <ele>1022.4000244141</ele>
        <time>2021-09-01T08:27:34Z</time>
      </trkpt>
      <trkpt lat="44.45554" lon="5.98195">
        <ele>1022.5999755859</ele>
        <time>2021-09-01T08:27:36Z</time>
      </trkpt>
      <trkpt lat="44.45545" lon="5.98197">
        <ele>1023.4000244141</ele>
        <time>2021-09-01T08:27:41Z</time>
      </trkpt>
      <trkpt lat="44.45541" lon="5.98197">
        <ele>1023.799987793</ele>
        <time>2021-09-01T08:27:43Z</time>
      </trkpt>
      <trkpt lat="44.4553" lon="5.982">
        <ele>1024.5999755859</ele>
        <time>2021-09-01T08:27:49Z</time>
      </trkpt>
      <trkpt lat="44.45526" lon="5.98202">
        <ele>1024.8000488281</ele>
        <time>2021-09-01T08:27:51Z</time>
      </trkpt>
      <trkpt lat="44.45512" lon="5.98203">
        <ele>1025.5999755859</ele>
        <time>2021-09-01T08:27:58Z</time>
      </trkpt>
      <trkpt lat="44.45508" lon="5.98205">
        <ele>1026</ele>
        <time>2021-09-01T08:28:00Z</time>
      </trkpt>
      <trkpt lat="44.45501" lon="5.98207">
        <ele>1026.8000488281</ele>
        <time>2021-09-01T08:28:04Z</time>
      </trkpt>
      <trkpt lat="44.45493" lon="5.98208">
        <ele>1027.4000244141</ele>
        <time>2021-09-01T08:28:08Z</time>
      </trkpt>
      <trkpt lat="44.45486" lon="5.98212">
        <ele>1027.8000488281</ele>
        <time>2021-09-01T08:28:12Z</time>
      </trkpt>
      <trkpt lat="44.45474" lon="5.98216">
        <ele>1028.8000488281</ele>
        <time>2021-09-01T08:28:18Z</time>
      </trkpt>
      <trkpt lat="44.45472" lon="5.98217">
        <ele>1029</ele>
        <time>2021-09-01T08:28:19Z</time>
      </trkpt>
      <trkpt lat="44.45459" lon="5.98222">
        <ele>1030</ele>
        <time>2021-09-01T08:28:26Z</time>
      </trkpt>
      <trkpt lat="44.45448" lon="5.98227">
        <ele>1031.1999511719</ele>
        <time>2021-09-01T08:28:32Z</time>
      </trkpt>
      <trkpt lat="44.45435" lon="5.98232">
        <ele>1032.1999511719</ele>
        <time>2021-09-01T08:28:39Z</time>
      </trkpt>
      <trkpt lat="44.45433" lon="5.98233">
        <ele>1032.4000244141</ele>
        <time>2021-09-01T08:28:40Z</time>
      </trkpt>
      <trkpt lat="44.45422" lon="5.98238">
        <ele>1033.4000244141</ele>
        <time>2021-09-01T08:28:46Z</time>
      </trkpt>
      <trkpt lat="44.45416" lon="5.98237">
        <ele>1033.8000488281</ele>
        <time>2021-09-01T08:28:49Z</time>
      </trkpt>
      <trkpt lat="44.4541" lon="5.98239">
        <ele>1034.4000244141</ele>
        <time>2021-09-01T08:28:53Z</time>
      </trkpt>
      <trkpt lat="44.45404" lon="5.98239">
        <ele>1035</ele>
        <time>2021-09-01T08:28:56Z</time>
      </trkpt>
      <trkpt lat="44.45398" lon="5.9824">
        <ele>1035.5999755859</ele>
        <time>2021-09-01T08:28:59Z</time>
      </trkpt>
      <trkpt lat="44.45391" lon="5.98241">
        <ele>1036.1999511719</ele>
        <time>2021-09-01T08:29:03Z</time>
      </trkpt>
      <trkpt lat="44.45386" lon="5.98243">
        <ele>1036.5999755859</ele>
        <time>2021-09-01T08:29:06Z</time>
      </trkpt>
      <trkpt lat="44.45377" lon="5.98243">
        <ele>1037.4000244141</ele>
        <time>2021-09-01T08:29:11Z</time>
      </trkpt>
      <trkpt lat="44.45372" lon="5.98243">
        <ele>1037.5999755859</ele>
        <time>2021-09-01T08:29:14Z</time>
      </trkpt>
      <trkpt lat="44.45362" lon="5.98243">
        <ele>1038.5999755859</ele>
        <time>2021-09-01T08:29:19Z</time>
      </trkpt>
      <trkpt lat="44.45359" lon="5.98241">
        <ele>1038.8000488281</ele>
        <time>2021-09-01T08:29:21Z</time>
      </trkpt>
      <trkpt lat="44.45348" lon="5.9824">
        <ele>1039.5999755859</ele>
        <time>2021-09-01T08:29:27Z</time>
      </trkpt>
      <trkpt lat="44.45345" lon="5.9824">
        <ele>1039.8000488281</ele>
        <time>2021-09-01T08:29:29Z</time>
      </trkpt>
      <trkpt lat="44.4533" lon="5.98236">
        <ele>1040.8000488281</ele>
        <time>2021-09-01T08:29:37Z</time>
      </trkpt>
      <trkpt lat="44.45328" lon="5.98236">
        <ele>1041</ele>
        <time>2021-09-01T08:29:38Z</time>
      </trkpt>
      <trkpt lat="44.45316" lon="5.98234">
        <ele>1042</ele>
        <time>2021-09-01T08:29:44Z</time>
      </trkpt>
      <trkpt lat="44.45312" lon="5.98233">
        <ele>1042.4000244141</ele>
        <time>2021-09-01T08:29:46Z</time>
      </trkpt>
      <trkpt lat="44.45299" lon="5.98228">
        <ele>1043.1999511719</ele>
        <time>2021-09-01T08:29:53Z</time>
      </trkpt>
      <trkpt lat="44.45293" lon="5.98227">
        <ele>1043.8000488281</ele>
        <time>2021-09-01T08:29:56Z</time>
      </trkpt>
      <trkpt lat="44.45285" lon="5.98224">
        <ele>1044.4000244141</ele>
        <time>2021-09-01T08:30:00Z</time>
      </trkpt>
      <trkpt lat="44.45278" lon="5.9822">
        <ele>1045.1999511719</ele>
        <time>2021-09-01T08:30:04Z</time>
      </trkpt>
      <trkpt lat="44.45275" lon="5.9822">
        <ele>1045.5999755859</ele>
        <time>2021-09-01T08:30:06Z</time>
      </trkpt>
      <trkpt lat="44.45262" lon="5.98213">
        <ele>1046.5999755859</ele>
        <time>2021-09-01T08:30:13Z</time>
      </trkpt>
      <trkpt lat="44.45251" lon="5.98206">
        <ele>1047.4000244141</ele>
        <time>2021-09-01T08:30:21Z</time>
      </trkpt>
      <trkpt lat="44.45249" lon="5.98203">
        <ele>1047.8000488281</ele>
        <time>2021-09-01T08:31:20Z</time>
      </trkpt>
      <trkpt lat="44.45246" lon="5.98199">
        <ele>1047.8000488281</ele>
        <time>2021-09-01T08:31:22Z</time>
      </trkpt>
      <trkpt lat="44.45229" lon="5.98187">
        <ele>1047.5999755859</ele>
        <time>2021-09-01T08:31:29Z</time>
      </trkpt>
      <trkpt lat="44.45207" lon="5.98172">
        <ele>1047.8000488281</ele>
        <time>2021-09-01T08:31:36Z</time>
      </trkpt>
      <trkpt lat="44.45204" lon="5.98171">
        <ele>1047.8000488281</ele>
        <time>2021-09-01T08:31:37Z</time>
      </trkpt>
      <trkpt lat="44.45199" lon="5.98171">
        <ele>1047.5999755859</ele>
        <time>2021-09-01T08:31:38Z</time>
      </trkpt>
      <trkpt lat="44.4519" lon="5.98176">
        <ele>1047.4000244141</ele>
        <time>2021-09-01T08:31:40Z</time>
      </trkpt>
      <trkpt lat="44.45181" lon="5.98186">
        <ele>1046.8000488281</ele>
        <time>2021-09-01T08:31:42Z</time>
      </trkpt>
      <trkpt lat="44.45173" lon="5.98201">
        <ele>1046.4000244141</ele>
        <time>2021-09-01T08:31:44Z</time>
      </trkpt>
      <trkpt lat="44.45169" lon="5.98209">
        <ele>1046.1999511719</ele>
        <time>2021-09-01T08:31:45Z</time>
      </trkpt>
      <trkpt lat="44.45161" lon="5.98227">
        <ele>1045.5999755859</ele>
        <time>2021-09-01T08:31:47Z</time>
      </trkpt>
      <trkpt lat="44.45152" lon="5.98247">
        <ele>1044.5999755859</ele>
        <time>2021-09-01T08:31:49Z</time>
      </trkpt>
      <trkpt lat="44.45146" lon="5.98257">
        <ele>1044</ele>
        <time>2021-09-01T08:31:50Z</time>
      </trkpt>
      <trkpt lat="44.45139" lon="5.98267">
        <ele>1043.1999511719</ele>
        <time>2021-09-01T08:31:51Z</time>
      </trkpt>
      <trkpt lat="44.45131" lon="5.98276">
        <ele>1042.4000244141</ele>
        <time>2021-09-01T08:31:52Z</time>
      </trkpt>
      <trkpt lat="44.45122" lon="5.98283">
        <ele>1041.8000488281</ele>
        <time>2021-09-01T08:31:53Z</time>
      </trkpt>
      <trkpt lat="44.45113" lon="5.9829">
        <ele>1041</ele>
        <time>2021-09-01T08:31:54Z</time>
      </trkpt>
      <trkpt lat="44.45091" lon="5.983">
        <ele>1039.1999511719</ele>
        <time>2021-09-01T08:31:56Z</time>
      </trkpt>
      <trkpt lat="44.45079" lon="5.98303">
        <ele>1038.1999511719</ele>
        <time>2021-09-01T08:31:57Z</time>
      </trkpt>
      <trkpt lat="44.45068" lon="5.98305">
        <ele>1037.1999511719</ele>
        <time>2021-09-01T08:31:58Z</time>
      </trkpt>
      <trkpt lat="44.45055" lon="5.98307">
        <ele>1036.1999511719</ele>
        <time>2021-09-01T08:31:59Z</time>
      </trkpt>
      <trkpt lat="44.45043" lon="5.9831">
        <ele>1035.1999511719</ele>
        <time>2021-09-01T08:32:00Z</time>
      </trkpt>
      <trkpt lat="44.4503" lon="5.98311">
        <ele>1034.1999511719</ele>
        <time>2021-09-01T08:32:01Z</time>
      </trkpt>
      <trkpt lat="44.45017" lon="5.98313">
        <ele>1033</ele>
        <time>2021-09-01T08:32:02Z</time>
      </trkpt>
      <trkpt lat="44.45003" lon="5.98314">
        <ele>1032</ele>
        <time>2021-09-01T08:32:03Z</time>
      </trkpt>
      <trkpt lat="44.44991" lon="5.98315">
        <ele>1031</ele>
        <time>2021-09-01T08:32:04Z</time>
      </trkpt>
      <trkpt lat="44.44979" lon="5.98316">
        <ele>1028.5999755859</ele>
        <time>2021-09-01T08:32:05Z</time>
      </trkpt>
      <trkpt lat="44.44966" lon="5.98317">
        <ele>1027.1999511719</ele>
        <time>2021-09-01T08:32:06Z</time>
      </trkpt>
      <trkpt lat="44.44954" lon="5.98319">
        <ele>1025.8000488281</ele>
        <time>2021-09-01T08:32:07Z</time>
      </trkpt>
      <trkpt lat="44.44942" lon="5.9832">
        <ele>1024.5999755859</ele>
        <time>2021-09-01T08:32:08Z</time>
      </trkpt>
      <trkpt lat="44.44931" lon="5.98322">
        <ele>1023.4000244141</ele>
        <time>2021-09-01T08:32:09Z</time>
      </trkpt>
      <trkpt lat="44.4492" lon="5.98324">
        <ele>1022.4000244141</ele>
        <time>2021-09-01T08:32:10Z</time>
      </trkpt>
      <trkpt lat="44.44912" lon="5.98329">
        <ele>1021.200012207</ele>
        <time>2021-09-01T08:32:11Z</time>
      </trkpt>
      <trkpt lat="44.44904" lon="5.98335">
        <ele>1020</ele>
        <time>2021-09-01T08:32:12Z</time>
      </trkpt>
      <trkpt lat="44.44897" lon="5.98343">
        <ele>1018.799987793</ele>
        <time>2021-09-01T08:32:13Z</time>
      </trkpt>
      <trkpt lat="44.44892" lon="5.98353">
        <ele>1017.5999755859</ele>
        <time>2021-09-01T08:32:14Z</time>
      </trkpt>
      <trkpt lat="44.44888" lon="5.98362">
        <ele>1016.4000244141</ele>
        <time>2021-09-01T08:32:15Z</time>
      </trkpt>
      <trkpt lat="44.44886" lon="5.98373">
        <ele>1015.200012207</ele>
        <time>2021-09-01T08:32:16Z</time>
      </trkpt>
      <trkpt lat="44.44887" lon="5.98385">
        <ele>1014</ele>
        <time>2021-09-01T08:32:17Z</time>
      </trkpt>
      <trkpt lat="44.44888" lon="5.98397">
        <ele>1012.799987793</ele>
        <time>2021-09-01T08:32:18Z</time>
      </trkpt>
      <trkpt lat="44.44886" lon="5.98424">
        <ele>1011</ele>
        <time>2021-09-01T08:32:20Z</time>
      </trkpt>
      <trkpt lat="44.44878" lon="5.98448">
        <ele>1009.5999755859</ele>
        <time>2021-09-01T08:32:22Z</time>
      </trkpt>
      <trkpt lat="44.44877" lon="5.98459">
        <ele>1009</ele>
        <time>2021-09-01T08:32:23Z</time>
      </trkpt>
      <trkpt lat="44.44878" lon="5.9847">
        <ele>1008.200012207</ele>
        <time>2021-09-01T08:32:24Z</time>
      </trkpt>
      <trkpt lat="44.44883" lon="5.98481">
        <ele>1007.799987793</ele>
        <time>2021-09-01T08:32:25Z</time>
      </trkpt>
      <trkpt lat="44.44888" lon="5.98492">
        <ele>1007.200012207</ele>
        <time>2021-09-01T08:32:26Z</time>
      </trkpt>
      <trkpt lat="44.44893" lon="5.98503">
        <ele>1006.5999755859</ele>
        <time>2021-09-01T08:32:27Z</time>
      </trkpt>
      <trkpt lat="44.44895" lon="5.98516">
        <ele>1006</ele>
        <time>2021-09-01T08:32:28Z</time>
      </trkpt>
      <trkpt lat="44.44894" lon="5.98528">
        <ele>1004.4000244141</ele>
        <time>2021-09-01T08:32:29Z</time>
      </trkpt>
      <trkpt lat="44.44883" lon="5.98545">
        <ele>1002.5999755859</ele>
        <time>2021-09-01T08:32:31Z</time>
      </trkpt>
      <trkpt lat="44.44865" lon="5.98555">
        <ele>1000.799987793</ele>
        <time>2021-09-01T08:32:33Z</time>
      </trkpt>
      <trkpt lat="44.44855" lon="5.98557">
        <ele>1000</ele>
        <time>2021-09-01T08:32:34Z</time>
      </trkpt>
      <trkpt lat="44.44845" lon="5.9856">
        <ele>999.20001220703</ele>
        <time>2021-09-01T08:32:35Z</time>
      </trkpt>
      <trkpt lat="44.44824" lon="5.9856">
        <ele>998.20001220703</ele>
        <time>2021-09-01T08:32:37Z</time>
      </trkpt>
      <trkpt lat="44.44813" lon="5.9856">
        <ele>997.40002441406</ele>
        <time>2021-09-01T08:32:38Z</time>
      </trkpt>
      <trkpt lat="44.44801" lon="5.98559">
        <ele>996.79998779297</ele>
        <time>2021-09-01T08:32:39Z</time>
      </trkpt>
      <trkpt lat="44.44777" lon="5.98559">
        <ele>995.20001220703</ele>
        <time>2021-09-01T08:32:41Z</time>
      </trkpt>
      <trkpt lat="44.44752" lon="5.98557">
        <ele>993.40002441406</ele>
        <time>2021-09-01T08:32:43Z</time>
      </trkpt>
      <trkpt lat="44.44739" lon="5.98555">
        <ele>992.40002441406</ele>
        <time>2021-09-01T08:32:44Z</time>
      </trkpt>
      <trkpt lat="44.44726" lon="5.98553">
        <ele>991.20001220703</ele>
        <time>2021-09-01T08:32:45Z</time>
      </trkpt>
      <trkpt lat="44.44712" lon="5.98552">
        <ele>990.20001220703</ele>
        <time>2021-09-01T08:32:46Z</time>
      </trkpt>
      <trkpt lat="44.44699" lon="5.98551">
        <ele>989</ele>
        <time>2021-09-01T08:32:47Z</time>
      </trkpt>
      <trkpt lat="44.44686" lon="5.98551">
        <ele>987.79998779297</ele>
        <time>2021-09-01T08:32:48Z</time>
      </trkpt>
      <trkpt lat="44.44674" lon="5.98553">
        <ele>986.40002441406</ele>
        <time>2021-09-01T08:32:49Z</time>
      </trkpt>
      <trkpt lat="44.44662" lon="5.98555">
        <ele>985</ele>
        <time>2021-09-01T08:32:50Z</time>
      </trkpt>
      <trkpt lat="44.4465" lon="5.98559">
        <ele>983.40002441406</ele>
        <time>2021-09-01T08:32:51Z</time>
      </trkpt>
      <trkpt lat="44.44637" lon="5.98565">
        <ele>982</ele>
        <time>2021-09-01T08:32:52Z</time>
      </trkpt>
      <trkpt lat="44.44625" lon="5.98571">
        <ele>979.20001220703</ele>
        <time>2021-09-01T08:32:53Z</time>
      </trkpt>
      <trkpt lat="44.44614" lon="5.98578">
        <ele>978</ele>
        <time>2021-09-01T08:32:54Z</time>
      </trkpt>
      <trkpt lat="44.44602" lon="5.98584">
        <ele>977</ele>
        <time>2021-09-01T08:32:55Z</time>
      </trkpt>
      <trkpt lat="44.44579" lon="5.98597">
        <ele>975.20001220703</ele>
        <time>2021-09-01T08:32:57Z</time>
      </trkpt>
      <trkpt lat="44.44559" lon="5.98607">
        <ele>973.20001220703</ele>
        <time>2021-09-01T08:32:59Z</time>
      </trkpt>
      <trkpt lat="44.44549" lon="5.98607">
        <ele>972.20001220703</ele>
        <time>2021-09-01T08:33:00Z</time>
      </trkpt>
      <trkpt lat="44.44539" lon="5.98609">
        <ele>971.20001220703</ele>
        <time>2021-09-01T08:33:01Z</time>
      </trkpt>
      <trkpt lat="44.44528" lon="5.98612">
        <ele>970.20001220703</ele>
        <time>2021-09-01T08:33:02Z</time>
      </trkpt>
      <trkpt lat="44.44507" lon="5.98622">
        <ele>968.20001220703</ele>
        <time>2021-09-01T08:33:04Z</time>
      </trkpt>
      <trkpt lat="44.44485" lon="5.9863">
        <ele>966.59997558594</ele>
        <time>2021-09-01T08:33:06Z</time>
      </trkpt>
      <trkpt lat="44.44474" lon="5.98637">
        <ele>966</ele>
        <time>2021-09-01T08:33:07Z</time>
      </trkpt>
      <trkpt lat="44.44465" lon="5.98642">
        <ele>965.20001220703</ele>
        <time>2021-09-01T08:33:08Z</time>
      </trkpt>
      <trkpt lat="44.44446" lon="5.98652">
        <ele>963.59997558594</ele>
        <time>2021-09-01T08:33:10Z</time>
      </trkpt>
      <trkpt lat="44.44427" lon="5.98668">
        <ele>961.79998779297</ele>
        <time>2021-09-01T08:33:12Z</time>
      </trkpt>
      <trkpt lat="44.44416" lon="5.98672">
        <ele>960.79998779297</ele>
        <time>2021-09-01T08:33:13Z</time>
      </trkpt>
      <trkpt lat="44.44406" lon="5.98675">
        <ele>960</ele>
        <time>2021-09-01T08:33:14Z</time>
      </trkpt>
      <trkpt lat="44.44396" lon="5.98676">
        <ele>959</ele>
        <time>2021-09-01T08:33:15Z</time>
      </trkpt>
      <trkpt lat="44.44388" lon="5.98678">
        <ele>958.20001220703</ele>
        <time>2021-09-01T08:33:16Z</time>
      </trkpt>
      <trkpt lat="44.44381" lon="5.98679">
        <ele>956.59997558594</ele>
        <time>2021-09-01T08:33:17Z</time>
      </trkpt>
      <trkpt lat="44.44376" lon="5.98679">
        <ele>955.79998779297</ele>
        <time>2021-09-01T08:33:18Z</time>
      </trkpt>
      <trkpt lat="44.44373" lon="5.98679">
        <ele>955</ele>
        <time>2021-09-01T08:33:19Z</time>
      </trkpt>
      <trkpt lat="44.44368" lon="5.98678">
        <ele>953.20001220703</ele>
        <time>2021-09-01T08:33:21Z</time>
      </trkpt>
      <trkpt lat="44.44364" lon="5.98676">
        <ele>951.59997558594</ele>
        <time>2021-09-01T08:33:23Z</time>
      </trkpt>
      <trkpt lat="44.4436" lon="5.98676">
        <ele>949</ele>
        <time>2021-09-01T08:33:59Z</time>
      </trkpt>
      <trkpt lat="44.44355" lon="5.98677">
        <ele>949</ele>
        <time>2021-09-01T08:34:01Z</time>
      </trkpt>
      <trkpt lat="44.44335" lon="5.98677">
        <ele>948.59997558594</ele>
        <time>2021-09-01T08:34:05Z</time>
      </trkpt>
      <trkpt lat="44.44316" lon="5.98675">
        <ele>947.79998779297</ele>
        <time>2021-09-01T08:34:08Z</time>
      </trkpt>
      <trkpt lat="44.44302" lon="5.98671">
        <ele>947.40002441406</ele>
        <time>2021-09-01T08:34:10Z</time>
      </trkpt>
      <trkpt lat="44.44286" lon="5.98668">
        <ele>946.59997558594</ele>
        <time>2021-09-01T08:34:12Z</time>
      </trkpt>
      <trkpt lat="44.4426" lon="5.9866">
        <ele>945.20001220703</ele>
        <time>2021-09-01T08:34:15Z</time>
      </trkpt>
      <trkpt lat="44.44243" lon="5.98655">
        <ele>944</ele>
        <time>2021-09-01T08:34:17Z</time>
      </trkpt>
      <trkpt lat="44.44225" lon="5.98652">
        <ele>942.79998779297</ele>
        <time>2021-09-01T08:34:19Z</time>
      </trkpt>
      <trkpt lat="44.44216" lon="5.98654">
        <ele>942.20001220703</ele>
        <time>2021-09-01T08:34:20Z</time>
      </trkpt>
      <trkpt lat="44.44208" lon="5.98659">
        <ele>941.59997558594</ele>
        <time>2021-09-01T08:34:21Z</time>
      </trkpt>
      <trkpt lat="44.44193" lon="5.98671">
        <ele>939.79998779297</ele>
        <time>2021-09-01T08:34:23Z</time>
      </trkpt>
      <trkpt lat="44.44183" lon="5.98674">
        <ele>939</ele>
        <time>2021-09-01T08:34:24Z</time>
      </trkpt>
      <trkpt lat="44.44174" lon="5.98673">
        <ele>938.20001220703</ele>
        <time>2021-09-01T08:34:25Z</time>
      </trkpt>
      <trkpt lat="44.44164" lon="5.98673">
        <ele>937.40002441406</ele>
        <time>2021-09-01T08:34:26Z</time>
      </trkpt>
      <trkpt lat="44.44155" lon="5.98672">
        <ele>936.79998779297</ele>
        <time>2021-09-01T08:34:27Z</time>
      </trkpt>
      <trkpt lat="44.44145" lon="5.98669">
        <ele>936</ele>
        <time>2021-09-01T08:34:28Z</time>
      </trkpt>
      <trkpt lat="44.44137" lon="5.98663">
        <ele>934.79998779297</ele>
        <time>2021-09-01T08:34:29Z</time>
      </trkpt>
      <trkpt lat="44.44129" lon="5.98654">
        <ele>934.20001220703</ele>
        <time>2021-09-01T08:34:30Z</time>
      </trkpt>
      <trkpt lat="44.44121" lon="5.98644">
        <ele>933.59997558594</ele>
        <time>2021-09-01T08:34:31Z</time>
      </trkpt>
      <trkpt lat="44.44113" lon="5.98635">
        <ele>932.79998779297</ele>
        <time>2021-09-01T08:34:32Z</time>
      </trkpt>
      <trkpt lat="44.44106" lon="5.98623">
        <ele>932</ele>
        <time>2021-09-01T08:34:33Z</time>
      </trkpt>
      <trkpt lat="44.441" lon="5.9861">
        <ele>931.20001220703</ele>
        <time>2021-09-01T08:34:34Z</time>
      </trkpt>
      <trkpt lat="44.44095" lon="5.98598">
        <ele>930.20001220703</ele>
        <time>2021-09-01T08:34:35Z</time>
      </trkpt>
      <trkpt lat="44.44082" lon="5.98574">
        <ele>928.59997558594</ele>
        <time>2021-09-01T08:34:37Z</time>
      </trkpt>
      <trkpt lat="44.44066" lon="5.98555">
        <ele>927</ele>
        <time>2021-09-01T08:34:39Z</time>
      </trkpt>
      <trkpt lat="44.44048" lon="5.98541">
        <ele>925.40002441406</ele>
        <time>2021-09-01T08:34:41Z</time>
      </trkpt>
      <trkpt lat="44.44039" lon="5.98535">
        <ele>924.40002441406</ele>
        <time>2021-09-01T08:34:42Z</time>
      </trkpt>
      <trkpt lat="44.44029" lon="5.9853">
        <ele>923.40002441406</ele>
        <time>2021-09-01T08:34:43Z</time>
      </trkpt>
      <trkpt lat="44.4401" lon="5.98519">
        <ele>921.79998779297</ele>
        <time>2021-09-01T08:34:45Z</time>
      </trkpt>
      <trkpt lat="44.4399" lon="5.98508">
        <ele>920.20001220703</ele>
        <time>2021-09-01T08:34:47Z</time>
      </trkpt>
      <trkpt lat="44.4397" lon="5.98498">
        <ele>918.59997558594</ele>
        <time>2021-09-01T08:34:49Z</time>
      </trkpt>
      <trkpt lat="44.43952" lon="5.98489">
        <ele>916.79998779297</ele>
        <time>2021-09-01T08:34:51Z</time>
      </trkpt>
      <trkpt lat="44.43943" lon="5.98483">
        <ele>916</ele>
        <time>2021-09-01T08:34:52Z</time>
      </trkpt>
      <trkpt lat="44.43934" lon="5.98476">
        <ele>914.20001220703</ele>
        <time>2021-09-01T08:34:53Z</time>
      </trkpt>
      <trkpt lat="44.43915" lon="5.98464">
        <ele>912.59997558594</ele>
        <time>2021-09-01T08:34:55Z</time>
      </trkpt>
      <trkpt lat="44.43897" lon="5.98448">
        <ele>911</ele>
        <time>2021-09-01T08:34:57Z</time>
      </trkpt>
      <trkpt lat="44.43888" lon="5.98439">
        <ele>910.20001220703</ele>
        <time>2021-09-01T08:34:58Z</time>
      </trkpt>
      <trkpt lat="44.43879" lon="5.98432">
        <ele>909.40002441406</ele>
        <time>2021-09-01T08:34:59Z</time>
      </trkpt>
      <trkpt lat="44.43869" lon="5.98426">
        <ele>908.59997558594</ele>
        <time>2021-09-01T08:35:00Z</time>
      </trkpt>
      <trkpt lat="44.4386" lon="5.98423">
        <ele>907.79998779297</ele>
        <time>2021-09-01T08:35:01Z</time>
      </trkpt>
      <trkpt lat="44.43852" lon="5.98423">
        <ele>907.20001220703</ele>
        <time>2021-09-01T08:35:02Z</time>
      </trkpt>
      <trkpt lat="44.43844" lon="5.98427">
        <ele>906.40002441406</ele>
        <time>2021-09-01T08:35:03Z</time>
      </trkpt>
      <trkpt lat="44.43836" lon="5.98433">
        <ele>905.40002441406</ele>
        <time>2021-09-01T08:35:04Z</time>
      </trkpt>
      <trkpt lat="44.4383" lon="5.98442">
        <ele>904.40002441406</ele>
        <time>2021-09-01T08:35:05Z</time>
      </trkpt>
      <trkpt lat="44.43815" lon="5.98459">
        <ele>902.59997558594</ele>
        <time>2021-09-01T08:35:07Z</time>
      </trkpt>
      <trkpt lat="44.43795" lon="5.98459">
        <ele>901</ele>
        <time>2021-09-01T08:35:09Z</time>
      </trkpt>
      <trkpt lat="44.43778" lon="5.98447">
        <ele>899.40002441406</ele>
        <time>2021-09-01T08:35:11Z</time>
      </trkpt>
      <trkpt lat="44.4376" lon="5.98436">
        <ele>897.59997558594</ele>
        <time>2021-09-01T08:35:13Z</time>
      </trkpt>
      <trkpt lat="44.43745" lon="5.98417">
        <ele>896</ele>
        <time>2021-09-01T08:35:15Z</time>
      </trkpt>
      <trkpt lat="44.43728" lon="5.98398">
        <ele>893.79998779297</ele>
        <time>2021-09-01T08:35:17Z</time>
      </trkpt>
      <trkpt lat="44.43711" lon="5.98378">
        <ele>892.20001220703</ele>
        <time>2021-09-01T08:35:19Z</time>
      </trkpt>
      <trkpt lat="44.43702" lon="5.98368">
        <ele>891.40002441406</ele>
        <time>2021-09-01T08:35:20Z</time>
      </trkpt>
      <trkpt lat="44.43694" lon="5.98361">
        <ele>890.59997558594</ele>
        <time>2021-09-01T08:35:21Z</time>
      </trkpt>
      <trkpt lat="44.43679" lon="5.98353">
        <ele>888.59997558594</ele>
        <time>2021-09-01T08:35:23Z</time>
      </trkpt>
      <trkpt lat="44.43668" lon="5.98351">
        <ele>886.79998779297</ele>
        <time>2021-09-01T08:35:25Z</time>
      </trkpt>
      <trkpt lat="44.43666" lon="5.98351">
        <ele>885.79998779297</ele>
        <time>2021-09-01T08:35:26Z</time>
      </trkpt>
      <trkpt lat="44.43665" lon="5.98351">
        <ele>884.79998779297</ele>
        <time>2021-09-01T08:35:27Z</time>
      </trkpt>
      <trkpt lat="44.43662" lon="5.98348">
        <ele>883</ele>
        <time>2021-09-01T08:35:29Z</time>
      </trkpt>
      <trkpt lat="44.43661" lon="5.98347">
        <ele>881.79998779297</ele>
        <time>2021-09-01T08:35:31Z</time>
      </trkpt>
      <trkpt lat="44.43659" lon="5.98351">
        <ele>880.79998779297</ele>
        <time>2021-09-01T08:38:00Z</time>
      </trkpt>
      <trkpt lat="44.43654" lon="5.98363">
        <ele>880.59997558594</ele>
        <time>2021-09-01T08:38:05Z</time>
      </trkpt>
      <trkpt lat="44.43647" lon="5.98376">
        <ele>879.79998779297</ele>
        <time>2021-09-01T08:38:09Z</time>
      </trkpt>
      <trkpt lat="44.43644" lon="5.9838">
        <ele>879.79998779297</ele>
        <time>2021-09-01T08:38:10Z</time>
      </trkpt>
      <trkpt lat="44.43631" lon="5.98395">
        <ele>879.20001220703</ele>
        <time>2021-09-01T08:38:13Z</time>
      </trkpt>
      <trkpt lat="44.43623" lon="5.98406">
        <ele>878.79998779297</ele>
        <time>2021-09-01T08:38:15Z</time>
      </trkpt>
      <trkpt lat="44.43611" lon="5.98423">
        <ele>877.59997558594</ele>
        <time>2021-09-01T08:38:18Z</time>
      </trkpt>
      <trkpt lat="44.43601" lon="5.98436">
        <ele>876.59997558594</ele>
        <time>2021-09-01T08:38:20Z</time>
      </trkpt>
      <trkpt lat="44.43589" lon="5.9845">
        <ele>875.40002441406</ele>
        <time>2021-09-01T08:38:22Z</time>
      </trkpt>
      <trkpt lat="44.43577" lon="5.98461">
        <ele>874.40002441406</ele>
        <time>2021-09-01T08:38:24Z</time>
      </trkpt>
      <trkpt lat="44.43572" lon="5.98466">
        <ele>873.79998779297</ele>
        <time>2021-09-01T08:38:25Z</time>
      </trkpt>
      <trkpt lat="44.43568" lon="5.98469">
        <ele>873</ele>
        <time>2021-09-01T08:38:26Z</time>
      </trkpt>
      <trkpt lat="44.43562" lon="5.98473">
        <ele>871.59997558594</ele>
        <time>2021-09-01T08:38:28Z</time>
      </trkpt>
      <trkpt lat="44.4356" lon="5.98474">
        <ele>870.20001220703</ele>
        <time>2021-09-01T08:38:29Z</time>
      </trkpt>
      <trkpt lat="44.43552" lon="5.98478">
        <ele>869</ele>
        <time>2021-09-01T08:38:31Z</time>
      </trkpt>
      <trkpt lat="44.43548" lon="5.98481">
        <ele>868.40002441406</ele>
        <time>2021-09-01T08:38:32Z</time>
      </trkpt>
      <trkpt lat="44.43544" lon="5.98485">
        <ele>868</ele>
        <time>2021-09-01T08:38:33Z</time>
      </trkpt>
      <trkpt lat="44.43527" lon="5.985">
        <ele>866.79998779297</ele>
        <time>2021-09-01T08:38:36Z</time>
      </trkpt>
      <trkpt lat="44.43515" lon="5.98506">
        <ele>866</ele>
        <time>2021-09-01T08:38:38Z</time>
      </trkpt>
      <trkpt lat="44.43509" lon="5.98507">
        <ele>865.59997558594</ele>
        <time>2021-09-01T08:38:39Z</time>
      </trkpt>
      <trkpt lat="44.43496" lon="5.98496">
        <ele>864.59997558594</ele>
        <time>2021-09-01T08:38:41Z</time>
      </trkpt>
      <trkpt lat="44.43493" lon="5.98486">
        <ele>864.20001220703</ele>
        <time>2021-09-01T08:38:42Z</time>
      </trkpt>
      <trkpt lat="44.43492" lon="5.98476">
        <ele>863.59997558594</ele>
        <time>2021-09-01T08:38:43Z</time>
      </trkpt>
      <trkpt lat="44.43493" lon="5.98466">
        <ele>863</ele>
        <time>2021-09-01T08:38:44Z</time>
      </trkpt>
      <trkpt lat="44.43495" lon="5.98443">
        <ele>862</ele>
        <time>2021-09-01T08:38:46Z</time>
      </trkpt>
      <trkpt lat="44.43499" lon="5.98418">
        <ele>860.79998779297</ele>
        <time>2021-09-01T08:38:48Z</time>
      </trkpt>
      <trkpt lat="44.43503" lon="5.98391">
        <ele>859.59997558594</ele>
        <time>2021-09-01T08:38:50Z</time>
      </trkpt>
      <trkpt lat="44.43504" lon="5.98378">
        <ele>859</ele>
        <time>2021-09-01T08:38:51Z</time>
      </trkpt>
      <trkpt lat="44.43506" lon="5.98365">
        <ele>858.40002441406</ele>
        <time>2021-09-01T08:38:52Z</time>
      </trkpt>
      <trkpt lat="44.43508" lon="5.98351">
        <ele>857.20001220703</ele>
        <time>2021-09-01T08:38:53Z</time>
      </trkpt>
      <trkpt lat="44.4351" lon="5.98325">
        <ele>855.79998779297</ele>
        <time>2021-09-01T08:38:55Z</time>
      </trkpt>
      <trkpt lat="44.4351" lon="5.98299">
        <ele>854.79998779297</ele>
        <time>2021-09-01T08:38:57Z</time>
      </trkpt>
      <trkpt lat="44.43508" lon="5.98262">
        <ele>853.20001220703</ele>
        <time>2021-09-01T08:39:00Z</time>
      </trkpt>
      <trkpt lat="44.43507" lon="5.98246">
        <ele>852.59997558594</ele>
        <time>2021-09-01T08:39:02Z</time>
      </trkpt>
      <trkpt lat="44.43506" lon="5.98229">
        <ele>852.20001220703</ele>
        <time>2021-09-01T08:39:04Z</time>
      </trkpt>
      <trkpt lat="44.43504" lon="5.98199">
        <ele>851.59997558594</ele>
        <time>2021-09-01T08:39:07Z</time>
      </trkpt>
      <trkpt lat="44.43508" lon="5.98182">
        <ele>851</ele>
        <time>2021-09-01T08:39:09Z</time>
      </trkpt>
      <trkpt lat="44.4351" lon="5.98174">
        <ele>850.79998779297</ele>
        <time>2021-09-01T08:39:10Z</time>
      </trkpt>
      <trkpt lat="44.43513" lon="5.98166">
        <ele>850.40002441406</ele>
        <time>2021-09-01T08:39:11Z</time>
      </trkpt>
      <trkpt lat="44.43515" lon="5.98159">
        <ele>850</ele>
        <time>2021-09-01T08:39:12Z</time>
      </trkpt>
      <trkpt lat="44.43519" lon="5.98152">
        <ele>849.59997558594</ele>
        <time>2021-09-01T08:39:13Z</time>
      </trkpt>
      <trkpt lat="44.43525" lon="5.98145">
        <ele>848.40002441406</ele>
        <time>2021-09-01T08:39:15Z</time>
      </trkpt>
      <trkpt lat="44.43529" lon="5.98143">
        <ele>846.59997558594</ele>
        <time>2021-09-01T08:39:17Z</time>
      </trkpt>
      <trkpt lat="44.43531" lon="5.98142">
        <ele>846</ele>
        <time>2021-09-01T08:39:18Z</time>
      </trkpt>
      <trkpt lat="44.4353" lon="5.98139">
        <ele>845.59997558594</ele>
        <time>2021-09-01T08:39:19Z</time>
      </trkpt>
      <trkpt lat="44.43529" lon="5.98134">
        <ele>844.79998779297</ele>
        <time>2021-09-01T08:39:21Z</time>
      </trkpt>
      <trkpt lat="44.43528" lon="5.98127">
        <ele>844.40002441406</ele>
        <time>2021-09-01T08:39:23Z</time>
      </trkpt>
      <trkpt lat="44.43523" lon="5.98119">
        <ele>843.79998779297</ele>
        <time>2021-09-01T08:39:26Z</time>
      </trkpt>
      <trkpt lat="44.43521" lon="5.98118">
        <ele>843.20001220703</ele>
        <time>2021-09-01T08:39:28Z</time>
      </trkpt>
      <trkpt lat="44.4352" lon="5.98119">
        <ele>843</ele>
        <time>2021-09-01T08:39:29Z</time>
      </trkpt>
      <trkpt lat="44.43519" lon="5.98119">
        <ele>842.79998779297</ele>
        <time>2021-09-01T08:39:30Z</time>
      </trkpt>
      <trkpt lat="44.43512" lon="5.98127">
        <ele>842.40002441406</ele>
        <time>2021-09-01T08:39:33Z</time>
      </trkpt>
      <trkpt lat="44.43498" lon="5.98132">
        <ele>842.20001220703</ele>
        <time>2021-09-01T08:39:36Z</time>
      </trkpt>
      <trkpt lat="44.43489" lon="5.98137">
        <ele>842</ele>
        <time>2021-09-01T08:39:38Z</time>
      </trkpt>
      <trkpt lat="44.43472" lon="5.98146">
        <ele>841.20001220703</ele>
        <time>2021-09-01T08:39:41Z</time>
      </trkpt>
      <trkpt lat="44.43462" lon="5.98154">
        <ele>840.59997558594</ele>
        <time>2021-09-01T08:39:43Z</time>
      </trkpt>
      <trkpt lat="44.43457" lon="5.98159">
        <ele>840.20001220703</ele>
        <time>2021-09-01T08:39:44Z</time>
      </trkpt>
      <trkpt lat="44.43451" lon="5.98165">
        <ele>839.79998779297</ele>
        <time>2021-09-01T08:39:45Z</time>
      </trkpt>
      <trkpt lat="44.4344" lon="5.98179">
        <ele>839</ele>
        <time>2021-09-01T08:39:47Z</time>
      </trkpt>
      <trkpt lat="44.43435" lon="5.98188">
        <ele>838.59997558594</ele>
        <time>2021-09-01T08:39:48Z</time>
      </trkpt>
      <trkpt lat="44.43418" lon="5.98212">
        <ele>837.40002441406</ele>
        <time>2021-09-01T08:39:51Z</time>
      </trkpt>
      <trkpt lat="44.43411" lon="5.98219">
        <ele>837</ele>
        <time>2021-09-01T08:39:52Z</time>
      </trkpt>
      <trkpt lat="44.43399" lon="5.98234">
        <ele>835.79998779297</ele>
        <time>2021-09-01T08:39:54Z</time>
      </trkpt>
      <trkpt lat="44.43378" lon="5.98251">
        <ele>834.59997558594</ele>
        <time>2021-09-01T08:39:57Z</time>
      </trkpt>
      <trkpt lat="44.43371" lon="5.98256">
        <ele>834.40002441406</ele>
        <time>2021-09-01T08:39:58Z</time>
      </trkpt>
      <trkpt lat="44.43343" lon="5.98275">
        <ele>833.59997558594</ele>
        <time>2021-09-01T08:40:02Z</time>
      </trkpt>
      <trkpt lat="44.43327" lon="5.98281">
        <ele>833.20001220703</ele>
        <time>2021-09-01T08:40:04Z</time>
      </trkpt>
      <trkpt lat="44.43309" lon="5.98279">
        <ele>832.40002441406</ele>
        <time>2021-09-01T08:40:06Z</time>
      </trkpt>
      <trkpt lat="44.433" lon="5.98276">
        <ele>832</ele>
        <time>2021-09-01T08:40:07Z</time>
      </trkpt>
      <trkpt lat="44.43282" lon="5.98267">
        <ele>831</ele>
        <time>2021-09-01T08:40:09Z</time>
      </trkpt>
      <trkpt lat="44.43268" lon="5.98251">
        <ele>829.59997558594</ele>
        <time>2021-09-01T08:40:11Z</time>
      </trkpt>
      <trkpt lat="44.43261" lon="5.98242">
        <ele>829</ele>
        <time>2021-09-01T08:40:12Z</time>
      </trkpt>
      <trkpt lat="44.43253" lon="5.98233">
        <ele>828.20001220703</ele>
        <time>2021-09-01T08:40:13Z</time>
      </trkpt>
      <trkpt lat="44.43243" lon="5.98222">
        <ele>826.79998779297</ele>
        <time>2021-09-01T08:40:15Z</time>
      </trkpt>
      <trkpt lat="44.43242" lon="5.9822">
        <ele>825.59997558594</ele>
        <time>2021-09-01T08:40:17Z</time>
      </trkpt>
      <trkpt lat="44.4324" lon="5.98217">
        <ele>823.79998779297</ele>
        <time>2021-09-01T08:40:19Z</time>
      </trkpt>
      <trkpt lat="44.43239" lon="5.98217">
        <ele>823</ele>
        <time>2021-09-01T08:40:20Z</time>
      </trkpt>
      <trkpt lat="44.43238" lon="5.98219">
        <ele>822.59997558594</ele>
        <time>2021-09-01T08:40:21Z</time>
      </trkpt>
      <trkpt lat="44.43243" lon="5.98222">
        <ele>821.20001220703</ele>
        <time>2021-09-01T08:40:32Z</time>
      </trkpt>
      <trkpt lat="44.43247" lon="5.98224">
        <ele>821.40002441406</ele>
        <time>2021-09-01T08:40:34Z</time>
      </trkpt>
      <trkpt lat="44.43257" lon="5.98235">
        <ele>822</ele>
        <time>2021-09-01T08:40:40Z</time>
      </trkpt>
      <trkpt lat="44.43259" lon="5.98239">
        <ele>822.20001220703</ele>
        <time>2021-09-01T08:40:42Z</time>
      </trkpt>
      <trkpt lat="44.43266" lon="5.98245">
        <ele>822.79998779297</ele>
        <time>2021-09-01T08:40:46Z</time>
      </trkpt>
      <trkpt lat="44.43268" lon="5.98247">
        <ele>823</ele>
        <time>2021-09-01T08:40:47Z</time>
      </trkpt>
      <trkpt lat="44.43271" lon="5.98253">
        <ele>823.40002441406</ele>
        <time>2021-09-01T08:40:50Z</time>
      </trkpt>
      <trkpt lat="44.4327" lon="5.98253">
        <ele>823.59997558594</ele>
        <time>2021-09-01T08:40:51Z</time>
      </trkpt>
      <trkpt lat="44.43267" lon="5.98254">
        <ele>824.20001220703</ele>
        <time>2021-09-01T08:40:56Z</time>
      </trkpt>
      <trkpt lat="44.43265" lon="5.98255">
        <ele>824.20001220703</ele>
        <time>2021-09-01T08:40:57Z</time>
      </trkpt>
      <trkpt lat="44.43251" lon="5.98259">
        <ele>824</ele>
        <time>2021-09-01T08:41:02Z</time>
      </trkpt>
      <trkpt lat="44.43238" lon="5.98263">
        <ele>823.20001220703</ele>
        <time>2021-09-01T08:41:07Z</time>
      </trkpt>
      <trkpt lat="44.43231" lon="5.98266">
        <ele>822</ele>
        <time>2021-09-01T08:41:10Z</time>
      </trkpt>
      <trkpt lat="44.43225" lon="5.98267">
        <ele>820.79998779297</ele>
        <time>2021-09-01T08:41:13Z</time>
      </trkpt>
      <trkpt lat="44.43214" lon="5.98267">
        <ele>819.59997558594</ele>
        <time>2021-09-01T08:41:17Z</time>
      </trkpt>
      <trkpt lat="44.43212" lon="5.98268">
        <ele>819</ele>
        <time>2021-09-01T08:41:18Z</time>
      </trkpt>
      <trkpt lat="44.43211" lon="5.9827">
        <ele>818.79998779297</ele>
        <time>2021-09-01T08:41:19Z</time>
      </trkpt>
      <trkpt lat="44.43209" lon="5.9827">
        <ele>818.40002441406</ele>
        <time>2021-09-01T08:41:20Z</time>
      </trkpt>
      <trkpt lat="44.43203" lon="5.98271">
        <ele>817.79998779297</ele>
        <time>2021-09-01T08:41:22Z</time>
      </trkpt>
      <trkpt lat="44.43194" lon="5.98271">
        <ele>817</ele>
        <time>2021-09-01T08:41:24Z</time>
      </trkpt>
      <trkpt lat="44.43175" lon="5.98272">
        <ele>815.59997558594</ele>
        <time>2021-09-01T08:41:27Z</time>
      </trkpt>
      <trkpt lat="44.43163" lon="5.98273">
        <ele>814.40002441406</ele>
        <time>2021-09-01T08:41:29Z</time>
      </trkpt>
      <trkpt lat="44.43147" lon="5.98273">
        <ele>813</ele>
        <time>2021-09-01T08:41:31Z</time>
      </trkpt>
      <trkpt lat="44.43131" lon="5.98274">
        <ele>811.59997558594</ele>
        <time>2021-09-01T08:41:33Z</time>
      </trkpt>
      <trkpt lat="44.43115" lon="5.98272">
        <ele>810.20001220703</ele>
        <time>2021-09-01T08:41:35Z</time>
      </trkpt>
      <trkpt lat="44.43108" lon="5.98269">
        <ele>809.40002441406</ele>
        <time>2021-09-01T08:41:36Z</time>
      </trkpt>
      <trkpt lat="44.43099" lon="5.98266">
        <ele>808.40002441406</ele>
        <time>2021-09-01T08:41:37Z</time>
      </trkpt>
      <trkpt lat="44.43091" lon="5.98261">
        <ele>807.59997558594</ele>
        <time>2021-09-01T08:41:38Z</time>
      </trkpt>
      <trkpt lat="44.43082" lon="5.98254">
        <ele>806.59997558594</ele>
        <time>2021-09-01T08:41:39Z</time>
      </trkpt>
      <trkpt lat="44.43068" lon="5.98241">
        <ele>804.59997558594</ele>
        <time>2021-09-01T08:41:41Z</time>
      </trkpt>
      <trkpt lat="44.43062" lon="5.98237">
        <ele>802.79998779297</ele>
        <time>2021-09-01T08:41:42Z</time>
      </trkpt>
      <trkpt lat="44.43049" lon="5.9823">
        <ele>800.79998779297</ele>
        <time>2021-09-01T08:41:44Z</time>
      </trkpt>
      <trkpt lat="44.43036" lon="5.98228">
        <ele>798.79998779297</ele>
        <time>2021-09-01T08:41:46Z</time>
      </trkpt>
      <trkpt lat="44.43021" lon="5.9823">
        <ele>797</ele>
        <time>2021-09-01T08:41:48Z</time>
      </trkpt>
      <trkpt lat="44.43004" lon="5.98232">
        <ele>795</ele>
        <time>2021-09-01T08:41:50Z</time>
      </trkpt>
      <trkpt lat="44.42987" lon="5.98237">
        <ele>793</ele>
        <time>2021-09-01T08:41:52Z</time>
      </trkpt>
      <trkpt lat="44.42971" lon="5.98245">
        <ele>791.20001220703</ele>
        <time>2021-09-01T08:41:54Z</time>
      </trkpt>
      <trkpt lat="44.42953" lon="5.98253">
        <ele>789.40002441406</ele>
        <time>2021-09-01T08:41:56Z</time>
      </trkpt>
      <trkpt lat="44.42947" lon="5.98257">
        <ele>788.40002441406</ele>
        <time>2021-09-01T08:41:57Z</time>
      </trkpt>
      <trkpt lat="44.4294" lon="5.98266">
        <ele>786.40002441406</ele>
        <time>2021-09-01T08:41:59Z</time>
      </trkpt>
      <trkpt lat="44.42937" lon="5.98279">
        <ele>785</ele>
        <time>2021-09-01T08:42:01Z</time>
      </trkpt>
      <trkpt lat="44.42936" lon="5.98287">
        <ele>784.40002441406</ele>
        <time>2021-09-01T08:42:02Z</time>
      </trkpt>
      <trkpt lat="44.42936" lon="5.98295">
        <ele>784</ele>
        <time>2021-09-01T08:42:03Z</time>
      </trkpt>
      <trkpt lat="44.42934" lon="5.98303">
        <ele>783.79998779297</ele>
        <time>2021-09-01T08:42:04Z</time>
      </trkpt>
      <trkpt lat="44.42924" lon="5.98326">
        <ele>782.79998779297</ele>
        <time>2021-09-01T08:42:07Z</time>
      </trkpt>
      <trkpt lat="44.42904" lon="5.98334">
        <ele>781.79998779297</ele>
        <time>2021-09-01T08:42:10Z</time>
      </trkpt>
      <trkpt lat="44.42897" lon="5.98335">
        <ele>781.40002441406</ele>
        <time>2021-09-01T08:42:11Z</time>
      </trkpt>
      <trkpt lat="44.42865" lon="5.98337">
        <ele>780.20001220703</ele>
        <time>2021-09-01T08:42:15Z</time>
      </trkpt>
      <trkpt lat="44.42857" lon="5.98336">
        <ele>779.79998779297</ele>
        <time>2021-09-01T08:42:16Z</time>
      </trkpt>
      <trkpt lat="44.4284" lon="5.98333">
        <ele>779</ele>
        <time>2021-09-01T08:42:18Z</time>
      </trkpt>
      <trkpt lat="44.42815" lon="5.98331">
        <ele>777.59997558594</ele>
        <time>2021-09-01T08:42:21Z</time>
      </trkpt>
      <trkpt lat="44.42807" lon="5.98328">
        <ele>777</ele>
        <time>2021-09-01T08:42:22Z</time>
      </trkpt>
      <trkpt lat="44.42798" lon="5.98325">
        <ele>776.59997558594</ele>
        <time>2021-09-01T08:42:23Z</time>
      </trkpt>
      <trkpt lat="44.4278" lon="5.98324">
        <ele>775.59997558594</ele>
        <time>2021-09-01T08:42:25Z</time>
      </trkpt>
      <trkpt lat="44.42771" lon="5.98327">
        <ele>775</ele>
        <time>2021-09-01T08:42:26Z</time>
      </trkpt>
      <trkpt lat="44.42762" lon="5.98329">
        <ele>774.59997558594</ele>
        <time>2021-09-01T08:42:27Z</time>
      </trkpt>
      <trkpt lat="44.42743" lon="5.9833">
        <ele>773.79998779297</ele>
        <time>2021-09-01T08:42:29Z</time>
      </trkpt>
      <trkpt lat="44.42734" lon="5.98327">
        <ele>772.79998779297</ele>
        <time>2021-09-01T08:42:30Z</time>
      </trkpt>
      <trkpt lat="44.42716" lon="5.98319">
        <ele>771.79998779297</ele>
        <time>2021-09-01T08:42:32Z</time>
      </trkpt>
      <trkpt lat="44.42699" lon="5.9831">
        <ele>770.79998779297</ele>
        <time>2021-09-01T08:42:34Z</time>
      </trkpt>
      <trkpt lat="44.42691" lon="5.98304">
        <ele>770.20001220703</ele>
        <time>2021-09-01T08:42:35Z</time>
      </trkpt>
      <trkpt lat="44.42686" lon="5.98298">
        <ele>769.59997558594</ele>
        <time>2021-09-01T08:42:36Z</time>
      </trkpt>
      <trkpt lat="44.42681" lon="5.98295">
        <ele>769</ele>
        <time>2021-09-01T08:42:37Z</time>
      </trkpt>
      <trkpt lat="44.42673" lon="5.98296">
        <ele>768.40002441406</ele>
        <time>2021-09-01T08:42:38Z</time>
      </trkpt>
      <trkpt lat="44.4267" lon="5.98302">
        <ele>767.79998779297</ele>
        <time>2021-09-01T08:42:39Z</time>
      </trkpt>
      <trkpt lat="44.42667" lon="5.98309">
        <ele>767.20001220703</ele>
        <time>2021-09-01T08:42:40Z</time>
      </trkpt>
      <trkpt lat="44.42674" lon="5.98318">
        <ele>766</ele>
        <time>2021-09-01T08:42:42Z</time>
      </trkpt>
      <trkpt lat="44.4269" lon="5.98327">
        <ele>765.20001220703</ele>
        <time>2021-09-01T08:42:44Z</time>
      </trkpt>
      <trkpt lat="44.42698" lon="5.98331">
        <ele>764.79998779297</ele>
        <time>2021-09-01T08:42:45Z</time>
      </trkpt>
      <trkpt lat="44.42712" lon="5.9834">
        <ele>764</ele>
        <time>2021-09-01T08:42:47Z</time>
      </trkpt>
      <trkpt lat="44.42719" lon="5.98347">
        <ele>763.59997558594</ele>
        <time>2021-09-01T08:42:48Z</time>
      </trkpt>
      <trkpt lat="44.42726" lon="5.98355">
        <ele>763.20001220703</ele>
        <time>2021-09-01T08:42:49Z</time>
      </trkpt>
      <trkpt lat="44.4274" lon="5.98371">
        <ele>762.20001220703</ele>
        <time>2021-09-01T08:42:51Z</time>
      </trkpt>
      <trkpt lat="44.42765" lon="5.98393">
        <ele>760.20001220703</ele>
        <time>2021-09-01T08:42:54Z</time>
      </trkpt>
      <trkpt lat="44.4278" lon="5.98411">
        <ele>759</ele>
        <time>2021-09-01T08:42:56Z</time>
      </trkpt>
      <trkpt lat="44.42798" lon="5.98425">
        <ele>758</ele>
        <time>2021-09-01T08:42:58Z</time>
      </trkpt>
      <trkpt lat="44.42817" lon="5.98437">
        <ele>756.79998779297</ele>
        <time>2021-09-01T08:43:00Z</time>
      </trkpt>
      <trkpt lat="44.42836" lon="5.98449">
        <ele>755.40002441406</ele>
        <time>2021-09-01T08:43:02Z</time>
      </trkpt>
      <trkpt lat="44.42846" lon="5.98456">
        <ele>754.79998779297</ele>
        <time>2021-09-01T08:43:03Z</time>
      </trkpt>
      <trkpt lat="44.42855" lon="5.98463">
        <ele>754.20001220703</ele>
        <time>2021-09-01T08:43:04Z</time>
      </trkpt>
      <trkpt lat="44.42875" lon="5.98475">
        <ele>753</ele>
        <time>2021-09-01T08:43:06Z</time>
      </trkpt>
      <trkpt lat="44.42895" lon="5.98485">
        <ele>752</ele>
        <time>2021-09-01T08:43:08Z</time>
      </trkpt>
      <trkpt lat="44.42905" lon="5.98489">
        <ele>751.20001220703</ele>
        <time>2021-09-01T08:43:09Z</time>
      </trkpt>
      <trkpt lat="44.42915" lon="5.98492">
        <ele>750.59997558594</ele>
        <time>2021-09-01T08:43:10Z</time>
      </trkpt>
      <trkpt lat="44.42934" lon="5.98497">
        <ele>749.40002441406</ele>
        <time>2021-09-01T08:43:12Z</time>
      </trkpt>
      <trkpt lat="44.42951" lon="5.98504">
        <ele>748</ele>
        <time>2021-09-01T08:43:14Z</time>
      </trkpt>
      <trkpt lat="44.42964" lon="5.98519">
        <ele>746.59997558594</ele>
        <time>2021-09-01T08:43:16Z</time>
      </trkpt>
      <trkpt lat="44.4297" lon="5.98528">
        <ele>745.79998779297</ele>
        <time>2021-09-01T08:43:17Z</time>
      </trkpt>
      <trkpt lat="44.42976" lon="5.98536">
        <ele>744.40002441406</ele>
        <time>2021-09-01T08:43:18Z</time>
      </trkpt>
      <trkpt lat="44.42988" lon="5.98554">
        <ele>743.40002441406</ele>
        <time>2021-09-01T08:43:20Z</time>
      </trkpt>
      <trkpt lat="44.42995" lon="5.98568">
        <ele>742.59997558594</ele>
        <time>2021-09-01T08:43:22Z</time>
      </trkpt>
      <trkpt lat="44.42995" lon="5.98576">
        <ele>742</ele>
        <time>2021-09-01T08:43:23Z</time>
      </trkpt>
      <trkpt lat="44.42994" lon="5.98584">
        <ele>741.59997558594</ele>
        <time>2021-09-01T08:43:24Z</time>
      </trkpt>
      <trkpt lat="44.42989" lon="5.98599">
        <ele>740.79998779297</ele>
        <time>2021-09-01T08:43:26Z</time>
      </trkpt>
      <trkpt lat="44.42985" lon="5.98605">
        <ele>740.40002441406</ele>
        <time>2021-09-01T08:43:27Z</time>
      </trkpt>
      <trkpt lat="44.42979" lon="5.9861">
        <ele>740</ele>
        <time>2021-09-01T08:43:28Z</time>
      </trkpt>
      <trkpt lat="44.42973" lon="5.98615">
        <ele>739.59997558594</ele>
        <time>2021-09-01T08:43:29Z</time>
      </trkpt>
      <trkpt lat="44.4296" lon="5.98621">
        <ele>739</ele>
        <time>2021-09-01T08:43:31Z</time>
      </trkpt>
      <trkpt lat="44.42952" lon="5.98623">
        <ele>738.59997558594</ele>
        <time>2021-09-01T08:43:32Z</time>
      </trkpt>
      <trkpt lat="44.4293" lon="5.98626">
        <ele>737.59997558594</ele>
        <time>2021-09-01T08:43:35Z</time>
      </trkpt>
      <trkpt lat="44.42923" lon="5.98627">
        <ele>737.40002441406</ele>
        <time>2021-09-01T08:43:36Z</time>
      </trkpt>
      <trkpt lat="44.42894" lon="5.98634">
        <ele>736</ele>
        <time>2021-09-01T08:43:40Z</time>
      </trkpt>
      <trkpt lat="44.42872" lon="5.9864">
        <ele>734.79998779297</ele>
        <time>2021-09-01T08:43:43Z</time>
      </trkpt>
      <trkpt lat="44.42856" lon="5.98645">
        <ele>733.79998779297</ele>
        <time>2021-09-01T08:43:45Z</time>
      </trkpt>
      <trkpt lat="44.42848" lon="5.9865">
        <ele>733.40002441406</ele>
        <time>2021-09-01T08:43:46Z</time>
      </trkpt>
      <trkpt lat="44.4284" lon="5.9866">
        <ele>732.79998779297</ele>
        <time>2021-09-01T08:43:47Z</time>
      </trkpt>
      <trkpt lat="44.42833" lon="5.98672">
        <ele>732.40002441406</ele>
        <time>2021-09-01T08:43:48Z</time>
      </trkpt>
      <trkpt lat="44.42826" lon="5.98683">
        <ele>731.79998779297</ele>
        <time>2021-09-01T08:43:49Z</time>
      </trkpt>
      <trkpt lat="44.42814" lon="5.98708">
        <ele>730.59997558594</ele>
        <time>2021-09-01T08:43:51Z</time>
      </trkpt>
      <trkpt lat="44.4281" lon="5.98723">
        <ele>730.20001220703</ele>
        <time>2021-09-01T08:43:52Z</time>
      </trkpt>
      <trkpt lat="44.42807" lon="5.98738">
        <ele>729.59997558594</ele>
        <time>2021-09-01T08:43:53Z</time>
      </trkpt>
      <trkpt lat="44.42804" lon="5.98752">
        <ele>729</ele>
        <time>2021-09-01T08:43:54Z</time>
      </trkpt>
      <trkpt lat="44.428" lon="5.98766">
        <ele>728.40002441406</ele>
        <time>2021-09-01T08:43:55Z</time>
      </trkpt>
      <trkpt lat="44.42795" lon="5.98795">
        <ele>727.20001220703</ele>
        <time>2021-09-01T08:43:57Z</time>
      </trkpt>
      <trkpt lat="44.42793" lon="5.9881">
        <ele>726.59997558594</ele>
        <time>2021-09-01T08:43:58Z</time>
      </trkpt>
      <trkpt lat="44.42793" lon="5.98824">
        <ele>726</ele>
        <time>2021-09-01T08:43:59Z</time>
      </trkpt>
      <trkpt lat="44.42794" lon="5.98839">
        <ele>725.40002441406</ele>
        <time>2021-09-01T08:44:00Z</time>
      </trkpt>
      <trkpt lat="44.42795" lon="5.98854">
        <ele>724.79998779297</ele>
        <time>2021-09-01T08:44:01Z</time>
      </trkpt>
      <trkpt lat="44.42795" lon="5.98884">
        <ele>723.40002441406</ele>
        <time>2021-09-01T08:44:03Z</time>
      </trkpt>
      <trkpt lat="44.42795" lon="5.98899">
        <ele>722.59997558594</ele>
        <time>2021-09-01T08:44:04Z</time>
      </trkpt>
      <trkpt lat="44.42795" lon="5.98914">
        <ele>721.79998779297</ele>
        <time>2021-09-01T08:44:05Z</time>
      </trkpt>
      <trkpt lat="44.42795" lon="5.9893">
        <ele>720.20001220703</ele>
        <time>2021-09-01T08:44:06Z</time>
      </trkpt>
      <trkpt lat="44.42792" lon="5.98946">
        <ele>719.59997558594</ele>
        <time>2021-09-01T08:44:07Z</time>
      </trkpt>
      <trkpt lat="44.4279" lon="5.98963">
        <ele>718.79998779297</ele>
        <time>2021-09-01T08:44:08Z</time>
      </trkpt>
      <trkpt lat="44.42787" lon="5.98979">
        <ele>718</ele>
        <time>2021-09-01T08:44:09Z</time>
      </trkpt>
      <trkpt lat="44.42787" lon="5.98995">
        <ele>717.20001220703</ele>
        <time>2021-09-01T08:44:10Z</time>
      </trkpt>
      <trkpt lat="44.42792" lon="5.99025">
        <ele>715.59997558594</ele>
        <time>2021-09-01T08:44:12Z</time>
      </trkpt>
      <trkpt lat="44.42796" lon="5.99051">
        <ele>713.79998779297</ele>
        <time>2021-09-01T08:44:14Z</time>
      </trkpt>
      <trkpt lat="44.42797" lon="5.99058">
        <ele>712.79998779297</ele>
        <time>2021-09-01T08:44:15Z</time>
      </trkpt>
      <trkpt lat="44.42796" lon="5.99066">
        <ele>711.79998779297</ele>
        <time>2021-09-01T08:44:16Z</time>
      </trkpt>
      <trkpt lat="44.42794" lon="5.99073">
        <ele>710.59997558594</ele>
        <time>2021-09-01T08:44:17Z</time>
      </trkpt>
      <trkpt lat="44.42791" lon="5.99076">
        <ele>709.59997558594</ele>
        <time>2021-09-01T08:44:18Z</time>
      </trkpt>
      <trkpt lat="44.42787" lon="5.99074">
        <ele>708.59997558594</ele>
        <time>2021-09-01T08:44:19Z</time>
      </trkpt>
      <trkpt lat="44.4278" lon="5.99067">
        <ele>707.40002441406</ele>
        <time>2021-09-01T08:44:20Z</time>
      </trkpt>
      <trkpt lat="44.4277" lon="5.99042">
        <ele>705.59997558594</ele>
        <time>2021-09-01T08:44:22Z</time>
      </trkpt>
      <trkpt lat="44.42766" lon="5.99028">
        <ele>705</ele>
        <time>2021-09-01T08:44:23Z</time>
      </trkpt>
      <trkpt lat="44.42763" lon="5.99016">
        <ele>704.20001220703</ele>
        <time>2021-09-01T08:44:24Z</time>
      </trkpt>
      <trkpt lat="44.42757" lon="5.98987">
        <ele>702.59997558594</ele>
        <time>2021-09-01T08:44:26Z</time>
      </trkpt>
      <trkpt lat="44.4275" lon="5.98976">
        <ele>701.79998779297</ele>
        <time>2021-09-01T08:44:27Z</time>
      </trkpt>
      <trkpt lat="44.42743" lon="5.98965">
        <ele>701.20001220703</ele>
        <time>2021-09-01T08:44:28Z</time>
      </trkpt>
      <trkpt lat="44.42721" lon="5.98955">
        <ele>698.79998779297</ele>
        <time>2021-09-01T08:44:30Z</time>
      </trkpt>
      <trkpt lat="44.42699" lon="5.98949">
        <ele>697</ele>
        <time>2021-09-01T08:44:32Z</time>
      </trkpt>
      <trkpt lat="44.42678" lon="5.98943">
        <ele>695.59997558594</ele>
        <time>2021-09-01T08:44:34Z</time>
      </trkpt>
      <trkpt lat="44.42657" lon="5.98937">
        <ele>694.59997558594</ele>
        <time>2021-09-01T08:44:36Z</time>
      </trkpt>
      <trkpt lat="44.42648" lon="5.98937">
        <ele>694.20001220703</ele>
        <time>2021-09-01T08:44:37Z</time>
      </trkpt>
      <trkpt lat="44.42639" lon="5.98938">
        <ele>693.59997558594</ele>
        <time>2021-09-01T08:44:38Z</time>
      </trkpt>
      <trkpt lat="44.4263" lon="5.98943">
        <ele>693</ele>
        <time>2021-09-01T08:44:39Z</time>
      </trkpt>
      <trkpt lat="44.42614" lon="5.98956">
        <ele>692</ele>
        <time>2021-09-01T08:44:41Z</time>
      </trkpt>
      <trkpt lat="44.42589" lon="5.98976">
        <ele>690.40002441406</ele>
        <time>2021-09-01T08:44:44Z</time>
      </trkpt>
      <trkpt lat="44.42579" lon="5.98977">
        <ele>689.79998779297</ele>
        <time>2021-09-01T08:44:45Z</time>
      </trkpt>
      <trkpt lat="44.42569" lon="5.98977">
        <ele>689.20001220703</ele>
        <time>2021-09-01T08:44:46Z</time>
      </trkpt>
      <trkpt lat="44.42549" lon="5.98974">
        <ele>688</ele>
        <time>2021-09-01T08:44:48Z</time>
      </trkpt>
      <trkpt lat="44.42539" lon="5.98972">
        <ele>687.40002441406</ele>
        <time>2021-09-01T08:44:49Z</time>
      </trkpt>
      <trkpt lat="44.42529" lon="5.98971">
        <ele>686.79998779297</ele>
        <time>2021-09-01T08:44:50Z</time>
      </trkpt>
      <trkpt lat="44.42509" lon="5.98972">
        <ele>685.59997558594</ele>
        <time>2021-09-01T08:44:52Z</time>
      </trkpt>
      <trkpt lat="44.42499" lon="5.98974">
        <ele>685</ele>
        <time>2021-09-01T08:44:53Z</time>
      </trkpt>
      <trkpt lat="44.42489" lon="5.98977">
        <ele>683.79998779297</ele>
        <time>2021-09-01T08:44:54Z</time>
      </trkpt>
      <trkpt lat="44.42479" lon="5.98984">
        <ele>683.40002441406</ele>
        <time>2021-09-01T08:44:55Z</time>
      </trkpt>
      <trkpt lat="44.42469" lon="5.98989">
        <ele>682.79998779297</ele>
        <time>2021-09-01T08:44:56Z</time>
      </trkpt>
      <trkpt lat="44.4246" lon="5.9899">
        <ele>682.40002441406</ele>
        <time>2021-09-01T08:44:57Z</time>
      </trkpt>
      <trkpt lat="44.42449" lon="5.98988">
        <ele>681.59997558594</ele>
        <time>2021-09-01T08:44:58Z</time>
      </trkpt>
      <trkpt lat="44.42439" lon="5.98984">
        <ele>681</ele>
        <time>2021-09-01T08:44:59Z</time>
      </trkpt>
      <trkpt lat="44.42428" lon="5.98981">
        <ele>680.40002441406</ele>
        <time>2021-09-01T08:45:00Z</time>
      </trkpt>
      <trkpt lat="44.42418" lon="5.98976">
        <ele>679.79998779297</ele>
        <time>2021-09-01T08:45:01Z</time>
      </trkpt>
      <trkpt lat="44.42409" lon="5.98969">
        <ele>679.40002441406</ele>
        <time>2021-09-01T08:45:02Z</time>
      </trkpt>
      <trkpt lat="44.424" lon="5.9896">
        <ele>678.79998779297</ele>
        <time>2021-09-01T08:45:03Z</time>
      </trkpt>
      <trkpt lat="44.42392" lon="5.9895">
        <ele>678.20001220703</ele>
        <time>2021-09-01T08:45:04Z</time>
      </trkpt>
      <trkpt lat="44.42376" lon="5.98929">
        <ele>676.79998779297</ele>
        <time>2021-09-01T08:45:06Z</time>
      </trkpt>
      <trkpt lat="44.4236" lon="5.98907">
        <ele>675.40002441406</ele>
        <time>2021-09-01T08:45:08Z</time>
      </trkpt>
      <trkpt lat="44.42344" lon="5.98887">
        <ele>674</ele>
        <time>2021-09-01T08:45:10Z</time>
      </trkpt>
      <trkpt lat="44.42327" lon="5.98869">
        <ele>672.79998779297</ele>
        <time>2021-09-01T08:45:12Z</time>
      </trkpt>
      <trkpt lat="44.42308" lon="5.98855">
        <ele>671.59997558594</ele>
        <time>2021-09-01T08:45:14Z</time>
      </trkpt>
      <trkpt lat="44.42288" lon="5.98844">
        <ele>670.40002441406</ele>
        <time>2021-09-01T08:45:16Z</time>
      </trkpt>
      <trkpt lat="44.42277" lon="5.98841">
        <ele>669.79998779297</ele>
        <time>2021-09-01T08:45:17Z</time>
      </trkpt>
      <trkpt lat="44.42266" lon="5.98837">
        <ele>668.40002441406</ele>
        <time>2021-09-01T08:45:18Z</time>
      </trkpt>
      <trkpt lat="44.42245" lon="5.98831">
        <ele>667</ele>
        <time>2021-09-01T08:45:20Z</time>
      </trkpt>
      <trkpt lat="44.42223" lon="5.98827">
        <ele>665.79998779297</ele>
        <time>2021-09-01T08:45:22Z</time>
      </trkpt>
      <trkpt lat="44.42213" lon="5.98824">
        <ele>665</ele>
        <time>2021-09-01T08:45:23Z</time>
      </trkpt>
      <trkpt lat="44.42203" lon="5.98821">
        <ele>664.40002441406</ele>
        <time>2021-09-01T08:45:24Z</time>
      </trkpt>
      <trkpt lat="44.42194" lon="5.98815">
        <ele>663.79998779297</ele>
        <time>2021-09-01T08:45:25Z</time>
      </trkpt>
      <trkpt lat="44.42185" lon="5.98809">
        <ele>663.20001220703</ele>
        <time>2021-09-01T08:45:26Z</time>
      </trkpt>
      <trkpt lat="44.42174" lon="5.98797">
        <ele>662</ele>
        <time>2021-09-01T08:45:28Z</time>
      </trkpt>
      <trkpt lat="44.42168" lon="5.98798">
        <ele>661.40002441406</ele>
        <time>2021-09-01T08:45:29Z</time>
      </trkpt>
      <trkpt lat="44.42163" lon="5.988">
        <ele>660.59997558594</ele>
        <time>2021-09-01T08:45:30Z</time>
      </trkpt>
      <trkpt lat="44.4216" lon="5.98808">
        <ele>659.59997558594</ele>
        <time>2021-09-01T08:45:31Z</time>
      </trkpt>
      <trkpt lat="44.42162" lon="5.98814">
        <ele>658.79998779297</ele>
        <time>2021-09-01T08:45:32Z</time>
      </trkpt>
      <trkpt lat="44.4217" lon="5.98821">
        <ele>657.79998779297</ele>
        <time>2021-09-01T08:45:34Z</time>
      </trkpt>
      <trkpt lat="44.42178" lon="5.98826">
        <ele>657.40002441406</ele>
        <time>2021-09-01T08:45:35Z</time>
      </trkpt>
      <trkpt lat="44.42193" lon="5.98835">
        <ele>656.59997558594</ele>
        <time>2021-09-01T08:45:37Z</time>
      </trkpt>
      <trkpt lat="44.42208" lon="5.98845">
        <ele>655.59997558594</ele>
        <time>2021-09-01T08:45:39Z</time>
      </trkpt>
      <trkpt lat="44.42216" lon="5.9885">
        <ele>655.40002441406</ele>
        <time>2021-09-01T08:45:40Z</time>
      </trkpt>
      <trkpt lat="44.42231" lon="5.98862">
        <ele>654.20001220703</ele>
        <time>2021-09-01T08:45:42Z</time>
      </trkpt>
      <trkpt lat="44.42255" lon="5.98881">
        <ele>653.20001220703</ele>
        <time>2021-09-01T08:45:45Z</time>
      </trkpt>
      <trkpt lat="44.42263" lon="5.98889">
        <ele>652.79998779297</ele>
        <time>2021-09-01T08:45:46Z</time>
      </trkpt>
      <trkpt lat="44.42278" lon="5.98907">
        <ele>651.79998779297</ele>
        <time>2021-09-01T08:45:48Z</time>
      </trkpt>
      <trkpt lat="44.42285" lon="5.98917">
        <ele>651.40002441406</ele>
        <time>2021-09-01T08:45:49Z</time>
      </trkpt>
      <trkpt lat="44.42291" lon="5.98928">
        <ele>650.79998779297</ele>
        <time>2021-09-01T08:45:50Z</time>
      </trkpt>
      <trkpt lat="44.42303" lon="5.98951">
        <ele>649.59997558594</ele>
        <time>2021-09-01T08:45:52Z</time>
      </trkpt>
      <trkpt lat="44.42316" lon="5.98975">
        <ele>648.40002441406</ele>
        <time>2021-09-01T08:45:54Z</time>
      </trkpt>
      <trkpt lat="44.42323" lon="5.98986">
        <ele>648</ele>
        <time>2021-09-01T08:45:55Z</time>
      </trkpt>
      <trkpt lat="44.4233" lon="5.98998">
        <ele>647.40002441406</ele>
        <time>2021-09-01T08:45:56Z</time>
      </trkpt>
      <trkpt lat="44.42344" lon="5.9902">
        <ele>646.20001220703</ele>
        <time>2021-09-01T08:45:58Z</time>
      </trkpt>
      <trkpt lat="44.42359" lon="5.99041">
        <ele>645</ele>
        <time>2021-09-01T08:46:00Z</time>
      </trkpt>
      <trkpt lat="44.42374" lon="5.99063">
        <ele>643.59997558594</ele>
        <time>2021-09-01T08:46:02Z</time>
      </trkpt>
      <trkpt lat="44.42388" lon="5.99085">
        <ele>642.20001220703</ele>
        <time>2021-09-01T08:46:04Z</time>
      </trkpt>
      <trkpt lat="44.42403" lon="5.99106">
        <ele>640.40002441406</ele>
        <time>2021-09-01T08:46:06Z</time>
      </trkpt>
      <trkpt lat="44.42417" lon="5.99129">
        <ele>639.20001220703</ele>
        <time>2021-09-01T08:46:08Z</time>
      </trkpt>
      <trkpt lat="44.42424" lon="5.99142">
        <ele>638.59997558594</ele>
        <time>2021-09-01T08:46:09Z</time>
      </trkpt>
      <trkpt lat="44.4243" lon="5.99154">
        <ele>638.20001220703</ele>
        <time>2021-09-01T08:46:10Z</time>
      </trkpt>
      <trkpt lat="44.4244" lon="5.9918">
        <ele>636.79998779297</ele>
        <time>2021-09-01T08:46:12Z</time>
      </trkpt>
      <trkpt lat="44.4245" lon="5.99207">
        <ele>635.59997558594</ele>
        <time>2021-09-01T08:46:14Z</time>
      </trkpt>
      <trkpt lat="44.42453" lon="5.99221">
        <ele>634.79998779297</ele>
        <time>2021-09-01T08:46:15Z</time>
      </trkpt>
      <trkpt lat="44.42456" lon="5.99235">
        <ele>634.20001220703</ele>
        <time>2021-09-01T08:46:16Z</time>
      </trkpt>
      <trkpt lat="44.42461" lon="5.99261">
        <ele>633</ele>
        <time>2021-09-01T08:46:18Z</time>
      </trkpt>
      <trkpt lat="44.42462" lon="5.99272">
        <ele>632.59997558594</ele>
        <time>2021-09-01T08:46:19Z</time>
      </trkpt>
      <trkpt lat="44.42458" lon="5.99294">
        <ele>631.59997558594</ele>
        <time>2021-09-01T08:46:21Z</time>
      </trkpt>
      <trkpt lat="44.42446" lon="5.99311">
        <ele>630.59997558594</ele>
        <time>2021-09-01T08:46:23Z</time>
      </trkpt>
      <trkpt lat="44.42438" lon="5.99316">
        <ele>630</ele>
        <time>2021-09-01T08:46:24Z</time>
      </trkpt>
      <trkpt lat="44.42429" lon="5.99319">
        <ele>629.59997558594</ele>
        <time>2021-09-01T08:46:25Z</time>
      </trkpt>
      <trkpt lat="44.4242" lon="5.99321">
        <ele>629</ele>
        <time>2021-09-01T08:46:26Z</time>
      </trkpt>
      <trkpt lat="44.4241" lon="5.99322">
        <ele>628.40002441406</ele>
        <time>2021-09-01T08:46:27Z</time>
      </trkpt>
      <trkpt lat="44.424" lon="5.99323">
        <ele>627.79998779297</ele>
        <time>2021-09-01T08:46:28Z</time>
      </trkpt>
      <trkpt lat="44.42389" lon="5.99323">
        <ele>627.20001220703</ele>
        <time>2021-09-01T08:46:29Z</time>
      </trkpt>
      <trkpt lat="44.42379" lon="5.99325">
        <ele>626</ele>
        <time>2021-09-01T08:46:30Z</time>
      </trkpt>
      <trkpt lat="44.42358" lon="5.99327">
        <ele>625</ele>
        <time>2021-09-01T08:46:32Z</time>
      </trkpt>
      <trkpt lat="44.42347" lon="5.99328">
        <ele>624.40002441406</ele>
        <time>2021-09-01T08:46:33Z</time>
      </trkpt>
      <trkpt lat="44.42336" lon="5.99329">
        <ele>623.59997558594</ele>
        <time>2021-09-01T08:46:34Z</time>
      </trkpt>
      <trkpt lat="44.42313" lon="5.99331">
        <ele>622.20001220703</ele>
        <time>2021-09-01T08:46:36Z</time>
      </trkpt>
      <trkpt lat="44.42291" lon="5.99334">
        <ele>620.79998779297</ele>
        <time>2021-09-01T08:46:38Z</time>
      </trkpt>
      <trkpt lat="44.42269" lon="5.99337">
        <ele>619.20001220703</ele>
        <time>2021-09-01T08:46:40Z</time>
      </trkpt>
      <trkpt lat="44.42257" lon="5.99338">
        <ele>618.40002441406</ele>
        <time>2021-09-01T08:46:41Z</time>
      </trkpt>
      <trkpt lat="44.42246" lon="5.99339">
        <ele>617.59997558594</ele>
        <time>2021-09-01T08:46:42Z</time>
      </trkpt>
      <trkpt lat="44.42225" lon="5.99341">
        <ele>616</ele>
        <time>2021-09-01T08:46:44Z</time>
      </trkpt>
      <trkpt lat="44.42204" lon="5.99344">
        <ele>614.79998779297</ele>
        <time>2021-09-01T08:46:46Z</time>
      </trkpt>
      <trkpt lat="44.42183" lon="5.99346">
        <ele>613.59997558594</ele>
        <time>2021-09-01T08:46:48Z</time>
      </trkpt>
      <trkpt lat="44.42154" lon="5.99349">
        <ele>612.20001220703</ele>
        <time>2021-09-01T08:46:51Z</time>
      </trkpt>
      <trkpt lat="44.42124" lon="5.99353">
        <ele>610.40002441406</ele>
        <time>2021-09-01T08:46:54Z</time>
      </trkpt>
      <trkpt lat="44.42105" lon="5.99356">
        <ele>609.20001220703</ele>
        <time>2021-09-01T08:46:56Z</time>
      </trkpt>
      <trkpt lat="44.42077" lon="5.99363">
        <ele>607.79998779297</ele>
        <time>2021-09-01T08:46:59Z</time>
      </trkpt>
      <trkpt lat="44.4207" lon="5.99369">
        <ele>607.20001220703</ele>
        <time>2021-09-01T08:47:00Z</time>
      </trkpt>
      <trkpt lat="44.42065" lon="5.99378">
        <ele>606.59997558594</ele>
        <time>2021-09-01T08:47:01Z</time>
      </trkpt>
      <trkpt lat="44.42057" lon="5.99394">
        <ele>605.59997558594</ele>
        <time>2021-09-01T08:47:03Z</time>
      </trkpt>
      <trkpt lat="44.42053" lon="5.99408">
        <ele>604.40002441406</ele>
        <time>2021-09-01T08:47:05Z</time>
      </trkpt>
      <trkpt lat="44.42053" lon="5.99416">
        <ele>603.79998779297</ele>
        <time>2021-09-01T08:47:06Z</time>
      </trkpt>
      <trkpt lat="44.42055" lon="5.99423">
        <ele>603</ele>
        <time>2021-09-01T08:47:07Z</time>
      </trkpt>
      <trkpt lat="44.42059" lon="5.99439">
        <ele>601.59997558594</ele>
        <time>2021-09-01T08:47:09Z</time>
      </trkpt>
      <trkpt lat="44.42061" lon="5.99446">
        <ele>601</ele>
        <time>2021-09-01T08:47:10Z</time>
      </trkpt>
      <trkpt lat="44.42063" lon="5.99454">
        <ele>600.59997558594</ele>
        <time>2021-09-01T08:47:11Z</time>
      </trkpt>
      <trkpt lat="44.42066" lon="5.99461">
        <ele>600.20001220703</ele>
        <time>2021-09-01T08:47:12Z</time>
      </trkpt>
      <trkpt lat="44.42077" lon="5.99489">
        <ele>599.59997558594</ele>
        <time>2021-09-01T08:47:16Z</time>
      </trkpt>
      <trkpt lat="44.42096" lon="5.99543">
        <ele>599.40002441406</ele>
        <time>2021-09-01T08:47:24Z</time>
      </trkpt>
      <trkpt lat="44.42115" lon="5.996">
        <ele>599.59997558594</ele>
        <time>2021-09-01T08:47:33Z</time>
      </trkpt>
      <trkpt lat="44.42134" lon="5.99657">
        <ele>599.79998779297</ele>
        <time>2021-09-01T08:47:42Z</time>
      </trkpt>
      <trkpt lat="44.42154" lon="5.9972">
        <ele>599.79998779297</ele>
        <time>2021-09-01T08:47:52Z</time>
      </trkpt>
      <trkpt lat="44.42174" lon="5.99781">
        <ele>600</ele>
        <time>2021-09-01T08:48:02Z</time>
      </trkpt>
      <trkpt lat="44.4219" lon="5.99826">
        <ele>600.20001220703</ele>
        <time>2021-09-01T08:48:09Z</time>
      </trkpt>
      <trkpt lat="44.42207" lon="5.9988">
        <ele>599.79998779297</ele>
        <time>2021-09-01T08:48:17Z</time>
      </trkpt>
      <trkpt lat="44.4222" lon="5.99921">
        <ele>599.40002441406</ele>
        <time>2021-09-01T08:48:23Z</time>
      </trkpt>
      <trkpt lat="44.42237" lon="5.99974">
        <ele>599.20001220703</ele>
        <time>2021-09-01T08:48:31Z</time>
      </trkpt>
      <trkpt lat="44.42256" lon="6.00033">
        <ele>599.20001220703</ele>
        <time>2021-09-01T08:48:40Z</time>
      </trkpt>
      <trkpt lat="44.42263" lon="6.00051">
        <ele>599.20001220703</ele>
        <time>2021-09-01T08:48:43Z</time>
      </trkpt>
      <trkpt lat="44.42266" lon="6.00064">
        <ele>599.40002441406</ele>
        <time>2021-09-01T08:48:45Z</time>
      </trkpt>
      <trkpt lat="44.42268" lon="6.0007">
        <ele>599.40002441406</ele>
        <time>2021-09-01T08:48:46Z</time>
      </trkpt>
      <trkpt lat="44.42283" lon="6.00113">
        <ele>599.40002441406</ele>
        <time>2021-09-01T08:48:53Z</time>
      </trkpt>
      <trkpt lat="44.42298" lon="6.00156">
        <ele>599.59997558594</ele>
        <time>2021-09-01T08:49:00Z</time>
      </trkpt>
      <trkpt lat="44.42313" lon="6.00203">
        <ele>600.20001220703</ele>
        <time>2021-09-01T08:49:08Z</time>
      </trkpt>
      <trkpt lat="44.42324" lon="6.00236">
        <ele>600.59997558594</ele>
        <time>2021-09-01T08:49:14Z</time>
      </trkpt>
      <trkpt lat="44.4233" lon="6.00252">
        <ele>600.79998779297</ele>
        <time>2021-09-01T08:49:17Z</time>
      </trkpt>
      <trkpt lat="44.4234" lon="6.00284">
        <ele>601.20001220703</ele>
        <time>2021-09-01T08:49:23Z</time>
      </trkpt>
      <trkpt lat="44.42349" lon="6.0031">
        <ele>601.59997558594</ele>
        <time>2021-09-01T08:49:28Z</time>
      </trkpt>
      <trkpt lat="44.42353" lon="6.00325">
        <ele>601.79998779297</ele>
        <time>2021-09-01T08:49:31Z</time>
      </trkpt>
      <trkpt lat="44.42366" lon="6.00365">
        <ele>602.59997558594</ele>
        <time>2021-09-01T08:49:39Z</time>
      </trkpt>
      <trkpt lat="44.42371" lon="6.0038">
        <ele>602.79998779297</ele>
        <time>2021-09-01T08:49:42Z</time>
      </trkpt>
      <trkpt lat="44.42379" lon="6.00404">
        <ele>603</ele>
        <time>2021-09-01T08:49:47Z</time>
      </trkpt>
      <trkpt lat="44.42393" lon="6.00447">
        <ele>603.79998779297</ele>
        <time>2021-09-01T08:49:56Z</time>
      </trkpt>
      <trkpt lat="44.42395" lon="6.00452">
        <ele>603.79998779297</ele>
        <time>2021-09-01T08:49:57Z</time>
      </trkpt>
      <trkpt lat="44.42407" lon="6.00489">
        <ele>604.40002441406</ele>
        <time>2021-09-01T08:50:05Z</time>
      </trkpt>
      <trkpt lat="44.42414" lon="6.00512">
        <ele>604.79998779297</ele>
        <time>2021-09-01T08:50:10Z</time>
      </trkpt>
      <trkpt lat="44.42419" lon="6.00525">
        <ele>605</ele>
        <time>2021-09-01T08:50:13Z</time>
      </trkpt>
      <trkpt lat="44.4243" lon="6.0056">
        <ele>605.20001220703</ele>
        <time>2021-09-01T08:50:20Z</time>
      </trkpt>
      <trkpt lat="44.42445" lon="6.00609">
        <ele>604.59997558594</ele>
        <time>2021-09-01T08:50:28Z</time>
      </trkpt>
      <trkpt lat="44.42447" lon="6.00617">
        <ele>604.20001220703</ele>
        <time>2021-09-01T08:50:31Z</time>
      </trkpt>
      <trkpt lat="44.42448" lon="6.00626">
        <ele>603.79998779297</ele>
        <time>2021-09-01T08:50:34Z</time>
      </trkpt>
      <trkpt lat="44.42449" lon="6.00635">
        <ele>603.59997558594</ele>
        <time>2021-09-01T08:50:36Z</time>
      </trkpt>
      <trkpt lat="44.42455" lon="6.00663">
        <ele>603.20001220703</ele>
        <time>2021-09-01T08:50:42Z</time>
      </trkpt>
      <trkpt lat="44.42462" lon="6.00683">
        <ele>602.59997558594</ele>
        <time>2021-09-01T08:50:47Z</time>
      </trkpt>
      <trkpt lat="44.42464" lon="6.00686">
        <ele>602.59997558594</ele>
        <time>2021-09-01T08:50:48Z</time>
      </trkpt>
      <trkpt lat="44.42476" lon="6.00701">
        <ele>602.79998779297</ele>
        <time>2021-09-01T08:50:54Z</time>
      </trkpt>
      <trkpt lat="44.42482" lon="6.00711">
        <ele>603</ele>
        <time>2021-09-01T08:51:00Z</time>
      </trkpt>
      <trkpt lat="44.42483" lon="6.00712">
        <ele>603</ele>
        <time>2021-09-01T08:51:01Z</time>
      </trkpt>
      <trkpt lat="44.42485" lon="6.00721">
        <ele>603</ele>
        <time>2021-09-01T08:51:29Z</time>
      </trkpt>
      <trkpt lat="44.4248" lon="6.00721">
        <ele>602.79998779297</ele>
        <time>2021-09-01T08:51:34Z</time>
      </trkpt>
      <trkpt lat="44.42483" lon="6.00725">
        <ele>603.40002441406</ele>
        <time>2021-09-01T08:57:14Z</time>
      </trkpt>
      <trkpt lat="44.42485" lon="6.0073">
        <ele>603.40002441406</ele>
        <time>2021-09-01T08:57:16Z</time>
      </trkpt>
      <trkpt lat="44.42483" lon="6.00755">
        <ele>603.40002441406</ele>
        <time>2021-09-01T08:57:21Z</time>
      </trkpt>
      <trkpt lat="44.42483" lon="6.00783">
        <ele>603</ele>
        <time>2021-09-01T08:57:26Z</time>
      </trkpt>
      <trkpt lat="44.42484" lon="6.00789">
        <ele>603</ele>
        <time>2021-09-01T08:57:27Z</time>
      </trkpt>
      <trkpt lat="44.42499" lon="6.00818">
        <ele>602</ele>
        <time>2021-09-01T08:57:32Z</time>
      </trkpt>
      <trkpt lat="44.42504" lon="6.00824">
        <ele>601.59997558594</ele>
        <time>2021-09-01T08:57:33Z</time>
      </trkpt>
      <trkpt lat="44.42521" lon="6.00849">
        <ele>600.40002441406</ele>
        <time>2021-09-01T08:57:37Z</time>
      </trkpt>
      <trkpt lat="44.42535" lon="6.00868">
        <ele>599.40002441406</ele>
        <time>2021-09-01T08:57:40Z</time>
      </trkpt>
      <trkpt lat="44.42551" lon="6.00888">
        <ele>598</ele>
        <time>2021-09-01T08:57:43Z</time>
      </trkpt>
      <trkpt lat="44.42556" lon="6.00895">
        <ele>597.59997558594</ele>
        <time>2021-09-01T08:57:44Z</time>
      </trkpt>
      <trkpt lat="44.42566" lon="6.00907">
        <ele>596.79998779297</ele>
        <time>2021-09-01T08:57:46Z</time>
      </trkpt>
      <trkpt lat="44.42594" lon="6.00945">
        <ele>595.79998779297</ele>
        <time>2021-09-01T08:57:52Z</time>
      </trkpt>
      <trkpt lat="44.42628" lon="6.0099">
        <ele>594.59997558594</ele>
        <time>2021-09-01T08:58:00Z</time>
      </trkpt>
      <trkpt lat="44.42648" lon="6.0102">
        <ele>594.20001220703</ele>
        <time>2021-09-01T08:58:06Z</time>
      </trkpt>
      <trkpt lat="44.42643" lon="6.01036">
        <ele>594.20001220703</ele>
        <time>2021-09-01T08:58:09Z</time>
      </trkpt>
      <trkpt lat="44.42635" lon="6.01046">
        <ele>594</ele>
        <time>2021-09-01T08:58:11Z</time>
      </trkpt>
      <trkpt lat="44.42623" lon="6.01064">
        <ele>593.59997558594</ele>
        <time>2021-09-01T08:58:14Z</time>
      </trkpt>
      <trkpt lat="44.42619" lon="6.01071">
        <ele>593.59997558594</ele>
        <time>2021-09-01T08:58:15Z</time>
      </trkpt>
      <trkpt lat="44.42594" lon="6.01108">
        <ele>592.59997558594</ele>
        <time>2021-09-01T08:58:21Z</time>
      </trkpt>
      <trkpt lat="44.4259" lon="6.01114">
        <ele>592.40002441406</ele>
        <time>2021-09-01T08:58:22Z</time>
      </trkpt>
      <trkpt lat="44.42577" lon="6.01132">
        <ele>592.40002441406</ele>
        <time>2021-09-01T08:58:26Z</time>
      </trkpt>
      <trkpt lat="44.42567" lon="6.01147">
        <ele>593.40002441406</ele>
        <time>2021-09-01T08:58:31Z</time>
      </trkpt>
      <trkpt lat="44.42565" lon="6.01149">
        <ele>593.59997558594</ele>
        <time>2021-09-01T08:58:32Z</time>
      </trkpt>
      <trkpt lat="44.42556" lon="6.01164">
        <ele>594.59997558594</ele>
        <time>2021-09-01T08:58:37Z</time>
      </trkpt>
      <trkpt lat="44.42552" lon="6.0117">
        <ele>595</ele>
        <time>2021-09-01T08:58:39Z</time>
      </trkpt>
      <trkpt lat="44.4254" lon="6.01188">
        <ele>595.79998779297</ele>
        <time>2021-09-01T08:58:45Z</time>
      </trkpt>
      <trkpt lat="44.42534" lon="6.01198">
        <ele>596</ele>
        <time>2021-09-01T08:58:48Z</time>
      </trkpt>
      <trkpt lat="44.42517" lon="6.01223">
        <ele>596.20001220703</ele>
        <time>2021-09-01T08:58:55Z</time>
      </trkpt>
      <trkpt lat="44.42501" lon="6.0125">
        <ele>595.59997558594</ele>
        <time>2021-09-01T08:59:00Z</time>
      </trkpt>
      <trkpt lat="44.42477" lon="6.01283">
        <ele>594.59997558594</ele>
        <time>2021-09-01T08:59:05Z</time>
      </trkpt>
      <trkpt lat="44.42462" lon="6.01307">
        <ele>593.20001220703</ele>
        <time>2021-09-01T08:59:08Z</time>
      </trkpt>
      <trkpt lat="44.42448" lon="6.01329">
        <ele>592</ele>
        <time>2021-09-01T08:59:11Z</time>
      </trkpt>
      <trkpt lat="44.42439" lon="6.01342">
        <ele>591.40002441406</ele>
        <time>2021-09-01T08:59:13Z</time>
      </trkpt>
      <trkpt lat="44.42422" lon="6.01367">
        <ele>590.79998779297</ele>
        <time>2021-09-01T08:59:17Z</time>
      </trkpt>
      <trkpt lat="44.42414" lon="6.01379">
        <ele>590.59997558594</ele>
        <time>2021-09-01T08:59:19Z</time>
      </trkpt>
      <trkpt lat="44.42385" lon="6.01424">
        <ele>590.59997558594</ele>
        <time>2021-09-01T08:59:27Z</time>
      </trkpt>
      <trkpt lat="44.42349" lon="6.01479">
        <ele>590.40002441406</ele>
        <time>2021-09-01T08:59:37Z</time>
      </trkpt>
      <trkpt lat="44.42331" lon="6.01506">
        <ele>590.40002441406</ele>
        <time>2021-09-01T08:59:42Z</time>
      </trkpt>
      <trkpt lat="44.42318" lon="6.01528">
        <ele>590.20001220703</ele>
        <time>2021-09-01T08:59:46Z</time>
      </trkpt>
      <trkpt lat="44.42284" lon="6.01579">
        <ele>590.20001220703</ele>
        <time>2021-09-01T08:59:56Z</time>
      </trkpt>
      <trkpt lat="44.42255" lon="6.0162">
        <ele>590.59997558594</ele>
        <time>2021-09-01T09:00:05Z</time>
      </trkpt>
      <trkpt lat="44.42236" lon="6.01641">
        <ele>591.20001220703</ele>
        <time>2021-09-01T09:00:11Z</time>
      </trkpt>
      <trkpt lat="44.42228" lon="6.01654">
        <ele>591.40002441406</ele>
        <time>2021-09-01T09:00:14Z</time>
      </trkpt>
      <trkpt lat="44.42226" lon="6.01665">
        <ele>591.40002441406</ele>
        <time>2021-09-01T09:00:16Z</time>
      </trkpt>
      <trkpt lat="44.42231" lon="6.01689">
        <ele>591.59997558594</ele>
        <time>2021-09-01T09:00:20Z</time>
      </trkpt>
      <trkpt lat="44.42232" lon="6.01696">
        <ele>591.59997558594</ele>
        <time>2021-09-01T09:00:21Z</time>
      </trkpt>
      <trkpt lat="44.42237" lon="6.01742">
        <ele>591.59997558594</ele>
        <time>2021-09-01T09:00:28Z</time>
      </trkpt>
      <trkpt lat="44.42238" lon="6.01773">
        <ele>591.79998779297</ele>
        <time>2021-09-01T09:00:34Z</time>
      </trkpt>
      <trkpt lat="44.42237" lon="6.01778">
        <ele>592</ele>
        <time>2021-09-01T09:00:35Z</time>
      </trkpt>
      <trkpt lat="44.42235" lon="6.01802">
        <ele>593</ele>
        <time>2021-09-01T09:00:41Z</time>
      </trkpt>
      <trkpt lat="44.42226" lon="6.01827">
        <ele>594.20001220703</ele>
        <time>2021-09-01T09:00:48Z</time>
      </trkpt>
      <trkpt lat="44.42217" lon="6.01842">
        <ele>595</ele>
        <time>2021-09-01T09:00:53Z</time>
      </trkpt>
      <trkpt lat="44.42215" lon="6.01845">
        <ele>595.20001220703</ele>
        <time>2021-09-01T09:00:54Z</time>
      </trkpt>
      <trkpt lat="44.422" lon="6.01862">
        <ele>596.40002441406</ele>
        <time>2021-09-01T09:01:00Z</time>
      </trkpt>
      <trkpt lat="44.42196" lon="6.01869">
        <ele>596.79998779297</ele>
        <time>2021-09-01T09:01:02Z</time>
      </trkpt>
      <trkpt lat="44.42174" lon="6.01895">
        <ele>597.40002441406</ele>
        <time>2021-09-01T09:01:10Z</time>
      </trkpt>
      <trkpt lat="44.42168" lon="6.01902">
        <ele>597.40002441406</ele>
        <time>2021-09-01T09:01:12Z</time>
      </trkpt>
      <trkpt lat="44.42151" lon="6.01925">
        <ele>597.59997558594</ele>
        <time>2021-09-01T09:01:18Z</time>
      </trkpt>
      <trkpt lat="44.42121" lon="6.01963">
        <ele>597.59997558594</ele>
        <time>2021-09-01T09:01:27Z</time>
      </trkpt>
      <trkpt lat="44.4209" lon="6.02004">
        <ele>597.79998779297</ele>
        <time>2021-09-01T09:01:36Z</time>
      </trkpt>
      <trkpt lat="44.42058" lon="6.02044">
        <ele>597.79998779297</ele>
        <time>2021-09-01T09:01:45Z</time>
      </trkpt>
      <trkpt lat="44.42022" lon="6.02088">
        <ele>597.59997558594</ele>
        <time>2021-09-01T09:01:55Z</time>
      </trkpt>
      <trkpt lat="44.41985" lon="6.0213">
        <ele>597.59997558594</ele>
        <time>2021-09-01T09:02:05Z</time>
      </trkpt>
      <trkpt lat="44.41976" lon="6.02135">
        <ele>597.59997558594</ele>
        <time>2021-09-01T09:02:09Z</time>
      </trkpt>
      <trkpt lat="44.41972" lon="6.02136">
        <ele>597.59997558594</ele>
        <time>2021-09-01T09:02:11Z</time>
      </trkpt>
      <trkpt lat="44.41972" lon="6.02142">
        <ele>597.59997558594</ele>
        <time>2021-09-01T09:02:13Z</time>
      </trkpt>
      <trkpt lat="44.41977" lon="6.02163">
        <ele>597.59997558594</ele>
        <time>2021-09-01T09:02:17Z</time>
      </trkpt>
      <trkpt lat="44.41979" lon="6.02168">
        <ele>597.59997558594</ele>
        <time>2021-09-01T09:02:18Z</time>
      </trkpt>
      <trkpt lat="44.41995" lon="6.0221">
        <ele>597.79998779297</ele>
        <time>2021-09-01T09:02:26Z</time>
      </trkpt>
      <trkpt lat="44.42006" lon="6.02239">
        <ele>598.40002441406</ele>
        <time>2021-09-01T09:02:32Z</time>
      </trkpt>
      <trkpt lat="44.42008" lon="6.02244">
        <ele>598.59997558594</ele>
        <time>2021-09-01T09:02:33Z</time>
      </trkpt>
      <trkpt lat="44.42021" lon="6.02269">
        <ele>599.40002441406</ele>
        <time>2021-09-01T09:02:39Z</time>
      </trkpt>
      <trkpt lat="44.42031" lon="6.02285">
        <ele>600</ele>
        <time>2021-09-01T09:02:43Z</time>
      </trkpt>
      <trkpt lat="44.42037" lon="6.02292">
        <ele>600</ele>
        <time>2021-09-01T09:02:45Z</time>
      </trkpt>
      <trkpt lat="44.42064" lon="6.02316">
        <ele>600.40002441406</ele>
        <time>2021-09-01T09:02:52Z</time>
      </trkpt>
      <trkpt lat="44.42072" lon="6.02322">
        <ele>600.59997558594</ele>
        <time>2021-09-01T09:02:54Z</time>
      </trkpt>
      <trkpt lat="44.42085" lon="6.02335">
        <ele>600.79998779297</ele>
        <time>2021-09-01T09:02:58Z</time>
      </trkpt>
      <trkpt lat="44.42107" lon="6.02356">
        <ele>601.40002441406</ele>
        <time>2021-09-01T09:03:05Z</time>
      </trkpt>
      <trkpt lat="44.42115" lon="6.02366">
        <ele>601.59997558594</ele>
        <time>2021-09-01T09:03:08Z</time>
      </trkpt>
      <trkpt lat="44.42125" lon="6.02383">
        <ele>602</ele>
        <time>2021-09-01T09:03:12Z</time>
      </trkpt>
      <trkpt lat="44.4213" lon="6.02391">
        <ele>602.20001220703</ele>
        <time>2021-09-01T09:03:14Z</time>
      </trkpt>
      <trkpt lat="44.42139" lon="6.02405">
        <ele>602.20001220703</ele>
        <time>2021-09-01T09:03:17Z</time>
      </trkpt>
      <trkpt lat="44.42141" lon="6.0241">
        <ele>602.40002441406</ele>
        <time>2021-09-01T09:03:18Z</time>
      </trkpt>
      <trkpt lat="44.42148" lon="6.02425">
        <ele>602.59997558594</ele>
        <time>2021-09-01T09:03:21Z</time>
      </trkpt>
      <trkpt lat="44.42162" lon="6.02455">
        <ele>602.79998779297</ele>
        <time>2021-09-01T09:03:27Z</time>
      </trkpt>
      <trkpt lat="44.42182" lon="6.02497">
        <ele>603</ele>
        <time>2021-09-01T09:03:35Z</time>
      </trkpt>
      <trkpt lat="44.42188" lon="6.02508">
        <ele>603</ele>
        <time>2021-09-01T09:03:37Z</time>
      </trkpt>
      <trkpt lat="44.42206" lon="6.02545">
        <ele>603.20001220703</ele>
        <time>2021-09-01T09:03:44Z</time>
      </trkpt>
      <trkpt lat="44.42234" lon="6.02596">
        <ele>603.59997558594</ele>
        <time>2021-09-01T09:03:54Z</time>
      </trkpt>
      <trkpt lat="44.42242" lon="6.02611">
        <ele>603.59997558594</ele>
        <time>2021-09-01T09:03:57Z</time>
      </trkpt>
      <trkpt lat="44.42252" lon="6.02632">
        <ele>603.79998779297</ele>
        <time>2021-09-01T09:04:01Z</time>
      </trkpt>
      <trkpt lat="44.42278" lon="6.0268">
        <ele>604.59997558594</ele>
        <time>2021-09-01T09:04:11Z</time>
      </trkpt>
      <trkpt lat="44.4229" lon="6.02705">
        <ele>605</ele>
        <time>2021-09-01T09:04:16Z</time>
      </trkpt>
      <trkpt lat="44.42294" lon="6.02715">
        <ele>605</ele>
        <time>2021-09-01T09:04:18Z</time>
      </trkpt>
      <trkpt lat="44.42307" lon="6.02765">
        <ele>605.59997558594</ele>
        <time>2021-09-01T09:04:27Z</time>
      </trkpt>
      <trkpt lat="44.42309" lon="6.02776">
        <ele>605.79998779297</ele>
        <time>2021-09-01T09:04:29Z</time>
      </trkpt>
      <trkpt lat="44.42317" lon="6.028">
        <ele>606.20001220703</ele>
        <time>2021-09-01T09:04:34Z</time>
      </trkpt>
      <trkpt lat="44.42322" lon="6.02818">
        <ele>606.79998779297</ele>
        <time>2021-09-01T09:04:38Z</time>
      </trkpt>
      <trkpt lat="44.42325" lon="6.02827">
        <ele>607</ele>
        <time>2021-09-01T09:04:40Z</time>
      </trkpt>
      <trkpt lat="44.4234" lon="6.02864">
        <ele>607.79998779297</ele>
        <time>2021-09-01T09:04:48Z</time>
      </trkpt>
      <trkpt lat="44.42354" lon="6.02908">
        <ele>608.40002441406</ele>
        <time>2021-09-01T09:04:57Z</time>
      </trkpt>
      <trkpt lat="44.42362" lon="6.02927">
        <ele>608.79998779297</ele>
        <time>2021-09-01T09:05:01Z</time>
      </trkpt>
      <trkpt lat="44.42375" lon="6.02961">
        <ele>609.40002441406</ele>
        <time>2021-09-01T09:05:08Z</time>
      </trkpt>
      <trkpt lat="44.42389" lon="6.02999">
        <ele>609.79998779297</ele>
        <time>2021-09-01T09:05:16Z</time>
      </trkpt>
      <trkpt lat="44.42391" lon="6.03004">
        <ele>610</ele>
        <time>2021-09-01T09:05:17Z</time>
      </trkpt>
      <trkpt lat="44.42408" lon="6.03041">
        <ele>610.79998779297</ele>
        <time>2021-09-01T09:05:25Z</time>
      </trkpt>
      <trkpt lat="44.42412" lon="6.03051">
        <ele>611</ele>
        <time>2021-09-01T09:05:27Z</time>
      </trkpt>
      <trkpt lat="44.42428" lon="6.0309">
        <ele>611.20001220703</ele>
        <time>2021-09-01T09:05:35Z</time>
      </trkpt>
      <trkpt lat="44.42447" lon="6.03135">
        <ele>611.59997558594</ele>
        <time>2021-09-01T09:05:44Z</time>
      </trkpt>
      <trkpt lat="44.42459" lon="6.03168">
        <ele>612</ele>
        <time>2021-09-01T09:05:50Z</time>
      </trkpt>
      <trkpt lat="44.42466" lon="6.03189">
        <ele>612.40002441406</ele>
        <time>2021-09-01T09:05:54Z</time>
      </trkpt>
      <trkpt lat="44.42474" lon="6.03222">
        <ele>613</ele>
        <time>2021-09-01T09:06:00Z</time>
      </trkpt>
      <trkpt lat="44.42478" lon="6.03238">
        <ele>613.40002441406</ele>
        <time>2021-09-01T09:06:03Z</time>
      </trkpt>
      <trkpt lat="44.42482" lon="6.03263">
        <ele>614</ele>
        <time>2021-09-01T09:06:08Z</time>
      </trkpt>
      <trkpt lat="44.42484" lon="6.03272">
        <ele>614.20001220703</ele>
        <time>2021-09-01T09:06:10Z</time>
      </trkpt>
      <trkpt lat="44.42493" lon="6.03309">
        <ele>615.20001220703</ele>
        <time>2021-09-01T09:06:18Z</time>
      </trkpt>
      <trkpt lat="44.425" lon="6.03352">
        <ele>616</ele>
        <time>2021-09-01T09:06:27Z</time>
      </trkpt>
      <trkpt lat="44.42501" lon="6.03357">
        <ele>616.20001220703</ele>
        <time>2021-09-01T09:06:28Z</time>
      </trkpt>
      <trkpt lat="44.42502" lon="6.03372">
        <ele>616.59997558594</ele>
        <time>2021-09-01T09:06:31Z</time>
      </trkpt>
      <trkpt lat="44.42504" lon="6.03392">
        <ele>617</ele>
        <time>2021-09-01T09:06:35Z</time>
      </trkpt>
      <trkpt lat="44.42509" lon="6.03411">
        <ele>617.20001220703</ele>
        <time>2021-09-01T09:06:39Z</time>
      </trkpt>
      <trkpt lat="44.42514" lon="6.03417">
        <ele>617.40002441406</ele>
        <time>2021-09-01T09:06:41Z</time>
      </trkpt>
      <trkpt lat="44.42532" lon="6.03427">
        <ele>617.59997558594</ele>
        <time>2021-09-01T09:06:46Z</time>
      </trkpt>
      <trkpt lat="44.42552" lon="6.03432">
        <ele>617.79998779297</ele>
        <time>2021-09-01T09:06:53Z</time>
      </trkpt>
      <trkpt lat="44.42566" lon="6.03434">
        <ele>618.20001220703</ele>
        <time>2021-09-01T09:06:58Z</time>
      </trkpt>
      <trkpt lat="44.42579" lon="6.03437">
        <ele>618.59997558594</ele>
        <time>2021-09-01T09:07:03Z</time>
      </trkpt>
      <trkpt lat="44.42583" lon="6.03436">
        <ele>618.40002441406</ele>
        <time>2021-09-01T09:07:54Z</time>
      </trkpt>
      <trkpt lat="44.42594" lon="6.03427">
        <ele>618.40002441406</ele>
        <time>2021-09-01T09:07:58Z</time>
      </trkpt>
      <trkpt lat="44.42609" lon="6.03415">
        <ele>618</ele>
        <time>2021-09-01T09:08:02Z</time>
      </trkpt>
      <trkpt lat="44.42614" lon="6.03414">
        <ele>617.79998779297</ele>
        <time>2021-09-01T09:08:03Z</time>
      </trkpt>
      <trkpt lat="44.42635" lon="6.03411">
        <ele>617.20001220703</ele>
        <time>2021-09-01T09:08:07Z</time>
      </trkpt>
      <trkpt lat="44.42646" lon="6.0341">
        <ele>616.79998779297</ele>
        <time>2021-09-01T09:08:09Z</time>
      </trkpt>
      <trkpt lat="44.42678" lon="6.03415">
        <ele>616</ele>
        <time>2021-09-01T09:08:14Z</time>
      </trkpt>
      <trkpt lat="44.42721" lon="6.03432">
        <ele>615.20001220703</ele>
        <time>2021-09-01T09:08:21Z</time>
      </trkpt>
      <trkpt lat="44.42733" lon="6.03439">
        <ele>615</ele>
        <time>2021-09-01T09:08:23Z</time>
      </trkpt>
      <trkpt lat="44.42776" lon="6.03467">
        <ele>614.20001220703</ele>
        <time>2021-09-01T09:08:31Z</time>
      </trkpt>
      <trkpt lat="44.42809" lon="6.03492">
        <ele>614.20001220703</ele>
        <time>2021-09-01T09:08:38Z</time>
      </trkpt>
      <trkpt lat="44.42837" lon="6.03512">
        <ele>615</ele>
        <time>2021-09-01T09:08:45Z</time>
      </trkpt>
      <trkpt lat="44.42865" lon="6.03532">
        <ele>616</ele>
        <time>2021-09-01T09:08:53Z</time>
      </trkpt>
      <trkpt lat="44.42868" lon="6.03535">
        <ele>616.20001220703</ele>
        <time>2021-09-01T09:08:54Z</time>
      </trkpt>
      <trkpt lat="44.42897" lon="6.03552">
        <ele>616.59997558594</ele>
        <time>2021-09-01T09:09:01Z</time>
      </trkpt>
      <trkpt lat="44.42929" lon="6.03561">
        <ele>616.20001220703</ele>
        <time>2021-09-01T09:09:07Z</time>
      </trkpt>
      <trkpt lat="44.42935" lon="6.03561">
        <ele>616.20001220703</ele>
        <time>2021-09-01T09:09:08Z</time>
      </trkpt>
      <trkpt lat="44.42953" lon="6.03555">
        <ele>615.79998779297</ele>
        <time>2021-09-01T09:09:11Z</time>
      </trkpt>
      <trkpt lat="44.42964" lon="6.03552">
        <ele>615.40002441406</ele>
        <time>2021-09-01T09:09:13Z</time>
      </trkpt>
      <trkpt lat="44.42986" lon="6.03546">
        <ele>615</ele>
        <time>2021-09-01T09:09:17Z</time>
      </trkpt>
      <trkpt lat="44.43001" lon="6.03543">
        <ele>615</ele>
        <time>2021-09-01T09:09:20Z</time>
      </trkpt>
      <trkpt lat="44.43018" lon="6.03543">
        <ele>614.40002441406</ele>
        <time>2021-09-01T09:09:24Z</time>
      </trkpt>
      <trkpt lat="44.43026" lon="6.03546">
        <ele>614.20001220703</ele>
        <time>2021-09-01T09:09:26Z</time>
      </trkpt>
      <trkpt lat="44.43034" lon="6.0355">
        <ele>614.20001220703</ele>
        <time>2021-09-01T09:09:28Z</time>
      </trkpt>
      <trkpt lat="44.43042" lon="6.03556">
        <ele>614</ele>
        <time>2021-09-01T09:09:30Z</time>
      </trkpt>
      <trkpt lat="44.43051" lon="6.0356">
        <ele>613.79998779297</ele>
        <time>2021-09-01T09:09:32Z</time>
      </trkpt>
      <trkpt lat="44.43071" lon="6.03577">
        <ele>613.79998779297</ele>
        <time>2021-09-01T09:09:38Z</time>
      </trkpt>
      <trkpt lat="44.431" lon="6.03603">
        <ele>614.79998779297</ele>
        <time>2021-09-01T09:09:47Z</time>
      </trkpt>
      <trkpt lat="44.43113" lon="6.03613">
        <ele>615.20001220703</ele>
        <time>2021-09-01T09:09:51Z</time>
      </trkpt>
      <trkpt lat="44.43125" lon="6.0362">
        <ele>615.79998779297</ele>
        <time>2021-09-01T09:09:55Z</time>
      </trkpt>
      <trkpt lat="44.43132" lon="6.03624">
        <ele>616.20001220703</ele>
        <time>2021-09-01T09:09:57Z</time>
      </trkpt>
      <trkpt lat="44.4315" lon="6.03639">
        <ele>617</ele>
        <time>2021-09-01T09:10:03Z</time>
      </trkpt>
      <trkpt lat="44.43153" lon="6.03641">
        <ele>617.20001220703</ele>
        <time>2021-09-01T09:10:04Z</time>
      </trkpt>
      <trkpt lat="44.43169" lon="6.03647">
        <ele>618.20001220703</ele>
        <time>2021-09-01T09:10:09Z</time>
      </trkpt>
      <trkpt lat="44.43172" lon="6.03649">
        <ele>618.20001220703</ele>
        <time>2021-09-01T09:10:10Z</time>
      </trkpt>
      <trkpt lat="44.43191" lon="6.03656">
        <ele>619.20001220703</ele>
        <time>2021-09-01T09:10:16Z</time>
      </trkpt>
      <trkpt lat="44.43194" lon="6.03656">
        <ele>619.40002441406</ele>
        <time>2021-09-01T09:10:17Z</time>
      </trkpt>
      <trkpt lat="44.43219" lon="6.03664">
        <ele>620.40002441406</ele>
        <time>2021-09-01T09:10:24Z</time>
      </trkpt>
      <trkpt lat="44.43223" lon="6.03665">
        <ele>620.40002441406</ele>
        <time>2021-09-01T09:10:25Z</time>
      </trkpt>
      <trkpt lat="44.43253" lon="6.03678">
        <ele>620.79998779297</ele>
        <time>2021-09-01T09:10:33Z</time>
      </trkpt>
      <trkpt lat="44.43279" lon="6.03704">
        <ele>621</ele>
        <time>2021-09-01T09:10:41Z</time>
      </trkpt>
      <trkpt lat="44.43304" lon="6.03736">
        <ele>621.59997558594</ele>
        <time>2021-09-01T09:10:50Z</time>
      </trkpt>
      <trkpt lat="44.43307" lon="6.03739">
        <ele>621.79998779297</ele>
        <time>2021-09-01T09:10:51Z</time>
      </trkpt>
      <trkpt lat="44.43325" lon="6.03759">
        <ele>622.79998779297</ele>
        <time>2021-09-01T09:10:57Z</time>
      </trkpt>
      <trkpt lat="44.43334" lon="6.0377">
        <ele>623</ele>
        <time>2021-09-01T09:11:00Z</time>
      </trkpt>
      <trkpt lat="44.43355" lon="6.03802">
        <ele>623.40002441406</ele>
        <time>2021-09-01T09:11:07Z</time>
      </trkpt>
      <trkpt lat="44.43374" lon="6.03842">
        <ele>623.40002441406</ele>
        <time>2021-09-01T09:11:14Z</time>
      </trkpt>
      <trkpt lat="44.43389" lon="6.0388">
        <ele>624</ele>
        <time>2021-09-01T09:11:21Z</time>
      </trkpt>
      <trkpt lat="44.4339" lon="6.03885">
        <ele>624</ele>
        <time>2021-09-01T09:11:22Z</time>
      </trkpt>
      <trkpt lat="44.43397" lon="6.03914">
        <ele>625</ele>
        <time>2021-09-01T09:11:28Z</time>
      </trkpt>
      <trkpt lat="44.43399" lon="6.03918">
        <ele>625.20001220703</ele>
        <time>2021-09-01T09:11:29Z</time>
      </trkpt>
      <trkpt lat="44.43409" lon="6.03949">
        <ele>626</ele>
        <time>2021-09-01T09:11:36Z</time>
      </trkpt>
      <trkpt lat="44.43414" lon="6.03963">
        <ele>626.40002441406</ele>
        <time>2021-09-01T09:11:39Z</time>
      </trkpt>
      <trkpt lat="44.43425" lon="6.03989">
        <ele>627</ele>
        <time>2021-09-01T09:11:45Z</time>
      </trkpt>
      <trkpt lat="44.43427" lon="6.03994">
        <ele>627.20001220703</ele>
        <time>2021-09-01T09:11:46Z</time>
      </trkpt>
      <trkpt lat="44.43446" lon="6.0403">
        <ele>627</ele>
        <time>2021-09-01T09:11:53Z</time>
      </trkpt>
      <trkpt lat="44.43469" lon="6.04062">
        <ele>626.40002441406</ele>
        <time>2021-09-01T09:11:58Z</time>
      </trkpt>
      <trkpt lat="44.4348" lon="6.04074">
        <ele>625.79998779297</ele>
        <time>2021-09-01T09:12:00Z</time>
      </trkpt>
      <trkpt lat="44.43503" lon="6.04096">
        <ele>625.20001220703</ele>
        <time>2021-09-01T09:12:04Z</time>
      </trkpt>
      <trkpt lat="44.43515" lon="6.04107">
        <ele>624.79998779297</ele>
        <time>2021-09-01T09:12:06Z</time>
      </trkpt>
      <trkpt lat="44.43538" lon="6.04132">
        <ele>624.40002441406</ele>
        <time>2021-09-01T09:12:10Z</time>
      </trkpt>
      <trkpt lat="44.43543" lon="6.04139">
        <ele>624.20001220703</ele>
        <time>2021-09-01T09:12:11Z</time>
      </trkpt>
      <trkpt lat="44.43554" lon="6.04161">
        <ele>623.79998779297</ele>
        <time>2021-09-01T09:12:14Z</time>
      </trkpt>
      <trkpt lat="44.43561" lon="6.04176">
        <ele>623.59997558594</ele>
        <time>2021-09-01T09:12:16Z</time>
      </trkpt>
      <trkpt lat="44.4358" lon="6.04227">
        <ele>623.40002441406</ele>
        <time>2021-09-01T09:12:23Z</time>
      </trkpt>
      <trkpt lat="44.43598" lon="6.04261">
        <ele>623.59997558594</ele>
        <time>2021-09-01T09:12:29Z</time>
      </trkpt>
      <trkpt lat="44.43618" lon="6.04298">
        <ele>624.79998779297</ele>
        <time>2021-09-01T09:12:37Z</time>
      </trkpt>
      <trkpt lat="44.43637" lon="6.04331">
        <ele>625.59997558594</ele>
        <time>2021-09-01T09:12:44Z</time>
      </trkpt>
      <trkpt lat="44.43642" lon="6.04341">
        <ele>625.79998779297</ele>
        <time>2021-09-01T09:12:46Z</time>
      </trkpt>
      <trkpt lat="44.43648" lon="6.04351">
        <ele>625.79998779297</ele>
        <time>2021-09-01T09:12:48Z</time>
      </trkpt>
      <trkpt lat="44.43659" lon="6.04371">
        <ele>626</ele>
        <time>2021-09-01T09:12:52Z</time>
      </trkpt>
      <trkpt lat="44.43662" lon="6.04376">
        <ele>626</ele>
        <time>2021-09-01T09:12:53Z</time>
      </trkpt>
      <trkpt lat="44.43682" lon="6.04408">
        <ele>626.20001220703</ele>
        <time>2021-09-01T09:12:59Z</time>
      </trkpt>
      <trkpt lat="44.43687" lon="6.04413">
        <ele>626.20001220703</ele>
        <time>2021-09-01T09:13:00Z</time>
      </trkpt>
      <trkpt lat="44.43705" lon="6.04425">
        <ele>626</ele>
        <time>2021-09-01T09:13:04Z</time>
      </trkpt>
      <trkpt lat="44.43724" lon="6.04425">
        <ele>626.20001220703</ele>
        <time>2021-09-01T09:13:08Z</time>
      </trkpt>
      <trkpt lat="44.43735" lon="6.04421">
        <ele>626.59997558594</ele>
        <time>2021-09-01T09:13:11Z</time>
      </trkpt>
      <trkpt lat="44.43743" lon="6.04418">
        <ele>627</ele>
        <time>2021-09-01T09:13:13Z</time>
      </trkpt>
      <trkpt lat="44.43747" lon="6.04417">
        <ele>627</ele>
        <time>2021-09-01T09:13:14Z</time>
      </trkpt>
      <trkpt lat="44.43763" lon="6.04413">
        <ele>627.20001220703</ele>
        <time>2021-09-01T09:13:17Z</time>
      </trkpt>
      <trkpt lat="44.43775" lon="6.04414">
        <ele>627</ele>
        <time>2021-09-01T09:13:19Z</time>
      </trkpt>
      <trkpt lat="44.43788" lon="6.04418">
        <ele>626.40002441406</ele>
        <time>2021-09-01T09:13:21Z</time>
      </trkpt>
      <trkpt lat="44.43807" lon="6.04427">
        <ele>626</ele>
        <time>2021-09-01T09:13:24Z</time>
      </trkpt>
      <trkpt lat="44.43814" lon="6.04431">
        <ele>625.59997558594</ele>
        <time>2021-09-01T09:13:25Z</time>
      </trkpt>
      <trkpt lat="44.43839" lon="6.04444">
        <ele>624.59997558594</ele>
        <time>2021-09-01T09:13:29Z</time>
      </trkpt>
      <trkpt lat="44.43864" lon="6.04455">
        <ele>623.79998779297</ele>
        <time>2021-09-01T09:13:33Z</time>
      </trkpt>
      <trkpt lat="44.43882" lon="6.04464">
        <ele>623.59997558594</ele>
        <time>2021-09-01T09:13:36Z</time>
      </trkpt>
      <trkpt lat="44.43903" lon="6.04475">
        <ele>623.40002441406</ele>
        <time>2021-09-01T09:13:40Z</time>
      </trkpt>
      <trkpt lat="44.43935" lon="6.04492">
        <ele>623.79998779297</ele>
        <time>2021-09-01T09:13:47Z</time>
      </trkpt>
      <trkpt lat="44.43957" lon="6.04512">
        <ele>624.59997558594</ele>
        <time>2021-09-01T09:13:53Z</time>
      </trkpt>
      <trkpt lat="44.4396" lon="6.04516">
        <ele>624.79998779297</ele>
        <time>2021-09-01T09:13:54Z</time>
      </trkpt>
      <trkpt lat="44.43983" lon="6.04551">
        <ele>625.59997558594</ele>
        <time>2021-09-01T09:14:02Z</time>
      </trkpt>
      <trkpt lat="44.43995" lon="6.04582">
        <ele>626.40002441406</ele>
        <time>2021-09-01T09:14:08Z</time>
      </trkpt>
      <trkpt lat="44.44002" lon="6.04599">
        <ele>626.59997558594</ele>
        <time>2021-09-01T09:14:11Z</time>
      </trkpt>
      <trkpt lat="44.44011" lon="6.04618">
        <ele>626.59997558594</ele>
        <time>2021-09-01T09:14:14Z</time>
      </trkpt>
      <trkpt lat="44.44032" lon="6.04666">
        <ele>625.59997558594</ele>
        <time>2021-09-01T09:14:20Z</time>
      </trkpt>
      <trkpt lat="44.44047" lon="6.04704">
        <ele>624.40002441406</ele>
        <time>2021-09-01T09:14:24Z</time>
      </trkpt>
      <trkpt lat="44.44057" lon="6.0473">
        <ele>623.40002441406</ele>
        <time>2021-09-01T09:14:27Z</time>
      </trkpt>
      <trkpt lat="44.4406" lon="6.04739">
        <ele>623</ele>
        <time>2021-09-01T09:14:28Z</time>
      </trkpt>
      <trkpt lat="44.44076" lon="6.04776">
        <ele>622.40002441406</ele>
        <time>2021-09-01T09:14:33Z</time>
      </trkpt>
      <trkpt lat="44.44091" lon="6.048">
        <ele>623.20001220703</ele>
        <time>2021-09-01T09:14:38Z</time>
      </trkpt>
      <trkpt lat="44.44103" lon="6.04812">
        <ele>624.20001220703</ele>
        <time>2021-09-01T09:14:42Z</time>
      </trkpt>
      <trkpt lat="44.4411" lon="6.04817">
        <ele>624.59997558594</ele>
        <time>2021-09-01T09:14:44Z</time>
      </trkpt>
      <trkpt lat="44.44124" lon="6.04827">
        <ele>625.20001220703</ele>
        <time>2021-09-01T09:14:48Z</time>
      </trkpt>
      <trkpt lat="44.44133" lon="6.04834">
        <ele>625.79998779297</ele>
        <time>2021-09-01T09:14:51Z</time>
      </trkpt>
      <trkpt lat="44.44143" lon="6.04843">
        <ele>626.40002441406</ele>
        <time>2021-09-01T09:14:54Z</time>
      </trkpt>
      <trkpt lat="44.44157" lon="6.04861">
        <ele>627.20001220703</ele>
        <time>2021-09-01T09:14:59Z</time>
      </trkpt>
      <trkpt lat="44.44164" lon="6.04873">
        <ele>627.59997558594</ele>
        <time>2021-09-01T09:15:02Z</time>
      </trkpt>
      <trkpt lat="44.44175" lon="6.04896">
        <ele>628.20001220703</ele>
        <time>2021-09-01T09:15:07Z</time>
      </trkpt>
      <trkpt lat="44.44187" lon="6.04914">
        <ele>628.59997558594</ele>
        <time>2021-09-01T09:15:12Z</time>
      </trkpt>
      <trkpt lat="44.4419" lon="6.04916">
        <ele>628.59997558594</ele>
        <time>2021-09-01T09:15:13Z</time>
      </trkpt>
      <trkpt lat="44.44213" lon="6.04931">
        <ele>629.79998779297</ele>
        <time>2021-09-01T09:15:21Z</time>
      </trkpt>
      <trkpt lat="44.44228" lon="6.04941">
        <ele>630.79998779297</ele>
        <time>2021-09-01T09:15:27Z</time>
      </trkpt>
      <trkpt lat="44.44233" lon="6.04943">
        <ele>631.20001220703</ele>
        <time>2021-09-01T09:15:29Z</time>
      </trkpt>
      <trkpt lat="44.44248" lon="6.04952">
        <ele>631.79998779297</ele>
        <time>2021-09-01T09:15:35Z</time>
      </trkpt>
      <trkpt lat="44.4426" lon="6.0496">
        <ele>632.40002441406</ele>
        <time>2021-09-01T09:15:40Z</time>
      </trkpt>
      <trkpt lat="44.44266" lon="6.04965">
        <ele>633</ele>
        <time>2021-09-01T09:15:43Z</time>
      </trkpt>
      <trkpt lat="44.44275" lon="6.04972">
        <ele>633.79998779297</ele>
        <time>2021-09-01T09:15:47Z</time>
      </trkpt>
      <trkpt lat="44.44279" lon="6.04976">
        <ele>634</ele>
        <time>2021-09-01T09:15:49Z</time>
      </trkpt>
      <trkpt lat="44.44288" lon="6.04985">
        <ele>634.79998779297</ele>
        <time>2021-09-01T09:15:54Z</time>
      </trkpt>
      <trkpt lat="44.44289" lon="6.04988">
        <ele>635</ele>
        <time>2021-09-01T09:15:55Z</time>
      </trkpt>
      <trkpt lat="44.44299" lon="6.05">
        <ele>636</ele>
        <time>2021-09-01T09:16:01Z</time>
      </trkpt>
      <trkpt lat="44.44301" lon="6.05001">
        <ele>636.20001220703</ele>
        <time>2021-09-01T09:16:02Z</time>
      </trkpt>
      <trkpt lat="44.44304" lon="6.05009">
        <ele>636.59997558594</ele>
        <time>2021-09-01T09:16:05Z</time>
      </trkpt>
      <trkpt lat="44.44306" lon="6.05015">
        <ele>637</ele>
        <time>2021-09-01T09:16:07Z</time>
      </trkpt>
      <trkpt lat="44.44308" lon="6.05019">
        <ele>637.40002441406</ele>
        <time>2021-09-01T09:16:09Z</time>
      </trkpt>
      <trkpt lat="44.44313" lon="6.05027">
        <ele>638</ele>
        <time>2021-09-01T09:16:12Z</time>
      </trkpt>
      <trkpt lat="44.44315" lon="6.05035">
        <ele>638.40002441406</ele>
        <time>2021-09-01T09:16:15Z</time>
      </trkpt>
      <trkpt lat="44.44319" lon="6.05046">
        <ele>639.20001220703</ele>
        <time>2021-09-01T09:16:19Z</time>
      </trkpt>
      <trkpt lat="44.44322" lon="6.05056">
        <ele>639.79998779297</ele>
        <time>2021-09-01T09:16:23Z</time>
      </trkpt>
      <trkpt lat="44.44324" lon="6.05062">
        <ele>640.20001220703</ele>
        <time>2021-09-01T09:16:25Z</time>
      </trkpt>
      <trkpt lat="44.44331" lon="6.05076">
        <ele>641</ele>
        <time>2021-09-01T09:16:30Z</time>
      </trkpt>
      <trkpt lat="44.44332" lon="6.05079">
        <ele>641.20001220703</ele>
        <time>2021-09-01T09:16:31Z</time>
      </trkpt>
      <trkpt lat="44.4434" lon="6.05096">
        <ele>642.40002441406</ele>
        <time>2021-09-01T09:16:37Z</time>
      </trkpt>
      <trkpt lat="44.44342" lon="6.05099">
        <ele>642.40002441406</ele>
        <time>2021-09-01T09:16:38Z</time>
      </trkpt>
      <trkpt lat="44.44349" lon="6.05117">
        <ele>643.40002441406</ele>
        <time>2021-09-01T09:16:44Z</time>
      </trkpt>
      <trkpt lat="44.44351" lon="6.05121">
        <ele>643.59997558594</ele>
        <time>2021-09-01T09:16:45Z</time>
      </trkpt>
      <trkpt lat="44.44366" lon="6.05149">
        <ele>644.20001220703</ele>
        <time>2021-09-01T09:16:53Z</time>
      </trkpt>
      <trkpt lat="44.44372" lon="6.05163">
        <ele>644.40002441406</ele>
        <time>2021-09-01T09:16:57Z</time>
      </trkpt>
      <trkpt lat="44.44379" lon="6.05174">
        <ele>644.59997558594</ele>
        <time>2021-09-01T09:17:00Z</time>
      </trkpt>
      <trkpt lat="44.44396" lon="6.05206">
        <ele>644.59997558594</ele>
        <time>2021-09-01T09:17:07Z</time>
      </trkpt>
      <trkpt lat="44.44415" lon="6.05238">
        <ele>644.20001220703</ele>
        <time>2021-09-01T09:17:12Z</time>
      </trkpt>
      <trkpt lat="44.44443" lon="6.0528">
        <ele>643.40002441406</ele>
        <time>2021-09-01T09:17:18Z</time>
      </trkpt>
      <trkpt lat="44.44454" lon="6.05291">
        <ele>643</ele>
        <time>2021-09-01T09:17:20Z</time>
      </trkpt>
      <trkpt lat="44.44485" lon="6.05326">
        <ele>642.79998779297</ele>
        <time>2021-09-01T09:17:27Z</time>
      </trkpt>
      <trkpt lat="44.44514" lon="6.05366">
        <ele>643.59997558594</ele>
        <time>2021-09-01T09:17:35Z</time>
      </trkpt>
      <trkpt lat="44.44539" lon="6.0541">
        <ele>644.20001220703</ele>
        <time>2021-09-01T09:17:43Z</time>
      </trkpt>
      <trkpt lat="44.44547" lon="6.05421">
        <ele>644.40002441406</ele>
        <time>2021-09-01T09:17:45Z</time>
      </trkpt>
      <trkpt lat="44.44565" lon="6.05445">
        <ele>644.40002441406</ele>
        <time>2021-09-01T09:17:49Z</time>
      </trkpt>
      <trkpt lat="44.44603" lon="6.05483">
        <ele>643.79998779297</ele>
        <time>2021-09-01T09:17:56Z</time>
      </trkpt>
      <trkpt lat="44.44624" lon="6.05505">
        <ele>643.40002441406</ele>
        <time>2021-09-01T09:18:00Z</time>
      </trkpt>
      <trkpt lat="44.44653" lon="6.05538">
        <ele>643</ele>
        <time>2021-09-01T09:18:06Z</time>
      </trkpt>
      <trkpt lat="44.44662" lon="6.05549">
        <ele>642.79998779297</ele>
        <time>2021-09-01T09:18:08Z</time>
      </trkpt>
      <trkpt lat="44.44684" lon="6.05573">
        <ele>642.79998779297</ele>
        <time>2021-09-01T09:18:13Z</time>
      </trkpt>
      <trkpt lat="44.44712" lon="6.05595">
        <ele>643.20001220703</ele>
        <time>2021-09-01T09:18:19Z</time>
      </trkpt>
      <trkpt lat="44.44752" lon="6.05623">
        <ele>643.20001220703</ele>
        <time>2021-09-01T09:18:28Z</time>
      </trkpt>
      <trkpt lat="44.44761" lon="6.05624">
        <ele>643.20001220703</ele>
        <time>2021-09-01T09:18:32Z</time>
      </trkpt>
      <trkpt lat="44.44766" lon="6.05631">
        <ele>643</ele>
        <time>2021-09-01T09:20:14Z</time>
      </trkpt>
      <trkpt lat="44.44773" lon="6.05647">
        <ele>643.20001220703</ele>
        <time>2021-09-01T09:20:19Z</time>
      </trkpt>
      <trkpt lat="44.44785" lon="6.0568">
        <ele>643.59997558594</ele>
        <time>2021-09-01T09:20:26Z</time>
      </trkpt>
      <trkpt lat="44.44788" lon="6.05696">
        <ele>643.59997558594</ele>
        <time>2021-09-01T09:20:29Z</time>
      </trkpt>
      <trkpt lat="44.44789" lon="6.05713">
        <ele>643.79998779297</ele>
        <time>2021-09-01T09:20:32Z</time>
      </trkpt>
      <trkpt lat="44.44792" lon="6.05737">
        <ele>644.20001220703</ele>
        <time>2021-09-01T09:20:37Z</time>
      </trkpt>
      <trkpt lat="44.4479" lon="6.05754">
        <ele>644.20001220703</ele>
        <time>2021-09-01T09:20:40Z</time>
      </trkpt>
      <trkpt lat="44.44791" lon="6.05764">
        <ele>644.20001220703</ele>
        <time>2021-09-01T09:20:42Z</time>
      </trkpt>
      <trkpt lat="44.44795" lon="6.05804">
        <ele>644</ele>
        <time>2021-09-01T09:20:48Z</time>
      </trkpt>
      <trkpt lat="44.44801" lon="6.0584">
        <ele>643.79998779297</ele>
        <time>2021-09-01T09:20:53Z</time>
      </trkpt>
      <trkpt lat="44.44807" lon="6.05853">
        <ele>643.59997558594</ele>
        <time>2021-09-01T09:20:55Z</time>
      </trkpt>
      <trkpt lat="44.4483" lon="6.05877">
        <ele>643.59997558594</ele>
        <time>2021-09-01T09:21:00Z</time>
      </trkpt>
      <trkpt lat="44.44844" lon="6.05884">
        <ele>643.20001220703</ele>
        <time>2021-09-01T09:21:02Z</time>
      </trkpt>
      <trkpt lat="44.44866" lon="6.05896">
        <ele>642.20001220703</ele>
        <time>2021-09-01T09:21:05Z</time>
      </trkpt>
      <trkpt lat="44.44889" lon="6.05907">
        <ele>641.20001220703</ele>
        <time>2021-09-01T09:21:08Z</time>
      </trkpt>
      <trkpt lat="44.44913" lon="6.05919">
        <ele>640</ele>
        <time>2021-09-01T09:21:11Z</time>
      </trkpt>
      <trkpt lat="44.4492" lon="6.05923">
        <ele>639.59997558594</ele>
        <time>2021-09-01T09:21:12Z</time>
      </trkpt>
      <trkpt lat="44.44935" lon="6.05931">
        <ele>638.79998779297</ele>
        <time>2021-09-01T09:21:14Z</time>
      </trkpt>
      <trkpt lat="44.44968" lon="6.05946">
        <ele>638</ele>
        <time>2021-09-01T09:21:19Z</time>
      </trkpt>
      <trkpt lat="44.44981" lon="6.0595">
        <ele>637.79998779297</ele>
        <time>2021-09-01T09:21:21Z</time>
      </trkpt>
      <trkpt lat="44.45005" lon="6.05955">
        <ele>637.79998779297</ele>
        <time>2021-09-01T09:21:25Z</time>
      </trkpt>
      <trkpt lat="44.45048" lon="6.05953">
        <ele>637.79998779297</ele>
        <time>2021-09-01T09:21:32Z</time>
      </trkpt>
      <trkpt lat="44.45054" lon="6.05951">
        <ele>637.79998779297</ele>
        <time>2021-09-01T09:21:33Z</time>
      </trkpt>
      <trkpt lat="44.45073" lon="6.05947">
        <ele>637.40002441406</ele>
        <time>2021-09-01T09:21:36Z</time>
      </trkpt>
      <trkpt lat="44.45094" lon="6.05942">
        <ele>637</ele>
        <time>2021-09-01T09:21:39Z</time>
      </trkpt>
      <trkpt lat="44.45102" lon="6.0594">
        <ele>636.79998779297</ele>
        <time>2021-09-01T09:21:40Z</time>
      </trkpt>
      <trkpt lat="44.45142" lon="6.05926">
        <ele>635.59997558594</ele>
        <time>2021-09-01T09:21:45Z</time>
      </trkpt>
      <trkpt lat="44.4516" lon="6.05923">
        <ele>634.40002441406</ele>
        <time>2021-09-01T09:21:47Z</time>
      </trkpt>
      <trkpt lat="44.45179" lon="6.05926">
        <ele>633.40002441406</ele>
        <time>2021-09-01T09:21:49Z</time>
      </trkpt>
      <trkpt lat="44.45189" lon="6.05931">
        <ele>632.79998779297</ele>
        <time>2021-09-01T09:21:50Z</time>
      </trkpt>
      <trkpt lat="44.45206" lon="6.05943">
        <ele>631.79998779297</ele>
        <time>2021-09-01T09:21:52Z</time>
      </trkpt>
      <trkpt lat="44.45214" lon="6.05949">
        <ele>631.40002441406</ele>
        <time>2021-09-01T09:21:53Z</time>
      </trkpt>
      <trkpt lat="44.45238" lon="6.05968">
        <ele>630</ele>
        <time>2021-09-01T09:21:56Z</time>
      </trkpt>
      <trkpt lat="44.45262" lon="6.05985">
        <ele>628.79998779297</ele>
        <time>2021-09-01T09:21:59Z</time>
      </trkpt>
      <trkpt lat="44.45287" lon="6.06001">
        <ele>627.40002441406</ele>
        <time>2021-09-01T09:22:02Z</time>
      </trkpt>
      <trkpt lat="44.45312" lon="6.06013">
        <ele>626.20001220703</ele>
        <time>2021-09-01T09:22:05Z</time>
      </trkpt>
      <trkpt lat="44.4532" lon="6.06017">
        <ele>625.79998779297</ele>
        <time>2021-09-01T09:22:06Z</time>
      </trkpt>
      <trkpt lat="44.45342" lon="6.06029">
        <ele>625</ele>
        <time>2021-09-01T09:22:09Z</time>
      </trkpt>
      <trkpt lat="44.45363" lon="6.06039">
        <ele>624.59997558594</ele>
        <time>2021-09-01T09:22:12Z</time>
      </trkpt>
      <trkpt lat="44.45405" lon="6.06062">
        <ele>624.40002441406</ele>
        <time>2021-09-01T09:22:19Z</time>
      </trkpt>
      <trkpt lat="44.45416" lon="6.06068">
        <ele>624.40002441406</ele>
        <time>2021-09-01T09:22:21Z</time>
      </trkpt>
      <trkpt lat="44.45437" lon="6.06078">
        <ele>624.79998779297</ele>
        <time>2021-09-01T09:22:25Z</time>
      </trkpt>
      <trkpt lat="44.45475" lon="6.06096">
        <ele>625.20001220703</ele>
        <time>2021-09-01T09:22:33Z</time>
      </trkpt>
      <trkpt lat="44.45507" lon="6.06118">
        <ele>626</ele>
        <time>2021-09-01T09:22:41Z</time>
      </trkpt>
      <trkpt lat="44.45511" lon="6.06121">
        <ele>626</ele>
        <time>2021-09-01T09:22:42Z</time>
      </trkpt>
      <trkpt lat="44.45535" lon="6.06137">
        <ele>627</ele>
        <time>2021-09-01T09:22:49Z</time>
      </trkpt>
      <trkpt lat="44.45562" lon="6.06149">
        <ele>627.79998779297</ele>
        <time>2021-09-01T09:22:57Z</time>
      </trkpt>
      <trkpt lat="44.45565" lon="6.06151">
        <ele>628</ele>
        <time>2021-09-01T09:22:58Z</time>
      </trkpt>
      <trkpt lat="44.45587" lon="6.06158">
        <ele>628.79998779297</ele>
        <time>2021-09-01T09:23:05Z</time>
      </trkpt>
      <trkpt lat="44.45593" lon="6.06159">
        <ele>629</ele>
        <time>2021-09-01T09:23:07Z</time>
      </trkpt>
      <trkpt lat="44.45612" lon="6.0616">
        <ele>629.79998779297</ele>
        <time>2021-09-01T09:23:13Z</time>
      </trkpt>
      <trkpt lat="44.45618" lon="6.06159">
        <ele>630.20001220703</ele>
        <time>2021-09-01T09:23:15Z</time>
      </trkpt>
      <trkpt lat="44.4563" lon="6.06159">
        <ele>630.79998779297</ele>
        <time>2021-09-01T09:23:19Z</time>
      </trkpt>
      <trkpt lat="44.45643" lon="6.06157">
        <ele>631.20001220703</ele>
        <time>2021-09-01T09:23:23Z</time>
      </trkpt>
      <trkpt lat="44.45656" lon="6.06155">
        <ele>631.59997558594</ele>
        <time>2021-09-01T09:23:27Z</time>
      </trkpt>
      <trkpt lat="44.45689" lon="6.06153">
        <ele>632.20001220703</ele>
        <time>2021-09-01T09:23:37Z</time>
      </trkpt>
      <trkpt lat="44.45712" lon="6.06167">
        <ele>632.59997558594</ele>
        <time>2021-09-01T09:23:44Z</time>
      </trkpt>
      <trkpt lat="44.45726" lon="6.06182">
        <ele>633.20001220703</ele>
        <time>2021-09-01T09:23:49Z</time>
      </trkpt>
      <trkpt lat="44.4573" lon="6.06188">
        <ele>633.59997558594</ele>
        <time>2021-09-01T09:23:51Z</time>
      </trkpt>
      <trkpt lat="44.45751" lon="6.06215">
        <ele>634.20001220703</ele>
        <time>2021-09-01T09:23:59Z</time>
      </trkpt>
      <trkpt lat="44.45753" lon="6.0622">
        <ele>634.40002441406</ele>
        <time>2021-09-01T09:24:00Z</time>
      </trkpt>
      <trkpt lat="44.4576" lon="6.06228">
        <ele>634.40002441406</ele>
        <time>2021-09-01T09:24:02Z</time>
      </trkpt>
      <trkpt lat="44.45767" lon="6.06235">
        <ele>634.59997558594</ele>
        <time>2021-09-01T09:24:04Z</time>
      </trkpt>
      <trkpt lat="44.45795" lon="6.06268">
        <ele>634.59997558594</ele>
        <time>2021-09-01T09:24:12Z</time>
      </trkpt>
      <trkpt lat="44.45828" lon="6.06307">
        <ele>634.40002441406</ele>
        <time>2021-09-01T09:24:21Z</time>
      </trkpt>
      <trkpt lat="44.45856" lon="6.06337">
        <ele>634.79998779297</ele>
        <time>2021-09-01T09:24:29Z</time>
      </trkpt>
      <trkpt lat="44.45873" lon="6.06354">
        <ele>635.40002441406</ele>
        <time>2021-09-01T09:24:35Z</time>
      </trkpt>
      <trkpt lat="44.45876" lon="6.06353">
        <ele>635.40002441406</ele>
        <time>2021-09-01T09:24:36Z</time>
      </trkpt>
      <trkpt lat="44.45878" lon="6.06353">
        <ele>635.59997558594</ele>
        <time>2021-09-01T09:24:37Z</time>
      </trkpt>
      <trkpt lat="44.45879" lon="6.06355">
        <ele>635.79998779297</ele>
        <time>2021-09-01T09:25:19Z</time>
      </trkpt>
      <trkpt lat="44.4588" lon="6.06357">
        <ele>635.79998779297</ele>
        <time>2021-09-01T09:25:20Z</time>
      </trkpt>
      <trkpt lat="44.45887" lon="6.06369">
        <ele>636</ele>
        <time>2021-09-01T09:25:25Z</time>
      </trkpt>
      <trkpt lat="44.45903" lon="6.06386">
        <ele>636.40002441406</ele>
        <time>2021-09-01T09:25:31Z</time>
      </trkpt>
      <trkpt lat="44.45905" lon="6.06389">
        <ele>636.40002441406</ele>
        <time>2021-09-01T09:25:32Z</time>
      </trkpt>
      <trkpt lat="44.45934" lon="6.06422">
        <ele>637.40002441406</ele>
        <time>2021-09-01T09:25:42Z</time>
      </trkpt>
      <trkpt lat="44.45957" lon="6.06445">
        <ele>638.40002441406</ele>
        <time>2021-09-01T09:25:50Z</time>
      </trkpt>
      <trkpt lat="44.4596" lon="6.06448">
        <ele>638.59997558594</ele>
        <time>2021-09-01T09:25:51Z</time>
      </trkpt>
      <trkpt lat="44.45977" lon="6.06463">
        <ele>639.20001220703</ele>
        <time>2021-09-01T09:25:57Z</time>
      </trkpt>
      <trkpt lat="44.45986" lon="6.06472">
        <ele>639.59997558594</ele>
        <time>2021-09-01T09:26:00Z</time>
      </trkpt>
      <trkpt lat="44.45999" lon="6.06483">
        <ele>639.79998779297</ele>
        <time>2021-09-01T09:26:04Z</time>
      </trkpt>
      <trkpt lat="44.46009" lon="6.06495">
        <ele>640.20001220703</ele>
        <time>2021-09-01T09:26:08Z</time>
      </trkpt>
      <trkpt lat="44.46017" lon="6.06506">
        <ele>640.40002441406</ele>
        <time>2021-09-01T09:26:11Z</time>
      </trkpt>
      <trkpt lat="44.46023" lon="6.06512">
        <ele>640.59997558594</ele>
        <time>2021-09-01T09:26:13Z</time>
      </trkpt>
      <trkpt lat="44.46039" lon="6.06521">
        <ele>640.79998779297</ele>
        <time>2021-09-01T09:26:18Z</time>
      </trkpt>
      <trkpt lat="44.46046" lon="6.06506">
        <ele>640.79998779297</ele>
        <time>2021-09-01T09:26:21Z</time>
      </trkpt>
      <trkpt lat="44.46049" lon="6.065">
        <ele>640.59997558594</ele>
        <time>2021-09-01T09:26:22Z</time>
      </trkpt>
      <trkpt lat="44.4606" lon="6.06482">
        <ele>640.40002441406</ele>
        <time>2021-09-01T09:26:25Z</time>
      </trkpt>
      <trkpt lat="44.46065" lon="6.06476">
        <ele>640.40002441406</ele>
        <time>2021-09-01T09:26:26Z</time>
      </trkpt>
      <trkpt lat="44.46082" lon="6.06456">
        <ele>639.40002441406</ele>
        <time>2021-09-01T09:26:29Z</time>
      </trkpt>
      <trkpt lat="44.46102" lon="6.06433">
        <ele>638.20001220703</ele>
        <time>2021-09-01T09:26:32Z</time>
      </trkpt>
      <trkpt lat="44.46115" lon="6.06417">
        <ele>636.79998779297</ele>
        <time>2021-09-01T09:26:34Z</time>
      </trkpt>
      <trkpt lat="44.46122" lon="6.06408">
        <ele>636.40002441406</ele>
        <time>2021-09-01T09:26:35Z</time>
      </trkpt>
      <trkpt lat="44.46136" lon="6.06391">
        <ele>635.40002441406</ele>
        <time>2021-09-01T09:26:37Z</time>
      </trkpt>
      <trkpt lat="44.4615" lon="6.06375">
        <ele>634.40002441406</ele>
        <time>2021-09-01T09:26:39Z</time>
      </trkpt>
      <trkpt lat="44.46165" lon="6.06358">
        <ele>633.40002441406</ele>
        <time>2021-09-01T09:26:41Z</time>
      </trkpt>
      <trkpt lat="44.46172" lon="6.0635">
        <ele>632.79998779297</ele>
        <time>2021-09-01T09:26:42Z</time>
      </trkpt>
      <trkpt lat="44.46186" lon="6.06332">
        <ele>632</ele>
        <time>2021-09-01T09:26:44Z</time>
      </trkpt>
      <trkpt lat="44.46207" lon="6.06307">
        <ele>630.59997558594</ele>
        <time>2021-09-01T09:26:47Z</time>
      </trkpt>
      <trkpt lat="44.46217" lon="6.06292">
        <ele>629.59997558594</ele>
        <time>2021-09-01T09:26:49Z</time>
      </trkpt>
      <trkpt lat="44.46218" lon="6.06283">
        <ele>629.20001220703</ele>
        <time>2021-09-01T09:26:50Z</time>
      </trkpt>
      <trkpt lat="44.46217" lon="6.06263">
        <ele>628.40002441406</ele>
        <time>2021-09-01T09:26:52Z</time>
      </trkpt>
      <trkpt lat="44.46213" lon="6.06253">
        <ele>628</ele>
        <time>2021-09-01T09:26:53Z</time>
      </trkpt>
      <trkpt lat="44.46202" lon="6.06237">
        <ele>627.20001220703</ele>
        <time>2021-09-01T09:26:55Z</time>
      </trkpt>
      <trkpt lat="44.46197" lon="6.06229">
        <ele>626.79998779297</ele>
        <time>2021-09-01T09:26:56Z</time>
      </trkpt>
      <trkpt lat="44.46184" lon="6.062">
        <ele>625.59997558594</ele>
        <time>2021-09-01T09:26:59Z</time>
      </trkpt>
      <trkpt lat="44.46182" lon="6.06188">
        <ele>625.40002441406</ele>
        <time>2021-09-01T09:27:00Z</time>
      </trkpt>
      <trkpt lat="44.4618" lon="6.0615">
        <ele>624.40002441406</ele>
        <time>2021-09-01T09:27:03Z</time>
      </trkpt>
      <trkpt lat="44.4618" lon="6.06137">
        <ele>623.79998779297</ele>
        <time>2021-09-01T09:27:04Z</time>
      </trkpt>
      <trkpt lat="44.4618" lon="6.06123">
        <ele>623.20001220703</ele>
        <time>2021-09-01T09:27:05Z</time>
      </trkpt>
      <trkpt lat="44.4618" lon="6.06095">
        <ele>622</ele>
        <time>2021-09-01T09:27:07Z</time>
      </trkpt>
      <trkpt lat="44.4618" lon="6.06069">
        <ele>620.59997558594</ele>
        <time>2021-09-01T09:27:09Z</time>
      </trkpt>
      <trkpt lat="44.46179" lon="6.06045">
        <ele>619.40002441406</ele>
        <time>2021-09-01T09:27:11Z</time>
      </trkpt>
      <trkpt lat="44.46178" lon="6.06012">
        <ele>618.20001220703</ele>
        <time>2021-09-01T09:27:14Z</time>
      </trkpt>
      <trkpt lat="44.46178" lon="6.06001">
        <ele>617.79998779297</ele>
        <time>2021-09-01T09:27:15Z</time>
      </trkpt>
      <trkpt lat="44.4618" lon="6.05977">
        <ele>617.20001220703</ele>
        <time>2021-09-01T09:27:18Z</time>
      </trkpt>
      <trkpt lat="44.46182" lon="6.05972">
        <ele>617</ele>
        <time>2021-09-01T09:27:19Z</time>
      </trkpt>
      <trkpt lat="44.46188" lon="6.0595">
        <ele>616</ele>
        <time>2021-09-01T09:27:23Z</time>
      </trkpt>
      <trkpt lat="44.46188" lon="6.05947">
        <ele>615.79998779297</ele>
        <time>2021-09-01T09:27:24Z</time>
      </trkpt>
      <trkpt lat="44.46185" lon="6.05948">
        <ele>614.79998779297</ele>
        <time>2021-09-01T09:27:54Z</time>
      </trkpt>
      <trkpt lat="44.46185" lon="6.05957">
        <ele>614.79998779297</ele>
        <time>2021-09-01T09:27:57Z</time>
      </trkpt>
      <trkpt lat="44.46188" lon="6.0597">
        <ele>615</ele>
        <time>2021-09-01T09:28:02Z</time>
      </trkpt>
      <trkpt lat="44.46194" lon="6.0597">
        <ele>615.20001220703</ele>
        <time>2021-09-01T09:28:05Z</time>
      </trkpt>
      <trkpt lat="44.46196" lon="6.05971">
        <ele>615.40002441406</ele>
        <time>2021-09-01T09:28:07Z</time>
      </trkpt>
      <trkpt lat="44.46197" lon="6.05972">
        <ele>615.40002441406</ele>
        <time>2021-09-01T09:28:08Z</time>
      </trkpt>
      <trkpt lat="44.46204" lon="6.0597">
        <ele>522</ele>
        <time>2021-09-01T09:58:04Z</time>
      </trkpt>
      <trkpt lat="44.46204" lon="6.05968">
        <ele>522</ele>
        <time>2021-09-01T10:00:21Z</time>
      </trkpt>
      <trkpt lat="44.46206" lon="6.05966">
        <ele>522</ele>
        <time>2021-09-01T10:00:23Z</time>
      </trkpt>
      <trkpt lat="44.46219" lon="6.05965">
        <ele>522</ele>
        <time>2021-09-01T10:00:28Z</time>
      </trkpt>
      <trkpt lat="44.46222" lon="6.05964">
        <ele>522</ele>
        <time>2021-09-01T10:00:29Z</time>
      </trkpt>
      <trkpt lat="44.46229" lon="6.05963">
        <ele>522</ele>
        <time>2021-09-01T10:00:31Z</time>
      </trkpt>
      <trkpt lat="44.46243" lon="6.0596">
        <ele>522</ele>
        <time>2021-09-01T10:00:36Z</time>
      </trkpt>
      <trkpt lat="44.46268" lon="6.05952">
        <ele>522</ele>
        <time>2021-09-01T10:00:43Z</time>
      </trkpt>
      <trkpt lat="44.46306" lon="6.05945">
        <ele>522.20001220703</ele>
        <time>2021-09-01T10:00:52Z</time>
      </trkpt>
      <trkpt lat="44.46323" lon="6.0594">
        <ele>522.40002441406</ele>
        <time>2021-09-01T10:00:56Z</time>
      </trkpt>
      <trkpt lat="44.46332" lon="6.05937">
        <ele>522.40002441406</ele>
        <time>2021-09-01T10:00:58Z</time>
      </trkpt>
      <trkpt lat="44.46337" lon="6.05936">
        <ele>522.40002441406</ele>
        <time>2021-09-01T10:00:59Z</time>
      </trkpt>
      <trkpt lat="44.46374" lon="6.05929">
        <ele>522.59997558594</ele>
        <time>2021-09-01T10:01:07Z</time>
      </trkpt>
      <trkpt lat="44.46413" lon="6.05921">
        <ele>522.59997558594</ele>
        <time>2021-09-01T10:01:15Z</time>
      </trkpt>
      <trkpt lat="44.46454" lon="6.05913">
        <ele>522.79998779297</ele>
        <time>2021-09-01T10:01:24Z</time>
      </trkpt>
      <trkpt lat="44.46493" lon="6.05904">
        <ele>522.79998779297</ele>
        <time>2021-09-01T10:01:32Z</time>
      </trkpt>
      <trkpt lat="44.46526" lon="6.05896">
        <ele>522.79998779297</ele>
        <time>2021-09-01T10:01:39Z</time>
      </trkpt>
      <trkpt lat="44.46557" lon="6.05886">
        <ele>523</ele>
        <time>2021-09-01T10:01:46Z</time>
      </trkpt>
      <trkpt lat="44.46561" lon="6.05885">
        <ele>523</ele>
        <time>2021-09-01T10:01:47Z</time>
      </trkpt>
      <trkpt lat="44.46565" lon="6.05885">
        <ele>523.20001220703</ele>
        <time>2021-09-01T10:01:48Z</time>
      </trkpt>
      <trkpt lat="44.46569" lon="6.05887">
        <ele>523.20001220703</ele>
        <time>2021-09-01T10:01:49Z</time>
      </trkpt>
      <trkpt lat="44.46573" lon="6.0589">
        <ele>523.40002441406</ele>
        <time>2021-09-01T10:01:50Z</time>
      </trkpt>
      <trkpt lat="44.46605" lon="6.05912">
        <ele>523.40002441406</ele>
        <time>2021-09-01T10:01:57Z</time>
      </trkpt>
      <trkpt lat="44.46642" lon="6.05932">
        <ele>522.79998779297</ele>
        <time>2021-09-01T10:02:04Z</time>
      </trkpt>
      <trkpt lat="44.46677" lon="6.05955">
        <ele>522.20001220703</ele>
        <time>2021-09-01T10:02:10Z</time>
      </trkpt>
      <trkpt lat="44.46688" lon="6.05965">
        <ele>521.79998779297</ele>
        <time>2021-09-01T10:02:12Z</time>
      </trkpt>
      <trkpt lat="44.4673" lon="6.06009">
        <ele>521.59997558594</ele>
        <time>2021-09-01T10:02:20Z</time>
      </trkpt>
      <trkpt lat="44.46759" lon="6.06054">
        <ele>521.59997558594</ele>
        <time>2021-09-01T10:02:27Z</time>
      </trkpt>
      <trkpt lat="44.46786" lon="6.06112">
        <ele>521.59997558594</ele>
        <time>2021-09-01T10:02:35Z</time>
      </trkpt>
      <trkpt lat="44.46808" lon="6.06179">
        <ele>521.79998779297</ele>
        <time>2021-09-01T10:02:44Z</time>
      </trkpt>
      <trkpt lat="44.46814" lon="6.062">
        <ele>521.79998779297</ele>
        <time>2021-09-01T10:02:47Z</time>
      </trkpt>
      <trkpt lat="44.46826" lon="6.06242">
        <ele>522.20001220703</ele>
        <time>2021-09-01T10:02:53Z</time>
      </trkpt>
      <trkpt lat="44.46836" lon="6.06301">
        <ele>523.20001220703</ele>
        <time>2021-09-01T10:03:02Z</time>
      </trkpt>
      <trkpt lat="44.46841" lon="6.06351">
        <ele>524.20001220703</ele>
        <time>2021-09-01T10:03:10Z</time>
      </trkpt>
      <trkpt lat="44.4684" lon="6.06357">
        <ele>524.20001220703</ele>
        <time>2021-09-01T10:03:11Z</time>
      </trkpt>
      <trkpt lat="44.4684" lon="6.06387">
        <ele>524.59997558594</ele>
        <time>2021-09-01T10:03:16Z</time>
      </trkpt>
      <trkpt lat="44.46839" lon="6.06416">
        <ele>525.20001220703</ele>
        <time>2021-09-01T10:03:21Z</time>
      </trkpt>
      <trkpt lat="44.46837" lon="6.06438">
        <ele>525.79998779297</ele>
        <time>2021-09-01T10:03:25Z</time>
      </trkpt>
      <trkpt lat="44.46831" lon="6.06479">
        <ele>526.20001220703</ele>
        <time>2021-09-01T10:03:32Z</time>
      </trkpt>
      <trkpt lat="44.46831" lon="6.06485">
        <ele>526.20001220703</ele>
        <time>2021-09-01T10:03:33Z</time>
      </trkpt>
      <trkpt lat="44.46823" lon="6.06528">
        <ele>526.59997558594</ele>
        <time>2021-09-01T10:03:40Z</time>
      </trkpt>
      <trkpt lat="44.46814" lon="6.06577">
        <ele>526.79998779297</ele>
        <time>2021-09-01T10:03:48Z</time>
      </trkpt>
      <trkpt lat="44.46809" lon="6.06611">
        <ele>527.40002441406</ele>
        <time>2021-09-01T10:03:54Z</time>
      </trkpt>
      <trkpt lat="44.46807" lon="6.06622">
        <ele>527.59997558594</ele>
        <time>2021-09-01T10:03:56Z</time>
      </trkpt>
      <trkpt lat="44.46806" lon="6.06633">
        <ele>527.79998779297</ele>
        <time>2021-09-01T10:03:58Z</time>
      </trkpt>
      <trkpt lat="44.46806" lon="6.0665">
        <ele>528.20001220703</ele>
        <time>2021-09-01T10:04:01Z</time>
      </trkpt>
      <trkpt lat="44.46806" lon="6.06655">
        <ele>528.40002441406</ele>
        <time>2021-09-01T10:04:02Z</time>
      </trkpt>
      <trkpt lat="44.46806" lon="6.06661">
        <ele>528.59997558594</ele>
        <time>2021-09-01T10:04:03Z</time>
      </trkpt>
      <trkpt lat="44.46806" lon="6.06692">
        <ele>529.40002441406</ele>
        <time>2021-09-01T10:04:09Z</time>
      </trkpt>
      <trkpt lat="44.46807" lon="6.06707">
        <ele>529.79998779297</ele>
        <time>2021-09-01T10:04:12Z</time>
      </trkpt>
      <trkpt lat="44.46811" lon="6.06737">
        <ele>530.40002441406</ele>
        <time>2021-09-01T10:04:18Z</time>
      </trkpt>
      <trkpt lat="44.46814" lon="6.06751">
        <ele>530.79998779297</ele>
        <time>2021-09-01T10:04:21Z</time>
      </trkpt>
      <trkpt lat="44.4682" lon="6.06774">
        <ele>531.59997558594</ele>
        <time>2021-09-01T10:04:26Z</time>
      </trkpt>
      <trkpt lat="44.46824" lon="6.06788">
        <ele>532</ele>
        <time>2021-09-01T10:04:29Z</time>
      </trkpt>
      <trkpt lat="44.46832" lon="6.0681">
        <ele>532.59997558594</ele>
        <time>2021-09-01T10:04:34Z</time>
      </trkpt>
      <trkpt lat="44.46838" lon="6.06822">
        <ele>533</ele>
        <time>2021-09-01T10:04:37Z</time>
      </trkpt>
      <trkpt lat="44.46844" lon="6.06834">
        <ele>533.59997558594</ele>
        <time>2021-09-01T10:04:40Z</time>
      </trkpt>
      <trkpt lat="44.46856" lon="6.06862">
        <ele>534.59997558594</ele>
        <time>2021-09-01T10:04:47Z</time>
      </trkpt>
      <trkpt lat="44.46858" lon="6.06865">
        <ele>534.79998779297</ele>
        <time>2021-09-01T10:04:48Z</time>
      </trkpt>
      <trkpt lat="44.46871" lon="6.06894">
        <ele>535.59997558594</ele>
        <time>2021-09-01T10:04:55Z</time>
      </trkpt>
      <trkpt lat="44.46877" lon="6.06906">
        <ele>535.79998779297</ele>
        <time>2021-09-01T10:04:58Z</time>
      </trkpt>
      <trkpt lat="44.46888" lon="6.06927">
        <ele>537</ele>
        <time>2021-09-01T10:05:04Z</time>
      </trkpt>
      <trkpt lat="44.46902" lon="6.06948">
        <ele>537.79998779297</ele>
        <time>2021-09-01T10:05:10Z</time>
      </trkpt>
      <trkpt lat="44.46904" lon="6.06952">
        <ele>538</ele>
        <time>2021-09-01T10:05:11Z</time>
      </trkpt>
      <trkpt lat="44.46907" lon="6.06955">
        <ele>538</ele>
        <time>2021-09-01T10:05:12Z</time>
      </trkpt>
      <trkpt lat="44.46924" lon="6.06977">
        <ele>539</ele>
        <time>2021-09-01T10:05:19Z</time>
      </trkpt>
      <trkpt lat="44.46927" lon="6.0698">
        <ele>539.20001220703</ele>
        <time>2021-09-01T10:05:20Z</time>
      </trkpt>
      <trkpt lat="44.46941" lon="6.06999">
        <ele>540</ele>
        <time>2021-09-01T10:05:26Z</time>
      </trkpt>
      <trkpt lat="44.46946" lon="6.07005">
        <ele>540.40002441406</ele>
        <time>2021-09-01T10:05:28Z</time>
      </trkpt>
      <trkpt lat="44.46959" lon="6.07022">
        <ele>541.20001220703</ele>
        <time>2021-09-01T10:05:33Z</time>
      </trkpt>
      <trkpt lat="44.46967" lon="6.07031">
        <ele>541.40002441406</ele>
        <time>2021-09-01T10:05:36Z</time>
      </trkpt>
      <trkpt lat="44.46986" lon="6.07056">
        <ele>542.20001220703</ele>
        <time>2021-09-01T10:05:43Z</time>
      </trkpt>
      <trkpt lat="44.46991" lon="6.07063">
        <ele>542.40002441406</ele>
        <time>2021-09-01T10:05:45Z</time>
      </trkpt>
      <trkpt lat="44.47017" lon="6.07097">
        <ele>543.20001220703</ele>
        <time>2021-09-01T10:05:54Z</time>
      </trkpt>
      <trkpt lat="44.47026" lon="6.07109">
        <ele>543.20001220703</ele>
        <time>2021-09-01T10:05:57Z</time>
      </trkpt>
      <trkpt lat="44.47043" lon="6.07139">
        <ele>543.79998779297</ele>
        <time>2021-09-01T10:06:04Z</time>
      </trkpt>
      <trkpt lat="44.47051" lon="6.07156">
        <ele>544.20001220703</ele>
        <time>2021-09-01T10:06:08Z</time>
      </trkpt>
      <trkpt lat="44.47057" lon="6.07168">
        <ele>544.59997558594</ele>
        <time>2021-09-01T10:06:11Z</time>
      </trkpt>
      <trkpt lat="44.47072" lon="6.07196">
        <ele>545.40002441406</ele>
        <time>2021-09-01T10:06:18Z</time>
      </trkpt>
      <trkpt lat="44.47075" lon="6.072">
        <ele>545.40002441406</ele>
        <time>2021-09-01T10:06:19Z</time>
      </trkpt>
      <trkpt lat="44.4709" lon="6.07227">
        <ele>545.59997558594</ele>
        <time>2021-09-01T10:06:25Z</time>
      </trkpt>
      <trkpt lat="44.47102" lon="6.07244">
        <ele>546.20001220703</ele>
        <time>2021-09-01T10:06:29Z</time>
      </trkpt>
      <trkpt lat="44.47114" lon="6.07261">
        <ele>546.40002441406</ele>
        <time>2021-09-01T10:06:33Z</time>
      </trkpt>
      <trkpt lat="44.47132" lon="6.07284">
        <ele>546.40002441406</ele>
        <time>2021-09-01T10:06:38Z</time>
      </trkpt>
      <trkpt lat="44.47172" lon="6.07337">
        <ele>546.59997558594</ele>
        <time>2021-09-01T10:06:49Z</time>
      </trkpt>
      <trkpt lat="44.47204" lon="6.07382">
        <ele>546.40002441406</ele>
        <time>2021-09-01T10:06:58Z</time>
      </trkpt>
      <trkpt lat="44.47234" lon="6.07424">
        <ele>545.59997558594</ele>
        <time>2021-09-01T10:07:05Z</time>
      </trkpt>
      <trkpt lat="44.47243" lon="6.07436">
        <ele>545.20001220703</ele>
        <time>2021-09-01T10:07:07Z</time>
      </trkpt>
      <trkpt lat="44.47278" lon="6.07484">
        <ele>544</ele>
        <time>2021-09-01T10:07:14Z</time>
      </trkpt>
      <trkpt lat="44.47283" lon="6.0749">
        <ele>544</ele>
        <time>2021-09-01T10:07:15Z</time>
      </trkpt>
      <trkpt lat="44.4732" lon="6.07543">
        <ele>543.20001220703</ele>
        <time>2021-09-01T10:07:23Z</time>
      </trkpt>
      <trkpt lat="44.47324" lon="6.0755">
        <ele>543</ele>
        <time>2021-09-01T10:07:24Z</time>
      </trkpt>
      <trkpt lat="44.47359" lon="6.07597">
        <ele>542.79998779297</ele>
        <time>2021-09-01T10:07:32Z</time>
      </trkpt>
      <trkpt lat="44.4737" lon="6.07614">
        <ele>542.79998779297</ele>
        <time>2021-09-01T10:07:35Z</time>
      </trkpt>
      <trkpt lat="44.47389" lon="6.07641">
        <ele>543</ele>
        <time>2021-09-01T10:07:40Z</time>
      </trkpt>
      <trkpt lat="44.47426" lon="6.07692">
        <ele>543</ele>
        <time>2021-09-01T10:07:49Z</time>
      </trkpt>
      <trkpt lat="44.47467" lon="6.07737">
        <ele>542.40002441406</ele>
        <time>2021-09-01T10:07:57Z</time>
      </trkpt>
      <trkpt lat="44.47492" lon="6.07757">
        <ele>541.79998779297</ele>
        <time>2021-09-01T10:08:01Z</time>
      </trkpt>
      <trkpt lat="44.47513" lon="6.07771">
        <ele>541.40002441406</ele>
        <time>2021-09-01T10:08:04Z</time>
      </trkpt>
      <trkpt lat="44.47527" lon="6.0778">
        <ele>540.79998779297</ele>
        <time>2021-09-01T10:08:06Z</time>
      </trkpt>
      <trkpt lat="44.47557" lon="6.078">
        <ele>539.79998779297</ele>
        <time>2021-09-01T10:08:10Z</time>
      </trkpt>
      <trkpt lat="44.47572" lon="6.07809">
        <ele>539.20001220703</ele>
        <time>2021-09-01T10:08:12Z</time>
      </trkpt>
      <trkpt lat="44.47587" lon="6.07819">
        <ele>538.20001220703</ele>
        <time>2021-09-01T10:08:14Z</time>
      </trkpt>
      <trkpt lat="44.47619" lon="6.07839">
        <ele>537</ele>
        <time>2021-09-01T10:08:18Z</time>
      </trkpt>
      <trkpt lat="44.47643" lon="6.07856">
        <ele>536</ele>
        <time>2021-09-01T10:08:21Z</time>
      </trkpt>
      <trkpt lat="44.47667" lon="6.07872">
        <ele>535</ele>
        <time>2021-09-01T10:08:24Z</time>
      </trkpt>
      <trkpt lat="44.47698" lon="6.07895">
        <ele>533.59997558594</ele>
        <time>2021-09-01T10:08:28Z</time>
      </trkpt>
      <trkpt lat="44.47748" lon="6.07935">
        <ele>532.40002441406</ele>
        <time>2021-09-01T10:08:35Z</time>
      </trkpt>
      <trkpt lat="44.47761" lon="6.07946">
        <ele>532.20001220703</ele>
        <time>2021-09-01T10:08:37Z</time>
      </trkpt>
      <trkpt lat="44.47799" lon="6.07988">
        <ele>531.59997558594</ele>
        <time>2021-09-01T10:08:44Z</time>
      </trkpt>
      <trkpt lat="44.47826" lon="6.08033">
        <ele>532.20001220703</ele>
        <time>2021-09-01T10:08:51Z</time>
      </trkpt>
      <trkpt lat="44.4785" lon="6.08087">
        <ele>532.59997558594</ele>
        <time>2021-09-01T10:08:59Z</time>
      </trkpt>
      <trkpt lat="44.47866" lon="6.08128">
        <ele>532.59997558594</ele>
        <time>2021-09-01T10:09:05Z</time>
      </trkpt>
      <trkpt lat="44.47892" lon="6.082">
        <ele>533</ele>
        <time>2021-09-01T10:09:15Z</time>
      </trkpt>
      <trkpt lat="44.47903" lon="6.08254">
        <ele>533.20001220703</ele>
        <time>2021-09-01T10:09:22Z</time>
      </trkpt>
      <trkpt lat="44.47904" lon="6.08303">
        <ele>533.40002441406</ele>
        <time>2021-09-01T10:09:28Z</time>
      </trkpt>
      <trkpt lat="44.47903" lon="6.08363">
        <ele>533.20001220703</ele>
        <time>2021-09-01T10:09:36Z</time>
      </trkpt>
      <trkpt lat="44.47903" lon="6.08382">
        <ele>533.40002441406</ele>
        <time>2021-09-01T10:09:39Z</time>
      </trkpt>
      <trkpt lat="44.47903" lon="6.08405">
        <ele>534</ele>
        <time>2021-09-01T10:09:43Z</time>
      </trkpt>
      <trkpt lat="44.47904" lon="6.08421">
        <ele>534.40002441406</ele>
        <time>2021-09-01T10:09:46Z</time>
      </trkpt>
      <trkpt lat="44.47905" lon="6.08442">
        <ele>535.40002441406</ele>
        <time>2021-09-01T10:09:50Z</time>
      </trkpt>
      <trkpt lat="44.47905" lon="6.08448">
        <ele>535.59997558594</ele>
        <time>2021-09-01T10:09:51Z</time>
      </trkpt>
      <trkpt lat="44.47911" lon="6.08487">
        <ele>536.59997558594</ele>
        <time>2021-09-01T10:09:58Z</time>
      </trkpt>
      <trkpt lat="44.47912" lon="6.08493">
        <ele>536.59997558594</ele>
        <time>2021-09-01T10:09:59Z</time>
      </trkpt>
      <trkpt lat="44.47921" lon="6.08543">
        <ele>537</ele>
        <time>2021-09-01T10:10:07Z</time>
      </trkpt>
      <trkpt lat="44.47933" lon="6.08608">
        <ele>537.40002441406</ele>
        <time>2021-09-01T10:10:17Z</time>
      </trkpt>
      <trkpt lat="44.47939" lon="6.08654">
        <ele>537.59997558594</ele>
        <time>2021-09-01T10:10:24Z</time>
      </trkpt>
      <trkpt lat="44.4794" lon="6.08658">
        <ele>537.59997558594</ele>
        <time>2021-09-01T10:10:25Z</time>
      </trkpt>
      <trkpt lat="44.4794" lon="6.08662">
        <ele>537.59997558594</ele>
        <time>2021-09-01T10:10:26Z</time>
      </trkpt>
      <trkpt lat="44.47941" lon="6.08678">
        <ele>538</ele>
        <time>2021-09-01T10:10:29Z</time>
      </trkpt>
      <trkpt lat="44.47942" lon="6.0869">
        <ele>538</ele>
        <time>2021-09-01T10:10:31Z</time>
      </trkpt>
      <trkpt lat="44.47948" lon="6.08738">
        <ele>538.59997558594</ele>
        <time>2021-09-01T10:10:38Z</time>
      </trkpt>
      <trkpt lat="44.47949" lon="6.08745">
        <ele>538.79998779297</ele>
        <time>2021-09-01T10:10:39Z</time>
      </trkpt>
      <trkpt lat="44.47955" lon="6.08798">
        <ele>539.40002441406</ele>
        <time>2021-09-01T10:10:47Z</time>
      </trkpt>
      <trkpt lat="44.47957" lon="6.08819">
        <ele>539.79998779297</ele>
        <time>2021-09-01T10:10:50Z</time>
      </trkpt>
      <trkpt lat="44.4796" lon="6.08851">
        <ele>540</ele>
        <time>2021-09-01T10:10:55Z</time>
      </trkpt>
      <trkpt lat="44.47965" lon="6.08909">
        <ele>540.59997558594</ele>
        <time>2021-09-01T10:11:04Z</time>
      </trkpt>
      <trkpt lat="44.47966" lon="6.08928">
        <ele>540.79998779297</ele>
        <time>2021-09-01T10:11:07Z</time>
      </trkpt>
      <trkpt lat="44.47969" lon="6.08961">
        <ele>541</ele>
        <time>2021-09-01T10:11:12Z</time>
      </trkpt>
      <trkpt lat="44.47976" lon="6.09008">
        <ele>541.79998779297</ele>
        <time>2021-09-01T10:11:20Z</time>
      </trkpt>
      <trkpt lat="44.47977" lon="6.09014">
        <ele>541.79998779297</ele>
        <time>2021-09-01T10:11:21Z</time>
      </trkpt>
      <trkpt lat="44.47985" lon="6.09037">
        <ele>542</ele>
        <time>2021-09-01T10:11:25Z</time>
      </trkpt>
      <trkpt lat="44.47986" lon="6.0905">
        <ele>542.40002441406</ele>
        <time>2021-09-01T10:11:27Z</time>
      </trkpt>
      <trkpt lat="44.47988" lon="6.091">
        <ele>542.79998779297</ele>
        <time>2021-09-01T10:11:35Z</time>
      </trkpt>
      <trkpt lat="44.47989" lon="6.09106">
        <ele>542.79998779297</ele>
        <time>2021-09-01T10:11:36Z</time>
      </trkpt>
      <trkpt lat="44.47988" lon="6.09118">
        <ele>543</ele>
        <time>2021-09-01T10:11:38Z</time>
      </trkpt>
      <trkpt lat="44.47986" lon="6.09132">
        <ele>543</ele>
        <time>2021-09-01T10:11:40Z</time>
      </trkpt>
      <trkpt lat="44.47983" lon="6.09151">
        <ele>543.20001220703</ele>
        <time>2021-09-01T10:11:43Z</time>
      </trkpt>
      <trkpt lat="44.47978" lon="6.0917">
        <ele>543.20001220703</ele>
        <time>2021-09-01T10:11:46Z</time>
      </trkpt>
      <trkpt lat="44.4797" lon="6.09195">
        <ele>543.59997558594</ele>
        <time>2021-09-01T10:11:50Z</time>
      </trkpt>
      <trkpt lat="44.47963" lon="6.09205">
        <ele>544</ele>
        <time>2021-09-01T10:11:52Z</time>
      </trkpt>
      <trkpt lat="44.47957" lon="6.09216">
        <ele>544</ele>
        <time>2021-09-01T10:11:54Z</time>
      </trkpt>
      <trkpt lat="44.47943" lon="6.09236">
        <ele>544.40002441406</ele>
        <time>2021-09-01T10:11:58Z</time>
      </trkpt>
      <trkpt lat="44.47917" lon="6.09275">
        <ele>545</ele>
        <time>2021-09-01T10:12:06Z</time>
      </trkpt>
      <trkpt lat="44.47911" lon="6.09284">
        <ele>545</ele>
        <time>2021-09-01T10:12:08Z</time>
      </trkpt>
      <trkpt lat="44.47892" lon="6.0932">
        <ele>546</ele>
        <time>2021-09-01T10:12:15Z</time>
      </trkpt>
      <trkpt lat="44.4789" lon="6.09325">
        <ele>546</ele>
        <time>2021-09-01T10:12:16Z</time>
      </trkpt>
      <trkpt lat="44.47876" lon="6.09368">
        <ele>546.40002441406</ele>
        <time>2021-09-01T10:12:23Z</time>
      </trkpt>
      <trkpt lat="44.47864" lon="6.09415">
        <ele>546.79998779297</ele>
        <time>2021-09-01T10:12:30Z</time>
      </trkpt>
      <trkpt lat="44.47855" lon="6.09449">
        <ele>547</ele>
        <time>2021-09-01T10:12:35Z</time>
      </trkpt>
      <trkpt lat="44.47849" lon="6.09469">
        <ele>547.20001220703</ele>
        <time>2021-09-01T10:12:38Z</time>
      </trkpt>
      <trkpt lat="44.47835" lon="6.09525">
        <ele>548</ele>
        <time>2021-09-01T10:12:47Z</time>
      </trkpt>
      <trkpt lat="44.47824" lon="6.0957">
        <ele>548.79998779297</ele>
        <time>2021-09-01T10:12:55Z</time>
      </trkpt>
      <trkpt lat="44.47822" lon="6.09581">
        <ele>549</ele>
        <time>2021-09-01T10:12:57Z</time>
      </trkpt>
      <trkpt lat="44.47818" lon="6.0962">
        <ele>549.59997558594</ele>
        <time>2021-09-01T10:13:03Z</time>
      </trkpt>
      <trkpt lat="44.47815" lon="6.09679">
        <ele>550</ele>
        <time>2021-09-01T10:13:12Z</time>
      </trkpt>
      <trkpt lat="44.47815" lon="6.09685">
        <ele>550</ele>
        <time>2021-09-01T10:13:13Z</time>
      </trkpt>
      <trkpt lat="44.47812" lon="6.09733">
        <ele>550.40002441406</ele>
        <time>2021-09-01T10:13:21Z</time>
      </trkpt>
      <trkpt lat="44.47811" lon="6.09747">
        <ele>550.79998779297</ele>
        <time>2021-09-01T10:13:25Z</time>
      </trkpt>
      <trkpt lat="44.47814" lon="6.0975">
        <ele>550.79998779297</ele>
        <time>2021-09-01T10:15:15Z</time>
      </trkpt>
      <trkpt lat="44.47816" lon="6.0975">
        <ele>550.79998779297</ele>
        <time>2021-09-01T10:15:16Z</time>
      </trkpt>
      <trkpt lat="44.47831" lon="6.09746">
        <ele>551</ele>
        <time>2021-09-01T10:15:21Z</time>
      </trkpt>
      <trkpt lat="44.47846" lon="6.09741">
        <ele>551</ele>
        <time>2021-09-01T10:15:25Z</time>
      </trkpt>
      <trkpt lat="44.4785" lon="6.0974">
        <ele>551</ele>
        <time>2021-09-01T10:15:26Z</time>
      </trkpt>
      <trkpt lat="44.47879" lon="6.09741">
        <ele>552.20001220703</ele>
        <time>2021-09-01T10:15:34Z</time>
      </trkpt>
      <trkpt lat="44.47899" lon="6.09746">
        <ele>553</ele>
        <time>2021-09-01T10:15:40Z</time>
      </trkpt>
      <trkpt lat="44.47904" lon="6.09749">
        <ele>553.20001220703</ele>
        <time>2021-09-01T10:15:42Z</time>
      </trkpt>
      <trkpt lat="44.47921" lon="6.09753">
        <ele>554</ele>
        <time>2021-09-01T10:15:48Z</time>
      </trkpt>
      <trkpt lat="44.47923" lon="6.09754">
        <ele>554.20001220703</ele>
        <time>2021-09-01T10:15:49Z</time>
      </trkpt>
      <trkpt lat="44.47937" lon="6.0976">
        <ele>555.40002441406</ele>
        <time>2021-09-01T10:15:55Z</time>
      </trkpt>
      <trkpt lat="44.47939" lon="6.09761">
        <ele>555.59997558594</ele>
        <time>2021-09-01T10:15:56Z</time>
      </trkpt>
      <trkpt lat="44.47955" lon="6.09766">
        <ele>556.40002441406</ele>
        <time>2021-09-01T10:16:03Z</time>
      </trkpt>
      <trkpt lat="44.47958" lon="6.09767">
        <ele>556.59997558594</ele>
        <time>2021-09-01T10:16:04Z</time>
      </trkpt>
      <trkpt lat="44.47971" lon="6.09773">
        <ele>557.59997558594</ele>
        <time>2021-09-01T10:16:10Z</time>
      </trkpt>
      <trkpt lat="44.47974" lon="6.09774">
        <ele>557.79998779297</ele>
        <time>2021-09-01T10:16:11Z</time>
      </trkpt>
      <trkpt lat="44.47984" lon="6.0978">
        <ele>558.59997558594</ele>
        <time>2021-09-01T10:16:16Z</time>
      </trkpt>
      <trkpt lat="44.47998" lon="6.09787">
        <ele>559.59997558594</ele>
        <time>2021-09-01T10:16:22Z</time>
      </trkpt>
      <trkpt lat="44.48" lon="6.09788">
        <ele>559.79998779297</ele>
        <time>2021-09-01T10:16:23Z</time>
      </trkpt>
      <trkpt lat="44.48014" lon="6.09798">
        <ele>560.79998779297</ele>
        <time>2021-09-01T10:16:30Z</time>
      </trkpt>
      <trkpt lat="44.48016" lon="6.09799">
        <ele>561</ele>
        <time>2021-09-01T10:16:31Z</time>
      </trkpt>
      <trkpt lat="44.4803" lon="6.09812">
        <ele>561.79998779297</ele>
        <time>2021-09-01T10:16:38Z</time>
      </trkpt>
      <trkpt lat="44.48032" lon="6.09813">
        <ele>562.20001220703</ele>
        <time>2021-09-01T10:16:39Z</time>
      </trkpt>
      <trkpt lat="44.48044" lon="6.09824">
        <ele>563</ele>
        <time>2021-09-01T10:16:45Z</time>
      </trkpt>
      <trkpt lat="44.4805" lon="6.0983">
        <ele>563.59997558594</ele>
        <time>2021-09-01T10:16:48Z</time>
      </trkpt>
      <trkpt lat="44.48056" lon="6.09836">
        <ele>564.20001220703</ele>
        <time>2021-09-01T10:16:51Z</time>
      </trkpt>
      <trkpt lat="44.48067" lon="6.0985">
        <ele>565</ele>
        <time>2021-09-01T10:16:57Z</time>
      </trkpt>
      <trkpt lat="44.48068" lon="6.09853">
        <ele>565.20001220703</ele>
        <time>2021-09-01T10:16:58Z</time>
      </trkpt>
      <trkpt lat="44.48079" lon="6.09867">
        <ele>566.20001220703</ele>
        <time>2021-09-01T10:17:04Z</time>
      </trkpt>
      <trkpt lat="44.4808" lon="6.09869">
        <ele>566.40002441406</ele>
        <time>2021-09-01T10:17:05Z</time>
      </trkpt>
      <trkpt lat="44.48092" lon="6.09887">
        <ele>567.20001220703</ele>
        <time>2021-09-01T10:17:12Z</time>
      </trkpt>
      <trkpt lat="44.48094" lon="6.0989">
        <ele>567.40002441406</ele>
        <time>2021-09-01T10:17:13Z</time>
      </trkpt>
      <trkpt lat="44.48106" lon="6.09908">
        <ele>568.40002441406</ele>
        <time>2021-09-01T10:17:20Z</time>
      </trkpt>
      <trkpt lat="44.4811" lon="6.09915">
        <ele>568.79998779297</ele>
        <time>2021-09-01T10:17:23Z</time>
      </trkpt>
      <trkpt lat="44.48117" lon="6.09926">
        <ele>569.59997558594</ele>
        <time>2021-09-01T10:17:27Z</time>
      </trkpt>
      <trkpt lat="44.48128" lon="6.09942">
        <ele>570.20001220703</ele>
        <time>2021-09-01T10:17:33Z</time>
      </trkpt>
      <trkpt lat="44.48131" lon="6.09947">
        <ele>570.59997558594</ele>
        <time>2021-09-01T10:17:35Z</time>
      </trkpt>
      <trkpt lat="44.48144" lon="6.09967">
        <ele>571.40002441406</ele>
        <time>2021-09-01T10:17:42Z</time>
      </trkpt>
      <trkpt lat="44.48148" lon="6.09973">
        <ele>571.59997558594</ele>
        <time>2021-09-01T10:17:44Z</time>
      </trkpt>
      <trkpt lat="44.48158" lon="6.09989">
        <ele>572.20001220703</ele>
        <time>2021-09-01T10:17:49Z</time>
      </trkpt>
      <trkpt lat="44.48164" lon="6.09998">
        <ele>572.79998779297</ele>
        <time>2021-09-01T10:17:52Z</time>
      </trkpt>
      <trkpt lat="44.48176" lon="6.10015">
        <ele>573.20001220703</ele>
        <time>2021-09-01T10:17:58Z</time>
      </trkpt>
      <trkpt lat="44.48181" lon="6.10024">
        <ele>573.40002441406</ele>
        <time>2021-09-01T10:18:01Z</time>
      </trkpt>
      <trkpt lat="44.48189" lon="6.10036">
        <ele>573.79998779297</ele>
        <time>2021-09-01T10:18:05Z</time>
      </trkpt>
      <trkpt lat="44.48202" lon="6.10055">
        <ele>574.20001220703</ele>
        <time>2021-09-01T10:18:11Z</time>
      </trkpt>
      <trkpt lat="44.48226" lon="6.10088">
        <ele>574.79998779297</ele>
        <time>2021-09-01T10:18:20Z</time>
      </trkpt>
      <trkpt lat="44.48229" lon="6.10092">
        <ele>574.79998779297</ele>
        <time>2021-09-01T10:18:21Z</time>
      </trkpt>
      <trkpt lat="44.48249" lon="6.10116">
        <ele>575.40002441406</ele>
        <time>2021-09-01T10:18:28Z</time>
      </trkpt>
      <trkpt lat="44.48267" lon="6.10138">
        <ele>575.79998779297</ele>
        <time>2021-09-01T10:18:34Z</time>
      </trkpt>
      <trkpt lat="44.48273" lon="6.10147">
        <ele>575.79998779297</ele>
        <time>2021-09-01T10:18:36Z</time>
      </trkpt>
      <trkpt lat="44.48297" lon="6.10176">
        <ele>576.59997558594</ele>
        <time>2021-09-01T10:18:44Z</time>
      </trkpt>
      <trkpt lat="44.48309" lon="6.10192">
        <ele>576.79998779297</ele>
        <time>2021-09-01T10:18:48Z</time>
      </trkpt>
      <trkpt lat="44.48321" lon="6.10207">
        <ele>577</ele>
        <time>2021-09-01T10:18:52Z</time>
      </trkpt>
      <trkpt lat="44.48324" lon="6.10212">
        <ele>577.20001220703</ele>
        <time>2021-09-01T10:18:53Z</time>
      </trkpt>
      <trkpt lat="44.48334" lon="6.10233">
        <ele>577.40002441406</ele>
        <time>2021-09-01T10:18:57Z</time>
      </trkpt>
      <trkpt lat="44.48347" lon="6.10261">
        <ele>577.79998779297</ele>
        <time>2021-09-01T10:19:03Z</time>
      </trkpt>
      <trkpt lat="44.48353" lon="6.10276">
        <ele>578.20001220703</ele>
        <time>2021-09-01T10:19:06Z</time>
      </trkpt>
      <trkpt lat="44.48362" lon="6.10302">
        <ele>579</ele>
        <time>2021-09-01T10:19:11Z</time>
      </trkpt>
      <trkpt lat="44.48368" lon="6.10322">
        <ele>579.40002441406</ele>
        <time>2021-09-01T10:19:15Z</time>
      </trkpt>
      <trkpt lat="44.48379" lon="6.1036">
        <ele>580</ele>
        <time>2021-09-01T10:19:23Z</time>
      </trkpt>
      <trkpt lat="44.4838" lon="6.10365">
        <ele>580.20001220703</ele>
        <time>2021-09-01T10:19:24Z</time>
      </trkpt>
      <trkpt lat="44.48391" lon="6.10398">
        <ele>581</ele>
        <time>2021-09-01T10:19:31Z</time>
      </trkpt>
      <trkpt lat="44.48395" lon="6.10407">
        <ele>581.20001220703</ele>
        <time>2021-09-01T10:19:33Z</time>
      </trkpt>
      <trkpt lat="44.48409" lon="6.10438">
        <ele>581.59997558594</ele>
        <time>2021-09-01T10:19:40Z</time>
      </trkpt>
      <trkpt lat="44.48418" lon="6.10456">
        <ele>582.20001220703</ele>
        <time>2021-09-01T10:19:44Z</time>
      </trkpt>
      <trkpt lat="44.48427" lon="6.10473">
        <ele>582.59997558594</ele>
        <time>2021-09-01T10:19:48Z</time>
      </trkpt>
      <trkpt lat="44.48437" lon="6.10494">
        <ele>583.20001220703</ele>
        <time>2021-09-01T10:19:53Z</time>
      </trkpt>
      <trkpt lat="44.48444" lon="6.10506">
        <ele>583.59997558594</ele>
        <time>2021-09-01T10:19:56Z</time>
      </trkpt>
      <trkpt lat="44.48455" lon="6.10529">
        <ele>584.40002441406</ele>
        <time>2021-09-01T10:20:02Z</time>
      </trkpt>
      <trkpt lat="44.48459" lon="6.10536">
        <ele>584.59997558594</ele>
        <time>2021-09-01T10:20:04Z</time>
      </trkpt>
      <trkpt lat="44.48468" lon="6.10553">
        <ele>585.40002441406</ele>
        <time>2021-09-01T10:20:09Z</time>
      </trkpt>
      <trkpt lat="44.48476" lon="6.10569">
        <ele>586</ele>
        <time>2021-09-01T10:20:14Z</time>
      </trkpt>
      <trkpt lat="44.48479" lon="6.10575">
        <ele>586.40002441406</ele>
        <time>2021-09-01T10:20:16Z</time>
      </trkpt>
      <trkpt lat="44.48488" lon="6.10594">
        <ele>587.59997558594</ele>
        <time>2021-09-01T10:20:22Z</time>
      </trkpt>
      <trkpt lat="44.48494" lon="6.10604">
        <ele>588.20001220703</ele>
        <time>2021-09-01T10:20:26Z</time>
      </trkpt>
      <trkpt lat="44.48497" lon="6.1061">
        <ele>588.59997558594</ele>
        <time>2021-09-01T10:20:28Z</time>
      </trkpt>
      <trkpt lat="44.48507" lon="6.10629">
        <ele>589.59997558594</ele>
        <time>2021-09-01T10:20:35Z</time>
      </trkpt>
      <trkpt lat="44.48515" lon="6.10646">
        <ele>590.59997558594</ele>
        <time>2021-09-01T10:20:41Z</time>
      </trkpt>
      <trkpt lat="44.48521" lon="6.10659">
        <ele>591.59997558594</ele>
        <time>2021-09-01T10:20:46Z</time>
      </trkpt>
      <trkpt lat="44.48522" lon="6.10662">
        <ele>591.59997558594</ele>
        <time>2021-09-01T10:20:47Z</time>
      </trkpt>
      <trkpt lat="44.4853" lon="6.10684">
        <ele>592.79998779297</ele>
        <time>2021-09-01T10:20:54Z</time>
      </trkpt>
      <trkpt lat="44.4853" lon="6.10687">
        <ele>593</ele>
        <time>2021-09-01T10:20:55Z</time>
      </trkpt>
      <trkpt lat="44.48537" lon="6.10713">
        <ele>594</ele>
        <time>2021-09-01T10:21:03Z</time>
      </trkpt>
      <trkpt lat="44.48538" lon="6.1072">
        <ele>594.40002441406</ele>
        <time>2021-09-01T10:21:05Z</time>
      </trkpt>
      <trkpt lat="44.48541" lon="6.10736">
        <ele>595.20001220703</ele>
        <time>2021-09-01T10:21:10Z</time>
      </trkpt>
      <trkpt lat="44.48542" lon="6.10743">
        <ele>595.40002441406</ele>
        <time>2021-09-01T10:21:12Z</time>
      </trkpt>
      <trkpt lat="44.48545" lon="6.10764">
        <ele>596.20001220703</ele>
        <time>2021-09-01T10:21:18Z</time>
      </trkpt>
      <trkpt lat="44.48546" lon="6.1077">
        <ele>596.79998779297</ele>
        <time>2021-09-01T10:21:20Z</time>
      </trkpt>
      <trkpt lat="44.48548" lon="6.10779">
        <ele>597.40002441406</ele>
        <time>2021-09-01T10:21:23Z</time>
      </trkpt>
      <trkpt lat="44.48553" lon="6.10796">
        <ele>598.20001220703</ele>
        <time>2021-09-01T10:21:28Z</time>
      </trkpt>
      <trkpt lat="44.48554" lon="6.10802">
        <ele>598.40002441406</ele>
        <time>2021-09-01T10:21:30Z</time>
      </trkpt>
      <trkpt lat="44.4856" lon="6.10826">
        <ele>599.59997558594</ele>
        <time>2021-09-01T10:21:37Z</time>
      </trkpt>
      <trkpt lat="44.48567" lon="6.10848">
        <ele>600.59997558594</ele>
        <time>2021-09-01T10:21:44Z</time>
      </trkpt>
      <trkpt lat="44.48569" lon="6.10854">
        <ele>601</ele>
        <time>2021-09-01T10:21:46Z</time>
      </trkpt>
      <trkpt lat="44.48573" lon="6.10869">
        <ele>601.59997558594</ele>
        <time>2021-09-01T10:21:51Z</time>
      </trkpt>
      <trkpt lat="44.48578" lon="6.10881">
        <ele>602.40002441406</ele>
        <time>2021-09-01T10:21:55Z</time>
      </trkpt>
      <trkpt lat="44.48581" lon="6.10888">
        <ele>602.79998779297</ele>
        <time>2021-09-01T10:21:57Z</time>
      </trkpt>
      <trkpt lat="44.48591" lon="6.1092">
        <ele>603.40002441406</ele>
        <time>2021-09-01T10:22:06Z</time>
      </trkpt>
      <trkpt lat="44.48594" lon="6.10932">
        <ele>603.79998779297</ele>
        <time>2021-09-01T10:22:09Z</time>
      </trkpt>
      <trkpt lat="44.48603" lon="6.10958">
        <ele>604.59997558594</ele>
        <time>2021-09-01T10:22:16Z</time>
      </trkpt>
      <trkpt lat="44.48604" lon="6.10962">
        <ele>604.79998779297</ele>
        <time>2021-09-01T10:22:17Z</time>
      </trkpt>
      <trkpt lat="44.48606" lon="6.10969">
        <ele>605</ele>
        <time>2021-09-01T10:22:19Z</time>
      </trkpt>
      <trkpt lat="44.48611" lon="6.10984">
        <ele>605.79998779297</ele>
        <time>2021-09-01T10:22:23Z</time>
      </trkpt>
      <trkpt lat="44.48613" lon="6.10992">
        <ele>606</ele>
        <time>2021-09-01T10:22:25Z</time>
      </trkpt>
      <trkpt lat="44.48624" lon="6.11021">
        <ele>606.79998779297</ele>
        <time>2021-09-01T10:22:33Z</time>
      </trkpt>
      <trkpt lat="44.48637" lon="6.11049">
        <ele>608</ele>
        <time>2021-09-01T10:22:41Z</time>
      </trkpt>
      <trkpt lat="44.48639" lon="6.11053">
        <ele>608</ele>
        <time>2021-09-01T10:22:42Z</time>
      </trkpt>
      <trkpt lat="44.48653" lon="6.11079">
        <ele>609</ele>
        <time>2021-09-01T10:22:50Z</time>
      </trkpt>
      <trkpt lat="44.48657" lon="6.11086">
        <ele>609.20001220703</ele>
        <time>2021-09-01T10:22:52Z</time>
      </trkpt>
      <trkpt lat="44.4868" lon="6.11118">
        <ele>610</ele>
        <time>2021-09-01T10:23:02Z</time>
      </trkpt>
      <trkpt lat="44.487" lon="6.11145">
        <ele>611</ele>
        <time>2021-09-01T10:23:10Z</time>
      </trkpt>
      <trkpt lat="44.48702" lon="6.11149">
        <ele>611.20001220703</ele>
        <time>2021-09-01T10:23:11Z</time>
      </trkpt>
      <trkpt lat="44.48724" lon="6.11179">
        <ele>612</ele>
        <time>2021-09-01T10:23:20Z</time>
      </trkpt>
      <trkpt lat="44.48726" lon="6.11182">
        <ele>612.20001220703</ele>
        <time>2021-09-01T10:23:21Z</time>
      </trkpt>
      <trkpt lat="44.48746" lon="6.11213">
        <ele>613</ele>
        <time>2021-09-01T10:23:30Z</time>
      </trkpt>
      <trkpt lat="44.48753" lon="6.11223">
        <ele>613.20001220703</ele>
        <time>2021-09-01T10:23:33Z</time>
      </trkpt>
      <trkpt lat="44.48766" lon="6.11243">
        <ele>614</ele>
        <time>2021-09-01T10:23:39Z</time>
      </trkpt>
      <trkpt lat="44.48772" lon="6.11254">
        <ele>614.20001220703</ele>
        <time>2021-09-01T10:23:42Z</time>
      </trkpt>
      <trkpt lat="44.48782" lon="6.11279">
        <ele>615.20001220703</ele>
        <time>2021-09-01T10:23:48Z</time>
      </trkpt>
      <trkpt lat="44.48784" lon="6.11283">
        <ele>615.20001220703</ele>
        <time>2021-09-01T10:23:49Z</time>
      </trkpt>
      <trkpt lat="44.48795" lon="6.11318">
        <ele>616.20001220703</ele>
        <time>2021-09-01T10:23:57Z</time>
      </trkpt>
      <trkpt lat="44.48796" lon="6.11322">
        <ele>616.40002441406</ele>
        <time>2021-09-01T10:23:58Z</time>
      </trkpt>
      <trkpt lat="44.48804" lon="6.11369">
        <ele>617.40002441406</ele>
        <time>2021-09-01T10:24:08Z</time>
      </trkpt>
      <trkpt lat="44.48808" lon="6.11402">
        <ele>618</ele>
        <time>2021-09-01T10:24:15Z</time>
      </trkpt>
      <trkpt lat="44.4881" lon="6.11411">
        <ele>618.40002441406</ele>
        <time>2021-09-01T10:24:17Z</time>
      </trkpt>
      <trkpt lat="44.48814" lon="6.11432">
        <ele>619</ele>
        <time>2021-09-01T10:24:22Z</time>
      </trkpt>
      <trkpt lat="44.48816" lon="6.11441">
        <ele>619.40002441406</ele>
        <time>2021-09-01T10:24:24Z</time>
      </trkpt>
      <trkpt lat="44.48825" lon="6.11469">
        <ele>620.40002441406</ele>
        <time>2021-09-01T10:24:31Z</time>
      </trkpt>
      <trkpt lat="44.48826" lon="6.11473">
        <ele>620.59997558594</ele>
        <time>2021-09-01T10:24:32Z</time>
      </trkpt>
      <trkpt lat="44.48836" lon="6.11498">
        <ele>621.40002441406</ele>
        <time>2021-09-01T10:24:38Z</time>
      </trkpt>
      <trkpt lat="44.48843" lon="6.11513">
        <ele>622</ele>
        <time>2021-09-01T10:24:42Z</time>
      </trkpt>
      <trkpt lat="44.48852" lon="6.11528">
        <ele>622.59997558594</ele>
        <time>2021-09-01T10:24:46Z</time>
      </trkpt>
      <trkpt lat="44.48861" lon="6.11545">
        <ele>623</ele>
        <time>2021-09-01T10:24:50Z</time>
      </trkpt>
      <trkpt lat="44.4887" lon="6.11557">
        <ele>623</ele>
        <time>2021-09-01T10:24:53Z</time>
      </trkpt>
      <trkpt lat="44.48884" lon="6.11576">
        <ele>622.59997558594</ele>
        <time>2021-09-01T10:24:57Z</time>
      </trkpt>
      <trkpt lat="44.48912" lon="6.11611">
        <ele>622</ele>
        <time>2021-09-01T10:25:03Z</time>
      </trkpt>
      <trkpt lat="44.48918" lon="6.11618">
        <ele>621.40002441406</ele>
        <time>2021-09-01T10:25:04Z</time>
      </trkpt>
      <trkpt lat="44.48943" lon="6.11648">
        <ele>620</ele>
        <time>2021-09-01T10:25:08Z</time>
      </trkpt>
      <trkpt lat="44.48962" lon="6.11676">
        <ele>618.59997558594</ele>
        <time>2021-09-01T10:25:11Z</time>
      </trkpt>
      <trkpt lat="44.48975" lon="6.11697">
        <ele>617.79998779297</ele>
        <time>2021-09-01T10:25:13Z</time>
      </trkpt>
      <trkpt lat="44.48982" lon="6.11708">
        <ele>617.20001220703</ele>
        <time>2021-09-01T10:25:14Z</time>
      </trkpt>
      <trkpt lat="44.48994" lon="6.11732">
        <ele>616</ele>
        <time>2021-09-01T10:25:16Z</time>
      </trkpt>
      <trkpt lat="44.49004" lon="6.11758">
        <ele>614.79998779297</ele>
        <time>2021-09-01T10:25:18Z</time>
      </trkpt>
      <trkpt lat="44.49013" lon="6.11784">
        <ele>613.59997558594</ele>
        <time>2021-09-01T10:25:20Z</time>
      </trkpt>
      <trkpt lat="44.49022" lon="6.1181">
        <ele>612.40002441406</ele>
        <time>2021-09-01T10:25:22Z</time>
      </trkpt>
      <trkpt lat="44.49026" lon="6.11822">
        <ele>612</ele>
        <time>2021-09-01T10:25:23Z</time>
      </trkpt>
      <trkpt lat="44.49034" lon="6.11846">
        <ele>611.20001220703</ele>
        <time>2021-09-01T10:25:25Z</time>
      </trkpt>
      <trkpt lat="44.49045" lon="6.11881">
        <ele>610</ele>
        <time>2021-09-01T10:25:28Z</time>
      </trkpt>
      <trkpt lat="44.49068" lon="6.11951">
        <ele>609.20001220703</ele>
        <time>2021-09-01T10:25:35Z</time>
      </trkpt>
      <trkpt lat="44.4909" lon="6.12019">
        <ele>609.59997558594</ele>
        <time>2021-09-01T10:25:43Z</time>
      </trkpt>
      <trkpt lat="44.49112" lon="6.12087">
        <ele>609.79998779297</ele>
        <time>2021-09-01T10:25:52Z</time>
      </trkpt>
      <trkpt lat="44.49132" lon="6.12131">
        <ele>610.40002441406</ele>
        <time>2021-09-01T10:25:59Z</time>
      </trkpt>
      <trkpt lat="44.49148" lon="6.12154">
        <ele>611</ele>
        <time>2021-09-01T10:26:04Z</time>
      </trkpt>
      <trkpt lat="44.49155" lon="6.12161">
        <ele>611.20001220703</ele>
        <time>2021-09-01T10:26:06Z</time>
      </trkpt>
      <trkpt lat="44.49174" lon="6.12181">
        <ele>612.20001220703</ele>
        <time>2021-09-01T10:26:12Z</time>
      </trkpt>
      <trkpt lat="44.49176" lon="6.12184">
        <ele>612.40002441406</ele>
        <time>2021-09-01T10:26:13Z</time>
      </trkpt>
      <trkpt lat="44.4919" lon="6.122">
        <ele>613.20001220703</ele>
        <time>2021-09-01T10:26:18Z</time>
      </trkpt>
      <trkpt lat="44.492" lon="6.12215">
        <ele>613.59997558594</ele>
        <time>2021-09-01T10:26:22Z</time>
      </trkpt>
      <trkpt lat="44.49216" lon="6.12254">
        <ele>614.20001220703</ele>
        <time>2021-09-01T10:26:31Z</time>
      </trkpt>
      <trkpt lat="44.49218" lon="6.12258">
        <ele>614.20001220703</ele>
        <time>2021-09-01T10:26:32Z</time>
      </trkpt>
      <trkpt lat="44.49227" lon="6.12267">
        <ele>614.59997558594</ele>
        <time>2021-09-01T10:26:36Z</time>
      </trkpt>
      <trkpt lat="44.49237" lon="6.12265">
        <ele>615.40002441406</ele>
        <time>2021-09-01T10:26:41Z</time>
      </trkpt>
      <trkpt lat="44.49238" lon="6.12263">
        <ele>615.59997558594</ele>
        <time>2021-09-01T10:26:42Z</time>
      </trkpt>
      <trkpt lat="44.4924" lon="6.12261">
        <ele>615.79998779297</ele>
        <time>2021-09-01T10:26:43Z</time>
      </trkpt>
      <trkpt lat="44.49242" lon="6.12253">
        <ele>616.59997558594</ele>
        <time>2021-09-01T10:26:46Z</time>
      </trkpt>
      <trkpt lat="44.49243" lon="6.12251">
        <ele>616.79998779297</ele>
        <time>2021-09-01T10:26:47Z</time>
      </trkpt>
      <trkpt lat="44.49247" lon="6.12238">
        <ele>617.59997558594</ele>
        <time>2021-09-01T10:26:52Z</time>
      </trkpt>
      <trkpt lat="44.49248" lon="6.12232">
        <ele>617.79998779297</ele>
        <time>2021-09-01T10:26:54Z</time>
      </trkpt>
      <trkpt lat="44.4925" lon="6.12217">
        <ele>618.59997558594</ele>
        <time>2021-09-01T10:27:00Z</time>
      </trkpt>
      <trkpt lat="44.4925" lon="6.12214">
        <ele>618.79998779297</ele>
        <time>2021-09-01T10:27:01Z</time>
      </trkpt>
      <trkpt lat="44.4925" lon="6.12197">
        <ele>620.40002441406</ele>
        <time>2021-09-01T10:27:58Z</time>
      </trkpt>
      <trkpt lat="44.49249" lon="6.12192">
        <ele>620.40002441406</ele>
        <time>2021-09-01T10:28:00Z</time>
      </trkpt>
      <trkpt lat="44.49247" lon="6.12171">
        <ele>621</ele>
        <time>2021-09-01T10:28:07Z</time>
      </trkpt>
      <trkpt lat="44.49245" lon="6.1216">
        <ele>621.59997558594</ele>
        <time>2021-09-01T10:28:11Z</time>
      </trkpt>
      <trkpt lat="44.49244" lon="6.12148">
        <ele>622</ele>
        <time>2021-09-01T10:28:15Z</time>
      </trkpt>
      <trkpt lat="44.49241" lon="6.12134">
        <ele>622.59997558594</ele>
        <time>2021-09-01T10:28:20Z</time>
      </trkpt>
      <trkpt lat="44.4924" lon="6.12123">
        <ele>623</ele>
        <time>2021-09-01T10:28:24Z</time>
      </trkpt>
      <trkpt lat="44.49238" lon="6.12112">
        <ele>623.59997558594</ele>
        <time>2021-09-01T10:28:28Z</time>
      </trkpt>
      <trkpt lat="44.49236" lon="6.12101">
        <ele>624.20001220703</ele>
        <time>2021-09-01T10:28:32Z</time>
      </trkpt>
      <trkpt lat="44.49235" lon="6.1209">
        <ele>624.79998779297</ele>
        <time>2021-09-01T10:28:36Z</time>
      </trkpt>
      <trkpt lat="44.49233" lon="6.12076">
        <ele>625.59997558594</ele>
        <time>2021-09-01T10:28:41Z</time>
      </trkpt>
      <trkpt lat="44.49232" lon="6.12068">
        <ele>625.79998779297</ele>
        <time>2021-09-01T10:28:44Z</time>
      </trkpt>
      <trkpt lat="44.49231" lon="6.12054">
        <ele>626.59997558594</ele>
        <time>2021-09-01T10:28:49Z</time>
      </trkpt>
      <trkpt lat="44.49229" lon="6.12045">
        <ele>626.79998779297</ele>
        <time>2021-09-01T10:28:52Z</time>
      </trkpt>
      <trkpt lat="44.49228" lon="6.12029">
        <ele>627.59997558594</ele>
        <time>2021-09-01T10:28:58Z</time>
      </trkpt>
      <trkpt lat="44.49228" lon="6.12023">
        <ele>628</ele>
        <time>2021-09-01T10:29:00Z</time>
      </trkpt>
      <trkpt lat="44.49226" lon="6.12004">
        <ele>629</ele>
        <time>2021-09-01T10:29:07Z</time>
      </trkpt>
      <trkpt lat="44.49224" lon="6.11987">
        <ele>630</ele>
        <time>2021-09-01T10:29:13Z</time>
      </trkpt>
      <trkpt lat="44.49224" lon="6.11981">
        <ele>630.20001220703</ele>
        <time>2021-09-01T10:29:15Z</time>
      </trkpt>
      <trkpt lat="44.49225" lon="6.11969">
        <ele>630.79998779297</ele>
        <time>2021-09-01T10:29:19Z</time>
      </trkpt>
      <trkpt lat="44.49221" lon="6.11956">
        <ele>631.20001220703</ele>
        <time>2021-09-01T10:29:24Z</time>
      </trkpt>
      <trkpt lat="44.4922" lon="6.11953">
        <ele>631.40002441406</ele>
        <time>2021-09-01T10:29:25Z</time>
      </trkpt>
      <trkpt lat="44.49217" lon="6.11936">
        <ele>632.40002441406</ele>
        <time>2021-09-01T10:29:31Z</time>
      </trkpt>
      <trkpt lat="44.4921" lon="6.11914">
        <ele>633.40002441406</ele>
        <time>2021-09-01T10:29:39Z</time>
      </trkpt>
      <trkpt lat="44.49206" lon="6.11891">
        <ele>634.59997558594</ele>
        <time>2021-09-01T10:29:47Z</time>
      </trkpt>
      <trkpt lat="44.49204" lon="6.11871">
        <ele>635.59997558594</ele>
        <time>2021-09-01T10:29:54Z</time>
      </trkpt>
      <trkpt lat="44.49203" lon="6.11866">
        <ele>635.79998779297</ele>
        <time>2021-09-01T10:29:56Z</time>
      </trkpt>
      <trkpt lat="44.49202" lon="6.11842">
        <ele>636.79998779297</ele>
        <time>2021-09-01T10:30:04Z</time>
      </trkpt>
      <trkpt lat="44.492" lon="6.11822">
        <ele>637.79998779297</ele>
        <time>2021-09-01T10:30:11Z</time>
      </trkpt>
      <trkpt lat="44.49198" lon="6.11799">
        <ele>638.79998779297</ele>
        <time>2021-09-01T10:30:19Z</time>
      </trkpt>
      <trkpt lat="44.49198" lon="6.11796">
        <ele>638.79998779297</ele>
        <time>2021-09-01T10:30:20Z</time>
      </trkpt>
      <trkpt lat="44.49196" lon="6.11775">
        <ele>639.79998779297</ele>
        <time>2021-09-01T10:30:27Z</time>
      </trkpt>
      <trkpt lat="44.49196" lon="6.11772">
        <ele>639.79998779297</ele>
        <time>2021-09-01T10:30:28Z</time>
      </trkpt>
      <trkpt lat="44.49195" lon="6.11752">
        <ele>641</ele>
        <time>2021-09-01T10:30:35Z</time>
      </trkpt>
      <trkpt lat="44.49193" lon="6.11728">
        <ele>642</ele>
        <time>2021-09-01T10:30:43Z</time>
      </trkpt>
      <trkpt lat="44.49193" lon="6.11725">
        <ele>642.20001220703</ele>
        <time>2021-09-01T10:30:44Z</time>
      </trkpt>
      <trkpt lat="44.49188" lon="6.11704">
        <ele>642.79998779297</ele>
        <time>2021-09-01T10:30:51Z</time>
      </trkpt>
      <trkpt lat="44.49187" lon="6.11698">
        <ele>643.20001220703</ele>
        <time>2021-09-01T10:30:53Z</time>
      </trkpt>
      <trkpt lat="44.4918" lon="6.11686">
        <ele>643.79998779297</ele>
        <time>2021-09-01T10:30:58Z</time>
      </trkpt>
      <trkpt lat="44.49176" lon="6.11681">
        <ele>644.20001220703</ele>
        <time>2021-09-01T10:31:00Z</time>
      </trkpt>
      <trkpt lat="44.49168" lon="6.11672">
        <ele>645.20001220703</ele>
        <time>2021-09-01T10:31:05Z</time>
      </trkpt>
      <trkpt lat="44.49166" lon="6.1167">
        <ele>645.40002441406</ele>
        <time>2021-09-01T10:31:06Z</time>
      </trkpt>
      <trkpt lat="44.49157" lon="6.11661">
        <ele>646.40002441406</ele>
        <time>2021-09-01T10:31:11Z</time>
      </trkpt>
      <trkpt lat="44.4915" lon="6.11653">
        <ele>646.59997558594</ele>
        <time>2021-09-01T10:31:15Z</time>
      </trkpt>
      <trkpt lat="44.49138" lon="6.11643">
        <ele>647.40002441406</ele>
        <time>2021-09-01T10:31:21Z</time>
      </trkpt>
      <trkpt lat="44.49131" lon="6.11635">
        <ele>648</ele>
        <time>2021-09-01T10:31:25Z</time>
      </trkpt>
      <trkpt lat="44.49126" lon="6.11629">
        <ele>648.59997558594</ele>
        <time>2021-09-01T10:31:28Z</time>
      </trkpt>
      <trkpt lat="44.49115" lon="6.11617">
        <ele>649.40002441406</ele>
        <time>2021-09-01T10:31:34Z</time>
      </trkpt>
      <trkpt lat="44.49111" lon="6.11613">
        <ele>649.59997558594</ele>
        <time>2021-09-01T10:31:36Z</time>
      </trkpt>
      <trkpt lat="44.491" lon="6.11599">
        <ele>650.40002441406</ele>
        <time>2021-09-01T10:31:43Z</time>
      </trkpt>
      <trkpt lat="44.49095" lon="6.11591">
        <ele>650.79998779297</ele>
        <time>2021-09-01T10:31:46Z</time>
      </trkpt>
      <trkpt lat="44.49088" lon="6.11579">
        <ele>651.40002441406</ele>
        <time>2021-09-01T10:31:51Z</time>
      </trkpt>
      <trkpt lat="44.49085" lon="6.11574">
        <ele>651.79998779297</ele>
        <time>2021-09-01T10:31:53Z</time>
      </trkpt>
      <trkpt lat="44.49079" lon="6.11564">
        <ele>652.40002441406</ele>
        <time>2021-09-01T10:31:57Z</time>
      </trkpt>
      <trkpt lat="44.49073" lon="6.11555">
        <ele>652.79998779297</ele>
        <time>2021-09-01T10:32:01Z</time>
      </trkpt>
      <trkpt lat="44.49069" lon="6.11547">
        <ele>653.20001220703</ele>
        <time>2021-09-01T10:32:04Z</time>
      </trkpt>
      <trkpt lat="44.49064" lon="6.11533">
        <ele>654</ele>
        <time>2021-09-01T10:32:09Z</time>
      </trkpt>
      <trkpt lat="44.49061" lon="6.11525">
        <ele>654.59997558594</ele>
        <time>2021-09-01T10:32:12Z</time>
      </trkpt>
      <trkpt lat="44.49055" lon="6.1151">
        <ele>655</ele>
        <time>2021-09-01T10:32:17Z</time>
      </trkpt>
      <trkpt lat="44.4905" lon="6.11499">
        <ele>655.79998779297</ele>
        <time>2021-09-01T10:32:21Z</time>
      </trkpt>
      <trkpt lat="44.49046" lon="6.1149">
        <ele>656.20001220703</ele>
        <time>2021-09-01T10:32:24Z</time>
      </trkpt>
      <trkpt lat="44.49039" lon="6.11468">
        <ele>657.20001220703</ele>
        <time>2021-09-01T10:32:31Z</time>
      </trkpt>
      <trkpt lat="44.49029" lon="6.11444">
        <ele>658.20001220703</ele>
        <time>2021-09-01T10:32:39Z</time>
      </trkpt>
      <trkpt lat="44.49027" lon="6.11438">
        <ele>658.59997558594</ele>
        <time>2021-09-01T10:32:41Z</time>
      </trkpt>
      <trkpt lat="44.49021" lon="6.11424">
        <ele>659.20001220703</ele>
        <time>2021-09-01T10:32:46Z</time>
      </trkpt>
      <trkpt lat="44.49016" lon="6.11409">
        <ele>659.79998779297</ele>
        <time>2021-09-01T10:32:51Z</time>
      </trkpt>
      <trkpt lat="44.49012" lon="6.11401">
        <ele>660.40002441406</ele>
        <time>2021-09-01T10:32:54Z</time>
      </trkpt>
      <trkpt lat="44.49004" lon="6.11383">
        <ele>661.40002441406</ele>
        <time>2021-09-01T10:33:01Z</time>
      </trkpt>
      <trkpt lat="44.48998" lon="6.11363">
        <ele>662.40002441406</ele>
        <time>2021-09-01T10:33:08Z</time>
      </trkpt>
      <trkpt lat="44.48996" lon="6.11338">
        <ele>663.40002441406</ele>
        <time>2021-09-01T10:33:16Z</time>
      </trkpt>
      <trkpt lat="44.49002" lon="6.11321">
        <ele>664.40002441406</ele>
        <time>2021-09-01T10:33:22Z</time>
      </trkpt>
      <trkpt lat="44.49004" lon="6.11319">
        <ele>664.59997558594</ele>
        <time>2021-09-01T10:33:23Z</time>
      </trkpt>
      <trkpt lat="44.49005" lon="6.11317">
        <ele>664.59997558594</ele>
        <time>2021-09-01T10:33:24Z</time>
      </trkpt>
      <trkpt lat="44.49012" lon="6.11314">
        <ele>665.20001220703</ele>
        <time>2021-09-01T10:33:27Z</time>
      </trkpt>
      <trkpt lat="44.49016" lon="6.11314">
        <ele>665.59997558594</ele>
        <time>2021-09-01T10:33:29Z</time>
      </trkpt>
      <trkpt lat="44.49027" lon="6.11312">
        <ele>666.59997558594</ele>
        <time>2021-09-01T10:33:34Z</time>
      </trkpt>
      <trkpt lat="44.49031" lon="6.11311">
        <ele>666.79998779297</ele>
        <time>2021-09-01T10:33:36Z</time>
      </trkpt>
      <trkpt lat="44.49042" lon="6.1131">
        <ele>667.59997558594</ele>
        <time>2021-09-01T10:33:41Z</time>
      </trkpt>
      <trkpt lat="44.49047" lon="6.1131">
        <ele>667.79998779297</ele>
        <time>2021-09-01T10:33:43Z</time>
      </trkpt>
      <trkpt lat="44.49059" lon="6.11307">
        <ele>668.59997558594</ele>
        <time>2021-09-01T10:33:49Z</time>
      </trkpt>
      <trkpt lat="44.49065" lon="6.11306">
        <ele>669</ele>
        <time>2021-09-01T10:33:52Z</time>
      </trkpt>
      <trkpt lat="44.49074" lon="6.11305">
        <ele>669.59997558594</ele>
        <time>2021-09-01T10:33:56Z</time>
      </trkpt>
      <trkpt lat="44.49078" lon="6.11304">
        <ele>670</ele>
        <time>2021-09-01T10:33:58Z</time>
      </trkpt>
      <trkpt lat="44.49086" lon="6.11306">
        <ele>670.59997558594</ele>
        <time>2021-09-01T10:34:02Z</time>
      </trkpt>
      <trkpt lat="44.49096" lon="6.11311">
        <ele>671.20001220703</ele>
        <time>2021-09-01T10:34:07Z</time>
      </trkpt>
      <trkpt lat="44.49098" lon="6.11313">
        <ele>671.40002441406</ele>
        <time>2021-09-01T10:34:08Z</time>
      </trkpt>
      <trkpt lat="44.491" lon="6.11315">
        <ele>671.59997558594</ele>
        <time>2021-09-01T10:34:09Z</time>
      </trkpt>
      <trkpt lat="44.49107" lon="6.11323">
        <ele>672.20001220703</ele>
        <time>2021-09-01T10:34:14Z</time>
      </trkpt>
      <trkpt lat="44.49109" lon="6.11325">
        <ele>672.40002441406</ele>
        <time>2021-09-01T10:34:15Z</time>
      </trkpt>
      <trkpt lat="44.4911" lon="6.11327">
        <ele>672.59997558594</ele>
        <time>2021-09-01T10:34:16Z</time>
      </trkpt>
      <trkpt lat="44.49115" lon="6.1133">
        <ele>673.20001220703</ele>
        <time>2021-09-01T10:34:19Z</time>
      </trkpt>
      <trkpt lat="44.49119" lon="6.11331">
        <ele>673.59997558594</ele>
        <time>2021-09-01T10:34:21Z</time>
      </trkpt>
      <trkpt lat="44.49131" lon="6.11325">
        <ele>674.40002441406</ele>
        <time>2021-09-01T10:34:27Z</time>
      </trkpt>
      <trkpt lat="44.49137" lon="6.11317">
        <ele>674.79998779297</ele>
        <time>2021-09-01T10:34:31Z</time>
      </trkpt>
      <trkpt lat="44.49138" lon="6.11311">
        <ele>675.20001220703</ele>
        <time>2021-09-01T10:34:33Z</time>
      </trkpt>
      <trkpt lat="44.49139" lon="6.11309">
        <ele>675.40002441406</ele>
        <time>2021-09-01T10:34:34Z</time>
      </trkpt>
      <trkpt lat="44.49138" lon="6.11291">
        <ele>676.20001220703</ele>
        <time>2021-09-01T10:34:40Z</time>
      </trkpt>
      <trkpt lat="44.49136" lon="6.11286">
        <ele>676.59997558594</ele>
        <time>2021-09-01T10:34:42Z</time>
      </trkpt>
      <trkpt lat="44.49128" lon="6.11275">
        <ele>677.20001220703</ele>
        <time>2021-09-01T10:34:47Z</time>
      </trkpt>
      <trkpt lat="44.49119" lon="6.11265">
        <ele>677.59997558594</ele>
        <time>2021-09-01T10:34:52Z</time>
      </trkpt>
      <trkpt lat="44.49113" lon="6.11261">
        <ele>678</ele>
        <time>2021-09-01T10:34:55Z</time>
      </trkpt>
      <trkpt lat="44.49106" lon="6.11252">
        <ele>678.59997558594</ele>
        <time>2021-09-01T10:34:59Z</time>
      </trkpt>
      <trkpt lat="44.49105" lon="6.1125">
        <ele>678.59997558594</ele>
        <time>2021-09-01T10:35:00Z</time>
      </trkpt>
      <trkpt lat="44.49093" lon="6.11239">
        <ele>679.20001220703</ele>
        <time>2021-09-01T10:35:06Z</time>
      </trkpt>
      <trkpt lat="44.49088" lon="6.11233">
        <ele>679.59997558594</ele>
        <time>2021-09-01T10:35:09Z</time>
      </trkpt>
      <trkpt lat="44.49081" lon="6.11224">
        <ele>680.20001220703</ele>
        <time>2021-09-01T10:35:13Z</time>
      </trkpt>
      <trkpt lat="44.49078" lon="6.11216">
        <ele>680.59997558594</ele>
        <time>2021-09-01T10:35:16Z</time>
      </trkpt>
      <trkpt lat="44.49076" lon="6.11207">
        <ele>681</ele>
        <time>2021-09-01T10:35:19Z</time>
      </trkpt>
      <trkpt lat="44.4907" lon="6.11192">
        <ele>681.79998779297</ele>
        <time>2021-09-01T10:35:24Z</time>
      </trkpt>
      <trkpt lat="44.4907" lon="6.11186">
        <ele>682</ele>
        <time>2021-09-01T10:35:26Z</time>
      </trkpt>
      <trkpt lat="44.49068" lon="6.11171">
        <ele>682.79998779297</ele>
        <time>2021-09-01T10:35:31Z</time>
      </trkpt>
      <trkpt lat="44.49067" lon="6.11161">
        <ele>683</ele>
        <time>2021-09-01T10:35:34Z</time>
      </trkpt>
      <trkpt lat="44.49064" lon="6.11147">
        <ele>683.79998779297</ele>
        <time>2021-09-01T10:35:39Z</time>
      </trkpt>
      <trkpt lat="44.49062" lon="6.11138">
        <ele>684.40002441406</ele>
        <time>2021-09-01T10:35:42Z</time>
      </trkpt>
      <trkpt lat="44.49061" lon="6.1113">
        <ele>684.79998779297</ele>
        <time>2021-09-01T10:35:45Z</time>
      </trkpt>
      <trkpt lat="44.49058" lon="6.11115">
        <ele>685.59997558594</ele>
        <time>2021-09-01T10:35:50Z</time>
      </trkpt>
      <trkpt lat="44.49058" lon="6.11109">
        <ele>685.79998779297</ele>
        <time>2021-09-01T10:35:52Z</time>
      </trkpt>
      <trkpt lat="44.49054" lon="6.11093">
        <ele>686.59997558594</ele>
        <time>2021-09-01T10:35:57Z</time>
      </trkpt>
      <trkpt lat="44.49054" lon="6.11091">
        <ele>686.79998779297</ele>
        <time>2021-09-01T10:35:58Z</time>
      </trkpt>
      <trkpt lat="44.49054" lon="6.11088">
        <ele>686.79998779297</ele>
        <time>2021-09-01T10:35:59Z</time>
      </trkpt>
      <trkpt lat="44.49054" lon="6.11079">
        <ele>687.20001220703</ele>
        <time>2021-09-01T10:36:02Z</time>
      </trkpt>
      <trkpt lat="44.49053" lon="6.1107">
        <ele>687.59997558594</ele>
        <time>2021-09-01T10:36:05Z</time>
      </trkpt>
      <trkpt lat="44.49055" lon="6.11062">
        <ele>688</ele>
        <time>2021-09-01T10:36:08Z</time>
      </trkpt>
      <trkpt lat="44.49063" lon="6.11045">
        <ele>689</ele>
        <time>2021-09-01T10:36:15Z</time>
      </trkpt>
      <trkpt lat="44.49065" lon="6.11043">
        <ele>689.20001220703</ele>
        <time>2021-09-01T10:36:16Z</time>
      </trkpt>
      <trkpt lat="44.49073" lon="6.11028">
        <ele>690</ele>
        <time>2021-09-01T10:36:22Z</time>
      </trkpt>
      <trkpt lat="44.49076" lon="6.11024">
        <ele>690.40002441406</ele>
        <time>2021-09-01T10:36:24Z</time>
      </trkpt>
      <trkpt lat="44.49085" lon="6.11016">
        <ele>691.20001220703</ele>
        <time>2021-09-01T10:36:29Z</time>
      </trkpt>
      <trkpt lat="44.49086" lon="6.11014">
        <ele>691.40002441406</ele>
        <time>2021-09-01T10:36:30Z</time>
      </trkpt>
      <trkpt lat="44.49098" lon="6.11001">
        <ele>692.20001220703</ele>
        <time>2021-09-01T10:36:37Z</time>
      </trkpt>
      <trkpt lat="44.49099" lon="6.11">
        <ele>692.20001220703</ele>
        <time>2021-09-01T10:36:38Z</time>
      </trkpt>
      <trkpt lat="44.49114" lon="6.10993">
        <ele>693.20001220703</ele>
        <time>2021-09-01T10:36:45Z</time>
      </trkpt>
      <trkpt lat="44.49116" lon="6.10992">
        <ele>693.40002441406</ele>
        <time>2021-09-01T10:36:46Z</time>
      </trkpt>
      <trkpt lat="44.49134" lon="6.1099">
        <ele>694.40002441406</ele>
        <time>2021-09-01T10:36:54Z</time>
      </trkpt>
      <trkpt lat="44.49148" lon="6.10997">
        <ele>695.20001220703</ele>
        <time>2021-09-01T10:37:01Z</time>
      </trkpt>
      <trkpt lat="44.4915" lon="6.10998">
        <ele>695.40002441406</ele>
        <time>2021-09-01T10:37:02Z</time>
      </trkpt>
      <trkpt lat="44.49157" lon="6.11006">
        <ele>696.20001220703</ele>
        <time>2021-09-01T10:37:06Z</time>
      </trkpt>
      <trkpt lat="44.49162" lon="6.1101">
        <ele>696.59997558594</ele>
        <time>2021-09-01T10:37:09Z</time>
      </trkpt>
      <trkpt lat="44.49172" lon="6.11016">
        <ele>697.20001220703</ele>
        <time>2021-09-01T10:37:14Z</time>
      </trkpt>
      <trkpt lat="44.49178" lon="6.11021">
        <ele>697.59997558594</ele>
        <time>2021-09-01T10:37:17Z</time>
      </trkpt>
      <trkpt lat="44.49189" lon="6.11029">
        <ele>698.40002441406</ele>
        <time>2021-09-01T10:37:23Z</time>
      </trkpt>
      <trkpt lat="44.49193" lon="6.11031">
        <ele>698.59997558594</ele>
        <time>2021-09-01T10:37:25Z</time>
      </trkpt>
      <trkpt lat="44.49206" lon="6.11039">
        <ele>699.59997558594</ele>
        <time>2021-09-01T10:37:32Z</time>
      </trkpt>
      <trkpt lat="44.49208" lon="6.1104">
        <ele>699.59997558594</ele>
        <time>2021-09-01T10:37:33Z</time>
      </trkpt>
      <trkpt lat="44.49219" lon="6.11045">
        <ele>700.40002441406</ele>
        <time>2021-09-01T10:37:38Z</time>
      </trkpt>
      <trkpt lat="44.49223" lon="6.11046">
        <ele>700.79998779297</ele>
        <time>2021-09-01T10:37:40Z</time>
      </trkpt>
      <trkpt lat="44.4923" lon="6.11045">
        <ele>701.20001220703</ele>
        <time>2021-09-01T10:37:43Z</time>
      </trkpt>
      <trkpt lat="44.49239" lon="6.11043">
        <ele>701.79998779297</ele>
        <time>2021-09-01T10:37:47Z</time>
      </trkpt>
      <trkpt lat="44.49247" lon="6.11041">
        <ele>702.59997558594</ele>
        <time>2021-09-01T10:37:51Z</time>
      </trkpt>
      <trkpt lat="44.49251" lon="6.11038">
        <ele>703</ele>
        <time>2021-09-01T10:37:53Z</time>
      </trkpt>
      <trkpt lat="44.49264" lon="6.1103">
        <ele>703.79998779297</ele>
        <time>2021-09-01T10:37:59Z</time>
      </trkpt>
      <trkpt lat="44.49268" lon="6.11027">
        <ele>704.20001220703</ele>
        <time>2021-09-01T10:38:01Z</time>
      </trkpt>
      <trkpt lat="44.49282" lon="6.11017">
        <ele>705.20001220703</ele>
        <time>2021-09-01T10:38:08Z</time>
      </trkpt>
      <trkpt lat="44.49296" lon="6.11008">
        <ele>706.20001220703</ele>
        <time>2021-09-01T10:38:15Z</time>
      </trkpt>
      <trkpt lat="44.49306" lon="6.11003">
        <ele>707.20001220703</ele>
        <time>2021-09-01T10:38:20Z</time>
      </trkpt>
      <trkpt lat="44.49308" lon="6.11002">
        <ele>707.40002441406</ele>
        <time>2021-09-01T10:38:21Z</time>
      </trkpt>
      <trkpt lat="44.49325" lon="6.11">
        <ele>708.40002441406</ele>
        <time>2021-09-01T10:38:29Z</time>
      </trkpt>
      <trkpt lat="44.49338" lon="6.11012">
        <ele>709</ele>
        <time>2021-09-01T10:38:36Z</time>
      </trkpt>
      <trkpt lat="44.49342" lon="6.11019">
        <ele>709.40002441406</ele>
        <time>2021-09-01T10:38:39Z</time>
      </trkpt>
      <trkpt lat="44.49346" lon="6.1103">
        <ele>710.20001220703</ele>
        <time>2021-09-01T10:38:43Z</time>
      </trkpt>
      <trkpt lat="44.49348" lon="6.11038">
        <ele>710.59997558594</ele>
        <time>2021-09-01T10:38:46Z</time>
      </trkpt>
      <trkpt lat="44.49353" lon="6.11049">
        <ele>711</ele>
        <time>2021-09-01T10:38:50Z</time>
      </trkpt>
      <trkpt lat="44.49358" lon="6.11062">
        <ele>711.59997558594</ele>
        <time>2021-09-01T10:38:55Z</time>
      </trkpt>
      <trkpt lat="44.49365" lon="6.1107">
        <ele>712.20001220703</ele>
        <time>2021-09-01T10:38:59Z</time>
      </trkpt>
      <trkpt lat="44.49371" lon="6.11074">
        <ele>712.59997558594</ele>
        <time>2021-09-01T10:39:02Z</time>
      </trkpt>
      <trkpt lat="44.49382" lon="6.11083">
        <ele>713.40002441406</ele>
        <time>2021-09-01T10:39:08Z</time>
      </trkpt>
      <trkpt lat="44.49386" lon="6.11084">
        <ele>713.79998779297</ele>
        <time>2021-09-01T10:39:10Z</time>
      </trkpt>
      <trkpt lat="44.49394" lon="6.11086">
        <ele>714.40002441406</ele>
        <time>2021-09-01T10:39:14Z</time>
      </trkpt>
      <trkpt lat="44.49401" lon="6.11089">
        <ele>714.79998779297</ele>
        <time>2021-09-01T10:39:17Z</time>
      </trkpt>
      <trkpt lat="44.49411" lon="6.11097">
        <ele>715.59997558594</ele>
        <time>2021-09-01T10:39:22Z</time>
      </trkpt>
      <trkpt lat="44.49414" lon="6.111">
        <ele>715.79998779297</ele>
        <time>2021-09-01T10:39:24Z</time>
      </trkpt>
      <trkpt lat="44.49423" lon="6.11112">
        <ele>716.79998779297</ele>
        <time>2021-09-01T10:39:30Z</time>
      </trkpt>
      <trkpt lat="44.49423" lon="6.11115">
        <ele>717</ele>
        <time>2021-09-01T10:39:31Z</time>
      </trkpt>
      <trkpt lat="44.49423" lon="6.11118">
        <ele>717.20001220703</ele>
        <time>2021-09-01T10:39:32Z</time>
      </trkpt>
      <trkpt lat="44.49424" lon="6.11127">
        <ele>717.59997558594</ele>
        <time>2021-09-01T10:39:35Z</time>
      </trkpt>
      <trkpt lat="44.49425" lon="6.11135">
        <ele>718.20001220703</ele>
        <time>2021-09-01T10:39:38Z</time>
      </trkpt>
      <trkpt lat="44.49424" lon="6.11147">
        <ele>718.59997558594</ele>
        <time>2021-09-01T10:39:42Z</time>
      </trkpt>
      <trkpt lat="44.49421" lon="6.11156">
        <ele>719.20001220703</ele>
        <time>2021-09-01T10:39:45Z</time>
      </trkpt>
      <trkpt lat="44.49417" lon="6.11166">
        <ele>720</ele>
        <time>2021-09-01T10:39:49Z</time>
      </trkpt>
      <trkpt lat="44.49414" lon="6.1117">
        <ele>720.40002441406</ele>
        <time>2021-09-01T10:39:51Z</time>
      </trkpt>
      <trkpt lat="44.49403" lon="6.11182">
        <ele>721.40002441406</ele>
        <time>2021-09-01T10:39:57Z</time>
      </trkpt>
      <trkpt lat="44.49386" lon="6.11192">
        <ele>722.20001220703</ele>
        <time>2021-09-01T10:40:05Z</time>
      </trkpt>
      <trkpt lat="44.49379" lon="6.11196">
        <ele>722.40002441406</ele>
        <time>2021-09-01T10:40:08Z</time>
      </trkpt>
      <trkpt lat="44.49365" lon="6.11204">
        <ele>723</ele>
        <time>2021-09-01T10:40:14Z</time>
      </trkpt>
      <trkpt lat="44.49358" lon="6.11208">
        <ele>723.59997558594</ele>
        <time>2021-09-01T10:40:17Z</time>
      </trkpt>
      <trkpt lat="44.49345" lon="6.11217">
        <ele>724.40002441406</ele>
        <time>2021-09-01T10:40:23Z</time>
      </trkpt>
      <trkpt lat="44.49341" lon="6.1122">
        <ele>724.59997558594</ele>
        <time>2021-09-01T10:40:25Z</time>
      </trkpt>
      <trkpt lat="44.49331" lon="6.11228">
        <ele>725.20001220703</ele>
        <time>2021-09-01T10:40:30Z</time>
      </trkpt>
      <trkpt lat="44.49325" lon="6.11238">
        <ele>725.59997558594</ele>
        <time>2021-09-01T10:40:34Z</time>
      </trkpt>
      <trkpt lat="44.49321" lon="6.11248">
        <ele>725.79998779297</ele>
        <time>2021-09-01T10:40:37Z</time>
      </trkpt>
      <trkpt lat="44.49321" lon="6.11273">
        <ele>726.59997558594</ele>
        <time>2021-09-01T10:40:44Z</time>
      </trkpt>
      <trkpt lat="44.49322" lon="6.11276">
        <ele>726.79998779297</ele>
        <time>2021-09-01T10:40:45Z</time>
      </trkpt>
      <trkpt lat="44.49327" lon="6.11301">
        <ele>727.59997558594</ele>
        <time>2021-09-01T10:40:52Z</time>
      </trkpt>
      <trkpt lat="44.49329" lon="6.11308">
        <ele>727.79998779297</ele>
        <time>2021-09-01T10:40:54Z</time>
      </trkpt>
      <trkpt lat="44.49334" lon="6.11331">
        <ele>728.40002441406</ele>
        <time>2021-09-01T10:41:01Z</time>
      </trkpt>
      <trkpt lat="44.49337" lon="6.11344">
        <ele>729.20001220703</ele>
        <time>2021-09-01T10:41:05Z</time>
      </trkpt>
      <trkpt lat="44.49339" lon="6.11356">
        <ele>729.59997558594</ele>
        <time>2021-09-01T10:41:09Z</time>
      </trkpt>
      <trkpt lat="44.49342" lon="6.11369">
        <ele>730.20001220703</ele>
        <time>2021-09-01T10:41:13Z</time>
      </trkpt>
      <trkpt lat="44.49347" lon="6.11387">
        <ele>731.20001220703</ele>
        <time>2021-09-01T10:41:19Z</time>
      </trkpt>
      <trkpt lat="44.49348" lon="6.1139">
        <ele>731.40002441406</ele>
        <time>2021-09-01T10:41:20Z</time>
      </trkpt>
      <trkpt lat="44.49355" lon="6.11409">
        <ele>732.40002441406</ele>
        <time>2021-09-01T10:41:27Z</time>
      </trkpt>
      <trkpt lat="44.49356" lon="6.11412">
        <ele>732.59997558594</ele>
        <time>2021-09-01T10:41:28Z</time>
      </trkpt>
      <trkpt lat="44.49366" lon="6.11434">
        <ele>733.59997558594</ele>
        <time>2021-09-01T10:41:36Z</time>
      </trkpt>
      <trkpt lat="44.49374" lon="6.11454">
        <ele>734.79998779297</ele>
        <time>2021-09-01T10:41:43Z</time>
      </trkpt>
      <trkpt lat="44.49376" lon="6.1146">
        <ele>734.79998779297</ele>
        <time>2021-09-01T10:41:45Z</time>
      </trkpt>
      <trkpt lat="44.49376" lon="6.1148">
        <ele>735.79998779297</ele>
        <time>2021-09-01T10:41:51Z</time>
      </trkpt>
      <trkpt lat="44.49375" lon="6.11486">
        <ele>736.20001220703</ele>
        <time>2021-09-01T10:41:53Z</time>
      </trkpt>
      <trkpt lat="44.49371" lon="6.11501">
        <ele>737</ele>
        <time>2021-09-01T10:41:58Z</time>
      </trkpt>
      <trkpt lat="44.49366" lon="6.11512">
        <ele>737.40002441406</ele>
        <time>2021-09-01T10:42:02Z</time>
      </trkpt>
      <trkpt lat="44.49358" lon="6.11533">
        <ele>738</ele>
        <time>2021-09-01T10:42:09Z</time>
      </trkpt>
      <trkpt lat="44.49358" lon="6.11554">
        <ele>738.79998779297</ele>
        <time>2021-09-01T10:42:15Z</time>
      </trkpt>
      <trkpt lat="44.4936" lon="6.11561">
        <ele>739.20001220703</ele>
        <time>2021-09-01T10:42:17Z</time>
      </trkpt>
      <trkpt lat="44.49365" lon="6.1157">
        <ele>739.40002441406</ele>
        <time>2021-09-01T10:42:20Z</time>
      </trkpt>
      <trkpt lat="44.49376" lon="6.11581">
        <ele>739.59997558594</ele>
        <time>2021-09-01T10:42:25Z</time>
      </trkpt>
      <trkpt lat="44.49385" lon="6.11581">
        <ele>740.40002441406</ele>
        <time>2021-09-01T10:42:28Z</time>
      </trkpt>
      <trkpt lat="44.49391" lon="6.11579">
        <ele>740.59997558594</ele>
        <time>2021-09-01T10:42:30Z</time>
      </trkpt>
      <trkpt lat="44.49404" lon="6.11562">
        <ele>741.40002441406</ele>
        <time>2021-09-01T10:42:36Z</time>
      </trkpt>
      <trkpt lat="44.49409" lon="6.11542">
        <ele>742</ele>
        <time>2021-09-01T10:42:41Z</time>
      </trkpt>
      <trkpt lat="44.49413" lon="6.11516">
        <ele>742.40002441406</ele>
        <time>2021-09-01T10:42:47Z</time>
      </trkpt>
      <trkpt lat="44.49414" lon="6.11509">
        <ele>742.59997558594</ele>
        <time>2021-09-01T10:42:49Z</time>
      </trkpt>
      <trkpt lat="44.49416" lon="6.11487">
        <ele>743.40002441406</ele>
        <time>2021-09-01T10:42:55Z</time>
      </trkpt>
      <trkpt lat="44.49416" lon="6.11483">
        <ele>743.40002441406</ele>
        <time>2021-09-01T10:42:56Z</time>
      </trkpt>
      <trkpt lat="44.49416" lon="6.1146">
        <ele>744.59997558594</ele>
        <time>2021-09-01T10:43:03Z</time>
      </trkpt>
      <trkpt lat="44.49411" lon="6.11438">
        <ele>745.59997558594</ele>
        <time>2021-09-01T10:43:10Z</time>
      </trkpt>
      <trkpt lat="44.49407" lon="6.1142">
        <ele>746.59997558594</ele>
        <time>2021-09-01T10:43:16Z</time>
      </trkpt>
      <trkpt lat="44.49405" lon="6.11414">
        <ele>747</ele>
        <time>2021-09-01T10:43:18Z</time>
      </trkpt>
      <trkpt lat="44.494" lon="6.11396">
        <ele>747.79998779297</ele>
        <time>2021-09-01T10:43:24Z</time>
      </trkpt>
      <trkpt lat="44.49398" lon="6.11386">
        <ele>748.20001220703</ele>
        <time>2021-09-01T10:43:27Z</time>
      </trkpt>
      <trkpt lat="44.49399" lon="6.11376">
        <ele>748.79998779297</ele>
        <time>2021-09-01T10:43:30Z</time>
      </trkpt>
      <trkpt lat="44.49401" lon="6.1137">
        <ele>749.20001220703</ele>
        <time>2021-09-01T10:43:32Z</time>
      </trkpt>
      <trkpt lat="44.4941" lon="6.11364">
        <ele>750</ele>
        <time>2021-09-01T10:43:36Z</time>
      </trkpt>
      <trkpt lat="44.49415" lon="6.11361">
        <ele>750.40002441406</ele>
        <time>2021-09-01T10:43:38Z</time>
      </trkpt>
      <trkpt lat="44.49429" lon="6.11359">
        <ele>751</ele>
        <time>2021-09-01T10:43:44Z</time>
      </trkpt>
      <trkpt lat="44.49432" lon="6.11361">
        <ele>751.20001220703</ele>
        <time>2021-09-01T10:43:45Z</time>
      </trkpt>
      <trkpt lat="44.49446" lon="6.11368">
        <ele>751.79998779297</ele>
        <time>2021-09-01T10:43:51Z</time>
      </trkpt>
      <trkpt lat="44.4945" lon="6.1137">
        <ele>752.40002441406</ele>
        <time>2021-09-01T10:43:53Z</time>
      </trkpt>
      <trkpt lat="44.49461" lon="6.11377">
        <ele>753</ele>
        <time>2021-09-01T10:43:58Z</time>
      </trkpt>
      <trkpt lat="44.4947" lon="6.11382">
        <ele>753.40002441406</ele>
        <time>2021-09-01T10:44:02Z</time>
      </trkpt>
      <trkpt lat="44.49482" lon="6.1139">
        <ele>754.40002441406</ele>
        <time>2021-09-01T10:44:08Z</time>
      </trkpt>
      <trkpt lat="44.49498" lon="6.11399">
        <ele>755.20001220703</ele>
        <time>2021-09-01T10:44:16Z</time>
      </trkpt>
      <trkpt lat="44.49501" lon="6.114">
        <ele>755.59997558594</ele>
        <time>2021-09-01T10:44:17Z</time>
      </trkpt>
      <trkpt lat="44.49511" lon="6.11407">
        <ele>756.20001220703</ele>
        <time>2021-09-01T10:44:22Z</time>
      </trkpt>
      <trkpt lat="44.49515" lon="6.1141">
        <ele>756.59997558594</ele>
        <time>2021-09-01T10:44:24Z</time>
      </trkpt>
      <trkpt lat="44.49527" lon="6.1142">
        <ele>757.59997558594</ele>
        <time>2021-09-01T10:44:30Z</time>
      </trkpt>
      <trkpt lat="44.49538" lon="6.11431">
        <ele>758.59997558594</ele>
        <time>2021-09-01T10:44:36Z</time>
      </trkpt>
      <trkpt lat="44.49548" lon="6.11444">
        <ele>759.79998779297</ele>
        <time>2021-09-01T10:44:42Z</time>
      </trkpt>
      <trkpt lat="44.49551" lon="6.11449">
        <ele>760.20001220703</ele>
        <time>2021-09-01T10:44:44Z</time>
      </trkpt>
      <trkpt lat="44.49558" lon="6.11462">
        <ele>760.79998779297</ele>
        <time>2021-09-01T10:44:49Z</time>
      </trkpt>
      <trkpt lat="44.49564" lon="6.11472">
        <ele>761.59997558594</ele>
        <time>2021-09-01T10:44:53Z</time>
      </trkpt>
      <trkpt lat="44.49568" lon="6.1148">
        <ele>762</ele>
        <time>2021-09-01T10:44:56Z</time>
      </trkpt>
      <trkpt lat="44.49575" lon="6.11493">
        <ele>762.79998779297</ele>
        <time>2021-09-01T10:45:01Z</time>
      </trkpt>
      <trkpt lat="44.49577" lon="6.11495">
        <ele>763</ele>
        <time>2021-09-01T10:45:02Z</time>
      </trkpt>
      <trkpt lat="44.49589" lon="6.11506">
        <ele>764</ele>
        <time>2021-09-01T10:45:08Z</time>
      </trkpt>
      <trkpt lat="44.49591" lon="6.11508">
        <ele>764</ele>
        <time>2021-09-01T10:45:09Z</time>
      </trkpt>
      <trkpt lat="44.49608" lon="6.11517">
        <ele>764.79998779297</ele>
        <time>2021-09-01T10:45:15Z</time>
      </trkpt>
      <trkpt lat="44.49615" lon="6.11519">
        <ele>765.20001220703</ele>
        <time>2021-09-01T10:45:18Z</time>
      </trkpt>
      <trkpt lat="44.49626" lon="6.1152">
        <ele>765.79998779297</ele>
        <time>2021-09-01T10:45:22Z</time>
      </trkpt>
      <trkpt lat="44.49631" lon="6.11521">
        <ele>766.20001220703</ele>
        <time>2021-09-01T10:45:24Z</time>
      </trkpt>
      <trkpt lat="44.49641" lon="6.11521">
        <ele>767</ele>
        <time>2021-09-01T10:45:28Z</time>
      </trkpt>
      <trkpt lat="44.49644" lon="6.11522">
        <ele>767.20001220703</ele>
        <time>2021-09-01T10:45:29Z</time>
      </trkpt>
      <trkpt lat="44.49661" lon="6.11528">
        <ele>768.20001220703</ele>
        <time>2021-09-01T10:45:35Z</time>
      </trkpt>
      <trkpt lat="44.49675" lon="6.11535">
        <ele>769.40002441406</ele>
        <time>2021-09-01T10:45:41Z</time>
      </trkpt>
      <trkpt lat="44.49677" lon="6.11537">
        <ele>769.59997558594</ele>
        <time>2021-09-01T10:45:42Z</time>
      </trkpt>
      <trkpt lat="44.49688" lon="6.11545">
        <ele>770.40002441406</ele>
        <time>2021-09-01T10:45:47Z</time>
      </trkpt>
      <trkpt lat="44.49692" lon="6.11549">
        <ele>770.79998779297</ele>
        <time>2021-09-01T10:45:49Z</time>
      </trkpt>
      <trkpt lat="44.497" lon="6.11558">
        <ele>771.59997558594</ele>
        <time>2021-09-01T10:45:53Z</time>
      </trkpt>
      <trkpt lat="44.49706" lon="6.11568">
        <ele>772.20001220703</ele>
        <time>2021-09-01T10:45:57Z</time>
      </trkpt>
      <trkpt lat="44.49709" lon="6.11576">
        <ele>772.59997558594</ele>
        <time>2021-09-01T10:46:00Z</time>
      </trkpt>
      <trkpt lat="44.49713" lon="6.11587">
        <ele>773.59997558594</ele>
        <time>2021-09-01T10:46:04Z</time>
      </trkpt>
      <trkpt lat="44.49714" lon="6.1159">
        <ele>773.79998779297</ele>
        <time>2021-09-01T10:46:05Z</time>
      </trkpt>
      <trkpt lat="44.49723" lon="6.11599">
        <ele>774.40002441406</ele>
        <time>2021-09-01T10:46:10Z</time>
      </trkpt>
      <trkpt lat="44.49732" lon="6.11599">
        <ele>774.79998779297</ele>
        <time>2021-09-01T10:46:14Z</time>
      </trkpt>
      <trkpt lat="44.49737" lon="6.11595">
        <ele>775</ele>
        <time>2021-09-01T10:46:16Z</time>
      </trkpt>
      <trkpt lat="44.49745" lon="6.11589">
        <ele>775.79998779297</ele>
        <time>2021-09-01T10:46:20Z</time>
      </trkpt>
      <trkpt lat="44.49747" lon="6.11583">
        <ele>776.20001220703</ele>
        <time>2021-09-01T10:46:22Z</time>
      </trkpt>
      <trkpt lat="44.49748" lon="6.11565">
        <ele>776.79998779297</ele>
        <time>2021-09-01T10:46:27Z</time>
      </trkpt>
      <trkpt lat="44.49748" lon="6.11561">
        <ele>777</ele>
        <time>2021-09-01T10:46:28Z</time>
      </trkpt>
      <trkpt lat="44.49745" lon="6.11538">
        <ele>778</ele>
        <time>2021-09-01T10:46:36Z</time>
      </trkpt>
      <trkpt lat="44.49745" lon="6.11535">
        <ele>778.20001220703</ele>
        <time>2021-09-01T10:46:37Z</time>
      </trkpt>
      <trkpt lat="44.49744" lon="6.11512">
        <ele>779</ele>
        <time>2021-09-01T10:46:44Z</time>
      </trkpt>
      <trkpt lat="44.49744" lon="6.11505">
        <ele>779.40002441406</ele>
        <time>2021-09-01T10:46:46Z</time>
      </trkpt>
      <trkpt lat="44.49743" lon="6.11489">
        <ele>780.20001220703</ele>
        <time>2021-09-01T10:46:51Z</time>
      </trkpt>
      <trkpt lat="44.49742" lon="6.11486">
        <ele>780.40002441406</ele>
        <time>2021-09-01T10:46:52Z</time>
      </trkpt>
      <trkpt lat="44.49741" lon="6.11468">
        <ele>781</ele>
        <time>2021-09-01T10:46:58Z</time>
      </trkpt>
      <trkpt lat="44.49741" lon="6.11462">
        <ele>781.20001220703</ele>
        <time>2021-09-01T10:47:00Z</time>
      </trkpt>
      <trkpt lat="44.49743" lon="6.11449">
        <ele>781.79998779297</ele>
        <time>2021-09-01T10:47:04Z</time>
      </trkpt>
      <trkpt lat="44.49747" lon="6.11441">
        <ele>782.20001220703</ele>
        <time>2021-09-01T10:47:07Z</time>
      </trkpt>
      <trkpt lat="44.49753" lon="6.11433">
        <ele>782.79998779297</ele>
        <time>2021-09-01T10:47:10Z</time>
      </trkpt>
      <trkpt lat="44.49759" lon="6.11428">
        <ele>783.40002441406</ele>
        <time>2021-09-01T10:47:13Z</time>
      </trkpt>
      <trkpt lat="44.49764" lon="6.11428">
        <ele>783.59997558594</ele>
        <time>2021-09-01T10:47:15Z</time>
      </trkpt>
      <trkpt lat="44.49775" lon="6.1143">
        <ele>784.40002441406</ele>
        <time>2021-09-01T10:47:19Z</time>
      </trkpt>
      <trkpt lat="44.49782" lon="6.1143">
        <ele>784.59997558594</ele>
        <time>2021-09-01T10:47:22Z</time>
      </trkpt>
      <trkpt lat="44.49796" lon="6.11428">
        <ele>785.59997558594</ele>
        <time>2021-09-01T10:47:28Z</time>
      </trkpt>
      <trkpt lat="44.49799" lon="6.11427">
        <ele>785.59997558594</ele>
        <time>2021-09-01T10:47:29Z</time>
      </trkpt>
      <trkpt lat="44.49807" lon="6.11419">
        <ele>786.59997558594</ele>
        <time>2021-09-01T10:47:33Z</time>
      </trkpt>
      <trkpt lat="44.49812" lon="6.11413">
        <ele>787.20001220703</ele>
        <time>2021-09-01T10:47:36Z</time>
      </trkpt>
      <trkpt lat="44.49821" lon="6.11402">
        <ele>787.79998779297</ele>
        <time>2021-09-01T10:47:41Z</time>
      </trkpt>
      <trkpt lat="44.4983" lon="6.11392">
        <ele>788.59997558594</ele>
        <time>2021-09-01T10:47:46Z</time>
      </trkpt>
      <trkpt lat="44.49834" lon="6.11387">
        <ele>788.79998779297</ele>
        <time>2021-09-01T10:47:48Z</time>
      </trkpt>
      <trkpt lat="44.49847" lon="6.11373">
        <ele>790</ele>
        <time>2021-09-01T10:47:55Z</time>
      </trkpt>
      <trkpt lat="44.49849" lon="6.11371">
        <ele>790</ele>
        <time>2021-09-01T10:47:56Z</time>
      </trkpt>
      <trkpt lat="44.49861" lon="6.11361">
        <ele>791</ele>
        <time>2021-09-01T10:48:02Z</time>
      </trkpt>
      <trkpt lat="44.49865" lon="6.11357">
        <ele>791.20001220703</ele>
        <time>2021-09-01T10:48:04Z</time>
      </trkpt>
      <trkpt lat="44.49876" lon="6.11351">
        <ele>792</ele>
        <time>2021-09-01T10:48:09Z</time>
      </trkpt>
      <trkpt lat="44.4988" lon="6.11349">
        <ele>792.20001220703</ele>
        <time>2021-09-01T10:48:11Z</time>
      </trkpt>
      <trkpt lat="44.49892" lon="6.11345">
        <ele>793</ele>
        <time>2021-09-01T10:48:16Z</time>
      </trkpt>
      <trkpt lat="44.49894" lon="6.11344">
        <ele>793.20001220703</ele>
        <time>2021-09-01T10:48:17Z</time>
      </trkpt>
      <trkpt lat="44.49903" lon="6.1134">
        <ele>794.20001220703</ele>
        <time>2021-09-01T10:48:21Z</time>
      </trkpt>
      <trkpt lat="44.49915" lon="6.11336">
        <ele>794.79998779297</ele>
        <time>2021-09-01T10:48:26Z</time>
      </trkpt>
      <trkpt lat="44.49922" lon="6.11332">
        <ele>795.20001220703</ele>
        <time>2021-09-01T10:48:29Z</time>
      </trkpt>
      <trkpt lat="44.49933" lon="6.11327">
        <ele>796.20001220703</ele>
        <time>2021-09-01T10:48:34Z</time>
      </trkpt>
      <trkpt lat="44.49936" lon="6.11327">
        <ele>796.40002441406</ele>
        <time>2021-09-01T10:48:35Z</time>
      </trkpt>
      <trkpt lat="44.49952" lon="6.11326">
        <ele>797.59997558594</ele>
        <time>2021-09-01T10:48:42Z</time>
      </trkpt>
      <trkpt lat="44.49954" lon="6.11325">
        <ele>797.79998779297</ele>
        <time>2021-09-01T10:48:43Z</time>
      </trkpt>
      <trkpt lat="44.49966" lon="6.11322">
        <ele>798.59997558594</ele>
        <time>2021-09-01T10:48:48Z</time>
      </trkpt>
      <trkpt lat="44.4997" lon="6.11321">
        <ele>799</ele>
        <time>2021-09-01T10:48:50Z</time>
      </trkpt>
      <trkpt lat="44.49984" lon="6.11319">
        <ele>799.79998779297</ele>
        <time>2021-09-01T10:48:56Z</time>
      </trkpt>
      <trkpt lat="44.4999" lon="6.11319">
        <ele>800</ele>
        <time>2021-09-01T10:48:59Z</time>
      </trkpt>
      <trkpt lat="44.50003" lon="6.11318">
        <ele>800.79998779297</ele>
        <time>2021-09-01T10:49:05Z</time>
      </trkpt>
      <trkpt lat="44.50007" lon="6.11318">
        <ele>801.40002441406</ele>
        <time>2021-09-01T10:49:07Z</time>
      </trkpt>
      <trkpt lat="44.50017" lon="6.11316">
        <ele>802</ele>
        <time>2021-09-01T10:49:12Z</time>
      </trkpt>
      <trkpt lat="44.50026" lon="6.11315">
        <ele>802.59997558594</ele>
        <time>2021-09-01T10:49:16Z</time>
      </trkpt>
      <trkpt lat="44.50032" lon="6.11313">
        <ele>803</ele>
        <time>2021-09-01T10:49:19Z</time>
      </trkpt>
      <trkpt lat="44.50039" lon="6.11303">
        <ele>803.59997558594</ele>
        <time>2021-09-01T10:49:23Z</time>
      </trkpt>
      <trkpt lat="44.50042" lon="6.11294">
        <ele>804.20001220703</ele>
        <time>2021-09-01T10:49:26Z</time>
      </trkpt>
      <trkpt lat="44.50044" lon="6.11285">
        <ele>804.59997558594</ele>
        <time>2021-09-01T10:49:29Z</time>
      </trkpt>
      <trkpt lat="44.50043" lon="6.11272">
        <ele>805.20001220703</ele>
        <time>2021-09-01T10:49:33Z</time>
      </trkpt>
      <trkpt lat="44.50041" lon="6.11269">
        <ele>805.20001220703</ele>
        <time>2021-09-01T10:49:34Z</time>
      </trkpt>
      <trkpt lat="44.50028" lon="6.11249">
        <ele>805.79998779297</ele>
        <time>2021-09-01T10:49:43Z</time>
      </trkpt>
      <trkpt lat="44.50023" lon="6.11243">
        <ele>806.20001220703</ele>
        <time>2021-09-01T10:49:46Z</time>
      </trkpt>
      <trkpt lat="44.50016" lon="6.11236">
        <ele>806.79998779297</ele>
        <time>2021-09-01T10:49:50Z</time>
      </trkpt>
      <trkpt lat="44.5001" lon="6.11228">
        <ele>807.40002441406</ele>
        <time>2021-09-01T10:49:54Z</time>
      </trkpt>
      <trkpt lat="44.50005" lon="6.11221">
        <ele>808.20001220703</ele>
        <time>2021-09-01T10:49:57Z</time>
      </trkpt>
      <trkpt lat="44.50002" lon="6.11218">
        <ele>808.40002441406</ele>
        <time>2021-09-01T10:49:59Z</time>
      </trkpt>
      <trkpt lat="44.49994" lon="6.11208">
        <ele>809</ele>
        <time>2021-09-01T10:50:04Z</time>
      </trkpt>
      <trkpt lat="44.49988" lon="6.11195">
        <ele>809.59997558594</ele>
        <time>2021-09-01T10:50:09Z</time>
      </trkpt>
      <trkpt lat="44.49985" lon="6.11185">
        <ele>810</ele>
        <time>2021-09-01T10:50:13Z</time>
      </trkpt>
      <trkpt lat="44.49985" lon="6.11173">
        <ele>810.79998779297</ele>
        <time>2021-09-01T10:50:17Z</time>
      </trkpt>
      <trkpt lat="44.49988" lon="6.11164">
        <ele>811.20001220703</ele>
        <time>2021-09-01T10:50:20Z</time>
      </trkpt>
      <trkpt lat="44.49993" lon="6.11156">
        <ele>811.79998779297</ele>
        <time>2021-09-01T10:50:24Z</time>
      </trkpt>
      <trkpt lat="44.49999" lon="6.1115">
        <ele>812.40002441406</ele>
        <time>2021-09-01T10:50:27Z</time>
      </trkpt>
      <trkpt lat="44.50004" lon="6.11145">
        <ele>813</ele>
        <time>2021-09-01T10:50:30Z</time>
      </trkpt>
      <trkpt lat="44.50016" lon="6.1114">
        <ele>813.59997558594</ele>
        <time>2021-09-01T10:50:36Z</time>
      </trkpt>
      <trkpt lat="44.5002" lon="6.1114">
        <ele>814</ele>
        <time>2021-09-01T10:50:38Z</time>
      </trkpt>
      <trkpt lat="44.50034" lon="6.11141">
        <ele>815.20001220703</ele>
        <time>2021-09-01T10:50:44Z</time>
      </trkpt>
      <trkpt lat="44.50052" lon="6.11145">
        <ele>816</ele>
        <time>2021-09-01T10:50:52Z</time>
      </trkpt>
      <trkpt lat="44.50054" lon="6.11144">
        <ele>816.20001220703</ele>
        <time>2021-09-01T10:50:53Z</time>
      </trkpt>
      <trkpt lat="44.50066" lon="6.11148">
        <ele>817</ele>
        <time>2021-09-01T10:50:58Z</time>
      </trkpt>
      <trkpt lat="44.50073" lon="6.11149">
        <ele>817.20001220703</ele>
        <time>2021-09-01T10:51:01Z</time>
      </trkpt>
      <trkpt lat="44.50083" lon="6.1115">
        <ele>818</ele>
        <time>2021-09-01T10:51:06Z</time>
      </trkpt>
      <trkpt lat="44.50085" lon="6.1115">
        <ele>818.40002441406</ele>
        <time>2021-09-01T10:51:07Z</time>
      </trkpt>
      <trkpt lat="44.50096" lon="6.11153">
        <ele>819.20001220703</ele>
        <time>2021-09-01T10:51:12Z</time>
      </trkpt>
      <trkpt lat="44.50101" lon="6.11153">
        <ele>819.59997558594</ele>
        <time>2021-09-01T10:51:14Z</time>
      </trkpt>
      <trkpt lat="44.50114" lon="6.11152">
        <ele>820.40002441406</ele>
        <time>2021-09-01T10:51:20Z</time>
      </trkpt>
      <trkpt lat="44.50116" lon="6.11151">
        <ele>820.59997558594</ele>
        <time>2021-09-01T10:51:21Z</time>
      </trkpt>
      <trkpt lat="44.50132" lon="6.11144">
        <ele>821.79998779297</ele>
        <time>2021-09-01T10:51:28Z</time>
      </trkpt>
      <trkpt lat="44.50145" lon="6.1114">
        <ele>822.79998779297</ele>
        <time>2021-09-01T10:51:34Z</time>
      </trkpt>
      <trkpt lat="44.50153" lon="6.11139">
        <ele>823.20001220703</ele>
        <time>2021-09-01T10:51:38Z</time>
      </trkpt>
      <trkpt lat="44.5016" lon="6.11139">
        <ele>823.79998779297</ele>
        <time>2021-09-01T10:51:41Z</time>
      </trkpt>
      <trkpt lat="44.50171" lon="6.11141">
        <ele>824.40002441406</ele>
        <time>2021-09-01T10:51:46Z</time>
      </trkpt>
      <trkpt lat="44.50178" lon="6.11142">
        <ele>824.79998779297</ele>
        <time>2021-09-01T10:51:49Z</time>
      </trkpt>
      <trkpt lat="44.50193" lon="6.11144">
        <ele>825.79998779297</ele>
        <time>2021-09-01T10:51:56Z</time>
      </trkpt>
      <trkpt lat="44.50212" lon="6.11149">
        <ele>827</ele>
        <time>2021-09-01T10:52:04Z</time>
      </trkpt>
      <trkpt lat="44.50229" lon="6.11154">
        <ele>827.79998779297</ele>
        <time>2021-09-01T10:52:11Z</time>
      </trkpt>
      <trkpt lat="44.50232" lon="6.11155">
        <ele>828</ele>
        <time>2021-09-01T10:52:12Z</time>
      </trkpt>
      <trkpt lat="44.50247" lon="6.11155">
        <ele>829</ele>
        <time>2021-09-01T10:52:19Z</time>
      </trkpt>
      <trkpt lat="44.50259" lon="6.11161">
        <ele>829.79998779297</ele>
        <time>2021-09-01T10:52:24Z</time>
      </trkpt>
      <trkpt lat="44.50269" lon="6.11162">
        <ele>830.20001220703</ele>
        <time>2021-09-01T10:52:28Z</time>
      </trkpt>
      <trkpt lat="44.50281" lon="6.11164">
        <ele>830.79998779297</ele>
        <time>2021-09-01T10:52:33Z</time>
      </trkpt>
      <trkpt lat="44.50289" lon="6.11164">
        <ele>831.20001220703</ele>
        <time>2021-09-01T10:52:36Z</time>
      </trkpt>
      <trkpt lat="44.50304" lon="6.11162">
        <ele>832.20001220703</ele>
        <time>2021-09-01T10:52:42Z</time>
      </trkpt>
      <trkpt lat="44.50319" lon="6.11163">
        <ele>833.40002441406</ele>
        <time>2021-09-01T10:52:48Z</time>
      </trkpt>
      <trkpt lat="44.50324" lon="6.11163">
        <ele>833.79998779297</ele>
        <time>2021-09-01T10:52:50Z</time>
      </trkpt>
      <trkpt lat="44.50338" lon="6.11162">
        <ele>834.59997558594</ele>
        <time>2021-09-01T10:52:56Z</time>
      </trkpt>
      <trkpt lat="44.50341" lon="6.11161">
        <ele>834.59997558594</ele>
        <time>2021-09-01T10:52:57Z</time>
      </trkpt>
      <trkpt lat="44.50357" lon="6.11158">
        <ele>835.59997558594</ele>
        <time>2021-09-01T10:53:04Z</time>
      </trkpt>
      <trkpt lat="44.50371" lon="6.11151">
        <ele>836.59997558594</ele>
        <time>2021-09-01T10:53:10Z</time>
      </trkpt>
      <trkpt lat="44.50384" lon="6.11147">
        <ele>837.40002441406</ele>
        <time>2021-09-01T10:53:16Z</time>
      </trkpt>
      <trkpt lat="44.50391" lon="6.11144">
        <ele>837.79998779297</ele>
        <time>2021-09-01T10:53:19Z</time>
      </trkpt>
      <trkpt lat="44.50397" lon="6.11136">
        <ele>838.40002441406</ele>
        <time>2021-09-01T10:53:23Z</time>
      </trkpt>
      <trkpt lat="44.50402" lon="6.11131">
        <ele>838.79998779297</ele>
        <time>2021-09-01T10:53:26Z</time>
      </trkpt>
      <trkpt lat="44.50405" lon="6.11126">
        <ele>839.20001220703</ele>
        <time>2021-09-01T10:53:28Z</time>
      </trkpt>
      <trkpt lat="44.5041" lon="6.11117">
        <ele>840</ele>
        <time>2021-09-01T10:53:32Z</time>
      </trkpt>
      <trkpt lat="44.50412" lon="6.11111">
        <ele>840.20001220703</ele>
        <time>2021-09-01T10:53:34Z</time>
      </trkpt>
      <trkpt lat="44.5042" lon="6.11094">
        <ele>841</ele>
        <time>2021-09-01T10:53:41Z</time>
      </trkpt>
      <trkpt lat="44.50422" lon="6.11088">
        <ele>841.40002441406</ele>
        <time>2021-09-01T10:53:43Z</time>
      </trkpt>
      <trkpt lat="44.50427" lon="6.11073">
        <ele>842.20001220703</ele>
        <time>2021-09-01T10:53:49Z</time>
      </trkpt>
      <trkpt lat="44.50428" lon="6.11071">
        <ele>842.40002441406</ele>
        <time>2021-09-01T10:53:50Z</time>
      </trkpt>
      <trkpt lat="44.50434" lon="6.11061">
        <ele>843.20001220703</ele>
        <time>2021-09-01T10:53:55Z</time>
      </trkpt>
      <trkpt lat="44.50435" lon="6.11059">
        <ele>843.40002441406</ele>
        <time>2021-09-01T10:53:56Z</time>
      </trkpt>
      <trkpt lat="44.50439" lon="6.11044">
        <ele>844.20001220703</ele>
        <time>2021-09-01T10:54:01Z</time>
      </trkpt>
      <trkpt lat="44.50443" lon="6.11032">
        <ele>844.79998779297</ele>
        <time>2021-09-01T10:54:05Z</time>
      </trkpt>
      <trkpt lat="44.5045" lon="6.11023">
        <ele>845.40002441406</ele>
        <time>2021-09-01T10:54:09Z</time>
      </trkpt>
      <trkpt lat="44.50455" lon="6.11017">
        <ele>845.59997558594</ele>
        <time>2021-09-01T10:54:12Z</time>
      </trkpt>
      <trkpt lat="44.50461" lon="6.11012">
        <ele>846.20001220703</ele>
        <time>2021-09-01T10:54:17Z</time>
      </trkpt>
      <trkpt lat="44.50465" lon="6.1101">
        <ele>846.40002441406</ele>
        <time>2021-09-01T10:54:19Z</time>
      </trkpt>
      <trkpt lat="44.50466" lon="6.11008">
        <ele>846.40002441406</ele>
        <time>2021-09-01T10:54:20Z</time>
      </trkpt>
      <trkpt lat="44.50466" lon="6.11004">
        <ele>846.40002441406</ele>
        <time>2021-09-01T10:54:22Z</time>
      </trkpt>
      <trkpt lat="44.50467" lon="6.11003">
        <ele>846.40002441406</ele>
        <time>2021-09-01T10:54:23Z</time>
      </trkpt>
      <trkpt lat="44.50466" lon="6.11007">
        <ele>846.59997558594</ele>
        <time>2021-09-01T11:02:21Z</time>
      </trkpt>
      <trkpt lat="44.50465" lon="6.1101">
        <ele>846.59997558594</ele>
        <time>2021-09-01T11:02:22Z</time>
      </trkpt>
      <trkpt lat="44.50455" lon="6.11028">
        <ele>847</ele>
        <time>2021-09-01T11:02:30Z</time>
      </trkpt>
      <trkpt lat="44.5045" lon="6.11039">
        <ele>847.40002441406</ele>
        <time>2021-09-01T11:02:35Z</time>
      </trkpt>
      <trkpt lat="44.5045" lon="6.11042">
        <ele>847.59997558594</ele>
        <time>2021-09-01T11:02:36Z</time>
      </trkpt>
      <trkpt lat="44.50444" lon="6.11052">
        <ele>848.20001220703</ele>
        <time>2021-09-01T11:02:42Z</time>
      </trkpt>
      <trkpt lat="44.50445" lon="6.11055">
        <ele>848.20001220703</ele>
        <time>2021-09-01T11:02:43Z</time>
      </trkpt>
      <trkpt lat="44.50449" lon="6.11054">
        <ele>848.59997558594</ele>
        <time>2021-09-01T11:02:46Z</time>
      </trkpt>
      <trkpt lat="44.50448" lon="6.11046">
        <ele>848.79998779297</ele>
        <time>2021-09-01T11:02:49Z</time>
      </trkpt>
      <trkpt lat="44.50448" lon="6.11042">
        <ele>848.79998779297</ele>
        <time>2021-09-01T11:02:50Z</time>
      </trkpt>
      <trkpt lat="44.50451" lon="6.11035">
        <ele>848.79998779297</ele>
        <time>2021-09-01T11:02:52Z</time>
      </trkpt>
      <trkpt lat="44.50454" lon="6.11027">
        <ele>848.59997558594</ele>
        <time>2021-09-01T11:02:54Z</time>
      </trkpt>
      <trkpt lat="44.50463" lon="6.11015">
        <ele>848.40002441406</ele>
        <time>2021-09-01T11:02:57Z</time>
      </trkpt>
      <trkpt lat="44.50467" lon="6.11011">
        <ele>848.20001220703</ele>
        <time>2021-09-01T11:02:58Z</time>
      </trkpt>
      <trkpt lat="44.50481" lon="6.11008">
        <ele>847.59997558594</ele>
        <time>2021-09-01T11:03:02Z</time>
      </trkpt>
      <trkpt lat="44.50484" lon="6.11006">
        <ele>847.59997558594</ele>
        <time>2021-09-01T11:03:03Z</time>
      </trkpt>
      <trkpt lat="44.50497" lon="6.11002">
        <ele>848</ele>
        <time>2021-09-01T11:03:08Z</time>
      </trkpt>
      <trkpt lat="44.50512" lon="6.10996">
        <ele>848.79998779297</ele>
        <time>2021-09-01T11:03:14Z</time>
      </trkpt>
      <trkpt lat="44.50538" lon="6.1099">
        <ele>849</ele>
        <time>2021-09-01T11:03:21Z</time>
      </trkpt>
      <trkpt lat="44.50569" lon="6.10983">
        <ele>849.20001220703</ele>
        <time>2021-09-01T11:03:29Z</time>
      </trkpt>
      <trkpt lat="44.50597" lon="6.10975">
        <ele>849.40002441406</ele>
        <time>2021-09-01T11:03:37Z</time>
      </trkpt>
      <trkpt lat="44.50601" lon="6.10974">
        <ele>849.59997558594</ele>
        <time>2021-09-01T11:03:38Z</time>
      </trkpt>
      <trkpt lat="44.50623" lon="6.10968">
        <ele>850.40002441406</ele>
        <time>2021-09-01T11:03:45Z</time>
      </trkpt>
      <trkpt lat="44.50632" lon="6.10966">
        <ele>850.59997558594</ele>
        <time>2021-09-01T11:03:48Z</time>
      </trkpt>
      <trkpt lat="44.50645" lon="6.10962">
        <ele>851.40002441406</ele>
        <time>2021-09-01T11:03:53Z</time>
      </trkpt>
      <trkpt lat="44.5065" lon="6.1096">
        <ele>851.79998779297</ele>
        <time>2021-09-01T11:03:55Z</time>
      </trkpt>
      <trkpt lat="44.50664" lon="6.10955">
        <ele>852.79998779297</ele>
        <time>2021-09-01T11:04:01Z</time>
      </trkpt>
      <trkpt lat="44.50679" lon="6.10951">
        <ele>853.79998779297</ele>
        <time>2021-09-01T11:04:08Z</time>
      </trkpt>
      <trkpt lat="44.50681" lon="6.10951">
        <ele>854</ele>
        <time>2021-09-01T11:04:09Z</time>
      </trkpt>
      <trkpt lat="44.507" lon="6.10945">
        <ele>854.79998779297</ele>
        <time>2021-09-01T11:04:17Z</time>
      </trkpt>
      <trkpt lat="44.50719" lon="6.10939">
        <ele>855</ele>
        <time>2021-09-01T11:04:24Z</time>
      </trkpt>
      <trkpt lat="44.50727" lon="6.10937">
        <ele>855.20001220703</ele>
        <time>2021-09-01T11:04:27Z</time>
      </trkpt>
      <trkpt lat="44.5075" lon="6.10931">
        <ele>855.40002441406</ele>
        <time>2021-09-01T11:04:37Z</time>
      </trkpt>
      <trkpt lat="44.50753" lon="6.10931">
        <ele>855.20001220703</ele>
        <time>2021-09-01T11:07:17Z</time>
      </trkpt>
      <trkpt lat="44.50758" lon="6.1093">
        <ele>855.20001220703</ele>
        <time>2021-09-01T11:07:19Z</time>
      </trkpt>
      <trkpt lat="44.5078" lon="6.10925">
        <ele>855.59997558594</ele>
        <time>2021-09-01T11:07:26Z</time>
      </trkpt>
      <trkpt lat="44.50808" lon="6.10917">
        <ele>855.79998779297</ele>
        <time>2021-09-01T11:07:33Z</time>
      </trkpt>
      <trkpt lat="44.50832" lon="6.1091">
        <ele>856</ele>
        <time>2021-09-01T11:07:39Z</time>
      </trkpt>
      <trkpt lat="44.50836" lon="6.10909">
        <ele>856</ele>
        <time>2021-09-01T11:07:40Z</time>
      </trkpt>
      <trkpt lat="44.50868" lon="6.10897">
        <ele>856.59997558594</ele>
        <time>2021-09-01T11:07:49Z</time>
      </trkpt>
      <trkpt lat="44.5088" lon="6.10891">
        <ele>857</ele>
        <time>2021-09-01T11:07:53Z</time>
      </trkpt>
      <trkpt lat="44.50891" lon="6.10886">
        <ele>857.79998779297</ele>
        <time>2021-09-01T11:07:57Z</time>
      </trkpt>
      <trkpt lat="44.50896" lon="6.10881">
        <ele>858</ele>
        <time>2021-09-01T11:07:59Z</time>
      </trkpt>
      <trkpt lat="44.50908" lon="6.10868">
        <ele>858.59997558594</ele>
        <time>2021-09-01T11:08:04Z</time>
      </trkpt>
      <trkpt lat="44.5092" lon="6.10855">
        <ele>859.20001220703</ele>
        <time>2021-09-01T11:08:09Z</time>
      </trkpt>
      <trkpt lat="44.50924" lon="6.10848">
        <ele>859.40002441406</ele>
        <time>2021-09-01T11:08:11Z</time>
      </trkpt>
      <trkpt lat="44.50937" lon="6.10829">
        <ele>860.20001220703</ele>
        <time>2021-09-01T11:08:18Z</time>
      </trkpt>
      <trkpt lat="44.5094" lon="6.10824">
        <ele>860.59997558594</ele>
        <time>2021-09-01T11:08:20Z</time>
      </trkpt>
      <trkpt lat="44.50948" lon="6.10812">
        <ele>861.20001220703</ele>
        <time>2021-09-01T11:08:25Z</time>
      </trkpt>
      <trkpt lat="44.50954" lon="6.10803">
        <ele>862</ele>
        <time>2021-09-01T11:08:29Z</time>
      </trkpt>
      <trkpt lat="44.50958" lon="6.10796">
        <ele>862.40002441406</ele>
        <time>2021-09-01T11:08:32Z</time>
      </trkpt>
      <trkpt lat="44.50966" lon="6.10782">
        <ele>863.20001220703</ele>
        <time>2021-09-01T11:08:38Z</time>
      </trkpt>
      <trkpt lat="44.5097" lon="6.10775">
        <ele>863.40002441406</ele>
        <time>2021-09-01T11:08:41Z</time>
      </trkpt>
      <trkpt lat="44.50976" lon="6.10767">
        <ele>864.20001220703</ele>
        <time>2021-09-01T11:08:45Z</time>
      </trkpt>
      <trkpt lat="44.50979" lon="6.10763">
        <ele>864.59997558594</ele>
        <time>2021-09-01T11:08:47Z</time>
      </trkpt>
      <trkpt lat="44.50988" lon="6.10746">
        <ele>865.40002441406</ele>
        <time>2021-09-01T11:08:54Z</time>
      </trkpt>
      <trkpt lat="44.50989" lon="6.10744">
        <ele>865.59997558594</ele>
        <time>2021-09-01T11:08:55Z</time>
      </trkpt>
      <trkpt lat="44.50999" lon="6.10726">
        <ele>866.59997558594</ele>
        <time>2021-09-01T11:09:03Z</time>
      </trkpt>
      <trkpt lat="44.51009" lon="6.10711">
        <ele>867.59997558594</ele>
        <time>2021-09-01T11:09:10Z</time>
      </trkpt>
      <trkpt lat="44.51012" lon="6.10708">
        <ele>867.79998779297</ele>
        <time>2021-09-01T11:09:12Z</time>
      </trkpt>
      <trkpt lat="44.51017" lon="6.10698">
        <ele>868.40002441406</ele>
        <time>2021-09-01T11:09:16Z</time>
      </trkpt>
      <trkpt lat="44.51023" lon="6.1069">
        <ele>868.79998779297</ele>
        <time>2021-09-01T11:09:20Z</time>
      </trkpt>
      <trkpt lat="44.51027" lon="6.10684">
        <ele>869.20001220703</ele>
        <time>2021-09-01T11:09:23Z</time>
      </trkpt>
      <trkpt lat="44.51034" lon="6.10675">
        <ele>869.79998779297</ele>
        <time>2021-09-01T11:09:28Z</time>
      </trkpt>
      <trkpt lat="44.51038" lon="6.10669">
        <ele>870.20001220703</ele>
        <time>2021-09-01T11:09:31Z</time>
      </trkpt>
      <trkpt lat="44.51043" lon="6.10658">
        <ele>871</ele>
        <time>2021-09-01T11:09:36Z</time>
      </trkpt>
      <trkpt lat="44.51046" lon="6.10654">
        <ele>871.20001220703</ele>
        <time>2021-09-01T11:09:38Z</time>
      </trkpt>
      <trkpt lat="44.51052" lon="6.10639">
        <ele>872</ele>
        <time>2021-09-01T11:09:44Z</time>
      </trkpt>
      <trkpt lat="44.51054" lon="6.10632">
        <ele>872.40002441406</ele>
        <time>2021-09-01T11:09:47Z</time>
      </trkpt>
      <trkpt lat="44.51057" lon="6.10621">
        <ele>873</ele>
        <time>2021-09-01T11:09:51Z</time>
      </trkpt>
      <trkpt lat="44.51059" lon="6.10614">
        <ele>873.20001220703</ele>
        <time>2021-09-01T11:09:53Z</time>
      </trkpt>
      <trkpt lat="44.51062" lon="6.10594">
        <ele>874.20001220703</ele>
        <time>2021-09-01T11:10:00Z</time>
      </trkpt>
      <trkpt lat="44.51062" lon="6.10591">
        <ele>874.40002441406</ele>
        <time>2021-09-01T11:10:01Z</time>
      </trkpt>
      <trkpt lat="44.51064" lon="6.10568">
        <ele>875.20001220703</ele>
        <time>2021-09-01T11:10:09Z</time>
      </trkpt>
      <trkpt lat="44.51063" lon="6.10541">
        <ele>876.20001220703</ele>
        <time>2021-09-01T11:10:18Z</time>
      </trkpt>
      <trkpt lat="44.51063" lon="6.10538">
        <ele>876.20001220703</ele>
        <time>2021-09-01T11:10:19Z</time>
      </trkpt>
      <trkpt lat="44.51061" lon="6.1052">
        <ele>877.40002441406</ele>
        <time>2021-09-01T11:10:25Z</time>
      </trkpt>
      <trkpt lat="44.51061" lon="6.10511">
        <ele>877.79998779297</ele>
        <time>2021-09-01T11:10:28Z</time>
      </trkpt>
      <trkpt lat="44.51061" lon="6.10497">
        <ele>878.40002441406</ele>
        <time>2021-09-01T11:10:33Z</time>
      </trkpt>
      <trkpt lat="44.5106" lon="6.10488">
        <ele>879</ele>
        <time>2021-09-01T11:10:36Z</time>
      </trkpt>
      <trkpt lat="44.51059" lon="6.10475">
        <ele>879.59997558594</ele>
        <time>2021-09-01T11:10:40Z</time>
      </trkpt>
      <trkpt lat="44.5106" lon="6.1046">
        <ele>880.20001220703</ele>
        <time>2021-09-01T11:10:45Z</time>
      </trkpt>
      <trkpt lat="44.51061" lon="6.10451">
        <ele>880.79998779297</ele>
        <time>2021-09-01T11:10:48Z</time>
      </trkpt>
      <trkpt lat="44.51063" lon="6.10435">
        <ele>881.20001220703</ele>
        <time>2021-09-01T11:10:53Z</time>
      </trkpt>
      <trkpt lat="44.51066" lon="6.10423">
        <ele>881.79998779297</ele>
        <time>2021-09-01T11:10:57Z</time>
      </trkpt>
      <trkpt lat="44.51072" lon="6.10409">
        <ele>882.59997558594</ele>
        <time>2021-09-01T11:11:02Z</time>
      </trkpt>
      <trkpt lat="44.51075" lon="6.10403">
        <ele>883</ele>
        <time>2021-09-01T11:11:04Z</time>
      </trkpt>
      <trkpt lat="44.51082" lon="6.10392">
        <ele>884</ele>
        <time>2021-09-01T11:11:09Z</time>
      </trkpt>
      <trkpt lat="44.51085" lon="6.10387">
        <ele>884.40002441406</ele>
        <time>2021-09-01T11:11:11Z</time>
      </trkpt>
      <trkpt lat="44.51095" lon="6.10374">
        <ele>885.20001220703</ele>
        <time>2021-09-01T11:11:17Z</time>
      </trkpt>
      <trkpt lat="44.51098" lon="6.10369">
        <ele>885.59997558594</ele>
        <time>2021-09-01T11:11:19Z</time>
      </trkpt>
      <trkpt lat="44.51107" lon="6.10356">
        <ele>886.20001220703</ele>
        <time>2021-09-01T11:11:25Z</time>
      </trkpt>
      <trkpt lat="44.51113" lon="6.10347">
        <ele>886.59997558594</ele>
        <time>2021-09-01T11:11:29Z</time>
      </trkpt>
      <trkpt lat="44.51119" lon="6.10338">
        <ele>887.40002441406</ele>
        <time>2021-09-01T11:11:33Z</time>
      </trkpt>
      <trkpt lat="44.51124" lon="6.10328">
        <ele>887.79998779297</ele>
        <time>2021-09-01T11:11:37Z</time>
      </trkpt>
      <trkpt lat="44.51129" lon="6.10321">
        <ele>888.40002441406</ele>
        <time>2021-09-01T11:11:40Z</time>
      </trkpt>
      <trkpt lat="44.51134" lon="6.10317">
        <ele>889</ele>
        <time>2021-09-01T11:11:43Z</time>
      </trkpt>
      <trkpt lat="44.51137" lon="6.10312">
        <ele>889.40002441406</ele>
        <time>2021-09-01T11:11:45Z</time>
      </trkpt>
      <trkpt lat="44.5114" lon="6.10301">
        <ele>890</ele>
        <time>2021-09-01T11:11:49Z</time>
      </trkpt>
      <trkpt lat="44.51145" lon="6.10296">
        <ele>890.40002441406</ele>
        <time>2021-09-01T11:11:52Z</time>
      </trkpt>
      <trkpt lat="44.51149" lon="6.10294">
        <ele>890.79998779297</ele>
        <time>2021-09-01T11:11:54Z</time>
      </trkpt>
      <trkpt lat="44.51155" lon="6.10284">
        <ele>891.59997558594</ele>
        <time>2021-09-01T11:11:58Z</time>
      </trkpt>
      <trkpt lat="44.51158" lon="6.1028">
        <ele>891.59997558594</ele>
        <time>2021-09-01T11:12:00Z</time>
      </trkpt>
      <trkpt lat="44.51165" lon="6.10266">
        <ele>892.40002441406</ele>
        <time>2021-09-01T11:12:06Z</time>
      </trkpt>
      <trkpt lat="44.51166" lon="6.10263">
        <ele>892.59997558594</ele>
        <time>2021-09-01T11:12:07Z</time>
      </trkpt>
      <trkpt lat="44.51171" lon="6.10261">
        <ele>893</ele>
        <time>2021-09-01T11:12:11Z</time>
      </trkpt>
      <trkpt lat="44.51172" lon="6.1026">
        <ele>893</ele>
        <time>2021-09-01T11:12:41Z</time>
      </trkpt>
      <trkpt lat="44.51175" lon="6.10258">
        <ele>893</ele>
        <time>2021-09-01T11:12:43Z</time>
      </trkpt>
      <trkpt lat="44.51191" lon="6.10244">
        <ele>893.40002441406</ele>
        <time>2021-09-01T11:12:50Z</time>
      </trkpt>
      <trkpt lat="44.51198" lon="6.10237">
        <ele>893.59997558594</ele>
        <time>2021-09-01T11:12:53Z</time>
      </trkpt>
      <trkpt lat="44.51208" lon="6.1023">
        <ele>893.79998779297</ele>
        <time>2021-09-01T11:12:57Z</time>
      </trkpt>
      <trkpt lat="44.51225" lon="6.10212">
        <ele>894.20001220703</ele>
        <time>2021-09-01T11:13:05Z</time>
      </trkpt>
      <trkpt lat="44.51234" lon="6.10199">
        <ele>894.59997558594</ele>
        <time>2021-09-01T11:15:40Z</time>
      </trkpt>
      <trkpt lat="44.51237" lon="6.10194">
        <ele>894.59997558594</ele>
        <time>2021-09-01T11:15:42Z</time>
      </trkpt>
      <trkpt lat="44.51249" lon="6.10172">
        <ele>894.59997558594</ele>
        <time>2021-09-01T11:15:48Z</time>
      </trkpt>
      <trkpt lat="44.51266" lon="6.10135">
        <ele>894.40002441406</ele>
        <time>2021-09-01T11:15:56Z</time>
      </trkpt>
      <trkpt lat="44.51282" lon="6.10099">
        <ele>894.79998779297</ele>
        <time>2021-09-01T11:16:04Z</time>
      </trkpt>
      <trkpt lat="44.51308" lon="6.10057">
        <ele>895</ele>
        <time>2021-09-01T11:16:14Z</time>
      </trkpt>
      <trkpt lat="44.51332" lon="6.10034">
        <ele>894</ele>
        <time>2021-09-01T11:16:19Z</time>
      </trkpt>
      <trkpt lat="44.51337" lon="6.1003">
        <ele>893.59997558594</ele>
        <time>2021-09-01T11:16:20Z</time>
      </trkpt>
      <trkpt lat="44.51362" lon="6.10011">
        <ele>892.40002441406</ele>
        <time>2021-09-01T11:16:24Z</time>
      </trkpt>
      <trkpt lat="44.51382" lon="6.09996">
        <ele>891.40002441406</ele>
        <time>2021-09-01T11:16:27Z</time>
      </trkpt>
      <trkpt lat="44.51396" lon="6.09987">
        <ele>890.59997558594</ele>
        <time>2021-09-01T11:16:29Z</time>
      </trkpt>
      <trkpt lat="44.51403" lon="6.09983">
        <ele>890.20001220703</ele>
        <time>2021-09-01T11:16:30Z</time>
      </trkpt>
      <trkpt lat="44.51423" lon="6.0997">
        <ele>889</ele>
        <time>2021-09-01T11:16:33Z</time>
      </trkpt>
      <trkpt lat="44.5143" lon="6.09967">
        <ele>888.59997558594</ele>
        <time>2021-09-01T11:16:34Z</time>
      </trkpt>
      <trkpt lat="44.51446" lon="6.09963">
        <ele>887.59997558594</ele>
        <time>2021-09-01T11:16:36Z</time>
      </trkpt>
      <trkpt lat="44.51463" lon="6.0996">
        <ele>886.20001220703</ele>
        <time>2021-09-01T11:16:39Z</time>
      </trkpt>
      <trkpt lat="44.51467" lon="6.0996">
        <ele>882.40002441406</ele>
        <time>2021-09-01T11:18:05Z</time>
      </trkpt>
      <trkpt lat="44.5147" lon="6.09958">
        <ele>882.40002441406</ele>
        <time>2021-09-01T11:18:07Z</time>
      </trkpt>
      <trkpt lat="44.51479" lon="6.09955">
        <ele>882.40002441406</ele>
        <time>2021-09-01T11:18:10Z</time>
      </trkpt>
      <trkpt lat="44.51504" lon="6.09951">
        <ele>882</ele>
        <time>2021-09-01T11:18:15Z</time>
      </trkpt>
      <trkpt lat="44.51521" lon="6.0995">
        <ele>881.20001220703</ele>
        <time>2021-09-01T11:18:18Z</time>
      </trkpt>
      <trkpt lat="44.51534" lon="6.09952">
        <ele>880.40002441406</ele>
        <time>2021-09-01T11:18:20Z</time>
      </trkpt>
      <trkpt lat="44.51541" lon="6.09953">
        <ele>880</ele>
        <time>2021-09-01T11:18:21Z</time>
      </trkpt>
      <trkpt lat="44.5157" lon="6.09954">
        <ele>878.59997558594</ele>
        <time>2021-09-01T11:18:25Z</time>
      </trkpt>
      <trkpt lat="44.51579" lon="6.09955">
        <ele>878.20001220703</ele>
        <time>2021-09-01T11:18:26Z</time>
      </trkpt>
      <trkpt lat="44.51595" lon="6.09959">
        <ele>877.40002441406</ele>
        <time>2021-09-01T11:18:28Z</time>
      </trkpt>
      <trkpt lat="44.51622" lon="6.09967">
        <ele>876.40002441406</ele>
        <time>2021-09-01T11:18:31Z</time>
      </trkpt>
      <trkpt lat="44.51631" lon="6.09971">
        <ele>875.79998779297</ele>
        <time>2021-09-01T11:18:32Z</time>
      </trkpt>
      <trkpt lat="44.51648" lon="6.09982">
        <ele>874.79998779297</ele>
        <time>2021-09-01T11:18:34Z</time>
      </trkpt>
      <trkpt lat="44.51658" lon="6.09989">
        <ele>874.40002441406</ele>
        <time>2021-09-01T11:18:35Z</time>
      </trkpt>
      <trkpt lat="44.51667" lon="6.09996">
        <ele>873.79998779297</ele>
        <time>2021-09-01T11:18:36Z</time>
      </trkpt>
      <trkpt lat="44.51685" lon="6.10009">
        <ele>872.59997558594</ele>
        <time>2021-09-01T11:18:38Z</time>
      </trkpt>
      <trkpt lat="44.51703" lon="6.10019">
        <ele>871.59997558594</ele>
        <time>2021-09-01T11:18:40Z</time>
      </trkpt>
      <trkpt lat="44.51712" lon="6.10023">
        <ele>871</ele>
        <time>2021-09-01T11:18:41Z</time>
      </trkpt>
      <trkpt lat="44.51722" lon="6.10027">
        <ele>870.40002441406</ele>
        <time>2021-09-01T11:18:42Z</time>
      </trkpt>
      <trkpt lat="44.51742" lon="6.1004">
        <ele>868.40002441406</ele>
        <time>2021-09-01T11:18:44Z</time>
      </trkpt>
      <trkpt lat="44.51752" lon="6.10049">
        <ele>867.79998779297</ele>
        <time>2021-09-01T11:18:45Z</time>
      </trkpt>
      <trkpt lat="44.51759" lon="6.10061">
        <ele>867.20001220703</ele>
        <time>2021-09-01T11:18:46Z</time>
      </trkpt>
      <trkpt lat="44.51766" lon="6.10074">
        <ele>866.59997558594</ele>
        <time>2021-09-01T11:18:47Z</time>
      </trkpt>
      <trkpt lat="44.51771" lon="6.10088">
        <ele>865.79998779297</ele>
        <time>2021-09-01T11:18:48Z</time>
      </trkpt>
      <trkpt lat="44.51776" lon="6.10102">
        <ele>865.20001220703</ele>
        <time>2021-09-01T11:18:49Z</time>
      </trkpt>
      <trkpt lat="44.51781" lon="6.10116">
        <ele>864.40002441406</ele>
        <time>2021-09-01T11:18:50Z</time>
      </trkpt>
      <trkpt lat="44.51785" lon="6.1013">
        <ele>863.79998779297</ele>
        <time>2021-09-01T11:18:51Z</time>
      </trkpt>
      <trkpt lat="44.5179" lon="6.10144">
        <ele>863.20001220703</ele>
        <time>2021-09-01T11:18:52Z</time>
      </trkpt>
      <trkpt lat="44.51794" lon="6.10158">
        <ele>862.79998779297</ele>
        <time>2021-09-01T11:18:53Z</time>
      </trkpt>
      <trkpt lat="44.51799" lon="6.10187">
        <ele>861.79998779297</ele>
        <time>2021-09-01T11:18:55Z</time>
      </trkpt>
      <trkpt lat="44.51813" lon="6.10223">
        <ele>860.40002441406</ele>
        <time>2021-09-01T11:18:58Z</time>
      </trkpt>
      <trkpt lat="44.51828" lon="6.10234">
        <ele>859.59997558594</ele>
        <time>2021-09-01T11:19:00Z</time>
      </trkpt>
      <trkpt lat="44.51836" lon="6.10237">
        <ele>859</ele>
        <time>2021-09-01T11:19:01Z</time>
      </trkpt>
      <trkpt lat="44.51852" lon="6.10231">
        <ele>857.59997558594</ele>
        <time>2021-09-01T11:19:03Z</time>
      </trkpt>
      <trkpt lat="44.51864" lon="6.1021">
        <ele>856.40002441406</ele>
        <time>2021-09-01T11:19:05Z</time>
      </trkpt>
      <trkpt lat="44.51868" lon="6.10199">
        <ele>855.79998779297</ele>
        <time>2021-09-01T11:19:06Z</time>
      </trkpt>
      <trkpt lat="44.5187" lon="6.10174">
        <ele>854.40002441406</ele>
        <time>2021-09-01T11:19:08Z</time>
      </trkpt>
      <trkpt lat="44.5187" lon="6.10162">
        <ele>854</ele>
        <time>2021-09-01T11:19:09Z</time>
      </trkpt>
      <trkpt lat="44.51867" lon="6.10137">
        <ele>853.20001220703</ele>
        <time>2021-09-01T11:19:11Z</time>
      </trkpt>
      <trkpt lat="44.51866" lon="6.10111">
        <ele>852.40002441406</ele>
        <time>2021-09-01T11:19:13Z</time>
      </trkpt>
      <trkpt lat="44.51867" lon="6.10098">
        <ele>852.20001220703</ele>
        <time>2021-09-01T11:19:14Z</time>
      </trkpt>
      <trkpt lat="44.51869" lon="6.10085">
        <ele>852</ele>
        <time>2021-09-01T11:19:15Z</time>
      </trkpt>
      <trkpt lat="44.51877" lon="6.10061">
        <ele>851.20001220703</ele>
        <time>2021-09-01T11:19:17Z</time>
      </trkpt>
      <trkpt lat="44.51882" lon="6.1005">
        <ele>850.79998779297</ele>
        <time>2021-09-01T11:19:18Z</time>
      </trkpt>
      <trkpt lat="44.51886" lon="6.10038">
        <ele>850.40002441406</ele>
        <time>2021-09-01T11:19:19Z</time>
      </trkpt>
      <trkpt lat="44.51892" lon="6.10019">
        <ele>849.59997558594</ele>
        <time>2021-09-01T11:19:21Z</time>
      </trkpt>
      <trkpt lat="44.51895" lon="6.09998">
        <ele>848.40002441406</ele>
        <time>2021-09-01T11:19:23Z</time>
      </trkpt>
      <trkpt lat="44.51896" lon="6.09977">
        <ele>846.79998779297</ele>
        <time>2021-09-01T11:19:25Z</time>
      </trkpt>
      <trkpt lat="44.51895" lon="6.09967">
        <ele>846.20001220703</ele>
        <time>2021-09-01T11:19:26Z</time>
      </trkpt>
      <trkpt lat="44.51896" lon="6.09958">
        <ele>845.40002441406</ele>
        <time>2021-09-01T11:19:27Z</time>
      </trkpt>
      <trkpt lat="44.519" lon="6.09941">
        <ele>844.40002441406</ele>
        <time>2021-09-01T11:19:29Z</time>
      </trkpt>
      <trkpt lat="44.5191" lon="6.0993">
        <ele>843</ele>
        <time>2021-09-01T11:19:32Z</time>
      </trkpt>
      <trkpt lat="44.51915" lon="6.09929">
        <ele>841.59997558594</ele>
        <time>2021-09-01T11:19:34Z</time>
      </trkpt>
      <trkpt lat="44.51918" lon="6.09929">
        <ele>841.20001220703</ele>
        <time>2021-09-01T11:19:35Z</time>
      </trkpt>
      <trkpt lat="44.5192" lon="6.09929">
        <ele>840.79998779297</ele>
        <time>2021-09-01T11:19:36Z</time>
      </trkpt>
      <trkpt lat="44.51921" lon="6.09929">
        <ele>840.59997558594</ele>
        <time>2021-09-01T11:19:37Z</time>
      </trkpt>
      <trkpt lat="44.51923" lon="6.09931">
        <ele>839</ele>
        <time>2021-09-01T11:20:19Z</time>
      </trkpt>
      <trkpt lat="44.51924" lon="6.09932">
        <ele>839</ele>
        <time>2021-09-01T11:20:20Z</time>
      </trkpt>
      <trkpt lat="44.51933" lon="6.0994">
        <ele>839</ele>
        <time>2021-09-01T11:20:24Z</time>
      </trkpt>
      <trkpt lat="44.51947" lon="6.09947">
        <ele>838.79998779297</ele>
        <time>2021-09-01T11:20:28Z</time>
      </trkpt>
      <trkpt lat="44.51952" lon="6.09948">
        <ele>838.59997558594</ele>
        <time>2021-09-01T11:20:29Z</time>
      </trkpt>
      <trkpt lat="44.51957" lon="6.0995">
        <ele>838.59997558594</ele>
        <time>2021-09-01T11:20:30Z</time>
      </trkpt>
      <trkpt lat="44.51973" lon="6.09959">
        <ele>838</ele>
        <time>2021-09-01T11:20:33Z</time>
      </trkpt>
      <trkpt lat="44.51979" lon="6.09962">
        <ele>837.79998779297</ele>
        <time>2021-09-01T11:20:34Z</time>
      </trkpt>
      <trkpt lat="44.52007" lon="6.09971">
        <ele>836.40002441406</ele>
        <time>2021-09-01T11:20:38Z</time>
      </trkpt>
      <trkpt lat="44.52015" lon="6.09969">
        <ele>836.20001220703</ele>
        <time>2021-09-01T11:20:39Z</time>
      </trkpt>
      <trkpt lat="44.52023" lon="6.09962">
        <ele>835.79998779297</ele>
        <time>2021-09-01T11:20:40Z</time>
      </trkpt>
      <trkpt lat="44.52031" lon="6.09956">
        <ele>835.40002441406</ele>
        <time>2021-09-01T11:20:41Z</time>
      </trkpt>
      <trkpt lat="44.52048" lon="6.09951">
        <ele>834.40002441406</ele>
        <time>2021-09-01T11:20:43Z</time>
      </trkpt>
      <trkpt lat="44.52058" lon="6.0995">
        <ele>834</ele>
        <time>2021-09-01T11:20:44Z</time>
      </trkpt>
      <trkpt lat="44.52067" lon="6.09952">
        <ele>833</ele>
        <time>2021-09-01T11:20:45Z</time>
      </trkpt>
      <trkpt lat="44.52076" lon="6.09954">
        <ele>832.59997558594</ele>
        <time>2021-09-01T11:20:46Z</time>
      </trkpt>
      <trkpt lat="44.52086" lon="6.09956">
        <ele>832.20001220703</ele>
        <time>2021-09-01T11:20:47Z</time>
      </trkpt>
      <trkpt lat="44.52096" lon="6.09958">
        <ele>831.59997558594</ele>
        <time>2021-09-01T11:20:48Z</time>
      </trkpt>
      <trkpt lat="44.52115" lon="6.09962">
        <ele>830.59997558594</ele>
        <time>2021-09-01T11:20:50Z</time>
      </trkpt>
      <trkpt lat="44.52136" lon="6.09966">
        <ele>829.40002441406</ele>
        <time>2021-09-01T11:20:52Z</time>
      </trkpt>
      <trkpt lat="44.52157" lon="6.0997">
        <ele>828.20001220703</ele>
        <time>2021-09-01T11:20:54Z</time>
      </trkpt>
      <trkpt lat="44.52178" lon="6.09975">
        <ele>827</ele>
        <time>2021-09-01T11:20:56Z</time>
      </trkpt>
      <trkpt lat="44.522" lon="6.09979">
        <ele>825.79998779297</ele>
        <time>2021-09-01T11:20:58Z</time>
      </trkpt>
      <trkpt lat="44.52221" lon="6.09983">
        <ele>824.59997558594</ele>
        <time>2021-09-01T11:21:00Z</time>
      </trkpt>
      <trkpt lat="44.52243" lon="6.09983">
        <ele>823.59997558594</ele>
        <time>2021-09-01T11:21:02Z</time>
      </trkpt>
      <trkpt lat="44.52254" lon="6.0998">
        <ele>823</ele>
        <time>2021-09-01T11:21:03Z</time>
      </trkpt>
      <trkpt lat="44.52274" lon="6.0997">
        <ele>822</ele>
        <time>2021-09-01T11:21:05Z</time>
      </trkpt>
      <trkpt lat="44.52294" lon="6.09959">
        <ele>820.79998779297</ele>
        <time>2021-09-01T11:21:07Z</time>
      </trkpt>
      <trkpt lat="44.52314" lon="6.09948">
        <ele>819.20001220703</ele>
        <time>2021-09-01T11:21:09Z</time>
      </trkpt>
      <trkpt lat="44.52336" lon="6.09939">
        <ele>818</ele>
        <time>2021-09-01T11:21:11Z</time>
      </trkpt>
      <trkpt lat="44.52347" lon="6.09935">
        <ele>817.20001220703</ele>
        <time>2021-09-01T11:21:12Z</time>
      </trkpt>
      <trkpt lat="44.52358" lon="6.0993">
        <ele>816.59997558594</ele>
        <time>2021-09-01T11:21:13Z</time>
      </trkpt>
      <trkpt lat="44.5238" lon="6.09923">
        <ele>814.79998779297</ele>
        <time>2021-09-01T11:21:15Z</time>
      </trkpt>
      <trkpt lat="44.52402" lon="6.09917">
        <ele>813.40002441406</ele>
        <time>2021-09-01T11:21:17Z</time>
      </trkpt>
      <trkpt lat="44.52414" lon="6.09917">
        <ele>812.59997558594</ele>
        <time>2021-09-01T11:21:18Z</time>
      </trkpt>
      <trkpt lat="44.52425" lon="6.09919">
        <ele>812</ele>
        <time>2021-09-01T11:21:19Z</time>
      </trkpt>
      <trkpt lat="44.52448" lon="6.09927">
        <ele>810.79998779297</ele>
        <time>2021-09-01T11:21:21Z</time>
      </trkpt>
      <trkpt lat="44.52459" lon="6.09933">
        <ele>810.20001220703</ele>
        <time>2021-09-01T11:21:22Z</time>
      </trkpt>
      <trkpt lat="44.52469" lon="6.09942">
        <ele>809.59997558594</ele>
        <time>2021-09-01T11:21:23Z</time>
      </trkpt>
      <trkpt lat="44.52488" lon="6.09963">
        <ele>808.40002441406</ele>
        <time>2021-09-01T11:21:25Z</time>
      </trkpt>
      <trkpt lat="44.52505" lon="6.09985">
        <ele>806.79998779297</ele>
        <time>2021-09-01T11:21:27Z</time>
      </trkpt>
      <trkpt lat="44.52514" lon="6.09997">
        <ele>806</ele>
        <time>2021-09-01T11:21:28Z</time>
      </trkpt>
      <trkpt lat="44.52521" lon="6.1001">
        <ele>805.20001220703</ele>
        <time>2021-09-01T11:21:29Z</time>
      </trkpt>
      <trkpt lat="44.52527" lon="6.10024">
        <ele>804.40002441406</ele>
        <time>2021-09-01T11:21:30Z</time>
      </trkpt>
      <trkpt lat="44.52531" lon="6.10039">
        <ele>803.59997558594</ele>
        <time>2021-09-01T11:21:31Z</time>
      </trkpt>
      <trkpt lat="44.52536" lon="6.10071">
        <ele>801.59997558594</ele>
        <time>2021-09-01T11:21:33Z</time>
      </trkpt>
      <trkpt lat="44.52535" lon="6.10104">
        <ele>800.20001220703</ele>
        <time>2021-09-01T11:21:35Z</time>
      </trkpt>
      <trkpt lat="44.52534" lon="6.1012">
        <ele>799.40002441406</ele>
        <time>2021-09-01T11:21:36Z</time>
      </trkpt>
      <trkpt lat="44.52532" lon="6.10136">
        <ele>798.79998779297</ele>
        <time>2021-09-01T11:21:37Z</time>
      </trkpt>
      <trkpt lat="44.52529" lon="6.10163">
        <ele>797.59997558594</ele>
        <time>2021-09-01T11:21:39Z</time>
      </trkpt>
      <trkpt lat="44.5253" lon="6.10175">
        <ele>796.79998779297</ele>
        <time>2021-09-01T11:21:40Z</time>
      </trkpt>
      <trkpt lat="44.52532" lon="6.10185">
        <ele>796.20001220703</ele>
        <time>2021-09-01T11:21:41Z</time>
      </trkpt>
      <trkpt lat="44.52536" lon="6.10193">
        <ele>795.59997558594</ele>
        <time>2021-09-01T11:21:42Z</time>
      </trkpt>
      <trkpt lat="44.5254" lon="6.10198">
        <ele>795</ele>
        <time>2021-09-01T11:21:43Z</time>
      </trkpt>
      <trkpt lat="44.52545" lon="6.10201">
        <ele>794.20001220703</ele>
        <time>2021-09-01T11:21:45Z</time>
      </trkpt>
      <trkpt lat="44.52552" lon="6.10197">
        <ele>793.79998779297</ele>
        <time>2021-09-01T11:21:46Z</time>
      </trkpt>
      <trkpt lat="44.52567" lon="6.10181">
        <ele>793.20001220703</ele>
        <time>2021-09-01T11:21:48Z</time>
      </trkpt>
      <trkpt lat="44.52578" lon="6.1015">
        <ele>792.79998779297</ele>
        <time>2021-09-01T11:21:51Z</time>
      </trkpt>
      <trkpt lat="44.52589" lon="6.10097">
        <ele>791.59997558594</ele>
        <time>2021-09-01T11:21:56Z</time>
      </trkpt>
      <trkpt lat="44.52593" lon="6.10076">
        <ele>790.59997558594</ele>
        <time>2021-09-01T11:21:58Z</time>
      </trkpt>
      <trkpt lat="44.52594" lon="6.10065">
        <ele>790.40002441406</ele>
        <time>2021-09-01T11:21:59Z</time>
      </trkpt>
      <trkpt lat="44.52599" lon="6.10021">
        <ele>789.20001220703</ele>
        <time>2021-09-01T11:22:03Z</time>
      </trkpt>
      <trkpt lat="44.52598" lon="6.09999">
        <ele>788.59997558594</ele>
        <time>2021-09-01T11:22:05Z</time>
      </trkpt>
      <trkpt lat="44.52597" lon="6.09976">
        <ele>788</ele>
        <time>2021-09-01T11:22:07Z</time>
      </trkpt>
      <trkpt lat="44.52592" lon="6.09932">
        <ele>787.20001220703</ele>
        <time>2021-09-01T11:22:11Z</time>
      </trkpt>
      <trkpt lat="44.5259" lon="6.09922">
        <ele>787</ele>
        <time>2021-09-01T11:22:12Z</time>
      </trkpt>
      <trkpt lat="44.52579" lon="6.09881">
        <ele>786</ele>
        <time>2021-09-01T11:22:16Z</time>
      </trkpt>
      <trkpt lat="44.52578" lon="6.0987">
        <ele>785.59997558594</ele>
        <time>2021-09-01T11:22:17Z</time>
      </trkpt>
      <trkpt lat="44.52582" lon="6.09836">
        <ele>784.59997558594</ele>
        <time>2021-09-01T11:22:20Z</time>
      </trkpt>
      <trkpt lat="44.52585" lon="6.09812">
        <ele>783.40002441406</ele>
        <time>2021-09-01T11:22:22Z</time>
      </trkpt>
      <trkpt lat="44.52593" lon="6.09778">
        <ele>782.40002441406</ele>
        <time>2021-09-01T11:22:25Z</time>
      </trkpt>
      <trkpt lat="44.52606" lon="6.09762">
        <ele>781.79998779297</ele>
        <time>2021-09-01T11:22:27Z</time>
      </trkpt>
      <trkpt lat="44.52623" lon="6.09756">
        <ele>781.20001220703</ele>
        <time>2021-09-01T11:22:29Z</time>
      </trkpt>
      <trkpt lat="44.52632" lon="6.09753">
        <ele>780.79998779297</ele>
        <time>2021-09-01T11:22:30Z</time>
      </trkpt>
      <trkpt lat="44.52648" lon="6.09747">
        <ele>780</ele>
        <time>2021-09-01T11:22:32Z</time>
      </trkpt>
      <trkpt lat="44.52672" lon="6.09737">
        <ele>778.79998779297</ele>
        <time>2021-09-01T11:22:35Z</time>
      </trkpt>
      <trkpt lat="44.52697" lon="6.09726">
        <ele>778</ele>
        <time>2021-09-01T11:22:38Z</time>
      </trkpt>
      <trkpt lat="44.52705" lon="6.09723">
        <ele>777.59997558594</ele>
        <time>2021-09-01T11:22:39Z</time>
      </trkpt>
      <trkpt lat="44.52737" lon="6.09708">
        <ele>776.40002441406</ele>
        <time>2021-09-01T11:22:43Z</time>
      </trkpt>
      <trkpt lat="44.52753" lon="6.09698">
        <ele>775.59997558594</ele>
        <time>2021-09-01T11:22:45Z</time>
      </trkpt>
      <trkpt lat="44.52766" lon="6.09687">
        <ele>775</ele>
        <time>2021-09-01T11:22:47Z</time>
      </trkpt>
      <trkpt lat="44.52784" lon="6.09669">
        <ele>774</ele>
        <time>2021-09-01T11:22:50Z</time>
      </trkpt>
      <trkpt lat="44.52828" lon="6.09634">
        <ele>773</ele>
        <time>2021-09-01T11:22:57Z</time>
      </trkpt>
      <trkpt lat="44.52835" lon="6.09631">
        <ele>773</ele>
        <time>2021-09-01T11:22:58Z</time>
      </trkpt>
      <trkpt lat="44.52849" lon="6.09624">
        <ele>772.79998779297</ele>
        <time>2021-09-01T11:23:00Z</time>
      </trkpt>
      <trkpt lat="44.52863" lon="6.09615">
        <ele>772.59997558594</ele>
        <time>2021-09-01T11:23:02Z</time>
      </trkpt>
      <trkpt lat="44.52875" lon="6.09603">
        <ele>772.40002441406</ele>
        <time>2021-09-01T11:23:04Z</time>
      </trkpt>
      <trkpt lat="44.529" lon="6.09581">
        <ele>771.79998779297</ele>
        <time>2021-09-01T11:23:08Z</time>
      </trkpt>
      <trkpt lat="44.52916" lon="6.09583">
        <ele>771.40002441406</ele>
        <time>2021-09-01T11:23:10Z</time>
      </trkpt>
      <trkpt lat="44.52937" lon="6.09604">
        <ele>770.59997558594</ele>
        <time>2021-09-01T11:23:13Z</time>
      </trkpt>
      <trkpt lat="44.52943" lon="6.09613">
        <ele>770.20001220703</ele>
        <time>2021-09-01T11:23:14Z</time>
      </trkpt>
      <trkpt lat="44.52963" lon="6.09639">
        <ele>769.59997558594</ele>
        <time>2021-09-01T11:23:17Z</time>
      </trkpt>
      <trkpt lat="44.52971" lon="6.09646">
        <ele>769.40002441406</ele>
        <time>2021-09-01T11:23:18Z</time>
      </trkpt>
      <trkpt lat="44.52979" lon="6.09651">
        <ele>769</ele>
        <time>2021-09-01T11:23:19Z</time>
      </trkpt>
      <trkpt lat="44.52997" lon="6.09653">
        <ele>768</ele>
        <time>2021-09-01T11:23:21Z</time>
      </trkpt>
      <trkpt lat="44.53007" lon="6.09649">
        <ele>767.40002441406</ele>
        <time>2021-09-01T11:23:22Z</time>
      </trkpt>
      <trkpt lat="44.53015" lon="6.09644">
        <ele>767</ele>
        <time>2021-09-01T11:23:23Z</time>
      </trkpt>
      <trkpt lat="44.53031" lon="6.09629">
        <ele>766</ele>
        <time>2021-09-01T11:23:25Z</time>
      </trkpt>
      <trkpt lat="44.53045" lon="6.0961">
        <ele>764.79998779297</ele>
        <time>2021-09-01T11:23:27Z</time>
      </trkpt>
      <trkpt lat="44.53057" lon="6.0959">
        <ele>763.79998779297</ele>
        <time>2021-09-01T11:23:29Z</time>
      </trkpt>
      <trkpt lat="44.5307" lon="6.09554">
        <ele>762.59997558594</ele>
        <time>2021-09-01T11:23:32Z</time>
      </trkpt>
      <trkpt lat="44.53073" lon="6.09542">
        <ele>761.79998779297</ele>
        <time>2021-09-01T11:23:33Z</time>
      </trkpt>
      <trkpt lat="44.53075" lon="6.09528">
        <ele>761.40002441406</ele>
        <time>2021-09-01T11:23:34Z</time>
      </trkpt>
      <trkpt lat="44.53076" lon="6.09515">
        <ele>761</ele>
        <time>2021-09-01T11:23:35Z</time>
      </trkpt>
      <trkpt lat="44.53078" lon="6.09502">
        <ele>760.59997558594</ele>
        <time>2021-09-01T11:23:36Z</time>
      </trkpt>
      <trkpt lat="44.53082" lon="6.09492">
        <ele>760.20001220703</ele>
        <time>2021-09-01T11:23:37Z</time>
      </trkpt>
      <trkpt lat="44.53096" lon="6.09481">
        <ele>759.59997558594</ele>
        <time>2021-09-01T11:23:39Z</time>
      </trkpt>
      <trkpt lat="44.53113" lon="6.09486">
        <ele>759</ele>
        <time>2021-09-01T11:23:41Z</time>
      </trkpt>
      <trkpt lat="44.53128" lon="6.09498">
        <ele>758.20001220703</ele>
        <time>2021-09-01T11:23:43Z</time>
      </trkpt>
      <trkpt lat="44.53135" lon="6.09504">
        <ele>757.79998779297</ele>
        <time>2021-09-01T11:23:44Z</time>
      </trkpt>
      <trkpt lat="44.53143" lon="6.09512">
        <ele>757.40002441406</ele>
        <time>2021-09-01T11:23:45Z</time>
      </trkpt>
      <trkpt lat="44.5315" lon="6.0952">
        <ele>757</ele>
        <time>2021-09-01T11:23:46Z</time>
      </trkpt>
      <trkpt lat="44.53157" lon="6.09529">
        <ele>756.59997558594</ele>
        <time>2021-09-01T11:23:47Z</time>
      </trkpt>
      <trkpt lat="44.5318" lon="6.09558">
        <ele>755.79998779297</ele>
        <time>2021-09-01T11:23:50Z</time>
      </trkpt>
      <trkpt lat="44.53186" lon="6.09568">
        <ele>755.40002441406</ele>
        <time>2021-09-01T11:23:51Z</time>
      </trkpt>
      <trkpt lat="44.53208" lon="6.09611">
        <ele>754.20001220703</ele>
        <time>2021-09-01T11:23:55Z</time>
      </trkpt>
      <trkpt lat="44.53222" lon="6.09642">
        <ele>753.20001220703</ele>
        <time>2021-09-01T11:23:58Z</time>
      </trkpt>
      <trkpt lat="44.53226" lon="6.09649">
        <ele>752.59997558594</ele>
        <time>2021-09-01T11:23:59Z</time>
      </trkpt>
      <trkpt lat="44.53231" lon="6.0965">
        <ele>752.20001220703</ele>
        <time>2021-09-01T11:24:00Z</time>
      </trkpt>
      <trkpt lat="44.53236" lon="6.09647">
        <ele>751.79998779297</ele>
        <time>2021-09-01T11:24:01Z</time>
      </trkpt>
      <trkpt lat="44.53241" lon="6.09641">
        <ele>751.20001220703</ele>
        <time>2021-09-01T11:24:02Z</time>
      </trkpt>
      <trkpt lat="44.53245" lon="6.09621">
        <ele>750.40002441406</ele>
        <time>2021-09-01T11:24:04Z</time>
      </trkpt>
      <trkpt lat="44.53244" lon="6.09595">
        <ele>750</ele>
        <time>2021-09-01T11:24:07Z</time>
      </trkpt>
      <trkpt lat="44.53244" lon="6.09588">
        <ele>750</ele>
        <time>2021-09-01T11:24:08Z</time>
      </trkpt>
      <trkpt lat="44.53245" lon="6.09582">
        <ele>750.20001220703</ele>
        <time>2021-09-01T11:24:09Z</time>
      </trkpt>
      <trkpt lat="44.53249" lon="6.09566">
        <ele>750.79998779297</ele>
        <time>2021-09-01T11:24:12Z</time>
      </trkpt>
      <trkpt lat="44.53251" lon="6.09561">
        <ele>751</ele>
        <time>2021-09-01T11:24:13Z</time>
      </trkpt>
      <trkpt lat="44.53257" lon="6.09551">
        <ele>751.59997558594</ele>
        <time>2021-09-01T11:24:16Z</time>
      </trkpt>
      <trkpt lat="44.53262" lon="6.09544">
        <ele>752</ele>
        <time>2021-09-01T11:24:18Z</time>
      </trkpt>
      <trkpt lat="44.53269" lon="6.09536">
        <ele>752.59997558594</ele>
        <time>2021-09-01T11:24:21Z</time>
      </trkpt>
      <trkpt lat="44.53277" lon="6.09529">
        <ele>753.20001220703</ele>
        <time>2021-09-01T11:24:24Z</time>
      </trkpt>
      <trkpt lat="44.53287" lon="6.09527">
        <ele>753.79998779297</ele>
        <time>2021-09-01T11:24:28Z</time>
      </trkpt>
      <trkpt lat="44.53289" lon="6.09527">
        <ele>754</ele>
        <time>2021-09-01T11:24:29Z</time>
      </trkpt>
      <trkpt lat="44.53302" lon="6.09531">
        <ele>755</ele>
        <time>2021-09-01T11:24:35Z</time>
      </trkpt>
      <trkpt lat="44.53305" lon="6.0953">
        <ele>755.20001220703</ele>
        <time>2021-09-01T11:24:37Z</time>
      </trkpt>
      <trkpt lat="44.53314" lon="6.09522">
        <ele>755.79998779297</ele>
        <time>2021-09-01T11:24:42Z</time>
      </trkpt>
      <trkpt lat="44.53317" lon="6.09516">
        <ele>756</ele>
        <time>2021-09-01T11:24:44Z</time>
      </trkpt>
      <trkpt lat="44.53317" lon="6.09513">
        <ele>756.20001220703</ele>
        <time>2021-09-01T11:24:45Z</time>
      </trkpt>
      <trkpt lat="44.53317" lon="6.09507">
        <ele>756.59997558594</ele>
        <time>2021-09-01T11:24:47Z</time>
      </trkpt>
      <trkpt lat="44.53314" lon="6.09491">
        <ele>757</ele>
        <time>2021-09-01T11:24:52Z</time>
      </trkpt>
      <trkpt lat="44.53313" lon="6.09485">
        <ele>757.20001220703</ele>
        <time>2021-09-01T11:24:54Z</time>
      </trkpt>
      <trkpt lat="44.53308" lon="6.09457">
        <ele>758.20001220703</ele>
        <time>2021-09-01T11:25:03Z</time>
      </trkpt>
      <trkpt lat="44.53307" lon="6.09454">
        <ele>758.20001220703</ele>
        <time>2021-09-01T11:25:04Z</time>
      </trkpt>
      <trkpt lat="44.53305" lon="6.09433">
        <ele>759.20001220703</ele>
        <time>2021-09-01T11:25:11Z</time>
      </trkpt>
      <trkpt lat="44.53305" lon="6.09427">
        <ele>759.59997558594</ele>
        <time>2021-09-01T11:25:13Z</time>
      </trkpt>
      <trkpt lat="44.53304" lon="6.09412">
        <ele>760.20001220703</ele>
        <time>2021-09-01T11:25:18Z</time>
      </trkpt>
      <trkpt lat="44.53304" lon="6.0941">
        <ele>760.20001220703</ele>
        <time>2021-09-01T11:25:19Z</time>
      </trkpt>
      <trkpt lat="44.53303" lon="6.09382">
        <ele>761.20001220703</ele>
        <time>2021-09-01T11:25:28Z</time>
      </trkpt>
      <trkpt lat="44.53302" lon="6.0936">
        <ele>762.20001220703</ele>
        <time>2021-09-01T11:25:35Z</time>
      </trkpt>
      <trkpt lat="44.53302" lon="6.09357">
        <ele>762.40002441406</ele>
        <time>2021-09-01T11:25:36Z</time>
      </trkpt>
      <trkpt lat="44.53304" lon="6.09339">
        <ele>763.20001220703</ele>
        <time>2021-09-01T11:25:42Z</time>
      </trkpt>
      <trkpt lat="44.53305" lon="6.09336">
        <ele>763.40002441406</ele>
        <time>2021-09-01T11:25:43Z</time>
      </trkpt>
      <trkpt lat="44.53311" lon="6.09316">
        <ele>764</ele>
        <time>2021-09-01T11:25:50Z</time>
      </trkpt>
      <trkpt lat="44.53317" lon="6.09305">
        <ele>764.40002441406</ele>
        <time>2021-09-01T11:25:54Z</time>
      </trkpt>
      <trkpt lat="44.53326" lon="6.09294">
        <ele>765</ele>
        <time>2021-09-01T11:25:59Z</time>
      </trkpt>
      <trkpt lat="44.53332" lon="6.0929">
        <ele>765.40002441406</ele>
        <time>2021-09-01T11:26:02Z</time>
      </trkpt>
      <trkpt lat="44.53343" lon="6.09282">
        <ele>766</ele>
        <time>2021-09-01T11:26:07Z</time>
      </trkpt>
      <trkpt lat="44.53352" lon="6.09276">
        <ele>766.59997558594</ele>
        <time>2021-09-01T11:26:11Z</time>
      </trkpt>
      <trkpt lat="44.53358" lon="6.09273">
        <ele>766.79998779297</ele>
        <time>2021-09-01T11:26:14Z</time>
      </trkpt>
      <trkpt lat="44.53377" lon="6.09264">
        <ele>767.20001220703</ele>
        <time>2021-09-01T11:26:21Z</time>
      </trkpt>
      <trkpt lat="44.53403" lon="6.09252">
        <ele>767.40002441406</ele>
        <time>2021-09-01T11:26:30Z</time>
      </trkpt>
      <trkpt lat="44.53415" lon="6.09245">
        <ele>767.59997558594</ele>
        <time>2021-09-01T11:26:34Z</time>
      </trkpt>
      <trkpt lat="44.53421" lon="6.09243">
        <ele>767.59997558594</ele>
        <time>2021-09-01T11:26:36Z</time>
      </trkpt>
      <trkpt lat="44.53447" lon="6.09228">
        <ele>767.79998779297</ele>
        <time>2021-09-01T11:26:43Z</time>
      </trkpt>
      <trkpt lat="44.53451" lon="6.09225">
        <ele>767.79998779297</ele>
        <time>2021-09-01T11:26:44Z</time>
      </trkpt>
      <trkpt lat="44.5347" lon="6.09204">
        <ele>767.40002441406</ele>
        <time>2021-09-01T11:26:49Z</time>
      </trkpt>
      <trkpt lat="44.53496" lon="6.09168">
        <ele>766.40002441406</ele>
        <time>2021-09-01T11:26:56Z</time>
      </trkpt>
      <trkpt lat="44.5352" lon="6.09143">
        <ele>766.20001220703</ele>
        <time>2021-09-01T11:27:02Z</time>
      </trkpt>
      <trkpt lat="44.53527" lon="6.09138">
        <ele>766.20001220703</ele>
        <time>2021-09-01T11:27:04Z</time>
      </trkpt>
      <trkpt lat="44.53543" lon="6.09129">
        <ele>766</ele>
        <time>2021-09-01T11:27:08Z</time>
      </trkpt>
      <trkpt lat="44.53579" lon="6.09104">
        <ele>765.79998779297</ele>
        <time>2021-09-01T11:27:17Z</time>
      </trkpt>
      <trkpt lat="44.53616" lon="6.09077">
        <ele>765.59997558594</ele>
        <time>2021-09-01T11:27:26Z</time>
      </trkpt>
      <trkpt lat="44.53629" lon="6.09068">
        <ele>765.59997558594</ele>
        <time>2021-09-01T11:27:29Z</time>
      </trkpt>
      <trkpt lat="44.53637" lon="6.09061">
        <ele>765.59997558594</ele>
        <time>2021-09-01T11:27:31Z</time>
      </trkpt>
      <trkpt lat="44.53645" lon="6.09057">
        <ele>765.59997558594</ele>
        <time>2021-09-01T11:27:33Z</time>
      </trkpt>
      <trkpt lat="44.53654" lon="6.09051">
        <ele>765.59997558594</ele>
        <time>2021-09-01T11:27:35Z</time>
      </trkpt>
      <trkpt lat="44.53662" lon="6.09044">
        <ele>765.40002441406</ele>
        <time>2021-09-01T11:27:37Z</time>
      </trkpt>
      <trkpt lat="44.53676" lon="6.09034">
        <ele>765.20001220703</ele>
        <time>2021-09-01T11:27:40Z</time>
      </trkpt>
      <trkpt lat="44.53724" lon="6.09003">
        <ele>764.59997558594</ele>
        <time>2021-09-01T11:27:50Z</time>
      </trkpt>
      <trkpt lat="44.53736" lon="6.08999">
        <ele>764.40002441406</ele>
        <time>2021-09-01T11:27:52Z</time>
      </trkpt>
      <trkpt lat="44.53755" lon="6.08997">
        <ele>763.79998779297</ele>
        <time>2021-09-01T11:27:55Z</time>
      </trkpt>
      <trkpt lat="44.53761" lon="6.08998">
        <ele>763.40002441406</ele>
        <time>2021-09-01T11:27:56Z</time>
      </trkpt>
      <trkpt lat="44.53767" lon="6.08999">
        <ele>763</ele>
        <time>2021-09-01T11:27:57Z</time>
      </trkpt>
      <trkpt lat="44.53785" lon="6.09001">
        <ele>762.20001220703</ele>
        <time>2021-09-01T11:28:00Z</time>
      </trkpt>
      <trkpt lat="44.5379" lon="6.09001">
        <ele>761.79998779297</ele>
        <time>2021-09-01T11:28:01Z</time>
      </trkpt>
      <trkpt lat="44.53804" lon="6.09003">
        <ele>760.40002441406</ele>
        <time>2021-09-01T11:28:04Z</time>
      </trkpt>
      <trkpt lat="44.53808" lon="6.09002">
        <ele>760.20001220703</ele>
        <time>2021-09-01T11:28:05Z</time>
      </trkpt>
      <trkpt lat="44.53817" lon="6.09">
        <ele>759.59997558594</ele>
        <time>2021-09-01T11:28:07Z</time>
      </trkpt>
      <trkpt lat="44.53821" lon="6.09001">
        <ele>759.20001220703</ele>
        <time>2021-09-01T11:28:08Z</time>
      </trkpt>
      <trkpt lat="44.53828" lon="6.09002">
        <ele>758.59997558594</ele>
        <time>2021-09-01T11:28:10Z</time>
      </trkpt>
      <trkpt lat="44.53833" lon="6.09003">
        <ele>758.20001220703</ele>
        <time>2021-09-01T11:28:12Z</time>
      </trkpt>
      <trkpt lat="44.53843" lon="6.09004">
        <ele>757</ele>
        <time>2021-09-01T11:28:16Z</time>
      </trkpt>
      <trkpt lat="44.53845" lon="6.09007">
        <ele>756</ele>
        <time>2021-09-01T11:28:58Z</time>
      </trkpt>
      <trkpt lat="44.53848" lon="6.09009">
        <ele>756</ele>
        <time>2021-09-01T11:29:00Z</time>
      </trkpt>
      <trkpt lat="44.53853" lon="6.09012">
        <ele>756</ele>
        <time>2021-09-01T11:29:02Z</time>
      </trkpt>
      <trkpt lat="44.53862" lon="6.09019">
        <ele>755.79998779297</ele>
        <time>2021-09-01T11:29:05Z</time>
      </trkpt>
      <trkpt lat="44.5388" lon="6.09027">
        <ele>755.20001220703</ele>
        <time>2021-09-01T11:29:09Z</time>
      </trkpt>
      <trkpt lat="44.53884" lon="6.09029">
        <ele>755.20001220703</ele>
        <time>2021-09-01T11:29:10Z</time>
      </trkpt>
      <trkpt lat="44.53889" lon="6.09031">
        <ele>755</ele>
        <time>2021-09-01T11:29:11Z</time>
      </trkpt>
      <trkpt lat="44.53893" lon="6.09034">
        <ele>754.79998779297</ele>
        <time>2021-09-01T11:29:12Z</time>
      </trkpt>
      <trkpt lat="44.53908" lon="6.09042">
        <ele>754.20001220703</ele>
        <time>2021-09-01T11:29:15Z</time>
      </trkpt>
      <trkpt lat="44.53921" lon="6.09047">
        <ele>753.79998779297</ele>
        <time>2021-09-01T11:29:17Z</time>
      </trkpt>
      <trkpt lat="44.53947" lon="6.09053">
        <ele>753</ele>
        <time>2021-09-01T11:29:21Z</time>
      </trkpt>
      <trkpt lat="44.53961" lon="6.09054">
        <ele>752.59997558594</ele>
        <time>2021-09-01T11:29:23Z</time>
      </trkpt>
      <trkpt lat="44.53991" lon="6.0906">
        <ele>751.40002441406</ele>
        <time>2021-09-01T11:29:27Z</time>
      </trkpt>
      <trkpt lat="44.54014" lon="6.09071">
        <ele>750.20001220703</ele>
        <time>2021-09-01T11:29:30Z</time>
      </trkpt>
      <trkpt lat="44.54029" lon="6.09081">
        <ele>749.59997558594</ele>
        <time>2021-09-01T11:29:32Z</time>
      </trkpt>
      <trkpt lat="44.54037" lon="6.09087">
        <ele>748.79998779297</ele>
        <time>2021-09-01T11:29:33Z</time>
      </trkpt>
      <trkpt lat="44.54058" lon="6.09106">
        <ele>747.59997558594</ele>
        <time>2021-09-01T11:29:36Z</time>
      </trkpt>
      <trkpt lat="44.54065" lon="6.0911">
        <ele>747.20001220703</ele>
        <time>2021-09-01T11:29:37Z</time>
      </trkpt>
      <trkpt lat="44.5408" lon="6.09114">
        <ele>746.20001220703</ele>
        <time>2021-09-01T11:29:39Z</time>
      </trkpt>
      <trkpt lat="44.54089" lon="6.09113">
        <ele>745.79998779297</ele>
        <time>2021-09-01T11:29:40Z</time>
      </trkpt>
      <trkpt lat="44.54113" lon="6.09105">
        <ele>745</ele>
        <time>2021-09-01T11:29:43Z</time>
      </trkpt>
      <trkpt lat="44.54121" lon="6.091">
        <ele>744.59997558594</ele>
        <time>2021-09-01T11:29:44Z</time>
      </trkpt>
      <trkpt lat="44.54129" lon="6.09094">
        <ele>744.20001220703</ele>
        <time>2021-09-01T11:29:45Z</time>
      </trkpt>
      <trkpt lat="44.54138" lon="6.09089">
        <ele>743.79998779297</ele>
        <time>2021-09-01T11:29:46Z</time>
      </trkpt>
      <trkpt lat="44.54164" lon="6.09074">
        <ele>742.59997558594</ele>
        <time>2021-09-01T11:29:49Z</time>
      </trkpt>
      <trkpt lat="44.54183" lon="6.09063">
        <ele>741.40002441406</ele>
        <time>2021-09-01T11:29:51Z</time>
      </trkpt>
      <trkpt lat="44.54211" lon="6.09047">
        <ele>740.20001220703</ele>
        <time>2021-09-01T11:29:54Z</time>
      </trkpt>
      <trkpt lat="44.54242" lon="6.09034">
        <ele>738</ele>
        <time>2021-09-01T11:29:57Z</time>
      </trkpt>
      <trkpt lat="44.54253" lon="6.09033">
        <ele>737.59997558594</ele>
        <time>2021-09-01T11:29:58Z</time>
      </trkpt>
      <trkpt lat="44.54264" lon="6.09034">
        <ele>737</ele>
        <time>2021-09-01T11:29:59Z</time>
      </trkpt>
      <trkpt lat="44.54274" lon="6.09037">
        <ele>736.40002441406</ele>
        <time>2021-09-01T11:30:00Z</time>
      </trkpt>
      <trkpt lat="44.54285" lon="6.09041">
        <ele>735.79998779297</ele>
        <time>2021-09-01T11:30:01Z</time>
      </trkpt>
      <trkpt lat="44.54307" lon="6.09049">
        <ele>734.79998779297</ele>
        <time>2021-09-01T11:30:03Z</time>
      </trkpt>
      <trkpt lat="44.54329" lon="6.09057">
        <ele>733.59997558594</ele>
        <time>2021-09-01T11:30:05Z</time>
      </trkpt>
      <trkpt lat="44.54352" lon="6.09066">
        <ele>732.40002441406</ele>
        <time>2021-09-01T11:30:07Z</time>
      </trkpt>
      <trkpt lat="44.54362" lon="6.09071">
        <ele>731.59997558594</ele>
        <time>2021-09-01T11:30:08Z</time>
      </trkpt>
      <trkpt lat="44.54373" lon="6.09077">
        <ele>731</ele>
        <time>2021-09-01T11:30:09Z</time>
      </trkpt>
      <trkpt lat="44.54392" lon="6.09096">
        <ele>729.79998779297</ele>
        <time>2021-09-01T11:30:11Z</time>
      </trkpt>
      <trkpt lat="44.54406" lon="6.0912">
        <ele>728.79998779297</ele>
        <time>2021-09-01T11:30:13Z</time>
      </trkpt>
      <trkpt lat="44.54413" lon="6.09132">
        <ele>728.20001220703</ele>
        <time>2021-09-01T11:30:14Z</time>
      </trkpt>
      <trkpt lat="44.54419" lon="6.09143">
        <ele>727.59997558594</ele>
        <time>2021-09-01T11:30:15Z</time>
      </trkpt>
      <trkpt lat="44.54431" lon="6.09161">
        <ele>726.40002441406</ele>
        <time>2021-09-01T11:30:17Z</time>
      </trkpt>
      <trkpt lat="44.54445" lon="6.09163">
        <ele>725.20001220703</ele>
        <time>2021-09-01T11:30:19Z</time>
      </trkpt>
      <trkpt lat="44.54461" lon="6.09145">
        <ele>723.40002441406</ele>
        <time>2021-09-01T11:30:21Z</time>
      </trkpt>
      <trkpt lat="44.5447" lon="6.09113">
        <ele>722.20001220703</ele>
        <time>2021-09-01T11:30:23Z</time>
      </trkpt>
      <trkpt lat="44.54472" lon="6.09098">
        <ele>721.59997558594</ele>
        <time>2021-09-01T11:30:24Z</time>
      </trkpt>
      <trkpt lat="44.54475" lon="6.09083">
        <ele>721</ele>
        <time>2021-09-01T11:30:25Z</time>
      </trkpt>
      <trkpt lat="44.54479" lon="6.09055">
        <ele>719.79998779297</ele>
        <time>2021-09-01T11:30:27Z</time>
      </trkpt>
      <trkpt lat="44.54485" lon="6.09015">
        <ele>718.40002441406</ele>
        <time>2021-09-01T11:30:30Z</time>
      </trkpt>
      <trkpt lat="44.54492" lon="6.08982">
        <ele>717.20001220703</ele>
        <time>2021-09-01T11:30:33Z</time>
      </trkpt>
      <trkpt lat="44.54493" lon="6.08973">
        <ele>716.59997558594</ele>
        <time>2021-09-01T11:30:34Z</time>
      </trkpt>
      <trkpt lat="44.54496" lon="6.08959">
        <ele>715.79998779297</ele>
        <time>2021-09-01T11:30:36Z</time>
      </trkpt>
      <trkpt lat="44.54498" lon="6.08955">
        <ele>715.40002441406</ele>
        <time>2021-09-01T11:30:37Z</time>
      </trkpt>
      <trkpt lat="44.54501" lon="6.08952">
        <ele>714.40002441406</ele>
        <time>2021-09-01T11:30:39Z</time>
      </trkpt>
      <trkpt lat="44.54504" lon="6.08951">
        <ele>713.79998779297</ele>
        <time>2021-09-01T11:30:41Z</time>
      </trkpt>
      <trkpt lat="44.54506" lon="6.0895">
        <ele>712.79998779297</ele>
        <time>2021-09-01T11:31:42Z</time>
      </trkpt>
      <trkpt lat="44.54508" lon="6.08949">
        <ele>712.79998779297</ele>
        <time>2021-09-01T11:31:43Z</time>
      </trkpt>
      <trkpt lat="44.54517" lon="6.08948">
        <ele>712.79998779297</ele>
        <time>2021-09-01T11:31:46Z</time>
      </trkpt>
      <trkpt lat="44.54524" lon="6.08948">
        <ele>712.59997558594</ele>
        <time>2021-09-01T11:31:48Z</time>
      </trkpt>
      <trkpt lat="44.54551" lon="6.08948">
        <ele>712</ele>
        <time>2021-09-01T11:31:54Z</time>
      </trkpt>
      <trkpt lat="44.54556" lon="6.08948">
        <ele>711.79998779297</ele>
        <time>2021-09-01T11:31:55Z</time>
      </trkpt>
      <trkpt lat="44.54581" lon="6.08947">
        <ele>711.20001220703</ele>
        <time>2021-09-01T11:32:01Z</time>
      </trkpt>
      <trkpt lat="44.54605" lon="6.08947">
        <ele>711.20001220703</ele>
        <time>2021-09-01T11:32:08Z</time>
      </trkpt>
      <trkpt lat="44.54632" lon="6.08947">
        <ele>711</ele>
        <time>2021-09-01T11:32:16Z</time>
      </trkpt>
      <trkpt lat="44.54638" lon="6.08955">
        <ele>710.79998779297</ele>
        <time>2021-09-01T11:32:19Z</time>
      </trkpt>
      <trkpt lat="44.54639" lon="6.08959">
        <ele>710.79998779297</ele>
        <time>2021-09-01T11:32:20Z</time>
      </trkpt>
      <trkpt lat="44.5464" lon="6.08964">
        <ele>710.79998779297</ele>
        <time>2021-09-01T11:32:21Z</time>
      </trkpt>
      <trkpt lat="44.54641" lon="6.08969">
        <ele>710.59997558594</ele>
        <time>2021-09-01T11:32:22Z</time>
      </trkpt>
      <trkpt lat="44.54644" lon="6.08994">
        <ele>710.59997558594</ele>
        <time>2021-09-01T11:32:27Z</time>
      </trkpt>
      <trkpt lat="44.54651" lon="6.09032">
        <ele>711.20001220703</ele>
        <time>2021-09-01T11:32:35Z</time>
      </trkpt>
      <trkpt lat="44.54661" lon="6.09075">
        <ele>711.59997558594</ele>
        <time>2021-09-01T11:32:43Z</time>
      </trkpt>
      <trkpt lat="44.54667" lon="6.09096">
        <ele>711.79998779297</ele>
        <time>2021-09-01T11:32:47Z</time>
      </trkpt>
      <trkpt lat="44.54675" lon="6.09133">
        <ele>712.20001220703</ele>
        <time>2021-09-01T11:32:54Z</time>
      </trkpt>
      <trkpt lat="44.54682" lon="6.09166">
        <ele>712.79998779297</ele>
        <time>2021-09-01T11:33:01Z</time>
      </trkpt>
      <trkpt lat="44.54684" lon="6.092">
        <ele>713.20001220703</ele>
        <time>2021-09-01T11:33:08Z</time>
      </trkpt>
      <trkpt lat="44.54679" lon="6.09235">
        <ele>713.79998779297</ele>
        <time>2021-09-01T11:33:15Z</time>
      </trkpt>
      <trkpt lat="44.54678" lon="6.0924">
        <ele>714</ele>
        <time>2021-09-01T11:33:16Z</time>
      </trkpt>
      <trkpt lat="44.54671" lon="6.09284">
        <ele>714.20001220703</ele>
        <time>2021-09-01T11:33:24Z</time>
      </trkpt>
      <trkpt lat="44.54671" lon="6.0933">
        <ele>714.79998779297</ele>
        <time>2021-09-01T11:33:32Z</time>
      </trkpt>
      <trkpt lat="44.54672" lon="6.09341">
        <ele>715</ele>
        <time>2021-09-01T11:33:34Z</time>
      </trkpt>
      <trkpt lat="44.54678" lon="6.09373">
        <ele>715.40002441406</ele>
        <time>2021-09-01T11:33:40Z</time>
      </trkpt>
      <trkpt lat="44.54684" lon="6.09401">
        <ele>716</ele>
        <time>2021-09-01T11:33:45Z</time>
      </trkpt>
      <trkpt lat="44.54686" lon="6.09412">
        <ele>716.20001220703</ele>
        <time>2021-09-01T11:33:47Z</time>
      </trkpt>
      <trkpt lat="44.54698" lon="6.09462">
        <ele>716.59997558594</ele>
        <time>2021-09-01T11:33:56Z</time>
      </trkpt>
      <trkpt lat="44.54701" lon="6.0948">
        <ele>717</ele>
        <time>2021-09-01T11:34:00Z</time>
      </trkpt>
      <trkpt lat="44.54703" lon="6.0949">
        <ele>717.40002441406</ele>
        <time>2021-09-01T11:34:03Z</time>
      </trkpt>
      <trkpt lat="44.54704" lon="6.09502">
        <ele>718.20001220703</ele>
        <time>2021-09-01T11:34:07Z</time>
      </trkpt>
      <trkpt lat="44.54705" lon="6.09524">
        <ele>719</ele>
        <time>2021-09-01T11:34:13Z</time>
      </trkpt>
      <trkpt lat="44.54704" lon="6.09534">
        <ele>719.20001220703</ele>
        <time>2021-09-01T11:34:16Z</time>
      </trkpt>
      <trkpt lat="44.54702" lon="6.09553">
        <ele>720.20001220703</ele>
        <time>2021-09-01T11:34:22Z</time>
      </trkpt>
      <trkpt lat="44.547" lon="6.09577">
        <ele>721.40002441406</ele>
        <time>2021-09-01T11:34:29Z</time>
      </trkpt>
      <trkpt lat="44.547" lon="6.09584">
        <ele>721.59997558594</ele>
        <time>2021-09-01T11:34:32Z</time>
      </trkpt>
      <trkpt lat="44.54702" lon="6.09599">
        <ele>722.20001220703</ele>
        <time>2021-09-01T11:34:37Z</time>
      </trkpt>
      <trkpt lat="44.54702" lon="6.09609">
        <ele>722.40002441406</ele>
        <time>2021-09-01T11:34:40Z</time>
      </trkpt>
      <trkpt lat="44.54703" lon="6.0962">
        <ele>722.59997558594</ele>
        <time>2021-09-01T11:34:43Z</time>
      </trkpt>
      <trkpt lat="44.54706" lon="6.09655">
        <ele>723</ele>
        <time>2021-09-01T11:34:51Z</time>
      </trkpt>
      <trkpt lat="44.54711" lon="6.09696">
        <ele>723.20001220703</ele>
        <time>2021-09-01T11:34:59Z</time>
      </trkpt>
      <trkpt lat="44.54715" lon="6.09718">
        <ele>723.40002441406</ele>
        <time>2021-09-01T11:35:03Z</time>
      </trkpt>
      <trkpt lat="44.54722" lon="6.09744">
        <ele>723.59997558594</ele>
        <time>2021-09-01T11:35:08Z</time>
      </trkpt>
      <trkpt lat="44.54733" lon="6.09777">
        <ele>724.20001220703</ele>
        <time>2021-09-01T11:35:15Z</time>
      </trkpt>
      <trkpt lat="44.54737" lon="6.09785">
        <ele>724.40002441406</ele>
        <time>2021-09-01T11:35:17Z</time>
      </trkpt>
      <trkpt lat="44.54745" lon="6.09808">
        <ele>725</ele>
        <time>2021-09-01T11:35:22Z</time>
      </trkpt>
      <trkpt lat="44.54754" lon="6.0983">
        <ele>725.40002441406</ele>
        <time>2021-09-01T11:35:27Z</time>
      </trkpt>
      <trkpt lat="44.54759" lon="6.09843">
        <ele>725.79998779297</ele>
        <time>2021-09-01T11:35:30Z</time>
      </trkpt>
      <trkpt lat="44.5477" lon="6.09872">
        <ele>726.59997558594</ele>
        <time>2021-09-01T11:35:37Z</time>
      </trkpt>
      <trkpt lat="44.54773" lon="6.0988">
        <ele>727</ele>
        <time>2021-09-01T11:35:39Z</time>
      </trkpt>
      <trkpt lat="44.54775" lon="6.09887">
        <ele>727.40002441406</ele>
        <time>2021-09-01T11:35:41Z</time>
      </trkpt>
      <trkpt lat="44.54778" lon="6.09894">
        <ele>727.79998779297</ele>
        <time>2021-09-01T11:35:43Z</time>
      </trkpt>
      <trkpt lat="44.5478" lon="6.09902">
        <ele>728</ele>
        <time>2021-09-01T11:35:45Z</time>
      </trkpt>
      <trkpt lat="44.54787" lon="6.0992">
        <ele>728.79998779297</ele>
        <time>2021-09-01T11:35:50Z</time>
      </trkpt>
      <trkpt lat="44.54791" lon="6.09941">
        <ele>729.40002441406</ele>
        <time>2021-09-01T11:35:55Z</time>
      </trkpt>
      <trkpt lat="44.54793" lon="6.09982">
        <ele>729.79998779297</ele>
        <time>2021-09-01T11:36:03Z</time>
      </trkpt>
      <trkpt lat="44.54793" lon="6.09987">
        <ele>729.79998779297</ele>
        <time>2021-09-01T11:36:04Z</time>
      </trkpt>
      <trkpt lat="44.54789" lon="6.10027">
        <ele>730.59997558594</ele>
        <time>2021-09-01T11:36:12Z</time>
      </trkpt>
      <trkpt lat="44.54786" lon="6.1004">
        <ele>730.79998779297</ele>
        <time>2021-09-01T11:36:15Z</time>
      </trkpt>
      <trkpt lat="44.5478" lon="6.10063">
        <ele>731.20001220703</ele>
        <time>2021-09-01T11:36:20Z</time>
      </trkpt>
      <trkpt lat="44.54765" lon="6.10085">
        <ele>731.79998779297</ele>
        <time>2021-09-01T11:36:27Z</time>
      </trkpt>
      <trkpt lat="44.54763" lon="6.10088">
        <ele>732</ele>
        <time>2021-09-01T11:36:28Z</time>
      </trkpt>
      <trkpt lat="44.54751" lon="6.10117">
        <ele>732.59997558594</ele>
        <time>2021-09-01T11:36:35Z</time>
      </trkpt>
      <trkpt lat="44.54748" lon="6.10147">
        <ele>732.59997558594</ele>
        <time>2021-09-01T11:36:41Z</time>
      </trkpt>
      <trkpt lat="44.54746" lon="6.10188">
        <ele>732.40002441406</ele>
        <time>2021-09-01T11:36:48Z</time>
      </trkpt>
      <trkpt lat="44.54743" lon="6.10241">
        <ele>732.20001220703</ele>
        <time>2021-09-01T11:36:56Z</time>
      </trkpt>
      <trkpt lat="44.54744" lon="6.10281">
        <ele>732</ele>
        <time>2021-09-01T11:37:02Z</time>
      </trkpt>
      <trkpt lat="44.54749" lon="6.10293">
        <ele>732.20001220703</ele>
        <time>2021-09-01T11:37:04Z</time>
      </trkpt>
      <trkpt lat="44.54752" lon="6.10298">
        <ele>732.20001220703</ele>
        <time>2021-09-01T11:37:05Z</time>
      </trkpt>
      <trkpt lat="44.54758" lon="6.10307">
        <ele>732.20001220703</ele>
        <time>2021-09-01T11:37:07Z</time>
      </trkpt>
      <trkpt lat="44.54763" lon="6.10316">
        <ele>732.20001220703</ele>
        <time>2021-09-01T11:37:09Z</time>
      </trkpt>
      <trkpt lat="44.54783" lon="6.10346">
        <ele>733</ele>
        <time>2021-09-01T11:37:17Z</time>
      </trkpt>
      <trkpt lat="44.54796" lon="6.1037">
        <ele>734.20001220703</ele>
        <time>2021-09-01T11:37:25Z</time>
      </trkpt>
      <trkpt lat="44.54802" lon="6.10388">
        <ele>735.20001220703</ele>
        <time>2021-09-01T11:37:32Z</time>
      </trkpt>
      <trkpt lat="44.54802" lon="6.10391">
        <ele>735.20001220703</ele>
        <time>2021-09-01T11:37:33Z</time>
      </trkpt>
      <trkpt lat="44.54803" lon="6.10396">
        <ele>735.59997558594</ele>
        <time>2021-09-01T11:37:35Z</time>
      </trkpt>
      <trkpt lat="44.54803" lon="6.10401">
        <ele>736.20001220703</ele>
        <time>2021-09-01T11:37:37Z</time>
      </trkpt>
      <trkpt lat="44.54804" lon="6.10403">
        <ele>736.20001220703</ele>
        <time>2021-09-01T11:37:38Z</time>
      </trkpt>
      <trkpt lat="44.54804" lon="6.10406">
        <ele>736.40002441406</ele>
        <time>2021-09-01T11:37:39Z</time>
      </trkpt>
      <trkpt lat="44.54808" lon="6.10418">
        <ele>737.20001220703</ele>
        <time>2021-09-01T11:37:44Z</time>
      </trkpt>
      <trkpt lat="44.54809" lon="6.1042">
        <ele>737.40002441406</ele>
        <time>2021-09-01T11:37:45Z</time>
      </trkpt>
      <trkpt lat="44.54814" lon="6.1044">
        <ele>738.20001220703</ele>
        <time>2021-09-01T11:37:52Z</time>
      </trkpt>
      <trkpt lat="44.54816" lon="6.10448">
        <ele>738.40002441406</ele>
        <time>2021-09-01T11:37:55Z</time>
      </trkpt>
      <trkpt lat="44.54819" lon="6.10459">
        <ele>738.79998779297</ele>
        <time>2021-09-01T11:37:59Z</time>
      </trkpt>
      <trkpt lat="44.54821" lon="6.10471">
        <ele>739.59997558594</ele>
        <time>2021-09-01T11:38:04Z</time>
      </trkpt>
      <trkpt lat="44.54822" lon="6.10479">
        <ele>740.20001220703</ele>
        <time>2021-09-01T11:38:08Z</time>
      </trkpt>
      <trkpt lat="44.54822" lon="6.10485">
        <ele>740.59997558594</ele>
        <time>2021-09-01T11:38:11Z</time>
      </trkpt>
      <trkpt lat="44.54823" lon="6.10495">
        <ele>741.40002441406</ele>
        <time>2021-09-01T11:38:16Z</time>
      </trkpt>
      <trkpt lat="44.54824" lon="6.10497">
        <ele>741.59997558594</ele>
        <time>2021-09-01T11:38:17Z</time>
      </trkpt>
      <trkpt lat="44.54825" lon="6.105">
        <ele>742</ele>
        <time>2021-09-01T11:38:19Z</time>
      </trkpt>
      <trkpt lat="44.54828" lon="6.10501">
        <ele>742.59997558594</ele>
        <time>2021-09-01T11:38:22Z</time>
      </trkpt>
      <trkpt lat="44.5483" lon="6.10498">
        <ele>743.20001220703</ele>
        <time>2021-09-01T11:39:09Z</time>
      </trkpt>
      <trkpt lat="44.54832" lon="6.10493">
        <ele>743.20001220703</ele>
        <time>2021-09-01T11:39:11Z</time>
      </trkpt>
      <trkpt lat="44.54834" lon="6.10476">
        <ele>743</ele>
        <time>2021-09-01T11:39:16Z</time>
      </trkpt>
      <trkpt lat="44.54834" lon="6.10473">
        <ele>743</ele>
        <time>2021-09-01T11:39:17Z</time>
      </trkpt>
      <trkpt lat="44.54838" lon="6.10455">
        <ele>743.79998779297</ele>
        <time>2021-09-01T11:39:23Z</time>
      </trkpt>
      <trkpt lat="44.54839" lon="6.10453">
        <ele>744</ele>
        <time>2021-09-01T11:39:24Z</time>
      </trkpt>
      <trkpt lat="44.54852" lon="6.10447">
        <ele>745</ele>
        <time>2021-09-01T11:39:31Z</time>
      </trkpt>
      <trkpt lat="44.54861" lon="6.10455">
        <ele>746.20001220703</ele>
        <time>2021-09-01T11:39:36Z</time>
      </trkpt>
      <trkpt lat="44.54862" lon="6.10458">
        <ele>746.40002441406</ele>
        <time>2021-09-01T11:39:37Z</time>
      </trkpt>
      <trkpt lat="44.5487" lon="6.10473">
        <ele>747</ele>
        <time>2021-09-01T11:39:43Z</time>
      </trkpt>
      <trkpt lat="44.54873" lon="6.10478">
        <ele>747.40002441406</ele>
        <time>2021-09-01T11:39:45Z</time>
      </trkpt>
      <trkpt lat="44.54881" lon="6.10489">
        <ele>748</ele>
        <time>2021-09-01T11:39:50Z</time>
      </trkpt>
      <trkpt lat="44.54884" lon="6.10497">
        <ele>748.40002441406</ele>
        <time>2021-09-01T11:39:53Z</time>
      </trkpt>
      <trkpt lat="44.54889" lon="6.10504">
        <ele>748.79998779297</ele>
        <time>2021-09-01T11:39:56Z</time>
      </trkpt>
      <trkpt lat="44.54895" lon="6.10518">
        <ele>749.40002441406</ele>
        <time>2021-09-01T11:40:01Z</time>
      </trkpt>
      <trkpt lat="44.549" lon="6.10525">
        <ele>749.79998779297</ele>
        <time>2021-09-01T11:40:04Z</time>
      </trkpt>
      <trkpt lat="44.54912" lon="6.10542">
        <ele>750.40002441406</ele>
        <time>2021-09-01T11:40:11Z</time>
      </trkpt>
      <trkpt lat="44.54921" lon="6.10546">
        <ele>750.59997558594</ele>
        <time>2021-09-01T11:40:14Z</time>
      </trkpt>
      <trkpt lat="44.54929" lon="6.10546">
        <ele>750.59997558594</ele>
        <time>2021-09-01T11:40:16Z</time>
      </trkpt>
      <trkpt lat="44.54946" lon="6.10545">
        <ele>750.59997558594</ele>
        <time>2021-09-01T11:40:20Z</time>
      </trkpt>
      <trkpt lat="44.54955" lon="6.10548">
        <ele>750.20001220703</ele>
        <time>2021-09-01T11:40:22Z</time>
      </trkpt>
      <trkpt lat="44.54968" lon="6.10564">
        <ele>750</ele>
        <time>2021-09-01T11:40:26Z</time>
      </trkpt>
      <trkpt lat="44.54973" lon="6.10577">
        <ele>750</ele>
        <time>2021-09-01T11:40:29Z</time>
      </trkpt>
      <trkpt lat="44.54975" lon="6.10584">
        <ele>750.20001220703</ele>
        <time>2021-09-01T11:40:31Z</time>
      </trkpt>
      <trkpt lat="44.54985" lon="6.10603">
        <ele>751.59997558594</ele>
        <time>2021-09-01T11:40:38Z</time>
      </trkpt>
      <trkpt lat="44.54986" lon="6.10606">
        <ele>751.79998779297</ele>
        <time>2021-09-01T11:40:39Z</time>
      </trkpt>
      <trkpt lat="44.54989" lon="6.1062">
        <ele>752.40002441406</ele>
        <time>2021-09-01T11:40:43Z</time>
      </trkpt>
      <trkpt lat="44.54994" lon="6.10632">
        <ele>752.79998779297</ele>
        <time>2021-09-01T11:40:46Z</time>
      </trkpt>
      <trkpt lat="44.54995" lon="6.10638">
        <ele>752.79998779297</ele>
        <time>2021-09-01T11:40:47Z</time>
      </trkpt>
      <trkpt lat="44.54997" lon="6.10643">
        <ele>752.79998779297</ele>
        <time>2021-09-01T11:40:48Z</time>
      </trkpt>
      <trkpt lat="44.55007" lon="6.10679">
        <ele>752.20001220703</ele>
        <time>2021-09-01T11:40:53Z</time>
      </trkpt>
      <trkpt lat="44.55012" lon="6.10695">
        <ele>751.79998779297</ele>
        <time>2021-09-01T11:40:55Z</time>
      </trkpt>
      <trkpt lat="44.55022" lon="6.10729">
        <ele>750.79998779297</ele>
        <time>2021-09-01T11:40:59Z</time>
      </trkpt>
      <trkpt lat="44.55037" lon="6.10786">
        <ele>749.79998779297</ele>
        <time>2021-09-01T11:41:06Z</time>
      </trkpt>
      <trkpt lat="44.5504" lon="6.10794">
        <ele>749.79998779297</ele>
        <time>2021-09-01T11:41:07Z</time>
      </trkpt>
      <trkpt lat="44.55055" lon="6.10847">
        <ele>749.40002441406</ele>
        <time>2021-09-01T11:41:14Z</time>
      </trkpt>
      <trkpt lat="44.55075" lon="6.10896">
        <ele>749.40002441406</ele>
        <time>2021-09-01T11:41:21Z</time>
      </trkpt>
      <trkpt lat="44.55094" lon="6.10943">
        <ele>749.59997558594</ele>
        <time>2021-09-01T11:41:27Z</time>
      </trkpt>
      <trkpt lat="44.55109" lon="6.10991">
        <ele>749.40002441406</ele>
        <time>2021-09-01T11:41:33Z</time>
      </trkpt>
      <trkpt lat="44.55134" lon="6.11029">
        <ele>749.40002441406</ele>
        <time>2021-09-01T11:41:39Z</time>
      </trkpt>
      <trkpt lat="44.5516" lon="6.11048">
        <ele>749.59997558594</ele>
        <time>2021-09-01T11:41:44Z</time>
      </trkpt>
      <trkpt lat="44.55182" lon="6.11075">
        <ele>750</ele>
        <time>2021-09-01T11:41:50Z</time>
      </trkpt>
      <trkpt lat="44.55199" lon="6.11098">
        <ele>750.79998779297</ele>
        <time>2021-09-01T11:41:56Z</time>
      </trkpt>
      <trkpt lat="44.55205" lon="6.11105">
        <ele>751</ele>
        <time>2021-09-01T11:41:58Z</time>
      </trkpt>
      <trkpt lat="44.55222" lon="6.11129">
        <ele>752</ele>
        <time>2021-09-01T11:42:05Z</time>
      </trkpt>
      <trkpt lat="44.55224" lon="6.11133">
        <ele>752.20001220703</ele>
        <time>2021-09-01T11:42:06Z</time>
      </trkpt>
      <trkpt lat="44.55235" lon="6.11152">
        <ele>753</ele>
        <time>2021-09-01T11:42:11Z</time>
      </trkpt>
      <trkpt lat="44.55247" lon="6.11171">
        <ele>753.40002441406</ele>
        <time>2021-09-01T11:42:16Z</time>
      </trkpt>
      <trkpt lat="44.55269" lon="6.11202">
        <ele>754</ele>
        <time>2021-09-01T11:42:24Z</time>
      </trkpt>
      <trkpt lat="44.55272" lon="6.11205">
        <ele>754</ele>
        <time>2021-09-01T11:42:25Z</time>
      </trkpt>
      <trkpt lat="44.55285" lon="6.11225">
        <ele>754.59997558594</ele>
        <time>2021-09-01T11:42:30Z</time>
      </trkpt>
      <trkpt lat="44.55298" lon="6.11245">
        <ele>755</ele>
        <time>2021-09-01T11:42:35Z</time>
      </trkpt>
      <trkpt lat="44.55307" lon="6.11256">
        <ele>755.40002441406</ele>
        <time>2021-09-01T11:42:38Z</time>
      </trkpt>
      <trkpt lat="44.55319" lon="6.11285">
        <ele>756</ele>
        <time>2021-09-01T11:42:44Z</time>
      </trkpt>
      <trkpt lat="44.55325" lon="6.11306">
        <ele>756.20001220703</ele>
        <time>2021-09-01T11:42:48Z</time>
      </trkpt>
      <trkpt lat="44.55332" lon="6.11333">
        <ele>756.40002441406</ele>
        <time>2021-09-01T11:42:53Z</time>
      </trkpt>
      <trkpt lat="44.5534" lon="6.11361">
        <ele>756.59997558594</ele>
        <time>2021-09-01T11:42:58Z</time>
      </trkpt>
      <trkpt lat="44.55345" lon="6.11371">
        <ele>756.59997558594</ele>
        <time>2021-09-01T11:43:00Z</time>
      </trkpt>
      <trkpt lat="44.55354" lon="6.11383">
        <ele>756.79998779297</ele>
        <time>2021-09-01T11:43:03Z</time>
      </trkpt>
      <trkpt lat="44.55369" lon="6.11398">
        <ele>757.20001220703</ele>
        <time>2021-09-01T11:43:07Z</time>
      </trkpt>
      <trkpt lat="44.55373" lon="6.11402">
        <ele>757.20001220703</ele>
        <time>2021-09-01T11:43:08Z</time>
      </trkpt>
      <trkpt lat="44.55404" lon="6.11432">
        <ele>757.59997558594</ele>
        <time>2021-09-01T11:43:16Z</time>
      </trkpt>
      <trkpt lat="44.55412" lon="6.11433">
        <ele>757.79998779297</ele>
        <time>2021-09-01T11:43:18Z</time>
      </trkpt>
      <trkpt lat="44.55421" lon="6.11431">
        <ele>757.79998779297</ele>
        <time>2021-09-01T11:43:20Z</time>
      </trkpt>
      <trkpt lat="44.55429" lon="6.11427">
        <ele>758.20001220703</ele>
        <time>2021-09-01T11:43:22Z</time>
      </trkpt>
      <trkpt lat="44.55434" lon="6.11426">
        <ele>758.40002441406</ele>
        <time>2021-09-01T11:43:23Z</time>
      </trkpt>
      <trkpt lat="44.55445" lon="6.11419">
        <ele>759</ele>
        <time>2021-09-01T11:43:26Z</time>
      </trkpt>
      <trkpt lat="44.55462" lon="6.11407">
        <ele>759.40002441406</ele>
        <time>2021-09-01T11:43:31Z</time>
      </trkpt>
      <trkpt lat="44.55466" lon="6.11406">
        <ele>759.59997558594</ele>
        <time>2021-09-01T11:43:32Z</time>
      </trkpt>
      <trkpt lat="44.55488" lon="6.11402">
        <ele>760.59997558594</ele>
        <time>2021-09-01T11:43:39Z</time>
      </trkpt>
      <trkpt lat="44.55491" lon="6.11403">
        <ele>760.79998779297</ele>
        <time>2021-09-01T11:43:40Z</time>
      </trkpt>
      <trkpt lat="44.55503" lon="6.11416">
        <ele>761.59997558594</ele>
        <time>2021-09-01T11:43:45Z</time>
      </trkpt>
      <trkpt lat="44.55504" lon="6.1142">
        <ele>761.79998779297</ele>
        <time>2021-09-01T11:43:46Z</time>
      </trkpt>
      <trkpt lat="44.55515" lon="6.11444">
        <ele>762.79998779297</ele>
        <time>2021-09-01T11:43:52Z</time>
      </trkpt>
      <trkpt lat="44.55519" lon="6.11452">
        <ele>763</ele>
        <time>2021-09-01T11:43:54Z</time>
      </trkpt>
      <trkpt lat="44.55529" lon="6.1148">
        <ele>763.79998779297</ele>
        <time>2021-09-01T11:44:01Z</time>
      </trkpt>
      <trkpt lat="44.55533" lon="6.11507">
        <ele>764.59997558594</ele>
        <time>2021-09-01T11:44:07Z</time>
      </trkpt>
      <trkpt lat="44.5553" lon="6.11517">
        <ele>764.79998779297</ele>
        <time>2021-09-01T11:44:09Z</time>
      </trkpt>
      <trkpt lat="44.55526" lon="6.11531">
        <ele>764.79998779297</ele>
        <time>2021-09-01T11:44:12Z</time>
      </trkpt>
      <trkpt lat="44.55513" lon="6.11566">
        <ele>764.40002441406</ele>
        <time>2021-09-01T11:44:18Z</time>
      </trkpt>
      <trkpt lat="44.55492" lon="6.11616">
        <ele>763.79998779297</ele>
        <time>2021-09-01T11:44:26Z</time>
      </trkpt>
      <trkpt lat="44.55463" lon="6.11674">
        <ele>763.40002441406</ele>
        <time>2021-09-01T11:44:35Z</time>
      </trkpt>
      <trkpt lat="44.55436" lon="6.11733">
        <ele>762.79998779297</ele>
        <time>2021-09-01T11:44:43Z</time>
      </trkpt>
      <trkpt lat="44.55431" lon="6.11749">
        <ele>762.40002441406</ele>
        <time>2021-09-01T11:44:45Z</time>
      </trkpt>
      <trkpt lat="44.55421" lon="6.1179">
        <ele>762</ele>
        <time>2021-09-01T11:44:50Z</time>
      </trkpt>
      <trkpt lat="44.55421" lon="6.11799">
        <ele>762</ele>
        <time>2021-09-01T11:44:51Z</time>
      </trkpt>
      <trkpt lat="44.55419" lon="6.11842">
        <ele>761.79998779297</ele>
        <time>2021-09-01T11:44:56Z</time>
      </trkpt>
      <trkpt lat="44.55417" lon="6.11867">
        <ele>761.59997558594</ele>
        <time>2021-09-01T11:44:59Z</time>
      </trkpt>
      <trkpt lat="44.55419" lon="6.11889">
        <ele>761.59997558594</ele>
        <time>2021-09-01T11:45:02Z</time>
      </trkpt>
      <trkpt lat="44.55421" lon="6.11896">
        <ele>761.59997558594</ele>
        <time>2021-09-01T11:45:03Z</time>
      </trkpt>
      <trkpt lat="44.55432" lon="6.11918">
        <ele>762.20001220703</ele>
        <time>2021-09-01T11:45:07Z</time>
      </trkpt>
      <trkpt lat="44.55438" lon="6.11929">
        <ele>762.59997558594</ele>
        <time>2021-09-01T11:45:09Z</time>
      </trkpt>
      <trkpt lat="44.55443" lon="6.11938">
        <ele>762.79998779297</ele>
        <time>2021-09-01T11:45:11Z</time>
      </trkpt>
      <trkpt lat="44.55455" lon="6.1196">
        <ele>763.40002441406</ele>
        <time>2021-09-01T11:45:16Z</time>
      </trkpt>
      <trkpt lat="44.55462" lon="6.11971">
        <ele>764</ele>
        <time>2021-09-01T11:45:19Z</time>
      </trkpt>
      <trkpt lat="44.55477" lon="6.11988">
        <ele>764.59997558594</ele>
        <time>2021-09-01T11:45:24Z</time>
      </trkpt>
      <trkpt lat="44.55508" lon="6.12023">
        <ele>764.59997558594</ele>
        <time>2021-09-01T11:45:33Z</time>
      </trkpt>
      <trkpt lat="44.55537" lon="6.12058">
        <ele>764.59997558594</ele>
        <time>2021-09-01T11:45:41Z</time>
      </trkpt>
      <trkpt lat="44.55563" lon="6.12083">
        <ele>764.79998779297</ele>
        <time>2021-09-01T11:45:48Z</time>
      </trkpt>
      <trkpt lat="44.55583" lon="6.12095">
        <ele>765</ele>
        <time>2021-09-01T11:45:53Z</time>
      </trkpt>
      <trkpt lat="44.55594" lon="6.12102">
        <ele>765.20001220703</ele>
        <time>2021-09-01T11:45:56Z</time>
      </trkpt>
      <trkpt lat="44.55609" lon="6.12108">
        <ele>766</ele>
        <time>2021-09-01T11:46:00Z</time>
      </trkpt>
      <trkpt lat="44.55616" lon="6.12108">
        <ele>766.20001220703</ele>
        <time>2021-09-01T11:46:02Z</time>
      </trkpt>
      <trkpt lat="44.55643" lon="6.12108">
        <ele>766</ele>
        <time>2021-09-01T11:46:08Z</time>
      </trkpt>
      <trkpt lat="44.55659" lon="6.12109">
        <ele>765.79998779297</ele>
        <time>2021-09-01T11:46:11Z</time>
      </trkpt>
      <trkpt lat="44.55668" lon="6.12117">
        <ele>765.59997558594</ele>
        <time>2021-09-01T11:46:13Z</time>
      </trkpt>
      <trkpt lat="44.55675" lon="6.12126">
        <ele>764.79998779297</ele>
        <time>2021-09-01T11:46:15Z</time>
      </trkpt>
      <trkpt lat="44.55678" lon="6.12134">
        <ele>764</ele>
        <time>2021-09-01T11:46:17Z</time>
      </trkpt>
      <trkpt lat="44.55679" lon="6.12138">
        <ele>763.40002441406</ele>
        <time>2021-09-01T11:46:18Z</time>
      </trkpt>
      <trkpt lat="44.5568" lon="6.12142">
        <ele>762.40002441406</ele>
        <time>2021-09-01T11:46:20Z</time>
      </trkpt>
      <trkpt lat="44.55679" lon="6.12147">
        <ele>760.40002441406</ele>
        <time>2021-09-01T11:46:56Z</time>
      </trkpt>
      <trkpt lat="44.55677" lon="6.12153">
        <ele>760.20001220703</ele>
        <time>2021-09-01T11:46:58Z</time>
      </trkpt>
      <trkpt lat="44.55663" lon="6.12171">
        <ele>760.20001220703</ele>
        <time>2021-09-01T11:47:03Z</time>
      </trkpt>
      <trkpt lat="44.55637" lon="6.12199">
        <ele>760.40002441406</ele>
        <time>2021-09-01T11:47:10Z</time>
      </trkpt>
      <trkpt lat="44.55614" lon="6.12219">
        <ele>760.59997558594</ele>
        <time>2021-09-01T11:47:16Z</time>
      </trkpt>
      <trkpt lat="44.55611" lon="6.12223">
        <ele>760.79998779297</ele>
        <time>2021-09-01T11:47:17Z</time>
      </trkpt>
      <trkpt lat="44.55597" lon="6.12243">
        <ele>761.20001220703</ele>
        <time>2021-09-01T11:47:22Z</time>
      </trkpt>
      <trkpt lat="44.55593" lon="6.12253">
        <ele>761.40002441406</ele>
        <time>2021-09-01T11:47:24Z</time>
      </trkpt>
      <trkpt lat="44.55589" lon="6.12286">
        <ele>762</ele>
        <time>2021-09-01T11:47:30Z</time>
      </trkpt>
      <trkpt lat="44.55588" lon="6.1231">
        <ele>762.40002441406</ele>
        <time>2021-09-01T11:47:34Z</time>
      </trkpt>
      <trkpt lat="44.55587" lon="6.12316">
        <ele>762.59997558594</ele>
        <time>2021-09-01T11:47:35Z</time>
      </trkpt>
      <trkpt lat="44.55585" lon="6.12327">
        <ele>762.79998779297</ele>
        <time>2021-09-01T11:47:37Z</time>
      </trkpt>
      <trkpt lat="44.55583" lon="6.12332">
        <ele>762.79998779297</ele>
        <time>2021-09-01T11:47:38Z</time>
      </trkpt>
      <trkpt lat="44.55581" lon="6.12337">
        <ele>763</ele>
        <time>2021-09-01T11:47:39Z</time>
      </trkpt>
      <trkpt lat="44.55571" lon="6.12355">
        <ele>763.40002441406</ele>
        <time>2021-09-01T11:47:43Z</time>
      </trkpt>
      <trkpt lat="44.5556" lon="6.12364">
        <ele>763.59997558594</ele>
        <time>2021-09-01T11:47:46Z</time>
      </trkpt>
      <trkpt lat="44.55553" lon="6.1237">
        <ele>763.79998779297</ele>
        <time>2021-09-01T11:47:48Z</time>
      </trkpt>
      <trkpt lat="44.55526" lon="6.12392">
        <ele>764.40002441406</ele>
        <time>2021-09-01T11:47:56Z</time>
      </trkpt>
      <trkpt lat="44.55523" lon="6.12395">
        <ele>764.59997558594</ele>
        <time>2021-09-01T11:47:57Z</time>
      </trkpt>
      <trkpt lat="44.55502" lon="6.12427">
        <ele>765</ele>
        <time>2021-09-01T11:48:04Z</time>
      </trkpt>
      <trkpt lat="44.55482" lon="6.12463">
        <ele>765</ele>
        <time>2021-09-01T11:48:11Z</time>
      </trkpt>
      <trkpt lat="44.55459" lon="6.12513">
        <ele>765.20001220703</ele>
        <time>2021-09-01T11:48:20Z</time>
      </trkpt>
      <trkpt lat="44.55436" lon="6.12554">
        <ele>765.59997558594</ele>
        <time>2021-09-01T11:48:28Z</time>
      </trkpt>
      <trkpt lat="44.55433" lon="6.12557">
        <ele>765.79998779297</ele>
        <time>2021-09-01T11:48:29Z</time>
      </trkpt>
      <trkpt lat="44.55408" lon="6.12582">
        <ele>766.40002441406</ele>
        <time>2021-09-01T11:48:36Z</time>
      </trkpt>
      <trkpt lat="44.55392" lon="6.12595">
        <ele>766.59997558594</ele>
        <time>2021-09-01T11:48:40Z</time>
      </trkpt>
      <trkpt lat="44.55374" lon="6.12612">
        <ele>766.79998779297</ele>
        <time>2021-09-01T11:48:45Z</time>
      </trkpt>
      <trkpt lat="44.55342" lon="6.12644">
        <ele>766.79998779297</ele>
        <time>2021-09-01T11:48:53Z</time>
      </trkpt>
      <trkpt lat="44.55313" lon="6.12673">
        <ele>767.40002441406</ele>
        <time>2021-09-01T11:49:01Z</time>
      </trkpt>
      <trkpt lat="44.55303" lon="6.12683">
        <ele>767.59997558594</ele>
        <time>2021-09-01T11:49:04Z</time>
      </trkpt>
      <trkpt lat="44.55279" lon="6.12707">
        <ele>768.20001220703</ele>
        <time>2021-09-01T11:49:11Z</time>
      </trkpt>
      <trkpt lat="44.5527" lon="6.12716">
        <ele>768.79998779297</ele>
        <time>2021-09-01T11:49:14Z</time>
      </trkpt>
      <trkpt lat="44.55254" lon="6.12733">
        <ele>769.20001220703</ele>
        <time>2021-09-01T11:49:19Z</time>
      </trkpt>
      <trkpt lat="44.55244" lon="6.12762">
        <ele>769.59997558594</ele>
        <time>2021-09-01T11:49:25Z</time>
      </trkpt>
      <trkpt lat="44.55245" lon="6.12783">
        <ele>769.79998779297</ele>
        <time>2021-09-01T11:49:29Z</time>
      </trkpt>
      <trkpt lat="44.55247" lon="6.12794">
        <ele>770</ele>
        <time>2021-09-01T11:49:31Z</time>
      </trkpt>
      <trkpt lat="44.55263" lon="6.12843">
        <ele>770.59997558594</ele>
        <time>2021-09-01T11:49:40Z</time>
      </trkpt>
      <trkpt lat="44.55266" lon="6.12854">
        <ele>770.79998779297</ele>
        <time>2021-09-01T11:49:42Z</time>
      </trkpt>
      <trkpt lat="44.55277" lon="6.12891">
        <ele>771</ele>
        <time>2021-09-01T11:49:49Z</time>
      </trkpt>
      <trkpt lat="44.55291" lon="6.12926">
        <ele>771.79998779297</ele>
        <time>2021-09-01T11:49:57Z</time>
      </trkpt>
      <trkpt lat="44.55292" lon="6.1293">
        <ele>771.79998779297</ele>
        <time>2021-09-01T11:49:58Z</time>
      </trkpt>
      <trkpt lat="44.55305" lon="6.12944">
        <ele>773</ele>
        <time>2021-09-01T11:50:04Z</time>
      </trkpt>
      <trkpt lat="44.55324" lon="6.12957">
        <ele>774</ele>
        <time>2021-09-01T11:50:12Z</time>
      </trkpt>
      <trkpt lat="44.55327" lon="6.12958">
        <ele>774.20001220703</ele>
        <time>2021-09-01T11:50:13Z</time>
      </trkpt>
      <trkpt lat="44.55344" lon="6.12967">
        <ele>775.20001220703</ele>
        <time>2021-09-01T11:50:20Z</time>
      </trkpt>
      <trkpt lat="44.55348" lon="6.12969">
        <ele>775.40002441406</ele>
        <time>2021-09-01T11:50:22Z</time>
      </trkpt>
      <trkpt lat="44.55358" lon="6.12973">
        <ele>776.20001220703</ele>
        <time>2021-09-01T11:50:26Z</time>
      </trkpt>
      <trkpt lat="44.55369" lon="6.12979">
        <ele>776.79998779297</ele>
        <time>2021-09-01T11:50:31Z</time>
      </trkpt>
      <trkpt lat="44.55375" lon="6.12983">
        <ele>777.20001220703</ele>
        <time>2021-09-01T11:50:34Z</time>
      </trkpt>
      <trkpt lat="44.55384" lon="6.12993">
        <ele>778</ele>
        <time>2021-09-01T11:50:39Z</time>
      </trkpt>
      <trkpt lat="44.55387" lon="6.12997">
        <ele>778.40002441406</ele>
        <time>2021-09-01T11:50:41Z</time>
      </trkpt>
      <trkpt lat="44.55396" lon="6.13012">
        <ele>779.20001220703</ele>
        <time>2021-09-01T11:50:47Z</time>
      </trkpt>
      <trkpt lat="44.55399" lon="6.13019">
        <ele>779.59997558594</ele>
        <time>2021-09-01T11:50:49Z</time>
      </trkpt>
      <trkpt lat="44.55404" lon="6.13038">
        <ele>780.40002441406</ele>
        <time>2021-09-01T11:50:55Z</time>
      </trkpt>
      <trkpt lat="44.55405" lon="6.13042">
        <ele>780.59997558594</ele>
        <time>2021-09-01T11:50:56Z</time>
      </trkpt>
      <trkpt lat="44.55408" lon="6.13063">
        <ele>781.59997558594</ele>
        <time>2021-09-01T11:51:02Z</time>
      </trkpt>
      <trkpt lat="44.55408" lon="6.13067">
        <ele>781.79998779297</ele>
        <time>2021-09-01T11:51:03Z</time>
      </trkpt>
      <trkpt lat="44.55409" lon="6.13096">
        <ele>782.59997558594</ele>
        <time>2021-09-01T11:51:11Z</time>
      </trkpt>
      <trkpt lat="44.5541" lon="6.13099">
        <ele>782.79998779297</ele>
        <time>2021-09-01T11:51:12Z</time>
      </trkpt>
      <trkpt lat="44.55411" lon="6.13127">
        <ele>784</ele>
        <time>2021-09-01T11:51:20Z</time>
      </trkpt>
      <trkpt lat="44.55414" lon="6.13158">
        <ele>784.79998779297</ele>
        <time>2021-09-01T11:51:28Z</time>
      </trkpt>
      <trkpt lat="44.55415" lon="6.13167">
        <ele>785</ele>
        <time>2021-09-01T11:51:30Z</time>
      </trkpt>
      <trkpt lat="44.55423" lon="6.13195">
        <ele>785.79998779297</ele>
        <time>2021-09-01T11:51:37Z</time>
      </trkpt>
      <trkpt lat="44.55427" lon="6.13208">
        <ele>786.20001220703</ele>
        <time>2021-09-01T11:51:40Z</time>
      </trkpt>
      <trkpt lat="44.55433" lon="6.1323">
        <ele>786.40002441406</ele>
        <time>2021-09-01T11:51:45Z</time>
      </trkpt>
      <trkpt lat="44.55445" lon="6.13265">
        <ele>787</ele>
        <time>2021-09-01T11:51:53Z</time>
      </trkpt>
      <trkpt lat="44.55447" lon="6.13274">
        <ele>787.20001220703</ele>
        <time>2021-09-01T11:51:55Z</time>
      </trkpt>
      <trkpt lat="44.55454" lon="6.13298">
        <ele>788.20001220703</ele>
        <time>2021-09-01T11:52:01Z</time>
      </trkpt>
      <trkpt lat="44.55457" lon="6.13312">
        <ele>788.40002441406</ele>
        <time>2021-09-01T11:52:04Z</time>
      </trkpt>
      <trkpt lat="44.55462" lon="6.13328">
        <ele>788.59997558594</ele>
        <time>2021-09-01T11:52:08Z</time>
      </trkpt>
      <trkpt lat="44.55469" lon="6.13359">
        <ele>789.40002441406</ele>
        <time>2021-09-01T11:52:15Z</time>
      </trkpt>
      <trkpt lat="44.55477" lon="6.13391">
        <ele>790.20001220703</ele>
        <time>2021-09-01T11:52:22Z</time>
      </trkpt>
      <trkpt lat="44.55478" lon="6.13401">
        <ele>790.40002441406</ele>
        <time>2021-09-01T11:52:24Z</time>
      </trkpt>
      <trkpt lat="44.5548" lon="6.13432">
        <ele>791.20001220703</ele>
        <time>2021-09-01T11:52:30Z</time>
      </trkpt>
      <trkpt lat="44.5548" lon="6.13447">
        <ele>791.59997558594</ele>
        <time>2021-09-01T11:52:33Z</time>
      </trkpt>
      <trkpt lat="44.55481" lon="6.13473">
        <ele>792.20001220703</ele>
        <time>2021-09-01T11:52:38Z</time>
      </trkpt>
      <trkpt lat="44.55486" lon="6.13504">
        <ele>792.59997558594</ele>
        <time>2021-09-01T11:52:44Z</time>
      </trkpt>
      <trkpt lat="44.55488" lon="6.13509">
        <ele>792.59997558594</ele>
        <time>2021-09-01T11:52:45Z</time>
      </trkpt>
      <trkpt lat="44.55499" lon="6.13548">
        <ele>793.20001220703</ele>
        <time>2021-09-01T11:52:53Z</time>
      </trkpt>
      <trkpt lat="44.55507" lon="6.1358">
        <ele>793.79998779297</ele>
        <time>2021-09-01T11:53:00Z</time>
      </trkpt>
      <trkpt lat="44.55509" lon="6.13589">
        <ele>794</ele>
        <time>2021-09-01T11:53:02Z</time>
      </trkpt>
      <trkpt lat="44.55519" lon="6.13625">
        <ele>794.79998779297</ele>
        <time>2021-09-01T11:53:10Z</time>
      </trkpt>
      <trkpt lat="44.5552" lon="6.13629">
        <ele>794.79998779297</ele>
        <time>2021-09-01T11:53:11Z</time>
      </trkpt>
      <trkpt lat="44.55529" lon="6.13658">
        <ele>796</ele>
        <time>2021-09-01T11:53:18Z</time>
      </trkpt>
      <trkpt lat="44.55538" lon="6.13686">
        <ele>796.79998779297</ele>
        <time>2021-09-01T11:53:25Z</time>
      </trkpt>
      <trkpt lat="44.55539" lon="6.1369">
        <ele>797</ele>
        <time>2021-09-01T11:53:26Z</time>
      </trkpt>
      <trkpt lat="44.55548" lon="6.13725">
        <ele>798.20001220703</ele>
        <time>2021-09-01T11:53:35Z</time>
      </trkpt>
      <trkpt lat="44.55558" lon="6.13747">
        <ele>798.79998779297</ele>
        <time>2021-09-01T11:53:41Z</time>
      </trkpt>
      <trkpt lat="44.55564" lon="6.13761">
        <ele>799.20001220703</ele>
        <time>2021-09-01T11:53:45Z</time>
      </trkpt>
      <trkpt lat="44.55575" lon="6.13782">
        <ele>800.20001220703</ele>
        <time>2021-09-01T11:53:52Z</time>
      </trkpt>
      <trkpt lat="44.55576" lon="6.13785">
        <ele>800.20001220703</ele>
        <time>2021-09-01T11:53:53Z</time>
      </trkpt>
      <trkpt lat="44.55584" lon="6.13803">
        <ele>801.40002441406</ele>
        <time>2021-09-01T11:54:00Z</time>
      </trkpt>
      <trkpt lat="44.5559" lon="6.13816">
        <ele>802.40002441406</ele>
        <time>2021-09-01T11:54:05Z</time>
      </trkpt>
      <trkpt lat="44.55593" lon="6.13824">
        <ele>802.79998779297</ele>
        <time>2021-09-01T11:54:08Z</time>
      </trkpt>
      <trkpt lat="44.55597" lon="6.13834">
        <ele>803.40002441406</ele>
        <time>2021-09-01T11:54:12Z</time>
      </trkpt>
      <trkpt lat="44.55603" lon="6.13849">
        <ele>804</ele>
        <time>2021-09-01T11:54:17Z</time>
      </trkpt>
      <trkpt lat="44.55612" lon="6.13867">
        <ele>804.59997558594</ele>
        <time>2021-09-01T11:54:24Z</time>
      </trkpt>
      <trkpt lat="44.55614" lon="6.13874">
        <ele>804.79998779297</ele>
        <time>2021-09-01T11:54:26Z</time>
      </trkpt>
      <trkpt lat="44.55619" lon="6.13889">
        <ele>805.59997558594</ele>
        <time>2021-09-01T11:54:31Z</time>
      </trkpt>
      <trkpt lat="44.55621" lon="6.13895">
        <ele>805.79998779297</ele>
        <time>2021-09-01T11:54:33Z</time>
      </trkpt>
      <trkpt lat="44.55624" lon="6.13907">
        <ele>806.59997558594</ele>
        <time>2021-09-01T11:54:37Z</time>
      </trkpt>
      <trkpt lat="44.55627" lon="6.13917">
        <ele>807</ele>
        <time>2021-09-01T11:54:40Z</time>
      </trkpt>
      <trkpt lat="44.55632" lon="6.13941">
        <ele>807.59997558594</ele>
        <time>2021-09-01T11:54:47Z</time>
      </trkpt>
      <trkpt lat="44.55632" lon="6.13944">
        <ele>807.79998779297</ele>
        <time>2021-09-01T11:54:48Z</time>
      </trkpt>
      <trkpt lat="44.55636" lon="6.13967">
        <ele>808.79998779297</ele>
        <time>2021-09-01T11:54:55Z</time>
      </trkpt>
      <trkpt lat="44.55637" lon="6.13971">
        <ele>809</ele>
        <time>2021-09-01T11:54:56Z</time>
      </trkpt>
      <trkpt lat="44.55641" lon="6.13991">
        <ele>809.59997558594</ele>
        <time>2021-09-01T11:55:02Z</time>
      </trkpt>
      <trkpt lat="44.55643" lon="6.14">
        <ele>809.79998779297</ele>
        <time>2021-09-01T11:55:05Z</time>
      </trkpt>
      <trkpt lat="44.55644" lon="6.1401">
        <ele>810.40002441406</ele>
        <time>2021-09-01T11:55:08Z</time>
      </trkpt>
      <trkpt lat="44.55647" lon="6.14024">
        <ele>811</ele>
        <time>2021-09-01T11:55:13Z</time>
      </trkpt>
      <trkpt lat="44.55648" lon="6.14034">
        <ele>811.20001220703</ele>
        <time>2021-09-01T11:55:16Z</time>
      </trkpt>
      <trkpt lat="44.55651" lon="6.1405">
        <ele>812</ele>
        <time>2021-09-01T11:55:21Z</time>
      </trkpt>
      <trkpt lat="44.55652" lon="6.14053">
        <ele>812.20001220703</ele>
        <time>2021-09-01T11:55:22Z</time>
      </trkpt>
      <trkpt lat="44.55659" lon="6.14073">
        <ele>813.20001220703</ele>
        <time>2021-09-01T11:55:29Z</time>
      </trkpt>
      <trkpt lat="44.55663" lon="6.14082">
        <ele>813.59997558594</ele>
        <time>2021-09-01T11:55:32Z</time>
      </trkpt>
      <trkpt lat="44.55671" lon="6.14098">
        <ele>814.20001220703</ele>
        <time>2021-09-01T11:55:38Z</time>
      </trkpt>
      <trkpt lat="44.55673" lon="6.14105">
        <ele>814.40002441406</ele>
        <time>2021-09-01T11:55:40Z</time>
      </trkpt>
      <trkpt lat="44.55681" lon="6.14124">
        <ele>815.20001220703</ele>
        <time>2021-09-01T11:55:46Z</time>
      </trkpt>
      <trkpt lat="44.55686" lon="6.14132">
        <ele>815.59997558594</ele>
        <time>2021-09-01T11:55:49Z</time>
      </trkpt>
      <trkpt lat="44.55692" lon="6.14149">
        <ele>816.20001220703</ele>
        <time>2021-09-01T11:55:54Z</time>
      </trkpt>
      <trkpt lat="44.55696" lon="6.14154">
        <ele>816.59997558594</ele>
        <time>2021-09-01T11:55:56Z</time>
      </trkpt>
      <trkpt lat="44.55704" lon="6.14177">
        <ele>817.40002441406</ele>
        <time>2021-09-01T11:56:03Z</time>
      </trkpt>
      <trkpt lat="44.55715" lon="6.14204">
        <ele>818.40002441406</ele>
        <time>2021-09-01T11:56:12Z</time>
      </trkpt>
      <trkpt lat="44.55716" lon="6.14206">
        <ele>818.59997558594</ele>
        <time>2021-09-01T11:56:13Z</time>
      </trkpt>
      <trkpt lat="44.55724" lon="6.14226">
        <ele>819.40002441406</ele>
        <time>2021-09-01T11:56:19Z</time>
      </trkpt>
      <trkpt lat="44.55724" lon="6.14229">
        <ele>819.59997558594</ele>
        <time>2021-09-01T11:56:20Z</time>
      </trkpt>
      <trkpt lat="44.55732" lon="6.14253">
        <ele>820.20001220703</ele>
        <time>2021-09-01T11:56:27Z</time>
      </trkpt>
      <trkpt lat="44.55735" lon="6.14261">
        <ele>820.59997558594</ele>
        <time>2021-09-01T11:56:29Z</time>
      </trkpt>
      <trkpt lat="44.55745" lon="6.14284">
        <ele>821.40002441406</ele>
        <time>2021-09-01T11:56:36Z</time>
      </trkpt>
      <trkpt lat="44.55751" lon="6.14293">
        <ele>821.59997558594</ele>
        <time>2021-09-01T11:56:39Z</time>
      </trkpt>
      <trkpt lat="44.55756" lon="6.14304">
        <ele>822</ele>
        <time>2021-09-01T11:56:42Z</time>
      </trkpt>
      <trkpt lat="44.55767" lon="6.14324">
        <ele>822.59997558594</ele>
        <time>2021-09-01T11:56:48Z</time>
      </trkpt>
      <trkpt lat="44.55769" lon="6.14328">
        <ele>822.59997558594</ele>
        <time>2021-09-01T11:56:49Z</time>
      </trkpt>
      <trkpt lat="44.55778" lon="6.14351">
        <ele>823</ele>
        <time>2021-09-01T11:56:55Z</time>
      </trkpt>
      <trkpt lat="44.55783" lon="6.14368">
        <ele>823.79998779297</ele>
        <time>2021-09-01T11:57:00Z</time>
      </trkpt>
      <trkpt lat="44.55786" lon="6.14383">
        <ele>824.40002441406</ele>
        <time>2021-09-01T11:57:04Z</time>
      </trkpt>
      <trkpt lat="44.55788" lon="6.14394">
        <ele>824.79998779297</ele>
        <time>2021-09-01T11:57:07Z</time>
      </trkpt>
      <trkpt lat="44.55792" lon="6.14407">
        <ele>825.40002441406</ele>
        <time>2021-09-01T11:57:11Z</time>
      </trkpt>
      <trkpt lat="44.55794" lon="6.14414">
        <ele>825.79998779297</ele>
        <time>2021-09-01T11:57:13Z</time>
      </trkpt>
      <trkpt lat="44.55796" lon="6.14431">
        <ele>826.40002441406</ele>
        <time>2021-09-01T11:57:17Z</time>
      </trkpt>
      <trkpt lat="44.558" lon="6.14448">
        <ele>827</ele>
        <time>2021-09-01T11:57:21Z</time>
      </trkpt>
      <trkpt lat="44.55804" lon="6.1446">
        <ele>827.40002441406</ele>
        <time>2021-09-01T11:57:24Z</time>
      </trkpt>
      <trkpt lat="44.55809" lon="6.14481">
        <ele>828</ele>
        <time>2021-09-01T11:57:29Z</time>
      </trkpt>
      <trkpt lat="44.55809" lon="6.14485">
        <ele>828.20001220703</ele>
        <time>2021-09-01T11:57:30Z</time>
      </trkpt>
      <trkpt lat="44.55814" lon="6.1451">
        <ele>829.20001220703</ele>
        <time>2021-09-01T11:57:37Z</time>
      </trkpt>
      <trkpt lat="44.55816" lon="6.1452">
        <ele>829.59997558594</ele>
        <time>2021-09-01T11:57:40Z</time>
      </trkpt>
      <trkpt lat="44.55819" lon="6.14538">
        <ele>830.40002441406</ele>
        <time>2021-09-01T11:57:45Z</time>
      </trkpt>
      <trkpt lat="44.55821" lon="6.14549">
        <ele>830.79998779297</ele>
        <time>2021-09-01T11:57:48Z</time>
      </trkpt>
      <trkpt lat="44.55823" lon="6.14567">
        <ele>831.59997558594</ele>
        <time>2021-09-01T11:57:53Z</time>
      </trkpt>
      <trkpt lat="44.55825" lon="6.14578">
        <ele>832</ele>
        <time>2021-09-01T11:57:56Z</time>
      </trkpt>
      <trkpt lat="44.55828" lon="6.14595">
        <ele>832.59997558594</ele>
        <time>2021-09-01T11:58:01Z</time>
      </trkpt>
      <trkpt lat="44.55831" lon="6.14605">
        <ele>833</ele>
        <time>2021-09-01T11:58:04Z</time>
      </trkpt>
      <trkpt lat="44.55837" lon="6.14621">
        <ele>833.59997558594</ele>
        <time>2021-09-01T11:58:09Z</time>
      </trkpt>
      <trkpt lat="44.5584" lon="6.14631">
        <ele>834.20001220703</ele>
        <time>2021-09-01T11:58:12Z</time>
      </trkpt>
      <trkpt lat="44.55844" lon="6.14641">
        <ele>835.40002441406</ele>
        <time>2021-09-01T11:59:00Z</time>
      </trkpt>
      <trkpt lat="44.55847" lon="6.14659">
        <ele>835.79998779297</ele>
        <time>2021-09-01T11:59:05Z</time>
      </trkpt>
      <trkpt lat="44.55849" lon="6.14667">
        <ele>836</ele>
        <time>2021-09-01T11:59:07Z</time>
      </trkpt>
      <trkpt lat="44.55853" lon="6.14687">
        <ele>836.59997558594</ele>
        <time>2021-09-01T11:59:12Z</time>
      </trkpt>
      <trkpt lat="44.55854" lon="6.14694">
        <ele>837</ele>
        <time>2021-09-01T11:59:14Z</time>
      </trkpt>
      <trkpt lat="44.55857" lon="6.14722">
        <ele>838</ele>
        <time>2021-09-01T11:59:21Z</time>
      </trkpt>
      <trkpt lat="44.55858" lon="6.14725">
        <ele>838.20001220703</ele>
        <time>2021-09-01T11:59:22Z</time>
      </trkpt>
      <trkpt lat="44.5586" lon="6.1475">
        <ele>839.20001220703</ele>
        <time>2021-09-01T11:59:29Z</time>
      </trkpt>
      <trkpt lat="44.55862" lon="6.14773">
        <ele>840.20001220703</ele>
        <time>2021-09-01T11:59:36Z</time>
      </trkpt>
      <trkpt lat="44.55863" lon="6.1478">
        <ele>840.59997558594</ele>
        <time>2021-09-01T11:59:38Z</time>
      </trkpt>
      <trkpt lat="44.55868" lon="6.14806">
        <ele>841.40002441406</ele>
        <time>2021-09-01T11:59:46Z</time>
      </trkpt>
      <trkpt lat="44.55868" lon="6.1481">
        <ele>841.40002441406</ele>
        <time>2021-09-01T11:59:47Z</time>
      </trkpt>
      <trkpt lat="44.55872" lon="6.14826">
        <ele>842.40002441406</ele>
        <time>2021-09-01T11:59:52Z</time>
      </trkpt>
      <trkpt lat="44.55875" lon="6.1484">
        <ele>842.79998779297</ele>
        <time>2021-09-01T11:59:56Z</time>
      </trkpt>
      <trkpt lat="44.55878" lon="6.1486">
        <ele>843.40002441406</ele>
        <time>2021-09-01T12:00:02Z</time>
      </trkpt>
      <trkpt lat="44.55878" lon="6.14863">
        <ele>843.59997558594</ele>
        <time>2021-09-01T12:00:03Z</time>
      </trkpt>
      <trkpt lat="44.55881" lon="6.14886">
        <ele>844.40002441406</ele>
        <time>2021-09-01T12:00:10Z</time>
      </trkpt>
      <trkpt lat="44.55882" lon="6.14892">
        <ele>844.59997558594</ele>
        <time>2021-09-01T12:00:12Z</time>
      </trkpt>
      <trkpt lat="44.55886" lon="6.14915">
        <ele>845.40002441406</ele>
        <time>2021-09-01T12:00:19Z</time>
      </trkpt>
      <trkpt lat="44.55886" lon="6.14919">
        <ele>845.59997558594</ele>
        <time>2021-09-01T12:00:20Z</time>
      </trkpt>
      <trkpt lat="44.55887" lon="6.14936">
        <ele>846.59997558594</ele>
        <time>2021-09-01T12:00:25Z</time>
      </trkpt>
      <trkpt lat="44.55887" lon="6.14943">
        <ele>847</ele>
        <time>2021-09-01T12:00:27Z</time>
      </trkpt>
      <trkpt lat="44.55887" lon="6.14963">
        <ele>847.79998779297</ele>
        <time>2021-09-01T12:00:33Z</time>
      </trkpt>
      <trkpt lat="44.55887" lon="6.14976">
        <ele>848.40002441406</ele>
        <time>2021-09-01T12:00:37Z</time>
      </trkpt>
      <trkpt lat="44.55888" lon="6.14986">
        <ele>849</ele>
        <time>2021-09-01T12:00:40Z</time>
      </trkpt>
      <trkpt lat="44.55889" lon="6.15006">
        <ele>849.59997558594</ele>
        <time>2021-09-01T12:00:46Z</time>
      </trkpt>
      <trkpt lat="44.55888" lon="6.15012">
        <ele>850</ele>
        <time>2021-09-01T12:00:48Z</time>
      </trkpt>
      <trkpt lat="44.5589" lon="6.1503">
        <ele>851</ele>
        <time>2021-09-01T12:00:54Z</time>
      </trkpt>
      <trkpt lat="44.5589" lon="6.15033">
        <ele>851</ele>
        <time>2021-09-01T12:00:55Z</time>
      </trkpt>
      <trkpt lat="44.55891" lon="6.15056">
        <ele>852</ele>
        <time>2021-09-01T12:01:02Z</time>
      </trkpt>
      <trkpt lat="44.55891" lon="6.15063">
        <ele>852.20001220703</ele>
        <time>2021-09-01T12:01:04Z</time>
      </trkpt>
      <trkpt lat="44.55891" lon="6.15085">
        <ele>853.20001220703</ele>
        <time>2021-09-01T12:01:11Z</time>
      </trkpt>
      <trkpt lat="44.55891" lon="6.15092">
        <ele>853.40002441406</ele>
        <time>2021-09-01T12:01:13Z</time>
      </trkpt>
      <trkpt lat="44.55891" lon="6.15121">
        <ele>854.20001220703</ele>
        <time>2021-09-01T12:01:21Z</time>
      </trkpt>
      <trkpt lat="44.55892" lon="6.15132">
        <ele>854.40002441406</ele>
        <time>2021-09-01T12:01:24Z</time>
      </trkpt>
      <trkpt lat="44.55893" lon="6.15152">
        <ele>855.40002441406</ele>
        <time>2021-09-01T12:01:30Z</time>
      </trkpt>
      <trkpt lat="44.55893" lon="6.15162">
        <ele>855.79998779297</ele>
        <time>2021-09-01T12:01:33Z</time>
      </trkpt>
      <trkpt lat="44.55894" lon="6.1518">
        <ele>856.40002441406</ele>
        <time>2021-09-01T12:01:38Z</time>
      </trkpt>
      <trkpt lat="44.55894" lon="6.1519">
        <ele>856.79998779297</ele>
        <time>2021-09-01T12:01:41Z</time>
      </trkpt>
      <trkpt lat="44.55896" lon="6.15213">
        <ele>857.59997558594</ele>
        <time>2021-09-01T12:01:48Z</time>
      </trkpt>
      <trkpt lat="44.55896" lon="6.15216">
        <ele>857.59997558594</ele>
        <time>2021-09-01T12:01:49Z</time>
      </trkpt>
      <trkpt lat="44.55898" lon="6.15245">
        <ele>858.59997558594</ele>
        <time>2021-09-01T12:01:58Z</time>
      </trkpt>
      <trkpt lat="44.559" lon="6.15264">
        <ele>859.59997558594</ele>
        <time>2021-09-01T12:02:04Z</time>
      </trkpt>
      <trkpt lat="44.559" lon="6.15267">
        <ele>859.79998779297</ele>
        <time>2021-09-01T12:02:05Z</time>
      </trkpt>
      <trkpt lat="44.55901" lon="6.15294">
        <ele>860.79998779297</ele>
        <time>2021-09-01T12:02:13Z</time>
      </trkpt>
      <trkpt lat="44.55902" lon="6.153">
        <ele>861</ele>
        <time>2021-09-01T12:02:15Z</time>
      </trkpt>
      <trkpt lat="44.55902" lon="6.1532">
        <ele>861.79998779297</ele>
        <time>2021-09-01T12:02:21Z</time>
      </trkpt>
      <trkpt lat="44.55903" lon="6.1533">
        <ele>862.20001220703</ele>
        <time>2021-09-01T12:02:24Z</time>
      </trkpt>
      <trkpt lat="44.55905" lon="6.15342">
        <ele>862.79998779297</ele>
        <time>2021-09-01T12:02:28Z</time>
      </trkpt>
      <trkpt lat="44.55905" lon="6.15345">
        <ele>863</ele>
        <time>2021-09-01T12:02:29Z</time>
      </trkpt>
      <trkpt lat="44.55907" lon="6.15354">
        <ele>863.20001220703</ele>
        <time>2021-09-01T12:02:32Z</time>
      </trkpt>
      <trkpt lat="44.5591" lon="6.1537">
        <ele>864</ele>
        <time>2021-09-01T12:02:37Z</time>
      </trkpt>
      <trkpt lat="44.55912" lon="6.15377">
        <ele>864.20001220703</ele>
        <time>2021-09-01T12:02:39Z</time>
      </trkpt>
      <trkpt lat="44.55915" lon="6.15395">
        <ele>865.20001220703</ele>
        <time>2021-09-01T12:02:45Z</time>
      </trkpt>
      <trkpt lat="44.55916" lon="6.15401">
        <ele>865.40002441406</ele>
        <time>2021-09-01T12:02:47Z</time>
      </trkpt>
      <trkpt lat="44.55919" lon="6.15416">
        <ele>866.20001220703</ele>
        <time>2021-09-01T12:02:52Z</time>
      </trkpt>
      <trkpt lat="44.55921" lon="6.15426">
        <ele>866.79998779297</ele>
        <time>2021-09-01T12:02:55Z</time>
      </trkpt>
      <trkpt lat="44.55925" lon="6.15443">
        <ele>867.40002441406</ele>
        <time>2021-09-01T12:03:00Z</time>
      </trkpt>
      <trkpt lat="44.55928" lon="6.15455">
        <ele>867.79998779297</ele>
        <time>2021-09-01T12:03:04Z</time>
      </trkpt>
      <trkpt lat="44.55931" lon="6.15472">
        <ele>868.40002441406</ele>
        <time>2021-09-01T12:03:09Z</time>
      </trkpt>
      <trkpt lat="44.55932" lon="6.15478">
        <ele>868.59997558594</ele>
        <time>2021-09-01T12:03:11Z</time>
      </trkpt>
      <trkpt lat="44.55936" lon="6.15492">
        <ele>869.59997558594</ele>
        <time>2021-09-01T12:03:16Z</time>
      </trkpt>
      <trkpt lat="44.55939" lon="6.15511">
        <ele>870.20001220703</ele>
        <time>2021-09-01T12:03:22Z</time>
      </trkpt>
      <trkpt lat="44.55942" lon="6.1552">
        <ele>870.59997558594</ele>
        <time>2021-09-01T12:03:25Z</time>
      </trkpt>
      <trkpt lat="44.55946" lon="6.1554">
        <ele>871.59997558594</ele>
        <time>2021-09-01T12:03:32Z</time>
      </trkpt>
      <trkpt lat="44.55949" lon="6.15557">
        <ele>872.79998779297</ele>
        <time>2021-09-01T12:03:38Z</time>
      </trkpt>
      <trkpt lat="44.55951" lon="6.15569">
        <ele>873.20001220703</ele>
        <time>2021-09-01T12:03:42Z</time>
      </trkpt>
      <trkpt lat="44.55955" lon="6.15583">
        <ele>873.79998779297</ele>
        <time>2021-09-01T12:03:47Z</time>
      </trkpt>
      <trkpt lat="44.55956" lon="6.15589">
        <ele>874.20001220703</ele>
        <time>2021-09-01T12:03:49Z</time>
      </trkpt>
      <trkpt lat="44.55958" lon="6.15601">
        <ele>874.79998779297</ele>
        <time>2021-09-01T12:03:53Z</time>
      </trkpt>
      <trkpt lat="44.55961" lon="6.15612">
        <ele>875.40002441406</ele>
        <time>2021-09-01T12:03:57Z</time>
      </trkpt>
      <trkpt lat="44.55962" lon="6.15623">
        <ele>876</ele>
        <time>2021-09-01T12:04:01Z</time>
      </trkpt>
      <trkpt lat="44.55963" lon="6.15634">
        <ele>876.79998779297</ele>
        <time>2021-09-01T12:04:05Z</time>
      </trkpt>
      <trkpt lat="44.55962" lon="6.1564">
        <ele>877</ele>
        <time>2021-09-01T12:04:07Z</time>
      </trkpt>
      <trkpt lat="44.55963" lon="6.15654">
        <ele>877.59997558594</ele>
        <time>2021-09-01T12:04:12Z</time>
      </trkpt>
      <trkpt lat="44.55962" lon="6.15663">
        <ele>878.20001220703</ele>
        <time>2021-09-01T12:04:15Z</time>
      </trkpt>
      <trkpt lat="44.5596" lon="6.15682">
        <ele>879.20001220703</ele>
        <time>2021-09-01T12:04:21Z</time>
      </trkpt>
      <trkpt lat="44.5596" lon="6.15685">
        <ele>879.40002441406</ele>
        <time>2021-09-01T12:04:22Z</time>
      </trkpt>
      <trkpt lat="44.55958" lon="6.15704">
        <ele>880.20001220703</ele>
        <time>2021-09-01T12:04:28Z</time>
      </trkpt>
      <trkpt lat="44.55957" lon="6.15708">
        <ele>880.40002441406</ele>
        <time>2021-09-01T12:04:29Z</time>
      </trkpt>
      <trkpt lat="44.55956" lon="6.15732">
        <ele>881.20001220703</ele>
        <time>2021-09-01T12:04:36Z</time>
      </trkpt>
      <trkpt lat="44.55956" lon="6.15739">
        <ele>881.40002441406</ele>
        <time>2021-09-01T12:04:38Z</time>
      </trkpt>
      <trkpt lat="44.55956" lon="6.1576">
        <ele>882.20001220703</ele>
        <time>2021-09-01T12:04:44Z</time>
      </trkpt>
      <trkpt lat="44.55956" lon="6.15763">
        <ele>882.20001220703</ele>
        <time>2021-09-01T12:04:45Z</time>
      </trkpt>
      <trkpt lat="44.55955" lon="6.15783">
        <ele>883.20001220703</ele>
        <time>2021-09-01T12:04:51Z</time>
      </trkpt>
      <trkpt lat="44.55955" lon="6.15787">
        <ele>883.20001220703</ele>
        <time>2021-09-01T12:04:52Z</time>
      </trkpt>
      <trkpt lat="44.55953" lon="6.15813">
        <ele>884.20001220703</ele>
        <time>2021-09-01T12:04:59Z</time>
      </trkpt>
      <trkpt lat="44.55952" lon="6.15824">
        <ele>884.40002441406</ele>
        <time>2021-09-01T12:05:02Z</time>
      </trkpt>
      <trkpt lat="44.55951" lon="6.15841">
        <ele>885</ele>
        <time>2021-09-01T12:05:07Z</time>
      </trkpt>
      <trkpt lat="44.55949" lon="6.15852">
        <ele>885.40002441406</ele>
        <time>2021-09-01T12:05:10Z</time>
      </trkpt>
      <trkpt lat="44.55948" lon="6.15877">
        <ele>886.40002441406</ele>
        <time>2021-09-01T12:05:17Z</time>
      </trkpt>
      <trkpt lat="44.55948" lon="6.15881">
        <ele>886.59997558594</ele>
        <time>2021-09-01T12:05:18Z</time>
      </trkpt>
      <trkpt lat="44.55942" lon="6.15903">
        <ele>887.59997558594</ele>
        <time>2021-09-01T12:05:24Z</time>
      </trkpt>
      <trkpt lat="44.55941" lon="6.1591">
        <ele>887.79998779297</ele>
        <time>2021-09-01T12:05:26Z</time>
      </trkpt>
      <trkpt lat="44.55935" lon="6.15936">
        <ele>888.59997558594</ele>
        <time>2021-09-01T12:05:33Z</time>
      </trkpt>
      <trkpt lat="44.55933" lon="6.15943">
        <ele>888.79998779297</ele>
        <time>2021-09-01T12:05:35Z</time>
      </trkpt>
      <trkpt lat="44.55929" lon="6.15958">
        <ele>889.79998779297</ele>
        <time>2021-09-01T12:05:39Z</time>
      </trkpt>
      <trkpt lat="44.55925" lon="6.15972">
        <ele>890.79998779297</ele>
        <time>2021-09-01T12:05:43Z</time>
      </trkpt>
      <trkpt lat="44.55925" lon="6.15976">
        <ele>890.79998779297</ele>
        <time>2021-09-01T12:05:44Z</time>
      </trkpt>
      <trkpt lat="44.55916" lon="6.16002">
        <ele>891.59997558594</ele>
        <time>2021-09-01T12:05:51Z</time>
      </trkpt>
      <trkpt lat="44.5591" lon="6.16017">
        <ele>892</ele>
        <time>2021-09-01T12:05:55Z</time>
      </trkpt>
      <trkpt lat="44.55904" lon="6.16025">
        <ele>892.20001220703</ele>
        <time>2021-09-01T12:05:58Z</time>
      </trkpt>
      <trkpt lat="44.55885" lon="6.1604">
        <ele>892.79998779297</ele>
        <time>2021-09-01T12:06:05Z</time>
      </trkpt>
      <trkpt lat="44.55878" lon="6.16046">
        <ele>893</ele>
        <time>2021-09-01T12:06:08Z</time>
      </trkpt>
      <trkpt lat="44.5587" lon="6.16054">
        <ele>893.59997558594</ele>
        <time>2021-09-01T12:06:12Z</time>
      </trkpt>
      <trkpt lat="44.5586" lon="6.16061">
        <ele>894.20001220703</ele>
        <time>2021-09-01T12:06:16Z</time>
      </trkpt>
      <trkpt lat="44.55849" lon="6.16069">
        <ele>894.79998779297</ele>
        <time>2021-09-01T12:06:21Z</time>
      </trkpt>
      <trkpt lat="44.55845" lon="6.16073">
        <ele>895.40002441406</ele>
        <time>2021-09-01T12:06:23Z</time>
      </trkpt>
      <trkpt lat="44.55841" lon="6.16076">
        <ele>895.79998779297</ele>
        <time>2021-09-01T12:06:25Z</time>
      </trkpt>
      <trkpt lat="44.55837" lon="6.1608">
        <ele>896.20001220703</ele>
        <time>2021-09-01T12:06:27Z</time>
      </trkpt>
      <trkpt lat="44.55833" lon="6.16083">
        <ele>896.40002441406</ele>
        <time>2021-09-01T12:06:29Z</time>
      </trkpt>
      <trkpt lat="44.55825" lon="6.16085">
        <ele>897</ele>
        <time>2021-09-01T12:06:32Z</time>
      </trkpt>
      <trkpt lat="44.55818" lon="6.16089">
        <ele>897.40002441406</ele>
        <time>2021-09-01T12:06:35Z</time>
      </trkpt>
      <trkpt lat="44.55814" lon="6.16092">
        <ele>897.59997558594</ele>
        <time>2021-09-01T12:06:37Z</time>
      </trkpt>
      <trkpt lat="44.55812" lon="6.16094">
        <ele>897.59997558594</ele>
        <time>2021-09-01T12:06:38Z</time>
      </trkpt>
      <trkpt lat="44.55793" lon="6.16101">
        <ele>898.59997558594</ele>
        <time>2021-09-01T12:06:46Z</time>
      </trkpt>
      <trkpt lat="44.55791" lon="6.16102">
        <ele>898.59997558594</ele>
        <time>2021-09-01T12:06:47Z</time>
      </trkpt>
      <trkpt lat="44.55772" lon="6.16105">
        <ele>899.59997558594</ele>
        <time>2021-09-01T12:06:55Z</time>
      </trkpt>
      <trkpt lat="44.55757" lon="6.16105">
        <ele>900.79998779297</ele>
        <time>2021-09-01T12:07:02Z</time>
      </trkpt>
      <trkpt lat="44.55755" lon="6.16106">
        <ele>901</ele>
        <time>2021-09-01T12:07:03Z</time>
      </trkpt>
      <trkpt lat="44.55751" lon="6.16107">
        <ele>901.20001220703</ele>
        <time>2021-09-01T12:07:05Z</time>
      </trkpt>
      <trkpt lat="44.55747" lon="6.16104">
        <ele>901.59997558594</ele>
        <time>2021-09-01T12:07:07Z</time>
      </trkpt>
      <trkpt lat="44.55742" lon="6.16099">
        <ele>901.79998779297</ele>
        <time>2021-09-01T12:07:10Z</time>
      </trkpt>
      <trkpt lat="44.55734" lon="6.16097">
        <ele>902.40002441406</ele>
        <time>2021-09-01T12:07:14Z</time>
      </trkpt>
      <trkpt lat="44.55723" lon="6.16093">
        <ele>903</ele>
        <time>2021-09-01T12:07:19Z</time>
      </trkpt>
      <trkpt lat="44.55717" lon="6.16091">
        <ele>903.20001220703</ele>
        <time>2021-09-01T12:07:22Z</time>
      </trkpt>
      <trkpt lat="44.55701" lon="6.16086">
        <ele>903.79998779297</ele>
        <time>2021-09-01T12:07:30Z</time>
      </trkpt>
      <trkpt lat="44.55699" lon="6.16086">
        <ele>904</ele>
        <time>2021-09-01T12:07:31Z</time>
      </trkpt>
      <trkpt lat="44.55687" lon="6.16082">
        <ele>904.59997558594</ele>
        <time>2021-09-01T12:07:37Z</time>
      </trkpt>
      <trkpt lat="44.55679" lon="6.16082">
        <ele>905</ele>
        <time>2021-09-01T12:07:41Z</time>
      </trkpt>
      <trkpt lat="44.55678" lon="6.1608">
        <ele>905.20001220703</ele>
        <time>2021-09-01T12:07:42Z</time>
      </trkpt>
      <trkpt lat="44.55677" lon="6.16078">
        <ele>905.20001220703</ele>
        <time>2021-09-01T12:07:43Z</time>
      </trkpt>
      <trkpt lat="44.55668" lon="6.16073">
        <ele>905.79998779297</ele>
        <time>2021-09-01T12:07:48Z</time>
      </trkpt>
      <trkpt lat="44.55664" lon="6.16074">
        <ele>906</ele>
        <time>2021-09-01T12:07:50Z</time>
      </trkpt>
      <trkpt lat="44.55659" lon="6.16072">
        <ele>906.40002441406</ele>
        <time>2021-09-01T12:07:53Z</time>
      </trkpt>
      <trkpt lat="44.55655" lon="6.16069">
        <ele>906.79998779297</ele>
        <time>2021-09-01T12:07:56Z</time>
      </trkpt>
      <trkpt lat="44.55654" lon="6.16068">
        <ele>907</ele>
        <time>2021-09-01T12:07:57Z</time>
      </trkpt>
      <trkpt lat="44.55652" lon="6.16067">
        <ele>907.20001220703</ele>
        <time>2021-09-01T12:07:58Z</time>
      </trkpt>
      <trkpt lat="44.5565" lon="6.16066">
        <ele>907.40002441406</ele>
        <time>2021-09-01T12:07:59Z</time>
      </trkpt>
      <trkpt lat="44.55644" lon="6.16064">
        <ele>908</ele>
        <time>2021-09-01T12:08:03Z</time>
      </trkpt>
      <trkpt lat="44.55635" lon="6.16061">
        <ele>908.79998779297</ele>
        <time>2021-09-01T12:08:08Z</time>
      </trkpt>
      <trkpt lat="44.55632" lon="6.16059">
        <ele>909.20001220703</ele>
        <time>2021-09-01T12:08:10Z</time>
      </trkpt>
      <trkpt lat="44.55626" lon="6.16054">
        <ele>910.20001220703</ele>
        <time>2021-09-01T12:08:15Z</time>
      </trkpt>
      <trkpt lat="44.55623" lon="6.16051">
        <ele>910.40002441406</ele>
        <time>2021-09-01T12:08:17Z</time>
      </trkpt>
      <trkpt lat="44.55612" lon="6.16041">
        <ele>911.20001220703</ele>
        <time>2021-09-01T12:08:24Z</time>
      </trkpt>
      <trkpt lat="44.55599" lon="6.16031">
        <ele>912.40002441406</ele>
        <time>2021-09-01T12:08:32Z</time>
      </trkpt>
      <trkpt lat="44.5559" lon="6.16022">
        <ele>913.40002441406</ele>
        <time>2021-09-01T12:08:38Z</time>
      </trkpt>
      <trkpt lat="44.55588" lon="6.16022">
        <ele>913.59997558594</ele>
        <time>2021-09-01T12:08:39Z</time>
      </trkpt>
      <trkpt lat="44.55583" lon="6.16019">
        <ele>913.79998779297</ele>
        <time>2021-09-01T12:08:42Z</time>
      </trkpt>
      <trkpt lat="44.5558" lon="6.16013">
        <ele>914.20001220703</ele>
        <time>2021-09-01T12:08:45Z</time>
      </trkpt>
      <trkpt lat="44.55578" lon="6.16012">
        <ele>914.40002441406</ele>
        <time>2021-09-01T12:08:46Z</time>
      </trkpt>
      <trkpt lat="44.55569" lon="6.16004">
        <ele>915.40002441406</ele>
        <time>2021-09-01T12:08:52Z</time>
      </trkpt>
      <trkpt lat="44.5556" lon="6.15997">
        <ele>916.40002441406</ele>
        <time>2021-09-01T12:08:58Z</time>
      </trkpt>
      <trkpt lat="44.55559" lon="6.15995">
        <ele>916.40002441406</ele>
        <time>2021-09-01T12:08:59Z</time>
      </trkpt>
      <trkpt lat="44.55558" lon="6.15993">
        <ele>916.59997558594</ele>
        <time>2021-09-01T12:09:00Z</time>
      </trkpt>
      <trkpt lat="44.55554" lon="6.15988">
        <ele>917</ele>
        <time>2021-09-01T12:09:03Z</time>
      </trkpt>
      <trkpt lat="44.55545" lon="6.15987">
        <ele>917.59997558594</ele>
        <time>2021-09-01T12:09:08Z</time>
      </trkpt>
      <trkpt lat="44.55544" lon="6.15987">
        <ele>917.79998779297</ele>
        <time>2021-09-01T12:09:09Z</time>
      </trkpt>
      <trkpt lat="44.55534" lon="6.15989">
        <ele>918.40002441406</ele>
        <time>2021-09-01T12:09:14Z</time>
      </trkpt>
      <trkpt lat="44.55529" lon="6.15986">
        <ele>918.59997558594</ele>
        <time>2021-09-01T12:09:17Z</time>
      </trkpt>
      <trkpt lat="44.5552" lon="6.15986">
        <ele>919.40002441406</ele>
        <time>2021-09-01T12:09:22Z</time>
      </trkpt>
      <trkpt lat="44.55515" lon="6.15986">
        <ele>919.59997558594</ele>
        <time>2021-09-01T12:09:25Z</time>
      </trkpt>
      <trkpt lat="44.55506" lon="6.15986">
        <ele>920.40002441406</ele>
        <time>2021-09-01T12:09:30Z</time>
      </trkpt>
      <trkpt lat="44.55503" lon="6.15988">
        <ele>920.79998779297</ele>
        <time>2021-09-01T12:09:32Z</time>
      </trkpt>
      <trkpt lat="44.55492" lon="6.15993">
        <ele>922</ele>
        <time>2021-09-01T12:09:38Z</time>
      </trkpt>
      <trkpt lat="44.55481" lon="6.16001">
        <ele>922.59997558594</ele>
        <time>2021-09-01T12:09:44Z</time>
      </trkpt>
      <trkpt lat="44.55477" lon="6.16003">
        <ele>923</ele>
        <time>2021-09-01T12:09:46Z</time>
      </trkpt>
      <trkpt lat="44.5547" lon="6.1601">
        <ele>923.79998779297</ele>
        <time>2021-09-01T12:09:51Z</time>
      </trkpt>
      <trkpt lat="44.55468" lon="6.16014">
        <ele>924.20001220703</ele>
        <time>2021-09-01T12:09:53Z</time>
      </trkpt>
      <trkpt lat="44.5546" lon="6.16021">
        <ele>925</ele>
        <time>2021-09-01T12:09:58Z</time>
      </trkpt>
      <trkpt lat="44.55455" lon="6.16025">
        <ele>925.20001220703</ele>
        <time>2021-09-01T12:10:01Z</time>
      </trkpt>
      <trkpt lat="44.55449" lon="6.16031">
        <ele>925.40002441406</ele>
        <time>2021-09-01T12:10:04Z</time>
      </trkpt>
      <trkpt lat="44.55442" lon="6.16039">
        <ele>925.59997558594</ele>
        <time>2021-09-01T12:10:09Z</time>
      </trkpt>
      <trkpt lat="44.55435" lon="6.16055">
        <ele>926.20001220703</ele>
        <time>2021-09-01T12:10:17Z</time>
      </trkpt>
      <trkpt lat="44.55435" lon="6.16058">
        <ele>926.20001220703</ele>
        <time>2021-09-01T12:10:18Z</time>
      </trkpt>
      <trkpt lat="44.55429" lon="6.16076">
        <ele>927</ele>
        <time>2021-09-01T12:10:25Z</time>
      </trkpt>
      <trkpt lat="44.55423" lon="6.16094">
        <ele>927</ele>
        <time>2021-09-01T12:10:30Z</time>
      </trkpt>
      <trkpt lat="44.55419" lon="6.1612">
        <ele>926.59997558594</ele>
        <time>2021-09-01T12:10:35Z</time>
      </trkpt>
      <trkpt lat="44.55414" lon="6.16151">
        <ele>926</ele>
        <time>2021-09-01T12:10:40Z</time>
      </trkpt>
      <trkpt lat="44.5541" lon="6.16187">
        <ele>925.59997558594</ele>
        <time>2021-09-01T12:10:46Z</time>
      </trkpt>
      <trkpt lat="44.55407" lon="6.16195">
        <ele>925.40002441406</ele>
        <time>2021-09-01T12:10:48Z</time>
      </trkpt>
      <trkpt lat="44.55404" lon="6.16199">
        <ele>925.20001220703</ele>
        <time>2021-09-01T12:10:50Z</time>
      </trkpt>
      <trkpt lat="44.55399" lon="6.16202">
        <ele>924.59997558594</ele>
        <time>2021-09-01T12:10:53Z</time>
      </trkpt>
      <trkpt lat="44.55391" lon="6.16197">
        <ele>924</ele>
        <time>2021-09-01T12:10:57Z</time>
      </trkpt>
      <trkpt lat="44.5539" lon="6.16193">
        <ele>923.79998779297</ele>
        <time>2021-09-01T12:10:58Z</time>
      </trkpt>
      <trkpt lat="44.5538" lon="6.16177">
        <ele>923</ele>
        <time>2021-09-01T12:11:02Z</time>
      </trkpt>
      <trkpt lat="44.55377" lon="6.16174">
        <ele>922.79998779297</ele>
        <time>2021-09-01T12:11:03Z</time>
      </trkpt>
      <trkpt lat="44.55374" lon="6.16171">
        <ele>922.40002441406</ele>
        <time>2021-09-01T12:11:04Z</time>
      </trkpt>
      <trkpt lat="44.55365" lon="6.16167">
        <ele>921.59997558594</ele>
        <time>2021-09-01T12:11:06Z</time>
      </trkpt>
      <trkpt lat="44.55362" lon="6.16167">
        <ele>921.20001220703</ele>
        <time>2021-09-01T12:11:07Z</time>
      </trkpt>
      <trkpt lat="44.55359" lon="6.1617">
        <ele>920.79998779297</ele>
        <time>2021-09-01T12:11:08Z</time>
      </trkpt>
      <trkpt lat="44.55357" lon="6.16175">
        <ele>920.20001220703</ele>
        <time>2021-09-01T12:11:09Z</time>
      </trkpt>
      <trkpt lat="44.55358" lon="6.16183">
        <ele>919.40002441406</ele>
        <time>2021-09-01T12:11:11Z</time>
      </trkpt>
      <trkpt lat="44.55359" lon="6.16186">
        <ele>919</ele>
        <time>2021-09-01T12:11:12Z</time>
      </trkpt>
      <trkpt lat="44.55361" lon="6.16189">
        <ele>918.79998779297</ele>
        <time>2021-09-01T12:11:13Z</time>
      </trkpt>
      <trkpt lat="44.55365" lon="6.16197">
        <ele>918.40002441406</ele>
        <time>2021-09-01T12:11:16Z</time>
      </trkpt>
      <trkpt lat="44.5537" lon="6.16207">
        <ele>918.79998779297</ele>
        <time>2021-09-01T12:11:21Z</time>
      </trkpt>
      <trkpt lat="44.55371" lon="6.16213">
        <ele>919.20001220703</ele>
        <time>2021-09-01T12:11:26Z</time>
      </trkpt>
      <trkpt lat="44.55371" lon="6.16214">
        <ele>919.20001220703</ele>
        <time>2021-09-01T12:11:27Z</time>
      </trkpt>
      <trkpt lat="44.55368" lon="6.16219">
        <ele>919.40002441406</ele>
        <time>2021-09-01T12:51:38Z</time>
      </trkpt>
      <trkpt lat="44.5537" lon="6.16206">
        <ele>919.79998779297</ele>
        <time>2021-09-01T12:52:46Z</time>
      </trkpt>
      <trkpt lat="44.55368" lon="6.162">
        <ele>919.79998779297</ele>
        <time>2021-09-01T12:52:49Z</time>
      </trkpt>
      <trkpt lat="44.55367" lon="6.16198">
        <ele>919.79998779297</ele>
        <time>2021-09-01T12:52:50Z</time>
      </trkpt>
      <trkpt lat="44.5536" lon="6.16185">
        <ele>919.59997558594</ele>
        <time>2021-09-01T12:52:55Z</time>
      </trkpt>
      <trkpt lat="44.55358" lon="6.16181">
        <ele>919.40002441406</ele>
        <time>2021-09-01T12:52:57Z</time>
      </trkpt>
      <trkpt lat="44.55357" lon="6.16172">
        <ele>919.20001220703</ele>
        <time>2021-09-01T12:53:00Z</time>
      </trkpt>
      <trkpt lat="44.55364" lon="6.16169">
        <ele>918.79998779297</ele>
        <time>2021-09-01T12:53:04Z</time>
      </trkpt>
      <trkpt lat="44.55373" lon="6.1617">
        <ele>919</ele>
        <time>2021-09-01T12:53:09Z</time>
      </trkpt>
      <trkpt lat="44.55374" lon="6.16172">
        <ele>919</ele>
        <time>2021-09-01T12:53:10Z</time>
      </trkpt>
      <trkpt lat="44.55379" lon="6.16173">
        <ele>919.59997558594</ele>
        <time>2021-09-01T12:53:13Z</time>
      </trkpt>
      <trkpt lat="44.55381" lon="6.16178">
        <ele>920</ele>
        <time>2021-09-01T12:53:16Z</time>
      </trkpt>
      <trkpt lat="44.55382" lon="6.16179">
        <ele>920.20001220703</ele>
        <time>2021-09-01T12:53:17Z</time>
      </trkpt>
      <trkpt lat="44.55383" lon="6.16181">
        <ele>920.59997558594</ele>
        <time>2021-09-01T12:53:19Z</time>
      </trkpt>
      <trkpt lat="44.55385" lon="6.16182">
        <ele>921</ele>
        <time>2021-09-01T12:53:21Z</time>
      </trkpt>
      <trkpt lat="44.55388" lon="6.16183">
        <ele>921.40002441406</ele>
        <time>2021-09-01T12:53:24Z</time>
      </trkpt>
      <trkpt lat="44.5539" lon="6.16187">
        <ele>921.79998779297</ele>
        <time>2021-09-01T12:53:27Z</time>
      </trkpt>
      <trkpt lat="44.55393" lon="6.16194">
        <ele>922.79998779297</ele>
        <time>2021-09-01T12:54:26Z</time>
      </trkpt>
      <trkpt lat="44.55394" lon="6.16197">
        <ele>923</ele>
        <time>2021-09-01T12:54:28Z</time>
      </trkpt>
      <trkpt lat="44.55394" lon="6.162">
        <ele>923.20001220703</ele>
        <time>2021-09-01T12:54:29Z</time>
      </trkpt>
      <trkpt lat="44.55399" lon="6.1621">
        <ele>923.79998779297</ele>
        <time>2021-09-01T12:54:35Z</time>
      </trkpt>
      <trkpt lat="44.55399" lon="6.16212">
        <ele>924</ele>
        <time>2021-09-01T12:54:36Z</time>
      </trkpt>
      <trkpt lat="44.55396" lon="6.16218">
        <ele>924.20001220703</ele>
        <time>2021-09-01T12:54:38Z</time>
      </trkpt>
      <trkpt lat="44.55394" lon="6.16226">
        <ele>924.20001220703</ele>
        <time>2021-09-01T12:54:40Z</time>
      </trkpt>
      <trkpt lat="44.55386" lon="6.1625">
        <ele>923.59997558594</ele>
        <time>2021-09-01T12:54:47Z</time>
      </trkpt>
      <trkpt lat="44.55376" lon="6.16258">
        <ele>923.20001220703</ele>
        <time>2021-09-01T12:54:51Z</time>
      </trkpt>
      <trkpt lat="44.55372" lon="6.16269">
        <ele>922.79998779297</ele>
        <time>2021-09-01T12:54:54Z</time>
      </trkpt>
      <trkpt lat="44.5537" lon="6.16272">
        <ele>922.59997558594</ele>
        <time>2021-09-01T12:54:55Z</time>
      </trkpt>
      <trkpt lat="44.55356" lon="6.16298">
        <ele>921.79998779297</ele>
        <time>2021-09-01T12:55:02Z</time>
      </trkpt>
      <trkpt lat="44.55353" lon="6.16303">
        <ele>921.59997558594</ele>
        <time>2021-09-01T12:55:03Z</time>
      </trkpt>
      <trkpt lat="44.55343" lon="6.16326">
        <ele>921</ele>
        <time>2021-09-01T12:55:09Z</time>
      </trkpt>
      <trkpt lat="44.55335" lon="6.16341">
        <ele>920.59997558594</ele>
        <time>2021-09-01T12:55:13Z</time>
      </trkpt>
      <trkpt lat="44.55333" lon="6.16345">
        <ele>920.59997558594</ele>
        <time>2021-09-01T12:55:14Z</time>
      </trkpt>
      <trkpt lat="44.55327" lon="6.16361">
        <ele>920.40002441406</ele>
        <time>2021-09-01T12:55:17Z</time>
      </trkpt>
      <trkpt lat="44.55326" lon="6.16373">
        <ele>920</ele>
        <time>2021-09-01T12:55:19Z</time>
      </trkpt>
      <trkpt lat="44.55325" lon="6.16395">
        <ele>919.79998779297</ele>
        <time>2021-09-01T12:55:24Z</time>
      </trkpt>
      <trkpt lat="44.55327" lon="6.16408">
        <ele>920</ele>
        <time>2021-09-01T12:56:19Z</time>
      </trkpt>
      <trkpt lat="44.55328" lon="6.16416">
        <ele>920</ele>
        <time>2021-09-01T12:56:22Z</time>
      </trkpt>
      <trkpt lat="44.55327" lon="6.16436">
        <ele>920</ele>
        <time>2021-09-01T12:56:26Z</time>
      </trkpt>
      <trkpt lat="44.55324" lon="6.16447">
        <ele>919.79998779297</ele>
        <time>2021-09-01T12:56:28Z</time>
      </trkpt>
      <trkpt lat="44.55316" lon="6.1646">
        <ele>919.40002441406</ele>
        <time>2021-09-01T12:56:30Z</time>
      </trkpt>
      <trkpt lat="44.55303" lon="6.16473">
        <ele>918.20001220703</ele>
        <time>2021-09-01T12:56:32Z</time>
      </trkpt>
      <trkpt lat="44.55292" lon="6.16486">
        <ele>917.20001220703</ele>
        <time>2021-09-01T12:56:34Z</time>
      </trkpt>
      <trkpt lat="44.55286" lon="6.16493">
        <ele>916.79998779297</ele>
        <time>2021-09-01T12:56:35Z</time>
      </trkpt>
      <trkpt lat="44.55281" lon="6.16501">
        <ele>916.20001220703</ele>
        <time>2021-09-01T12:56:36Z</time>
      </trkpt>
      <trkpt lat="44.55277" lon="6.16509">
        <ele>915.79998779297</ele>
        <time>2021-09-01T12:56:37Z</time>
      </trkpt>
      <trkpt lat="44.55274" lon="6.16516">
        <ele>915.40002441406</ele>
        <time>2021-09-01T12:56:38Z</time>
      </trkpt>
      <trkpt lat="44.55273" lon="6.16532">
        <ele>914.59997558594</ele>
        <time>2021-09-01T12:56:40Z</time>
      </trkpt>
      <trkpt lat="44.55276" lon="6.16539">
        <ele>914.20001220703</ele>
        <time>2021-09-01T12:56:41Z</time>
      </trkpt>
      <trkpt lat="44.55286" lon="6.16542">
        <ele>913.59997558594</ele>
        <time>2021-09-01T12:56:43Z</time>
      </trkpt>
      <trkpt lat="44.5529" lon="6.16541">
        <ele>913.20001220703</ele>
        <time>2021-09-01T12:56:44Z</time>
      </trkpt>
      <trkpt lat="44.55294" lon="6.1654">
        <ele>913</ele>
        <time>2021-09-01T12:56:45Z</time>
      </trkpt>
      <trkpt lat="44.55302" lon="6.1654">
        <ele>912.79998779297</ele>
        <time>2021-09-01T12:56:47Z</time>
      </trkpt>
      <trkpt lat="44.5531" lon="6.16539">
        <ele>913</ele>
        <time>2021-09-01T12:56:49Z</time>
      </trkpt>
      <trkpt lat="44.55326" lon="6.16531">
        <ele>913.20001220703</ele>
        <time>2021-09-01T12:56:53Z</time>
      </trkpt>
      <trkpt lat="44.55338" lon="6.16523">
        <ele>913</ele>
        <time>2021-09-01T12:56:56Z</time>
      </trkpt>
      <trkpt lat="44.55355" lon="6.16524">
        <ele>912.79998779297</ele>
        <time>2021-09-01T12:56:59Z</time>
      </trkpt>
      <trkpt lat="44.55375" lon="6.16546">
        <ele>912.20001220703</ele>
        <time>2021-09-01T12:57:03Z</time>
      </trkpt>
      <trkpt lat="44.55381" lon="6.16569">
        <ele>911.59997558594</ele>
        <time>2021-09-01T12:57:06Z</time>
      </trkpt>
      <trkpt lat="44.55382" lon="6.16577">
        <ele>911.40002441406</ele>
        <time>2021-09-01T12:57:07Z</time>
      </trkpt>
      <trkpt lat="44.55383" lon="6.16584">
        <ele>911.40002441406</ele>
        <time>2021-09-01T12:57:08Z</time>
      </trkpt>
      <trkpt lat="44.55387" lon="6.16619">
        <ele>911.20001220703</ele>
        <time>2021-09-01T12:57:13Z</time>
      </trkpt>
      <trkpt lat="44.5539" lon="6.16644">
        <ele>911.79998779297</ele>
        <time>2021-09-01T12:57:18Z</time>
      </trkpt>
      <trkpt lat="44.55393" lon="6.16672">
        <ele>913.20001220703</ele>
        <time>2021-09-01T12:57:25Z</time>
      </trkpt>
      <trkpt lat="44.55393" lon="6.16675">
        <ele>913.40002441406</ele>
        <time>2021-09-01T12:57:26Z</time>
      </trkpt>
      <trkpt lat="44.55394" lon="6.16703">
        <ele>913.79998779297</ele>
        <time>2021-09-01T12:57:33Z</time>
      </trkpt>
      <trkpt lat="44.55396" lon="6.16728">
        <ele>914.40002441406</ele>
        <time>2021-09-01T12:57:40Z</time>
      </trkpt>
      <trkpt lat="44.55396" lon="6.16731">
        <ele>914.40002441406</ele>
        <time>2021-09-01T12:57:41Z</time>
      </trkpt>
      <trkpt lat="44.55398" lon="6.16753">
        <ele>915.20001220703</ele>
        <time>2021-09-01T12:57:48Z</time>
      </trkpt>
      <trkpt lat="44.55398" lon="6.16759">
        <ele>915.40002441406</ele>
        <time>2021-09-01T12:57:50Z</time>
      </trkpt>
      <trkpt lat="44.55399" lon="6.16778">
        <ele>916.20001220703</ele>
        <time>2021-09-01T12:57:56Z</time>
      </trkpt>
      <trkpt lat="44.55401" lon="6.16787">
        <ele>916.59997558594</ele>
        <time>2021-09-01T12:57:59Z</time>
      </trkpt>
      <trkpt lat="44.55401" lon="6.16797">
        <ele>917.20001220703</ele>
        <time>2021-09-01T12:58:03Z</time>
      </trkpt>
      <trkpt lat="44.55401" lon="6.16805">
        <ele>917.59997558594</ele>
        <time>2021-09-01T12:58:06Z</time>
      </trkpt>
      <trkpt lat="44.55401" lon="6.16824">
        <ele>918.59997558594</ele>
        <time>2021-09-01T12:58:13Z</time>
      </trkpt>
      <trkpt lat="44.55401" lon="6.16827">
        <ele>918.59997558594</ele>
        <time>2021-09-01T12:58:14Z</time>
      </trkpt>
      <trkpt lat="44.55402" lon="6.16831">
        <ele>919</ele>
        <time>2021-09-01T12:58:16Z</time>
      </trkpt>
      <trkpt lat="44.55402" lon="6.16837">
        <ele>919.40002441406</ele>
        <time>2021-09-01T12:58:19Z</time>
      </trkpt>
      <trkpt lat="44.55402" lon="6.1684">
        <ele>919.59997558594</ele>
        <time>2021-09-01T12:58:20Z</time>
      </trkpt>
      <trkpt lat="44.55401" lon="6.16845">
        <ele>919.79998779297</ele>
        <time>2021-09-01T12:58:22Z</time>
      </trkpt>
      <trkpt lat="44.55404" lon="6.16857">
        <ele>920.59997558594</ele>
        <time>2021-09-01T12:58:27Z</time>
      </trkpt>
      <trkpt lat="44.55404" lon="6.16864">
        <ele>920.79998779297</ele>
        <time>2021-09-01T12:58:30Z</time>
      </trkpt>
      <trkpt lat="44.55405" lon="6.16875">
        <ele>921.40002441406</ele>
        <time>2021-09-01T12:58:35Z</time>
      </trkpt>
      <trkpt lat="44.55405" lon="6.16882">
        <ele>922</ele>
        <time>2021-09-01T12:58:38Z</time>
      </trkpt>
      <trkpt lat="44.55404" lon="6.16888">
        <ele>922.40002441406</ele>
        <time>2021-09-01T12:58:42Z</time>
      </trkpt>
      <trkpt lat="44.55402" lon="6.16904">
        <ele>923.40002441406</ele>
        <time>2021-09-01T12:59:45Z</time>
      </trkpt>
      <trkpt lat="44.554" lon="6.16918">
        <ele>923.59997558594</ele>
        <time>2021-09-01T12:59:50Z</time>
      </trkpt>
      <trkpt lat="44.55398" lon="6.16935">
        <ele>923.79998779297</ele>
        <time>2021-09-01T12:59:55Z</time>
      </trkpt>
      <trkpt lat="44.55397" lon="6.16938">
        <ele>924</ele>
        <time>2021-09-01T12:59:56Z</time>
      </trkpt>
      <trkpt lat="44.55394" lon="6.16961">
        <ele>924.40002441406</ele>
        <time>2021-09-01T13:00:02Z</time>
      </trkpt>
      <trkpt lat="44.55393" lon="6.16983">
        <ele>925.20001220703</ele>
        <time>2021-09-01T13:00:08Z</time>
      </trkpt>
      <trkpt lat="44.55393" lon="6.16997">
        <ele>925.59997558594</ele>
        <time>2021-09-01T13:00:12Z</time>
      </trkpt>
      <trkpt lat="44.55395" lon="6.17014">
        <ele>926.20001220703</ele>
        <time>2021-09-01T13:00:17Z</time>
      </trkpt>
      <trkpt lat="44.55396" lon="6.17024">
        <ele>926.40002441406</ele>
        <time>2021-09-01T13:00:20Z</time>
      </trkpt>
      <trkpt lat="44.55397" lon="6.17029">
        <ele>926.59997558594</ele>
        <time>2021-09-01T13:00:22Z</time>
      </trkpt>
      <trkpt lat="44.554" lon="6.17038">
        <ele>927</ele>
        <time>2021-09-01T13:00:25Z</time>
      </trkpt>
      <trkpt lat="44.554" lon="6.17041">
        <ele>927.20001220703</ele>
        <time>2021-09-01T13:00:26Z</time>
      </trkpt>
      <trkpt lat="44.55403" lon="6.17049">
        <ele>927.59997558594</ele>
        <time>2021-09-01T13:00:29Z</time>
      </trkpt>
      <trkpt lat="44.55405" lon="6.17057">
        <ele>928.20001220703</ele>
        <time>2021-09-01T13:00:32Z</time>
      </trkpt>
      <trkpt lat="44.55406" lon="6.1706">
        <ele>928.40002441406</ele>
        <time>2021-09-01T13:00:33Z</time>
      </trkpt>
      <trkpt lat="44.5541" lon="6.17079">
        <ele>929.40002441406</ele>
        <time>2021-09-01T13:00:40Z</time>
      </trkpt>
      <trkpt lat="44.55411" lon="6.17082">
        <ele>929.40002441406</ele>
        <time>2021-09-01T13:00:41Z</time>
      </trkpt>
      <trkpt lat="44.55412" lon="6.171">
        <ele>930.40002441406</ele>
        <time>2021-09-01T13:00:48Z</time>
      </trkpt>
      <trkpt lat="44.55414" lon="6.17118">
        <ele>931.59997558594</ele>
        <time>2021-09-01T13:00:55Z</time>
      </trkpt>
      <trkpt lat="44.55415" lon="6.17145">
        <ele>932.59997558594</ele>
        <time>2021-09-01T13:01:03Z</time>
      </trkpt>
      <trkpt lat="44.5542" lon="6.17181">
        <ele>933.20001220703</ele>
        <time>2021-09-01T13:01:13Z</time>
      </trkpt>
      <trkpt lat="44.55425" lon="6.17207">
        <ele>933.79998779297</ele>
        <time>2021-09-01T13:01:20Z</time>
      </trkpt>
      <trkpt lat="44.55425" lon="6.17211">
        <ele>933.79998779297</ele>
        <time>2021-09-01T13:01:21Z</time>
      </trkpt>
      <trkpt lat="44.55427" lon="6.1724">
        <ele>934.20001220703</ele>
        <time>2021-09-01T13:01:28Z</time>
      </trkpt>
      <trkpt lat="44.5543" lon="6.17279">
        <ele>934.20001220703</ele>
        <time>2021-09-01T13:01:36Z</time>
      </trkpt>
      <trkpt lat="44.55433" lon="6.1732">
        <ele>933.79998779297</ele>
        <time>2021-09-01T13:01:43Z</time>
      </trkpt>
      <trkpt lat="44.55437" lon="6.17372">
        <ele>932.79998779297</ele>
        <time>2021-09-01T13:01:50Z</time>
      </trkpt>
      <trkpt lat="44.55437" lon="6.17381">
        <ele>932.59997558594</ele>
        <time>2021-09-01T13:01:51Z</time>
      </trkpt>
      <trkpt lat="44.55439" lon="6.17418">
        <ele>931.59997558594</ele>
        <time>2021-09-01T13:01:56Z</time>
      </trkpt>
      <trkpt lat="44.55444" lon="6.17456">
        <ele>931.79998779297</ele>
        <time>2021-09-01T13:02:02Z</time>
      </trkpt>
      <trkpt lat="44.55446" lon="6.17489">
        <ele>932</ele>
        <time>2021-09-01T13:02:07Z</time>
      </trkpt>
      <trkpt lat="44.55447" lon="6.17496">
        <ele>932</ele>
        <time>2021-09-01T13:02:08Z</time>
      </trkpt>
      <trkpt lat="44.5546" lon="6.17553">
        <ele>932.20001220703</ele>
        <time>2021-09-01T13:02:17Z</time>
      </trkpt>
      <trkpt lat="44.5547" lon="6.17609">
        <ele>931.20001220703</ele>
        <time>2021-09-01T13:02:24Z</time>
      </trkpt>
      <trkpt lat="44.55473" lon="6.17644">
        <ele>930.40002441406</ele>
        <time>2021-09-01T13:02:28Z</time>
      </trkpt>
      <trkpt lat="44.55475" lon="6.17661">
        <ele>930</ele>
        <time>2021-09-01T13:02:30Z</time>
      </trkpt>
      <trkpt lat="44.55476" lon="6.17687">
        <ele>929.40002441406</ele>
        <time>2021-09-01T13:02:33Z</time>
      </trkpt>
      <trkpt lat="44.5548" lon="6.17729">
        <ele>929</ele>
        <time>2021-09-01T13:02:38Z</time>
      </trkpt>
      <trkpt lat="44.5549" lon="6.17767">
        <ele>928.59997558594</ele>
        <time>2021-09-01T13:02:43Z</time>
      </trkpt>
      <trkpt lat="44.55493" lon="6.17773">
        <ele>928.59997558594</ele>
        <time>2021-09-01T13:02:44Z</time>
      </trkpt>
      <trkpt lat="44.555" lon="6.17789">
        <ele>928.59997558594</ele>
        <time>2021-09-01T13:02:47Z</time>
      </trkpt>
      <trkpt lat="44.55505" lon="6.17796">
        <ele>928.79998779297</ele>
        <time>2021-09-01T13:02:49Z</time>
      </trkpt>
      <trkpt lat="44.5551" lon="6.17804">
        <ele>929</ele>
        <time>2021-09-01T13:02:51Z</time>
      </trkpt>
      <trkpt lat="44.55516" lon="6.17813">
        <ele>929.79998779297</ele>
        <time>2021-09-01T13:02:54Z</time>
      </trkpt>
      <trkpt lat="44.5552" lon="6.17824">
        <ele>930.59997558594</ele>
        <time>2021-09-01T13:02:57Z</time>
      </trkpt>
      <trkpt lat="44.55521" lon="6.17835">
        <ele>931</ele>
        <time>2021-09-01T13:03:00Z</time>
      </trkpt>
      <trkpt lat="44.55523" lon="6.17849">
        <ele>931.59997558594</ele>
        <time>2021-09-01T13:03:04Z</time>
      </trkpt>
      <trkpt lat="44.55525" lon="6.17864">
        <ele>932.20001220703</ele>
        <time>2021-09-01T13:03:08Z</time>
      </trkpt>
      <trkpt lat="44.55526" lon="6.17871">
        <ele>932.59997558594</ele>
        <time>2021-09-01T13:03:10Z</time>
      </trkpt>
      <trkpt lat="44.55528" lon="6.17896">
        <ele>933.79998779297</ele>
        <time>2021-09-01T13:03:16Z</time>
      </trkpt>
      <trkpt lat="44.55528" lon="6.179">
        <ele>934</ele>
        <time>2021-09-01T13:03:17Z</time>
      </trkpt>
      <trkpt lat="44.55527" lon="6.17921">
        <ele>934.79998779297</ele>
        <time>2021-09-01T13:03:22Z</time>
      </trkpt>
      <trkpt lat="44.55529" lon="6.1795">
        <ele>935.40002441406</ele>
        <time>2021-09-01T13:03:29Z</time>
      </trkpt>
      <trkpt lat="44.55533" lon="6.17986">
        <ele>935.40002441406</ele>
        <time>2021-09-01T13:03:36Z</time>
      </trkpt>
      <trkpt lat="44.55536" lon="6.18007">
        <ele>935</ele>
        <time>2021-09-01T13:03:39Z</time>
      </trkpt>
      <trkpt lat="44.55538" lon="6.18024">
        <ele>934.59997558594</ele>
        <time>2021-09-01T13:03:41Z</time>
      </trkpt>
      <trkpt lat="44.55542" lon="6.18046">
        <ele>933.59997558594</ele>
        <time>2021-09-01T13:03:44Z</time>
      </trkpt>
      <trkpt lat="44.55544" lon="6.18064">
        <ele>933</ele>
        <time>2021-09-01T13:03:46Z</time>
      </trkpt>
      <trkpt lat="44.55544" lon="6.18073">
        <ele>932.59997558594</ele>
        <time>2021-09-01T13:03:47Z</time>
      </trkpt>
      <trkpt lat="44.55544" lon="6.18101">
        <ele>931.40002441406</ele>
        <time>2021-09-01T13:03:50Z</time>
      </trkpt>
      <trkpt lat="44.55544" lon="6.18113">
        <ele>931</ele>
        <time>2021-09-01T13:03:51Z</time>
      </trkpt>
      <trkpt lat="44.55543" lon="6.18134">
        <ele>930</ele>
        <time>2021-09-01T13:03:53Z</time>
      </trkpt>
      <trkpt lat="44.55542" lon="6.18156">
        <ele>928.79998779297</ele>
        <time>2021-09-01T13:03:55Z</time>
      </trkpt>
      <trkpt lat="44.55543" lon="6.18175">
        <ele>927.59997558594</ele>
        <time>2021-09-01T13:03:57Z</time>
      </trkpt>
      <trkpt lat="44.55545" lon="6.18183">
        <ele>926.79998779297</ele>
        <time>2021-09-01T13:03:58Z</time>
      </trkpt>
      <trkpt lat="44.55548" lon="6.18191">
        <ele>926.20001220703</ele>
        <time>2021-09-01T13:03:59Z</time>
      </trkpt>
      <trkpt lat="44.55553" lon="6.18199">
        <ele>925.40002441406</ele>
        <time>2021-09-01T13:04:00Z</time>
      </trkpt>
      <trkpt lat="44.55557" lon="6.18207">
        <ele>924.59997558594</ele>
        <time>2021-09-01T13:04:01Z</time>
      </trkpt>
      <trkpt lat="44.55563" lon="6.18214">
        <ele>924</ele>
        <time>2021-09-01T13:04:02Z</time>
      </trkpt>
      <trkpt lat="44.55568" lon="6.18219">
        <ele>923.40002441406</ele>
        <time>2021-09-01T13:04:03Z</time>
      </trkpt>
      <trkpt lat="44.55577" lon="6.1823">
        <ele>922.20001220703</ele>
        <time>2021-09-01T13:04:05Z</time>
      </trkpt>
      <trkpt lat="44.55581" lon="6.18239">
        <ele>921.79998779297</ele>
        <time>2021-09-01T13:04:06Z</time>
      </trkpt>
      <trkpt lat="44.55584" lon="6.18247">
        <ele>921.20001220703</ele>
        <time>2021-09-01T13:04:07Z</time>
      </trkpt>
      <trkpt lat="44.55586" lon="6.18258">
        <ele>920</ele>
        <time>2021-09-01T13:04:08Z</time>
      </trkpt>
      <trkpt lat="44.5559" lon="6.18283">
        <ele>919</ele>
        <time>2021-09-01T13:04:10Z</time>
      </trkpt>
      <trkpt lat="44.55595" lon="6.18307">
        <ele>917.79998779297</ele>
        <time>2021-09-01T13:04:12Z</time>
      </trkpt>
      <trkpt lat="44.55602" lon="6.18331">
        <ele>916.59997558594</ele>
        <time>2021-09-01T13:04:14Z</time>
      </trkpt>
      <trkpt lat="44.55609" lon="6.18357">
        <ele>915</ele>
        <time>2021-09-01T13:04:16Z</time>
      </trkpt>
      <trkpt lat="44.55611" lon="6.18371">
        <ele>914</ele>
        <time>2021-09-01T13:04:17Z</time>
      </trkpt>
      <trkpt lat="44.55611" lon="6.18387">
        <ele>913.20001220703</ele>
        <time>2021-09-01T13:04:18Z</time>
      </trkpt>
      <trkpt lat="44.55606" lon="6.18416">
        <ele>911.40002441406</ele>
        <time>2021-09-01T13:04:20Z</time>
      </trkpt>
      <trkpt lat="44.556" lon="6.18443">
        <ele>909.59997558594</ele>
        <time>2021-09-01T13:04:22Z</time>
      </trkpt>
      <trkpt lat="44.556" lon="6.18472">
        <ele>907.59997558594</ele>
        <time>2021-09-01T13:04:24Z</time>
      </trkpt>
      <trkpt lat="44.556" lon="6.18486">
        <ele>906.59997558594</ele>
        <time>2021-09-01T13:04:25Z</time>
      </trkpt>
      <trkpt lat="44.55604" lon="6.18508">
        <ele>904.79998779297</ele>
        <time>2021-09-01T13:04:27Z</time>
      </trkpt>
      <trkpt lat="44.55605" lon="6.1853">
        <ele>903.20001220703</ele>
        <time>2021-09-01T13:04:29Z</time>
      </trkpt>
      <trkpt lat="44.55605" lon="6.18546">
        <ele>901.59997558594</ele>
        <time>2021-09-01T13:04:31Z</time>
      </trkpt>
      <trkpt lat="44.55606" lon="6.18551">
        <ele>899.59997558594</ele>
        <time>2021-09-01T13:04:32Z</time>
      </trkpt>
      <trkpt lat="44.5561" lon="6.18553">
        <ele>898.79998779297</ele>
        <time>2021-09-01T13:04:33Z</time>
      </trkpt>
      <trkpt lat="44.55614" lon="6.18553">
        <ele>898</ele>
        <time>2021-09-01T13:04:34Z</time>
      </trkpt>
      <trkpt lat="44.55617" lon="6.18545">
        <ele>897.40002441406</ele>
        <time>2021-09-01T13:04:35Z</time>
      </trkpt>
      <trkpt lat="44.55618" lon="6.18538">
        <ele>896.59997558594</ele>
        <time>2021-09-01T13:04:36Z</time>
      </trkpt>
      <trkpt lat="44.55619" lon="6.1853">
        <ele>896.20001220703</ele>
        <time>2021-09-01T13:04:37Z</time>
      </trkpt>
      <trkpt lat="44.55623" lon="6.18513">
        <ele>895.40002441406</ele>
        <time>2021-09-01T13:04:39Z</time>
      </trkpt>
      <trkpt lat="44.55625" lon="6.18503">
        <ele>895</ele>
        <time>2021-09-01T13:04:40Z</time>
      </trkpt>
      <trkpt lat="44.55632" lon="6.18473">
        <ele>894</ele>
        <time>2021-09-01T13:04:43Z</time>
      </trkpt>
      <trkpt lat="44.55637" lon="6.18455">
        <ele>893</ele>
        <time>2021-09-01T13:04:45Z</time>
      </trkpt>
      <trkpt lat="44.5564" lon="6.18446">
        <ele>892.59997558594</ele>
        <time>2021-09-01T13:04:46Z</time>
      </trkpt>
      <trkpt lat="44.55646" lon="6.1844">
        <ele>892</ele>
        <time>2021-09-01T13:04:47Z</time>
      </trkpt>
      <trkpt lat="44.55653" lon="6.18436">
        <ele>891.40002441406</ele>
        <time>2021-09-01T13:04:48Z</time>
      </trkpt>
      <trkpt lat="44.5566" lon="6.18429">
        <ele>891</ele>
        <time>2021-09-01T13:04:49Z</time>
      </trkpt>
      <trkpt lat="44.55665" lon="6.1842">
        <ele>890.40002441406</ele>
        <time>2021-09-01T13:04:50Z</time>
      </trkpt>
      <trkpt lat="44.55672" lon="6.184">
        <ele>889</ele>
        <time>2021-09-01T13:04:52Z</time>
      </trkpt>
      <trkpt lat="44.55684" lon="6.18367">
        <ele>887.59997558594</ele>
        <time>2021-09-01T13:04:55Z</time>
      </trkpt>
      <trkpt lat="44.55686" lon="6.18355">
        <ele>886.40002441406</ele>
        <time>2021-09-01T13:04:56Z</time>
      </trkpt>
      <trkpt lat="44.55686" lon="6.18334">
        <ele>885.20001220703</ele>
        <time>2021-09-01T13:04:58Z</time>
      </trkpt>
      <trkpt lat="44.55686" lon="6.18326">
        <ele>884.40002441406</ele>
        <time>2021-09-01T13:04:59Z</time>
      </trkpt>
      <trkpt lat="44.55689" lon="6.18318">
        <ele>883.59997558594</ele>
        <time>2021-09-01T13:05:00Z</time>
      </trkpt>
      <trkpt lat="44.55697" lon="6.18307">
        <ele>881.79998779297</ele>
        <time>2021-09-01T13:05:02Z</time>
      </trkpt>
      <trkpt lat="44.55706" lon="6.18295">
        <ele>880.79998779297</ele>
        <time>2021-09-01T13:05:04Z</time>
      </trkpt>
      <trkpt lat="44.55711" lon="6.18288">
        <ele>880.40002441406</ele>
        <time>2021-09-01T13:05:05Z</time>
      </trkpt>
      <trkpt lat="44.55723" lon="6.18271">
        <ele>879.20001220703</ele>
        <time>2021-09-01T13:05:07Z</time>
      </trkpt>
      <trkpt lat="44.55733" lon="6.18253">
        <ele>878.20001220703</ele>
        <time>2021-09-01T13:05:09Z</time>
      </trkpt>
      <trkpt lat="44.55738" lon="6.18232">
        <ele>877.20001220703</ele>
        <time>2021-09-01T13:05:11Z</time>
      </trkpt>
      <trkpt lat="44.55742" lon="6.18222">
        <ele>876.59997558594</ele>
        <time>2021-09-01T13:05:12Z</time>
      </trkpt>
      <trkpt lat="44.55749" lon="6.182">
        <ele>875.20001220703</ele>
        <time>2021-09-01T13:05:14Z</time>
      </trkpt>
      <trkpt lat="44.55757" lon="6.18175">
        <ele>874.20001220703</ele>
        <time>2021-09-01T13:05:16Z</time>
      </trkpt>
      <trkpt lat="44.55761" lon="6.18163">
        <ele>873.59997558594</ele>
        <time>2021-09-01T13:05:17Z</time>
      </trkpt>
      <trkpt lat="44.55769" lon="6.1814">
        <ele>872.79998779297</ele>
        <time>2021-09-01T13:05:19Z</time>
      </trkpt>
      <trkpt lat="44.55774" lon="6.1813">
        <ele>871.40002441406</ele>
        <time>2021-09-01T13:05:20Z</time>
      </trkpt>
      <trkpt lat="44.5578" lon="6.18122">
        <ele>870.79998779297</ele>
        <time>2021-09-01T13:05:21Z</time>
      </trkpt>
      <trkpt lat="44.55785" lon="6.18113">
        <ele>869.79998779297</ele>
        <time>2021-09-01T13:05:22Z</time>
      </trkpt>
      <trkpt lat="44.55796" lon="6.18094">
        <ele>868.20001220703</ele>
        <time>2021-09-01T13:05:24Z</time>
      </trkpt>
      <trkpt lat="44.558" lon="6.18084">
        <ele>867.59997558594</ele>
        <time>2021-09-01T13:05:25Z</time>
      </trkpt>
      <trkpt lat="44.55804" lon="6.18073">
        <ele>867</ele>
        <time>2021-09-01T13:05:26Z</time>
      </trkpt>
      <trkpt lat="44.55812" lon="6.18049">
        <ele>865.79998779297</ele>
        <time>2021-09-01T13:05:28Z</time>
      </trkpt>
      <trkpt lat="44.55819" lon="6.18027">
        <ele>864.79998779297</ele>
        <time>2021-09-01T13:05:30Z</time>
      </trkpt>
      <trkpt lat="44.55826" lon="6.18007">
        <ele>863.79998779297</ele>
        <time>2021-09-01T13:05:32Z</time>
      </trkpt>
      <trkpt lat="44.55837" lon="6.17996">
        <ele>862.20001220703</ele>
        <time>2021-09-01T13:05:34Z</time>
      </trkpt>
      <trkpt lat="44.55849" lon="6.18001">
        <ele>860.40002441406</ele>
        <time>2021-09-01T13:05:36Z</time>
      </trkpt>
      <trkpt lat="44.55854" lon="6.18019">
        <ele>858.40002441406</ele>
        <time>2021-09-01T13:05:38Z</time>
      </trkpt>
      <trkpt lat="44.55853" lon="6.18038">
        <ele>857</ele>
        <time>2021-09-01T13:05:40Z</time>
      </trkpt>
      <trkpt lat="44.55852" lon="6.18063">
        <ele>855.79998779297</ele>
        <time>2021-09-01T13:05:43Z</time>
      </trkpt>
      <trkpt lat="44.55851" lon="6.18072">
        <ele>855.59997558594</ele>
        <time>2021-09-01T13:05:44Z</time>
      </trkpt>
      <trkpt lat="44.55852" lon="6.18133">
        <ele>854.79998779297</ele>
        <time>2021-09-01T13:05:51Z</time>
      </trkpt>
      <trkpt lat="44.55853" lon="6.18143">
        <ele>854.59997558594</ele>
        <time>2021-09-01T13:05:52Z</time>
      </trkpt>
      <trkpt lat="44.55855" lon="6.18193">
        <ele>853.59997558594</ele>
        <time>2021-09-01T13:05:57Z</time>
      </trkpt>
      <trkpt lat="44.55857" lon="6.18203">
        <ele>853.40002441406</ele>
        <time>2021-09-01T13:05:58Z</time>
      </trkpt>
      <trkpt lat="44.55863" lon="6.18258">
        <ele>852.59997558594</ele>
        <time>2021-09-01T13:06:03Z</time>
      </trkpt>
      <trkpt lat="44.55865" lon="6.1827">
        <ele>852.40002441406</ele>
        <time>2021-09-01T13:06:04Z</time>
      </trkpt>
      <trkpt lat="44.55868" lon="6.18304">
        <ele>851.59997558594</ele>
        <time>2021-09-01T13:06:07Z</time>
      </trkpt>
      <trkpt lat="44.55868" lon="6.18316">
        <ele>851.20001220703</ele>
        <time>2021-09-01T13:06:08Z</time>
      </trkpt>
      <trkpt lat="44.55868" lon="6.18328">
        <ele>851</ele>
        <time>2021-09-01T13:06:09Z</time>
      </trkpt>
      <trkpt lat="44.55867" lon="6.18362">
        <ele>850.20001220703</ele>
        <time>2021-09-01T13:06:12Z</time>
      </trkpt>
      <trkpt lat="44.55865" lon="6.18409">
        <ele>849</ele>
        <time>2021-09-01T13:06:16Z</time>
      </trkpt>
      <trkpt lat="44.55868" lon="6.18458">
        <ele>847.59997558594</ele>
        <time>2021-09-01T13:06:20Z</time>
      </trkpt>
      <trkpt lat="44.5587" lon="6.18482">
        <ele>847.20001220703</ele>
        <time>2021-09-01T13:06:22Z</time>
      </trkpt>
      <trkpt lat="44.55872" lon="6.18507">
        <ele>846.59997558594</ele>
        <time>2021-09-01T13:06:24Z</time>
      </trkpt>
      <trkpt lat="44.55872" lon="6.18544">
        <ele>845.20001220703</ele>
        <time>2021-09-01T13:06:27Z</time>
      </trkpt>
      <trkpt lat="44.55872" lon="6.18558">
        <ele>844.79998779297</ele>
        <time>2021-09-01T13:06:28Z</time>
      </trkpt>
      <trkpt lat="44.55872" lon="6.18572">
        <ele>844.20001220703</ele>
        <time>2021-09-01T13:06:29Z</time>
      </trkpt>
      <trkpt lat="44.5587" lon="6.18601">
        <ele>842.79998779297</ele>
        <time>2021-09-01T13:06:31Z</time>
      </trkpt>
      <trkpt lat="44.5587" lon="6.18616">
        <ele>841.40002441406</ele>
        <time>2021-09-01T13:06:32Z</time>
      </trkpt>
      <trkpt lat="44.55868" lon="6.18645">
        <ele>840.20001220703</ele>
        <time>2021-09-01T13:06:34Z</time>
      </trkpt>
      <trkpt lat="44.55864" lon="6.18674">
        <ele>839</ele>
        <time>2021-09-01T13:06:36Z</time>
      </trkpt>
      <trkpt lat="44.5586" lon="6.18703">
        <ele>837.79998779297</ele>
        <time>2021-09-01T13:06:38Z</time>
      </trkpt>
      <trkpt lat="44.55858" lon="6.18716">
        <ele>837.40002441406</ele>
        <time>2021-09-01T13:06:39Z</time>
      </trkpt>
      <trkpt lat="44.55857" lon="6.1873">
        <ele>836.79998779297</ele>
        <time>2021-09-01T13:06:40Z</time>
      </trkpt>
      <trkpt lat="44.55858" lon="6.18744">
        <ele>836.40002441406</ele>
        <time>2021-09-01T13:06:41Z</time>
      </trkpt>
      <trkpt lat="44.55862" lon="6.18757">
        <ele>836</ele>
        <time>2021-09-01T13:06:42Z</time>
      </trkpt>
      <trkpt lat="44.55872" lon="6.18784">
        <ele>835.20001220703</ele>
        <time>2021-09-01T13:06:44Z</time>
      </trkpt>
      <trkpt lat="44.55882" lon="6.18812">
        <ele>834.20001220703</ele>
        <time>2021-09-01T13:06:46Z</time>
      </trkpt>
      <trkpt lat="44.55888" lon="6.18824">
        <ele>833.59997558594</ele>
        <time>2021-09-01T13:06:47Z</time>
      </trkpt>
      <trkpt lat="44.55893" lon="6.18836">
        <ele>832.79998779297</ele>
        <time>2021-09-01T13:06:48Z</time>
      </trkpt>
      <trkpt lat="44.559" lon="6.18859">
        <ele>831.20001220703</ele>
        <time>2021-09-01T13:06:50Z</time>
      </trkpt>
      <trkpt lat="44.559" lon="6.18883">
        <ele>829.59997558594</ele>
        <time>2021-09-01T13:06:52Z</time>
      </trkpt>
      <trkpt lat="44.55899" lon="6.18896">
        <ele>828.79998779297</ele>
        <time>2021-09-01T13:06:53Z</time>
      </trkpt>
      <trkpt lat="44.55898" lon="6.18908">
        <ele>828</ele>
        <time>2021-09-01T13:06:54Z</time>
      </trkpt>
      <trkpt lat="44.55896" lon="6.18933">
        <ele>825.59997558594</ele>
        <time>2021-09-01T13:06:56Z</time>
      </trkpt>
      <trkpt lat="44.55894" lon="6.18957">
        <ele>824.20001220703</ele>
        <time>2021-09-01T13:06:58Z</time>
      </trkpt>
      <trkpt lat="44.55894" lon="6.18968">
        <ele>823.59997558594</ele>
        <time>2021-09-01T13:06:59Z</time>
      </trkpt>
      <trkpt lat="44.55894" lon="6.18978">
        <ele>822.79998779297</ele>
        <time>2021-09-01T13:07:00Z</time>
      </trkpt>
      <trkpt lat="44.55895" lon="6.19">
        <ele>821.20001220703</ele>
        <time>2021-09-01T13:07:02Z</time>
      </trkpt>
      <trkpt lat="44.55897" lon="6.19023">
        <ele>819.79998779297</ele>
        <time>2021-09-01T13:07:04Z</time>
      </trkpt>
      <trkpt lat="44.55899" lon="6.19046">
        <ele>818.20001220703</ele>
        <time>2021-09-01T13:07:06Z</time>
      </trkpt>
      <trkpt lat="44.559" lon="6.19069">
        <ele>817</ele>
        <time>2021-09-01T13:07:08Z</time>
      </trkpt>
      <trkpt lat="44.55901" lon="6.19093">
        <ele>815.79998779297</ele>
        <time>2021-09-01T13:07:10Z</time>
      </trkpt>
      <trkpt lat="44.55902" lon="6.19118">
        <ele>814.59997558594</ele>
        <time>2021-09-01T13:07:12Z</time>
      </trkpt>
      <trkpt lat="44.55902" lon="6.19146">
        <ele>813.40002441406</ele>
        <time>2021-09-01T13:07:14Z</time>
      </trkpt>
      <trkpt lat="44.55902" lon="6.19161">
        <ele>812.79998779297</ele>
        <time>2021-09-01T13:07:15Z</time>
      </trkpt>
      <trkpt lat="44.55902" lon="6.19175">
        <ele>812.20001220703</ele>
        <time>2021-09-01T13:07:16Z</time>
      </trkpt>
      <trkpt lat="44.55904" lon="6.19202">
        <ele>810.40002441406</ele>
        <time>2021-09-01T13:07:18Z</time>
      </trkpt>
      <trkpt lat="44.55906" lon="6.19216">
        <ele>809.59997558594</ele>
        <time>2021-09-01T13:07:19Z</time>
      </trkpt>
      <trkpt lat="44.55908" lon="6.1923">
        <ele>808</ele>
        <time>2021-09-01T13:07:20Z</time>
      </trkpt>
      <trkpt lat="44.55912" lon="6.19259">
        <ele>806.20001220703</ele>
        <time>2021-09-01T13:07:22Z</time>
      </trkpt>
      <trkpt lat="44.55916" lon="6.19289">
        <ele>804.40002441406</ele>
        <time>2021-09-01T13:07:24Z</time>
      </trkpt>
      <trkpt lat="44.55917" lon="6.19304">
        <ele>803.59997558594</ele>
        <time>2021-09-01T13:07:25Z</time>
      </trkpt>
      <trkpt lat="44.55918" lon="6.1932">
        <ele>802.79998779297</ele>
        <time>2021-09-01T13:07:26Z</time>
      </trkpt>
      <trkpt lat="44.55922" lon="6.19353">
        <ele>801</ele>
        <time>2021-09-01T13:07:28Z</time>
      </trkpt>
      <trkpt lat="44.55927" lon="6.19387">
        <ele>799.20001220703</ele>
        <time>2021-09-01T13:07:30Z</time>
      </trkpt>
      <trkpt lat="44.55929" lon="6.19403">
        <ele>798.20001220703</ele>
        <time>2021-09-01T13:07:31Z</time>
      </trkpt>
      <trkpt lat="44.55931" lon="6.19421">
        <ele>797</ele>
        <time>2021-09-01T13:07:32Z</time>
      </trkpt>
      <trkpt lat="44.55934" lon="6.19438">
        <ele>796</ele>
        <time>2021-09-01T13:07:33Z</time>
      </trkpt>
      <trkpt lat="44.55937" lon="6.19456">
        <ele>794.79998779297</ele>
        <time>2021-09-01T13:07:34Z</time>
      </trkpt>
      <trkpt lat="44.5594" lon="6.19473">
        <ele>793.59997558594</ele>
        <time>2021-09-01T13:07:35Z</time>
      </trkpt>
      <trkpt lat="44.55944" lon="6.19491">
        <ele>792.59997558594</ele>
        <time>2021-09-01T13:07:36Z</time>
      </trkpt>
      <trkpt lat="44.55949" lon="6.19507">
        <ele>791.40002441406</ele>
        <time>2021-09-01T13:07:37Z</time>
      </trkpt>
      <trkpt lat="44.55953" lon="6.19522">
        <ele>790.40002441406</ele>
        <time>2021-09-01T13:07:38Z</time>
      </trkpt>
      <trkpt lat="44.55957" lon="6.19535">
        <ele>789.40002441406</ele>
        <time>2021-09-01T13:07:39Z</time>
      </trkpt>
      <trkpt lat="44.5596" lon="6.19545">
        <ele>788.20001220703</ele>
        <time>2021-09-01T13:07:40Z</time>
      </trkpt>
      <trkpt lat="44.55963" lon="6.19555">
        <ele>787.20001220703</ele>
        <time>2021-09-01T13:07:41Z</time>
      </trkpt>
      <trkpt lat="44.55965" lon="6.19564">
        <ele>785.79998779297</ele>
        <time>2021-09-01T13:07:42Z</time>
      </trkpt>
      <trkpt lat="44.55968" lon="6.19573">
        <ele>784.59997558594</ele>
        <time>2021-09-01T13:07:43Z</time>
      </trkpt>
      <trkpt lat="44.55971" lon="6.19582">
        <ele>782</ele>
        <time>2021-09-01T13:07:44Z</time>
      </trkpt>
      <trkpt lat="44.55973" lon="6.19591">
        <ele>781</ele>
        <time>2021-09-01T13:07:45Z</time>
      </trkpt>
      <trkpt lat="44.55979" lon="6.19607">
        <ele>779.59997558594</ele>
        <time>2021-09-01T13:07:47Z</time>
      </trkpt>
      <trkpt lat="44.55983" lon="6.19614">
        <ele>779</ele>
        <time>2021-09-01T13:07:48Z</time>
      </trkpt>
      <trkpt lat="44.55988" lon="6.19619">
        <ele>778.40002441406</ele>
        <time>2021-09-01T13:07:49Z</time>
      </trkpt>
      <trkpt lat="44.55998" lon="6.19626">
        <ele>777.20001220703</ele>
        <time>2021-09-01T13:07:51Z</time>
      </trkpt>
      <trkpt lat="44.56021" lon="6.19642">
        <ele>776.20001220703</ele>
        <time>2021-09-01T13:07:56Z</time>
      </trkpt>
      <trkpt lat="44.56029" lon="6.19648">
        <ele>776.20001220703</ele>
        <time>2021-09-01T13:07:58Z</time>
      </trkpt>
      <trkpt lat="44.56057" lon="6.19668">
        <ele>776.79998779297</ele>
        <time>2021-09-01T13:08:05Z</time>
      </trkpt>
      <trkpt lat="44.56094" lon="6.19695">
        <ele>777</ele>
        <time>2021-09-01T13:08:14Z</time>
      </trkpt>
      <trkpt lat="44.56128" lon="6.19719">
        <ele>777</ele>
        <time>2021-09-01T13:08:22Z</time>
      </trkpt>
      <trkpt lat="44.5615" lon="6.19735">
        <ele>776.59997558594</ele>
        <time>2021-09-01T13:08:27Z</time>
      </trkpt>
      <trkpt lat="44.56158" lon="6.19745">
        <ele>776.59997558594</ele>
        <time>2021-09-01T13:08:29Z</time>
      </trkpt>
      <trkpt lat="44.56165" lon="6.19756">
        <ele>776.40002441406</ele>
        <time>2021-09-01T13:08:31Z</time>
      </trkpt>
      <trkpt lat="44.56179" lon="6.19772">
        <ele>776</ele>
        <time>2021-09-01T13:08:34Z</time>
      </trkpt>
      <trkpt lat="44.5619" lon="6.19781">
        <ele>775.59997558594</ele>
        <time>2021-09-01T13:08:36Z</time>
      </trkpt>
      <trkpt lat="44.56207" lon="6.19789">
        <ele>775</ele>
        <time>2021-09-01T13:08:39Z</time>
      </trkpt>
      <trkpt lat="44.56212" lon="6.19791">
        <ele>774.79998779297</ele>
        <time>2021-09-01T13:08:40Z</time>
      </trkpt>
      <trkpt lat="44.56242" lon="6.19797">
        <ele>774</ele>
        <time>2021-09-01T13:08:46Z</time>
      </trkpt>
      <trkpt lat="44.5625" lon="6.19799">
        <ele>774</ele>
        <time>2021-09-01T13:08:48Z</time>
      </trkpt>
      <trkpt lat="44.56265" lon="6.19805">
        <ele>773.79998779297</ele>
        <time>2021-09-01T13:08:52Z</time>
      </trkpt>
      <trkpt lat="44.56272" lon="6.19807">
        <ele>774.20001220703</ele>
        <time>2021-09-01T13:10:31Z</time>
      </trkpt>
      <trkpt lat="44.56276" lon="6.198">
        <ele>774.20001220703</ele>
        <time>2021-09-01T13:10:35Z</time>
      </trkpt>
      <trkpt lat="44.56291" lon="6.19786">
        <ele>774.59997558594</ele>
        <time>2021-09-01T13:10:43Z</time>
      </trkpt>
      <trkpt lat="44.56297" lon="6.19775">
        <ele>775</ele>
        <time>2021-09-01T13:10:47Z</time>
      </trkpt>
      <trkpt lat="44.56299" lon="6.19768">
        <ele>775</ele>
        <time>2021-09-01T13:10:49Z</time>
      </trkpt>
      <trkpt lat="44.56306" lon="6.1974">
        <ele>776</ele>
        <time>2021-09-01T13:10:57Z</time>
      </trkpt>
      <trkpt lat="44.56307" lon="6.19736">
        <ele>776</ele>
        <time>2021-09-01T13:10:58Z</time>
      </trkpt>
      <trkpt lat="44.56312" lon="6.19713">
        <ele>776.40002441406</ele>
        <time>2021-09-01T13:11:05Z</time>
      </trkpt>
      <trkpt lat="44.5632" lon="6.19695">
        <ele>777</ele>
        <time>2021-09-01T13:11:11Z</time>
      </trkpt>
      <trkpt lat="44.56322" lon="6.19693">
        <ele>777</ele>
        <time>2021-09-01T13:11:12Z</time>
      </trkpt>
      <trkpt lat="44.56324" lon="6.19692">
        <ele>777.20001220703</ele>
        <time>2021-09-01T13:11:13Z</time>
      </trkpt>
      <trkpt lat="44.56332" lon="6.19695">
        <ele>777.40002441406</ele>
        <time>2021-09-01T13:11:16Z</time>
      </trkpt>
      <trkpt lat="44.56344" lon="6.19707">
        <ele>778</ele>
        <time>2021-09-01T13:11:21Z</time>
      </trkpt>
      <trkpt lat="44.56345" lon="6.19726">
        <ele>777.79998779297</ele>
        <time>2021-09-01T13:11:25Z</time>
      </trkpt>
      <trkpt lat="44.56342" lon="6.19737">
        <ele>777.59997558594</ele>
        <time>2021-09-01T13:11:27Z</time>
      </trkpt>
      <trkpt lat="44.56334" lon="6.19757">
        <ele>777.59997558594</ele>
        <time>2021-09-01T13:11:31Z</time>
      </trkpt>
      <trkpt lat="44.56328" lon="6.1978">
        <ele>777.40002441406</ele>
        <time>2021-09-01T13:11:35Z</time>
      </trkpt>
      <trkpt lat="44.56327" lon="6.19797">
        <ele>777.40002441406</ele>
        <time>2021-09-01T13:11:38Z</time>
      </trkpt>
      <trkpt lat="44.56334" lon="6.19809">
        <ele>777.40002441406</ele>
        <time>2021-09-01T13:11:41Z</time>
      </trkpt>
      <trkpt lat="44.56342" lon="6.19811">
        <ele>777.40002441406</ele>
        <time>2021-09-01T13:11:43Z</time>
      </trkpt>
      <trkpt lat="44.56349" lon="6.19812">
        <ele>777.40002441406</ele>
        <time>2021-09-01T13:11:45Z</time>
      </trkpt>
      <trkpt lat="44.56371" lon="6.19814">
        <ele>777.79998779297</ele>
        <time>2021-09-01T13:11:52Z</time>
      </trkpt>
      <trkpt lat="44.5638" lon="6.19816">
        <ele>778</ele>
        <time>2021-09-01T13:11:55Z</time>
      </trkpt>
      <trkpt lat="44.5639" lon="6.1982">
        <ele>778.40002441406</ele>
        <time>2021-09-01T13:11:59Z</time>
      </trkpt>
      <trkpt lat="44.56409" lon="6.1983">
        <ele>779.20001220703</ele>
        <time>2021-09-01T13:12:06Z</time>
      </trkpt>
      <trkpt lat="44.56427" lon="6.19838">
        <ele>779.59997558594</ele>
        <time>2021-09-01T13:12:12Z</time>
      </trkpt>
      <trkpt lat="44.56454" lon="6.19846">
        <ele>779.59997558594</ele>
        <time>2021-09-01T13:12:19Z</time>
      </trkpt>
      <trkpt lat="44.56472" lon="6.19854">
        <ele>779.40002441406</ele>
        <time>2021-09-01T13:12:25Z</time>
      </trkpt>
      <trkpt lat="44.56473" lon="6.1987">
        <ele>779.40002441406</ele>
        <time>2021-09-01T13:12:29Z</time>
      </trkpt>
      <trkpt lat="44.56467" lon="6.19903">
        <ele>779.79998779297</ele>
        <time>2021-09-01T13:12:36Z</time>
      </trkpt>
      <trkpt lat="44.56463" lon="6.1994">
        <ele>780.20001220703</ele>
        <time>2021-09-01T13:12:45Z</time>
      </trkpt>
      <trkpt lat="44.56458" lon="6.19969">
        <ele>781.20001220703</ele>
        <time>2021-09-01T13:12:53Z</time>
      </trkpt>
      <trkpt lat="44.56455" lon="6.19975">
        <ele>781.59997558594</ele>
        <time>2021-09-01T13:12:55Z</time>
      </trkpt>
      <trkpt lat="44.56445" lon="6.19989">
        <ele>782.40002441406</ele>
        <time>2021-09-01T13:13:00Z</time>
      </trkpt>
      <trkpt lat="44.56444" lon="6.19992">
        <ele>782.40002441406</ele>
        <time>2021-09-01T13:13:01Z</time>
      </trkpt>
      <trkpt lat="44.56443" lon="6.20011">
        <ele>782.79998779297</ele>
        <time>2021-09-01T13:13:07Z</time>
      </trkpt>
      <trkpt lat="44.56447" lon="6.20018">
        <ele>783.79998779297</ele>
        <time>2021-09-01T13:14:09Z</time>
      </trkpt>
      <trkpt lat="44.56458" lon="6.2002">
        <ele>783.79998779297</ele>
        <time>2021-09-01T13:14:14Z</time>
      </trkpt>
      <trkpt lat="44.56464" lon="6.20018">
        <ele>784</ele>
        <time>2021-09-01T13:14:16Z</time>
      </trkpt>
      <trkpt lat="44.56475" lon="6.20016">
        <ele>784</ele>
        <time>2021-09-01T13:14:19Z</time>
      </trkpt>
      <trkpt lat="44.5648" lon="6.20018">
        <ele>784</ele>
        <time>2021-09-01T13:14:20Z</time>
      </trkpt>
      <trkpt lat="44.56492" lon="6.20033">
        <ele>783.79998779297</ele>
        <time>2021-09-01T13:14:23Z</time>
      </trkpt>
      <trkpt lat="44.56496" lon="6.20047">
        <ele>783.40002441406</ele>
        <time>2021-09-01T13:14:25Z</time>
      </trkpt>
      <trkpt lat="44.56507" lon="6.20081">
        <ele>782.79998779297</ele>
        <time>2021-09-01T13:14:30Z</time>
      </trkpt>
      <trkpt lat="44.56531" lon="6.20142">
        <ele>782.40002441406</ele>
        <time>2021-09-01T13:14:39Z</time>
      </trkpt>
      <trkpt lat="44.56536" lon="6.20154">
        <ele>782.20001220703</ele>
        <time>2021-09-01T13:14:41Z</time>
      </trkpt>
      <trkpt lat="44.56552" lon="6.20192">
        <ele>782</ele>
        <time>2021-09-01T13:14:47Z</time>
      </trkpt>
      <trkpt lat="44.56579" lon="6.20239">
        <ele>781.79998779297</ele>
        <time>2021-09-01T13:14:55Z</time>
      </trkpt>
      <trkpt lat="44.56602" lon="6.2028">
        <ele>781.79998779297</ele>
        <time>2021-09-01T13:15:02Z</time>
      </trkpt>
      <trkpt lat="44.56627" lon="6.20325">
        <ele>782</ele>
        <time>2021-09-01T13:15:10Z</time>
      </trkpt>
      <trkpt lat="44.56646" lon="6.20362">
        <ele>782.59997558594</ele>
        <time>2021-09-01T13:15:17Z</time>
      </trkpt>
      <trkpt lat="44.56663" lon="6.20396">
        <ele>783.40002441406</ele>
        <time>2021-09-01T13:15:24Z</time>
      </trkpt>
      <trkpt lat="44.56667" lon="6.20405">
        <ele>783.40002441406</ele>
        <time>2021-09-01T13:15:26Z</time>
      </trkpt>
      <trkpt lat="44.5668" lon="6.20439">
        <ele>784.20001220703</ele>
        <time>2021-09-01T13:15:34Z</time>
      </trkpt>
      <trkpt lat="44.56684" lon="6.20451">
        <ele>784.40002441406</ele>
        <time>2021-09-01T13:15:37Z</time>
      </trkpt>
      <trkpt lat="44.56691" lon="6.20469">
        <ele>785</ele>
        <time>2021-09-01T13:15:42Z</time>
      </trkpt>
      <trkpt lat="44.56695" lon="6.20484">
        <ele>785.40002441406</ele>
        <time>2021-09-01T13:15:47Z</time>
      </trkpt>
      <trkpt lat="44.56697" lon="6.20491">
        <ele>785.59997558594</ele>
        <time>2021-09-01T13:15:49Z</time>
      </trkpt>
      <trkpt lat="44.56704" lon="6.20524">
        <ele>785.79998779297</ele>
        <time>2021-09-01T13:15:56Z</time>
      </trkpt>
      <trkpt lat="44.56718" lon="6.20581">
        <ele>786.20001220703</ele>
        <time>2021-09-01T13:16:06Z</time>
      </trkpt>
      <trkpt lat="44.56732" lon="6.20638">
        <ele>786.40002441406</ele>
        <time>2021-09-01T13:16:16Z</time>
      </trkpt>
      <trkpt lat="44.56734" lon="6.20644">
        <ele>786.59997558594</ele>
        <time>2021-09-01T13:16:17Z</time>
      </trkpt>
      <trkpt lat="44.56746" lon="6.20694">
        <ele>787</ele>
        <time>2021-09-01T13:16:26Z</time>
      </trkpt>
      <trkpt lat="44.56753" lon="6.20725">
        <ele>787.59997558594</ele>
        <time>2021-09-01T13:16:32Z</time>
      </trkpt>
      <trkpt lat="44.56758" lon="6.20744">
        <ele>788</ele>
        <time>2021-09-01T13:16:36Z</time>
      </trkpt>
      <trkpt lat="44.56764" lon="6.20768">
        <ele>788.59997558594</ele>
        <time>2021-09-01T13:16:41Z</time>
      </trkpt>
      <trkpt lat="44.56769" lon="6.20791">
        <ele>789.20001220703</ele>
        <time>2021-09-01T13:16:46Z</time>
      </trkpt>
      <trkpt lat="44.56773" lon="6.20809">
        <ele>789.59997558594</ele>
        <time>2021-09-01T13:16:50Z</time>
      </trkpt>
      <trkpt lat="44.56778" lon="6.20826">
        <ele>790.20001220703</ele>
        <time>2021-09-01T13:16:54Z</time>
      </trkpt>
      <trkpt lat="44.56783" lon="6.20846">
        <ele>790.79998779297</ele>
        <time>2021-09-01T13:16:59Z</time>
      </trkpt>
      <trkpt lat="44.56786" lon="6.20859">
        <ele>791.20001220703</ele>
        <time>2021-09-01T13:17:02Z</time>
      </trkpt>
      <trkpt lat="44.56799" lon="6.20894">
        <ele>791.79998779297</ele>
        <time>2021-09-01T13:17:11Z</time>
      </trkpt>
      <trkpt lat="44.56811" lon="6.20924">
        <ele>792.79998779297</ele>
        <time>2021-09-01T13:17:19Z</time>
      </trkpt>
      <trkpt lat="44.56812" lon="6.20928">
        <ele>792.79998779297</ele>
        <time>2021-09-01T13:17:20Z</time>
      </trkpt>
      <trkpt lat="44.56828" lon="6.20964">
        <ele>793.59997558594</ele>
        <time>2021-09-01T13:17:30Z</time>
      </trkpt>
      <trkpt lat="44.56832" lon="6.20975">
        <ele>794</ele>
        <time>2021-09-01T13:17:33Z</time>
      </trkpt>
      <trkpt lat="44.56844" lon="6.21">
        <ele>794.59997558594</ele>
        <time>2021-09-01T13:17:40Z</time>
      </trkpt>
      <trkpt lat="44.5685" lon="6.21014">
        <ele>795</ele>
        <time>2021-09-01T13:17:44Z</time>
      </trkpt>
      <trkpt lat="44.56859" lon="6.21035">
        <ele>795.59997558594</ele>
        <time>2021-09-01T13:17:50Z</time>
      </trkpt>
      <trkpt lat="44.56869" lon="6.21057">
        <ele>796</ele>
        <time>2021-09-01T13:17:56Z</time>
      </trkpt>
      <trkpt lat="44.56879" lon="6.21078">
        <ele>796.59997558594</ele>
        <time>2021-09-01T13:18:02Z</time>
      </trkpt>
      <trkpt lat="44.56889" lon="6.211">
        <ele>797</ele>
        <time>2021-09-01T13:18:08Z</time>
      </trkpt>
      <trkpt lat="44.56897" lon="6.21118">
        <ele>797.79998779297</ele>
        <time>2021-09-01T13:18:13Z</time>
      </trkpt>
      <trkpt lat="44.56905" lon="6.21139">
        <ele>798.20001220703</ele>
        <time>2021-09-01T13:18:19Z</time>
      </trkpt>
      <trkpt lat="44.56911" lon="6.21152">
        <ele>798.40002441406</ele>
        <time>2021-09-01T13:18:23Z</time>
      </trkpt>
      <trkpt lat="44.56921" lon="6.2118">
        <ele>799.20001220703</ele>
        <time>2021-09-01T13:18:31Z</time>
      </trkpt>
      <trkpt lat="44.56928" lon="6.212">
        <ele>800.20001220703</ele>
        <time>2021-09-01T13:21:06Z</time>
      </trkpt>
      <trkpt lat="44.5693" lon="6.21204">
        <ele>800.40002441406</ele>
        <time>2021-09-01T13:21:08Z</time>
      </trkpt>
      <trkpt lat="44.56938" lon="6.21225">
        <ele>800.79998779297</ele>
        <time>2021-09-01T13:21:15Z</time>
      </trkpt>
      <trkpt lat="44.56941" lon="6.21233">
        <ele>801.20001220703</ele>
        <time>2021-09-01T13:21:18Z</time>
      </trkpt>
      <trkpt lat="44.56946" lon="6.21248">
        <ele>802</ele>
        <time>2021-09-01T13:21:23Z</time>
      </trkpt>
      <trkpt lat="44.56949" lon="6.21253">
        <ele>802.20001220703</ele>
        <time>2021-09-01T13:21:25Z</time>
      </trkpt>
      <trkpt lat="44.56956" lon="6.21273">
        <ele>803.20001220703</ele>
        <time>2021-09-01T13:21:32Z</time>
      </trkpt>
      <trkpt lat="44.56957" lon="6.21276">
        <ele>803.40002441406</ele>
        <time>2021-09-01T13:21:33Z</time>
      </trkpt>
      <trkpt lat="44.56964" lon="6.213">
        <ele>804.40002441406</ele>
        <time>2021-09-01T13:21:42Z</time>
      </trkpt>
      <trkpt lat="44.56972" lon="6.21318">
        <ele>805.40002441406</ele>
        <time>2021-09-01T13:21:49Z</time>
      </trkpt>
      <trkpt lat="44.56973" lon="6.2132">
        <ele>805.59997558594</ele>
        <time>2021-09-01T13:21:50Z</time>
      </trkpt>
      <trkpt lat="44.5698" lon="6.21341">
        <ele>806.59997558594</ele>
        <time>2021-09-01T13:21:58Z</time>
      </trkpt>
      <trkpt lat="44.56988" lon="6.21364">
        <ele>807.40002441406</ele>
        <time>2021-09-01T13:22:07Z</time>
      </trkpt>
      <trkpt lat="44.56989" lon="6.21366">
        <ele>807.59997558594</ele>
        <time>2021-09-01T13:22:08Z</time>
      </trkpt>
      <trkpt lat="44.56993" lon="6.2138">
        <ele>808.59997558594</ele>
        <time>2021-09-01T13:22:14Z</time>
      </trkpt>
      <trkpt lat="44.56994" lon="6.21383">
        <ele>808.79998779297</ele>
        <time>2021-09-01T13:22:15Z</time>
      </trkpt>
      <trkpt lat="44.56999" lon="6.214">
        <ele>809.59997558594</ele>
        <time>2021-09-01T13:22:22Z</time>
      </trkpt>
      <trkpt lat="44.56999" lon="6.21402">
        <ele>809.79998779297</ele>
        <time>2021-09-01T13:22:23Z</time>
      </trkpt>
      <trkpt lat="44.57004" lon="6.21421">
        <ele>810.79998779297</ele>
        <time>2021-09-01T13:22:31Z</time>
      </trkpt>
      <trkpt lat="44.57004" lon="6.21423">
        <ele>811</ele>
        <time>2021-09-01T13:22:32Z</time>
      </trkpt>
      <trkpt lat="44.57007" lon="6.21435">
        <ele>812</ele>
        <time>2021-09-01T13:22:37Z</time>
      </trkpt>
      <trkpt lat="44.57008" lon="6.2144">
        <ele>812.20001220703</ele>
        <time>2021-09-01T13:22:39Z</time>
      </trkpt>
      <trkpt lat="44.5701" lon="6.21452">
        <ele>813</ele>
        <time>2021-09-01T13:22:44Z</time>
      </trkpt>
      <trkpt lat="44.57012" lon="6.2146">
        <ele>813.59997558594</ele>
        <time>2021-09-01T13:22:47Z</time>
      </trkpt>
      <trkpt lat="44.57014" lon="6.21467">
        <ele>814</ele>
        <time>2021-09-01T13:22:50Z</time>
      </trkpt>
      <trkpt lat="44.57015" lon="6.2148">
        <ele>814.79998779297</ele>
        <time>2021-09-01T13:22:55Z</time>
      </trkpt>
      <trkpt lat="44.57015" lon="6.21484">
        <ele>815.20001220703</ele>
        <time>2021-09-01T13:22:57Z</time>
      </trkpt>
      <trkpt lat="44.57016" lon="6.21499">
        <ele>816.20001220703</ele>
        <time>2021-09-01T13:23:03Z</time>
      </trkpt>
      <trkpt lat="44.57016" lon="6.21502">
        <ele>816.40002441406</ele>
        <time>2021-09-01T13:23:04Z</time>
      </trkpt>
      <trkpt lat="44.57016" lon="6.21525">
        <ele>817.40002441406</ele>
        <time>2021-09-01T13:23:13Z</time>
      </trkpt>
      <trkpt lat="44.57016" lon="6.21546">
        <ele>818.59997558594</ele>
        <time>2021-09-01T13:23:21Z</time>
      </trkpt>
      <trkpt lat="44.57016" lon="6.21549">
        <ele>818.59997558594</ele>
        <time>2021-09-01T13:23:22Z</time>
      </trkpt>
      <trkpt lat="44.57016" lon="6.21584">
        <ele>819.59997558594</ele>
        <time>2021-09-01T13:23:34Z</time>
      </trkpt>
      <trkpt lat="44.57017" lon="6.2161">
        <ele>820.40002441406</ele>
        <time>2021-09-01T13:23:43Z</time>
      </trkpt>
      <trkpt lat="44.57017" lon="6.21615">
        <ele>820.79998779297</ele>
        <time>2021-09-01T13:23:45Z</time>
      </trkpt>
      <trkpt lat="44.57017" lon="6.21631">
        <ele>821.40002441406</ele>
        <time>2021-09-01T13:23:51Z</time>
      </trkpt>
      <trkpt lat="44.57016" lon="6.21642">
        <ele>821.79998779297</ele>
        <time>2021-09-01T13:23:55Z</time>
      </trkpt>
      <trkpt lat="44.57017" lon="6.21652">
        <ele>822.20001220703</ele>
        <time>2021-09-01T13:23:59Z</time>
      </trkpt>
      <trkpt lat="44.57016" lon="6.21667">
        <ele>823</ele>
        <time>2021-09-01T13:24:05Z</time>
      </trkpt>
      <trkpt lat="44.57015" lon="6.21674">
        <ele>823.40002441406</ele>
        <time>2021-09-01T13:24:08Z</time>
      </trkpt>
      <trkpt lat="44.57016" lon="6.21683">
        <ele>824</ele>
        <time>2021-09-01T13:24:12Z</time>
      </trkpt>
      <trkpt lat="44.57015" lon="6.21693">
        <ele>824.40002441406</ele>
        <time>2021-09-01T13:24:16Z</time>
      </trkpt>
      <trkpt lat="44.57015" lon="6.21702">
        <ele>825</ele>
        <time>2021-09-01T13:24:20Z</time>
      </trkpt>
      <trkpt lat="44.57016" lon="6.21713">
        <ele>826</ele>
        <time>2021-09-01T13:24:25Z</time>
      </trkpt>
      <trkpt lat="44.57016" lon="6.21715">
        <ele>826.20001220703</ele>
        <time>2021-09-01T13:24:26Z</time>
      </trkpt>
      <trkpt lat="44.57012" lon="6.21728">
        <ele>827.20001220703</ele>
        <time>2021-09-01T13:25:00Z</time>
      </trkpt>
      <trkpt lat="44.57007" lon="6.21733">
        <ele>827.40002441406</ele>
        <time>2021-09-01T13:25:03Z</time>
      </trkpt>
      <trkpt lat="44.56994" lon="6.21749">
        <ele>827.20001220703</ele>
        <time>2021-09-01T13:25:10Z</time>
      </trkpt>
      <trkpt lat="44.56987" lon="6.2176">
        <ele>827.20001220703</ele>
        <time>2021-09-01T13:25:16Z</time>
      </trkpt>
      <trkpt lat="44.56987" lon="6.21756">
        <ele>827.40002441406</ele>
        <time>2021-09-01T13:27:01Z</time>
      </trkpt>
      <trkpt lat="44.56988" lon="6.21754">
        <ele>827.40002441406</ele>
        <time>2021-09-01T13:27:02Z</time>
      </trkpt>
      <trkpt lat="44.56995" lon="6.21748">
        <ele>827.40002441406</ele>
        <time>2021-09-01T13:27:05Z</time>
      </trkpt>
      <trkpt lat="44.57003" lon="6.21741">
        <ele>827.40002441406</ele>
        <time>2021-09-01T13:27:08Z</time>
      </trkpt>
      <trkpt lat="44.5701" lon="6.21739">
        <ele>827.40002441406</ele>
        <time>2021-09-01T13:27:11Z</time>
      </trkpt>
      <trkpt lat="44.57012" lon="6.21741">
        <ele>827.59997558594</ele>
        <time>2021-09-01T13:27:12Z</time>
      </trkpt>
      <trkpt lat="44.57014" lon="6.2175">
        <ele>828</ele>
        <time>2021-09-01T13:27:16Z</time>
      </trkpt>
      <trkpt lat="44.57014" lon="6.21755">
        <ele>828.40002441406</ele>
        <time>2021-09-01T13:27:18Z</time>
      </trkpt>
      <trkpt lat="44.57016" lon="6.2176">
        <ele>828.79998779297</ele>
        <time>2021-09-01T13:27:20Z</time>
      </trkpt>
      <trkpt lat="44.57016" lon="6.21765">
        <ele>829.20001220703</ele>
        <time>2021-09-01T13:27:22Z</time>
      </trkpt>
      <trkpt lat="44.57018" lon="6.21769">
        <ele>829.40002441406</ele>
        <time>2021-09-01T13:27:24Z</time>
      </trkpt>
      <trkpt lat="44.5702" lon="6.21777">
        <ele>830.20001220703</ele>
        <time>2021-09-01T13:27:28Z</time>
      </trkpt>
      <trkpt lat="44.57022" lon="6.21781">
        <ele>830.40002441406</ele>
        <time>2021-09-01T13:27:30Z</time>
      </trkpt>
      <trkpt lat="44.57025" lon="6.21795">
        <ele>831.40002441406</ele>
        <time>2021-09-01T13:27:37Z</time>
      </trkpt>
      <trkpt lat="44.57026" lon="6.21797">
        <ele>831.59997558594</ele>
        <time>2021-09-01T13:27:38Z</time>
      </trkpt>
      <trkpt lat="44.57029" lon="6.21808">
        <ele>832.59997558594</ele>
        <time>2021-09-01T13:27:44Z</time>
      </trkpt>
      <trkpt lat="44.57031" lon="6.21816">
        <ele>833.20001220703</ele>
        <time>2021-09-01T13:27:48Z</time>
      </trkpt>
      <trkpt lat="44.57033" lon="6.21821">
        <ele>833.59997558594</ele>
        <time>2021-09-01T13:27:51Z</time>
      </trkpt>
      <trkpt lat="44.57036" lon="6.21829">
        <ele>834.20001220703</ele>
        <time>2021-09-01T13:27:55Z</time>
      </trkpt>
      <trkpt lat="44.57038" lon="6.21836">
        <ele>834.59997558594</ele>
        <time>2021-09-01T13:27:59Z</time>
      </trkpt>
      <trkpt lat="44.57042" lon="6.21846">
        <ele>835.40002441406</ele>
        <time>2021-09-01T13:28:04Z</time>
      </trkpt>
      <trkpt lat="44.57043" lon="6.2185">
        <ele>835.79998779297</ele>
        <time>2021-09-01T13:28:06Z</time>
      </trkpt>
      <trkpt lat="44.57047" lon="6.21858">
        <ele>836.59997558594</ele>
        <time>2021-09-01T13:28:11Z</time>
      </trkpt>
      <trkpt lat="44.57048" lon="6.21863">
        <ele>836.79998779297</ele>
        <time>2021-09-01T13:28:13Z</time>
      </trkpt>
      <trkpt lat="44.57053" lon="6.21873">
        <ele>837.79998779297</ele>
        <time>2021-09-01T13:28:18Z</time>
      </trkpt>
      <trkpt lat="44.57054" lon="6.21874">
        <ele>837.79998779297</ele>
        <time>2021-09-01T13:28:19Z</time>
      </trkpt>
      <trkpt lat="44.57061" lon="6.21886">
        <ele>839</ele>
        <time>2021-09-01T13:28:26Z</time>
      </trkpt>
      <trkpt lat="44.57062" lon="6.21887">
        <ele>839</ele>
        <time>2021-09-01T13:28:27Z</time>
      </trkpt>
      <trkpt lat="44.57063" lon="6.21889">
        <ele>839.20001220703</ele>
        <time>2021-09-01T13:28:28Z</time>
      </trkpt>
      <trkpt lat="44.57067" lon="6.21899">
        <ele>840</ele>
        <time>2021-09-01T13:28:33Z</time>
      </trkpt>
      <trkpt lat="44.57069" lon="6.21901">
        <ele>840.20001220703</ele>
        <time>2021-09-01T13:28:34Z</time>
      </trkpt>
      <trkpt lat="44.57076" lon="6.21913">
        <ele>841.20001220703</ele>
        <time>2021-09-01T13:28:41Z</time>
      </trkpt>
      <trkpt lat="44.57082" lon="6.2192">
        <ele>842</ele>
        <time>2021-09-01T13:28:46Z</time>
      </trkpt>
      <trkpt lat="44.57083" lon="6.21923">
        <ele>842.20001220703</ele>
        <time>2021-09-01T13:28:48Z</time>
      </trkpt>
      <trkpt lat="44.57089" lon="6.21933">
        <ele>843</ele>
        <time>2021-09-01T13:28:54Z</time>
      </trkpt>
      <trkpt lat="44.57091" lon="6.21936">
        <ele>843.20001220703</ele>
        <time>2021-09-01T13:28:56Z</time>
      </trkpt>
      <trkpt lat="44.57098" lon="6.21945">
        <ele>844.20001220703</ele>
        <time>2021-09-01T13:29:02Z</time>
      </trkpt>
      <trkpt lat="44.57099" lon="6.21946">
        <ele>844.40002441406</ele>
        <time>2021-09-01T13:29:03Z</time>
      </trkpt>
      <trkpt lat="44.57106" lon="6.21956">
        <ele>845.40002441406</ele>
        <time>2021-09-01T13:29:09Z</time>
      </trkpt>
      <trkpt lat="44.5711" lon="6.21963">
        <ele>846</ele>
        <time>2021-09-01T13:29:13Z</time>
      </trkpt>
      <trkpt lat="44.57113" lon="6.21968">
        <ele>846.40002441406</ele>
        <time>2021-09-01T13:29:16Z</time>
      </trkpt>
      <trkpt lat="44.57121" lon="6.21978">
        <ele>847.59997558594</ele>
        <time>2021-09-01T13:29:23Z</time>
      </trkpt>
      <trkpt lat="44.5713" lon="6.21991">
        <ele>848.59997558594</ele>
        <time>2021-09-01T13:29:30Z</time>
      </trkpt>
      <trkpt lat="44.57131" lon="6.21993">
        <ele>848.59997558594</ele>
        <time>2021-09-01T13:29:31Z</time>
      </trkpt>
      <trkpt lat="44.57139" lon="6.22005">
        <ele>849.79998779297</ele>
        <time>2021-09-01T13:29:38Z</time>
      </trkpt>
      <trkpt lat="44.57141" lon="6.22008">
        <ele>850</ele>
        <time>2021-09-01T13:29:40Z</time>
      </trkpt>
      <trkpt lat="44.57147" lon="6.22018">
        <ele>850.79998779297</ele>
        <time>2021-09-01T13:29:46Z</time>
      </trkpt>
      <trkpt lat="44.5715" lon="6.22022">
        <ele>851.20001220703</ele>
        <time>2021-09-01T13:29:49Z</time>
      </trkpt>
      <trkpt lat="44.57155" lon="6.22028">
        <ele>851.79998779297</ele>
        <time>2021-09-01T13:29:53Z</time>
      </trkpt>
      <trkpt lat="44.5716" lon="6.22036">
        <ele>852.20001220703</ele>
        <time>2021-09-01T13:29:57Z</time>
      </trkpt>
      <trkpt lat="44.57164" lon="6.22042">
        <ele>852.79998779297</ele>
        <time>2021-09-01T13:30:01Z</time>
      </trkpt>
      <trkpt lat="44.57171" lon="6.22052">
        <ele>853.59997558594</ele>
        <time>2021-09-01T13:30:07Z</time>
      </trkpt>
      <trkpt lat="44.57173" lon="6.22056">
        <ele>854</ele>
        <time>2021-09-01T13:30:09Z</time>
      </trkpt>
      <trkpt lat="44.57178" lon="6.22065">
        <ele>854.79998779297</ele>
        <time>2021-09-01T13:30:14Z</time>
      </trkpt>
      <trkpt lat="44.57179" lon="6.22069">
        <ele>855.20001220703</ele>
        <time>2021-09-01T13:30:16Z</time>
      </trkpt>
      <trkpt lat="44.57183" lon="6.2208">
        <ele>855.79998779297</ele>
        <time>2021-09-01T13:30:21Z</time>
      </trkpt>
      <trkpt lat="44.57185" lon="6.22083">
        <ele>856.20001220703</ele>
        <time>2021-09-01T13:30:23Z</time>
      </trkpt>
      <trkpt lat="44.57189" lon="6.22096">
        <ele>857.20001220703</ele>
        <time>2021-09-01T13:30:29Z</time>
      </trkpt>
      <trkpt lat="44.5719" lon="6.22098">
        <ele>857.40002441406</ele>
        <time>2021-09-01T13:30:30Z</time>
      </trkpt>
      <trkpt lat="44.57194" lon="6.22108">
        <ele>858.40002441406</ele>
        <time>2021-09-01T13:30:35Z</time>
      </trkpt>
      <trkpt lat="44.57196" lon="6.22112">
        <ele>858.59997558594</ele>
        <time>2021-09-01T13:30:37Z</time>
      </trkpt>
      <trkpt lat="44.57198" lon="6.22124">
        <ele>859.40002441406</ele>
        <time>2021-09-01T13:30:42Z</time>
      </trkpt>
      <trkpt lat="44.57198" lon="6.22128">
        <ele>859.79998779297</ele>
        <time>2021-09-01T13:30:44Z</time>
      </trkpt>
      <trkpt lat="44.572" lon="6.2214">
        <ele>860.59997558594</ele>
        <time>2021-09-01T13:30:49Z</time>
      </trkpt>
      <trkpt lat="44.57203" lon="6.22151">
        <ele>861.40002441406</ele>
        <time>2021-09-01T13:30:54Z</time>
      </trkpt>
      <trkpt lat="44.57204" lon="6.22155">
        <ele>861.59997558594</ele>
        <time>2021-09-01T13:30:56Z</time>
      </trkpt>
      <trkpt lat="44.57207" lon="6.22169">
        <ele>862.59997558594</ele>
        <time>2021-09-01T13:31:02Z</time>
      </trkpt>
      <trkpt lat="44.57207" lon="6.22171">
        <ele>862.79998779297</ele>
        <time>2021-09-01T13:31:03Z</time>
      </trkpt>
      <trkpt lat="44.5721" lon="6.22185">
        <ele>863.79998779297</ele>
        <time>2021-09-01T13:31:09Z</time>
      </trkpt>
      <trkpt lat="44.5721" lon="6.22187">
        <ele>864</ele>
        <time>2021-09-01T13:31:10Z</time>
      </trkpt>
      <trkpt lat="44.57215" lon="6.22205">
        <ele>865</ele>
        <time>2021-09-01T13:31:18Z</time>
      </trkpt>
      <trkpt lat="44.57215" lon="6.22207">
        <ele>865</ele>
        <time>2021-09-01T13:31:19Z</time>
      </trkpt>
      <trkpt lat="44.57216" lon="6.22221">
        <ele>866</ele>
        <time>2021-09-01T13:31:25Z</time>
      </trkpt>
      <trkpt lat="44.57217" lon="6.22231">
        <ele>866.79998779297</ele>
        <time>2021-09-01T13:31:29Z</time>
      </trkpt>
      <trkpt lat="44.57218" lon="6.22236">
        <ele>867</ele>
        <time>2021-09-01T13:31:31Z</time>
      </trkpt>
      <trkpt lat="44.5722" lon="6.22246">
        <ele>867.59997558594</ele>
        <time>2021-09-01T13:31:36Z</time>
      </trkpt>
      <trkpt lat="44.57221" lon="6.22253">
        <ele>868</ele>
        <time>2021-09-01T13:31:39Z</time>
      </trkpt>
      <trkpt lat="44.57222" lon="6.22262">
        <ele>868.79998779297</ele>
        <time>2021-09-01T13:31:43Z</time>
      </trkpt>
      <trkpt lat="44.57224" lon="6.22268">
        <ele>869.20001220703</ele>
        <time>2021-09-01T13:31:46Z</time>
      </trkpt>
      <trkpt lat="44.57225" lon="6.22279">
        <ele>870</ele>
        <time>2021-09-01T13:31:51Z</time>
      </trkpt>
      <trkpt lat="44.57226" lon="6.22283">
        <ele>870.20001220703</ele>
        <time>2021-09-01T13:31:53Z</time>
      </trkpt>
      <trkpt lat="44.57225" lon="6.22284">
        <ele>870.40002441406</ele>
        <time>2021-09-01T13:31:54Z</time>
      </trkpt>
      <trkpt lat="44.57226" lon="6.2229">
        <ele>871</ele>
        <time>2021-09-01T13:31:57Z</time>
      </trkpt>
      <trkpt lat="44.57228" lon="6.22296">
        <ele>871.40002441406</ele>
        <time>2021-09-01T13:32:00Z</time>
      </trkpt>
      <trkpt lat="44.57228" lon="6.223">
        <ele>871.59997558594</ele>
        <time>2021-09-01T13:32:03Z</time>
      </trkpt>
      <trkpt lat="44.5723" lon="6.22305">
        <ele>872.20001220703</ele>
        <time>2021-09-01T13:32:42Z</time>
      </trkpt>
      <trkpt lat="44.57232" lon="6.22308">
        <ele>872.40002441406</ele>
        <time>2021-09-01T13:32:44Z</time>
      </trkpt>
      <trkpt lat="44.57234" lon="6.2231">
        <ele>872.40002441406</ele>
        <time>2021-09-01T13:32:45Z</time>
      </trkpt>
      <trkpt lat="44.57242" lon="6.22323">
        <ele>873.20001220703</ele>
        <time>2021-09-01T13:32:52Z</time>
      </trkpt>
      <trkpt lat="44.57244" lon="6.22326">
        <ele>873.40002441406</ele>
        <time>2021-09-01T13:32:54Z</time>
      </trkpt>
      <trkpt lat="44.57252" lon="6.22331">
        <ele>874.59997558594</ele>
        <time>2021-09-01T13:32:59Z</time>
      </trkpt>
      <trkpt lat="44.57262" lon="6.22335">
        <ele>875.59997558594</ele>
        <time>2021-09-01T13:33:05Z</time>
      </trkpt>
      <trkpt lat="44.57268" lon="6.22335">
        <ele>876</ele>
        <time>2021-09-01T13:33:08Z</time>
      </trkpt>
      <trkpt lat="44.57276" lon="6.22337">
        <ele>876.79998779297</ele>
        <time>2021-09-01T13:33:13Z</time>
      </trkpt>
      <trkpt lat="44.57279" lon="6.22336">
        <ele>877</ele>
        <time>2021-09-01T13:33:15Z</time>
      </trkpt>
      <trkpt lat="44.57282" lon="6.22337">
        <ele>877.20001220703</ele>
        <time>2021-09-01T13:33:17Z</time>
      </trkpt>
      <trkpt lat="44.57287" lon="6.22337">
        <ele>877.79998779297</ele>
        <time>2021-09-01T13:33:20Z</time>
      </trkpt>
      <trkpt lat="44.57289" lon="6.22338">
        <ele>877.79998779297</ele>
        <time>2021-09-01T13:33:21Z</time>
      </trkpt>
      <trkpt lat="44.57299" lon="6.22341">
        <ele>878.79998779297</ele>
        <time>2021-09-01T13:33:27Z</time>
      </trkpt>
      <trkpt lat="44.57302" lon="6.22342">
        <ele>879.20001220703</ele>
        <time>2021-09-01T13:33:29Z</time>
      </trkpt>
      <trkpt lat="44.5731" lon="6.22344">
        <ele>880</ele>
        <time>2021-09-01T13:33:34Z</time>
      </trkpt>
      <trkpt lat="44.57314" lon="6.22348">
        <ele>880.40002441406</ele>
        <time>2021-09-01T13:33:37Z</time>
      </trkpt>
      <trkpt lat="44.57321" lon="6.22354">
        <ele>881</ele>
        <time>2021-09-01T13:33:42Z</time>
      </trkpt>
      <trkpt lat="44.57327" lon="6.22358">
        <ele>881.79998779297</ele>
        <time>2021-09-01T13:33:46Z</time>
      </trkpt>
      <trkpt lat="44.57332" lon="6.2236">
        <ele>882.20001220703</ele>
        <time>2021-09-01T13:33:49Z</time>
      </trkpt>
      <trkpt lat="44.57338" lon="6.22364">
        <ele>883</ele>
        <time>2021-09-01T13:33:54Z</time>
      </trkpt>
      <trkpt lat="44.57341" lon="6.22366">
        <ele>883.20001220703</ele>
        <time>2021-09-01T13:33:56Z</time>
      </trkpt>
      <trkpt lat="44.57352" lon="6.22372">
        <ele>883.79998779297</ele>
        <time>2021-09-01T13:34:03Z</time>
      </trkpt>
      <trkpt lat="44.57357" lon="6.22373">
        <ele>884.20001220703</ele>
        <time>2021-09-01T13:34:06Z</time>
      </trkpt>
      <trkpt lat="44.57362" lon="6.22373">
        <ele>884.79998779297</ele>
        <time>2021-09-01T13:34:09Z</time>
      </trkpt>
      <trkpt lat="44.57364" lon="6.22375">
        <ele>885</ele>
        <time>2021-09-01T13:34:10Z</time>
      </trkpt>
      <trkpt lat="44.57363" lon="6.2238">
        <ele>885.40002441406</ele>
        <time>2021-09-01T13:34:12Z</time>
      </trkpt>
      <trkpt lat="44.57361" lon="6.22385">
        <ele>885.59997558594</ele>
        <time>2021-09-01T13:34:14Z</time>
      </trkpt>
      <trkpt lat="44.57357" lon="6.2239">
        <ele>886</ele>
        <time>2021-09-01T13:34:17Z</time>
      </trkpt>
      <trkpt lat="44.57353" lon="6.22395">
        <ele>886.40002441406</ele>
        <time>2021-09-01T13:34:20Z</time>
      </trkpt>
      <trkpt lat="44.57352" lon="6.22397">
        <ele>886.59997558594</ele>
        <time>2021-09-01T13:34:21Z</time>
      </trkpt>
      <trkpt lat="44.57345" lon="6.22404">
        <ele>887.40002441406</ele>
        <time>2021-09-01T13:34:26Z</time>
      </trkpt>
      <trkpt lat="44.57344" lon="6.22407">
        <ele>887.40002441406</ele>
        <time>2021-09-01T13:34:27Z</time>
      </trkpt>
      <trkpt lat="44.57331" lon="6.22423">
        <ele>888.40002441406</ele>
        <time>2021-09-01T13:34:36Z</time>
      </trkpt>
      <trkpt lat="44.5733" lon="6.22424">
        <ele>888.59997558594</ele>
        <time>2021-09-01T13:34:37Z</time>
      </trkpt>
      <trkpt lat="44.57324" lon="6.22435">
        <ele>889.40002441406</ele>
        <time>2021-09-01T13:34:43Z</time>
      </trkpt>
      <trkpt lat="44.57324" lon="6.2244">
        <ele>889.59997558594</ele>
        <time>2021-09-01T13:34:45Z</time>
      </trkpt>
      <trkpt lat="44.57324" lon="6.22451">
        <ele>890.20001220703</ele>
        <time>2021-09-01T13:34:50Z</time>
      </trkpt>
      <trkpt lat="44.57321" lon="6.22458">
        <ele>890.59997558594</ele>
        <time>2021-09-01T13:34:53Z</time>
      </trkpt>
      <trkpt lat="44.57322" lon="6.22462">
        <ele>891</ele>
        <time>2021-09-01T13:34:55Z</time>
      </trkpt>
      <trkpt lat="44.57322" lon="6.22465">
        <ele>891</ele>
        <time>2021-09-01T13:34:56Z</time>
      </trkpt>
      <trkpt lat="44.57323" lon="6.22472">
        <ele>891.79998779297</ele>
        <time>2021-09-01T13:34:59Z</time>
      </trkpt>
      <trkpt lat="44.57323" lon="6.22481">
        <ele>892.59997558594</ele>
        <time>2021-09-01T13:35:03Z</time>
      </trkpt>
      <trkpt lat="44.57324" lon="6.22483">
        <ele>892.79998779297</ele>
        <time>2021-09-01T13:35:04Z</time>
      </trkpt>
      <trkpt lat="44.57322" lon="6.22498">
        <ele>893.79998779297</ele>
        <time>2021-09-01T13:35:11Z</time>
      </trkpt>
      <trkpt lat="44.57321" lon="6.22514">
        <ele>895</ele>
        <time>2021-09-01T13:35:17Z</time>
      </trkpt>
      <trkpt lat="44.57321" lon="6.22523">
        <ele>895.40002441406</ele>
        <time>2021-09-01T13:35:21Z</time>
      </trkpt>
      <trkpt lat="44.5732" lon="6.22536">
        <ele>896</ele>
        <time>2021-09-01T13:35:26Z</time>
      </trkpt>
      <trkpt lat="44.5732" lon="6.22543">
        <ele>896.20001220703</ele>
        <time>2021-09-01T13:35:29Z</time>
      </trkpt>
      <trkpt lat="44.57321" lon="6.22559">
        <ele>897</ele>
        <time>2021-09-01T13:35:36Z</time>
      </trkpt>
      <trkpt lat="44.57322" lon="6.22566">
        <ele>897.40002441406</ele>
        <time>2021-09-01T13:35:39Z</time>
      </trkpt>
      <trkpt lat="44.57323" lon="6.22574">
        <ele>898</ele>
        <time>2021-09-01T13:35:43Z</time>
      </trkpt>
      <trkpt lat="44.57326" lon="6.22585">
        <ele>898.79998779297</ele>
        <time>2021-09-01T13:35:48Z</time>
      </trkpt>
      <trkpt lat="44.57326" lon="6.2259">
        <ele>899.20001220703</ele>
        <time>2021-09-01T13:35:50Z</time>
      </trkpt>
      <trkpt lat="44.57326" lon="6.22599">
        <ele>899.40002441406</ele>
        <time>2021-09-01T13:35:54Z</time>
      </trkpt>
      <trkpt lat="44.57325" lon="6.22613">
        <ele>900.20001220703</ele>
        <time>2021-09-01T13:36:00Z</time>
      </trkpt>
      <trkpt lat="44.57323" lon="6.22624">
        <ele>900.79998779297</ele>
        <time>2021-09-01T13:36:05Z</time>
      </trkpt>
      <trkpt lat="44.57322" lon="6.22634">
        <ele>901.20001220703</ele>
        <time>2021-09-01T13:36:09Z</time>
      </trkpt>
      <trkpt lat="44.5732" lon="6.22643">
        <ele>902</ele>
        <time>2021-09-01T13:36:13Z</time>
      </trkpt>
      <trkpt lat="44.57319" lon="6.22648">
        <ele>902.40002441406</ele>
        <time>2021-09-01T13:36:15Z</time>
      </trkpt>
      <trkpt lat="44.57315" lon="6.22667">
        <ele>903.40002441406</ele>
        <time>2021-09-01T13:36:23Z</time>
      </trkpt>
      <trkpt lat="44.57312" lon="6.22683">
        <ele>904.59997558594</ele>
        <time>2021-09-01T13:36:30Z</time>
      </trkpt>
      <trkpt lat="44.57312" lon="6.22686">
        <ele>904.59997558594</ele>
        <time>2021-09-01T13:36:31Z</time>
      </trkpt>
      <trkpt lat="44.57311" lon="6.22697">
        <ele>905.59997558594</ele>
        <time>2021-09-01T13:36:36Z</time>
      </trkpt>
      <trkpt lat="44.5731" lon="6.22704">
        <ele>906</ele>
        <time>2021-09-01T13:36:39Z</time>
      </trkpt>
      <trkpt lat="44.57312" lon="6.22714">
        <ele>906.59997558594</ele>
        <time>2021-09-01T13:36:43Z</time>
      </trkpt>
      <trkpt lat="44.57312" lon="6.22719">
        <ele>907</ele>
        <time>2021-09-01T13:36:45Z</time>
      </trkpt>
      <trkpt lat="44.57315" lon="6.22731">
        <ele>907.79998779297</ele>
        <time>2021-09-01T13:36:50Z</time>
      </trkpt>
      <trkpt lat="44.57322" lon="6.22743">
        <ele>908.59997558594</ele>
        <time>2021-09-01T13:36:56Z</time>
      </trkpt>
      <trkpt lat="44.57323" lon="6.22745">
        <ele>908.79998779297</ele>
        <time>2021-09-01T13:36:57Z</time>
      </trkpt>
      <trkpt lat="44.5733" lon="6.22756">
        <ele>909.79998779297</ele>
        <time>2021-09-01T13:37:03Z</time>
      </trkpt>
      <trkpt lat="44.57337" lon="6.22772">
        <ele>911</ele>
        <time>2021-09-01T13:37:11Z</time>
      </trkpt>
      <trkpt lat="44.57339" lon="6.22776">
        <ele>911.20001220703</ele>
        <time>2021-09-01T13:37:13Z</time>
      </trkpt>
      <trkpt lat="44.57344" lon="6.22785">
        <ele>912</ele>
        <time>2021-09-01T13:37:18Z</time>
      </trkpt>
      <trkpt lat="44.57345" lon="6.22792">
        <ele>912.40002441406</ele>
        <time>2021-09-01T13:37:21Z</time>
      </trkpt>
      <trkpt lat="44.57347" lon="6.22802">
        <ele>913</ele>
        <time>2021-09-01T13:37:25Z</time>
      </trkpt>
      <trkpt lat="44.57346" lon="6.22812">
        <ele>913.40002441406</ele>
        <time>2021-09-01T13:37:29Z</time>
      </trkpt>
      <trkpt lat="44.57346" lon="6.22825">
        <ele>914</ele>
        <time>2021-09-01T13:37:34Z</time>
      </trkpt>
      <trkpt lat="44.57343" lon="6.22832">
        <ele>914.40002441406</ele>
        <time>2021-09-01T13:37:37Z</time>
      </trkpt>
      <trkpt lat="44.57339" lon="6.22843">
        <ele>915</ele>
        <time>2021-09-01T13:37:43Z</time>
      </trkpt>
      <trkpt lat="44.57338" lon="6.22845">
        <ele>915.20001220703</ele>
        <time>2021-09-01T13:37:44Z</time>
      </trkpt>
      <trkpt lat="44.57333" lon="6.22855">
        <ele>916.20001220703</ele>
        <time>2021-09-01T13:37:49Z</time>
      </trkpt>
      <trkpt lat="44.57332" lon="6.2286">
        <ele>916.40002441406</ele>
        <time>2021-09-01T13:37:51Z</time>
      </trkpt>
      <trkpt lat="44.57322" lon="6.22875">
        <ele>917.20001220703</ele>
        <time>2021-09-01T13:37:58Z</time>
      </trkpt>
      <trkpt lat="44.57318" lon="6.22889">
        <ele>918</ele>
        <time>2021-09-01T13:38:04Z</time>
      </trkpt>
      <trkpt lat="44.57317" lon="6.22894">
        <ele>918.20001220703</ele>
        <time>2021-09-01T13:38:06Z</time>
      </trkpt>
      <trkpt lat="44.57313" lon="6.22908">
        <ele>919.20001220703</ele>
        <time>2021-09-01T13:38:12Z</time>
      </trkpt>
      <trkpt lat="44.57312" lon="6.22913">
        <ele>919.40002441406</ele>
        <time>2021-09-01T13:38:14Z</time>
      </trkpt>
      <trkpt lat="44.5731" lon="6.22925">
        <ele>920.40002441406</ele>
        <time>2021-09-01T13:38:19Z</time>
      </trkpt>
      <trkpt lat="44.57309" lon="6.22928">
        <ele>920.40002441406</ele>
        <time>2021-09-01T13:38:20Z</time>
      </trkpt>
      <trkpt lat="44.57303" lon="6.22944">
        <ele>921.40002441406</ele>
        <time>2021-09-01T13:38:27Z</time>
      </trkpt>
      <trkpt lat="44.57303" lon="6.22947">
        <ele>921.59997558594</ele>
        <time>2021-09-01T13:38:28Z</time>
      </trkpt>
      <trkpt lat="44.57298" lon="6.22962">
        <ele>922.40002441406</ele>
        <time>2021-09-01T13:38:34Z</time>
      </trkpt>
      <trkpt lat="44.57298" lon="6.22965">
        <ele>922.59997558594</ele>
        <time>2021-09-01T13:38:35Z</time>
      </trkpt>
      <trkpt lat="44.57293" lon="6.22986">
        <ele>923.79998779297</ele>
        <time>2021-09-01T13:38:43Z</time>
      </trkpt>
      <trkpt lat="44.57284" lon="6.23004">
        <ele>924.59997558594</ele>
        <time>2021-09-01T13:38:49Z</time>
      </trkpt>
      <trkpt lat="44.5727" lon="6.23032">
        <ele>924.40002441406</ele>
        <time>2021-09-01T13:38:57Z</time>
      </trkpt>
      <trkpt lat="44.57259" lon="6.23053">
        <ele>924.20001220703</ele>
        <time>2021-09-01T13:39:04Z</time>
      </trkpt>
      <trkpt lat="44.57251" lon="6.23068">
        <ele>925</ele>
        <time>2021-09-01T13:39:10Z</time>
      </trkpt>
      <trkpt lat="44.57247" lon="6.23074">
        <ele>925.20001220703</ele>
        <time>2021-09-01T13:39:13Z</time>
      </trkpt>
      <trkpt lat="44.57241" lon="6.23081">
        <ele>926</ele>
        <time>2021-09-01T13:41:31Z</time>
      </trkpt>
      <trkpt lat="44.57239" lon="6.23084">
        <ele>926</ele>
        <time>2021-09-01T13:41:32Z</time>
      </trkpt>
      <trkpt lat="44.57226" lon="6.231">
        <ele>926</ele>
        <time>2021-09-01T13:41:37Z</time>
      </trkpt>
      <trkpt lat="44.57209" lon="6.23122">
        <ele>925.40002441406</ele>
        <time>2021-09-01T13:41:43Z</time>
      </trkpt>
      <trkpt lat="44.57199" lon="6.23131">
        <ele>925.20001220703</ele>
        <time>2021-09-01T13:41:46Z</time>
      </trkpt>
      <trkpt lat="44.57187" lon="6.23141">
        <ele>925</ele>
        <time>2021-09-01T13:41:49Z</time>
      </trkpt>
      <trkpt lat="44.57182" lon="6.23144">
        <ele>924.79998779297</ele>
        <time>2021-09-01T13:41:50Z</time>
      </trkpt>
      <trkpt lat="44.57173" lon="6.23151">
        <ele>924.59997558594</ele>
        <time>2021-09-01T13:41:52Z</time>
      </trkpt>
      <trkpt lat="44.57165" lon="6.23159">
        <ele>924.40002441406</ele>
        <time>2021-09-01T13:41:54Z</time>
      </trkpt>
      <trkpt lat="44.57154" lon="6.23181">
        <ele>923.79998779297</ele>
        <time>2021-09-01T13:41:58Z</time>
      </trkpt>
      <trkpt lat="44.57152" lon="6.23185">
        <ele>923.79998779297</ele>
        <time>2021-09-01T13:41:59Z</time>
      </trkpt>
      <trkpt lat="44.57137" lon="6.23222">
        <ele>924.20001220703</ele>
        <time>2021-09-01T13:42:07Z</time>
      </trkpt>
      <trkpt lat="44.57132" lon="6.23232">
        <ele>924.20001220703</ele>
        <time>2021-09-01T13:42:09Z</time>
      </trkpt>
      <trkpt lat="44.57126" lon="6.23249">
        <ele>924.40002441406</ele>
        <time>2021-09-01T13:42:12Z</time>
      </trkpt>
      <trkpt lat="44.57105" lon="6.233">
        <ele>924.59997558594</ele>
        <time>2021-09-01T13:42:21Z</time>
      </trkpt>
      <trkpt lat="44.57089" lon="6.23348">
        <ele>924.79998779297</ele>
        <time>2021-09-01T13:42:29Z</time>
      </trkpt>
      <trkpt lat="44.57082" lon="6.23373">
        <ele>924.79998779297</ele>
        <time>2021-09-01T13:42:33Z</time>
      </trkpt>
      <trkpt lat="44.57077" lon="6.23385">
        <ele>925</ele>
        <time>2021-09-01T13:42:35Z</time>
      </trkpt>
      <trkpt lat="44.57074" lon="6.23391">
        <ele>924.79998779297</ele>
        <time>2021-09-01T13:42:36Z</time>
      </trkpt>
      <trkpt lat="44.57046" lon="6.23435">
        <ele>924.79998779297</ele>
        <time>2021-09-01T13:42:44Z</time>
      </trkpt>
      <trkpt lat="44.57028" lon="6.23467">
        <ele>924.40002441406</ele>
        <time>2021-09-01T13:42:49Z</time>
      </trkpt>
      <trkpt lat="44.57026" lon="6.23475">
        <ele>924.40002441406</ele>
        <time>2021-09-01T13:42:50Z</time>
      </trkpt>
      <trkpt lat="44.57022" lon="6.23508">
        <ele>924.20001220703</ele>
        <time>2021-09-01T13:42:54Z</time>
      </trkpt>
      <trkpt lat="44.57022" lon="6.23516">
        <ele>924.20001220703</ele>
        <time>2021-09-01T13:42:55Z</time>
      </trkpt>
      <trkpt lat="44.5702" lon="6.23569">
        <ele>924.20001220703</ele>
        <time>2021-09-01T13:43:02Z</time>
      </trkpt>
      <trkpt lat="44.57014" lon="6.236">
        <ele>924.59997558594</ele>
        <time>2021-09-01T13:43:07Z</time>
      </trkpt>
      <trkpt lat="44.57003" lon="6.23645">
        <ele>925.59997558594</ele>
        <time>2021-09-01T13:43:15Z</time>
      </trkpt>
      <trkpt lat="44.57" lon="6.23659">
        <ele>926</ele>
        <time>2021-09-01T13:43:18Z</time>
      </trkpt>
      <trkpt lat="44.56999" lon="6.23677">
        <ele>926.59997558594</ele>
        <time>2021-09-01T13:43:22Z</time>
      </trkpt>
      <trkpt lat="44.56999" lon="6.23697">
        <ele>927</ele>
        <time>2021-09-01T13:43:26Z</time>
      </trkpt>
      <trkpt lat="44.56999" lon="6.23726">
        <ele>927.20001220703</ele>
        <time>2021-09-01T13:43:31Z</time>
      </trkpt>
      <trkpt lat="44.56999" lon="6.23734">
        <ele>927.20001220703</ele>
        <time>2021-09-01T13:43:32Z</time>
      </trkpt>
      <trkpt lat="44.56991" lon="6.23761">
        <ele>926.79998779297</ele>
        <time>2021-09-01T13:43:35Z</time>
      </trkpt>
      <trkpt lat="44.56987" lon="6.23783">
        <ele>926.20001220703</ele>
        <time>2021-09-01T13:43:37Z</time>
      </trkpt>
      <trkpt lat="44.56986" lon="6.23794">
        <ele>925.79998779297</ele>
        <time>2021-09-01T13:43:38Z</time>
      </trkpt>
      <trkpt lat="44.56986" lon="6.23806">
        <ele>925.40002441406</ele>
        <time>2021-09-01T13:43:39Z</time>
      </trkpt>
      <trkpt lat="44.5699" lon="6.23827">
        <ele>924.40002441406</ele>
        <time>2021-09-01T13:43:41Z</time>
      </trkpt>
      <trkpt lat="44.56992" lon="6.23837">
        <ele>924</ele>
        <time>2021-09-01T13:43:42Z</time>
      </trkpt>
      <trkpt lat="44.57" lon="6.23858">
        <ele>923.20001220703</ele>
        <time>2021-09-01T13:43:44Z</time>
      </trkpt>
      <trkpt lat="44.57008" lon="6.23882">
        <ele>922.20001220703</ele>
        <time>2021-09-01T13:43:46Z</time>
      </trkpt>
      <trkpt lat="44.5701" lon="6.23895">
        <ele>921.40002441406</ele>
        <time>2021-09-01T13:43:47Z</time>
      </trkpt>
      <trkpt lat="44.5701" lon="6.23923">
        <ele>920.40002441406</ele>
        <time>2021-09-01T13:43:49Z</time>
      </trkpt>
      <trkpt lat="44.57011" lon="6.23938">
        <ele>919.79998779297</ele>
        <time>2021-09-01T13:43:50Z</time>
      </trkpt>
      <trkpt lat="44.57011" lon="6.23965">
        <ele>918.59997558594</ele>
        <time>2021-09-01T13:43:52Z</time>
      </trkpt>
      <trkpt lat="44.57012" lon="6.23992">
        <ele>917.20001220703</ele>
        <time>2021-09-01T13:43:54Z</time>
      </trkpt>
      <trkpt lat="44.57012" lon="6.24018">
        <ele>916</ele>
        <time>2021-09-01T13:43:56Z</time>
      </trkpt>
      <trkpt lat="44.57007" lon="6.24079">
        <ele>915</ele>
        <time>2021-09-01T13:44:01Z</time>
      </trkpt>
      <trkpt lat="44.57006" lon="6.24092">
        <ele>915</ele>
        <time>2021-09-01T13:44:02Z</time>
      </trkpt>
      <trkpt lat="44.56999" lon="6.24143">
        <ele>913.79998779297</ele>
        <time>2021-09-01T13:44:06Z</time>
      </trkpt>
      <trkpt lat="44.56996" lon="6.24155">
        <ele>913.40002441406</ele>
        <time>2021-09-01T13:44:07Z</time>
      </trkpt>
      <trkpt lat="44.56985" lon="6.24192">
        <ele>912.59997558594</ele>
        <time>2021-09-01T13:44:10Z</time>
      </trkpt>
      <trkpt lat="44.56975" lon="6.24216">
        <ele>911.79998779297</ele>
        <time>2021-09-01T13:44:12Z</time>
      </trkpt>
      <trkpt lat="44.5697" lon="6.24227">
        <ele>911.59997558594</ele>
        <time>2021-09-01T13:44:13Z</time>
      </trkpt>
      <trkpt lat="44.56955" lon="6.24255">
        <ele>910.79998779297</ele>
        <time>2021-09-01T13:44:16Z</time>
      </trkpt>
      <trkpt lat="44.56936" lon="6.24292">
        <ele>911</ele>
        <time>2021-09-01T13:44:21Z</time>
      </trkpt>
      <trkpt lat="44.56926" lon="6.24309">
        <ele>912</ele>
        <time>2021-09-01T13:44:25Z</time>
      </trkpt>
      <trkpt lat="44.56922" lon="6.24314">
        <ele>912.79998779297</ele>
        <time>2021-09-01T13:44:27Z</time>
      </trkpt>
      <trkpt lat="44.56918" lon="6.2432">
        <ele>913.79998779297</ele>
        <time>2021-09-01T13:44:30Z</time>
      </trkpt>
      <trkpt lat="44.56916" lon="6.24322">
        <ele>914</ele>
        <time>2021-09-01T13:44:31Z</time>
      </trkpt>
      <trkpt lat="44.56909" lon="6.24329">
        <ele>914.79998779297</ele>
        <time>2021-09-01T13:44:35Z</time>
      </trkpt>
      <trkpt lat="44.56905" lon="6.2433">
        <ele>915.20001220703</ele>
        <time>2021-09-01T13:44:37Z</time>
      </trkpt>
      <trkpt lat="44.56901" lon="6.24333">
        <ele>915.59997558594</ele>
        <time>2021-09-01T13:44:40Z</time>
      </trkpt>
      <trkpt lat="44.56896" lon="6.24334">
        <ele>916.20001220703</ele>
        <time>2021-09-01T13:44:43Z</time>
      </trkpt>
      <trkpt lat="44.56888" lon="6.24337">
        <ele>917.20001220703</ele>
        <time>2021-09-01T13:44:48Z</time>
      </trkpt>
      <trkpt lat="44.56887" lon="6.24339">
        <ele>917.40002441406</ele>
        <time>2021-09-01T13:44:49Z</time>
      </trkpt>
      <trkpt lat="44.56876" lon="6.24345">
        <ele>918.40002441406</ele>
        <time>2021-09-01T13:44:54Z</time>
      </trkpt>
      <trkpt lat="44.56875" lon="6.24347">
        <ele>918.40002441406</ele>
        <time>2021-09-01T13:44:55Z</time>
      </trkpt>
      <trkpt lat="44.56866" lon="6.24352">
        <ele>918.79998779297</ele>
        <time>2021-09-01T13:44:59Z</time>
      </trkpt>
      <trkpt lat="44.56851" lon="6.24364">
        <ele>919.40002441406</ele>
        <time>2021-09-01T13:45:05Z</time>
      </trkpt>
      <trkpt lat="44.56838" lon="6.24376">
        <ele>919.20001220703</ele>
        <time>2021-09-01T13:45:11Z</time>
      </trkpt>
      <trkpt lat="44.56822" lon="6.24395">
        <ele>919.40002441406</ele>
        <time>2021-09-01T13:45:18Z</time>
      </trkpt>
      <trkpt lat="44.56801" lon="6.24415">
        <ele>919.20001220703</ele>
        <time>2021-09-01T13:45:25Z</time>
      </trkpt>
      <trkpt lat="44.56782" lon="6.24441">
        <ele>919</ele>
        <time>2021-09-01T13:45:32Z</time>
      </trkpt>
      <trkpt lat="44.56764" lon="6.24468">
        <ele>918.20001220703</ele>
        <time>2021-09-01T13:45:36Z</time>
      </trkpt>
      <trkpt lat="44.56753" lon="6.24484">
        <ele>917.40002441406</ele>
        <time>2021-09-01T13:45:38Z</time>
      </trkpt>
      <trkpt lat="44.56735" lon="6.2451">
        <ele>916.40002441406</ele>
        <time>2021-09-01T13:45:41Z</time>
      </trkpt>
      <trkpt lat="44.56723" lon="6.24525">
        <ele>915.40002441406</ele>
        <time>2021-09-01T13:45:43Z</time>
      </trkpt>
      <trkpt lat="44.56716" lon="6.24531">
        <ele>915</ele>
        <time>2021-09-01T13:45:44Z</time>
      </trkpt>
      <trkpt lat="44.56709" lon="6.24535">
        <ele>914.59997558594</ele>
        <time>2021-09-01T13:45:45Z</time>
      </trkpt>
      <trkpt lat="44.56698" lon="6.2454">
        <ele>913.79998779297</ele>
        <time>2021-09-01T13:45:47Z</time>
      </trkpt>
      <trkpt lat="44.56687" lon="6.24546">
        <ele>912.79998779297</ele>
        <time>2021-09-01T13:45:49Z</time>
      </trkpt>
      <trkpt lat="44.56682" lon="6.2455">
        <ele>912.59997558594</ele>
        <time>2021-09-01T13:45:50Z</time>
      </trkpt>
      <trkpt lat="44.5666" lon="6.24565">
        <ele>911.59997558594</ele>
        <time>2021-09-01T13:45:54Z</time>
      </trkpt>
      <trkpt lat="44.56643" lon="6.24574">
        <ele>911</ele>
        <time>2021-09-01T13:45:57Z</time>
      </trkpt>
      <trkpt lat="44.56612" lon="6.2459">
        <ele>910.40002441406</ele>
        <time>2021-09-01T13:46:02Z</time>
      </trkpt>
      <trkpt lat="44.56599" lon="6.24596">
        <ele>910</ele>
        <time>2021-09-01T13:46:04Z</time>
      </trkpt>
      <trkpt lat="44.5658" lon="6.24604">
        <ele>909.40002441406</ele>
        <time>2021-09-01T13:46:07Z</time>
      </trkpt>
      <trkpt lat="44.56569" lon="6.2461">
        <ele>909</ele>
        <time>2021-09-01T13:46:09Z</time>
      </trkpt>
      <trkpt lat="44.56565" lon="6.24613">
        <ele>908.79998779297</ele>
        <time>2021-09-01T13:46:10Z</time>
      </trkpt>
      <trkpt lat="44.56558" lon="6.24617">
        <ele>908.40002441406</ele>
        <time>2021-09-01T13:46:13Z</time>
      </trkpt>
      <trkpt lat="44.56557" lon="6.24616">
        <ele>907.59997558594</ele>
        <time>2021-09-01T13:47:15Z</time>
      </trkpt>
      <trkpt lat="44.56554" lon="6.24615">
        <ele>907.59997558594</ele>
        <time>2021-09-01T13:47:16Z</time>
      </trkpt>
      <trkpt lat="44.5654" lon="6.24617">
        <ele>907.40002441406</ele>
        <time>2021-09-01T13:47:20Z</time>
      </trkpt>
      <trkpt lat="44.5653" lon="6.24622">
        <ele>907.20001220703</ele>
        <time>2021-09-01T13:47:22Z</time>
      </trkpt>
      <trkpt lat="44.56512" lon="6.24629">
        <ele>906.59997558594</ele>
        <time>2021-09-01T13:47:25Z</time>
      </trkpt>
      <trkpt lat="44.56494" lon="6.24638">
        <ele>906.20001220703</ele>
        <time>2021-09-01T13:47:28Z</time>
      </trkpt>
      <trkpt lat="44.56476" lon="6.24651">
        <ele>905.59997558594</ele>
        <time>2021-09-01T13:47:31Z</time>
      </trkpt>
      <trkpt lat="44.56464" lon="6.24659">
        <ele>904.79998779297</ele>
        <time>2021-09-01T13:47:33Z</time>
      </trkpt>
      <trkpt lat="44.56439" lon="6.24678">
        <ele>903.59997558594</ele>
        <time>2021-09-01T13:47:37Z</time>
      </trkpt>
      <trkpt lat="44.56426" lon="6.24687">
        <ele>903</ele>
        <time>2021-09-01T13:47:39Z</time>
      </trkpt>
      <trkpt lat="44.56413" lon="6.24697">
        <ele>902.59997558594</ele>
        <time>2021-09-01T13:47:41Z</time>
      </trkpt>
      <trkpt lat="44.5638" lon="6.2472">
        <ele>901.59997558594</ele>
        <time>2021-09-01T13:47:46Z</time>
      </trkpt>
      <trkpt lat="44.56367" lon="6.24728">
        <ele>900.79998779297</ele>
        <time>2021-09-01T13:47:48Z</time>
      </trkpt>
      <trkpt lat="44.56353" lon="6.24737">
        <ele>900.40002441406</ele>
        <time>2021-09-01T13:47:50Z</time>
      </trkpt>
      <trkpt lat="44.5632" lon="6.24761">
        <ele>899.59997558594</ele>
        <time>2021-09-01T13:47:55Z</time>
      </trkpt>
      <trkpt lat="44.56312" lon="6.24765">
        <ele>899.40002441406</ele>
        <time>2021-09-01T13:47:56Z</time>
      </trkpt>
      <trkpt lat="44.56284" lon="6.24777">
        <ele>898.59997558594</ele>
        <time>2021-09-01T13:47:59Z</time>
      </trkpt>
      <trkpt lat="44.56275" lon="6.24783">
        <ele>898.20001220703</ele>
        <time>2021-09-01T13:48:00Z</time>
      </trkpt>
      <trkpt lat="44.56256" lon="6.24799">
        <ele>897.20001220703</ele>
        <time>2021-09-01T13:48:02Z</time>
      </trkpt>
      <trkpt lat="44.56249" lon="6.2481">
        <ele>896.59997558594</ele>
        <time>2021-09-01T13:48:03Z</time>
      </trkpt>
      <trkpt lat="44.56245" lon="6.24824">
        <ele>895.79998779297</ele>
        <time>2021-09-01T13:48:04Z</time>
      </trkpt>
      <trkpt lat="44.56242" lon="6.24838">
        <ele>895</ele>
        <time>2021-09-01T13:48:05Z</time>
      </trkpt>
      <trkpt lat="44.56239" lon="6.24853">
        <ele>894.20001220703</ele>
        <time>2021-09-01T13:48:06Z</time>
      </trkpt>
      <trkpt lat="44.56231" lon="6.24879">
        <ele>892.79998779297</ele>
        <time>2021-09-01T13:48:08Z</time>
      </trkpt>
      <trkpt lat="44.56226" lon="6.24891">
        <ele>892</ele>
        <time>2021-09-01T13:48:09Z</time>
      </trkpt>
      <trkpt lat="44.56222" lon="6.24904">
        <ele>891.40002441406</ele>
        <time>2021-09-01T13:48:10Z</time>
      </trkpt>
      <trkpt lat="44.56216" lon="6.24932">
        <ele>890</ele>
        <time>2021-09-01T13:48:12Z</time>
      </trkpt>
      <trkpt lat="44.56212" lon="6.24945">
        <ele>889.59997558594</ele>
        <time>2021-09-01T13:48:13Z</time>
      </trkpt>
      <trkpt lat="44.562" lon="6.2497">
        <ele>888.59997558594</ele>
        <time>2021-09-01T13:48:15Z</time>
      </trkpt>
      <trkpt lat="44.56193" lon="6.24983">
        <ele>887.79998779297</ele>
        <time>2021-09-01T13:48:16Z</time>
      </trkpt>
      <trkpt lat="44.56186" lon="6.24995">
        <ele>887</ele>
        <time>2021-09-01T13:48:17Z</time>
      </trkpt>
      <trkpt lat="44.56171" lon="6.2502">
        <ele>885.40002441406</ele>
        <time>2021-09-01T13:48:19Z</time>
      </trkpt>
      <trkpt lat="44.56158" lon="6.2504">
        <ele>883.79998779297</ele>
        <time>2021-09-01T13:48:21Z</time>
      </trkpt>
      <trkpt lat="44.56149" lon="6.25046">
        <ele>883</ele>
        <time>2021-09-01T13:48:22Z</time>
      </trkpt>
      <trkpt lat="44.5614" lon="6.25052">
        <ele>882.20001220703</ele>
        <time>2021-09-01T13:48:23Z</time>
      </trkpt>
      <trkpt lat="44.5613" lon="6.25058">
        <ele>881.20001220703</ele>
        <time>2021-09-01T13:48:24Z</time>
      </trkpt>
      <trkpt lat="44.56121" lon="6.25067">
        <ele>880.20001220703</ele>
        <time>2021-09-01T13:48:25Z</time>
      </trkpt>
      <trkpt lat="44.56108" lon="6.25083">
        <ele>878.40002441406</ele>
        <time>2021-09-01T13:48:27Z</time>
      </trkpt>
      <trkpt lat="44.56095" lon="6.25102">
        <ele>876.40002441406</ele>
        <time>2021-09-01T13:48:29Z</time>
      </trkpt>
      <trkpt lat="44.56089" lon="6.25111">
        <ele>875.40002441406</ele>
        <time>2021-09-01T13:48:30Z</time>
      </trkpt>
      <trkpt lat="44.56084" lon="6.25122">
        <ele>874.40002441406</ele>
        <time>2021-09-01T13:48:31Z</time>
      </trkpt>
      <trkpt lat="44.5608" lon="6.25132">
        <ele>873.40002441406</ele>
        <time>2021-09-01T13:48:32Z</time>
      </trkpt>
      <trkpt lat="44.56072" lon="6.25153">
        <ele>871.40002441406</ele>
        <time>2021-09-01T13:48:34Z</time>
      </trkpt>
      <trkpt lat="44.56068" lon="6.25162">
        <ele>870.40002441406</ele>
        <time>2021-09-01T13:48:35Z</time>
      </trkpt>
      <trkpt lat="44.56065" lon="6.25174">
        <ele>868.20001220703</ele>
        <time>2021-09-01T13:48:36Z</time>
      </trkpt>
      <trkpt lat="44.56063" lon="6.25187">
        <ele>867.20001220703</ele>
        <time>2021-09-01T13:48:37Z</time>
      </trkpt>
      <trkpt lat="44.56064" lon="6.25201">
        <ele>866</ele>
        <time>2021-09-01T13:48:38Z</time>
      </trkpt>
      <trkpt lat="44.56067" lon="6.25213">
        <ele>865</ele>
        <time>2021-09-01T13:48:39Z</time>
      </trkpt>
      <trkpt lat="44.5607" lon="6.25223">
        <ele>864</ele>
        <time>2021-09-01T13:48:40Z</time>
      </trkpt>
      <trkpt lat="44.56072" lon="6.25233">
        <ele>862.79998779297</ele>
        <time>2021-09-01T13:48:41Z</time>
      </trkpt>
      <trkpt lat="44.5607" lon="6.25242">
        <ele>862</ele>
        <time>2021-09-01T13:48:42Z</time>
      </trkpt>
      <trkpt lat="44.56066" lon="6.25248">
        <ele>861</ele>
        <time>2021-09-01T13:48:43Z</time>
      </trkpt>
      <trkpt lat="44.56053" lon="6.25252">
        <ele>859.59997558594</ele>
        <time>2021-09-01T13:48:45Z</time>
      </trkpt>
      <trkpt lat="44.56042" lon="6.25252">
        <ele>858.20001220703</ele>
        <time>2021-09-01T13:48:47Z</time>
      </trkpt>
      <trkpt lat="44.56036" lon="6.25254">
        <ele>857.79998779297</ele>
        <time>2021-09-01T13:48:48Z</time>
      </trkpt>
      <trkpt lat="44.56031" lon="6.25255">
        <ele>857.59997558594</ele>
        <time>2021-09-01T13:48:49Z</time>
      </trkpt>
      <trkpt lat="44.56019" lon="6.25257">
        <ele>857.20001220703</ele>
        <time>2021-09-01T13:48:51Z</time>
      </trkpt>
      <trkpt lat="44.55991" lon="6.25269">
        <ele>856.59997558594</ele>
        <time>2021-09-01T13:48:56Z</time>
      </trkpt>
      <trkpt lat="44.55984" lon="6.2527">
        <ele>856.40002441406</ele>
        <time>2021-09-01T13:48:57Z</time>
      </trkpt>
      <trkpt lat="44.55977" lon="6.25271">
        <ele>856.20001220703</ele>
        <time>2021-09-01T13:48:58Z</time>
      </trkpt>
      <trkpt lat="44.55961" lon="6.25273">
        <ele>855.59997558594</ele>
        <time>2021-09-01T13:49:00Z</time>
      </trkpt>
      <trkpt lat="44.55955" lon="6.25276">
        <ele>855.40002441406</ele>
        <time>2021-09-01T13:49:01Z</time>
      </trkpt>
      <trkpt lat="44.55948" lon="6.25281">
        <ele>855</ele>
        <time>2021-09-01T13:49:02Z</time>
      </trkpt>
      <trkpt lat="44.55944" lon="6.25288">
        <ele>854.59997558594</ele>
        <time>2021-09-01T13:49:03Z</time>
      </trkpt>
      <trkpt lat="44.5594" lon="6.25305">
        <ele>853.79998779297</ele>
        <time>2021-09-01T13:49:05Z</time>
      </trkpt>
      <trkpt lat="44.5594" lon="6.25308">
        <ele>853.59997558594</ele>
        <time>2021-09-01T13:49:06Z</time>
      </trkpt>
      <trkpt lat="44.5594" lon="6.25311">
        <ele>853.20001220703</ele>
        <time>2021-09-01T13:49:07Z</time>
      </trkpt>
      <trkpt lat="44.55937" lon="6.25323">
        <ele>852.79998779297</ele>
        <time>2021-09-01T13:49:10Z</time>
      </trkpt>
      <trkpt lat="44.55931" lon="6.25332">
        <ele>852.40002441406</ele>
        <time>2021-09-01T13:49:12Z</time>
      </trkpt>
      <trkpt lat="44.55922" lon="6.2534">
        <ele>852.20001220703</ele>
        <time>2021-09-01T13:49:14Z</time>
      </trkpt>
      <trkpt lat="44.55906" lon="6.25354">
        <ele>851.59997558594</ele>
        <time>2021-09-01T13:49:17Z</time>
      </trkpt>
      <trkpt lat="44.55894" lon="6.25366">
        <ele>850.79998779297</ele>
        <time>2021-09-01T13:49:19Z</time>
      </trkpt>
      <trkpt lat="44.55888" lon="6.25372">
        <ele>850.40002441406</ele>
        <time>2021-09-01T13:49:20Z</time>
      </trkpt>
      <trkpt lat="44.55876" lon="6.25387">
        <ele>849.40002441406</ele>
        <time>2021-09-01T13:49:22Z</time>
      </trkpt>
      <trkpt lat="44.55865" lon="6.25405">
        <ele>847.59997558594</ele>
        <time>2021-09-01T13:49:24Z</time>
      </trkpt>
      <trkpt lat="44.55857" lon="6.25428">
        <ele>846.20001220703</ele>
        <time>2021-09-01T13:49:26Z</time>
      </trkpt>
      <trkpt lat="44.55849" lon="6.25453">
        <ele>844.59997558594</ele>
        <time>2021-09-01T13:49:28Z</time>
      </trkpt>
      <trkpt lat="44.55841" lon="6.25481">
        <ele>842.79998779297</ele>
        <time>2021-09-01T13:49:30Z</time>
      </trkpt>
      <trkpt lat="44.55834" lon="6.25507">
        <ele>841</ele>
        <time>2021-09-01T13:49:32Z</time>
      </trkpt>
      <trkpt lat="44.55831" lon="6.2552">
        <ele>840.20001220703</ele>
        <time>2021-09-01T13:49:33Z</time>
      </trkpt>
      <trkpt lat="44.55826" lon="6.25532">
        <ele>839.40002441406</ele>
        <time>2021-09-01T13:49:34Z</time>
      </trkpt>
      <trkpt lat="44.55818" lon="6.25556">
        <ele>837.79998779297</ele>
        <time>2021-09-01T13:49:36Z</time>
      </trkpt>
      <trkpt lat="44.55814" lon="6.25568">
        <ele>837</ele>
        <time>2021-09-01T13:49:37Z</time>
      </trkpt>
      <trkpt lat="44.55809" lon="6.25579">
        <ele>836.40002441406</ele>
        <time>2021-09-01T13:49:38Z</time>
      </trkpt>
      <trkpt lat="44.558" lon="6.25601">
        <ele>835.20001220703</ele>
        <time>2021-09-01T13:49:40Z</time>
      </trkpt>
      <trkpt lat="44.55794" lon="6.25611">
        <ele>834.40002441406</ele>
        <time>2021-09-01T13:49:41Z</time>
      </trkpt>
      <trkpt lat="44.55788" lon="6.25619">
        <ele>833.79998779297</ele>
        <time>2021-09-01T13:49:42Z</time>
      </trkpt>
      <trkpt lat="44.55776" lon="6.25633">
        <ele>832.59997558594</ele>
        <time>2021-09-01T13:49:44Z</time>
      </trkpt>
      <trkpt lat="44.55759" lon="6.25656">
        <ele>831.20001220703</ele>
        <time>2021-09-01T13:49:47Z</time>
      </trkpt>
      <trkpt lat="44.55747" lon="6.25673">
        <ele>830</ele>
        <time>2021-09-01T13:49:49Z</time>
      </trkpt>
      <trkpt lat="44.55727" lon="6.25704">
        <ele>829</ele>
        <time>2021-09-01T13:49:53Z</time>
      </trkpt>
      <trkpt lat="44.55723" lon="6.25713">
        <ele>829</ele>
        <time>2021-09-01T13:49:54Z</time>
      </trkpt>
      <trkpt lat="44.55702" lon="6.25753">
        <ele>828.59997558594</ele>
        <time>2021-09-01T13:49:58Z</time>
      </trkpt>
      <trkpt lat="44.55692" lon="6.25774">
        <ele>827.59997558594</ele>
        <time>2021-09-01T13:50:00Z</time>
      </trkpt>
      <trkpt lat="44.55685" lon="6.25796">
        <ele>826.20001220703</ele>
        <time>2021-09-01T13:50:02Z</time>
      </trkpt>
      <trkpt lat="44.55682" lon="6.25806">
        <ele>825.40002441406</ele>
        <time>2021-09-01T13:50:03Z</time>
      </trkpt>
      <trkpt lat="44.5568" lon="6.25816">
        <ele>824.79998779297</ele>
        <time>2021-09-01T13:50:04Z</time>
      </trkpt>
      <trkpt lat="44.55678" lon="6.25826">
        <ele>824</ele>
        <time>2021-09-01T13:50:06Z</time>
      </trkpt>
      <trkpt lat="44.55677" lon="6.25829">
        <ele>823.59997558594</ele>
        <time>2021-09-01T13:50:07Z</time>
      </trkpt>
      <trkpt lat="44.55674" lon="6.25839">
        <ele>822.40002441406</ele>
        <time>2021-09-01T13:50:10Z</time>
      </trkpt>
      <trkpt lat="44.55673" lon="6.25841">
        <ele>822</ele>
        <time>2021-09-01T13:50:11Z</time>
      </trkpt>
      <trkpt lat="44.5567" lon="6.25849">
        <ele>821.59997558594</ele>
        <time>2021-09-01T13:50:15Z</time>
      </trkpt>
      <trkpt lat="44.55669" lon="6.25854">
        <ele>821.59997558594</ele>
        <time>2021-09-01T13:50:33Z</time>
      </trkpt>
      <trkpt lat="44.55668" lon="6.25857">
        <ele>821.59997558594</ele>
        <time>2021-09-01T13:50:34Z</time>
      </trkpt>
      <trkpt lat="44.55661" lon="6.2588">
        <ele>821.40002441406</ele>
        <time>2021-09-01T13:50:40Z</time>
      </trkpt>
      <trkpt lat="44.55658" lon="6.25886">
        <ele>821.20001220703</ele>
        <time>2021-09-01T13:50:41Z</time>
      </trkpt>
      <trkpt lat="44.55652" lon="6.25899">
        <ele>820.79998779297</ele>
        <time>2021-09-01T13:50:44Z</time>
      </trkpt>
      <trkpt lat="44.55651" lon="6.25901">
        <ele>820</ele>
        <time>2021-09-01T13:50:46Z</time>
      </trkpt>
      <trkpt lat="44.55649" lon="6.25906">
        <ele>818.40002441406</ele>
        <time>2021-09-01T13:51:07Z</time>
      </trkpt>
      <trkpt lat="44.55637" lon="6.25923">
        <ele>818.20001220703</ele>
        <time>2021-09-01T13:51:12Z</time>
      </trkpt>
      <trkpt lat="44.55627" lon="6.25929">
        <ele>818</ele>
        <time>2021-09-01T13:51:14Z</time>
      </trkpt>
      <trkpt lat="44.55615" lon="6.25937">
        <ele>817.59997558594</ele>
        <time>2021-09-01T13:51:16Z</time>
      </trkpt>
      <trkpt lat="44.55609" lon="6.2594">
        <ele>817.40002441406</ele>
        <time>2021-09-01T13:51:17Z</time>
      </trkpt>
      <trkpt lat="44.55603" lon="6.25945">
        <ele>817.20001220703</ele>
        <time>2021-09-01T13:51:18Z</time>
      </trkpt>
      <trkpt lat="44.55586" lon="6.25958">
        <ele>816.59997558594</ele>
        <time>2021-09-01T13:51:21Z</time>
      </trkpt>
      <trkpt lat="44.55579" lon="6.25962">
        <ele>816.40002441406</ele>
        <time>2021-09-01T13:51:22Z</time>
      </trkpt>
      <trkpt lat="44.55559" lon="6.25974">
        <ele>815.20001220703</ele>
        <time>2021-09-01T13:51:25Z</time>
      </trkpt>
      <trkpt lat="44.55547" lon="6.25983">
        <ele>814.40002441406</ele>
        <time>2021-09-01T13:51:27Z</time>
      </trkpt>
      <trkpt lat="44.55541" lon="6.2599">
        <ele>813.79998779297</ele>
        <time>2021-09-01T13:51:28Z</time>
      </trkpt>
      <trkpt lat="44.5553" lon="6.26006">
        <ele>812.59997558594</ele>
        <time>2021-09-01T13:51:30Z</time>
      </trkpt>
      <trkpt lat="44.55525" lon="6.26015">
        <ele>812</ele>
        <time>2021-09-01T13:51:31Z</time>
      </trkpt>
      <trkpt lat="44.55519" lon="6.26025">
        <ele>811.40002441406</ele>
        <time>2021-09-01T13:51:32Z</time>
      </trkpt>
      <trkpt lat="44.55506" lon="6.26045">
        <ele>810.40002441406</ele>
        <time>2021-09-01T13:51:34Z</time>
      </trkpt>
      <trkpt lat="44.55499" lon="6.26054">
        <ele>809.79998779297</ele>
        <time>2021-09-01T13:51:35Z</time>
      </trkpt>
      <trkpt lat="44.55492" lon="6.26064">
        <ele>809.20001220703</ele>
        <time>2021-09-01T13:51:36Z</time>
      </trkpt>
      <trkpt lat="44.55479" lon="6.26084">
        <ele>807.79998779297</ele>
        <time>2021-09-01T13:51:38Z</time>
      </trkpt>
      <trkpt lat="44.55466" lon="6.26104">
        <ele>806.40002441406</ele>
        <time>2021-09-01T13:51:40Z</time>
      </trkpt>
      <trkpt lat="44.55458" lon="6.26112">
        <ele>805.79998779297</ele>
        <time>2021-09-01T13:51:41Z</time>
      </trkpt>
      <trkpt lat="44.55451" lon="6.26119">
        <ele>805.20001220703</ele>
        <time>2021-09-01T13:51:42Z</time>
      </trkpt>
      <trkpt lat="44.55437" lon="6.26134">
        <ele>803.79998779297</ele>
        <time>2021-09-01T13:51:44Z</time>
      </trkpt>
      <trkpt lat="44.55432" lon="6.26143">
        <ele>803</ele>
        <time>2021-09-01T13:51:45Z</time>
      </trkpt>
      <trkpt lat="44.5543" lon="6.26156">
        <ele>802.20001220703</ele>
        <time>2021-09-01T13:51:46Z</time>
      </trkpt>
      <trkpt lat="44.55425" lon="6.2618">
        <ele>800.20001220703</ele>
        <time>2021-09-01T13:51:48Z</time>
      </trkpt>
      <trkpt lat="44.55424" lon="6.26192">
        <ele>799.59997558594</ele>
        <time>2021-09-01T13:51:49Z</time>
      </trkpt>
      <trkpt lat="44.55423" lon="6.26205">
        <ele>799</ele>
        <time>2021-09-01T13:51:50Z</time>
      </trkpt>
      <trkpt lat="44.55423" lon="6.26232">
        <ele>798</ele>
        <time>2021-09-01T13:51:52Z</time>
      </trkpt>
      <trkpt lat="44.55423" lon="6.26245">
        <ele>797.59997558594</ele>
        <time>2021-09-01T13:51:53Z</time>
      </trkpt>
      <trkpt lat="44.55422" lon="6.26271">
        <ele>796.59997558594</ele>
        <time>2021-09-01T13:51:55Z</time>
      </trkpt>
      <trkpt lat="44.55421" lon="6.26308">
        <ele>795.40002441406</ele>
        <time>2021-09-01T13:51:58Z</time>
      </trkpt>
      <trkpt lat="44.55419" lon="6.26331">
        <ele>794.79998779297</ele>
        <time>2021-09-01T13:52:00Z</time>
      </trkpt>
      <trkpt lat="44.55419" lon="6.26364">
        <ele>794.20001220703</ele>
        <time>2021-09-01T13:52:03Z</time>
      </trkpt>
      <trkpt lat="44.55417" lon="6.26394">
        <ele>793.59997558594</ele>
        <time>2021-09-01T13:52:06Z</time>
      </trkpt>
      <trkpt lat="44.55414" lon="6.26432">
        <ele>793.20001220703</ele>
        <time>2021-09-01T13:52:10Z</time>
      </trkpt>
      <trkpt lat="44.55408" lon="6.26459">
        <ele>792.79998779297</ele>
        <time>2021-09-01T13:52:13Z</time>
      </trkpt>
      <trkpt lat="44.55399" lon="6.26486">
        <ele>792.40002441406</ele>
        <time>2021-09-01T13:52:16Z</time>
      </trkpt>
      <trkpt lat="44.55395" lon="6.26495">
        <ele>792.20001220703</ele>
        <time>2021-09-01T13:52:17Z</time>
      </trkpt>
      <trkpt lat="44.55391" lon="6.26504">
        <ele>791.79998779297</ele>
        <time>2021-09-01T13:52:18Z</time>
      </trkpt>
      <trkpt lat="44.55379" lon="6.26534">
        <ele>791</ele>
        <time>2021-09-01T13:52:21Z</time>
      </trkpt>
      <trkpt lat="44.55366" lon="6.26574">
        <ele>789.79998779297</ele>
        <time>2021-09-01T13:52:25Z</time>
      </trkpt>
      <trkpt lat="44.55353" lon="6.2662">
        <ele>788.79998779297</ele>
        <time>2021-09-01T13:52:30Z</time>
      </trkpt>
      <trkpt lat="44.5535" lon="6.26628">
        <ele>788.79998779297</ele>
        <time>2021-09-01T13:52:31Z</time>
      </trkpt>
      <trkpt lat="44.55339" lon="6.26675">
        <ele>788.40002441406</ele>
        <time>2021-09-01T13:52:37Z</time>
      </trkpt>
      <trkpt lat="44.55338" lon="6.26682">
        <ele>788.40002441406</ele>
        <time>2021-09-01T13:52:38Z</time>
      </trkpt>
      <trkpt lat="44.55336" lon="6.26702">
        <ele>788.59997558594</ele>
        <time>2021-09-01T13:52:41Z</time>
      </trkpt>
      <trkpt lat="44.55336" lon="6.26708">
        <ele>788.59997558594</ele>
        <time>2021-09-01T13:52:42Z</time>
      </trkpt>
      <trkpt lat="44.55336" lon="6.26728">
        <ele>789.20001220703</ele>
        <time>2021-09-01T13:52:45Z</time>
      </trkpt>
      <trkpt lat="44.55336" lon="6.26745">
        <ele>789.20001220703</ele>
        <time>2021-09-01T13:52:47Z</time>
      </trkpt>
      <trkpt lat="44.55337" lon="6.26817">
        <ele>788.20001220703</ele>
        <time>2021-09-01T13:52:55Z</time>
      </trkpt>
      <trkpt lat="44.55332" lon="6.26864">
        <ele>787.59997558594</ele>
        <time>2021-09-01T13:53:00Z</time>
      </trkpt>
      <trkpt lat="44.55331" lon="6.26873">
        <ele>787.79998779297</ele>
        <time>2021-09-01T13:53:01Z</time>
      </trkpt>
      <trkpt lat="44.55328" lon="6.26924">
        <ele>788.40002441406</ele>
        <time>2021-09-01T13:53:08Z</time>
      </trkpt>
      <trkpt lat="44.55325" lon="6.26942">
        <ele>788.79998779297</ele>
        <time>2021-09-01T13:53:11Z</time>
      </trkpt>
      <trkpt lat="44.55322" lon="6.26955">
        <ele>789.20001220703</ele>
        <time>2021-09-01T13:53:14Z</time>
      </trkpt>
      <trkpt lat="44.55318" lon="6.26969">
        <ele>789.79998779297</ele>
        <time>2021-09-01T13:53:17Z</time>
      </trkpt>
      <trkpt lat="44.55313" lon="6.26985">
        <ele>790</ele>
        <time>2021-09-01T13:53:20Z</time>
      </trkpt>
      <trkpt lat="44.55307" lon="6.27">
        <ele>790.20001220703</ele>
        <time>2021-09-01T13:53:23Z</time>
      </trkpt>
      <trkpt lat="44.55296" lon="6.27021">
        <ele>790.20001220703</ele>
        <time>2021-09-01T13:53:27Z</time>
      </trkpt>
      <trkpt lat="44.5528" lon="6.27054">
        <ele>790.59997558594</ele>
        <time>2021-09-01T13:53:34Z</time>
      </trkpt>
      <trkpt lat="44.55273" lon="6.27067">
        <ele>790.79998779297</ele>
        <time>2021-09-01T13:53:37Z</time>
      </trkpt>
      <trkpt lat="44.55261" lon="6.27093">
        <ele>791.40002441406</ele>
        <time>2021-09-01T13:53:43Z</time>
      </trkpt>
      <trkpt lat="44.55251" lon="6.27108">
        <ele>791.79998779297</ele>
        <time>2021-09-01T13:53:47Z</time>
      </trkpt>
      <trkpt lat="44.55244" lon="6.27116">
        <ele>792</ele>
        <time>2021-09-01T13:53:50Z</time>
      </trkpt>
      <trkpt lat="44.55233" lon="6.27126">
        <ele>792.40002441406</ele>
        <time>2021-09-01T13:53:55Z</time>
      </trkpt>
      <trkpt lat="44.55227" lon="6.27132">
        <ele>793</ele>
        <time>2021-09-01T13:53:58Z</time>
      </trkpt>
      <trkpt lat="44.55214" lon="6.27141">
        <ele>793.40002441406</ele>
        <time>2021-09-01T13:54:03Z</time>
      </trkpt>
      <trkpt lat="44.55193" lon="6.2716">
        <ele>794</ele>
        <time>2021-09-01T13:54:10Z</time>
      </trkpt>
      <trkpt lat="44.5517" lon="6.27181">
        <ele>794.40002441406</ele>
        <time>2021-09-01T13:54:18Z</time>
      </trkpt>
      <trkpt lat="44.55149" lon="6.27199">
        <ele>794.79998779297</ele>
        <time>2021-09-01T13:54:24Z</time>
      </trkpt>
      <trkpt lat="44.55135" lon="6.27211">
        <ele>795</ele>
        <time>2021-09-01T13:54:28Z</time>
      </trkpt>
      <trkpt lat="44.55125" lon="6.27221">
        <ele>795.40002441406</ele>
        <time>2021-09-01T13:54:31Z</time>
      </trkpt>
      <trkpt lat="44.55099" lon="6.27245">
        <ele>795.79998779297</ele>
        <time>2021-09-01T13:54:39Z</time>
      </trkpt>
      <trkpt lat="44.55079" lon="6.2727">
        <ele>796</ele>
        <time>2021-09-01T13:54:46Z</time>
      </trkpt>
      <trkpt lat="44.55071" lon="6.27283">
        <ele>796</ele>
        <time>2021-09-01T13:54:49Z</time>
      </trkpt>
      <trkpt lat="44.55064" lon="6.27296">
        <ele>796.20001220703</ele>
        <time>2021-09-01T13:54:52Z</time>
      </trkpt>
      <trkpt lat="44.55043" lon="6.27338">
        <ele>797</ele>
        <time>2021-09-01T13:55:01Z</time>
      </trkpt>
      <trkpt lat="44.55042" lon="6.27342">
        <ele>797.20001220703</ele>
        <time>2021-09-01T13:55:02Z</time>
      </trkpt>
      <trkpt lat="44.55027" lon="6.27368">
        <ele>797.59997558594</ele>
        <time>2021-09-01T13:55:09Z</time>
      </trkpt>
      <trkpt lat="44.55009" lon="6.27394">
        <ele>798</ele>
        <time>2021-09-01T13:55:16Z</time>
      </trkpt>
      <trkpt lat="44.55006" lon="6.27398">
        <ele>798.20001220703</ele>
        <time>2021-09-01T13:55:17Z</time>
      </trkpt>
      <trkpt lat="44.54988" lon="6.27422">
        <ele>798.59997558594</ele>
        <time>2021-09-01T13:55:23Z</time>
      </trkpt>
      <trkpt lat="44.54965" lon="6.27458">
        <ele>799</ele>
        <time>2021-09-01T13:55:31Z</time>
      </trkpt>
      <trkpt lat="44.54959" lon="6.27468">
        <ele>799.20001220703</ele>
        <time>2021-09-01T13:55:33Z</time>
      </trkpt>
      <trkpt lat="44.54939" lon="6.27499">
        <ele>799.20001220703</ele>
        <time>2021-09-01T13:55:39Z</time>
      </trkpt>
      <trkpt lat="44.54915" lon="6.27532">
        <ele>799.40002441406</ele>
        <time>2021-09-01T13:55:46Z</time>
      </trkpt>
      <trkpt lat="44.54897" lon="6.27559">
        <ele>799.59997558594</ele>
        <time>2021-09-01T13:55:52Z</time>
      </trkpt>
      <trkpt lat="44.54888" lon="6.27574">
        <ele>799.79998779297</ele>
        <time>2021-09-01T13:55:55Z</time>
      </trkpt>
      <trkpt lat="44.54877" lon="6.27595">
        <ele>800.20001220703</ele>
        <time>2021-09-01T13:55:59Z</time>
      </trkpt>
      <trkpt lat="44.54874" lon="6.276">
        <ele>800.20001220703</ele>
        <time>2021-09-01T13:56:00Z</time>
      </trkpt>
      <trkpt lat="44.54857" lon="6.2763">
        <ele>800.40002441406</ele>
        <time>2021-09-01T13:56:06Z</time>
      </trkpt>
      <trkpt lat="44.54834" lon="6.27669">
        <ele>800.79998779297</ele>
        <time>2021-09-01T13:56:14Z</time>
      </trkpt>
      <trkpt lat="44.54812" lon="6.27703">
        <ele>800.59997558594</ele>
        <time>2021-09-01T13:56:22Z</time>
      </trkpt>
      <trkpt lat="44.54801" lon="6.2772">
        <ele>800.79998779297</ele>
        <time>2021-09-01T13:56:27Z</time>
      </trkpt>
      <trkpt lat="44.54797" lon="6.27722">
        <ele>800.79998779297</ele>
        <time>2021-09-01T13:56:28Z</time>
      </trkpt>
      <trkpt lat="44.54779" lon="6.27727">
        <ele>800.40002441406</ele>
        <time>2021-09-01T13:56:32Z</time>
      </trkpt>
      <trkpt lat="44.54769" lon="6.2773">
        <ele>800.20001220703</ele>
        <time>2021-09-01T13:56:34Z</time>
      </trkpt>
      <trkpt lat="44.54761" lon="6.27738">
        <ele>799.79998779297</ele>
        <time>2021-09-01T13:56:36Z</time>
      </trkpt>
      <trkpt lat="44.54744" lon="6.27755">
        <ele>799.20001220703</ele>
        <time>2021-09-01T13:56:40Z</time>
      </trkpt>
      <trkpt lat="44.5474" lon="6.27758">
        <ele>799</ele>
        <time>2021-09-01T13:56:41Z</time>
      </trkpt>
      <trkpt lat="44.54735" lon="6.27759">
        <ele>799</ele>
        <time>2021-09-01T13:56:42Z</time>
      </trkpt>
      <trkpt lat="44.5472" lon="6.27759">
        <ele>798.79998779297</ele>
        <time>2021-09-01T13:56:45Z</time>
      </trkpt>
      <trkpt lat="44.54718" lon="6.27755">
        <ele>798.59997558594</ele>
        <time>2021-09-01T13:56:46Z</time>
      </trkpt>
      <trkpt lat="44.54717" lon="6.27749">
        <ele>798.20001220703</ele>
        <time>2021-09-01T13:56:49Z</time>
      </trkpt>
      <trkpt lat="44.54716" lon="6.27747">
        <ele>798</ele>
        <time>2021-09-01T13:56:50Z</time>
      </trkpt>
      <trkpt lat="44.54713" lon="6.27746">
        <ele>797.59997558594</ele>
        <time>2021-09-01T13:57:00Z</time>
      </trkpt>
      <trkpt lat="44.54705" lon="6.27738">
        <ele>797.40002441406</ele>
        <time>2021-09-01T13:57:04Z</time>
      </trkpt>
      <trkpt lat="44.54694" lon="6.27728">
        <ele>797.20001220703</ele>
        <time>2021-09-01T13:57:07Z</time>
      </trkpt>
      <trkpt lat="44.5469" lon="6.27726">
        <ele>797</ele>
        <time>2021-09-01T13:57:08Z</time>
      </trkpt>
      <trkpt lat="44.54685" lon="6.27723">
        <ele>797</ele>
        <time>2021-09-01T13:57:09Z</time>
      </trkpt>
      <trkpt lat="44.54663" lon="6.27707">
        <ele>796.40002441406</ele>
        <time>2021-09-01T13:57:14Z</time>
      </trkpt>
      <trkpt lat="44.54654" lon="6.277">
        <ele>796.20001220703</ele>
        <time>2021-09-01T13:57:16Z</time>
      </trkpt>
      <trkpt lat="44.54643" lon="6.27691">
        <ele>796</ele>
        <time>2021-09-01T13:57:18Z</time>
      </trkpt>
      <trkpt lat="44.54622" lon="6.27678">
        <ele>795.40002441406</ele>
        <time>2021-09-01T13:57:22Z</time>
      </trkpt>
      <trkpt lat="44.54606" lon="6.27669">
        <ele>794.59997558594</ele>
        <time>2021-09-01T13:57:25Z</time>
      </trkpt>
      <trkpt lat="44.54599" lon="6.27665">
        <ele>794</ele>
        <time>2021-09-01T13:57:27Z</time>
      </trkpt>
      <trkpt lat="44.54593" lon="6.27661">
        <ele>793.59997558594</ele>
        <time>2021-09-01T13:57:29Z</time>
      </trkpt>
      <trkpt lat="44.54584" lon="6.27658">
        <ele>792.59997558594</ele>
        <time>2021-09-01T13:57:32Z</time>
      </trkpt>
      <trkpt lat="44.54581" lon="6.27658">
        <ele>792.40002441406</ele>
        <time>2021-09-01T13:57:33Z</time>
      </trkpt>
      <trkpt lat="44.5457" lon="6.27657">
        <ele>792</ele>
        <time>2021-09-01T13:57:37Z</time>
      </trkpt>
      <trkpt lat="44.54556" lon="6.27656">
        <ele>791.59997558594</ele>
        <time>2021-09-01T13:57:44Z</time>
      </trkpt>
      <trkpt lat="44.54553" lon="6.27657">
        <ele>791.40002441406</ele>
        <time>2021-09-01T13:57:46Z</time>
      </trkpt>
      <trkpt lat="44.54553" lon="6.27658">
        <ele>791.79998779297</ele>
        <time>2021-09-01T14:01:10Z</time>
      </trkpt>
      <trkpt lat="44.54551" lon="6.27659">
        <ele>791.79998779297</ele>
        <time>2021-09-01T14:01:12Z</time>
      </trkpt>
      <trkpt lat="44.54534" lon="6.27659">
        <ele>791.40002441406</ele>
        <time>2021-09-01T14:01:20Z</time>
      </trkpt>
      <trkpt lat="44.54528" lon="6.27657">
        <ele>791.40002441406</ele>
        <time>2021-09-01T14:01:24Z</time>
      </trkpt>
      <trkpt lat="44.54527" lon="6.27656">
        <ele>791.20001220703</ele>
        <time>2021-09-01T14:01:25Z</time>
      </trkpt>
      <trkpt lat="44.54572" lon="6.27588">
        <ele>792.59997558594</ele>
        <time>2021-09-01T14:27:20Z</time>
      </trkpt>
      <trkpt lat="44.54573" lon="6.2759">
        <ele>792.40002441406</ele>
        <time>2021-09-01T14:27:49Z</time>
      </trkpt>
      <trkpt lat="44.54571" lon="6.27596">
        <ele>792.40002441406</ele>
        <time>2021-09-01T14:27:52Z</time>
      </trkpt>
      <trkpt lat="44.54565" lon="6.27613">
        <ele>792.59997558594</ele>
        <time>2021-09-01T14:27:58Z</time>
      </trkpt>
      <trkpt lat="44.54551" lon="6.27635">
        <ele>792.59997558594</ele>
        <time>2021-09-01T14:28:05Z</time>
      </trkpt>
      <trkpt lat="44.54535" lon="6.27659">
        <ele>792.20001220703</ele>
        <time>2021-09-01T14:28:13Z</time>
      </trkpt>
      <trkpt lat="44.54526" lon="6.27669">
        <ele>792</ele>
        <time>2021-09-01T14:28:18Z</time>
      </trkpt>
      <trkpt lat="44.54526" lon="6.27668">
        <ele>791.59997558594</ele>
        <time>2021-09-01T14:28:26Z</time>
      </trkpt>
      <trkpt lat="44.54528" lon="6.27666">
        <ele>791.59997558594</ele>
        <time>2021-09-01T14:28:27Z</time>
      </trkpt>
      <trkpt lat="44.54533" lon="6.27666">
        <ele>791.79998779297</ele>
        <time>2021-09-01T14:28:30Z</time>
      </trkpt>
      <trkpt lat="44.54534" lon="6.27666">
        <ele>791.79998779297</ele>
        <time>2021-09-01T14:28:31Z</time>
      </trkpt>
      <trkpt lat="44.54535" lon="6.27669">
        <ele>791.79998779297</ele>
        <time>2021-09-01T14:28:33Z</time>
      </trkpt>
      <trkpt lat="44.54536" lon="6.27677">
        <ele>791.79998779297</ele>
        <time>2021-09-01T14:28:36Z</time>
      </trkpt>
      <trkpt lat="44.54538" lon="6.27694">
        <ele>791.59997558594</ele>
        <time>2021-09-01T14:28:41Z</time>
      </trkpt>
      <trkpt lat="44.54538" lon="6.27701">
        <ele>791.40002441406</ele>
        <time>2021-09-01T14:28:43Z</time>
      </trkpt>
      <trkpt lat="44.54533" lon="6.27726">
        <ele>791</ele>
        <time>2021-09-01T14:28:49Z</time>
      </trkpt>
      <trkpt lat="44.54521" lon="6.27765">
        <ele>790.59997558594</ele>
        <time>2021-09-01T14:28:59Z</time>
      </trkpt>
      <trkpt lat="44.54517" lon="6.27785">
        <ele>791</ele>
        <time>2021-09-01T14:29:05Z</time>
      </trkpt>
      <trkpt lat="44.54508" lon="6.27805">
        <ele>791.20001220703</ele>
        <time>2021-09-01T14:29:13Z</time>
      </trkpt>
      <trkpt lat="44.54501" lon="6.2781">
        <ele>791.20001220703</ele>
        <time>2021-09-01T14:31:10Z</time>
      </trkpt>
      <trkpt lat="44.54499" lon="6.27806">
        <ele>791</ele>
        <time>2021-09-01T14:31:12Z</time>
      </trkpt>
      <trkpt lat="44.54488" lon="6.27801">
        <ele>790.79998779297</ele>
        <time>2021-09-01T14:31:16Z</time>
      </trkpt>
      <trkpt lat="44.5448" lon="6.27799">
        <ele>790.59997558594</ele>
        <time>2021-09-01T14:31:18Z</time>
      </trkpt>
      <trkpt lat="44.54462" lon="6.27794">
        <ele>790</ele>
        <time>2021-09-01T14:31:23Z</time>
      </trkpt>
      <trkpt lat="44.54442" lon="6.27795">
        <ele>789.59997558594</ele>
        <time>2021-09-01T14:31:28Z</time>
      </trkpt>
      <trkpt lat="44.54438" lon="6.27796">
        <ele>789.40002441406</ele>
        <time>2021-09-01T14:31:29Z</time>
      </trkpt>
      <trkpt lat="44.54412" lon="6.27802">
        <ele>788.59997558594</ele>
        <time>2021-09-01T14:31:34Z</time>
      </trkpt>
      <trkpt lat="44.54397" lon="6.27807">
        <ele>788.20001220703</ele>
        <time>2021-09-01T14:31:37Z</time>
      </trkpt>
      <trkpt lat="44.54374" lon="6.2781">
        <ele>787.59997558594</ele>
        <time>2021-09-01T14:31:41Z</time>
      </trkpt>
      <trkpt lat="44.54367" lon="6.27812">
        <ele>787.40002441406</ele>
        <time>2021-09-01T14:31:42Z</time>
      </trkpt>
      <trkpt lat="44.5436" lon="6.27814">
        <ele>787.20001220703</ele>
        <time>2021-09-01T14:31:43Z</time>
      </trkpt>
      <trkpt lat="44.5434" lon="6.2782">
        <ele>786.40002441406</ele>
        <time>2021-09-01T14:31:46Z</time>
      </trkpt>
      <trkpt lat="44.54333" lon="6.27823">
        <ele>786</ele>
        <time>2021-09-01T14:31:47Z</time>
      </trkpt>
      <trkpt lat="44.54321" lon="6.27829">
        <ele>785.79998779297</ele>
        <time>2021-09-01T14:31:49Z</time>
      </trkpt>
      <trkpt lat="44.54302" lon="6.27844">
        <ele>785.20001220703</ele>
        <time>2021-09-01T14:31:52Z</time>
      </trkpt>
      <trkpt lat="44.54296" lon="6.27849">
        <ele>784.79998779297</ele>
        <time>2021-09-01T14:31:53Z</time>
      </trkpt>
      <trkpt lat="44.54264" lon="6.27877">
        <ele>783.79998779297</ele>
        <time>2021-09-01T14:31:58Z</time>
      </trkpt>
      <trkpt lat="44.54251" lon="6.27888">
        <ele>783.40002441406</ele>
        <time>2021-09-01T14:32:00Z</time>
      </trkpt>
      <trkpt lat="44.5422" lon="6.27915">
        <ele>782.59997558594</ele>
        <time>2021-09-01T14:32:05Z</time>
      </trkpt>
      <trkpt lat="44.54188" lon="6.27939">
        <ele>781.59997558594</ele>
        <time>2021-09-01T14:32:10Z</time>
      </trkpt>
      <trkpt lat="44.54142" lon="6.27968">
        <ele>780.40002441406</ele>
        <time>2021-09-01T14:32:17Z</time>
      </trkpt>
      <trkpt lat="44.54136" lon="6.27972">
        <ele>780.40002441406</ele>
        <time>2021-09-01T14:32:18Z</time>
      </trkpt>
      <trkpt lat="44.54101" lon="6.2799">
        <ele>779.40002441406</ele>
        <time>2021-09-01T14:32:23Z</time>
      </trkpt>
      <trkpt lat="44.54094" lon="6.27993">
        <ele>779.20001220703</ele>
        <time>2021-09-01T14:32:24Z</time>
      </trkpt>
      <trkpt lat="44.54073" lon="6.28002">
        <ele>778.20001220703</ele>
        <time>2021-09-01T14:32:27Z</time>
      </trkpt>
      <trkpt lat="44.54051" lon="6.2801">
        <ele>777.20001220703</ele>
        <time>2021-09-01T14:32:30Z</time>
      </trkpt>
      <trkpt lat="44.54036" lon="6.28015">
        <ele>776.59997558594</ele>
        <time>2021-09-01T14:32:32Z</time>
      </trkpt>
      <trkpt lat="44.54013" lon="6.28021">
        <ele>776.20001220703</ele>
        <time>2021-09-01T14:32:35Z</time>
      </trkpt>
      <trkpt lat="44.53983" lon="6.28028">
        <ele>775</ele>
        <time>2021-09-01T14:32:39Z</time>
      </trkpt>
      <trkpt lat="44.53975" lon="6.28028">
        <ele>774.59997558594</ele>
        <time>2021-09-01T14:32:40Z</time>
      </trkpt>
      <trkpt lat="44.53967" lon="6.28029">
        <ele>773.79998779297</ele>
        <time>2021-09-01T14:32:41Z</time>
      </trkpt>
      <trkpt lat="44.53944" lon="6.28029">
        <ele>772.79998779297</ele>
        <time>2021-09-01T14:32:44Z</time>
      </trkpt>
      <trkpt lat="44.53912" lon="6.28029">
        <ele>771.79998779297</ele>
        <time>2021-09-01T14:32:48Z</time>
      </trkpt>
      <trkpt lat="44.53904" lon="6.28029">
        <ele>771.59997558594</ele>
        <time>2021-09-01T14:32:49Z</time>
      </trkpt>
      <trkpt lat="44.53865" lon="6.28028">
        <ele>770.59997558594</ele>
        <time>2021-09-01T14:32:54Z</time>
      </trkpt>
      <trkpt lat="44.53819" lon="6.28028">
        <ele>769.40002441406</ele>
        <time>2021-09-01T14:33:00Z</time>
      </trkpt>
      <trkpt lat="44.53812" lon="6.28028">
        <ele>769.20001220703</ele>
        <time>2021-09-01T14:33:01Z</time>
      </trkpt>
      <trkpt lat="44.53776" lon="6.28029">
        <ele>768.40002441406</ele>
        <time>2021-09-01T14:33:06Z</time>
      </trkpt>
      <trkpt lat="44.53769" lon="6.28031">
        <ele>768.20001220703</ele>
        <time>2021-09-01T14:33:07Z</time>
      </trkpt>
      <trkpt lat="44.53762" lon="6.28033">
        <ele>768</ele>
        <time>2021-09-01T14:33:08Z</time>
      </trkpt>
      <trkpt lat="44.53749" lon="6.2804">
        <ele>767.59997558594</ele>
        <time>2021-09-01T14:33:10Z</time>
      </trkpt>
      <trkpt lat="44.53743" lon="6.28044">
        <ele>767.40002441406</ele>
        <time>2021-09-01T14:33:11Z</time>
      </trkpt>
      <trkpt lat="44.53731" lon="6.28054">
        <ele>766.79998779297</ele>
        <time>2021-09-01T14:33:13Z</time>
      </trkpt>
      <trkpt lat="44.53702" lon="6.2808">
        <ele>766.20001220703</ele>
        <time>2021-09-01T14:33:18Z</time>
      </trkpt>
      <trkpt lat="44.53679" lon="6.281">
        <ele>766</ele>
        <time>2021-09-01T14:33:22Z</time>
      </trkpt>
      <trkpt lat="44.53644" lon="6.28131">
        <ele>765.20001220703</ele>
        <time>2021-09-01T14:33:28Z</time>
      </trkpt>
      <trkpt lat="44.53631" lon="6.28143">
        <ele>764.59997558594</ele>
        <time>2021-09-01T14:33:30Z</time>
      </trkpt>
      <trkpt lat="44.53619" lon="6.28156">
        <ele>764.20001220703</ele>
        <time>2021-09-01T14:33:32Z</time>
      </trkpt>
      <trkpt lat="44.53589" lon="6.28192">
        <ele>763.40002441406</ele>
        <time>2021-09-01T14:33:37Z</time>
      </trkpt>
      <trkpt lat="44.53583" lon="6.28199">
        <ele>763</ele>
        <time>2021-09-01T14:33:38Z</time>
      </trkpt>
      <trkpt lat="44.53554" lon="6.28233">
        <ele>762</ele>
        <time>2021-09-01T14:33:43Z</time>
      </trkpt>
      <trkpt lat="44.53536" lon="6.28253">
        <ele>761.79998779297</ele>
        <time>2021-09-01T14:33:46Z</time>
      </trkpt>
      <trkpt lat="44.53498" lon="6.28299">
        <ele>760.79998779297</ele>
        <time>2021-09-01T14:33:53Z</time>
      </trkpt>
      <trkpt lat="44.53487" lon="6.28312">
        <ele>760.59997558594</ele>
        <time>2021-09-01T14:33:55Z</time>
      </trkpt>
      <trkpt lat="44.53445" lon="6.28364">
        <ele>760</ele>
        <time>2021-09-01T14:34:03Z</time>
      </trkpt>
      <trkpt lat="44.53434" lon="6.28377">
        <ele>759.59997558594</ele>
        <time>2021-09-01T14:34:05Z</time>
      </trkpt>
      <trkpt lat="44.53404" lon="6.28405">
        <ele>759.40002441406</ele>
        <time>2021-09-01T14:34:10Z</time>
      </trkpt>
      <trkpt lat="44.53374" lon="6.28424">
        <ele>758.59997558594</ele>
        <time>2021-09-01T14:34:14Z</time>
      </trkpt>
      <trkpt lat="44.53366" lon="6.28429">
        <ele>758.20001220703</ele>
        <time>2021-09-01T14:34:15Z</time>
      </trkpt>
      <trkpt lat="44.5335" lon="6.28438">
        <ele>757.20001220703</ele>
        <time>2021-09-01T14:34:17Z</time>
      </trkpt>
      <trkpt lat="44.5332" lon="6.28464">
        <ele>756.20001220703</ele>
        <time>2021-09-01T14:34:21Z</time>
      </trkpt>
      <trkpt lat="44.53313" lon="6.28472">
        <ele>756</ele>
        <time>2021-09-01T14:34:22Z</time>
      </trkpt>
      <trkpt lat="44.53289" lon="6.28492">
        <ele>755</ele>
        <time>2021-09-01T14:34:25Z</time>
      </trkpt>
      <trkpt lat="44.5328" lon="6.28497">
        <ele>754.79998779297</ele>
        <time>2021-09-01T14:34:26Z</time>
      </trkpt>
      <trkpt lat="44.53252" lon="6.28506">
        <ele>753.59997558594</ele>
        <time>2021-09-01T14:34:29Z</time>
      </trkpt>
      <trkpt lat="44.53233" lon="6.2851">
        <ele>752.79998779297</ele>
        <time>2021-09-01T14:34:31Z</time>
      </trkpt>
      <trkpt lat="44.53224" lon="6.28513">
        <ele>752.40002441406</ele>
        <time>2021-09-01T14:34:32Z</time>
      </trkpt>
      <trkpt lat="44.53197" lon="6.28524">
        <ele>751.20001220703</ele>
        <time>2021-09-01T14:34:35Z</time>
      </trkpt>
      <trkpt lat="44.5319" lon="6.2853">
        <ele>750.79998779297</ele>
        <time>2021-09-01T14:34:36Z</time>
      </trkpt>
      <trkpt lat="44.53174" lon="6.28555">
        <ele>750.20001220703</ele>
        <time>2021-09-01T14:34:39Z</time>
      </trkpt>
      <trkpt lat="44.53159" lon="6.28593">
        <ele>749.79998779297</ele>
        <time>2021-09-01T14:34:43Z</time>
      </trkpt>
      <trkpt lat="44.53155" lon="6.28603">
        <ele>749.79998779297</ele>
        <time>2021-09-01T14:34:44Z</time>
      </trkpt>
      <trkpt lat="44.53145" lon="6.28644">
        <ele>749.40002441406</ele>
        <time>2021-09-01T14:34:48Z</time>
      </trkpt>
      <trkpt lat="44.53144" lon="6.28665">
        <ele>749.20001220703</ele>
        <time>2021-09-01T14:34:50Z</time>
      </trkpt>
      <trkpt lat="44.53145" lon="6.28676">
        <ele>749.20001220703</ele>
        <time>2021-09-01T14:34:51Z</time>
      </trkpt>
      <trkpt lat="44.53147" lon="6.28686">
        <ele>749</ele>
        <time>2021-09-01T14:34:52Z</time>
      </trkpt>
      <trkpt lat="44.53152" lon="6.28719">
        <ele>748.79998779297</ele>
        <time>2021-09-01T14:34:55Z</time>
      </trkpt>
      <trkpt lat="44.53153" lon="6.2873">
        <ele>748.59997558594</ele>
        <time>2021-09-01T14:34:56Z</time>
      </trkpt>
      <trkpt lat="44.53153" lon="6.28764">
        <ele>748.20001220703</ele>
        <time>2021-09-01T14:34:59Z</time>
      </trkpt>
      <trkpt lat="44.5315" lon="6.28775">
        <ele>748</ele>
        <time>2021-09-01T14:35:00Z</time>
      </trkpt>
      <trkpt lat="44.53144" lon="6.28796">
        <ele>747.79998779297</ele>
        <time>2021-09-01T14:35:02Z</time>
      </trkpt>
      <trkpt lat="44.53141" lon="6.28807">
        <ele>747.79998779297</ele>
        <time>2021-09-01T14:35:03Z</time>
      </trkpt>
      <trkpt lat="44.53128" lon="6.28853">
        <ele>746.79998779297</ele>
        <time>2021-09-01T14:35:07Z</time>
      </trkpt>
      <trkpt lat="44.53117" lon="6.28889">
        <ele>745.79998779297</ele>
        <time>2021-09-01T14:35:10Z</time>
      </trkpt>
      <trkpt lat="44.53105" lon="6.28924">
        <ele>744.40002441406</ele>
        <time>2021-09-01T14:35:13Z</time>
      </trkpt>
      <trkpt lat="44.53094" lon="6.28945">
        <ele>743.79998779297</ele>
        <time>2021-09-01T14:35:15Z</time>
      </trkpt>
      <trkpt lat="44.53087" lon="6.28954">
        <ele>743.59997558594</ele>
        <time>2021-09-01T14:35:16Z</time>
      </trkpt>
      <trkpt lat="44.53079" lon="6.28962">
        <ele>743</ele>
        <time>2021-09-01T14:35:17Z</time>
      </trkpt>
      <trkpt lat="44.53071" lon="6.28969">
        <ele>742.79998779297</ele>
        <time>2021-09-01T14:35:18Z</time>
      </trkpt>
      <trkpt lat="44.53046" lon="6.28984">
        <ele>742.20001220703</ele>
        <time>2021-09-01T14:35:21Z</time>
      </trkpt>
      <trkpt lat="44.53038" lon="6.28988">
        <ele>742</ele>
        <time>2021-09-01T14:35:22Z</time>
      </trkpt>
      <trkpt lat="44.52987" lon="6.29017">
        <ele>741.20001220703</ele>
        <time>2021-09-01T14:35:29Z</time>
      </trkpt>
      <trkpt lat="44.52951" lon="6.29036">
        <ele>741.59997558594</ele>
        <time>2021-09-01T14:35:35Z</time>
      </trkpt>
      <trkpt lat="44.52915" lon="6.29051">
        <ele>742.79998779297</ele>
        <time>2021-09-01T14:35:42Z</time>
      </trkpt>
      <trkpt lat="44.52906" lon="6.29054">
        <ele>743</ele>
        <time>2021-09-01T14:35:44Z</time>
      </trkpt>
      <trkpt lat="44.52876" lon="6.2906">
        <ele>744.20001220703</ele>
        <time>2021-09-01T14:35:51Z</time>
      </trkpt>
      <trkpt lat="44.52849" lon="6.2906">
        <ele>745.20001220703</ele>
        <time>2021-09-01T14:35:58Z</time>
      </trkpt>
      <trkpt lat="44.52846" lon="6.2906">
        <ele>745.40002441406</ele>
        <time>2021-09-01T14:35:59Z</time>
      </trkpt>
      <trkpt lat="44.52829" lon="6.29059">
        <ele>746.40002441406</ele>
        <time>2021-09-01T14:36:04Z</time>
      </trkpt>
      <trkpt lat="44.52823" lon="6.29058">
        <ele>746.59997558594</ele>
        <time>2021-09-01T14:36:06Z</time>
      </trkpt>
      <trkpt lat="44.52804" lon="6.29054">
        <ele>747.20001220703</ele>
        <time>2021-09-01T14:36:12Z</time>
      </trkpt>
      <trkpt lat="44.52798" lon="6.29053">
        <ele>747.40002441406</ele>
        <time>2021-09-01T14:36:14Z</time>
      </trkpt>
      <trkpt lat="44.52784" lon="6.29051">
        <ele>747.79998779297</ele>
        <time>2021-09-01T14:36:19Z</time>
      </trkpt>
      <trkpt lat="44.52769" lon="6.29048">
        <ele>748.40002441406</ele>
        <time>2021-09-01T14:36:24Z</time>
      </trkpt>
      <trkpt lat="44.52758" lon="6.29047">
        <ele>749</ele>
        <time>2021-09-01T14:36:28Z</time>
      </trkpt>
      <trkpt lat="44.52744" lon="6.29044">
        <ele>749.59997558594</ele>
        <time>2021-09-01T14:36:33Z</time>
      </trkpt>
      <trkpt lat="44.52729" lon="6.29042">
        <ele>750.20001220703</ele>
        <time>2021-09-01T14:36:38Z</time>
      </trkpt>
      <trkpt lat="44.5272" lon="6.29041">
        <ele>750.79998779297</ele>
        <time>2021-09-01T14:36:41Z</time>
      </trkpt>
      <trkpt lat="44.52698" lon="6.29037">
        <ele>751.79998779297</ele>
        <time>2021-09-01T14:36:48Z</time>
      </trkpt>
      <trkpt lat="44.52695" lon="6.29037">
        <ele>751.79998779297</ele>
        <time>2021-09-01T14:36:49Z</time>
      </trkpt>
      <trkpt lat="44.52671" lon="6.29034">
        <ele>752.79998779297</ele>
        <time>2021-09-01T14:36:57Z</time>
      </trkpt>
      <trkpt lat="44.52668" lon="6.29033">
        <ele>753</ele>
        <time>2021-09-01T14:36:58Z</time>
      </trkpt>
      <trkpt lat="44.52649" lon="6.29029">
        <ele>753.79998779297</ele>
        <time>2021-09-01T14:37:05Z</time>
      </trkpt>
      <trkpt lat="44.52643" lon="6.29028">
        <ele>754</ele>
        <time>2021-09-01T14:37:07Z</time>
      </trkpt>
      <trkpt lat="44.52626" lon="6.29026">
        <ele>754.40002441406</ele>
        <time>2021-09-01T14:37:13Z</time>
      </trkpt>
      <trkpt lat="44.52615" lon="6.29023">
        <ele>755</ele>
        <time>2021-09-01T14:37:17Z</time>
      </trkpt>
      <trkpt lat="44.52606" lon="6.29023">
        <ele>755.40002441406</ele>
        <time>2021-09-01T14:37:20Z</time>
      </trkpt>
      <trkpt lat="44.52589" lon="6.2902">
        <ele>756</ele>
        <time>2021-09-01T14:37:26Z</time>
      </trkpt>
      <trkpt lat="44.52586" lon="6.2902">
        <ele>756.20001220703</ele>
        <time>2021-09-01T14:37:27Z</time>
      </trkpt>
      <trkpt lat="44.52565" lon="6.29017">
        <ele>757.20001220703</ele>
        <time>2021-09-01T14:37:34Z</time>
      </trkpt>
      <trkpt lat="44.5256" lon="6.29016">
        <ele>757.40002441406</ele>
        <time>2021-09-01T14:37:36Z</time>
      </trkpt>
      <trkpt lat="44.52543" lon="6.29013">
        <ele>758.20001220703</ele>
        <time>2021-09-01T14:37:42Z</time>
      </trkpt>
      <trkpt lat="44.52534" lon="6.29011">
        <ele>758.79998779297</ele>
        <time>2021-09-01T14:37:45Z</time>
      </trkpt>
      <trkpt lat="44.52514" lon="6.29009">
        <ele>759.40002441406</ele>
        <time>2021-09-01T14:37:52Z</time>
      </trkpt>
      <trkpt lat="44.52508" lon="6.29008">
        <ele>759.59997558594</ele>
        <time>2021-09-01T14:37:54Z</time>
      </trkpt>
      <trkpt lat="44.52489" lon="6.29004">
        <ele>760.40002441406</ele>
        <time>2021-09-01T14:38:01Z</time>
      </trkpt>
      <trkpt lat="44.52487" lon="6.29003">
        <ele>760.40002441406</ele>
        <time>2021-09-01T14:38:02Z</time>
      </trkpt>
      <trkpt lat="44.52463" lon="6.29">
        <ele>761.20001220703</ele>
        <time>2021-09-01T14:38:10Z</time>
      </trkpt>
      <trkpt lat="44.52458" lon="6.28998">
        <ele>761.40002441406</ele>
        <time>2021-09-01T14:38:12Z</time>
      </trkpt>
      <trkpt lat="44.52436" lon="6.28995">
        <ele>762.59997558594</ele>
        <time>2021-09-01T14:38:19Z</time>
      </trkpt>
      <trkpt lat="44.52415" lon="6.28992">
        <ele>763.59997558594</ele>
        <time>2021-09-01T14:38:27Z</time>
      </trkpt>
      <trkpt lat="44.52413" lon="6.28991">
        <ele>763.79998779297</ele>
        <time>2021-09-01T14:38:28Z</time>
      </trkpt>
      <trkpt lat="44.52392" lon="6.28989">
        <ele>764.79998779297</ele>
        <time>2021-09-01T14:38:36Z</time>
      </trkpt>
      <trkpt lat="44.52374" lon="6.28988">
        <ele>765.79998779297</ele>
        <time>2021-09-01T14:38:43Z</time>
      </trkpt>
      <trkpt lat="44.52362" lon="6.28987">
        <ele>766.79998779297</ele>
        <time>2021-09-01T14:38:48Z</time>
      </trkpt>
      <trkpt lat="44.5236" lon="6.28988">
        <ele>766.79998779297</ele>
        <time>2021-09-01T14:38:49Z</time>
      </trkpt>
      <trkpt lat="44.52345" lon="6.28988">
        <ele>767.59997558594</ele>
        <time>2021-09-01T14:38:55Z</time>
      </trkpt>
      <trkpt lat="44.5234" lon="6.28988">
        <ele>767.79998779297</ele>
        <time>2021-09-01T14:38:57Z</time>
      </trkpt>
      <trkpt lat="44.52322" lon="6.28987">
        <ele>769.20001220703</ele>
        <time>2021-09-01T14:39:05Z</time>
      </trkpt>
      <trkpt lat="44.52301" lon="6.28988">
        <ele>770.20001220703</ele>
        <time>2021-09-01T14:39:15Z</time>
      </trkpt>
      <trkpt lat="44.52287" lon="6.28989">
        <ele>771.40002441406</ele>
        <time>2021-09-01T14:39:22Z</time>
      </trkpt>
      <trkpt lat="44.52269" lon="6.2899">
        <ele>772.40002441406</ele>
        <time>2021-09-01T14:39:30Z</time>
      </trkpt>
      <trkpt lat="44.52265" lon="6.2899">
        <ele>772.59997558594</ele>
        <time>2021-09-01T14:39:32Z</time>
      </trkpt>
      <trkpt lat="44.5225" lon="6.28994">
        <ele>773.40002441406</ele>
        <time>2021-09-01T14:39:39Z</time>
      </trkpt>
      <trkpt lat="44.52247" lon="6.28994">
        <ele>773.40002441406</ele>
        <time>2021-09-01T14:39:40Z</time>
      </trkpt>
      <trkpt lat="44.52233" lon="6.28997">
        <ele>774.40002441406</ele>
        <time>2021-09-01T14:39:47Z</time>
      </trkpt>
      <trkpt lat="44.52229" lon="6.28999">
        <ele>774.59997558594</ele>
        <time>2021-09-01T14:39:49Z</time>
      </trkpt>
      <trkpt lat="44.52216" lon="6.29002">
        <ele>775.79998779297</ele>
        <time>2021-09-01T14:39:55Z</time>
      </trkpt>
      <trkpt lat="44.52214" lon="6.29003">
        <ele>776</ele>
        <time>2021-09-01T14:39:56Z</time>
      </trkpt>
      <trkpt lat="44.52201" lon="6.29008">
        <ele>776.79998779297</ele>
        <time>2021-09-01T14:40:02Z</time>
      </trkpt>
      <trkpt lat="44.52195" lon="6.29011">
        <ele>777</ele>
        <time>2021-09-01T14:40:05Z</time>
      </trkpt>
      <trkpt lat="44.52181" lon="6.29018">
        <ele>777.79998779297</ele>
        <time>2021-09-01T14:40:12Z</time>
      </trkpt>
      <trkpt lat="44.52179" lon="6.29019">
        <ele>777.79998779297</ele>
        <time>2021-09-01T14:40:13Z</time>
      </trkpt>
      <trkpt lat="44.52165" lon="6.29024">
        <ele>779</ele>
        <time>2021-09-01T14:40:20Z</time>
      </trkpt>
      <trkpt lat="44.52147" lon="6.29032">
        <ele>780</ele>
        <time>2021-09-01T14:40:28Z</time>
      </trkpt>
      <trkpt lat="44.52127" lon="6.29041">
        <ele>780.79998779297</ele>
        <time>2021-09-01T14:40:37Z</time>
      </trkpt>
      <trkpt lat="44.52124" lon="6.29042">
        <ele>781</ele>
        <time>2021-09-01T14:40:38Z</time>
      </trkpt>
      <trkpt lat="44.52107" lon="6.29051">
        <ele>782.20001220703</ele>
        <time>2021-09-01T14:40:46Z</time>
      </trkpt>
      <trkpt lat="44.52103" lon="6.29052">
        <ele>782.40002441406</ele>
        <time>2021-09-01T14:40:48Z</time>
      </trkpt>
      <trkpt lat="44.52089" lon="6.29057">
        <ele>783.20001220703</ele>
        <time>2021-09-01T14:40:54Z</time>
      </trkpt>
      <trkpt lat="44.52085" lon="6.29059">
        <ele>783.40002441406</ele>
        <time>2021-09-01T14:40:56Z</time>
      </trkpt>
      <trkpt lat="44.52071" lon="6.29067">
        <ele>784.20001220703</ele>
        <time>2021-09-01T14:41:03Z</time>
      </trkpt>
      <trkpt lat="44.52069" lon="6.29068">
        <ele>784.40002441406</ele>
        <time>2021-09-01T14:41:04Z</time>
      </trkpt>
      <trkpt lat="44.52058" lon="6.29073">
        <ele>785.20001220703</ele>
        <time>2021-09-01T14:41:09Z</time>
      </trkpt>
      <trkpt lat="44.52054" lon="6.29075">
        <ele>785.40002441406</ele>
        <time>2021-09-01T14:41:11Z</time>
      </trkpt>
      <trkpt lat="44.52041" lon="6.29082">
        <ele>786.40002441406</ele>
        <time>2021-09-01T14:41:17Z</time>
      </trkpt>
      <trkpt lat="44.52033" lon="6.29085">
        <ele>787</ele>
        <time>2021-09-01T14:41:21Z</time>
      </trkpt>
      <trkpt lat="44.52024" lon="6.29089">
        <ele>787.40002441406</ele>
        <time>2021-09-01T14:41:25Z</time>
      </trkpt>
      <trkpt lat="44.52013" lon="6.29094">
        <ele>788.20001220703</ele>
        <time>2021-09-01T14:41:30Z</time>
      </trkpt>
      <trkpt lat="44.52008" lon="6.29095">
        <ele>788.40002441406</ele>
        <time>2021-09-01T14:41:32Z</time>
      </trkpt>
      <trkpt lat="44.51992" lon="6.29103">
        <ele>789.40002441406</ele>
        <time>2021-09-01T14:41:39Z</time>
      </trkpt>
      <trkpt lat="44.51988" lon="6.29105">
        <ele>789.59997558594</ele>
        <time>2021-09-01T14:41:41Z</time>
      </trkpt>
      <trkpt lat="44.51976" lon="6.29111">
        <ele>790.20001220703</ele>
        <time>2021-09-01T14:41:46Z</time>
      </trkpt>
      <trkpt lat="44.51969" lon="6.29114">
        <ele>790.59997558594</ele>
        <time>2021-09-01T14:41:49Z</time>
      </trkpt>
      <trkpt lat="44.5196" lon="6.29118">
        <ele>791</ele>
        <time>2021-09-01T14:41:53Z</time>
      </trkpt>
      <trkpt lat="44.51953" lon="6.29121">
        <ele>791.59997558594</ele>
        <time>2021-09-01T14:41:56Z</time>
      </trkpt>
      <trkpt lat="44.51931" lon="6.2913">
        <ele>792.79998779297</ele>
        <time>2021-09-01T14:42:06Z</time>
      </trkpt>
      <trkpt lat="44.51912" lon="6.29138">
        <ele>793.79998779297</ele>
        <time>2021-09-01T14:42:14Z</time>
      </trkpt>
      <trkpt lat="44.5191" lon="6.2914">
        <ele>794</ele>
        <time>2021-09-01T14:42:15Z</time>
      </trkpt>
      <trkpt lat="44.51896" lon="6.29148">
        <ele>794.79998779297</ele>
        <time>2021-09-01T14:42:22Z</time>
      </trkpt>
      <trkpt lat="44.51891" lon="6.29148">
        <ele>795</ele>
        <time>2021-09-01T14:42:24Z</time>
      </trkpt>
      <trkpt lat="44.51875" lon="6.29153">
        <ele>795.79998779297</ele>
        <time>2021-09-01T14:42:31Z</time>
      </trkpt>
      <trkpt lat="44.51871" lon="6.29155">
        <ele>796</ele>
        <time>2021-09-01T14:42:33Z</time>
      </trkpt>
      <trkpt lat="44.51852" lon="6.29165">
        <ele>796.79998779297</ele>
        <time>2021-09-01T14:42:41Z</time>
      </trkpt>
      <trkpt lat="44.51847" lon="6.29168">
        <ele>797.20001220703</ele>
        <time>2021-09-01T14:42:43Z</time>
      </trkpt>
      <trkpt lat="44.51833" lon="6.29173">
        <ele>797.79998779297</ele>
        <time>2021-09-01T14:42:49Z</time>
      </trkpt>
      <trkpt lat="44.51823" lon="6.29178">
        <ele>798.40002441406</ele>
        <time>2021-09-01T14:42:53Z</time>
      </trkpt>
      <trkpt lat="44.51817" lon="6.29181">
        <ele>799</ele>
        <time>2021-09-01T14:42:56Z</time>
      </trkpt>
      <trkpt lat="44.51806" lon="6.29187">
        <ele>799.40002441406</ele>
        <time>2021-09-01T14:43:01Z</time>
      </trkpt>
      <trkpt lat="44.51795" lon="6.29191">
        <ele>800.20001220703</ele>
        <time>2021-09-01T14:43:06Z</time>
      </trkpt>
      <trkpt lat="44.51788" lon="6.29194">
        <ele>800.59997558594</ele>
        <time>2021-09-01T14:43:09Z</time>
      </trkpt>
      <trkpt lat="44.51774" lon="6.292">
        <ele>801.20001220703</ele>
        <time>2021-09-01T14:43:15Z</time>
      </trkpt>
      <trkpt lat="44.51765" lon="6.29203">
        <ele>801.59997558594</ele>
        <time>2021-09-01T14:43:19Z</time>
      </trkpt>
      <trkpt lat="44.51752" lon="6.29208">
        <ele>802.40002441406</ele>
        <time>2021-09-01T14:43:25Z</time>
      </trkpt>
      <trkpt lat="44.51745" lon="6.2921">
        <ele>802.79998779297</ele>
        <time>2021-09-01T14:43:28Z</time>
      </trkpt>
      <trkpt lat="44.51737" lon="6.2921">
        <ele>803.40002441406</ele>
        <time>2021-09-01T14:43:31Z</time>
      </trkpt>
      <trkpt lat="44.51723" lon="6.29211">
        <ele>804</ele>
        <time>2021-09-01T14:43:37Z</time>
      </trkpt>
      <trkpt lat="44.51714" lon="6.2921">
        <ele>804.40002441406</ele>
        <time>2021-09-01T14:43:41Z</time>
      </trkpt>
      <trkpt lat="44.51709" lon="6.29209">
        <ele>804.59997558594</ele>
        <time>2021-09-01T14:43:43Z</time>
      </trkpt>
      <trkpt lat="44.5169" lon="6.29208">
        <ele>805.59997558594</ele>
        <time>2021-09-01T14:43:51Z</time>
      </trkpt>
      <trkpt lat="44.51681" lon="6.29206">
        <ele>806.20001220703</ele>
        <time>2021-09-01T14:43:55Z</time>
      </trkpt>
      <trkpt lat="44.51672" lon="6.29204">
        <ele>806.59997558594</ele>
        <time>2021-09-01T14:43:59Z</time>
      </trkpt>
      <trkpt lat="44.51663" lon="6.29202">
        <ele>807.20001220703</ele>
        <time>2021-09-01T14:44:03Z</time>
      </trkpt>
      <trkpt lat="44.51651" lon="6.29198">
        <ele>807.59997558594</ele>
        <time>2021-09-01T14:44:08Z</time>
      </trkpt>
      <trkpt lat="44.51643" lon="6.29195">
        <ele>808.20001220703</ele>
        <time>2021-09-01T14:44:12Z</time>
      </trkpt>
      <trkpt lat="44.51634" lon="6.29192">
        <ele>808.59997558594</ele>
        <time>2021-09-01T14:44:16Z</time>
      </trkpt>
      <trkpt lat="44.51623" lon="6.29186">
        <ele>809.40002441406</ele>
        <time>2021-09-01T14:44:21Z</time>
      </trkpt>
      <trkpt lat="44.51616" lon="6.29183">
        <ele>809.79998779297</ele>
        <time>2021-09-01T14:44:24Z</time>
      </trkpt>
      <trkpt lat="44.51599" lon="6.29172">
        <ele>810.79998779297</ele>
        <time>2021-09-01T14:44:32Z</time>
      </trkpt>
      <trkpt lat="44.51596" lon="6.29171">
        <ele>810.79998779297</ele>
        <time>2021-09-01T14:44:33Z</time>
      </trkpt>
      <trkpt lat="44.5158" lon="6.2916">
        <ele>811.79998779297</ele>
        <time>2021-09-01T14:44:41Z</time>
      </trkpt>
      <trkpt lat="44.51563" lon="6.29148">
        <ele>813</ele>
        <time>2021-09-01T14:44:49Z</time>
      </trkpt>
      <trkpt lat="44.51557" lon="6.29143">
        <ele>813.20001220703</ele>
        <time>2021-09-01T14:44:52Z</time>
      </trkpt>
      <trkpt lat="44.51544" lon="6.29133">
        <ele>814</ele>
        <time>2021-09-01T14:44:58Z</time>
      </trkpt>
      <trkpt lat="44.5154" lon="6.29129">
        <ele>814.40002441406</ele>
        <time>2021-09-01T14:45:00Z</time>
      </trkpt>
      <trkpt lat="44.51531" lon="6.29119">
        <ele>815.20001220703</ele>
        <time>2021-09-01T14:45:05Z</time>
      </trkpt>
      <trkpt lat="44.51523" lon="6.29111">
        <ele>815.59997558594</ele>
        <time>2021-09-01T14:45:09Z</time>
      </trkpt>
      <trkpt lat="44.51514" lon="6.29099">
        <ele>816.20001220703</ele>
        <time>2021-09-01T14:45:14Z</time>
      </trkpt>
      <trkpt lat="44.51512" lon="6.29097">
        <ele>816.40002441406</ele>
        <time>2021-09-01T14:45:15Z</time>
      </trkpt>
      <trkpt lat="44.51504" lon="6.29086">
        <ele>817.20001220703</ele>
        <time>2021-09-01T14:45:20Z</time>
      </trkpt>
      <trkpt lat="44.51498" lon="6.29078">
        <ele>817.59997558594</ele>
        <time>2021-09-01T14:45:24Z</time>
      </trkpt>
      <trkpt lat="44.51487" lon="6.29061">
        <ele>818.20001220703</ele>
        <time>2021-09-01T14:45:31Z</time>
      </trkpt>
      <trkpt lat="44.51485" lon="6.29059">
        <ele>818.20001220703</ele>
        <time>2021-09-01T14:45:32Z</time>
      </trkpt>
      <trkpt lat="44.51475" lon="6.29042">
        <ele>819.20001220703</ele>
        <time>2021-09-01T14:45:39Z</time>
      </trkpt>
      <trkpt lat="44.51473" lon="6.2904">
        <ele>819.40002441406</ele>
        <time>2021-09-01T14:45:40Z</time>
      </trkpt>
      <trkpt lat="44.51461" lon="6.29017">
        <ele>820.40002441406</ele>
        <time>2021-09-01T14:45:49Z</time>
      </trkpt>
      <trkpt lat="44.5146" lon="6.29015">
        <ele>820.40002441406</ele>
        <time>2021-09-01T14:45:50Z</time>
      </trkpt>
      <trkpt lat="44.51453" lon="6.29001">
        <ele>821.40002441406</ele>
        <time>2021-09-01T14:45:55Z</time>
      </trkpt>
      <trkpt lat="44.51449" lon="6.28989">
        <ele>821.79998779297</ele>
        <time>2021-09-01T14:45:59Z</time>
      </trkpt>
      <trkpt lat="44.5144" lon="6.28963">
        <ele>822.40002441406</ele>
        <time>2021-09-01T14:46:08Z</time>
      </trkpt>
      <trkpt lat="44.51439" lon="6.28957">
        <ele>822.79998779297</ele>
        <time>2021-09-01T14:46:10Z</time>
      </trkpt>
      <trkpt lat="44.51431" lon="6.28933">
        <ele>823.59997558594</ele>
        <time>2021-09-01T14:46:18Z</time>
      </trkpt>
      <trkpt lat="44.5143" lon="6.28929">
        <ele>823.59997558594</ele>
        <time>2021-09-01T14:46:19Z</time>
      </trkpt>
      <trkpt lat="44.51423" lon="6.28901">
        <ele>824.59997558594</ele>
        <time>2021-09-01T14:46:28Z</time>
      </trkpt>
      <trkpt lat="44.51418" lon="6.28879">
        <ele>825.40002441406</ele>
        <time>2021-09-01T14:46:35Z</time>
      </trkpt>
      <trkpt lat="44.51417" lon="6.28872">
        <ele>825.79998779297</ele>
        <time>2021-09-01T14:46:37Z</time>
      </trkpt>
      <trkpt lat="44.51413" lon="6.28855">
        <ele>826.79998779297</ele>
        <time>2021-09-01T14:46:43Z</time>
      </trkpt>
      <trkpt lat="44.5141" lon="6.28832">
        <ele>827.59997558594</ele>
        <time>2021-09-01T14:46:50Z</time>
      </trkpt>
      <trkpt lat="44.51409" lon="6.28823">
        <ele>827.79998779297</ele>
        <time>2021-09-01T14:46:53Z</time>
      </trkpt>
      <trkpt lat="44.51406" lon="6.28814">
        <ele>828.20001220703</ele>
        <time>2021-09-01T14:46:56Z</time>
      </trkpt>
      <trkpt lat="44.51404" lon="6.28798">
        <ele>829</ele>
        <time>2021-09-01T14:47:01Z</time>
      </trkpt>
      <trkpt lat="44.51402" lon="6.28787">
        <ele>829.40002441406</ele>
        <time>2021-09-01T14:47:05Z</time>
      </trkpt>
      <trkpt lat="44.514" lon="6.28771">
        <ele>830</ele>
        <time>2021-09-01T14:47:10Z</time>
      </trkpt>
      <trkpt lat="44.51399" lon="6.28758">
        <ele>830.40002441406</ele>
        <time>2021-09-01T14:47:14Z</time>
      </trkpt>
      <trkpt lat="44.51399" lon="6.28746">
        <ele>831</ele>
        <time>2021-09-01T14:47:18Z</time>
      </trkpt>
      <trkpt lat="44.514" lon="6.28731">
        <ele>831.79998779297</ele>
        <time>2021-09-01T14:47:23Z</time>
      </trkpt>
      <trkpt lat="44.51401" lon="6.28729">
        <ele>832</ele>
        <time>2021-09-01T14:47:24Z</time>
      </trkpt>
      <trkpt lat="44.51405" lon="6.28705">
        <ele>833</ele>
        <time>2021-09-01T14:47:32Z</time>
      </trkpt>
      <trkpt lat="44.51405" lon="6.28702">
        <ele>833.20001220703</ele>
        <time>2021-09-01T14:47:33Z</time>
      </trkpt>
      <trkpt lat="44.5141" lon="6.28678">
        <ele>834.20001220703</ele>
        <time>2021-09-01T14:47:41Z</time>
      </trkpt>
      <trkpt lat="44.51413" lon="6.28657">
        <ele>835.20001220703</ele>
        <time>2021-09-01T14:47:48Z</time>
      </trkpt>
      <trkpt lat="44.51414" lon="6.28654">
        <ele>835.20001220703</ele>
        <time>2021-09-01T14:47:49Z</time>
      </trkpt>
      <trkpt lat="44.51418" lon="6.28632">
        <ele>836.20001220703</ele>
        <time>2021-09-01T14:47:56Z</time>
      </trkpt>
      <trkpt lat="44.51418" lon="6.28629">
        <ele>836.40002441406</ele>
        <time>2021-09-01T14:47:57Z</time>
      </trkpt>
      <trkpt lat="44.51422" lon="6.2861">
        <ele>837.20001220703</ele>
        <time>2021-09-01T14:48:03Z</time>
      </trkpt>
      <trkpt lat="44.51423" lon="6.28604">
        <ele>837.59997558594</ele>
        <time>2021-09-01T14:48:06Z</time>
      </trkpt>
      <trkpt lat="44.51423" lon="6.286">
        <ele>838.40002441406</ele>
        <time>2021-09-01T14:48:36Z</time>
      </trkpt>
      <trkpt lat="44.51424" lon="6.28597">
        <ele>838.40002441406</ele>
        <time>2021-09-01T14:48:37Z</time>
      </trkpt>
      <trkpt lat="44.51426" lon="6.28575">
        <ele>838.79998779297</ele>
        <time>2021-09-01T14:48:44Z</time>
      </trkpt>
      <trkpt lat="44.51427" lon="6.28557">
        <ele>839.40002441406</ele>
        <time>2021-09-01T14:48:49Z</time>
      </trkpt>
      <trkpt lat="44.51428" lon="6.28547">
        <ele>839.79998779297</ele>
        <time>2021-09-01T14:48:52Z</time>
      </trkpt>
      <trkpt lat="44.5143" lon="6.2853">
        <ele>840.40002441406</ele>
        <time>2021-09-01T14:48:57Z</time>
      </trkpt>
      <trkpt lat="44.51431" lon="6.28514">
        <ele>841</ele>
        <time>2021-09-01T14:49:02Z</time>
      </trkpt>
      <trkpt lat="44.51431" lon="6.28503">
        <ele>841.59997558594</ele>
        <time>2021-09-01T14:49:05Z</time>
      </trkpt>
      <trkpt lat="44.5143" lon="6.28491">
        <ele>842.20001220703</ele>
        <time>2021-09-01T14:49:09Z</time>
      </trkpt>
      <trkpt lat="44.5143" lon="6.28484">
        <ele>842.59997558594</ele>
        <time>2021-09-01T14:49:11Z</time>
      </trkpt>
      <trkpt lat="44.51427" lon="6.28457">
        <ele>843.40002441406</ele>
        <time>2021-09-01T14:49:19Z</time>
      </trkpt>
      <trkpt lat="44.51427" lon="6.28451">
        <ele>843.59997558594</ele>
        <time>2021-09-01T14:49:21Z</time>
      </trkpt>
      <trkpt lat="44.51427" lon="6.28431">
        <ele>844.59997558594</ele>
        <time>2021-09-01T14:49:28Z</time>
      </trkpt>
      <trkpt lat="44.51427" lon="6.28428">
        <ele>844.79998779297</ele>
        <time>2021-09-01T14:49:29Z</time>
      </trkpt>
      <trkpt lat="44.51424" lon="6.28403">
        <ele>845.20001220703</ele>
        <time>2021-09-01T14:49:37Z</time>
      </trkpt>
      <trkpt lat="44.51419" lon="6.28389">
        <ele>845.79998779297</ele>
        <time>2021-09-01T14:49:42Z</time>
      </trkpt>
      <trkpt lat="44.51415" lon="6.2838">
        <ele>846.59997558594</ele>
        <time>2021-09-01T14:49:45Z</time>
      </trkpt>
      <trkpt lat="44.51413" lon="6.28374">
        <ele>847</ele>
        <time>2021-09-01T14:49:47Z</time>
      </trkpt>
      <trkpt lat="44.51406" lon="6.28359">
        <ele>847.59997558594</ele>
        <time>2021-09-01T14:49:53Z</time>
      </trkpt>
      <trkpt lat="44.51403" lon="6.2835">
        <ele>848</ele>
        <time>2021-09-01T14:49:56Z</time>
      </trkpt>
      <trkpt lat="44.51398" lon="6.28339">
        <ele>848.40002441406</ele>
        <time>2021-09-01T14:50:00Z</time>
      </trkpt>
      <trkpt lat="44.51394" lon="6.28328">
        <ele>849.20001220703</ele>
        <time>2021-09-01T14:50:04Z</time>
      </trkpt>
      <trkpt lat="44.51391" lon="6.2832">
        <ele>849.59997558594</ele>
        <time>2021-09-01T14:50:07Z</time>
      </trkpt>
      <trkpt lat="44.51388" lon="6.28311">
        <ele>850.20001220703</ele>
        <time>2021-09-01T14:50:10Z</time>
      </trkpt>
      <trkpt lat="44.51381" lon="6.28294">
        <ele>850.79998779297</ele>
        <time>2021-09-01T14:50:16Z</time>
      </trkpt>
      <trkpt lat="44.51377" lon="6.28285">
        <ele>851.20001220703</ele>
        <time>2021-09-01T14:50:19Z</time>
      </trkpt>
      <trkpt lat="44.51372" lon="6.2827">
        <ele>852</ele>
        <time>2021-09-01T14:50:24Z</time>
      </trkpt>
      <trkpt lat="44.51369" lon="6.28262">
        <ele>852.20001220703</ele>
        <time>2021-09-01T14:50:27Z</time>
      </trkpt>
      <trkpt lat="44.51358" lon="6.28242">
        <ele>853</ele>
        <time>2021-09-01T14:50:34Z</time>
      </trkpt>
      <trkpt lat="44.51356" lon="6.28236">
        <ele>853.20001220703</ele>
        <time>2021-09-01T14:50:36Z</time>
      </trkpt>
      <trkpt lat="44.51352" lon="6.28217">
        <ele>854.40002441406</ele>
        <time>2021-09-01T14:50:43Z</time>
      </trkpt>
      <trkpt lat="44.51346" lon="6.28201">
        <ele>855.40002441406</ele>
        <time>2021-09-01T14:50:49Z</time>
      </trkpt>
      <trkpt lat="44.51345" lon="6.28198">
        <ele>855.59997558594</ele>
        <time>2021-09-01T14:50:50Z</time>
      </trkpt>
      <trkpt lat="44.51331" lon="6.28178">
        <ele>856.40002441406</ele>
        <time>2021-09-01T14:50:58Z</time>
      </trkpt>
      <trkpt lat="44.51328" lon="6.28176">
        <ele>856.59997558594</ele>
        <time>2021-09-01T14:50:59Z</time>
      </trkpt>
      <trkpt lat="44.51313" lon="6.28167">
        <ele>857</ele>
        <time>2021-09-01T14:51:05Z</time>
      </trkpt>
      <trkpt lat="44.51297" lon="6.28164">
        <ele>857.59997558594</ele>
        <time>2021-09-01T14:51:11Z</time>
      </trkpt>
      <trkpt lat="44.51294" lon="6.28164">
        <ele>857.79998779297</ele>
        <time>2021-09-01T14:51:12Z</time>
      </trkpt>
      <trkpt lat="44.51276" lon="6.28176">
        <ele>858.20001220703</ele>
        <time>2021-09-01T14:51:19Z</time>
      </trkpt>
      <trkpt lat="44.51264" lon="6.28192">
        <ele>858.59997558594</ele>
        <time>2021-09-01T14:51:25Z</time>
      </trkpt>
      <trkpt lat="44.51261" lon="6.28198">
        <ele>858.79998779297</ele>
        <time>2021-09-01T14:51:27Z</time>
      </trkpt>
      <trkpt lat="44.51256" lon="6.28216">
        <ele>859.40002441406</ele>
        <time>2021-09-01T14:51:32Z</time>
      </trkpt>
      <trkpt lat="44.51253" lon="6.28227">
        <ele>859.59997558594</ele>
        <time>2021-09-01T14:51:35Z</time>
      </trkpt>
      <trkpt lat="44.51254" lon="6.28242">
        <ele>860</ele>
        <time>2021-09-01T14:51:39Z</time>
      </trkpt>
      <trkpt lat="44.51257" lon="6.28262">
        <ele>860.40002441406</ele>
        <time>2021-09-01T14:51:45Z</time>
      </trkpt>
      <trkpt lat="44.51258" lon="6.28268">
        <ele>860.79998779297</ele>
        <time>2021-09-01T14:51:47Z</time>
      </trkpt>
      <trkpt lat="44.5126" lon="6.28286">
        <ele>861.79998779297</ele>
        <time>2021-09-01T14:51:53Z</time>
      </trkpt>
      <trkpt lat="44.51261" lon="6.28289">
        <ele>862</ele>
        <time>2021-09-01T14:51:54Z</time>
      </trkpt>
      <trkpt lat="44.51262" lon="6.28305">
        <ele>863.20001220703</ele>
        <time>2021-09-01T14:52:00Z</time>
      </trkpt>
      <trkpt lat="44.51263" lon="6.28309">
        <ele>863.59997558594</ele>
        <time>2021-09-01T14:52:02Z</time>
      </trkpt>
      <trkpt lat="44.51265" lon="6.28321">
        <ele>864.20001220703</ele>
        <time>2021-09-01T14:52:07Z</time>
      </trkpt>
      <trkpt lat="44.51266" lon="6.28334">
        <ele>865</ele>
        <time>2021-09-01T14:52:12Z</time>
      </trkpt>
      <trkpt lat="44.51266" lon="6.28336">
        <ele>865.20001220703</ele>
        <time>2021-09-01T14:52:13Z</time>
      </trkpt>
      <trkpt lat="44.51264" lon="6.28356">
        <ele>866.20001220703</ele>
        <time>2021-09-01T14:52:21Z</time>
      </trkpt>
      <trkpt lat="44.51263" lon="6.28361">
        <ele>866.40002441406</ele>
        <time>2021-09-01T14:52:23Z</time>
      </trkpt>
      <trkpt lat="44.5126" lon="6.28372">
        <ele>867</ele>
        <time>2021-09-01T14:52:28Z</time>
      </trkpt>
      <trkpt lat="44.51259" lon="6.28376">
        <ele>867.40002441406</ele>
        <time>2021-09-01T14:52:30Z</time>
      </trkpt>
      <trkpt lat="44.51254" lon="6.28387">
        <ele>868.20001220703</ele>
        <time>2021-09-01T14:52:35Z</time>
      </trkpt>
      <trkpt lat="44.51253" lon="6.28392">
        <ele>868.59997558594</ele>
        <time>2021-09-01T14:52:37Z</time>
      </trkpt>
      <trkpt lat="44.51248" lon="6.28404">
        <ele>869.59997558594</ele>
        <time>2021-09-01T14:52:43Z</time>
      </trkpt>
      <trkpt lat="44.51247" lon="6.28407">
        <ele>869.59997558594</ele>
        <time>2021-09-01T14:52:44Z</time>
      </trkpt>
      <trkpt lat="44.5124" lon="6.28421">
        <ele>870.40002441406</ele>
        <time>2021-09-01T14:52:51Z</time>
      </trkpt>
      <trkpt lat="44.51237" lon="6.28428">
        <ele>870.59997558594</ele>
        <time>2021-09-01T14:52:54Z</time>
      </trkpt>
      <trkpt lat="44.51232" lon="6.28439">
        <ele>871.40002441406</ele>
        <time>2021-09-01T14:53:00Z</time>
      </trkpt>
      <trkpt lat="44.5123" lon="6.28444">
        <ele>871.59997558594</ele>
        <time>2021-09-01T14:53:02Z</time>
      </trkpt>
      <trkpt lat="44.51225" lon="6.28455">
        <ele>872.59997558594</ele>
        <time>2021-09-01T14:53:08Z</time>
      </trkpt>
      <trkpt lat="44.51224" lon="6.28457">
        <ele>872.79998779297</ele>
        <time>2021-09-01T14:53:09Z</time>
      </trkpt>
      <trkpt lat="44.51221" lon="6.28467">
        <ele>873.59997558594</ele>
        <time>2021-09-01T14:53:14Z</time>
      </trkpt>
      <trkpt lat="44.51221" lon="6.28469">
        <ele>873.79998779297</ele>
        <time>2021-09-01T14:53:15Z</time>
      </trkpt>
      <trkpt lat="44.51218" lon="6.28482">
        <ele>874.79998779297</ele>
        <time>2021-09-01T14:53:21Z</time>
      </trkpt>
      <trkpt lat="44.51218" lon="6.28484">
        <ele>875</ele>
        <time>2021-09-01T14:53:22Z</time>
      </trkpt>
      <trkpt lat="44.51217" lon="6.28495">
        <ele>875.79998779297</ele>
        <time>2021-09-01T14:53:27Z</time>
      </trkpt>
      <trkpt lat="44.51216" lon="6.28502">
        <ele>876.40002441406</ele>
        <time>2021-09-01T14:53:30Z</time>
      </trkpt>
      <trkpt lat="44.51215" lon="6.28508">
        <ele>877</ele>
        <time>2021-09-01T14:53:33Z</time>
      </trkpt>
      <trkpt lat="44.51212" lon="6.28527">
        <ele>877.79998779297</ele>
        <time>2021-09-01T14:53:41Z</time>
      </trkpt>
      <trkpt lat="44.51211" lon="6.28533">
        <ele>878</ele>
        <time>2021-09-01T14:53:44Z</time>
      </trkpt>
      <trkpt lat="44.51211" lon="6.28544">
        <ele>878.79998779297</ele>
        <time>2021-09-01T14:53:49Z</time>
      </trkpt>
      <trkpt lat="44.5121" lon="6.28549">
        <ele>879</ele>
        <time>2021-09-01T14:53:51Z</time>
      </trkpt>
      <trkpt lat="44.51208" lon="6.28563">
        <ele>880</ele>
        <time>2021-09-01T14:53:57Z</time>
      </trkpt>
      <trkpt lat="44.51207" lon="6.28565">
        <ele>880</ele>
        <time>2021-09-01T14:53:58Z</time>
      </trkpt>
      <trkpt lat="44.51204" lon="6.2858">
        <ele>880.79998779297</ele>
        <time>2021-09-01T14:54:04Z</time>
      </trkpt>
      <trkpt lat="44.51203" lon="6.28584">
        <ele>881</ele>
        <time>2021-09-01T14:54:06Z</time>
      </trkpt>
      <trkpt lat="44.51203" lon="6.28597">
        <ele>882.20001220703</ele>
        <time>2021-09-01T14:54:12Z</time>
      </trkpt>
      <trkpt lat="44.51199" lon="6.28613">
        <ele>883.20001220703</ele>
        <time>2021-09-01T14:54:19Z</time>
      </trkpt>
      <trkpt lat="44.51198" lon="6.28615">
        <ele>883.40002441406</ele>
        <time>2021-09-01T14:54:20Z</time>
      </trkpt>
      <trkpt lat="44.51198" lon="6.28627">
        <ele>884.40002441406</ele>
        <time>2021-09-01T14:54:25Z</time>
      </trkpt>
      <trkpt lat="44.51196" lon="6.28629">
        <ele>884.59997558594</ele>
        <time>2021-09-01T14:54:26Z</time>
      </trkpt>
      <trkpt lat="44.51195" lon="6.28638">
        <ele>885.20001220703</ele>
        <time>2021-09-01T14:54:30Z</time>
      </trkpt>
      <trkpt lat="44.51194" lon="6.28643">
        <ele>885.40002441406</ele>
        <time>2021-09-01T14:54:32Z</time>
      </trkpt>
      <trkpt lat="44.51193" lon="6.28645">
        <ele>885.59997558594</ele>
        <time>2021-09-01T14:54:33Z</time>
      </trkpt>
      <trkpt lat="44.51188" lon="6.28655">
        <ele>886.40002441406</ele>
        <time>2021-09-01T14:54:38Z</time>
      </trkpt>
      <trkpt lat="44.51185" lon="6.28659">
        <ele>886.79998779297</ele>
        <time>2021-09-01T14:54:40Z</time>
      </trkpt>
      <trkpt lat="44.51176" lon="6.28673">
        <ele>887.59997558594</ele>
        <time>2021-09-01T14:54:47Z</time>
      </trkpt>
      <trkpt lat="44.51175" lon="6.28674">
        <ele>887.59997558594</ele>
        <time>2021-09-01T14:54:48Z</time>
      </trkpt>
      <trkpt lat="44.51162" lon="6.28684">
        <ele>888.59997558594</ele>
        <time>2021-09-01T14:54:56Z</time>
      </trkpt>
      <trkpt lat="44.51148" lon="6.28689">
        <ele>889.20001220703</ele>
        <time>2021-09-01T14:55:04Z</time>
      </trkpt>
      <trkpt lat="44.51142" lon="6.28689">
        <ele>889.79998779297</ele>
        <time>2021-09-01T14:55:07Z</time>
      </trkpt>
      <trkpt lat="44.51132" lon="6.28689">
        <ele>890.20001220703</ele>
        <time>2021-09-01T14:55:12Z</time>
      </trkpt>
      <trkpt lat="44.51125" lon="6.28691">
        <ele>890.59997558594</ele>
        <time>2021-09-01T14:55:16Z</time>
      </trkpt>
      <trkpt lat="44.51121" lon="6.28693">
        <ele>890.79998779297</ele>
        <time>2021-09-01T14:55:18Z</time>
      </trkpt>
      <trkpt lat="44.51119" lon="6.28693">
        <ele>890.79998779297</ele>
        <time>2021-09-01T14:55:19Z</time>
      </trkpt>
      <trkpt lat="44.51107" lon="6.28699">
        <ele>891.59997558594</ele>
        <time>2021-09-01T14:55:26Z</time>
      </trkpt>
      <trkpt lat="44.51103" lon="6.28703">
        <ele>891.79998779297</ele>
        <time>2021-09-01T14:55:29Z</time>
      </trkpt>
      <trkpt lat="44.51098" lon="6.28709">
        <ele>892.20001220703</ele>
        <time>2021-09-01T14:55:32Z</time>
      </trkpt>
      <trkpt lat="44.51088" lon="6.28723">
        <ele>893</ele>
        <time>2021-09-01T14:55:39Z</time>
      </trkpt>
      <trkpt lat="44.51087" lon="6.28725">
        <ele>893</ele>
        <time>2021-09-01T14:55:40Z</time>
      </trkpt>
      <trkpt lat="44.51081" lon="6.28737">
        <ele>894</ele>
        <time>2021-09-01T14:55:47Z</time>
      </trkpt>
      <trkpt lat="44.5108" lon="6.28739">
        <ele>894.20001220703</ele>
        <time>2021-09-01T14:55:48Z</time>
      </trkpt>
      <trkpt lat="44.51076" lon="6.28751">
        <ele>895</ele>
        <time>2021-09-01T14:55:54Z</time>
      </trkpt>
      <trkpt lat="44.51073" lon="6.28764">
        <ele>896.20001220703</ele>
        <time>2021-09-01T14:56:00Z</time>
      </trkpt>
      <trkpt lat="44.51072" lon="6.28768">
        <ele>896.40002441406</ele>
        <time>2021-09-01T14:56:02Z</time>
      </trkpt>
      <trkpt lat="44.5107" lon="6.28783">
        <ele>897.20001220703</ele>
        <time>2021-09-01T14:56:08Z</time>
      </trkpt>
      <trkpt lat="44.5107" lon="6.28789">
        <ele>897.40002441406</ele>
        <time>2021-09-01T14:56:11Z</time>
      </trkpt>
      <trkpt lat="44.51071" lon="6.28809">
        <ele>898.40002441406</ele>
        <time>2021-09-01T14:56:19Z</time>
      </trkpt>
      <trkpt lat="44.51075" lon="6.28826">
        <ele>899.40002441406</ele>
        <time>2021-09-01T14:56:27Z</time>
      </trkpt>
      <trkpt lat="44.51075" lon="6.28829">
        <ele>899.40002441406</ele>
        <time>2021-09-01T14:56:28Z</time>
      </trkpt>
      <trkpt lat="44.51078" lon="6.28842">
        <ele>900</ele>
        <time>2021-09-01T14:56:34Z</time>
      </trkpt>
      <trkpt lat="44.5108" lon="6.2885">
        <ele>900.59997558594</ele>
        <time>2021-09-01T14:56:38Z</time>
      </trkpt>
      <trkpt lat="44.51082" lon="6.28859">
        <ele>901</ele>
        <time>2021-09-01T14:56:42Z</time>
      </trkpt>
      <trkpt lat="44.51084" lon="6.28864">
        <ele>901.59997558594</ele>
        <time>2021-09-01T14:56:44Z</time>
      </trkpt>
      <trkpt lat="44.51085" lon="6.28879">
        <ele>902.40002441406</ele>
        <time>2021-09-01T14:56:51Z</time>
      </trkpt>
      <trkpt lat="44.51086" lon="6.28884">
        <ele>902.59997558594</ele>
        <time>2021-09-01T14:56:53Z</time>
      </trkpt>
      <trkpt lat="44.51088" lon="6.28892">
        <ele>903</ele>
        <time>2021-09-01T14:56:57Z</time>
      </trkpt>
      <trkpt lat="44.51087" lon="6.28894">
        <ele>903.20001220703</ele>
        <time>2021-09-01T14:56:58Z</time>
      </trkpt>
      <trkpt lat="44.51089" lon="6.28901">
        <ele>903.59997558594</ele>
        <time>2021-09-01T14:57:01Z</time>
      </trkpt>
      <trkpt lat="44.5109" lon="6.28909">
        <ele>904.20001220703</ele>
        <time>2021-09-01T14:57:05Z</time>
      </trkpt>
      <trkpt lat="44.5109" lon="6.28916">
        <ele>904.79998779297</ele>
        <time>2021-09-01T14:57:08Z</time>
      </trkpt>
      <trkpt lat="44.51093" lon="6.2893">
        <ele>905.79998779297</ele>
        <time>2021-09-01T14:57:15Z</time>
      </trkpt>
      <trkpt lat="44.51094" lon="6.28948">
        <ele>906.79998779297</ele>
        <time>2021-09-01T14:57:23Z</time>
      </trkpt>
      <trkpt lat="44.51093" lon="6.28965">
        <ele>908</ele>
        <time>2021-09-01T14:57:31Z</time>
      </trkpt>
      <trkpt lat="44.51093" lon="6.28968">
        <ele>908.20001220703</ele>
        <time>2021-09-01T14:57:32Z</time>
      </trkpt>
      <trkpt lat="44.51091" lon="6.28984">
        <ele>909.20001220703</ele>
        <time>2021-09-01T14:57:39Z</time>
      </trkpt>
      <trkpt lat="44.51091" lon="6.28989">
        <ele>909.40002441406</ele>
        <time>2021-09-01T14:57:41Z</time>
      </trkpt>
      <trkpt lat="44.51088" lon="6.29">
        <ele>910.20001220703</ele>
        <time>2021-09-01T14:57:46Z</time>
      </trkpt>
      <trkpt lat="44.51087" lon="6.2901">
        <ele>910.79998779297</ele>
        <time>2021-09-01T14:57:50Z</time>
      </trkpt>
      <trkpt lat="44.51085" lon="6.29016">
        <ele>911.20001220703</ele>
        <time>2021-09-01T14:57:53Z</time>
      </trkpt>
      <trkpt lat="44.5108" lon="6.29029">
        <ele>912.20001220703</ele>
        <time>2021-09-01T14:57:59Z</time>
      </trkpt>
      <trkpt lat="44.51075" lon="6.29041">
        <ele>913.20001220703</ele>
        <time>2021-09-01T14:58:05Z</time>
      </trkpt>
      <trkpt lat="44.51073" lon="6.29045">
        <ele>913.40002441406</ele>
        <time>2021-09-01T14:58:07Z</time>
      </trkpt>
      <trkpt lat="44.51066" lon="6.2906">
        <ele>914.40002441406</ele>
        <time>2021-09-01T14:58:15Z</time>
      </trkpt>
      <trkpt lat="44.51058" lon="6.29072">
        <ele>915.59997558594</ele>
        <time>2021-09-01T14:58:22Z</time>
      </trkpt>
      <trkpt lat="44.51053" lon="6.29082">
        <ele>916.40002441406</ele>
        <time>2021-09-01T14:58:28Z</time>
      </trkpt>
      <trkpt lat="44.51051" lon="6.29084">
        <ele>916.59997558594</ele>
        <time>2021-09-01T14:58:30Z</time>
      </trkpt>
      <trkpt lat="44.51048" lon="6.2909">
        <ele>917.20001220703</ele>
        <time>2021-09-01T14:58:34Z</time>
      </trkpt>
      <trkpt lat="44.51044" lon="6.29096">
        <ele>917.59997558594</ele>
        <time>2021-09-01T14:58:39Z</time>
      </trkpt>
      <trkpt lat="44.5104" lon="6.29101">
        <ele>918.20001220703</ele>
        <time>2021-09-01T14:58:43Z</time>
      </trkpt>
      <trkpt lat="44.51036" lon="6.29106">
        <ele>918.59997558594</ele>
        <time>2021-09-01T14:58:46Z</time>
      </trkpt>
      <trkpt lat="44.5103" lon="6.2911">
        <ele>919</ele>
        <time>2021-09-01T14:58:50Z</time>
      </trkpt>
      <trkpt lat="44.51021" lon="6.29116">
        <ele>919.79998779297</ele>
        <time>2021-09-01T14:58:56Z</time>
      </trkpt>
      <trkpt lat="44.51017" lon="6.29119">
        <ele>920</ele>
        <time>2021-09-01T14:58:58Z</time>
      </trkpt>
      <trkpt lat="44.51003" lon="6.29128">
        <ele>920.79998779297</ele>
        <time>2021-09-01T14:59:06Z</time>
      </trkpt>
      <trkpt lat="44.51" lon="6.2913">
        <ele>921.20001220703</ele>
        <time>2021-09-01T14:59:08Z</time>
      </trkpt>
      <trkpt lat="44.50991" lon="6.29135">
        <ele>922</ele>
        <time>2021-09-01T14:59:13Z</time>
      </trkpt>
      <trkpt lat="44.5099" lon="6.29136">
        <ele>922.20001220703</ele>
        <time>2021-09-01T14:59:14Z</time>
      </trkpt>
      <trkpt lat="44.50981" lon="6.2914">
        <ele>923</ele>
        <time>2021-09-01T14:59:20Z</time>
      </trkpt>
      <trkpt lat="44.5098" lon="6.29142">
        <ele>923.20001220703</ele>
        <time>2021-09-01T14:59:21Z</time>
      </trkpt>
      <trkpt lat="44.5097" lon="6.29146">
        <ele>924</ele>
        <time>2021-09-01T14:59:27Z</time>
      </trkpt>
      <trkpt lat="44.50966" lon="6.29148">
        <ele>924.40002441406</ele>
        <time>2021-09-01T14:59:30Z</time>
      </trkpt>
      <trkpt lat="44.50957" lon="6.29153">
        <ele>925</ele>
        <time>2021-09-01T14:59:35Z</time>
      </trkpt>
      <trkpt lat="44.50952" lon="6.29155">
        <ele>925.40002441406</ele>
        <time>2021-09-01T14:59:38Z</time>
      </trkpt>
      <trkpt lat="44.50944" lon="6.2916">
        <ele>926</ele>
        <time>2021-09-01T14:59:43Z</time>
      </trkpt>
      <trkpt lat="44.50941" lon="6.29161">
        <ele>926.40002441406</ele>
        <time>2021-09-01T14:59:45Z</time>
      </trkpt>
      <trkpt lat="44.50932" lon="6.29165">
        <ele>927.20001220703</ele>
        <time>2021-09-01T14:59:50Z</time>
      </trkpt>
      <trkpt lat="44.50923" lon="6.2917">
        <ele>928</ele>
        <time>2021-09-01T14:59:56Z</time>
      </trkpt>
      <trkpt lat="44.50922" lon="6.2917">
        <ele>928.20001220703</ele>
        <time>2021-09-01T14:59:57Z</time>
      </trkpt>
      <trkpt lat="44.50913" lon="6.29177">
        <ele>929</ele>
        <time>2021-09-01T15:00:03Z</time>
      </trkpt>
      <trkpt lat="44.5091" lon="6.29178">
        <ele>929.20001220703</ele>
        <time>2021-09-01T15:00:05Z</time>
      </trkpt>
      <trkpt lat="44.50901" lon="6.29184">
        <ele>930</ele>
        <time>2021-09-01T15:00:11Z</time>
      </trkpt>
      <trkpt lat="44.50899" lon="6.29187">
        <ele>930.20001220703</ele>
        <time>2021-09-01T15:00:13Z</time>
      </trkpt>
      <trkpt lat="44.50904" lon="6.29187">
        <ele>930.59997558594</ele>
        <time>2021-09-01T15:01:07Z</time>
      </trkpt>
      <trkpt lat="44.509" lon="6.29182">
        <ele>930.59997558594</ele>
        <time>2021-09-01T15:01:10Z</time>
      </trkpt>
      <trkpt lat="44.50893" lon="6.29188">
        <ele>930.79998779297</ele>
        <time>2021-09-01T15:01:14Z</time>
      </trkpt>
      <trkpt lat="44.50888" lon="6.29192">
        <ele>931.40002441406</ele>
        <time>2021-09-01T15:01:17Z</time>
      </trkpt>
      <trkpt lat="44.50881" lon="6.29194">
        <ele>932</ele>
        <time>2021-09-01T15:01:21Z</time>
      </trkpt>
      <trkpt lat="44.50874" lon="6.29198">
        <ele>932.40002441406</ele>
        <time>2021-09-01T15:01:25Z</time>
      </trkpt>
      <trkpt lat="44.50868" lon="6.29203">
        <ele>933</ele>
        <time>2021-09-01T15:01:29Z</time>
      </trkpt>
      <trkpt lat="44.50865" lon="6.29205">
        <ele>933.40002441406</ele>
        <time>2021-09-01T15:01:31Z</time>
      </trkpt>
      <trkpt lat="44.50854" lon="6.29208">
        <ele>934.59997558594</ele>
        <time>2021-09-01T15:01:38Z</time>
      </trkpt>
      <trkpt lat="44.5084" lon="6.29215">
        <ele>935.59997558594</ele>
        <time>2021-09-01T15:01:47Z</time>
      </trkpt>
      <trkpt lat="44.50838" lon="6.29216">
        <ele>935.59997558594</ele>
        <time>2021-09-01T15:01:48Z</time>
      </trkpt>
      <trkpt lat="44.50828" lon="6.29221">
        <ele>936.79998779297</ele>
        <time>2021-09-01T15:01:55Z</time>
      </trkpt>
      <trkpt lat="44.50814" lon="6.29228">
        <ele>938</ele>
        <time>2021-09-01T15:02:04Z</time>
      </trkpt>
      <trkpt lat="44.50803" lon="6.29235">
        <ele>939</ele>
        <time>2021-09-01T15:02:12Z</time>
      </trkpt>
      <trkpt lat="44.50792" lon="6.29239">
        <ele>940</ele>
        <time>2021-09-01T15:02:19Z</time>
      </trkpt>
      <trkpt lat="44.50791" lon="6.2924">
        <ele>940.20001220703</ele>
        <time>2021-09-01T15:02:20Z</time>
      </trkpt>
      <trkpt lat="44.50782" lon="6.29246">
        <ele>941</ele>
        <time>2021-09-01T15:02:27Z</time>
      </trkpt>
      <trkpt lat="44.50771" lon="6.29252">
        <ele>942</ele>
        <time>2021-09-01T15:02:33Z</time>
      </trkpt>
      <trkpt lat="44.5077" lon="6.29253">
        <ele>942.20001220703</ele>
        <time>2021-09-01T15:02:34Z</time>
      </trkpt>
      <trkpt lat="44.50768" lon="6.29254">
        <ele>942.20001220703</ele>
        <time>2021-09-01T15:02:35Z</time>
      </trkpt>
      <trkpt lat="44.50758" lon="6.2926">
        <ele>943</ele>
        <time>2021-09-01T15:02:42Z</time>
      </trkpt>
      <trkpt lat="44.50757" lon="6.29262">
        <ele>943.20001220703</ele>
        <time>2021-09-01T15:02:43Z</time>
      </trkpt>
      <trkpt lat="44.50749" lon="6.29267">
        <ele>944</ele>
        <time>2021-09-01T15:02:48Z</time>
      </trkpt>
      <trkpt lat="44.50745" lon="6.29268">
        <ele>944.40002441406</ele>
        <time>2021-09-01T15:02:50Z</time>
      </trkpt>
      <trkpt lat="44.50737" lon="6.29276">
        <ele>945.40002441406</ele>
        <time>2021-09-01T15:02:57Z</time>
      </trkpt>
      <trkpt lat="44.50725" lon="6.29285">
        <ele>946.59997558594</ele>
        <time>2021-09-01T15:03:05Z</time>
      </trkpt>
      <trkpt lat="44.50715" lon="6.29294">
        <ele>947.59997558594</ele>
        <time>2021-09-01T15:03:11Z</time>
      </trkpt>
      <trkpt lat="44.50702" lon="6.29307">
        <ele>948.59997558594</ele>
        <time>2021-09-01T15:03:19Z</time>
      </trkpt>
      <trkpt lat="44.50701" lon="6.29308">
        <ele>948.59997558594</ele>
        <time>2021-09-01T15:03:20Z</time>
      </trkpt>
      <trkpt lat="44.50691" lon="6.29318">
        <ele>949.79998779297</ele>
        <time>2021-09-01T15:03:27Z</time>
      </trkpt>
      <trkpt lat="44.50689" lon="6.29319">
        <ele>949.79998779297</ele>
        <time>2021-09-01T15:03:28Z</time>
      </trkpt>
      <trkpt lat="44.5068" lon="6.29327">
        <ele>950.79998779297</ele>
        <time>2021-09-01T15:03:34Z</time>
      </trkpt>
      <trkpt lat="44.50669" lon="6.29338">
        <ele>951.79998779297</ele>
        <time>2021-09-01T15:03:42Z</time>
      </trkpt>
      <trkpt lat="44.50667" lon="6.29339">
        <ele>951.79998779297</ele>
        <time>2021-09-01T15:03:43Z</time>
      </trkpt>
      <trkpt lat="44.50656" lon="6.29348">
        <ele>953</ele>
        <time>2021-09-01T15:03:50Z</time>
      </trkpt>
      <trkpt lat="44.5065" lon="6.29356">
        <ele>954</ele>
        <time>2021-09-01T15:03:56Z</time>
      </trkpt>
      <trkpt lat="44.50648" lon="6.29357">
        <ele>954.20001220703</ele>
        <time>2021-09-01T15:03:57Z</time>
      </trkpt>
      <trkpt lat="44.50637" lon="6.29366">
        <ele>955</ele>
        <time>2021-09-01T15:04:04Z</time>
      </trkpt>
      <trkpt lat="44.50636" lon="6.29368">
        <ele>955.20001220703</ele>
        <time>2021-09-01T15:04:05Z</time>
      </trkpt>
      <trkpt lat="44.50631" lon="6.29374">
        <ele>956.20001220703</ele>
        <time>2021-09-01T15:04:10Z</time>
      </trkpt>
      <trkpt lat="44.50626" lon="6.2938">
        <ele>956.59997558594</ele>
        <time>2021-09-01T15:04:13Z</time>
      </trkpt>
      <trkpt lat="44.50618" lon="6.29387">
        <ele>957.20001220703</ele>
        <time>2021-09-01T15:04:18Z</time>
      </trkpt>
      <trkpt lat="44.50613" lon="6.29392">
        <ele>957.79998779297</ele>
        <time>2021-09-01T15:04:21Z</time>
      </trkpt>
      <trkpt lat="44.50608" lon="6.29396">
        <ele>958.20001220703</ele>
        <time>2021-09-01T15:04:24Z</time>
      </trkpt>
      <trkpt lat="44.50602" lon="6.29402">
        <ele>958.79998779297</ele>
        <time>2021-09-01T15:04:28Z</time>
      </trkpt>
      <trkpt lat="44.50594" lon="6.29409">
        <ele>959.20001220703</ele>
        <time>2021-09-01T15:04:33Z</time>
      </trkpt>
      <trkpt lat="44.5059" lon="6.29413">
        <ele>959.59997558594</ele>
        <time>2021-09-01T15:04:36Z</time>
      </trkpt>
      <trkpt lat="44.50581" lon="6.29421">
        <ele>960.40002441406</ele>
        <time>2021-09-01T15:04:42Z</time>
      </trkpt>
      <trkpt lat="44.50576" lon="6.29425">
        <ele>960.79998779297</ele>
        <time>2021-09-01T15:04:45Z</time>
      </trkpt>
      <trkpt lat="44.50568" lon="6.29432">
        <ele>961.40002441406</ele>
        <time>2021-09-01T15:04:50Z</time>
      </trkpt>
      <trkpt lat="44.50563" lon="6.29437">
        <ele>961.79998779297</ele>
        <time>2021-09-01T15:04:53Z</time>
      </trkpt>
      <trkpt lat="44.50554" lon="6.29446">
        <ele>962.20001220703</ele>
        <time>2021-09-01T15:04:59Z</time>
      </trkpt>
      <trkpt lat="44.50551" lon="6.29448">
        <ele>962.40002441406</ele>
        <time>2021-09-01T15:05:01Z</time>
      </trkpt>
      <trkpt lat="44.50543" lon="6.29455">
        <ele>963</ele>
        <time>2021-09-01T15:05:06Z</time>
      </trkpt>
      <trkpt lat="44.50538" lon="6.29459">
        <ele>963.40002441406</ele>
        <time>2021-09-01T15:05:09Z</time>
      </trkpt>
      <trkpt lat="44.50527" lon="6.29465">
        <ele>964.20001220703</ele>
        <time>2021-09-01T15:05:15Z</time>
      </trkpt>
      <trkpt lat="44.50524" lon="6.29467">
        <ele>964.59997558594</ele>
        <time>2021-09-01T15:05:17Z</time>
      </trkpt>
      <trkpt lat="44.50512" lon="6.29472">
        <ele>965.40002441406</ele>
        <time>2021-09-01T15:05:23Z</time>
      </trkpt>
      <trkpt lat="44.50508" lon="6.29472">
        <ele>965.59997558594</ele>
        <time>2021-09-01T15:05:25Z</time>
      </trkpt>
      <trkpt lat="44.50497" lon="6.29468">
        <ele>966.40002441406</ele>
        <time>2021-09-01T15:05:31Z</time>
      </trkpt>
      <trkpt lat="44.50489" lon="6.29463">
        <ele>966.79998779297</ele>
        <time>2021-09-01T15:05:35Z</time>
      </trkpt>
      <trkpt lat="44.50482" lon="6.29456">
        <ele>967</ele>
        <time>2021-09-01T15:05:39Z</time>
      </trkpt>
      <trkpt lat="44.50475" lon="6.29443">
        <ele>967.79998779297</ele>
        <time>2021-09-01T15:05:45Z</time>
      </trkpt>
      <trkpt lat="44.50473" lon="6.29438">
        <ele>968</ele>
        <time>2021-09-01T15:05:47Z</time>
      </trkpt>
      <trkpt lat="44.50469" lon="6.29418">
        <ele>968.59997558594</ele>
        <time>2021-09-01T15:05:54Z</time>
      </trkpt>
      <trkpt lat="44.50469" lon="6.29415">
        <ele>968.79998779297</ele>
        <time>2021-09-01T15:05:55Z</time>
      </trkpt>
      <trkpt lat="44.50471" lon="6.29393">
        <ele>969.40002441406</ele>
        <time>2021-09-01T15:06:02Z</time>
      </trkpt>
      <trkpt lat="44.50478" lon="6.29376">
        <ele>970</ele>
        <time>2021-09-01T15:06:08Z</time>
      </trkpt>
      <trkpt lat="44.50481" lon="6.29371">
        <ele>970.20001220703</ele>
        <time>2021-09-01T15:06:10Z</time>
      </trkpt>
      <trkpt lat="44.50494" lon="6.29358">
        <ele>971</ele>
        <time>2021-09-01T15:06:17Z</time>
      </trkpt>
      <trkpt lat="44.50508" lon="6.29351">
        <ele>972</ele>
        <time>2021-09-01T15:06:23Z</time>
      </trkpt>
      <trkpt lat="44.50526" lon="6.29346">
        <ele>972.79998779297</ele>
        <time>2021-09-01T15:06:31Z</time>
      </trkpt>
      <trkpt lat="44.50533" lon="6.29345">
        <ele>973.20001220703</ele>
        <time>2021-09-01T15:06:34Z</time>
      </trkpt>
      <trkpt lat="44.50545" lon="6.29342">
        <ele>973.59997558594</ele>
        <time>2021-09-01T15:06:39Z</time>
      </trkpt>
      <trkpt lat="44.50554" lon="6.2934">
        <ele>974.20001220703</ele>
        <time>2021-09-01T15:06:43Z</time>
      </trkpt>
      <trkpt lat="44.50565" lon="6.29338">
        <ele>974.79998779297</ele>
        <time>2021-09-01T15:06:48Z</time>
      </trkpt>
      <trkpt lat="44.5057" lon="6.29336">
        <ele>975.20001220703</ele>
        <time>2021-09-01T15:06:50Z</time>
      </trkpt>
      <trkpt lat="44.50581" lon="6.29329">
        <ele>975.79998779297</ele>
        <time>2021-09-01T15:06:55Z</time>
      </trkpt>
      <trkpt lat="44.50586" lon="6.29326">
        <ele>976.20001220703</ele>
        <time>2021-09-01T15:06:57Z</time>
      </trkpt>
      <trkpt lat="44.506" lon="6.29311">
        <ele>977</ele>
        <time>2021-09-01T15:07:04Z</time>
      </trkpt>
      <trkpt lat="44.50608" lon="6.29299">
        <ele>977.20001220703</ele>
        <time>2021-09-01T15:07:08Z</time>
      </trkpt>
      <trkpt lat="44.50616" lon="6.29282">
        <ele>977.79998779297</ele>
        <time>2021-09-01T15:07:13Z</time>
      </trkpt>
      <trkpt lat="44.50628" lon="6.29264">
        <ele>978.40002441406</ele>
        <time>2021-09-01T15:07:19Z</time>
      </trkpt>
      <trkpt lat="44.50633" lon="6.29255">
        <ele>978.59997558594</ele>
        <time>2021-09-01T15:07:22Z</time>
      </trkpt>
      <trkpt lat="44.50649" lon="6.29236">
        <ele>979.40002441406</ele>
        <time>2021-09-01T15:07:29Z</time>
      </trkpt>
      <trkpt lat="44.50657" lon="6.29225">
        <ele>980.20001220703</ele>
        <time>2021-09-01T15:07:33Z</time>
      </trkpt>
      <trkpt lat="44.50663" lon="6.29217">
        <ele>980.40002441406</ele>
        <time>2021-09-01T15:07:36Z</time>
      </trkpt>
      <trkpt lat="44.50674" lon="6.29205">
        <ele>981</ele>
        <time>2021-09-01T15:07:41Z</time>
      </trkpt>
      <trkpt lat="44.50686" lon="6.29192">
        <ele>981.59997558594</ele>
        <time>2021-09-01T15:07:46Z</time>
      </trkpt>
      <trkpt lat="44.50693" lon="6.29185">
        <ele>981.79998779297</ele>
        <time>2021-09-01T15:07:49Z</time>
      </trkpt>
      <trkpt lat="44.50705" lon="6.29173">
        <ele>982.59997558594</ele>
        <time>2021-09-01T15:07:54Z</time>
      </trkpt>
      <trkpt lat="44.50709" lon="6.29167">
        <ele>982.79998779297</ele>
        <time>2021-09-01T15:07:56Z</time>
      </trkpt>
      <trkpt lat="44.50722" lon="6.2915">
        <ele>983.59997558594</ele>
        <time>2021-09-01T15:08:02Z</time>
      </trkpt>
      <trkpt lat="44.50727" lon="6.29145">
        <ele>983.79998779297</ele>
        <time>2021-09-01T15:08:04Z</time>
      </trkpt>
      <trkpt lat="44.50738" lon="6.29134">
        <ele>984.79998779297</ele>
        <time>2021-09-01T15:08:09Z</time>
      </trkpt>
      <trkpt lat="44.50742" lon="6.2913">
        <ele>985.20001220703</ele>
        <time>2021-09-01T15:08:11Z</time>
      </trkpt>
      <trkpt lat="44.50751" lon="6.29119">
        <ele>985.79998779297</ele>
        <time>2021-09-01T15:08:16Z</time>
      </trkpt>
      <trkpt lat="44.50757" lon="6.29112">
        <ele>986.20001220703</ele>
        <time>2021-09-01T15:08:19Z</time>
      </trkpt>
      <trkpt lat="44.50762" lon="6.29106">
        <ele>986.79998779297</ele>
        <time>2021-09-01T15:08:22Z</time>
      </trkpt>
      <trkpt lat="44.50769" lon="6.29098">
        <ele>987.20001220703</ele>
        <time>2021-09-01T15:08:26Z</time>
      </trkpt>
      <trkpt lat="44.50779" lon="6.29087">
        <ele>988</ele>
        <time>2021-09-01T15:08:31Z</time>
      </trkpt>
      <trkpt lat="44.50784" lon="6.29081">
        <ele>988.59997558594</ele>
        <time>2021-09-01T15:08:34Z</time>
      </trkpt>
      <trkpt lat="44.5079" lon="6.29075">
        <ele>989</ele>
        <time>2021-09-01T15:08:37Z</time>
      </trkpt>
      <trkpt lat="44.50806" lon="6.29055">
        <ele>990</ele>
        <time>2021-09-01T15:08:46Z</time>
      </trkpt>
      <trkpt lat="44.50808" lon="6.29053">
        <ele>990.20001220703</ele>
        <time>2021-09-01T15:08:47Z</time>
      </trkpt>
      <trkpt lat="44.50821" lon="6.29038">
        <ele>991.20001220703</ele>
        <time>2021-09-01T15:08:54Z</time>
      </trkpt>
      <trkpt lat="44.50823" lon="6.29036">
        <ele>991.40002441406</ele>
        <time>2021-09-01T15:08:55Z</time>
      </trkpt>
      <trkpt lat="44.50831" lon="6.29024">
        <ele>992.20001220703</ele>
        <time>2021-09-01T15:09:00Z</time>
      </trkpt>
      <trkpt lat="44.50836" lon="6.29018">
        <ele>992.59997558594</ele>
        <time>2021-09-01T15:09:03Z</time>
      </trkpt>
      <trkpt lat="44.50842" lon="6.29012">
        <ele>993.20001220703</ele>
        <time>2021-09-01T15:09:06Z</time>
      </trkpt>
      <trkpt lat="44.50849" lon="6.28999">
        <ele>994.20001220703</ele>
        <time>2021-09-01T15:09:11Z</time>
      </trkpt>
      <trkpt lat="44.50859" lon="6.28977">
        <ele>995.20001220703</ele>
        <time>2021-09-01T15:09:19Z</time>
      </trkpt>
      <trkpt lat="44.50862" lon="6.28964">
        <ele>995.79998779297</ele>
        <time>2021-09-01T15:09:23Z</time>
      </trkpt>
      <trkpt lat="44.50863" lon="6.28958">
        <ele>996.20001220703</ele>
        <time>2021-09-01T15:09:25Z</time>
      </trkpt>
      <trkpt lat="44.50863" lon="6.28955">
        <ele>996.40002441406</ele>
        <time>2021-09-01T15:09:26Z</time>
      </trkpt>
      <trkpt lat="44.50867" lon="6.28929">
        <ele>997.59997558594</ele>
        <time>2021-09-01T15:09:34Z</time>
      </trkpt>
      <trkpt lat="44.50867" lon="6.28922">
        <ele>997.79998779297</ele>
        <time>2021-09-01T15:09:36Z</time>
      </trkpt>
      <trkpt lat="44.50863" lon="6.28902">
        <ele>998.59997558594</ele>
        <time>2021-09-01T15:09:42Z</time>
      </trkpt>
      <trkpt lat="44.50863" lon="6.28898">
        <ele>998.79998779297</ele>
        <time>2021-09-01T15:09:43Z</time>
      </trkpt>
      <trkpt lat="44.50858" lon="6.28879">
        <ele>999.40002441406</ele>
        <time>2021-09-01T15:09:48Z</time>
      </trkpt>
      <trkpt lat="44.50857" lon="6.28872">
        <ele>999.79998779297</ele>
        <time>2021-09-01T15:09:50Z</time>
      </trkpt>
      <trkpt lat="44.5085" lon="6.28848">
        <ele>1001</ele>
        <time>2021-09-01T15:09:56Z</time>
      </trkpt>
      <trkpt lat="44.50847" lon="6.28825">
        <ele>1002</ele>
        <time>2021-09-01T15:10:02Z</time>
      </trkpt>
      <trkpt lat="44.50845" lon="6.28818">
        <ele>1002.200012207</ele>
        <time>2021-09-01T15:10:04Z</time>
      </trkpt>
      <trkpt lat="44.5084" lon="6.28797">
        <ele>1003</ele>
        <time>2021-09-01T15:10:10Z</time>
      </trkpt>
      <trkpt lat="44.50839" lon="6.28787">
        <ele>1003.4000244141</ele>
        <time>2021-09-01T15:10:13Z</time>
      </trkpt>
      <trkpt lat="44.50838" lon="6.28772">
        <ele>1004.200012207</ele>
        <time>2021-09-01T15:10:17Z</time>
      </trkpt>
      <trkpt lat="44.50835" lon="6.2875">
        <ele>1005.200012207</ele>
        <time>2021-09-01T15:10:23Z</time>
      </trkpt>
      <trkpt lat="44.5083" lon="6.28727">
        <ele>1006.4000244141</ele>
        <time>2021-09-01T15:10:30Z</time>
      </trkpt>
      <trkpt lat="44.50828" lon="6.28721">
        <ele>1006.5999755859</ele>
        <time>2021-09-01T15:10:32Z</time>
      </trkpt>
      <trkpt lat="44.50823" lon="6.28702">
        <ele>1007.4000244141</ele>
        <time>2021-09-01T15:10:38Z</time>
      </trkpt>
      <trkpt lat="44.50821" lon="6.28692">
        <ele>1008</ele>
        <time>2021-09-01T15:10:41Z</time>
      </trkpt>
      <trkpt lat="44.50818" lon="6.28675">
        <ele>1008.5999755859</ele>
        <time>2021-09-01T15:10:46Z</time>
      </trkpt>
      <trkpt lat="44.50819" lon="6.28667">
        <ele>1008.799987793</ele>
        <time>2021-09-01T15:10:48Z</time>
      </trkpt>
      <trkpt lat="44.50818" lon="6.28649">
        <ele>1009.5999755859</ele>
        <time>2021-09-01T15:10:53Z</time>
      </trkpt>
      <trkpt lat="44.50816" lon="6.28639">
        <ele>1010</ele>
        <time>2021-09-01T15:10:56Z</time>
      </trkpt>
      <trkpt lat="44.50813" lon="6.28626">
        <ele>1010.799987793</ele>
        <time>2021-09-01T15:11:00Z</time>
      </trkpt>
      <trkpt lat="44.50809" lon="6.28613">
        <ele>1011.4000244141</ele>
        <time>2021-09-01T15:11:04Z</time>
      </trkpt>
      <trkpt lat="44.50807" lon="6.28603">
        <ele>1011.799987793</ele>
        <time>2021-09-01T15:11:07Z</time>
      </trkpt>
      <trkpt lat="44.50803" lon="6.2859">
        <ele>1012.5999755859</ele>
        <time>2021-09-01T15:11:11Z</time>
      </trkpt>
      <trkpt lat="44.50801" lon="6.28584">
        <ele>1013</ele>
        <time>2021-09-01T15:11:13Z</time>
      </trkpt>
      <trkpt lat="44.50792" lon="6.28561">
        <ele>1014</ele>
        <time>2021-09-01T15:11:20Z</time>
      </trkpt>
      <trkpt lat="44.50789" lon="6.28554">
        <ele>1014.4000244141</ele>
        <time>2021-09-01T15:11:22Z</time>
      </trkpt>
      <trkpt lat="44.50784" lon="6.2854">
        <ele>1015</ele>
        <time>2021-09-01T15:11:26Z</time>
      </trkpt>
      <trkpt lat="44.50779" lon="6.28526">
        <ele>1015.799987793</ele>
        <time>2021-09-01T15:11:30Z</time>
      </trkpt>
      <trkpt lat="44.50776" lon="6.28519">
        <ele>1016.4000244141</ele>
        <time>2021-09-01T15:11:32Z</time>
      </trkpt>
      <trkpt lat="44.50769" lon="6.28499">
        <ele>1017.4000244141</ele>
        <time>2021-09-01T15:11:38Z</time>
      </trkpt>
      <trkpt lat="44.50767" lon="6.28496">
        <ele>1017.5999755859</ele>
        <time>2021-09-01T15:11:39Z</time>
      </trkpt>
      <trkpt lat="44.5076" lon="6.28482">
        <ele>1018.4000244141</ele>
        <time>2021-09-01T15:11:43Z</time>
      </trkpt>
      <trkpt lat="44.50754" lon="6.28468">
        <ele>1019.200012207</ele>
        <time>2021-09-01T15:11:47Z</time>
      </trkpt>
      <trkpt lat="44.5075" lon="6.28461">
        <ele>1019.5999755859</ele>
        <time>2021-09-01T15:11:49Z</time>
      </trkpt>
      <trkpt lat="44.50739" lon="6.28446">
        <ele>1020.4000244141</ele>
        <time>2021-09-01T15:11:54Z</time>
      </trkpt>
      <trkpt lat="44.50735" lon="6.2844">
        <ele>1021</ele>
        <time>2021-09-01T15:11:56Z</time>
      </trkpt>
      <trkpt lat="44.50721" lon="6.28424">
        <ele>1022</ele>
        <time>2021-09-01T15:12:02Z</time>
      </trkpt>
      <trkpt lat="44.50718" lon="6.28421">
        <ele>1022.200012207</ele>
        <time>2021-09-01T15:12:03Z</time>
      </trkpt>
      <trkpt lat="44.50705" lon="6.28409">
        <ele>1023</ele>
        <time>2021-09-01T15:12:08Z</time>
      </trkpt>
      <trkpt lat="44.50699" lon="6.28404">
        <ele>1023.200012207</ele>
        <time>2021-09-01T15:12:10Z</time>
      </trkpt>
      <trkpt lat="44.50685" lon="6.28392">
        <ele>1024</ele>
        <time>2021-09-01T15:12:16Z</time>
      </trkpt>
      <trkpt lat="44.50683" lon="6.28391">
        <ele>1024</ele>
        <time>2021-09-01T15:12:17Z</time>
      </trkpt>
      <trkpt lat="44.50673" lon="6.28384">
        <ele>1024.4000244141</ele>
        <time>2021-09-01T15:12:22Z</time>
      </trkpt>
      <trkpt lat="44.50663" lon="6.28379">
        <ele>1025</ele>
        <time>2021-09-01T15:12:29Z</time>
      </trkpt>
      <trkpt lat="44.50658" lon="6.28378">
        <ele>1025.4000244141</ele>
        <time>2021-09-01T15:15:22Z</time>
      </trkpt>
      <trkpt lat="44.50656" lon="6.28378">
        <ele>1025.4000244141</ele>
        <time>2021-09-01T15:15:23Z</time>
      </trkpt>
      <trkpt lat="44.50639" lon="6.28374">
        <ele>1025.4000244141</ele>
        <time>2021-09-01T15:15:30Z</time>
      </trkpt>
      <trkpt lat="44.50627" lon="6.28371">
        <ele>1025.5999755859</ele>
        <time>2021-09-01T15:15:35Z</time>
      </trkpt>
      <trkpt lat="44.50604" lon="6.28368">
        <ele>1026</ele>
        <time>2021-09-01T15:15:43Z</time>
      </trkpt>
      <trkpt lat="44.50588" lon="6.28369">
        <ele>1026.1999511719</ele>
        <time>2021-09-01T15:15:48Z</time>
      </trkpt>
      <trkpt lat="44.50567" lon="6.28373">
        <ele>1026.1999511719</ele>
        <time>2021-09-01T15:15:54Z</time>
      </trkpt>
      <trkpt lat="44.50546" lon="6.28378">
        <ele>1025.8000488281</ele>
        <time>2021-09-01T15:16:00Z</time>
      </trkpt>
      <trkpt lat="44.50535" lon="6.28385">
        <ele>1025.8000488281</ele>
        <time>2021-09-01T15:16:03Z</time>
      </trkpt>
      <trkpt lat="44.50533" lon="6.28389">
        <ele>1025.5999755859</ele>
        <time>2021-09-01T15:16:04Z</time>
      </trkpt>
      <trkpt lat="44.50521" lon="6.28398">
        <ele>1025.1999511719</ele>
        <time>2021-09-01T15:16:08Z</time>
      </trkpt>
      <trkpt lat="44.50517" lon="6.284">
        <ele>1025</ele>
        <time>2021-09-01T15:16:10Z</time>
      </trkpt>
      <trkpt lat="44.50515" lon="6.284">
        <ele>1023.5999755859</ele>
        <time>2021-09-01T15:17:02Z</time>
      </trkpt>
      <trkpt lat="44.5051" lon="6.28403">
        <ele>1023.5999755859</ele>
        <time>2021-09-01T15:17:04Z</time>
      </trkpt>
      <trkpt lat="44.50491" lon="6.28411">
        <ele>1023.4000244141</ele>
        <time>2021-09-01T15:17:09Z</time>
      </trkpt>
      <trkpt lat="44.50458" lon="6.28418">
        <ele>1022.799987793</ele>
        <time>2021-09-01T15:17:15Z</time>
      </trkpt>
      <trkpt lat="44.50445" lon="6.28422">
        <ele>1022.5999755859</ele>
        <time>2021-09-01T15:17:17Z</time>
      </trkpt>
      <trkpt lat="44.50424" lon="6.28428">
        <ele>1021.799987793</ele>
        <time>2021-09-01T15:17:20Z</time>
      </trkpt>
      <trkpt lat="44.50417" lon="6.2843">
        <ele>1021.5999755859</ele>
        <time>2021-09-01T15:17:21Z</time>
      </trkpt>
      <trkpt lat="44.50395" lon="6.28437">
        <ele>1020.4000244141</ele>
        <time>2021-09-01T15:17:24Z</time>
      </trkpt>
      <trkpt lat="44.50373" lon="6.28445">
        <ele>1019</ele>
        <time>2021-09-01T15:17:27Z</time>
      </trkpt>
      <trkpt lat="44.50357" lon="6.2845">
        <ele>1017.799987793</ele>
        <time>2021-09-01T15:17:29Z</time>
      </trkpt>
      <trkpt lat="44.5034" lon="6.28455">
        <ele>1016.799987793</ele>
        <time>2021-09-01T15:17:31Z</time>
      </trkpt>
      <trkpt lat="44.50331" lon="6.28458">
        <ele>1015.799987793</ele>
        <time>2021-09-01T15:17:32Z</time>
      </trkpt>
      <trkpt lat="44.50312" lon="6.28463">
        <ele>1014.5999755859</ele>
        <time>2021-09-01T15:17:34Z</time>
      </trkpt>
      <trkpt lat="44.50294" lon="6.28469">
        <ele>1013.4000244141</ele>
        <time>2021-09-01T15:17:36Z</time>
      </trkpt>
      <trkpt lat="44.50276" lon="6.28475">
        <ele>1012</ele>
        <time>2021-09-01T15:17:38Z</time>
      </trkpt>
      <trkpt lat="44.50259" lon="6.2848">
        <ele>1010.5999755859</ele>
        <time>2021-09-01T15:17:40Z</time>
      </trkpt>
      <trkpt lat="44.50241" lon="6.28483">
        <ele>1009</ele>
        <time>2021-09-01T15:17:42Z</time>
      </trkpt>
      <trkpt lat="44.50231" lon="6.28484">
        <ele>1008.200012207</ele>
        <time>2021-09-01T15:17:43Z</time>
      </trkpt>
      <trkpt lat="44.50221" lon="6.28484">
        <ele>1007.4000244141</ele>
        <time>2021-09-01T15:17:44Z</time>
      </trkpt>
      <trkpt lat="44.50201" lon="6.28485">
        <ele>1005.799987793</ele>
        <time>2021-09-01T15:17:46Z</time>
      </trkpt>
      <trkpt lat="44.50179" lon="6.28483">
        <ele>1004.200012207</ele>
        <time>2021-09-01T15:17:48Z</time>
      </trkpt>
      <trkpt lat="44.50169" lon="6.28481">
        <ele>1003.4000244141</ele>
        <time>2021-09-01T15:17:49Z</time>
      </trkpt>
      <trkpt lat="44.50159" lon="6.28479">
        <ele>1002.5999755859</ele>
        <time>2021-09-01T15:17:50Z</time>
      </trkpt>
      <trkpt lat="44.5014" lon="6.28474">
        <ele>1001.200012207</ele>
        <time>2021-09-01T15:17:52Z</time>
      </trkpt>
      <trkpt lat="44.50121" lon="6.28469">
        <ele>999.79998779297</ele>
        <time>2021-09-01T15:17:54Z</time>
      </trkpt>
      <trkpt lat="44.50102" lon="6.28464">
        <ele>997</ele>
        <time>2021-09-01T15:17:56Z</time>
      </trkpt>
      <trkpt lat="44.50081" lon="6.2846">
        <ele>995.40002441406</ele>
        <time>2021-09-01T15:17:58Z</time>
      </trkpt>
      <trkpt lat="44.5006" lon="6.28455">
        <ele>993.79998779297</ele>
        <time>2021-09-01T15:18:00Z</time>
      </trkpt>
      <trkpt lat="44.50038" lon="6.28451">
        <ele>992.40002441406</ele>
        <time>2021-09-01T15:18:02Z</time>
      </trkpt>
      <trkpt lat="44.50016" lon="6.28446">
        <ele>991</ele>
        <time>2021-09-01T15:18:04Z</time>
      </trkpt>
      <trkpt lat="44.49994" lon="6.2844">
        <ele>989.40002441406</ele>
        <time>2021-09-01T15:18:06Z</time>
      </trkpt>
      <trkpt lat="44.49984" lon="6.28437">
        <ele>988.59997558594</ele>
        <time>2021-09-01T15:18:07Z</time>
      </trkpt>
      <trkpt lat="44.49974" lon="6.28435">
        <ele>987.79998779297</ele>
        <time>2021-09-01T15:18:08Z</time>
      </trkpt>
      <trkpt lat="44.49955" lon="6.2843">
        <ele>986.20001220703</ele>
        <time>2021-09-01T15:18:10Z</time>
      </trkpt>
      <trkpt lat="44.49935" lon="6.28427">
        <ele>984.20001220703</ele>
        <time>2021-09-01T15:18:12Z</time>
      </trkpt>
      <trkpt lat="44.49917" lon="6.28423">
        <ele>982.40002441406</ele>
        <time>2021-09-01T15:18:14Z</time>
      </trkpt>
      <trkpt lat="44.49901" lon="6.2842">
        <ele>981.40002441406</ele>
        <time>2021-09-01T15:18:16Z</time>
      </trkpt>
      <trkpt lat="44.49892" lon="6.28419">
        <ele>980.79998779297</ele>
        <time>2021-09-01T15:18:17Z</time>
      </trkpt>
      <trkpt lat="44.49883" lon="6.28418">
        <ele>980.20001220703</ele>
        <time>2021-09-01T15:18:18Z</time>
      </trkpt>
      <trkpt lat="44.49865" lon="6.28416">
        <ele>977.59997558594</ele>
        <time>2021-09-01T15:18:20Z</time>
      </trkpt>
      <trkpt lat="44.49847" lon="6.28414">
        <ele>976</ele>
        <time>2021-09-01T15:18:22Z</time>
      </trkpt>
      <trkpt lat="44.49827" lon="6.28412">
        <ele>974.40002441406</ele>
        <time>2021-09-01T15:18:24Z</time>
      </trkpt>
      <trkpt lat="44.49806" lon="6.28411">
        <ele>973</ele>
        <time>2021-09-01T15:18:26Z</time>
      </trkpt>
      <trkpt lat="44.49785" lon="6.28413">
        <ele>971.20001220703</ele>
        <time>2021-09-01T15:18:28Z</time>
      </trkpt>
      <trkpt lat="44.49763" lon="6.28415">
        <ele>969.40002441406</ele>
        <time>2021-09-01T15:18:30Z</time>
      </trkpt>
      <trkpt lat="44.49743" lon="6.28416">
        <ele>968</ele>
        <time>2021-09-01T15:18:32Z</time>
      </trkpt>
      <trkpt lat="44.49722" lon="6.28417">
        <ele>966.40002441406</ele>
        <time>2021-09-01T15:18:34Z</time>
      </trkpt>
      <trkpt lat="44.49713" lon="6.28418">
        <ele>965.59997558594</ele>
        <time>2021-09-01T15:18:35Z</time>
      </trkpt>
      <trkpt lat="44.49705" lon="6.28419">
        <ele>964.79998779297</ele>
        <time>2021-09-01T15:18:36Z</time>
      </trkpt>
      <trkpt lat="44.49687" lon="6.28423">
        <ele>962.79998779297</ele>
        <time>2021-09-01T15:18:38Z</time>
      </trkpt>
      <trkpt lat="44.49672" lon="6.28431">
        <ele>961</ele>
        <time>2021-09-01T15:18:40Z</time>
      </trkpt>
      <trkpt lat="44.4966" lon="6.2844">
        <ele>959.20001220703</ele>
        <time>2021-09-01T15:18:42Z</time>
      </trkpt>
      <trkpt lat="44.49647" lon="6.28451">
        <ele>957.20001220703</ele>
        <time>2021-09-01T15:18:44Z</time>
      </trkpt>
      <trkpt lat="44.49635" lon="6.28461">
        <ele>955.79998779297</ele>
        <time>2021-09-01T15:18:46Z</time>
      </trkpt>
      <trkpt lat="44.49627" lon="6.2847">
        <ele>954.40002441406</ele>
        <time>2021-09-01T15:18:48Z</time>
      </trkpt>
      <trkpt lat="44.49618" lon="6.28478">
        <ele>952.79998779297</ele>
        <time>2021-09-01T15:18:50Z</time>
      </trkpt>
      <trkpt lat="44.49608" lon="6.28484">
        <ele>951.40002441406</ele>
        <time>2021-09-01T15:18:52Z</time>
      </trkpt>
      <trkpt lat="44.49598" lon="6.28489">
        <ele>950.20001220703</ele>
        <time>2021-09-01T15:18:54Z</time>
      </trkpt>
      <trkpt lat="44.49588" lon="6.28491">
        <ele>949.20001220703</ele>
        <time>2021-09-01T15:18:56Z</time>
      </trkpt>
      <trkpt lat="44.49577" lon="6.2849">
        <ele>948</ele>
        <time>2021-09-01T15:18:58Z</time>
      </trkpt>
      <trkpt lat="44.49562" lon="6.28486">
        <ele>946.79998779297</ele>
        <time>2021-09-01T15:19:01Z</time>
      </trkpt>
      <trkpt lat="44.49558" lon="6.28487">
        <ele>946.40002441406</ele>
        <time>2021-09-01T15:19:02Z</time>
      </trkpt>
      <trkpt lat="44.49553" lon="6.28488">
        <ele>945.59997558594</ele>
        <time>2021-09-01T15:19:04Z</time>
      </trkpt>
      <trkpt lat="44.49552" lon="6.28489">
        <ele>945</ele>
        <time>2021-09-01T15:19:05Z</time>
      </trkpt>
      <trkpt lat="44.49548" lon="6.28493">
        <ele>944.40002441406</ele>
        <time>2021-09-01T15:19:07Z</time>
      </trkpt>
      <trkpt lat="44.49542" lon="6.28499">
        <ele>943.59997558594</ele>
        <time>2021-09-01T15:19:10Z</time>
      </trkpt>
      <trkpt lat="44.49538" lon="6.28504">
        <ele>943.40002441406</ele>
        <time>2021-09-01T15:19:12Z</time>
      </trkpt>
      <trkpt lat="44.49528" lon="6.28518">
        <ele>943.40002441406</ele>
        <time>2021-09-01T15:19:17Z</time>
      </trkpt>
      <trkpt lat="44.49512" lon="6.28536">
        <ele>942.59997558594</ele>
        <time>2021-09-01T15:19:24Z</time>
      </trkpt>
      <trkpt lat="44.49506" lon="6.28546">
        <ele>942.40002441406</ele>
        <time>2021-09-01T15:19:27Z</time>
      </trkpt>
      <trkpt lat="44.49499" lon="6.28559">
        <ele>942.40002441406</ele>
        <time>2021-09-01T15:19:31Z</time>
      </trkpt>
      <trkpt lat="44.49491" lon="6.28571">
        <ele>942.20001220703</ele>
        <time>2021-09-01T15:19:36Z</time>
      </trkpt>
      <trkpt lat="44.49494" lon="6.28599">
        <ele>943</ele>
        <time>2021-09-01T15:23:40Z</time>
      </trkpt>
      <trkpt lat="44.49494" lon="6.286">
        <ele>943</ele>
        <time>2021-09-01T15:23:41Z</time>
      </trkpt>
      <trkpt lat="44.49494" lon="6.28617">
        <ele>942.79998779297</ele>
        <time>2021-09-01T15:23:52Z</time>
      </trkpt>
      <trkpt lat="44.49495" lon="6.28627">
        <ele>942.20001220703</ele>
        <time>2021-09-01T15:23:59Z</time>
      </trkpt>
      <trkpt lat="44.49502" lon="6.28637">
        <ele>941.59997558594</ele>
        <time>2021-09-01T15:24:09Z</time>
      </trkpt>
      <trkpt lat="44.4951" lon="6.2865">
        <ele>942.20001220703</ele>
        <time>2021-09-01T16:05:13Z</time>
      </trkpt>
      <trkpt lat="44.49512" lon="6.28643">
        <ele>1023</ele>
        <time>2021-09-02T06:53:12Z</time>
      </trkpt>
      <trkpt lat="44.4951" lon="6.28642">
        <ele>1023</ele>
        <time>2021-09-02T06:53:24Z</time>
      </trkpt>
      <trkpt lat="44.49506" lon="6.28639">
        <ele>1023</ele>
        <time>2021-09-02T06:53:27Z</time>
      </trkpt>
      <trkpt lat="44.49497" lon="6.28626">
        <ele>1022.799987793</ele>
        <time>2021-09-02T06:53:34Z</time>
      </trkpt>
      <trkpt lat="44.49493" lon="6.28611">
        <ele>1022.799987793</ele>
        <time>2021-09-02T06:53:40Z</time>
      </trkpt>
      <trkpt lat="44.49493" lon="6.2859">
        <ele>1023.5999755859</ele>
        <time>2021-09-02T06:53:49Z</time>
      </trkpt>
      <trkpt lat="44.49493" lon="6.28571">
        <ele>1023.799987793</ele>
        <time>2021-09-02T06:53:57Z</time>
      </trkpt>
      <trkpt lat="44.49494" lon="6.28567">
        <ele>1023.4000244141</ele>
        <time>2021-09-02T06:54:02Z</time>
      </trkpt>
      <trkpt lat="44.49496" lon="6.28561">
        <ele>1023.4000244141</ele>
        <time>2021-09-02T06:54:04Z</time>
      </trkpt>
      <trkpt lat="44.49505" lon="6.28546">
        <ele>1023.200012207</ele>
        <time>2021-09-02T06:54:10Z</time>
      </trkpt>
      <trkpt lat="44.49517" lon="6.28529">
        <ele>1023.5999755859</ele>
        <time>2021-09-02T06:54:17Z</time>
      </trkpt>
      <trkpt lat="44.49529" lon="6.28515">
        <ele>1023.799987793</ele>
        <time>2021-09-02T06:54:23Z</time>
      </trkpt>
      <trkpt lat="44.49538" lon="6.28505">
        <ele>1024</ele>
        <time>2021-09-02T06:54:27Z</time>
      </trkpt>
      <trkpt lat="44.49546" lon="6.28495">
        <ele>1024</ele>
        <time>2021-09-02T06:54:31Z</time>
      </trkpt>
      <trkpt lat="44.49554" lon="6.28482">
        <ele>1023.799987793</ele>
        <time>2021-09-02T06:54:37Z</time>
      </trkpt>
      <trkpt lat="44.49554" lon="6.2848">
        <ele>1024</ele>
        <time>2021-09-02T06:54:38Z</time>
      </trkpt>
      <trkpt lat="44.4955" lon="6.28475">
        <ele>1024</ele>
        <time>2021-09-02T06:54:40Z</time>
      </trkpt>
      <trkpt lat="44.49536" lon="6.28467">
        <ele>1023.799987793</ele>
        <time>2021-09-02T06:54:44Z</time>
      </trkpt>
      <trkpt lat="44.49535" lon="6.28465">
        <ele>1022.200012207</ele>
        <time>2021-09-02T06:55:19Z</time>
      </trkpt>
      <trkpt lat="44.49528" lon="6.28449">
        <ele>1021.799987793</ele>
        <time>2021-09-02T06:55:24Z</time>
      </trkpt>
      <trkpt lat="44.49524" lon="6.28437">
        <ele>1021.5999755859</ele>
        <time>2021-09-02T06:55:26Z</time>
      </trkpt>
      <trkpt lat="44.4952" lon="6.28424">
        <ele>1021.200012207</ele>
        <time>2021-09-02T06:55:28Z</time>
      </trkpt>
      <trkpt lat="44.49518" lon="6.28418">
        <ele>1020.799987793</ele>
        <time>2021-09-02T06:55:29Z</time>
      </trkpt>
      <trkpt lat="44.49517" lon="6.28406">
        <ele>1020.4000244141</ele>
        <time>2021-09-02T06:55:31Z</time>
      </trkpt>
      <trkpt lat="44.49516" lon="6.28398">
        <ele>1020</ele>
        <time>2021-09-02T06:55:32Z</time>
      </trkpt>
      <trkpt lat="44.49515" lon="6.28381">
        <ele>1019</ele>
        <time>2021-09-02T06:55:34Z</time>
      </trkpt>
      <trkpt lat="44.49515" lon="6.28372">
        <ele>1018.5999755859</ele>
        <time>2021-09-02T06:55:35Z</time>
      </trkpt>
      <trkpt lat="44.49514" lon="6.28344">
        <ele>1017.4000244141</ele>
        <time>2021-09-02T06:55:38Z</time>
      </trkpt>
      <trkpt lat="44.49513" lon="6.28336">
        <ele>1017.200012207</ele>
        <time>2021-09-02T06:55:39Z</time>
      </trkpt>
      <trkpt lat="44.49512" lon="6.28319">
        <ele>1016.4000244141</ele>
        <time>2021-09-02T06:55:41Z</time>
      </trkpt>
      <trkpt lat="44.4951" lon="6.28289">
        <ele>1014.799987793</ele>
        <time>2021-09-02T06:55:44Z</time>
      </trkpt>
      <trkpt lat="44.4951" lon="6.28267">
        <ele>1013.799987793</ele>
        <time>2021-09-02T06:55:46Z</time>
      </trkpt>
      <trkpt lat="44.49509" lon="6.28255">
        <ele>1012.799987793</ele>
        <time>2021-09-02T06:55:47Z</time>
      </trkpt>
      <trkpt lat="44.49505" lon="6.28232">
        <ele>1011.799987793</ele>
        <time>2021-09-02T06:55:49Z</time>
      </trkpt>
      <trkpt lat="44.49497" lon="6.28213">
        <ele>1010.5999755859</ele>
        <time>2021-09-02T06:55:51Z</time>
      </trkpt>
      <trkpt lat="44.49487" lon="6.28196">
        <ele>1009.4000244141</ele>
        <time>2021-09-02T06:55:53Z</time>
      </trkpt>
      <trkpt lat="44.49482" lon="6.28188">
        <ele>1008.799987793</ele>
        <time>2021-09-02T06:55:54Z</time>
      </trkpt>
      <trkpt lat="44.49476" lon="6.2818">
        <ele>1008.200012207</ele>
        <time>2021-09-02T06:55:55Z</time>
      </trkpt>
      <trkpt lat="44.49465" lon="6.28163">
        <ele>1006.799987793</ele>
        <time>2021-09-02T06:55:57Z</time>
      </trkpt>
      <trkpt lat="44.49458" lon="6.28155">
        <ele>1006</ele>
        <time>2021-09-02T06:55:58Z</time>
      </trkpt>
      <trkpt lat="44.49452" lon="6.28146">
        <ele>1005.4000244141</ele>
        <time>2021-09-02T06:55:59Z</time>
      </trkpt>
      <trkpt lat="44.49441" lon="6.2813">
        <ele>1004.200012207</ele>
        <time>2021-09-02T06:56:01Z</time>
      </trkpt>
      <trkpt lat="44.49431" lon="6.28117">
        <ele>1003</ele>
        <time>2021-09-02T06:56:03Z</time>
      </trkpt>
      <trkpt lat="44.49426" lon="6.28113">
        <ele>1002.4000244141</ele>
        <time>2021-09-02T06:56:04Z</time>
      </trkpt>
      <trkpt lat="44.49423" lon="6.2811">
        <ele>1001.5999755859</ele>
        <time>2021-09-02T06:56:05Z</time>
      </trkpt>
      <trkpt lat="44.4942" lon="6.28108">
        <ele>1001</ele>
        <time>2021-09-02T06:56:06Z</time>
      </trkpt>
      <trkpt lat="44.49418" lon="6.28106">
        <ele>1000.200012207</ele>
        <time>2021-09-02T06:56:07Z</time>
      </trkpt>
      <trkpt lat="44.49416" lon="6.28104">
        <ele>996.40002441406</ele>
        <time>2021-09-02T06:56:29Z</time>
      </trkpt>
      <trkpt lat="44.49413" lon="6.28099">
        <ele>996.40002441406</ele>
        <time>2021-09-02T06:56:31Z</time>
      </trkpt>
      <trkpt lat="44.49399" lon="6.28081">
        <ele>996.20001220703</ele>
        <time>2021-09-02T06:56:36Z</time>
      </trkpt>
      <trkpt lat="44.49379" lon="6.28064">
        <ele>995.40002441406</ele>
        <time>2021-09-02T06:56:40Z</time>
      </trkpt>
      <trkpt lat="44.4935" lon="6.28052">
        <ele>994.20001220703</ele>
        <time>2021-09-02T06:56:44Z</time>
      </trkpt>
      <trkpt lat="44.49325" lon="6.28052">
        <ele>993</ele>
        <time>2021-09-02T06:56:47Z</time>
      </trkpt>
      <trkpt lat="44.49316" lon="6.28054">
        <ele>992.59997558594</ele>
        <time>2021-09-02T06:56:48Z</time>
      </trkpt>
      <trkpt lat="44.49298" lon="6.2806">
        <ele>991.79998779297</ele>
        <time>2021-09-02T06:56:50Z</time>
      </trkpt>
      <trkpt lat="44.4928" lon="6.28069">
        <ele>990.79998779297</ele>
        <time>2021-09-02T06:56:52Z</time>
      </trkpt>
      <trkpt lat="44.49263" lon="6.28084">
        <ele>989.40002441406</ele>
        <time>2021-09-02T06:56:54Z</time>
      </trkpt>
      <trkpt lat="44.49244" lon="6.281">
        <ele>988</ele>
        <time>2021-09-02T06:56:56Z</time>
      </trkpt>
      <trkpt lat="44.49224" lon="6.28113">
        <ele>986.40002441406</ele>
        <time>2021-09-02T06:56:58Z</time>
      </trkpt>
      <trkpt lat="44.49214" lon="6.2812">
        <ele>984.79998779297</ele>
        <time>2021-09-02T06:56:59Z</time>
      </trkpt>
      <trkpt lat="44.49193" lon="6.2813">
        <ele>983</ele>
        <time>2021-09-02T06:57:01Z</time>
      </trkpt>
      <trkpt lat="44.49172" lon="6.28132">
        <ele>981.20001220703</ele>
        <time>2021-09-02T06:57:03Z</time>
      </trkpt>
      <trkpt lat="44.49161" lon="6.2813">
        <ele>980.40002441406</ele>
        <time>2021-09-02T06:57:04Z</time>
      </trkpt>
      <trkpt lat="44.49151" lon="6.28126">
        <ele>979.59997558594</ele>
        <time>2021-09-02T06:57:05Z</time>
      </trkpt>
      <trkpt lat="44.4914" lon="6.28121">
        <ele>978.79998779297</ele>
        <time>2021-09-02T06:57:06Z</time>
      </trkpt>
      <trkpt lat="44.49129" lon="6.28115">
        <ele>978</ele>
        <time>2021-09-02T06:57:07Z</time>
      </trkpt>
      <trkpt lat="44.49119" lon="6.28109">
        <ele>977.20001220703</ele>
        <time>2021-09-02T06:57:08Z</time>
      </trkpt>
      <trkpt lat="44.49108" lon="6.28102">
        <ele>976.40002441406</ele>
        <time>2021-09-02T06:57:09Z</time>
      </trkpt>
      <trkpt lat="44.49086" lon="6.28088">
        <ele>974.59997558594</ele>
        <time>2021-09-02T06:57:11Z</time>
      </trkpt>
      <trkpt lat="44.49074" lon="6.28082">
        <ele>973.59997558594</ele>
        <time>2021-09-02T06:57:12Z</time>
      </trkpt>
      <trkpt lat="44.49063" lon="6.28075">
        <ele>972.59997558594</ele>
        <time>2021-09-02T06:57:13Z</time>
      </trkpt>
      <trkpt lat="44.49051" lon="6.28071">
        <ele>971.59997558594</ele>
        <time>2021-09-02T06:57:14Z</time>
      </trkpt>
      <trkpt lat="44.49039" lon="6.28069">
        <ele>970.59997558594</ele>
        <time>2021-09-02T06:57:15Z</time>
      </trkpt>
      <trkpt lat="44.49027" lon="6.28068">
        <ele>969.59997558594</ele>
        <time>2021-09-02T06:57:16Z</time>
      </trkpt>
      <trkpt lat="44.49015" lon="6.28067">
        <ele>968.40002441406</ele>
        <time>2021-09-02T06:57:17Z</time>
      </trkpt>
      <trkpt lat="44.49004" lon="6.28064">
        <ele>967.40002441406</ele>
        <time>2021-09-02T06:57:18Z</time>
      </trkpt>
      <trkpt lat="44.48983" lon="6.28055">
        <ele>965.40002441406</ele>
        <time>2021-09-02T06:57:20Z</time>
      </trkpt>
      <trkpt lat="44.48972" lon="6.28051">
        <ele>964.40002441406</ele>
        <time>2021-09-02T06:57:21Z</time>
      </trkpt>
      <trkpt lat="44.4896" lon="6.28049">
        <ele>963.20001220703</ele>
        <time>2021-09-02T06:57:22Z</time>
      </trkpt>
      <trkpt lat="44.48949" lon="6.28049">
        <ele>961.20001220703</ele>
        <time>2021-09-02T06:57:23Z</time>
      </trkpt>
      <trkpt lat="44.48937" lon="6.28052">
        <ele>960.20001220703</ele>
        <time>2021-09-02T06:57:24Z</time>
      </trkpt>
      <trkpt lat="44.48914" lon="6.28059">
        <ele>958.20001220703</ele>
        <time>2021-09-02T06:57:26Z</time>
      </trkpt>
      <trkpt lat="44.4889" lon="6.28066">
        <ele>956.40002441406</ele>
        <time>2021-09-02T06:57:28Z</time>
      </trkpt>
      <trkpt lat="44.48878" lon="6.2807">
        <ele>955.40002441406</ele>
        <time>2021-09-02T06:57:29Z</time>
      </trkpt>
      <trkpt lat="44.48866" lon="6.28073">
        <ele>954.59997558594</ele>
        <time>2021-09-02T06:57:30Z</time>
      </trkpt>
      <trkpt lat="44.48854" lon="6.28074">
        <ele>953.59997558594</ele>
        <time>2021-09-02T06:57:31Z</time>
      </trkpt>
      <trkpt lat="44.48844" lon="6.28074">
        <ele>952.59997558594</ele>
        <time>2021-09-02T06:57:32Z</time>
      </trkpt>
      <trkpt lat="44.48834" lon="6.28069">
        <ele>951.59997558594</ele>
        <time>2021-09-02T06:57:33Z</time>
      </trkpt>
      <trkpt lat="44.48825" lon="6.28061">
        <ele>950.59997558594</ele>
        <time>2021-09-02T06:57:34Z</time>
      </trkpt>
      <trkpt lat="44.48819" lon="6.28049">
        <ele>949.40002441406</ele>
        <time>2021-09-02T06:57:35Z</time>
      </trkpt>
      <trkpt lat="44.48814" lon="6.28036">
        <ele>948.40002441406</ele>
        <time>2021-09-02T06:57:36Z</time>
      </trkpt>
      <trkpt lat="44.48804" lon="6.2801">
        <ele>946.59997558594</ele>
        <time>2021-09-02T06:57:38Z</time>
      </trkpt>
      <trkpt lat="44.48641" lon="6.27423">
        <ele>920.79998779297</ele>
        <time>2021-09-02T06:58:22Z</time>
      </trkpt>
      <trkpt lat="44.48631" lon="6.27384">
        <ele>919</ele>
        <time>2021-09-02T06:58:25Z</time>
      </trkpt>
      <trkpt lat="44.48623" lon="6.27357">
        <ele>917.59997558594</ele>
        <time>2021-09-02T06:58:27Z</time>
      </trkpt>
      <trkpt lat="44.48615" lon="6.27329">
        <ele>916.20001220703</ele>
        <time>2021-09-02T06:58:29Z</time>
      </trkpt>
      <trkpt lat="44.48607" lon="6.27298">
        <ele>914.79998779297</ele>
        <time>2021-09-02T06:58:31Z</time>
      </trkpt>
      <trkpt lat="44.48605" lon="6.27282">
        <ele>914</ele>
        <time>2021-09-02T06:58:32Z</time>
      </trkpt>
      <trkpt lat="44.48604" lon="6.27265">
        <ele>913.59997558594</ele>
        <time>2021-09-02T06:58:33Z</time>
      </trkpt>
      <trkpt lat="44.48606" lon="6.27232">
        <ele>911.59997558594</ele>
        <time>2021-09-02T06:58:35Z</time>
      </trkpt>
      <trkpt lat="44.48613" lon="6.27199">
        <ele>909.59997558594</ele>
        <time>2021-09-02T06:58:37Z</time>
      </trkpt>
      <trkpt lat="44.48619" lon="6.27183">
        <ele>908.40002441406</ele>
        <time>2021-09-02T06:58:38Z</time>
      </trkpt>
      <trkpt lat="44.48626" lon="6.27168">
        <ele>907.40002441406</ele>
        <time>2021-09-02T06:58:39Z</time>
      </trkpt>
      <trkpt lat="44.48634" lon="6.27155">
        <ele>906.40002441406</ele>
        <time>2021-09-02T06:58:40Z</time>
      </trkpt>
      <trkpt lat="44.48644" lon="6.27142">
        <ele>905.40002441406</ele>
        <time>2021-09-02T06:58:41Z</time>
      </trkpt>
      <trkpt lat="44.48654" lon="6.27132">
        <ele>904.40002441406</ele>
        <time>2021-09-02T06:58:42Z</time>
      </trkpt>
      <trkpt lat="44.48666" lon="6.27123">
        <ele>903.20001220703</ele>
        <time>2021-09-02T06:58:43Z</time>
      </trkpt>
      <trkpt lat="44.48677" lon="6.27115">
        <ele>902.20001220703</ele>
        <time>2021-09-02T06:58:44Z</time>
      </trkpt>
      <trkpt lat="44.4869" lon="6.27109">
        <ele>901</ele>
        <time>2021-09-02T06:58:45Z</time>
      </trkpt>
      <trkpt lat="44.48702" lon="6.27102">
        <ele>900.20001220703</ele>
        <time>2021-09-02T06:58:46Z</time>
      </trkpt>
      <trkpt lat="44.48713" lon="6.27096">
        <ele>899.20001220703</ele>
        <time>2021-09-02T06:58:47Z</time>
      </trkpt>
      <trkpt lat="44.48723" lon="6.27089">
        <ele>898.20001220703</ele>
        <time>2021-09-02T06:58:48Z</time>
      </trkpt>
      <trkpt lat="44.4873" lon="6.2708">
        <ele>896.79998779297</ele>
        <time>2021-09-02T06:58:49Z</time>
      </trkpt>
      <trkpt lat="44.48734" lon="6.27068">
        <ele>895.59997558594</ele>
        <time>2021-09-02T06:58:50Z</time>
      </trkpt>
      <trkpt lat="44.48734" lon="6.27056">
        <ele>894.40002441406</ele>
        <time>2021-09-02T06:58:51Z</time>
      </trkpt>
      <trkpt lat="44.48732" lon="6.27045">
        <ele>893</ele>
        <time>2021-09-02T06:58:52Z</time>
      </trkpt>
      <trkpt lat="44.48725" lon="6.27036">
        <ele>891.79998779297</ele>
        <time>2021-09-02T06:58:53Z</time>
      </trkpt>
      <trkpt lat="44.48716" lon="6.27031">
        <ele>890.59997558594</ele>
        <time>2021-09-02T06:58:54Z</time>
      </trkpt>
      <trkpt lat="44.48705" lon="6.27027">
        <ele>889.59997558594</ele>
        <time>2021-09-02T06:58:55Z</time>
      </trkpt>
      <trkpt lat="44.48694" lon="6.27024">
        <ele>888.79998779297</ele>
        <time>2021-09-02T06:58:56Z</time>
      </trkpt>
      <trkpt lat="44.48682" lon="6.2702">
        <ele>888</ele>
        <time>2021-09-02T06:58:57Z</time>
      </trkpt>
      <trkpt lat="44.4866" lon="6.27012">
        <ele>886</ele>
        <time>2021-09-02T06:58:59Z</time>
      </trkpt>
      <trkpt lat="44.48637" lon="6.27005">
        <ele>884.59997558594</ele>
        <time>2021-09-02T06:59:01Z</time>
      </trkpt>
      <trkpt lat="44.48624" lon="6.27003">
        <ele>883.79998779297</ele>
        <time>2021-09-02T06:59:02Z</time>
      </trkpt>
      <trkpt lat="44.48612" lon="6.27">
        <ele>883</ele>
        <time>2021-09-02T06:59:03Z</time>
      </trkpt>
      <trkpt lat="44.48587" lon="6.26998">
        <ele>881.40002441406</ele>
        <time>2021-09-02T06:59:05Z</time>
      </trkpt>
      <trkpt lat="44.48575" lon="6.27">
        <ele>880.59997558594</ele>
        <time>2021-09-02T06:59:06Z</time>
      </trkpt>
      <trkpt lat="44.48563" lon="6.27005">
        <ele>879.79998779297</ele>
        <time>2021-09-02T06:59:07Z</time>
      </trkpt>
      <trkpt lat="44.4854" lon="6.27022">
        <ele>878.20001220703</ele>
        <time>2021-09-02T06:59:09Z</time>
      </trkpt>
      <trkpt lat="44.48519" lon="6.27045">
        <ele>876.20001220703</ele>
        <time>2021-09-02T06:59:11Z</time>
      </trkpt>
      <trkpt lat="44.4851" lon="6.27059">
        <ele>875.20001220703</ele>
        <time>2021-09-02T06:59:12Z</time>
      </trkpt>
      <trkpt lat="44.48503" lon="6.27075">
        <ele>874.20001220703</ele>
        <time>2021-09-02T06:59:13Z</time>
      </trkpt>
      <trkpt lat="44.48497" lon="6.27091">
        <ele>873.20001220703</ele>
        <time>2021-09-02T06:59:14Z</time>
      </trkpt>
      <trkpt lat="44.48491" lon="6.27108">
        <ele>872.20001220703</ele>
        <time>2021-09-02T06:59:15Z</time>
      </trkpt>
      <trkpt lat="44.48486" lon="6.27125">
        <ele>871.20001220703</ele>
        <time>2021-09-02T06:59:16Z</time>
      </trkpt>
      <trkpt lat="44.48475" lon="6.2716">
        <ele>869.20001220703</ele>
        <time>2021-09-02T06:59:18Z</time>
      </trkpt>
      <trkpt lat="44.48465" lon="6.27196">
        <ele>867.20001220703</ele>
        <time>2021-09-02T06:59:20Z</time>
      </trkpt>
      <trkpt lat="44.4846" lon="6.27214">
        <ele>865.79998779297</ele>
        <time>2021-09-02T06:59:21Z</time>
      </trkpt>
      <trkpt lat="44.48454" lon="6.27232">
        <ele>864.40002441406</ele>
        <time>2021-09-02T06:59:22Z</time>
      </trkpt>
      <trkpt lat="44.48448" lon="6.27249">
        <ele>861.59997558594</ele>
        <time>2021-09-02T06:59:23Z</time>
      </trkpt>
      <trkpt lat="44.48443" lon="6.27267">
        <ele>860.40002441406</ele>
        <time>2021-09-02T06:59:24Z</time>
      </trkpt>
      <trkpt lat="44.48437" lon="6.27286">
        <ele>859.20001220703</ele>
        <time>2021-09-02T06:59:25Z</time>
      </trkpt>
      <trkpt lat="44.48432" lon="6.27304">
        <ele>858</ele>
        <time>2021-09-02T06:59:26Z</time>
      </trkpt>
      <trkpt lat="44.48426" lon="6.27322">
        <ele>857</ele>
        <time>2021-09-02T06:59:27Z</time>
      </trkpt>
      <trkpt lat="44.4842" lon="6.2734">
        <ele>855.79998779297</ele>
        <time>2021-09-02T06:59:28Z</time>
      </trkpt>
      <trkpt lat="44.48414" lon="6.27358">
        <ele>854.59997558594</ele>
        <time>2021-09-02T06:59:29Z</time>
      </trkpt>
      <trkpt lat="44.48405" lon="6.27374">
        <ele>853.59997558594</ele>
        <time>2021-09-02T06:59:30Z</time>
      </trkpt>
      <trkpt lat="44.48396" lon="6.27389">
        <ele>852.40002441406</ele>
        <time>2021-09-02T06:59:31Z</time>
      </trkpt>
      <trkpt lat="44.48388" lon="6.27404">
        <ele>851.20001220703</ele>
        <time>2021-09-02T06:59:32Z</time>
      </trkpt>
      <trkpt lat="44.48381" lon="6.27417">
        <ele>850.20001220703</ele>
        <time>2021-09-02T06:59:33Z</time>
      </trkpt>
      <trkpt lat="44.48374" lon="6.27426">
        <ele>849</ele>
        <time>2021-09-02T06:59:34Z</time>
      </trkpt>
      <trkpt lat="44.48367" lon="6.27433">
        <ele>848</ele>
        <time>2021-09-02T06:59:35Z</time>
      </trkpt>
      <trkpt lat="44.48362" lon="6.27436">
        <ele>846.79998779297</ele>
        <time>2021-09-02T06:59:36Z</time>
      </trkpt>
      <trkpt lat="44.4836" lon="6.27434">
        <ele>845.59997558594</ele>
        <time>2021-09-02T06:59:37Z</time>
      </trkpt>
      <trkpt lat="44.4836" lon="6.27425">
        <ele>844.40002441406</ele>
        <time>2021-09-02T06:59:38Z</time>
      </trkpt>
      <trkpt lat="44.48363" lon="6.2741">
        <ele>843.20001220703</ele>
        <time>2021-09-02T06:59:39Z</time>
      </trkpt>
      <trkpt lat="44.48368" lon="6.27398">
        <ele>842.20001220703</ele>
        <time>2021-09-02T06:59:40Z</time>
      </trkpt>
      <trkpt lat="44.48381" lon="6.27376">
        <ele>840.40002441406</ele>
        <time>2021-09-02T06:59:42Z</time>
      </trkpt>
      <trkpt lat="44.48387" lon="6.27364">
        <ele>839.79998779297</ele>
        <time>2021-09-02T06:59:43Z</time>
      </trkpt>
      <trkpt lat="44.48392" lon="6.27352">
        <ele>839.20001220703</ele>
        <time>2021-09-02T06:59:44Z</time>
      </trkpt>
      <trkpt lat="44.48396" lon="6.27338">
        <ele>838.79998779297</ele>
        <time>2021-09-02T06:59:45Z</time>
      </trkpt>
      <trkpt lat="44.48399" lon="6.27323">
        <ele>838.20001220703</ele>
        <time>2021-09-02T06:59:46Z</time>
      </trkpt>
      <trkpt lat="44.484" lon="6.27308">
        <ele>837</ele>
        <time>2021-09-02T06:59:47Z</time>
      </trkpt>
      <trkpt lat="44.484" lon="6.27291">
        <ele>836.20001220703</ele>
        <time>2021-09-02T06:59:48Z</time>
      </trkpt>
      <trkpt lat="44.48399" lon="6.27276">
        <ele>835.59997558594</ele>
        <time>2021-09-02T06:59:49Z</time>
      </trkpt>
      <trkpt lat="44.48392" lon="6.27244">
        <ele>834.20001220703</ele>
        <time>2021-09-02T06:59:51Z</time>
      </trkpt>
      <trkpt lat="44.48389" lon="6.27228">
        <ele>833.40002441406</ele>
        <time>2021-09-02T06:59:52Z</time>
      </trkpt>
      <trkpt lat="44.48386" lon="6.27211">
        <ele>832.79998779297</ele>
        <time>2021-09-02T06:59:53Z</time>
      </trkpt>
      <trkpt lat="44.4838" lon="6.27178">
        <ele>831.20001220703</ele>
        <time>2021-09-02T06:59:55Z</time>
      </trkpt>
      <trkpt lat="44.48374" lon="6.27145">
        <ele>829.40002441406</ele>
        <time>2021-09-02T06:59:57Z</time>
      </trkpt>
      <trkpt lat="44.48369" lon="6.27112">
        <ele>827.40002441406</ele>
        <time>2021-09-02T06:59:59Z</time>
      </trkpt>
      <trkpt lat="44.48362" lon="6.27079">
        <ele>825.59997558594</ele>
        <time>2021-09-02T07:00:01Z</time>
      </trkpt>
      <trkpt lat="44.48352" lon="6.27047">
        <ele>823.79998779297</ele>
        <time>2021-09-02T07:00:03Z</time>
      </trkpt>
      <trkpt lat="44.48346" lon="6.27032">
        <ele>822.79998779297</ele>
        <time>2021-09-02T07:00:04Z</time>
      </trkpt>
      <trkpt lat="44.48337" lon="6.27019">
        <ele>821.79998779297</ele>
        <time>2021-09-02T07:00:05Z</time>
      </trkpt>
      <trkpt lat="44.48328" lon="6.27007">
        <ele>821</ele>
        <time>2021-09-02T07:00:06Z</time>
      </trkpt>
      <trkpt lat="44.48318" lon="6.26997">
        <ele>820</ele>
        <time>2021-09-02T07:00:07Z</time>
      </trkpt>
      <trkpt lat="44.48308" lon="6.26988">
        <ele>818.79998779297</ele>
        <time>2021-09-02T07:00:08Z</time>
      </trkpt>
      <trkpt lat="44.48297" lon="6.26981">
        <ele>817.79998779297</ele>
        <time>2021-09-02T07:00:09Z</time>
      </trkpt>
      <trkpt lat="44.48275" lon="6.26973">
        <ele>815.20001220703</ele>
        <time>2021-09-02T07:00:11Z</time>
      </trkpt>
      <trkpt lat="44.48264" lon="6.2697">
        <ele>814.40002441406</ele>
        <time>2021-09-02T07:00:12Z</time>
      </trkpt>
      <trkpt lat="44.48253" lon="6.26967">
        <ele>813.79998779297</ele>
        <time>2021-09-02T07:00:13Z</time>
      </trkpt>
      <trkpt lat="44.48223" lon="6.2696">
        <ele>812.59997558594</ele>
        <time>2021-09-02T07:00:16Z</time>
      </trkpt>
      <trkpt lat="44.48214" lon="6.26957">
        <ele>812.40002441406</ele>
        <time>2021-09-02T07:00:17Z</time>
      </trkpt>
      <trkpt lat="44.48163" lon="6.26947">
        <ele>812.40002441406</ele>
        <time>2021-09-02T07:00:23Z</time>
      </trkpt>
      <trkpt lat="44.48122" lon="6.26939">
        <ele>812.79998779297</ele>
        <time>2021-09-02T07:00:29Z</time>
      </trkpt>
      <trkpt lat="44.48106" lon="6.26939">
        <ele>813.20001220703</ele>
        <time>2021-09-02T07:00:32Z</time>
      </trkpt>
      <trkpt lat="44.48097" lon="6.26944">
        <ele>813.59997558594</ele>
        <time>2021-09-02T07:00:34Z</time>
      </trkpt>
      <trkpt lat="44.48093" lon="6.26946">
        <ele>814</ele>
        <time>2021-09-02T07:00:35Z</time>
      </trkpt>
      <trkpt lat="44.48077" lon="6.26961">
        <ele>815</ele>
        <time>2021-09-02T07:00:40Z</time>
      </trkpt>
      <trkpt lat="44.48064" lon="6.26983">
        <ele>816</ele>
        <time>2021-09-02T07:00:46Z</time>
      </trkpt>
      <trkpt lat="44.48063" lon="6.26986">
        <ele>816.20001220703</ele>
        <time>2021-09-02T07:00:47Z</time>
      </trkpt>
      <trkpt lat="44.48058" lon="6.27003">
        <ele>817</ele>
        <time>2021-09-02T07:00:52Z</time>
      </trkpt>
      <trkpt lat="44.48058" lon="6.27006">
        <ele>817.20001220703</ele>
        <time>2021-09-02T07:00:53Z</time>
      </trkpt>
      <trkpt lat="44.48056" lon="6.27022">
        <ele>818</ele>
        <time>2021-09-02T07:00:58Z</time>
      </trkpt>
      <trkpt lat="44.48056" lon="6.27028">
        <ele>818.40002441406</ele>
        <time>2021-09-02T07:01:00Z</time>
      </trkpt>
      <trkpt lat="44.48056" lon="6.27051">
        <ele>819.59997558594</ele>
        <time>2021-09-02T07:01:07Z</time>
      </trkpt>
      <trkpt lat="44.48056" lon="6.27054">
        <ele>819.79998779297</ele>
        <time>2021-09-02T07:01:08Z</time>
      </trkpt>
      <trkpt lat="44.48056" lon="6.27072">
        <ele>820.59997558594</ele>
        <time>2021-09-02T07:01:14Z</time>
      </trkpt>
      <trkpt lat="44.48056" lon="6.27091">
        <ele>821.79998779297</ele>
        <time>2021-09-02T07:01:21Z</time>
      </trkpt>
      <trkpt lat="44.48055" lon="6.27096">
        <ele>822.20001220703</ele>
        <time>2021-09-02T07:01:23Z</time>
      </trkpt>
      <trkpt lat="44.48054" lon="6.27107">
        <ele>822.79998779297</ele>
        <time>2021-09-02T07:01:27Z</time>
      </trkpt>
      <trkpt lat="44.48052" lon="6.27114">
        <ele>823.40002441406</ele>
        <time>2021-09-02T07:01:30Z</time>
      </trkpt>
      <trkpt lat="44.4805" lon="6.27122">
        <ele>823.79998779297</ele>
        <time>2021-09-02T07:01:33Z</time>
      </trkpt>
      <trkpt lat="44.48045" lon="6.27131">
        <ele>824.40002441406</ele>
        <time>2021-09-02T07:01:37Z</time>
      </trkpt>
      <trkpt lat="44.48042" lon="6.27138">
        <ele>825</ele>
        <time>2021-09-02T07:01:40Z</time>
      </trkpt>
      <trkpt lat="44.48033" lon="6.27147">
        <ele>825.59997558594</ele>
        <time>2021-09-02T07:01:46Z</time>
      </trkpt>
      <trkpt lat="44.48029" lon="6.2715">
        <ele>826</ele>
        <time>2021-09-02T07:01:48Z</time>
      </trkpt>
      <trkpt lat="44.48014" lon="6.27159">
        <ele>826.79998779297</ele>
        <time>2021-09-02T07:01:56Z</time>
      </trkpt>
      <trkpt lat="44.48011" lon="6.27161">
        <ele>827</ele>
        <time>2021-09-02T07:01:58Z</time>
      </trkpt>
      <trkpt lat="44.47996" lon="6.27167">
        <ele>828</ele>
        <time>2021-09-02T07:02:06Z</time>
      </trkpt>
      <trkpt lat="44.47994" lon="6.27167">
        <ele>828.20001220703</ele>
        <time>2021-09-02T07:02:07Z</time>
      </trkpt>
      <trkpt lat="44.47982" lon="6.27171">
        <ele>829.40002441406</ele>
        <time>2021-09-02T07:02:14Z</time>
      </trkpt>
      <trkpt lat="44.47969" lon="6.27175">
        <ele>830.40002441406</ele>
        <time>2021-09-02T07:02:21Z</time>
      </trkpt>
      <trkpt lat="44.47966" lon="6.27176">
        <ele>830.79998779297</ele>
        <time>2021-09-02T07:02:23Z</time>
      </trkpt>
      <trkpt lat="44.47955" lon="6.2718">
        <ele>831.40002441406</ele>
        <time>2021-09-02T07:02:29Z</time>
      </trkpt>
      <trkpt lat="44.47952" lon="6.27181">
        <ele>831.79998779297</ele>
        <time>2021-09-02T07:02:31Z</time>
      </trkpt>
      <trkpt lat="44.47945" lon="6.27185">
        <ele>832.59997558594</ele>
        <time>2021-09-02T07:02:35Z</time>
      </trkpt>
      <trkpt lat="44.4794" lon="6.27185">
        <ele>833</ele>
        <time>2021-09-02T07:02:38Z</time>
      </trkpt>
      <trkpt lat="44.47931" lon="6.27187">
        <ele>833.59997558594</ele>
        <time>2021-09-02T07:02:43Z</time>
      </trkpt>
      <trkpt lat="44.47926" lon="6.27189">
        <ele>834</ele>
        <time>2021-09-02T07:02:46Z</time>
      </trkpt>
      <trkpt lat="44.47919" lon="6.27191">
        <ele>834.59997558594</ele>
        <time>2021-09-02T07:02:50Z</time>
      </trkpt>
      <trkpt lat="44.47913" lon="6.27193">
        <ele>835</ele>
        <time>2021-09-02T07:02:53Z</time>
      </trkpt>
      <trkpt lat="44.47904" lon="6.27194">
        <ele>835.59997558594</ele>
        <time>2021-09-02T07:02:58Z</time>
      </trkpt>
      <trkpt lat="44.47896" lon="6.27197">
        <ele>836.40002441406</ele>
        <time>2021-09-02T07:03:02Z</time>
      </trkpt>
      <trkpt lat="44.47892" lon="6.27199">
        <ele>836.79998779297</ele>
        <time>2021-09-02T07:03:04Z</time>
      </trkpt>
      <trkpt lat="44.47882" lon="6.27202">
        <ele>837.59997558594</ele>
        <time>2021-09-02T07:03:09Z</time>
      </trkpt>
      <trkpt lat="44.4788" lon="6.27203">
        <ele>837.79998779297</ele>
        <time>2021-09-02T07:03:10Z</time>
      </trkpt>
      <trkpt lat="44.47867" lon="6.27206">
        <ele>838.79998779297</ele>
        <time>2021-09-02T07:03:17Z</time>
      </trkpt>
      <trkpt lat="44.47865" lon="6.27206">
        <ele>839</ele>
        <time>2021-09-02T07:03:18Z</time>
      </trkpt>
      <trkpt lat="44.47855" lon="6.27209">
        <ele>840</ele>
        <time>2021-09-02T07:03:23Z</time>
      </trkpt>
      <trkpt lat="44.47851" lon="6.27211">
        <ele>840.20001220703</ele>
        <time>2021-09-02T07:03:25Z</time>
      </trkpt>
      <trkpt lat="44.47844" lon="6.27213">
        <ele>841</ele>
        <time>2021-09-02T07:03:29Z</time>
      </trkpt>
      <trkpt lat="44.47833" lon="6.27217">
        <ele>842</ele>
        <time>2021-09-02T07:03:35Z</time>
      </trkpt>
      <trkpt lat="44.47831" lon="6.27217">
        <ele>842.20001220703</ele>
        <time>2021-09-02T07:03:36Z</time>
      </trkpt>
      <trkpt lat="44.4782" lon="6.27221">
        <ele>843.20001220703</ele>
        <time>2021-09-02T07:03:42Z</time>
      </trkpt>
      <trkpt lat="44.47818" lon="6.27221">
        <ele>843.40002441406</ele>
        <time>2021-09-02T07:03:43Z</time>
      </trkpt>
      <trkpt lat="44.4781" lon="6.27224">
        <ele>844.20001220703</ele>
        <time>2021-09-02T07:03:48Z</time>
      </trkpt>
      <trkpt lat="44.47803" lon="6.27225">
        <ele>844.79998779297</ele>
        <time>2021-09-02T07:03:52Z</time>
      </trkpt>
      <trkpt lat="44.47798" lon="6.27227">
        <ele>845.40002441406</ele>
        <time>2021-09-02T07:03:55Z</time>
      </trkpt>
      <trkpt lat="44.47789" lon="6.2723">
        <ele>846.20001220703</ele>
        <time>2021-09-02T07:04:00Z</time>
      </trkpt>
      <trkpt lat="44.47786" lon="6.27231">
        <ele>846.40002441406</ele>
        <time>2021-09-02T07:04:02Z</time>
      </trkpt>
      <trkpt lat="44.47776" lon="6.27235">
        <ele>847.40002441406</ele>
        <time>2021-09-02T07:04:08Z</time>
      </trkpt>
      <trkpt lat="44.47775" lon="6.27235">
        <ele>847.59997558594</ele>
        <time>2021-09-02T07:04:09Z</time>
      </trkpt>
      <trkpt lat="44.47764" lon="6.27238">
        <ele>848.59997558594</ele>
        <time>2021-09-02T07:04:15Z</time>
      </trkpt>
      <trkpt lat="44.47762" lon="6.27238">
        <ele>848.59997558594</ele>
        <time>2021-09-02T07:04:16Z</time>
      </trkpt>
      <trkpt lat="44.47751" lon="6.27242">
        <ele>849.59997558594</ele>
        <time>2021-09-02T07:04:23Z</time>
      </trkpt>
      <trkpt lat="44.47739" lon="6.27245">
        <ele>850.79998779297</ele>
        <time>2021-09-02T07:04:30Z</time>
      </trkpt>
      <trkpt lat="44.47734" lon="6.27247">
        <ele>851.20001220703</ele>
        <time>2021-09-02T07:04:33Z</time>
      </trkpt>
      <trkpt lat="44.47727" lon="6.27249">
        <ele>851.79998779297</ele>
        <time>2021-09-02T07:04:37Z</time>
      </trkpt>
      <trkpt lat="44.47722" lon="6.2725">
        <ele>852.20001220703</ele>
        <time>2021-09-02T07:04:40Z</time>
      </trkpt>
      <trkpt lat="44.47714" lon="6.27254">
        <ele>852.79998779297</ele>
        <time>2021-09-02T07:04:45Z</time>
      </trkpt>
      <trkpt lat="44.47709" lon="6.27255">
        <ele>853.20001220703</ele>
        <time>2021-09-02T07:04:48Z</time>
      </trkpt>
      <trkpt lat="44.47699" lon="6.27257">
        <ele>854</ele>
        <time>2021-09-02T07:04:54Z</time>
      </trkpt>
      <trkpt lat="44.47693" lon="6.27259">
        <ele>854.20001220703</ele>
        <time>2021-09-02T07:04:57Z</time>
      </trkpt>
      <trkpt lat="44.47688" lon="6.2726">
        <ele>855</ele>
        <time>2021-09-02T07:05:00Z</time>
      </trkpt>
      <trkpt lat="44.47677" lon="6.27261">
        <ele>855.79998779297</ele>
        <time>2021-09-02T07:05:06Z</time>
      </trkpt>
      <trkpt lat="44.47673" lon="6.27261">
        <ele>856</ele>
        <time>2021-09-02T07:05:08Z</time>
      </trkpt>
      <trkpt lat="44.47662" lon="6.2726">
        <ele>857</ele>
        <time>2021-09-02T07:05:15Z</time>
      </trkpt>
      <trkpt lat="44.47659" lon="6.27259">
        <ele>857.40002441406</ele>
        <time>2021-09-02T07:05:17Z</time>
      </trkpt>
      <trkpt lat="44.47657" lon="6.27259">
        <ele>857.59997558594</ele>
        <time>2021-09-02T07:05:18Z</time>
      </trkpt>
      <trkpt lat="44.47651" lon="6.27256">
        <ele>858</ele>
        <time>2021-09-02T07:05:22Z</time>
      </trkpt>
      <trkpt lat="44.47649" lon="6.27255">
        <ele>858.40002441406</ele>
        <time>2021-09-02T07:05:23Z</time>
      </trkpt>
      <trkpt lat="44.47638" lon="6.27247">
        <ele>859.40002441406</ele>
        <time>2021-09-02T07:05:30Z</time>
      </trkpt>
      <trkpt lat="44.47627" lon="6.27239">
        <ele>860.40002441406</ele>
        <time>2021-09-02T07:05:37Z</time>
      </trkpt>
      <trkpt lat="44.47626" lon="6.27237">
        <ele>860.59997558594</ele>
        <time>2021-09-02T07:05:38Z</time>
      </trkpt>
      <trkpt lat="44.47616" lon="6.27226">
        <ele>861.59997558594</ele>
        <time>2021-09-02T07:05:45Z</time>
      </trkpt>
      <trkpt lat="44.47609" lon="6.27217">
        <ele>862.59997558594</ele>
        <time>2021-09-02T07:05:51Z</time>
      </trkpt>
      <trkpt lat="44.47608" lon="6.27215">
        <ele>862.79998779297</ele>
        <time>2021-09-02T07:05:52Z</time>
      </trkpt>
      <trkpt lat="44.47603" lon="6.27204">
        <ele>863.59997558594</ele>
        <time>2021-09-02T07:05:57Z</time>
      </trkpt>
      <trkpt lat="44.47601" lon="6.27195">
        <ele>864.20001220703</ele>
        <time>2021-09-02T07:06:01Z</time>
      </trkpt>
      <trkpt lat="44.47595" lon="6.27182">
        <ele>864.79998779297</ele>
        <time>2021-09-02T07:06:07Z</time>
      </trkpt>
      <trkpt lat="44.47594" lon="6.2718">
        <ele>865</ele>
        <time>2021-09-02T07:06:08Z</time>
      </trkpt>
      <trkpt lat="44.4759" lon="6.27165">
        <ele>866</ele>
        <time>2021-09-02T07:06:14Z</time>
      </trkpt>
      <trkpt lat="44.4759" lon="6.27163">
        <ele>866</ele>
        <time>2021-09-02T07:06:15Z</time>
      </trkpt>
      <trkpt lat="44.47585" lon="6.27145">
        <ele>866.79998779297</ele>
        <time>2021-09-02T07:06:22Z</time>
      </trkpt>
      <trkpt lat="44.47583" lon="6.27141">
        <ele>867</ele>
        <time>2021-09-02T07:06:24Z</time>
      </trkpt>
      <trkpt lat="44.47578" lon="6.27125">
        <ele>867.59997558594</ele>
        <time>2021-09-02T07:06:30Z</time>
      </trkpt>
      <trkpt lat="44.47576" lon="6.27114">
        <ele>868</ele>
        <time>2021-09-02T07:06:34Z</time>
      </trkpt>
      <trkpt lat="44.47573" lon="6.27106">
        <ele>868.40002441406</ele>
        <time>2021-09-02T07:06:37Z</time>
      </trkpt>
      <trkpt lat="44.47566" lon="6.27085">
        <ele>869</ele>
        <time>2021-09-02T07:06:45Z</time>
      </trkpt>
      <trkpt lat="44.47565" lon="6.27082">
        <ele>869.20001220703</ele>
        <time>2021-09-02T07:06:46Z</time>
      </trkpt>
      <trkpt lat="44.47557" lon="6.27057">
        <ele>869.40002441406</ele>
        <time>2021-09-02T07:06:54Z</time>
      </trkpt>
      <trkpt lat="44.47548" lon="6.27033">
        <ele>869.40002441406</ele>
        <time>2021-09-02T07:07:00Z</time>
      </trkpt>
      <trkpt lat="44.47536" lon="6.26994">
        <ele>869.20001220703</ele>
        <time>2021-09-02T07:07:07Z</time>
      </trkpt>
      <trkpt lat="44.47531" lon="6.26981">
        <ele>868.79998779297</ele>
        <time>2021-09-02T07:07:09Z</time>
      </trkpt>
      <trkpt lat="44.4752" lon="6.26955">
        <ele>868.40002441406</ele>
        <time>2021-09-02T07:07:13Z</time>
      </trkpt>
      <trkpt lat="44.47512" lon="6.26947">
        <ele>868</ele>
        <time>2021-09-02T07:07:15Z</time>
      </trkpt>
      <trkpt lat="44.47508" lon="6.26948">
        <ele>867.59997558594</ele>
        <time>2021-09-02T07:07:16Z</time>
      </trkpt>
      <trkpt lat="44.47493" lon="6.26946">
        <ele>867</ele>
        <time>2021-09-02T07:07:21Z</time>
      </trkpt>
      <trkpt lat="44.47484" lon="6.26944">
        <ele>867</ele>
        <time>2021-09-02T07:07:25Z</time>
      </trkpt>
      <trkpt lat="44.47482" lon="6.26943">
        <ele>867</ele>
        <time>2021-09-02T07:07:26Z</time>
      </trkpt>
      <trkpt lat="44.47478" lon="6.26943">
        <ele>867</ele>
        <time>2021-09-02T07:07:29Z</time>
      </trkpt>
      <trkpt lat="44.47478" lon="6.26945">
        <ele>867</ele>
        <time>2021-09-02T07:07:30Z</time>
      </trkpt>
      <trkpt lat="44.47485" lon="6.26945">
        <ele>866.79998779297</ele>
        <time>2021-09-02T07:11:29Z</time>
      </trkpt>
      <trkpt lat="44.47494" lon="6.26946">
        <ele>866.79998779297</ele>
        <time>2021-09-02T07:11:33Z</time>
      </trkpt>
      <trkpt lat="44.47503" lon="6.26952">
        <ele>867</ele>
        <time>2021-09-02T07:11:36Z</time>
      </trkpt>
      <trkpt lat="44.47511" lon="6.26953">
        <ele>867</ele>
        <time>2021-09-02T07:11:39Z</time>
      </trkpt>
      <trkpt lat="44.47512" lon="6.26949">
        <ele>867</ele>
        <time>2021-09-02T07:11:40Z</time>
      </trkpt>
      <trkpt lat="44.47509" lon="6.26934">
        <ele>867</ele>
        <time>2021-09-02T07:11:43Z</time>
      </trkpt>
      <trkpt lat="44.47504" lon="6.26922">
        <ele>866.79998779297</ele>
        <time>2021-09-02T07:11:45Z</time>
      </trkpt>
      <trkpt lat="44.47493" lon="6.26902">
        <ele>866.20001220703</ele>
        <time>2021-09-02T07:11:48Z</time>
      </trkpt>
      <trkpt lat="44.47484" lon="6.26886">
        <ele>865.79998779297</ele>
        <time>2021-09-02T07:11:50Z</time>
      </trkpt>
      <trkpt lat="44.47469" lon="6.26856">
        <ele>864.79998779297</ele>
        <time>2021-09-02T07:11:53Z</time>
      </trkpt>
      <trkpt lat="44.47465" lon="6.26844">
        <ele>864.40002441406</ele>
        <time>2021-09-02T07:11:54Z</time>
      </trkpt>
      <trkpt lat="44.47463" lon="6.26818">
        <ele>863.40002441406</ele>
        <time>2021-09-02T07:11:56Z</time>
      </trkpt>
      <trkpt lat="44.47462" lon="6.26789">
        <ele>862.20001220703</ele>
        <time>2021-09-02T07:11:58Z</time>
      </trkpt>
      <trkpt lat="44.4746" lon="6.2676">
        <ele>861</ele>
        <time>2021-09-02T07:12:00Z</time>
      </trkpt>
      <trkpt lat="44.47458" lon="6.26745">
        <ele>860.20001220703</ele>
        <time>2021-09-02T07:12:01Z</time>
      </trkpt>
      <trkpt lat="44.47456" lon="6.26729">
        <ele>859.59997558594</ele>
        <time>2021-09-02T07:12:02Z</time>
      </trkpt>
      <trkpt lat="44.47449" lon="6.267">
        <ele>858.20001220703</ele>
        <time>2021-09-02T07:12:04Z</time>
      </trkpt>
      <trkpt lat="44.47444" lon="6.26685">
        <ele>857.40002441406</ele>
        <time>2021-09-02T07:12:05Z</time>
      </trkpt>
      <trkpt lat="44.47439" lon="6.26671">
        <ele>856.40002441406</ele>
        <time>2021-09-02T07:12:06Z</time>
      </trkpt>
      <trkpt lat="44.47429" lon="6.26642">
        <ele>854.59997558594</ele>
        <time>2021-09-02T07:12:08Z</time>
      </trkpt>
      <trkpt lat="44.47417" lon="6.26617">
        <ele>852.79998779297</ele>
        <time>2021-09-02T07:12:10Z</time>
      </trkpt>
      <trkpt lat="44.4741" lon="6.26605">
        <ele>852.20001220703</ele>
        <time>2021-09-02T07:12:11Z</time>
      </trkpt>
      <trkpt lat="44.47402" lon="6.26593">
        <ele>850.40002441406</ele>
        <time>2021-09-02T07:12:12Z</time>
      </trkpt>
      <trkpt lat="44.47395" lon="6.26581">
        <ele>849.40002441406</ele>
        <time>2021-09-02T07:12:13Z</time>
      </trkpt>
      <trkpt lat="44.47392" lon="6.26569">
        <ele>848.59997558594</ele>
        <time>2021-09-02T07:12:14Z</time>
      </trkpt>
      <trkpt lat="44.4739" lon="6.26556">
        <ele>847.59997558594</ele>
        <time>2021-09-02T07:12:15Z</time>
      </trkpt>
      <trkpt lat="44.47391" lon="6.26543">
        <ele>846.59997558594</ele>
        <time>2021-09-02T07:12:16Z</time>
      </trkpt>
      <trkpt lat="44.47394" lon="6.26531">
        <ele>845.59997558594</ele>
        <time>2021-09-02T07:12:17Z</time>
      </trkpt>
      <trkpt lat="44.47396" lon="6.26519">
        <ele>844.40002441406</ele>
        <time>2021-09-02T07:12:18Z</time>
      </trkpt>
      <trkpt lat="44.47396" lon="6.26506">
        <ele>843.40002441406</ele>
        <time>2021-09-02T07:12:19Z</time>
      </trkpt>
      <trkpt lat="44.47395" lon="6.26494">
        <ele>842.40002441406</ele>
        <time>2021-09-02T07:12:20Z</time>
      </trkpt>
      <trkpt lat="44.47391" lon="6.26484">
        <ele>841.59997558594</ele>
        <time>2021-09-02T07:12:21Z</time>
      </trkpt>
      <trkpt lat="44.47386" lon="6.26476">
        <ele>840.79998779297</ele>
        <time>2021-09-02T07:12:22Z</time>
      </trkpt>
      <trkpt lat="44.47378" lon="6.26469">
        <ele>840</ele>
        <time>2021-09-02T07:12:23Z</time>
      </trkpt>
      <trkpt lat="44.47367" lon="6.26463">
        <ele>839.40002441406</ele>
        <time>2021-09-02T07:12:24Z</time>
      </trkpt>
      <trkpt lat="44.47357" lon="6.26454">
        <ele>838.59997558594</ele>
        <time>2021-09-02T07:12:25Z</time>
      </trkpt>
      <trkpt lat="44.47342" lon="6.26429">
        <ele>837</ele>
        <time>2021-09-02T07:12:27Z</time>
      </trkpt>
      <trkpt lat="44.47334" lon="6.26417">
        <ele>836.20001220703</ele>
        <time>2021-09-02T07:12:28Z</time>
      </trkpt>
      <trkpt lat="44.47326" lon="6.26404">
        <ele>835.40002441406</ele>
        <time>2021-09-02T07:12:29Z</time>
      </trkpt>
      <trkpt lat="44.47312" lon="6.26378">
        <ele>833.59997558594</ele>
        <time>2021-09-02T07:12:31Z</time>
      </trkpt>
      <trkpt lat="44.47304" lon="6.26364">
        <ele>832.59997558594</ele>
        <time>2021-09-02T07:12:32Z</time>
      </trkpt>
      <trkpt lat="44.47297" lon="6.26351">
        <ele>831.79998779297</ele>
        <time>2021-09-02T07:12:33Z</time>
      </trkpt>
      <trkpt lat="44.47281" lon="6.26324">
        <ele>829.79998779297</ele>
        <time>2021-09-02T07:12:35Z</time>
      </trkpt>
      <trkpt lat="44.47271" lon="6.26313">
        <ele>828</ele>
        <time>2021-09-02T07:12:36Z</time>
      </trkpt>
      <trkpt lat="44.4725" lon="6.26297">
        <ele>826</ele>
        <time>2021-09-02T07:12:38Z</time>
      </trkpt>
      <trkpt lat="44.4724" lon="6.26291">
        <ele>825</ele>
        <time>2021-09-02T07:12:39Z</time>
      </trkpt>
      <trkpt lat="44.47232" lon="6.26285">
        <ele>824</ele>
        <time>2021-09-02T07:12:40Z</time>
      </trkpt>
      <trkpt lat="44.47225" lon="6.26281">
        <ele>823</ele>
        <time>2021-09-02T07:12:41Z</time>
      </trkpt>
      <trkpt lat="44.47218" lon="6.26283">
        <ele>822</ele>
        <time>2021-09-02T07:12:42Z</time>
      </trkpt>
      <trkpt lat="44.47212" lon="6.26288">
        <ele>820.79998779297</ele>
        <time>2021-09-02T07:12:43Z</time>
      </trkpt>
      <trkpt lat="44.47208" lon="6.26296">
        <ele>819.59997558594</ele>
        <time>2021-09-02T07:12:44Z</time>
      </trkpt>
      <trkpt lat="44.47206" lon="6.26306">
        <ele>818.59997558594</ele>
        <time>2021-09-02T07:12:45Z</time>
      </trkpt>
      <trkpt lat="44.47209" lon="6.26317">
        <ele>817.59997558594</ele>
        <time>2021-09-02T07:12:46Z</time>
      </trkpt>
      <trkpt lat="44.47213" lon="6.26327">
        <ele>817</ele>
        <time>2021-09-02T07:12:47Z</time>
      </trkpt>
      <trkpt lat="44.47219" lon="6.26335">
        <ele>816.40002441406</ele>
        <time>2021-09-02T07:12:48Z</time>
      </trkpt>
      <trkpt lat="44.47225" lon="6.26344">
        <ele>816</ele>
        <time>2021-09-02T07:12:49Z</time>
      </trkpt>
      <trkpt lat="44.47231" lon="6.26354">
        <ele>815.40002441406</ele>
        <time>2021-09-02T07:12:50Z</time>
      </trkpt>
      <trkpt lat="44.47237" lon="6.26364">
        <ele>815</ele>
        <time>2021-09-02T07:12:51Z</time>
      </trkpt>
      <trkpt lat="44.47251" lon="6.26382">
        <ele>813.79998779297</ele>
        <time>2021-09-02T07:12:53Z</time>
      </trkpt>
      <trkpt lat="44.47266" lon="6.26402">
        <ele>812.59997558594</ele>
        <time>2021-09-02T07:12:55Z</time>
      </trkpt>
      <trkpt lat="44.47281" lon="6.26421">
        <ele>811.40002441406</ele>
        <time>2021-09-02T07:12:57Z</time>
      </trkpt>
      <trkpt lat="44.47286" lon="6.26429">
        <ele>810.79998779297</ele>
        <time>2021-09-02T07:12:58Z</time>
      </trkpt>
      <trkpt lat="44.47289" lon="6.26437">
        <ele>810.20001220703</ele>
        <time>2021-09-02T07:12:59Z</time>
      </trkpt>
      <trkpt lat="44.47288" lon="6.26442">
        <ele>808.59997558594</ele>
        <time>2021-09-02T07:13:00Z</time>
      </trkpt>
      <trkpt lat="44.4729" lon="6.26454">
        <ele>806.79998779297</ele>
        <time>2021-09-02T07:13:02Z</time>
      </trkpt>
      <trkpt lat="44.47291" lon="6.26464">
        <ele>805.40002441406</ele>
        <time>2021-09-02T07:13:04Z</time>
      </trkpt>
      <trkpt lat="44.47293" lon="6.26472">
        <ele>804.59997558594</ele>
        <time>2021-09-02T07:13:06Z</time>
      </trkpt>
      <trkpt lat="44.47294" lon="6.26475">
        <ele>804.40002441406</ele>
        <time>2021-09-02T07:13:07Z</time>
      </trkpt>
      <trkpt lat="44.47292" lon="6.26471">
        <ele>803.59997558594</ele>
        <time>2021-09-02T07:13:40Z</time>
      </trkpt>
      <trkpt lat="44.47283" lon="6.26462">
        <ele>803.40002441406</ele>
        <time>2021-09-02T07:13:46Z</time>
      </trkpt>
      <trkpt lat="44.47279" lon="6.26459">
        <ele>803.20001220703</ele>
        <time>2021-09-02T07:13:56Z</time>
      </trkpt>
      <trkpt lat="44.47268" lon="6.26452">
        <ele>803</ele>
        <time>2021-09-02T07:14:00Z</time>
      </trkpt>
      <trkpt lat="44.47249" lon="6.26438">
        <ele>802.59997558594</ele>
        <time>2021-09-02T07:14:04Z</time>
      </trkpt>
      <trkpt lat="44.47237" lon="6.26429">
        <ele>802.20001220703</ele>
        <time>2021-09-02T07:14:06Z</time>
      </trkpt>
      <trkpt lat="44.47219" lon="6.26409">
        <ele>801.40002441406</ele>
        <time>2021-09-02T07:14:09Z</time>
      </trkpt>
      <trkpt lat="44.47214" lon="6.26399">
        <ele>801</ele>
        <time>2021-09-02T07:14:10Z</time>
      </trkpt>
      <trkpt lat="44.47204" lon="6.26377">
        <ele>799.59997558594</ele>
        <time>2021-09-02T07:14:12Z</time>
      </trkpt>
      <trkpt lat="44.472" lon="6.26366">
        <ele>799</ele>
        <time>2021-09-02T07:14:13Z</time>
      </trkpt>
      <trkpt lat="44.47195" lon="6.26354">
        <ele>798.40002441406</ele>
        <time>2021-09-02T07:14:14Z</time>
      </trkpt>
      <trkpt lat="44.47188" lon="6.26344">
        <ele>797.79998779297</ele>
        <time>2021-09-02T07:14:15Z</time>
      </trkpt>
      <trkpt lat="44.47179" lon="6.26336">
        <ele>797</ele>
        <time>2021-09-02T07:14:16Z</time>
      </trkpt>
      <trkpt lat="44.47169" lon="6.26328">
        <ele>796.20001220703</ele>
        <time>2021-09-02T07:14:17Z</time>
      </trkpt>
      <trkpt lat="44.4716" lon="6.2632">
        <ele>795.40002441406</ele>
        <time>2021-09-02T07:14:18Z</time>
      </trkpt>
      <trkpt lat="44.47144" lon="6.26299">
        <ele>793.79998779297</ele>
        <time>2021-09-02T07:14:20Z</time>
      </trkpt>
      <trkpt lat="44.47137" lon="6.26287">
        <ele>792.79998779297</ele>
        <time>2021-09-02T07:14:21Z</time>
      </trkpt>
      <trkpt lat="44.47132" lon="6.26273">
        <ele>792</ele>
        <time>2021-09-02T07:14:22Z</time>
      </trkpt>
      <trkpt lat="44.47125" lon="6.26242">
        <ele>790.40002441406</ele>
        <time>2021-09-02T07:14:24Z</time>
      </trkpt>
      <trkpt lat="44.47121" lon="6.26217">
        <ele>788.79998779297</ele>
        <time>2021-09-02T07:14:26Z</time>
      </trkpt>
      <trkpt lat="44.47118" lon="6.26205">
        <ele>788</ele>
        <time>2021-09-02T07:14:27Z</time>
      </trkpt>
      <trkpt lat="44.47114" lon="6.26197">
        <ele>787</ele>
        <time>2021-09-02T07:14:28Z</time>
      </trkpt>
      <trkpt lat="44.47109" lon="6.26192">
        <ele>786</ele>
        <time>2021-09-02T07:14:29Z</time>
      </trkpt>
      <trkpt lat="44.47102" lon="6.26194">
        <ele>785</ele>
        <time>2021-09-02T07:14:30Z</time>
      </trkpt>
      <trkpt lat="44.47097" lon="6.26201">
        <ele>784</ele>
        <time>2021-09-02T07:14:31Z</time>
      </trkpt>
      <trkpt lat="44.47094" lon="6.26207">
        <ele>783.20001220703</ele>
        <time>2021-09-02T07:14:32Z</time>
      </trkpt>
      <trkpt lat="44.47096" lon="6.26217">
        <ele>782.59997558594</ele>
        <time>2021-09-02T07:14:33Z</time>
      </trkpt>
      <trkpt lat="44.471" lon="6.26225">
        <ele>782</ele>
        <time>2021-09-02T07:14:34Z</time>
      </trkpt>
      <trkpt lat="44.47104" lon="6.26234">
        <ele>781.40002441406</ele>
        <time>2021-09-02T07:14:35Z</time>
      </trkpt>
      <trkpt lat="44.47107" lon="6.26242">
        <ele>780.79998779297</ele>
        <time>2021-09-02T07:14:36Z</time>
      </trkpt>
      <trkpt lat="44.47115" lon="6.2628">
        <ele>779.40002441406</ele>
        <time>2021-09-02T07:14:40Z</time>
      </trkpt>
      <trkpt lat="44.47118" lon="6.26301">
        <ele>778.79998779297</ele>
        <time>2021-09-02T07:14:42Z</time>
      </trkpt>
      <trkpt lat="44.47118" lon="6.26313">
        <ele>778.40002441406</ele>
        <time>2021-09-02T07:14:43Z</time>
      </trkpt>
      <trkpt lat="44.47112" lon="6.26337">
        <ele>777.59997558594</ele>
        <time>2021-09-02T07:14:45Z</time>
      </trkpt>
      <trkpt lat="44.47107" lon="6.26348">
        <ele>777</ele>
        <time>2021-09-02T07:14:46Z</time>
      </trkpt>
      <trkpt lat="44.47095" lon="6.26367">
        <ele>776</ele>
        <time>2021-09-02T07:14:48Z</time>
      </trkpt>
      <trkpt lat="44.47087" lon="6.26376">
        <ele>775.59997558594</ele>
        <time>2021-09-02T07:14:49Z</time>
      </trkpt>
      <trkpt lat="44.4708" lon="6.26385">
        <ele>775</ele>
        <time>2021-09-02T07:14:50Z</time>
      </trkpt>
      <trkpt lat="44.47072" lon="6.26394">
        <ele>774.40002441406</ele>
        <time>2021-09-02T07:14:51Z</time>
      </trkpt>
      <trkpt lat="44.47055" lon="6.26412">
        <ele>773.20001220703</ele>
        <time>2021-09-02T07:14:53Z</time>
      </trkpt>
      <trkpt lat="44.47038" lon="6.2643">
        <ele>771.79998779297</ele>
        <time>2021-09-02T07:14:55Z</time>
      </trkpt>
      <trkpt lat="44.47021" lon="6.26449">
        <ele>770.59997558594</ele>
        <time>2021-09-02T07:14:57Z</time>
      </trkpt>
      <trkpt lat="44.47004" lon="6.26467">
        <ele>769</ele>
        <time>2021-09-02T07:14:59Z</time>
      </trkpt>
      <trkpt lat="44.46995" lon="6.26477">
        <ele>767.59997558594</ele>
        <time>2021-09-02T07:15:00Z</time>
      </trkpt>
      <trkpt lat="44.46987" lon="6.26486">
        <ele>766.79998779297</ele>
        <time>2021-09-02T07:15:01Z</time>
      </trkpt>
      <trkpt lat="44.46978" lon="6.26495">
        <ele>766</ele>
        <time>2021-09-02T07:15:02Z</time>
      </trkpt>
      <trkpt lat="44.46965" lon="6.26514">
        <ele>764.40002441406</ele>
        <time>2021-09-02T07:15:04Z</time>
      </trkpt>
      <trkpt lat="44.46961" lon="6.26526">
        <ele>763.59997558594</ele>
        <time>2021-09-02T07:15:05Z</time>
      </trkpt>
      <trkpt lat="44.4696" lon="6.2654">
        <ele>762.59997558594</ele>
        <time>2021-09-02T07:15:06Z</time>
      </trkpt>
      <trkpt lat="44.46962" lon="6.26553">
        <ele>761.79998779297</ele>
        <time>2021-09-02T07:15:07Z</time>
      </trkpt>
      <trkpt lat="44.46965" lon="6.26566">
        <ele>760.79998779297</ele>
        <time>2021-09-02T07:15:08Z</time>
      </trkpt>
      <trkpt lat="44.46971" lon="6.26576">
        <ele>760</ele>
        <time>2021-09-02T07:15:09Z</time>
      </trkpt>
      <trkpt lat="44.46979" lon="6.26584">
        <ele>759.20001220703</ele>
        <time>2021-09-02T07:15:10Z</time>
      </trkpt>
      <trkpt lat="44.46988" lon="6.26588">
        <ele>758.40002441406</ele>
        <time>2021-09-02T07:15:11Z</time>
      </trkpt>
      <trkpt lat="44.46998" lon="6.2659">
        <ele>757.59997558594</ele>
        <time>2021-09-02T07:15:12Z</time>
      </trkpt>
      <trkpt lat="44.47018" lon="6.26585">
        <ele>756.20001220703</ele>
        <time>2021-09-02T07:15:14Z</time>
      </trkpt>
      <trkpt lat="44.47028" lon="6.26581">
        <ele>755.40002441406</ele>
        <time>2021-09-02T07:15:15Z</time>
      </trkpt>
      <trkpt lat="44.47038" lon="6.26579">
        <ele>754.79998779297</ele>
        <time>2021-09-02T07:15:16Z</time>
      </trkpt>
      <trkpt lat="44.4706" lon="6.26573">
        <ele>753.40002441406</ele>
        <time>2021-09-02T07:15:18Z</time>
      </trkpt>
      <trkpt lat="44.47081" lon="6.26564">
        <ele>752</ele>
        <time>2021-09-02T07:15:20Z</time>
      </trkpt>
      <trkpt lat="44.47097" lon="6.26543">
        <ele>750.59997558594</ele>
        <time>2021-09-02T07:15:22Z</time>
      </trkpt>
      <trkpt lat="44.47106" lon="6.26514">
        <ele>748.20001220703</ele>
        <time>2021-09-02T07:15:24Z</time>
      </trkpt>
      <trkpt lat="44.47109" lon="6.26502">
        <ele>747.40002441406</ele>
        <time>2021-09-02T07:15:25Z</time>
      </trkpt>
      <trkpt lat="44.47114" lon="6.26492">
        <ele>746.40002441406</ele>
        <time>2021-09-02T07:15:26Z</time>
      </trkpt>
      <trkpt lat="44.4712" lon="6.26487">
        <ele>745.40002441406</ele>
        <time>2021-09-02T07:15:27Z</time>
      </trkpt>
      <trkpt lat="44.47128" lon="6.26489">
        <ele>744.40002441406</ele>
        <time>2021-09-02T07:15:28Z</time>
      </trkpt>
      <trkpt lat="44.47135" lon="6.26493">
        <ele>743.40002441406</ele>
        <time>2021-09-02T07:15:29Z</time>
      </trkpt>
      <trkpt lat="44.47142" lon="6.26514">
        <ele>741.59997558594</ele>
        <time>2021-09-02T07:15:31Z</time>
      </trkpt>
      <trkpt lat="44.47135" lon="6.26536">
        <ele>740.40002441406</ele>
        <time>2021-09-02T07:15:33Z</time>
      </trkpt>
      <trkpt lat="44.47123" lon="6.26554">
        <ele>739.20001220703</ele>
        <time>2021-09-02T07:15:35Z</time>
      </trkpt>
      <trkpt lat="44.47116" lon="6.26563">
        <ele>738.79998779297</ele>
        <time>2021-09-02T07:15:36Z</time>
      </trkpt>
      <trkpt lat="44.47103" lon="6.26583">
        <ele>737.79998779297</ele>
        <time>2021-09-02T07:15:38Z</time>
      </trkpt>
      <trkpt lat="44.47089" lon="6.26599">
        <ele>736.59997558594</ele>
        <time>2021-09-02T07:15:40Z</time>
      </trkpt>
      <trkpt lat="44.47079" lon="6.26603">
        <ele>736</ele>
        <time>2021-09-02T07:15:41Z</time>
      </trkpt>
      <trkpt lat="44.47069" lon="6.26605">
        <ele>735.40002441406</ele>
        <time>2021-09-02T07:15:42Z</time>
      </trkpt>
      <trkpt lat="44.47048" lon="6.26605">
        <ele>734.20001220703</ele>
        <time>2021-09-02T07:15:44Z</time>
      </trkpt>
      <trkpt lat="44.47037" lon="6.26608">
        <ele>733.40002441406</ele>
        <time>2021-09-02T07:15:45Z</time>
      </trkpt>
      <trkpt lat="44.47027" lon="6.26613">
        <ele>732.59997558594</ele>
        <time>2021-09-02T07:15:46Z</time>
      </trkpt>
      <trkpt lat="44.47016" lon="6.26618">
        <ele>731.79998779297</ele>
        <time>2021-09-02T07:15:47Z</time>
      </trkpt>
      <trkpt lat="44.47006" lon="6.26622">
        <ele>730</ele>
        <time>2021-09-02T07:15:48Z</time>
      </trkpt>
      <trkpt lat="44.46984" lon="6.26633">
        <ele>728.40002441406</ele>
        <time>2021-09-02T07:15:50Z</time>
      </trkpt>
      <trkpt lat="44.46962" lon="6.26644">
        <ele>726.79998779297</ele>
        <time>2021-09-02T07:15:52Z</time>
      </trkpt>
      <trkpt lat="44.46952" lon="6.26651">
        <ele>725.79998779297</ele>
        <time>2021-09-02T07:15:53Z</time>
      </trkpt>
      <trkpt lat="44.46944" lon="6.26662">
        <ele>725</ele>
        <time>2021-09-02T07:15:54Z</time>
      </trkpt>
      <trkpt lat="44.46937" lon="6.26674">
        <ele>724</ele>
        <time>2021-09-02T07:15:55Z</time>
      </trkpt>
      <trkpt lat="44.46931" lon="6.26685">
        <ele>723.20001220703</ele>
        <time>2021-09-02T07:15:56Z</time>
      </trkpt>
      <trkpt lat="44.46918" lon="6.267">
        <ele>721.40002441406</ele>
        <time>2021-09-02T07:15:58Z</time>
      </trkpt>
      <trkpt lat="44.46911" lon="6.267">
        <ele>720.79998779297</ele>
        <time>2021-09-02T07:15:59Z</time>
      </trkpt>
      <trkpt lat="44.46905" lon="6.26694">
        <ele>720.40002441406</ele>
        <time>2021-09-02T07:16:00Z</time>
      </trkpt>
      <trkpt lat="44.46901" lon="6.26685">
        <ele>720</ele>
        <time>2021-09-02T07:16:01Z</time>
      </trkpt>
      <trkpt lat="44.469" lon="6.26661">
        <ele>719.20001220703</ele>
        <time>2021-09-02T07:16:03Z</time>
      </trkpt>
      <trkpt lat="44.46898" lon="6.26649">
        <ele>718.79998779297</ele>
        <time>2021-09-02T07:16:04Z</time>
      </trkpt>
      <trkpt lat="44.46894" lon="6.26625">
        <ele>717.79998779297</ele>
        <time>2021-09-02T07:16:06Z</time>
      </trkpt>
      <trkpt lat="44.46889" lon="6.26598">
        <ele>716.79998779297</ele>
        <time>2021-09-02T07:16:08Z</time>
      </trkpt>
      <trkpt lat="44.46885" lon="6.2657">
        <ele>715.40002441406</ele>
        <time>2021-09-02T07:16:10Z</time>
      </trkpt>
      <trkpt lat="44.46883" lon="6.26541">
        <ele>713.40002441406</ele>
        <time>2021-09-02T07:16:12Z</time>
      </trkpt>
      <trkpt lat="44.46883" lon="6.26525">
        <ele>712.79998779297</ele>
        <time>2021-09-02T07:16:13Z</time>
      </trkpt>
      <trkpt lat="44.46883" lon="6.2651">
        <ele>712</ele>
        <time>2021-09-02T07:16:14Z</time>
      </trkpt>
      <trkpt lat="44.46886" lon="6.26478">
        <ele>710.40002441406</ele>
        <time>2021-09-02T07:16:16Z</time>
      </trkpt>
      <trkpt lat="44.46889" lon="6.26462">
        <ele>709.59997558594</ele>
        <time>2021-09-02T07:16:17Z</time>
      </trkpt>
      <trkpt lat="44.46892" lon="6.26446">
        <ele>708.79998779297</ele>
        <time>2021-09-02T07:16:18Z</time>
      </trkpt>
      <trkpt lat="44.46898" lon="6.26414">
        <ele>707.20001220703</ele>
        <time>2021-09-02T07:16:20Z</time>
      </trkpt>
      <trkpt lat="44.46905" lon="6.26382">
        <ele>705.40002441406</ele>
        <time>2021-09-02T07:16:22Z</time>
      </trkpt>
      <trkpt lat="44.46911" lon="6.26349">
        <ele>703.59997558594</ele>
        <time>2021-09-02T07:16:24Z</time>
      </trkpt>
      <trkpt lat="44.46912" lon="6.26315">
        <ele>701.79998779297</ele>
        <time>2021-09-02T07:16:26Z</time>
      </trkpt>
      <trkpt lat="44.46906" lon="6.2628">
        <ele>700.20001220703</ele>
        <time>2021-09-02T07:16:28Z</time>
      </trkpt>
      <trkpt lat="44.46901" lon="6.26263">
        <ele>699.20001220703</ele>
        <time>2021-09-02T07:16:29Z</time>
      </trkpt>
      <trkpt lat="44.46895" lon="6.26247">
        <ele>698</ele>
        <time>2021-09-02T07:16:30Z</time>
      </trkpt>
      <trkpt lat="44.46889" lon="6.26232">
        <ele>697</ele>
        <time>2021-09-02T07:16:31Z</time>
      </trkpt>
      <trkpt lat="44.46883" lon="6.26217">
        <ele>695.79998779297</ele>
        <time>2021-09-02T07:16:32Z</time>
      </trkpt>
      <trkpt lat="44.46877" lon="6.26202">
        <ele>695</ele>
        <time>2021-09-02T07:16:33Z</time>
      </trkpt>
      <trkpt lat="44.46871" lon="6.26189">
        <ele>694</ele>
        <time>2021-09-02T07:16:34Z</time>
      </trkpt>
      <trkpt lat="44.46867" lon="6.26175">
        <ele>693.20001220703</ele>
        <time>2021-09-02T07:16:35Z</time>
      </trkpt>
      <trkpt lat="44.46866" lon="6.26159">
        <ele>691.20001220703</ele>
        <time>2021-09-02T07:16:36Z</time>
      </trkpt>
      <trkpt lat="44.46866" lon="6.26143">
        <ele>690</ele>
        <time>2021-09-02T07:16:37Z</time>
      </trkpt>
      <trkpt lat="44.46866" lon="6.26127">
        <ele>688.79998779297</ele>
        <time>2021-09-02T07:16:38Z</time>
      </trkpt>
      <trkpt lat="44.46866" lon="6.26112">
        <ele>687.79998779297</ele>
        <time>2021-09-02T07:16:39Z</time>
      </trkpt>
      <trkpt lat="44.46866" lon="6.26081">
        <ele>685.79998779297</ele>
        <time>2021-09-02T07:16:41Z</time>
      </trkpt>
      <trkpt lat="44.46864" lon="6.26052">
        <ele>684</ele>
        <time>2021-09-02T07:16:43Z</time>
      </trkpt>
      <trkpt lat="44.46861" lon="6.26024">
        <ele>682.40002441406</ele>
        <time>2021-09-02T07:16:45Z</time>
      </trkpt>
      <trkpt lat="44.4686" lon="6.25999">
        <ele>681.20001220703</ele>
        <time>2021-09-02T07:16:47Z</time>
      </trkpt>
      <trkpt lat="44.46861" lon="6.25963">
        <ele>680.40002441406</ele>
        <time>2021-09-02T07:16:50Z</time>
      </trkpt>
      <trkpt lat="44.4686" lon="6.25931">
        <ele>680.20001220703</ele>
        <time>2021-09-02T07:16:53Z</time>
      </trkpt>
      <trkpt lat="44.46858" lon="6.25911">
        <ele>680.20001220703</ele>
        <time>2021-09-02T07:16:55Z</time>
      </trkpt>
      <trkpt lat="44.46847" lon="6.25855">
        <ele>679.79998779297</ele>
        <time>2021-09-02T07:17:01Z</time>
      </trkpt>
      <trkpt lat="44.4683" lon="6.25784">
        <ele>679.20001220703</ele>
        <time>2021-09-02T07:17:09Z</time>
      </trkpt>
      <trkpt lat="44.4682" lon="6.25751">
        <ele>679.20001220703</ele>
        <time>2021-09-02T07:17:13Z</time>
      </trkpt>
      <trkpt lat="44.46809" lon="6.25709">
        <ele>679</ele>
        <time>2021-09-02T07:17:18Z</time>
      </trkpt>
      <trkpt lat="44.46795" lon="6.25659">
        <ele>678.59997558594</ele>
        <time>2021-09-02T07:17:24Z</time>
      </trkpt>
      <trkpt lat="44.46784" lon="6.25596">
        <ele>678.40002441406</ele>
        <time>2021-09-02T07:17:31Z</time>
      </trkpt>
      <trkpt lat="44.46776" lon="6.25523">
        <ele>678.20001220703</ele>
        <time>2021-09-02T07:17:39Z</time>
      </trkpt>
      <trkpt lat="44.46769" lon="6.25468">
        <ele>678.20001220703</ele>
        <time>2021-09-02T07:17:46Z</time>
      </trkpt>
      <trkpt lat="44.46763" lon="6.25408">
        <ele>678.59997558594</ele>
        <time>2021-09-02T07:17:53Z</time>
      </trkpt>
      <trkpt lat="44.46754" lon="6.25329">
        <ele>677.20001220703</ele>
        <time>2021-09-02T07:18:01Z</time>
      </trkpt>
      <trkpt lat="44.46753" lon="6.25319">
        <ele>677</ele>
        <time>2021-09-02T07:18:02Z</time>
      </trkpt>
      <trkpt lat="44.46744" lon="6.25245">
        <ele>676.40002441406</ele>
        <time>2021-09-02T07:18:10Z</time>
      </trkpt>
      <trkpt lat="44.46735" lon="6.25191">
        <ele>676.20001220703</ele>
        <time>2021-09-02T07:18:16Z</time>
      </trkpt>
      <trkpt lat="44.46732" lon="6.25175">
        <ele>676</ele>
        <time>2021-09-02T07:18:18Z</time>
      </trkpt>
      <trkpt lat="44.46721" lon="6.25127">
        <ele>676</ele>
        <time>2021-09-02T07:18:24Z</time>
      </trkpt>
      <trkpt lat="44.46717" lon="6.25113">
        <ele>676</ele>
        <time>2021-09-02T07:18:26Z</time>
      </trkpt>
      <trkpt lat="44.46708" lon="6.25085">
        <ele>676.20001220703</ele>
        <time>2021-09-02T07:18:30Z</time>
      </trkpt>
      <trkpt lat="44.4669" lon="6.25029">
        <ele>676.20001220703</ele>
        <time>2021-09-02T07:18:38Z</time>
      </trkpt>
      <trkpt lat="44.46671" lon="6.24977">
        <ele>676.20001220703</ele>
        <time>2021-09-02T07:18:45Z</time>
      </trkpt>
      <trkpt lat="44.46669" lon="6.2496">
        <ele>676</ele>
        <time>2021-09-02T07:18:47Z</time>
      </trkpt>
      <trkpt lat="44.46664" lon="6.24934">
        <ele>676</ele>
        <time>2021-09-02T07:18:50Z</time>
      </trkpt>
      <trkpt lat="44.4665" lon="6.24858">
        <ele>675.59997558594</ele>
        <time>2021-09-02T07:18:59Z</time>
      </trkpt>
      <trkpt lat="44.46647" lon="6.24841">
        <ele>675.40002441406</ele>
        <time>2021-09-02T07:19:01Z</time>
      </trkpt>
      <trkpt lat="44.46632" lon="6.24764">
        <ele>675.20001220703</ele>
        <time>2021-09-02T07:19:10Z</time>
      </trkpt>
      <trkpt lat="44.46627" lon="6.24737">
        <ele>675</ele>
        <time>2021-09-02T07:19:13Z</time>
      </trkpt>
      <trkpt lat="44.46621" lon="6.24703">
        <ele>674.79998779297</ele>
        <time>2021-09-02T07:19:17Z</time>
      </trkpt>
      <trkpt lat="44.46613" lon="6.24638">
        <ele>674.79998779297</ele>
        <time>2021-09-02T07:19:25Z</time>
      </trkpt>
      <trkpt lat="44.46616" lon="6.24591">
        <ele>675.20001220703</ele>
        <time>2021-09-02T07:19:31Z</time>
      </trkpt>
      <trkpt lat="44.46619" lon="6.24545">
        <ele>675.59997558594</ele>
        <time>2021-09-02T07:19:37Z</time>
      </trkpt>
      <trkpt lat="44.46621" lon="6.24523">
        <ele>676.20001220703</ele>
        <time>2021-09-02T07:19:40Z</time>
      </trkpt>
      <trkpt lat="44.46625" lon="6.2448">
        <ele>676.79998779297</ele>
        <time>2021-09-02T07:19:46Z</time>
      </trkpt>
      <trkpt lat="44.46628" lon="6.24451">
        <ele>677.20001220703</ele>
        <time>2021-09-02T07:19:50Z</time>
      </trkpt>
      <trkpt lat="44.46631" lon="6.24409">
        <ele>677.79998779297</ele>
        <time>2021-09-02T07:19:56Z</time>
      </trkpt>
      <trkpt lat="44.46632" lon="6.24374">
        <ele>678.20001220703</ele>
        <time>2021-09-02T07:20:01Z</time>
      </trkpt>
      <trkpt lat="44.46635" lon="6.24353">
        <ele>678.59997558594</ele>
        <time>2021-09-02T07:20:04Z</time>
      </trkpt>
      <trkpt lat="44.4664" lon="6.24291">
        <ele>678.59997558594</ele>
        <time>2021-09-02T07:20:12Z</time>
      </trkpt>
      <trkpt lat="44.46646" lon="6.24212">
        <ele>677.59997558594</ele>
        <time>2021-09-02T07:20:21Z</time>
      </trkpt>
      <trkpt lat="44.46649" lon="6.24174">
        <ele>677.20001220703</ele>
        <time>2021-09-02T07:20:25Z</time>
      </trkpt>
      <trkpt lat="44.46652" lon="6.24107">
        <ele>676.20001220703</ele>
        <time>2021-09-02T07:20:32Z</time>
      </trkpt>
      <trkpt lat="44.46651" lon="6.24089">
        <ele>676</ele>
        <time>2021-09-02T07:20:34Z</time>
      </trkpt>
      <trkpt lat="44.46647" lon="6.24045">
        <ele>675.59997558594</ele>
        <time>2021-09-02T07:20:39Z</time>
      </trkpt>
      <trkpt lat="44.46634" lon="6.2398">
        <ele>675.20001220703</ele>
        <time>2021-09-02T07:20:47Z</time>
      </trkpt>
      <trkpt lat="44.46615" lon="6.23912">
        <ele>675</ele>
        <time>2021-09-02T07:20:56Z</time>
      </trkpt>
      <trkpt lat="44.46613" lon="6.23904">
        <ele>675</ele>
        <time>2021-09-02T07:20:57Z</time>
      </trkpt>
      <trkpt lat="44.46595" lon="6.23837">
        <ele>675</ele>
        <time>2021-09-02T07:21:06Z</time>
      </trkpt>
      <trkpt lat="44.46583" lon="6.23776">
        <ele>674.79998779297</ele>
        <time>2021-09-02T07:21:14Z</time>
      </trkpt>
      <trkpt lat="44.46569" lon="6.23701">
        <ele>675.20001220703</ele>
        <time>2021-09-02T07:21:24Z</time>
      </trkpt>
      <trkpt lat="44.46556" lon="6.23635">
        <ele>675</ele>
        <time>2021-09-02T07:21:33Z</time>
      </trkpt>
      <trkpt lat="44.46544" lon="6.23577">
        <ele>675.20001220703</ele>
        <time>2021-09-02T07:21:42Z</time>
      </trkpt>
      <trkpt lat="44.46533" lon="6.23523">
        <ele>675.79998779297</ele>
        <time>2021-09-02T07:21:51Z</time>
      </trkpt>
      <trkpt lat="44.46526" lon="6.235">
        <ele>676</ele>
        <time>2021-09-02T07:21:55Z</time>
      </trkpt>
      <trkpt lat="44.46526" lon="6.23494">
        <ele>676.20001220703</ele>
        <time>2021-09-02T07:21:56Z</time>
      </trkpt>
      <trkpt lat="44.46525" lon="6.23483">
        <ele>676.40002441406</ele>
        <time>2021-09-02T07:21:58Z</time>
      </trkpt>
      <trkpt lat="44.46523" lon="6.23478">
        <ele>676.40002441406</ele>
        <time>2021-09-02T07:21:59Z</time>
      </trkpt>
      <trkpt lat="44.46516" lon="6.23473">
        <ele>676.59997558594</ele>
        <time>2021-09-02T07:22:01Z</time>
      </trkpt>
      <trkpt lat="44.46504" lon="6.23483">
        <ele>676.79998779297</ele>
        <time>2021-09-02T07:22:04Z</time>
      </trkpt>
      <trkpt lat="44.46489" lon="6.23505">
        <ele>677</ele>
        <time>2021-09-02T07:22:08Z</time>
      </trkpt>
      <trkpt lat="44.46479" lon="6.23512">
        <ele>677</ele>
        <time>2021-09-02T07:22:10Z</time>
      </trkpt>
      <trkpt lat="44.46463" lon="6.23521">
        <ele>676.79998779297</ele>
        <time>2021-09-02T07:22:13Z</time>
      </trkpt>
      <trkpt lat="44.46427" lon="6.2354">
        <ele>676.59997558594</ele>
        <time>2021-09-02T07:22:20Z</time>
      </trkpt>
      <trkpt lat="44.46376" lon="6.23569">
        <ele>676.79998779297</ele>
        <time>2021-09-02T07:22:30Z</time>
      </trkpt>
      <trkpt lat="44.46365" lon="6.23573">
        <ele>676.79998779297</ele>
        <time>2021-09-02T07:22:32Z</time>
      </trkpt>
      <trkpt lat="44.46345" lon="6.23584">
        <ele>676.59997558594</ele>
        <time>2021-09-02T07:22:36Z</time>
      </trkpt>
      <trkpt lat="44.463" lon="6.2361">
        <ele>676.59997558594</ele>
        <time>2021-09-02T07:22:45Z</time>
      </trkpt>
      <trkpt lat="44.46269" lon="6.23626">
        <ele>676.59997558594</ele>
        <time>2021-09-02T07:22:52Z</time>
      </trkpt>
      <trkpt lat="44.46261" lon="6.2363">
        <ele>676.59997558594</ele>
        <time>2021-09-02T07:22:54Z</time>
      </trkpt>
      <trkpt lat="44.46239" lon="6.23642">
        <ele>676.59997558594</ele>
        <time>2021-09-02T07:22:59Z</time>
      </trkpt>
      <trkpt lat="44.46205" lon="6.23657">
        <ele>676.79998779297</ele>
        <time>2021-09-02T07:23:06Z</time>
      </trkpt>
      <trkpt lat="44.46155" lon="6.23681">
        <ele>676.79998779297</ele>
        <time>2021-09-02T07:23:16Z</time>
      </trkpt>
      <trkpt lat="44.46104" lon="6.23706">
        <ele>677</ele>
        <time>2021-09-02T07:23:26Z</time>
      </trkpt>
      <trkpt lat="44.46099" lon="6.23708">
        <ele>677.20001220703</ele>
        <time>2021-09-02T07:23:27Z</time>
      </trkpt>
      <trkpt lat="44.46059" lon="6.23728">
        <ele>677.79998779297</ele>
        <time>2021-09-02T07:23:36Z</time>
      </trkpt>
      <trkpt lat="44.46051" lon="6.23732">
        <ele>678.20001220703</ele>
        <time>2021-09-02T07:23:38Z</time>
      </trkpt>
      <trkpt lat="44.4603" lon="6.23741">
        <ele>679</ele>
        <time>2021-09-02T07:23:44Z</time>
      </trkpt>
      <trkpt lat="44.46027" lon="6.23743">
        <ele>679.20001220703</ele>
        <time>2021-09-02T07:23:45Z</time>
      </trkpt>
      <trkpt lat="44.46008" lon="6.23753">
        <ele>680.20001220703</ele>
        <time>2021-09-02T07:23:51Z</time>
      </trkpt>
      <trkpt lat="44.46005" lon="6.23755">
        <ele>680.40002441406</ele>
        <time>2021-09-02T07:23:52Z</time>
      </trkpt>
      <trkpt lat="44.45983" lon="6.23767">
        <ele>681.20001220703</ele>
        <time>2021-09-02T07:23:59Z</time>
      </trkpt>
      <trkpt lat="44.4598" lon="6.23768">
        <ele>681.40002441406</ele>
        <time>2021-09-02T07:24:00Z</time>
      </trkpt>
      <trkpt lat="44.4596" lon="6.23781">
        <ele>682.40002441406</ele>
        <time>2021-09-02T07:24:07Z</time>
      </trkpt>
      <trkpt lat="44.45941" lon="6.23795">
        <ele>683.40002441406</ele>
        <time>2021-09-02T07:24:14Z</time>
      </trkpt>
      <trkpt lat="44.45932" lon="6.23801">
        <ele>683.79998779297</ele>
        <time>2021-09-02T07:24:17Z</time>
      </trkpt>
      <trkpt lat="44.45918" lon="6.23812">
        <ele>684.40002441406</ele>
        <time>2021-09-02T07:24:22Z</time>
      </trkpt>
      <trkpt lat="44.45902" lon="6.23826">
        <ele>685.40002441406</ele>
        <time>2021-09-02T07:24:28Z</time>
      </trkpt>
      <trkpt lat="44.45896" lon="6.2383">
        <ele>685.59997558594</ele>
        <time>2021-09-02T07:24:30Z</time>
      </trkpt>
      <trkpt lat="44.45885" lon="6.23841">
        <ele>686</ele>
        <time>2021-09-02T07:24:34Z</time>
      </trkpt>
      <trkpt lat="44.45864" lon="6.23862">
        <ele>686.59997558594</ele>
        <time>2021-09-02T07:24:42Z</time>
      </trkpt>
      <trkpt lat="44.45856" lon="6.23869">
        <ele>686.79998779297</ele>
        <time>2021-09-02T07:24:45Z</time>
      </trkpt>
      <trkpt lat="44.45832" lon="6.23893">
        <ele>687.40002441406</ele>
        <time>2021-09-02T07:24:54Z</time>
      </trkpt>
      <trkpt lat="44.4582" lon="6.23906">
        <ele>687.59997558594</ele>
        <time>2021-09-02T07:24:58Z</time>
      </trkpt>
      <trkpt lat="44.45806" lon="6.23921">
        <ele>687.79998779297</ele>
        <time>2021-09-02T07:25:03Z</time>
      </trkpt>
      <trkpt lat="44.45778" lon="6.2395">
        <ele>687.79998779297</ele>
        <time>2021-09-02T07:25:13Z</time>
      </trkpt>
      <trkpt lat="44.45762" lon="6.23977">
        <ele>688.40002441406</ele>
        <time>2021-09-02T07:25:21Z</time>
      </trkpt>
      <trkpt lat="44.45759" lon="6.23985">
        <ele>688.59997558594</ele>
        <time>2021-09-02T07:25:23Z</time>
      </trkpt>
      <trkpt lat="44.45749" lon="6.24013">
        <ele>689.59997558594</ele>
        <time>2021-09-02T07:25:30Z</time>
      </trkpt>
      <trkpt lat="44.45747" lon="6.24021">
        <ele>689.59997558594</ele>
        <time>2021-09-02T07:25:32Z</time>
      </trkpt>
      <trkpt lat="44.45744" lon="6.24045">
        <ele>690.59997558594</ele>
        <time>2021-09-02T07:25:38Z</time>
      </trkpt>
      <trkpt lat="44.45744" lon="6.24048">
        <ele>690.79998779297</ele>
        <time>2021-09-02T07:25:39Z</time>
      </trkpt>
      <trkpt lat="44.45743" lon="6.2407">
        <ele>691.59997558594</ele>
        <time>2021-09-02T07:25:45Z</time>
      </trkpt>
      <trkpt lat="44.45743" lon="6.24074">
        <ele>691.79998779297</ele>
        <time>2021-09-02T07:25:46Z</time>
      </trkpt>
      <trkpt lat="44.45743" lon="6.24095">
        <ele>692.79998779297</ele>
        <time>2021-09-02T07:25:52Z</time>
      </trkpt>
      <trkpt lat="44.45743" lon="6.24099">
        <ele>692.79998779297</ele>
        <time>2021-09-02T07:25:53Z</time>
      </trkpt>
      <trkpt lat="44.45743" lon="6.24119">
        <ele>693.79998779297</ele>
        <time>2021-09-02T07:25:59Z</time>
      </trkpt>
      <trkpt lat="44.45743" lon="6.24123">
        <ele>694</ele>
        <time>2021-09-02T07:26:00Z</time>
      </trkpt>
      <trkpt lat="44.45744" lon="6.2415">
        <ele>695</ele>
        <time>2021-09-02T07:26:08Z</time>
      </trkpt>
      <trkpt lat="44.45744" lon="6.24153">
        <ele>695.20001220703</ele>
        <time>2021-09-02T07:26:09Z</time>
      </trkpt>
      <trkpt lat="44.45745" lon="6.2417">
        <ele>696.20001220703</ele>
        <time>2021-09-02T07:26:14Z</time>
      </trkpt>
      <trkpt lat="44.45746" lon="6.24181">
        <ele>696.40002441406</ele>
        <time>2021-09-02T07:26:17Z</time>
      </trkpt>
      <trkpt lat="44.45748" lon="6.242">
        <ele>697.20001220703</ele>
        <time>2021-09-02T07:26:23Z</time>
      </trkpt>
      <trkpt lat="44.45749" lon="6.24206">
        <ele>697.40002441406</ele>
        <time>2021-09-02T07:26:25Z</time>
      </trkpt>
      <trkpt lat="44.45752" lon="6.24222">
        <ele>698.20001220703</ele>
        <time>2021-09-02T07:26:30Z</time>
      </trkpt>
      <trkpt lat="44.45753" lon="6.24229">
        <ele>698.40002441406</ele>
        <time>2021-09-02T07:26:32Z</time>
      </trkpt>
      <trkpt lat="44.45758" lon="6.24245">
        <ele>699.40002441406</ele>
        <time>2021-09-02T07:26:37Z</time>
      </trkpt>
      <trkpt lat="44.45761" lon="6.24258">
        <ele>700</ele>
        <time>2021-09-02T07:26:41Z</time>
      </trkpt>
      <trkpt lat="44.45763" lon="6.24267">
        <ele>700.40002441406</ele>
        <time>2021-09-02T07:26:44Z</time>
      </trkpt>
      <trkpt lat="44.45769" lon="6.24286">
        <ele>701.20001220703</ele>
        <time>2021-09-02T07:26:50Z</time>
      </trkpt>
      <trkpt lat="44.45771" lon="6.24293">
        <ele>701.59997558594</ele>
        <time>2021-09-02T07:26:52Z</time>
      </trkpt>
      <trkpt lat="44.45776" lon="6.24311">
        <ele>702.20001220703</ele>
        <time>2021-09-02T07:26:58Z</time>
      </trkpt>
      <trkpt lat="44.45779" lon="6.24321">
        <ele>702.79998779297</ele>
        <time>2021-09-02T07:27:01Z</time>
      </trkpt>
      <trkpt lat="44.45785" lon="6.24343">
        <ele>703.79998779297</ele>
        <time>2021-09-02T07:27:08Z</time>
      </trkpt>
      <trkpt lat="44.45791" lon="6.24364">
        <ele>704.59997558594</ele>
        <time>2021-09-02T07:27:15Z</time>
      </trkpt>
      <trkpt lat="44.45793" lon="6.24371">
        <ele>704.79998779297</ele>
        <time>2021-09-02T07:27:17Z</time>
      </trkpt>
      <trkpt lat="44.458" lon="6.24395">
        <ele>706.20001220703</ele>
        <time>2021-09-02T07:27:25Z</time>
      </trkpt>
      <trkpt lat="44.45801" lon="6.24399">
        <ele>706.40002441406</ele>
        <time>2021-09-02T07:27:26Z</time>
      </trkpt>
      <trkpt lat="44.45806" lon="6.24417">
        <ele>707.20001220703</ele>
        <time>2021-09-02T07:27:32Z</time>
      </trkpt>
      <trkpt lat="44.45809" lon="6.24427">
        <ele>707.59997558594</ele>
        <time>2021-09-02T07:27:35Z</time>
      </trkpt>
      <trkpt lat="44.45812" lon="6.24437">
        <ele>708</ele>
        <time>2021-09-02T07:27:38Z</time>
      </trkpt>
      <trkpt lat="44.45814" lon="6.24443">
        <ele>708.20001220703</ele>
        <time>2021-09-02T07:27:40Z</time>
      </trkpt>
      <trkpt lat="44.45818" lon="6.24459">
        <ele>709</ele>
        <time>2021-09-02T07:27:45Z</time>
      </trkpt>
      <trkpt lat="44.4582" lon="6.24466">
        <ele>709.40002441406</ele>
        <time>2021-09-02T07:27:47Z</time>
      </trkpt>
      <trkpt lat="44.45826" lon="6.24486">
        <ele>710.40002441406</ele>
        <time>2021-09-02T07:27:53Z</time>
      </trkpt>
      <trkpt lat="44.45828" lon="6.24493">
        <ele>710.59997558594</ele>
        <time>2021-09-02T07:27:55Z</time>
      </trkpt>
      <trkpt lat="44.45832" lon="6.24509">
        <ele>711.40002441406</ele>
        <time>2021-09-02T07:28:00Z</time>
      </trkpt>
      <trkpt lat="44.45835" lon="6.24519">
        <ele>712.20001220703</ele>
        <time>2021-09-02T07:28:03Z</time>
      </trkpt>
      <trkpt lat="44.45837" lon="6.24525">
        <ele>712.40002441406</ele>
        <time>2021-09-02T07:28:05Z</time>
      </trkpt>
      <trkpt lat="44.45842" lon="6.2454">
        <ele>713</ele>
        <time>2021-09-02T07:28:10Z</time>
      </trkpt>
      <trkpt lat="44.45843" lon="6.2455">
        <ele>713.59997558594</ele>
        <time>2021-09-02T07:28:13Z</time>
      </trkpt>
      <trkpt lat="44.45846" lon="6.24569">
        <ele>714.59997558594</ele>
        <time>2021-09-02T07:28:19Z</time>
      </trkpt>
      <trkpt lat="44.45845" lon="6.24573">
        <ele>714.59997558594</ele>
        <time>2021-09-02T07:28:20Z</time>
      </trkpt>
      <trkpt lat="44.45846" lon="6.24586">
        <ele>715.20001220703</ele>
        <time>2021-09-02T07:28:24Z</time>
      </trkpt>
      <trkpt lat="44.45846" lon="6.24589">
        <ele>715.40002441406</ele>
        <time>2021-09-02T07:28:25Z</time>
      </trkpt>
      <trkpt lat="44.45845" lon="6.246">
        <ele>715.79998779297</ele>
        <time>2021-09-02T07:28:28Z</time>
      </trkpt>
      <trkpt lat="44.45844" lon="6.2462">
        <ele>716.59997558594</ele>
        <time>2021-09-02T07:28:34Z</time>
      </trkpt>
      <trkpt lat="44.45844" lon="6.24627">
        <ele>717</ele>
        <time>2021-09-02T07:28:36Z</time>
      </trkpt>
      <trkpt lat="44.45843" lon="6.24647">
        <ele>718</ele>
        <time>2021-09-02T07:28:42Z</time>
      </trkpt>
      <trkpt lat="44.45843" lon="6.2465">
        <ele>718.20001220703</ele>
        <time>2021-09-02T07:28:43Z</time>
      </trkpt>
      <trkpt lat="44.45844" lon="6.24669">
        <ele>719.20001220703</ele>
        <time>2021-09-02T07:28:49Z</time>
      </trkpt>
      <trkpt lat="44.45844" lon="6.24675">
        <ele>719.40002441406</ele>
        <time>2021-09-02T07:28:51Z</time>
      </trkpt>
      <trkpt lat="44.45847" lon="6.24695">
        <ele>720.20001220703</ele>
        <time>2021-09-02T07:28:57Z</time>
      </trkpt>
      <trkpt lat="44.45848" lon="6.24698">
        <ele>720.40002441406</ele>
        <time>2021-09-02T07:28:58Z</time>
      </trkpt>
      <trkpt lat="44.45852" lon="6.24713">
        <ele>721.20001220703</ele>
        <time>2021-09-02T07:29:03Z</time>
      </trkpt>
      <trkpt lat="44.45855" lon="6.24723">
        <ele>721.59997558594</ele>
        <time>2021-09-02T07:29:06Z</time>
      </trkpt>
      <trkpt lat="44.45861" lon="6.24741">
        <ele>722.20001220703</ele>
        <time>2021-09-02T07:29:12Z</time>
      </trkpt>
      <trkpt lat="44.45862" lon="6.24744">
        <ele>722.40002441406</ele>
        <time>2021-09-02T07:29:13Z</time>
      </trkpt>
      <trkpt lat="44.45868" lon="6.24766">
        <ele>723.40002441406</ele>
        <time>2021-09-02T07:29:20Z</time>
      </trkpt>
      <trkpt lat="44.45872" lon="6.24778">
        <ele>724</ele>
        <time>2021-09-02T07:29:24Z</time>
      </trkpt>
      <trkpt lat="44.45874" lon="6.24784">
        <ele>724.40002441406</ele>
        <time>2021-09-02T07:29:26Z</time>
      </trkpt>
      <trkpt lat="44.45879" lon="6.24806">
        <ele>725.40002441406</ele>
        <time>2021-09-02T07:29:33Z</time>
      </trkpt>
      <trkpt lat="44.45883" lon="6.24827">
        <ele>726.40002441406</ele>
        <time>2021-09-02T07:29:40Z</time>
      </trkpt>
      <trkpt lat="44.45884" lon="6.24833">
        <ele>726.59997558594</ele>
        <time>2021-09-02T07:29:42Z</time>
      </trkpt>
      <trkpt lat="44.45885" lon="6.24852">
        <ele>727.59997558594</ele>
        <time>2021-09-02T07:29:48Z</time>
      </trkpt>
      <trkpt lat="44.45885" lon="6.24862">
        <ele>728.20001220703</ele>
        <time>2021-09-02T07:29:51Z</time>
      </trkpt>
      <trkpt lat="44.45886" lon="6.24875">
        <ele>728.59997558594</ele>
        <time>2021-09-02T07:29:55Z</time>
      </trkpt>
      <trkpt lat="44.45886" lon="6.24888">
        <ele>729.20001220703</ele>
        <time>2021-09-02T07:29:59Z</time>
      </trkpt>
      <trkpt lat="44.45886" lon="6.24898">
        <ele>729.79998779297</ele>
        <time>2021-09-02T07:30:02Z</time>
      </trkpt>
      <trkpt lat="44.45887" lon="6.2492">
        <ele>730.79998779297</ele>
        <time>2021-09-02T07:30:09Z</time>
      </trkpt>
      <trkpt lat="44.45887" lon="6.24923">
        <ele>730.79998779297</ele>
        <time>2021-09-02T07:30:10Z</time>
      </trkpt>
      <trkpt lat="44.45891" lon="6.24944">
        <ele>732</ele>
        <time>2021-09-02T07:30:17Z</time>
      </trkpt>
      <trkpt lat="44.45897" lon="6.24966">
        <ele>733</ele>
        <time>2021-09-02T07:30:24Z</time>
      </trkpt>
      <trkpt lat="44.45898" lon="6.24969">
        <ele>733</ele>
        <time>2021-09-02T07:30:25Z</time>
      </trkpt>
      <trkpt lat="44.45906" lon="6.24992">
        <ele>734</ele>
        <time>2021-09-02T07:30:33Z</time>
      </trkpt>
      <trkpt lat="44.45913" lon="6.25013">
        <ele>735</ele>
        <time>2021-09-02T07:30:40Z</time>
      </trkpt>
      <trkpt lat="44.45916" lon="6.25022">
        <ele>735.40002441406</ele>
        <time>2021-09-02T07:30:43Z</time>
      </trkpt>
      <trkpt lat="44.4592" lon="6.2504">
        <ele>736.20001220703</ele>
        <time>2021-09-02T07:30:49Z</time>
      </trkpt>
      <trkpt lat="44.45923" lon="6.25052">
        <ele>736.79998779297</ele>
        <time>2021-09-02T07:30:53Z</time>
      </trkpt>
      <trkpt lat="44.45927" lon="6.25064">
        <ele>737.20001220703</ele>
        <time>2021-09-02T07:30:57Z</time>
      </trkpt>
      <trkpt lat="44.4593" lon="6.25074">
        <ele>737.59997558594</ele>
        <time>2021-09-02T07:31:00Z</time>
      </trkpt>
      <trkpt lat="44.45932" lon="6.25086">
        <ele>738.20001220703</ele>
        <time>2021-09-02T07:31:04Z</time>
      </trkpt>
      <trkpt lat="44.45936" lon="6.251">
        <ele>739</ele>
        <time>2021-09-02T07:31:09Z</time>
      </trkpt>
      <trkpt lat="44.45938" lon="6.2511">
        <ele>739.40002441406</ele>
        <time>2021-09-02T07:31:12Z</time>
      </trkpt>
      <trkpt lat="44.45943" lon="6.25125">
        <ele>740</ele>
        <time>2021-09-02T07:31:17Z</time>
      </trkpt>
      <trkpt lat="44.45945" lon="6.25134">
        <ele>740.40002441406</ele>
        <time>2021-09-02T07:31:20Z</time>
      </trkpt>
      <trkpt lat="44.4595" lon="6.25152">
        <ele>741.20001220703</ele>
        <time>2021-09-02T07:31:26Z</time>
      </trkpt>
      <trkpt lat="44.45952" lon="6.25158">
        <ele>741.59997558594</ele>
        <time>2021-09-02T07:31:28Z</time>
      </trkpt>
      <trkpt lat="44.45957" lon="6.2518">
        <ele>742.40002441406</ele>
        <time>2021-09-02T07:31:35Z</time>
      </trkpt>
      <trkpt lat="44.45958" lon="6.25183">
        <ele>742.59997558594</ele>
        <time>2021-09-02T07:31:36Z</time>
      </trkpt>
      <trkpt lat="44.45964" lon="6.25204">
        <ele>743.59997558594</ele>
        <time>2021-09-02T07:31:43Z</time>
      </trkpt>
      <trkpt lat="44.45969" lon="6.25223">
        <ele>744.59997558594</ele>
        <time>2021-09-02T07:31:49Z</time>
      </trkpt>
      <trkpt lat="44.45971" lon="6.25229">
        <ele>744.79998779297</ele>
        <time>2021-09-02T07:31:51Z</time>
      </trkpt>
      <trkpt lat="44.45976" lon="6.25248">
        <ele>745.79998779297</ele>
        <time>2021-09-02T07:31:57Z</time>
      </trkpt>
      <trkpt lat="44.45977" lon="6.25251">
        <ele>746</ele>
        <time>2021-09-02T07:31:58Z</time>
      </trkpt>
      <trkpt lat="44.45983" lon="6.25274">
        <ele>746.79998779297</ele>
        <time>2021-09-02T07:32:06Z</time>
      </trkpt>
      <trkpt lat="44.45991" lon="6.25293">
        <ele>748</ele>
        <time>2021-09-02T07:32:13Z</time>
      </trkpt>
      <trkpt lat="44.45995" lon="6.25311">
        <ele>748.79998779297</ele>
        <time>2021-09-02T07:32:19Z</time>
      </trkpt>
      <trkpt lat="44.45996" lon="6.25314">
        <ele>749</ele>
        <time>2021-09-02T07:32:20Z</time>
      </trkpt>
      <trkpt lat="44.46002" lon="6.25336">
        <ele>750</ele>
        <time>2021-09-02T07:32:27Z</time>
      </trkpt>
      <trkpt lat="44.46005" lon="6.25341">
        <ele>750.40002441406</ele>
        <time>2021-09-02T07:32:29Z</time>
      </trkpt>
      <trkpt lat="44.46011" lon="6.25363">
        <ele>751.20001220703</ele>
        <time>2021-09-02T07:32:36Z</time>
      </trkpt>
      <trkpt lat="44.46017" lon="6.25384">
        <ele>752.20001220703</ele>
        <time>2021-09-02T07:32:43Z</time>
      </trkpt>
      <trkpt lat="44.46018" lon="6.25387">
        <ele>752.40002441406</ele>
        <time>2021-09-02T07:32:44Z</time>
      </trkpt>
      <trkpt lat="44.46024" lon="6.25404">
        <ele>753.40002441406</ele>
        <time>2021-09-02T07:32:50Z</time>
      </trkpt>
      <trkpt lat="44.46027" lon="6.25416">
        <ele>754</ele>
        <time>2021-09-02T07:32:54Z</time>
      </trkpt>
      <trkpt lat="44.46032" lon="6.25427">
        <ele>754.40002441406</ele>
        <time>2021-09-02T07:32:58Z</time>
      </trkpt>
      <trkpt lat="44.46035" lon="6.25436">
        <ele>755</ele>
        <time>2021-09-02T07:33:01Z</time>
      </trkpt>
      <trkpt lat="44.46039" lon="6.25451">
        <ele>755.59997558594</ele>
        <time>2021-09-02T07:33:06Z</time>
      </trkpt>
      <trkpt lat="44.46041" lon="6.25457">
        <ele>755.79998779297</ele>
        <time>2021-09-02T07:33:08Z</time>
      </trkpt>
      <trkpt lat="44.46046" lon="6.25473">
        <ele>756.79998779297</ele>
        <time>2021-09-02T07:33:14Z</time>
      </trkpt>
      <trkpt lat="44.46047" lon="6.25479">
        <ele>757</ele>
        <time>2021-09-02T07:33:16Z</time>
      </trkpt>
      <trkpt lat="44.46051" lon="6.25497">
        <ele>757.79998779297</ele>
        <time>2021-09-02T07:33:22Z</time>
      </trkpt>
      <trkpt lat="44.46058" lon="6.25518">
        <ele>758.79998779297</ele>
        <time>2021-09-02T07:33:29Z</time>
      </trkpt>
      <trkpt lat="44.46059" lon="6.2552">
        <ele>759</ele>
        <time>2021-09-02T07:33:30Z</time>
      </trkpt>
      <trkpt lat="44.46065" lon="6.25546">
        <ele>759.79998779297</ele>
        <time>2021-09-02T07:33:38Z</time>
      </trkpt>
      <trkpt lat="44.46067" lon="6.25553">
        <ele>760</ele>
        <time>2021-09-02T07:33:40Z</time>
      </trkpt>
      <trkpt lat="44.46075" lon="6.25584">
        <ele>761</ele>
        <time>2021-09-02T07:33:49Z</time>
      </trkpt>
      <trkpt lat="44.46075" lon="6.25587">
        <ele>761.20001220703</ele>
        <time>2021-09-02T07:33:50Z</time>
      </trkpt>
      <trkpt lat="44.46078" lon="6.25604">
        <ele>761.79998779297</ele>
        <time>2021-09-02T07:33:56Z</time>
      </trkpt>
      <trkpt lat="44.46078" lon="6.25608">
        <ele>762</ele>
        <time>2021-09-02T07:33:58Z</time>
      </trkpt>
      <trkpt lat="44.4608" lon="6.25633">
        <ele>763</ele>
        <time>2021-09-02T07:34:08Z</time>
      </trkpt>
      <trkpt lat="44.46158" lon="6.25898">
        <ele>770.40002441406</ele>
        <time>2021-09-02T07:35:15Z</time>
      </trkpt>
      <trkpt lat="44.46162" lon="6.25917">
        <ele>770.79998779297</ele>
        <time>2021-09-02T07:35:19Z</time>
      </trkpt>
      <trkpt lat="44.46168" lon="6.25938">
        <ele>771.59997558594</ele>
        <time>2021-09-02T07:35:25Z</time>
      </trkpt>
      <trkpt lat="44.46171" lon="6.25946">
        <ele>771.79998779297</ele>
        <time>2021-09-02T07:35:27Z</time>
      </trkpt>
      <trkpt lat="44.46175" lon="6.25969">
        <ele>772.79998779297</ele>
        <time>2021-09-02T07:35:33Z</time>
      </trkpt>
      <trkpt lat="44.46176" lon="6.25979">
        <ele>773.20001220703</ele>
        <time>2021-09-02T07:35:36Z</time>
      </trkpt>
      <trkpt lat="44.46177" lon="6.2599">
        <ele>773.79998779297</ele>
        <time>2021-09-02T07:35:39Z</time>
      </trkpt>
      <trkpt lat="44.46178" lon="6.26016">
        <ele>774.79998779297</ele>
        <time>2021-09-02T07:35:46Z</time>
      </trkpt>
      <trkpt lat="44.46177" lon="6.2604">
        <ele>775.79998779297</ele>
        <time>2021-09-02T07:35:52Z</time>
      </trkpt>
      <trkpt lat="44.46175" lon="6.26048">
        <ele>776</ele>
        <time>2021-09-02T07:35:54Z</time>
      </trkpt>
      <trkpt lat="44.46173" lon="6.2608">
        <ele>776.59997558594</ele>
        <time>2021-09-02T07:36:02Z</time>
      </trkpt>
      <trkpt lat="44.46172" lon="6.26088">
        <ele>777</ele>
        <time>2021-09-02T07:36:04Z</time>
      </trkpt>
      <trkpt lat="44.46171" lon="6.26107">
        <ele>777.59997558594</ele>
        <time>2021-09-02T07:36:09Z</time>
      </trkpt>
      <trkpt lat="44.46168" lon="6.26123">
        <ele>778</ele>
        <time>2021-09-02T07:36:13Z</time>
      </trkpt>
      <trkpt lat="44.46166" lon="6.26138">
        <ele>778.40002441406</ele>
        <time>2021-09-02T07:36:17Z</time>
      </trkpt>
      <trkpt lat="44.46166" lon="6.26152">
        <ele>779</ele>
        <time>2021-09-02T07:36:23Z</time>
      </trkpt>
      <trkpt lat="44.46164" lon="6.26156">
        <ele>779.59997558594</ele>
        <time>2021-09-02T07:37:00Z</time>
      </trkpt>
      <trkpt lat="44.46166" lon="6.26162">
        <ele>779.59997558594</ele>
        <time>2021-09-02T07:37:02Z</time>
      </trkpt>
      <trkpt lat="44.46174" lon="6.26186">
        <ele>780</ele>
        <time>2021-09-02T07:37:09Z</time>
      </trkpt>
      <trkpt lat="44.46176" lon="6.26189">
        <ele>780.20001220703</ele>
        <time>2021-09-02T07:37:10Z</time>
      </trkpt>
      <trkpt lat="44.46184" lon="6.26206">
        <ele>780.79998779297</ele>
        <time>2021-09-02T07:37:15Z</time>
      </trkpt>
      <trkpt lat="44.4619" lon="6.2622">
        <ele>781.20001220703</ele>
        <time>2021-09-02T07:37:19Z</time>
      </trkpt>
      <trkpt lat="44.46193" lon="6.26227">
        <ele>781.40002441406</ele>
        <time>2021-09-02T07:37:21Z</time>
      </trkpt>
      <trkpt lat="44.46202" lon="6.26246">
        <ele>782.20001220703</ele>
        <time>2021-09-02T07:37:27Z</time>
      </trkpt>
      <trkpt lat="44.46207" lon="6.26256">
        <ele>782.59997558594</ele>
        <time>2021-09-02T07:37:30Z</time>
      </trkpt>
      <trkpt lat="44.46213" lon="6.26268">
        <ele>783.20001220703</ele>
        <time>2021-09-02T07:37:34Z</time>
      </trkpt>
      <trkpt lat="44.46218" lon="6.26281">
        <ele>783.79998779297</ele>
        <time>2021-09-02T07:37:38Z</time>
      </trkpt>
      <trkpt lat="44.46222" lon="6.26294">
        <ele>784.40002441406</ele>
        <time>2021-09-02T07:37:42Z</time>
      </trkpt>
      <trkpt lat="44.46226" lon="6.26305">
        <ele>784.79998779297</ele>
        <time>2021-09-02T07:37:45Z</time>
      </trkpt>
      <trkpt lat="44.46229" lon="6.26319">
        <ele>785.59997558594</ele>
        <time>2021-09-02T07:37:49Z</time>
      </trkpt>
      <trkpt lat="44.46232" lon="6.26333">
        <ele>786</ele>
        <time>2021-09-02T07:37:53Z</time>
      </trkpt>
      <trkpt lat="44.46235" lon="6.26348">
        <ele>786.59997558594</ele>
        <time>2021-09-02T07:37:57Z</time>
      </trkpt>
      <trkpt lat="44.4624" lon="6.26369">
        <ele>787.40002441406</ele>
        <time>2021-09-02T07:38:03Z</time>
      </trkpt>
      <trkpt lat="44.46242" lon="6.26376">
        <ele>787.59997558594</ele>
        <time>2021-09-02T07:38:05Z</time>
      </trkpt>
      <trkpt lat="44.46246" lon="6.26396">
        <ele>788.40002441406</ele>
        <time>2021-09-02T07:38:11Z</time>
      </trkpt>
      <trkpt lat="44.46247" lon="6.26403">
        <ele>788.79998779297</ele>
        <time>2021-09-02T07:38:13Z</time>
      </trkpt>
      <trkpt lat="44.46251" lon="6.26424">
        <ele>789.79998779297</ele>
        <time>2021-09-02T07:38:19Z</time>
      </trkpt>
      <trkpt lat="44.46251" lon="6.26427">
        <ele>789.79998779297</ele>
        <time>2021-09-02T07:38:20Z</time>
      </trkpt>
      <trkpt lat="44.46257" lon="6.26452">
        <ele>790.79998779297</ele>
        <time>2021-09-02T07:38:27Z</time>
      </trkpt>
      <trkpt lat="44.46258" lon="6.26456">
        <ele>791</ele>
        <time>2021-09-02T07:38:28Z</time>
      </trkpt>
      <trkpt lat="44.46262" lon="6.2648">
        <ele>791.79998779297</ele>
        <time>2021-09-02T07:38:35Z</time>
      </trkpt>
      <trkpt lat="44.46264" lon="6.26487">
        <ele>792.20001220703</ele>
        <time>2021-09-02T07:38:37Z</time>
      </trkpt>
      <trkpt lat="44.46269" lon="6.26513">
        <ele>793.20001220703</ele>
        <time>2021-09-02T07:38:44Z</time>
      </trkpt>
      <trkpt lat="44.4627" lon="6.26517">
        <ele>793.40002441406</ele>
        <time>2021-09-02T07:38:45Z</time>
      </trkpt>
      <trkpt lat="44.46275" lon="6.26545">
        <ele>794.40002441406</ele>
        <time>2021-09-02T07:38:52Z</time>
      </trkpt>
      <trkpt lat="44.46278" lon="6.26556">
        <ele>794.79998779297</ele>
        <time>2021-09-02T07:38:55Z</time>
      </trkpt>
      <trkpt lat="44.46281" lon="6.26567">
        <ele>795.40002441406</ele>
        <time>2021-09-02T07:38:58Z</time>
      </trkpt>
      <trkpt lat="44.46287" lon="6.26585">
        <ele>796.40002441406</ele>
        <time>2021-09-02T07:39:03Z</time>
      </trkpt>
      <trkpt lat="44.46288" lon="6.26588">
        <ele>796.40002441406</ele>
        <time>2021-09-02T07:39:04Z</time>
      </trkpt>
      <trkpt lat="44.46297" lon="6.26617">
        <ele>797.59997558594</ele>
        <time>2021-09-02T07:39:12Z</time>
      </trkpt>
      <trkpt lat="44.46305" lon="6.26644">
        <ele>798.59997558594</ele>
        <time>2021-09-02T07:39:20Z</time>
      </trkpt>
      <trkpt lat="44.46307" lon="6.26647">
        <ele>798.79998779297</ele>
        <time>2021-09-02T07:39:21Z</time>
      </trkpt>
      <trkpt lat="44.46311" lon="6.26664">
        <ele>799.59997558594</ele>
        <time>2021-09-02T07:39:26Z</time>
      </trkpt>
      <trkpt lat="44.46315" lon="6.26678">
        <ele>800</ele>
        <time>2021-09-02T07:39:30Z</time>
      </trkpt>
      <trkpt lat="44.46321" lon="6.26695">
        <ele>800.59997558594</ele>
        <time>2021-09-02T07:39:35Z</time>
      </trkpt>
      <trkpt lat="44.46323" lon="6.26702">
        <ele>801</ele>
        <time>2021-09-02T07:39:37Z</time>
      </trkpt>
      <trkpt lat="44.4633" lon="6.26722">
        <ele>801.79998779297</ele>
        <time>2021-09-02T07:39:43Z</time>
      </trkpt>
      <trkpt lat="44.46331" lon="6.26725">
        <ele>802</ele>
        <time>2021-09-02T07:39:44Z</time>
      </trkpt>
      <trkpt lat="44.46337" lon="6.26745">
        <ele>803</ele>
        <time>2021-09-02T07:39:50Z</time>
      </trkpt>
      <trkpt lat="44.4634" lon="6.26751">
        <ele>803.20001220703</ele>
        <time>2021-09-02T07:39:52Z</time>
      </trkpt>
      <trkpt lat="44.46346" lon="6.26765">
        <ele>804</ele>
        <time>2021-09-02T07:39:57Z</time>
      </trkpt>
      <trkpt lat="44.46348" lon="6.26771">
        <ele>804.20001220703</ele>
        <time>2021-09-02T07:39:59Z</time>
      </trkpt>
      <trkpt lat="44.46355" lon="6.2679">
        <ele>805.20001220703</ele>
        <time>2021-09-02T07:40:05Z</time>
      </trkpt>
      <trkpt lat="44.46358" lon="6.26795">
        <ele>805.40002441406</ele>
        <time>2021-09-02T07:40:07Z</time>
      </trkpt>
      <trkpt lat="44.46365" lon="6.26813">
        <ele>806.20001220703</ele>
        <time>2021-09-02T07:40:13Z</time>
      </trkpt>
      <trkpt lat="44.46373" lon="6.26829">
        <ele>807.20001220703</ele>
        <time>2021-09-02T07:40:19Z</time>
      </trkpt>
      <trkpt lat="44.46375" lon="6.26838">
        <ele>807.59997558594</ele>
        <time>2021-09-02T07:40:22Z</time>
      </trkpt>
      <trkpt lat="44.46378" lon="6.26858">
        <ele>808.40002441406</ele>
        <time>2021-09-02T07:40:28Z</time>
      </trkpt>
      <trkpt lat="44.46378" lon="6.26861">
        <ele>808.40002441406</ele>
        <time>2021-09-02T07:40:29Z</time>
      </trkpt>
      <trkpt lat="44.46376" lon="6.26881">
        <ele>809.40002441406</ele>
        <time>2021-09-02T07:40:35Z</time>
      </trkpt>
      <trkpt lat="44.46376" lon="6.26884">
        <ele>809.59997558594</ele>
        <time>2021-09-02T07:40:36Z</time>
      </trkpt>
      <trkpt lat="44.4637" lon="6.26901">
        <ele>810.59997558594</ele>
        <time>2021-09-02T07:40:42Z</time>
      </trkpt>
      <trkpt lat="44.46369" lon="6.26904">
        <ele>810.59997558594</ele>
        <time>2021-09-02T07:40:43Z</time>
      </trkpt>
      <trkpt lat="44.46356" lon="6.26918">
        <ele>811.59997558594</ele>
        <time>2021-09-02T07:40:50Z</time>
      </trkpt>
      <trkpt lat="44.46351" lon="6.26921">
        <ele>811.79998779297</ele>
        <time>2021-09-02T07:40:52Z</time>
      </trkpt>
      <trkpt lat="44.46336" lon="6.26929">
        <ele>812.79998779297</ele>
        <time>2021-09-02T07:40:59Z</time>
      </trkpt>
      <trkpt lat="44.46317" lon="6.2693">
        <ele>814</ele>
        <time>2021-09-02T07:41:07Z</time>
      </trkpt>
      <trkpt lat="44.46296" lon="6.26931">
        <ele>815.20001220703</ele>
        <time>2021-09-02T07:41:16Z</time>
      </trkpt>
      <trkpt lat="44.46281" lon="6.26933">
        <ele>816</ele>
        <time>2021-09-02T07:41:23Z</time>
      </trkpt>
      <trkpt lat="44.46278" lon="6.26933">
        <ele>816.20001220703</ele>
        <time>2021-09-02T07:41:24Z</time>
      </trkpt>
      <trkpt lat="44.46268" lon="6.26936">
        <ele>817</ele>
        <time>2021-09-02T07:41:29Z</time>
      </trkpt>
      <trkpt lat="44.4626" lon="6.2694">
        <ele>817.20001220703</ele>
        <time>2021-09-02T07:41:32Z</time>
      </trkpt>
      <trkpt lat="44.46258" lon="6.26941">
        <ele>817.40002441406</ele>
        <time>2021-09-02T07:41:33Z</time>
      </trkpt>
      <trkpt lat="44.46245" lon="6.2695">
        <ele>818.20001220703</ele>
        <time>2021-09-02T07:41:39Z</time>
      </trkpt>
      <trkpt lat="44.46243" lon="6.26952">
        <ele>818.40002441406</ele>
        <time>2021-09-02T07:41:40Z</time>
      </trkpt>
      <trkpt lat="44.46234" lon="6.26962">
        <ele>819.20001220703</ele>
        <time>2021-09-02T07:41:45Z</time>
      </trkpt>
      <trkpt lat="44.4623" lon="6.26969">
        <ele>819.40002441406</ele>
        <time>2021-09-02T07:41:48Z</time>
      </trkpt>
      <trkpt lat="44.46225" lon="6.26977">
        <ele>820</ele>
        <time>2021-09-02T07:41:51Z</time>
      </trkpt>
      <trkpt lat="44.46219" lon="6.26992">
        <ele>820.59997558594</ele>
        <time>2021-09-02T07:41:56Z</time>
      </trkpt>
      <trkpt lat="44.46218" lon="6.26995">
        <ele>820.59997558594</ele>
        <time>2021-09-02T07:41:57Z</time>
      </trkpt>
      <trkpt lat="44.46216" lon="6.27011">
        <ele>821.40002441406</ele>
        <time>2021-09-02T07:42:02Z</time>
      </trkpt>
      <trkpt lat="44.46215" lon="6.27019">
        <ele>821.59997558594</ele>
        <time>2021-09-02T07:42:04Z</time>
      </trkpt>
      <trkpt lat="44.46213" lon="6.27036">
        <ele>822.20001220703</ele>
        <time>2021-09-02T07:42:09Z</time>
      </trkpt>
      <trkpt lat="44.46213" lon="6.27045">
        <ele>822.59997558594</ele>
        <time>2021-09-02T07:42:12Z</time>
      </trkpt>
      <trkpt lat="44.46213" lon="6.27069">
        <ele>823.59997558594</ele>
        <time>2021-09-02T07:42:19Z</time>
      </trkpt>
      <trkpt lat="44.46215" lon="6.27086">
        <ele>824.40002441406</ele>
        <time>2021-09-02T07:42:24Z</time>
      </trkpt>
      <trkpt lat="44.46215" lon="6.27096">
        <ele>824.59997558594</ele>
        <time>2021-09-02T07:42:27Z</time>
      </trkpt>
      <trkpt lat="44.46215" lon="6.27109">
        <ele>825</ele>
        <time>2021-09-02T07:42:31Z</time>
      </trkpt>
      <trkpt lat="44.46217" lon="6.27128">
        <ele>825.79998779297</ele>
        <time>2021-09-02T07:42:37Z</time>
      </trkpt>
      <trkpt lat="44.46217" lon="6.27138">
        <ele>826.20001220703</ele>
        <time>2021-09-02T07:42:40Z</time>
      </trkpt>
      <trkpt lat="44.46218" lon="6.2715">
        <ele>827</ele>
        <time>2021-09-02T07:42:44Z</time>
      </trkpt>
      <trkpt lat="44.46219" lon="6.2716">
        <ele>827.20001220703</ele>
        <time>2021-09-02T07:42:47Z</time>
      </trkpt>
      <trkpt lat="44.4622" lon="6.27177">
        <ele>828</ele>
        <time>2021-09-02T07:42:52Z</time>
      </trkpt>
      <trkpt lat="44.46221" lon="6.27183">
        <ele>828.20001220703</ele>
        <time>2021-09-02T07:42:54Z</time>
      </trkpt>
      <trkpt lat="44.4622" lon="6.27202">
        <ele>829</ele>
        <time>2021-09-02T07:43:00Z</time>
      </trkpt>
      <trkpt lat="44.4622" lon="6.27205">
        <ele>829</ele>
        <time>2021-09-02T07:43:01Z</time>
      </trkpt>
      <trkpt lat="44.46216" lon="6.27224">
        <ele>830.20001220703</ele>
        <time>2021-09-02T07:43:07Z</time>
      </trkpt>
      <trkpt lat="44.46207" lon="6.27243">
        <ele>831.20001220703</ele>
        <time>2021-09-02T07:43:14Z</time>
      </trkpt>
      <trkpt lat="44.46206" lon="6.27246">
        <ele>831.40002441406</ele>
        <time>2021-09-02T07:43:15Z</time>
      </trkpt>
      <trkpt lat="44.46199" lon="6.27259">
        <ele>832</ele>
        <time>2021-09-02T07:43:20Z</time>
      </trkpt>
      <trkpt lat="44.46197" lon="6.27265">
        <ele>832.40002441406</ele>
        <time>2021-09-02T07:43:22Z</time>
      </trkpt>
      <trkpt lat="44.46191" lon="6.27275">
        <ele>833</ele>
        <time>2021-09-02T07:43:26Z</time>
      </trkpt>
      <trkpt lat="44.46187" lon="6.27284">
        <ele>833.40002441406</ele>
        <time>2021-09-02T07:43:29Z</time>
      </trkpt>
      <trkpt lat="44.46179" lon="6.27302">
        <ele>834.20001220703</ele>
        <time>2021-09-02T07:43:35Z</time>
      </trkpt>
      <trkpt lat="44.46176" lon="6.27316">
        <ele>834.59997558594</ele>
        <time>2021-09-02T07:43:39Z</time>
      </trkpt>
      <trkpt lat="44.46173" lon="6.27331">
        <ele>834.79998779297</ele>
        <time>2021-09-02T07:43:43Z</time>
      </trkpt>
      <trkpt lat="44.4617" lon="6.27359">
        <ele>835.40002441406</ele>
        <time>2021-09-02T07:43:50Z</time>
      </trkpt>
      <trkpt lat="44.46169" lon="6.27372">
        <ele>835.59997558594</ele>
        <time>2021-09-02T07:43:53Z</time>
      </trkpt>
      <trkpt lat="44.4617" lon="6.27393">
        <ele>836</ele>
        <time>2021-09-02T07:43:58Z</time>
      </trkpt>
      <trkpt lat="44.46173" lon="6.2742">
        <ele>836.20001220703</ele>
        <time>2021-09-02T07:44:04Z</time>
      </trkpt>
      <trkpt lat="44.46178" lon="6.27451">
        <ele>836.40002441406</ele>
        <time>2021-09-02T07:44:11Z</time>
      </trkpt>
      <trkpt lat="44.4618" lon="6.27469">
        <ele>836.59997558594</ele>
        <time>2021-09-02T07:44:15Z</time>
      </trkpt>
      <trkpt lat="44.46183" lon="6.27491">
        <ele>836.79998779297</ele>
        <time>2021-09-02T07:44:20Z</time>
      </trkpt>
      <trkpt lat="44.46187" lon="6.27519">
        <ele>837.40002441406</ele>
        <time>2021-09-02T07:44:26Z</time>
      </trkpt>
      <trkpt lat="44.46189" lon="6.27543">
        <ele>837.59997558594</ele>
        <time>2021-09-02T07:44:31Z</time>
      </trkpt>
      <trkpt lat="44.46191" lon="6.27553">
        <ele>837.79998779297</ele>
        <time>2021-09-02T07:44:33Z</time>
      </trkpt>
      <trkpt lat="44.46194" lon="6.27582">
        <ele>838.20001220703</ele>
        <time>2021-09-02T07:44:39Z</time>
      </trkpt>
      <trkpt lat="44.462" lon="6.27622">
        <ele>838.59997558594</ele>
        <time>2021-09-02T07:44:47Z</time>
      </trkpt>
      <trkpt lat="44.46201" lon="6.27627">
        <ele>838.79998779297</ele>
        <time>2021-09-02T07:44:48Z</time>
      </trkpt>
      <trkpt lat="44.46205" lon="6.27661">
        <ele>839</ele>
        <time>2021-09-02T07:44:55Z</time>
      </trkpt>
      <trkpt lat="44.4621" lon="6.27699">
        <ele>839.59997558594</ele>
        <time>2021-09-02T07:45:03Z</time>
      </trkpt>
      <trkpt lat="44.46211" lon="6.27708">
        <ele>839.79998779297</ele>
        <time>2021-09-02T07:45:05Z</time>
      </trkpt>
      <trkpt lat="44.46216" lon="6.27743">
        <ele>840.59997558594</ele>
        <time>2021-09-02T07:45:13Z</time>
      </trkpt>
      <trkpt lat="44.46219" lon="6.27774">
        <ele>841.79998779297</ele>
        <time>2021-09-02T07:45:21Z</time>
      </trkpt>
      <trkpt lat="44.46222" lon="6.27795">
        <ele>842.79998779297</ele>
        <time>2021-09-02T07:45:27Z</time>
      </trkpt>
      <trkpt lat="44.46223" lon="6.27799">
        <ele>842.79998779297</ele>
        <time>2021-09-02T07:45:28Z</time>
      </trkpt>
      <trkpt lat="44.46227" lon="6.2782">
        <ele>843.79998779297</ele>
        <time>2021-09-02T07:45:34Z</time>
      </trkpt>
      <trkpt lat="44.46228" lon="6.27824">
        <ele>843.79998779297</ele>
        <time>2021-09-02T07:45:35Z</time>
      </trkpt>
      <trkpt lat="44.46233" lon="6.27847">
        <ele>845</ele>
        <time>2021-09-02T07:45:42Z</time>
      </trkpt>
      <trkpt lat="44.46237" lon="6.27866">
        <ele>846</ele>
        <time>2021-09-02T07:45:48Z</time>
      </trkpt>
      <trkpt lat="44.46239" lon="6.27872">
        <ele>846.40002441406</ele>
        <time>2021-09-02T07:45:50Z</time>
      </trkpt>
      <trkpt lat="44.46244" lon="6.27886">
        <ele>847</ele>
        <time>2021-09-02T07:45:55Z</time>
      </trkpt>
      <trkpt lat="44.46246" lon="6.27895">
        <ele>847.40002441406</ele>
        <time>2021-09-02T07:45:58Z</time>
      </trkpt>
      <trkpt lat="44.46251" lon="6.27912">
        <ele>848.20001220703</ele>
        <time>2021-09-02T07:46:04Z</time>
      </trkpt>
      <trkpt lat="44.46253" lon="6.27918">
        <ele>848.40002441406</ele>
        <time>2021-09-02T07:46:06Z</time>
      </trkpt>
      <trkpt lat="44.46258" lon="6.27936">
        <ele>849.20001220703</ele>
        <time>2021-09-02T07:46:12Z</time>
      </trkpt>
      <trkpt lat="44.46261" lon="6.27944">
        <ele>849.79998779297</ele>
        <time>2021-09-02T07:46:15Z</time>
      </trkpt>
      <trkpt lat="44.46265" lon="6.27956">
        <ele>850.40002441406</ele>
        <time>2021-09-02T07:46:19Z</time>
      </trkpt>
      <trkpt lat="44.46269" lon="6.27967">
        <ele>851.20001220703</ele>
        <time>2021-09-02T07:46:23Z</time>
      </trkpt>
      <trkpt lat="44.46271" lon="6.27973">
        <ele>851.40002441406</ele>
        <time>2021-09-02T07:46:25Z</time>
      </trkpt>
      <trkpt lat="44.46277" lon="6.27992">
        <ele>852</ele>
        <time>2021-09-02T07:46:32Z</time>
      </trkpt>
      <trkpt lat="44.46279" lon="6.27998">
        <ele>852.40002441406</ele>
        <time>2021-09-02T07:46:34Z</time>
      </trkpt>
      <trkpt lat="44.46284" lon="6.28011">
        <ele>853.20001220703</ele>
        <time>2021-09-02T07:46:39Z</time>
      </trkpt>
      <trkpt lat="44.46285" lon="6.28014">
        <ele>853.40002441406</ele>
        <time>2021-09-02T07:46:40Z</time>
      </trkpt>
      <trkpt lat="44.46292" lon="6.28037">
        <ele>854.40002441406</ele>
        <time>2021-09-02T07:46:48Z</time>
      </trkpt>
      <trkpt lat="44.46293" lon="6.2804">
        <ele>854.59997558594</ele>
        <time>2021-09-02T07:46:49Z</time>
      </trkpt>
      <trkpt lat="44.463" lon="6.2806">
        <ele>855.59997558594</ele>
        <time>2021-09-02T07:46:56Z</time>
      </trkpt>
      <trkpt lat="44.46302" lon="6.28066">
        <ele>855.79998779297</ele>
        <time>2021-09-02T07:46:58Z</time>
      </trkpt>
      <trkpt lat="44.46306" lon="6.28076">
        <ele>856.59997558594</ele>
        <time>2021-09-02T07:47:02Z</time>
      </trkpt>
      <trkpt lat="44.46309" lon="6.28088">
        <ele>857</ele>
        <time>2021-09-02T07:47:06Z</time>
      </trkpt>
      <trkpt lat="44.46313" lon="6.28099">
        <ele>857.59997558594</ele>
        <time>2021-09-02T07:47:10Z</time>
      </trkpt>
      <trkpt lat="44.46317" lon="6.2811">
        <ele>858.20001220703</ele>
        <time>2021-09-02T07:47:14Z</time>
      </trkpt>
      <trkpt lat="44.46321" lon="6.28121">
        <ele>858.59997558594</ele>
        <time>2021-09-02T07:47:18Z</time>
      </trkpt>
      <trkpt lat="44.46325" lon="6.28136">
        <ele>859.40002441406</ele>
        <time>2021-09-02T07:47:23Z</time>
      </trkpt>
      <trkpt lat="44.46327" lon="6.28142">
        <ele>859.59997558594</ele>
        <time>2021-09-02T07:47:25Z</time>
      </trkpt>
      <trkpt lat="44.46332" lon="6.28159">
        <ele>860.79998779297</ele>
        <time>2021-09-02T07:47:31Z</time>
      </trkpt>
      <trkpt lat="44.4634" lon="6.28183">
        <ele>861.79998779297</ele>
        <time>2021-09-02T07:47:39Z</time>
      </trkpt>
      <trkpt lat="44.46348" lon="6.28204">
        <ele>862.79998779297</ele>
        <time>2021-09-02T07:47:46Z</time>
      </trkpt>
      <trkpt lat="44.46349" lon="6.28207">
        <ele>863</ele>
        <time>2021-09-02T07:47:47Z</time>
      </trkpt>
      <trkpt lat="44.46355" lon="6.28224">
        <ele>864</ele>
        <time>2021-09-02T07:47:53Z</time>
      </trkpt>
      <trkpt lat="44.46357" lon="6.2823">
        <ele>864.20001220703</ele>
        <time>2021-09-02T07:47:56Z</time>
      </trkpt>
      <trkpt lat="44.46363" lon="6.28247">
        <ele>865.20001220703</ele>
        <time>2021-09-02T07:48:02Z</time>
      </trkpt>
      <trkpt lat="44.46366" lon="6.28257">
        <ele>865.59997558594</ele>
        <time>2021-09-02T07:48:05Z</time>
      </trkpt>
      <trkpt lat="44.46371" lon="6.28271">
        <ele>866.20001220703</ele>
        <time>2021-09-02T07:48:10Z</time>
      </trkpt>
      <trkpt lat="44.46377" lon="6.28289">
        <ele>867.20001220703</ele>
        <time>2021-09-02T07:48:16Z</time>
      </trkpt>
      <trkpt lat="44.46384" lon="6.2831">
        <ele>868.40002441406</ele>
        <time>2021-09-02T07:48:23Z</time>
      </trkpt>
      <trkpt lat="44.46387" lon="6.28319">
        <ele>868.79998779297</ele>
        <time>2021-09-02T07:48:26Z</time>
      </trkpt>
      <trkpt lat="44.46391" lon="6.28335">
        <ele>869.59997558594</ele>
        <time>2021-09-02T07:48:31Z</time>
      </trkpt>
      <trkpt lat="44.46393" lon="6.28344">
        <ele>870</ele>
        <time>2021-09-02T07:48:34Z</time>
      </trkpt>
      <trkpt lat="44.46397" lon="6.28359">
        <ele>870.79998779297</ele>
        <time>2021-09-02T07:48:39Z</time>
      </trkpt>
      <trkpt lat="44.46399" lon="6.28369">
        <ele>871.20001220703</ele>
        <time>2021-09-02T07:48:42Z</time>
      </trkpt>
      <trkpt lat="44.46402" lon="6.28384">
        <ele>871.79998779297</ele>
        <time>2021-09-02T07:48:47Z</time>
      </trkpt>
      <trkpt lat="44.46405" lon="6.28393">
        <ele>872.40002441406</ele>
        <time>2021-09-02T07:48:50Z</time>
      </trkpt>
      <trkpt lat="44.46406" lon="6.28405">
        <ele>873</ele>
        <time>2021-09-02T07:48:54Z</time>
      </trkpt>
      <trkpt lat="44.46408" lon="6.28417">
        <ele>873.59997558594</ele>
        <time>2021-09-02T07:48:58Z</time>
      </trkpt>
      <trkpt lat="44.46411" lon="6.2843">
        <ele>874</ele>
        <time>2021-09-02T07:49:02Z</time>
      </trkpt>
      <trkpt lat="44.46412" lon="6.28445">
        <ele>874.79998779297</ele>
        <time>2021-09-02T07:49:06Z</time>
      </trkpt>
      <trkpt lat="44.46413" lon="6.28452">
        <ele>875.20001220703</ele>
        <time>2021-09-02T07:49:08Z</time>
      </trkpt>
      <trkpt lat="44.46416" lon="6.28468">
        <ele>875.79998779297</ele>
        <time>2021-09-02T07:49:13Z</time>
      </trkpt>
      <trkpt lat="44.46417" lon="6.28475">
        <ele>876.20001220703</ele>
        <time>2021-09-02T07:49:15Z</time>
      </trkpt>
      <trkpt lat="44.46419" lon="6.28495">
        <ele>877.20001220703</ele>
        <time>2021-09-02T07:49:21Z</time>
      </trkpt>
      <trkpt lat="44.46423" lon="6.28518">
        <ele>878.20001220703</ele>
        <time>2021-09-02T07:49:28Z</time>
      </trkpt>
      <trkpt lat="44.46423" lon="6.28521">
        <ele>878.40002441406</ele>
        <time>2021-09-02T07:49:29Z</time>
      </trkpt>
      <trkpt lat="44.46427" lon="6.28543">
        <ele>879.40002441406</ele>
        <time>2021-09-02T07:49:36Z</time>
      </trkpt>
      <trkpt lat="44.46427" lon="6.2855">
        <ele>879.59997558594</ele>
        <time>2021-09-02T07:49:38Z</time>
      </trkpt>
      <trkpt lat="44.4643" lon="6.2857">
        <ele>880.40002441406</ele>
        <time>2021-09-02T07:49:44Z</time>
      </trkpt>
      <trkpt lat="44.46432" lon="6.28586">
        <ele>880.79998779297</ele>
        <time>2021-09-02T07:49:49Z</time>
      </trkpt>
      <trkpt lat="44.46434" lon="6.28596">
        <ele>881.40002441406</ele>
        <time>2021-09-02T07:49:52Z</time>
      </trkpt>
      <trkpt lat="44.46435" lon="6.28603">
        <ele>881.59997558594</ele>
        <time>2021-09-02T07:49:54Z</time>
      </trkpt>
      <trkpt lat="44.46438" lon="6.28624">
        <ele>882.59997558594</ele>
        <time>2021-09-02T07:50:00Z</time>
      </trkpt>
      <trkpt lat="44.4644" lon="6.28637">
        <ele>883.20001220703</ele>
        <time>2021-09-02T07:50:04Z</time>
      </trkpt>
      <trkpt lat="44.46441" lon="6.28653">
        <ele>883.59997558594</ele>
        <time>2021-09-02T07:50:09Z</time>
      </trkpt>
      <trkpt lat="44.46441" lon="6.28667">
        <ele>884.20001220703</ele>
        <time>2021-09-02T07:50:13Z</time>
      </trkpt>
      <trkpt lat="44.4644" lon="6.28677">
        <ele>884.79998779297</ele>
        <time>2021-09-02T07:50:16Z</time>
      </trkpt>
      <trkpt lat="44.46438" lon="6.28699">
        <ele>885.59997558594</ele>
        <time>2021-09-02T07:50:23Z</time>
      </trkpt>
      <trkpt lat="44.46436" lon="6.28706">
        <ele>885.79998779297</ele>
        <time>2021-09-02T07:50:25Z</time>
      </trkpt>
      <trkpt lat="44.46433" lon="6.28721">
        <ele>886.40002441406</ele>
        <time>2021-09-02T07:50:30Z</time>
      </trkpt>
      <trkpt lat="44.4643" lon="6.28733">
        <ele>886.79998779297</ele>
        <time>2021-09-02T07:50:34Z</time>
      </trkpt>
      <trkpt lat="44.46424" lon="6.28748">
        <ele>887.79998779297</ele>
        <time>2021-09-02T07:50:39Z</time>
      </trkpt>
      <trkpt lat="44.46423" lon="6.28751">
        <ele>888</ele>
        <time>2021-09-02T07:50:40Z</time>
      </trkpt>
      <trkpt lat="44.46411" lon="6.28772">
        <ele>889</ele>
        <time>2021-09-02T07:50:48Z</time>
      </trkpt>
      <trkpt lat="44.46399" lon="6.28789">
        <ele>890</ele>
        <time>2021-09-02T07:50:55Z</time>
      </trkpt>
      <trkpt lat="44.46397" lon="6.28791">
        <ele>890</ele>
        <time>2021-09-02T07:50:56Z</time>
      </trkpt>
      <trkpt lat="44.46387" lon="6.28801">
        <ele>890.59997558594</ele>
        <time>2021-09-02T07:51:01Z</time>
      </trkpt>
      <trkpt lat="44.46383" lon="6.28805">
        <ele>891.20001220703</ele>
        <time>2021-09-02T07:51:03Z</time>
      </trkpt>
      <trkpt lat="44.46382" lon="6.28807">
        <ele>891.20001220703</ele>
        <time>2021-09-02T07:51:04Z</time>
      </trkpt>
      <trkpt lat="44.46371" lon="6.28816">
        <ele>891.79998779297</ele>
        <time>2021-09-02T07:51:09Z</time>
      </trkpt>
      <trkpt lat="44.46365" lon="6.2882">
        <ele>892.20001220703</ele>
        <time>2021-09-02T07:51:12Z</time>
      </trkpt>
      <trkpt lat="44.46358" lon="6.28823">
        <ele>892.59997558594</ele>
        <time>2021-09-02T07:51:15Z</time>
      </trkpt>
      <trkpt lat="44.46345" lon="6.2883">
        <ele>893.20001220703</ele>
        <time>2021-09-02T07:51:21Z</time>
      </trkpt>
      <trkpt lat="44.46328" lon="6.28836">
        <ele>894.40002441406</ele>
        <time>2021-09-02T07:51:28Z</time>
      </trkpt>
      <trkpt lat="44.46311" lon="6.28837">
        <ele>895.40002441406</ele>
        <time>2021-09-02T07:51:35Z</time>
      </trkpt>
      <trkpt lat="44.46294" lon="6.28835">
        <ele>896.20001220703</ele>
        <time>2021-09-02T07:51:41Z</time>
      </trkpt>
      <trkpt lat="44.46292" lon="6.28835">
        <ele>896.40002441406</ele>
        <time>2021-09-02T07:51:42Z</time>
      </trkpt>
      <trkpt lat="44.46277" lon="6.28831">
        <ele>897.20001220703</ele>
        <time>2021-09-02T07:51:48Z</time>
      </trkpt>
      <trkpt lat="44.46272" lon="6.28828">
        <ele>897.59997558594</ele>
        <time>2021-09-02T07:51:50Z</time>
      </trkpt>
      <trkpt lat="44.46261" lon="6.28824">
        <ele>898.20001220703</ele>
        <time>2021-09-02T07:51:54Z</time>
      </trkpt>
      <trkpt lat="44.46256" lon="6.28822">
        <ele>898.59997558594</ele>
        <time>2021-09-02T07:51:56Z</time>
      </trkpt>
      <trkpt lat="44.46247" lon="6.28818">
        <ele>899.20001220703</ele>
        <time>2021-09-02T07:52:00Z</time>
      </trkpt>
      <trkpt lat="44.4624" lon="6.28815">
        <ele>899.59997558594</ele>
        <time>2021-09-02T07:52:03Z</time>
      </trkpt>
      <trkpt lat="44.46227" lon="6.28809">
        <ele>900.40002441406</ele>
        <time>2021-09-02T07:52:09Z</time>
      </trkpt>
      <trkpt lat="44.4622" lon="6.28806">
        <ele>900.79998779297</ele>
        <time>2021-09-02T07:52:12Z</time>
      </trkpt>
      <trkpt lat="44.46207" lon="6.28801">
        <ele>901.79998779297</ele>
        <time>2021-09-02T07:52:18Z</time>
      </trkpt>
      <trkpt lat="44.46205" lon="6.28801">
        <ele>902</ele>
        <time>2021-09-02T07:52:19Z</time>
      </trkpt>
      <trkpt lat="44.46193" lon="6.28795">
        <ele>903</ele>
        <time>2021-09-02T07:52:25Z</time>
      </trkpt>
      <trkpt lat="44.46184" lon="6.28792">
        <ele>903.40002441406</ele>
        <time>2021-09-02T07:52:29Z</time>
      </trkpt>
      <trkpt lat="44.46175" lon="6.2879">
        <ele>904</ele>
        <time>2021-09-02T07:52:33Z</time>
      </trkpt>
      <trkpt lat="44.46163" lon="6.2879">
        <ele>904.59997558594</ele>
        <time>2021-09-02T07:52:38Z</time>
      </trkpt>
      <trkpt lat="44.46154" lon="6.2879">
        <ele>905.20001220703</ele>
        <time>2021-09-02T07:52:42Z</time>
      </trkpt>
      <trkpt lat="44.46145" lon="6.28789">
        <ele>905.59997558594</ele>
        <time>2021-09-02T07:52:46Z</time>
      </trkpt>
      <trkpt lat="44.46131" lon="6.28793">
        <ele>906.20001220703</ele>
        <time>2021-09-02T07:52:52Z</time>
      </trkpt>
      <trkpt lat="44.46126" lon="6.28794">
        <ele>906.59997558594</ele>
        <time>2021-09-02T07:52:54Z</time>
      </trkpt>
      <trkpt lat="44.46113" lon="6.28799">
        <ele>907.40002441406</ele>
        <time>2021-09-02T07:53:00Z</time>
      </trkpt>
      <trkpt lat="44.46104" lon="6.28802">
        <ele>908</ele>
        <time>2021-09-02T07:53:04Z</time>
      </trkpt>
      <trkpt lat="44.46092" lon="6.28807">
        <ele>908.40002441406</ele>
        <time>2021-09-02T07:53:09Z</time>
      </trkpt>
      <trkpt lat="44.46083" lon="6.28811">
        <ele>909</ele>
        <time>2021-09-02T07:53:13Z</time>
      </trkpt>
      <trkpt lat="44.46069" lon="6.28816">
        <ele>909.59997558594</ele>
        <time>2021-09-02T07:53:19Z</time>
      </trkpt>
      <trkpt lat="44.46062" lon="6.2882">
        <ele>910</ele>
        <time>2021-09-02T07:53:22Z</time>
      </trkpt>
      <trkpt lat="44.46053" lon="6.28824">
        <ele>910.59997558594</ele>
        <time>2021-09-02T07:53:26Z</time>
      </trkpt>
      <trkpt lat="44.46042" lon="6.28828">
        <ele>911.40002441406</ele>
        <time>2021-09-02T07:53:31Z</time>
      </trkpt>
      <trkpt lat="44.46038" lon="6.2883">
        <ele>911.59997558594</ele>
        <time>2021-09-02T07:53:33Z</time>
      </trkpt>
      <trkpt lat="44.46029" lon="6.28834">
        <ele>912.20001220703</ele>
        <time>2021-09-02T07:53:37Z</time>
      </trkpt>
      <trkpt lat="44.4602" lon="6.28838">
        <ele>912.79998779297</ele>
        <time>2021-09-02T07:53:41Z</time>
      </trkpt>
      <trkpt lat="44.46011" lon="6.28842">
        <ele>913.40002441406</ele>
        <time>2021-09-02T07:53:45Z</time>
      </trkpt>
      <trkpt lat="44.46001" lon="6.28847">
        <ele>913.79998779297</ele>
        <time>2021-09-02T07:53:50Z</time>
      </trkpt>
      <trkpt lat="44.4599" lon="6.28852">
        <ele>914.59997558594</ele>
        <time>2021-09-02T07:53:55Z</time>
      </trkpt>
      <trkpt lat="44.45984" lon="6.28854">
        <ele>915</ele>
        <time>2021-09-02T07:53:58Z</time>
      </trkpt>
      <trkpt lat="44.45971" lon="6.2886">
        <ele>915.59997558594</ele>
        <time>2021-09-02T07:54:04Z</time>
      </trkpt>
      <trkpt lat="44.45965" lon="6.28863">
        <ele>916</ele>
        <time>2021-09-02T07:54:07Z</time>
      </trkpt>
      <trkpt lat="44.45952" lon="6.28868">
        <ele>916.79998779297</ele>
        <time>2021-09-02T07:54:13Z</time>
      </trkpt>
      <trkpt lat="44.45948" lon="6.28869">
        <ele>917.20001220703</ele>
        <time>2021-09-02T07:54:15Z</time>
      </trkpt>
      <trkpt lat="44.45933" lon="6.28877">
        <ele>918</ele>
        <time>2021-09-02T07:54:22Z</time>
      </trkpt>
      <trkpt lat="44.45931" lon="6.28877">
        <ele>918.20001220703</ele>
        <time>2021-09-02T07:54:23Z</time>
      </trkpt>
      <trkpt lat="44.45923" lon="6.28883">
        <ele>918.79998779297</ele>
        <time>2021-09-02T07:54:27Z</time>
      </trkpt>
      <trkpt lat="44.45914" lon="6.28887">
        <ele>919.20001220703</ele>
        <time>2021-09-02T07:54:31Z</time>
      </trkpt>
      <trkpt lat="44.45908" lon="6.2889">
        <ele>919.59997558594</ele>
        <time>2021-09-02T07:54:34Z</time>
      </trkpt>
      <trkpt lat="44.45897" lon="6.28896">
        <ele>920.40002441406</ele>
        <time>2021-09-02T07:54:39Z</time>
      </trkpt>
      <trkpt lat="44.45889" lon="6.28901">
        <ele>920.79998779297</ele>
        <time>2021-09-02T07:54:43Z</time>
      </trkpt>
      <trkpt lat="44.45881" lon="6.28907">
        <ele>921.40002441406</ele>
        <time>2021-09-02T07:54:47Z</time>
      </trkpt>
      <trkpt lat="44.45874" lon="6.28915">
        <ele>922</ele>
        <time>2021-09-02T07:54:51Z</time>
      </trkpt>
      <trkpt lat="44.45866" lon="6.28922">
        <ele>922.40002441406</ele>
        <time>2021-09-02T07:54:55Z</time>
      </trkpt>
      <trkpt lat="44.45861" lon="6.28927">
        <ele>923</ele>
        <time>2021-09-02T07:54:58Z</time>
      </trkpt>
      <trkpt lat="44.45853" lon="6.28936">
        <ele>923.40002441406</ele>
        <time>2021-09-02T07:55:02Z</time>
      </trkpt>
      <trkpt lat="44.45846" lon="6.28945">
        <ele>924.20001220703</ele>
        <time>2021-09-02T07:55:06Z</time>
      </trkpt>
      <trkpt lat="44.45841" lon="6.28951">
        <ele>924.59997558594</ele>
        <time>2021-09-02T07:55:09Z</time>
      </trkpt>
      <trkpt lat="44.45833" lon="6.28959">
        <ele>925</ele>
        <time>2021-09-02T07:55:13Z</time>
      </trkpt>
      <trkpt lat="44.45826" lon="6.28969">
        <ele>925.59997558594</ele>
        <time>2021-09-02T07:55:17Z</time>
      </trkpt>
      <trkpt lat="44.45821" lon="6.28976">
        <ele>926</ele>
        <time>2021-09-02T07:55:20Z</time>
      </trkpt>
      <trkpt lat="44.45811" lon="6.2899">
        <ele>926.79998779297</ele>
        <time>2021-09-02T07:55:26Z</time>
      </trkpt>
      <trkpt lat="44.45809" lon="6.28992">
        <ele>927</ele>
        <time>2021-09-02T07:55:27Z</time>
      </trkpt>
      <trkpt lat="44.45797" lon="6.29007">
        <ele>927.79998779297</ele>
        <time>2021-09-02T07:55:34Z</time>
      </trkpt>
      <trkpt lat="44.45796" lon="6.2901">
        <ele>928</ele>
        <time>2021-09-02T07:55:35Z</time>
      </trkpt>
      <trkpt lat="44.45788" lon="6.29028">
        <ele>929</ele>
        <time>2021-09-02T07:55:42Z</time>
      </trkpt>
      <trkpt lat="44.45776" lon="6.29042">
        <ele>929.79998779297</ele>
        <time>2021-09-02T07:55:49Z</time>
      </trkpt>
      <trkpt lat="44.45775" lon="6.29046">
        <ele>930</ele>
        <time>2021-09-02T07:55:50Z</time>
      </trkpt>
      <trkpt lat="44.45777" lon="6.29054">
        <ele>930.40002441406</ele>
        <time>2021-09-02T07:55:53Z</time>
      </trkpt>
      <trkpt lat="44.45777" lon="6.29057">
        <ele>930.59997558594</ele>
        <time>2021-09-02T07:55:54Z</time>
      </trkpt>
      <trkpt lat="44.45774" lon="6.29077">
        <ele>930.59997558594</ele>
        <time>2021-09-02T07:55:59Z</time>
      </trkpt>
      <trkpt lat="44.45772" lon="6.29106">
        <ele>930.40002441406</ele>
        <time>2021-09-02T07:56:05Z</time>
      </trkpt>
      <trkpt lat="44.45765" lon="6.29134">
        <ele>930.20001220703</ele>
        <time>2021-09-02T07:56:10Z</time>
      </trkpt>
      <trkpt lat="44.45763" lon="6.29139">
        <ele>930.20001220703</ele>
        <time>2021-09-02T07:56:11Z</time>
      </trkpt>
      <trkpt lat="44.45752" lon="6.29162">
        <ele>930.20001220703</ele>
        <time>2021-09-02T07:56:17Z</time>
      </trkpt>
      <trkpt lat="44.45751" lon="6.29177">
        <ele>930.40002441406</ele>
        <time>2021-09-02T07:56:21Z</time>
      </trkpt>
      <trkpt lat="44.45753" lon="6.29184">
        <ele>930.40002441406</ele>
        <time>2021-09-02T07:56:24Z</time>
      </trkpt>
      <trkpt lat="44.45755" lon="6.29182">
        <ele>930.59997558594</ele>
        <time>2021-09-02T07:56:25Z</time>
      </trkpt>
      <trkpt lat="44.45766" lon="6.2918">
        <ele>930.40002441406</ele>
        <time>2021-09-02T07:56:29Z</time>
      </trkpt>
      <trkpt lat="44.45777" lon="6.29187">
        <ele>930</ele>
        <time>2021-09-02T07:56:33Z</time>
      </trkpt>
      <trkpt lat="44.45771" lon="6.29195">
        <ele>929.40002441406</ele>
        <time>2021-09-02T07:57:52Z</time>
      </trkpt>
      <trkpt lat="44.45768" lon="6.29196">
        <ele>929.40002441406</ele>
        <time>2021-09-02T07:57:57Z</time>
      </trkpt>
      <trkpt lat="44.45769" lon="6.29198">
        <ele>929.40002441406</ele>
        <time>2021-09-02T07:57:58Z</time>
      </trkpt>
      <trkpt lat="44.45769" lon="6.29201">
        <ele>929.40002441406</ele>
        <time>2021-09-02T07:57:59Z</time>
      </trkpt>
      <trkpt lat="44.45766" lon="6.29209">
        <ele>929.40002441406</ele>
        <time>2021-09-02T07:58:02Z</time>
      </trkpt>
      <trkpt lat="44.45765" lon="6.29211">
        <ele>929.40002441406</ele>
        <time>2021-09-02T07:58:03Z</time>
      </trkpt>
      <trkpt lat="44.45762" lon="6.29227">
        <ele>929.79998779297</ele>
        <time>2021-09-02T07:58:09Z</time>
      </trkpt>
      <trkpt lat="44.45757" lon="6.29229">
        <ele>930</ele>
        <time>2021-09-02T07:58:27Z</time>
      </trkpt>
      <trkpt lat="44.45748" lon="6.29235">
        <ele>930.20001220703</ele>
        <time>2021-09-02T07:58:32Z</time>
      </trkpt>
      <trkpt lat="44.45737" lon="6.29242">
        <ele>930.40002441406</ele>
        <time>2021-09-02T07:58:38Z</time>
      </trkpt>
      <trkpt lat="44.45732" lon="6.29248">
        <ele>931</ele>
        <time>2021-09-02T07:58:41Z</time>
      </trkpt>
      <trkpt lat="44.4573" lon="6.29254">
        <ele>931.20001220703</ele>
        <time>2021-09-02T07:58:43Z</time>
      </trkpt>
      <trkpt lat="44.45716" lon="6.29277">
        <ele>932</ele>
        <time>2021-09-02T07:58:51Z</time>
      </trkpt>
      <trkpt lat="44.45709" lon="6.29296">
        <ele>932.59997558594</ele>
        <time>2021-09-02T07:58:57Z</time>
      </trkpt>
      <trkpt lat="44.45701" lon="6.29315">
        <ele>933.20001220703</ele>
        <time>2021-09-02T07:59:03Z</time>
      </trkpt>
      <trkpt lat="44.45697" lon="6.29325">
        <ele>933.40002441406</ele>
        <time>2021-09-02T07:59:06Z</time>
      </trkpt>
      <trkpt lat="44.45691" lon="6.29345">
        <ele>934.20001220703</ele>
        <time>2021-09-02T07:59:12Z</time>
      </trkpt>
      <trkpt lat="44.45689" lon="6.29348">
        <ele>934.20001220703</ele>
        <time>2021-09-02T07:59:13Z</time>
      </trkpt>
      <trkpt lat="44.45683" lon="6.29367">
        <ele>934.59997558594</ele>
        <time>2021-09-02T07:59:18Z</time>
      </trkpt>
      <trkpt lat="44.45672" lon="6.29393">
        <ele>934.59997558594</ele>
        <time>2021-09-02T07:59:24Z</time>
      </trkpt>
      <trkpt lat="44.45656" lon="6.29418">
        <ele>934.40002441406</ele>
        <time>2021-09-02T07:59:31Z</time>
      </trkpt>
      <trkpt lat="44.45636" lon="6.29435">
        <ele>934.40002441406</ele>
        <time>2021-09-02T07:59:38Z</time>
      </trkpt>
      <trkpt lat="44.45619" lon="6.29453">
        <ele>934.59997558594</ele>
        <time>2021-09-02T07:59:45Z</time>
      </trkpt>
      <trkpt lat="44.45609" lon="6.29464">
        <ele>934.79998779297</ele>
        <time>2021-09-02T07:59:50Z</time>
      </trkpt>
      <trkpt lat="44.45606" lon="6.2947">
        <ele>935</ele>
        <time>2021-09-02T07:59:52Z</time>
      </trkpt>
      <trkpt lat="44.456" lon="6.29477">
        <ele>935</ele>
        <time>2021-09-02T07:59:54Z</time>
      </trkpt>
      <trkpt lat="44.45598" lon="6.29481">
        <ele>935</ele>
        <time>2021-09-02T07:59:55Z</time>
      </trkpt>
      <trkpt lat="44.45594" lon="6.29499">
        <ele>934.79998779297</ele>
        <time>2021-09-02T07:59:59Z</time>
      </trkpt>
      <trkpt lat="44.45583" lon="6.29528">
        <ele>934.79998779297</ele>
        <time>2021-09-02T08:00:05Z</time>
      </trkpt>
      <trkpt lat="44.4557" lon="6.29559">
        <ele>934.59997558594</ele>
        <time>2021-09-02T08:00:11Z</time>
      </trkpt>
      <trkpt lat="44.45566" lon="6.2957">
        <ele>934.59997558594</ele>
        <time>2021-09-02T08:00:13Z</time>
      </trkpt>
      <trkpt lat="44.45555" lon="6.29598">
        <ele>934.59997558594</ele>
        <time>2021-09-02T08:00:18Z</time>
      </trkpt>
      <trkpt lat="44.45552" lon="6.29603">
        <ele>934.40002441406</ele>
        <time>2021-09-02T08:00:19Z</time>
      </trkpt>
      <trkpt lat="44.45542" lon="6.29624">
        <ele>934.40002441406</ele>
        <time>2021-09-02T08:00:23Z</time>
      </trkpt>
      <trkpt lat="44.45539" lon="6.29629">
        <ele>934.20001220703</ele>
        <time>2021-09-02T08:00:24Z</time>
      </trkpt>
      <trkpt lat="44.45526" lon="6.29648">
        <ele>934.20001220703</ele>
        <time>2021-09-02T08:00:28Z</time>
      </trkpt>
      <trkpt lat="44.45519" lon="6.29653">
        <ele>934.20001220703</ele>
        <time>2021-09-02T08:00:30Z</time>
      </trkpt>
      <trkpt lat="44.45512" lon="6.29659">
        <ele>934.20001220703</ele>
        <time>2021-09-02T08:00:32Z</time>
      </trkpt>
      <trkpt lat="44.45506" lon="6.29665">
        <ele>934.40002441406</ele>
        <time>2021-09-02T08:00:35Z</time>
      </trkpt>
      <trkpt lat="44.45495" lon="6.2967">
        <ele>935.20001220703</ele>
        <time>2021-09-02T08:00:40Z</time>
      </trkpt>
      <trkpt lat="44.45481" lon="6.29683">
        <ele>935.79998779297</ele>
        <time>2021-09-02T08:00:45Z</time>
      </trkpt>
      <trkpt lat="44.45459" lon="6.29701">
        <ele>936</ele>
        <time>2021-09-02T08:00:52Z</time>
      </trkpt>
      <trkpt lat="44.45436" lon="6.29711">
        <ele>936</ele>
        <time>2021-09-02T08:00:58Z</time>
      </trkpt>
      <trkpt lat="44.45416" lon="6.29709">
        <ele>935.59997558594</ele>
        <time>2021-09-02T08:01:02Z</time>
      </trkpt>
      <trkpt lat="44.45395" lon="6.29714">
        <ele>935.20001220703</ele>
        <time>2021-09-02T08:01:06Z</time>
      </trkpt>
      <trkpt lat="44.45386" lon="6.29721">
        <ele>935</ele>
        <time>2021-09-02T08:01:08Z</time>
      </trkpt>
      <trkpt lat="44.45374" lon="6.29733">
        <ele>934.79998779297</ele>
        <time>2021-09-02T08:01:11Z</time>
      </trkpt>
      <trkpt lat="44.4537" lon="6.29737">
        <ele>934.79998779297</ele>
        <time>2021-09-02T08:01:12Z</time>
      </trkpt>
      <trkpt lat="44.45367" lon="6.29742">
        <ele>934.79998779297</ele>
        <time>2021-09-02T08:01:13Z</time>
      </trkpt>
      <trkpt lat="44.45347" lon="6.29765">
        <ele>935.20001220703</ele>
        <time>2021-09-02T08:01:19Z</time>
      </trkpt>
      <trkpt lat="44.45343" lon="6.29768">
        <ele>935.20001220703</ele>
        <time>2021-09-02T08:01:20Z</time>
      </trkpt>
      <trkpt lat="44.45325" lon="6.29781">
        <ele>935.59997558594</ele>
        <time>2021-09-02T08:01:25Z</time>
      </trkpt>
      <trkpt lat="44.45318" lon="6.29786">
        <ele>935.59997558594</ele>
        <time>2021-09-02T08:01:27Z</time>
      </trkpt>
      <trkpt lat="44.45296" lon="6.29797">
        <ele>936</ele>
        <time>2021-09-02T08:01:33Z</time>
      </trkpt>
      <trkpt lat="44.45278" lon="6.29805">
        <ele>936.20001220703</ele>
        <time>2021-09-02T08:01:38Z</time>
      </trkpt>
      <trkpt lat="44.45274" lon="6.29807">
        <ele>936.40002441406</ele>
        <time>2021-09-02T08:01:39Z</time>
      </trkpt>
      <trkpt lat="44.45249" lon="6.29818">
        <ele>937</ele>
        <time>2021-09-02T08:01:46Z</time>
      </trkpt>
      <trkpt lat="44.45227" lon="6.29829">
        <ele>937.20001220703</ele>
        <time>2021-09-02T08:01:52Z</time>
      </trkpt>
      <trkpt lat="44.45213" lon="6.29835">
        <ele>937.20001220703</ele>
        <time>2021-09-02T08:01:56Z</time>
      </trkpt>
      <trkpt lat="44.45204" lon="6.2984">
        <ele>937.59997558594</ele>
        <time>2021-09-02T08:01:59Z</time>
      </trkpt>
      <trkpt lat="44.45192" lon="6.29845">
        <ele>938.40002441406</ele>
        <time>2021-09-02T08:02:04Z</time>
      </trkpt>
      <trkpt lat="44.4518" lon="6.29851">
        <ele>939.40002441406</ele>
        <time>2021-09-02T08:02:10Z</time>
      </trkpt>
      <trkpt lat="44.45174" lon="6.29852">
        <ele>940.20001220703</ele>
        <time>2021-09-02T08:02:13Z</time>
      </trkpt>
      <trkpt lat="44.4517" lon="6.29854">
        <ele>940.59997558594</ele>
        <time>2021-09-02T08:02:15Z</time>
      </trkpt>
      <trkpt lat="44.4516" lon="6.29855">
        <ele>941.20001220703</ele>
        <time>2021-09-02T08:02:20Z</time>
      </trkpt>
      <trkpt lat="44.45154" lon="6.29858">
        <ele>941.59997558594</ele>
        <time>2021-09-02T08:02:22Z</time>
      </trkpt>
      <trkpt lat="44.4515" lon="6.29863">
        <ele>941.79998779297</ele>
        <time>2021-09-02T08:02:24Z</time>
      </trkpt>
      <trkpt lat="44.45136" lon="6.29883">
        <ele>942</ele>
        <time>2021-09-02T08:02:30Z</time>
      </trkpt>
      <trkpt lat="44.45118" lon="6.29908">
        <ele>942.20001220703</ele>
        <time>2021-09-02T08:02:37Z</time>
      </trkpt>
      <trkpt lat="44.45109" lon="6.29924">
        <ele>942.59997558594</ele>
        <time>2021-09-02T08:02:42Z</time>
      </trkpt>
      <trkpt lat="44.45105" lon="6.29935">
        <ele>943</ele>
        <time>2021-09-02T08:02:45Z</time>
      </trkpt>
      <trkpt lat="44.45099" lon="6.29944">
        <ele>943.40002441406</ele>
        <time>2021-09-02T08:02:50Z</time>
      </trkpt>
      <trkpt lat="44.45098" lon="6.29947">
        <ele>943.59997558594</ele>
        <time>2021-09-02T08:02:52Z</time>
      </trkpt>
      <trkpt lat="44.45093" lon="6.29956">
        <ele>944</ele>
        <time>2021-09-02T08:02:58Z</time>
      </trkpt>
      <trkpt lat="44.45083" lon="6.29958">
        <ele>944.79998779297</ele>
        <time>2021-09-02T08:03:04Z</time>
      </trkpt>
      <trkpt lat="44.45074" lon="6.29964">
        <ele>945.79998779297</ele>
        <time>2021-09-02T08:03:10Z</time>
      </trkpt>
      <trkpt lat="44.45072" lon="6.29964">
        <ele>946</ele>
        <time>2021-09-02T08:03:11Z</time>
      </trkpt>
      <trkpt lat="44.45063" lon="6.29969">
        <ele>946.79998779297</ele>
        <time>2021-09-02T08:03:16Z</time>
      </trkpt>
      <trkpt lat="44.45059" lon="6.29972">
        <ele>947.40002441406</ele>
        <time>2021-09-02T08:03:19Z</time>
      </trkpt>
      <trkpt lat="44.45054" lon="6.29974">
        <ele>948</ele>
        <time>2021-09-02T08:03:22Z</time>
      </trkpt>
      <trkpt lat="44.4505" lon="6.29978">
        <ele>948.20001220703</ele>
        <time>2021-09-02T08:03:25Z</time>
      </trkpt>
      <trkpt lat="44.45046" lon="6.29983">
        <ele>949</ele>
        <time>2021-09-02T08:03:28Z</time>
      </trkpt>
      <trkpt lat="44.4504" lon="6.29991">
        <ele>949.79998779297</ele>
        <time>2021-09-02T08:03:33Z</time>
      </trkpt>
      <trkpt lat="44.45037" lon="6.29992">
        <ele>950.20001220703</ele>
        <time>2021-09-02T08:03:35Z</time>
      </trkpt>
      <trkpt lat="44.45031" lon="6.29998">
        <ele>950.79998779297</ele>
        <time>2021-09-02T08:03:39Z</time>
      </trkpt>
      <trkpt lat="44.45027" lon="6.30002">
        <ele>951.20001220703</ele>
        <time>2021-09-02T08:03:42Z</time>
      </trkpt>
      <trkpt lat="44.45022" lon="6.30005">
        <ele>951.79998779297</ele>
        <time>2021-09-02T08:03:46Z</time>
      </trkpt>
      <trkpt lat="44.45018" lon="6.30006">
        <ele>952.40002441406</ele>
        <time>2021-09-02T08:03:49Z</time>
      </trkpt>
      <trkpt lat="44.4501" lon="6.30009">
        <ele>953.40002441406</ele>
        <time>2021-09-02T08:03:54Z</time>
      </trkpt>
      <trkpt lat="44.45009" lon="6.3001">
        <ele>953.40002441406</ele>
        <time>2021-09-02T08:03:55Z</time>
      </trkpt>
      <trkpt lat="44.45007" lon="6.3001">
        <ele>953.59997558594</ele>
        <time>2021-09-02T08:03:56Z</time>
      </trkpt>
      <trkpt lat="44.45003" lon="6.30009">
        <ele>954.20001220703</ele>
        <time>2021-09-02T08:03:59Z</time>
      </trkpt>
      <trkpt lat="44.45" lon="6.3001">
        <ele>954.59997558594</ele>
        <time>2021-09-02T08:04:01Z</time>
      </trkpt>
      <trkpt lat="44.4499" lon="6.30012">
        <ele>955.59997558594</ele>
        <time>2021-09-02T08:04:07Z</time>
      </trkpt>
      <trkpt lat="44.44981" lon="6.30016">
        <ele>956.59997558594</ele>
        <time>2021-09-02T08:04:13Z</time>
      </trkpt>
      <trkpt lat="44.44979" lon="6.30018">
        <ele>957</ele>
        <time>2021-09-02T08:04:15Z</time>
      </trkpt>
      <trkpt lat="44.44976" lon="6.30019">
        <ele>957.79998779297</ele>
        <time>2021-09-02T08:04:18Z</time>
      </trkpt>
      <trkpt lat="44.44966" lon="6.30025">
        <ele>958.79998779297</ele>
        <time>2021-09-02T08:04:24Z</time>
      </trkpt>
      <trkpt lat="44.44955" lon="6.30037">
        <ele>959.79998779297</ele>
        <time>2021-09-02T08:04:31Z</time>
      </trkpt>
      <trkpt lat="44.44952" lon="6.30041">
        <ele>960.40002441406</ele>
        <time>2021-09-02T08:04:34Z</time>
      </trkpt>
      <trkpt lat="44.44948" lon="6.30047">
        <ele>961</ele>
        <time>2021-09-02T08:04:38Z</time>
      </trkpt>
      <trkpt lat="44.44943" lon="6.30053">
        <ele>961.59997558594</ele>
        <time>2021-09-02T08:04:42Z</time>
      </trkpt>
      <trkpt lat="44.4494" lon="6.30054">
        <ele>962</ele>
        <time>2021-09-02T08:04:44Z</time>
      </trkpt>
      <trkpt lat="44.44936" lon="6.30056">
        <ele>962.40002441406</ele>
        <time>2021-09-02T08:04:47Z</time>
      </trkpt>
      <trkpt lat="44.44931" lon="6.30058">
        <ele>963.20001220703</ele>
        <time>2021-09-02T08:04:51Z</time>
      </trkpt>
      <trkpt lat="44.44923" lon="6.30059">
        <ele>963.79998779297</ele>
        <time>2021-09-02T08:04:56Z</time>
      </trkpt>
      <trkpt lat="44.4492" lon="6.30059">
        <ele>964.20001220703</ele>
        <time>2021-09-02T08:04:58Z</time>
      </trkpt>
      <trkpt lat="44.4491" lon="6.30063">
        <ele>965.40002441406</ele>
        <time>2021-09-02T08:05:04Z</time>
      </trkpt>
      <trkpt lat="44.44902" lon="6.30068">
        <ele>966.40002441406</ele>
        <time>2021-09-02T08:05:10Z</time>
      </trkpt>
      <trkpt lat="44.449" lon="6.30069">
        <ele>966.59997558594</ele>
        <time>2021-09-02T08:05:11Z</time>
      </trkpt>
      <trkpt lat="44.44891" lon="6.30079">
        <ele>967.59997558594</ele>
        <time>2021-09-02T08:05:17Z</time>
      </trkpt>
      <trkpt lat="44.44891" lon="6.30081">
        <ele>967.79998779297</ele>
        <time>2021-09-02T08:05:18Z</time>
      </trkpt>
      <trkpt lat="44.44887" lon="6.30088">
        <ele>968.40002441406</ele>
        <time>2021-09-02T08:05:22Z</time>
      </trkpt>
      <trkpt lat="44.44885" lon="6.30092">
        <ele>968.59997558594</ele>
        <time>2021-09-02T08:05:24Z</time>
      </trkpt>
      <trkpt lat="44.44884" lon="6.30094">
        <ele>968.79998779297</ele>
        <time>2021-09-02T08:05:25Z</time>
      </trkpt>
      <trkpt lat="44.44877" lon="6.30104">
        <ele>969.79998779297</ele>
        <time>2021-09-02T08:05:31Z</time>
      </trkpt>
      <trkpt lat="44.44874" lon="6.30108">
        <ele>970.20001220703</ele>
        <time>2021-09-02T08:05:33Z</time>
      </trkpt>
      <trkpt lat="44.44866" lon="6.30118">
        <ele>971</ele>
        <time>2021-09-02T08:05:39Z</time>
      </trkpt>
      <trkpt lat="44.44865" lon="6.30119">
        <ele>971</ele>
        <time>2021-09-02T08:05:40Z</time>
      </trkpt>
      <trkpt lat="44.44857" lon="6.30127">
        <ele>972</ele>
        <time>2021-09-02T08:05:46Z</time>
      </trkpt>
      <trkpt lat="44.44856" lon="6.30128">
        <ele>972.20001220703</ele>
        <time>2021-09-02T08:05:47Z</time>
      </trkpt>
      <trkpt lat="44.44851" lon="6.30135">
        <ele>972.79998779297</ele>
        <time>2021-09-02T08:05:50Z</time>
      </trkpt>
      <trkpt lat="44.44849" lon="6.30138">
        <ele>973.20001220703</ele>
        <time>2021-09-02T08:05:52Z</time>
      </trkpt>
      <trkpt lat="44.44848" lon="6.3014">
        <ele>973.40002441406</ele>
        <time>2021-09-02T08:05:53Z</time>
      </trkpt>
      <trkpt lat="44.44846" lon="6.30141">
        <ele>973.59997558594</ele>
        <time>2021-09-02T08:05:54Z</time>
      </trkpt>
      <trkpt lat="44.4484" lon="6.30147">
        <ele>974.20001220703</ele>
        <time>2021-09-02T08:05:58Z</time>
      </trkpt>
      <trkpt lat="44.44836" lon="6.30153">
        <ele>974.59997558594</ele>
        <time>2021-09-02T08:06:01Z</time>
      </trkpt>
      <trkpt lat="44.4483" lon="6.3016">
        <ele>975.20001220703</ele>
        <time>2021-09-02T08:06:05Z</time>
      </trkpt>
      <trkpt lat="44.44823" lon="6.30171">
        <ele>975.79998779297</ele>
        <time>2021-09-02T08:06:10Z</time>
      </trkpt>
      <trkpt lat="44.44819" lon="6.30181">
        <ele>976.20001220703</ele>
        <time>2021-09-02T08:06:14Z</time>
      </trkpt>
      <trkpt lat="44.44813" lon="6.3019">
        <ele>976.59997558594</ele>
        <time>2021-09-02T08:06:18Z</time>
      </trkpt>
      <trkpt lat="44.44804" lon="6.30204">
        <ele>977</ele>
        <time>2021-09-02T08:06:23Z</time>
      </trkpt>
      <trkpt lat="44.44796" lon="6.30214">
        <ele>977.20001220703</ele>
        <time>2021-09-02T08:06:27Z</time>
      </trkpt>
      <trkpt lat="44.44788" lon="6.30226">
        <ele>977.40002441406</ele>
        <time>2021-09-02T08:06:31Z</time>
      </trkpt>
      <trkpt lat="44.44766" lon="6.3025">
        <ele>977.59997558594</ele>
        <time>2021-09-02T08:06:40Z</time>
      </trkpt>
      <trkpt lat="44.44753" lon="6.30266">
        <ele>977.79998779297</ele>
        <time>2021-09-02T08:06:46Z</time>
      </trkpt>
      <trkpt lat="44.44736" lon="6.30285">
        <ele>978.40002441406</ele>
        <time>2021-09-02T08:06:53Z</time>
      </trkpt>
      <trkpt lat="44.44721" lon="6.30301">
        <ele>979.20001220703</ele>
        <time>2021-09-02T08:07:00Z</time>
      </trkpt>
      <trkpt lat="44.44717" lon="6.30304">
        <ele>979.40002441406</ele>
        <time>2021-09-02T08:07:02Z</time>
      </trkpt>
      <trkpt lat="44.44705" lon="6.3031">
        <ele>980.20001220703</ele>
        <time>2021-09-02T08:07:08Z</time>
      </trkpt>
      <trkpt lat="44.44701" lon="6.30312">
        <ele>980.40002441406</ele>
        <time>2021-09-02T08:07:10Z</time>
      </trkpt>
      <trkpt lat="44.44691" lon="6.30314">
        <ele>981.20001220703</ele>
        <time>2021-09-02T08:07:15Z</time>
      </trkpt>
      <trkpt lat="44.44687" lon="6.30314">
        <ele>981.59997558594</ele>
        <time>2021-09-02T08:07:17Z</time>
      </trkpt>
      <trkpt lat="44.44675" lon="6.30317">
        <ele>982.40002441406</ele>
        <time>2021-09-02T08:07:23Z</time>
      </trkpt>
      <trkpt lat="44.44671" lon="6.30317">
        <ele>982.59997558594</ele>
        <time>2021-09-02T08:07:25Z</time>
      </trkpt>
      <trkpt lat="44.44662" lon="6.30318">
        <ele>983.59997558594</ele>
        <time>2021-09-02T08:07:30Z</time>
      </trkpt>
      <trkpt lat="44.4466" lon="6.30318">
        <ele>983.79998779297</ele>
        <time>2021-09-02T08:07:31Z</time>
      </trkpt>
      <trkpt lat="44.44648" lon="6.30318">
        <ele>984.59997558594</ele>
        <time>2021-09-02T08:07:38Z</time>
      </trkpt>
      <trkpt lat="44.4464" lon="6.30318">
        <ele>985.40002441406</ele>
        <time>2021-09-02T08:07:44Z</time>
      </trkpt>
      <trkpt lat="44.44636" lon="6.30319">
        <ele>986</ele>
        <time>2021-09-02T08:07:47Z</time>
      </trkpt>
      <trkpt lat="44.44627" lon="6.30322">
        <ele>986.59997558594</ele>
        <time>2021-09-02T08:07:52Z</time>
      </trkpt>
      <trkpt lat="44.44625" lon="6.30323">
        <ele>986.79998779297</ele>
        <time>2021-09-02T08:07:53Z</time>
      </trkpt>
      <trkpt lat="44.44615" lon="6.30326">
        <ele>988</ele>
        <time>2021-09-02T08:08:00Z</time>
      </trkpt>
      <trkpt lat="44.44606" lon="6.30329">
        <ele>989</ele>
        <time>2021-09-02T08:08:06Z</time>
      </trkpt>
      <trkpt lat="44.446" lon="6.30331">
        <ele>989.59997558594</ele>
        <time>2021-09-02T08:08:10Z</time>
      </trkpt>
      <trkpt lat="44.44595" lon="6.30331">
        <ele>990.20001220703</ele>
        <time>2021-09-02T08:08:13Z</time>
      </trkpt>
      <trkpt lat="44.44581" lon="6.30335">
        <ele>992</ele>
        <time>2021-09-02T08:08:24Z</time>
      </trkpt>
      <trkpt lat="44.44576" lon="6.30337">
        <ele>992.59997558594</ele>
        <time>2021-09-02T08:08:27Z</time>
      </trkpt>
      <trkpt lat="44.44571" lon="6.30337">
        <ele>993</ele>
        <time>2021-09-02T08:08:30Z</time>
      </trkpt>
      <trkpt lat="44.44567" lon="6.30338">
        <ele>993.40002441406</ele>
        <time>2021-09-02T08:08:32Z</time>
      </trkpt>
      <trkpt lat="44.44559" lon="6.3034">
        <ele>994</ele>
        <time>2021-09-02T08:08:36Z</time>
      </trkpt>
      <trkpt lat="44.44554" lon="6.3034">
        <ele>994.59997558594</ele>
        <time>2021-09-02T08:08:40Z</time>
      </trkpt>
      <trkpt lat="44.44551" lon="6.3034">
        <ele>995.20001220703</ele>
        <time>2021-09-02T08:08:42Z</time>
      </trkpt>
      <trkpt lat="44.4454" lon="6.30342">
        <ele>996.20001220703</ele>
        <time>2021-09-02T08:08:48Z</time>
      </trkpt>
      <trkpt lat="44.44539" lon="6.30342">
        <ele>996.20001220703</ele>
        <time>2021-09-02T08:08:49Z</time>
      </trkpt>
      <trkpt lat="44.44529" lon="6.30343">
        <ele>997.59997558594</ele>
        <time>2021-09-02T08:08:57Z</time>
      </trkpt>
      <trkpt lat="44.44526" lon="6.30343">
        <ele>997.79998779297</ele>
        <time>2021-09-02T08:08:59Z</time>
      </trkpt>
      <trkpt lat="44.44519" lon="6.30343">
        <ele>998.59997558594</ele>
        <time>2021-09-02T08:09:04Z</time>
      </trkpt>
      <trkpt lat="44.44518" lon="6.30342">
        <ele>999</ele>
        <time>2021-09-02T08:09:05Z</time>
      </trkpt>
      <trkpt lat="44.44512" lon="6.30344">
        <ele>999.40002441406</ele>
        <time>2021-09-02T08:09:08Z</time>
      </trkpt>
      <trkpt lat="44.44509" lon="6.30345">
        <ele>999.79998779297</ele>
        <time>2021-09-02T08:09:10Z</time>
      </trkpt>
      <trkpt lat="44.44508" lon="6.30346">
        <ele>999.79998779297</ele>
        <time>2021-09-02T08:09:11Z</time>
      </trkpt>
      <trkpt lat="44.44496" lon="6.30347">
        <ele>1000.799987793</ele>
        <time>2021-09-02T08:09:18Z</time>
      </trkpt>
      <trkpt lat="44.44484" lon="6.3035">
        <ele>1001.799987793</ele>
        <time>2021-09-02T08:09:25Z</time>
      </trkpt>
      <trkpt lat="44.44483" lon="6.3035">
        <ele>1001.799987793</ele>
        <time>2021-09-02T08:09:26Z</time>
      </trkpt>
      <trkpt lat="44.44476" lon="6.30351">
        <ele>1002.4000244141</ele>
        <time>2021-09-02T08:09:30Z</time>
      </trkpt>
      <trkpt lat="44.44471" lon="6.30351">
        <ele>1003</ele>
        <time>2021-09-02T08:09:33Z</time>
      </trkpt>
      <trkpt lat="44.44462" lon="6.3035">
        <ele>1003.5999755859</ele>
        <time>2021-09-02T08:09:39Z</time>
      </trkpt>
      <trkpt lat="44.44458" lon="6.30352">
        <ele>1004</ele>
        <time>2021-09-02T08:09:42Z</time>
      </trkpt>
      <trkpt lat="44.44454" lon="6.30353">
        <ele>1004.200012207</ele>
        <time>2021-09-02T08:09:45Z</time>
      </trkpt>
      <trkpt lat="44.44444" lon="6.30357">
        <ele>1005</ele>
        <time>2021-09-02T08:09:52Z</time>
      </trkpt>
      <trkpt lat="44.44442" lon="6.30357">
        <ele>1005.200012207</ele>
        <time>2021-09-02T08:09:53Z</time>
      </trkpt>
      <trkpt lat="44.44435" lon="6.3036">
        <ele>1006</ele>
        <time>2021-09-02T08:09:59Z</time>
      </trkpt>
      <trkpt lat="44.44432" lon="6.30361">
        <ele>1006.4000244141</ele>
        <time>2021-09-02T08:10:01Z</time>
      </trkpt>
      <trkpt lat="44.44421" lon="6.30365">
        <ele>1007</ele>
        <time>2021-09-02T08:10:07Z</time>
      </trkpt>
      <trkpt lat="44.44419" lon="6.30366">
        <ele>1007.200012207</ele>
        <time>2021-09-02T08:10:08Z</time>
      </trkpt>
      <trkpt lat="44.44412" lon="6.30369">
        <ele>1008</ele>
        <time>2021-09-02T08:10:12Z</time>
      </trkpt>
      <trkpt lat="44.44409" lon="6.30371">
        <ele>1008.200012207</ele>
        <time>2021-09-02T08:10:14Z</time>
      </trkpt>
      <trkpt lat="44.44408" lon="6.30372">
        <ele>1008.200012207</ele>
        <time>2021-09-02T08:10:15Z</time>
      </trkpt>
      <trkpt lat="44.44403" lon="6.30372">
        <ele>1009</ele>
        <time>2021-09-02T08:10:18Z</time>
      </trkpt>
      <trkpt lat="44.44397" lon="6.30371">
        <ele>1009.4000244141</ele>
        <time>2021-09-02T08:10:21Z</time>
      </trkpt>
      <trkpt lat="44.44396" lon="6.30373">
        <ele>1009.5999755859</ele>
        <time>2021-09-02T08:10:22Z</time>
      </trkpt>
      <trkpt lat="44.44388" lon="6.30375">
        <ele>1010.200012207</ele>
        <time>2021-09-02T08:10:27Z</time>
      </trkpt>
      <trkpt lat="44.44386" lon="6.30376">
        <ele>1010.4000244141</ele>
        <time>2021-09-02T08:10:28Z</time>
      </trkpt>
      <trkpt lat="44.44376" lon="6.30379">
        <ele>1011.5999755859</ele>
        <time>2021-09-02T08:10:35Z</time>
      </trkpt>
      <trkpt lat="44.44366" lon="6.30382">
        <ele>1012.5999755859</ele>
        <time>2021-09-02T08:10:41Z</time>
      </trkpt>
      <trkpt lat="44.44362" lon="6.30384">
        <ele>1013</ele>
        <time>2021-09-02T08:10:44Z</time>
      </trkpt>
      <trkpt lat="44.44356" lon="6.30386">
        <ele>1013.5999755859</ele>
        <time>2021-09-02T08:10:48Z</time>
      </trkpt>
      <trkpt lat="44.44349" lon="6.30388">
        <ele>1014.4000244141</ele>
        <time>2021-09-02T08:10:53Z</time>
      </trkpt>
      <trkpt lat="44.44346" lon="6.30389">
        <ele>1014.799987793</ele>
        <time>2021-09-02T08:10:55Z</time>
      </trkpt>
      <trkpt lat="44.44339" lon="6.30394">
        <ele>1015.4000244141</ele>
        <time>2021-09-02T08:11:00Z</time>
      </trkpt>
      <trkpt lat="44.44335" lon="6.30395">
        <ele>1015.799987793</ele>
        <time>2021-09-02T08:11:03Z</time>
      </trkpt>
      <trkpt lat="44.44331" lon="6.30395">
        <ele>1016.4000244141</ele>
        <time>2021-09-02T08:11:06Z</time>
      </trkpt>
      <trkpt lat="44.4433" lon="6.30396">
        <ele>1016.5999755859</ele>
        <time>2021-09-02T08:11:07Z</time>
      </trkpt>
      <trkpt lat="44.44326" lon="6.30397">
        <ele>1017</ele>
        <time>2021-09-02T08:11:10Z</time>
      </trkpt>
      <trkpt lat="44.44323" lon="6.30398">
        <ele>1017.200012207</ele>
        <time>2021-09-02T08:11:12Z</time>
      </trkpt>
      <trkpt lat="44.44316" lon="6.30402">
        <ele>1018.200012207</ele>
        <time>2021-09-02T08:11:18Z</time>
      </trkpt>
      <trkpt lat="44.44314" lon="6.30404">
        <ele>1018.5999755859</ele>
        <time>2021-09-02T08:11:20Z</time>
      </trkpt>
      <trkpt lat="44.44306" lon="6.30406">
        <ele>1019.200012207</ele>
        <time>2021-09-02T08:11:25Z</time>
      </trkpt>
      <trkpt lat="44.44303" lon="6.30408">
        <ele>1019.5999755859</ele>
        <time>2021-09-02T08:11:27Z</time>
      </trkpt>
      <trkpt lat="44.44299" lon="6.30413">
        <ele>1020.200012207</ele>
        <time>2021-09-02T08:11:31Z</time>
      </trkpt>
      <trkpt lat="44.44294" lon="6.30415">
        <ele>1020.5999755859</ele>
        <time>2021-09-02T08:11:34Z</time>
      </trkpt>
      <trkpt lat="44.44289" lon="6.30414">
        <ele>1021</ele>
        <time>2021-09-02T08:11:37Z</time>
      </trkpt>
      <trkpt lat="44.44287" lon="6.30417">
        <ele>1021.4000244141</ele>
        <time>2021-09-02T08:11:39Z</time>
      </trkpt>
      <trkpt lat="44.44286" lon="6.30418">
        <ele>1021.5999755859</ele>
        <time>2021-09-02T08:11:40Z</time>
      </trkpt>
      <trkpt lat="44.44282" lon="6.30421">
        <ele>1022</ele>
        <time>2021-09-02T08:11:43Z</time>
      </trkpt>
      <trkpt lat="44.44277" lon="6.3042">
        <ele>1022.200012207</ele>
        <time>2021-09-02T08:11:46Z</time>
      </trkpt>
      <trkpt lat="44.44276" lon="6.3042">
        <ele>1022.4000244141</ele>
        <time>2021-09-02T08:11:47Z</time>
      </trkpt>
      <trkpt lat="44.44271" lon="6.30422">
        <ele>1023</ele>
        <time>2021-09-02T08:11:51Z</time>
      </trkpt>
      <trkpt lat="44.44266" lon="6.30424">
        <ele>1023.5999755859</ele>
        <time>2021-09-02T08:11:54Z</time>
      </trkpt>
      <trkpt lat="44.44264" lon="6.30424">
        <ele>1023.5999755859</ele>
        <time>2021-09-02T08:11:55Z</time>
      </trkpt>
      <trkpt lat="44.44262" lon="6.30423">
        <ele>1023.799987793</ele>
        <time>2021-09-02T08:11:56Z</time>
      </trkpt>
      <trkpt lat="44.44249" lon="6.30421">
        <ele>1024.5999755859</ele>
        <time>2021-09-02T08:12:03Z</time>
      </trkpt>
      <trkpt lat="44.44239" lon="6.30423">
        <ele>1025.4000244141</ele>
        <time>2021-09-02T08:12:09Z</time>
      </trkpt>
      <trkpt lat="44.44235" lon="6.30421">
        <ele>1025.8000488281</ele>
        <time>2021-09-02T08:12:11Z</time>
      </trkpt>
      <trkpt lat="44.44232" lon="6.30415">
        <ele>1026.1999511719</ele>
        <time>2021-09-02T08:12:15Z</time>
      </trkpt>
      <trkpt lat="44.4423" lon="6.30414">
        <ele>1026.4000244141</ele>
        <time>2021-09-02T08:12:16Z</time>
      </trkpt>
      <trkpt lat="44.44227" lon="6.30414">
        <ele>1026.8000488281</ele>
        <time>2021-09-02T08:12:18Z</time>
      </trkpt>
      <trkpt lat="44.44224" lon="6.30412">
        <ele>1027.1999511719</ele>
        <time>2021-09-02T08:12:21Z</time>
      </trkpt>
      <trkpt lat="44.4422" lon="6.3041">
        <ele>1027.5999755859</ele>
        <time>2021-09-02T08:12:24Z</time>
      </trkpt>
      <trkpt lat="44.44217" lon="6.3041">
        <ele>1028</ele>
        <time>2021-09-02T08:12:26Z</time>
      </trkpt>
      <trkpt lat="44.44215" lon="6.30407">
        <ele>1028.1999511719</ele>
        <time>2021-09-02T08:12:28Z</time>
      </trkpt>
      <trkpt lat="44.44207" lon="6.30405">
        <ele>1029</ele>
        <time>2021-09-02T08:12:33Z</time>
      </trkpt>
      <trkpt lat="44.44205" lon="6.30405">
        <ele>1029.1999511719</ele>
        <time>2021-09-02T08:12:34Z</time>
      </trkpt>
      <trkpt lat="44.44203" lon="6.30403">
        <ele>1029.4000244141</ele>
        <time>2021-09-02T08:12:36Z</time>
      </trkpt>
      <trkpt lat="44.44198" lon="6.30402">
        <ele>1029.8000488281</ele>
        <time>2021-09-02T08:12:40Z</time>
      </trkpt>
      <trkpt lat="44.44196" lon="6.30403">
        <ele>1030.1999511719</ele>
        <time>2021-09-02T08:12:41Z</time>
      </trkpt>
      <trkpt lat="44.44188" lon="6.30403">
        <ele>1031.1999511719</ele>
        <time>2021-09-02T08:12:46Z</time>
      </trkpt>
      <trkpt lat="44.44187" lon="6.30403">
        <ele>1031.1999511719</ele>
        <time>2021-09-02T08:12:47Z</time>
      </trkpt>
      <trkpt lat="44.44182" lon="6.304">
        <ele>1032</ele>
        <time>2021-09-02T08:12:51Z</time>
      </trkpt>
      <trkpt lat="44.44181" lon="6.30397">
        <ele>1032.1999511719</ele>
        <time>2021-09-02T08:12:52Z</time>
      </trkpt>
      <trkpt lat="44.4418" lon="6.30395">
        <ele>1032.4000244141</ele>
        <time>2021-09-02T08:12:53Z</time>
      </trkpt>
      <trkpt lat="44.44171" lon="6.30387">
        <ele>1033.4000244141</ele>
        <time>2021-09-02T08:12:59Z</time>
      </trkpt>
      <trkpt lat="44.44163" lon="6.30383">
        <ele>1034.8000488281</ele>
        <time>2021-09-02T08:13:05Z</time>
      </trkpt>
      <trkpt lat="44.4416" lon="6.30381">
        <ele>1035</ele>
        <time>2021-09-02T08:13:07Z</time>
      </trkpt>
      <trkpt lat="44.44156" lon="6.30378">
        <ele>1036</ele>
        <time>2021-09-02T08:13:11Z</time>
      </trkpt>
      <trkpt lat="44.44153" lon="6.30377">
        <ele>1036.1999511719</ele>
        <time>2021-09-02T08:13:13Z</time>
      </trkpt>
      <trkpt lat="44.44149" lon="6.30375">
        <ele>1036.8000488281</ele>
        <time>2021-09-02T08:13:16Z</time>
      </trkpt>
      <trkpt lat="44.44148" lon="6.30375">
        <ele>1037</ele>
        <time>2021-09-02T08:13:17Z</time>
      </trkpt>
      <trkpt lat="44.44142" lon="6.30377">
        <ele>1038</ele>
        <time>2021-09-02T08:13:21Z</time>
      </trkpt>
      <trkpt lat="44.44141" lon="6.30377">
        <ele>1038.1999511719</ele>
        <time>2021-09-02T08:13:22Z</time>
      </trkpt>
      <trkpt lat="44.44132" lon="6.30378">
        <ele>1039.1999511719</ele>
        <time>2021-09-02T08:13:28Z</time>
      </trkpt>
      <trkpt lat="44.44128" lon="6.3038">
        <ele>1040</ele>
        <time>2021-09-02T08:13:31Z</time>
      </trkpt>
      <trkpt lat="44.44127" lon="6.30381">
        <ele>1040</ele>
        <time>2021-09-02T08:13:32Z</time>
      </trkpt>
      <trkpt lat="44.44126" lon="6.30381">
        <ele>1040.1999511719</ele>
        <time>2021-09-02T08:13:33Z</time>
      </trkpt>
      <trkpt lat="44.44122" lon="6.30382">
        <ele>1040.8000488281</ele>
        <time>2021-09-02T08:13:36Z</time>
      </trkpt>
      <trkpt lat="44.44118" lon="6.30384">
        <ele>1041.1999511719</ele>
        <time>2021-09-02T08:13:39Z</time>
      </trkpt>
      <trkpt lat="44.44112" lon="6.30385">
        <ele>1042</ele>
        <time>2021-09-02T08:13:43Z</time>
      </trkpt>
      <trkpt lat="44.4411" lon="6.30386">
        <ele>1042.4000244141</ele>
        <time>2021-09-02T08:13:45Z</time>
      </trkpt>
      <trkpt lat="44.44101" lon="6.30388">
        <ele>1043.1999511719</ele>
        <time>2021-09-02T08:13:51Z</time>
      </trkpt>
      <trkpt lat="44.441" lon="6.30389">
        <ele>1043.4000244141</ele>
        <time>2021-09-02T08:13:52Z</time>
      </trkpt>
      <trkpt lat="44.44093" lon="6.30391">
        <ele>1044</ele>
        <time>2021-09-02T08:13:57Z</time>
      </trkpt>
      <trkpt lat="44.44088" lon="6.30392">
        <ele>1044.5999755859</ele>
        <time>2021-09-02T08:14:00Z</time>
      </trkpt>
      <trkpt lat="44.44076" lon="6.30392">
        <ele>1045.5999755859</ele>
        <time>2021-09-02T08:14:08Z</time>
      </trkpt>
      <trkpt lat="44.44074" lon="6.30392">
        <ele>1045.5999755859</ele>
        <time>2021-09-02T08:14:09Z</time>
      </trkpt>
      <trkpt lat="44.44064" lon="6.30395">
        <ele>1046.5999755859</ele>
        <time>2021-09-02T08:14:16Z</time>
      </trkpt>
      <trkpt lat="44.44062" lon="6.30395">
        <ele>1046.8000488281</ele>
        <time>2021-09-02T08:14:17Z</time>
      </trkpt>
      <trkpt lat="44.44054" lon="6.30395">
        <ele>1047.5999755859</ele>
        <time>2021-09-02T08:14:23Z</time>
      </trkpt>
      <trkpt lat="44.44051" lon="6.30396">
        <ele>1047.8000488281</ele>
        <time>2021-09-02T08:14:25Z</time>
      </trkpt>
      <trkpt lat="44.44046" lon="6.30396">
        <ele>1048.4000244141</ele>
        <time>2021-09-02T08:14:29Z</time>
      </trkpt>
      <trkpt lat="44.4404" lon="6.30397">
        <ele>1049</ele>
        <time>2021-09-02T08:14:33Z</time>
      </trkpt>
      <trkpt lat="44.44032" lon="6.30396">
        <ele>1049.5999755859</ele>
        <time>2021-09-02T08:14:38Z</time>
      </trkpt>
      <trkpt lat="44.44028" lon="6.30396">
        <ele>1050</ele>
        <time>2021-09-02T08:14:40Z</time>
      </trkpt>
      <trkpt lat="44.44019" lon="6.30395">
        <ele>1050.8000488281</ele>
        <time>2021-09-02T08:14:46Z</time>
      </trkpt>
      <trkpt lat="44.44017" lon="6.30395">
        <ele>1051</ele>
        <time>2021-09-02T08:14:47Z</time>
      </trkpt>
      <trkpt lat="44.44009" lon="6.30394">
        <ele>1051.8000488281</ele>
        <time>2021-09-02T08:14:53Z</time>
      </trkpt>
      <trkpt lat="44.44005" lon="6.30395">
        <ele>1052</ele>
        <time>2021-09-02T08:14:55Z</time>
      </trkpt>
      <trkpt lat="44.44" lon="6.30396">
        <ele>1052.5999755859</ele>
        <time>2021-09-02T08:14:59Z</time>
      </trkpt>
      <trkpt lat="44.43994" lon="6.30397">
        <ele>1053</ele>
        <time>2021-09-02T08:15:03Z</time>
      </trkpt>
      <trkpt lat="44.43988" lon="6.304">
        <ele>1053.5999755859</ele>
        <time>2021-09-02T08:15:07Z</time>
      </trkpt>
      <trkpt lat="44.43982" lon="6.30404">
        <ele>1054.1999511719</ele>
        <time>2021-09-02T08:15:11Z</time>
      </trkpt>
      <trkpt lat="44.43979" lon="6.30405">
        <ele>1054.5999755859</ele>
        <time>2021-09-02T08:15:13Z</time>
      </trkpt>
      <trkpt lat="44.43978" lon="6.30405">
        <ele>1054.5999755859</ele>
        <time>2021-09-02T08:15:14Z</time>
      </trkpt>
      <trkpt lat="44.43974" lon="6.30407">
        <ele>1055</ele>
        <time>2021-09-02T08:15:16Z</time>
      </trkpt>
      <trkpt lat="44.4397" lon="6.30409">
        <ele>1055.4000244141</ele>
        <time>2021-09-02T08:15:19Z</time>
      </trkpt>
      <trkpt lat="44.43969" lon="6.3041">
        <ele>1055.4000244141</ele>
        <time>2021-09-02T08:15:20Z</time>
      </trkpt>
      <trkpt lat="44.43955" lon="6.30418">
        <ele>1056.8000488281</ele>
        <time>2021-09-02T08:15:30Z</time>
      </trkpt>
      <trkpt lat="44.43954" lon="6.3042">
        <ele>1057</ele>
        <time>2021-09-02T08:15:31Z</time>
      </trkpt>
      <trkpt lat="44.43951" lon="6.30424">
        <ele>1057.4000244141</ele>
        <time>2021-09-02T08:15:34Z</time>
      </trkpt>
      <trkpt lat="44.43944" lon="6.30436">
        <ele>1058.4000244141</ele>
        <time>2021-09-02T08:15:41Z</time>
      </trkpt>
      <trkpt lat="44.43939" lon="6.30438">
        <ele>1057.5999755859</ele>
        <time>2021-09-02T08:23:27Z</time>
      </trkpt>
      <trkpt lat="44.43938" lon="6.30442">
        <ele>1057.5999755859</ele>
        <time>2021-09-02T08:23:29Z</time>
      </trkpt>
      <trkpt lat="44.43933" lon="6.30456">
        <ele>1058.1999511719</ele>
        <time>2021-09-02T08:23:35Z</time>
      </trkpt>
      <trkpt lat="44.4393" lon="6.30461">
        <ele>1059</ele>
        <time>2021-09-02T08:23:38Z</time>
      </trkpt>
      <trkpt lat="44.43926" lon="6.30466">
        <ele>1059.5999755859</ele>
        <time>2021-09-02T08:23:41Z</time>
      </trkpt>
      <trkpt lat="44.43921" lon="6.30471">
        <ele>1060.1999511719</ele>
        <time>2021-09-02T08:23:45Z</time>
      </trkpt>
      <trkpt lat="44.4392" lon="6.30473">
        <ele>1060.4000244141</ele>
        <time>2021-09-02T08:23:46Z</time>
      </trkpt>
      <trkpt lat="44.4392" lon="6.30475">
        <ele>1060.5999755859</ele>
        <time>2021-09-02T08:23:47Z</time>
      </trkpt>
      <trkpt lat="44.43918" lon="6.30477">
        <ele>1061</ele>
        <time>2021-09-02T08:23:49Z</time>
      </trkpt>
      <trkpt lat="44.43916" lon="6.3048">
        <ele>1061.4000244141</ele>
        <time>2021-09-02T08:23:51Z</time>
      </trkpt>
      <trkpt lat="44.43913" lon="6.30482">
        <ele>1061.5999755859</ele>
        <time>2021-09-02T08:23:53Z</time>
      </trkpt>
      <trkpt lat="44.43908" lon="6.30486">
        <ele>1062.4000244141</ele>
        <time>2021-09-02T08:23:57Z</time>
      </trkpt>
      <trkpt lat="44.43906" lon="6.30488">
        <ele>1062.8000488281</ele>
        <time>2021-09-02T08:23:59Z</time>
      </trkpt>
      <trkpt lat="44.43901" lon="6.30492">
        <ele>1063.4000244141</ele>
        <time>2021-09-02T08:24:03Z</time>
      </trkpt>
      <trkpt lat="44.43896" lon="6.30493">
        <ele>1063.8000488281</ele>
        <time>2021-09-02T08:24:06Z</time>
      </trkpt>
      <trkpt lat="44.43891" lon="6.30496">
        <ele>1064.4000244141</ele>
        <time>2021-09-02T08:24:10Z</time>
      </trkpt>
      <trkpt lat="44.43887" lon="6.305">
        <ele>1064.8000488281</ele>
        <time>2021-09-02T08:24:13Z</time>
      </trkpt>
      <trkpt lat="44.4388" lon="6.305">
        <ele>1065.4000244141</ele>
        <time>2021-09-02T08:24:17Z</time>
      </trkpt>
      <trkpt lat="44.43878" lon="6.305">
        <ele>1065.5999755859</ele>
        <time>2021-09-02T08:24:18Z</time>
      </trkpt>
      <trkpt lat="44.43874" lon="6.30499">
        <ele>1066</ele>
        <time>2021-09-02T08:24:20Z</time>
      </trkpt>
      <trkpt lat="44.4387" lon="6.30498">
        <ele>1066.4000244141</ele>
        <time>2021-09-02T08:24:23Z</time>
      </trkpt>
      <trkpt lat="44.43868" lon="6.30498">
        <ele>1066.5999755859</ele>
        <time>2021-09-02T08:24:24Z</time>
      </trkpt>
      <trkpt lat="44.43864" lon="6.30497">
        <ele>1067</ele>
        <time>2021-09-02T08:24:27Z</time>
      </trkpt>
      <trkpt lat="44.4386" lon="6.30495">
        <ele>1067.4000244141</ele>
        <time>2021-09-02T08:24:30Z</time>
      </trkpt>
      <trkpt lat="44.43855" lon="6.30492">
        <ele>1068</ele>
        <time>2021-09-02T08:24:34Z</time>
      </trkpt>
      <trkpt lat="44.43848" lon="6.3049">
        <ele>1069</ele>
        <time>2021-09-02T08:24:40Z</time>
      </trkpt>
      <trkpt lat="44.43847" lon="6.30489">
        <ele>1069.1999511719</ele>
        <time>2021-09-02T08:24:41Z</time>
      </trkpt>
      <trkpt lat="44.4384" lon="6.30484">
        <ele>1070.1999511719</ele>
        <time>2021-09-02T08:24:47Z</time>
      </trkpt>
      <trkpt lat="44.43831" lon="6.3048">
        <ele>1071.1999511719</ele>
        <time>2021-09-02T08:24:54Z</time>
      </trkpt>
      <trkpt lat="44.43829" lon="6.30479">
        <ele>1071.4000244141</ele>
        <time>2021-09-02T08:24:55Z</time>
      </trkpt>
      <trkpt lat="44.43823" lon="6.30472">
        <ele>1072.4000244141</ele>
        <time>2021-09-02T08:25:01Z</time>
      </trkpt>
      <trkpt lat="44.43822" lon="6.3047">
        <ele>1072.4000244141</ele>
        <time>2021-09-02T08:25:02Z</time>
      </trkpt>
      <trkpt lat="44.43818" lon="6.30463">
        <ele>1073.4000244141</ele>
        <time>2021-09-02T08:25:07Z</time>
      </trkpt>
      <trkpt lat="44.43817" lon="6.30461">
        <ele>1073.4000244141</ele>
        <time>2021-09-02T08:25:08Z</time>
      </trkpt>
      <trkpt lat="44.43812" lon="6.30446">
        <ele>1074.4000244141</ele>
        <time>2021-09-02T08:25:15Z</time>
      </trkpt>
      <trkpt lat="44.43812" lon="6.30444">
        <ele>1074.5999755859</ele>
        <time>2021-09-02T08:25:16Z</time>
      </trkpt>
      <trkpt lat="44.4381" lon="6.30435">
        <ele>1075.1999511719</ele>
        <time>2021-09-02T08:25:20Z</time>
      </trkpt>
      <trkpt lat="44.4381" lon="6.30431">
        <ele>1075.4000244141</ele>
        <time>2021-09-02T08:25:22Z</time>
      </trkpt>
      <trkpt lat="44.4381" lon="6.30428">
        <ele>1075.4000244141</ele>
        <time>2021-09-02T08:25:23Z</time>
      </trkpt>
      <trkpt lat="44.43808" lon="6.30422">
        <ele>1075.8000488281</ele>
        <time>2021-09-02T08:25:26Z</time>
      </trkpt>
      <trkpt lat="44.43808" lon="6.30417">
        <ele>1076</ele>
        <time>2021-09-02T08:25:28Z</time>
      </trkpt>
      <trkpt lat="44.43807" lon="6.30411">
        <ele>1076.5999755859</ele>
        <time>2021-09-02T08:25:31Z</time>
      </trkpt>
      <trkpt lat="44.43809" lon="6.30404">
        <ele>1076.8000488281</ele>
        <time>2021-09-02T08:25:34Z</time>
      </trkpt>
      <trkpt lat="44.43811" lon="6.30399">
        <ele>1077</ele>
        <time>2021-09-02T08:25:36Z</time>
      </trkpt>
      <trkpt lat="44.43815" lon="6.30389">
        <ele>1077.5999755859</ele>
        <time>2021-09-02T08:25:41Z</time>
      </trkpt>
      <trkpt lat="44.43815" lon="6.30386">
        <ele>1077.8000488281</ele>
        <time>2021-09-02T08:25:42Z</time>
      </trkpt>
      <trkpt lat="44.43818" lon="6.30375">
        <ele>1078.5999755859</ele>
        <time>2021-09-02T08:25:47Z</time>
      </trkpt>
      <trkpt lat="44.43819" lon="6.3037">
        <ele>1079</ele>
        <time>2021-09-02T08:25:49Z</time>
      </trkpt>
      <trkpt lat="44.43823" lon="6.30357">
        <ele>1079.8000488281</ele>
        <time>2021-09-02T08:25:54Z</time>
      </trkpt>
      <trkpt lat="44.43824" lon="6.30352">
        <ele>1080</ele>
        <time>2021-09-02T08:25:56Z</time>
      </trkpt>
      <trkpt lat="44.43828" lon="6.30337">
        <ele>1080.8000488281</ele>
        <time>2021-09-02T08:26:02Z</time>
      </trkpt>
      <trkpt lat="44.43829" lon="6.30333">
        <ele>1081.1999511719</ele>
        <time>2021-09-02T08:26:04Z</time>
      </trkpt>
      <trkpt lat="44.43832" lon="6.30318">
        <ele>1082</ele>
        <time>2021-09-02T08:26:10Z</time>
      </trkpt>
      <trkpt lat="44.43834" lon="6.30312">
        <ele>1082.1999511719</ele>
        <time>2021-09-02T08:26:12Z</time>
      </trkpt>
      <trkpt lat="44.43838" lon="6.30298">
        <ele>1083.1999511719</ele>
        <time>2021-09-02T08:26:18Z</time>
      </trkpt>
      <trkpt lat="44.43838" lon="6.30296">
        <ele>1083.1999511719</ele>
        <time>2021-09-02T08:26:19Z</time>
      </trkpt>
      <trkpt lat="44.43843" lon="6.30284">
        <ele>1084.1999511719</ele>
        <time>2021-09-02T08:26:25Z</time>
      </trkpt>
      <trkpt lat="44.43845" lon="6.30281">
        <ele>1084.5999755859</ele>
        <time>2021-09-02T08:26:27Z</time>
      </trkpt>
      <trkpt lat="44.43848" lon="6.30271">
        <ele>1085.4000244141</ele>
        <time>2021-09-02T08:26:32Z</time>
      </trkpt>
      <trkpt lat="44.43852" lon="6.30258">
        <ele>1086.4000244141</ele>
        <time>2021-09-02T08:26:38Z</time>
      </trkpt>
      <trkpt lat="44.43852" lon="6.30256">
        <ele>1086.5999755859</ele>
        <time>2021-09-02T08:26:39Z</time>
      </trkpt>
      <trkpt lat="44.43855" lon="6.30246">
        <ele>1087.4000244141</ele>
        <time>2021-09-02T08:26:44Z</time>
      </trkpt>
      <trkpt lat="44.43857" lon="6.30243">
        <ele>1087.8000488281</ele>
        <time>2021-09-02T08:26:46Z</time>
      </trkpt>
      <trkpt lat="44.43858" lon="6.30242">
        <ele>1088</ele>
        <time>2021-09-02T08:26:47Z</time>
      </trkpt>
      <trkpt lat="44.43866" lon="6.30225">
        <ele>1089.4000244141</ele>
        <time>2021-09-02T08:26:57Z</time>
      </trkpt>
      <trkpt lat="44.43867" lon="6.30224">
        <ele>1089.5999755859</ele>
        <time>2021-09-02T08:26:58Z</time>
      </trkpt>
      <trkpt lat="44.43875" lon="6.30216">
        <ele>1090.5999755859</ele>
        <time>2021-09-02T08:27:04Z</time>
      </trkpt>
      <trkpt lat="44.43884" lon="6.30204">
        <ele>1091.5999755859</ele>
        <time>2021-09-02T08:27:11Z</time>
      </trkpt>
      <trkpt lat="44.43885" lon="6.30203">
        <ele>1091.8000488281</ele>
        <time>2021-09-02T08:27:12Z</time>
      </trkpt>
      <trkpt lat="44.43892" lon="6.30197">
        <ele>1092.4000244141</ele>
        <time>2021-09-02T08:27:17Z</time>
      </trkpt>
      <trkpt lat="44.43896" lon="6.30193">
        <ele>1092.8000488281</ele>
        <time>2021-09-02T08:27:20Z</time>
      </trkpt>
      <trkpt lat="44.439" lon="6.30189">
        <ele>1093.1999511719</ele>
        <time>2021-09-02T08:27:23Z</time>
      </trkpt>
      <trkpt lat="44.43906" lon="6.30183">
        <ele>1094</ele>
        <time>2021-09-02T08:27:27Z</time>
      </trkpt>
      <trkpt lat="44.43908" lon="6.3018">
        <ele>1094.1999511719</ele>
        <time>2021-09-02T08:27:29Z</time>
      </trkpt>
      <trkpt lat="44.43913" lon="6.30176">
        <ele>1095</ele>
        <time>2021-09-02T08:27:33Z</time>
      </trkpt>
      <trkpt lat="44.43916" lon="6.30174">
        <ele>1095.4000244141</ele>
        <time>2021-09-02T08:27:35Z</time>
      </trkpt>
      <trkpt lat="44.43931" lon="6.30157">
        <ele>1097.1999511719</ele>
        <time>2021-09-02T08:27:47Z</time>
      </trkpt>
      <trkpt lat="44.4394" lon="6.30151">
        <ele>1098</ele>
        <time>2021-09-02T08:27:53Z</time>
      </trkpt>
      <trkpt lat="44.43941" lon="6.3015">
        <ele>1098.1999511719</ele>
        <time>2021-09-02T08:27:54Z</time>
      </trkpt>
      <trkpt lat="44.43952" lon="6.30146">
        <ele>1099.1999511719</ele>
        <time>2021-09-02T08:28:00Z</time>
      </trkpt>
      <trkpt lat="44.43962" lon="6.30142">
        <ele>1100.4000244141</ele>
        <time>2021-09-02T08:28:06Z</time>
      </trkpt>
      <trkpt lat="44.43972" lon="6.30138">
        <ele>1101.4000244141</ele>
        <time>2021-09-02T08:28:13Z</time>
      </trkpt>
      <trkpt lat="44.4398" lon="6.30132">
        <ele>1102.5999755859</ele>
        <time>2021-09-02T08:28:19Z</time>
      </trkpt>
      <trkpt lat="44.43989" lon="6.30127">
        <ele>1103.5999755859</ele>
        <time>2021-09-02T08:28:26Z</time>
      </trkpt>
      <trkpt lat="44.43999" lon="6.30122">
        <ele>1104.4000244141</ele>
        <time>2021-09-02T08:28:32Z</time>
      </trkpt>
      <trkpt lat="44.44004" lon="6.30118">
        <ele>1104.8000488281</ele>
        <time>2021-09-02T08:28:35Z</time>
      </trkpt>
      <trkpt lat="44.44012" lon="6.30112">
        <ele>1105.5999755859</ele>
        <time>2021-09-02T08:28:40Z</time>
      </trkpt>
      <trkpt lat="44.44014" lon="6.3011">
        <ele>1106</ele>
        <time>2021-09-02T08:28:42Z</time>
      </trkpt>
      <trkpt lat="44.44021" lon="6.301">
        <ele>1106.8000488281</ele>
        <time>2021-09-02T08:28:48Z</time>
      </trkpt>
      <trkpt lat="44.44024" lon="6.30098">
        <ele>1107</ele>
        <time>2021-09-02T08:28:50Z</time>
      </trkpt>
      <trkpt lat="44.44029" lon="6.30092">
        <ele>1107.4000244141</ele>
        <time>2021-09-02T08:28:54Z</time>
      </trkpt>
      <trkpt lat="44.44035" lon="6.30084">
        <ele>1108</ele>
        <time>2021-09-02T08:28:59Z</time>
      </trkpt>
      <trkpt lat="44.44039" lon="6.30079">
        <ele>1108.4000244141</ele>
        <time>2021-09-02T08:29:02Z</time>
      </trkpt>
      <trkpt lat="44.44045" lon="6.30071">
        <ele>1109.1999511719</ele>
        <time>2021-09-02T08:29:07Z</time>
      </trkpt>
      <trkpt lat="44.44049" lon="6.30066">
        <ele>1109.5999755859</ele>
        <time>2021-09-02T08:29:10Z</time>
      </trkpt>
      <trkpt lat="44.44057" lon="6.30058">
        <ele>1110.4000244141</ele>
        <time>2021-09-02T08:29:15Z</time>
      </trkpt>
      <trkpt lat="44.44058" lon="6.30057">
        <ele>1110.4000244141</ele>
        <time>2021-09-02T08:29:16Z</time>
      </trkpt>
      <trkpt lat="44.44064" lon="6.30051">
        <ele>1110.8000488281</ele>
        <time>2021-09-02T08:29:20Z</time>
      </trkpt>
      <trkpt lat="44.44068" lon="6.30044">
        <ele>1111</ele>
        <time>2021-09-02T08:29:23Z</time>
      </trkpt>
      <trkpt lat="44.44069" lon="6.30039">
        <ele>1111.1999511719</ele>
        <time>2021-09-02T08:29:25Z</time>
      </trkpt>
      <trkpt lat="44.44069" lon="6.30037">
        <ele>1111.4000244141</ele>
        <time>2021-09-02T08:29:26Z</time>
      </trkpt>
      <trkpt lat="44.44068" lon="6.30032">
        <ele>1111.5999755859</ele>
        <time>2021-09-02T08:29:28Z</time>
      </trkpt>
      <trkpt lat="44.44067" lon="6.3003">
        <ele>1111.8000488281</ele>
        <time>2021-09-02T08:29:29Z</time>
      </trkpt>
      <trkpt lat="44.44063" lon="6.30025">
        <ele>1112.4000244141</ele>
        <time>2021-09-02T08:29:33Z</time>
      </trkpt>
      <trkpt lat="44.4406" lon="6.30025">
        <ele>1112.8000488281</ele>
        <time>2021-09-02T08:29:35Z</time>
      </trkpt>
      <trkpt lat="44.44053" lon="6.30025">
        <ele>1113.5999755859</ele>
        <time>2021-09-02T08:29:40Z</time>
      </trkpt>
      <trkpt lat="44.44047" lon="6.30027">
        <ele>1114.5999755859</ele>
        <time>2021-09-02T08:29:45Z</time>
      </trkpt>
      <trkpt lat="44.44038" lon="6.30028">
        <ele>1115.5999755859</ele>
        <time>2021-09-02T08:29:51Z</time>
      </trkpt>
      <trkpt lat="44.44036" lon="6.30028">
        <ele>1115.8000488281</ele>
        <time>2021-09-02T08:29:52Z</time>
      </trkpt>
      <trkpt lat="44.44035" lon="6.30028">
        <ele>1116</ele>
        <time>2021-09-02T08:29:53Z</time>
      </trkpt>
      <trkpt lat="44.4403" lon="6.30028">
        <ele>1116.5999755859</ele>
        <time>2021-09-02T08:29:56Z</time>
      </trkpt>
      <trkpt lat="44.44029" lon="6.30028">
        <ele>1116.8000488281</ele>
        <time>2021-09-02T08:29:57Z</time>
      </trkpt>
      <trkpt lat="44.44017" lon="6.30027">
        <ele>1117.8000488281</ele>
        <time>2021-09-02T08:30:04Z</time>
      </trkpt>
      <trkpt lat="44.44006" lon="6.30025">
        <ele>1118.8000488281</ele>
        <time>2021-09-02T08:30:11Z</time>
      </trkpt>
      <trkpt lat="44.44002" lon="6.30026">
        <ele>1119.1999511719</ele>
        <time>2021-09-02T08:30:14Z</time>
      </trkpt>
      <trkpt lat="44.43999" lon="6.30025">
        <ele>1119.4000244141</ele>
        <time>2021-09-02T08:30:16Z</time>
      </trkpt>
      <trkpt lat="44.43996" lon="6.30024">
        <ele>1119.8000488281</ele>
        <time>2021-09-02T08:30:18Z</time>
      </trkpt>
      <trkpt lat="44.43994" lon="6.30024">
        <ele>1120</ele>
        <time>2021-09-02T08:30:19Z</time>
      </trkpt>
      <trkpt lat="44.43987" lon="6.30023">
        <ele>1120.8000488281</ele>
        <time>2021-09-02T08:30:24Z</time>
      </trkpt>
      <trkpt lat="44.43985" lon="6.30023">
        <ele>1121</ele>
        <time>2021-09-02T08:30:25Z</time>
      </trkpt>
      <trkpt lat="44.4398" lon="6.30022">
        <ele>1121.5999755859</ele>
        <time>2021-09-02T08:30:29Z</time>
      </trkpt>
      <trkpt lat="44.43974" lon="6.30021">
        <ele>1122.1999511719</ele>
        <time>2021-09-02T08:30:33Z</time>
      </trkpt>
      <trkpt lat="44.4397" lon="6.3002">
        <ele>1122.5999755859</ele>
        <time>2021-09-02T08:30:36Z</time>
      </trkpt>
      <trkpt lat="44.43962" lon="6.3002">
        <ele>1123.1999511719</ele>
        <time>2021-09-02T08:30:41Z</time>
      </trkpt>
      <trkpt lat="44.43959" lon="6.30019">
        <ele>1123.5999755859</ele>
        <time>2021-09-02T08:30:43Z</time>
      </trkpt>
      <trkpt lat="44.43953" lon="6.30019">
        <ele>1124.1999511719</ele>
        <time>2021-09-02T08:30:47Z</time>
      </trkpt>
      <trkpt lat="44.4395" lon="6.30018">
        <ele>1124.4000244141</ele>
        <time>2021-09-02T08:30:49Z</time>
      </trkpt>
      <trkpt lat="44.43941" lon="6.30015">
        <ele>1125.4000244141</ele>
        <time>2021-09-02T08:30:55Z</time>
      </trkpt>
      <trkpt lat="44.43936" lon="6.30015">
        <ele>1125.8000488281</ele>
        <time>2021-09-02T08:30:58Z</time>
      </trkpt>
      <trkpt lat="44.4393" lon="6.30017">
        <ele>1126.4000244141</ele>
        <time>2021-09-02T08:31:02Z</time>
      </trkpt>
      <trkpt lat="44.43924" lon="6.30017">
        <ele>1127.1999511719</ele>
        <time>2021-09-02T08:31:06Z</time>
      </trkpt>
      <trkpt lat="44.43919" lon="6.30018">
        <ele>1127.5999755859</ele>
        <time>2021-09-02T08:31:09Z</time>
      </trkpt>
      <trkpt lat="44.43911" lon="6.3002">
        <ele>1128.1999511719</ele>
        <time>2021-09-02T08:31:14Z</time>
      </trkpt>
      <trkpt lat="44.43906" lon="6.30021">
        <ele>1128.5999755859</ele>
        <time>2021-09-02T08:31:17Z</time>
      </trkpt>
      <trkpt lat="44.43899" lon="6.3002">
        <ele>1129.1999511719</ele>
        <time>2021-09-02T08:31:21Z</time>
      </trkpt>
      <trkpt lat="44.43898" lon="6.30021">
        <ele>1129.4000244141</ele>
        <time>2021-09-02T08:31:22Z</time>
      </trkpt>
      <trkpt lat="44.43893" lon="6.30024">
        <ele>1129.8000488281</ele>
        <time>2021-09-02T08:31:25Z</time>
      </trkpt>
      <trkpt lat="44.43891" lon="6.30024">
        <ele>1130</ele>
        <time>2021-09-02T08:31:26Z</time>
      </trkpt>
      <trkpt lat="44.4389" lon="6.30025">
        <ele>1130.1999511719</ele>
        <time>2021-09-02T08:31:27Z</time>
      </trkpt>
      <trkpt lat="44.43885" lon="6.30025">
        <ele>1130.8000488281</ele>
        <time>2021-09-02T08:31:30Z</time>
      </trkpt>
      <trkpt lat="44.43878" lon="6.30026">
        <ele>1131.4000244141</ele>
        <time>2021-09-02T08:31:34Z</time>
      </trkpt>
      <trkpt lat="44.43873" lon="6.30027">
        <ele>1131.8000488281</ele>
        <time>2021-09-02T08:31:37Z</time>
      </trkpt>
      <trkpt lat="44.43866" lon="6.30028">
        <ele>1132.5999755859</ele>
        <time>2021-09-02T08:31:42Z</time>
      </trkpt>
      <trkpt lat="44.43862" lon="6.30029">
        <ele>1133</ele>
        <time>2021-09-02T08:31:45Z</time>
      </trkpt>
      <trkpt lat="44.43857" lon="6.3003">
        <ele>1133.4000244141</ele>
        <time>2021-09-02T08:31:48Z</time>
      </trkpt>
      <trkpt lat="44.43849" lon="6.30028">
        <ele>1134.1999511719</ele>
        <time>2021-09-02T08:31:53Z</time>
      </trkpt>
      <trkpt lat="44.43846" lon="6.30028">
        <ele>1134.5999755859</ele>
        <time>2021-09-02T08:31:55Z</time>
      </trkpt>
      <trkpt lat="44.43838" lon="6.3003">
        <ele>1135.1999511719</ele>
        <time>2021-09-02T08:31:59Z</time>
      </trkpt>
      <trkpt lat="44.43832" lon="6.30029">
        <ele>1135.8000488281</ele>
        <time>2021-09-02T08:32:03Z</time>
      </trkpt>
      <trkpt lat="44.43825" lon="6.30029">
        <ele>1136.4000244141</ele>
        <time>2021-09-02T08:32:07Z</time>
      </trkpt>
      <trkpt lat="44.43821" lon="6.30028">
        <ele>1136.8000488281</ele>
        <time>2021-09-02T08:32:10Z</time>
      </trkpt>
      <trkpt lat="44.43814" lon="6.30027">
        <ele>1137.4000244141</ele>
        <time>2021-09-02T08:32:14Z</time>
      </trkpt>
      <trkpt lat="44.43808" lon="6.30029">
        <ele>1138.1999511719</ele>
        <time>2021-09-02T08:32:18Z</time>
      </trkpt>
      <trkpt lat="44.43805" lon="6.3003">
        <ele>1138.5999755859</ele>
        <time>2021-09-02T08:32:20Z</time>
      </trkpt>
      <trkpt lat="44.43799" lon="6.30031">
        <ele>1139.1999511719</ele>
        <time>2021-09-02T08:32:24Z</time>
      </trkpt>
      <trkpt lat="44.43795" lon="6.30031">
        <ele>1139.5999755859</ele>
        <time>2021-09-02T08:32:27Z</time>
      </trkpt>
      <trkpt lat="44.4379" lon="6.30034">
        <ele>1140</ele>
        <time>2021-09-02T08:32:30Z</time>
      </trkpt>
      <trkpt lat="44.43789" lon="6.30035">
        <ele>1140.1999511719</ele>
        <time>2021-09-02T08:32:31Z</time>
      </trkpt>
      <trkpt lat="44.43784" lon="6.30036">
        <ele>1140.5999755859</ele>
        <time>2021-09-02T08:32:34Z</time>
      </trkpt>
      <trkpt lat="44.43782" lon="6.30036">
        <ele>1140.5999755859</ele>
        <time>2021-09-02T08:32:35Z</time>
      </trkpt>
      <trkpt lat="44.43781" lon="6.30036">
        <ele>1140.8000488281</ele>
        <time>2021-09-02T08:32:36Z</time>
      </trkpt>
      <trkpt lat="44.4377" lon="6.30037">
        <ele>1141.5999755859</ele>
        <time>2021-09-02T08:32:42Z</time>
      </trkpt>
      <trkpt lat="44.43767" lon="6.30037">
        <ele>1141.8000488281</ele>
        <time>2021-09-02T08:32:44Z</time>
      </trkpt>
      <trkpt lat="44.4376" lon="6.30038">
        <ele>1142.4000244141</ele>
        <time>2021-09-02T08:32:48Z</time>
      </trkpt>
      <trkpt lat="44.43752" lon="6.30039">
        <ele>1142.8000488281</ele>
        <time>2021-09-02T08:32:53Z</time>
      </trkpt>
      <trkpt lat="44.4375" lon="6.30039">
        <ele>1143</ele>
        <time>2021-09-02T08:32:54Z</time>
      </trkpt>
      <trkpt lat="44.4374" lon="6.30042">
        <ele>1144</ele>
        <time>2021-09-02T08:33:00Z</time>
      </trkpt>
      <trkpt lat="44.43735" lon="6.30044">
        <ele>1144.4000244141</ele>
        <time>2021-09-02T08:33:02Z</time>
      </trkpt>
      <trkpt lat="44.43727" lon="6.30045">
        <ele>1145.1999511719</ele>
        <time>2021-09-02T08:33:06Z</time>
      </trkpt>
      <trkpt lat="44.43723" lon="6.30047">
        <ele>1145.5999755859</ele>
        <time>2021-09-02T08:33:08Z</time>
      </trkpt>
      <trkpt lat="44.43721" lon="6.30047">
        <ele>1145.8000488281</ele>
        <time>2021-09-02T08:33:09Z</time>
      </trkpt>
      <trkpt lat="44.43716" lon="6.30047">
        <ele>1146.1999511719</ele>
        <time>2021-09-02T08:33:12Z</time>
      </trkpt>
      <trkpt lat="44.4371" lon="6.30048">
        <ele>1146.8000488281</ele>
        <time>2021-09-02T08:33:15Z</time>
      </trkpt>
      <trkpt lat="44.43706" lon="6.30047">
        <ele>1147.1999511719</ele>
        <time>2021-09-02T08:33:18Z</time>
      </trkpt>
      <trkpt lat="44.43697" lon="6.30045">
        <ele>1148.1999511719</ele>
        <time>2021-09-02T08:33:23Z</time>
      </trkpt>
      <trkpt lat="44.43696" lon="6.30045">
        <ele>1148.4000244141</ele>
        <time>2021-09-02T08:33:24Z</time>
      </trkpt>
      <trkpt lat="44.43686" lon="6.30042">
        <ele>1149.5999755859</ele>
        <time>2021-09-02T08:33:30Z</time>
      </trkpt>
      <trkpt lat="44.43683" lon="6.30041">
        <ele>1149.8000488281</ele>
        <time>2021-09-02T08:33:32Z</time>
      </trkpt>
      <trkpt lat="44.43678" lon="6.30037">
        <ele>1150.4000244141</ele>
        <time>2021-09-02T08:33:35Z</time>
      </trkpt>
      <trkpt lat="44.43674" lon="6.30035">
        <ele>1150.5999755859</ele>
        <time>2021-09-02T08:33:37Z</time>
      </trkpt>
      <trkpt lat="44.43673" lon="6.30034">
        <ele>1150.8000488281</ele>
        <time>2021-09-02T08:33:38Z</time>
      </trkpt>
      <trkpt lat="44.43664" lon="6.30027">
        <ele>1151.5999755859</ele>
        <time>2021-09-02T08:33:43Z</time>
      </trkpt>
      <trkpt lat="44.43657" lon="6.30024">
        <ele>1152.1999511719</ele>
        <time>2021-09-02T08:33:47Z</time>
      </trkpt>
      <trkpt lat="44.4365" lon="6.30021">
        <ele>1152.8000488281</ele>
        <time>2021-09-02T08:33:51Z</time>
      </trkpt>
      <trkpt lat="44.43638" lon="6.30017">
        <ele>1153.4000244141</ele>
        <time>2021-09-02T08:33:57Z</time>
      </trkpt>
      <trkpt lat="44.43632" lon="6.30014">
        <ele>1153.8000488281</ele>
        <time>2021-09-02T08:34:00Z</time>
      </trkpt>
      <trkpt lat="44.43622" lon="6.30012">
        <ele>1154.1999511719</ele>
        <time>2021-09-02T08:34:04Z</time>
      </trkpt>
      <trkpt lat="44.43595" lon="6.30009">
        <ele>1154.5999755859</ele>
        <time>2021-09-02T08:34:14Z</time>
      </trkpt>
      <trkpt lat="44.4359" lon="6.30007">
        <ele>1154.8000488281</ele>
        <time>2021-09-02T08:34:16Z</time>
      </trkpt>
      <trkpt lat="44.43572" lon="6.3">
        <ele>1155.5999755859</ele>
        <time>2021-09-02T08:34:23Z</time>
      </trkpt>
      <trkpt lat="44.43562" lon="6.29997">
        <ele>1155.8000488281</ele>
        <time>2021-09-02T08:34:27Z</time>
      </trkpt>
      <trkpt lat="44.43555" lon="6.29995">
        <ele>1156.1999511719</ele>
        <time>2021-09-02T08:34:30Z</time>
      </trkpt>
      <trkpt lat="44.43537" lon="6.2999">
        <ele>1157</ele>
        <time>2021-09-02T08:34:37Z</time>
      </trkpt>
      <trkpt lat="44.43532" lon="6.29988">
        <ele>1157.1999511719</ele>
        <time>2021-09-02T08:34:39Z</time>
      </trkpt>
      <trkpt lat="44.43522" lon="6.29983">
        <ele>1158</ele>
        <time>2021-09-02T08:34:44Z</time>
      </trkpt>
      <trkpt lat="44.4352" lon="6.29981">
        <ele>1158.1999511719</ele>
        <time>2021-09-02T08:34:45Z</time>
      </trkpt>
      <trkpt lat="44.4351" lon="6.29975">
        <ele>1159</ele>
        <time>2021-09-02T08:34:50Z</time>
      </trkpt>
      <trkpt lat="44.43504" lon="6.29972">
        <ele>1159.4000244141</ele>
        <time>2021-09-02T08:34:53Z</time>
      </trkpt>
      <trkpt lat="44.43489" lon="6.29977">
        <ele>1160</ele>
        <time>2021-09-02T08:34:59Z</time>
      </trkpt>
      <trkpt lat="44.43473" lon="6.29996">
        <ele>1160.4000244141</ele>
        <time>2021-09-02T08:35:05Z</time>
      </trkpt>
      <trkpt lat="44.43457" lon="6.30011">
        <ele>1160.8000488281</ele>
        <time>2021-09-02T08:35:11Z</time>
      </trkpt>
      <trkpt lat="44.43447" lon="6.30019">
        <ele>1161.1999511719</ele>
        <time>2021-09-02T08:35:15Z</time>
      </trkpt>
      <trkpt lat="44.43439" lon="6.30025">
        <ele>1161.4000244141</ele>
        <time>2021-09-02T08:35:18Z</time>
      </trkpt>
      <trkpt lat="44.43424" lon="6.30034">
        <ele>1162.1999511719</ele>
        <time>2021-09-02T08:35:25Z</time>
      </trkpt>
      <trkpt lat="44.43412" lon="6.30041">
        <ele>1163.1999511719</ele>
        <time>2021-09-02T08:35:32Z</time>
      </trkpt>
      <trkpt lat="44.4341" lon="6.30042">
        <ele>1163.1999511719</ele>
        <time>2021-09-02T08:35:33Z</time>
      </trkpt>
      <trkpt lat="44.43397" lon="6.30052">
        <ele>1164.4000244141</ele>
        <time>2021-09-02T08:35:40Z</time>
      </trkpt>
      <trkpt lat="44.43384" lon="6.30064">
        <ele>1165.4000244141</ele>
        <time>2021-09-02T08:35:48Z</time>
      </trkpt>
      <trkpt lat="44.43375" lon="6.30072">
        <ele>1165.8000488281</ele>
        <time>2021-09-02T08:35:53Z</time>
      </trkpt>
      <trkpt lat="44.43362" lon="6.30082">
        <ele>1166.4000244141</ele>
        <time>2021-09-02T08:35:59Z</time>
      </trkpt>
      <trkpt lat="44.43358" lon="6.30086">
        <ele>1166.5999755859</ele>
        <time>2021-09-02T08:36:01Z</time>
      </trkpt>
      <trkpt lat="44.43339" lon="6.30103">
        <ele>1167.4000244141</ele>
        <time>2021-09-02T08:36:10Z</time>
      </trkpt>
      <trkpt lat="44.43326" lon="6.30115">
        <ele>1168.1999511719</ele>
        <time>2021-09-02T08:36:17Z</time>
      </trkpt>
      <trkpt lat="44.4332" lon="6.3012">
        <ele>1168.5999755859</ele>
        <time>2021-09-02T08:36:20Z</time>
      </trkpt>
      <trkpt lat="44.43313" lon="6.30126">
        <ele>1169</ele>
        <time>2021-09-02T08:36:24Z</time>
      </trkpt>
      <trkpt lat="44.43304" lon="6.30134">
        <ele>1169.5999755859</ele>
        <time>2021-09-02T08:36:29Z</time>
      </trkpt>
      <trkpt lat="44.433" lon="6.30137">
        <ele>1169.8000488281</ele>
        <time>2021-09-02T08:36:31Z</time>
      </trkpt>
      <trkpt lat="44.43291" lon="6.30146">
        <ele>1170.5999755859</ele>
        <time>2021-09-02T08:36:37Z</time>
      </trkpt>
      <trkpt lat="44.4329" lon="6.30148">
        <ele>1170.8000488281</ele>
        <time>2021-09-02T08:36:38Z</time>
      </trkpt>
      <trkpt lat="44.43283" lon="6.30155">
        <ele>1171.8000488281</ele>
        <time>2021-09-02T08:36:44Z</time>
      </trkpt>
      <trkpt lat="44.4328" lon="6.30157">
        <ele>1172</ele>
        <time>2021-09-02T08:36:46Z</time>
      </trkpt>
      <trkpt lat="44.43273" lon="6.30163">
        <ele>1173</ele>
        <time>2021-09-02T08:36:51Z</time>
      </trkpt>
      <trkpt lat="44.4327" lon="6.30166">
        <ele>1173.4000244141</ele>
        <time>2021-09-02T08:36:53Z</time>
      </trkpt>
      <trkpt lat="44.43266" lon="6.30171">
        <ele>1174</ele>
        <time>2021-09-02T08:36:57Z</time>
      </trkpt>
      <trkpt lat="44.43262" lon="6.30176">
        <ele>1174.4000244141</ele>
        <time>2021-09-02T08:37:00Z</time>
      </trkpt>
      <trkpt lat="44.43261" lon="6.30177">
        <ele>1174.5999755859</ele>
        <time>2021-09-02T08:37:01Z</time>
      </trkpt>
      <trkpt lat="44.43257" lon="6.3018">
        <ele>1175</ele>
        <time>2021-09-02T08:37:04Z</time>
      </trkpt>
      <trkpt lat="44.43255" lon="6.30182">
        <ele>1175.5999755859</ele>
        <time>2021-09-02T08:37:06Z</time>
      </trkpt>
      <trkpt lat="44.43253" lon="6.30184">
        <ele>1176.1999511719</ele>
        <time>2021-09-02T08:37:08Z</time>
      </trkpt>
      <trkpt lat="44.43249" lon="6.3019">
        <ele>1177</ele>
        <time>2021-09-02T08:37:12Z</time>
      </trkpt>
      <trkpt lat="44.43247" lon="6.30192">
        <ele>1177.1999511719</ele>
        <time>2021-09-02T08:37:13Z</time>
      </trkpt>
      <trkpt lat="44.43239" lon="6.30198">
        <ele>1178.1999511719</ele>
        <time>2021-09-02T08:37:19Z</time>
      </trkpt>
      <trkpt lat="44.43231" lon="6.30205">
        <ele>1179.1999511719</ele>
        <time>2021-09-02T08:37:26Z</time>
      </trkpt>
      <trkpt lat="44.4323" lon="6.30206">
        <ele>1179.4000244141</ele>
        <time>2021-09-02T08:37:27Z</time>
      </trkpt>
      <trkpt lat="44.43227" lon="6.30207">
        <ele>1179.8000488281</ele>
        <time>2021-09-02T08:37:29Z</time>
      </trkpt>
      <trkpt lat="44.43223" lon="6.30208">
        <ele>1180.4000244141</ele>
        <time>2021-09-02T08:37:32Z</time>
      </trkpt>
      <trkpt lat="44.43222" lon="6.30209">
        <ele>1180.5999755859</ele>
        <time>2021-09-02T08:37:33Z</time>
      </trkpt>
      <trkpt lat="44.43215" lon="6.3021">
        <ele>1181.5999755859</ele>
        <time>2021-09-02T08:37:38Z</time>
      </trkpt>
      <trkpt lat="44.43212" lon="6.30211">
        <ele>1182</ele>
        <time>2021-09-02T08:37:41Z</time>
      </trkpt>
      <trkpt lat="44.43206" lon="6.30212">
        <ele>1182.5999755859</ele>
        <time>2021-09-02T08:37:45Z</time>
      </trkpt>
      <trkpt lat="44.43203" lon="6.30213">
        <ele>1183.1999511719</ele>
        <time>2021-09-02T08:37:48Z</time>
      </trkpt>
      <trkpt lat="44.43202" lon="6.30213">
        <ele>1183.1999511719</ele>
        <time>2021-09-02T08:37:49Z</time>
      </trkpt>
      <trkpt lat="44.43197" lon="6.30214">
        <ele>1183.5999755859</ele>
        <time>2021-09-02T08:37:52Z</time>
      </trkpt>
      <trkpt lat="44.4319" lon="6.30214">
        <ele>1184.8000488281</ele>
        <time>2021-09-02T08:37:58Z</time>
      </trkpt>
      <trkpt lat="44.43181" lon="6.30216">
        <ele>1185.8000488281</ele>
        <time>2021-09-02T08:38:05Z</time>
      </trkpt>
      <trkpt lat="44.4318" lon="6.30216">
        <ele>1186</ele>
        <time>2021-09-02T08:38:06Z</time>
      </trkpt>
      <trkpt lat="44.43171" lon="6.30223">
        <ele>1187</ele>
        <time>2021-09-02T08:38:12Z</time>
      </trkpt>
      <trkpt lat="44.43163" lon="6.30227">
        <ele>1187.8000488281</ele>
        <time>2021-09-02T08:38:18Z</time>
      </trkpt>
      <trkpt lat="44.4316" lon="6.30229">
        <ele>1188</ele>
        <time>2021-09-02T08:38:20Z</time>
      </trkpt>
      <trkpt lat="44.43158" lon="6.30229">
        <ele>1188.1999511719</ele>
        <time>2021-09-02T08:38:21Z</time>
      </trkpt>
      <trkpt lat="44.43154" lon="6.30229">
        <ele>1188.5999755859</ele>
        <time>2021-09-02T08:38:24Z</time>
      </trkpt>
      <trkpt lat="44.4315" lon="6.30234">
        <ele>1189.1999511719</ele>
        <time>2021-09-02T08:38:28Z</time>
      </trkpt>
      <trkpt lat="44.43146" lon="6.30236">
        <ele>1189.8000488281</ele>
        <time>2021-09-02T08:38:31Z</time>
      </trkpt>
      <trkpt lat="44.43142" lon="6.30238">
        <ele>1190.1999511719</ele>
        <time>2021-09-02T08:38:34Z</time>
      </trkpt>
      <trkpt lat="44.43137" lon="6.30242">
        <ele>1191</ele>
        <time>2021-09-02T08:38:38Z</time>
      </trkpt>
      <trkpt lat="44.43134" lon="6.30244">
        <ele>1191.1999511719</ele>
        <time>2021-09-02T08:38:40Z</time>
      </trkpt>
      <trkpt lat="44.43132" lon="6.30246">
        <ele>1191.5999755859</ele>
        <time>2021-09-02T08:38:42Z</time>
      </trkpt>
      <trkpt lat="44.43128" lon="6.30249">
        <ele>1192.4000244141</ele>
        <time>2021-09-02T08:38:45Z</time>
      </trkpt>
      <trkpt lat="44.4312" lon="6.30256">
        <ele>1193.4000244141</ele>
        <time>2021-09-02T08:38:52Z</time>
      </trkpt>
      <trkpt lat="44.43119" lon="6.30257">
        <ele>1193.5999755859</ele>
        <time>2021-09-02T08:38:53Z</time>
      </trkpt>
      <trkpt lat="44.43113" lon="6.30265">
        <ele>1194.5999755859</ele>
        <time>2021-09-02T08:38:59Z</time>
      </trkpt>
      <trkpt lat="44.43112" lon="6.30266">
        <ele>1194.8000488281</ele>
        <time>2021-09-02T08:39:00Z</time>
      </trkpt>
      <trkpt lat="44.43109" lon="6.30269">
        <ele>1195</ele>
        <time>2021-09-02T08:39:03Z</time>
      </trkpt>
      <trkpt lat="44.43106" lon="6.30271">
        <ele>1195.8000488281</ele>
        <time>2021-09-02T08:39:06Z</time>
      </trkpt>
      <trkpt lat="44.43104" lon="6.30275">
        <ele>1196.4000244141</ele>
        <time>2021-09-02T08:39:08Z</time>
      </trkpt>
      <trkpt lat="44.431" lon="6.30279">
        <ele>1196.8000488281</ele>
        <time>2021-09-02T08:39:12Z</time>
      </trkpt>
      <trkpt lat="44.43097" lon="6.30279">
        <ele>1197.1999511719</ele>
        <time>2021-09-02T08:39:14Z</time>
      </trkpt>
      <trkpt lat="44.43096" lon="6.30278">
        <ele>1197.4000244141</ele>
        <time>2021-09-02T08:39:15Z</time>
      </trkpt>
      <trkpt lat="44.43093" lon="6.30276">
        <ele>1198</ele>
        <time>2021-09-02T08:39:18Z</time>
      </trkpt>
      <trkpt lat="44.43088" lon="6.30271">
        <ele>1198.5999755859</ele>
        <time>2021-09-02T08:39:22Z</time>
      </trkpt>
      <trkpt lat="44.43087" lon="6.30267">
        <ele>1199</ele>
        <time>2021-09-02T08:39:24Z</time>
      </trkpt>
      <trkpt lat="44.43087" lon="6.3026">
        <ele>1199.5999755859</ele>
        <time>2021-09-02T08:39:27Z</time>
      </trkpt>
      <trkpt lat="44.43088" lon="6.30256">
        <ele>1199.8000488281</ele>
        <time>2021-09-02T08:39:29Z</time>
      </trkpt>
      <trkpt lat="44.43089" lon="6.30252">
        <ele>1200.1999511719</ele>
        <time>2021-09-02T08:39:31Z</time>
      </trkpt>
      <trkpt lat="44.4309" lon="6.30251">
        <ele>1200.4000244141</ele>
        <time>2021-09-02T08:39:32Z</time>
      </trkpt>
      <trkpt lat="44.43092" lon="6.30245">
        <ele>1200.8000488281</ele>
        <time>2021-09-02T08:39:35Z</time>
      </trkpt>
      <trkpt lat="44.43095" lon="6.30238">
        <ele>1201.1999511719</ele>
        <time>2021-09-02T08:39:38Z</time>
      </trkpt>
      <trkpt lat="44.43098" lon="6.30231">
        <ele>1201.8000488281</ele>
        <time>2021-09-02T08:39:42Z</time>
      </trkpt>
      <trkpt lat="44.431" lon="6.30226">
        <ele>1202.1999511719</ele>
        <time>2021-09-02T08:39:45Z</time>
      </trkpt>
      <trkpt lat="44.43101" lon="6.30222">
        <ele>1202.4000244141</ele>
        <time>2021-09-02T08:39:47Z</time>
      </trkpt>
      <trkpt lat="44.43102" lon="6.30219">
        <ele>1202.8000488281</ele>
        <time>2021-09-02T08:39:49Z</time>
      </trkpt>
      <trkpt lat="44.43105" lon="6.30213">
        <ele>1203.4000244141</ele>
        <time>2021-09-02T08:39:52Z</time>
      </trkpt>
      <trkpt lat="44.43105" lon="6.3021">
        <ele>1203.8000488281</ele>
        <time>2021-09-02T08:39:54Z</time>
      </trkpt>
      <trkpt lat="44.43107" lon="6.30205">
        <ele>1204.5999755859</ele>
        <time>2021-09-02T08:39:57Z</time>
      </trkpt>
      <trkpt lat="44.43111" lon="6.30194">
        <ele>1205.4000244141</ele>
        <time>2021-09-02T08:40:02Z</time>
      </trkpt>
      <trkpt lat="44.43112" lon="6.30193">
        <ele>1205.5999755859</ele>
        <time>2021-09-02T08:40:03Z</time>
      </trkpt>
      <trkpt lat="44.43116" lon="6.30185">
        <ele>1206.5999755859</ele>
        <time>2021-09-02T08:40:08Z</time>
      </trkpt>
      <trkpt lat="44.43117" lon="6.30183">
        <ele>1206.8000488281</ele>
        <time>2021-09-02T08:40:09Z</time>
      </trkpt>
      <trkpt lat="44.43123" lon="6.3017">
        <ele>1207.8000488281</ele>
        <time>2021-09-02T08:40:15Z</time>
      </trkpt>
      <trkpt lat="44.43123" lon="6.30169">
        <ele>1208</ele>
        <time>2021-09-02T08:40:16Z</time>
      </trkpt>
      <trkpt lat="44.43127" lon="6.30162">
        <ele>1208.8000488281</ele>
        <time>2021-09-02T08:40:20Z</time>
      </trkpt>
      <trkpt lat="44.43128" lon="6.3016">
        <ele>1209</ele>
        <time>2021-09-02T08:40:21Z</time>
      </trkpt>
      <trkpt lat="44.4313" lon="6.30155">
        <ele>1209.1999511719</ele>
        <time>2021-09-02T08:40:23Z</time>
      </trkpt>
      <trkpt lat="44.43133" lon="6.30147">
        <ele>1209.8000488281</ele>
        <time>2021-09-02T08:40:27Z</time>
      </trkpt>
      <trkpt lat="44.43133" lon="6.30144">
        <ele>1210.1999511719</ele>
        <time>2021-09-02T08:40:29Z</time>
      </trkpt>
      <trkpt lat="44.43134" lon="6.30142">
        <ele>1210.4000244141</ele>
        <time>2021-09-02T08:40:30Z</time>
      </trkpt>
      <trkpt lat="44.43137" lon="6.30134">
        <ele>1211</ele>
        <time>2021-09-02T08:40:34Z</time>
      </trkpt>
      <trkpt lat="44.43137" lon="6.30132">
        <ele>1211</ele>
        <time>2021-09-02T08:40:35Z</time>
      </trkpt>
      <trkpt lat="44.4314" lon="6.30121">
        <ele>1212</ele>
        <time>2021-09-02T08:40:41Z</time>
      </trkpt>
      <trkpt lat="44.43142" lon="6.30108">
        <ele>1213</ele>
        <time>2021-09-02T08:40:47Z</time>
      </trkpt>
      <trkpt lat="44.43143" lon="6.30106">
        <ele>1213.1999511719</ele>
        <time>2021-09-02T08:40:48Z</time>
      </trkpt>
      <trkpt lat="44.43145" lon="6.30097">
        <ele>1214.1999511719</ele>
        <time>2021-09-02T08:40:53Z</time>
      </trkpt>
      <trkpt lat="44.43146" lon="6.30094">
        <ele>1214.5999755859</ele>
        <time>2021-09-02T08:40:55Z</time>
      </trkpt>
      <trkpt lat="44.43147" lon="6.30092">
        <ele>1214.5999755859</ele>
        <time>2021-09-02T08:40:56Z</time>
      </trkpt>
      <trkpt lat="44.43148" lon="6.30087">
        <ele>1215.1999511719</ele>
        <time>2021-09-02T08:40:59Z</time>
      </trkpt>
      <trkpt lat="44.43149" lon="6.30081">
        <ele>1215.8000488281</ele>
        <time>2021-09-02T08:41:02Z</time>
      </trkpt>
      <trkpt lat="44.43153" lon="6.30073">
        <ele>1216.4000244141</ele>
        <time>2021-09-02T08:41:06Z</time>
      </trkpt>
      <trkpt lat="44.43155" lon="6.3007">
        <ele>1217</ele>
        <time>2021-09-02T08:41:08Z</time>
      </trkpt>
      <trkpt lat="44.43158" lon="6.30061">
        <ele>1217.5999755859</ele>
        <time>2021-09-02T08:41:12Z</time>
      </trkpt>
      <trkpt lat="44.43161" lon="6.30052">
        <ele>1218.1999511719</ele>
        <time>2021-09-02T08:41:16Z</time>
      </trkpt>
      <trkpt lat="44.43163" lon="6.30047">
        <ele>1218.5999755859</ele>
        <time>2021-09-02T08:41:18Z</time>
      </trkpt>
      <trkpt lat="44.43165" lon="6.30041">
        <ele>1219.1999511719</ele>
        <time>2021-09-02T08:41:21Z</time>
      </trkpt>
      <trkpt lat="44.43166" lon="6.30039">
        <ele>1219.4000244141</ele>
        <time>2021-09-02T08:41:22Z</time>
      </trkpt>
      <trkpt lat="44.43167" lon="6.30034">
        <ele>1219.8000488281</ele>
        <time>2021-09-02T08:41:24Z</time>
      </trkpt>
      <trkpt lat="44.43168" lon="6.30029">
        <ele>1220.4000244141</ele>
        <time>2021-09-02T08:41:27Z</time>
      </trkpt>
      <trkpt lat="44.43169" lon="6.30024">
        <ele>1221</ele>
        <time>2021-09-02T08:41:30Z</time>
      </trkpt>
      <trkpt lat="44.4317" lon="6.30016">
        <ele>1221.5999755859</ele>
        <time>2021-09-02T08:41:34Z</time>
      </trkpt>
      <trkpt lat="44.43172" lon="6.30013">
        <ele>1222</ele>
        <time>2021-09-02T08:41:36Z</time>
      </trkpt>
      <trkpt lat="44.43171" lon="6.29998">
        <ele>1223</ele>
        <time>2021-09-02T08:41:42Z</time>
      </trkpt>
      <trkpt lat="44.43171" lon="6.29995">
        <ele>1223</ele>
        <time>2021-09-02T08:41:43Z</time>
      </trkpt>
      <trkpt lat="44.43175" lon="6.29985">
        <ele>1224.1999511719</ele>
        <time>2021-09-02T08:41:49Z</time>
      </trkpt>
      <trkpt lat="44.43175" lon="6.29981">
        <ele>1224.4000244141</ele>
        <time>2021-09-02T08:41:51Z</time>
      </trkpt>
      <trkpt lat="44.43177" lon="6.29975">
        <ele>1224.8000488281</ele>
        <time>2021-09-02T08:41:54Z</time>
      </trkpt>
      <trkpt lat="44.43178" lon="6.29972">
        <ele>1225.4000244141</ele>
        <time>2021-09-02T08:41:56Z</time>
      </trkpt>
      <trkpt lat="44.43178" lon="6.29963">
        <ele>1226</ele>
        <time>2021-09-02T08:42:00Z</time>
      </trkpt>
      <trkpt lat="44.43178" lon="6.29958">
        <ele>1226.4000244141</ele>
        <time>2021-09-02T08:42:02Z</time>
      </trkpt>
      <trkpt lat="44.43178" lon="6.29941">
        <ele>1227.4000244141</ele>
        <time>2021-09-02T08:42:08Z</time>
      </trkpt>
      <trkpt lat="44.4318" lon="6.29926">
        <ele>1228.5999755859</ele>
        <time>2021-09-02T08:42:15Z</time>
      </trkpt>
      <trkpt lat="44.43182" lon="6.29914">
        <ele>1229.5999755859</ele>
        <time>2021-09-02T08:42:21Z</time>
      </trkpt>
      <trkpt lat="44.43182" lon="6.2991">
        <ele>1229.8000488281</ele>
        <time>2021-09-02T08:42:23Z</time>
      </trkpt>
      <trkpt lat="44.43182" lon="6.29909">
        <ele>1230</ele>
        <time>2021-09-02T08:42:24Z</time>
      </trkpt>
      <trkpt lat="44.43179" lon="6.29901">
        <ele>1230.8000488281</ele>
        <time>2021-09-02T08:42:28Z</time>
      </trkpt>
      <trkpt lat="44.43178" lon="6.29899">
        <ele>1230.8000488281</ele>
        <time>2021-09-02T08:42:29Z</time>
      </trkpt>
      <trkpt lat="44.43172" lon="6.29894">
        <ele>1231.4000244141</ele>
        <time>2021-09-02T08:42:33Z</time>
      </trkpt>
      <trkpt lat="44.43168" lon="6.29892">
        <ele>1231.8000488281</ele>
        <time>2021-09-02T08:42:35Z</time>
      </trkpt>
      <trkpt lat="44.43161" lon="6.29891">
        <ele>1232.1999511719</ele>
        <time>2021-09-02T08:42:38Z</time>
      </trkpt>
      <trkpt lat="44.43154" lon="6.29892">
        <ele>1232.4000244141</ele>
        <time>2021-09-02T08:42:41Z</time>
      </trkpt>
      <trkpt lat="44.43145" lon="6.29895">
        <ele>1232.8000488281</ele>
        <time>2021-09-02T08:42:44Z</time>
      </trkpt>
      <trkpt lat="44.43138" lon="6.299">
        <ele>1232.5999755859</ele>
        <time>2021-09-02T08:42:46Z</time>
      </trkpt>
      <trkpt lat="44.4313" lon="6.29902">
        <ele>1232.5999755859</ele>
        <time>2021-09-02T08:42:48Z</time>
      </trkpt>
      <trkpt lat="44.43122" lon="6.29906">
        <ele>1232.1999511719</ele>
        <time>2021-09-02T08:42:50Z</time>
      </trkpt>
      <trkpt lat="44.43117" lon="6.29909">
        <ele>1232</ele>
        <time>2021-09-02T08:42:51Z</time>
      </trkpt>
      <trkpt lat="44.43107" lon="6.29914">
        <ele>1231.5999755859</ele>
        <time>2021-09-02T08:42:53Z</time>
      </trkpt>
      <trkpt lat="44.43097" lon="6.29921">
        <ele>1231.1999511719</ele>
        <time>2021-09-02T08:42:55Z</time>
      </trkpt>
      <trkpt lat="44.43092" lon="6.29925">
        <ele>1231</ele>
        <time>2021-09-02T08:42:56Z</time>
      </trkpt>
      <trkpt lat="44.43084" lon="6.2993">
        <ele>1230.4000244141</ele>
        <time>2021-09-02T08:42:58Z</time>
      </trkpt>
      <trkpt lat="44.43077" lon="6.29935">
        <ele>1229.8000488281</ele>
        <time>2021-09-02T08:43:00Z</time>
      </trkpt>
      <trkpt lat="44.43069" lon="6.29939">
        <ele>1229.1999511719</ele>
        <time>2021-09-02T08:43:02Z</time>
      </trkpt>
      <trkpt lat="44.43059" lon="6.29943">
        <ele>1228.1999511719</ele>
        <time>2021-09-02T08:43:06Z</time>
      </trkpt>
      <trkpt lat="44.43058" lon="6.29942">
        <ele>1227.4000244141</ele>
        <time>2021-09-02T08:43:35Z</time>
      </trkpt>
      <trkpt lat="44.43056" lon="6.29942">
        <ele>1227.1999511719</ele>
        <time>2021-09-02T08:43:36Z</time>
      </trkpt>
      <trkpt lat="44.43052" lon="6.29942">
        <ele>1227.1999511719</ele>
        <time>2021-09-02T08:43:38Z</time>
      </trkpt>
      <trkpt lat="44.43049" lon="6.29942">
        <ele>1227.1999511719</ele>
        <time>2021-09-02T08:43:39Z</time>
      </trkpt>
      <trkpt lat="44.43046" lon="6.29942">
        <ele>1227.1999511719</ele>
        <time>2021-09-02T08:43:40Z</time>
      </trkpt>
      <trkpt lat="44.43027" lon="6.29938">
        <ele>1227.1999511719</ele>
        <time>2021-09-02T08:43:46Z</time>
      </trkpt>
      <trkpt lat="44.43003" lon="6.29922">
        <ele>1227.1999511719</ele>
        <time>2021-09-02T08:43:53Z</time>
      </trkpt>
      <trkpt lat="44.42984" lon="6.29903">
        <ele>1226.4000244141</ele>
        <time>2021-09-02T08:43:59Z</time>
      </trkpt>
      <trkpt lat="44.4298" lon="6.29899">
        <ele>1226.1999511719</ele>
        <time>2021-09-02T08:44:01Z</time>
      </trkpt>
      <trkpt lat="44.42975" lon="6.29897">
        <ele>1226</ele>
        <time>2021-09-02T08:44:03Z</time>
      </trkpt>
      <trkpt lat="44.42959" lon="6.29892">
        <ele>1225</ele>
        <time>2021-09-02T08:44:07Z</time>
      </trkpt>
      <trkpt lat="44.42937" lon="6.2988">
        <ele>1223.5999755859</ele>
        <time>2021-09-02T08:44:11Z</time>
      </trkpt>
      <trkpt lat="44.42932" lon="6.29876">
        <ele>1223.4000244141</ele>
        <time>2021-09-02T08:44:12Z</time>
      </trkpt>
      <trkpt lat="44.42914" lon="6.29862">
        <ele>1222.1999511719</ele>
        <time>2021-09-02T08:44:15Z</time>
      </trkpt>
      <trkpt lat="44.42902" lon="6.29857">
        <ele>1221.1999511719</ele>
        <time>2021-09-02T08:44:17Z</time>
      </trkpt>
      <trkpt lat="44.42896" lon="6.29856">
        <ele>1221</ele>
        <time>2021-09-02T08:44:18Z</time>
      </trkpt>
      <trkpt lat="44.4289" lon="6.29855">
        <ele>1220.5999755859</ele>
        <time>2021-09-02T08:44:19Z</time>
      </trkpt>
      <trkpt lat="44.42884" lon="6.29854">
        <ele>1219.5999755859</ele>
        <time>2021-09-02T08:44:20Z</time>
      </trkpt>
      <trkpt lat="44.42871" lon="6.29851">
        <ele>1218.8000488281</ele>
        <time>2021-09-02T08:44:22Z</time>
      </trkpt>
      <trkpt lat="44.42863" lon="6.29849">
        <ele>1218.4000244141</ele>
        <time>2021-09-02T08:44:23Z</time>
      </trkpt>
      <trkpt lat="44.4284" lon="6.29841">
        <ele>1217.1999511719</ele>
        <time>2021-09-02T08:44:26Z</time>
      </trkpt>
      <trkpt lat="44.42832" lon="6.2984">
        <ele>1216.5999755859</ele>
        <time>2021-09-02T08:44:27Z</time>
      </trkpt>
      <trkpt lat="44.42814" lon="6.29836">
        <ele>1215.8000488281</ele>
        <time>2021-09-02T08:44:29Z</time>
      </trkpt>
      <trkpt lat="44.42789" lon="6.29832">
        <ele>1214.1999511719</ele>
        <time>2021-09-02T08:44:32Z</time>
      </trkpt>
      <trkpt lat="44.42771" lon="6.29832">
        <ele>1213.4000244141</ele>
        <time>2021-09-02T08:44:34Z</time>
      </trkpt>
      <trkpt lat="44.42763" lon="6.29832">
        <ele>1212.8000488281</ele>
        <time>2021-09-02T08:44:35Z</time>
      </trkpt>
      <trkpt lat="44.42754" lon="6.2983">
        <ele>1212.4000244141</ele>
        <time>2021-09-02T08:44:36Z</time>
      </trkpt>
      <trkpt lat="44.42746" lon="6.29827">
        <ele>1211.8000488281</ele>
        <time>2021-09-02T08:44:37Z</time>
      </trkpt>
      <trkpt lat="44.42738" lon="6.29824">
        <ele>1211.1999511719</ele>
        <time>2021-09-02T08:44:38Z</time>
      </trkpt>
      <trkpt lat="44.4273" lon="6.2982">
        <ele>1210.8000488281</ele>
        <time>2021-09-02T08:44:39Z</time>
      </trkpt>
      <trkpt lat="44.42713" lon="6.29811">
        <ele>1209.4000244141</ele>
        <time>2021-09-02T08:44:41Z</time>
      </trkpt>
      <trkpt lat="44.42696" lon="6.29799">
        <ele>1207.5999755859</ele>
        <time>2021-09-02T08:44:43Z</time>
      </trkpt>
      <trkpt lat="44.42677" lon="6.29787">
        <ele>1205.1999511719</ele>
        <time>2021-09-02T08:44:45Z</time>
      </trkpt>
      <trkpt lat="44.42658" lon="6.29779">
        <ele>1203.8000488281</ele>
        <time>2021-09-02T08:44:47Z</time>
      </trkpt>
      <trkpt lat="44.42649" lon="6.29776">
        <ele>1203</ele>
        <time>2021-09-02T08:44:48Z</time>
      </trkpt>
      <trkpt lat="44.4264" lon="6.29772">
        <ele>1202.4000244141</ele>
        <time>2021-09-02T08:44:49Z</time>
      </trkpt>
      <trkpt lat="44.42622" lon="6.29765">
        <ele>1201</ele>
        <time>2021-09-02T08:44:51Z</time>
      </trkpt>
      <trkpt lat="44.42607" lon="6.29759">
        <ele>1199.8000488281</ele>
        <time>2021-09-02T08:44:53Z</time>
      </trkpt>
      <trkpt lat="44.42599" lon="6.29755">
        <ele>1199.4000244141</ele>
        <time>2021-09-02T08:44:54Z</time>
      </trkpt>
      <trkpt lat="44.42584" lon="6.29746">
        <ele>1198.4000244141</ele>
        <time>2021-09-02T08:44:56Z</time>
      </trkpt>
      <trkpt lat="44.42569" lon="6.29738">
        <ele>1197.1999511719</ele>
        <time>2021-09-02T08:44:58Z</time>
      </trkpt>
      <trkpt lat="44.42556" lon="6.29731">
        <ele>1196.4000244141</ele>
        <time>2021-09-02T08:45:00Z</time>
      </trkpt>
      <trkpt lat="44.4255" lon="6.29727">
        <ele>1196</ele>
        <time>2021-09-02T08:45:01Z</time>
      </trkpt>
      <trkpt lat="44.42531" lon="6.29717">
        <ele>1194.8000488281</ele>
        <time>2021-09-02T08:45:04Z</time>
      </trkpt>
      <trkpt lat="44.42512" lon="6.29708">
        <ele>1193.5999755859</ele>
        <time>2021-09-02T08:45:07Z</time>
      </trkpt>
      <trkpt lat="44.42499" lon="6.29703">
        <ele>1192.5999755859</ele>
        <time>2021-09-02T08:45:09Z</time>
      </trkpt>
      <trkpt lat="44.42492" lon="6.29701">
        <ele>1192.4000244141</ele>
        <time>2021-09-02T08:45:10Z</time>
      </trkpt>
      <trkpt lat="44.42473" lon="6.29693">
        <ele>1191.8000488281</ele>
        <time>2021-09-02T08:45:13Z</time>
      </trkpt>
      <trkpt lat="44.4246" lon="6.29686">
        <ele>1191.4000244141</ele>
        <time>2021-09-02T08:45:15Z</time>
      </trkpt>
      <trkpt lat="44.42436" lon="6.29662">
        <ele>1190.1999511719</ele>
        <time>2021-09-02T08:45:19Z</time>
      </trkpt>
      <trkpt lat="44.42423" lon="6.29644">
        <ele>1189</ele>
        <time>2021-09-02T08:45:22Z</time>
      </trkpt>
      <trkpt lat="44.42419" lon="6.29641">
        <ele>1188.5999755859</ele>
        <time>2021-09-02T08:45:23Z</time>
      </trkpt>
      <trkpt lat="44.42411" lon="6.2964">
        <ele>1187.8000488281</ele>
        <time>2021-09-02T08:45:25Z</time>
      </trkpt>
      <trkpt lat="44.42407" lon="6.29641">
        <ele>1187</ele>
        <time>2021-09-02T08:45:26Z</time>
      </trkpt>
      <trkpt lat="44.42403" lon="6.29643">
        <ele>1186.4000244141</ele>
        <time>2021-09-02T08:45:27Z</time>
      </trkpt>
      <trkpt lat="44.42394" lon="6.29649">
        <ele>1185.1999511719</ele>
        <time>2021-09-02T08:45:29Z</time>
      </trkpt>
      <trkpt lat="44.42387" lon="6.29656">
        <ele>1184.1999511719</ele>
        <time>2021-09-02T08:45:31Z</time>
      </trkpt>
      <trkpt lat="44.42381" lon="6.29665">
        <ele>1183.1999511719</ele>
        <time>2021-09-02T08:45:33Z</time>
      </trkpt>
      <trkpt lat="44.42377" lon="6.29669">
        <ele>1183</ele>
        <time>2021-09-02T08:45:34Z</time>
      </trkpt>
      <trkpt lat="44.4237" lon="6.29673">
        <ele>1182.8000488281</ele>
        <time>2021-09-02T08:45:36Z</time>
      </trkpt>
      <trkpt lat="44.42359" lon="6.29666">
        <ele>1182.5999755859</ele>
        <time>2021-09-02T08:45:39Z</time>
      </trkpt>
      <trkpt lat="44.42355" lon="6.29659">
        <ele>1182.5999755859</ele>
        <time>2021-09-02T08:45:41Z</time>
      </trkpt>
      <trkpt lat="44.42352" lon="6.29651">
        <ele>1182.8000488281</ele>
        <time>2021-09-02T08:45:44Z</time>
      </trkpt>
      <trkpt lat="44.4235" lon="6.29649">
        <ele>1183</ele>
        <time>2021-09-02T08:45:45Z</time>
      </trkpt>
      <trkpt lat="44.42347" lon="6.29642">
        <ele>1183.5999755859</ele>
        <time>2021-09-02T08:45:48Z</time>
      </trkpt>
      <trkpt lat="44.42343" lon="6.29637">
        <ele>1184.1999511719</ele>
        <time>2021-09-02T08:45:51Z</time>
      </trkpt>
      <trkpt lat="44.42343" lon="6.29631">
        <ele>1184.5999755859</ele>
        <time>2021-09-02T08:45:53Z</time>
      </trkpt>
      <trkpt lat="44.42341" lon="6.29628">
        <ele>1185</ele>
        <time>2021-09-02T08:45:55Z</time>
      </trkpt>
      <trkpt lat="44.42339" lon="6.29624">
        <ele>1185.4000244141</ele>
        <time>2021-09-02T08:45:57Z</time>
      </trkpt>
      <trkpt lat="44.42338" lon="6.29622">
        <ele>1185.5999755859</ele>
        <time>2021-09-02T08:45:58Z</time>
      </trkpt>
      <trkpt lat="44.42337" lon="6.2962">
        <ele>1185.8000488281</ele>
        <time>2021-09-02T08:45:59Z</time>
      </trkpt>
      <trkpt lat="44.42334" lon="6.29616">
        <ele>1186.1999511719</ele>
        <time>2021-09-02T08:46:02Z</time>
      </trkpt>
      <trkpt lat="44.42334" lon="6.29614">
        <ele>1186.4000244141</ele>
        <time>2021-09-02T08:46:03Z</time>
      </trkpt>
      <trkpt lat="44.42331" lon="6.29609">
        <ele>1187.5999755859</ele>
        <time>2021-09-02T08:46:37Z</time>
      </trkpt>
      <trkpt lat="44.42326" lon="6.29603">
        <ele>1187.5999755859</ele>
        <time>2021-09-02T08:46:41Z</time>
      </trkpt>
      <trkpt lat="44.42322" lon="6.29594">
        <ele>1188.5999755859</ele>
        <time>2021-09-02T08:46:46Z</time>
      </trkpt>
      <trkpt lat="44.42321" lon="6.2959">
        <ele>1189</ele>
        <time>2021-09-02T08:46:48Z</time>
      </trkpt>
      <trkpt lat="44.42317" lon="6.29583">
        <ele>1189.8000488281</ele>
        <time>2021-09-02T08:46:52Z</time>
      </trkpt>
      <trkpt lat="44.42314" lon="6.29578">
        <ele>1190.1999511719</ele>
        <time>2021-09-02T08:46:55Z</time>
      </trkpt>
      <trkpt lat="44.4231" lon="6.29571">
        <ele>1190.8000488281</ele>
        <time>2021-09-02T08:47:00Z</time>
      </trkpt>
      <trkpt lat="44.42307" lon="6.29566">
        <ele>1191.4000244141</ele>
        <time>2021-09-02T08:47:03Z</time>
      </trkpt>
      <trkpt lat="44.42303" lon="6.2956">
        <ele>1191.8000488281</ele>
        <time>2021-09-02T08:47:06Z</time>
      </trkpt>
      <trkpt lat="44.42298" lon="6.29553">
        <ele>1192.8000488281</ele>
        <time>2021-09-02T08:47:11Z</time>
      </trkpt>
      <trkpt lat="44.42296" lon="6.29551">
        <ele>1193</ele>
        <time>2021-09-02T08:47:12Z</time>
      </trkpt>
      <trkpt lat="44.42289" lon="6.29542">
        <ele>1194</ele>
        <time>2021-09-02T08:47:18Z</time>
      </trkpt>
      <trkpt lat="44.42287" lon="6.29542">
        <ele>1194.1999511719</ele>
        <time>2021-09-02T08:47:19Z</time>
      </trkpt>
      <trkpt lat="44.42286" lon="6.2954">
        <ele>1194.1999511719</ele>
        <time>2021-09-02T08:47:20Z</time>
      </trkpt>
      <trkpt lat="44.42278" lon="6.29536">
        <ele>1195</ele>
        <time>2021-09-02T08:47:25Z</time>
      </trkpt>
      <trkpt lat="44.42273" lon="6.29534">
        <ele>1195.4000244141</ele>
        <time>2021-09-02T08:47:28Z</time>
      </trkpt>
      <trkpt lat="44.42266" lon="6.29534">
        <ele>1196.1999511719</ele>
        <time>2021-09-02T08:47:33Z</time>
      </trkpt>
      <trkpt lat="44.42261" lon="6.29535">
        <ele>1196.8000488281</ele>
        <time>2021-09-02T08:47:36Z</time>
      </trkpt>
      <trkpt lat="44.42257" lon="6.29535">
        <ele>1197.1999511719</ele>
        <time>2021-09-02T08:47:39Z</time>
      </trkpt>
      <trkpt lat="44.4225" lon="6.29541">
        <ele>1198</ele>
        <time>2021-09-02T08:47:44Z</time>
      </trkpt>
      <trkpt lat="44.42247" lon="6.29543">
        <ele>1198.4000244141</ele>
        <time>2021-09-02T08:47:46Z</time>
      </trkpt>
      <trkpt lat="44.42241" lon="6.29551">
        <ele>1199.1999511719</ele>
        <time>2021-09-02T08:47:52Z</time>
      </trkpt>
      <trkpt lat="44.42239" lon="6.29553">
        <ele>1199.4000244141</ele>
        <time>2021-09-02T08:47:53Z</time>
      </trkpt>
      <trkpt lat="44.42233" lon="6.29563">
        <ele>1200.5999755859</ele>
        <time>2021-09-02T08:47:59Z</time>
      </trkpt>
      <trkpt lat="44.42232" lon="6.29564">
        <ele>1200.5999755859</ele>
        <time>2021-09-02T08:48:00Z</time>
      </trkpt>
      <trkpt lat="44.42228" lon="6.29574">
        <ele>1201.5999755859</ele>
        <time>2021-09-02T08:48:06Z</time>
      </trkpt>
      <trkpt lat="44.42225" lon="6.2958">
        <ele>1202</ele>
        <time>2021-09-02T08:48:09Z</time>
      </trkpt>
      <trkpt lat="44.42222" lon="6.29589">
        <ele>1202.8000488281</ele>
        <time>2021-09-02T08:48:14Z</time>
      </trkpt>
      <trkpt lat="44.42218" lon="6.29599">
        <ele>1203.5999755859</ele>
        <time>2021-09-02T08:48:19Z</time>
      </trkpt>
      <trkpt lat="44.42217" lon="6.29603">
        <ele>1204</ele>
        <time>2021-09-02T08:48:21Z</time>
      </trkpt>
      <trkpt lat="44.42211" lon="6.29613">
        <ele>1205</ele>
        <time>2021-09-02T08:48:28Z</time>
      </trkpt>
      <trkpt lat="44.42203" lon="6.29622">
        <ele>1206.1999511719</ele>
        <time>2021-09-02T08:48:35Z</time>
      </trkpt>
      <trkpt lat="44.42198" lon="6.29626">
        <ele>1206.5999755859</ele>
        <time>2021-09-02T08:48:38Z</time>
      </trkpt>
      <trkpt lat="44.42193" lon="6.29629">
        <ele>1207.1999511719</ele>
        <time>2021-09-02T08:48:42Z</time>
      </trkpt>
      <trkpt lat="44.42187" lon="6.29631">
        <ele>1208.1999511719</ele>
        <time>2021-09-02T08:48:46Z</time>
      </trkpt>
      <trkpt lat="44.42186" lon="6.29631">
        <ele>1208.1999511719</ele>
        <time>2021-09-02T08:48:47Z</time>
      </trkpt>
      <trkpt lat="44.42178" lon="6.29637">
        <ele>1209.4000244141</ele>
        <time>2021-09-02T08:48:53Z</time>
      </trkpt>
      <trkpt lat="44.4217" lon="6.29642">
        <ele>1210.4000244141</ele>
        <time>2021-09-02T08:49:00Z</time>
      </trkpt>
      <trkpt lat="44.42162" lon="6.29646">
        <ele>1211.5999755859</ele>
        <time>2021-09-02T08:49:06Z</time>
      </trkpt>
      <trkpt lat="44.42159" lon="6.29647">
        <ele>1212.4000244141</ele>
        <time>2021-09-02T08:49:09Z</time>
      </trkpt>
      <trkpt lat="44.42156" lon="6.29649">
        <ele>1212.8000488281</ele>
        <time>2021-09-02T08:49:11Z</time>
      </trkpt>
      <trkpt lat="44.42152" lon="6.29649">
        <ele>1213</ele>
        <time>2021-09-02T08:49:13Z</time>
      </trkpt>
      <trkpt lat="44.42148" lon="6.29649">
        <ele>1213.1999511719</ele>
        <time>2021-09-02T08:49:15Z</time>
      </trkpt>
      <trkpt lat="44.42143" lon="6.29649">
        <ele>1213.4000244141</ele>
        <time>2021-09-02T08:49:18Z</time>
      </trkpt>
      <trkpt lat="44.42137" lon="6.29648">
        <ele>1213.8000488281</ele>
        <time>2021-09-02T08:49:21Z</time>
      </trkpt>
      <trkpt lat="44.42135" lon="6.29648">
        <ele>1213.8000488281</ele>
        <time>2021-09-02T08:49:22Z</time>
      </trkpt>
      <trkpt lat="44.42122" lon="6.29647">
        <ele>1214.5999755859</ele>
        <time>2021-09-02T08:49:29Z</time>
      </trkpt>
      <trkpt lat="44.4212" lon="6.29648">
        <ele>1214.8000488281</ele>
        <time>2021-09-02T08:49:30Z</time>
      </trkpt>
      <trkpt lat="44.4211" lon="6.29647">
        <ele>1215.8000488281</ele>
        <time>2021-09-02T08:49:36Z</time>
      </trkpt>
      <trkpt lat="44.42105" lon="6.29647">
        <ele>1216.1999511719</ele>
        <time>2021-09-02T08:49:39Z</time>
      </trkpt>
      <trkpt lat="44.42096" lon="6.29646">
        <ele>1217</ele>
        <time>2021-09-02T08:49:44Z</time>
      </trkpt>
      <trkpt lat="44.42088" lon="6.29646">
        <ele>1217.5999755859</ele>
        <time>2021-09-02T08:49:48Z</time>
      </trkpt>
      <trkpt lat="44.42085" lon="6.29646">
        <ele>1218</ele>
        <time>2021-09-02T08:49:50Z</time>
      </trkpt>
      <trkpt lat="44.42075" lon="6.29643">
        <ele>1218.8000488281</ele>
        <time>2021-09-02T08:49:55Z</time>
      </trkpt>
      <trkpt lat="44.42071" lon="6.29642">
        <ele>1219.1999511719</ele>
        <time>2021-09-02T08:49:57Z</time>
      </trkpt>
      <trkpt lat="44.42058" lon="6.29639">
        <ele>1220.1999511719</ele>
        <time>2021-09-02T08:50:04Z</time>
      </trkpt>
      <trkpt lat="44.42047" lon="6.29636">
        <ele>1221.1999511719</ele>
        <time>2021-09-02T08:50:11Z</time>
      </trkpt>
      <trkpt lat="44.42045" lon="6.29636">
        <ele>1221.4000244141</ele>
        <time>2021-09-02T08:50:12Z</time>
      </trkpt>
      <trkpt lat="44.42035" lon="6.29637">
        <ele>1222.4000244141</ele>
        <time>2021-09-02T08:50:18Z</time>
      </trkpt>
      <trkpt lat="44.42033" lon="6.29638">
        <ele>1222.4000244141</ele>
        <time>2021-09-02T08:50:19Z</time>
      </trkpt>
      <trkpt lat="44.42024" lon="6.29639">
        <ele>1223.4000244141</ele>
        <time>2021-09-02T08:50:24Z</time>
      </trkpt>
      <trkpt lat="44.42015" lon="6.2964">
        <ele>1224</ele>
        <time>2021-09-02T08:50:29Z</time>
      </trkpt>
      <trkpt lat="44.4201" lon="6.2964">
        <ele>1224.4000244141</ele>
        <time>2021-09-02T08:50:32Z</time>
      </trkpt>
      <trkpt lat="44.42003" lon="6.29638">
        <ele>1225</ele>
        <time>2021-09-02T08:50:36Z</time>
      </trkpt>
      <trkpt lat="44.41998" lon="6.29636">
        <ele>1225.4000244141</ele>
        <time>2021-09-02T08:50:39Z</time>
      </trkpt>
      <trkpt lat="44.41986" lon="6.29632">
        <ele>1226.4000244141</ele>
        <time>2021-09-02T08:50:46Z</time>
      </trkpt>
      <trkpt lat="44.41984" lon="6.29631">
        <ele>1226.5999755859</ele>
        <time>2021-09-02T08:50:47Z</time>
      </trkpt>
      <trkpt lat="44.41972" lon="6.29625">
        <ele>1227.5999755859</ele>
        <time>2021-09-02T08:50:54Z</time>
      </trkpt>
      <trkpt lat="44.4197" lon="6.29625">
        <ele>1227.5999755859</ele>
        <time>2021-09-02T08:50:55Z</time>
      </trkpt>
      <trkpt lat="44.41959" lon="6.29617">
        <ele>1228.8000488281</ele>
        <time>2021-09-02T08:51:02Z</time>
      </trkpt>
      <trkpt lat="44.41957" lon="6.29615">
        <ele>1228.8000488281</ele>
        <time>2021-09-02T08:51:03Z</time>
      </trkpt>
      <trkpt lat="44.4195" lon="6.29604">
        <ele>1229.8000488281</ele>
        <time>2021-09-02T08:51:09Z</time>
      </trkpt>
      <trkpt lat="44.41949" lon="6.29602">
        <ele>1230</ele>
        <time>2021-09-02T08:51:10Z</time>
      </trkpt>
      <trkpt lat="44.41943" lon="6.29587">
        <ele>1231</ele>
        <time>2021-09-02T08:51:17Z</time>
      </trkpt>
      <trkpt lat="44.41942" lon="6.29585">
        <ele>1231.1999511719</ele>
        <time>2021-09-02T08:51:18Z</time>
      </trkpt>
      <trkpt lat="44.41935" lon="6.29575">
        <ele>1232</ele>
        <time>2021-09-02T08:51:24Z</time>
      </trkpt>
      <trkpt lat="44.41933" lon="6.29569">
        <ele>1232.5999755859</ele>
        <time>2021-09-02T08:51:27Z</time>
      </trkpt>
      <trkpt lat="44.41928" lon="6.29564">
        <ele>1233.1999511719</ele>
        <time>2021-09-02T08:51:31Z</time>
      </trkpt>
      <trkpt lat="44.4192" lon="6.29558">
        <ele>1234.1999511719</ele>
        <time>2021-09-02T08:51:36Z</time>
      </trkpt>
      <trkpt lat="44.41919" lon="6.29558">
        <ele>1234.4000244141</ele>
        <time>2021-09-02T08:51:37Z</time>
      </trkpt>
      <trkpt lat="44.41907" lon="6.29554">
        <ele>1235.1999511719</ele>
        <time>2021-09-02T08:51:43Z</time>
      </trkpt>
      <trkpt lat="44.41903" lon="6.29552">
        <ele>1235.4000244141</ele>
        <time>2021-09-02T08:51:45Z</time>
      </trkpt>
      <trkpt lat="44.41889" lon="6.29548">
        <ele>1236</ele>
        <time>2021-09-02T08:51:51Z</time>
      </trkpt>
      <trkpt lat="44.41879" lon="6.29543">
        <ele>1236.4000244141</ele>
        <time>2021-09-02T08:51:55Z</time>
      </trkpt>
      <trkpt lat="44.4187" lon="6.29538">
        <ele>1237</ele>
        <time>2021-09-02T08:51:59Z</time>
      </trkpt>
      <trkpt lat="44.41858" lon="6.29533">
        <ele>1237.5999755859</ele>
        <time>2021-09-02T08:52:04Z</time>
      </trkpt>
      <trkpt lat="44.4185" lon="6.29531">
        <ele>1238</ele>
        <time>2021-09-02T08:52:07Z</time>
      </trkpt>
      <trkpt lat="44.41835" lon="6.29529">
        <ele>1238.5999755859</ele>
        <time>2021-09-02T08:52:13Z</time>
      </trkpt>
      <trkpt lat="44.41831" lon="6.29529">
        <ele>1238.8000488281</ele>
        <time>2021-09-02T08:52:15Z</time>
      </trkpt>
      <trkpt lat="44.4182" lon="6.29531">
        <ele>1239.4000244141</ele>
        <time>2021-09-02T08:52:20Z</time>
      </trkpt>
      <trkpt lat="44.41818" lon="6.29531">
        <ele>1239.5999755859</ele>
        <time>2021-09-02T08:52:21Z</time>
      </trkpt>
      <trkpt lat="44.41805" lon="6.29534">
        <ele>1240.5999755859</ele>
        <time>2021-09-02T08:52:27Z</time>
      </trkpt>
      <trkpt lat="44.41802" lon="6.29535">
        <ele>1240.8000488281</ele>
        <time>2021-09-02T08:52:28Z</time>
      </trkpt>
      <trkpt lat="44.41787" lon="6.29534">
        <ele>1241.5999755859</ele>
        <time>2021-09-02T08:52:34Z</time>
      </trkpt>
      <trkpt lat="44.41784" lon="6.29534">
        <ele>1241.8000488281</ele>
        <time>2021-09-02T08:52:35Z</time>
      </trkpt>
      <trkpt lat="44.4177" lon="6.29538">
        <ele>1242.1999511719</ele>
        <time>2021-09-02T08:52:40Z</time>
      </trkpt>
      <trkpt lat="44.41751" lon="6.29543">
        <ele>1242.5999755859</ele>
        <time>2021-09-02T08:52:46Z</time>
      </trkpt>
      <trkpt lat="44.41741" lon="6.2955">
        <ele>1242.8000488281</ele>
        <time>2021-09-02T08:52:49Z</time>
      </trkpt>
      <trkpt lat="44.4173" lon="6.29559">
        <ele>1243</ele>
        <time>2021-09-02T08:52:53Z</time>
      </trkpt>
      <trkpt lat="44.41711" lon="6.29576">
        <ele>1243.8000488281</ele>
        <time>2021-09-02T08:53:00Z</time>
      </trkpt>
      <trkpt lat="44.41706" lon="6.2958">
        <ele>1244</ele>
        <time>2021-09-02T08:53:02Z</time>
      </trkpt>
      <trkpt lat="44.41689" lon="6.2959">
        <ele>1245.1999511719</ele>
        <time>2021-09-02T08:53:09Z</time>
      </trkpt>
      <trkpt lat="44.41676" lon="6.296">
        <ele>1246</ele>
        <time>2021-09-02T08:53:15Z</time>
      </trkpt>
      <trkpt lat="44.41671" lon="6.29603">
        <ele>1246.1999511719</ele>
        <time>2021-09-02T08:53:17Z</time>
      </trkpt>
      <trkpt lat="44.41658" lon="6.29614">
        <ele>1246.8000488281</ele>
        <time>2021-09-02T08:53:23Z</time>
      </trkpt>
      <trkpt lat="44.4165" lon="6.29621">
        <ele>1247.4000244141</ele>
        <time>2021-09-02T08:53:27Z</time>
      </trkpt>
      <trkpt lat="44.41647" lon="6.29625">
        <ele>1247.5999755859</ele>
        <time>2021-09-02T08:53:29Z</time>
      </trkpt>
      <trkpt lat="44.41639" lon="6.29633">
        <ele>1248.4000244141</ele>
        <time>2021-09-02T08:53:33Z</time>
      </trkpt>
      <trkpt lat="44.41634" lon="6.2964">
        <ele>1248.8000488281</ele>
        <time>2021-09-02T08:53:36Z</time>
      </trkpt>
      <trkpt lat="44.41621" lon="6.29651">
        <ele>1249.4000244141</ele>
        <time>2021-09-02T08:53:42Z</time>
      </trkpt>
      <trkpt lat="44.41618" lon="6.29652">
        <ele>1249.5999755859</ele>
        <time>2021-09-02T08:53:43Z</time>
      </trkpt>
      <trkpt lat="44.41606" lon="6.29663">
        <ele>1250.1999511719</ele>
        <time>2021-09-02T08:53:49Z</time>
      </trkpt>
      <trkpt lat="44.41602" lon="6.29666">
        <ele>1250.4000244141</ele>
        <time>2021-09-02T08:53:51Z</time>
      </trkpt>
      <trkpt lat="44.41589" lon="6.29672">
        <ele>1251.5999755859</ele>
        <time>2021-09-02T08:53:57Z</time>
      </trkpt>
      <trkpt lat="44.41572" lon="6.29678">
        <ele>1252.4000244141</ele>
        <time>2021-09-02T08:54:04Z</time>
      </trkpt>
      <trkpt lat="44.41558" lon="6.29685">
        <ele>1252.8000488281</ele>
        <time>2021-09-02T08:54:09Z</time>
      </trkpt>
      <trkpt lat="44.41548" lon="6.29689">
        <ele>1252.8000488281</ele>
        <time>2021-09-02T08:54:12Z</time>
      </trkpt>
      <trkpt lat="44.41525" lon="6.29705">
        <ele>1253.4000244141</ele>
        <time>2021-09-02T08:54:21Z</time>
      </trkpt>
      <trkpt lat="44.4151" lon="6.29715">
        <ele>1253.8000488281</ele>
        <time>2021-09-02T08:54:26Z</time>
      </trkpt>
      <trkpt lat="44.41504" lon="6.29717">
        <ele>1253.8000488281</ele>
        <time>2021-09-02T08:54:28Z</time>
      </trkpt>
      <trkpt lat="44.41489" lon="6.29715">
        <ele>1254.5999755859</ele>
        <time>2021-09-02T08:54:34Z</time>
      </trkpt>
      <trkpt lat="44.41485" lon="6.29716">
        <ele>1254.8000488281</ele>
        <time>2021-09-02T08:54:36Z</time>
      </trkpt>
      <trkpt lat="44.41473" lon="6.29715">
        <ele>1255.8000488281</ele>
        <time>2021-09-02T08:54:42Z</time>
      </trkpt>
      <trkpt lat="44.4147" lon="6.29715">
        <ele>1256</ele>
        <time>2021-09-02T08:54:43Z</time>
      </trkpt>
      <trkpt lat="44.41457" lon="6.29713">
        <ele>1257</ele>
        <time>2021-09-02T08:54:49Z</time>
      </trkpt>
      <trkpt lat="44.41442" lon="6.29711">
        <ele>1257.8000488281</ele>
        <time>2021-09-02T08:54:56Z</time>
      </trkpt>
      <trkpt lat="44.41436" lon="6.29713">
        <ele>1258</ele>
        <time>2021-09-02T08:54:59Z</time>
      </trkpt>
      <trkpt lat="44.41429" lon="6.29717">
        <ele>1258.5999755859</ele>
        <time>2021-09-02T08:55:03Z</time>
      </trkpt>
      <trkpt lat="44.41423" lon="6.29721">
        <ele>1259.1999511719</ele>
        <time>2021-09-02T08:55:06Z</time>
      </trkpt>
      <trkpt lat="44.41415" lon="6.29725">
        <ele>1259.5999755859</ele>
        <time>2021-09-02T08:55:10Z</time>
      </trkpt>
      <trkpt lat="44.41413" lon="6.29725">
        <ele>1259.8000488281</ele>
        <time>2021-09-02T08:55:11Z</time>
      </trkpt>
      <trkpt lat="44.41407" lon="6.29724">
        <ele>1260.1999511719</ele>
        <time>2021-09-02T08:55:14Z</time>
      </trkpt>
      <trkpt lat="44.41406" lon="6.29723">
        <ele>1260.4000244141</ele>
        <time>2021-09-02T08:55:15Z</time>
      </trkpt>
      <trkpt lat="44.41393" lon="6.2972">
        <ele>1261.1999511719</ele>
        <time>2021-09-02T08:55:21Z</time>
      </trkpt>
      <trkpt lat="44.41391" lon="6.29719">
        <ele>1261.1999511719</ele>
        <time>2021-09-02T08:55:22Z</time>
      </trkpt>
      <trkpt lat="44.41376" lon="6.29714">
        <ele>1262.4000244141</ele>
        <time>2021-09-02T08:55:30Z</time>
      </trkpt>
      <trkpt lat="44.41365" lon="6.29707">
        <ele>1263</ele>
        <time>2021-09-02T08:55:36Z</time>
      </trkpt>
      <trkpt lat="44.41362" lon="6.29705">
        <ele>1263.4000244141</ele>
        <time>2021-09-02T08:55:38Z</time>
      </trkpt>
      <trkpt lat="44.41359" lon="6.29705">
        <ele>1263.5999755859</ele>
        <time>2021-09-02T08:55:40Z</time>
      </trkpt>
      <trkpt lat="44.41357" lon="6.29704">
        <ele>1263.8000488281</ele>
        <time>2021-09-02T08:55:41Z</time>
      </trkpt>
      <trkpt lat="44.41351" lon="6.29702">
        <ele>1264.4000244141</ele>
        <time>2021-09-02T08:55:44Z</time>
      </trkpt>
      <trkpt lat="44.41344" lon="6.297">
        <ele>1264.8000488281</ele>
        <time>2021-09-02T08:55:47Z</time>
      </trkpt>
      <trkpt lat="44.41331" lon="6.29693">
        <ele>1265.4000244141</ele>
        <time>2021-09-02T08:55:53Z</time>
      </trkpt>
      <trkpt lat="44.41319" lon="6.29685">
        <ele>1266.5999755859</ele>
        <time>2021-09-02T08:55:59Z</time>
      </trkpt>
      <trkpt lat="44.41314" lon="6.29682">
        <ele>1267</ele>
        <time>2021-09-02T08:56:02Z</time>
      </trkpt>
      <trkpt lat="44.41308" lon="6.29679">
        <ele>1267.5999755859</ele>
        <time>2021-09-02T08:56:06Z</time>
      </trkpt>
      <trkpt lat="44.41299" lon="6.29676">
        <ele>1268.1999511719</ele>
        <time>2021-09-02T08:56:10Z</time>
      </trkpt>
      <trkpt lat="44.41291" lon="6.29675">
        <ele>1268.5999755859</ele>
        <time>2021-09-02T08:56:13Z</time>
      </trkpt>
      <trkpt lat="44.41281" lon="6.2967">
        <ele>1269.4000244141</ele>
        <time>2021-09-02T08:56:17Z</time>
      </trkpt>
      <trkpt lat="44.41273" lon="6.29665">
        <ele>1269.8000488281</ele>
        <time>2021-09-02T08:56:20Z</time>
      </trkpt>
      <trkpt lat="44.41265" lon="6.29657">
        <ele>1270.4000244141</ele>
        <time>2021-09-02T08:56:24Z</time>
      </trkpt>
      <trkpt lat="44.41258" lon="6.29635">
        <ele>1270.8000488281</ele>
        <time>2021-09-02T08:56:29Z</time>
      </trkpt>
      <trkpt lat="44.41258" lon="6.29629">
        <ele>1271</ele>
        <time>2021-09-02T08:56:30Z</time>
      </trkpt>
      <trkpt lat="44.41264" lon="6.2961">
        <ele>1271</ele>
        <time>2021-09-02T08:56:35Z</time>
      </trkpt>
      <trkpt lat="44.41279" lon="6.29587">
        <ele>1271.8000488281</ele>
        <time>2021-09-02T08:56:43Z</time>
      </trkpt>
      <trkpt lat="44.41286" lon="6.29562">
        <ele>1272.5999755859</ele>
        <time>2021-09-02T08:56:50Z</time>
      </trkpt>
      <trkpt lat="44.41284" lon="6.2955">
        <ele>1273</ele>
        <time>2021-09-02T08:56:53Z</time>
      </trkpt>
      <trkpt lat="44.41281" lon="6.2954">
        <ele>1273.4000244141</ele>
        <time>2021-09-02T08:56:56Z</time>
      </trkpt>
      <trkpt lat="44.41274" lon="6.29522">
        <ele>1274</ele>
        <time>2021-09-02T08:57:02Z</time>
      </trkpt>
      <trkpt lat="44.41272" lon="6.29517">
        <ele>1274.8000488281</ele>
        <time>2021-09-02T08:57:49Z</time>
      </trkpt>
      <trkpt lat="44.41269" lon="6.29508">
        <ele>1274.8000488281</ele>
        <time>2021-09-02T08:57:52Z</time>
      </trkpt>
      <trkpt lat="44.41267" lon="6.29495">
        <ele>1275</ele>
        <time>2021-09-02T08:57:55Z</time>
      </trkpt>
      <trkpt lat="44.41267" lon="6.29486">
        <ele>1275</ele>
        <time>2021-09-02T08:57:57Z</time>
      </trkpt>
      <trkpt lat="44.41268" lon="6.29454">
        <ele>1275.5999755859</ele>
        <time>2021-09-02T08:58:04Z</time>
      </trkpt>
      <trkpt lat="44.41264" lon="6.29438">
        <ele>1276</ele>
        <time>2021-09-02T08:58:08Z</time>
      </trkpt>
      <trkpt lat="44.41261" lon="6.29432">
        <ele>1276.4000244141</ele>
        <time>2021-09-02T08:58:10Z</time>
      </trkpt>
      <trkpt lat="44.41254" lon="6.29422">
        <ele>1277</ele>
        <time>2021-09-02T08:58:15Z</time>
      </trkpt>
      <trkpt lat="44.41251" lon="6.29417">
        <ele>1277.4000244141</ele>
        <time>2021-09-02T08:58:17Z</time>
      </trkpt>
      <trkpt lat="44.41244" lon="6.29415">
        <ele>1278.4000244141</ele>
        <time>2021-09-02T08:58:21Z</time>
      </trkpt>
      <trkpt lat="44.41242" lon="6.29414">
        <ele>1278.5999755859</ele>
        <time>2021-09-02T08:58:22Z</time>
      </trkpt>
      <trkpt lat="44.41236" lon="6.29408">
        <ele>1279.4000244141</ele>
        <time>2021-09-02T08:58:27Z</time>
      </trkpt>
      <trkpt lat="44.41232" lon="6.29405">
        <ele>1279.8000488281</ele>
        <time>2021-09-02T08:58:29Z</time>
      </trkpt>
      <trkpt lat="44.41227" lon="6.29402">
        <ele>1280.5999755859</ele>
        <time>2021-09-02T08:58:33Z</time>
      </trkpt>
      <trkpt lat="44.41222" lon="6.29398">
        <ele>1281.1999511719</ele>
        <time>2021-09-02T08:58:36Z</time>
      </trkpt>
      <trkpt lat="44.41216" lon="6.29393">
        <ele>1281.5999755859</ele>
        <time>2021-09-02T08:58:41Z</time>
      </trkpt>
      <trkpt lat="44.41213" lon="6.29389">
        <ele>1282.1999511719</ele>
        <time>2021-09-02T08:58:44Z</time>
      </trkpt>
      <trkpt lat="44.41209" lon="6.29385">
        <ele>1282.8000488281</ele>
        <time>2021-09-02T08:58:47Z</time>
      </trkpt>
      <trkpt lat="44.41204" lon="6.29379">
        <ele>1283.4000244141</ele>
        <time>2021-09-02T08:58:51Z</time>
      </trkpt>
      <trkpt lat="44.41202" lon="6.29376">
        <ele>1283.8000488281</ele>
        <time>2021-09-02T08:58:53Z</time>
      </trkpt>
      <trkpt lat="44.41197" lon="6.29366">
        <ele>1284.5999755859</ele>
        <time>2021-09-02T08:58:58Z</time>
      </trkpt>
      <trkpt lat="44.41195" lon="6.29363">
        <ele>1285</ele>
        <time>2021-09-02T08:59:00Z</time>
      </trkpt>
      <trkpt lat="44.41188" lon="6.29355">
        <ele>1286</ele>
        <time>2021-09-02T08:59:05Z</time>
      </trkpt>
      <trkpt lat="44.41187" lon="6.29354">
        <ele>1286.1999511719</ele>
        <time>2021-09-02T08:59:06Z</time>
      </trkpt>
      <trkpt lat="44.41182" lon="6.29349">
        <ele>1287.1999511719</ele>
        <time>2021-09-02T08:59:10Z</time>
      </trkpt>
      <trkpt lat="44.41178" lon="6.29346">
        <ele>1287.8000488281</ele>
        <time>2021-09-02T08:59:13Z</time>
      </trkpt>
      <trkpt lat="44.41174" lon="6.29342">
        <ele>1288.1999511719</ele>
        <time>2021-09-02T08:59:16Z</time>
      </trkpt>
      <trkpt lat="44.41166" lon="6.29334">
        <ele>1289</ele>
        <time>2021-09-02T08:59:22Z</time>
      </trkpt>
      <trkpt lat="44.41163" lon="6.29332">
        <ele>1289.4000244141</ele>
        <time>2021-09-02T08:59:24Z</time>
      </trkpt>
      <trkpt lat="44.41157" lon="6.29323">
        <ele>1289.8000488281</ele>
        <time>2021-09-02T08:59:29Z</time>
      </trkpt>
      <trkpt lat="44.41148" lon="6.2931">
        <ele>1290.4000244141</ele>
        <time>2021-09-02T08:59:35Z</time>
      </trkpt>
      <trkpt lat="44.41146" lon="6.29307">
        <ele>1290.4000244141</ele>
        <time>2021-09-02T08:59:37Z</time>
      </trkpt>
      <trkpt lat="44.41134" lon="6.29291">
        <ele>1291</ele>
        <time>2021-09-02T08:59:44Z</time>
      </trkpt>
      <trkpt lat="44.41129" lon="6.29285">
        <ele>1291.4000244141</ele>
        <time>2021-09-02T08:59:47Z</time>
      </trkpt>
      <trkpt lat="44.4112" lon="6.29279">
        <ele>1291.8000488281</ele>
        <time>2021-09-02T08:59:52Z</time>
      </trkpt>
      <trkpt lat="44.41113" lon="6.29274">
        <ele>1292.4000244141</ele>
        <time>2021-09-02T08:59:56Z</time>
      </trkpt>
      <trkpt lat="44.41104" lon="6.2927">
        <ele>1293</ele>
        <time>2021-09-02T09:00:00Z</time>
      </trkpt>
      <trkpt lat="44.41095" lon="6.29264">
        <ele>1293.4000244141</ele>
        <time>2021-09-02T09:00:05Z</time>
      </trkpt>
      <trkpt lat="44.41087" lon="6.29261">
        <ele>1294</ele>
        <time>2021-09-02T09:00:09Z</time>
      </trkpt>
      <trkpt lat="44.4108" lon="6.29257">
        <ele>1294.5999755859</ele>
        <time>2021-09-02T09:00:13Z</time>
      </trkpt>
      <trkpt lat="44.41072" lon="6.29256">
        <ele>1295.1999511719</ele>
        <time>2021-09-02T09:00:17Z</time>
      </trkpt>
      <trkpt lat="44.41064" lon="6.29253">
        <ele>1295.5999755859</ele>
        <time>2021-09-02T09:00:21Z</time>
      </trkpt>
      <trkpt lat="44.4106" lon="6.29251">
        <ele>1296</ele>
        <time>2021-09-02T09:00:23Z</time>
      </trkpt>
      <trkpt lat="44.41052" lon="6.29249">
        <ele>1296.5999755859</ele>
        <time>2021-09-02T09:00:27Z</time>
      </trkpt>
      <trkpt lat="44.41043" lon="6.29245">
        <ele>1297.4000244141</ele>
        <time>2021-09-02T09:00:32Z</time>
      </trkpt>
      <trkpt lat="44.41041" lon="6.29245">
        <ele>1297.5999755859</ele>
        <time>2021-09-02T09:00:33Z</time>
      </trkpt>
      <trkpt lat="44.4103" lon="6.2924">
        <ele>1298.4000244141</ele>
        <time>2021-09-02T09:00:39Z</time>
      </trkpt>
      <trkpt lat="44.41026" lon="6.29238">
        <ele>1298.5999755859</ele>
        <time>2021-09-02T09:00:41Z</time>
      </trkpt>
      <trkpt lat="44.41014" lon="6.29229">
        <ele>1299.8000488281</ele>
        <time>2021-09-02T09:00:49Z</time>
      </trkpt>
      <trkpt lat="44.41006" lon="6.29224">
        <ele>1300.5999755859</ele>
        <time>2021-09-02T09:00:54Z</time>
      </trkpt>
      <trkpt lat="44.41005" lon="6.29223">
        <ele>1300.8000488281</ele>
        <time>2021-09-02T09:00:55Z</time>
      </trkpt>
      <trkpt lat="44.40996" lon="6.29218">
        <ele>1301.8000488281</ele>
        <time>2021-09-02T09:01:01Z</time>
      </trkpt>
      <trkpt lat="44.40993" lon="6.29216">
        <ele>1302.1999511719</ele>
        <time>2021-09-02T09:01:03Z</time>
      </trkpt>
      <trkpt lat="44.40986" lon="6.29213">
        <ele>1303</ele>
        <time>2021-09-02T09:01:07Z</time>
      </trkpt>
      <trkpt lat="44.40982" lon="6.29212">
        <ele>1304</ele>
        <time>2021-09-02T09:01:10Z</time>
      </trkpt>
      <trkpt lat="44.4098" lon="6.29212">
        <ele>1304.1999511719</ele>
        <time>2021-09-02T09:01:11Z</time>
      </trkpt>
      <trkpt lat="44.40972" lon="6.29209">
        <ele>1305.4000244141</ele>
        <time>2021-09-02T09:01:16Z</time>
      </trkpt>
      <trkpt lat="44.40969" lon="6.29208">
        <ele>1306</ele>
        <time>2021-09-02T09:01:18Z</time>
      </trkpt>
      <trkpt lat="44.40964" lon="6.29208">
        <ele>1306.5999755859</ele>
        <time>2021-09-02T09:01:21Z</time>
      </trkpt>
      <trkpt lat="44.40956" lon="6.2921">
        <ele>1307.1999511719</ele>
        <time>2021-09-02T09:01:26Z</time>
      </trkpt>
      <trkpt lat="44.40948" lon="6.29213">
        <ele>1307.8000488281</ele>
        <time>2021-09-02T09:05:00Z</time>
      </trkpt>
      <trkpt lat="44.40933" lon="6.29218">
        <ele>1307.5999755859</ele>
        <time>2021-09-02T09:05:06Z</time>
      </trkpt>
      <trkpt lat="44.40929" lon="6.29216">
        <ele>1307.5999755859</ele>
        <time>2021-09-02T09:05:07Z</time>
      </trkpt>
      <trkpt lat="44.40925" lon="6.29214">
        <ele>1307.5999755859</ele>
        <time>2021-09-02T09:05:08Z</time>
      </trkpt>
      <trkpt lat="44.40922" lon="6.29209">
        <ele>1307.4000244141</ele>
        <time>2021-09-02T09:05:09Z</time>
      </trkpt>
      <trkpt lat="44.40913" lon="6.29188">
        <ele>1306.8000488281</ele>
        <time>2021-09-02T09:05:12Z</time>
      </trkpt>
      <trkpt lat="44.40909" lon="6.2918">
        <ele>1306.4000244141</ele>
        <time>2021-09-02T09:05:13Z</time>
      </trkpt>
      <trkpt lat="44.40893" lon="6.29142">
        <ele>1305.4000244141</ele>
        <time>2021-09-02T09:05:17Z</time>
      </trkpt>
      <trkpt lat="44.40878" lon="6.29111">
        <ele>1303.8000488281</ele>
        <time>2021-09-02T09:05:20Z</time>
      </trkpt>
      <trkpt lat="44.40873" lon="6.291">
        <ele>1303.1999511719</ele>
        <time>2021-09-02T09:05:21Z</time>
      </trkpt>
      <trkpt lat="44.40867" lon="6.29089">
        <ele>1302.5999755859</ele>
        <time>2021-09-02T09:05:22Z</time>
      </trkpt>
      <trkpt lat="44.40854" lon="6.29072">
        <ele>1301.5999755859</ele>
        <time>2021-09-02T09:05:24Z</time>
      </trkpt>
      <trkpt lat="44.40848" lon="6.29064">
        <ele>1301</ele>
        <time>2021-09-02T09:05:25Z</time>
      </trkpt>
      <trkpt lat="44.40841" lon="6.29058">
        <ele>1300.4000244141</ele>
        <time>2021-09-02T09:05:26Z</time>
      </trkpt>
      <trkpt lat="44.40824" lon="6.29054">
        <ele>1299</ele>
        <time>2021-09-02T09:05:28Z</time>
      </trkpt>
      <trkpt lat="44.40805" lon="6.29057">
        <ele>1297.4000244141</ele>
        <time>2021-09-02T09:05:30Z</time>
      </trkpt>
      <trkpt lat="44.40796" lon="6.29061">
        <ele>1296.5999755859</ele>
        <time>2021-09-02T09:05:31Z</time>
      </trkpt>
      <trkpt lat="44.40786" lon="6.29065">
        <ele>1295.8000488281</ele>
        <time>2021-09-02T09:05:32Z</time>
      </trkpt>
      <trkpt lat="44.40769" lon="6.29072">
        <ele>1293.8000488281</ele>
        <time>2021-09-02T09:05:34Z</time>
      </trkpt>
      <trkpt lat="44.4076" lon="6.29074">
        <ele>1293.1999511719</ele>
        <time>2021-09-02T09:05:35Z</time>
      </trkpt>
      <trkpt lat="44.40752" lon="6.29074">
        <ele>1292.4000244141</ele>
        <time>2021-09-02T09:05:36Z</time>
      </trkpt>
      <trkpt lat="44.40735" lon="6.2907">
        <ele>1291</ele>
        <time>2021-09-02T09:05:38Z</time>
      </trkpt>
      <trkpt lat="44.40727" lon="6.29065">
        <ele>1290.4000244141</ele>
        <time>2021-09-02T09:05:39Z</time>
      </trkpt>
      <trkpt lat="44.40718" lon="6.2906">
        <ele>1289.8000488281</ele>
        <time>2021-09-02T09:05:40Z</time>
      </trkpt>
      <trkpt lat="44.40702" lon="6.29049">
        <ele>1288.8000488281</ele>
        <time>2021-09-02T09:05:42Z</time>
      </trkpt>
      <trkpt lat="44.40685" lon="6.29038">
        <ele>1287.8000488281</ele>
        <time>2021-09-02T09:05:44Z</time>
      </trkpt>
      <trkpt lat="44.40676" lon="6.29032">
        <ele>1287.4000244141</ele>
        <time>2021-09-02T09:05:45Z</time>
      </trkpt>
      <trkpt lat="44.40658" lon="6.29019">
        <ele>1286.4000244141</ele>
        <time>2021-09-02T09:05:47Z</time>
      </trkpt>
      <trkpt lat="44.40632" lon="6.28997">
        <ele>1285.1999511719</ele>
        <time>2021-09-02T09:05:50Z</time>
      </trkpt>
      <trkpt lat="44.40623" lon="6.28988">
        <ele>1284.5999755859</ele>
        <time>2021-09-02T09:05:51Z</time>
      </trkpt>
      <trkpt lat="44.40615" lon="6.28979">
        <ele>1284.1999511719</ele>
        <time>2021-09-02T09:05:52Z</time>
      </trkpt>
      <trkpt lat="44.40599" lon="6.28966">
        <ele>1282.8000488281</ele>
        <time>2021-09-02T09:05:54Z</time>
      </trkpt>
      <trkpt lat="44.40581" lon="6.2896">
        <ele>1281.1999511719</ele>
        <time>2021-09-02T09:05:56Z</time>
      </trkpt>
      <trkpt lat="44.4057" lon="6.28959">
        <ele>1280.1999511719</ele>
        <time>2021-09-02T09:05:57Z</time>
      </trkpt>
      <trkpt lat="44.40559" lon="6.28959">
        <ele>1278.1999511719</ele>
        <time>2021-09-02T09:05:58Z</time>
      </trkpt>
      <trkpt lat="44.4055" lon="6.28958">
        <ele>1277.1999511719</ele>
        <time>2021-09-02T09:05:59Z</time>
      </trkpt>
      <trkpt lat="44.40541" lon="6.28956">
        <ele>1276.1999511719</ele>
        <time>2021-09-02T09:06:00Z</time>
      </trkpt>
      <trkpt lat="44.40534" lon="6.28954">
        <ele>1275.1999511719</ele>
        <time>2021-09-02T09:06:01Z</time>
      </trkpt>
      <trkpt lat="44.40528" lon="6.28953">
        <ele>1274.1999511719</ele>
        <time>2021-09-02T09:06:02Z</time>
      </trkpt>
      <trkpt lat="44.40523" lon="6.28954">
        <ele>1273.1999511719</ele>
        <time>2021-09-02T09:06:03Z</time>
      </trkpt>
      <trkpt lat="44.40519" lon="6.28959">
        <ele>1272.1999511719</ele>
        <time>2021-09-02T09:06:04Z</time>
      </trkpt>
      <trkpt lat="44.40517" lon="6.28966">
        <ele>1271</ele>
        <time>2021-09-02T09:06:05Z</time>
      </trkpt>
      <trkpt lat="44.40518" lon="6.28972">
        <ele>1270.1999511719</ele>
        <time>2021-09-02T09:06:06Z</time>
      </trkpt>
      <trkpt lat="44.40521" lon="6.28979">
        <ele>1269.1999511719</ele>
        <time>2021-09-02T09:06:07Z</time>
      </trkpt>
      <trkpt lat="44.40531" lon="6.28986">
        <ele>1268</ele>
        <time>2021-09-02T09:06:09Z</time>
      </trkpt>
      <trkpt lat="44.40543" lon="6.28989">
        <ele>1267</ele>
        <time>2021-09-02T09:06:11Z</time>
      </trkpt>
      <trkpt lat="44.4055" lon="6.28991">
        <ele>1266.5999755859</ele>
        <time>2021-09-02T09:06:12Z</time>
      </trkpt>
      <trkpt lat="44.40556" lon="6.28994">
        <ele>1266.1999511719</ele>
        <time>2021-09-02T09:06:13Z</time>
      </trkpt>
      <trkpt lat="44.4057" lon="6.29003">
        <ele>1265.4000244141</ele>
        <time>2021-09-02T09:06:15Z</time>
      </trkpt>
      <trkpt lat="44.4058" lon="6.29016">
        <ele>1264.5999755859</ele>
        <time>2021-09-02T09:06:17Z</time>
      </trkpt>
      <trkpt lat="44.40585" lon="6.29023">
        <ele>1264</ele>
        <time>2021-09-02T09:06:18Z</time>
      </trkpt>
      <trkpt lat="44.406" lon="6.29049">
        <ele>1262.8000488281</ele>
        <time>2021-09-02T09:06:21Z</time>
      </trkpt>
      <trkpt lat="44.40605" lon="6.29059">
        <ele>1261.8000488281</ele>
        <time>2021-09-02T09:06:22Z</time>
      </trkpt>
      <trkpt lat="44.4061" lon="6.29068">
        <ele>1261.1999511719</ele>
        <time>2021-09-02T09:06:23Z</time>
      </trkpt>
      <trkpt lat="44.40618" lon="6.29087">
        <ele>1260</ele>
        <time>2021-09-02T09:06:25Z</time>
      </trkpt>
      <trkpt lat="44.40625" lon="6.29104">
        <ele>1259</ele>
        <time>2021-09-02T09:06:27Z</time>
      </trkpt>
      <trkpt lat="44.40631" lon="6.29122">
        <ele>1257.8000488281</ele>
        <time>2021-09-02T09:06:29Z</time>
      </trkpt>
      <trkpt lat="44.40635" lon="6.29143">
        <ele>1256.4000244141</ele>
        <time>2021-09-02T09:06:31Z</time>
      </trkpt>
      <trkpt lat="44.40636" lon="6.29154">
        <ele>1255.8000488281</ele>
        <time>2021-09-02T09:06:32Z</time>
      </trkpt>
      <trkpt lat="44.40636" lon="6.29165">
        <ele>1255</ele>
        <time>2021-09-02T09:06:33Z</time>
      </trkpt>
      <trkpt lat="44.40635" lon="6.29184">
        <ele>1253.5999755859</ele>
        <time>2021-09-02T09:06:35Z</time>
      </trkpt>
      <trkpt lat="44.40634" lon="6.29193">
        <ele>1253</ele>
        <time>2021-09-02T09:06:36Z</time>
      </trkpt>
      <trkpt lat="44.40631" lon="6.29202">
        <ele>1252.5999755859</ele>
        <time>2021-09-02T09:06:37Z</time>
      </trkpt>
      <trkpt lat="44.40624" lon="6.29217">
        <ele>1251.1999511719</ele>
        <time>2021-09-02T09:06:39Z</time>
      </trkpt>
      <trkpt lat="44.40619" lon="6.29224">
        <ele>1250.8000488281</ele>
        <time>2021-09-02T09:06:40Z</time>
      </trkpt>
      <trkpt lat="44.40614" lon="6.29232">
        <ele>1250.4000244141</ele>
        <time>2021-09-02T09:06:41Z</time>
      </trkpt>
      <trkpt lat="44.40609" lon="6.2924">
        <ele>1250</ele>
        <time>2021-09-02T09:06:42Z</time>
      </trkpt>
      <trkpt lat="44.40594" lon="6.29267">
        <ele>1248.4000244141</ele>
        <time>2021-09-02T09:06:45Z</time>
      </trkpt>
      <trkpt lat="44.4059" lon="6.29277">
        <ele>1247.4000244141</ele>
        <time>2021-09-02T09:06:46Z</time>
      </trkpt>
      <trkpt lat="44.40585" lon="6.29285">
        <ele>1246.8000488281</ele>
        <time>2021-09-02T09:06:47Z</time>
      </trkpt>
      <trkpt lat="44.40576" lon="6.293">
        <ele>1246</ele>
        <time>2021-09-02T09:06:49Z</time>
      </trkpt>
      <trkpt lat="44.40564" lon="6.29311">
        <ele>1244.8000488281</ele>
        <time>2021-09-02T09:06:51Z</time>
      </trkpt>
      <trkpt lat="44.40557" lon="6.29315">
        <ele>1244</ele>
        <time>2021-09-02T09:06:52Z</time>
      </trkpt>
      <trkpt lat="44.4055" lon="6.29318">
        <ele>1243.4000244141</ele>
        <time>2021-09-02T09:06:53Z</time>
      </trkpt>
      <trkpt lat="44.40536" lon="6.29325">
        <ele>1242.1999511719</ele>
        <time>2021-09-02T09:06:55Z</time>
      </trkpt>
      <trkpt lat="44.40529" lon="6.29331">
        <ele>1241.8000488281</ele>
        <time>2021-09-02T09:06:56Z</time>
      </trkpt>
      <trkpt lat="44.40515" lon="6.29354">
        <ele>1241</ele>
        <time>2021-09-02T09:06:59Z</time>
      </trkpt>
      <trkpt lat="44.40512" lon="6.29382">
        <ele>1240.4000244141</ele>
        <time>2021-09-02T09:07:02Z</time>
      </trkpt>
      <trkpt lat="44.40513" lon="6.29392">
        <ele>1240</ele>
        <time>2021-09-02T09:07:03Z</time>
      </trkpt>
      <trkpt lat="44.40513" lon="6.2941">
        <ele>1239.1999511719</ele>
        <time>2021-09-02T09:07:05Z</time>
      </trkpt>
      <trkpt lat="44.4051" lon="6.29417">
        <ele>1239</ele>
        <time>2021-09-02T09:07:06Z</time>
      </trkpt>
      <trkpt lat="44.40496" lon="6.29426">
        <ele>1238</ele>
        <time>2021-09-02T09:07:09Z</time>
      </trkpt>
      <trkpt lat="44.40485" lon="6.2942">
        <ele>1236.8000488281</ele>
        <time>2021-09-02T09:07:11Z</time>
      </trkpt>
      <trkpt lat="44.4048" lon="6.29416">
        <ele>1236.4000244141</ele>
        <time>2021-09-02T09:07:12Z</time>
      </trkpt>
      <trkpt lat="44.40474" lon="6.29413">
        <ele>1236</ele>
        <time>2021-09-02T09:07:13Z</time>
      </trkpt>
      <trkpt lat="44.40468" lon="6.29411">
        <ele>1235.5999755859</ele>
        <time>2021-09-02T09:07:14Z</time>
      </trkpt>
      <trkpt lat="44.40457" lon="6.29413">
        <ele>1235.1999511719</ele>
        <time>2021-09-02T09:07:16Z</time>
      </trkpt>
      <trkpt lat="44.40445" lon="6.2942">
        <ele>1234.5999755859</ele>
        <time>2021-09-02T09:07:18Z</time>
      </trkpt>
      <trkpt lat="44.4044" lon="6.29425">
        <ele>1234.1999511719</ele>
        <time>2021-09-02T09:07:19Z</time>
      </trkpt>
      <trkpt lat="44.40434" lon="6.2943">
        <ele>1233.8000488281</ele>
        <time>2021-09-02T09:07:20Z</time>
      </trkpt>
      <trkpt lat="44.40428" lon="6.29435">
        <ele>1233.4000244141</ele>
        <time>2021-09-02T09:07:21Z</time>
      </trkpt>
      <trkpt lat="44.4041" lon="6.29449">
        <ele>1232.1999511719</ele>
        <time>2021-09-02T09:07:24Z</time>
      </trkpt>
      <trkpt lat="44.40392" lon="6.2946">
        <ele>1231.4000244141</ele>
        <time>2021-09-02T09:07:27Z</time>
      </trkpt>
      <trkpt lat="44.4038" lon="6.29469">
        <ele>1231</ele>
        <time>2021-09-02T09:07:29Z</time>
      </trkpt>
      <trkpt lat="44.40347" lon="6.29494">
        <ele>1229.8000488281</ele>
        <time>2021-09-02T09:07:35Z</time>
      </trkpt>
      <trkpt lat="44.40307" lon="6.29525">
        <ele>1228.8000488281</ele>
        <time>2021-09-02T09:07:42Z</time>
      </trkpt>
      <trkpt lat="44.40296" lon="6.29535">
        <ele>1228.5999755859</ele>
        <time>2021-09-02T09:07:44Z</time>
      </trkpt>
      <trkpt lat="44.4028" lon="6.29551">
        <ele>1228</ele>
        <time>2021-09-02T09:07:47Z</time>
      </trkpt>
      <trkpt lat="44.40276" lon="6.29558">
        <ele>1227.8000488281</ele>
        <time>2021-09-02T09:07:48Z</time>
      </trkpt>
      <trkpt lat="44.40273" lon="6.29566">
        <ele>1227.4000244141</ele>
        <time>2021-09-02T09:07:49Z</time>
      </trkpt>
      <trkpt lat="44.4027" lon="6.29585">
        <ele>1226.4000244141</ele>
        <time>2021-09-02T09:07:51Z</time>
      </trkpt>
      <trkpt lat="44.40269" lon="6.29595">
        <ele>1225.8000488281</ele>
        <time>2021-09-02T09:07:52Z</time>
      </trkpt>
      <trkpt lat="44.40269" lon="6.29604">
        <ele>1225.1999511719</ele>
        <time>2021-09-02T09:07:53Z</time>
      </trkpt>
      <trkpt lat="44.40265" lon="6.29622">
        <ele>1224.1999511719</ele>
        <time>2021-09-02T09:07:55Z</time>
      </trkpt>
      <trkpt lat="44.40259" lon="6.29639">
        <ele>1223</ele>
        <time>2021-09-02T09:07:57Z</time>
      </trkpt>
      <trkpt lat="44.40256" lon="6.29647">
        <ele>1222.1999511719</ele>
        <time>2021-09-02T09:07:58Z</time>
      </trkpt>
      <trkpt lat="44.40252" lon="6.29654">
        <ele>1221.1999511719</ele>
        <time>2021-09-02T09:07:59Z</time>
      </trkpt>
      <trkpt lat="44.40242" lon="6.29669">
        <ele>1220.1999511719</ele>
        <time>2021-09-02T09:08:01Z</time>
      </trkpt>
      <trkpt lat="44.40233" lon="6.29682">
        <ele>1219</ele>
        <time>2021-09-02T09:08:03Z</time>
      </trkpt>
      <trkpt lat="44.40222" lon="6.29697">
        <ele>1217.8000488281</ele>
        <time>2021-09-02T09:08:05Z</time>
      </trkpt>
      <trkpt lat="44.40211" lon="6.29713">
        <ele>1216.5999755859</ele>
        <time>2021-09-02T09:08:07Z</time>
      </trkpt>
      <trkpt lat="44.40196" lon="6.2974">
        <ele>1215.4000244141</ele>
        <time>2021-09-02T09:08:10Z</time>
      </trkpt>
      <trkpt lat="44.40191" lon="6.29749">
        <ele>1215</ele>
        <time>2021-09-02T09:08:11Z</time>
      </trkpt>
      <trkpt lat="44.40185" lon="6.29757">
        <ele>1214.5999755859</ele>
        <time>2021-09-02T09:08:12Z</time>
      </trkpt>
      <trkpt lat="44.40179" lon="6.29764">
        <ele>1214.1999511719</ele>
        <time>2021-09-02T09:08:13Z</time>
      </trkpt>
      <trkpt lat="44.40172" lon="6.29769">
        <ele>1213.8000488281</ele>
        <time>2021-09-02T09:08:14Z</time>
      </trkpt>
      <trkpt lat="44.40158" lon="6.29778">
        <ele>1213</ele>
        <time>2021-09-02T09:08:16Z</time>
      </trkpt>
      <trkpt lat="44.40135" lon="6.29789">
        <ele>1211.5999755859</ele>
        <time>2021-09-02T09:08:19Z</time>
      </trkpt>
      <trkpt lat="44.40128" lon="6.29794">
        <ele>1211.1999511719</ele>
        <time>2021-09-02T09:08:20Z</time>
      </trkpt>
      <trkpt lat="44.40113" lon="6.29804">
        <ele>1210.5999755859</ele>
        <time>2021-09-02T09:08:22Z</time>
      </trkpt>
      <trkpt lat="44.401" lon="6.29814">
        <ele>1209.4000244141</ele>
        <time>2021-09-02T09:08:24Z</time>
      </trkpt>
      <trkpt lat="44.40071" lon="6.29831">
        <ele>1208.5999755859</ele>
        <time>2021-09-02T09:08:29Z</time>
      </trkpt>
      <trkpt lat="44.40061" lon="6.29834">
        <ele>1208.4000244141</ele>
        <time>2021-09-02T09:08:31Z</time>
      </trkpt>
      <trkpt lat="44.40057" lon="6.29834">
        <ele>1208.4000244141</ele>
        <time>2021-09-02T09:08:32Z</time>
      </trkpt>
      <trkpt lat="44.40052" lon="6.29834">
        <ele>1208.4000244141</ele>
        <time>2021-09-02T09:08:33Z</time>
      </trkpt>
      <trkpt lat="44.40033" lon="6.29827">
        <ele>1209</ele>
        <time>2021-09-02T09:08:38Z</time>
      </trkpt>
      <trkpt lat="44.40022" lon="6.29823">
        <ele>1209.5999755859</ele>
        <time>2021-09-02T09:08:41Z</time>
      </trkpt>
      <trkpt lat="44.40014" lon="6.29819">
        <ele>1209.8000488281</ele>
        <time>2021-09-02T09:08:43Z</time>
      </trkpt>
      <trkpt lat="44.39997" lon="6.29813">
        <ele>1210.5999755859</ele>
        <time>2021-09-02T09:08:48Z</time>
      </trkpt>
      <trkpt lat="44.39986" lon="6.29808">
        <ele>1210.8000488281</ele>
        <time>2021-09-02T09:08:51Z</time>
      </trkpt>
      <trkpt lat="44.39958" lon="6.29804">
        <ele>1211.5999755859</ele>
        <time>2021-09-02T09:08:59Z</time>
      </trkpt>
      <trkpt lat="44.39955" lon="6.29803">
        <ele>1211.5999755859</ele>
        <time>2021-09-02T09:09:00Z</time>
      </trkpt>
      <trkpt lat="44.39931" lon="6.29801">
        <ele>1211.8000488281</ele>
        <time>2021-09-02T09:09:06Z</time>
      </trkpt>
      <trkpt lat="44.39898" lon="6.29805">
        <ele>1212</ele>
        <time>2021-09-02T09:09:14Z</time>
      </trkpt>
      <trkpt lat="44.39869" lon="6.29813">
        <ele>1212.1999511719</ele>
        <time>2021-09-02T09:09:21Z</time>
      </trkpt>
      <trkpt lat="44.39844" lon="6.2982">
        <ele>1212.4000244141</ele>
        <time>2021-09-02T09:09:28Z</time>
      </trkpt>
      <trkpt lat="44.39828" lon="6.29821">
        <ele>1212.5999755859</ele>
        <time>2021-09-02T09:09:33Z</time>
      </trkpt>
      <trkpt lat="44.39818" lon="6.29822">
        <ele>1213.8000488281</ele>
        <time>2021-09-02T09:09:38Z</time>
      </trkpt>
      <trkpt lat="44.39808" lon="6.29831">
        <ele>1214.8000488281</ele>
        <time>2021-09-02T09:09:44Z</time>
      </trkpt>
      <trkpt lat="44.39804" lon="6.29836">
        <ele>1215.4000244141</ele>
        <time>2021-09-02T09:09:47Z</time>
      </trkpt>
      <trkpt lat="44.39803" lon="6.29842">
        <ele>1215.8000488281</ele>
        <time>2021-09-02T09:09:49Z</time>
      </trkpt>
      <trkpt lat="44.39802" lon="6.29845">
        <ele>1216</ele>
        <time>2021-09-02T09:09:50Z</time>
      </trkpt>
      <trkpt lat="44.39801" lon="6.29848">
        <ele>1216.1999511719</ele>
        <time>2021-09-02T09:09:51Z</time>
      </trkpt>
      <trkpt lat="44.39799" lon="6.29858">
        <ele>1216.5999755859</ele>
        <time>2021-09-02T09:09:55Z</time>
      </trkpt>
      <trkpt lat="44.39798" lon="6.29864">
        <ele>1216.8000488281</ele>
        <time>2021-09-02T09:09:57Z</time>
      </trkpt>
      <trkpt lat="44.39797" lon="6.29872">
        <ele>1216.8000488281</ele>
        <time>2021-09-02T09:09:59Z</time>
      </trkpt>
      <trkpt lat="44.39796" lon="6.29886">
        <ele>1216.8000488281</ele>
        <time>2021-09-02T09:10:02Z</time>
      </trkpt>
      <trkpt lat="44.3979" lon="6.29922">
        <ele>1216</ele>
        <time>2021-09-02T09:10:08Z</time>
      </trkpt>
      <trkpt lat="44.39789" lon="6.29936">
        <ele>1215.8000488281</ele>
        <time>2021-09-02T09:10:10Z</time>
      </trkpt>
      <trkpt lat="44.39785" lon="6.29958">
        <ele>1215.1999511719</ele>
        <time>2021-09-02T09:10:13Z</time>
      </trkpt>
      <trkpt lat="44.3978" lon="6.29971">
        <ele>1215</ele>
        <time>2021-09-02T09:10:15Z</time>
      </trkpt>
      <trkpt lat="44.39778" lon="6.29977">
        <ele>1214.8000488281</ele>
        <time>2021-09-02T09:10:16Z</time>
      </trkpt>
      <trkpt lat="44.39775" lon="6.29983">
        <ele>1214.5999755859</ele>
        <time>2021-09-02T09:10:17Z</time>
      </trkpt>
      <trkpt lat="44.39767" lon="6.29993">
        <ele>1214.1999511719</ele>
        <time>2021-09-02T09:10:19Z</time>
      </trkpt>
      <trkpt lat="44.39758" lon="6.30001">
        <ele>1213.8000488281</ele>
        <time>2021-09-02T09:10:21Z</time>
      </trkpt>
      <trkpt lat="44.39753" lon="6.30005">
        <ele>1213.5999755859</ele>
        <time>2021-09-02T09:10:22Z</time>
      </trkpt>
      <trkpt lat="44.39744" lon="6.30014">
        <ele>1212.8000488281</ele>
        <time>2021-09-02T09:10:24Z</time>
      </trkpt>
      <trkpt lat="44.39736" lon="6.30022">
        <ele>1212.1999511719</ele>
        <time>2021-09-02T09:10:26Z</time>
      </trkpt>
      <trkpt lat="44.39732" lon="6.30026">
        <ele>1212</ele>
        <time>2021-09-02T09:10:27Z</time>
      </trkpt>
      <trkpt lat="44.39724" lon="6.30036">
        <ele>1211.1999511719</ele>
        <time>2021-09-02T09:10:29Z</time>
      </trkpt>
      <trkpt lat="44.39717" lon="6.30058">
        <ele>1209.8000488281</ele>
        <time>2021-09-02T09:10:32Z</time>
      </trkpt>
      <trkpt lat="44.39716" lon="6.30066">
        <ele>1209.4000244141</ele>
        <time>2021-09-02T09:10:33Z</time>
      </trkpt>
      <trkpt lat="44.39713" lon="6.30083">
        <ele>1208.4000244141</ele>
        <time>2021-09-02T09:10:35Z</time>
      </trkpt>
      <trkpt lat="44.39706" lon="6.30114">
        <ele>1206.8000488281</ele>
        <time>2021-09-02T09:10:38Z</time>
      </trkpt>
      <trkpt lat="44.39702" lon="6.30134">
        <ele>1205.8000488281</ele>
        <time>2021-09-02T09:10:40Z</time>
      </trkpt>
      <trkpt lat="44.397" lon="6.30148">
        <ele>1204.4000244141</ele>
        <time>2021-09-02T09:10:42Z</time>
      </trkpt>
      <trkpt lat="44.39699" lon="6.30158">
        <ele>1203.1999511719</ele>
        <time>2021-09-02T09:10:44Z</time>
      </trkpt>
      <trkpt lat="44.39699" lon="6.30163">
        <ele>1198.5999755859</ele>
        <time>2021-09-02T09:11:21Z</time>
      </trkpt>
      <trkpt lat="44.39701" lon="6.3017">
        <ele>1198.4000244141</ele>
        <time>2021-09-02T09:11:23Z</time>
      </trkpt>
      <trkpt lat="44.39705" lon="6.3018">
        <ele>1198.4000244141</ele>
        <time>2021-09-02T09:11:25Z</time>
      </trkpt>
      <trkpt lat="44.3971" lon="6.30192">
        <ele>1198.1999511719</ele>
        <time>2021-09-02T09:11:27Z</time>
      </trkpt>
      <trkpt lat="44.39732" lon="6.30216">
        <ele>1197.4000244141</ele>
        <time>2021-09-02T09:11:31Z</time>
      </trkpt>
      <trkpt lat="44.39752" lon="6.30239">
        <ele>1196</ele>
        <time>2021-09-02T09:11:34Z</time>
      </trkpt>
      <trkpt lat="44.39759" lon="6.30249">
        <ele>1195</ele>
        <time>2021-09-02T09:11:35Z</time>
      </trkpt>
      <trkpt lat="44.39766" lon="6.3026">
        <ele>1194.5999755859</ele>
        <time>2021-09-02T09:11:36Z</time>
      </trkpt>
      <trkpt lat="44.39776" lon="6.30286">
        <ele>1193</ele>
        <time>2021-09-02T09:11:38Z</time>
      </trkpt>
      <trkpt lat="44.39784" lon="6.30316">
        <ele>1191.1999511719</ele>
        <time>2021-09-02T09:11:40Z</time>
      </trkpt>
      <trkpt lat="44.3979" lon="6.30346">
        <ele>1189.8000488281</ele>
        <time>2021-09-02T09:11:42Z</time>
      </trkpt>
      <trkpt lat="44.39796" lon="6.30375">
        <ele>1187.8000488281</ele>
        <time>2021-09-02T09:11:44Z</time>
      </trkpt>
      <trkpt lat="44.39804" lon="6.30405">
        <ele>1185.8000488281</ele>
        <time>2021-09-02T09:11:46Z</time>
      </trkpt>
      <trkpt lat="44.39809" lon="6.3042">
        <ele>1184.8000488281</ele>
        <time>2021-09-02T09:11:47Z</time>
      </trkpt>
      <trkpt lat="44.39813" lon="6.30434">
        <ele>1183.8000488281</ele>
        <time>2021-09-02T09:11:48Z</time>
      </trkpt>
      <trkpt lat="44.39817" lon="6.30446">
        <ele>1182.8000488281</ele>
        <time>2021-09-02T09:11:49Z</time>
      </trkpt>
      <trkpt lat="44.39827" lon="6.30464">
        <ele>1181</ele>
        <time>2021-09-02T09:11:51Z</time>
      </trkpt>
      <trkpt lat="44.39829" lon="6.30472">
        <ele>1180</ele>
        <time>2021-09-02T09:11:52Z</time>
      </trkpt>
      <trkpt lat="44.3983" lon="6.30479">
        <ele>1179</ele>
        <time>2021-09-02T09:11:53Z</time>
      </trkpt>
      <trkpt lat="44.39828" lon="6.30484">
        <ele>1178</ele>
        <time>2021-09-02T09:11:54Z</time>
      </trkpt>
      <trkpt lat="44.39818" lon="6.30482">
        <ele>1176.1999511719</ele>
        <time>2021-09-02T09:11:56Z</time>
      </trkpt>
      <trkpt lat="44.39809" lon="6.30467">
        <ele>1174.5999755859</ele>
        <time>2021-09-02T09:11:58Z</time>
      </trkpt>
      <trkpt lat="44.39804" lon="6.30458">
        <ele>1173.4000244141</ele>
        <time>2021-09-02T09:11:59Z</time>
      </trkpt>
      <trkpt lat="44.39793" lon="6.30442">
        <ele>1172.1999511719</ele>
        <time>2021-09-02T09:12:01Z</time>
      </trkpt>
      <trkpt lat="44.39786" lon="6.30434">
        <ele>1171.8000488281</ele>
        <time>2021-09-02T09:12:02Z</time>
      </trkpt>
      <trkpt lat="44.39779" lon="6.30426">
        <ele>1171.4000244141</ele>
        <time>2021-09-02T09:12:03Z</time>
      </trkpt>
      <trkpt lat="44.39771" lon="6.30418">
        <ele>1170.8000488281</ele>
        <time>2021-09-02T09:12:04Z</time>
      </trkpt>
      <trkpt lat="44.39753" lon="6.30402">
        <ele>1169.5999755859</ele>
        <time>2021-09-02T09:12:06Z</time>
      </trkpt>
      <trkpt lat="44.39734" lon="6.30384">
        <ele>1168.4000244141</ele>
        <time>2021-09-02T09:12:08Z</time>
      </trkpt>
      <trkpt lat="44.39715" lon="6.30367">
        <ele>1166.8000488281</ele>
        <time>2021-09-02T09:12:10Z</time>
      </trkpt>
      <trkpt lat="44.39704" lon="6.30361">
        <ele>1165.8000488281</ele>
        <time>2021-09-02T09:12:11Z</time>
      </trkpt>
      <trkpt lat="44.39693" lon="6.30355">
        <ele>1164.8000488281</ele>
        <time>2021-09-02T09:12:12Z</time>
      </trkpt>
      <trkpt lat="44.39681" lon="6.3035">
        <ele>1163.8000488281</ele>
        <time>2021-09-02T09:12:13Z</time>
      </trkpt>
      <trkpt lat="44.3967" lon="6.30344">
        <ele>1162.5999755859</ele>
        <time>2021-09-02T09:12:14Z</time>
      </trkpt>
      <trkpt lat="44.39646" lon="6.30331">
        <ele>1160.8000488281</ele>
        <time>2021-09-02T09:12:16Z</time>
      </trkpt>
      <trkpt lat="44.39636" lon="6.30323">
        <ele>1159.8000488281</ele>
        <time>2021-09-02T09:12:17Z</time>
      </trkpt>
      <trkpt lat="44.39626" lon="6.30313">
        <ele>1158.8000488281</ele>
        <time>2021-09-02T09:12:18Z</time>
      </trkpt>
      <trkpt lat="44.39617" lon="6.30304">
        <ele>1157.8000488281</ele>
        <time>2021-09-02T09:12:19Z</time>
      </trkpt>
      <trkpt lat="44.39608" lon="6.30294">
        <ele>1156.5999755859</ele>
        <time>2021-09-02T09:12:20Z</time>
      </trkpt>
      <trkpt lat="44.39598" lon="6.30285">
        <ele>1155.5999755859</ele>
        <time>2021-09-02T09:12:21Z</time>
      </trkpt>
      <trkpt lat="44.39588" lon="6.30279">
        <ele>1154.4000244141</ele>
        <time>2021-09-02T09:12:22Z</time>
      </trkpt>
      <trkpt lat="44.39578" lon="6.30272">
        <ele>1152</ele>
        <time>2021-09-02T09:12:23Z</time>
      </trkpt>
      <trkpt lat="44.39568" lon="6.30264">
        <ele>1150.8000488281</ele>
        <time>2021-09-02T09:12:24Z</time>
      </trkpt>
      <trkpt lat="44.3956" lon="6.30254">
        <ele>1149.5999755859</ele>
        <time>2021-09-02T09:12:25Z</time>
      </trkpt>
      <trkpt lat="44.39551" lon="6.30243">
        <ele>1148.5999755859</ele>
        <time>2021-09-02T09:12:26Z</time>
      </trkpt>
      <trkpt lat="44.39542" lon="6.30232">
        <ele>1147.4000244141</ele>
        <time>2021-09-02T09:12:27Z</time>
      </trkpt>
      <trkpt lat="44.39533" lon="6.30221">
        <ele>1146.4000244141</ele>
        <time>2021-09-02T09:12:28Z</time>
      </trkpt>
      <trkpt lat="44.39524" lon="6.3021">
        <ele>1145.4000244141</ele>
        <time>2021-09-02T09:12:29Z</time>
      </trkpt>
      <trkpt lat="44.39516" lon="6.30199">
        <ele>1144.4000244141</ele>
        <time>2021-09-02T09:12:30Z</time>
      </trkpt>
      <trkpt lat="44.39507" lon="6.3019">
        <ele>1143.4000244141</ele>
        <time>2021-09-02T09:12:31Z</time>
      </trkpt>
      <trkpt lat="44.39498" lon="6.30181">
        <ele>1142.1999511719</ele>
        <time>2021-09-02T09:12:32Z</time>
      </trkpt>
      <trkpt lat="44.3949" lon="6.30174">
        <ele>1141</ele>
        <time>2021-09-02T09:12:33Z</time>
      </trkpt>
      <trkpt lat="44.39481" lon="6.30166">
        <ele>1139.8000488281</ele>
        <time>2021-09-02T09:12:34Z</time>
      </trkpt>
      <trkpt lat="44.39472" lon="6.30157">
        <ele>1138.5999755859</ele>
        <time>2021-09-02T09:12:35Z</time>
      </trkpt>
      <trkpt lat="44.39463" lon="6.30148">
        <ele>1137.4000244141</ele>
        <time>2021-09-02T09:12:36Z</time>
      </trkpt>
      <trkpt lat="44.39455" lon="6.30137">
        <ele>1136.1999511719</ele>
        <time>2021-09-02T09:12:37Z</time>
      </trkpt>
      <trkpt lat="44.39446" lon="6.30125">
        <ele>1135.1999511719</ele>
        <time>2021-09-02T09:12:38Z</time>
      </trkpt>
      <trkpt lat="44.3943" lon="6.30105">
        <ele>1133.1999511719</ele>
        <time>2021-09-02T09:12:40Z</time>
      </trkpt>
      <trkpt lat="44.39422" lon="6.30094">
        <ele>1132.4000244141</ele>
        <time>2021-09-02T09:12:41Z</time>
      </trkpt>
      <trkpt lat="44.39416" lon="6.30082">
        <ele>1131.4000244141</ele>
        <time>2021-09-02T09:12:42Z</time>
      </trkpt>
      <trkpt lat="44.3941" lon="6.3007">
        <ele>1130.1999511719</ele>
        <time>2021-09-02T09:12:43Z</time>
      </trkpt>
      <trkpt lat="44.39403" lon="6.30059">
        <ele>1129.1999511719</ele>
        <time>2021-09-02T09:12:44Z</time>
      </trkpt>
      <trkpt lat="44.39396" lon="6.3005">
        <ele>1128.1999511719</ele>
        <time>2021-09-02T09:12:45Z</time>
      </trkpt>
      <trkpt lat="44.39388" lon="6.30042">
        <ele>1127</ele>
        <time>2021-09-02T09:12:46Z</time>
      </trkpt>
      <trkpt lat="44.39379" lon="6.30036">
        <ele>1125</ele>
        <time>2021-09-02T09:12:47Z</time>
      </trkpt>
      <trkpt lat="44.3937" lon="6.30032">
        <ele>1124</ele>
        <time>2021-09-02T09:12:48Z</time>
      </trkpt>
      <trkpt lat="44.39362" lon="6.30029">
        <ele>1122.8000488281</ele>
        <time>2021-09-02T09:12:49Z</time>
      </trkpt>
      <trkpt lat="44.39355" lon="6.30027">
        <ele>1121.8000488281</ele>
        <time>2021-09-02T09:12:50Z</time>
      </trkpt>
      <trkpt lat="44.39347" lon="6.30027">
        <ele>1120.8000488281</ele>
        <time>2021-09-02T09:12:51Z</time>
      </trkpt>
      <trkpt lat="44.3934" lon="6.30027">
        <ele>1119.8000488281</ele>
        <time>2021-09-02T09:12:52Z</time>
      </trkpt>
      <trkpt lat="44.39333" lon="6.30025">
        <ele>1118.8000488281</ele>
        <time>2021-09-02T09:12:53Z</time>
      </trkpt>
      <trkpt lat="44.3932" lon="6.30019">
        <ele>1117.4000244141</ele>
        <time>2021-09-02T09:12:55Z</time>
      </trkpt>
      <trkpt lat="44.39307" lon="6.30014">
        <ele>1116.1999511719</ele>
        <time>2021-09-02T09:12:57Z</time>
      </trkpt>
      <trkpt lat="44.39294" lon="6.30016">
        <ele>1115.5999755859</ele>
        <time>2021-09-02T09:12:59Z</time>
      </trkpt>
      <trkpt lat="44.39281" lon="6.3002">
        <ele>1115</ele>
        <time>2021-09-02T09:13:01Z</time>
      </trkpt>
      <trkpt lat="44.39275" lon="6.30024">
        <ele>1114.8000488281</ele>
        <time>2021-09-02T09:13:02Z</time>
      </trkpt>
      <trkpt lat="44.39271" lon="6.3003">
        <ele>1114.4000244141</ele>
        <time>2021-09-02T09:13:03Z</time>
      </trkpt>
      <trkpt lat="44.39269" lon="6.30039">
        <ele>1113.8000488281</ele>
        <time>2021-09-02T09:13:04Z</time>
      </trkpt>
      <trkpt lat="44.39269" lon="6.30048">
        <ele>1113.1999511719</ele>
        <time>2021-09-02T09:13:05Z</time>
      </trkpt>
      <trkpt lat="44.39271" lon="6.30058">
        <ele>1112.5999755859</ele>
        <time>2021-09-02T09:13:06Z</time>
      </trkpt>
      <trkpt lat="44.39277" lon="6.30075">
        <ele>1111.4000244141</ele>
        <time>2021-09-02T09:13:08Z</time>
      </trkpt>
      <trkpt lat="44.39283" lon="6.30093">
        <ele>1110</ele>
        <time>2021-09-02T09:13:10Z</time>
      </trkpt>
      <trkpt lat="44.39286" lon="6.30103">
        <ele>1108.4000244141</ele>
        <time>2021-09-02T09:13:11Z</time>
      </trkpt>
      <trkpt lat="44.39294" lon="6.30123">
        <ele>1107</ele>
        <time>2021-09-02T09:13:13Z</time>
      </trkpt>
      <trkpt lat="44.39299" lon="6.30142">
        <ele>1105.8000488281</ele>
        <time>2021-09-02T09:13:15Z</time>
      </trkpt>
      <trkpt lat="44.393" lon="6.30152">
        <ele>1105</ele>
        <time>2021-09-02T09:13:16Z</time>
      </trkpt>
      <trkpt lat="44.39298" lon="6.30161">
        <ele>1104.1999511719</ele>
        <time>2021-09-02T09:13:17Z</time>
      </trkpt>
      <trkpt lat="44.39294" lon="6.30169">
        <ele>1103.4000244141</ele>
        <time>2021-09-02T09:13:18Z</time>
      </trkpt>
      <trkpt lat="44.39289" lon="6.30176">
        <ele>1102.5999755859</ele>
        <time>2021-09-02T09:13:19Z</time>
      </trkpt>
      <trkpt lat="44.39281" lon="6.30181">
        <ele>1101.8000488281</ele>
        <time>2021-09-02T09:13:20Z</time>
      </trkpt>
      <trkpt lat="44.39273" lon="6.30183">
        <ele>1101.1999511719</ele>
        <time>2021-09-02T09:13:21Z</time>
      </trkpt>
      <trkpt lat="44.39256" lon="6.30178">
        <ele>1099.5999755859</ele>
        <time>2021-09-02T09:13:23Z</time>
      </trkpt>
      <trkpt lat="44.39247" lon="6.30174">
        <ele>1099</ele>
        <time>2021-09-02T09:13:24Z</time>
      </trkpt>
      <trkpt lat="44.39239" lon="6.30171">
        <ele>1098.4000244141</ele>
        <time>2021-09-02T09:13:25Z</time>
      </trkpt>
      <trkpt lat="44.39231" lon="6.30169">
        <ele>1097.5999755859</ele>
        <time>2021-09-02T09:13:26Z</time>
      </trkpt>
      <trkpt lat="44.39223" lon="6.3017">
        <ele>1097</ele>
        <time>2021-09-02T09:13:27Z</time>
      </trkpt>
      <trkpt lat="44.39208" lon="6.30183">
        <ele>1095.8000488281</ele>
        <time>2021-09-02T09:13:29Z</time>
      </trkpt>
      <trkpt lat="44.39202" lon="6.30193">
        <ele>1095.1999511719</ele>
        <time>2021-09-02T09:13:30Z</time>
      </trkpt>
      <trkpt lat="44.39196" lon="6.30203">
        <ele>1094.4000244141</ele>
        <time>2021-09-02T09:13:31Z</time>
      </trkpt>
      <trkpt lat="44.39182" lon="6.30224">
        <ele>1092.8000488281</ele>
        <time>2021-09-02T09:13:33Z</time>
      </trkpt>
      <trkpt lat="44.39175" lon="6.30234">
        <ele>1092</ele>
        <time>2021-09-02T09:13:34Z</time>
      </trkpt>
      <trkpt lat="44.39167" lon="6.30244">
        <ele>1090.4000244141</ele>
        <time>2021-09-02T09:13:35Z</time>
      </trkpt>
      <trkpt lat="44.3915" lon="6.30262">
        <ele>1088.5999755859</ele>
        <time>2021-09-02T09:13:37Z</time>
      </trkpt>
      <trkpt lat="44.39141" lon="6.3027">
        <ele>1087.8000488281</ele>
        <time>2021-09-02T09:13:38Z</time>
      </trkpt>
      <trkpt lat="44.39132" lon="6.30278">
        <ele>1087</ele>
        <time>2021-09-02T09:13:39Z</time>
      </trkpt>
      <trkpt lat="44.39114" lon="6.30296">
        <ele>1085.5999755859</ele>
        <time>2021-09-02T09:13:41Z</time>
      </trkpt>
      <trkpt lat="44.39096" lon="6.30312">
        <ele>1084.1999511719</ele>
        <time>2021-09-02T09:13:43Z</time>
      </trkpt>
      <trkpt lat="44.39087" lon="6.30321">
        <ele>1083.4000244141</ele>
        <time>2021-09-02T09:13:44Z</time>
      </trkpt>
      <trkpt lat="44.39079" lon="6.30329">
        <ele>1083</ele>
        <time>2021-09-02T09:13:45Z</time>
      </trkpt>
      <trkpt lat="44.3906" lon="6.30343">
        <ele>1081.5999755859</ele>
        <time>2021-09-02T09:13:47Z</time>
      </trkpt>
      <trkpt lat="44.39051" lon="6.3035">
        <ele>1081</ele>
        <time>2021-09-02T09:13:48Z</time>
      </trkpt>
      <trkpt lat="44.39041" lon="6.30355">
        <ele>1080.4000244141</ele>
        <time>2021-09-02T09:13:49Z</time>
      </trkpt>
      <trkpt lat="44.39022" lon="6.30365">
        <ele>1079.4000244141</ele>
        <time>2021-09-02T09:13:51Z</time>
      </trkpt>
      <trkpt lat="44.39003" lon="6.30375">
        <ele>1078.1999511719</ele>
        <time>2021-09-02T09:13:53Z</time>
      </trkpt>
      <trkpt lat="44.38994" lon="6.3038">
        <ele>1077.8000488281</ele>
        <time>2021-09-02T09:13:54Z</time>
      </trkpt>
      <trkpt lat="44.38985" lon="6.30386">
        <ele>1077.1999511719</ele>
        <time>2021-09-02T09:13:55Z</time>
      </trkpt>
      <trkpt lat="44.3896" lon="6.30406">
        <ele>1076</ele>
        <time>2021-09-02T09:13:58Z</time>
      </trkpt>
      <trkpt lat="44.38951" lon="6.3041">
        <ele>1075.1999511719</ele>
        <time>2021-09-02T09:13:59Z</time>
      </trkpt>
      <trkpt lat="44.38942" lon="6.30411">
        <ele>1074.8000488281</ele>
        <time>2021-09-02T09:14:00Z</time>
      </trkpt>
      <trkpt lat="44.38933" lon="6.30408">
        <ele>1074.4000244141</ele>
        <time>2021-09-02T09:14:01Z</time>
      </trkpt>
      <trkpt lat="44.38916" lon="6.30396">
        <ele>1073.5999755859</ele>
        <time>2021-09-02T09:14:03Z</time>
      </trkpt>
      <trkpt lat="44.38908" lon="6.30389">
        <ele>1073.1999511719</ele>
        <time>2021-09-02T09:14:04Z</time>
      </trkpt>
      <trkpt lat="44.38892" lon="6.30375">
        <ele>1072.4000244141</ele>
        <time>2021-09-02T09:14:06Z</time>
      </trkpt>
      <trkpt lat="44.38868" lon="6.30352">
        <ele>1071</ele>
        <time>2021-09-02T09:14:09Z</time>
      </trkpt>
      <trkpt lat="44.38845" lon="6.30331">
        <ele>1069.8000488281</ele>
        <time>2021-09-02T09:14:12Z</time>
      </trkpt>
      <trkpt lat="44.3883" lon="6.30317">
        <ele>1069</ele>
        <time>2021-09-02T09:14:14Z</time>
      </trkpt>
      <trkpt lat="44.38823" lon="6.3031">
        <ele>1068.5999755859</ele>
        <time>2021-09-02T09:14:15Z</time>
      </trkpt>
      <trkpt lat="44.38802" lon="6.3029">
        <ele>1067.5999755859</ele>
        <time>2021-09-02T09:14:18Z</time>
      </trkpt>
      <trkpt lat="44.38767" lon="6.30257">
        <ele>1066.1999511719</ele>
        <time>2021-09-02T09:14:23Z</time>
      </trkpt>
      <trkpt lat="44.38739" lon="6.30231">
        <ele>1065</ele>
        <time>2021-09-02T09:14:27Z</time>
      </trkpt>
      <trkpt lat="44.38724" lon="6.30218">
        <ele>1064.4000244141</ele>
        <time>2021-09-02T09:14:29Z</time>
      </trkpt>
      <trkpt lat="44.38717" lon="6.30211">
        <ele>1064.1999511719</ele>
        <time>2021-09-02T09:14:30Z</time>
      </trkpt>
      <trkpt lat="44.38709" lon="6.30206">
        <ele>1063.8000488281</ele>
        <time>2021-09-02T09:14:31Z</time>
      </trkpt>
      <trkpt lat="44.38692" lon="6.30198">
        <ele>1063</ele>
        <time>2021-09-02T09:14:33Z</time>
      </trkpt>
      <trkpt lat="44.38683" lon="6.30195">
        <ele>1062.4000244141</ele>
        <time>2021-09-02T09:14:34Z</time>
      </trkpt>
      <trkpt lat="44.38662" lon="6.30188">
        <ele>1061</ele>
        <time>2021-09-02T09:14:37Z</time>
      </trkpt>
      <trkpt lat="44.38649" lon="6.30186">
        <ele>1059.8000488281</ele>
        <time>2021-09-02T09:14:39Z</time>
      </trkpt>
      <trkpt lat="44.38641" lon="6.30186">
        <ele>1058.8000488281</ele>
        <time>2021-09-02T09:14:41Z</time>
      </trkpt>
      <trkpt lat="44.38633" lon="6.30196">
        <ele>1057.5999755859</ele>
        <time>2021-09-02T09:14:44Z</time>
      </trkpt>
      <trkpt lat="44.38628" lon="6.30208">
        <ele>1055.8000488281</ele>
        <time>2021-09-02T09:14:47Z</time>
      </trkpt>
      <trkpt lat="44.38627" lon="6.30213">
        <ele>1055.1999511719</ele>
        <time>2021-09-02T09:14:48Z</time>
      </trkpt>
      <trkpt lat="44.38626" lon="6.30216">
        <ele>1054.5999755859</ele>
        <time>2021-09-02T09:14:49Z</time>
      </trkpt>
      <trkpt lat="44.38626" lon="6.3022">
        <ele>1052.4000244141</ele>
        <time>2021-09-02T09:15:02Z</time>
      </trkpt>
      <trkpt lat="44.38626" lon="6.30226">
        <ele>1052.4000244141</ele>
        <time>2021-09-02T09:15:04Z</time>
      </trkpt>
      <trkpt lat="44.38622" lon="6.30246">
        <ele>1052.4000244141</ele>
        <time>2021-09-02T09:15:08Z</time>
      </trkpt>
      <trkpt lat="44.3862" lon="6.30251">
        <ele>1052.4000244141</ele>
        <time>2021-09-02T09:15:09Z</time>
      </trkpt>
      <trkpt lat="44.38603" lon="6.30286">
        <ele>1051.5999755859</ele>
        <time>2021-09-02T09:15:15Z</time>
      </trkpt>
      <trkpt lat="44.38596" lon="6.30297">
        <ele>1051.4000244141</ele>
        <time>2021-09-02T09:15:17Z</time>
      </trkpt>
      <trkpt lat="44.38583" lon="6.30316">
        <ele>1051</ele>
        <time>2021-09-02T09:15:21Z</time>
      </trkpt>
      <trkpt lat="44.3858" lon="6.30321">
        <ele>1050.8000488281</ele>
        <time>2021-09-02T09:15:22Z</time>
      </trkpt>
      <trkpt lat="44.38564" lon="6.30343">
        <ele>1051.1999511719</ele>
        <time>2021-09-02T09:15:27Z</time>
      </trkpt>
      <trkpt lat="44.3855" lon="6.30363">
        <ele>1051.8000488281</ele>
        <time>2021-09-02T09:15:33Z</time>
      </trkpt>
      <trkpt lat="44.38544" lon="6.30373">
        <ele>1052.4000244141</ele>
        <time>2021-09-02T09:15:36Z</time>
      </trkpt>
      <trkpt lat="44.38535" lon="6.30388">
        <ele>1053.1999511719</ele>
        <time>2021-09-02T09:15:41Z</time>
      </trkpt>
      <trkpt lat="44.3853" lon="6.30398">
        <ele>1053.5999755859</ele>
        <time>2021-09-02T09:15:44Z</time>
      </trkpt>
      <trkpt lat="44.3852" lon="6.30415">
        <ele>1054.4000244141</ele>
        <time>2021-09-02T09:15:50Z</time>
      </trkpt>
      <trkpt lat="44.38518" lon="6.30418">
        <ele>1054.5999755859</ele>
        <time>2021-09-02T09:15:51Z</time>
      </trkpt>
      <trkpt lat="44.38509" lon="6.30437">
        <ele>1055.4000244141</ele>
        <time>2021-09-02T09:15:57Z</time>
      </trkpt>
      <trkpt lat="44.38505" lon="6.30442">
        <ele>1056</ele>
        <time>2021-09-02T09:15:59Z</time>
      </trkpt>
      <trkpt lat="44.38496" lon="6.3046">
        <ele>1056.8000488281</ele>
        <time>2021-09-02T09:16:05Z</time>
      </trkpt>
      <trkpt lat="44.38493" lon="6.30464">
        <ele>1057</ele>
        <time>2021-09-02T09:16:07Z</time>
      </trkpt>
      <trkpt lat="44.38486" lon="6.30474">
        <ele>1057.5999755859</ele>
        <time>2021-09-02T09:16:11Z</time>
      </trkpt>
      <trkpt lat="44.3848" lon="6.30484">
        <ele>1058.1999511719</ele>
        <time>2021-09-02T09:16:15Z</time>
      </trkpt>
      <trkpt lat="44.38476" lon="6.30494">
        <ele>1058.5999755859</ele>
        <time>2021-09-02T09:16:19Z</time>
      </trkpt>
      <trkpt lat="44.38469" lon="6.30505">
        <ele>1059.1999511719</ele>
        <time>2021-09-02T09:16:23Z</time>
      </trkpt>
      <trkpt lat="44.38462" lon="6.30516">
        <ele>1059.8000488281</ele>
        <time>2021-09-02T09:16:27Z</time>
      </trkpt>
      <trkpt lat="44.38454" lon="6.3053">
        <ele>1060.4000244141</ele>
        <time>2021-09-02T09:16:32Z</time>
      </trkpt>
      <trkpt lat="44.38446" lon="6.30544">
        <ele>1060.8000488281</ele>
        <time>2021-09-02T09:16:37Z</time>
      </trkpt>
      <trkpt lat="44.38438" lon="6.3056">
        <ele>1061.4000244141</ele>
        <time>2021-09-02T09:16:42Z</time>
      </trkpt>
      <trkpt lat="44.38434" lon="6.30565">
        <ele>1061.5999755859</ele>
        <time>2021-09-02T09:16:44Z</time>
      </trkpt>
      <trkpt lat="44.38419" lon="6.30591">
        <ele>1062.4000244141</ele>
        <time>2021-09-02T09:16:52Z</time>
      </trkpt>
      <trkpt lat="44.38417" lon="6.30595">
        <ele>1062.5999755859</ele>
        <time>2021-09-02T09:16:53Z</time>
      </trkpt>
      <trkpt lat="44.384" lon="6.30622">
        <ele>1063.4000244141</ele>
        <time>2021-09-02T09:17:01Z</time>
      </trkpt>
      <trkpt lat="44.38397" lon="6.30625">
        <ele>1063.5999755859</ele>
        <time>2021-09-02T09:17:02Z</time>
      </trkpt>
      <trkpt lat="44.38381" lon="6.30654">
        <ele>1064.1999511719</ele>
        <time>2021-09-02T09:17:10Z</time>
      </trkpt>
      <trkpt lat="44.38377" lon="6.30662">
        <ele>1064.5999755859</ele>
        <time>2021-09-02T09:17:12Z</time>
      </trkpt>
      <trkpt lat="44.38362" lon="6.30685">
        <ele>1065.1999511719</ele>
        <time>2021-09-02T09:17:18Z</time>
      </trkpt>
      <trkpt lat="44.38356" lon="6.30697">
        <ele>1065.5999755859</ele>
        <time>2021-09-02T09:17:21Z</time>
      </trkpt>
      <trkpt lat="44.38341" lon="6.30719">
        <ele>1066</ele>
        <time>2021-09-02T09:17:27Z</time>
      </trkpt>
      <trkpt lat="44.3833" lon="6.30738">
        <ele>1066.5999755859</ele>
        <time>2021-09-02T09:17:32Z</time>
      </trkpt>
      <trkpt lat="44.38325" lon="6.30746">
        <ele>1067</ele>
        <time>2021-09-02T09:17:34Z</time>
      </trkpt>
      <trkpt lat="44.38317" lon="6.30758">
        <ele>1067.8000488281</ele>
        <time>2021-09-02T09:17:37Z</time>
      </trkpt>
      <trkpt lat="44.38305" lon="6.30778">
        <ele>1068.1999511719</ele>
        <time>2021-09-02T09:17:42Z</time>
      </trkpt>
      <trkpt lat="44.3829" lon="6.30802">
        <ele>1068.8000488281</ele>
        <time>2021-09-02T09:17:48Z</time>
      </trkpt>
      <trkpt lat="44.38285" lon="6.30811">
        <ele>1069</ele>
        <time>2021-09-02T09:17:50Z</time>
      </trkpt>
      <trkpt lat="44.38261" lon="6.30842">
        <ele>1069.8000488281</ele>
        <time>2021-09-02T09:17:58Z</time>
      </trkpt>
      <trkpt lat="44.38257" lon="6.30845">
        <ele>1069.8000488281</ele>
        <time>2021-09-02T09:17:59Z</time>
      </trkpt>
      <trkpt lat="44.38231" lon="6.30869">
        <ele>1070.4000244141</ele>
        <time>2021-09-02T09:18:06Z</time>
      </trkpt>
      <trkpt lat="44.38202" lon="6.3089">
        <ele>1070.8000488281</ele>
        <time>2021-09-02T09:18:13Z</time>
      </trkpt>
      <trkpt lat="44.38189" lon="6.309">
        <ele>1071</ele>
        <time>2021-09-02T09:18:16Z</time>
      </trkpt>
      <trkpt lat="44.38166" lon="6.30914">
        <ele>1071.1999511719</ele>
        <time>2021-09-02T09:18:21Z</time>
      </trkpt>
      <trkpt lat="44.38143" lon="6.30926">
        <ele>1071.4000244141</ele>
        <time>2021-09-02T09:18:26Z</time>
      </trkpt>
      <trkpt lat="44.38133" lon="6.3093">
        <ele>1071.4000244141</ele>
        <time>2021-09-02T09:18:28Z</time>
      </trkpt>
      <trkpt lat="44.38092" lon="6.3094">
        <ele>1071.5999755859</ele>
        <time>2021-09-02T09:18:36Z</time>
      </trkpt>
      <trkpt lat="44.38081" lon="6.30942">
        <ele>1071.5999755859</ele>
        <time>2021-09-02T09:18:38Z</time>
      </trkpt>
      <trkpt lat="44.38059" lon="6.30945">
        <ele>1071.8000488281</ele>
        <time>2021-09-02T09:18:42Z</time>
      </trkpt>
      <trkpt lat="44.38011" lon="6.30952">
        <ele>1071.5999755859</ele>
        <time>2021-09-02T09:18:50Z</time>
      </trkpt>
      <trkpt lat="44.37956" lon="6.3096">
        <ele>1071</ele>
        <time>2021-09-02T09:18:59Z</time>
      </trkpt>
      <trkpt lat="44.37901" lon="6.30967">
        <ele>1070.5999755859</ele>
        <time>2021-09-02T09:19:08Z</time>
      </trkpt>
      <trkpt lat="44.37894" lon="6.30968">
        <ele>1070.5999755859</ele>
        <time>2021-09-02T09:19:09Z</time>
      </trkpt>
      <trkpt lat="44.37888" lon="6.30969">
        <ele>1070.5999755859</ele>
        <time>2021-09-02T09:19:10Z</time>
      </trkpt>
      <trkpt lat="44.3785" lon="6.30973">
        <ele>1070.1999511719</ele>
        <time>2021-09-02T09:19:16Z</time>
      </trkpt>
      <trkpt lat="44.378" lon="6.30979">
        <ele>1070</ele>
        <time>2021-09-02T09:19:24Z</time>
      </trkpt>
      <trkpt lat="44.37759" lon="6.30985">
        <ele>1070</ele>
        <time>2021-09-02T09:19:31Z</time>
      </trkpt>
      <trkpt lat="44.37731" lon="6.30996">
        <ele>1069.4000244141</ele>
        <time>2021-09-02T09:19:36Z</time>
      </trkpt>
      <trkpt lat="44.3772" lon="6.31002">
        <ele>1069.4000244141</ele>
        <time>2021-09-02T09:19:38Z</time>
      </trkpt>
      <trkpt lat="44.37682" lon="6.31034">
        <ele>1069</ele>
        <time>2021-09-02T09:19:45Z</time>
      </trkpt>
      <trkpt lat="44.37677" lon="6.31039">
        <ele>1068.8000488281</ele>
        <time>2021-09-02T09:19:46Z</time>
      </trkpt>
      <trkpt lat="44.3764" lon="6.31077">
        <ele>1068</ele>
        <time>2021-09-02T09:19:53Z</time>
      </trkpt>
      <trkpt lat="44.37625" lon="6.31095">
        <ele>1067.8000488281</ele>
        <time>2021-09-02T09:19:56Z</time>
      </trkpt>
      <trkpt lat="44.37615" lon="6.31105">
        <ele>1067.5999755859</ele>
        <time>2021-09-02T09:19:58Z</time>
      </trkpt>
      <trkpt lat="44.37586" lon="6.31125">
        <ele>1066.8000488281</ele>
        <time>2021-09-02T09:20:03Z</time>
      </trkpt>
      <trkpt lat="44.37573" lon="6.31133">
        <ele>1066.5999755859</ele>
        <time>2021-09-02T09:20:05Z</time>
      </trkpt>
      <trkpt lat="44.3756" lon="6.31139">
        <ele>1066.1999511719</ele>
        <time>2021-09-02T09:20:07Z</time>
      </trkpt>
      <trkpt lat="44.37546" lon="6.31145">
        <ele>1065.8000488281</ele>
        <time>2021-09-02T09:20:09Z</time>
      </trkpt>
      <trkpt lat="44.3754" lon="6.31147">
        <ele>1065.8000488281</ele>
        <time>2021-09-02T09:20:10Z</time>
      </trkpt>
      <trkpt lat="44.37533" lon="6.31149">
        <ele>1065.5999755859</ele>
        <time>2021-09-02T09:20:11Z</time>
      </trkpt>
      <trkpt lat="44.37512" lon="6.31154">
        <ele>1065.1999511719</ele>
        <time>2021-09-02T09:20:14Z</time>
      </trkpt>
      <trkpt lat="44.37484" lon="6.31163">
        <ele>1064.4000244141</ele>
        <time>2021-09-02T09:20:18Z</time>
      </trkpt>
      <trkpt lat="44.37469" lon="6.31169">
        <ele>1064</ele>
        <time>2021-09-02T09:20:20Z</time>
      </trkpt>
      <trkpt lat="44.37447" lon="6.31179">
        <ele>1063.1999511719</ele>
        <time>2021-09-02T09:20:23Z</time>
      </trkpt>
      <trkpt lat="44.37424" lon="6.31189">
        <ele>1062.1999511719</ele>
        <time>2021-09-02T09:20:26Z</time>
      </trkpt>
      <trkpt lat="44.37416" lon="6.31193">
        <ele>1062</ele>
        <time>2021-09-02T09:20:27Z</time>
      </trkpt>
      <trkpt lat="44.3738" lon="6.31211">
        <ele>1061</ele>
        <time>2021-09-02T09:20:32Z</time>
      </trkpt>
      <trkpt lat="44.37373" lon="6.31214">
        <ele>1060.8000488281</ele>
        <time>2021-09-02T09:20:33Z</time>
      </trkpt>
      <trkpt lat="44.37333" lon="6.31233">
        <ele>1060.1999511719</ele>
        <time>2021-09-02T09:20:39Z</time>
      </trkpt>
      <trkpt lat="44.3732" lon="6.31239">
        <ele>1060</ele>
        <time>2021-09-02T09:20:41Z</time>
      </trkpt>
      <trkpt lat="44.37275" lon="6.31261">
        <ele>1059.8000488281</ele>
        <time>2021-09-02T09:20:48Z</time>
      </trkpt>
      <trkpt lat="44.37227" lon="6.31283">
        <ele>1059.8000488281</ele>
        <time>2021-09-02T09:20:56Z</time>
      </trkpt>
      <trkpt lat="44.37204" lon="6.31292">
        <ele>1060.5999755859</ele>
        <time>2021-09-02T09:21:01Z</time>
      </trkpt>
      <trkpt lat="44.37194" lon="6.31297">
        <ele>1061</ele>
        <time>2021-09-02T09:21:04Z</time>
      </trkpt>
      <trkpt lat="44.3719" lon="6.31298">
        <ele>1061.1999511719</ele>
        <time>2021-09-02T09:21:05Z</time>
      </trkpt>
      <trkpt lat="44.37184" lon="6.313">
        <ele>1061.4000244141</ele>
        <time>2021-09-02T09:21:07Z</time>
      </trkpt>
      <trkpt lat="44.37169" lon="6.31305">
        <ele>1062.1999511719</ele>
        <time>2021-09-02T09:21:12Z</time>
      </trkpt>
      <trkpt lat="44.37159" lon="6.31309">
        <ele>1062.8000488281</ele>
        <time>2021-09-02T09:21:16Z</time>
      </trkpt>
      <trkpt lat="44.37151" lon="6.31314">
        <ele>1063.1999511719</ele>
        <time>2021-09-02T09:21:20Z</time>
      </trkpt>
      <trkpt lat="44.37146" lon="6.31317">
        <ele>1064</ele>
        <time>2021-09-02T09:21:23Z</time>
      </trkpt>
      <trkpt lat="44.37142" lon="6.31319">
        <ele>1064.4000244141</ele>
        <time>2021-09-02T09:21:25Z</time>
      </trkpt>
      <trkpt lat="44.37135" lon="6.31324">
        <ele>1064.8000488281</ele>
        <time>2021-09-02T09:21:29Z</time>
      </trkpt>
      <trkpt lat="44.37125" lon="6.31331">
        <ele>1065.4000244141</ele>
        <time>2021-09-02T09:21:34Z</time>
      </trkpt>
      <trkpt lat="44.37119" lon="6.31335">
        <ele>1066</ele>
        <time>2021-09-02T09:21:37Z</time>
      </trkpt>
      <trkpt lat="44.37116" lon="6.31339">
        <ele>1066.4000244141</ele>
        <time>2021-09-02T09:21:39Z</time>
      </trkpt>
      <trkpt lat="44.37112" lon="6.31347">
        <ele>1067</ele>
        <time>2021-09-02T09:21:42Z</time>
      </trkpt>
      <trkpt lat="44.37105" lon="6.31365">
        <ele>1067.5999755859</ele>
        <time>2021-09-02T09:21:48Z</time>
      </trkpt>
      <trkpt lat="44.37098" lon="6.31382">
        <ele>1067.8000488281</ele>
        <time>2021-09-02T09:21:53Z</time>
      </trkpt>
      <trkpt lat="44.37089" lon="6.31404">
        <ele>1068.1999511719</ele>
        <time>2021-09-02T09:22:17Z</time>
      </trkpt>
      <trkpt lat="44.37087" lon="6.31411">
        <ele>1068.1999511719</ele>
        <time>2021-09-02T09:22:19Z</time>
      </trkpt>
      <trkpt lat="44.37082" lon="6.31419">
        <ele>1068.1999511719</ele>
        <time>2021-09-02T09:22:21Z</time>
      </trkpt>
      <trkpt lat="44.37074" lon="6.31432">
        <ele>1068</ele>
        <time>2021-09-02T09:22:24Z</time>
      </trkpt>
      <trkpt lat="44.37055" lon="6.31466">
        <ele>1067.5999755859</ele>
        <time>2021-09-02T09:22:31Z</time>
      </trkpt>
      <trkpt lat="44.37046" lon="6.31488">
        <ele>1067.4000244141</ele>
        <time>2021-09-02T09:22:35Z</time>
      </trkpt>
      <trkpt lat="44.37044" lon="6.31494">
        <ele>1067.4000244141</ele>
        <time>2021-09-02T09:22:36Z</time>
      </trkpt>
      <trkpt lat="44.37032" lon="6.31521">
        <ele>1067.4000244141</ele>
        <time>2021-09-02T09:22:41Z</time>
      </trkpt>
      <trkpt lat="44.3703" lon="6.31526">
        <ele>1067.4000244141</ele>
        <time>2021-09-02T09:22:42Z</time>
      </trkpt>
      <trkpt lat="44.37023" lon="6.31542">
        <ele>1067.5999755859</ele>
        <time>2021-09-02T09:22:46Z</time>
      </trkpt>
      <trkpt lat="44.37022" lon="6.31547">
        <ele>1067.8000488281</ele>
        <time>2021-09-02T09:22:47Z</time>
      </trkpt>
      <trkpt lat="44.37019" lon="6.31554">
        <ele>1067.8000488281</ele>
        <time>2021-09-02T09:23:18Z</time>
      </trkpt>
      <trkpt lat="44.37022" lon="6.31549">
        <ele>1067.8000488281</ele>
        <time>2021-09-02T09:23:21Z</time>
      </trkpt>
      <trkpt lat="44.37029" lon="6.31532">
        <ele>1068</ele>
        <time>2021-09-02T09:23:26Z</time>
      </trkpt>
      <trkpt lat="44.37042" lon="6.31499">
        <ele>1068</ele>
        <time>2021-09-02T09:23:32Z</time>
      </trkpt>
      <trkpt lat="44.37061" lon="6.31457">
        <ele>1068</ele>
        <time>2021-09-02T09:23:39Z</time>
      </trkpt>
      <trkpt lat="44.37076" lon="6.31432">
        <ele>1067.8000488281</ele>
        <time>2021-09-02T09:23:44Z</time>
      </trkpt>
      <trkpt lat="44.37079" lon="6.31426">
        <ele>1067.8000488281</ele>
        <time>2021-09-02T09:23:45Z</time>
      </trkpt>
      <trkpt lat="44.37082" lon="6.31421">
        <ele>1068</ele>
        <time>2021-09-02T09:23:46Z</time>
      </trkpt>
      <trkpt lat="44.37092" lon="6.31402">
        <ele>1068.1999511719</ele>
        <time>2021-09-02T09:23:50Z</time>
      </trkpt>
      <trkpt lat="44.37097" lon="6.31394">
        <ele>1068.1999511719</ele>
        <time>2021-09-02T09:23:52Z</time>
      </trkpt>
      <trkpt lat="44.371" lon="6.31385">
        <ele>1068.4000244141</ele>
        <time>2021-09-02T09:23:54Z</time>
      </trkpt>
      <trkpt lat="44.37103" lon="6.31374">
        <ele>1068.5999755859</ele>
        <time>2021-09-02T09:23:56Z</time>
      </trkpt>
      <trkpt lat="44.37115" lon="6.31344">
        <ele>1068.4000244141</ele>
        <time>2021-09-02T09:24:01Z</time>
      </trkpt>
      <trkpt lat="44.37118" lon="6.31338">
        <ele>1068.4000244141</ele>
        <time>2021-09-02T09:24:02Z</time>
      </trkpt>
      <trkpt lat="44.37132" lon="6.31325">
        <ele>1068.1999511719</ele>
        <time>2021-09-02T09:24:05Z</time>
      </trkpt>
      <trkpt lat="44.37143" lon="6.31319">
        <ele>1067.8000488281</ele>
        <time>2021-09-02T09:24:07Z</time>
      </trkpt>
      <trkpt lat="44.37155" lon="6.31313">
        <ele>1067.1999511719</ele>
        <time>2021-09-02T09:24:09Z</time>
      </trkpt>
      <trkpt lat="44.37162" lon="6.3131">
        <ele>1067</ele>
        <time>2021-09-02T09:24:10Z</time>
      </trkpt>
      <trkpt lat="44.37172" lon="6.31301">
        <ele>1066.1999511719</ele>
        <time>2021-09-02T09:24:12Z</time>
      </trkpt>
      <trkpt lat="44.37173" lon="6.31292">
        <ele>1065.8000488281</ele>
        <time>2021-09-02T09:24:13Z</time>
      </trkpt>
      <trkpt lat="44.37173" lon="6.31275">
        <ele>1064.8000488281</ele>
        <time>2021-09-02T09:24:15Z</time>
      </trkpt>
      <trkpt lat="44.3717" lon="6.31259">
        <ele>1064</ele>
        <time>2021-09-02T09:24:17Z</time>
      </trkpt>
      <trkpt lat="44.37168" lon="6.31252">
        <ele>1063.5999755859</ele>
        <time>2021-09-02T09:24:18Z</time>
      </trkpt>
      <trkpt lat="44.37159" lon="6.31241">
        <ele>1063.1999511719</ele>
        <time>2021-09-02T09:24:20Z</time>
      </trkpt>
      <trkpt lat="44.3715" lon="6.31234">
        <ele>1063</ele>
        <time>2021-09-02T09:24:22Z</time>
      </trkpt>
      <trkpt lat="44.37144" lon="6.31228">
        <ele>1062.8000488281</ele>
        <time>2021-09-02T09:24:24Z</time>
      </trkpt>
      <trkpt lat="44.37142" lon="6.31225">
        <ele>1062.4000244141</ele>
        <time>2021-09-02T09:24:25Z</time>
      </trkpt>
      <trkpt lat="44.37135" lon="6.31214">
        <ele>1062.1999511719</ele>
        <time>2021-09-02T09:24:29Z</time>
      </trkpt>
      <trkpt lat="44.3713" lon="6.31197">
        <ele>1062.4000244141</ele>
        <time>2021-09-02T09:24:36Z</time>
      </trkpt>
      <trkpt lat="44.37128" lon="6.3119">
        <ele>1062.4000244141</ele>
        <time>2021-09-02T09:24:39Z</time>
      </trkpt>
      <trkpt lat="44.37127" lon="6.31182">
        <ele>1062.5999755859</ele>
        <time>2021-09-02T09:24:42Z</time>
      </trkpt>
      <trkpt lat="44.37125" lon="6.31175">
        <ele>1063</ele>
        <time>2021-09-02T09:24:47Z</time>
      </trkpt>
      <trkpt lat="44.37125" lon="6.3117">
        <ele>1063.8000488281</ele>
        <time>2021-09-02T09:24:58Z</time>
      </trkpt>
      <trkpt lat="44.37124" lon="6.31173">
        <ele>1063.8000488281</ele>
        <time>2021-09-02T09:25:00Z</time>
      </trkpt>
      <trkpt lat="44.37125" lon="6.31176">
        <ele>1063.8000488281</ele>
        <time>2021-09-02T09:25:02Z</time>
      </trkpt>
      <trkpt lat="44.37126" lon="6.31181">
        <ele>1063.8000488281</ele>
        <time>2021-09-02T09:25:05Z</time>
      </trkpt>
      <trkpt lat="44.37128" lon="6.31188">
        <ele>1063</ele>
        <time>2021-09-02T09:25:16Z</time>
      </trkpt>
      <trkpt lat="44.3713" lon="6.31197">
        <ele>1062.4000244141</ele>
        <time>2021-09-02T09:26:12Z</time>
      </trkpt>
      <trkpt lat="44.37135" lon="6.31216">
        <ele>1062.1999511719</ele>
        <time>2021-09-02T09:26:17Z</time>
      </trkpt>
      <trkpt lat="44.37143" lon="6.31229">
        <ele>1062</ele>
        <time>2021-09-02T09:26:21Z</time>
      </trkpt>
      <trkpt lat="44.37145" lon="6.31231">
        <ele>1062</ele>
        <time>2021-09-02T09:26:22Z</time>
      </trkpt>
      <trkpt lat="44.37151" lon="6.31236">
        <ele>1062</ele>
        <time>2021-09-02T09:26:24Z</time>
      </trkpt>
      <trkpt lat="44.37162" lon="6.31249">
        <ele>1062</ele>
        <time>2021-09-02T09:26:28Z</time>
      </trkpt>
      <trkpt lat="44.37171" lon="6.3127">
        <ele>1061.8000488281</ele>
        <time>2021-09-02T09:26:33Z</time>
      </trkpt>
      <trkpt lat="44.3717" lon="6.31302">
        <ele>1061.8000488281</ele>
        <time>2021-09-02T09:26:40Z</time>
      </trkpt>
      <trkpt lat="44.3716" lon="6.31311">
        <ele>1062</ele>
        <time>2021-09-02T09:26:44Z</time>
      </trkpt>
      <trkpt lat="44.37146" lon="6.31317">
        <ele>1063</ele>
        <time>2021-09-02T09:26:50Z</time>
      </trkpt>
      <trkpt lat="44.3714" lon="6.31319">
        <ele>1063.4000244141</ele>
        <time>2021-09-02T09:26:53Z</time>
      </trkpt>
      <trkpt lat="44.37133" lon="6.31323">
        <ele>1064</ele>
        <time>2021-09-02T09:26:56Z</time>
      </trkpt>
      <trkpt lat="44.37125" lon="6.31329">
        <ele>1064.5999755859</ele>
        <time>2021-09-02T09:27:00Z</time>
      </trkpt>
      <trkpt lat="44.37114" lon="6.3134">
        <ele>1065.4000244141</ele>
        <time>2021-09-02T09:27:06Z</time>
      </trkpt>
      <trkpt lat="44.37112" lon="6.31342">
        <ele>1065.5999755859</ele>
        <time>2021-09-02T09:27:07Z</time>
      </trkpt>
      <trkpt lat="44.37105" lon="6.31361">
        <ele>1066.4000244141</ele>
        <time>2021-09-02T09:27:13Z</time>
      </trkpt>
      <trkpt lat="44.371" lon="6.31379">
        <ele>1066.5999755859</ele>
        <time>2021-09-02T09:27:18Z</time>
      </trkpt>
      <trkpt lat="44.37095" lon="6.31389">
        <ele>1067</ele>
        <time>2021-09-02T09:27:21Z</time>
      </trkpt>
      <trkpt lat="44.37084" lon="6.31416">
        <ele>1067.4000244141</ele>
        <time>2021-09-02T09:27:28Z</time>
      </trkpt>
      <trkpt lat="44.37081" lon="6.3142">
        <ele>1067.4000244141</ele>
        <time>2021-09-02T09:27:29Z</time>
      </trkpt>
      <trkpt lat="44.37067" lon="6.31446">
        <ele>1067</ele>
        <time>2021-09-02T09:27:34Z</time>
      </trkpt>
      <trkpt lat="44.37044" lon="6.31492">
        <ele>1066.5999755859</ele>
        <time>2021-09-02T09:27:42Z</time>
      </trkpt>
      <trkpt lat="44.37025" lon="6.31537">
        <ele>1066.5999755859</ele>
        <time>2021-09-02T09:27:50Z</time>
      </trkpt>
      <trkpt lat="44.37018" lon="6.3156">
        <ele>1066.8000488281</ele>
        <time>2021-09-02T09:27:54Z</time>
      </trkpt>
      <trkpt lat="44.37013" lon="6.31571">
        <ele>1067</ele>
        <time>2021-09-02T09:27:56Z</time>
      </trkpt>
      <trkpt lat="44.3701" lon="6.31576">
        <ele>1067</ele>
        <time>2021-09-02T09:27:57Z</time>
      </trkpt>
      <trkpt lat="44.36986" lon="6.31614">
        <ele>1066.8000488281</ele>
        <time>2021-09-02T09:28:04Z</time>
      </trkpt>
      <trkpt lat="44.36958" lon="6.31662">
        <ele>1067</ele>
        <time>2021-09-02T09:28:13Z</time>
      </trkpt>
      <trkpt lat="44.36942" lon="6.31705">
        <ele>1067.4000244141</ele>
        <time>2021-09-02T09:28:20Z</time>
      </trkpt>
      <trkpt lat="44.36922" lon="6.31747">
        <ele>1067.8000488281</ele>
        <time>2021-09-02T09:28:27Z</time>
      </trkpt>
      <trkpt lat="44.36912" lon="6.31762">
        <ele>1068</ele>
        <time>2021-09-02T09:28:30Z</time>
      </trkpt>
      <trkpt lat="44.36899" lon="6.31782">
        <ele>1068</ele>
        <time>2021-09-02T09:28:34Z</time>
      </trkpt>
      <trkpt lat="44.36888" lon="6.31796">
        <ele>1068</ele>
        <time>2021-09-02T09:28:37Z</time>
      </trkpt>
      <trkpt lat="44.36876" lon="6.31808">
        <ele>1068</ele>
        <time>2021-09-02T09:28:40Z</time>
      </trkpt>
      <trkpt lat="44.36846" lon="6.31829">
        <ele>1068.5999755859</ele>
        <time>2021-09-02T09:28:47Z</time>
      </trkpt>
      <trkpt lat="44.36827" lon="6.31838">
        <ele>1068.8000488281</ele>
        <time>2021-09-02T09:28:51Z</time>
      </trkpt>
      <trkpt lat="44.36814" lon="6.31845">
        <ele>1068.8000488281</ele>
        <time>2021-09-02T09:28:54Z</time>
      </trkpt>
      <trkpt lat="44.36809" lon="6.31848">
        <ele>1068.8000488281</ele>
        <time>2021-09-02T09:28:55Z</time>
      </trkpt>
      <trkpt lat="44.36788" lon="6.31868">
        <ele>1069</ele>
        <time>2021-09-02T09:29:00Z</time>
      </trkpt>
      <trkpt lat="44.36753" lon="6.319">
        <ele>1069.1999511719</ele>
        <time>2021-09-02T09:29:08Z</time>
      </trkpt>
      <trkpt lat="44.36714" lon="6.31935">
        <ele>1069.5999755859</ele>
        <time>2021-09-02T09:29:17Z</time>
      </trkpt>
      <trkpt lat="44.36706" lon="6.31942">
        <ele>1069.8000488281</ele>
        <time>2021-09-02T09:29:19Z</time>
      </trkpt>
      <trkpt lat="44.36682" lon="6.31964">
        <ele>1070.1999511719</ele>
        <time>2021-09-02T09:29:25Z</time>
      </trkpt>
      <trkpt lat="44.36659" lon="6.31995">
        <ele>1070.8000488281</ele>
        <time>2021-09-02T09:29:32Z</time>
      </trkpt>
      <trkpt lat="44.36655" lon="6.31999">
        <ele>1070.8000488281</ele>
        <time>2021-09-02T09:29:33Z</time>
      </trkpt>
      <trkpt lat="44.36636" lon="6.32032">
        <ele>1071.4000244141</ele>
        <time>2021-09-02T09:29:40Z</time>
      </trkpt>
      <trkpt lat="44.3663" lon="6.32042">
        <ele>1071.5999755859</ele>
        <time>2021-09-02T09:29:44Z</time>
      </trkpt>
      <trkpt lat="44.36629" lon="6.32046">
        <ele>1071.8000488281</ele>
        <time>2021-09-02T09:30:04Z</time>
      </trkpt>
      <trkpt lat="44.36627" lon="6.32053">
        <ele>1071.8000488281</ele>
        <time>2021-09-02T09:30:06Z</time>
      </trkpt>
      <trkpt lat="44.36617" lon="6.32077">
        <ele>1072</ele>
        <time>2021-09-02T09:30:11Z</time>
      </trkpt>
      <trkpt lat="44.36615" lon="6.32083">
        <ele>1072</ele>
        <time>2021-09-02T09:30:12Z</time>
      </trkpt>
      <trkpt lat="44.36603" lon="6.32114">
        <ele>1072.1999511719</ele>
        <time>2021-09-02T09:30:18Z</time>
      </trkpt>
      <trkpt lat="44.36585" lon="6.32154">
        <ele>1073</ele>
        <time>2021-09-02T09:30:26Z</time>
      </trkpt>
      <trkpt lat="44.36564" lon="6.32188">
        <ele>1073.5999755859</ele>
        <time>2021-09-02T09:30:33Z</time>
      </trkpt>
      <trkpt lat="44.36549" lon="6.32209">
        <ele>1074.1999511719</ele>
        <time>2021-09-02T09:30:38Z</time>
      </trkpt>
      <trkpt lat="44.36544" lon="6.32218">
        <ele>1074.5999755859</ele>
        <time>2021-09-02T09:30:40Z</time>
      </trkpt>
      <trkpt lat="44.36523" lon="6.32256">
        <ele>1075.1999511719</ele>
        <time>2021-09-02T09:30:48Z</time>
      </trkpt>
      <trkpt lat="44.36518" lon="6.32266">
        <ele>1075.1999511719</ele>
        <time>2021-09-02T09:30:50Z</time>
      </trkpt>
      <trkpt lat="44.36506" lon="6.32297">
        <ele>1076</ele>
        <time>2021-09-02T09:30:56Z</time>
      </trkpt>
      <trkpt lat="44.36496" lon="6.32319">
        <ele>1076.4000244141</ele>
        <time>2021-09-02T09:31:00Z</time>
      </trkpt>
      <trkpt lat="44.36486" lon="6.32341">
        <ele>1076.5999755859</ele>
        <time>2021-09-02T09:31:04Z</time>
      </trkpt>
      <trkpt lat="44.36468" lon="6.32378">
        <ele>1077.4000244141</ele>
        <time>2021-09-02T09:31:11Z</time>
      </trkpt>
      <trkpt lat="44.3646" lon="6.32394">
        <ele>1077.5999755859</ele>
        <time>2021-09-02T09:31:14Z</time>
      </trkpt>
      <trkpt lat="44.36437" lon="6.32438">
        <ele>1078.1999511719</ele>
        <time>2021-09-02T09:31:22Z</time>
      </trkpt>
      <trkpt lat="44.36432" lon="6.32449">
        <ele>1078.4000244141</ele>
        <time>2021-09-02T09:31:24Z</time>
      </trkpt>
      <trkpt lat="44.36414" lon="6.32488">
        <ele>1079.1999511719</ele>
        <time>2021-09-02T09:31:31Z</time>
      </trkpt>
      <trkpt lat="44.36406" lon="6.32504">
        <ele>1079.5999755859</ele>
        <time>2021-09-02T09:31:34Z</time>
      </trkpt>
      <trkpt lat="44.36398" lon="6.32519">
        <ele>1080</ele>
        <time>2021-09-02T09:31:37Z</time>
      </trkpt>
      <trkpt lat="44.36392" lon="6.3253">
        <ele>1080.1999511719</ele>
        <time>2021-09-02T09:31:39Z</time>
      </trkpt>
      <trkpt lat="44.36367" lon="6.32575">
        <ele>1080.5999755859</ele>
        <time>2021-09-02T09:31:48Z</time>
      </trkpt>
      <trkpt lat="44.36364" lon="6.32579">
        <ele>1080.5999755859</ele>
        <time>2021-09-02T09:31:49Z</time>
      </trkpt>
      <trkpt lat="44.36338" lon="6.32614">
        <ele>1081.1999511719</ele>
        <time>2021-09-02T09:31:57Z</time>
      </trkpt>
      <trkpt lat="44.36325" lon="6.32629">
        <ele>1081.5999755859</ele>
        <time>2021-09-02T09:32:01Z</time>
      </trkpt>
      <trkpt lat="44.36317" lon="6.3264">
        <ele>1082</ele>
        <time>2021-09-02T09:32:04Z</time>
      </trkpt>
      <trkpt lat="44.36307" lon="6.32653">
        <ele>1082.8000488281</ele>
        <time>2021-09-02T09:32:08Z</time>
      </trkpt>
      <trkpt lat="44.36299" lon="6.32667">
        <ele>1083.4000244141</ele>
        <time>2021-09-02T09:32:12Z</time>
      </trkpt>
      <trkpt lat="44.36295" lon="6.32673">
        <ele>1083.8000488281</ele>
        <time>2021-09-02T09:32:14Z</time>
      </trkpt>
      <trkpt lat="44.36284" lon="6.32693">
        <ele>1084.8000488281</ele>
        <time>2021-09-02T09:32:20Z</time>
      </trkpt>
      <trkpt lat="44.36271" lon="6.32717">
        <ele>1085.8000488281</ele>
        <time>2021-09-02T09:32:27Z</time>
      </trkpt>
      <trkpt lat="44.36267" lon="6.32724">
        <ele>1086.1999511719</ele>
        <time>2021-09-02T09:32:29Z</time>
      </trkpt>
      <trkpt lat="44.36252" lon="6.32751">
        <ele>1087</ele>
        <time>2021-09-02T09:32:37Z</time>
      </trkpt>
      <trkpt lat="44.3625" lon="6.32754">
        <ele>1087</ele>
        <time>2021-09-02T09:32:38Z</time>
      </trkpt>
      <trkpt lat="44.36236" lon="6.32776">
        <ele>1088</ele>
        <time>2021-09-02T09:32:45Z</time>
      </trkpt>
      <trkpt lat="44.36234" lon="6.3278">
        <ele>1088</ele>
        <time>2021-09-02T09:32:46Z</time>
      </trkpt>
      <trkpt lat="44.36222" lon="6.32801">
        <ele>1089</ele>
        <time>2021-09-02T09:32:52Z</time>
      </trkpt>
      <trkpt lat="44.36218" lon="6.32807">
        <ele>1089.4000244141</ele>
        <time>2021-09-02T09:32:54Z</time>
      </trkpt>
      <trkpt lat="44.36208" lon="6.32823">
        <ele>1090</ele>
        <time>2021-09-02T09:32:59Z</time>
      </trkpt>
      <trkpt lat="44.36202" lon="6.32833">
        <ele>1090.4000244141</ele>
        <time>2021-09-02T09:33:02Z</time>
      </trkpt>
      <trkpt lat="44.36192" lon="6.3285">
        <ele>1091</ele>
        <time>2021-09-02T09:33:07Z</time>
      </trkpt>
      <trkpt lat="44.36184" lon="6.32864">
        <ele>1091.5999755859</ele>
        <time>2021-09-02T09:33:11Z</time>
      </trkpt>
      <trkpt lat="44.36177" lon="6.32873">
        <ele>1092.1999511719</ele>
        <time>2021-09-02T09:33:14Z</time>
      </trkpt>
      <trkpt lat="44.36165" lon="6.32893">
        <ele>1092.8000488281</ele>
        <time>2021-09-02T09:33:20Z</time>
      </trkpt>
      <trkpt lat="44.36158" lon="6.32903">
        <ele>1093.1999511719</ele>
        <time>2021-09-02T09:33:23Z</time>
      </trkpt>
      <trkpt lat="44.36146" lon="6.3292">
        <ele>1093.5999755859</ele>
        <time>2021-09-02T09:33:28Z</time>
      </trkpt>
      <trkpt lat="44.36135" lon="6.32936">
        <ele>1094.1999511719</ele>
        <time>2021-09-02T09:33:33Z</time>
      </trkpt>
      <trkpt lat="44.36124" lon="6.32952">
        <ele>1094.8000488281</ele>
        <time>2021-09-02T09:33:38Z</time>
      </trkpt>
      <trkpt lat="44.36113" lon="6.32969">
        <ele>1095.1999511719</ele>
        <time>2021-09-02T09:33:43Z</time>
      </trkpt>
      <trkpt lat="44.36104" lon="6.32983">
        <ele>1095.5999755859</ele>
        <time>2021-09-02T09:33:47Z</time>
      </trkpt>
      <trkpt lat="44.36093" lon="6.32999">
        <ele>1096</ele>
        <time>2021-09-02T09:33:52Z</time>
      </trkpt>
      <trkpt lat="44.36088" lon="6.33006">
        <ele>1096.1999511719</ele>
        <time>2021-09-02T09:33:54Z</time>
      </trkpt>
      <trkpt lat="44.3608" lon="6.33015">
        <ele>1096.4000244141</ele>
        <time>2021-09-02T09:33:57Z</time>
      </trkpt>
      <trkpt lat="44.3606" lon="6.33032">
        <ele>1097.1999511719</ele>
        <time>2021-09-02T09:34:04Z</time>
      </trkpt>
      <trkpt lat="44.36054" lon="6.33035">
        <ele>1097.4000244141</ele>
        <time>2021-09-02T09:34:06Z</time>
      </trkpt>
      <trkpt lat="44.36033" lon="6.33043">
        <ele>1098.1999511719</ele>
        <time>2021-09-02T09:34:12Z</time>
      </trkpt>
      <trkpt lat="44.36027" lon="6.33044">
        <ele>1098.4000244141</ele>
        <time>2021-09-02T09:34:14Z</time>
      </trkpt>
      <trkpt lat="44.36006" lon="6.33051">
        <ele>1099.1999511719</ele>
        <time>2021-09-02T09:34:20Z</time>
      </trkpt>
      <trkpt lat="44.35985" lon="6.33056">
        <ele>1099.4000244141</ele>
        <time>2021-09-02T09:34:26Z</time>
      </trkpt>
      <trkpt lat="44.3597" lon="6.33061">
        <ele>1099.8000488281</ele>
        <time>2021-09-02T09:34:30Z</time>
      </trkpt>
      <trkpt lat="44.35946" lon="6.33074">
        <ele>1100.5999755859</ele>
        <time>2021-09-02T09:34:37Z</time>
      </trkpt>
      <trkpt lat="44.35943" lon="6.33077">
        <ele>1100.5999755859</ele>
        <time>2021-09-02T09:34:38Z</time>
      </trkpt>
      <trkpt lat="44.3592" lon="6.33102">
        <ele>1101.5999755859</ele>
        <time>2021-09-02T09:34:46Z</time>
      </trkpt>
      <trkpt lat="44.35901" lon="6.33135">
        <ele>1102.5999755859</ele>
        <time>2021-09-02T09:34:54Z</time>
      </trkpt>
      <trkpt lat="44.35882" lon="6.33166">
        <ele>1103.8000488281</ele>
        <time>2021-09-02T09:35:02Z</time>
      </trkpt>
      <trkpt lat="44.3588" lon="6.3317">
        <ele>1103.8000488281</ele>
        <time>2021-09-02T09:35:03Z</time>
      </trkpt>
      <trkpt lat="44.3586" lon="6.33204">
        <ele>1104.8000488281</ele>
        <time>2021-09-02T09:35:11Z</time>
      </trkpt>
      <trkpt lat="44.35858" lon="6.33208">
        <ele>1105</ele>
        <time>2021-09-02T09:35:12Z</time>
      </trkpt>
      <trkpt lat="44.35841" lon="6.33235">
        <ele>1106</ele>
        <time>2021-09-02T09:35:19Z</time>
      </trkpt>
      <trkpt lat="44.35835" lon="6.33246">
        <ele>1106.4000244141</ele>
        <time>2021-09-02T09:35:22Z</time>
      </trkpt>
      <trkpt lat="44.35821" lon="6.33269">
        <ele>1107</ele>
        <time>2021-09-02T09:35:28Z</time>
      </trkpt>
      <trkpt lat="44.35811" lon="6.33284">
        <ele>1107.4000244141</ele>
        <time>2021-09-02T09:35:32Z</time>
      </trkpt>
      <trkpt lat="44.358" lon="6.33304">
        <ele>1108.1999511719</ele>
        <time>2021-09-02T09:35:37Z</time>
      </trkpt>
      <trkpt lat="44.35788" lon="6.33324">
        <ele>1108.8000488281</ele>
        <time>2021-09-02T09:35:42Z</time>
      </trkpt>
      <trkpt lat="44.35782" lon="6.33336">
        <ele>1109.1999511719</ele>
        <time>2021-09-02T09:35:45Z</time>
      </trkpt>
      <trkpt lat="44.35766" lon="6.33366">
        <ele>1110.1999511719</ele>
        <time>2021-09-02T09:35:53Z</time>
      </trkpt>
      <trkpt lat="44.35754" lon="6.33393">
        <ele>1111.1999511719</ele>
        <time>2021-09-02T09:36:00Z</time>
      </trkpt>
      <trkpt lat="44.35752" lon="6.33397">
        <ele>1111.1999511719</ele>
        <time>2021-09-02T09:36:01Z</time>
      </trkpt>
      <trkpt lat="44.35743" lon="6.3342">
        <ele>1112.1999511719</ele>
        <time>2021-09-02T09:36:07Z</time>
      </trkpt>
      <trkpt lat="44.35741" lon="6.33423">
        <ele>1112.4000244141</ele>
        <time>2021-09-02T09:36:08Z</time>
      </trkpt>
      <trkpt lat="44.35731" lon="6.33449">
        <ele>1113.4000244141</ele>
        <time>2021-09-02T09:36:15Z</time>
      </trkpt>
      <trkpt lat="44.35729" lon="6.33456">
        <ele>1113.8000488281</ele>
        <time>2021-09-02T09:36:17Z</time>
      </trkpt>
      <trkpt lat="44.35722" lon="6.33474">
        <ele>1114.5999755859</ele>
        <time>2021-09-02T09:36:22Z</time>
      </trkpt>
      <trkpt lat="44.35715" lon="6.33492">
        <ele>1115.5999755859</ele>
        <time>2021-09-02T09:36:27Z</time>
      </trkpt>
      <trkpt lat="44.35714" lon="6.33495">
        <ele>1115.5999755859</ele>
        <time>2021-09-02T09:36:28Z</time>
      </trkpt>
      <trkpt lat="44.35705" lon="6.33519">
        <ele>1116.8000488281</ele>
        <time>2021-09-02T09:36:35Z</time>
      </trkpt>
      <trkpt lat="44.357" lon="6.33533">
        <ele>1117.1999511719</ele>
        <time>2021-09-02T09:36:39Z</time>
      </trkpt>
      <trkpt lat="44.35694" lon="6.33545">
        <ele>1117.8000488281</ele>
        <time>2021-09-02T09:36:43Z</time>
      </trkpt>
      <trkpt lat="44.3569" lon="6.33555">
        <ele>1118.1999511719</ele>
        <time>2021-09-02T09:36:46Z</time>
      </trkpt>
      <trkpt lat="44.35686" lon="6.33568">
        <ele>1118.8000488281</ele>
        <time>2021-09-02T09:36:50Z</time>
      </trkpt>
      <trkpt lat="44.3568" lon="6.3358">
        <ele>1119.5999755859</ele>
        <time>2021-09-02T09:36:54Z</time>
      </trkpt>
      <trkpt lat="44.35675" lon="6.33589">
        <ele>1120</ele>
        <time>2021-09-02T09:36:57Z</time>
      </trkpt>
      <trkpt lat="44.35668" lon="6.33604">
        <ele>1120.5999755859</ele>
        <time>2021-09-02T09:37:02Z</time>
      </trkpt>
      <trkpt lat="44.35663" lon="6.33613">
        <ele>1121</ele>
        <time>2021-09-02T09:37:05Z</time>
      </trkpt>
      <trkpt lat="44.35651" lon="6.33633">
        <ele>1122</ele>
        <time>2021-09-02T09:37:12Z</time>
      </trkpt>
      <trkpt lat="44.35649" lon="6.33636">
        <ele>1122.1999511719</ele>
        <time>2021-09-02T09:37:13Z</time>
      </trkpt>
      <trkpt lat="44.35636" lon="6.33655">
        <ele>1123.1999511719</ele>
        <time>2021-09-02T09:37:20Z</time>
      </trkpt>
      <trkpt lat="44.35635" lon="6.33658">
        <ele>1123.4000244141</ele>
        <time>2021-09-02T09:37:21Z</time>
      </trkpt>
      <trkpt lat="44.35623" lon="6.33678">
        <ele>1124.4000244141</ele>
        <time>2021-09-02T09:37:28Z</time>
      </trkpt>
      <trkpt lat="44.35617" lon="6.33686">
        <ele>1124.8000488281</ele>
        <time>2021-09-02T09:37:31Z</time>
      </trkpt>
      <trkpt lat="44.35611" lon="6.33698">
        <ele>1125.5999755859</ele>
        <time>2021-09-02T09:37:35Z</time>
      </trkpt>
      <trkpt lat="44.35604" lon="6.33714">
        <ele>1126.4000244141</ele>
        <time>2021-09-02T09:37:40Z</time>
      </trkpt>
      <trkpt lat="44.35602" lon="6.33721">
        <ele>1126.5999755859</ele>
        <time>2021-09-02T09:37:42Z</time>
      </trkpt>
      <trkpt lat="44.35596" lon="6.33742">
        <ele>1127.4000244141</ele>
        <time>2021-09-02T09:37:48Z</time>
      </trkpt>
      <trkpt lat="44.35595" lon="6.3375">
        <ele>1127.5999755859</ele>
        <time>2021-09-02T09:37:50Z</time>
      </trkpt>
      <trkpt lat="44.35592" lon="6.3377">
        <ele>1128.1999511719</ele>
        <time>2021-09-02T09:37:55Z</time>
      </trkpt>
      <trkpt lat="44.3559" lon="6.33788">
        <ele>1128.8000488281</ele>
        <time>2021-09-02T09:37:59Z</time>
      </trkpt>
      <trkpt lat="44.35589" lon="6.33807">
        <ele>1129.4000244141</ele>
        <time>2021-09-02T09:38:03Z</time>
      </trkpt>
      <trkpt lat="44.35587" lon="6.33836">
        <ele>1129.8000488281</ele>
        <time>2021-09-02T09:38:09Z</time>
      </trkpt>
      <trkpt lat="44.35587" lon="6.33842">
        <ele>1129.8000488281</ele>
        <time>2021-09-02T09:38:10Z</time>
      </trkpt>
      <trkpt lat="44.35585" lon="6.3388">
        <ele>1130</ele>
        <time>2021-09-02T09:38:17Z</time>
      </trkpt>
      <trkpt lat="44.35584" lon="6.33889">
        <ele>1130.1999511719</ele>
        <time>2021-09-02T09:38:20Z</time>
      </trkpt>
      <trkpt lat="44.35587" lon="6.33887">
        <ele>1130.1999511719</ele>
        <time>2021-09-02T09:38:21Z</time>
      </trkpt>
      <trkpt lat="44.35588" lon="6.33875">
        <ele>1130.4000244141</ele>
        <time>2021-09-02T09:38:24Z</time>
      </trkpt>
      <trkpt lat="44.35588" lon="6.3387">
        <ele>1130.4000244141</ele>
        <time>2021-09-02T09:38:25Z</time>
      </trkpt>
      <trkpt lat="44.35589" lon="6.33844">
        <ele>1130.4000244141</ele>
        <time>2021-09-02T09:38:30Z</time>
      </trkpt>
      <trkpt lat="44.35586" lon="6.3383">
        <ele>1130.4000244141</ele>
        <time>2021-09-02T09:38:33Z</time>
      </trkpt>
      <trkpt lat="44.35583" lon="6.33829">
        <ele>1130.4000244141</ele>
        <time>2021-09-02T09:38:34Z</time>
      </trkpt>
      <trkpt lat="44.35571" lon="6.33838">
        <ele>1130.1999511719</ele>
        <time>2021-09-02T09:38:37Z</time>
      </trkpt>
      <trkpt lat="44.35566" lon="6.3385">
        <ele>1130</ele>
        <time>2021-09-02T09:38:39Z</time>
      </trkpt>
      <trkpt lat="44.35555" lon="6.33867">
        <ele>1129.5999755859</ele>
        <time>2021-09-02T09:38:42Z</time>
      </trkpt>
      <trkpt lat="44.35551" lon="6.33872">
        <ele>1129.4000244141</ele>
        <time>2021-09-02T09:38:43Z</time>
      </trkpt>
      <trkpt lat="44.3554" lon="6.33889">
        <ele>1129.1999511719</ele>
        <time>2021-09-02T09:38:47Z</time>
      </trkpt>
      <trkpt lat="44.35534" lon="6.33902">
        <ele>1128.8000488281</ele>
        <time>2021-09-02T09:38:50Z</time>
      </trkpt>
      <trkpt lat="44.35529" lon="6.3392">
        <ele>1128.8000488281</ele>
        <time>2021-09-02T09:38:54Z</time>
      </trkpt>
      <trkpt lat="44.35525" lon="6.3396">
        <ele>1129.4000244141</ele>
        <time>2021-09-02T09:39:02Z</time>
      </trkpt>
      <trkpt lat="44.35524" lon="6.3397">
        <ele>1129.8000488281</ele>
        <time>2021-09-02T09:39:04Z</time>
      </trkpt>
      <trkpt lat="44.35524" lon="6.33998">
        <ele>1130.4000244141</ele>
        <time>2021-09-02T09:39:10Z</time>
      </trkpt>
      <trkpt lat="44.35523" lon="6.34008">
        <ele>1130.8000488281</ele>
        <time>2021-09-02T09:39:12Z</time>
      </trkpt>
      <trkpt lat="44.35519" lon="6.34029">
        <ele>1131.4000244141</ele>
        <time>2021-09-02T09:39:17Z</time>
      </trkpt>
      <trkpt lat="44.35514" lon="6.34045">
        <ele>1131.8000488281</ele>
        <time>2021-09-02T09:39:21Z</time>
      </trkpt>
      <trkpt lat="44.35507" lon="6.34064">
        <ele>1132</ele>
        <time>2021-09-02T09:39:25Z</time>
      </trkpt>
      <trkpt lat="44.35497" lon="6.3409">
        <ele>1132.4000244141</ele>
        <time>2021-09-02T09:39:30Z</time>
      </trkpt>
      <trkpt lat="44.35492" lon="6.341">
        <ele>1132.4000244141</ele>
        <time>2021-09-02T09:39:32Z</time>
      </trkpt>
      <trkpt lat="44.35489" lon="6.34105">
        <ele>1132.4000244141</ele>
        <time>2021-09-02T09:39:33Z</time>
      </trkpt>
      <trkpt lat="44.35483" lon="6.34115">
        <ele>1132.4000244141</ele>
        <time>2021-09-02T09:39:35Z</time>
      </trkpt>
      <trkpt lat="44.35476" lon="6.34133">
        <ele>1132.5999755859</ele>
        <time>2021-09-02T09:39:38Z</time>
      </trkpt>
      <trkpt lat="44.35456" lon="6.34183">
        <ele>1132.5999755859</ele>
        <time>2021-09-02T09:39:47Z</time>
      </trkpt>
      <trkpt lat="44.35446" lon="6.34213">
        <ele>1132.8000488281</ele>
        <time>2021-09-02T09:39:52Z</time>
      </trkpt>
      <trkpt lat="44.35442" lon="6.34225">
        <ele>1132.8000488281</ele>
        <time>2021-09-02T09:39:54Z</time>
      </trkpt>
      <trkpt lat="44.35424" lon="6.34272">
        <ele>1132.5999755859</ele>
        <time>2021-09-02T09:40:01Z</time>
      </trkpt>
      <trkpt lat="44.35406" lon="6.34316">
        <ele>1132.5999755859</ele>
        <time>2021-09-02T09:40:08Z</time>
      </trkpt>
      <trkpt lat="44.35392" lon="6.34352">
        <ele>1133</ele>
        <time>2021-09-02T09:40:14Z</time>
      </trkpt>
      <trkpt lat="44.35378" lon="6.34395">
        <ele>1133.1999511719</ele>
        <time>2021-09-02T09:40:22Z</time>
      </trkpt>
      <trkpt lat="44.35369" lon="6.34419">
        <ele>1134</ele>
        <time>2021-09-02T09:40:27Z</time>
      </trkpt>
      <trkpt lat="44.35361" lon="6.34437">
        <ele>1134.4000244141</ele>
        <time>2021-09-02T09:40:31Z</time>
      </trkpt>
      <trkpt lat="44.35351" lon="6.34463">
        <ele>1135</ele>
        <time>2021-09-02T09:40:37Z</time>
      </trkpt>
      <trkpt lat="44.35349" lon="6.34467">
        <ele>1135.1999511719</ele>
        <time>2021-09-02T09:40:38Z</time>
      </trkpt>
      <trkpt lat="44.35332" lon="6.34498">
        <ele>1136.1999511719</ele>
        <time>2021-09-02T09:40:46Z</time>
      </trkpt>
      <trkpt lat="44.35328" lon="6.34507">
        <ele>1136.4000244141</ele>
        <time>2021-09-02T09:40:48Z</time>
      </trkpt>
      <trkpt lat="44.35308" lon="6.34543">
        <ele>1137</ele>
        <time>2021-09-02T09:40:56Z</time>
      </trkpt>
      <trkpt lat="44.3529" lon="6.34574">
        <ele>1137.1999511719</ele>
        <time>2021-09-02T09:41:03Z</time>
      </trkpt>
      <trkpt lat="44.35287" lon="6.34578">
        <ele>1137.1999511719</ele>
        <time>2021-09-02T09:41:04Z</time>
      </trkpt>
      <trkpt lat="44.35268" lon="6.34609">
        <ele>1137.5999755859</ele>
        <time>2021-09-02T09:41:11Z</time>
      </trkpt>
      <trkpt lat="44.35244" lon="6.34647">
        <ele>1137.5999755859</ele>
        <time>2021-09-02T09:41:18Z</time>
      </trkpt>
      <trkpt lat="44.35217" lon="6.34685">
        <ele>1136.8000488281</ele>
        <time>2021-09-02T09:41:25Z</time>
      </trkpt>
      <trkpt lat="44.35193" lon="6.34719">
        <ele>1136</ele>
        <time>2021-09-02T09:41:31Z</time>
      </trkpt>
      <trkpt lat="44.35189" lon="6.34724">
        <ele>1136</ele>
        <time>2021-09-02T09:41:32Z</time>
      </trkpt>
      <trkpt lat="44.35172" lon="6.34746">
        <ele>1135.8000488281</ele>
        <time>2021-09-02T09:41:36Z</time>
      </trkpt>
      <trkpt lat="44.3516" lon="6.3476">
        <ele>1136</ele>
        <time>2021-09-02T09:41:39Z</time>
      </trkpt>
      <trkpt lat="44.35136" lon="6.34791">
        <ele>1137</ele>
        <time>2021-09-02T09:41:47Z</time>
      </trkpt>
      <trkpt lat="44.35134" lon="6.34795">
        <ele>1137.1999511719</ele>
        <time>2021-09-02T09:41:48Z</time>
      </trkpt>
      <trkpt lat="44.35117" lon="6.34822">
        <ele>1138.1999511719</ele>
        <time>2021-09-02T09:41:55Z</time>
      </trkpt>
      <trkpt lat="44.35096" lon="6.34855">
        <ele>1139.1999511719</ele>
        <time>2021-09-02T09:42:03Z</time>
      </trkpt>
      <trkpt lat="44.35067" lon="6.34894">
        <ele>1139</ele>
        <time>2021-09-02T09:42:11Z</time>
      </trkpt>
      <trkpt lat="44.35043" lon="6.3493">
        <ele>1138.8000488281</ele>
        <time>2021-09-02T09:42:18Z</time>
      </trkpt>
      <trkpt lat="44.35019" lon="6.34973">
        <ele>1138.8000488281</ele>
        <time>2021-09-02T09:42:26Z</time>
      </trkpt>
      <trkpt lat="44.34998" lon="6.35008">
        <ele>1138.8000488281</ele>
        <time>2021-09-02T09:42:32Z</time>
      </trkpt>
      <trkpt lat="44.34972" lon="6.35058">
        <ele>1139.1999511719</ele>
        <time>2021-09-02T09:42:41Z</time>
      </trkpt>
      <trkpt lat="44.34961" lon="6.35085">
        <ele>1139.4000244141</ele>
        <time>2021-09-02T09:42:45Z</time>
      </trkpt>
      <trkpt lat="44.34955" lon="6.35098">
        <ele>1139.4000244141</ele>
        <time>2021-09-02T09:42:47Z</time>
      </trkpt>
      <trkpt lat="44.34949" lon="6.3511">
        <ele>1139.4000244141</ele>
        <time>2021-09-02T09:42:49Z</time>
      </trkpt>
      <trkpt lat="44.34926" lon="6.35146">
        <ele>1139.8000488281</ele>
        <time>2021-09-02T09:42:56Z</time>
      </trkpt>
      <trkpt lat="44.34898" lon="6.35192">
        <ele>1140.1999511719</ele>
        <time>2021-09-02T09:43:05Z</time>
      </trkpt>
      <trkpt lat="44.3488" lon="6.35223">
        <ele>1140.8000488281</ele>
        <time>2021-09-02T09:43:11Z</time>
      </trkpt>
      <trkpt lat="44.34877" lon="6.35228">
        <ele>1140.8000488281</ele>
        <time>2021-09-02T09:43:12Z</time>
      </trkpt>
      <trkpt lat="44.34858" lon="6.35262">
        <ele>1141.4000244141</ele>
        <time>2021-09-02T09:43:19Z</time>
      </trkpt>
      <trkpt lat="44.34855" lon="6.35267">
        <ele>1141.5999755859</ele>
        <time>2021-09-02T09:43:20Z</time>
      </trkpt>
      <trkpt lat="44.34838" lon="6.35296">
        <ele>1142.4000244141</ele>
        <time>2021-09-02T09:43:27Z</time>
      </trkpt>
      <trkpt lat="44.34835" lon="6.353">
        <ele>1142.4000244141</ele>
        <time>2021-09-02T09:43:28Z</time>
      </trkpt>
      <trkpt lat="44.34826" lon="6.35325">
        <ele>1143</ele>
        <time>2021-09-02T09:43:33Z</time>
      </trkpt>
      <trkpt lat="44.3482" lon="6.35351">
        <ele>1143.5999755859</ele>
        <time>2021-09-02T09:43:38Z</time>
      </trkpt>
      <trkpt lat="44.3482" lon="6.35368">
        <ele>1144</ele>
        <time>2021-09-02T09:43:41Z</time>
      </trkpt>
      <trkpt lat="44.34819" lon="6.35403">
        <ele>1144.5999755859</ele>
        <time>2021-09-02T09:43:48Z</time>
      </trkpt>
      <trkpt lat="44.34821" lon="6.35414">
        <ele>1144.8000488281</ele>
        <time>2021-09-02T09:43:51Z</time>
      </trkpt>
      <trkpt lat="44.34822" lon="6.35415">
        <ele>1145</ele>
        <time>2021-09-02T09:43:52Z</time>
      </trkpt>
      <trkpt lat="44.34821" lon="6.3542">
        <ele>1145.4000244141</ele>
        <time>2021-09-02T09:44:32Z</time>
      </trkpt>
      <trkpt lat="44.3482" lon="6.35422">
        <ele>1145.4000244141</ele>
        <time>2021-09-02T09:44:33Z</time>
      </trkpt>
      <trkpt lat="44.34819" lon="6.35443">
        <ele>1145.5999755859</ele>
        <time>2021-09-02T09:44:39Z</time>
      </trkpt>
      <trkpt lat="44.34819" lon="6.35447">
        <ele>1145.5999755859</ele>
        <time>2021-09-02T09:44:40Z</time>
      </trkpt>
      <trkpt lat="44.34822" lon="6.35472">
        <ele>1146.1999511719</ele>
        <time>2021-09-02T09:44:46Z</time>
      </trkpt>
      <trkpt lat="44.34823" lon="6.3549">
        <ele>1146.8000488281</ele>
        <time>2021-09-02T09:44:51Z</time>
      </trkpt>
      <trkpt lat="44.34822" lon="6.35498">
        <ele>1147.1999511719</ele>
        <time>2021-09-02T09:44:53Z</time>
      </trkpt>
      <trkpt lat="44.34822" lon="6.35519">
        <ele>1147.8000488281</ele>
        <time>2021-09-02T09:44:59Z</time>
      </trkpt>
      <trkpt lat="44.34822" lon="6.35522">
        <ele>1147.8000488281</ele>
        <time>2021-09-02T09:45:00Z</time>
      </trkpt>
      <trkpt lat="44.34818" lon="6.35547">
        <ele>1148.5999755859</ele>
        <time>2021-09-02T09:45:07Z</time>
      </trkpt>
      <trkpt lat="44.34815" lon="6.35562">
        <ele>1149</ele>
        <time>2021-09-02T09:45:11Z</time>
      </trkpt>
      <trkpt lat="44.34811" lon="6.35579">
        <ele>1149.4000244141</ele>
        <time>2021-09-02T09:45:16Z</time>
      </trkpt>
      <trkpt lat="44.34806" lon="6.35595">
        <ele>1150</ele>
        <time>2021-09-02T09:45:22Z</time>
      </trkpt>
      <trkpt lat="44.34806" lon="6.35598">
        <ele>1150</ele>
        <time>2021-09-02T09:45:23Z</time>
      </trkpt>
      <trkpt lat="44.34807" lon="6.35601">
        <ele>1150.1999511719</ele>
        <time>2021-09-02T09:45:24Z</time>
      </trkpt>
      <trkpt lat="44.34812" lon="6.35604">
        <ele>1150.4000244141</ele>
        <time>2021-09-02T09:45:26Z</time>
      </trkpt>
      <trkpt lat="44.34817" lon="6.35606">
        <ele>1150.5999755859</ele>
        <time>2021-09-02T09:45:28Z</time>
      </trkpt>
      <trkpt lat="44.34823" lon="6.3561">
        <ele>1151</ele>
        <time>2021-09-02T09:45:31Z</time>
      </trkpt>
      <trkpt lat="44.34824" lon="6.35612">
        <ele>1151.1999511719</ele>
        <time>2021-09-02T09:45:32Z</time>
      </trkpt>
      <trkpt lat="44.34839" lon="6.35626">
        <ele>1152.1999511719</ele>
        <time>2021-09-02T09:45:40Z</time>
      </trkpt>
      <trkpt lat="44.34854" lon="6.3563">
        <ele>1153.1999511719</ele>
        <time>2021-09-02T09:45:48Z</time>
      </trkpt>
      <trkpt lat="44.34864" lon="6.35628">
        <ele>1154.4000244141</ele>
        <time>2021-09-02T09:45:53Z</time>
      </trkpt>
      <trkpt lat="44.34868" lon="6.35625">
        <ele>1154.8000488281</ele>
        <time>2021-09-02T09:45:56Z</time>
      </trkpt>
      <trkpt lat="44.34872" lon="6.35622">
        <ele>1155.4000244141</ele>
        <time>2021-09-02T09:45:59Z</time>
      </trkpt>
      <trkpt lat="44.34878" lon="6.35616">
        <ele>1156.5999755859</ele>
        <time>2021-09-02T09:46:04Z</time>
      </trkpt>
      <trkpt lat="44.34879" lon="6.35615">
        <ele>1156.8000488281</ele>
        <time>2021-09-02T09:46:05Z</time>
      </trkpt>
      <trkpt lat="44.34886" lon="6.3561">
        <ele>1157.5999755859</ele>
        <time>2021-09-02T09:46:09Z</time>
      </trkpt>
      <trkpt lat="44.3489" lon="6.35608">
        <ele>1158.4000244141</ele>
        <time>2021-09-02T09:46:12Z</time>
      </trkpt>
      <trkpt lat="44.34891" lon="6.35607">
        <ele>1158.5999755859</ele>
        <time>2021-09-02T09:46:13Z</time>
      </trkpt>
      <trkpt lat="44.34898" lon="6.35607">
        <ele>1159.8000488281</ele>
        <time>2021-09-02T09:46:18Z</time>
      </trkpt>
      <trkpt lat="44.349" lon="6.35607">
        <ele>1160</ele>
        <time>2021-09-02T09:46:19Z</time>
      </trkpt>
      <trkpt lat="44.34904" lon="6.35613">
        <ele>1160.8000488281</ele>
        <time>2021-09-02T09:46:23Z</time>
      </trkpt>
      <trkpt lat="44.34906" lon="6.35616">
        <ele>1161.1999511719</ele>
        <time>2021-09-02T09:46:25Z</time>
      </trkpt>
      <trkpt lat="44.34909" lon="6.35621">
        <ele>1162</ele>
        <time>2021-09-02T09:46:28Z</time>
      </trkpt>
      <trkpt lat="44.34914" lon="6.35631">
        <ele>1162.5999755859</ele>
        <time>2021-09-02T09:46:33Z</time>
      </trkpt>
      <trkpt lat="44.34916" lon="6.35634">
        <ele>1163.1999511719</ele>
        <time>2021-09-02T09:46:35Z</time>
      </trkpt>
      <trkpt lat="44.34919" lon="6.35644">
        <ele>1164.1999511719</ele>
        <time>2021-09-02T09:46:41Z</time>
      </trkpt>
      <trkpt lat="44.34925" lon="6.35655">
        <ele>1165</ele>
        <time>2021-09-02T09:46:47Z</time>
      </trkpt>
      <trkpt lat="44.34927" lon="6.35659">
        <ele>1165.1999511719</ele>
        <time>2021-09-02T09:46:49Z</time>
      </trkpt>
      <trkpt lat="44.34932" lon="6.35668">
        <ele>1166.1999511719</ele>
        <time>2021-09-02T09:46:54Z</time>
      </trkpt>
      <trkpt lat="44.34934" lon="6.35672">
        <ele>1166.5999755859</ele>
        <time>2021-09-02T09:46:56Z</time>
      </trkpt>
      <trkpt lat="44.34937" lon="6.35678">
        <ele>1167.4000244141</ele>
        <time>2021-09-02T09:47:00Z</time>
      </trkpt>
      <trkpt lat="44.34941" lon="6.35686">
        <ele>1168.1999511719</ele>
        <time>2021-09-02T09:47:04Z</time>
      </trkpt>
      <trkpt lat="44.34943" lon="6.35689">
        <ele>1168.5999755859</ele>
        <time>2021-09-02T09:47:06Z</time>
      </trkpt>
      <trkpt lat="44.34949" lon="6.35697">
        <ele>1169.4000244141</ele>
        <time>2021-09-02T09:47:11Z</time>
      </trkpt>
      <trkpt lat="44.34949" lon="6.35699">
        <ele>1169.5999755859</ele>
        <time>2021-09-02T09:47:12Z</time>
      </trkpt>
      <trkpt lat="44.34954" lon="6.35706">
        <ele>1170.8000488281</ele>
        <time>2021-09-02T09:47:17Z</time>
      </trkpt>
      <trkpt lat="44.3496" lon="6.35715">
        <ele>1171.5999755859</ele>
        <time>2021-09-02T09:47:24Z</time>
      </trkpt>
      <trkpt lat="44.3496" lon="6.35721">
        <ele>1171.5999755859</ele>
        <time>2021-09-02T09:47:26Z</time>
      </trkpt>
      <trkpt lat="44.34961" lon="6.35727">
        <ele>1171.5999755859</ele>
        <time>2021-09-02T09:47:28Z</time>
      </trkpt>
      <trkpt lat="44.34971" lon="6.35737">
        <ele>1171.1999511719</ele>
        <time>2021-09-02T09:47:33Z</time>
      </trkpt>
      <trkpt lat="44.34976" lon="6.35737">
        <ele>1171</ele>
        <time>2021-09-02T09:47:36Z</time>
      </trkpt>
      <trkpt lat="44.34979" lon="6.35737">
        <ele>1171</ele>
        <time>2021-09-02T09:47:39Z</time>
      </trkpt>
      <trkpt lat="44.3498" lon="6.35736">
        <ele>1171</ele>
        <time>2021-09-02T09:47:40Z</time>
      </trkpt>
      <trkpt lat="44.34976" lon="6.35733">
        <ele>1171.4000244141</ele>
        <time>2021-09-02T09:47:44Z</time>
      </trkpt>
      <trkpt lat="44.34977" lon="6.35731">
        <ele>1171.4000244141</ele>
        <time>2021-09-02T09:47:45Z</time>
      </trkpt>
      <trkpt lat="44.34977" lon="6.35727">
        <ele>1171.8000488281</ele>
        <time>2021-09-02T09:47:49Z</time>
      </trkpt>
      <trkpt lat="44.3498" lon="6.3572">
        <ele>1172.4000244141</ele>
        <time>2021-09-02T09:47:54Z</time>
      </trkpt>
      <trkpt lat="44.34984" lon="6.35717">
        <ele>1172.5999755859</ele>
        <time>2021-09-02T09:47:56Z</time>
      </trkpt>
      <trkpt lat="44.34985" lon="6.35715">
        <ele>1172.8000488281</ele>
        <time>2021-09-02T09:47:57Z</time>
      </trkpt>
      <trkpt lat="44.34991" lon="6.35705">
        <ele>1173.8000488281</ele>
        <time>2021-09-02T09:48:02Z</time>
      </trkpt>
      <trkpt lat="44.34993" lon="6.35701">
        <ele>1174.5999755859</ele>
        <time>2021-09-02T09:48:04Z</time>
      </trkpt>
      <trkpt lat="44.34994" lon="6.35696">
        <ele>1175</ele>
        <time>2021-09-02T09:48:06Z</time>
      </trkpt>
      <trkpt lat="44.34996" lon="6.35681">
        <ele>1176.1999511719</ele>
        <time>2021-09-02T09:48:12Z</time>
      </trkpt>
      <trkpt lat="44.34994" lon="6.35676">
        <ele>1176.8000488281</ele>
        <time>2021-09-02T09:48:14Z</time>
      </trkpt>
      <trkpt lat="44.3499" lon="6.35672">
        <ele>1177.4000244141</ele>
        <time>2021-09-02T09:48:17Z</time>
      </trkpt>
      <trkpt lat="44.34988" lon="6.35672">
        <ele>1177.4000244141</ele>
        <time>2021-09-02T09:48:18Z</time>
      </trkpt>
      <trkpt lat="44.34981" lon="6.35667">
        <ele>1178</ele>
        <time>2021-09-02T09:48:22Z</time>
      </trkpt>
      <trkpt lat="44.34981" lon="6.35662">
        <ele>1178.4000244141</ele>
        <time>2021-09-02T09:48:24Z</time>
      </trkpt>
      <trkpt lat="44.3498" lon="6.35658">
        <ele>1178.8000488281</ele>
        <time>2021-09-02T09:48:26Z</time>
      </trkpt>
      <trkpt lat="44.34981" lon="6.35655">
        <ele>1179</ele>
        <time>2021-09-02T09:48:27Z</time>
      </trkpt>
      <trkpt lat="44.34982" lon="6.35653">
        <ele>1179.5999755859</ele>
        <time>2021-09-02T09:48:28Z</time>
      </trkpt>
      <trkpt lat="44.34988" lon="6.35652">
        <ele>1180.1999511719</ele>
        <time>2021-09-02T09:48:31Z</time>
      </trkpt>
      <trkpt lat="44.34993" lon="6.35654">
        <ele>1180.5999755859</ele>
        <time>2021-09-02T09:48:33Z</time>
      </trkpt>
      <trkpt lat="44.34993" lon="6.35656">
        <ele>1180.8000488281</ele>
        <time>2021-09-02T09:48:34Z</time>
      </trkpt>
      <trkpt lat="44.34997" lon="6.35658">
        <ele>1181</ele>
        <time>2021-09-02T09:48:36Z</time>
      </trkpt>
      <trkpt lat="44.35001" lon="6.35664">
        <ele>1181.5999755859</ele>
        <time>2021-09-02T09:48:39Z</time>
      </trkpt>
      <trkpt lat="44.35003" lon="6.35669">
        <ele>1182</ele>
        <time>2021-09-02T09:48:41Z</time>
      </trkpt>
      <trkpt lat="44.35009" lon="6.35676">
        <ele>1182.8000488281</ele>
        <time>2021-09-02T09:48:45Z</time>
      </trkpt>
      <trkpt lat="44.35015" lon="6.35683">
        <ele>1183.1999511719</ele>
        <time>2021-09-02T09:48:49Z</time>
      </trkpt>
      <trkpt lat="44.35022" lon="6.35687">
        <ele>1183.8000488281</ele>
        <time>2021-09-02T09:48:53Z</time>
      </trkpt>
      <trkpt lat="44.35025" lon="6.35688">
        <ele>1184.1999511719</ele>
        <time>2021-09-02T09:48:55Z</time>
      </trkpt>
      <trkpt lat="44.35037" lon="6.35684">
        <ele>1185</ele>
        <time>2021-09-02T09:49:02Z</time>
      </trkpt>
      <trkpt lat="44.35047" lon="6.35678">
        <ele>1186</ele>
        <time>2021-09-02T09:49:08Z</time>
      </trkpt>
      <trkpt lat="44.35051" lon="6.35675">
        <ele>1186.4000244141</ele>
        <time>2021-09-02T09:49:10Z</time>
      </trkpt>
      <trkpt lat="44.35059" lon="6.35673">
        <ele>1187.1999511719</ele>
        <time>2021-09-02T09:49:15Z</time>
      </trkpt>
      <trkpt lat="44.35061" lon="6.35673">
        <ele>1187.5999755859</ele>
        <time>2021-09-02T09:49:16Z</time>
      </trkpt>
      <trkpt lat="44.35065" lon="6.3567">
        <ele>1188.1999511719</ele>
        <time>2021-09-02T09:49:19Z</time>
      </trkpt>
      <trkpt lat="44.35072" lon="6.35666">
        <ele>1189</ele>
        <time>2021-09-02T09:49:23Z</time>
      </trkpt>
      <trkpt lat="44.35075" lon="6.35665">
        <ele>1189.4000244141</ele>
        <time>2021-09-02T09:49:25Z</time>
      </trkpt>
      <trkpt lat="44.35085" lon="6.3566">
        <ele>1190.1999511719</ele>
        <time>2021-09-02T09:49:31Z</time>
      </trkpt>
      <trkpt lat="44.35088" lon="6.35661">
        <ele>1190.4000244141</ele>
        <time>2021-09-02T09:49:32Z</time>
      </trkpt>
      <trkpt lat="44.35096" lon="6.35655">
        <ele>1191.1999511719</ele>
        <time>2021-09-02T09:49:37Z</time>
      </trkpt>
      <trkpt lat="44.35099" lon="6.35652">
        <ele>1191.5999755859</ele>
        <time>2021-09-02T09:49:39Z</time>
      </trkpt>
      <trkpt lat="44.35106" lon="6.35648">
        <ele>1192.1999511719</ele>
        <time>2021-09-02T09:49:43Z</time>
      </trkpt>
      <trkpt lat="44.35112" lon="6.35646">
        <ele>1192.5999755859</ele>
        <time>2021-09-02T09:49:46Z</time>
      </trkpt>
      <trkpt lat="44.35117" lon="6.35642">
        <ele>1193</ele>
        <time>2021-09-02T09:49:49Z</time>
      </trkpt>
      <trkpt lat="44.35124" lon="6.35639">
        <ele>1193.5999755859</ele>
        <time>2021-09-02T09:49:53Z</time>
      </trkpt>
      <trkpt lat="44.35128" lon="6.35634">
        <ele>1194</ele>
        <time>2021-09-02T09:49:56Z</time>
      </trkpt>
      <trkpt lat="44.35132" lon="6.3562">
        <ele>1194.5999755859</ele>
        <time>2021-09-02T09:50:02Z</time>
      </trkpt>
      <trkpt lat="44.35133" lon="6.35619">
        <ele>1194.5999755859</ele>
        <time>2021-09-02T09:50:03Z</time>
      </trkpt>
      <trkpt lat="44.35139" lon="6.35612">
        <ele>1195.5999755859</ele>
        <time>2021-09-02T09:50:08Z</time>
      </trkpt>
      <trkpt lat="44.35141" lon="6.35609">
        <ele>1196</ele>
        <time>2021-09-02T09:50:10Z</time>
      </trkpt>
      <trkpt lat="44.35143" lon="6.35604">
        <ele>1196.8000488281</ele>
        <time>2021-09-02T09:50:13Z</time>
      </trkpt>
      <trkpt lat="44.35144" lon="6.35601">
        <ele>1197.8000488281</ele>
        <time>2021-09-02T09:50:21Z</time>
      </trkpt>
      <trkpt lat="44.35146" lon="6.35601">
        <ele>1197.8000488281</ele>
        <time>2021-09-02T09:50:22Z</time>
      </trkpt>
      <trkpt lat="44.35155" lon="6.356">
        <ele>1197.8000488281</ele>
        <time>2021-09-02T09:50:26Z</time>
      </trkpt>
      <trkpt lat="44.35175" lon="6.35603">
        <ele>1197.5999755859</ele>
        <time>2021-09-02T09:50:34Z</time>
      </trkpt>
      <trkpt lat="44.35199" lon="6.3561">
        <ele>1197.4000244141</ele>
        <time>2021-09-02T09:50:41Z</time>
      </trkpt>
      <trkpt lat="44.35202" lon="6.35612">
        <ele>1197.1999511719</ele>
        <time>2021-09-02T09:50:42Z</time>
      </trkpt>
      <trkpt lat="44.35208" lon="6.3562">
        <ele>1197</ele>
        <time>2021-09-02T09:50:45Z</time>
      </trkpt>
      <trkpt lat="44.35216" lon="6.35633">
        <ele>1197.1999511719</ele>
        <time>2021-09-02T09:50:50Z</time>
      </trkpt>
      <trkpt lat="44.3522" lon="6.35642">
        <ele>1197.1999511719</ele>
        <time>2021-09-02T09:50:53Z</time>
      </trkpt>
      <trkpt lat="44.35229" lon="6.3566">
        <ele>1197.5999755859</ele>
        <time>2021-09-02T09:50:59Z</time>
      </trkpt>
      <trkpt lat="44.35237" lon="6.35674">
        <ele>1197.8000488281</ele>
        <time>2021-09-02T09:51:04Z</time>
      </trkpt>
      <trkpt lat="44.35241" lon="6.35688">
        <ele>1197.8000488281</ele>
        <time>2021-09-02T09:51:10Z</time>
      </trkpt>
      <trkpt lat="44.35241" lon="6.3569">
        <ele>1197.8000488281</ele>
        <time>2021-09-02T09:51:11Z</time>
      </trkpt>
      <trkpt lat="44.35237" lon="6.35698">
        <ele>1197.8000488281</ele>
        <time>2021-09-02T09:51:16Z</time>
      </trkpt>
      <trkpt lat="44.35237" lon="6.357">
        <ele>1197.8000488281</ele>
        <time>2021-09-02T09:51:17Z</time>
      </trkpt>
      <trkpt lat="44.35237" lon="6.35701">
        <ele>1197.5999755859</ele>
        <time>2021-09-02T09:51:28Z</time>
      </trkpt>
      <trkpt lat="44.35238" lon="6.35705">
        <ele>1197.5999755859</ele>
        <time>2021-09-02T09:51:30Z</time>
      </trkpt>
      <trkpt lat="44.35233" lon="6.35724">
        <ele>1197.8000488281</ele>
        <time>2021-09-02T09:51:35Z</time>
      </trkpt>
      <trkpt lat="44.35223" lon="6.3574">
        <ele>1198</ele>
        <time>2021-09-02T09:51:41Z</time>
      </trkpt>
      <trkpt lat="44.35217" lon="6.35745">
        <ele>1198</ele>
        <time>2021-09-02T09:51:45Z</time>
      </trkpt>
      <trkpt lat="44.35216" lon="6.35748">
        <ele>1198</ele>
        <time>2021-09-02T09:51:47Z</time>
      </trkpt>
      <trkpt lat="44.35222" lon="6.35747">
        <ele>1199.1999511719</ele>
        <time>2021-09-02T10:06:27Z</time>
      </trkpt>
      <trkpt lat="44.35223" lon="6.35742">
        <ele>1199.1999511719</ele>
        <time>2021-09-02T10:06:29Z</time>
      </trkpt>
      <trkpt lat="44.35224" lon="6.3574">
        <ele>1199.1999511719</ele>
        <time>2021-09-02T10:06:34Z</time>
      </trkpt>
      <trkpt lat="44.35228" lon="6.35737">
        <ele>1199.1999511719</ele>
        <time>2021-09-02T10:06:36Z</time>
      </trkpt>
      <trkpt lat="44.35236" lon="6.35725">
        <ele>1199.1999511719</ele>
        <time>2021-09-02T10:06:41Z</time>
      </trkpt>
      <trkpt lat="44.3524" lon="6.35715">
        <ele>1199.1999511719</ele>
        <time>2021-09-02T10:06:45Z</time>
      </trkpt>
      <trkpt lat="44.3524" lon="6.35709">
        <ele>1199.1999511719</ele>
        <time>2021-09-02T10:06:47Z</time>
      </trkpt>
      <trkpt lat="44.3524" lon="6.35706">
        <ele>1199.1999511719</ele>
        <time>2021-09-02T10:06:48Z</time>
      </trkpt>
      <trkpt lat="44.35241" lon="6.35699">
        <ele>1199.1999511719</ele>
        <time>2021-09-02T10:06:51Z</time>
      </trkpt>
      <trkpt lat="44.35242" lon="6.35695">
        <ele>1199.1999511719</ele>
        <time>2021-09-02T10:06:52Z</time>
      </trkpt>
      <trkpt lat="44.35241" lon="6.35677">
        <ele>1199.1999511719</ele>
        <time>2021-09-02T10:06:57Z</time>
      </trkpt>
      <trkpt lat="44.35231" lon="6.35657">
        <ele>1199.1999511719</ele>
        <time>2021-09-02T10:07:02Z</time>
      </trkpt>
      <trkpt lat="44.35222" lon="6.35637">
        <ele>1199</ele>
        <time>2021-09-02T10:07:07Z</time>
      </trkpt>
      <trkpt lat="44.35209" lon="6.35615">
        <ele>1198.8000488281</ele>
        <time>2021-09-02T10:07:13Z</time>
      </trkpt>
      <trkpt lat="44.35198" lon="6.35609">
        <ele>1198.4000244141</ele>
        <time>2021-09-02T10:07:16Z</time>
      </trkpt>
      <trkpt lat="44.35194" lon="6.35608">
        <ele>1198.4000244141</ele>
        <time>2021-09-02T10:07:17Z</time>
      </trkpt>
      <trkpt lat="44.35182" lon="6.35606">
        <ele>1198.1999511719</ele>
        <time>2021-09-02T10:07:20Z</time>
      </trkpt>
      <trkpt lat="44.35173" lon="6.35606">
        <ele>1198.1999511719</ele>
        <time>2021-09-02T10:07:23Z</time>
      </trkpt>
      <trkpt lat="44.3515" lon="6.35603">
        <ele>1198.5999755859</ele>
        <time>2021-09-02T10:07:31Z</time>
      </trkpt>
      <trkpt lat="44.35141" lon="6.35601">
        <ele>1198.8000488281</ele>
        <time>2021-09-02T10:07:37Z</time>
      </trkpt>
      <trkpt lat="44.35138" lon="6.35599">
        <ele>1199.1999511719</ele>
        <time>2021-09-02T10:07:46Z</time>
      </trkpt>
      <trkpt lat="44.35135" lon="6.35596">
        <ele>1199.1999511719</ele>
        <time>2021-09-02T10:07:48Z</time>
      </trkpt>
      <trkpt lat="44.3513" lon="6.35597">
        <ele>1199.1999511719</ele>
        <time>2021-09-02T10:07:50Z</time>
      </trkpt>
      <trkpt lat="44.35126" lon="6.35599">
        <ele>1199.4000244141</ele>
        <time>2021-09-02T10:07:52Z</time>
      </trkpt>
      <trkpt lat="44.3512" lon="6.35601">
        <ele>1199.5999755859</ele>
        <time>2021-09-02T10:07:54Z</time>
      </trkpt>
      <trkpt lat="44.35102" lon="6.35612">
        <ele>1200.4000244141</ele>
        <time>2021-09-02T10:08:01Z</time>
      </trkpt>
      <trkpt lat="44.35083" lon="6.35618">
        <ele>1201.1999511719</ele>
        <time>2021-09-02T10:08:08Z</time>
      </trkpt>
      <trkpt lat="44.35081" lon="6.35616">
        <ele>1201.1999511719</ele>
        <time>2021-09-02T10:08:09Z</time>
      </trkpt>
      <trkpt lat="44.35075" lon="6.35613">
        <ele>1201.4000244141</ele>
        <time>2021-09-02T10:08:11Z</time>
      </trkpt>
      <trkpt lat="44.35053" lon="6.35609">
        <ele>1201.5999755859</ele>
        <time>2021-09-02T10:08:19Z</time>
      </trkpt>
      <trkpt lat="44.35044" lon="6.35597">
        <ele>1201.1999511719</ele>
        <time>2021-09-02T10:08:24Z</time>
      </trkpt>
      <trkpt lat="44.35042" lon="6.35602">
        <ele>1200.8000488281</ele>
        <time>2021-09-02T10:08:28Z</time>
      </trkpt>
      <trkpt lat="44.35044" lon="6.35605">
        <ele>1200.5999755859</ele>
        <time>2021-09-02T10:08:30Z</time>
      </trkpt>
      <trkpt lat="44.35049" lon="6.35609">
        <ele>1201</ele>
        <time>2021-09-02T10:09:34Z</time>
      </trkpt>
      <trkpt lat="44.35056" lon="6.35609">
        <ele>1201</ele>
        <time>2021-09-02T10:09:37Z</time>
      </trkpt>
      <trkpt lat="44.3508" lon="6.35604">
        <ele>1201.4000244141</ele>
        <time>2021-09-02T10:09:44Z</time>
      </trkpt>
      <trkpt lat="44.35097" lon="6.35602">
        <ele>1201.8000488281</ele>
        <time>2021-09-02T10:09:49Z</time>
      </trkpt>
      <trkpt lat="44.35116" lon="6.35592">
        <ele>1201.5999755859</ele>
        <time>2021-09-02T10:09:54Z</time>
      </trkpt>
      <trkpt lat="44.35137" lon="6.35594">
        <ele>1201</ele>
        <time>2021-09-02T10:09:59Z</time>
      </trkpt>
      <trkpt lat="44.35148" lon="6.35596">
        <ele>1200.1999511719</ele>
        <time>2021-09-02T10:10:02Z</time>
      </trkpt>
      <trkpt lat="44.35155" lon="6.35598">
        <ele>1200</ele>
        <time>2021-09-02T10:10:04Z</time>
      </trkpt>
      <trkpt lat="44.35181" lon="6.35606">
        <ele>1199.4000244141</ele>
        <time>2021-09-02T10:10:12Z</time>
      </trkpt>
      <trkpt lat="44.35185" lon="6.35607">
        <ele>1199.1999511719</ele>
        <time>2021-09-02T10:10:13Z</time>
      </trkpt>
      <trkpt lat="44.35204" lon="6.35619">
        <ele>1198.8000488281</ele>
        <time>2021-09-02T10:10:18Z</time>
      </trkpt>
      <trkpt lat="44.35215" lon="6.35636">
        <ele>1198.8000488281</ele>
        <time>2021-09-02T10:10:24Z</time>
      </trkpt>
      <trkpt lat="44.35216" lon="6.35646">
        <ele>1199</ele>
        <time>2021-09-02T10:10:27Z</time>
      </trkpt>
      <trkpt lat="44.35215" lon="6.35652">
        <ele>1199.1999511719</ele>
        <time>2021-09-02T10:10:29Z</time>
      </trkpt>
      <trkpt lat="44.35219" lon="6.3566">
        <ele>1199.1999511719</ele>
        <time>2021-09-02T10:10:33Z</time>
      </trkpt>
      <trkpt lat="44.35221" lon="6.35657">
        <ele>1199.8000488281</ele>
        <time>2021-09-02T10:20:15Z</time>
      </trkpt>
      <trkpt lat="44.35223" lon="6.3566">
        <ele>1199.8000488281</ele>
        <time>2021-09-02T10:20:17Z</time>
      </trkpt>
      <trkpt lat="44.35226" lon="6.35665">
        <ele>1200</ele>
        <time>2021-09-02T10:20:28Z</time>
      </trkpt>
      <trkpt lat="44.35227" lon="6.35667">
        <ele>1200</ele>
        <time>2021-09-02T10:20:29Z</time>
      </trkpt>
      <trkpt lat="44.35236" lon="6.35683">
        <ele>1200.1999511719</ele>
        <time>2021-09-02T10:20:35Z</time>
      </trkpt>
      <trkpt lat="44.35239" lon="6.35692">
        <ele>1200.1999511719</ele>
        <time>2021-09-02T10:20:39Z</time>
      </trkpt>
      <trkpt lat="44.35238" lon="6.35695">
        <ele>1200.1999511719</ele>
        <time>2021-09-02T10:20:40Z</time>
      </trkpt>
      <trkpt lat="44.35236" lon="6.35718">
        <ele>1200.4000244141</ele>
        <time>2021-09-02T10:20:45Z</time>
      </trkpt>
      <trkpt lat="44.35234" lon="6.35721">
        <ele>1200.4000244141</ele>
        <time>2021-09-02T10:20:46Z</time>
      </trkpt>
      <trkpt lat="44.35228" lon="6.35728">
        <ele>1200.4000244141</ele>
        <time>2021-09-02T10:20:49Z</time>
      </trkpt>
      <trkpt lat="44.35226" lon="6.35729">
        <ele>1200.5999755859</ele>
        <time>2021-09-02T10:20:51Z</time>
      </trkpt>
      <trkpt lat="44.35223" lon="6.35728">
        <ele>1200.5999755859</ele>
        <time>2021-09-02T10:20:53Z</time>
      </trkpt>
      <trkpt lat="44.35217" lon="6.35724">
        <ele>1200.4000244141</ele>
        <time>2021-09-02T10:20:55Z</time>
      </trkpt>
      <trkpt lat="44.35201" lon="6.35704">
        <ele>1199.4000244141</ele>
        <time>2021-09-02T10:21:00Z</time>
      </trkpt>
      <trkpt lat="44.35199" lon="6.357">
        <ele>1198.8000488281</ele>
        <time>2021-09-02T10:21:01Z</time>
      </trkpt>
      <trkpt lat="44.35196" lon="6.35693">
        <ele>1197.8000488281</ele>
        <time>2021-09-02T10:21:03Z</time>
      </trkpt>
      <trkpt lat="44.35195" lon="6.35691">
        <ele>1197</ele>
        <time>2021-09-02T10:21:04Z</time>
      </trkpt>
      <trkpt lat="44.35195" lon="6.35689">
        <ele>1196.4000244141</ele>
        <time>2021-09-02T10:21:05Z</time>
      </trkpt>
      <trkpt lat="44.35193" lon="6.35686">
        <ele>1195.1999511719</ele>
        <time>2021-09-02T10:21:07Z</time>
      </trkpt>
      <trkpt lat="44.35193" lon="6.3569">
        <ele>1194</ele>
        <time>2021-09-02T10:21:24Z</time>
      </trkpt>
      <trkpt lat="44.35193" lon="6.35704">
        <ele>1193.8000488281</ele>
        <time>2021-09-02T10:21:28Z</time>
      </trkpt>
      <trkpt lat="44.35193" lon="6.35708">
        <ele>1193.8000488281</ele>
        <time>2021-09-02T10:21:29Z</time>
      </trkpt>
      <trkpt lat="44.35194" lon="6.35712">
        <ele>1193.8000488281</ele>
        <time>2021-09-02T10:21:30Z</time>
      </trkpt>
      <trkpt lat="44.35192" lon="6.35719">
        <ele>1193.8000488281</ele>
        <time>2021-09-02T10:21:32Z</time>
      </trkpt>
      <trkpt lat="44.35185" lon="6.35727">
        <ele>1193.8000488281</ele>
        <time>2021-09-02T10:21:34Z</time>
      </trkpt>
      <trkpt lat="44.35176" lon="6.35736">
        <ele>1193.8000488281</ele>
        <time>2021-09-02T10:21:36Z</time>
      </trkpt>
      <trkpt lat="44.35163" lon="6.35752">
        <ele>1193.4000244141</ele>
        <time>2021-09-02T10:21:39Z</time>
      </trkpt>
      <trkpt lat="44.35154" lon="6.35761">
        <ele>1193</ele>
        <time>2021-09-02T10:21:41Z</time>
      </trkpt>
      <trkpt lat="44.3515" lon="6.35767">
        <ele>1192.5999755859</ele>
        <time>2021-09-02T10:21:42Z</time>
      </trkpt>
      <trkpt lat="44.35146" lon="6.35773">
        <ele>1191.8000488281</ele>
        <time>2021-09-02T10:21:43Z</time>
      </trkpt>
      <trkpt lat="44.3514" lon="6.35779">
        <ele>1191.1999511719</ele>
        <time>2021-09-02T10:21:44Z</time>
      </trkpt>
      <trkpt lat="44.35134" lon="6.35785">
        <ele>1190.8000488281</ele>
        <time>2021-09-02T10:21:45Z</time>
      </trkpt>
      <trkpt lat="44.35128" lon="6.35792">
        <ele>1190.1999511719</ele>
        <time>2021-09-02T10:21:46Z</time>
      </trkpt>
      <trkpt lat="44.3511" lon="6.3581">
        <ele>1189</ele>
        <time>2021-09-02T10:21:49Z</time>
      </trkpt>
      <trkpt lat="44.35104" lon="6.35815">
        <ele>1188.5999755859</ele>
        <time>2021-09-02T10:21:50Z</time>
      </trkpt>
      <trkpt lat="44.3509" lon="6.35824">
        <ele>1187.5999755859</ele>
        <time>2021-09-02T10:21:52Z</time>
      </trkpt>
      <trkpt lat="44.35068" lon="6.35838">
        <ele>1186.5999755859</ele>
        <time>2021-09-02T10:21:55Z</time>
      </trkpt>
      <trkpt lat="44.3506" lon="6.35844">
        <ele>1186.4000244141</ele>
        <time>2021-09-02T10:21:56Z</time>
      </trkpt>
      <trkpt lat="44.35046" lon="6.35853">
        <ele>1185.5999755859</ele>
        <time>2021-09-02T10:21:58Z</time>
      </trkpt>
      <trkpt lat="44.35032" lon="6.3586">
        <ele>1184.5999755859</ele>
        <time>2021-09-02T10:22:00Z</time>
      </trkpt>
      <trkpt lat="44.35026" lon="6.35862">
        <ele>1184</ele>
        <time>2021-09-02T10:22:01Z</time>
      </trkpt>
      <trkpt lat="44.35014" lon="6.35864">
        <ele>1182.5999755859</ele>
        <time>2021-09-02T10:22:03Z</time>
      </trkpt>
      <trkpt lat="44.35007" lon="6.35864">
        <ele>1181.8000488281</ele>
        <time>2021-09-02T10:22:04Z</time>
      </trkpt>
      <trkpt lat="44.34998" lon="6.35863">
        <ele>1181</ele>
        <time>2021-09-02T10:22:05Z</time>
      </trkpt>
      <trkpt lat="44.34983" lon="6.35855">
        <ele>1178.1999511719</ele>
        <time>2021-09-02T10:22:07Z</time>
      </trkpt>
      <trkpt lat="44.3497" lon="6.35841">
        <ele>1176.5999755859</ele>
        <time>2021-09-02T10:22:09Z</time>
      </trkpt>
      <trkpt lat="44.34966" lon="6.35834">
        <ele>1175.5999755859</ele>
        <time>2021-09-02T10:22:10Z</time>
      </trkpt>
      <trkpt lat="44.34963" lon="6.35827">
        <ele>1174.4000244141</ele>
        <time>2021-09-02T10:22:11Z</time>
      </trkpt>
      <trkpt lat="44.34961" lon="6.35821">
        <ele>1173.4000244141</ele>
        <time>2021-09-02T10:22:12Z</time>
      </trkpt>
      <trkpt lat="44.34958" lon="6.35815">
        <ele>1172.1999511719</ele>
        <time>2021-09-02T10:22:13Z</time>
      </trkpt>
      <trkpt lat="44.34956" lon="6.35811">
        <ele>1171.1999511719</ele>
        <time>2021-09-02T10:22:14Z</time>
      </trkpt>
      <trkpt lat="44.34954" lon="6.3581">
        <ele>1170.1999511719</ele>
        <time>2021-09-02T10:22:15Z</time>
      </trkpt>
      <trkpt lat="44.34952" lon="6.35811">
        <ele>1169.5999755859</ele>
        <time>2021-09-02T10:22:16Z</time>
      </trkpt>
      <trkpt lat="44.3495" lon="6.35812">
        <ele>1169</ele>
        <time>2021-09-02T10:22:17Z</time>
      </trkpt>
      <trkpt lat="44.34949" lon="6.35815">
        <ele>1168.5999755859</ele>
        <time>2021-09-02T10:22:18Z</time>
      </trkpt>
      <trkpt lat="44.34944" lon="6.35822">
        <ele>1167.8000488281</ele>
        <time>2021-09-02T10:22:20Z</time>
      </trkpt>
      <trkpt lat="44.34941" lon="6.35833">
        <ele>1167.5999755859</ele>
        <time>2021-09-02T10:22:22Z</time>
      </trkpt>
      <trkpt lat="44.34939" lon="6.35838">
        <ele>1167.5999755859</ele>
        <time>2021-09-02T10:22:23Z</time>
      </trkpt>
      <trkpt lat="44.34933" lon="6.35857">
        <ele>1167.1999511719</ele>
        <time>2021-09-02T10:22:26Z</time>
      </trkpt>
      <trkpt lat="44.34931" lon="6.35863">
        <ele>1167</ele>
        <time>2021-09-02T10:22:27Z</time>
      </trkpt>
      <trkpt lat="44.34925" lon="6.35875">
        <ele>1166.8000488281</ele>
        <time>2021-09-02T10:22:29Z</time>
      </trkpt>
      <trkpt lat="44.3492" lon="6.35888">
        <ele>1166.4000244141</ele>
        <time>2021-09-02T10:22:31Z</time>
      </trkpt>
      <trkpt lat="44.34915" lon="6.359">
        <ele>1166.4000244141</ele>
        <time>2021-09-02T10:22:33Z</time>
      </trkpt>
      <trkpt lat="44.34907" lon="6.35916">
        <ele>1166.1999511719</ele>
        <time>2021-09-02T10:22:36Z</time>
      </trkpt>
      <trkpt lat="44.34897" lon="6.35926">
        <ele>1166.4000244141</ele>
        <time>2021-09-02T10:22:39Z</time>
      </trkpt>
      <trkpt lat="44.34879" lon="6.35927">
        <ele>1167</ele>
        <time>2021-09-02T10:22:44Z</time>
      </trkpt>
      <trkpt lat="44.34853" lon="6.35921">
        <ele>1167</ele>
        <time>2021-09-02T10:22:49Z</time>
      </trkpt>
      <trkpt lat="44.34814" lon="6.35914">
        <ele>1165</ele>
        <time>2021-09-02T10:22:55Z</time>
      </trkpt>
      <trkpt lat="44.34792" lon="6.35913">
        <ele>1163.8000488281</ele>
        <time>2021-09-02T10:22:58Z</time>
      </trkpt>
      <trkpt lat="44.34785" lon="6.35915">
        <ele>1163.4000244141</ele>
        <time>2021-09-02T10:22:59Z</time>
      </trkpt>
      <trkpt lat="44.34778" lon="6.35917">
        <ele>1163</ele>
        <time>2021-09-02T10:23:00Z</time>
      </trkpt>
      <trkpt lat="44.34771" lon="6.35919">
        <ele>1162.5999755859</ele>
        <time>2021-09-02T10:23:01Z</time>
      </trkpt>
      <trkpt lat="44.34742" lon="6.35926">
        <ele>1161.4000244141</ele>
        <time>2021-09-02T10:23:05Z</time>
      </trkpt>
      <trkpt lat="44.34722" lon="6.3593">
        <ele>1160.8000488281</ele>
        <time>2021-09-02T10:23:08Z</time>
      </trkpt>
      <trkpt lat="44.34715" lon="6.3593">
        <ele>1160.5999755859</ele>
        <time>2021-09-02T10:23:09Z</time>
      </trkpt>
      <trkpt lat="44.34702" lon="6.35926">
        <ele>1160.1999511719</ele>
        <time>2021-09-02T10:23:11Z</time>
      </trkpt>
      <trkpt lat="44.34695" lon="6.35924">
        <ele>1160</ele>
        <time>2021-09-02T10:23:12Z</time>
      </trkpt>
      <trkpt lat="44.34664" lon="6.35912">
        <ele>1159.1999511719</ele>
        <time>2021-09-02T10:23:17Z</time>
      </trkpt>
      <trkpt lat="44.34658" lon="6.35909">
        <ele>1159</ele>
        <time>2021-09-02T10:23:18Z</time>
      </trkpt>
      <trkpt lat="44.34626" lon="6.35894">
        <ele>1158.5999755859</ele>
        <time>2021-09-02T10:23:24Z</time>
      </trkpt>
      <trkpt lat="44.34604" lon="6.35885">
        <ele>1158.4000244141</ele>
        <time>2021-09-02T10:23:28Z</time>
      </trkpt>
      <trkpt lat="44.34598" lon="6.35884">
        <ele>1158.4000244141</ele>
        <time>2021-09-02T10:23:29Z</time>
      </trkpt>
      <trkpt lat="44.34587" lon="6.35884">
        <ele>1158</ele>
        <time>2021-09-02T10:23:31Z</time>
      </trkpt>
      <trkpt lat="44.34566" lon="6.35882">
        <ele>1157.5999755859</ele>
        <time>2021-09-02T10:23:35Z</time>
      </trkpt>
      <trkpt lat="44.34529" lon="6.35888">
        <ele>1157.8000488281</ele>
        <time>2021-09-02T10:23:43Z</time>
      </trkpt>
      <trkpt lat="44.34506" lon="6.35891">
        <ele>1158</ele>
        <time>2021-09-02T10:23:50Z</time>
      </trkpt>
      <trkpt lat="44.3448" lon="6.35893">
        <ele>1158</ele>
        <time>2021-09-02T10:23:57Z</time>
      </trkpt>
      <trkpt lat="44.34455" lon="6.35896">
        <ele>1158.5999755859</ele>
        <time>2021-09-02T10:24:03Z</time>
      </trkpt>
      <trkpt lat="44.34451" lon="6.35896">
        <ele>1158.5999755859</ele>
        <time>2021-09-02T10:24:04Z</time>
      </trkpt>
      <trkpt lat="44.3444" lon="6.35896">
        <ele>1159.1999511719</ele>
        <time>2021-09-02T10:24:07Z</time>
      </trkpt>
      <trkpt lat="44.3443" lon="6.35893">
        <ele>1159.8000488281</ele>
        <time>2021-09-02T10:24:10Z</time>
      </trkpt>
      <trkpt lat="44.34418" lon="6.35888">
        <ele>1160.4000244141</ele>
        <time>2021-09-02T10:24:14Z</time>
      </trkpt>
      <trkpt lat="44.34412" lon="6.35884">
        <ele>1160.5999755859</ele>
        <time>2021-09-02T10:24:16Z</time>
      </trkpt>
      <trkpt lat="44.34384" lon="6.35868">
        <ele>1160.5999755859</ele>
        <time>2021-09-02T10:24:24Z</time>
      </trkpt>
      <trkpt lat="44.34351" lon="6.35847">
        <ele>1160.1999511719</ele>
        <time>2021-09-02T10:24:31Z</time>
      </trkpt>
      <trkpt lat="44.34317" lon="6.35835">
        <ele>1159.1999511719</ele>
        <time>2021-09-02T10:24:37Z</time>
      </trkpt>
      <trkpt lat="44.34282" lon="6.35836">
        <ele>1158.5999755859</ele>
        <time>2021-09-02T10:24:43Z</time>
      </trkpt>
      <trkpt lat="44.34254" lon="6.35841">
        <ele>1158.5999755859</ele>
        <time>2021-09-02T10:24:48Z</time>
      </trkpt>
      <trkpt lat="44.34242" lon="6.35844">
        <ele>1158.4000244141</ele>
        <time>2021-09-02T10:24:50Z</time>
      </trkpt>
      <trkpt lat="44.34225" lon="6.35847">
        <ele>1158.1999511719</ele>
        <time>2021-09-02T10:24:53Z</time>
      </trkpt>
      <trkpt lat="44.34212" lon="6.35845">
        <ele>1158</ele>
        <time>2021-09-02T10:24:55Z</time>
      </trkpt>
      <trkpt lat="44.34174" lon="6.35826">
        <ele>1157.4000244141</ele>
        <time>2021-09-02T10:25:01Z</time>
      </trkpt>
      <trkpt lat="44.34168" lon="6.35822">
        <ele>1157.1999511719</ele>
        <time>2021-09-02T10:25:02Z</time>
      </trkpt>
      <trkpt lat="44.34118" lon="6.35795">
        <ele>1156</ele>
        <time>2021-09-02T10:25:10Z</time>
      </trkpt>
      <trkpt lat="44.34112" lon="6.35792">
        <ele>1156</ele>
        <time>2021-09-02T10:25:11Z</time>
      </trkpt>
      <trkpt lat="44.3406" lon="6.35762">
        <ele>1155.4000244141</ele>
        <time>2021-09-02T10:25:20Z</time>
      </trkpt>
      <trkpt lat="44.34011" lon="6.35729">
        <ele>1155.1999511719</ele>
        <time>2021-09-02T10:25:29Z</time>
      </trkpt>
      <trkpt lat="44.33966" lon="6.35696">
        <ele>1155.1999511719</ele>
        <time>2021-09-02T10:25:38Z</time>
      </trkpt>
      <trkpt lat="44.33961" lon="6.35692">
        <ele>1155</ele>
        <time>2021-09-02T10:25:39Z</time>
      </trkpt>
      <trkpt lat="44.33941" lon="6.35677">
        <ele>1155</ele>
        <time>2021-09-02T10:25:43Z</time>
      </trkpt>
      <trkpt lat="44.33931" lon="6.35671">
        <ele>1155</ele>
        <time>2021-09-02T10:25:45Z</time>
      </trkpt>
      <trkpt lat="44.33889" lon="6.35635">
        <ele>1155.4000244141</ele>
        <time>2021-09-02T10:25:54Z</time>
      </trkpt>
      <trkpt lat="44.33847" lon="6.35588">
        <ele>1155</ele>
        <time>2021-09-02T10:26:03Z</time>
      </trkpt>
      <trkpt lat="44.33812" lon="6.35548">
        <ele>1155.4000244141</ele>
        <time>2021-09-02T10:26:11Z</time>
      </trkpt>
      <trkpt lat="44.33775" lon="6.35508">
        <ele>1155.8000488281</ele>
        <time>2021-09-02T10:26:20Z</time>
      </trkpt>
      <trkpt lat="44.33754" lon="6.35487">
        <ele>1156.1999511719</ele>
        <time>2021-09-02T10:26:25Z</time>
      </trkpt>
      <trkpt lat="44.33744" lon="6.35482">
        <ele>1156.4000244141</ele>
        <time>2021-09-02T10:26:27Z</time>
      </trkpt>
      <trkpt lat="44.33713" lon="6.35467">
        <ele>1157</ele>
        <time>2021-09-02T10:26:34Z</time>
      </trkpt>
      <trkpt lat="44.33706" lon="6.35463">
        <ele>1157.1999511719</ele>
        <time>2021-09-02T10:26:36Z</time>
      </trkpt>
      <trkpt lat="44.33698" lon="6.35462">
        <ele>1157.5999755859</ele>
        <time>2021-09-02T10:26:59Z</time>
      </trkpt>
      <trkpt lat="44.33695" lon="6.35459">
        <ele>1157.8000488281</ele>
        <time>2021-09-02T10:27:01Z</time>
      </trkpt>
      <trkpt lat="44.3369" lon="6.35454">
        <ele>1157.8000488281</ele>
        <time>2021-09-02T10:27:03Z</time>
      </trkpt>
      <trkpt lat="44.33681" lon="6.35449">
        <ele>1157.8000488281</ele>
        <time>2021-09-02T10:27:06Z</time>
      </trkpt>
      <trkpt lat="44.33667" lon="6.35433">
        <ele>1158.1999511719</ele>
        <time>2021-09-02T10:27:12Z</time>
      </trkpt>
      <trkpt lat="44.33667" lon="6.35433">
        <ele>1158.1999511719</ele>
        <time>2021-09-02T10:27:13Z</time>
      </trkpt>
      <trkpt lat="44.33667" lon="6.35432">
        <ele>1158.5999755859</ele>
        <time>2021-09-02T10:27:43Z</time>
      </trkpt>
      <trkpt lat="44.33666" lon="6.35431">
        <ele>1158.5999755859</ele>
        <time>2021-09-02T10:27:44Z</time>
      </trkpt>
      <trkpt lat="44.33658" lon="6.35419">
        <ele>1158.8000488281</ele>
        <time>2021-09-02T10:27:49Z</time>
      </trkpt>
      <trkpt lat="44.33645" lon="6.35401">
        <ele>1159.1999511719</ele>
        <time>2021-09-02T10:27:55Z</time>
      </trkpt>
      <trkpt lat="44.33643" lon="6.35397">
        <ele>1159.1999511719</ele>
        <time>2021-09-02T10:27:56Z</time>
      </trkpt>
      <trkpt lat="44.33629" lon="6.35376">
        <ele>1160</ele>
        <time>2021-09-02T10:28:02Z</time>
      </trkpt>
      <trkpt lat="44.33621" lon="6.35364">
        <ele>1160.4000244141</ele>
        <time>2021-09-02T10:28:05Z</time>
      </trkpt>
      <trkpt lat="44.33614" lon="6.35354">
        <ele>1160.4000244141</ele>
        <time>2021-09-02T10:28:07Z</time>
      </trkpt>
      <trkpt lat="44.3359" lon="6.35317">
        <ele>1159.5999755859</ele>
        <time>2021-09-02T10:28:13Z</time>
      </trkpt>
      <trkpt lat="44.33583" lon="6.35304">
        <ele>1159.4000244141</ele>
        <time>2021-09-02T10:28:15Z</time>
      </trkpt>
      <trkpt lat="44.33569" lon="6.35274">
        <ele>1159</ele>
        <time>2021-09-02T10:28:20Z</time>
      </trkpt>
      <trkpt lat="44.33557" lon="6.35251">
        <ele>1159.1999511719</ele>
        <time>2021-09-02T10:28:24Z</time>
      </trkpt>
      <trkpt lat="44.33548" lon="6.35229">
        <ele>1159.1999511719</ele>
        <time>2021-09-02T10:28:28Z</time>
      </trkpt>
      <trkpt lat="44.33532" lon="6.35197">
        <ele>1160</ele>
        <time>2021-09-02T10:28:35Z</time>
      </trkpt>
      <trkpt lat="44.33522" lon="6.35181">
        <ele>1160.4000244141</ele>
        <time>2021-09-02T10:28:39Z</time>
      </trkpt>
      <trkpt lat="44.33518" lon="6.35174">
        <ele>1160.5999755859</ele>
        <time>2021-09-02T10:28:41Z</time>
      </trkpt>
      <trkpt lat="44.33504" lon="6.35169">
        <ele>1161.1999511719</ele>
        <time>2021-09-02T10:28:46Z</time>
      </trkpt>
      <trkpt lat="44.33498" lon="6.35168">
        <ele>1161.5999755859</ele>
        <time>2021-09-02T10:28:48Z</time>
      </trkpt>
      <trkpt lat="44.33488" lon="6.35171">
        <ele>1162</ele>
        <time>2021-09-02T10:28:52Z</time>
      </trkpt>
      <trkpt lat="44.33477" lon="6.35176">
        <ele>1162.5999755859</ele>
        <time>2021-09-02T10:28:56Z</time>
      </trkpt>
      <trkpt lat="44.3347" lon="6.3518">
        <ele>1163</ele>
        <time>2021-09-02T10:28:59Z</time>
      </trkpt>
      <trkpt lat="44.33455" lon="6.3518">
        <ele>1163.5999755859</ele>
        <time>2021-09-02T10:29:05Z</time>
      </trkpt>
      <trkpt lat="44.3344" lon="6.35175">
        <ele>1164.1999511719</ele>
        <time>2021-09-02T10:29:11Z</time>
      </trkpt>
      <trkpt lat="44.3343" lon="6.35171">
        <ele>1164.8000488281</ele>
        <time>2021-09-02T10:29:15Z</time>
      </trkpt>
      <trkpt lat="44.33427" lon="6.3517">
        <ele>1164.8000488281</ele>
        <time>2021-09-02T10:29:16Z</time>
      </trkpt>
      <trkpt lat="44.33425" lon="6.35169">
        <ele>1165</ele>
        <time>2021-09-02T10:29:17Z</time>
      </trkpt>
      <trkpt lat="44.33414" lon="6.3517">
        <ele>1165.4000244141</ele>
        <time>2021-09-02T10:29:21Z</time>
      </trkpt>
      <trkpt lat="44.33402" lon="6.35168">
        <ele>1165.8000488281</ele>
        <time>2021-09-02T10:29:25Z</time>
      </trkpt>
      <trkpt lat="44.33396" lon="6.35165">
        <ele>1165.8000488281</ele>
        <time>2021-09-02T10:29:27Z</time>
      </trkpt>
      <trkpt lat="44.33372" lon="6.35155">
        <ele>1166</ele>
        <time>2021-09-02T10:29:35Z</time>
      </trkpt>
      <trkpt lat="44.33349" lon="6.35147">
        <ele>1166.1999511719</ele>
        <time>2021-09-02T10:29:43Z</time>
      </trkpt>
      <trkpt lat="44.33337" lon="6.35144">
        <ele>1166.8000488281</ele>
        <time>2021-09-02T10:29:47Z</time>
      </trkpt>
      <trkpt lat="44.33325" lon="6.3514">
        <ele>1167</ele>
        <time>2021-09-02T10:29:51Z</time>
      </trkpt>
      <trkpt lat="44.33308" lon="6.3514">
        <ele>1167.8000488281</ele>
        <time>2021-09-02T10:29:57Z</time>
      </trkpt>
      <trkpt lat="44.33305" lon="6.3514">
        <ele>1168</ele>
        <time>2021-09-02T10:29:58Z</time>
      </trkpt>
      <trkpt lat="44.33281" lon="6.35138">
        <ele>1168.8000488281</ele>
        <time>2021-09-02T10:30:07Z</time>
      </trkpt>
      <trkpt lat="44.33278" lon="6.35138">
        <ele>1169.1999511719</ele>
        <time>2021-09-02T10:30:08Z</time>
      </trkpt>
      <trkpt lat="44.33262" lon="6.35137">
        <ele>1170</ele>
        <time>2021-09-02T10:30:15Z</time>
      </trkpt>
      <trkpt lat="44.3326" lon="6.35137">
        <ele>1170</ele>
        <time>2021-09-02T10:30:16Z</time>
      </trkpt>
      <trkpt lat="44.33243" lon="6.35136">
        <ele>1171</ele>
        <time>2021-09-02T10:30:24Z</time>
      </trkpt>
      <trkpt lat="44.33228" lon="6.35131">
        <ele>1172</ele>
        <time>2021-09-02T10:30:31Z</time>
      </trkpt>
      <trkpt lat="44.33227" lon="6.3513">
        <ele>1172.1999511719</ele>
        <time>2021-09-02T10:30:32Z</time>
      </trkpt>
      <trkpt lat="44.33213" lon="6.35124">
        <ele>1173</ele>
        <time>2021-09-02T10:30:39Z</time>
      </trkpt>
      <trkpt lat="44.33209" lon="6.35124">
        <ele>1173.4000244141</ele>
        <time>2021-09-02T10:30:41Z</time>
      </trkpt>
      <trkpt lat="44.33197" lon="6.3512">
        <ele>1174.4000244141</ele>
        <time>2021-09-02T10:30:48Z</time>
      </trkpt>
      <trkpt lat="44.33195" lon="6.35119">
        <ele>1174.5999755859</ele>
        <time>2021-09-02T10:30:49Z</time>
      </trkpt>
      <trkpt lat="44.33186" lon="6.35119">
        <ele>1175.1999511719</ele>
        <time>2021-09-02T10:30:54Z</time>
      </trkpt>
      <trkpt lat="44.33182" lon="6.35117">
        <ele>1175.5999755859</ele>
        <time>2021-09-02T10:30:56Z</time>
      </trkpt>
      <trkpt lat="44.33176" lon="6.35116">
        <ele>1176.1999511719</ele>
        <time>2021-09-02T10:31:00Z</time>
      </trkpt>
      <trkpt lat="44.33169" lon="6.35113">
        <ele>1176.5999755859</ele>
        <time>2021-09-02T10:31:04Z</time>
      </trkpt>
      <trkpt lat="44.33166" lon="6.3511">
        <ele>1177</ele>
        <time>2021-09-02T10:31:06Z</time>
      </trkpt>
      <trkpt lat="44.33163" lon="6.35096">
        <ele>1177.8000488281</ele>
        <time>2021-09-02T10:31:12Z</time>
      </trkpt>
      <trkpt lat="44.33162" lon="6.35093">
        <ele>1178</ele>
        <time>2021-09-02T10:31:13Z</time>
      </trkpt>
      <trkpt lat="44.33161" lon="6.35079">
        <ele>1179</ele>
        <time>2021-09-02T10:31:19Z</time>
      </trkpt>
      <trkpt lat="44.33162" lon="6.35077">
        <ele>1179.1999511719</ele>
        <time>2021-09-02T10:31:20Z</time>
      </trkpt>
      <trkpt lat="44.33162" lon="6.35068">
        <ele>1179.8000488281</ele>
        <time>2021-09-02T10:31:24Z</time>
      </trkpt>
      <trkpt lat="44.33164" lon="6.35064">
        <ele>1180.1999511719</ele>
        <time>2021-09-02T10:31:26Z</time>
      </trkpt>
      <trkpt lat="44.33166" lon="6.3505">
        <ele>1180.8000488281</ele>
        <time>2021-09-02T10:31:32Z</time>
      </trkpt>
      <trkpt lat="44.33167" lon="6.35045">
        <ele>1181.1999511719</ele>
        <time>2021-09-02T10:31:34Z</time>
      </trkpt>
      <trkpt lat="44.3317" lon="6.35029">
        <ele>1181.5999755859</ele>
        <time>2021-09-02T10:31:40Z</time>
      </trkpt>
      <trkpt lat="44.33176" lon="6.3501">
        <ele>1182.1999511719</ele>
        <time>2021-09-02T10:31:47Z</time>
      </trkpt>
      <trkpt lat="44.33181" lon="6.34989">
        <ele>1182.5999755859</ele>
        <time>2021-09-02T10:31:53Z</time>
      </trkpt>
      <trkpt lat="44.33192" lon="6.34961">
        <ele>1182.8000488281</ele>
        <time>2021-09-02T10:32:01Z</time>
      </trkpt>
      <trkpt lat="44.33207" lon="6.34933">
        <ele>1183</ele>
        <time>2021-09-02T10:32:09Z</time>
      </trkpt>
      <trkpt lat="44.33217" lon="6.34923">
        <ele>1183.1999511719</ele>
        <time>2021-09-02T10:32:12Z</time>
      </trkpt>
      <trkpt lat="44.33227" lon="6.34914">
        <ele>1183.1999511719</ele>
        <time>2021-09-02T10:32:15Z</time>
      </trkpt>
      <trkpt lat="44.33259" lon="6.34891">
        <ele>1183.4000244141</ele>
        <time>2021-09-02T10:32:24Z</time>
      </trkpt>
      <trkpt lat="44.33285" lon="6.34873">
        <ele>1183.4000244141</ele>
        <time>2021-09-02T10:32:31Z</time>
      </trkpt>
      <trkpt lat="44.33314" lon="6.34844">
        <ele>1183.5999755859</ele>
        <time>2021-09-02T10:32:39Z</time>
      </trkpt>
      <trkpt lat="44.33337" lon="6.34819">
        <ele>1183.4000244141</ele>
        <time>2021-09-02T10:32:46Z</time>
      </trkpt>
      <trkpt lat="44.33349" lon="6.34802">
        <ele>1183.4000244141</ele>
        <time>2021-09-02T10:32:50Z</time>
      </trkpt>
      <trkpt lat="44.33354" lon="6.34795">
        <ele>1183.4000244141</ele>
        <time>2021-09-02T10:32:52Z</time>
      </trkpt>
      <trkpt lat="44.33373" lon="6.34773">
        <ele>1184</ele>
        <time>2021-09-02T10:32:59Z</time>
      </trkpt>
      <trkpt lat="44.33375" lon="6.3477">
        <ele>1184.1999511719</ele>
        <time>2021-09-02T10:33:00Z</time>
      </trkpt>
      <trkpt lat="44.33387" lon="6.34758">
        <ele>1184.5999755859</ele>
        <time>2021-09-02T10:33:05Z</time>
      </trkpt>
      <trkpt lat="44.33393" lon="6.34744">
        <ele>1185.1999511719</ele>
        <time>2021-09-02T10:33:10Z</time>
      </trkpt>
      <trkpt lat="44.33394" lon="6.34741">
        <ele>1185.4000244141</ele>
        <time>2021-09-02T10:33:11Z</time>
      </trkpt>
      <trkpt lat="44.33397" lon="6.34724">
        <ele>1186.1999511719</ele>
        <time>2021-09-02T10:33:18Z</time>
      </trkpt>
      <trkpt lat="44.33397" lon="6.34722">
        <ele>1186.4000244141</ele>
        <time>2021-09-02T10:33:19Z</time>
      </trkpt>
      <trkpt lat="44.33404" lon="6.34709">
        <ele>1187.1999511719</ele>
        <time>2021-09-02T10:33:25Z</time>
      </trkpt>
      <trkpt lat="44.33405" lon="6.34708">
        <ele>1187.4000244141</ele>
        <time>2021-09-02T10:33:26Z</time>
      </trkpt>
      <trkpt lat="44.33412" lon="6.34698">
        <ele>1188.4000244141</ele>
        <time>2021-09-02T10:33:32Z</time>
      </trkpt>
      <trkpt lat="44.33417" lon="6.34686">
        <ele>1189.5999755859</ele>
        <time>2021-09-02T10:33:38Z</time>
      </trkpt>
      <trkpt lat="44.33418" lon="6.34681">
        <ele>1189.8000488281</ele>
        <time>2021-09-02T10:33:40Z</time>
      </trkpt>
      <trkpt lat="44.33421" lon="6.34673">
        <ele>1190.5999755859</ele>
        <time>2021-09-02T10:33:44Z</time>
      </trkpt>
      <trkpt lat="44.33423" lon="6.34666">
        <ele>1191.1999511719</ele>
        <time>2021-09-02T10:33:48Z</time>
      </trkpt>
      <trkpt lat="44.33425" lon="6.3466">
        <ele>1191.5999755859</ele>
        <time>2021-09-02T10:33:51Z</time>
      </trkpt>
      <trkpt lat="44.3343" lon="6.34649">
        <ele>1192.5999755859</ele>
        <time>2021-09-02T10:33:57Z</time>
      </trkpt>
      <trkpt lat="44.33431" lon="6.34647">
        <ele>1192.8000488281</ele>
        <time>2021-09-02T10:33:58Z</time>
      </trkpt>
      <trkpt lat="44.33434" lon="6.34636">
        <ele>1193.8000488281</ele>
        <time>2021-09-02T10:34:04Z</time>
      </trkpt>
      <trkpt lat="44.33435" lon="6.34634">
        <ele>1193.8000488281</ele>
        <time>2021-09-02T10:34:05Z</time>
      </trkpt>
      <trkpt lat="44.33439" lon="6.34624">
        <ele>1194.8000488281</ele>
        <time>2021-09-02T10:34:10Z</time>
      </trkpt>
      <trkpt lat="44.33439" lon="6.34622">
        <ele>1195</ele>
        <time>2021-09-02T10:34:11Z</time>
      </trkpt>
      <trkpt lat="44.33444" lon="6.34607">
        <ele>1195.8000488281</ele>
        <time>2021-09-02T10:34:18Z</time>
      </trkpt>
      <trkpt lat="44.33446" lon="6.34598">
        <ele>1196.8000488281</ele>
        <time>2021-09-02T10:34:23Z</time>
      </trkpt>
      <trkpt lat="44.33446" lon="6.34596">
        <ele>1196.8000488281</ele>
        <time>2021-09-02T10:34:24Z</time>
      </trkpt>
      <trkpt lat="44.33447" lon="6.34594">
        <ele>1197</ele>
        <time>2021-09-02T10:34:25Z</time>
      </trkpt>
      <trkpt lat="44.33448" lon="6.34589">
        <ele>1197.4000244141</ele>
        <time>2021-09-02T10:34:27Z</time>
      </trkpt>
      <trkpt lat="44.33449" lon="6.34585">
        <ele>1197.8000488281</ele>
        <time>2021-09-02T10:34:30Z</time>
      </trkpt>
      <trkpt lat="44.33449" lon="6.34583">
        <ele>1198</ele>
        <time>2021-09-02T10:34:31Z</time>
      </trkpt>
      <trkpt lat="44.33453" lon="6.34572">
        <ele>1199</ele>
        <time>2021-09-02T10:34:37Z</time>
      </trkpt>
      <trkpt lat="44.33453" lon="6.3457">
        <ele>1199.1999511719</ele>
        <time>2021-09-02T10:34:38Z</time>
      </trkpt>
      <trkpt lat="44.33453" lon="6.34568">
        <ele>1199.4000244141</ele>
        <time>2021-09-02T10:34:39Z</time>
      </trkpt>
      <trkpt lat="44.33455" lon="6.34559">
        <ele>1200.1999511719</ele>
        <time>2021-09-02T10:34:44Z</time>
      </trkpt>
      <trkpt lat="44.33455" lon="6.34552">
        <ele>1200.5999755859</ele>
        <time>2021-09-02T10:34:47Z</time>
      </trkpt>
      <trkpt lat="44.33457" lon="6.34545">
        <ele>1201.1999511719</ele>
        <time>2021-09-02T10:34:51Z</time>
      </trkpt>
      <trkpt lat="44.33459" lon="6.34534">
        <ele>1202.1999511719</ele>
        <time>2021-09-02T10:34:57Z</time>
      </trkpt>
      <trkpt lat="44.3346" lon="6.34532">
        <ele>1202.4000244141</ele>
        <time>2021-09-02T10:34:58Z</time>
      </trkpt>
      <trkpt lat="44.33465" lon="6.34522">
        <ele>1203.1999511719</ele>
        <time>2021-09-02T10:35:04Z</time>
      </trkpt>
      <trkpt lat="44.33466" lon="6.3452">
        <ele>1203.4000244141</ele>
        <time>2021-09-02T10:35:05Z</time>
      </trkpt>
      <trkpt lat="44.33471" lon="6.34508">
        <ele>1204.4000244141</ele>
        <time>2021-09-02T10:35:11Z</time>
      </trkpt>
      <trkpt lat="44.33472" lon="6.34506">
        <ele>1204.4000244141</ele>
        <time>2021-09-02T10:35:12Z</time>
      </trkpt>
      <trkpt lat="44.33476" lon="6.34496">
        <ele>1205</ele>
        <time>2021-09-02T10:35:17Z</time>
      </trkpt>
      <trkpt lat="44.33478" lon="6.34493">
        <ele>1205.4000244141</ele>
        <time>2021-09-02T10:35:19Z</time>
      </trkpt>
      <trkpt lat="44.33479" lon="6.34491">
        <ele>1205.5999755859</ele>
        <time>2021-09-02T10:35:20Z</time>
      </trkpt>
      <trkpt lat="44.33483" lon="6.34478">
        <ele>1206.1999511719</ele>
        <time>2021-09-02T10:35:27Z</time>
      </trkpt>
      <trkpt lat="44.33484" lon="6.34473">
        <ele>1206.5999755859</ele>
        <time>2021-09-02T10:35:29Z</time>
      </trkpt>
      <trkpt lat="44.33486" lon="6.34457">
        <ele>1207.1999511719</ele>
        <time>2021-09-02T10:35:35Z</time>
      </trkpt>
      <trkpt lat="44.33485" lon="6.34448">
        <ele>1207.5999755859</ele>
        <time>2021-09-02T10:35:39Z</time>
      </trkpt>
      <trkpt lat="44.33482" lon="6.34445">
        <ele>1208</ele>
        <time>2021-09-02T10:35:42Z</time>
      </trkpt>
      <trkpt lat="44.33477" lon="6.34445">
        <ele>1208.8000488281</ele>
        <time>2021-09-02T10:35:46Z</time>
      </trkpt>
      <trkpt lat="44.33475" lon="6.34445">
        <ele>1209</ele>
        <time>2021-09-02T10:35:47Z</time>
      </trkpt>
      <trkpt lat="44.33471" lon="6.34453">
        <ele>1209.8000488281</ele>
        <time>2021-09-02T10:35:52Z</time>
      </trkpt>
      <trkpt lat="44.33471" lon="6.34455">
        <ele>1209.8000488281</ele>
        <time>2021-09-02T10:35:53Z</time>
      </trkpt>
      <trkpt lat="44.3347" lon="6.34465">
        <ele>1210.4000244141</ele>
        <time>2021-09-02T10:35:58Z</time>
      </trkpt>
      <trkpt lat="44.33469" lon="6.34468">
        <ele>1210.5999755859</ele>
        <time>2021-09-02T10:36:00Z</time>
      </trkpt>
      <trkpt lat="44.33468" lon="6.34472">
        <ele>1210.8000488281</ele>
        <time>2021-09-02T10:36:02Z</time>
      </trkpt>
      <trkpt lat="44.33464" lon="6.34477">
        <ele>1211.1999511719</ele>
        <time>2021-09-02T10:36:05Z</time>
      </trkpt>
      <trkpt lat="44.33459" lon="6.34481">
        <ele>1211.8000488281</ele>
        <time>2021-09-02T10:36:09Z</time>
      </trkpt>
      <trkpt lat="44.33455" lon="6.34488">
        <ele>1212.5999755859</ele>
        <time>2021-09-02T10:36:14Z</time>
      </trkpt>
      <trkpt lat="44.33453" lon="6.3449">
        <ele>1213</ele>
        <time>2021-09-02T10:36:16Z</time>
      </trkpt>
      <trkpt lat="44.33449" lon="6.34495">
        <ele>1213.5999755859</ele>
        <time>2021-09-02T10:36:20Z</time>
      </trkpt>
      <trkpt lat="44.33444" lon="6.345">
        <ele>1214</ele>
        <time>2021-09-02T10:36:24Z</time>
      </trkpt>
      <trkpt lat="44.33436" lon="6.34508">
        <ele>1214.8000488281</ele>
        <time>2021-09-02T10:36:30Z</time>
      </trkpt>
      <trkpt lat="44.33433" lon="6.3451">
        <ele>1215.1999511719</ele>
        <time>2021-09-02T10:36:32Z</time>
      </trkpt>
      <trkpt lat="44.33425" lon="6.34521">
        <ele>1216.1999511719</ele>
        <time>2021-09-02T10:36:39Z</time>
      </trkpt>
      <trkpt lat="44.33424" lon="6.34522">
        <ele>1216.4000244141</ele>
        <time>2021-09-02T10:36:40Z</time>
      </trkpt>
      <trkpt lat="44.33417" lon="6.34526">
        <ele>1217.4000244141</ele>
        <time>2021-09-02T10:36:45Z</time>
      </trkpt>
      <trkpt lat="44.33414" lon="6.3453">
        <ele>1217.5999755859</ele>
        <time>2021-09-02T10:36:47Z</time>
      </trkpt>
      <trkpt lat="44.33408" lon="6.34535">
        <ele>1218.5999755859</ele>
        <time>2021-09-02T10:36:52Z</time>
      </trkpt>
      <trkpt lat="44.33404" lon="6.34538">
        <ele>1218.8000488281</ele>
        <time>2021-09-02T10:36:55Z</time>
      </trkpt>
      <trkpt lat="44.33398" lon="6.34541">
        <ele>1219.5999755859</ele>
        <time>2021-09-02T10:36:59Z</time>
      </trkpt>
      <trkpt lat="44.33391" lon="6.34544">
        <ele>1220.1999511719</ele>
        <time>2021-09-02T10:37:04Z</time>
      </trkpt>
      <trkpt lat="44.33388" lon="6.34546">
        <ele>1220.5999755859</ele>
        <time>2021-09-02T10:37:06Z</time>
      </trkpt>
      <trkpt lat="44.33377" lon="6.34553">
        <ele>1221.8000488281</ele>
        <time>2021-09-02T10:37:14Z</time>
      </trkpt>
      <trkpt lat="44.33371" lon="6.34559">
        <ele>1222.8000488281</ele>
        <time>2021-09-02T10:37:20Z</time>
      </trkpt>
      <trkpt lat="44.33368" lon="6.34561">
        <ele>1223</ele>
        <time>2021-09-02T10:37:22Z</time>
      </trkpt>
      <trkpt lat="44.33363" lon="6.34567">
        <ele>1224</ele>
        <time>2021-09-02T10:37:27Z</time>
      </trkpt>
      <trkpt lat="44.33361" lon="6.3457">
        <ele>1224.4000244141</ele>
        <time>2021-09-02T10:37:30Z</time>
      </trkpt>
      <trkpt lat="44.33354" lon="6.34578">
        <ele>1225</ele>
        <time>2021-09-02T10:37:35Z</time>
      </trkpt>
      <trkpt lat="44.33353" lon="6.3458">
        <ele>1225.1999511719</ele>
        <time>2021-09-02T10:37:36Z</time>
      </trkpt>
      <trkpt lat="44.33341" lon="6.3459">
        <ele>1226.1999511719</ele>
        <time>2021-09-02T10:37:43Z</time>
      </trkpt>
      <trkpt lat="44.3333" lon="6.34597">
        <ele>1227.1999511719</ele>
        <time>2021-09-02T10:37:50Z</time>
      </trkpt>
      <trkpt lat="44.33319" lon="6.346">
        <ele>1228.1999511719</ele>
        <time>2021-09-02T10:37:58Z</time>
      </trkpt>
      <trkpt lat="44.33309" lon="6.34605">
        <ele>1229.1999511719</ele>
        <time>2021-09-02T10:38:05Z</time>
      </trkpt>
      <trkpt lat="44.33308" lon="6.34606">
        <ele>1229.4000244141</ele>
        <time>2021-09-02T10:38:06Z</time>
      </trkpt>
      <trkpt lat="44.33305" lon="6.34615">
        <ele>1230.1999511719</ele>
        <time>2021-09-02T10:38:11Z</time>
      </trkpt>
      <trkpt lat="44.33304" lon="6.34618">
        <ele>1230.4000244141</ele>
        <time>2021-09-02T10:38:13Z</time>
      </trkpt>
      <trkpt lat="44.33303" lon="6.3462">
        <ele>1230.5999755859</ele>
        <time>2021-09-02T10:38:14Z</time>
      </trkpt>
      <trkpt lat="44.33301" lon="6.34626">
        <ele>1231.1999511719</ele>
        <time>2021-09-02T10:38:17Z</time>
      </trkpt>
      <trkpt lat="44.333" lon="6.34628">
        <ele>1231.4000244141</ele>
        <time>2021-09-02T10:38:18Z</time>
      </trkpt>
      <trkpt lat="44.33295" lon="6.34639">
        <ele>1232.1999511719</ele>
        <time>2021-09-02T10:38:24Z</time>
      </trkpt>
      <trkpt lat="44.33292" lon="6.34642">
        <ele>1232.4000244141</ele>
        <time>2021-09-02T10:38:26Z</time>
      </trkpt>
      <trkpt lat="44.33284" lon="6.34648">
        <ele>1233.4000244141</ele>
        <time>2021-09-02T10:38:32Z</time>
      </trkpt>
      <trkpt lat="44.33283" lon="6.34649">
        <ele>1233.5999755859</ele>
        <time>2021-09-02T10:38:33Z</time>
      </trkpt>
      <trkpt lat="44.33276" lon="6.34656">
        <ele>1234.5999755859</ele>
        <time>2021-09-02T10:38:39Z</time>
      </trkpt>
      <trkpt lat="44.33274" lon="6.34659">
        <ele>1234.8000488281</ele>
        <time>2021-09-02T10:38:41Z</time>
      </trkpt>
      <trkpt lat="44.33268" lon="6.34666">
        <ele>1235.5999755859</ele>
        <time>2021-09-02T10:38:46Z</time>
      </trkpt>
      <trkpt lat="44.33266" lon="6.34669">
        <ele>1236</ele>
        <time>2021-09-02T10:38:48Z</time>
      </trkpt>
      <trkpt lat="44.3326" lon="6.34673">
        <ele>1236.5999755859</ele>
        <time>2021-09-02T10:38:52Z</time>
      </trkpt>
      <trkpt lat="44.33255" lon="6.34677">
        <ele>1237</ele>
        <time>2021-09-02T10:38:56Z</time>
      </trkpt>
      <trkpt lat="44.3325" lon="6.34682">
        <ele>1237.5999755859</ele>
        <time>2021-09-02T10:38:59Z</time>
      </trkpt>
      <trkpt lat="44.33246" lon="6.34686">
        <ele>1238</ele>
        <time>2021-09-02T10:39:02Z</time>
      </trkpt>
      <trkpt lat="44.33241" lon="6.34691">
        <ele>1238.8000488281</ele>
        <time>2021-09-02T10:39:06Z</time>
      </trkpt>
      <trkpt lat="44.33237" lon="6.34691">
        <ele>1239.1999511719</ele>
        <time>2021-09-02T10:39:09Z</time>
      </trkpt>
      <trkpt lat="44.33236" lon="6.3469">
        <ele>1239.1999511719</ele>
        <time>2021-09-02T10:39:10Z</time>
      </trkpt>
      <trkpt lat="44.33233" lon="6.34688">
        <ele>1239.5999755859</ele>
        <time>2021-09-02T10:39:12Z</time>
      </trkpt>
      <trkpt lat="44.33231" lon="6.34679">
        <ele>1240.1999511719</ele>
        <time>2021-09-02T10:39:16Z</time>
      </trkpt>
      <trkpt lat="44.33231" lon="6.34677">
        <ele>1240.4000244141</ele>
        <time>2021-09-02T10:39:17Z</time>
      </trkpt>
      <trkpt lat="44.33232" lon="6.34675">
        <ele>1240.4000244141</ele>
        <time>2021-09-02T10:39:18Z</time>
      </trkpt>
      <trkpt lat="44.33238" lon="6.34664">
        <ele>1241.1999511719</ele>
        <time>2021-09-02T10:39:24Z</time>
      </trkpt>
      <trkpt lat="44.33239" lon="6.34662">
        <ele>1241.4000244141</ele>
        <time>2021-09-02T10:39:25Z</time>
      </trkpt>
      <trkpt lat="44.33246" lon="6.34654">
        <ele>1242</ele>
        <time>2021-09-02T10:39:31Z</time>
      </trkpt>
      <trkpt lat="44.33248" lon="6.34652">
        <ele>1242.1999511719</ele>
        <time>2021-09-02T10:39:32Z</time>
      </trkpt>
      <trkpt lat="44.3325" lon="6.34648">
        <ele>1242.4000244141</ele>
        <time>2021-09-02T10:39:34Z</time>
      </trkpt>
      <trkpt lat="44.33255" lon="6.34639">
        <ele>1243</ele>
        <time>2021-09-02T10:39:39Z</time>
      </trkpt>
      <trkpt lat="44.3326" lon="6.34631">
        <ele>1243.4000244141</ele>
        <time>2021-09-02T10:39:44Z</time>
      </trkpt>
      <trkpt lat="44.33262" lon="6.34626">
        <ele>1243.8000488281</ele>
        <time>2021-09-02T10:39:46Z</time>
      </trkpt>
      <trkpt lat="44.33267" lon="6.34612">
        <ele>1244.4000244141</ele>
        <time>2021-09-02T10:39:53Z</time>
      </trkpt>
      <trkpt lat="44.33271" lon="6.34599">
        <ele>1245.1999511719</ele>
        <time>2021-09-02T10:39:59Z</time>
      </trkpt>
      <trkpt lat="44.33272" lon="6.34594">
        <ele>1245.4000244141</ele>
        <time>2021-09-02T10:40:01Z</time>
      </trkpt>
      <trkpt lat="44.33273" lon="6.3459">
        <ele>1245.5999755859</ele>
        <time>2021-09-02T10:40:03Z</time>
      </trkpt>
      <trkpt lat="44.33273" lon="6.34588">
        <ele>1245.8000488281</ele>
        <time>2021-09-02T10:40:04Z</time>
      </trkpt>
      <trkpt lat="44.33273" lon="6.34586">
        <ele>1245.8000488281</ele>
        <time>2021-09-02T10:40:05Z</time>
      </trkpt>
      <trkpt lat="44.33275" lon="6.34572">
        <ele>1246.5999755859</ele>
        <time>2021-09-02T10:40:10Z</time>
      </trkpt>
      <trkpt lat="44.33276" lon="6.34569">
        <ele>1246.8000488281</ele>
        <time>2021-09-02T10:40:11Z</time>
      </trkpt>
      <trkpt lat="44.33278" lon="6.34563">
        <ele>1247</ele>
        <time>2021-09-02T10:40:14Z</time>
      </trkpt>
      <trkpt lat="44.33283" lon="6.3456">
        <ele>1247.1999511719</ele>
        <time>2021-09-02T10:40:17Z</time>
      </trkpt>
      <trkpt lat="44.33287" lon="6.34557">
        <ele>1247.5999755859</ele>
        <time>2021-09-02T10:40:20Z</time>
      </trkpt>
      <trkpt lat="44.33288" lon="6.34556">
        <ele>1247.8000488281</ele>
        <time>2021-09-02T10:40:21Z</time>
      </trkpt>
      <trkpt lat="44.33292" lon="6.34552">
        <ele>1248.1999511719</ele>
        <time>2021-09-02T10:40:24Z</time>
      </trkpt>
      <trkpt lat="44.33297" lon="6.34545">
        <ele>1248.8000488281</ele>
        <time>2021-09-02T10:40:28Z</time>
      </trkpt>
      <trkpt lat="44.33301" lon="6.34539">
        <ele>1249</ele>
        <time>2021-09-02T10:40:31Z</time>
      </trkpt>
      <trkpt lat="44.33306" lon="6.34522">
        <ele>1249.8000488281</ele>
        <time>2021-09-02T10:40:38Z</time>
      </trkpt>
      <trkpt lat="44.3331" lon="6.34509">
        <ele>1250.5999755859</ele>
        <time>2021-09-02T10:40:44Z</time>
      </trkpt>
      <trkpt lat="44.33312" lon="6.34505">
        <ele>1250.8000488281</ele>
        <time>2021-09-02T10:40:46Z</time>
      </trkpt>
      <trkpt lat="44.33313" lon="6.34501">
        <ele>1251</ele>
        <time>2021-09-02T10:40:48Z</time>
      </trkpt>
      <trkpt lat="44.33316" lon="6.34493">
        <ele>1251.4000244141</ele>
        <time>2021-09-02T10:40:51Z</time>
      </trkpt>
      <trkpt lat="44.33319" lon="6.34484">
        <ele>1252</ele>
        <time>2021-09-02T10:40:55Z</time>
      </trkpt>
      <trkpt lat="44.33321" lon="6.34477">
        <ele>1252.5999755859</ele>
        <time>2021-09-02T10:40:58Z</time>
      </trkpt>
      <trkpt lat="44.33324" lon="6.34462">
        <ele>1253</ele>
        <time>2021-09-02T10:41:03Z</time>
      </trkpt>
      <trkpt lat="44.33327" lon="6.34452">
        <ele>1253.4000244141</ele>
        <time>2021-09-02T10:41:06Z</time>
      </trkpt>
      <trkpt lat="44.33334" lon="6.34431">
        <ele>1254</ele>
        <time>2021-09-02T10:41:13Z</time>
      </trkpt>
      <trkpt lat="44.33335" lon="6.34428">
        <ele>1254</ele>
        <time>2021-09-02T10:41:14Z</time>
      </trkpt>
      <trkpt lat="44.33341" lon="6.34413">
        <ele>1254.5999755859</ele>
        <time>2021-09-02T10:41:19Z</time>
      </trkpt>
      <trkpt lat="44.33345" lon="6.344">
        <ele>1255</ele>
        <time>2021-09-02T10:41:23Z</time>
      </trkpt>
      <trkpt lat="44.33346" lon="6.34397">
        <ele>1255.1999511719</ele>
        <time>2021-09-02T10:41:24Z</time>
      </trkpt>
      <trkpt lat="44.33354" lon="6.34384">
        <ele>1255.8000488281</ele>
        <time>2021-09-02T10:41:29Z</time>
      </trkpt>
      <trkpt lat="44.33357" lon="6.34376">
        <ele>1256</ele>
        <time>2021-09-02T10:41:32Z</time>
      </trkpt>
      <trkpt lat="44.33362" lon="6.34366">
        <ele>1256.5999755859</ele>
        <time>2021-09-02T10:41:36Z</time>
      </trkpt>
      <trkpt lat="44.33369" lon="6.34355">
        <ele>1257.1999511719</ele>
        <time>2021-09-02T10:41:41Z</time>
      </trkpt>
      <trkpt lat="44.3337" lon="6.34352">
        <ele>1257.4000244141</ele>
        <time>2021-09-02T10:41:42Z</time>
      </trkpt>
      <trkpt lat="44.33375" lon="6.34343">
        <ele>1258</ele>
        <time>2021-09-02T10:41:46Z</time>
      </trkpt>
      <trkpt lat="44.33378" lon="6.3434">
        <ele>1258.1999511719</ele>
        <time>2021-09-02T10:41:48Z</time>
      </trkpt>
      <trkpt lat="44.33385" lon="6.34335">
        <ele>1258.5999755859</ele>
        <time>2021-09-02T10:41:52Z</time>
      </trkpt>
      <trkpt lat="44.3339" lon="6.3433">
        <ele>1259</ele>
        <time>2021-09-02T10:41:56Z</time>
      </trkpt>
      <trkpt lat="44.33392" lon="6.34328">
        <ele>1259.1999511719</ele>
        <time>2021-09-02T10:41:58Z</time>
      </trkpt>
      <trkpt lat="44.33393" lon="6.34327">
        <ele>1259.4000244141</ele>
        <time>2021-09-02T10:41:59Z</time>
      </trkpt>
      <trkpt lat="44.33399" lon="6.34316">
        <ele>1260.4000244141</ele>
        <time>2021-09-02T10:42:05Z</time>
      </trkpt>
      <trkpt lat="44.334" lon="6.34313">
        <ele>1260.4000244141</ele>
        <time>2021-09-02T10:42:06Z</time>
      </trkpt>
      <trkpt lat="44.33406" lon="6.34296">
        <ele>1261.5999755859</ele>
        <time>2021-09-02T10:42:12Z</time>
      </trkpt>
      <trkpt lat="44.33414" lon="6.34283">
        <ele>1262.5999755859</ele>
        <time>2021-09-02T10:42:19Z</time>
      </trkpt>
      <trkpt lat="44.33415" lon="6.34282">
        <ele>1262.8000488281</ele>
        <time>2021-09-02T10:42:20Z</time>
      </trkpt>
      <trkpt lat="44.33423" lon="6.34275">
        <ele>1263.5999755859</ele>
        <time>2021-09-02T10:42:26Z</time>
      </trkpt>
      <trkpt lat="44.33424" lon="6.34274">
        <ele>1263.8000488281</ele>
        <time>2021-09-02T10:42:27Z</time>
      </trkpt>
      <trkpt lat="44.33425" lon="6.34267">
        <ele>1264.5999755859</ele>
        <time>2021-09-02T10:42:31Z</time>
      </trkpt>
      <trkpt lat="44.33425" lon="6.34265">
        <ele>1264.8000488281</ele>
        <time>2021-09-02T10:42:32Z</time>
      </trkpt>
      <trkpt lat="44.33424" lon="6.34255">
        <ele>1265.8000488281</ele>
        <time>2021-09-02T10:42:37Z</time>
      </trkpt>
      <trkpt lat="44.33423" lon="6.34249">
        <ele>1266.1999511719</ele>
        <time>2021-09-02T10:42:40Z</time>
      </trkpt>
      <trkpt lat="44.33423" lon="6.3424">
        <ele>1267</ele>
        <time>2021-09-02T10:42:44Z</time>
      </trkpt>
      <trkpt lat="44.33422" lon="6.34236">
        <ele>1267.4000244141</ele>
        <time>2021-09-02T10:42:46Z</time>
      </trkpt>
      <trkpt lat="44.33421" lon="6.3423">
        <ele>1267.8000488281</ele>
        <time>2021-09-02T10:42:49Z</time>
      </trkpt>
      <trkpt lat="44.3342" lon="6.34226">
        <ele>1268.1999511719</ele>
        <time>2021-09-02T10:42:51Z</time>
      </trkpt>
      <trkpt lat="44.33419" lon="6.34225">
        <ele>1268.4000244141</ele>
        <time>2021-09-02T10:42:52Z</time>
      </trkpt>
      <trkpt lat="44.33421" lon="6.34215">
        <ele>1269.4000244141</ele>
        <time>2021-09-02T10:42:57Z</time>
      </trkpt>
      <trkpt lat="44.3342" lon="6.34209">
        <ele>1269.8000488281</ele>
        <time>2021-09-02T10:43:00Z</time>
      </trkpt>
      <trkpt lat="44.3342" lon="6.34202">
        <ele>1270.4000244141</ele>
        <time>2021-09-02T10:43:03Z</time>
      </trkpt>
      <trkpt lat="44.33421" lon="6.342">
        <ele>1270.5999755859</ele>
        <time>2021-09-02T10:43:04Z</time>
      </trkpt>
      <trkpt lat="44.33423" lon="6.34187">
        <ele>1271.5999755859</ele>
        <time>2021-09-02T10:43:10Z</time>
      </trkpt>
      <trkpt lat="44.33427" lon="6.34174">
        <ele>1272.5999755859</ele>
        <time>2021-09-02T10:43:17Z</time>
      </trkpt>
      <trkpt lat="44.33434" lon="6.34163">
        <ele>1273.8000488281</ele>
        <time>2021-09-02T10:43:23Z</time>
      </trkpt>
      <trkpt lat="44.33435" lon="6.34161">
        <ele>1273.8000488281</ele>
        <time>2021-09-02T10:43:24Z</time>
      </trkpt>
      <trkpt lat="44.33439" lon="6.34152">
        <ele>1274.8000488281</ele>
        <time>2021-09-02T10:43:30Z</time>
      </trkpt>
      <trkpt lat="44.3344" lon="6.34148">
        <ele>1275</ele>
        <time>2021-09-02T10:43:32Z</time>
      </trkpt>
      <trkpt lat="44.33444" lon="6.3414">
        <ele>1275.8000488281</ele>
        <time>2021-09-02T10:43:37Z</time>
      </trkpt>
      <trkpt lat="44.33446" lon="6.34134">
        <ele>1276.1999511719</ele>
        <time>2021-09-02T10:43:40Z</time>
      </trkpt>
      <trkpt lat="44.33449" lon="6.34125">
        <ele>1277.1999511719</ele>
        <time>2021-09-02T10:43:45Z</time>
      </trkpt>
      <trkpt lat="44.33449" lon="6.34124">
        <ele>1277.1999511719</ele>
        <time>2021-09-02T10:43:46Z</time>
      </trkpt>
      <trkpt lat="44.33452" lon="6.34117">
        <ele>1278</ele>
        <time>2021-09-02T10:43:50Z</time>
      </trkpt>
      <trkpt lat="44.33452" lon="6.34115">
        <ele>1278</ele>
        <time>2021-09-02T10:43:51Z</time>
      </trkpt>
      <trkpt lat="44.33451" lon="6.34113">
        <ele>1278.1999511719</ele>
        <time>2021-09-02T10:43:52Z</time>
      </trkpt>
      <trkpt lat="44.33451" lon="6.34099">
        <ele>1279.4000244141</ele>
        <time>2021-09-02T10:43:59Z</time>
      </trkpt>
      <trkpt lat="44.33451" lon="6.34082">
        <ele>1280.1999511719</ele>
        <time>2021-09-02T10:44:06Z</time>
      </trkpt>
      <trkpt lat="44.3345" lon="6.3408">
        <ele>1280.4000244141</ele>
        <time>2021-09-02T10:44:07Z</time>
      </trkpt>
      <trkpt lat="44.33451" lon="6.34067">
        <ele>1281.1999511719</ele>
        <time>2021-09-02T10:44:13Z</time>
      </trkpt>
      <trkpt lat="44.3345" lon="6.34065">
        <ele>1281.4000244141</ele>
        <time>2021-09-02T10:44:14Z</time>
      </trkpt>
      <trkpt lat="44.33445" lon="6.34057">
        <ele>1282.1999511719</ele>
        <time>2021-09-02T10:44:19Z</time>
      </trkpt>
      <trkpt lat="44.33443" lon="6.34055">
        <ele>1282.4000244141</ele>
        <time>2021-09-02T10:44:21Z</time>
      </trkpt>
      <trkpt lat="44.33441" lon="6.34055">
        <ele>1282.5999755859</ele>
        <time>2021-09-02T10:44:22Z</time>
      </trkpt>
      <trkpt lat="44.33437" lon="6.34056">
        <ele>1283</ele>
        <time>2021-09-02T10:44:25Z</time>
      </trkpt>
      <trkpt lat="44.33431" lon="6.34057">
        <ele>1283.5999755859</ele>
        <time>2021-09-02T10:44:29Z</time>
      </trkpt>
      <trkpt lat="44.33427" lon="6.34061">
        <ele>1284</ele>
        <time>2021-09-02T10:44:32Z</time>
      </trkpt>
      <trkpt lat="44.33424" lon="6.34068">
        <ele>1284.5999755859</ele>
        <time>2021-09-02T10:44:36Z</time>
      </trkpt>
      <trkpt lat="44.33422" lon="6.34071">
        <ele>1285</ele>
        <time>2021-09-02T10:44:38Z</time>
      </trkpt>
      <trkpt lat="44.33417" lon="6.34079">
        <ele>1285.5999755859</ele>
        <time>2021-09-02T10:44:43Z</time>
      </trkpt>
      <trkpt lat="44.33414" lon="6.34083">
        <ele>1286.1999511719</ele>
        <time>2021-09-02T10:44:46Z</time>
      </trkpt>
      <trkpt lat="44.3341" lon="6.34089">
        <ele>1286.5999755859</ele>
        <time>2021-09-02T10:44:50Z</time>
      </trkpt>
      <trkpt lat="44.33404" lon="6.34095">
        <ele>1287.5999755859</ele>
        <time>2021-09-02T10:44:55Z</time>
      </trkpt>
      <trkpt lat="44.33403" lon="6.34096">
        <ele>1287.8000488281</ele>
        <time>2021-09-02T10:44:56Z</time>
      </trkpt>
      <trkpt lat="44.33396" lon="6.34104">
        <ele>1289</ele>
        <time>2021-09-02T10:45:02Z</time>
      </trkpt>
      <trkpt lat="44.33392" lon="6.3411">
        <ele>1289.5999755859</ele>
        <time>2021-09-02T10:45:06Z</time>
      </trkpt>
      <trkpt lat="44.33389" lon="6.34111">
        <ele>1290</ele>
        <time>2021-09-02T10:45:08Z</time>
      </trkpt>
      <trkpt lat="44.33386" lon="6.34111">
        <ele>1290.1999511719</ele>
        <time>2021-09-02T10:45:10Z</time>
      </trkpt>
      <trkpt lat="44.3338" lon="6.34115">
        <ele>1291.1999511719</ele>
        <time>2021-09-02T10:45:15Z</time>
      </trkpt>
      <trkpt lat="44.33378" lon="6.34116">
        <ele>1291.1999511719</ele>
        <time>2021-09-02T10:45:16Z</time>
      </trkpt>
      <trkpt lat="44.33375" lon="6.34122">
        <ele>1291.8000488281</ele>
        <time>2021-09-02T10:45:20Z</time>
      </trkpt>
      <trkpt lat="44.33375" lon="6.34124">
        <ele>1292.1999511719</ele>
        <time>2021-09-02T10:45:21Z</time>
      </trkpt>
      <trkpt lat="44.33374" lon="6.34128">
        <ele>1292.4000244141</ele>
        <time>2021-09-02T10:45:23Z</time>
      </trkpt>
      <trkpt lat="44.33372" lon="6.34132">
        <ele>1292.8000488281</ele>
        <time>2021-09-02T10:45:25Z</time>
      </trkpt>
      <trkpt lat="44.33368" lon="6.34141">
        <ele>1293.1999511719</ele>
        <time>2021-09-02T10:45:30Z</time>
      </trkpt>
      <trkpt lat="44.33366" lon="6.34144">
        <ele>1293.5999755859</ele>
        <time>2021-09-02T10:45:32Z</time>
      </trkpt>
      <trkpt lat="44.33362" lon="6.34154">
        <ele>1294.1999511719</ele>
        <time>2021-09-02T10:45:37Z</time>
      </trkpt>
      <trkpt lat="44.3336" lon="6.34157">
        <ele>1294.5999755859</ele>
        <time>2021-09-02T10:45:39Z</time>
      </trkpt>
      <trkpt lat="44.33357" lon="6.34158">
        <ele>1294.8000488281</ele>
        <time>2021-09-02T10:45:41Z</time>
      </trkpt>
      <trkpt lat="44.33351" lon="6.34158">
        <ele>1295.5999755859</ele>
        <time>2021-09-02T10:45:45Z</time>
      </trkpt>
      <trkpt lat="44.33349" lon="6.34157">
        <ele>1295.5999755859</ele>
        <time>2021-09-02T10:45:46Z</time>
      </trkpt>
      <trkpt lat="44.33346" lon="6.3415">
        <ele>1296</ele>
        <time>2021-09-02T10:45:49Z</time>
      </trkpt>
      <trkpt lat="44.33346" lon="6.3414">
        <ele>1296.5999755859</ele>
        <time>2021-09-02T10:45:53Z</time>
      </trkpt>
      <trkpt lat="44.33346" lon="6.34137">
        <ele>1296.5999755859</ele>
        <time>2021-09-02T10:45:54Z</time>
      </trkpt>
      <trkpt lat="44.3335" lon="6.34121">
        <ele>1297.5999755859</ele>
        <time>2021-09-02T10:46:02Z</time>
      </trkpt>
      <trkpt lat="44.3335" lon="6.34108">
        <ele>1298.8000488281</ele>
        <time>2021-09-02T10:46:09Z</time>
      </trkpt>
      <trkpt lat="44.33349" lon="6.34093">
        <ele>1299.8000488281</ele>
        <time>2021-09-02T10:46:16Z</time>
      </trkpt>
      <trkpt lat="44.3335" lon="6.34091">
        <ele>1300</ele>
        <time>2021-09-02T10:46:17Z</time>
      </trkpt>
      <trkpt lat="44.33351" lon="6.34079">
        <ele>1300.8000488281</ele>
        <time>2021-09-02T10:46:23Z</time>
      </trkpt>
      <trkpt lat="44.33351" lon="6.34075">
        <ele>1301.1999511719</ele>
        <time>2021-09-02T10:46:25Z</time>
      </trkpt>
      <trkpt lat="44.33354" lon="6.34065">
        <ele>1302</ele>
        <time>2021-09-02T10:46:30Z</time>
      </trkpt>
      <trkpt lat="44.33356" lon="6.34061">
        <ele>1302.1999511719</ele>
        <time>2021-09-02T10:46:32Z</time>
      </trkpt>
      <trkpt lat="44.33357" lon="6.34057">
        <ele>1302.5999755859</ele>
        <time>2021-09-02T10:46:34Z</time>
      </trkpt>
      <trkpt lat="44.33359" lon="6.34053">
        <ele>1303</ele>
        <time>2021-09-02T10:46:36Z</time>
      </trkpt>
      <trkpt lat="44.33359" lon="6.34049">
        <ele>1303.4000244141</ele>
        <time>2021-09-02T10:46:38Z</time>
      </trkpt>
      <trkpt lat="44.33361" lon="6.3404">
        <ele>1304</ele>
        <time>2021-09-02T10:46:42Z</time>
      </trkpt>
      <trkpt lat="44.33361" lon="6.34038">
        <ele>1304.1999511719</ele>
        <time>2021-09-02T10:46:43Z</time>
      </trkpt>
      <trkpt lat="44.33361" lon="6.34034">
        <ele>1304.5999755859</ele>
        <time>2021-09-02T10:46:46Z</time>
      </trkpt>
      <trkpt lat="44.33362" lon="6.34025">
        <ele>1305.1999511719</ele>
        <time>2021-09-02T10:46:50Z</time>
      </trkpt>
      <trkpt lat="44.33361" lon="6.34018">
        <ele>1306</ele>
        <time>2021-09-02T10:46:54Z</time>
      </trkpt>
      <trkpt lat="44.3336" lon="6.34014">
        <ele>1306.4000244141</ele>
        <time>2021-09-02T10:46:56Z</time>
      </trkpt>
      <trkpt lat="44.33363" lon="6.33992">
        <ele>1308.4000244141</ele>
        <time>2021-09-02T10:47:06Z</time>
      </trkpt>
      <trkpt lat="44.33364" lon="6.33989">
        <ele>1308.5999755859</ele>
        <time>2021-09-02T10:47:07Z</time>
      </trkpt>
      <trkpt lat="44.33365" lon="6.33975">
        <ele>1309.4000244141</ele>
        <time>2021-09-02T10:47:13Z</time>
      </trkpt>
      <trkpt lat="44.33365" lon="6.33973">
        <ele>1309.5999755859</ele>
        <time>2021-09-02T10:47:14Z</time>
      </trkpt>
      <trkpt lat="44.33365" lon="6.33963">
        <ele>1310.4000244141</ele>
        <time>2021-09-02T10:47:19Z</time>
      </trkpt>
      <trkpt lat="44.33364" lon="6.33958">
        <ele>1310.8000488281</ele>
        <time>2021-09-02T10:47:21Z</time>
      </trkpt>
      <trkpt lat="44.33363" lon="6.33949">
        <ele>1311.4000244141</ele>
        <time>2021-09-02T10:47:25Z</time>
      </trkpt>
      <trkpt lat="44.3336" lon="6.33944">
        <ele>1312</ele>
        <time>2021-09-02T10:47:28Z</time>
      </trkpt>
      <trkpt lat="44.33358" lon="6.33937">
        <ele>1312.5999755859</ele>
        <time>2021-09-02T10:47:32Z</time>
      </trkpt>
      <trkpt lat="44.33355" lon="6.33932">
        <ele>1313</ele>
        <time>2021-09-02T10:47:35Z</time>
      </trkpt>
      <trkpt lat="44.33353" lon="6.33924">
        <ele>1313.5999755859</ele>
        <time>2021-09-02T10:47:39Z</time>
      </trkpt>
      <trkpt lat="44.33353" lon="6.33918">
        <ele>1314</ele>
        <time>2021-09-02T10:47:42Z</time>
      </trkpt>
      <trkpt lat="44.33351" lon="6.33906">
        <ele>1315.5999755859</ele>
        <time>2021-09-02T10:49:52Z</time>
      </trkpt>
      <trkpt lat="44.3335" lon="6.33901">
        <ele>1315.5999755859</ele>
        <time>2021-09-02T10:49:54Z</time>
      </trkpt>
      <trkpt lat="44.33352" lon="6.33884">
        <ele>1316.5999755859</ele>
        <time>2021-09-02T10:50:01Z</time>
      </trkpt>
      <trkpt lat="44.33353" lon="6.33882">
        <ele>1316.8000488281</ele>
        <time>2021-09-02T10:50:02Z</time>
      </trkpt>
      <trkpt lat="44.33353" lon="6.33875">
        <ele>1317.5999755859</ele>
        <time>2021-09-02T10:50:06Z</time>
      </trkpt>
      <trkpt lat="44.33354" lon="6.33873">
        <ele>1317.8000488281</ele>
        <time>2021-09-02T10:50:07Z</time>
      </trkpt>
      <trkpt lat="44.33356" lon="6.33863">
        <ele>1318.8000488281</ele>
        <time>2021-09-02T10:50:12Z</time>
      </trkpt>
      <trkpt lat="44.33356" lon="6.33861">
        <ele>1319</ele>
        <time>2021-09-02T10:50:13Z</time>
      </trkpt>
      <trkpt lat="44.33356" lon="6.33857">
        <ele>1319.1999511719</ele>
        <time>2021-09-02T10:50:15Z</time>
      </trkpt>
      <trkpt lat="44.33356" lon="6.33849">
        <ele>1319.8000488281</ele>
        <time>2021-09-02T10:50:19Z</time>
      </trkpt>
      <trkpt lat="44.33356" lon="6.33847">
        <ele>1320</ele>
        <time>2021-09-02T10:50:20Z</time>
      </trkpt>
      <trkpt lat="44.33359" lon="6.33834">
        <ele>1320.8000488281</ele>
        <time>2021-09-02T10:50:27Z</time>
      </trkpt>
      <trkpt lat="44.33359" lon="6.33832">
        <ele>1321</ele>
        <time>2021-09-02T10:50:28Z</time>
      </trkpt>
      <trkpt lat="44.33362" lon="6.33822">
        <ele>1322</ele>
        <time>2021-09-02T10:50:33Z</time>
      </trkpt>
      <trkpt lat="44.33363" lon="6.33819">
        <ele>1322.1999511719</ele>
        <time>2021-09-02T10:50:35Z</time>
      </trkpt>
      <trkpt lat="44.33367" lon="6.33813">
        <ele>1323</ele>
        <time>2021-09-02T10:50:39Z</time>
      </trkpt>
      <trkpt lat="44.3337" lon="6.33808">
        <ele>1323.4000244141</ele>
        <time>2021-09-02T10:50:42Z</time>
      </trkpt>
      <trkpt lat="44.33371" lon="6.33806">
        <ele>1323.5999755859</ele>
        <time>2021-09-02T10:50:43Z</time>
      </trkpt>
      <trkpt lat="44.33372" lon="6.33802">
        <ele>1323.8000488281</ele>
        <time>2021-09-02T10:50:45Z</time>
      </trkpt>
      <trkpt lat="44.33373" lon="6.338">
        <ele>1324</ele>
        <time>2021-09-02T10:50:46Z</time>
      </trkpt>
      <trkpt lat="44.33374" lon="6.33796">
        <ele>1324.1999511719</ele>
        <time>2021-09-02T10:50:48Z</time>
      </trkpt>
      <trkpt lat="44.33375" lon="6.33794">
        <ele>1324.4000244141</ele>
        <time>2021-09-02T10:50:49Z</time>
      </trkpt>
      <trkpt lat="44.33376" lon="6.3379">
        <ele>1325</ele>
        <time>2021-09-02T10:50:52Z</time>
      </trkpt>
      <trkpt lat="44.33376" lon="6.33786">
        <ele>1325.4000244141</ele>
        <time>2021-09-02T10:50:54Z</time>
      </trkpt>
      <trkpt lat="44.33376" lon="6.33784">
        <ele>1325.4000244141</ele>
        <time>2021-09-02T10:50:55Z</time>
      </trkpt>
      <trkpt lat="44.33376" lon="6.33778">
        <ele>1326</ele>
        <time>2021-09-02T10:50:58Z</time>
      </trkpt>
      <trkpt lat="44.33374" lon="6.33769">
        <ele>1326.8000488281</ele>
        <time>2021-09-02T10:51:03Z</time>
      </trkpt>
      <trkpt lat="44.33373" lon="6.33768">
        <ele>1327</ele>
        <time>2021-09-02T10:51:04Z</time>
      </trkpt>
      <trkpt lat="44.33373" lon="6.33766">
        <ele>1327.1999511719</ele>
        <time>2021-09-02T10:51:05Z</time>
      </trkpt>
      <trkpt lat="44.3337" lon="6.33761">
        <ele>1327.8000488281</ele>
        <time>2021-09-02T10:51:09Z</time>
      </trkpt>
      <trkpt lat="44.33367" lon="6.33758">
        <ele>1328.1999511719</ele>
        <time>2021-09-02T10:51:12Z</time>
      </trkpt>
      <trkpt lat="44.33364" lon="6.33755">
        <ele>1329</ele>
        <time>2021-09-02T10:51:15Z</time>
      </trkpt>
      <trkpt lat="44.33362" lon="6.33755">
        <ele>1329.1999511719</ele>
        <time>2021-09-02T10:51:16Z</time>
      </trkpt>
      <trkpt lat="44.3336" lon="6.33753">
        <ele>1329.4000244141</ele>
        <time>2021-09-02T10:51:18Z</time>
      </trkpt>
      <trkpt lat="44.33354" lon="6.33748">
        <ele>1330.4000244141</ele>
        <time>2021-09-02T10:51:23Z</time>
      </trkpt>
      <trkpt lat="44.33353" lon="6.33747">
        <ele>1330.5999755859</ele>
        <time>2021-09-02T10:51:24Z</time>
      </trkpt>
      <trkpt lat="44.33349" lon="6.33739">
        <ele>1331.4000244141</ele>
        <time>2021-09-02T10:51:28Z</time>
      </trkpt>
      <trkpt lat="44.33349" lon="6.33737">
        <ele>1331.5999755859</ele>
        <time>2021-09-02T10:51:29Z</time>
      </trkpt>
      <trkpt lat="44.33347" lon="6.33723">
        <ele>1332.5999755859</ele>
        <time>2021-09-02T10:51:36Z</time>
      </trkpt>
      <trkpt lat="44.33347" lon="6.33721">
        <ele>1332.8000488281</ele>
        <time>2021-09-02T10:51:37Z</time>
      </trkpt>
      <trkpt lat="44.33346" lon="6.33711">
        <ele>1333.8000488281</ele>
        <time>2021-09-02T10:51:42Z</time>
      </trkpt>
      <trkpt lat="44.33345" lon="6.33705">
        <ele>1334.1999511719</ele>
        <time>2021-09-02T10:51:45Z</time>
      </trkpt>
      <trkpt lat="44.33343" lon="6.33699">
        <ele>1334.8000488281</ele>
        <time>2021-09-02T10:51:48Z</time>
      </trkpt>
      <trkpt lat="44.33342" lon="6.33689">
        <ele>1335.4000244141</ele>
        <time>2021-09-02T10:51:53Z</time>
      </trkpt>
      <trkpt lat="44.3334" lon="6.33683">
        <ele>1335.8000488281</ele>
        <time>2021-09-02T10:51:56Z</time>
      </trkpt>
      <trkpt lat="44.33337" lon="6.33672">
        <ele>1336.4000244141</ele>
        <time>2021-09-02T10:52:01Z</time>
      </trkpt>
      <trkpt lat="44.33336" lon="6.33666">
        <ele>1337</ele>
        <time>2021-09-02T10:52:04Z</time>
      </trkpt>
      <trkpt lat="44.33332" lon="6.33655">
        <ele>1338</ele>
        <time>2021-09-02T10:52:10Z</time>
      </trkpt>
      <trkpt lat="44.33328" lon="6.33641">
        <ele>1339.1999511719</ele>
        <time>2021-09-02T10:52:17Z</time>
      </trkpt>
      <trkpt lat="44.33327" lon="6.3364">
        <ele>1339.4000244141</ele>
        <time>2021-09-02T10:52:18Z</time>
      </trkpt>
      <trkpt lat="44.33325" lon="6.33628">
        <ele>1340.1999511719</ele>
        <time>2021-09-02T10:52:24Z</time>
      </trkpt>
      <trkpt lat="44.33324" lon="6.33626">
        <ele>1340.4000244141</ele>
        <time>2021-09-02T10:52:25Z</time>
      </trkpt>
      <trkpt lat="44.33319" lon="6.33615">
        <ele>1341.4000244141</ele>
        <time>2021-09-02T10:52:31Z</time>
      </trkpt>
      <trkpt lat="44.33318" lon="6.33613">
        <ele>1341.5999755859</ele>
        <time>2021-09-02T10:52:32Z</time>
      </trkpt>
      <trkpt lat="44.33315" lon="6.33601">
        <ele>1342.4000244141</ele>
        <time>2021-09-02T10:52:38Z</time>
      </trkpt>
      <trkpt lat="44.33314" lon="6.33597">
        <ele>1342.5999755859</ele>
        <time>2021-09-02T10:52:40Z</time>
      </trkpt>
      <trkpt lat="44.33313" lon="6.33584">
        <ele>1343.5999755859</ele>
        <time>2021-09-02T10:52:46Z</time>
      </trkpt>
      <trkpt lat="44.33312" lon="6.3358">
        <ele>1344</ele>
        <time>2021-09-02T10:52:48Z</time>
      </trkpt>
      <trkpt lat="44.33308" lon="6.33572">
        <ele>1344.5999755859</ele>
        <time>2021-09-02T10:52:53Z</time>
      </trkpt>
      <trkpt lat="44.33307" lon="6.33568">
        <ele>1345</ele>
        <time>2021-09-02T10:52:55Z</time>
      </trkpt>
      <trkpt lat="44.33305" lon="6.33563">
        <ele>1345.5999755859</ele>
        <time>2021-09-02T10:52:58Z</time>
      </trkpt>
      <trkpt lat="44.333" lon="6.33555">
        <ele>1346.4000244141</ele>
        <time>2021-09-02T10:53:03Z</time>
      </trkpt>
      <trkpt lat="44.33297" lon="6.33552">
        <ele>1346.8000488281</ele>
        <time>2021-09-02T10:53:05Z</time>
      </trkpt>
      <trkpt lat="44.33291" lon="6.33542">
        <ele>1347.8000488281</ele>
        <time>2021-09-02T10:53:11Z</time>
      </trkpt>
      <trkpt lat="44.33285" lon="6.33535">
        <ele>1348.8000488281</ele>
        <time>2021-09-02T10:53:17Z</time>
      </trkpt>
      <trkpt lat="44.33283" lon="6.33533">
        <ele>1349.1999511719</ele>
        <time>2021-09-02T10:53:19Z</time>
      </trkpt>
      <trkpt lat="44.33281" lon="6.33532">
        <ele>1349.5999755859</ele>
        <time>2021-09-02T10:53:21Z</time>
      </trkpt>
      <trkpt lat="44.3328" lon="6.33531">
        <ele>1350</ele>
        <time>2021-09-02T10:53:22Z</time>
      </trkpt>
      <trkpt lat="44.33274" lon="6.33529">
        <ele>1350.5999755859</ele>
        <time>2021-09-02T10:53:26Z</time>
      </trkpt>
      <trkpt lat="44.33271" lon="6.33528">
        <ele>1351</ele>
        <time>2021-09-02T10:53:28Z</time>
      </trkpt>
      <trkpt lat="44.33263" lon="6.33527">
        <ele>1351.8000488281</ele>
        <time>2021-09-02T10:53:33Z</time>
      </trkpt>
      <trkpt lat="44.33261" lon="6.33527">
        <ele>1352</ele>
        <time>2021-09-02T10:53:34Z</time>
      </trkpt>
      <trkpt lat="44.33251" lon="6.33526">
        <ele>1353.1999511719</ele>
        <time>2021-09-02T10:53:41Z</time>
      </trkpt>
      <trkpt lat="44.33244" lon="6.33525">
        <ele>1354.1999511719</ele>
        <time>2021-09-02T10:53:46Z</time>
      </trkpt>
      <trkpt lat="44.33236" lon="6.33523">
        <ele>1355.4000244141</ele>
        <time>2021-09-02T10:53:52Z</time>
      </trkpt>
      <trkpt lat="44.33234" lon="6.33523">
        <ele>1355.5999755859</ele>
        <time>2021-09-02T10:53:53Z</time>
      </trkpt>
      <trkpt lat="44.33228" lon="6.33522">
        <ele>1356.5999755859</ele>
        <time>2021-09-02T10:53:58Z</time>
      </trkpt>
      <trkpt lat="44.33222" lon="6.33523">
        <ele>1357.4000244141</ele>
        <time>2021-09-02T10:54:02Z</time>
      </trkpt>
      <trkpt lat="44.3322" lon="6.33523">
        <ele>1357.5999755859</ele>
        <time>2021-09-02T10:54:03Z</time>
      </trkpt>
      <trkpt lat="44.33213" lon="6.33524">
        <ele>1358.8000488281</ele>
        <time>2021-09-02T10:54:08Z</time>
      </trkpt>
      <trkpt lat="44.3321" lon="6.33524">
        <ele>1359.5999755859</ele>
        <time>2021-09-02T10:54:10Z</time>
      </trkpt>
      <trkpt lat="44.33208" lon="6.33523">
        <ele>1360</ele>
        <time>2021-09-02T10:54:12Z</time>
      </trkpt>
      <trkpt lat="44.33201" lon="6.33523">
        <ele>1360.5999755859</ele>
        <time>2021-09-02T10:54:16Z</time>
      </trkpt>
      <trkpt lat="44.332" lon="6.33522">
        <ele>1360.8000488281</ele>
        <time>2021-09-02T10:54:17Z</time>
      </trkpt>
      <trkpt lat="44.33199" lon="6.33521">
        <ele>1361</ele>
        <time>2021-09-02T10:54:18Z</time>
      </trkpt>
      <trkpt lat="44.33193" lon="6.33516">
        <ele>1362</ele>
        <time>2021-09-02T10:54:23Z</time>
      </trkpt>
      <trkpt lat="44.33192" lon="6.33514">
        <ele>1362.1999511719</ele>
        <time>2021-09-02T10:54:24Z</time>
      </trkpt>
      <trkpt lat="44.33188" lon="6.33502">
        <ele>1363</ele>
        <time>2021-09-02T10:54:30Z</time>
      </trkpt>
      <trkpt lat="44.33188" lon="6.335">
        <ele>1363.1999511719</ele>
        <time>2021-09-02T10:54:31Z</time>
      </trkpt>
      <trkpt lat="44.33191" lon="6.33491">
        <ele>1364</ele>
        <time>2021-09-02T10:54:37Z</time>
      </trkpt>
      <trkpt lat="44.33193" lon="6.33488">
        <ele>1364.1999511719</ele>
        <time>2021-09-02T10:54:39Z</time>
      </trkpt>
      <trkpt lat="44.33198" lon="6.33484">
        <ele>1364.8000488281</ele>
        <time>2021-09-02T10:54:43Z</time>
      </trkpt>
      <trkpt lat="44.33212" lon="6.33475">
        <ele>1366.8000488281</ele>
        <time>2021-09-02T10:54:57Z</time>
      </trkpt>
      <trkpt lat="44.33214" lon="6.33475">
        <ele>1367.1999511719</ele>
        <time>2021-09-02T10:54:58Z</time>
      </trkpt>
      <trkpt lat="44.33219" lon="6.33472">
        <ele>1367.5999755859</ele>
        <time>2021-09-02T10:55:01Z</time>
      </trkpt>
      <trkpt lat="44.33221" lon="6.33469">
        <ele>1368</ele>
        <time>2021-09-02T10:55:03Z</time>
      </trkpt>
      <trkpt lat="44.33224" lon="6.33466">
        <ele>1368.1999511719</ele>
        <time>2021-09-02T10:55:05Z</time>
      </trkpt>
      <trkpt lat="44.33225" lon="6.33465">
        <ele>1368.4000244141</ele>
        <time>2021-09-02T10:55:06Z</time>
      </trkpt>
      <trkpt lat="44.3323" lon="6.33461">
        <ele>1369</ele>
        <time>2021-09-02T10:55:10Z</time>
      </trkpt>
      <trkpt lat="44.33231" lon="6.33459">
        <ele>1369.1999511719</ele>
        <time>2021-09-02T10:55:11Z</time>
      </trkpt>
      <trkpt lat="44.33232" lon="6.33457">
        <ele>1369.1999511719</ele>
        <time>2021-09-02T10:55:12Z</time>
      </trkpt>
      <trkpt lat="44.33236" lon="6.33445">
        <ele>1370</ele>
        <time>2021-09-02T10:55:18Z</time>
      </trkpt>
      <trkpt lat="44.33236" lon="6.33429">
        <ele>1371</ele>
        <time>2021-09-02T10:55:25Z</time>
      </trkpt>
      <trkpt lat="44.33235" lon="6.33426">
        <ele>1371.4000244141</ele>
        <time>2021-09-02T10:55:27Z</time>
      </trkpt>
      <trkpt lat="44.33235" lon="6.33417">
        <ele>1372.1999511719</ele>
        <time>2021-09-02T10:55:32Z</time>
      </trkpt>
      <trkpt lat="44.33234" lon="6.33415">
        <ele>1372.4000244141</ele>
        <time>2021-09-02T10:55:34Z</time>
      </trkpt>
      <trkpt lat="44.33231" lon="6.33409">
        <ele>1372.8000488281</ele>
        <time>2021-09-02T10:55:38Z</time>
      </trkpt>
      <trkpt lat="44.3323" lon="6.33406">
        <ele>1373.1999511719</ele>
        <time>2021-09-02T10:55:40Z</time>
      </trkpt>
      <trkpt lat="44.33229" lon="6.33404">
        <ele>1373.4000244141</ele>
        <time>2021-09-02T10:55:41Z</time>
      </trkpt>
      <trkpt lat="44.33223" lon="6.33393">
        <ele>1374.1999511719</ele>
        <time>2021-09-02T10:55:48Z</time>
      </trkpt>
      <trkpt lat="44.33218" lon="6.33379">
        <ele>1375.4000244141</ele>
        <time>2021-09-02T10:55:54Z</time>
      </trkpt>
      <trkpt lat="44.33217" lon="6.33377">
        <ele>1375.5999755859</ele>
        <time>2021-09-02T10:55:55Z</time>
      </trkpt>
      <trkpt lat="44.33214" lon="6.33363">
        <ele>1376.1999511719</ele>
        <time>2021-09-02T10:56:01Z</time>
      </trkpt>
      <trkpt lat="44.33213" lon="6.33358">
        <ele>1376.4000244141</ele>
        <time>2021-09-02T10:56:03Z</time>
      </trkpt>
      <trkpt lat="44.33212" lon="6.33344">
        <ele>1377</ele>
        <time>2021-09-02T10:56:09Z</time>
      </trkpt>
      <trkpt lat="44.33213" lon="6.3334">
        <ele>1377.5999755859</ele>
        <time>2021-09-02T10:56:11Z</time>
      </trkpt>
      <trkpt lat="44.33215" lon="6.3333">
        <ele>1378</ele>
        <time>2021-09-02T10:56:16Z</time>
      </trkpt>
      <trkpt lat="44.33222" lon="6.33317">
        <ele>1378.5999755859</ele>
        <time>2021-09-02T10:56:23Z</time>
      </trkpt>
      <trkpt lat="44.33228" lon="6.33311">
        <ele>1379.8000488281</ele>
        <time>2021-09-02T10:56:28Z</time>
      </trkpt>
      <trkpt lat="44.33231" lon="6.33307">
        <ele>1380.1999511719</ele>
        <time>2021-09-02T10:56:31Z</time>
      </trkpt>
      <trkpt lat="44.33234" lon="6.33303">
        <ele>1381</ele>
        <time>2021-09-02T10:56:34Z</time>
      </trkpt>
      <trkpt lat="44.33238" lon="6.33299">
        <ele>1381.5999755859</ele>
        <time>2021-09-02T10:56:37Z</time>
      </trkpt>
      <trkpt lat="44.3324" lon="6.33295">
        <ele>1382</ele>
        <time>2021-09-02T10:56:39Z</time>
      </trkpt>
      <trkpt lat="44.33244" lon="6.33289">
        <ele>1382.5999755859</ele>
        <time>2021-09-02T10:56:43Z</time>
      </trkpt>
      <trkpt lat="44.33247" lon="6.33282">
        <ele>1383.1999511719</ele>
        <time>2021-09-02T10:56:47Z</time>
      </trkpt>
      <trkpt lat="44.33248" lon="6.33275">
        <ele>1383.4000244141</ele>
        <time>2021-09-02T10:56:50Z</time>
      </trkpt>
      <trkpt lat="44.33248" lon="6.33265">
        <ele>1383.8000488281</ele>
        <time>2021-09-02T10:56:54Z</time>
      </trkpt>
      <trkpt lat="44.33247" lon="6.33258">
        <ele>1384.1999511719</ele>
        <time>2021-09-02T10:56:57Z</time>
      </trkpt>
      <trkpt lat="44.33246" lon="6.33256">
        <ele>1384.1999511719</ele>
        <time>2021-09-02T10:56:58Z</time>
      </trkpt>
      <trkpt lat="44.33242" lon="6.33239">
        <ele>1385</ele>
        <time>2021-09-02T10:57:06Z</time>
      </trkpt>
      <trkpt lat="44.33239" lon="6.33234">
        <ele>1385.4000244141</ele>
        <time>2021-09-02T10:57:09Z</time>
      </trkpt>
      <trkpt lat="44.33235" lon="6.33224">
        <ele>1386</ele>
        <time>2021-09-02T10:57:14Z</time>
      </trkpt>
      <trkpt lat="44.33231" lon="6.33219">
        <ele>1386.4000244141</ele>
        <time>2021-09-02T10:57:17Z</time>
      </trkpt>
      <trkpt lat="44.33228" lon="6.33211">
        <ele>1387.1999511719</ele>
        <time>2021-09-02T10:57:21Z</time>
      </trkpt>
      <trkpt lat="44.33226" lon="6.33208">
        <ele>1387.5999755859</ele>
        <time>2021-09-02T10:57:23Z</time>
      </trkpt>
      <trkpt lat="44.33221" lon="6.33199">
        <ele>1388.5999755859</ele>
        <time>2021-09-02T10:57:28Z</time>
      </trkpt>
      <trkpt lat="44.33216" lon="6.33187">
        <ele>1389.8000488281</ele>
        <time>2021-09-02T10:57:34Z</time>
      </trkpt>
      <trkpt lat="44.33216" lon="6.33186">
        <ele>1390</ele>
        <time>2021-09-02T10:57:35Z</time>
      </trkpt>
      <trkpt lat="44.33211" lon="6.33177">
        <ele>1390.8000488281</ele>
        <time>2021-09-02T10:57:40Z</time>
      </trkpt>
      <trkpt lat="44.33207" lon="6.3317">
        <ele>1391.4000244141</ele>
        <time>2021-09-02T10:57:44Z</time>
      </trkpt>
      <trkpt lat="44.33205" lon="6.33163">
        <ele>1391.8000488281</ele>
        <time>2021-09-02T10:57:48Z</time>
      </trkpt>
      <trkpt lat="44.33202" lon="6.33157">
        <ele>1392.1999511719</ele>
        <time>2021-09-02T10:57:51Z</time>
      </trkpt>
      <trkpt lat="44.33199" lon="6.33149">
        <ele>1393</ele>
        <time>2021-09-02T10:57:56Z</time>
      </trkpt>
      <trkpt lat="44.33195" lon="6.33146">
        <ele>1393.4000244141</ele>
        <time>2021-09-02T10:57:59Z</time>
      </trkpt>
      <trkpt lat="44.3319" lon="6.33141">
        <ele>1394</ele>
        <time>2021-09-02T10:58:03Z</time>
      </trkpt>
      <trkpt lat="44.33187" lon="6.33138">
        <ele>1394.5999755859</ele>
        <time>2021-09-02T10:58:06Z</time>
      </trkpt>
      <trkpt lat="44.33184" lon="6.33138">
        <ele>1394.8000488281</ele>
        <time>2021-09-02T10:58:08Z</time>
      </trkpt>
      <trkpt lat="44.33181" lon="6.33138">
        <ele>1395.4000244141</ele>
        <time>2021-09-02T10:58:10Z</time>
      </trkpt>
      <trkpt lat="44.33178" lon="6.33137">
        <ele>1395.5999755859</ele>
        <time>2021-09-02T10:58:12Z</time>
      </trkpt>
      <trkpt lat="44.33177" lon="6.33138">
        <ele>1395.5999755859</ele>
        <time>2021-09-02T10:58:13Z</time>
      </trkpt>
      <trkpt lat="44.3317" lon="6.33139">
        <ele>1396.4000244141</ele>
        <time>2021-09-02T10:58:18Z</time>
      </trkpt>
      <trkpt lat="44.33169" lon="6.33139">
        <ele>1396.5999755859</ele>
        <time>2021-09-02T10:58:19Z</time>
      </trkpt>
      <trkpt lat="44.33168" lon="6.3314">
        <ele>1396.5999755859</ele>
        <time>2021-09-02T10:58:20Z</time>
      </trkpt>
      <trkpt lat="44.33162" lon="6.33144">
        <ele>1397.1999511719</ele>
        <time>2021-09-02T10:58:24Z</time>
      </trkpt>
      <trkpt lat="44.3316" lon="6.33147">
        <ele>1397.5999755859</ele>
        <time>2021-09-02T10:58:26Z</time>
      </trkpt>
      <trkpt lat="44.33151" lon="6.33155">
        <ele>1398.4000244141</ele>
        <time>2021-09-02T10:58:32Z</time>
      </trkpt>
      <trkpt lat="44.33148" lon="6.33158">
        <ele>1398.8000488281</ele>
        <time>2021-09-02T10:58:34Z</time>
      </trkpt>
      <trkpt lat="44.33141" lon="6.33166">
        <ele>1399.8000488281</ele>
        <time>2021-09-02T10:58:40Z</time>
      </trkpt>
      <trkpt lat="44.33139" lon="6.33167">
        <ele>1400</ele>
        <time>2021-09-02T10:58:41Z</time>
      </trkpt>
      <trkpt lat="44.33131" lon="6.33176">
        <ele>1401.1999511719</ele>
        <time>2021-09-02T10:58:47Z</time>
      </trkpt>
      <trkpt lat="44.3313" lon="6.33177">
        <ele>1401.1999511719</ele>
        <time>2021-09-02T10:58:48Z</time>
      </trkpt>
      <trkpt lat="44.33123" lon="6.33186">
        <ele>1402.1999511719</ele>
        <time>2021-09-02T10:58:53Z</time>
      </trkpt>
      <trkpt lat="44.33119" lon="6.33191">
        <ele>1402.8000488281</ele>
        <time>2021-09-02T10:58:56Z</time>
      </trkpt>
      <trkpt lat="44.33117" lon="6.33194">
        <ele>1403.4000244141</ele>
        <time>2021-09-02T10:58:58Z</time>
      </trkpt>
      <trkpt lat="44.33109" lon="6.33201">
        <ele>1404</ele>
        <time>2021-09-02T10:59:03Z</time>
      </trkpt>
      <trkpt lat="44.33105" lon="6.33206">
        <ele>1404.4000244141</ele>
        <time>2021-09-02T10:59:07Z</time>
      </trkpt>
      <trkpt lat="44.33099" lon="6.33212">
        <ele>1405</ele>
        <time>2021-09-02T10:59:11Z</time>
      </trkpt>
      <trkpt lat="44.33093" lon="6.33218">
        <ele>1405.4000244141</ele>
        <time>2021-09-02T10:59:15Z</time>
      </trkpt>
      <trkpt lat="44.3309" lon="6.33221">
        <ele>1405.5999755859</ele>
        <time>2021-09-02T10:59:17Z</time>
      </trkpt>
      <trkpt lat="44.33082" lon="6.33233">
        <ele>1406.5999755859</ele>
        <time>2021-09-02T10:59:23Z</time>
      </trkpt>
      <trkpt lat="44.3308" lon="6.33238">
        <ele>1406.5999755859</ele>
        <time>2021-09-02T10:59:25Z</time>
      </trkpt>
      <trkpt lat="44.33077" lon="6.33255">
        <ele>1407.4000244141</ele>
        <time>2021-09-02T10:59:32Z</time>
      </trkpt>
      <trkpt lat="44.33077" lon="6.3326">
        <ele>1407.5999755859</ele>
        <time>2021-09-02T10:59:34Z</time>
      </trkpt>
      <trkpt lat="44.33076" lon="6.33271">
        <ele>1408.1999511719</ele>
        <time>2021-09-02T10:59:38Z</time>
      </trkpt>
      <trkpt lat="44.33072" lon="6.33279">
        <ele>1408.5999755859</ele>
        <time>2021-09-02T10:59:42Z</time>
      </trkpt>
      <trkpt lat="44.33068" lon="6.33283">
        <ele>1408.8000488281</ele>
        <time>2021-09-02T10:59:44Z</time>
      </trkpt>
      <trkpt lat="44.33066" lon="6.33283">
        <ele>1409</ele>
        <time>2021-09-02T10:59:45Z</time>
      </trkpt>
      <trkpt lat="44.33058" lon="6.3328">
        <ele>1409.5999755859</ele>
        <time>2021-09-02T10:59:49Z</time>
      </trkpt>
      <trkpt lat="44.33057" lon="6.33279">
        <ele>1409.5999755859</ele>
        <time>2021-09-02T10:59:50Z</time>
      </trkpt>
      <trkpt lat="44.33053" lon="6.33272">
        <ele>1410.1999511719</ele>
        <time>2021-09-02T10:59:53Z</time>
      </trkpt>
      <trkpt lat="44.33053" lon="6.3327">
        <ele>1410.4000244141</ele>
        <time>2021-09-02T10:59:54Z</time>
      </trkpt>
      <trkpt lat="44.33053" lon="6.33267">
        <ele>1410.8000488281</ele>
        <time>2021-09-02T10:59:55Z</time>
      </trkpt>
      <trkpt lat="44.33051" lon="6.33245">
        <ele>1411.5999755859</ele>
        <time>2021-09-02T11:00:03Z</time>
      </trkpt>
      <trkpt lat="44.33051" lon="6.33242">
        <ele>1411.8000488281</ele>
        <time>2021-09-02T11:00:04Z</time>
      </trkpt>
      <trkpt lat="44.33047" lon="6.33224">
        <ele>1413</ele>
        <time>2021-09-02T11:00:11Z</time>
      </trkpt>
      <trkpt lat="44.33047" lon="6.33221">
        <ele>1413.1999511719</ele>
        <time>2021-09-02T11:00:12Z</time>
      </trkpt>
      <trkpt lat="44.33045" lon="6.3321">
        <ele>1414</ele>
        <time>2021-09-02T11:00:16Z</time>
      </trkpt>
      <trkpt lat="44.33042" lon="6.33201">
        <ele>1414.8000488281</ele>
        <time>2021-09-02T11:00:20Z</time>
      </trkpt>
      <trkpt lat="44.33041" lon="6.33196">
        <ele>1415.1999511719</ele>
        <time>2021-09-02T11:00:22Z</time>
      </trkpt>
      <trkpt lat="44.33039" lon="6.33183">
        <ele>1416</ele>
        <time>2021-09-02T11:00:28Z</time>
      </trkpt>
      <trkpt lat="44.3304" lon="6.3318">
        <ele>1416.1999511719</ele>
        <time>2021-09-02T11:00:29Z</time>
      </trkpt>
      <trkpt lat="44.33041" lon="6.33167">
        <ele>1417.4000244141</ele>
        <time>2021-09-02T11:00:35Z</time>
      </trkpt>
      <trkpt lat="44.33043" lon="6.33152">
        <ele>1418.4000244141</ele>
        <time>2021-09-02T11:00:42Z</time>
      </trkpt>
      <trkpt lat="44.33043" lon="6.33147">
        <ele>1418.5999755859</ele>
        <time>2021-09-02T11:00:44Z</time>
      </trkpt>
      <trkpt lat="44.33044" lon="6.33133">
        <ele>1419.4000244141</ele>
        <time>2021-09-02T11:00:50Z</time>
      </trkpt>
      <trkpt lat="44.33043" lon="6.33128">
        <ele>1419.5999755859</ele>
        <time>2021-09-02T11:00:52Z</time>
      </trkpt>
      <trkpt lat="44.33041" lon="6.33116">
        <ele>1420.4000244141</ele>
        <time>2021-09-02T11:00:57Z</time>
      </trkpt>
      <trkpt lat="44.3304" lon="6.33112">
        <ele>1421</ele>
        <time>2021-09-02T11:00:59Z</time>
      </trkpt>
      <trkpt lat="44.33035" lon="6.33101">
        <ele>1421.5999755859</ele>
        <time>2021-09-02T11:01:04Z</time>
      </trkpt>
      <trkpt lat="44.33031" lon="6.33094">
        <ele>1422</ele>
        <time>2021-09-02T11:01:07Z</time>
      </trkpt>
      <trkpt lat="44.33023" lon="6.3308">
        <ele>1423</ele>
        <time>2021-09-02T11:01:13Z</time>
      </trkpt>
      <trkpt lat="44.33021" lon="6.33078">
        <ele>1423.1999511719</ele>
        <time>2021-09-02T11:01:14Z</time>
      </trkpt>
      <trkpt lat="44.33016" lon="6.33062">
        <ele>1424.1999511719</ele>
        <time>2021-09-02T11:01:20Z</time>
      </trkpt>
      <trkpt lat="44.33014" lon="6.33059">
        <ele>1424.4000244141</ele>
        <time>2021-09-02T11:01:21Z</time>
      </trkpt>
      <trkpt lat="44.33008" lon="6.33039">
        <ele>1425.4000244141</ele>
        <time>2021-09-02T11:01:28Z</time>
      </trkpt>
      <trkpt lat="44.33007" lon="6.3302">
        <ele>1426.5999755859</ele>
        <time>2021-09-02T11:01:35Z</time>
      </trkpt>
      <trkpt lat="44.32998" lon="6.33002">
        <ele>1427.4000244141</ele>
        <time>2021-09-02T11:01:42Z</time>
      </trkpt>
      <trkpt lat="44.32997" lon="6.32998">
        <ele>1427.5999755859</ele>
        <time>2021-09-02T11:01:43Z</time>
      </trkpt>
      <trkpt lat="44.3299" lon="6.32976">
        <ele>1428.1999511719</ele>
        <time>2021-09-02T11:01:50Z</time>
      </trkpt>
      <trkpt lat="44.32991" lon="6.32964">
        <ele>1428.5999755859</ele>
        <time>2021-09-02T11:01:54Z</time>
      </trkpt>
      <trkpt lat="44.32991" lon="6.32958">
        <ele>1429</ele>
        <time>2021-09-02T11:01:56Z</time>
      </trkpt>
      <trkpt lat="44.32996" lon="6.32942">
        <ele>1429.8000488281</ele>
        <time>2021-09-02T11:02:02Z</time>
      </trkpt>
      <trkpt lat="44.33001" lon="6.32921">
        <ele>1430.8000488281</ele>
        <time>2021-09-02T11:02:09Z</time>
      </trkpt>
      <trkpt lat="44.33004" lon="6.32915">
        <ele>1431.1999511719</ele>
        <time>2021-09-02T11:02:11Z</time>
      </trkpt>
      <trkpt lat="44.33003" lon="6.32901">
        <ele>1431.8000488281</ele>
        <time>2021-09-02T11:02:16Z</time>
      </trkpt>
      <trkpt lat="44.33001" lon="6.32898">
        <ele>1431.8000488281</ele>
        <time>2021-09-02T11:02:17Z</time>
      </trkpt>
      <trkpt lat="44.32993" lon="6.3288">
        <ele>1433</ele>
        <time>2021-09-02T11:02:24Z</time>
      </trkpt>
      <trkpt lat="44.3299" lon="6.32876">
        <ele>1433.1999511719</ele>
        <time>2021-09-02T11:02:26Z</time>
      </trkpt>
      <trkpt lat="44.32981" lon="6.32864">
        <ele>1434</ele>
        <time>2021-09-02T11:02:32Z</time>
      </trkpt>
      <trkpt lat="44.32979" lon="6.32858">
        <ele>1434</ele>
        <time>2021-09-02T11:02:35Z</time>
      </trkpt>
      <trkpt lat="44.3298" lon="6.3285">
        <ele>1433.8000488281</ele>
        <time>2021-09-02T11:03:52Z</time>
      </trkpt>
      <trkpt lat="44.3297" lon="6.32844">
        <ele>1434.1999511719</ele>
        <time>2021-09-02T11:03:57Z</time>
      </trkpt>
      <trkpt lat="44.32961" lon="6.32827">
        <ele>1434.5999755859</ele>
        <time>2021-09-02T11:04:02Z</time>
      </trkpt>
      <trkpt lat="44.3296" lon="6.32823">
        <ele>1434.5999755859</ele>
        <time>2021-09-02T11:04:03Z</time>
      </trkpt>
      <trkpt lat="44.32952" lon="6.32802">
        <ele>1435</ele>
        <time>2021-09-02T11:04:08Z</time>
      </trkpt>
      <trkpt lat="44.32949" lon="6.328">
        <ele>1435</ele>
        <time>2021-09-02T11:04:09Z</time>
      </trkpt>
      <trkpt lat="44.32931" lon="6.32788">
        <ele>1435.4000244141</ele>
        <time>2021-09-02T11:04:15Z</time>
      </trkpt>
      <trkpt lat="44.32913" lon="6.32789">
        <ele>1436</ele>
        <time>2021-09-02T11:04:21Z</time>
      </trkpt>
      <trkpt lat="44.32906" lon="6.32789">
        <ele>1436</ele>
        <time>2021-09-02T11:04:23Z</time>
      </trkpt>
      <trkpt lat="44.32888" lon="6.32782">
        <ele>1436.4000244141</ele>
        <time>2021-09-02T11:04:28Z</time>
      </trkpt>
      <trkpt lat="44.32874" lon="6.32759">
        <ele>1436.5999755859</ele>
        <time>2021-09-02T11:04:34Z</time>
      </trkpt>
      <trkpt lat="44.32869" lon="6.32749">
        <ele>1437.1999511719</ele>
        <time>2021-09-02T11:04:37Z</time>
      </trkpt>
      <trkpt lat="44.32862" lon="6.32737">
        <ele>1437.8000488281</ele>
        <time>2021-09-02T11:04:41Z</time>
      </trkpt>
      <trkpt lat="44.32851" lon="6.32724">
        <ele>1438.4000244141</ele>
        <time>2021-09-02T11:04:46Z</time>
      </trkpt>
      <trkpt lat="44.32846" lon="6.32721">
        <ele>1438.5999755859</ele>
        <time>2021-09-02T11:04:48Z</time>
      </trkpt>
      <trkpt lat="44.32834" lon="6.32721">
        <ele>1438.8000488281</ele>
        <time>2021-09-02T11:04:53Z</time>
      </trkpt>
      <trkpt lat="44.32823" lon="6.32726">
        <ele>1439.4000244141</ele>
        <time>2021-09-02T11:04:58Z</time>
      </trkpt>
      <trkpt lat="44.32817" lon="6.32728">
        <ele>1440</ele>
        <time>2021-09-02T11:05:01Z</time>
      </trkpt>
      <trkpt lat="44.3281" lon="6.3273">
        <ele>1440.4000244141</ele>
        <time>2021-09-02T11:05:04Z</time>
      </trkpt>
      <trkpt lat="44.32798" lon="6.32734">
        <ele>1441.1999511719</ele>
        <time>2021-09-02T11:05:09Z</time>
      </trkpt>
      <trkpt lat="44.32789" lon="6.32735">
        <ele>1441.5999755859</ele>
        <time>2021-09-02T11:05:13Z</time>
      </trkpt>
      <trkpt lat="44.32779" lon="6.32734">
        <ele>1442</ele>
        <time>2021-09-02T11:05:17Z</time>
      </trkpt>
      <trkpt lat="44.3276" lon="6.32742">
        <ele>1442.4000244141</ele>
        <time>2021-09-02T11:05:25Z</time>
      </trkpt>
      <trkpt lat="44.32749" lon="6.32751">
        <ele>1442.8000488281</ele>
        <time>2021-09-02T11:05:31Z</time>
      </trkpt>
      <trkpt lat="44.32748" lon="6.32753">
        <ele>1442.8000488281</ele>
        <time>2021-09-02T11:05:32Z</time>
      </trkpt>
      <trkpt lat="44.32736" lon="6.32766">
        <ele>1443.8000488281</ele>
        <time>2021-09-02T11:05:40Z</time>
      </trkpt>
      <trkpt lat="44.32733" lon="6.32769">
        <ele>1444</ele>
        <time>2021-09-02T11:05:42Z</time>
      </trkpt>
      <trkpt lat="44.3273" lon="6.32775">
        <ele>1444.4000244141</ele>
        <time>2021-09-02T11:05:45Z</time>
      </trkpt>
      <trkpt lat="44.32728" lon="6.32782">
        <ele>1444.8000488281</ele>
        <time>2021-09-02T11:05:48Z</time>
      </trkpt>
      <trkpt lat="44.32726" lon="6.32794">
        <ele>1445.5999755859</ele>
        <time>2021-09-02T11:05:53Z</time>
      </trkpt>
      <trkpt lat="44.32725" lon="6.32799">
        <ele>1446</ele>
        <time>2021-09-02T11:05:55Z</time>
      </trkpt>
      <trkpt lat="44.32724" lon="6.32807">
        <ele>1446.8000488281</ele>
        <time>2021-09-02T11:05:59Z</time>
      </trkpt>
      <trkpt lat="44.32723" lon="6.32814">
        <ele>1448.5999755859</ele>
        <time>2021-09-02T11:11:18Z</time>
      </trkpt>
      <trkpt lat="44.32723" lon="6.32816">
        <ele>1448.5999755859</ele>
        <time>2021-09-02T11:11:19Z</time>
      </trkpt>
      <trkpt lat="44.32722" lon="6.32821">
        <ele>1448.5999755859</ele>
        <time>2021-09-02T11:11:22Z</time>
      </trkpt>
      <trkpt lat="44.32723" lon="6.32826">
        <ele>1448.8000488281</ele>
        <time>2021-09-02T11:11:24Z</time>
      </trkpt>
      <trkpt lat="44.32723" lon="6.32832">
        <ele>1449</ele>
        <time>2021-09-02T11:11:26Z</time>
      </trkpt>
      <trkpt lat="44.3272" lon="6.32844">
        <ele>1448.8000488281</ele>
        <time>2021-09-02T11:11:29Z</time>
      </trkpt>
      <trkpt lat="44.32714" lon="6.32874">
        <ele>1448</ele>
        <time>2021-09-02T11:11:35Z</time>
      </trkpt>
      <trkpt lat="44.32706" lon="6.32886">
        <ele>1447.4000244141</ele>
        <time>2021-09-02T11:11:38Z</time>
      </trkpt>
      <trkpt lat="44.32703" lon="6.32889">
        <ele>1447</ele>
        <time>2021-09-02T11:11:39Z</time>
      </trkpt>
      <trkpt lat="44.32694" lon="6.32899">
        <ele>1446</ele>
        <time>2021-09-02T11:11:42Z</time>
      </trkpt>
      <trkpt lat="44.32691" lon="6.32902">
        <ele>1445.8000488281</ele>
        <time>2021-09-02T11:11:43Z</time>
      </trkpt>
      <trkpt lat="44.32682" lon="6.3291">
        <ele>1445</ele>
        <time>2021-09-02T11:11:45Z</time>
      </trkpt>
      <trkpt lat="44.32677" lon="6.32915">
        <ele>1444.8000488281</ele>
        <time>2021-09-02T11:11:46Z</time>
      </trkpt>
      <trkpt lat="44.3266" lon="6.32933">
        <ele>1443.8000488281</ele>
        <time>2021-09-02T11:11:49Z</time>
      </trkpt>
      <trkpt lat="44.32653" lon="6.3294">
        <ele>1443.4000244141</ele>
        <time>2021-09-02T11:11:50Z</time>
      </trkpt>
      <trkpt lat="44.32639" lon="6.32955">
        <ele>1442.1999511719</ele>
        <time>2021-09-02T11:11:52Z</time>
      </trkpt>
      <trkpt lat="44.32633" lon="6.32962">
        <ele>1441.4000244141</ele>
        <time>2021-09-02T11:11:53Z</time>
      </trkpt>
      <trkpt lat="44.32628" lon="6.32969">
        <ele>1440.8000488281</ele>
        <time>2021-09-02T11:11:54Z</time>
      </trkpt>
      <trkpt lat="44.32619" lon="6.32984">
        <ele>1439</ele>
        <time>2021-09-02T11:11:56Z</time>
      </trkpt>
      <trkpt lat="44.32617" lon="6.32994">
        <ele>1437.8000488281</ele>
        <time>2021-09-02T11:11:57Z</time>
      </trkpt>
      <trkpt lat="44.32617" lon="6.33005">
        <ele>1436.8000488281</ele>
        <time>2021-09-02T11:11:58Z</time>
      </trkpt>
      <trkpt lat="44.32619" lon="6.33017">
        <ele>1435.5999755859</ele>
        <time>2021-09-02T11:11:59Z</time>
      </trkpt>
      <trkpt lat="44.32621" lon="6.33029">
        <ele>1434.8000488281</ele>
        <time>2021-09-02T11:12:00Z</time>
      </trkpt>
      <trkpt lat="44.32621" lon="6.3304">
        <ele>1433.8000488281</ele>
        <time>2021-09-02T11:12:01Z</time>
      </trkpt>
      <trkpt lat="44.32614" lon="6.33053">
        <ele>1432</ele>
        <time>2021-09-02T11:12:03Z</time>
      </trkpt>
      <trkpt lat="44.32601" lon="6.33054">
        <ele>1430</ele>
        <time>2021-09-02T11:12:05Z</time>
      </trkpt>
      <trkpt lat="44.3259" lon="6.33044">
        <ele>1428.1999511719</ele>
        <time>2021-09-02T11:12:07Z</time>
      </trkpt>
      <trkpt lat="44.32584" lon="6.33038">
        <ele>1427.4000244141</ele>
        <time>2021-09-02T11:12:08Z</time>
      </trkpt>
      <trkpt lat="44.32579" lon="6.3303">
        <ele>1426.8000488281</ele>
        <time>2021-09-02T11:12:09Z</time>
      </trkpt>
      <trkpt lat="44.3257" lon="6.33015">
        <ele>1426</ele>
        <time>2021-09-02T11:12:11Z</time>
      </trkpt>
      <trkpt lat="44.32564" lon="6.3301">
        <ele>1425.4000244141</ele>
        <time>2021-09-02T11:12:12Z</time>
      </trkpt>
      <trkpt lat="44.32543" lon="6.32999">
        <ele>1424.4000244141</ele>
        <time>2021-09-02T11:12:15Z</time>
      </trkpt>
      <trkpt lat="44.32535" lon="6.32997">
        <ele>1423.8000488281</ele>
        <time>2021-09-02T11:12:16Z</time>
      </trkpt>
      <trkpt lat="44.32528" lon="6.32996">
        <ele>1423.1999511719</ele>
        <time>2021-09-02T11:12:17Z</time>
      </trkpt>
      <trkpt lat="44.32511" lon="6.32992">
        <ele>1421.5999755859</ele>
        <time>2021-09-02T11:12:19Z</time>
      </trkpt>
      <trkpt lat="44.32495" lon="6.32985">
        <ele>1420.1999511719</ele>
        <time>2021-09-02T11:12:21Z</time>
      </trkpt>
      <trkpt lat="44.3248" lon="6.32974">
        <ele>1418.8000488281</ele>
        <time>2021-09-02T11:12:23Z</time>
      </trkpt>
      <trkpt lat="44.32464" lon="6.32962">
        <ele>1417.4000244141</ele>
        <time>2021-09-02T11:12:25Z</time>
      </trkpt>
      <trkpt lat="44.32456" lon="6.32955">
        <ele>1416.8000488281</ele>
        <time>2021-09-02T11:12:26Z</time>
      </trkpt>
      <trkpt lat="44.32448" lon="6.32949">
        <ele>1416.1999511719</ele>
        <time>2021-09-02T11:12:27Z</time>
      </trkpt>
      <trkpt lat="44.32433" lon="6.32934">
        <ele>1415</ele>
        <time>2021-09-02T11:12:29Z</time>
      </trkpt>
      <trkpt lat="44.32419" lon="6.32918">
        <ele>1413.5999755859</ele>
        <time>2021-09-02T11:12:31Z</time>
      </trkpt>
      <trkpt lat="44.32406" lon="6.32903">
        <ele>1412.1999511719</ele>
        <time>2021-09-02T11:12:33Z</time>
      </trkpt>
      <trkpt lat="44.32395" lon="6.3289">
        <ele>1411</ele>
        <time>2021-09-02T11:12:35Z</time>
      </trkpt>
      <trkpt lat="44.32389" lon="6.32884">
        <ele>1410</ele>
        <time>2021-09-02T11:12:36Z</time>
      </trkpt>
      <trkpt lat="44.32383" lon="6.3288">
        <ele>1409.5999755859</ele>
        <time>2021-09-02T11:12:37Z</time>
      </trkpt>
      <trkpt lat="44.32374" lon="6.3287">
        <ele>1408.8000488281</ele>
        <time>2021-09-02T11:12:39Z</time>
      </trkpt>
      <trkpt lat="44.32361" lon="6.32859">
        <ele>1407.4000244141</ele>
        <time>2021-09-02T11:12:42Z</time>
      </trkpt>
      <trkpt lat="44.32348" lon="6.32861">
        <ele>1406</ele>
        <time>2021-09-02T11:12:45Z</time>
      </trkpt>
      <trkpt lat="44.32335" lon="6.3287">
        <ele>1404.5999755859</ele>
        <time>2021-09-02T11:12:48Z</time>
      </trkpt>
      <trkpt lat="44.32331" lon="6.32873">
        <ele>1404.1999511719</ele>
        <time>2021-09-02T11:12:49Z</time>
      </trkpt>
      <trkpt lat="44.32322" lon="6.32875">
        <ele>1403.1999511719</ele>
        <time>2021-09-02T11:12:51Z</time>
      </trkpt>
      <trkpt lat="44.32317" lon="6.32875">
        <ele>1402.5999755859</ele>
        <time>2021-09-02T11:12:52Z</time>
      </trkpt>
      <trkpt lat="44.32311" lon="6.32874">
        <ele>1402.1999511719</ele>
        <time>2021-09-02T11:12:53Z</time>
      </trkpt>
      <trkpt lat="44.323" lon="6.32878">
        <ele>1401</ele>
        <time>2021-09-02T11:12:55Z</time>
      </trkpt>
      <trkpt lat="44.32295" lon="6.3288">
        <ele>1400.4000244141</ele>
        <time>2021-09-02T11:12:56Z</time>
      </trkpt>
      <trkpt lat="44.32289" lon="6.32883">
        <ele>1399.8000488281</ele>
        <time>2021-09-02T11:12:57Z</time>
      </trkpt>
      <trkpt lat="44.32283" lon="6.32887">
        <ele>1399.4000244141</ele>
        <time>2021-09-02T11:12:58Z</time>
      </trkpt>
      <trkpt lat="44.32278" lon="6.32892">
        <ele>1398.8000488281</ele>
        <time>2021-09-02T11:12:59Z</time>
      </trkpt>
      <trkpt lat="44.32275" lon="6.32898">
        <ele>1397.1999511719</ele>
        <time>2021-09-02T11:13:00Z</time>
      </trkpt>
      <trkpt lat="44.32272" lon="6.3291">
        <ele>1395.5999755859</ele>
        <time>2021-09-02T11:13:02Z</time>
      </trkpt>
      <trkpt lat="44.32273" lon="6.32916">
        <ele>1394.8000488281</ele>
        <time>2021-09-02T11:13:03Z</time>
      </trkpt>
      <trkpt lat="44.32274" lon="6.32922">
        <ele>1393.8000488281</ele>
        <time>2021-09-02T11:13:04Z</time>
      </trkpt>
      <trkpt lat="44.32276" lon="6.32928">
        <ele>1392.8000488281</ele>
        <time>2021-09-02T11:13:05Z</time>
      </trkpt>
      <trkpt lat="44.32276" lon="6.32933">
        <ele>1392</ele>
        <time>2021-09-02T11:13:06Z</time>
      </trkpt>
      <trkpt lat="44.32273" lon="6.32935">
        <ele>1391</ele>
        <time>2021-09-02T11:13:07Z</time>
      </trkpt>
      <trkpt lat="44.32269" lon="6.32934">
        <ele>1390.1999511719</ele>
        <time>2021-09-02T11:13:08Z</time>
      </trkpt>
      <trkpt lat="44.32261" lon="6.32927">
        <ele>1388.8000488281</ele>
        <time>2021-09-02T11:13:10Z</time>
      </trkpt>
      <trkpt lat="44.32251" lon="6.32914">
        <ele>1387.5999755859</ele>
        <time>2021-09-02T11:13:12Z</time>
      </trkpt>
      <trkpt lat="44.32241" lon="6.32897">
        <ele>1386.5999755859</ele>
        <time>2021-09-02T11:13:14Z</time>
      </trkpt>
      <trkpt lat="44.32236" lon="6.32888">
        <ele>1386.1999511719</ele>
        <time>2021-09-02T11:13:15Z</time>
      </trkpt>
      <trkpt lat="44.32227" lon="6.32871">
        <ele>1384.8000488281</ele>
        <time>2021-09-02T11:13:17Z</time>
      </trkpt>
      <trkpt lat="44.32218" lon="6.32856">
        <ele>1383.5999755859</ele>
        <time>2021-09-02T11:13:19Z</time>
      </trkpt>
      <trkpt lat="44.32214" lon="6.32849">
        <ele>1383</ele>
        <time>2021-09-02T11:13:20Z</time>
      </trkpt>
      <trkpt lat="44.32207" lon="6.32848">
        <ele>1382</ele>
        <time>2021-09-02T11:13:21Z</time>
      </trkpt>
      <trkpt lat="44.322" lon="6.3285">
        <ele>1381</ele>
        <time>2021-09-02T11:13:22Z</time>
      </trkpt>
      <trkpt lat="44.32193" lon="6.32854">
        <ele>1380</ele>
        <time>2021-09-02T11:13:23Z</time>
      </trkpt>
      <trkpt lat="44.32186" lon="6.32859">
        <ele>1378</ele>
        <time>2021-09-02T11:13:24Z</time>
      </trkpt>
      <trkpt lat="44.32178" lon="6.32861">
        <ele>1377</ele>
        <time>2021-09-02T11:13:25Z</time>
      </trkpt>
      <trkpt lat="44.3217" lon="6.32861">
        <ele>1376</ele>
        <time>2021-09-02T11:13:26Z</time>
      </trkpt>
      <trkpt lat="44.32154" lon="6.32852">
        <ele>1374.4000244141</ele>
        <time>2021-09-02T11:13:28Z</time>
      </trkpt>
      <trkpt lat="44.32147" lon="6.3285">
        <ele>1373.5999755859</ele>
        <time>2021-09-02T11:13:29Z</time>
      </trkpt>
      <trkpt lat="44.3214" lon="6.32853">
        <ele>1372.8000488281</ele>
        <time>2021-09-02T11:13:30Z</time>
      </trkpt>
      <trkpt lat="44.32132" lon="6.32856">
        <ele>1371.8000488281</ele>
        <time>2021-09-02T11:13:31Z</time>
      </trkpt>
      <trkpt lat="44.32125" lon="6.32859">
        <ele>1371</ele>
        <time>2021-09-02T11:13:32Z</time>
      </trkpt>
      <trkpt lat="44.32117" lon="6.3286">
        <ele>1370</ele>
        <time>2021-09-02T11:13:33Z</time>
      </trkpt>
      <trkpt lat="44.32111" lon="6.3286">
        <ele>1369</ele>
        <time>2021-09-02T11:13:34Z</time>
      </trkpt>
      <trkpt lat="44.32105" lon="6.32858">
        <ele>1368.1999511719</ele>
        <time>2021-09-02T11:13:35Z</time>
      </trkpt>
      <trkpt lat="44.32099" lon="6.32859">
        <ele>1367.4000244141</ele>
        <time>2021-09-02T11:13:36Z</time>
      </trkpt>
      <trkpt lat="44.32091" lon="6.32867">
        <ele>1365.5999755859</ele>
        <time>2021-09-02T11:13:38Z</time>
      </trkpt>
      <trkpt lat="44.32085" lon="6.3287">
        <ele>1364.8000488281</ele>
        <time>2021-09-02T11:13:39Z</time>
      </trkpt>
      <trkpt lat="44.3208" lon="6.32869">
        <ele>1363.8000488281</ele>
        <time>2021-09-02T11:13:40Z</time>
      </trkpt>
      <trkpt lat="44.32075" lon="6.32866">
        <ele>1363</ele>
        <time>2021-09-02T11:13:41Z</time>
      </trkpt>
      <trkpt lat="44.3207" lon="6.32862">
        <ele>1362.1999511719</ele>
        <time>2021-09-02T11:13:42Z</time>
      </trkpt>
      <trkpt lat="44.32056" lon="6.32849">
        <ele>1360.4000244141</ele>
        <time>2021-09-02T11:13:44Z</time>
      </trkpt>
      <trkpt lat="44.32049" lon="6.32842">
        <ele>1359.5999755859</ele>
        <time>2021-09-02T11:13:45Z</time>
      </trkpt>
      <trkpt lat="44.32041" lon="6.32835">
        <ele>1358.8000488281</ele>
        <time>2021-09-02T11:13:46Z</time>
      </trkpt>
      <trkpt lat="44.32025" lon="6.32818">
        <ele>1356.4000244141</ele>
        <time>2021-09-02T11:13:48Z</time>
      </trkpt>
      <trkpt lat="44.32018" lon="6.3281">
        <ele>1355.4000244141</ele>
        <time>2021-09-02T11:13:49Z</time>
      </trkpt>
      <trkpt lat="44.32009" lon="6.32802">
        <ele>1354.1999511719</ele>
        <time>2021-09-02T11:13:50Z</time>
      </trkpt>
      <trkpt lat="44.32001" lon="6.32796">
        <ele>1353</ele>
        <time>2021-09-02T11:13:51Z</time>
      </trkpt>
      <trkpt lat="44.31993" lon="6.3279">
        <ele>1351.8000488281</ele>
        <time>2021-09-02T11:13:52Z</time>
      </trkpt>
      <trkpt lat="44.31986" lon="6.32785">
        <ele>1350.5999755859</ele>
        <time>2021-09-02T11:13:53Z</time>
      </trkpt>
      <trkpt lat="44.31978" lon="6.32782">
        <ele>1349.4000244141</ele>
        <time>2021-09-02T11:13:54Z</time>
      </trkpt>
      <trkpt lat="44.31967" lon="6.3278">
        <ele>1348.1999511719</ele>
        <time>2021-09-02T11:13:55Z</time>
      </trkpt>
      <trkpt lat="44.31959" lon="6.32778">
        <ele>1347.1999511719</ele>
        <time>2021-09-02T11:13:56Z</time>
      </trkpt>
      <trkpt lat="44.3195" lon="6.32776">
        <ele>1346.1999511719</ele>
        <time>2021-09-02T11:13:57Z</time>
      </trkpt>
      <trkpt lat="44.3194" lon="6.32779">
        <ele>1345</ele>
        <time>2021-09-02T11:13:58Z</time>
      </trkpt>
      <trkpt lat="44.31919" lon="6.32782">
        <ele>1343.1999511719</ele>
        <time>2021-09-02T11:14:00Z</time>
      </trkpt>
      <trkpt lat="44.31911" lon="6.32784">
        <ele>1342.4000244141</ele>
        <time>2021-09-02T11:14:01Z</time>
      </trkpt>
      <trkpt lat="44.31904" lon="6.32788">
        <ele>1341.4000244141</ele>
        <time>2021-09-02T11:14:02Z</time>
      </trkpt>
      <trkpt lat="44.31889" lon="6.328">
        <ele>1339.5999755859</ele>
        <time>2021-09-02T11:14:04Z</time>
      </trkpt>
      <trkpt lat="44.3188" lon="6.32804">
        <ele>1338.5999755859</ele>
        <time>2021-09-02T11:14:05Z</time>
      </trkpt>
      <trkpt lat="44.31871" lon="6.32809">
        <ele>1337.5999755859</ele>
        <time>2021-09-02T11:14:06Z</time>
      </trkpt>
      <trkpt lat="44.31852" lon="6.32814">
        <ele>1335.5999755859</ele>
        <time>2021-09-02T11:14:08Z</time>
      </trkpt>
      <trkpt lat="44.3183" lon="6.32816">
        <ele>1333.8000488281</ele>
        <time>2021-09-02T11:14:10Z</time>
      </trkpt>
      <trkpt lat="44.31818" lon="6.32817">
        <ele>1332.8000488281</ele>
        <time>2021-09-02T11:14:11Z</time>
      </trkpt>
      <trkpt lat="44.31807" lon="6.32818">
        <ele>1330.4000244141</ele>
        <time>2021-09-02T11:14:12Z</time>
      </trkpt>
      <trkpt lat="44.31796" lon="6.32818">
        <ele>1329.1999511719</ele>
        <time>2021-09-02T11:14:13Z</time>
      </trkpt>
      <trkpt lat="44.31787" lon="6.32818">
        <ele>1328</ele>
        <time>2021-09-02T11:14:14Z</time>
      </trkpt>
      <trkpt lat="44.31778" lon="6.32816">
        <ele>1327</ele>
        <time>2021-09-02T11:14:15Z</time>
      </trkpt>
      <trkpt lat="44.3177" lon="6.3281">
        <ele>1326.1999511719</ele>
        <time>2021-09-02T11:14:16Z</time>
      </trkpt>
      <trkpt lat="44.31756" lon="6.32795">
        <ele>1324.5999755859</ele>
        <time>2021-09-02T11:14:18Z</time>
      </trkpt>
      <trkpt lat="44.3175" lon="6.32785">
        <ele>1323.5999755859</ele>
        <time>2021-09-02T11:14:19Z</time>
      </trkpt>
      <trkpt lat="44.31744" lon="6.32775">
        <ele>1322.8000488281</ele>
        <time>2021-09-02T11:14:20Z</time>
      </trkpt>
      <trkpt lat="44.31737" lon="6.32768">
        <ele>1322</ele>
        <time>2021-09-02T11:14:21Z</time>
      </trkpt>
      <trkpt lat="44.31731" lon="6.32761">
        <ele>1321.4000244141</ele>
        <time>2021-09-02T11:14:22Z</time>
      </trkpt>
      <trkpt lat="44.31725" lon="6.32757">
        <ele>1320.5999755859</ele>
        <time>2021-09-02T11:14:23Z</time>
      </trkpt>
      <trkpt lat="44.31719" lon="6.32749">
        <ele>1320</ele>
        <time>2021-09-02T11:14:24Z</time>
      </trkpt>
      <trkpt lat="44.31707" lon="6.32732">
        <ele>1318.5999755859</ele>
        <time>2021-09-02T11:14:26Z</time>
      </trkpt>
      <trkpt lat="44.31702" lon="6.32723">
        <ele>1318</ele>
        <time>2021-09-02T11:14:27Z</time>
      </trkpt>
      <trkpt lat="44.31696" lon="6.32715">
        <ele>1317.1999511719</ele>
        <time>2021-09-02T11:14:28Z</time>
      </trkpt>
      <trkpt lat="44.31688" lon="6.32697">
        <ele>1315.5999755859</ele>
        <time>2021-09-02T11:14:30Z</time>
      </trkpt>
      <trkpt lat="44.31683" lon="6.32689">
        <ele>1314.5999755859</ele>
        <time>2021-09-02T11:14:31Z</time>
      </trkpt>
      <trkpt lat="44.31679" lon="6.32682">
        <ele>1313.8000488281</ele>
        <time>2021-09-02T11:14:32Z</time>
      </trkpt>
      <trkpt lat="44.31666" lon="6.32673">
        <ele>1312.4000244141</ele>
        <time>2021-09-02T11:14:34Z</time>
      </trkpt>
      <trkpt lat="44.31658" lon="6.3267">
        <ele>1311.8000488281</ele>
        <time>2021-09-02T11:14:35Z</time>
      </trkpt>
      <trkpt lat="44.3165" lon="6.32669">
        <ele>1310.5999755859</ele>
        <time>2021-09-02T11:14:36Z</time>
      </trkpt>
      <trkpt lat="44.31634" lon="6.32671">
        <ele>1309.5999755859</ele>
        <time>2021-09-02T11:14:38Z</time>
      </trkpt>
      <trkpt lat="44.3161" lon="6.32677">
        <ele>1308.5999755859</ele>
        <time>2021-09-02T11:14:41Z</time>
      </trkpt>
      <trkpt lat="44.31603" lon="6.32677">
        <ele>1308.4000244141</ele>
        <time>2021-09-02T11:14:42Z</time>
      </trkpt>
      <trkpt lat="44.31578" lon="6.32675">
        <ele>1307.4000244141</ele>
        <time>2021-09-02T11:14:45Z</time>
      </trkpt>
      <trkpt lat="44.3157" lon="6.32671">
        <ele>1307</ele>
        <time>2021-09-02T11:14:46Z</time>
      </trkpt>
      <trkpt lat="44.31561" lon="6.32668">
        <ele>1306.5999755859</ele>
        <time>2021-09-02T11:14:47Z</time>
      </trkpt>
      <trkpt lat="44.31545" lon="6.32659">
        <ele>1305.8000488281</ele>
        <time>2021-09-02T11:14:49Z</time>
      </trkpt>
      <trkpt lat="44.31523" lon="6.32642">
        <ele>1304.8000488281</ele>
        <time>2021-09-02T11:14:52Z</time>
      </trkpt>
      <trkpt lat="44.31516" lon="6.32637">
        <ele>1304.4000244141</ele>
        <time>2021-09-02T11:14:53Z</time>
      </trkpt>
      <trkpt lat="44.31488" lon="6.32623">
        <ele>1303.1999511719</ele>
        <time>2021-09-02T11:14:57Z</time>
      </trkpt>
      <trkpt lat="44.31465" lon="6.32615">
        <ele>1302</ele>
        <time>2021-09-02T11:15:00Z</time>
      </trkpt>
      <trkpt lat="44.31442" lon="6.32607">
        <ele>1301.1999511719</ele>
        <time>2021-09-02T11:15:03Z</time>
      </trkpt>
      <trkpt lat="44.31435" lon="6.32604">
        <ele>1301</ele>
        <time>2021-09-02T11:15:04Z</time>
      </trkpt>
      <trkpt lat="44.31412" lon="6.32595">
        <ele>1300.1999511719</ele>
        <time>2021-09-02T11:15:07Z</time>
      </trkpt>
      <trkpt lat="44.314" lon="6.32582">
        <ele>1299.8000488281</ele>
        <time>2021-09-02T11:15:09Z</time>
      </trkpt>
      <trkpt lat="44.31388" lon="6.32568">
        <ele>1299.1999511719</ele>
        <time>2021-09-02T11:15:11Z</time>
      </trkpt>
      <trkpt lat="44.31378" lon="6.32553">
        <ele>1298.5999755859</ele>
        <time>2021-09-02T11:15:13Z</time>
      </trkpt>
      <trkpt lat="44.31373" lon="6.32546">
        <ele>1298.4000244141</ele>
        <time>2021-09-02T11:15:14Z</time>
      </trkpt>
      <trkpt lat="44.31352" lon="6.32521">
        <ele>1297.1999511719</ele>
        <time>2021-09-02T11:15:18Z</time>
      </trkpt>
      <trkpt lat="44.31335" lon="6.32503">
        <ele>1296.1999511719</ele>
        <time>2021-09-02T11:15:21Z</time>
      </trkpt>
      <trkpt lat="44.31329" lon="6.32497">
        <ele>1296</ele>
        <time>2021-09-02T11:15:22Z</time>
      </trkpt>
      <trkpt lat="44.31317" lon="6.32487">
        <ele>1295</ele>
        <time>2021-09-02T11:15:24Z</time>
      </trkpt>
      <trkpt lat="44.31298" lon="6.32474">
        <ele>1293.8000488281</ele>
        <time>2021-09-02T11:15:27Z</time>
      </trkpt>
      <trkpt lat="44.31292" lon="6.32468">
        <ele>1293.4000244141</ele>
        <time>2021-09-02T11:15:28Z</time>
      </trkpt>
      <trkpt lat="44.31278" lon="6.32448">
        <ele>1292.5999755859</ele>
        <time>2021-09-02T11:15:31Z</time>
      </trkpt>
      <trkpt lat="44.31259" lon="6.32425">
        <ele>1291.5999755859</ele>
        <time>2021-09-02T11:15:35Z</time>
      </trkpt>
      <trkpt lat="44.31254" lon="6.32421">
        <ele>1291.4000244141</ele>
        <time>2021-09-02T11:15:36Z</time>
      </trkpt>
      <trkpt lat="44.31237" lon="6.3241">
        <ele>1290.4000244141</ele>
        <time>2021-09-02T11:15:39Z</time>
      </trkpt>
      <trkpt lat="44.31214" lon="6.32393">
        <ele>1289.8000488281</ele>
        <time>2021-09-02T11:15:43Z</time>
      </trkpt>
      <trkpt lat="44.31201" lon="6.32386">
        <ele>1289.4000244141</ele>
        <time>2021-09-02T11:15:45Z</time>
      </trkpt>
      <trkpt lat="44.31193" lon="6.32385">
        <ele>1289.4000244141</ele>
        <time>2021-09-02T11:15:46Z</time>
      </trkpt>
      <trkpt lat="44.31186" lon="6.32385">
        <ele>1289.1999511719</ele>
        <time>2021-09-02T11:15:47Z</time>
      </trkpt>
      <trkpt lat="44.31172" lon="6.32388">
        <ele>1288.1999511719</ele>
        <time>2021-09-02T11:15:49Z</time>
      </trkpt>
      <trkpt lat="44.31158" lon="6.32395">
        <ele>1287.8000488281</ele>
        <time>2021-09-02T11:15:51Z</time>
      </trkpt>
      <trkpt lat="44.31152" lon="6.32399">
        <ele>1287.5999755859</ele>
        <time>2021-09-02T11:15:52Z</time>
      </trkpt>
      <trkpt lat="44.31138" lon="6.32406">
        <ele>1287.1999511719</ele>
        <time>2021-09-02T11:15:54Z</time>
      </trkpt>
      <trkpt lat="44.31118" lon="6.32413">
        <ele>1286.4000244141</ele>
        <time>2021-09-02T11:15:57Z</time>
      </trkpt>
      <trkpt lat="44.31111" lon="6.32416">
        <ele>1286</ele>
        <time>2021-09-02T11:15:58Z</time>
      </trkpt>
      <trkpt lat="44.31082" lon="6.32432">
        <ele>1284.8000488281</ele>
        <time>2021-09-02T11:16:02Z</time>
      </trkpt>
      <trkpt lat="44.31068" lon="6.32436">
        <ele>1284</ele>
        <time>2021-09-02T11:16:04Z</time>
      </trkpt>
      <trkpt lat="44.31061" lon="6.32436">
        <ele>1283.5999755859</ele>
        <time>2021-09-02T11:16:05Z</time>
      </trkpt>
      <trkpt lat="44.3104" lon="6.32429">
        <ele>1282.8000488281</ele>
        <time>2021-09-02T11:16:08Z</time>
      </trkpt>
      <trkpt lat="44.31026" lon="6.32424">
        <ele>1282.4000244141</ele>
        <time>2021-09-02T11:16:10Z</time>
      </trkpt>
      <trkpt lat="44.30992" lon="6.32416">
        <ele>1281.5999755859</ele>
        <time>2021-09-02T11:16:15Z</time>
      </trkpt>
      <trkpt lat="44.30985" lon="6.32415">
        <ele>1281.4000244141</ele>
        <time>2021-09-02T11:16:16Z</time>
      </trkpt>
      <trkpt lat="44.30936" lon="6.32412">
        <ele>1280.4000244141</ele>
        <time>2021-09-02T11:16:23Z</time>
      </trkpt>
      <trkpt lat="44.30915" lon="6.32408">
        <ele>1279.5999755859</ele>
        <time>2021-09-02T11:16:26Z</time>
      </trkpt>
      <trkpt lat="44.30907" lon="6.32406">
        <ele>1279.1999511719</ele>
        <time>2021-09-02T11:16:27Z</time>
      </trkpt>
      <trkpt lat="44.309" lon="6.32403">
        <ele>1279</ele>
        <time>2021-09-02T11:16:28Z</time>
      </trkpt>
      <trkpt lat="44.30881" lon="6.32393">
        <ele>1278.1999511719</ele>
        <time>2021-09-02T11:16:31Z</time>
      </trkpt>
      <trkpt lat="44.30874" lon="6.32392">
        <ele>1277.8000488281</ele>
        <time>2021-09-02T11:16:32Z</time>
      </trkpt>
      <trkpt lat="44.30868" lon="6.32392">
        <ele>1277.5999755859</ele>
        <time>2021-09-02T11:16:33Z</time>
      </trkpt>
      <trkpt lat="44.30855" lon="6.32391">
        <ele>1277</ele>
        <time>2021-09-02T11:16:35Z</time>
      </trkpt>
      <trkpt lat="44.30843" lon="6.32393">
        <ele>1276.5999755859</ele>
        <time>2021-09-02T11:16:37Z</time>
      </trkpt>
      <trkpt lat="44.30825" lon="6.32399">
        <ele>1276</ele>
        <time>2021-09-02T11:16:40Z</time>
      </trkpt>
      <trkpt lat="44.30818" lon="6.324">
        <ele>1275.8000488281</ele>
        <time>2021-09-02T11:16:41Z</time>
      </trkpt>
      <trkpt lat="44.30812" lon="6.32399">
        <ele>1275.5999755859</ele>
        <time>2021-09-02T11:16:42Z</time>
      </trkpt>
      <trkpt lat="44.30799" lon="6.32389">
        <ele>1275.4000244141</ele>
        <time>2021-09-02T11:16:44Z</time>
      </trkpt>
      <trkpt lat="44.30782" lon="6.32365">
        <ele>1274.5999755859</ele>
        <time>2021-09-02T11:16:47Z</time>
      </trkpt>
      <trkpt lat="44.30777" lon="6.32357">
        <ele>1274.1999511719</ele>
        <time>2021-09-02T11:16:48Z</time>
      </trkpt>
      <trkpt lat="44.30771" lon="6.32351">
        <ele>1274</ele>
        <time>2021-09-02T11:16:49Z</time>
      </trkpt>
      <trkpt lat="44.30765" lon="6.32346">
        <ele>1273.5999755859</ele>
        <time>2021-09-02T11:16:50Z</time>
      </trkpt>
      <trkpt lat="44.30762" lon="6.32339">
        <ele>1273</ele>
        <time>2021-09-02T11:16:51Z</time>
      </trkpt>
      <trkpt lat="44.30758" lon="6.32331">
        <ele>1272.4000244141</ele>
        <time>2021-09-02T11:16:52Z</time>
      </trkpt>
      <trkpt lat="44.30751" lon="6.32316">
        <ele>1271.1999511719</ele>
        <time>2021-09-02T11:16:54Z</time>
      </trkpt>
      <trkpt lat="44.30745" lon="6.32301">
        <ele>1270</ele>
        <time>2021-09-02T11:16:56Z</time>
      </trkpt>
      <trkpt lat="44.30747" lon="6.3228">
        <ele>1268.5999755859</ele>
        <time>2021-09-02T11:16:58Z</time>
      </trkpt>
      <trkpt lat="44.30743" lon="6.32262">
        <ele>1265.8000488281</ele>
        <time>2021-09-02T11:17:00Z</time>
      </trkpt>
      <trkpt lat="44.30734" lon="6.32249">
        <ele>1264.1999511719</ele>
        <time>2021-09-02T11:17:02Z</time>
      </trkpt>
      <trkpt lat="44.30728" lon="6.32244">
        <ele>1263.4000244141</ele>
        <time>2021-09-02T11:17:03Z</time>
      </trkpt>
      <trkpt lat="44.30721" lon="6.32239">
        <ele>1262.8000488281</ele>
        <time>2021-09-02T11:17:04Z</time>
      </trkpt>
      <trkpt lat="44.30713" lon="6.32233">
        <ele>1262.1999511719</ele>
        <time>2021-09-02T11:17:05Z</time>
      </trkpt>
      <trkpt lat="44.30706" lon="6.32228">
        <ele>1261.4000244141</ele>
        <time>2021-09-02T11:17:06Z</time>
      </trkpt>
      <trkpt lat="44.30701" lon="6.32221">
        <ele>1260.8000488281</ele>
        <time>2021-09-02T11:17:07Z</time>
      </trkpt>
      <trkpt lat="44.30696" lon="6.32214">
        <ele>1260</ele>
        <time>2021-09-02T11:17:08Z</time>
      </trkpt>
      <trkpt lat="44.30684" lon="6.32204">
        <ele>1258.4000244141</ele>
        <time>2021-09-02T11:17:10Z</time>
      </trkpt>
      <trkpt lat="44.30679" lon="6.32207">
        <ele>1257.4000244141</ele>
        <time>2021-09-02T11:17:11Z</time>
      </trkpt>
      <trkpt lat="44.30674" lon="6.32212">
        <ele>1256.4000244141</ele>
        <time>2021-09-02T11:17:12Z</time>
      </trkpt>
      <trkpt lat="44.30671" lon="6.3222">
        <ele>1255.5999755859</ele>
        <time>2021-09-02T11:17:13Z</time>
      </trkpt>
      <trkpt lat="44.3067" lon="6.32228">
        <ele>1255</ele>
        <time>2021-09-02T11:17:14Z</time>
      </trkpt>
      <trkpt lat="44.30668" lon="6.32238">
        <ele>1254.4000244141</ele>
        <time>2021-09-02T11:17:15Z</time>
      </trkpt>
      <trkpt lat="44.30664" lon="6.32247">
        <ele>1253.8000488281</ele>
        <time>2021-09-02T11:17:16Z</time>
      </trkpt>
      <trkpt lat="44.30651" lon="6.32262">
        <ele>1252.4000244141</ele>
        <time>2021-09-02T11:17:18Z</time>
      </trkpt>
      <trkpt lat="44.30642" lon="6.32265">
        <ele>1251.5999755859</ele>
        <time>2021-09-02T11:17:19Z</time>
      </trkpt>
      <trkpt lat="44.30633" lon="6.32266">
        <ele>1250.8000488281</ele>
        <time>2021-09-02T11:17:20Z</time>
      </trkpt>
      <trkpt lat="44.30615" lon="6.32268">
        <ele>1249.5999755859</ele>
        <time>2021-09-02T11:17:22Z</time>
      </trkpt>
      <trkpt lat="44.30606" lon="6.32271">
        <ele>1249</ele>
        <time>2021-09-02T11:17:23Z</time>
      </trkpt>
      <trkpt lat="44.30598" lon="6.32275">
        <ele>1247.8000488281</ele>
        <time>2021-09-02T11:17:24Z</time>
      </trkpt>
      <trkpt lat="44.30581" lon="6.32281">
        <ele>1246.4000244141</ele>
        <time>2021-09-02T11:17:26Z</time>
      </trkpt>
      <trkpt lat="44.30564" lon="6.32275">
        <ele>1245.1999511719</ele>
        <time>2021-09-02T11:17:28Z</time>
      </trkpt>
      <trkpt lat="44.30556" lon="6.32273">
        <ele>1244.4000244141</ele>
        <time>2021-09-02T11:17:29Z</time>
      </trkpt>
      <trkpt lat="44.30548" lon="6.32274">
        <ele>1243.8000488281</ele>
        <time>2021-09-02T11:17:30Z</time>
      </trkpt>
      <trkpt lat="44.30534" lon="6.32278">
        <ele>1242.8000488281</ele>
        <time>2021-09-02T11:17:32Z</time>
      </trkpt>
      <trkpt lat="44.3052" lon="6.32285">
        <ele>1241.8000488281</ele>
        <time>2021-09-02T11:17:34Z</time>
      </trkpt>
      <trkpt lat="44.30505" lon="6.32291">
        <ele>1240.5999755859</ele>
        <time>2021-09-02T11:17:36Z</time>
      </trkpt>
      <trkpt lat="44.3049" lon="6.32298">
        <ele>1239.5999755859</ele>
        <time>2021-09-02T11:17:38Z</time>
      </trkpt>
      <trkpt lat="44.30482" lon="6.32302">
        <ele>1239.1999511719</ele>
        <time>2021-09-02T11:17:39Z</time>
      </trkpt>
      <trkpt lat="44.3046" lon="6.32321">
        <ele>1238.1999511719</ele>
        <time>2021-09-02T11:17:42Z</time>
      </trkpt>
      <trkpt lat="44.30437" lon="6.32339">
        <ele>1236.8000488281</ele>
        <time>2021-09-02T11:17:45Z</time>
      </trkpt>
      <trkpt lat="44.30428" lon="6.32342">
        <ele>1236</ele>
        <time>2021-09-02T11:17:46Z</time>
      </trkpt>
      <trkpt lat="44.30419" lon="6.32347">
        <ele>1235.4000244141</ele>
        <time>2021-09-02T11:17:47Z</time>
      </trkpt>
      <trkpt lat="44.3041" lon="6.32352">
        <ele>1234</ele>
        <time>2021-09-02T11:17:48Z</time>
      </trkpt>
      <trkpt lat="44.30393" lon="6.32364">
        <ele>1232.8000488281</ele>
        <time>2021-09-02T11:17:50Z</time>
      </trkpt>
      <trkpt lat="44.30384" lon="6.32369">
        <ele>1232.1999511719</ele>
        <time>2021-09-02T11:17:51Z</time>
      </trkpt>
      <trkpt lat="44.30376" lon="6.32373">
        <ele>1231.5999755859</ele>
        <time>2021-09-02T11:17:52Z</time>
      </trkpt>
      <trkpt lat="44.3036" lon="6.32384">
        <ele>1230.5999755859</ele>
        <time>2021-09-02T11:17:54Z</time>
      </trkpt>
      <trkpt lat="44.30343" lon="6.32391">
        <ele>1229.5999755859</ele>
        <time>2021-09-02T11:17:56Z</time>
      </trkpt>
      <trkpt lat="44.30327" lon="6.32395">
        <ele>1228.4000244141</ele>
        <time>2021-09-02T11:17:58Z</time>
      </trkpt>
      <trkpt lat="44.30311" lon="6.32395">
        <ele>1227.5999755859</ele>
        <time>2021-09-02T11:18:00Z</time>
      </trkpt>
      <trkpt lat="44.30304" lon="6.32394">
        <ele>1227.1999511719</ele>
        <time>2021-09-02T11:18:01Z</time>
      </trkpt>
      <trkpt lat="44.30282" lon="6.3238">
        <ele>1226.1999511719</ele>
        <time>2021-09-02T11:18:04Z</time>
      </trkpt>
      <trkpt lat="44.30268" lon="6.32355">
        <ele>1225.1999511719</ele>
        <time>2021-09-02T11:18:07Z</time>
      </trkpt>
      <trkpt lat="44.30264" lon="6.32345">
        <ele>1224.8000488281</ele>
        <time>2021-09-02T11:18:08Z</time>
      </trkpt>
      <trkpt lat="44.30254" lon="6.32316">
        <ele>1223.8000488281</ele>
        <time>2021-09-02T11:18:11Z</time>
      </trkpt>
      <trkpt lat="44.30244" lon="6.32298">
        <ele>1223</ele>
        <time>2021-09-02T11:18:13Z</time>
      </trkpt>
      <trkpt lat="44.30238" lon="6.3229">
        <ele>1222.8000488281</ele>
        <time>2021-09-02T11:18:14Z</time>
      </trkpt>
      <trkpt lat="44.30205" lon="6.32249">
        <ele>1221.5999755859</ele>
        <time>2021-09-02T11:18:19Z</time>
      </trkpt>
      <trkpt lat="44.30175" lon="6.32221">
        <ele>1220.4000244141</ele>
        <time>2021-09-02T11:18:23Z</time>
      </trkpt>
      <trkpt lat="44.30166" lon="6.32215">
        <ele>1220</ele>
        <time>2021-09-02T11:18:24Z</time>
      </trkpt>
      <trkpt lat="44.30149" lon="6.32204">
        <ele>1218.8000488281</ele>
        <time>2021-09-02T11:18:26Z</time>
      </trkpt>
      <trkpt lat="44.30124" lon="6.32187">
        <ele>1217.4000244141</ele>
        <time>2021-09-02T11:18:29Z</time>
      </trkpt>
      <trkpt lat="44.30116" lon="6.32179">
        <ele>1217.1999511719</ele>
        <time>2021-09-02T11:18:30Z</time>
      </trkpt>
      <trkpt lat="44.30101" lon="6.32164">
        <ele>1216.4000244141</ele>
        <time>2021-09-02T11:18:32Z</time>
      </trkpt>
      <trkpt lat="44.30077" lon="6.32146">
        <ele>1215.4000244141</ele>
        <time>2021-09-02T11:18:35Z</time>
      </trkpt>
      <trkpt lat="44.30069" lon="6.32142">
        <ele>1215</ele>
        <time>2021-09-02T11:18:36Z</time>
      </trkpt>
      <trkpt lat="44.3006" lon="6.32138">
        <ele>1214.1999511719</ele>
        <time>2021-09-02T11:18:37Z</time>
      </trkpt>
      <trkpt lat="44.30036" lon="6.32129">
        <ele>1213</ele>
        <time>2021-09-02T11:18:40Z</time>
      </trkpt>
      <trkpt lat="44.30029" lon="6.32125">
        <ele>1212.8000488281</ele>
        <time>2021-09-02T11:18:41Z</time>
      </trkpt>
      <trkpt lat="44.30023" lon="6.3212">
        <ele>1212.5999755859</ele>
        <time>2021-09-02T11:18:42Z</time>
      </trkpt>
      <trkpt lat="44.3001" lon="6.32106">
        <ele>1212</ele>
        <time>2021-09-02T11:18:44Z</time>
      </trkpt>
      <trkpt lat="44.30004" lon="6.32098">
        <ele>1211.5999755859</ele>
        <time>2021-09-02T11:18:45Z</time>
      </trkpt>
      <trkpt lat="44.29997" lon="6.3209">
        <ele>1211.1999511719</ele>
        <time>2021-09-02T11:18:46Z</time>
      </trkpt>
      <trkpt lat="44.29991" lon="6.32083">
        <ele>1210.8000488281</ele>
        <time>2021-09-02T11:18:47Z</time>
      </trkpt>
      <trkpt lat="44.29971" lon="6.32059">
        <ele>1209.1999511719</ele>
        <time>2021-09-02T11:18:50Z</time>
      </trkpt>
      <trkpt lat="44.29964" lon="6.32052">
        <ele>1208.8000488281</ele>
        <time>2021-09-02T11:18:51Z</time>
      </trkpt>
      <trkpt lat="44.29956" lon="6.32044">
        <ele>1208.1999511719</ele>
        <time>2021-09-02T11:18:52Z</time>
      </trkpt>
      <trkpt lat="44.29932" lon="6.32029">
        <ele>1206.8000488281</ele>
        <time>2021-09-02T11:18:55Z</time>
      </trkpt>
      <trkpt lat="44.29913" lon="6.3202">
        <ele>1205.5999755859</ele>
        <time>2021-09-02T11:18:57Z</time>
      </trkpt>
      <trkpt lat="44.29899" lon="6.32005">
        <ele>1204.5999755859</ele>
        <time>2021-09-02T11:18:59Z</time>
      </trkpt>
      <trkpt lat="44.29889" lon="6.31986">
        <ele>1203</ele>
        <time>2021-09-02T11:19:01Z</time>
      </trkpt>
      <trkpt lat="44.29878" lon="6.31965">
        <ele>1201.8000488281</ele>
        <time>2021-09-02T11:19:03Z</time>
      </trkpt>
      <trkpt lat="44.29873" lon="6.31955">
        <ele>1201.1999511719</ele>
        <time>2021-09-02T11:19:04Z</time>
      </trkpt>
      <trkpt lat="44.29867" lon="6.31945">
        <ele>1200.8000488281</ele>
        <time>2021-09-02T11:19:05Z</time>
      </trkpt>
      <trkpt lat="44.29854" lon="6.31913">
        <ele>1199.5999755859</ele>
        <time>2021-09-02T11:19:08Z</time>
      </trkpt>
      <trkpt lat="44.2984" lon="6.31884">
        <ele>1198.1999511719</ele>
        <time>2021-09-02T11:19:11Z</time>
      </trkpt>
      <trkpt lat="44.29816" lon="6.3185">
        <ele>1196.8000488281</ele>
        <time>2021-09-02T11:19:15Z</time>
      </trkpt>
      <trkpt lat="44.29809" lon="6.31844">
        <ele>1196.4000244141</ele>
        <time>2021-09-02T11:19:16Z</time>
      </trkpt>
      <trkpt lat="44.298" lon="6.31839">
        <ele>1196</ele>
        <time>2021-09-02T11:19:17Z</time>
      </trkpt>
      <trkpt lat="44.29792" lon="6.31834">
        <ele>1195.5999755859</ele>
        <time>2021-09-02T11:19:18Z</time>
      </trkpt>
      <trkpt lat="44.29767" lon="6.31821">
        <ele>1194.4000244141</ele>
        <time>2021-09-02T11:19:21Z</time>
      </trkpt>
      <trkpt lat="44.29751" lon="6.31812">
        <ele>1194</ele>
        <time>2021-09-02T11:19:23Z</time>
      </trkpt>
      <trkpt lat="44.29737" lon="6.31805">
        <ele>1193.4000244141</ele>
        <time>2021-09-02T11:19:25Z</time>
      </trkpt>
      <trkpt lat="44.29702" lon="6.31786">
        <ele>1192.1999511719</ele>
        <time>2021-09-02T11:19:30Z</time>
      </trkpt>
      <trkpt lat="44.29695" lon="6.31782">
        <ele>1192</ele>
        <time>2021-09-02T11:19:31Z</time>
      </trkpt>
      <trkpt lat="44.29673" lon="6.31773">
        <ele>1191.1999511719</ele>
        <time>2021-09-02T11:19:34Z</time>
      </trkpt>
      <trkpt lat="44.29665" lon="6.31771">
        <ele>1191</ele>
        <time>2021-09-02T11:19:35Z</time>
      </trkpt>
      <trkpt lat="44.29657" lon="6.3177">
        <ele>1190.8000488281</ele>
        <time>2021-09-02T11:19:36Z</time>
      </trkpt>
      <trkpt lat="44.29649" lon="6.3177">
        <ele>1190.4000244141</ele>
        <time>2021-09-02T11:19:37Z</time>
      </trkpt>
      <trkpt lat="44.29641" lon="6.3177">
        <ele>1189.8000488281</ele>
        <time>2021-09-02T11:19:38Z</time>
      </trkpt>
      <trkpt lat="44.29627" lon="6.31773">
        <ele>1188.5999755859</ele>
        <time>2021-09-02T11:19:40Z</time>
      </trkpt>
      <trkpt lat="44.29613" lon="6.31774">
        <ele>1187.8000488281</ele>
        <time>2021-09-02T11:19:42Z</time>
      </trkpt>
      <trkpt lat="44.29606" lon="6.31775">
        <ele>1187.4000244141</ele>
        <time>2021-09-02T11:19:43Z</time>
      </trkpt>
      <trkpt lat="44.29577" lon="6.31775">
        <ele>1186.1999511719</ele>
        <time>2021-09-02T11:19:47Z</time>
      </trkpt>
      <trkpt lat="44.29556" lon="6.31775">
        <ele>1185.8000488281</ele>
        <time>2021-09-02T11:19:50Z</time>
      </trkpt>
      <trkpt lat="44.29527" lon="6.31776">
        <ele>1185.1999511719</ele>
        <time>2021-09-02T11:19:54Z</time>
      </trkpt>
      <trkpt lat="44.29505" lon="6.31776">
        <ele>1184.8000488281</ele>
        <time>2021-09-02T11:19:57Z</time>
      </trkpt>
      <trkpt lat="44.29484" lon="6.31777">
        <ele>1184.1999511719</ele>
        <time>2021-09-02T11:20:00Z</time>
      </trkpt>
      <trkpt lat="44.2947" lon="6.31776">
        <ele>1183.5999755859</ele>
        <time>2021-09-02T11:20:02Z</time>
      </trkpt>
      <trkpt lat="44.29456" lon="6.31768">
        <ele>1183</ele>
        <time>2021-09-02T11:20:04Z</time>
      </trkpt>
      <trkpt lat="44.29429" lon="6.31748">
        <ele>1181.8000488281</ele>
        <time>2021-09-02T11:20:08Z</time>
      </trkpt>
      <trkpt lat="44.29416" lon="6.31737">
        <ele>1181</ele>
        <time>2021-09-02T11:20:10Z</time>
      </trkpt>
      <trkpt lat="44.29408" lon="6.31732">
        <ele>1180.5999755859</ele>
        <time>2021-09-02T11:20:11Z</time>
      </trkpt>
      <trkpt lat="44.29394" lon="6.31721">
        <ele>1179.1999511719</ele>
        <time>2021-09-02T11:20:13Z</time>
      </trkpt>
      <trkpt lat="44.29372" lon="6.31704">
        <ele>1177.8000488281</ele>
        <time>2021-09-02T11:20:16Z</time>
      </trkpt>
      <trkpt lat="44.29365" lon="6.31698">
        <ele>1177.1999511719</ele>
        <time>2021-09-02T11:20:17Z</time>
      </trkpt>
      <trkpt lat="44.29351" lon="6.31688">
        <ele>1176.4000244141</ele>
        <time>2021-09-02T11:20:19Z</time>
      </trkpt>
      <trkpt lat="44.29329" lon="6.31671">
        <ele>1175</ele>
        <time>2021-09-02T11:20:22Z</time>
      </trkpt>
      <trkpt lat="44.29322" lon="6.31664">
        <ele>1174</ele>
        <time>2021-09-02T11:20:24Z</time>
      </trkpt>
      <trkpt lat="44.2932" lon="6.31662">
        <ele>1173.5999755859</ele>
        <time>2021-09-02T11:20:25Z</time>
      </trkpt>
      <trkpt lat="44.29319" lon="6.3166">
        <ele>1172.5999755859</ele>
        <time>2021-09-02T11:20:27Z</time>
      </trkpt>
      <trkpt lat="44.29318" lon="6.31659">
        <ele>1172.1999511719</ele>
        <time>2021-09-02T11:20:28Z</time>
      </trkpt>
      <trkpt lat="44.29318" lon="6.31662">
        <ele>1171.4000244141</ele>
        <time>2021-09-02T11:20:30Z</time>
      </trkpt>
      <trkpt lat="44.29319" lon="6.31664">
        <ele>1171.1999511719</ele>
        <time>2021-09-02T11:20:31Z</time>
      </trkpt>
      <trkpt lat="44.29321" lon="6.31665">
        <ele>1171</ele>
        <time>2021-09-02T11:20:32Z</time>
      </trkpt>
      <trkpt lat="44.29328" lon="6.3167">
        <ele>1170.8000488281</ele>
        <time>2021-09-02T11:20:36Z</time>
      </trkpt>
      <trkpt lat="44.29345" lon="6.31683">
        <ele>1171.4000244141</ele>
        <time>2021-09-02T11:20:42Z</time>
      </trkpt>
      <trkpt lat="44.29356" lon="6.31698">
        <ele>1172</ele>
        <time>2021-09-02T11:20:47Z</time>
      </trkpt>
      <trkpt lat="44.29357" lon="6.31704">
        <ele>1172.4000244141</ele>
        <time>2021-09-02T11:20:49Z</time>
      </trkpt>
      <trkpt lat="44.29355" lon="6.31714">
        <ele>1173</ele>
        <time>2021-09-02T11:20:54Z</time>
      </trkpt>
      <trkpt lat="44.29353" lon="6.31713">
        <ele>1170</ele>
        <time>2021-09-02T11:29:19Z</time>
      </trkpt>
      <trkpt lat="44.29353" lon="6.31707">
        <ele>1170.1999511719</ele>
        <time>2021-09-02T11:29:21Z</time>
      </trkpt>
      <trkpt lat="44.2935" lon="6.3169">
        <ele>1170.4000244141</ele>
        <time>2021-09-02T11:29:25Z</time>
      </trkpt>
      <trkpt lat="44.29336" lon="6.31677">
        <ele>1170.4000244141</ele>
        <time>2021-09-02T11:29:28Z</time>
      </trkpt>
      <trkpt lat="44.2933" lon="6.31672">
        <ele>1170.4000244141</ele>
        <time>2021-09-02T11:29:29Z</time>
      </trkpt>
      <trkpt lat="44.29293" lon="6.31645">
        <ele>1169.1999511719</ele>
        <time>2021-09-02T11:29:35Z</time>
      </trkpt>
      <trkpt lat="44.29286" lon="6.3164">
        <ele>1168.8000488281</ele>
        <time>2021-09-02T11:29:36Z</time>
      </trkpt>
      <trkpt lat="44.2925" lon="6.31621">
        <ele>1167.8000488281</ele>
        <time>2021-09-02T11:29:41Z</time>
      </trkpt>
      <trkpt lat="44.29242" lon="6.31619">
        <ele>1167.8000488281</ele>
        <time>2021-09-02T11:29:42Z</time>
      </trkpt>
      <trkpt lat="44.29196" lon="6.31606">
        <ele>1166.5999755859</ele>
        <time>2021-09-02T11:29:48Z</time>
      </trkpt>
      <trkpt lat="44.29188" lon="6.31603">
        <ele>1166.1999511719</ele>
        <time>2021-09-02T11:29:49Z</time>
      </trkpt>
      <trkpt lat="44.29167" lon="6.31589">
        <ele>1165.4000244141</ele>
        <time>2021-09-02T11:29:52Z</time>
      </trkpt>
      <trkpt lat="44.29138" lon="6.31568">
        <ele>1164.1999511719</ele>
        <time>2021-09-02T11:29:56Z</time>
      </trkpt>
      <trkpt lat="44.29117" lon="6.3155">
        <ele>1163.4000244141</ele>
        <time>2021-09-02T11:29:59Z</time>
      </trkpt>
      <trkpt lat="44.29103" lon="6.31537">
        <ele>1162.8000488281</ele>
        <time>2021-09-02T11:30:01Z</time>
      </trkpt>
      <trkpt lat="44.29097" lon="6.3153">
        <ele>1162.5999755859</ele>
        <time>2021-09-02T11:30:02Z</time>
      </trkpt>
      <trkpt lat="44.29085" lon="6.31514">
        <ele>1161.8000488281</ele>
        <time>2021-09-02T11:30:04Z</time>
      </trkpt>
      <trkpt lat="44.29061" lon="6.31468">
        <ele>1160.8000488281</ele>
        <time>2021-09-02T11:30:09Z</time>
      </trkpt>
      <trkpt lat="44.29054" lon="6.3146">
        <ele>1160.5999755859</ele>
        <time>2021-09-02T11:30:10Z</time>
      </trkpt>
      <trkpt lat="44.29034" lon="6.3144">
        <ele>1160.1999511719</ele>
        <time>2021-09-02T11:30:13Z</time>
      </trkpt>
      <trkpt lat="44.29" lon="6.31414">
        <ele>1159.4000244141</ele>
        <time>2021-09-02T11:30:18Z</time>
      </trkpt>
      <trkpt lat="44.28978" lon="6.31397">
        <ele>1158.4000244141</ele>
        <time>2021-09-02T11:30:21Z</time>
      </trkpt>
      <trkpt lat="44.28971" lon="6.31391">
        <ele>1158.1999511719</ele>
        <time>2021-09-02T11:30:22Z</time>
      </trkpt>
      <trkpt lat="44.28948" lon="6.31373">
        <ele>1157</ele>
        <time>2021-09-02T11:30:25Z</time>
      </trkpt>
      <trkpt lat="44.28934" lon="6.31358">
        <ele>1156.1999511719</ele>
        <time>2021-09-02T11:30:27Z</time>
      </trkpt>
      <trkpt lat="44.28928" lon="6.3135">
        <ele>1156</ele>
        <time>2021-09-02T11:30:28Z</time>
      </trkpt>
      <trkpt lat="44.28901" lon="6.31316">
        <ele>1154.8000488281</ele>
        <time>2021-09-02T11:30:32Z</time>
      </trkpt>
      <trkpt lat="44.2888" lon="6.31291">
        <ele>1153.8000488281</ele>
        <time>2021-09-02T11:30:35Z</time>
      </trkpt>
      <trkpt lat="44.28866" lon="6.31275">
        <ele>1152.4000244141</ele>
        <time>2021-09-02T11:30:37Z</time>
      </trkpt>
      <trkpt lat="44.28844" lon="6.3125">
        <ele>1151.4000244141</ele>
        <time>2021-09-02T11:30:40Z</time>
      </trkpt>
      <trkpt lat="44.2883" lon="6.31235">
        <ele>1150.5999755859</ele>
        <time>2021-09-02T11:30:42Z</time>
      </trkpt>
      <trkpt lat="44.28822" lon="6.31227">
        <ele>1150.1999511719</ele>
        <time>2021-09-02T11:30:43Z</time>
      </trkpt>
      <trkpt lat="44.2879" lon="6.312">
        <ele>1149</ele>
        <time>2021-09-02T11:30:47Z</time>
      </trkpt>
      <trkpt lat="44.28774" lon="6.31188">
        <ele>1148.4000244141</ele>
        <time>2021-09-02T11:30:49Z</time>
      </trkpt>
      <trkpt lat="44.28758" lon="6.31175">
        <ele>1147.8000488281</ele>
        <time>2021-09-02T11:30:51Z</time>
      </trkpt>
      <trkpt lat="44.28726" lon="6.31152">
        <ele>1146.5999755859</ele>
        <time>2021-09-02T11:30:55Z</time>
      </trkpt>
      <trkpt lat="44.28718" lon="6.31146">
        <ele>1146.1999511719</ele>
        <time>2021-09-02T11:30:56Z</time>
      </trkpt>
      <trkpt lat="44.28699" lon="6.31121">
        <ele>1145.5999755859</ele>
        <time>2021-09-02T11:30:59Z</time>
      </trkpt>
      <trkpt lat="44.28695" lon="6.31111">
        <ele>1145.4000244141</ele>
        <time>2021-09-02T11:31:00Z</time>
      </trkpt>
      <trkpt lat="44.2868" lon="6.31082">
        <ele>1144.1999511719</ele>
        <time>2021-09-02T11:31:03Z</time>
      </trkpt>
      <trkpt lat="44.28668" lon="6.31065">
        <ele>1143.4000244141</ele>
        <time>2021-09-02T11:31:05Z</time>
      </trkpt>
      <trkpt lat="44.28662" lon="6.31058">
        <ele>1143</ele>
        <time>2021-09-02T11:31:06Z</time>
      </trkpt>
      <trkpt lat="44.28632" lon="6.31019">
        <ele>1142.4000244141</ele>
        <time>2021-09-02T11:31:11Z</time>
      </trkpt>
      <trkpt lat="44.28622" lon="6.31001">
        <ele>1141.8000488281</ele>
        <time>2021-09-02T11:31:13Z</time>
      </trkpt>
      <trkpt lat="44.28601" lon="6.30965">
        <ele>1140.5999755859</ele>
        <time>2021-09-02T11:31:17Z</time>
      </trkpt>
      <trkpt lat="44.28595" lon="6.30956">
        <ele>1140.4000244141</ele>
        <time>2021-09-02T11:31:18Z</time>
      </trkpt>
      <trkpt lat="44.28573" lon="6.30922">
        <ele>1139.5999755859</ele>
        <time>2021-09-02T11:31:22Z</time>
      </trkpt>
      <trkpt lat="44.28554" lon="6.30899">
        <ele>1138.8000488281</ele>
        <time>2021-09-02T11:31:25Z</time>
      </trkpt>
      <trkpt lat="44.28547" lon="6.30892">
        <ele>1138.5999755859</ele>
        <time>2021-09-02T11:31:26Z</time>
      </trkpt>
      <trkpt lat="44.28519" lon="6.3087">
        <ele>1137.8000488281</ele>
        <time>2021-09-02T11:31:30Z</time>
      </trkpt>
      <trkpt lat="44.28514" lon="6.30863">
        <ele>1137.5999755859</ele>
        <time>2021-09-02T11:31:31Z</time>
      </trkpt>
      <trkpt lat="44.28508" lon="6.30856">
        <ele>1137.4000244141</ele>
        <time>2021-09-02T11:31:32Z</time>
      </trkpt>
      <trkpt lat="44.285" lon="6.3084">
        <ele>1137.1999511719</ele>
        <time>2021-09-02T11:31:34Z</time>
      </trkpt>
      <trkpt lat="44.28494" lon="6.30803">
        <ele>1136.1999511719</ele>
        <time>2021-09-02T11:31:38Z</time>
      </trkpt>
      <trkpt lat="44.28494" lon="6.30793">
        <ele>1135.8000488281</ele>
        <time>2021-09-02T11:31:39Z</time>
      </trkpt>
      <trkpt lat="44.28497" lon="6.30774">
        <ele>1135</ele>
        <time>2021-09-02T11:31:41Z</time>
      </trkpt>
      <trkpt lat="44.28498" lon="6.30754">
        <ele>1134.1999511719</ele>
        <time>2021-09-02T11:31:43Z</time>
      </trkpt>
      <trkpt lat="44.28498" lon="6.30743">
        <ele>1134</ele>
        <time>2021-09-02T11:31:44Z</time>
      </trkpt>
      <trkpt lat="44.28495" lon="6.30723">
        <ele>1133.1999511719</ele>
        <time>2021-09-02T11:31:46Z</time>
      </trkpt>
      <trkpt lat="44.28492" lon="6.30713">
        <ele>1132.8000488281</ele>
        <time>2021-09-02T11:31:47Z</time>
      </trkpt>
      <trkpt lat="44.28485" lon="6.30693">
        <ele>1132.1999511719</ele>
        <time>2021-09-02T11:31:49Z</time>
      </trkpt>
      <trkpt lat="44.2848" lon="6.30684">
        <ele>1131.8000488281</ele>
        <time>2021-09-02T11:31:50Z</time>
      </trkpt>
      <trkpt lat="44.28463" lon="6.3066">
        <ele>1131.1999511719</ele>
        <time>2021-09-02T11:31:53Z</time>
      </trkpt>
      <trkpt lat="44.28456" lon="6.30653">
        <ele>1131</ele>
        <time>2021-09-02T11:31:54Z</time>
      </trkpt>
      <trkpt lat="44.28449" lon="6.30647">
        <ele>1130.8000488281</ele>
        <time>2021-09-02T11:31:55Z</time>
      </trkpt>
      <trkpt lat="44.28441" lon="6.30642">
        <ele>1130.5999755859</ele>
        <time>2021-09-02T11:31:56Z</time>
      </trkpt>
      <trkpt lat="44.28426" lon="6.30631">
        <ele>1130.1999511719</ele>
        <time>2021-09-02T11:31:58Z</time>
      </trkpt>
      <trkpt lat="44.28413" lon="6.30617">
        <ele>1129.8000488281</ele>
        <time>2021-09-02T11:32:00Z</time>
      </trkpt>
      <trkpt lat="44.28402" lon="6.30599">
        <ele>1129.4000244141</ele>
        <time>2021-09-02T11:32:02Z</time>
      </trkpt>
      <trkpt lat="44.28394" lon="6.30579">
        <ele>1129.4000244141</ele>
        <time>2021-09-02T11:32:04Z</time>
      </trkpt>
      <trkpt lat="44.28381" lon="6.30548">
        <ele>1129</ele>
        <time>2021-09-02T11:32:07Z</time>
      </trkpt>
      <trkpt lat="44.28377" lon="6.30538">
        <ele>1128.5999755859</ele>
        <time>2021-09-02T11:32:08Z</time>
      </trkpt>
      <trkpt lat="44.28362" lon="6.30512">
        <ele>1128.1999511719</ele>
        <time>2021-09-02T11:32:11Z</time>
      </trkpt>
      <trkpt lat="44.28356" lon="6.30505">
        <ele>1128</ele>
        <time>2021-09-02T11:32:12Z</time>
      </trkpt>
      <trkpt lat="44.28335" lon="6.30492">
        <ele>1127.8000488281</ele>
        <time>2021-09-02T11:32:15Z</time>
      </trkpt>
      <trkpt lat="44.28327" lon="6.3049">
        <ele>1127.5999755859</ele>
        <time>2021-09-02T11:32:16Z</time>
      </trkpt>
      <trkpt lat="44.28306" lon="6.30482">
        <ele>1127.4000244141</ele>
        <time>2021-09-02T11:32:19Z</time>
      </trkpt>
      <trkpt lat="44.28293" lon="6.30473">
        <ele>1127</ele>
        <time>2021-09-02T11:32:21Z</time>
      </trkpt>
      <trkpt lat="44.2828" lon="6.30462">
        <ele>1127</ele>
        <time>2021-09-02T11:32:23Z</time>
      </trkpt>
      <trkpt lat="44.28257" lon="6.30439">
        <ele>1126.5999755859</ele>
        <time>2021-09-02T11:32:27Z</time>
      </trkpt>
      <trkpt lat="44.28241" lon="6.3042">
        <ele>1126.4000244141</ele>
        <time>2021-09-02T11:32:30Z</time>
      </trkpt>
      <trkpt lat="44.28232" lon="6.30405">
        <ele>1126.1999511719</ele>
        <time>2021-09-02T11:32:32Z</time>
      </trkpt>
      <trkpt lat="44.28213" lon="6.30376">
        <ele>1125.5999755859</ele>
        <time>2021-09-02T11:32:36Z</time>
      </trkpt>
      <trkpt lat="44.28201" lon="6.30364">
        <ele>1125.1999511719</ele>
        <time>2021-09-02T11:32:38Z</time>
      </trkpt>
      <trkpt lat="44.28194" lon="6.30358">
        <ele>1125</ele>
        <time>2021-09-02T11:32:39Z</time>
      </trkpt>
      <trkpt lat="44.28174" lon="6.30345">
        <ele>1124.5999755859</ele>
        <time>2021-09-02T11:32:42Z</time>
      </trkpt>
      <trkpt lat="44.2816" lon="6.30338">
        <ele>1124.5999755859</ele>
        <time>2021-09-02T11:32:44Z</time>
      </trkpt>
      <trkpt lat="44.28125" lon="6.3032">
        <ele>1124.4000244141</ele>
        <time>2021-09-02T11:32:49Z</time>
      </trkpt>
      <trkpt lat="44.28083" lon="6.30298">
        <ele>1123.5999755859</ele>
        <time>2021-09-02T11:32:55Z</time>
      </trkpt>
      <trkpt lat="44.28062" lon="6.30285">
        <ele>1123</ele>
        <time>2021-09-02T11:32:58Z</time>
      </trkpt>
      <trkpt lat="44.2804" lon="6.3027">
        <ele>1122.4000244141</ele>
        <time>2021-09-02T11:33:01Z</time>
      </trkpt>
      <trkpt lat="44.28032" lon="6.30265">
        <ele>1122</ele>
        <time>2021-09-02T11:33:02Z</time>
      </trkpt>
      <trkpt lat="44.28024" lon="6.30262">
        <ele>1121.5999755859</ele>
        <time>2021-09-02T11:33:03Z</time>
      </trkpt>
      <trkpt lat="44.28016" lon="6.30259">
        <ele>1121.4000244141</ele>
        <time>2021-09-02T11:33:04Z</time>
      </trkpt>
      <trkpt lat="44.28" lon="6.30256">
        <ele>1120.8000488281</ele>
        <time>2021-09-02T11:33:06Z</time>
      </trkpt>
      <trkpt lat="44.27992" lon="6.30256">
        <ele>1120.4000244141</ele>
        <time>2021-09-02T11:33:07Z</time>
      </trkpt>
      <trkpt lat="44.27985" lon="6.30256">
        <ele>1120.1999511719</ele>
        <time>2021-09-02T11:33:08Z</time>
      </trkpt>
      <trkpt lat="44.2794" lon="6.30247">
        <ele>1119.5999755859</ele>
        <time>2021-09-02T11:33:14Z</time>
      </trkpt>
      <trkpt lat="44.27925" lon="6.30241">
        <ele>1119.1999511719</ele>
        <time>2021-09-02T11:33:16Z</time>
      </trkpt>
      <trkpt lat="44.27894" lon="6.30228">
        <ele>1118</ele>
        <time>2021-09-02T11:33:20Z</time>
      </trkpt>
      <trkpt lat="44.27886" lon="6.30225">
        <ele>1117.8000488281</ele>
        <time>2021-09-02T11:33:21Z</time>
      </trkpt>
      <trkpt lat="44.27846" lon="6.30217">
        <ele>1116.8000488281</ele>
        <time>2021-09-02T11:33:26Z</time>
      </trkpt>
      <trkpt lat="44.27839" lon="6.30217">
        <ele>1116.4000244141</ele>
        <time>2021-09-02T11:33:27Z</time>
      </trkpt>
      <trkpt lat="44.27808" lon="6.30213">
        <ele>1116</ele>
        <time>2021-09-02T11:33:31Z</time>
      </trkpt>
      <trkpt lat="44.278" lon="6.30209">
        <ele>1115.8000488281</ele>
        <time>2021-09-02T11:33:32Z</time>
      </trkpt>
      <trkpt lat="44.27792" lon="6.30207">
        <ele>1115.8000488281</ele>
        <time>2021-09-02T11:33:33Z</time>
      </trkpt>
      <trkpt lat="44.27785" lon="6.30204">
        <ele>1115.8000488281</ele>
        <time>2021-09-02T11:33:34Z</time>
      </trkpt>
      <trkpt lat="44.27778" lon="6.30199">
        <ele>1115.5999755859</ele>
        <time>2021-09-02T11:33:35Z</time>
      </trkpt>
      <trkpt lat="44.2774" lon="6.30171">
        <ele>1114.8000488281</ele>
        <time>2021-09-02T11:33:40Z</time>
      </trkpt>
      <trkpt lat="44.27731" lon="6.30166">
        <ele>1114.5999755859</ele>
        <time>2021-09-02T11:33:41Z</time>
      </trkpt>
      <trkpt lat="44.27713" lon="6.30157">
        <ele>1113.8000488281</ele>
        <time>2021-09-02T11:33:43Z</time>
      </trkpt>
      <trkpt lat="44.27703" lon="6.30154">
        <ele>1113.4000244141</ele>
        <time>2021-09-02T11:33:44Z</time>
      </trkpt>
      <trkpt lat="44.27693" lon="6.30153">
        <ele>1113</ele>
        <time>2021-09-02T11:33:45Z</time>
      </trkpt>
      <trkpt lat="44.27664" lon="6.30149">
        <ele>1112.1999511719</ele>
        <time>2021-09-02T11:33:48Z</time>
      </trkpt>
      <trkpt lat="44.27654" lon="6.30145">
        <ele>1111.8000488281</ele>
        <time>2021-09-02T11:33:49Z</time>
      </trkpt>
      <trkpt lat="44.27645" lon="6.3014">
        <ele>1111</ele>
        <time>2021-09-02T11:33:50Z</time>
      </trkpt>
      <trkpt lat="44.27625" lon="6.30132">
        <ele>1109.8000488281</ele>
        <time>2021-09-02T11:33:52Z</time>
      </trkpt>
      <trkpt lat="44.27615" lon="6.3013">
        <ele>1109.1999511719</ele>
        <time>2021-09-02T11:33:53Z</time>
      </trkpt>
      <trkpt lat="44.27605" lon="6.30129">
        <ele>1108.5999755859</ele>
        <time>2021-09-02T11:33:54Z</time>
      </trkpt>
      <trkpt lat="44.27584" lon="6.30127">
        <ele>1107.4000244141</ele>
        <time>2021-09-02T11:33:56Z</time>
      </trkpt>
      <trkpt lat="44.27564" lon="6.30123">
        <ele>1106.5999755859</ele>
        <time>2021-09-02T11:33:58Z</time>
      </trkpt>
      <trkpt lat="44.27553" lon="6.30121">
        <ele>1106.1999511719</ele>
        <time>2021-09-02T11:33:59Z</time>
      </trkpt>
      <trkpt lat="44.27532" lon="6.30116">
        <ele>1105</ele>
        <time>2021-09-02T11:34:01Z</time>
      </trkpt>
      <trkpt lat="44.27511" lon="6.30114">
        <ele>1104</ele>
        <time>2021-09-02T11:34:03Z</time>
      </trkpt>
      <trkpt lat="44.27501" lon="6.30114">
        <ele>1103.4000244141</ele>
        <time>2021-09-02T11:34:04Z</time>
      </trkpt>
      <trkpt lat="44.27491" lon="6.30115">
        <ele>1102.8000488281</ele>
        <time>2021-09-02T11:34:05Z</time>
      </trkpt>
      <trkpt lat="44.27471" lon="6.30113">
        <ele>1101.8000488281</ele>
        <time>2021-09-02T11:34:07Z</time>
      </trkpt>
      <trkpt lat="44.27462" lon="6.30112">
        <ele>1101.4000244141</ele>
        <time>2021-09-02T11:34:08Z</time>
      </trkpt>
      <trkpt lat="44.27443" lon="6.30108">
        <ele>1100.5999755859</ele>
        <time>2021-09-02T11:34:10Z</time>
      </trkpt>
      <trkpt lat="44.27425" lon="6.30105">
        <ele>1099.5999755859</ele>
        <time>2021-09-02T11:34:12Z</time>
      </trkpt>
      <trkpt lat="44.27407" lon="6.30098">
        <ele>1097.8000488281</ele>
        <time>2021-09-02T11:34:14Z</time>
      </trkpt>
      <trkpt lat="44.274" lon="6.30093">
        <ele>1097.4000244141</ele>
        <time>2021-09-02T11:34:15Z</time>
      </trkpt>
      <trkpt lat="44.27387" lon="6.30075">
        <ele>1096.4000244141</ele>
        <time>2021-09-02T11:34:17Z</time>
      </trkpt>
      <trkpt lat="44.27381" lon="6.30064">
        <ele>1096.1999511719</ele>
        <time>2021-09-02T11:34:18Z</time>
      </trkpt>
      <trkpt lat="44.27377" lon="6.30053">
        <ele>1095.8000488281</ele>
        <time>2021-09-02T11:34:19Z</time>
      </trkpt>
      <trkpt lat="44.27369" lon="6.30033">
        <ele>1095.4000244141</ele>
        <time>2021-09-02T11:34:21Z</time>
      </trkpt>
      <trkpt lat="44.27366" lon="6.30024">
        <ele>1095</ele>
        <time>2021-09-02T11:34:22Z</time>
      </trkpt>
      <trkpt lat="44.27361" lon="6.30005">
        <ele>1094.4000244141</ele>
        <time>2021-09-02T11:34:24Z</time>
      </trkpt>
      <trkpt lat="44.27358" lon="6.29995">
        <ele>1094</ele>
        <time>2021-09-02T11:34:25Z</time>
      </trkpt>
      <trkpt lat="44.27351" lon="6.2998">
        <ele>1093.4000244141</ele>
        <time>2021-09-02T11:34:27Z</time>
      </trkpt>
      <trkpt lat="44.27346" lon="6.29975">
        <ele>1093</ele>
        <time>2021-09-02T11:34:28Z</time>
      </trkpt>
      <trkpt lat="44.27339" lon="6.29969">
        <ele>1092.1999511719</ele>
        <time>2021-09-02T11:34:30Z</time>
      </trkpt>
      <trkpt lat="44.27336" lon="6.29966">
        <ele>1091.5999755859</ele>
        <time>2021-09-02T11:34:31Z</time>
      </trkpt>
      <trkpt lat="44.27332" lon="6.2996">
        <ele>1090.4000244141</ele>
        <time>2021-09-02T11:34:33Z</time>
      </trkpt>
      <trkpt lat="44.27328" lon="6.29956">
        <ele>1089.5999755859</ele>
        <time>2021-09-02T11:34:35Z</time>
      </trkpt>
      <trkpt lat="44.27326" lon="6.29954">
        <ele>1089</ele>
        <time>2021-09-02T11:34:36Z</time>
      </trkpt>
      <trkpt lat="44.27321" lon="6.29948">
        <ele>1088</ele>
        <time>2021-09-02T11:34:39Z</time>
      </trkpt>
      <trkpt lat="44.27316" lon="6.29944">
        <ele>1087.5999755859</ele>
        <time>2021-09-02T11:34:42Z</time>
      </trkpt>
      <trkpt lat="44.27323" lon="6.29963">
        <ele>1088.1999511719</ele>
        <time>2021-09-02T11:37:54Z</time>
      </trkpt>
      <trkpt lat="44.2732" lon="6.29985">
        <ele>1087.4000244141</ele>
        <time>2021-09-02T11:38:00Z</time>
      </trkpt>
      <trkpt lat="44.27317" lon="6.29991">
        <ele>1087</ele>
        <time>2021-09-02T11:38:02Z</time>
      </trkpt>
      <trkpt lat="44.27313" lon="6.30004">
        <ele>1086.4000244141</ele>
        <time>2021-09-02T11:38:06Z</time>
      </trkpt>
      <trkpt lat="44.27305" lon="6.30018">
        <ele>1085.8000488281</ele>
        <time>2021-09-02T11:38:10Z</time>
      </trkpt>
      <trkpt lat="44.27302" lon="6.30021">
        <ele>1085.8000488281</ele>
        <time>2021-09-02T11:38:11Z</time>
      </trkpt>
      <trkpt lat="44.27288" lon="6.30032">
        <ele>1084.8000488281</ele>
        <time>2021-09-02T11:38:15Z</time>
      </trkpt>
      <trkpt lat="44.27281" lon="6.30039">
        <ele>1084.4000244141</ele>
        <time>2021-09-02T11:38:17Z</time>
      </trkpt>
      <trkpt lat="44.27269" lon="6.30049">
        <ele>1083.8000488281</ele>
        <time>2021-09-02T11:38:20Z</time>
      </trkpt>
      <trkpt lat="44.27262" lon="6.30057">
        <ele>1083</ele>
        <time>2021-09-02T11:38:22Z</time>
      </trkpt>
      <trkpt lat="44.27258" lon="6.30061">
        <ele>1082.4000244141</ele>
        <time>2021-09-02T11:38:23Z</time>
      </trkpt>
      <trkpt lat="44.27254" lon="6.30067">
        <ele>1081.8000488281</ele>
        <time>2021-09-02T11:38:24Z</time>
      </trkpt>
      <trkpt lat="44.2725" lon="6.30073">
        <ele>1081.4000244141</ele>
        <time>2021-09-02T11:38:25Z</time>
      </trkpt>
      <trkpt lat="44.27239" lon="6.30092">
        <ele>1080</ele>
        <time>2021-09-02T11:38:28Z</time>
      </trkpt>
      <trkpt lat="44.27234" lon="6.30098">
        <ele>1079.5999755859</ele>
        <time>2021-09-02T11:38:29Z</time>
      </trkpt>
      <trkpt lat="44.27229" lon="6.30104">
        <ele>1079</ele>
        <time>2021-09-02T11:38:30Z</time>
      </trkpt>
      <trkpt lat="44.27218" lon="6.30116">
        <ele>1078</ele>
        <time>2021-09-02T11:38:32Z</time>
      </trkpt>
      <trkpt lat="44.27208" lon="6.30126">
        <ele>1077</ele>
        <time>2021-09-02T11:38:34Z</time>
      </trkpt>
      <trkpt lat="44.27203" lon="6.30131">
        <ele>1076.5999755859</ele>
        <time>2021-09-02T11:38:35Z</time>
      </trkpt>
      <trkpt lat="44.27192" lon="6.30145">
        <ele>1074.5999755859</ele>
        <time>2021-09-02T11:38:38Z</time>
      </trkpt>
      <trkpt lat="44.27187" lon="6.30152">
        <ele>1073.4000244141</ele>
        <time>2021-09-02T11:38:40Z</time>
      </trkpt>
      <trkpt lat="44.27183" lon="6.30154">
        <ele>1072.1999511719</ele>
        <time>2021-09-02T11:38:42Z</time>
      </trkpt>
      <trkpt lat="44.27181" lon="6.30156">
        <ele>1071.4000244141</ele>
        <time>2021-09-02T11:38:44Z</time>
      </trkpt>
      <trkpt lat="44.27175" lon="6.30146">
        <ele>1070</ele>
        <time>2021-09-02T11:38:59Z</time>
      </trkpt>
      <trkpt lat="44.27173" lon="6.30143">
        <ele>1070</ele>
        <time>2021-09-02T11:39:01Z</time>
      </trkpt>
      <trkpt lat="44.27169" lon="6.30138">
        <ele>1070</ele>
        <time>2021-09-02T11:39:04Z</time>
      </trkpt>
      <trkpt lat="44.27166" lon="6.30136">
        <ele>1070</ele>
        <time>2021-09-02T11:39:05Z</time>
      </trkpt>
      <trkpt lat="44.27162" lon="6.3013">
        <ele>1069.8000488281</ele>
        <time>2021-09-02T11:39:07Z</time>
      </trkpt>
      <trkpt lat="44.27147" lon="6.30111">
        <ele>1069.4000244141</ele>
        <time>2021-09-02T11:39:12Z</time>
      </trkpt>
      <trkpt lat="44.27144" lon="6.30106">
        <ele>1069.4000244141</ele>
        <time>2021-09-02T11:39:13Z</time>
      </trkpt>
      <trkpt lat="44.2713" lon="6.30081">
        <ele>1069</ele>
        <time>2021-09-02T11:39:17Z</time>
      </trkpt>
      <trkpt lat="44.27127" lon="6.30073">
        <ele>1068.8000488281</ele>
        <time>2021-09-02T11:39:18Z</time>
      </trkpt>
      <trkpt lat="44.27122" lon="6.30045">
        <ele>1068.1999511719</ele>
        <time>2021-09-02T11:39:21Z</time>
      </trkpt>
      <trkpt lat="44.27119" lon="6.30006">
        <ele>1067.8000488281</ele>
        <time>2021-09-02T11:39:25Z</time>
      </trkpt>
      <trkpt lat="44.27119" lon="6.29997">
        <ele>1067.5999755859</ele>
        <time>2021-09-02T11:39:26Z</time>
      </trkpt>
      <trkpt lat="44.27119" lon="6.29989">
        <ele>1067.4000244141</ele>
        <time>2021-09-02T11:39:27Z</time>
      </trkpt>
      <trkpt lat="44.27126" lon="6.29964">
        <ele>1066.8000488281</ele>
        <time>2021-09-02T11:39:31Z</time>
      </trkpt>
      <trkpt lat="44.27139" lon="6.29953">
        <ele>1066.4000244141</ele>
        <time>2021-09-02T11:39:34Z</time>
      </trkpt>
      <trkpt lat="44.27149" lon="6.29944">
        <ele>1066</ele>
        <time>2021-09-02T11:39:37Z</time>
      </trkpt>
      <trkpt lat="44.27154" lon="6.29937">
        <ele>1065.5999755859</ele>
        <time>2021-09-02T11:39:39Z</time>
      </trkpt>
      <trkpt lat="44.27159" lon="6.29926">
        <ele>1065</ele>
        <time>2021-09-02T11:39:42Z</time>
      </trkpt>
      <trkpt lat="44.27164" lon="6.29919">
        <ele>1064.5999755859</ele>
        <time>2021-09-02T11:39:44Z</time>
      </trkpt>
      <trkpt lat="44.27172" lon="6.29904">
        <ele>1064.1999511719</ele>
        <time>2021-09-02T11:39:47Z</time>
      </trkpt>
      <trkpt lat="44.27178" lon="6.29891">
        <ele>1064</ele>
        <time>2021-09-02T11:39:49Z</time>
      </trkpt>
      <trkpt lat="44.27183" lon="6.29877">
        <ele>1063.8000488281</ele>
        <time>2021-09-02T11:39:51Z</time>
      </trkpt>
      <trkpt lat="44.27185" lon="6.29869">
        <ele>1063.5999755859</ele>
        <time>2021-09-02T11:39:52Z</time>
      </trkpt>
      <trkpt lat="44.27187" lon="6.2986">
        <ele>1063.4000244141</ele>
        <time>2021-09-02T11:39:53Z</time>
      </trkpt>
      <trkpt lat="44.27189" lon="6.29852">
        <ele>1063.1999511719</ele>
        <time>2021-09-02T11:39:54Z</time>
      </trkpt>
      <trkpt lat="44.27191" lon="6.29833">
        <ele>1062.5999755859</ele>
        <time>2021-09-02T11:39:56Z</time>
      </trkpt>
      <trkpt lat="44.27191" lon="6.29824">
        <ele>1062.4000244141</ele>
        <time>2021-09-02T11:39:57Z</time>
      </trkpt>
      <trkpt lat="44.27192" lon="6.29783">
        <ele>1061.4000244141</ele>
        <time>2021-09-02T11:40:01Z</time>
      </trkpt>
      <trkpt lat="44.27193" lon="6.29739">
        <ele>1060.1999511719</ele>
        <time>2021-09-02T11:40:05Z</time>
      </trkpt>
      <trkpt lat="44.27193" lon="6.29728">
        <ele>1059.8000488281</ele>
        <time>2021-09-02T11:40:06Z</time>
      </trkpt>
      <trkpt lat="44.27192" lon="6.29718">
        <ele>1059.5999755859</ele>
        <time>2021-09-02T11:40:07Z</time>
      </trkpt>
      <trkpt lat="44.27188" lon="6.29687">
        <ele>1059</ele>
        <time>2021-09-02T11:40:10Z</time>
      </trkpt>
      <trkpt lat="44.27179" lon="6.29641">
        <ele>1058</ele>
        <time>2021-09-02T11:40:15Z</time>
      </trkpt>
      <trkpt lat="44.27169" lon="6.29588">
        <ele>1056.8000488281</ele>
        <time>2021-09-02T11:40:21Z</time>
      </trkpt>
      <trkpt lat="44.27167" lon="6.29578">
        <ele>1056.5999755859</ele>
        <time>2021-09-02T11:40:22Z</time>
      </trkpt>
      <trkpt lat="44.27163" lon="6.29537">
        <ele>1055.8000488281</ele>
        <time>2021-09-02T11:40:26Z</time>
      </trkpt>
      <trkpt lat="44.27163" lon="6.29526">
        <ele>1055.8000488281</ele>
        <time>2021-09-02T11:40:27Z</time>
      </trkpt>
      <trkpt lat="44.27171" lon="6.29485">
        <ele>1055</ele>
        <time>2021-09-02T11:40:31Z</time>
      </trkpt>
      <trkpt lat="44.27175" lon="6.29475">
        <ele>1054.8000488281</ele>
        <time>2021-09-02T11:40:32Z</time>
      </trkpt>
      <trkpt lat="44.27178" lon="6.29466">
        <ele>1054.5999755859</ele>
        <time>2021-09-02T11:40:33Z</time>
      </trkpt>
      <trkpt lat="44.27187" lon="6.2944">
        <ele>1053.8000488281</ele>
        <time>2021-09-02T11:40:36Z</time>
      </trkpt>
      <trkpt lat="44.2719" lon="6.29423">
        <ele>1053.1999511719</ele>
        <time>2021-09-02T11:40:38Z</time>
      </trkpt>
      <trkpt lat="44.2719" lon="6.29406">
        <ele>1052.5999755859</ele>
        <time>2021-09-02T11:40:40Z</time>
      </trkpt>
      <trkpt lat="44.27184" lon="6.29387">
        <ele>1052.1999511719</ele>
        <time>2021-09-02T11:40:42Z</time>
      </trkpt>
      <trkpt lat="44.2718" lon="6.29377">
        <ele>1051.8000488281</ele>
        <time>2021-09-02T11:40:43Z</time>
      </trkpt>
      <trkpt lat="44.27173" lon="6.29355">
        <ele>1051</ele>
        <time>2021-09-02T11:40:45Z</time>
      </trkpt>
      <trkpt lat="44.27161" lon="6.29335">
        <ele>1050.4000244141</ele>
        <time>2021-09-02T11:40:47Z</time>
      </trkpt>
      <trkpt lat="44.27157" lon="6.29327">
        <ele>1050.1999511719</ele>
        <time>2021-09-02T11:40:48Z</time>
      </trkpt>
      <trkpt lat="44.27145" lon="6.29318">
        <ele>1050</ele>
        <time>2021-09-02T11:40:49Z</time>
      </trkpt>
      <trkpt lat="44.27117" lon="6.29298">
        <ele>1049.4000244141</ele>
        <time>2021-09-02T11:40:51Z</time>
      </trkpt>
      <trkpt lat="44.27097" lon="6.29282">
        <ele>1049</ele>
        <time>2021-09-02T11:40:53Z</time>
      </trkpt>
      <trkpt lat="44.27078" lon="6.2927">
        <ele>1048.4000244141</ele>
        <time>2021-09-02T11:40:55Z</time>
      </trkpt>
      <trkpt lat="44.27068" lon="6.29269">
        <ele>1048</ele>
        <time>2021-09-02T11:40:56Z</time>
      </trkpt>
      <trkpt lat="44.27058" lon="6.29269">
        <ele>1047.5999755859</ele>
        <time>2021-09-02T11:40:57Z</time>
      </trkpt>
      <trkpt lat="44.27048" lon="6.29268">
        <ele>1047.1999511719</ele>
        <time>2021-09-02T11:40:58Z</time>
      </trkpt>
      <trkpt lat="44.2703" lon="6.29262">
        <ele>1046.4000244141</ele>
        <time>2021-09-02T11:41:00Z</time>
      </trkpt>
      <trkpt lat="44.27011" lon="6.29257">
        <ele>1045</ele>
        <time>2021-09-02T11:41:02Z</time>
      </trkpt>
      <trkpt lat="44.27002" lon="6.29254">
        <ele>1044.5999755859</ele>
        <time>2021-09-02T11:41:03Z</time>
      </trkpt>
      <trkpt lat="44.26993" lon="6.2925">
        <ele>1044.1999511719</ele>
        <time>2021-09-02T11:41:04Z</time>
      </trkpt>
      <trkpt lat="44.26985" lon="6.29245">
        <ele>1043.8000488281</ele>
        <time>2021-09-02T11:41:05Z</time>
      </trkpt>
      <trkpt lat="44.26978" lon="6.29239">
        <ele>1043.1999511719</ele>
        <time>2021-09-02T11:41:06Z</time>
      </trkpt>
      <trkpt lat="44.26971" lon="6.29228">
        <ele>1042.8000488281</ele>
        <time>2021-09-02T11:41:07Z</time>
      </trkpt>
      <trkpt lat="44.26967" lon="6.29216">
        <ele>1042.1999511719</ele>
        <time>2021-09-02T11:41:08Z</time>
      </trkpt>
      <trkpt lat="44.26963" lon="6.29187">
        <ele>1041.4000244141</ele>
        <time>2021-09-02T11:41:10Z</time>
      </trkpt>
      <trkpt lat="44.26963" lon="6.29174">
        <ele>1041</ele>
        <time>2021-09-02T11:41:11Z</time>
      </trkpt>
      <trkpt lat="44.26969" lon="6.29147">
        <ele>1040.1999511719</ele>
        <time>2021-09-02T11:41:13Z</time>
      </trkpt>
      <trkpt lat="44.26973" lon="6.29134">
        <ele>1039.5999755859</ele>
        <time>2021-09-02T11:41:14Z</time>
      </trkpt>
      <trkpt lat="44.26977" lon="6.29121">
        <ele>1039.1999511719</ele>
        <time>2021-09-02T11:41:15Z</time>
      </trkpt>
      <trkpt lat="44.26981" lon="6.29108">
        <ele>1038.8000488281</ele>
        <time>2021-09-02T11:41:16Z</time>
      </trkpt>
      <trkpt lat="44.26992" lon="6.29072">
        <ele>1037.5999755859</ele>
        <time>2021-09-02T11:41:19Z</time>
      </trkpt>
      <trkpt lat="44.27003" lon="6.29037">
        <ele>1036.4000244141</ele>
        <time>2021-09-02T11:41:22Z</time>
      </trkpt>
      <trkpt lat="44.27015" lon="6.29004">
        <ele>1035.5999755859</ele>
        <time>2021-09-02T11:41:25Z</time>
      </trkpt>
      <trkpt lat="44.2702" lon="6.28995">
        <ele>1035</ele>
        <time>2021-09-02T11:41:26Z</time>
      </trkpt>
      <trkpt lat="44.27026" lon="6.28987">
        <ele>1034.8000488281</ele>
        <time>2021-09-02T11:41:27Z</time>
      </trkpt>
      <trkpt lat="44.27047" lon="6.28966">
        <ele>1034</ele>
        <time>2021-09-02T11:41:30Z</time>
      </trkpt>
      <trkpt lat="44.27054" lon="6.28961">
        <ele>1033.8000488281</ele>
        <time>2021-09-02T11:41:31Z</time>
      </trkpt>
      <trkpt lat="44.27091" lon="6.28938">
        <ele>1032.8000488281</ele>
        <time>2021-09-02T11:41:36Z</time>
      </trkpt>
      <trkpt lat="44.2712" lon="6.28918">
        <ele>1031.5999755859</ele>
        <time>2021-09-02T11:41:40Z</time>
      </trkpt>
      <trkpt lat="44.2714" lon="6.28902">
        <ele>1030.4000244141</ele>
        <time>2021-09-02T11:41:43Z</time>
      </trkpt>
      <trkpt lat="44.27145" lon="6.28895">
        <ele>1030</ele>
        <time>2021-09-02T11:41:44Z</time>
      </trkpt>
      <trkpt lat="44.2716" lon="6.28875">
        <ele>1029.4000244141</ele>
        <time>2021-09-02T11:41:47Z</time>
      </trkpt>
      <trkpt lat="44.27168" lon="6.28861">
        <ele>1029.1999511719</ele>
        <time>2021-09-02T11:41:49Z</time>
      </trkpt>
      <trkpt lat="44.27175" lon="6.28847">
        <ele>1028.5999755859</ele>
        <time>2021-09-02T11:41:51Z</time>
      </trkpt>
      <trkpt lat="44.27179" lon="6.28832">
        <ele>1028.1999511719</ele>
        <time>2021-09-02T11:41:53Z</time>
      </trkpt>
      <trkpt lat="44.27172" lon="6.28809">
        <ele>1027.5999755859</ele>
        <time>2021-09-02T11:41:56Z</time>
      </trkpt>
      <trkpt lat="44.27154" lon="6.28789">
        <ele>1027.1999511719</ele>
        <time>2021-09-02T11:41:59Z</time>
      </trkpt>
      <trkpt lat="44.27139" lon="6.2878">
        <ele>1027</ele>
        <time>2021-09-02T11:42:00Z</time>
      </trkpt>
      <trkpt lat="44.27102" lon="6.28753">
        <ele>1026.1999511719</ele>
        <time>2021-09-02T11:42:05Z</time>
      </trkpt>
      <trkpt lat="44.27067" lon="6.28731">
        <ele>1026</ele>
        <time>2021-09-02T11:42:11Z</time>
      </trkpt>
      <trkpt lat="44.27051" lon="6.28724">
        <ele>1025.5999755859</ele>
        <time>2021-09-02T11:42:14Z</time>
      </trkpt>
      <trkpt lat="44.27037" lon="6.28717">
        <ele>1025.1999511719</ele>
        <time>2021-09-02T11:42:17Z</time>
      </trkpt>
      <trkpt lat="44.27011" lon="6.28705">
        <ele>1024.8000488281</ele>
        <time>2021-09-02T11:42:23Z</time>
      </trkpt>
      <trkpt lat="44.27002" lon="6.28702">
        <ele>1024.8000488281</ele>
        <time>2021-09-02T11:42:25Z</time>
      </trkpt>
      <trkpt lat="44.26966" lon="6.28684">
        <ele>1024.8000488281</ele>
        <time>2021-09-02T11:42:32Z</time>
      </trkpt>
      <trkpt lat="44.26926" lon="6.28665">
        <ele>1024</ele>
        <time>2021-09-02T11:42:39Z</time>
      </trkpt>
      <trkpt lat="44.26921" lon="6.28661">
        <ele>1023.799987793</ele>
        <time>2021-09-02T11:42:40Z</time>
      </trkpt>
      <trkpt lat="44.2689" lon="6.28635">
        <ele>1022.799987793</ele>
        <time>2021-09-02T11:42:46Z</time>
      </trkpt>
      <trkpt lat="44.26876" lon="6.28617">
        <ele>1022.4000244141</ele>
        <time>2021-09-02T11:42:49Z</time>
      </trkpt>
      <trkpt lat="44.26869" lon="6.28603">
        <ele>1022.200012207</ele>
        <time>2021-09-02T11:42:51Z</time>
      </trkpt>
      <trkpt lat="44.26863" lon="6.28577">
        <ele>1021.799987793</ele>
        <time>2021-09-02T11:42:54Z</time>
      </trkpt>
      <trkpt lat="44.26859" lon="6.2856">
        <ele>1021.799987793</ele>
        <time>2021-09-02T11:42:56Z</time>
      </trkpt>
      <trkpt lat="44.26855" lon="6.2852">
        <ele>1022.5999755859</ele>
        <time>2021-09-02T11:43:01Z</time>
      </trkpt>
      <trkpt lat="44.26855" lon="6.28513">
        <ele>1022.799987793</ele>
        <time>2021-09-02T11:43:02Z</time>
      </trkpt>
      <trkpt lat="44.26859" lon="6.28451">
        <ele>1022.4000244141</ele>
        <time>2021-09-02T11:43:10Z</time>
      </trkpt>
      <trkpt lat="44.2687" lon="6.28389">
        <ele>1022.200012207</ele>
        <time>2021-09-02T11:43:18Z</time>
      </trkpt>
      <trkpt lat="44.26878" lon="6.28342">
        <ele>1021.5999755859</ele>
        <time>2021-09-02T11:43:24Z</time>
      </trkpt>
      <trkpt lat="44.26881" lon="6.28319">
        <ele>1021</ele>
        <time>2021-09-02T11:43:27Z</time>
      </trkpt>
      <trkpt lat="44.26882" lon="6.28294">
        <ele>1020.5999755859</ele>
        <time>2021-09-02T11:43:30Z</time>
      </trkpt>
      <trkpt lat="44.26882" lon="6.28254">
        <ele>1020</ele>
        <time>2021-09-02T11:43:35Z</time>
      </trkpt>
      <trkpt lat="44.26877" lon="6.28222">
        <ele>1019.799987793</ele>
        <time>2021-09-02T11:43:39Z</time>
      </trkpt>
      <trkpt lat="44.26874" lon="6.28215">
        <ele>1019.5999755859</ele>
        <time>2021-09-02T11:43:40Z</time>
      </trkpt>
      <trkpt lat="44.2687" lon="6.28207">
        <ele>1019.4000244141</ele>
        <time>2021-09-02T11:43:41Z</time>
      </trkpt>
      <trkpt lat="44.26861" lon="6.28192">
        <ele>1019.200012207</ele>
        <time>2021-09-02T11:43:43Z</time>
      </trkpt>
      <trkpt lat="44.26853" lon="6.28176">
        <ele>1018.799987793</ele>
        <time>2021-09-02T11:43:45Z</time>
      </trkpt>
      <trkpt lat="44.26846" lon="6.28159">
        <ele>1018.4000244141</ele>
        <time>2021-09-02T11:43:47Z</time>
      </trkpt>
      <trkpt lat="44.26837" lon="6.28132">
        <ele>1017.799987793</ele>
        <time>2021-09-02T11:43:50Z</time>
      </trkpt>
      <trkpt lat="44.26835" lon="6.28123">
        <ele>1017.4000244141</ele>
        <time>2021-09-02T11:43:51Z</time>
      </trkpt>
      <trkpt lat="44.26829" lon="6.28083">
        <ele>1016.4000244141</ele>
        <time>2021-09-02T11:43:55Z</time>
      </trkpt>
      <trkpt lat="44.26829" lon="6.28054">
        <ele>1015.5999755859</ele>
        <time>2021-09-02T11:43:58Z</time>
      </trkpt>
      <trkpt lat="44.26832" lon="6.28034">
        <ele>1015.200012207</ele>
        <time>2021-09-02T11:44:00Z</time>
      </trkpt>
      <trkpt lat="44.26832" lon="6.28025">
        <ele>1015</ele>
        <time>2021-09-02T11:44:01Z</time>
      </trkpt>
      <trkpt lat="44.26829" lon="6.27988">
        <ele>1014</ele>
        <time>2021-09-02T11:44:05Z</time>
      </trkpt>
      <trkpt lat="44.26822" lon="6.27963">
        <ele>1013.4000244141</ele>
        <time>2021-09-02T11:44:08Z</time>
      </trkpt>
      <trkpt lat="44.26817" lon="6.27946">
        <ele>1013</ele>
        <time>2021-09-02T11:44:10Z</time>
      </trkpt>
      <trkpt lat="44.2679" lon="6.27897">
        <ele>1011.799987793</ele>
        <time>2021-09-02T11:44:16Z</time>
      </trkpt>
      <trkpt lat="44.26764" lon="6.27861">
        <ele>1010.799987793</ele>
        <time>2021-09-02T11:44:21Z</time>
      </trkpt>
      <trkpt lat="44.26744" lon="6.27835">
        <ele>1010.200012207</ele>
        <time>2021-09-02T11:44:25Z</time>
      </trkpt>
      <trkpt lat="44.26721" lon="6.27801">
        <ele>1009.799987793</ele>
        <time>2021-09-02T11:44:30Z</time>
      </trkpt>
      <trkpt lat="44.26711" lon="6.27789">
        <ele>1009.5999755859</ele>
        <time>2021-09-02T11:44:32Z</time>
      </trkpt>
      <trkpt lat="44.26677" lon="6.27739">
        <ele>1009.200012207</ele>
        <time>2021-09-02T11:44:40Z</time>
      </trkpt>
      <trkpt lat="44.26661" lon="6.27703">
        <ele>1009</ele>
        <time>2021-09-02T11:44:45Z</time>
      </trkpt>
      <trkpt lat="44.26659" lon="6.27695">
        <ele>1009</ele>
        <time>2021-09-02T11:44:46Z</time>
      </trkpt>
      <trkpt lat="44.2665" lon="6.27653">
        <ele>1008.5999755859</ele>
        <time>2021-09-02T11:44:51Z</time>
      </trkpt>
      <trkpt lat="44.26643" lon="6.27628">
        <ele>1008.4000244141</ele>
        <time>2021-09-02T11:44:54Z</time>
      </trkpt>
      <trkpt lat="44.26634" lon="6.27594">
        <ele>1008</ele>
        <time>2021-09-02T11:44:58Z</time>
      </trkpt>
      <trkpt lat="44.26631" lon="6.27568">
        <ele>1008</ele>
        <time>2021-09-02T11:45:01Z</time>
      </trkpt>
      <trkpt lat="44.26629" lon="6.27542">
        <ele>1007.5999755859</ele>
        <time>2021-09-02T11:45:04Z</time>
      </trkpt>
      <trkpt lat="44.26626" lon="6.2749">
        <ele>1007</ele>
        <time>2021-09-02T11:45:10Z</time>
      </trkpt>
      <trkpt lat="44.26627" lon="6.27472">
        <ele>1006.799987793</ele>
        <time>2021-09-02T11:45:12Z</time>
      </trkpt>
      <trkpt lat="44.26629" lon="6.27464">
        <ele>1006.5999755859</ele>
        <time>2021-09-02T11:45:13Z</time>
      </trkpt>
      <trkpt lat="44.26631" lon="6.27455">
        <ele>1006.4000244141</ele>
        <time>2021-09-02T11:45:14Z</time>
      </trkpt>
      <trkpt lat="44.26641" lon="6.27429">
        <ele>1005.5999755859</ele>
        <time>2021-09-02T11:45:17Z</time>
      </trkpt>
      <trkpt lat="44.26648" lon="6.27413">
        <ele>1005.200012207</ele>
        <time>2021-09-02T11:45:19Z</time>
      </trkpt>
      <trkpt lat="44.26666" lon="6.27353">
        <ele>1005</ele>
        <time>2021-09-02T11:45:26Z</time>
      </trkpt>
      <trkpt lat="44.26669" lon="6.27297">
        <ele>1004.799987793</ele>
        <time>2021-09-02T11:45:32Z</time>
      </trkpt>
      <trkpt lat="44.26669" lon="6.2727">
        <ele>1004.5999755859</ele>
        <time>2021-09-02T11:45:35Z</time>
      </trkpt>
      <trkpt lat="44.26667" lon="6.27262">
        <ele>1004.4000244141</ele>
        <time>2021-09-02T11:45:36Z</time>
      </trkpt>
      <trkpt lat="44.26663" lon="6.27253">
        <ele>1004.4000244141</ele>
        <time>2021-09-02T11:45:37Z</time>
      </trkpt>
      <trkpt lat="44.26645" lon="6.2722">
        <ele>1004</ele>
        <time>2021-09-02T11:45:41Z</time>
      </trkpt>
      <trkpt lat="44.26639" lon="6.27212">
        <ele>1003.799987793</ele>
        <time>2021-09-02T11:45:42Z</time>
      </trkpt>
      <trkpt lat="44.26632" lon="6.27206">
        <ele>1003.5999755859</ele>
        <time>2021-09-02T11:45:43Z</time>
      </trkpt>
      <trkpt lat="44.26614" lon="6.27188">
        <ele>1002.4000244141</ele>
        <time>2021-09-02T11:45:46Z</time>
      </trkpt>
      <trkpt lat="44.26595" lon="6.27171">
        <ele>1001.4000244141</ele>
        <time>2021-09-02T11:45:49Z</time>
      </trkpt>
      <trkpt lat="44.26589" lon="6.27164">
        <ele>1001</ele>
        <time>2021-09-02T11:45:50Z</time>
      </trkpt>
      <trkpt lat="44.26577" lon="6.27152">
        <ele>1000.5999755859</ele>
        <time>2021-09-02T11:45:52Z</time>
      </trkpt>
      <trkpt lat="44.26565" lon="6.2714">
        <ele>1000</ele>
        <time>2021-09-02T11:45:54Z</time>
      </trkpt>
      <trkpt lat="44.2656" lon="6.27133">
        <ele>999.79998779297</ele>
        <time>2021-09-02T11:45:55Z</time>
      </trkpt>
      <trkpt lat="44.26533" lon="6.27098">
        <ele>998.59997558594</ele>
        <time>2021-09-02T11:46:00Z</time>
      </trkpt>
      <trkpt lat="44.26523" lon="6.27084">
        <ele>998.20001220703</ele>
        <time>2021-09-02T11:46:02Z</time>
      </trkpt>
      <trkpt lat="44.26502" lon="6.27055">
        <ele>997.59997558594</ele>
        <time>2021-09-02T11:46:06Z</time>
      </trkpt>
      <trkpt lat="44.26485" lon="6.27035">
        <ele>997.20001220703</ele>
        <time>2021-09-02T11:46:09Z</time>
      </trkpt>
      <trkpt lat="44.2646" lon="6.27">
        <ele>996.40002441406</ele>
        <time>2021-09-02T11:46:14Z</time>
      </trkpt>
      <trkpt lat="44.26455" lon="6.26992">
        <ele>996</ele>
        <time>2021-09-02T11:46:15Z</time>
      </trkpt>
      <trkpt lat="44.26429" lon="6.2696">
        <ele>995.40002441406</ele>
        <time>2021-09-02T11:46:20Z</time>
      </trkpt>
      <trkpt lat="44.26424" lon="6.26953">
        <ele>995.20001220703</ele>
        <time>2021-09-02T11:46:21Z</time>
      </trkpt>
      <trkpt lat="44.26395" lon="6.26916">
        <ele>994.20001220703</ele>
        <time>2021-09-02T11:46:27Z</time>
      </trkpt>
      <trkpt lat="44.26385" lon="6.26904">
        <ele>993.79998779297</ele>
        <time>2021-09-02T11:46:29Z</time>
      </trkpt>
      <trkpt lat="44.26381" lon="6.26898">
        <ele>993.59997558594</ele>
        <time>2021-09-02T11:46:30Z</time>
      </trkpt>
      <trkpt lat="44.26369" lon="6.26877">
        <ele>993.20001220703</ele>
        <time>2021-09-02T11:46:33Z</time>
      </trkpt>
      <trkpt lat="44.26366" lon="6.26869">
        <ele>993</ele>
        <time>2021-09-02T11:46:34Z</time>
      </trkpt>
      <trkpt lat="44.26353" lon="6.26836">
        <ele>992</ele>
        <time>2021-09-02T11:46:38Z</time>
      </trkpt>
      <trkpt lat="44.26346" lon="6.26821">
        <ele>991.59997558594</ele>
        <time>2021-09-02T11:46:40Z</time>
      </trkpt>
      <trkpt lat="44.26337" lon="6.26799">
        <ele>991</ele>
        <time>2021-09-02T11:46:43Z</time>
      </trkpt>
      <trkpt lat="44.26326" lon="6.26777">
        <ele>990.40002441406</ele>
        <time>2021-09-02T11:46:46Z</time>
      </trkpt>
      <trkpt lat="44.26312" lon="6.26737">
        <ele>989.79998779297</ele>
        <time>2021-09-02T11:46:51Z</time>
      </trkpt>
      <trkpt lat="44.26309" lon="6.26729">
        <ele>989.59997558594</ele>
        <time>2021-09-02T11:46:52Z</time>
      </trkpt>
      <trkpt lat="44.26297" lon="6.26707">
        <ele>989.40002441406</ele>
        <time>2021-09-02T11:46:55Z</time>
      </trkpt>
      <trkpt lat="44.26293" lon="6.26701">
        <ele>989.40002441406</ele>
        <time>2021-09-02T11:46:56Z</time>
      </trkpt>
      <trkpt lat="44.26283" lon="6.26692">
        <ele>989.40002441406</ele>
        <time>2021-09-02T11:46:58Z</time>
      </trkpt>
      <trkpt lat="44.26238" lon="6.26657">
        <ele>989.40002441406</ele>
        <time>2021-09-02T11:47:06Z</time>
      </trkpt>
      <trkpt lat="44.26212" lon="6.2663">
        <ele>989.20001220703</ele>
        <time>2021-09-02T11:47:11Z</time>
      </trkpt>
      <trkpt lat="44.26208" lon="6.26622">
        <ele>989.20001220703</ele>
        <time>2021-09-02T11:47:12Z</time>
      </trkpt>
      <trkpt lat="44.26177" lon="6.2657">
        <ele>989.40002441406</ele>
        <time>2021-09-02T11:47:19Z</time>
      </trkpt>
      <trkpt lat="44.26154" lon="6.26533">
        <ele>989.59997558594</ele>
        <time>2021-09-02T11:47:26Z</time>
      </trkpt>
      <trkpt lat="44.26151" lon="6.26527">
        <ele>989.59997558594</ele>
        <time>2021-09-02T11:47:27Z</time>
      </trkpt>
      <trkpt lat="44.26147" lon="6.26521">
        <ele>989.40002441406</ele>
        <time>2021-09-02T11:47:28Z</time>
      </trkpt>
      <trkpt lat="44.26139" lon="6.26509">
        <ele>988.40002441406</ele>
        <time>2021-09-02T11:47:30Z</time>
      </trkpt>
      <trkpt lat="44.26131" lon="6.26497">
        <ele>987.79998779297</ele>
        <time>2021-09-02T11:47:32Z</time>
      </trkpt>
      <trkpt lat="44.26101" lon="6.26465">
        <ele>987.40002441406</ele>
        <time>2021-09-02T11:47:39Z</time>
      </trkpt>
      <trkpt lat="44.26097" lon="6.26461">
        <ele>987.40002441406</ele>
        <time>2021-09-02T11:47:40Z</time>
      </trkpt>
      <trkpt lat="44.26061" lon="6.26428">
        <ele>987.20001220703</ele>
        <time>2021-09-02T11:47:48Z</time>
      </trkpt>
      <trkpt lat="44.26026" lon="6.26398">
        <ele>987.40002441406</ele>
        <time>2021-09-02T11:47:56Z</time>
      </trkpt>
      <trkpt lat="44.2601" lon="6.26387">
        <ele>987.59997558594</ele>
        <time>2021-09-02T11:48:00Z</time>
      </trkpt>
      <trkpt lat="44.26002" lon="6.26384">
        <ele>987.79998779297</ele>
        <time>2021-09-02T11:48:02Z</time>
      </trkpt>
      <trkpt lat="44.2597" lon="6.26378">
        <ele>988.20001220703</ele>
        <time>2021-09-02T11:48:09Z</time>
      </trkpt>
      <trkpt lat="44.25965" lon="6.26379">
        <ele>988.20001220703</ele>
        <time>2021-09-02T11:48:10Z</time>
      </trkpt>
      <trkpt lat="44.25956" lon="6.26381">
        <ele>988.40002441406</ele>
        <time>2021-09-02T11:48:12Z</time>
      </trkpt>
      <trkpt lat="44.25936" lon="6.26384">
        <ele>988.59997558594</ele>
        <time>2021-09-02T11:48:16Z</time>
      </trkpt>
      <trkpt lat="44.25917" lon="6.26396">
        <ele>988.79998779297</ele>
        <time>2021-09-02T11:48:20Z</time>
      </trkpt>
      <trkpt lat="44.25883" lon="6.26418">
        <ele>988.59997558594</ele>
        <time>2021-09-02T11:48:26Z</time>
      </trkpt>
      <trkpt lat="44.25844" lon="6.26437">
        <ele>987.79998779297</ele>
        <time>2021-09-02T11:48:32Z</time>
      </trkpt>
      <trkpt lat="44.25814" lon="6.26454">
        <ele>987.40002441406</ele>
        <time>2021-09-02T11:48:38Z</time>
      </trkpt>
      <trkpt lat="44.25784" lon="6.26477">
        <ele>988.20001220703</ele>
        <time>2021-09-02T11:48:45Z</time>
      </trkpt>
      <trkpt lat="44.2575" lon="6.26505">
        <ele>989.20001220703</ele>
        <time>2021-09-02T11:48:54Z</time>
      </trkpt>
      <trkpt lat="44.25747" lon="6.26509">
        <ele>989.40002441406</ele>
        <time>2021-09-02T11:48:55Z</time>
      </trkpt>
      <trkpt lat="44.2572" lon="6.26528">
        <ele>989.79998779297</ele>
        <time>2021-09-02T11:49:02Z</time>
      </trkpt>
      <trkpt lat="44.25701" lon="6.26532">
        <ele>989.79998779297</ele>
        <time>2021-09-02T11:49:06Z</time>
      </trkpt>
      <trkpt lat="44.25692" lon="6.26531">
        <ele>989.79998779297</ele>
        <time>2021-09-02T11:49:08Z</time>
      </trkpt>
      <trkpt lat="44.25656" lon="6.26518">
        <ele>990</ele>
        <time>2021-09-02T11:49:16Z</time>
      </trkpt>
      <trkpt lat="44.25625" lon="6.26504">
        <ele>990.40002441406</ele>
        <time>2021-09-02T11:49:23Z</time>
      </trkpt>
      <trkpt lat="44.2562" lon="6.26501">
        <ele>990.40002441406</ele>
        <time>2021-09-02T11:49:24Z</time>
      </trkpt>
      <trkpt lat="44.25601" lon="6.26477">
        <ele>990.40002441406</ele>
        <time>2021-09-02T11:49:29Z</time>
      </trkpt>
      <trkpt lat="44.25572" lon="6.2643">
        <ele>990.20001220703</ele>
        <time>2021-09-02T11:49:37Z</time>
      </trkpt>
      <trkpt lat="44.25558" lon="6.26405">
        <ele>990.20001220703</ele>
        <time>2021-09-02T11:49:41Z</time>
      </trkpt>
      <trkpt lat="44.2555" lon="6.26393">
        <ele>990.20001220703</ele>
        <time>2021-09-02T11:49:43Z</time>
      </trkpt>
      <trkpt lat="44.25547" lon="6.26387">
        <ele>990.20001220703</ele>
        <time>2021-09-02T11:49:44Z</time>
      </trkpt>
      <trkpt lat="44.25529" lon="6.26358">
        <ele>990</ele>
        <time>2021-09-02T11:49:49Z</time>
      </trkpt>
      <trkpt lat="44.25513" lon="6.26326">
        <ele>989.40002441406</ele>
        <time>2021-09-02T11:49:54Z</time>
      </trkpt>
      <trkpt lat="44.25507" lon="6.26311">
        <ele>989</ele>
        <time>2021-09-02T11:49:56Z</time>
      </trkpt>
      <trkpt lat="44.25503" lon="6.26304">
        <ele>988.79998779297</ele>
        <time>2021-09-02T11:49:57Z</time>
      </trkpt>
      <trkpt lat="44.25486" lon="6.26288">
        <ele>988.59997558594</ele>
        <time>2021-09-02T11:50:00Z</time>
      </trkpt>
      <trkpt lat="44.2548" lon="6.26284">
        <ele>988.40002441406</ele>
        <time>2021-09-02T11:50:01Z</time>
      </trkpt>
      <trkpt lat="44.25473" lon="6.26279">
        <ele>988.40002441406</ele>
        <time>2021-09-02T11:50:02Z</time>
      </trkpt>
      <trkpt lat="44.2546" lon="6.26272">
        <ele>987.79998779297</ele>
        <time>2021-09-02T11:50:04Z</time>
      </trkpt>
      <trkpt lat="44.25447" lon="6.26266">
        <ele>987.20001220703</ele>
        <time>2021-09-02T11:50:06Z</time>
      </trkpt>
      <trkpt lat="44.25401" lon="6.26249">
        <ele>986.59997558594</ele>
        <time>2021-09-02T11:50:13Z</time>
      </trkpt>
      <trkpt lat="44.25382" lon="6.26237">
        <ele>986.40002441406</ele>
        <time>2021-09-02T11:50:16Z</time>
      </trkpt>
      <trkpt lat="44.25377" lon="6.26231">
        <ele>986.40002441406</ele>
        <time>2021-09-02T11:50:17Z</time>
      </trkpt>
      <trkpt lat="44.25364" lon="6.26207">
        <ele>986.20001220703</ele>
        <time>2021-09-02T11:50:20Z</time>
      </trkpt>
      <trkpt lat="44.2536" lon="6.26199">
        <ele>986.20001220703</ele>
        <time>2021-09-02T11:50:21Z</time>
      </trkpt>
      <trkpt lat="44.25339" lon="6.26153">
        <ele>984.79998779297</ele>
        <time>2021-09-02T11:50:26Z</time>
      </trkpt>
      <trkpt lat="44.25335" lon="6.26143">
        <ele>984.59997558594</ele>
        <time>2021-09-02T11:50:27Z</time>
      </trkpt>
      <trkpt lat="44.25321" lon="6.26115">
        <ele>983.59997558594</ele>
        <time>2021-09-02T11:50:30Z</time>
      </trkpt>
      <trkpt lat="44.25307" lon="6.26087">
        <ele>983</ele>
        <time>2021-09-02T11:50:33Z</time>
      </trkpt>
      <trkpt lat="44.25288" lon="6.26048">
        <ele>982.59997558594</ele>
        <time>2021-09-02T11:50:37Z</time>
      </trkpt>
      <trkpt lat="44.25274" lon="6.26018">
        <ele>981</ele>
        <time>2021-09-02T11:50:40Z</time>
      </trkpt>
      <trkpt lat="44.25268" lon="6.26011">
        <ele>980.79998779297</ele>
        <time>2021-09-02T11:50:41Z</time>
      </trkpt>
      <trkpt lat="44.25244" lon="6.26003">
        <ele>980.40002441406</ele>
        <time>2021-09-02T11:50:44Z</time>
      </trkpt>
      <trkpt lat="44.25235" lon="6.26002">
        <ele>980.40002441406</ele>
        <time>2021-09-02T11:50:45Z</time>
      </trkpt>
      <trkpt lat="44.25194" lon="6.26002">
        <ele>979.79998779297</ele>
        <time>2021-09-02T11:50:50Z</time>
      </trkpt>
      <trkpt lat="44.25161" lon="6.26001">
        <ele>978.59997558594</ele>
        <time>2021-09-02T11:50:54Z</time>
      </trkpt>
      <trkpt lat="44.25153" lon="6.26001">
        <ele>978.40002441406</ele>
        <time>2021-09-02T11:50:55Z</time>
      </trkpt>
      <trkpt lat="44.25103" lon="6.25993">
        <ele>977.40002441406</ele>
        <time>2021-09-02T11:51:01Z</time>
      </trkpt>
      <trkpt lat="44.25095" lon="6.25991">
        <ele>977.20001220703</ele>
        <time>2021-09-02T11:51:02Z</time>
      </trkpt>
      <trkpt lat="44.25079" lon="6.25987">
        <ele>976.40002441406</ele>
        <time>2021-09-02T11:51:04Z</time>
      </trkpt>
      <trkpt lat="44.2504" lon="6.25969">
        <ele>975.40002441406</ele>
        <time>2021-09-02T11:51:09Z</time>
      </trkpt>
      <trkpt lat="44.25033" lon="6.25964">
        <ele>975.20001220703</ele>
        <time>2021-09-02T11:51:10Z</time>
      </trkpt>
      <trkpt lat="44.24988" lon="6.25942">
        <ele>974.20001220703</ele>
        <time>2021-09-02T11:51:16Z</time>
      </trkpt>
      <trkpt lat="44.24981" lon="6.25937">
        <ele>974</ele>
        <time>2021-09-02T11:51:17Z</time>
      </trkpt>
      <trkpt lat="44.24969" lon="6.25925">
        <ele>974</ele>
        <time>2021-09-02T11:51:19Z</time>
      </trkpt>
      <trkpt lat="44.24957" lon="6.25911">
        <ele>973.79998779297</ele>
        <time>2021-09-02T11:51:21Z</time>
      </trkpt>
      <trkpt lat="44.24922" lon="6.25873">
        <ele>973.40002441406</ele>
        <time>2021-09-02T11:51:27Z</time>
      </trkpt>
      <trkpt lat="44.24908" lon="6.25865">
        <ele>973</ele>
        <time>2021-09-02T11:51:29Z</time>
      </trkpt>
      <trkpt lat="44.24887" lon="6.25855">
        <ele>972.59997558594</ele>
        <time>2021-09-02T11:51:32Z</time>
      </trkpt>
      <trkpt lat="44.24859" lon="6.25839">
        <ele>972</ele>
        <time>2021-09-02T11:51:36Z</time>
      </trkpt>
      <trkpt lat="44.24838" lon="6.2583">
        <ele>971.79998779297</ele>
        <time>2021-09-02T11:51:39Z</time>
      </trkpt>
      <trkpt lat="44.24809" lon="6.25834">
        <ele>971.59997558594</ele>
        <time>2021-09-02T11:51:43Z</time>
      </trkpt>
      <trkpt lat="44.24801" lon="6.25837">
        <ele>971.40002441406</ele>
        <time>2021-09-02T11:51:44Z</time>
      </trkpt>
      <trkpt lat="44.24771" lon="6.25849">
        <ele>970.79998779297</ele>
        <time>2021-09-02T11:51:48Z</time>
      </trkpt>
      <trkpt lat="44.24748" lon="6.25859">
        <ele>970.40002441406</ele>
        <time>2021-09-02T11:51:51Z</time>
      </trkpt>
      <trkpt lat="44.24725" lon="6.25867">
        <ele>969.79998779297</ele>
        <time>2021-09-02T11:51:54Z</time>
      </trkpt>
      <trkpt lat="44.24694" lon="6.25875">
        <ele>969.20001220703</ele>
        <time>2021-09-02T11:51:58Z</time>
      </trkpt>
      <trkpt lat="44.24663" lon="6.25879">
        <ele>968.79998779297</ele>
        <time>2021-09-02T11:52:02Z</time>
      </trkpt>
      <trkpt lat="44.24624" lon="6.25882">
        <ele>968</ele>
        <time>2021-09-02T11:52:07Z</time>
      </trkpt>
      <trkpt lat="44.24608" lon="6.25884">
        <ele>967.59997558594</ele>
        <time>2021-09-02T11:52:09Z</time>
      </trkpt>
      <trkpt lat="44.24579" lon="6.25891">
        <ele>966.79998779297</ele>
        <time>2021-09-02T11:52:13Z</time>
      </trkpt>
      <trkpt lat="44.24572" lon="6.25896">
        <ele>966.59997558594</ele>
        <time>2021-09-02T11:52:14Z</time>
      </trkpt>
      <trkpt lat="44.24549" lon="6.25926">
        <ele>966</ele>
        <time>2021-09-02T11:52:18Z</time>
      </trkpt>
      <trkpt lat="44.24539" lon="6.25945">
        <ele>965.59997558594</ele>
        <time>2021-09-02T11:52:20Z</time>
      </trkpt>
      <trkpt lat="44.24524" lon="6.25975">
        <ele>964.79998779297</ele>
        <time>2021-09-02T11:52:23Z</time>
      </trkpt>
      <trkpt lat="44.24519" lon="6.25985">
        <ele>964.40002441406</ele>
        <time>2021-09-02T11:52:24Z</time>
      </trkpt>
      <trkpt lat="44.24497" lon="6.26026">
        <ele>963.40002441406</ele>
        <time>2021-09-02T11:52:28Z</time>
      </trkpt>
      <trkpt lat="44.24477" lon="6.26053">
        <ele>962.40002441406</ele>
        <time>2021-09-02T11:52:31Z</time>
      </trkpt>
      <trkpt lat="44.2447" lon="6.26061">
        <ele>962</ele>
        <time>2021-09-02T11:52:32Z</time>
      </trkpt>
      <trkpt lat="44.24462" lon="6.26067">
        <ele>961.59997558594</ele>
        <time>2021-09-02T11:52:33Z</time>
      </trkpt>
      <trkpt lat="44.24447" lon="6.26078">
        <ele>960.79998779297</ele>
        <time>2021-09-02T11:52:35Z</time>
      </trkpt>
      <trkpt lat="44.24409" lon="6.26108">
        <ele>959.40002441406</ele>
        <time>2021-09-02T11:52:40Z</time>
      </trkpt>
      <trkpt lat="44.24386" lon="6.26124">
        <ele>958.59997558594</ele>
        <time>2021-09-02T11:52:43Z</time>
      </trkpt>
      <trkpt lat="44.24378" lon="6.26129">
        <ele>958.40002441406</ele>
        <time>2021-09-02T11:52:44Z</time>
      </trkpt>
      <trkpt lat="44.24346" lon="6.26141">
        <ele>957.40002441406</ele>
        <time>2021-09-02T11:52:48Z</time>
      </trkpt>
      <trkpt lat="44.24313" lon="6.2615">
        <ele>956.20001220703</ele>
        <time>2021-09-02T11:52:52Z</time>
      </trkpt>
      <trkpt lat="44.24297" lon="6.26151">
        <ele>955.59997558594</ele>
        <time>2021-09-02T11:52:54Z</time>
      </trkpt>
      <trkpt lat="44.24281" lon="6.2615">
        <ele>955.20001220703</ele>
        <time>2021-09-02T11:52:56Z</time>
      </trkpt>
      <trkpt lat="44.24253" lon="6.26148">
        <ele>954.59997558594</ele>
        <time>2021-09-02T11:53:00Z</time>
      </trkpt>
      <trkpt lat="44.24203" lon="6.26145">
        <ele>954.20001220703</ele>
        <time>2021-09-02T11:53:08Z</time>
      </trkpt>
      <trkpt lat="44.2417" lon="6.26146">
        <ele>954.40002441406</ele>
        <time>2021-09-02T11:53:14Z</time>
      </trkpt>
      <trkpt lat="44.2413" lon="6.26145">
        <ele>955.20001220703</ele>
        <time>2021-09-02T11:53:22Z</time>
      </trkpt>
      <trkpt lat="44.24121" lon="6.26144">
        <ele>955.20001220703</ele>
        <time>2021-09-02T11:53:24Z</time>
      </trkpt>
      <trkpt lat="44.24105" lon="6.26134">
        <ele>955.59997558594</ele>
        <time>2021-09-02T11:53:28Z</time>
      </trkpt>
      <trkpt lat="44.24101" lon="6.26131">
        <ele>955.79998779297</ele>
        <time>2021-09-02T11:53:29Z</time>
      </trkpt>
      <trkpt lat="44.24072" lon="6.26106">
        <ele>956</ele>
        <time>2021-09-02T11:53:36Z</time>
      </trkpt>
      <trkpt lat="44.24036" lon="6.26071">
        <ele>955.59997558594</ele>
        <time>2021-09-02T11:53:44Z</time>
      </trkpt>
      <trkpt lat="44.24002" lon="6.2604">
        <ele>954.40002441406</ele>
        <time>2021-09-02T11:53:50Z</time>
      </trkpt>
      <trkpt lat="44.23989" lon="6.26029">
        <ele>953.59997558594</ele>
        <time>2021-09-02T11:53:52Z</time>
      </trkpt>
      <trkpt lat="44.23968" lon="6.26011">
        <ele>952.40002441406</ele>
        <time>2021-09-02T11:53:55Z</time>
      </trkpt>
      <trkpt lat="44.23961" lon="6.26005">
        <ele>952</ele>
        <time>2021-09-02T11:53:56Z</time>
      </trkpt>
      <trkpt lat="44.23953" lon="6.26">
        <ele>951.59997558594</ele>
        <time>2021-09-02T11:53:57Z</time>
      </trkpt>
      <trkpt lat="44.23945" lon="6.25994">
        <ele>951.20001220703</ele>
        <time>2021-09-02T11:53:58Z</time>
      </trkpt>
      <trkpt lat="44.2392" lon="6.25977">
        <ele>950</ele>
        <time>2021-09-02T11:54:01Z</time>
      </trkpt>
      <trkpt lat="44.23902" lon="6.25965">
        <ele>949</ele>
        <time>2021-09-02T11:54:03Z</time>
      </trkpt>
      <trkpt lat="44.23874" lon="6.25948">
        <ele>947.59997558594</ele>
        <time>2021-09-02T11:54:06Z</time>
      </trkpt>
      <trkpt lat="44.23864" lon="6.25941">
        <ele>947.20001220703</ele>
        <time>2021-09-02T11:54:07Z</time>
      </trkpt>
      <trkpt lat="44.23844" lon="6.25929">
        <ele>946.20001220703</ele>
        <time>2021-09-02T11:54:09Z</time>
      </trkpt>
      <trkpt lat="44.23824" lon="6.25917">
        <ele>945.20001220703</ele>
        <time>2021-09-02T11:54:11Z</time>
      </trkpt>
      <trkpt lat="44.23795" lon="6.25897">
        <ele>943.79998779297</ele>
        <time>2021-09-02T11:54:14Z</time>
      </trkpt>
      <trkpt lat="44.23785" lon="6.2589">
        <ele>943.40002441406</ele>
        <time>2021-09-02T11:54:15Z</time>
      </trkpt>
      <trkpt lat="44.23776" lon="6.25883">
        <ele>942.40002441406</ele>
        <time>2021-09-02T11:54:16Z</time>
      </trkpt>
      <trkpt lat="44.23747" lon="6.2586">
        <ele>941</ele>
        <time>2021-09-02T11:54:19Z</time>
      </trkpt>
      <trkpt lat="44.2372" lon="6.25836">
        <ele>939.59997558594</ele>
        <time>2021-09-02T11:54:22Z</time>
      </trkpt>
      <trkpt lat="44.23693" lon="6.25812">
        <ele>938.40002441406</ele>
        <time>2021-09-02T11:54:25Z</time>
      </trkpt>
      <trkpt lat="44.23666" lon="6.25788">
        <ele>937.20001220703</ele>
        <time>2021-09-02T11:54:28Z</time>
      </trkpt>
      <trkpt lat="44.23657" lon="6.2578">
        <ele>936.79998779297</ele>
        <time>2021-09-02T11:54:29Z</time>
      </trkpt>
      <trkpt lat="44.23647" lon="6.25773">
        <ele>936.40002441406</ele>
        <time>2021-09-02T11:54:30Z</time>
      </trkpt>
      <trkpt lat="44.23637" lon="6.25768">
        <ele>936</ele>
        <time>2021-09-02T11:54:31Z</time>
      </trkpt>
      <trkpt lat="44.23627" lon="6.25764">
        <ele>935.59997558594</ele>
        <time>2021-09-02T11:54:32Z</time>
      </trkpt>
      <trkpt lat="44.23606" lon="6.25764">
        <ele>934.59997558594</ele>
        <time>2021-09-02T11:54:34Z</time>
      </trkpt>
      <trkpt lat="44.23596" lon="6.25764">
        <ele>934</ele>
        <time>2021-09-02T11:54:35Z</time>
      </trkpt>
      <trkpt lat="44.23586" lon="6.25762">
        <ele>933.59997558594</ele>
        <time>2021-09-02T11:54:36Z</time>
      </trkpt>
      <trkpt lat="44.23577" lon="6.25757">
        <ele>933</ele>
        <time>2021-09-02T11:54:37Z</time>
      </trkpt>
      <trkpt lat="44.23569" lon="6.25749">
        <ele>932.59997558594</ele>
        <time>2021-09-02T11:54:38Z</time>
      </trkpt>
      <trkpt lat="44.23562" lon="6.2574">
        <ele>932</ele>
        <time>2021-09-02T11:54:39Z</time>
      </trkpt>
      <trkpt lat="44.23548" lon="6.25722">
        <ele>930.59997558594</ele>
        <time>2021-09-02T11:54:41Z</time>
      </trkpt>
      <trkpt lat="44.23523" lon="6.25709">
        <ele>929.20001220703</ele>
        <time>2021-09-02T11:54:44Z</time>
      </trkpt>
      <trkpt lat="44.23516" lon="6.25706">
        <ele>928.59997558594</ele>
        <time>2021-09-02T11:54:45Z</time>
      </trkpt>
      <trkpt lat="44.23505" lon="6.257">
        <ele>927.79998779297</ele>
        <time>2021-09-02T11:54:47Z</time>
      </trkpt>
      <trkpt lat="44.23502" lon="6.25698">
        <ele>927.40002441406</ele>
        <time>2021-09-02T11:54:48Z</time>
      </trkpt>
      <trkpt lat="44.23498" lon="6.25696">
        <ele>926.59997558594</ele>
        <time>2021-09-02T11:54:50Z</time>
      </trkpt>
      <trkpt lat="44.23498" lon="6.25695">
        <ele>925.40002441406</ele>
        <time>2021-09-02T11:55:30Z</time>
      </trkpt>
      <trkpt lat="44.23495" lon="6.25692">
        <ele>925.40002441406</ele>
        <time>2021-09-02T11:55:34Z</time>
      </trkpt>
      <trkpt lat="44.23483" lon="6.25684">
        <ele>925</ele>
        <time>2021-09-02T11:55:39Z</time>
      </trkpt>
      <trkpt lat="44.23479" lon="6.25682">
        <ele>924.79998779297</ele>
        <time>2021-09-02T11:55:40Z</time>
      </trkpt>
      <trkpt lat="44.23461" lon="6.25669">
        <ele>924.40002441406</ele>
        <time>2021-09-02T11:55:44Z</time>
      </trkpt>
      <trkpt lat="44.23456" lon="6.25666">
        <ele>924.40002441406</ele>
        <time>2021-09-02T11:55:45Z</time>
      </trkpt>
      <trkpt lat="44.23451" lon="6.25662">
        <ele>924.20001220703</ele>
        <time>2021-09-02T11:55:46Z</time>
      </trkpt>
      <trkpt lat="44.23441" lon="6.25642">
        <ele>923.59997558594</ele>
        <time>2021-09-02T11:55:49Z</time>
      </trkpt>
      <trkpt lat="44.23435" lon="6.25627">
        <ele>923.20001220703</ele>
        <time>2021-09-02T11:55:51Z</time>
      </trkpt>
      <trkpt lat="44.2343" lon="6.25613">
        <ele>922.59997558594</ele>
        <time>2021-09-02T11:55:53Z</time>
      </trkpt>
      <trkpt lat="44.23423" lon="6.25601">
        <ele>922.20001220703</ele>
        <time>2021-09-02T11:55:55Z</time>
      </trkpt>
      <trkpt lat="44.23419" lon="6.25596">
        <ele>921.79998779297</ele>
        <time>2021-09-02T11:55:56Z</time>
      </trkpt>
      <trkpt lat="44.2341" lon="6.25592">
        <ele>921.20001220703</ele>
        <time>2021-09-02T11:55:58Z</time>
      </trkpt>
      <trkpt lat="44.23404" lon="6.25588">
        <ele>920.79998779297</ele>
        <time>2021-09-02T11:55:59Z</time>
      </trkpt>
      <trkpt lat="44.234" lon="6.25586">
        <ele>920.40002441406</ele>
        <time>2021-09-02T11:56:00Z</time>
      </trkpt>
      <trkpt lat="44.23393" lon="6.25584">
        <ele>919.79998779297</ele>
        <time>2021-09-02T11:56:02Z</time>
      </trkpt>
      <trkpt lat="44.23391" lon="6.25583">
        <ele>919.59997558594</ele>
        <time>2021-09-02T11:56:03Z</time>
      </trkpt>
      <trkpt lat="44.2339" lon="6.25582">
        <ele>919.40002441406</ele>
        <time>2021-09-02T11:56:04Z</time>
      </trkpt>
      <trkpt lat="44.23388" lon="6.25586">
        <ele>918.40002441406</ele>
        <time>2021-09-02T11:56:39Z</time>
      </trkpt>
      <trkpt lat="44.23392" lon="6.2559">
        <ele>918.20001220703</ele>
        <time>2021-09-02T11:56:41Z</time>
      </trkpt>
      <trkpt lat="44.23399" lon="6.25593">
        <ele>918</ele>
        <time>2021-09-02T11:56:46Z</time>
      </trkpt>
      <trkpt lat="44.23388" lon="6.25589">
        <ele>917.59997558594</ele>
        <time>2021-09-02T11:56:49Z</time>
      </trkpt>
      <trkpt lat="44.2338" lon="6.25581">
        <ele>917.59997558594</ele>
        <time>2021-09-02T11:56:50Z</time>
      </trkpt>
      <trkpt lat="44.2337" lon="6.25572">
        <ele>917.20001220703</ele>
        <time>2021-09-02T11:56:51Z</time>
      </trkpt>
      <trkpt lat="44.23362" lon="6.25565">
        <ele>917</ele>
        <time>2021-09-02T11:56:52Z</time>
      </trkpt>
      <trkpt lat="44.23345" lon="6.25554">
        <ele>916.59997558594</ele>
        <time>2021-09-02T11:56:54Z</time>
      </trkpt>
      <trkpt lat="44.2332" lon="6.2554">
        <ele>916.20001220703</ele>
        <time>2021-09-02T11:56:56Z</time>
      </trkpt>
      <trkpt lat="44.23286" lon="6.25537">
        <ele>915.20001220703</ele>
        <time>2021-09-02T11:57:00Z</time>
      </trkpt>
      <trkpt lat="44.23279" lon="6.25539">
        <ele>915</ele>
        <time>2021-09-02T11:57:01Z</time>
      </trkpt>
      <trkpt lat="44.23265" lon="6.25544">
        <ele>914.59997558594</ele>
        <time>2021-09-02T11:57:03Z</time>
      </trkpt>
      <trkpt lat="44.23254" lon="6.25556">
        <ele>914.20001220703</ele>
        <time>2021-09-02T11:57:05Z</time>
      </trkpt>
      <trkpt lat="44.23252" lon="6.25565">
        <ele>914.20001220703</ele>
        <time>2021-09-02T11:57:06Z</time>
      </trkpt>
      <trkpt lat="44.23248" lon="6.25586">
        <ele>913.79998779297</ele>
        <time>2021-09-02T11:57:08Z</time>
      </trkpt>
      <trkpt lat="44.23245" lon="6.25595">
        <ele>913.59997558594</ele>
        <time>2021-09-02T11:57:09Z</time>
      </trkpt>
      <trkpt lat="44.23234" lon="6.25611">
        <ele>913.20001220703</ele>
        <time>2021-09-02T11:57:11Z</time>
      </trkpt>
      <trkpt lat="44.23229" lon="6.25619">
        <ele>912.79998779297</ele>
        <time>2021-09-02T11:57:12Z</time>
      </trkpt>
      <trkpt lat="44.23202" lon="6.25661">
        <ele>911.79998779297</ele>
        <time>2021-09-02T11:57:17Z</time>
      </trkpt>
      <trkpt lat="44.23193" lon="6.25679">
        <ele>911.20001220703</ele>
        <time>2021-09-02T11:57:19Z</time>
      </trkpt>
      <trkpt lat="44.23188" lon="6.25699">
        <ele>910.79998779297</ele>
        <time>2021-09-02T11:57:21Z</time>
      </trkpt>
      <trkpt lat="44.23186" lon="6.25737">
        <ele>909.59997558594</ele>
        <time>2021-09-02T11:57:25Z</time>
      </trkpt>
      <trkpt lat="44.23186" lon="6.25748">
        <ele>909.20001220703</ele>
        <time>2021-09-02T11:57:26Z</time>
      </trkpt>
      <trkpt lat="44.23184" lon="6.25758">
        <ele>909</ele>
        <time>2021-09-02T11:57:27Z</time>
      </trkpt>
      <trkpt lat="44.23176" lon="6.25772">
        <ele>907.79998779297</ele>
        <time>2021-09-02T11:57:29Z</time>
      </trkpt>
      <trkpt lat="44.23158" lon="6.25772">
        <ele>906.79998779297</ele>
        <time>2021-09-02T11:57:31Z</time>
      </trkpt>
      <trkpt lat="44.2315" lon="6.25773">
        <ele>906.40002441406</ele>
        <time>2021-09-02T11:57:32Z</time>
      </trkpt>
      <trkpt lat="44.23142" lon="6.25775">
        <ele>906</ele>
        <time>2021-09-02T11:57:33Z</time>
      </trkpt>
      <trkpt lat="44.23127" lon="6.25783">
        <ele>905.59997558594</ele>
        <time>2021-09-02T11:57:35Z</time>
      </trkpt>
      <trkpt lat="44.23109" lon="6.25803">
        <ele>905.40002441406</ele>
        <time>2021-09-02T11:57:38Z</time>
      </trkpt>
      <trkpt lat="44.23103" lon="6.25813">
        <ele>905.40002441406</ele>
        <time>2021-09-02T11:57:39Z</time>
      </trkpt>
      <trkpt lat="44.23098" lon="6.25822">
        <ele>905.20001220703</ele>
        <time>2021-09-02T11:57:40Z</time>
      </trkpt>
      <trkpt lat="44.23086" lon="6.25843">
        <ele>904.79998779297</ele>
        <time>2021-09-02T11:57:42Z</time>
      </trkpt>
      <trkpt lat="44.2308" lon="6.25854">
        <ele>904.40002441406</ele>
        <time>2021-09-02T11:57:43Z</time>
      </trkpt>
      <trkpt lat="44.23077" lon="6.25866">
        <ele>904</ele>
        <time>2021-09-02T11:57:44Z</time>
      </trkpt>
      <trkpt lat="44.23075" lon="6.25879">
        <ele>903.59997558594</ele>
        <time>2021-09-02T11:57:45Z</time>
      </trkpt>
      <trkpt lat="44.23075" lon="6.25905">
        <ele>902.79998779297</ele>
        <time>2021-09-02T11:57:47Z</time>
      </trkpt>
      <trkpt lat="44.23076" lon="6.25918">
        <ele>902.40002441406</ele>
        <time>2021-09-02T11:57:48Z</time>
      </trkpt>
      <trkpt lat="44.23075" lon="6.25931">
        <ele>901.79998779297</ele>
        <time>2021-09-02T11:57:49Z</time>
      </trkpt>
      <trkpt lat="44.23073" lon="6.25943">
        <ele>901.59997558594</ele>
        <time>2021-09-02T11:57:50Z</time>
      </trkpt>
      <trkpt lat="44.23071" lon="6.25955">
        <ele>901.20001220703</ele>
        <time>2021-09-02T11:57:51Z</time>
      </trkpt>
      <trkpt lat="44.23064" lon="6.25988">
        <ele>900.40002441406</ele>
        <time>2021-09-02T11:57:54Z</time>
      </trkpt>
      <trkpt lat="44.23063" lon="6.25999">
        <ele>900.40002441406</ele>
        <time>2021-09-02T11:57:55Z</time>
      </trkpt>
      <trkpt lat="44.23061" lon="6.26021">
        <ele>900</ele>
        <time>2021-09-02T11:57:57Z</time>
      </trkpt>
      <trkpt lat="44.23057" lon="6.2604">
        <ele>899.20001220703</ele>
        <time>2021-09-02T11:57:59Z</time>
      </trkpt>
      <trkpt lat="44.23055" lon="6.2605">
        <ele>898.79998779297</ele>
        <time>2021-09-02T11:58:00Z</time>
      </trkpt>
      <trkpt lat="44.23051" lon="6.2607">
        <ele>898</ele>
        <time>2021-09-02T11:58:02Z</time>
      </trkpt>
      <trkpt lat="44.23044" lon="6.261">
        <ele>896.59997558594</ele>
        <time>2021-09-02T11:58:05Z</time>
      </trkpt>
      <trkpt lat="44.23034" lon="6.26129">
        <ele>895.40002441406</ele>
        <time>2021-09-02T11:58:08Z</time>
      </trkpt>
      <trkpt lat="44.23024" lon="6.26159">
        <ele>894.40002441406</ele>
        <time>2021-09-02T11:58:11Z</time>
      </trkpt>
      <trkpt lat="44.23013" lon="6.26187">
        <ele>893.20001220703</ele>
        <time>2021-09-02T11:58:14Z</time>
      </trkpt>
      <trkpt lat="44.2301" lon="6.26197">
        <ele>892.79998779297</ele>
        <time>2021-09-02T11:58:15Z</time>
      </trkpt>
      <trkpt lat="44.23001" lon="6.26215">
        <ele>891.79998779297</ele>
        <time>2021-09-02T11:58:17Z</time>
      </trkpt>
      <trkpt lat="44.22989" lon="6.26242">
        <ele>890.40002441406</ele>
        <time>2021-09-02T11:58:20Z</time>
      </trkpt>
      <trkpt lat="44.22986" lon="6.26251">
        <ele>890.20001220703</ele>
        <time>2021-09-02T11:58:21Z</time>
      </trkpt>
      <trkpt lat="44.22975" lon="6.26276">
        <ele>889.40002441406</ele>
        <time>2021-09-02T11:58:24Z</time>
      </trkpt>
      <trkpt lat="44.22961" lon="6.263">
        <ele>888.40002441406</ele>
        <time>2021-09-02T11:58:27Z</time>
      </trkpt>
      <trkpt lat="44.22955" lon="6.26307">
        <ele>888.20001220703</ele>
        <time>2021-09-02T11:58:28Z</time>
      </trkpt>
      <trkpt lat="44.2294" lon="6.26333">
        <ele>887</ele>
        <time>2021-09-02T11:58:31Z</time>
      </trkpt>
      <trkpt lat="44.22929" lon="6.2635">
        <ele>886</ele>
        <time>2021-09-02T11:58:33Z</time>
      </trkpt>
      <trkpt lat="44.22917" lon="6.26369">
        <ele>885</ele>
        <time>2021-09-02T11:58:35Z</time>
      </trkpt>
      <trkpt lat="44.22898" lon="6.26397">
        <ele>883.59997558594</ele>
        <time>2021-09-02T11:58:38Z</time>
      </trkpt>
      <trkpt lat="44.22884" lon="6.26414">
        <ele>882.79998779297</ele>
        <time>2021-09-02T11:58:40Z</time>
      </trkpt>
      <trkpt lat="44.22877" lon="6.26421">
        <ele>882</ele>
        <time>2021-09-02T11:58:41Z</time>
      </trkpt>
      <trkpt lat="44.22857" lon="6.26443">
        <ele>881</ele>
        <time>2021-09-02T11:58:44Z</time>
      </trkpt>
      <trkpt lat="44.22852" lon="6.26453">
        <ele>880.79998779297</ele>
        <time>2021-09-02T11:58:45Z</time>
      </trkpt>
      <trkpt lat="44.22846" lon="6.26473">
        <ele>880.40002441406</ele>
        <time>2021-09-02T11:58:47Z</time>
      </trkpt>
      <trkpt lat="44.22837" lon="6.26505">
        <ele>879.59997558594</ele>
        <time>2021-09-02T11:58:50Z</time>
      </trkpt>
      <trkpt lat="44.2283" lon="6.26526">
        <ele>879.40002441406</ele>
        <time>2021-09-02T11:58:52Z</time>
      </trkpt>
      <trkpt lat="44.22818" lon="6.26541">
        <ele>878.79998779297</ele>
        <time>2021-09-02T11:58:54Z</time>
      </trkpt>
      <trkpt lat="44.22812" lon="6.26549">
        <ele>878.40002441406</ele>
        <time>2021-09-02T11:58:55Z</time>
      </trkpt>
      <trkpt lat="44.22808" lon="6.26559">
        <ele>878.20001220703</ele>
        <time>2021-09-02T11:58:56Z</time>
      </trkpt>
      <trkpt lat="44.22805" lon="6.26581">
        <ele>877.79998779297</ele>
        <time>2021-09-02T11:58:58Z</time>
      </trkpt>
      <trkpt lat="44.22806" lon="6.26604">
        <ele>877.40002441406</ele>
        <time>2021-09-02T11:59:00Z</time>
      </trkpt>
      <trkpt lat="44.22804" lon="6.26616">
        <ele>877.20001220703</ele>
        <time>2021-09-02T11:59:01Z</time>
      </trkpt>
      <trkpt lat="44.22802" lon="6.26627">
        <ele>877</ele>
        <time>2021-09-02T11:59:02Z</time>
      </trkpt>
      <trkpt lat="44.22794" lon="6.26649">
        <ele>876.40002441406</ele>
        <time>2021-09-02T11:59:04Z</time>
      </trkpt>
      <trkpt lat="44.22788" lon="6.26658">
        <ele>875.79998779297</ele>
        <time>2021-09-02T11:59:05Z</time>
      </trkpt>
      <trkpt lat="44.22782" lon="6.26668">
        <ele>875.40002441406</ele>
        <time>2021-09-02T11:59:06Z</time>
      </trkpt>
      <trkpt lat="44.22763" lon="6.26694">
        <ele>874.20001220703</ele>
        <time>2021-09-02T11:59:09Z</time>
      </trkpt>
      <trkpt lat="44.22754" lon="6.267">
        <ele>873.59997558594</ele>
        <time>2021-09-02T11:59:10Z</time>
      </trkpt>
      <trkpt lat="44.22738" lon="6.26713">
        <ele>872.79998779297</ele>
        <time>2021-09-02T11:59:12Z</time>
      </trkpt>
      <trkpt lat="44.22724" lon="6.26731">
        <ele>872</ele>
        <time>2021-09-02T11:59:14Z</time>
      </trkpt>
      <trkpt lat="44.22718" lon="6.26741">
        <ele>871.59997558594</ele>
        <time>2021-09-02T11:59:15Z</time>
      </trkpt>
      <trkpt lat="44.22709" lon="6.26763">
        <ele>870.59997558594</ele>
        <time>2021-09-02T11:59:17Z</time>
      </trkpt>
      <trkpt lat="44.22704" lon="6.26773">
        <ele>870.20001220703</ele>
        <time>2021-09-02T11:59:18Z</time>
      </trkpt>
      <trkpt lat="44.22692" lon="6.2679">
        <ele>869.20001220703</ele>
        <time>2021-09-02T11:59:20Z</time>
      </trkpt>
      <trkpt lat="44.22685" lon="6.26796">
        <ele>868.79998779297</ele>
        <time>2021-09-02T11:59:21Z</time>
      </trkpt>
      <trkpt lat="44.22654" lon="6.26819">
        <ele>867.59997558594</ele>
        <time>2021-09-02T11:59:25Z</time>
      </trkpt>
      <trkpt lat="44.22639" lon="6.26829">
        <ele>867.20001220703</ele>
        <time>2021-09-02T11:59:27Z</time>
      </trkpt>
      <trkpt lat="44.22623" lon="6.26837">
        <ele>866.40002441406</ele>
        <time>2021-09-02T11:59:29Z</time>
      </trkpt>
      <trkpt lat="44.22615" lon="6.26838">
        <ele>866.20001220703</ele>
        <time>2021-09-02T11:59:30Z</time>
      </trkpt>
      <trkpt lat="44.22606" lon="6.26838">
        <ele>865.79998779297</ele>
        <time>2021-09-02T11:59:31Z</time>
      </trkpt>
      <trkpt lat="44.22581" lon="6.26832">
        <ele>865.20001220703</ele>
        <time>2021-09-02T11:59:34Z</time>
      </trkpt>
      <trkpt lat="44.22572" lon="6.2683">
        <ele>865</ele>
        <time>2021-09-02T11:59:35Z</time>
      </trkpt>
      <trkpt lat="44.22563" lon="6.26832">
        <ele>864.59997558594</ele>
        <time>2021-09-02T11:59:36Z</time>
      </trkpt>
      <trkpt lat="44.22547" lon="6.26847">
        <ele>864</ele>
        <time>2021-09-02T11:59:38Z</time>
      </trkpt>
      <trkpt lat="44.22531" lon="6.26865">
        <ele>862.79998779297</ele>
        <time>2021-09-02T11:59:40Z</time>
      </trkpt>
      <trkpt lat="44.22523" lon="6.26873">
        <ele>862.20001220703</ele>
        <time>2021-09-02T11:59:41Z</time>
      </trkpt>
      <trkpt lat="44.22514" lon="6.26882">
        <ele>861.59997558594</ele>
        <time>2021-09-02T11:59:42Z</time>
      </trkpt>
      <trkpt lat="44.22499" lon="6.26902">
        <ele>860.40002441406</ele>
        <time>2021-09-02T11:59:44Z</time>
      </trkpt>
      <trkpt lat="44.22485" lon="6.26924">
        <ele>859.20001220703</ele>
        <time>2021-09-02T11:59:46Z</time>
      </trkpt>
      <trkpt lat="44.22469" lon="6.26942">
        <ele>858</ele>
        <time>2021-09-02T11:59:48Z</time>
      </trkpt>
      <trkpt lat="44.22451" lon="6.26958">
        <ele>857</ele>
        <time>2021-09-02T11:59:50Z</time>
      </trkpt>
      <trkpt lat="44.22434" lon="6.26975">
        <ele>855.79998779297</ele>
        <time>2021-09-02T11:59:52Z</time>
      </trkpt>
      <trkpt lat="44.22427" lon="6.26984">
        <ele>854.59997558594</ele>
        <time>2021-09-02T11:59:53Z</time>
      </trkpt>
      <trkpt lat="44.22412" lon="6.27001">
        <ele>853.59997558594</ele>
        <time>2021-09-02T11:59:55Z</time>
      </trkpt>
      <trkpt lat="44.22405" lon="6.27009">
        <ele>853</ele>
        <time>2021-09-02T11:59:56Z</time>
      </trkpt>
      <trkpt lat="44.22391" lon="6.27024">
        <ele>852.40002441406</ele>
        <time>2021-09-02T11:59:58Z</time>
      </trkpt>
      <trkpt lat="44.22356" lon="6.27063">
        <ele>851.20001220703</ele>
        <time>2021-09-02T12:00:03Z</time>
      </trkpt>
      <trkpt lat="44.22318" lon="6.27107">
        <ele>850.20001220703</ele>
        <time>2021-09-02T12:00:09Z</time>
      </trkpt>
      <trkpt lat="44.22313" lon="6.27116">
        <ele>850</ele>
        <time>2021-09-02T12:00:10Z</time>
      </trkpt>
      <trkpt lat="44.22288" lon="6.27165">
        <ele>849.79998779297</ele>
        <time>2021-09-02T12:00:16Z</time>
      </trkpt>
      <trkpt lat="44.22256" lon="6.27219">
        <ele>849.79998779297</ele>
        <time>2021-09-02T12:00:24Z</time>
      </trkpt>
      <trkpt lat="44.22224" lon="6.27254">
        <ele>850.40002441406</ele>
        <time>2021-09-02T12:00:31Z</time>
      </trkpt>
      <trkpt lat="44.22181" lon="6.2728">
        <ele>850.59997558594</ele>
        <time>2021-09-02T12:00:39Z</time>
      </trkpt>
      <trkpt lat="44.22133" lon="6.27308">
        <ele>850.59997558594</ele>
        <time>2021-09-02T12:00:48Z</time>
      </trkpt>
      <trkpt lat="44.22104" lon="6.27324">
        <ele>850.79998779297</ele>
        <time>2021-09-02T12:00:53Z</time>
      </trkpt>
      <trkpt lat="44.22097" lon="6.27326">
        <ele>850.59997558594</ele>
        <time>2021-09-02T12:00:54Z</time>
      </trkpt>
      <trkpt lat="44.22052" lon="6.27332">
        <ele>849.40002441406</ele>
        <time>2021-09-02T12:01:00Z</time>
      </trkpt>
      <trkpt lat="44.22043" lon="6.27333">
        <ele>849</ele>
        <time>2021-09-02T12:01:01Z</time>
      </trkpt>
      <trkpt lat="44.22016" lon="6.27337">
        <ele>847.79998779297</ele>
        <time>2021-09-02T12:01:04Z</time>
      </trkpt>
      <trkpt lat="44.21998" lon="6.27343">
        <ele>846.40002441406</ele>
        <time>2021-09-02T12:01:06Z</time>
      </trkpt>
      <trkpt lat="44.21978" lon="6.27354">
        <ele>845.20001220703</ele>
        <time>2021-09-02T12:01:08Z</time>
      </trkpt>
      <trkpt lat="44.21957" lon="6.27364">
        <ele>844</ele>
        <time>2021-09-02T12:01:10Z</time>
      </trkpt>
      <trkpt lat="44.21938" lon="6.27374">
        <ele>842.59997558594</ele>
        <time>2021-09-02T12:01:12Z</time>
      </trkpt>
      <trkpt lat="44.21921" lon="6.27384">
        <ele>841.20001220703</ele>
        <time>2021-09-02T12:01:14Z</time>
      </trkpt>
      <trkpt lat="44.21904" lon="6.27392">
        <ele>839.79998779297</ele>
        <time>2021-09-02T12:01:16Z</time>
      </trkpt>
      <trkpt lat="44.21889" lon="6.27397">
        <ele>838.59997558594</ele>
        <time>2021-09-02T12:01:18Z</time>
      </trkpt>
      <trkpt lat="44.21882" lon="6.27401">
        <ele>837.79998779297</ele>
        <time>2021-09-02T12:01:19Z</time>
      </trkpt>
      <trkpt lat="44.21877" lon="6.27409">
        <ele>837.20001220703</ele>
        <time>2021-09-02T12:01:20Z</time>
      </trkpt>
      <trkpt lat="44.21873" lon="6.27419">
        <ele>836.79998779297</ele>
        <time>2021-09-02T12:01:21Z</time>
      </trkpt>
      <trkpt lat="44.21869" lon="6.27428">
        <ele>836.20001220703</ele>
        <time>2021-09-02T12:01:22Z</time>
      </trkpt>
      <trkpt lat="44.21855" lon="6.2745">
        <ele>834.79998779297</ele>
        <time>2021-09-02T12:01:25Z</time>
      </trkpt>
      <trkpt lat="44.2185" lon="6.27458">
        <ele>834.59997558594</ele>
        <time>2021-09-02T12:01:26Z</time>
      </trkpt>
      <trkpt lat="44.21834" lon="6.27477">
        <ele>833.79998779297</ele>
        <time>2021-09-02T12:01:29Z</time>
      </trkpt>
      <trkpt lat="44.21829" lon="6.27484">
        <ele>833.59997558594</ele>
        <time>2021-09-02T12:01:30Z</time>
      </trkpt>
      <trkpt lat="44.21818" lon="6.27495">
        <ele>833.20001220703</ele>
        <time>2021-09-02T12:01:32Z</time>
      </trkpt>
      <trkpt lat="44.21807" lon="6.27501">
        <ele>832.79998779297</ele>
        <time>2021-09-02T12:01:34Z</time>
      </trkpt>
      <trkpt lat="44.21801" lon="6.27503">
        <ele>832.59997558594</ele>
        <time>2021-09-02T12:01:35Z</time>
      </trkpt>
      <trkpt lat="44.21759" lon="6.27511">
        <ele>831.79998779297</ele>
        <time>2021-09-02T12:01:42Z</time>
      </trkpt>
      <trkpt lat="44.21746" lon="6.27526">
        <ele>831.59997558594</ele>
        <time>2021-09-02T12:01:44Z</time>
      </trkpt>
      <trkpt lat="44.21745" lon="6.27535">
        <ele>831.59997558594</ele>
        <time>2021-09-02T12:01:45Z</time>
      </trkpt>
      <trkpt lat="44.21742" lon="6.27555">
        <ele>831.20001220703</ele>
        <time>2021-09-02T12:01:47Z</time>
      </trkpt>
      <trkpt lat="44.21729" lon="6.27561">
        <ele>830.79998779297</ele>
        <time>2021-09-02T12:01:50Z</time>
      </trkpt>
      <trkpt lat="44.21724" lon="6.27562">
        <ele>830.40002441406</ele>
        <time>2021-09-02T12:01:51Z</time>
      </trkpt>
      <trkpt lat="44.2172" lon="6.27565">
        <ele>830.20001220703</ele>
        <time>2021-09-02T12:01:52Z</time>
      </trkpt>
      <trkpt lat="44.21706" lon="6.27576">
        <ele>829.59997558594</ele>
        <time>2021-09-02T12:01:55Z</time>
      </trkpt>
      <trkpt lat="44.21696" lon="6.27584">
        <ele>829.40002441406</ele>
        <time>2021-09-02T12:01:57Z</time>
      </trkpt>
      <trkpt lat="44.21685" lon="6.2759">
        <ele>829.20001220703</ele>
        <time>2021-09-02T12:01:59Z</time>
      </trkpt>
      <trkpt lat="44.21672" lon="6.27593">
        <ele>829</ele>
        <time>2021-09-02T12:02:01Z</time>
      </trkpt>
      <trkpt lat="44.21653" lon="6.27599">
        <ele>828.40002441406</ele>
        <time>2021-09-02T12:02:04Z</time>
      </trkpt>
      <trkpt lat="44.21647" lon="6.27604">
        <ele>828.20001220703</ele>
        <time>2021-09-02T12:02:05Z</time>
      </trkpt>
      <trkpt lat="44.21611" lon="6.2762">
        <ele>827.20001220703</ele>
        <time>2021-09-02T12:02:10Z</time>
      </trkpt>
      <trkpt lat="44.21603" lon="6.27621">
        <ele>826.79998779297</ele>
        <time>2021-09-02T12:02:11Z</time>
      </trkpt>
      <trkpt lat="44.21581" lon="6.27623">
        <ele>826</ele>
        <time>2021-09-02T12:02:14Z</time>
      </trkpt>
      <trkpt lat="44.21573" lon="6.2762">
        <ele>825.79998779297</ele>
        <time>2021-09-02T12:02:15Z</time>
      </trkpt>
      <trkpt lat="44.21566" lon="6.27618">
        <ele>825.40002441406</ele>
        <time>2021-09-02T12:02:16Z</time>
      </trkpt>
      <trkpt lat="44.21551" lon="6.27609">
        <ele>824.79998779297</ele>
        <time>2021-09-02T12:02:18Z</time>
      </trkpt>
      <trkpt lat="44.21544" lon="6.27605">
        <ele>824.59997558594</ele>
        <time>2021-09-02T12:02:19Z</time>
      </trkpt>
      <trkpt lat="44.2153" lon="6.27598">
        <ele>824</ele>
        <time>2021-09-02T12:02:21Z</time>
      </trkpt>
      <trkpt lat="44.21524" lon="6.27594">
        <ele>823.79998779297</ele>
        <time>2021-09-02T12:02:22Z</time>
      </trkpt>
      <trkpt lat="44.21493" lon="6.27573">
        <ele>823</ele>
        <time>2021-09-02T12:02:27Z</time>
      </trkpt>
      <trkpt lat="44.21487" lon="6.27569">
        <ele>823</ele>
        <time>2021-09-02T12:02:28Z</time>
      </trkpt>
      <trkpt lat="44.21468" lon="6.27569">
        <ele>823</ele>
        <time>2021-09-02T12:02:31Z</time>
      </trkpt>
      <trkpt lat="44.21443" lon="6.27585">
        <ele>823</ele>
        <time>2021-09-02T12:02:35Z</time>
      </trkpt>
      <trkpt lat="44.2143" lon="6.27605">
        <ele>823</ele>
        <time>2021-09-02T12:02:38Z</time>
      </trkpt>
      <trkpt lat="44.21425" lon="6.27611">
        <ele>822.79998779297</ele>
        <time>2021-09-02T12:02:39Z</time>
      </trkpt>
      <trkpt lat="44.21413" lon="6.27618">
        <ele>822.59997558594</ele>
        <time>2021-09-02T12:02:41Z</time>
      </trkpt>
      <trkpt lat="44.21407" lon="6.27619">
        <ele>822.59997558594</ele>
        <time>2021-09-02T12:02:42Z</time>
      </trkpt>
      <trkpt lat="44.21387" lon="6.27611">
        <ele>822.20001220703</ele>
        <time>2021-09-02T12:02:45Z</time>
      </trkpt>
      <trkpt lat="44.2138" lon="6.27609">
        <ele>822</ele>
        <time>2021-09-02T12:02:46Z</time>
      </trkpt>
      <trkpt lat="44.2135" lon="6.27601">
        <ele>821.40002441406</ele>
        <time>2021-09-02T12:02:50Z</time>
      </trkpt>
      <trkpt lat="44.21335" lon="6.27597">
        <ele>821</ele>
        <time>2021-09-02T12:02:52Z</time>
      </trkpt>
      <trkpt lat="44.21312" lon="6.27591">
        <ele>820.20001220703</ele>
        <time>2021-09-02T12:02:55Z</time>
      </trkpt>
      <trkpt lat="44.21304" lon="6.27587">
        <ele>820</ele>
        <time>2021-09-02T12:02:56Z</time>
      </trkpt>
      <trkpt lat="44.21291" lon="6.27577">
        <ele>819.40002441406</ele>
        <time>2021-09-02T12:02:58Z</time>
      </trkpt>
      <trkpt lat="44.21285" lon="6.27572">
        <ele>819.20001220703</ele>
        <time>2021-09-02T12:02:59Z</time>
      </trkpt>
      <trkpt lat="44.21254" lon="6.27549">
        <ele>818.40002441406</ele>
        <time>2021-09-02T12:03:04Z</time>
      </trkpt>
      <trkpt lat="44.21247" lon="6.27546">
        <ele>818.20001220703</ele>
        <time>2021-09-02T12:03:05Z</time>
      </trkpt>
      <trkpt lat="44.21209" lon="6.27519">
        <ele>817.20001220703</ele>
        <time>2021-09-02T12:03:11Z</time>
      </trkpt>
      <trkpt lat="44.21203" lon="6.27514">
        <ele>817</ele>
        <time>2021-09-02T12:03:12Z</time>
      </trkpt>
      <trkpt lat="44.21181" lon="6.27488">
        <ele>816.40002441406</ele>
        <time>2021-09-02T12:03:16Z</time>
      </trkpt>
      <trkpt lat="44.21162" lon="6.27457">
        <ele>816</ele>
        <time>2021-09-02T12:03:20Z</time>
      </trkpt>
      <trkpt lat="44.21159" lon="6.27448">
        <ele>816</ele>
        <time>2021-09-02T12:03:21Z</time>
      </trkpt>
      <trkpt lat="44.21138" lon="6.27396">
        <ele>815.79998779297</ele>
        <time>2021-09-02T12:03:27Z</time>
      </trkpt>
      <trkpt lat="44.21134" lon="6.27389">
        <ele>815.59997558594</ele>
        <time>2021-09-02T12:03:28Z</time>
      </trkpt>
      <trkpt lat="44.21114" lon="6.27362">
        <ele>815.20001220703</ele>
        <time>2021-09-02T12:03:32Z</time>
      </trkpt>
      <trkpt lat="44.2111" lon="6.27353">
        <ele>815</ele>
        <time>2021-09-02T12:03:33Z</time>
      </trkpt>
      <trkpt lat="44.21105" lon="6.27345">
        <ele>815</ele>
        <time>2021-09-02T12:03:34Z</time>
      </trkpt>
      <trkpt lat="44.21095" lon="6.27332">
        <ele>814.59997558594</ele>
        <time>2021-09-02T12:03:36Z</time>
      </trkpt>
      <trkpt lat="44.21089" lon="6.27326">
        <ele>814.40002441406</ele>
        <time>2021-09-02T12:03:37Z</time>
      </trkpt>
      <trkpt lat="44.21076" lon="6.27317">
        <ele>813.79998779297</ele>
        <time>2021-09-02T12:03:39Z</time>
      </trkpt>
      <trkpt lat="44.21071" lon="6.2731">
        <ele>813.59997558594</ele>
        <time>2021-09-02T12:03:40Z</time>
      </trkpt>
      <trkpt lat="44.21065" lon="6.27303">
        <ele>813.40002441406</ele>
        <time>2021-09-02T12:03:41Z</time>
      </trkpt>
      <trkpt lat="44.21052" lon="6.27294">
        <ele>812.79998779297</ele>
        <time>2021-09-02T12:03:43Z</time>
      </trkpt>
      <trkpt lat="44.21045" lon="6.27289">
        <ele>812.59997558594</ele>
        <time>2021-09-02T12:03:44Z</time>
      </trkpt>
      <trkpt lat="44.21038" lon="6.27285">
        <ele>812.20001220703</ele>
        <time>2021-09-02T12:03:45Z</time>
      </trkpt>
      <trkpt lat="44.21019" lon="6.27274">
        <ele>811.79998779297</ele>
        <time>2021-09-02T12:03:48Z</time>
      </trkpt>
      <trkpt lat="44.20993" lon="6.27256">
        <ele>811</ele>
        <time>2021-09-02T12:03:52Z</time>
      </trkpt>
      <trkpt lat="44.20986" lon="6.27253">
        <ele>810.59997558594</ele>
        <time>2021-09-02T12:03:53Z</time>
      </trkpt>
      <trkpt lat="44.20958" lon="6.27241">
        <ele>809.59997558594</ele>
        <time>2021-09-02T12:03:57Z</time>
      </trkpt>
      <trkpt lat="44.20951" lon="6.27239">
        <ele>809.59997558594</ele>
        <time>2021-09-02T12:03:58Z</time>
      </trkpt>
      <trkpt lat="44.20943" lon="6.2724">
        <ele>809.40002441406</ele>
        <time>2021-09-02T12:03:59Z</time>
      </trkpt>
      <trkpt lat="44.20928" lon="6.27243">
        <ele>809</ele>
        <time>2021-09-02T12:04:01Z</time>
      </trkpt>
      <trkpt lat="44.20912" lon="6.27246">
        <ele>808.40002441406</ele>
        <time>2021-09-02T12:04:03Z</time>
      </trkpt>
      <trkpt lat="44.20904" lon="6.2725">
        <ele>808.20001220703</ele>
        <time>2021-09-02T12:04:04Z</time>
      </trkpt>
      <trkpt lat="44.2089" lon="6.2726">
        <ele>807.79998779297</ele>
        <time>2021-09-02T12:04:06Z</time>
      </trkpt>
      <trkpt lat="44.20877" lon="6.27271">
        <ele>807.40002441406</ele>
        <time>2021-09-02T12:04:08Z</time>
      </trkpt>
      <trkpt lat="44.20851" lon="6.27294">
        <ele>806.79998779297</ele>
        <time>2021-09-02T12:04:12Z</time>
      </trkpt>
      <trkpt lat="44.20832" lon="6.27325">
        <ele>806.20001220703</ele>
        <time>2021-09-02T12:04:16Z</time>
      </trkpt>
      <trkpt lat="44.20813" lon="6.27358">
        <ele>805.20001220703</ele>
        <time>2021-09-02T12:04:20Z</time>
      </trkpt>
      <trkpt lat="44.20806" lon="6.27364">
        <ele>805</ele>
        <time>2021-09-02T12:04:21Z</time>
      </trkpt>
      <trkpt lat="44.20785" lon="6.27379">
        <ele>804.20001220703</ele>
        <time>2021-09-02T12:04:24Z</time>
      </trkpt>
      <trkpt lat="44.2077" lon="6.27388">
        <ele>803.79998779297</ele>
        <time>2021-09-02T12:04:26Z</time>
      </trkpt>
      <trkpt lat="44.20763" lon="6.2739">
        <ele>803.40002441406</ele>
        <time>2021-09-02T12:04:27Z</time>
      </trkpt>
      <trkpt lat="44.20747" lon="6.27391">
        <ele>803</ele>
        <time>2021-09-02T12:04:29Z</time>
      </trkpt>
      <trkpt lat="44.20739" lon="6.2739">
        <ele>802.79998779297</ele>
        <time>2021-09-02T12:04:30Z</time>
      </trkpt>
      <trkpt lat="44.20701" lon="6.27377">
        <ele>801.79998779297</ele>
        <time>2021-09-02T12:04:35Z</time>
      </trkpt>
      <trkpt lat="44.20667" lon="6.27357">
        <ele>800.79998779297</ele>
        <time>2021-09-02T12:04:40Z</time>
      </trkpt>
      <trkpt lat="44.2066" lon="6.27356">
        <ele>800.59997558594</ele>
        <time>2021-09-02T12:04:41Z</time>
      </trkpt>
      <trkpt lat="44.2064" lon="6.27363">
        <ele>800.40002441406</ele>
        <time>2021-09-02T12:04:44Z</time>
      </trkpt>
      <trkpt lat="44.20621" lon="6.27387">
        <ele>800.59997558594</ele>
        <time>2021-09-02T12:04:48Z</time>
      </trkpt>
      <trkpt lat="44.20604" lon="6.27412">
        <ele>800.40002441406</ele>
        <time>2021-09-02T12:04:52Z</time>
      </trkpt>
      <trkpt lat="44.20593" lon="6.2742">
        <ele>800.40002441406</ele>
        <time>2021-09-02T12:04:54Z</time>
      </trkpt>
      <trkpt lat="44.20568" lon="6.27444">
        <ele>800</ele>
        <time>2021-09-02T12:04:59Z</time>
      </trkpt>
      <trkpt lat="44.20559" lon="6.27454">
        <ele>800</ele>
        <time>2021-09-02T12:05:01Z</time>
      </trkpt>
      <trkpt lat="44.20536" lon="6.27482">
        <ele>799.59997558594</ele>
        <time>2021-09-02T12:05:06Z</time>
      </trkpt>
      <trkpt lat="44.20531" lon="6.27486">
        <ele>799.59997558594</ele>
        <time>2021-09-02T12:05:07Z</time>
      </trkpt>
      <trkpt lat="44.20518" lon="6.27488">
        <ele>799.59997558594</ele>
        <time>2021-09-02T12:05:09Z</time>
      </trkpt>
      <trkpt lat="44.20512" lon="6.27487">
        <ele>799.40002441406</ele>
        <time>2021-09-02T12:05:10Z</time>
      </trkpt>
      <trkpt lat="44.205" lon="6.27485">
        <ele>799.20001220703</ele>
        <time>2021-09-02T12:05:12Z</time>
      </trkpt>
      <trkpt lat="44.20493" lon="6.27486">
        <ele>799.20001220703</ele>
        <time>2021-09-02T12:05:13Z</time>
      </trkpt>
      <trkpt lat="44.20486" lon="6.27488">
        <ele>799.20001220703</ele>
        <time>2021-09-02T12:05:14Z</time>
      </trkpt>
      <trkpt lat="44.20449" lon="6.27491">
        <ele>798.59997558594</ele>
        <time>2021-09-02T12:05:19Z</time>
      </trkpt>
      <trkpt lat="44.20441" lon="6.27494">
        <ele>798.20001220703</ele>
        <time>2021-09-02T12:05:20Z</time>
      </trkpt>
      <trkpt lat="44.20426" lon="6.27502">
        <ele>797.59997558594</ele>
        <time>2021-09-02T12:05:22Z</time>
      </trkpt>
      <trkpt lat="44.20417" lon="6.27504">
        <ele>797.20001220703</ele>
        <time>2021-09-02T12:05:23Z</time>
      </trkpt>
      <trkpt lat="44.20391" lon="6.27507">
        <ele>796.20001220703</ele>
        <time>2021-09-02T12:05:26Z</time>
      </trkpt>
      <trkpt lat="44.20364" lon="6.27501">
        <ele>794.59997558594</ele>
        <time>2021-09-02T12:05:29Z</time>
      </trkpt>
      <trkpt lat="44.20356" lon="6.27498">
        <ele>794.20001220703</ele>
        <time>2021-09-02T12:05:30Z</time>
      </trkpt>
      <trkpt lat="44.20341" lon="6.27482">
        <ele>793.20001220703</ele>
        <time>2021-09-02T12:05:32Z</time>
      </trkpt>
      <trkpt lat="44.20334" lon="6.27472">
        <ele>792.79998779297</ele>
        <time>2021-09-02T12:05:33Z</time>
      </trkpt>
      <trkpt lat="44.20318" lon="6.2746">
        <ele>792</ele>
        <time>2021-09-02T12:05:35Z</time>
      </trkpt>
      <trkpt lat="44.20308" lon="6.2746">
        <ele>791.59997558594</ele>
        <time>2021-09-02T12:05:36Z</time>
      </trkpt>
      <trkpt lat="44.20291" lon="6.27465">
        <ele>790.79998779297</ele>
        <time>2021-09-02T12:05:38Z</time>
      </trkpt>
      <trkpt lat="44.20282" lon="6.27467">
        <ele>790.40002441406</ele>
        <time>2021-09-02T12:05:39Z</time>
      </trkpt>
      <trkpt lat="44.20257" lon="6.27478">
        <ele>789.59997558594</ele>
        <time>2021-09-02T12:05:42Z</time>
      </trkpt>
      <trkpt lat="44.2024" lon="6.27486">
        <ele>788.79998779297</ele>
        <time>2021-09-02T12:05:44Z</time>
      </trkpt>
      <trkpt lat="44.20224" lon="6.27494">
        <ele>788.20001220703</ele>
        <time>2021-09-02T12:05:46Z</time>
      </trkpt>
      <trkpt lat="44.2021" lon="6.27505">
        <ele>787.79998779297</ele>
        <time>2021-09-02T12:05:48Z</time>
      </trkpt>
      <trkpt lat="44.20204" lon="6.27511">
        <ele>787.59997558594</ele>
        <time>2021-09-02T12:05:49Z</time>
      </trkpt>
      <trkpt lat="44.20185" lon="6.27531">
        <ele>787.20001220703</ele>
        <time>2021-09-02T12:05:52Z</time>
      </trkpt>
      <trkpt lat="44.20174" lon="6.27547">
        <ele>786.59997558594</ele>
        <time>2021-09-02T12:05:54Z</time>
      </trkpt>
      <trkpt lat="44.2017" lon="6.27556">
        <ele>786.59997558594</ele>
        <time>2021-09-02T12:05:55Z</time>
      </trkpt>
      <trkpt lat="44.20153" lon="6.27582">
        <ele>786</ele>
        <time>2021-09-02T12:05:58Z</time>
      </trkpt>
      <trkpt lat="44.20146" lon="6.27589">
        <ele>785.79998779297</ele>
        <time>2021-09-02T12:05:59Z</time>
      </trkpt>
      <trkpt lat="44.20137" lon="6.27593">
        <ele>785.59997558594</ele>
        <time>2021-09-02T12:06:00Z</time>
      </trkpt>
      <trkpt lat="44.20112" lon="6.27601">
        <ele>784.79998779297</ele>
        <time>2021-09-02T12:06:03Z</time>
      </trkpt>
      <trkpt lat="44.20103" lon="6.27604">
        <ele>784.59997558594</ele>
        <time>2021-09-02T12:06:04Z</time>
      </trkpt>
      <trkpt lat="44.20096" lon="6.2761">
        <ele>784.20001220703</ele>
        <time>2021-09-02T12:06:05Z</time>
      </trkpt>
      <trkpt lat="44.20082" lon="6.27622">
        <ele>783.59997558594</ele>
        <time>2021-09-02T12:06:07Z</time>
      </trkpt>
      <trkpt lat="44.20061" lon="6.27641">
        <ele>782.59997558594</ele>
        <time>2021-09-02T12:06:10Z</time>
      </trkpt>
      <trkpt lat="44.20053" lon="6.27644">
        <ele>782.40002441406</ele>
        <time>2021-09-02T12:06:11Z</time>
      </trkpt>
      <trkpt lat="44.20044" lon="6.27646">
        <ele>782</ele>
        <time>2021-09-02T12:06:12Z</time>
      </trkpt>
      <trkpt lat="44.20019" lon="6.27644">
        <ele>781.20001220703</ele>
        <time>2021-09-02T12:06:15Z</time>
      </trkpt>
      <trkpt lat="44.19995" lon="6.27655">
        <ele>780</ele>
        <time>2021-09-02T12:06:18Z</time>
      </trkpt>
      <trkpt lat="44.1998" lon="6.27667">
        <ele>779.59997558594</ele>
        <time>2021-09-02T12:06:20Z</time>
      </trkpt>
      <trkpt lat="44.19965" lon="6.2768">
        <ele>779.20001220703</ele>
        <time>2021-09-02T12:06:22Z</time>
      </trkpt>
      <trkpt lat="44.19958" lon="6.27687">
        <ele>778.79998779297</ele>
        <time>2021-09-02T12:06:23Z</time>
      </trkpt>
      <trkpt lat="44.19942" lon="6.27695">
        <ele>778.40002441406</ele>
        <time>2021-09-02T12:06:25Z</time>
      </trkpt>
      <trkpt lat="44.19934" lon="6.27694">
        <ele>778.20001220703</ele>
        <time>2021-09-02T12:06:26Z</time>
      </trkpt>
      <trkpt lat="44.19919" lon="6.27688">
        <ele>777.79998779297</ele>
        <time>2021-09-02T12:06:28Z</time>
      </trkpt>
      <trkpt lat="44.19911" lon="6.27683">
        <ele>777.59997558594</ele>
        <time>2021-09-02T12:06:29Z</time>
      </trkpt>
      <trkpt lat="44.19904" lon="6.27679">
        <ele>777.40002441406</ele>
        <time>2021-09-02T12:06:30Z</time>
      </trkpt>
      <trkpt lat="44.19896" lon="6.27678">
        <ele>777.40002441406</ele>
        <time>2021-09-02T12:06:31Z</time>
      </trkpt>
      <trkpt lat="44.19881" lon="6.27683">
        <ele>777.20001220703</ele>
        <time>2021-09-02T12:06:33Z</time>
      </trkpt>
      <trkpt lat="44.19858" lon="6.27691">
        <ele>776.79998779297</ele>
        <time>2021-09-02T12:06:36Z</time>
      </trkpt>
      <trkpt lat="44.19834" lon="6.27695">
        <ele>776</ele>
        <time>2021-09-02T12:06:39Z</time>
      </trkpt>
      <trkpt lat="44.19827" lon="6.27696">
        <ele>775.79998779297</ele>
        <time>2021-09-02T12:06:40Z</time>
      </trkpt>
      <trkpt lat="44.19819" lon="6.27698">
        <ele>775.59997558594</ele>
        <time>2021-09-02T12:06:41Z</time>
      </trkpt>
      <trkpt lat="44.19811" lon="6.27697">
        <ele>775.59997558594</ele>
        <time>2021-09-02T12:06:42Z</time>
      </trkpt>
      <trkpt lat="44.19789" lon="6.27697">
        <ele>775.40002441406</ele>
        <time>2021-09-02T12:06:45Z</time>
      </trkpt>
      <trkpt lat="44.1977" lon="6.27694">
        <ele>775.40002441406</ele>
        <time>2021-09-02T12:06:48Z</time>
      </trkpt>
      <trkpt lat="44.19765" lon="6.2769">
        <ele>775.40002441406</ele>
        <time>2021-09-02T12:06:49Z</time>
      </trkpt>
      <trkpt lat="44.19734" lon="6.27676">
        <ele>776</ele>
        <time>2021-09-02T12:06:55Z</time>
      </trkpt>
      <trkpt lat="44.19717" lon="6.27669">
        <ele>776.79998779297</ele>
        <time>2021-09-02T12:06:59Z</time>
      </trkpt>
      <trkpt lat="44.19709" lon="6.27666">
        <ele>777</ele>
        <time>2021-09-02T12:07:01Z</time>
      </trkpt>
      <trkpt lat="44.19686" lon="6.27661">
        <ele>777.79998779297</ele>
        <time>2021-09-02T12:07:06Z</time>
      </trkpt>
      <trkpt lat="44.19676" lon="6.27658">
        <ele>778</ele>
        <time>2021-09-02T12:07:08Z</time>
      </trkpt>
      <trkpt lat="44.19638" lon="6.27649">
        <ele>778.40002441406</ele>
        <time>2021-09-02T12:07:16Z</time>
      </trkpt>
      <trkpt lat="44.19628" lon="6.27646">
        <ele>778.20001220703</ele>
        <time>2021-09-02T12:07:18Z</time>
      </trkpt>
      <trkpt lat="44.19612" lon="6.27641">
        <ele>778</ele>
        <time>2021-09-02T12:07:21Z</time>
      </trkpt>
      <trkpt lat="44.19606" lon="6.27641">
        <ele>778</ele>
        <time>2021-09-02T12:07:22Z</time>
      </trkpt>
      <trkpt lat="44.19582" lon="6.27653">
        <ele>777.20001220703</ele>
        <time>2021-09-02T12:07:26Z</time>
      </trkpt>
      <trkpt lat="44.19564" lon="6.27663">
        <ele>776.59997558594</ele>
        <time>2021-09-02T12:07:29Z</time>
      </trkpt>
      <trkpt lat="44.19539" lon="6.2768">
        <ele>776</ele>
        <time>2021-09-02T12:07:33Z</time>
      </trkpt>
      <trkpt lat="44.1952" lon="6.2769">
        <ele>775.40002441406</ele>
        <time>2021-09-02T12:07:36Z</time>
      </trkpt>
      <trkpt lat="44.195" lon="6.27696">
        <ele>774.79998779297</ele>
        <time>2021-09-02T12:07:39Z</time>
      </trkpt>
      <trkpt lat="44.19482" lon="6.27684">
        <ele>774.59997558594</ele>
        <time>2021-09-02T12:07:42Z</time>
      </trkpt>
      <trkpt lat="44.19477" lon="6.27676">
        <ele>774.40002441406</ele>
        <time>2021-09-02T12:07:43Z</time>
      </trkpt>
      <trkpt lat="44.1947" lon="6.27659">
        <ele>774</ele>
        <time>2021-09-02T12:07:45Z</time>
      </trkpt>
      <trkpt lat="44.19459" lon="6.27624">
        <ele>773.40002441406</ele>
        <time>2021-09-02T12:07:49Z</time>
      </trkpt>
      <trkpt lat="44.19457" lon="6.27615">
        <ele>773.40002441406</ele>
        <time>2021-09-02T12:07:50Z</time>
      </trkpt>
      <trkpt lat="44.19453" lon="6.27607">
        <ele>773.20001220703</ele>
        <time>2021-09-02T12:07:51Z</time>
      </trkpt>
      <trkpt lat="44.19442" lon="6.27595">
        <ele>773.20001220703</ele>
        <time>2021-09-02T12:07:53Z</time>
      </trkpt>
      <trkpt lat="44.19421" lon="6.2759">
        <ele>773.20001220703</ele>
        <time>2021-09-02T12:07:56Z</time>
      </trkpt>
      <trkpt lat="44.19414" lon="6.27589">
        <ele>773.20001220703</ele>
        <time>2021-09-02T12:07:57Z</time>
      </trkpt>
      <trkpt lat="44.19374" lon="6.27586">
        <ele>772</ele>
        <time>2021-09-02T12:08:02Z</time>
      </trkpt>
      <trkpt lat="44.19365" lon="6.27588">
        <ele>771.79998779297</ele>
        <time>2021-09-02T12:08:03Z</time>
      </trkpt>
      <trkpt lat="44.1934" lon="6.27596">
        <ele>770.79998779297</ele>
        <time>2021-09-02T12:08:06Z</time>
      </trkpt>
      <trkpt lat="44.19324" lon="6.27599">
        <ele>770</ele>
        <time>2021-09-02T12:08:08Z</time>
      </trkpt>
      <trkpt lat="44.19308" lon="6.276">
        <ele>769.59997558594</ele>
        <time>2021-09-02T12:08:10Z</time>
      </trkpt>
      <trkpt lat="44.19293" lon="6.27592">
        <ele>769</ele>
        <time>2021-09-02T12:08:12Z</time>
      </trkpt>
      <trkpt lat="44.19281" lon="6.27576">
        <ele>768.40002441406</ele>
        <time>2021-09-02T12:08:14Z</time>
      </trkpt>
      <trkpt lat="44.19275" lon="6.27568">
        <ele>768.20001220703</ele>
        <time>2021-09-02T12:08:15Z</time>
      </trkpt>
      <trkpt lat="44.1926" lon="6.2754">
        <ele>767.20001220703</ele>
        <time>2021-09-02T12:08:18Z</time>
      </trkpt>
      <trkpt lat="44.19251" lon="6.27522">
        <ele>766.79998779297</ele>
        <time>2021-09-02T12:08:20Z</time>
      </trkpt>
      <trkpt lat="44.19235" lon="6.27484">
        <ele>766</ele>
        <time>2021-09-02T12:08:24Z</time>
      </trkpt>
      <trkpt lat="44.19229" lon="6.27465">
        <ele>765.79998779297</ele>
        <time>2021-09-02T12:08:26Z</time>
      </trkpt>
      <trkpt lat="44.19205" lon="6.27404">
        <ele>765.59997558594</ele>
        <time>2021-09-02T12:08:33Z</time>
      </trkpt>
      <trkpt lat="44.19188" lon="6.27356">
        <ele>765.59997558594</ele>
        <time>2021-09-02T12:08:39Z</time>
      </trkpt>
      <trkpt lat="44.19178" lon="6.273">
        <ele>765.40002441406</ele>
        <time>2021-09-02T12:08:46Z</time>
      </trkpt>
      <trkpt lat="44.1917" lon="6.27251">
        <ele>765.20001220703</ele>
        <time>2021-09-02T12:08:52Z</time>
      </trkpt>
      <trkpt lat="44.19169" lon="6.27242">
        <ele>765.20001220703</ele>
        <time>2021-09-02T12:08:53Z</time>
      </trkpt>
      <trkpt lat="44.19164" lon="6.27226">
        <ele>765.20001220703</ele>
        <time>2021-09-02T12:08:55Z</time>
      </trkpt>
      <trkpt lat="44.1916" lon="6.27209">
        <ele>765</ele>
        <time>2021-09-02T12:08:57Z</time>
      </trkpt>
      <trkpt lat="44.19155" lon="6.27192">
        <ele>765</ele>
        <time>2021-09-02T12:08:59Z</time>
      </trkpt>
      <trkpt lat="44.19136" lon="6.27125">
        <ele>764.20001220703</ele>
        <time>2021-09-02T12:09:07Z</time>
      </trkpt>
      <trkpt lat="44.19124" lon="6.27096">
        <ele>764</ele>
        <time>2021-09-02T12:09:11Z</time>
      </trkpt>
      <trkpt lat="44.1912" lon="6.2709">
        <ele>764</ele>
        <time>2021-09-02T12:09:12Z</time>
      </trkpt>
      <trkpt lat="44.19093" lon="6.27054">
        <ele>763.59997558594</ele>
        <time>2021-09-02T12:09:18Z</time>
      </trkpt>
      <trkpt lat="44.19063" lon="6.27012">
        <ele>763</ele>
        <time>2021-09-02T12:09:25Z</time>
      </trkpt>
      <trkpt lat="44.19058" lon="6.27006">
        <ele>763</ele>
        <time>2021-09-02T12:09:26Z</time>
      </trkpt>
      <trkpt lat="44.19053" lon="6.27001">
        <ele>763</ele>
        <time>2021-09-02T12:09:27Z</time>
      </trkpt>
      <trkpt lat="44.19043" lon="6.26992">
        <ele>762.59997558594</ele>
        <time>2021-09-02T12:09:29Z</time>
      </trkpt>
      <trkpt lat="44.19026" lon="6.2698">
        <ele>762.20001220703</ele>
        <time>2021-09-02T12:09:32Z</time>
      </trkpt>
      <trkpt lat="44.19008" lon="6.26971">
        <ele>762</ele>
        <time>2021-09-02T12:09:35Z</time>
      </trkpt>
      <trkpt lat="44.18996" lon="6.26968">
        <ele>761.79998779297</ele>
        <time>2021-09-02T12:09:37Z</time>
      </trkpt>
      <trkpt lat="44.18988" lon="6.26966">
        <ele>761.79998779297</ele>
        <time>2021-09-02T12:09:38Z</time>
      </trkpt>
      <trkpt lat="44.18949" lon="6.26959">
        <ele>760.79998779297</ele>
        <time>2021-09-02T12:09:44Z</time>
      </trkpt>
      <trkpt lat="44.18943" lon="6.2696">
        <ele>760.59997558594</ele>
        <time>2021-09-02T12:09:45Z</time>
      </trkpt>
      <trkpt lat="44.18931" lon="6.26963">
        <ele>760.59997558594</ele>
        <time>2021-09-02T12:09:47Z</time>
      </trkpt>
      <trkpt lat="44.18913" lon="6.26972">
        <ele>760.40002441406</ele>
        <time>2021-09-02T12:09:50Z</time>
      </trkpt>
      <trkpt lat="44.18897" lon="6.26984">
        <ele>760.20001220703</ele>
        <time>2021-09-02T12:09:53Z</time>
      </trkpt>
      <trkpt lat="44.18882" lon="6.26996">
        <ele>760</ele>
        <time>2021-09-02T12:09:56Z</time>
      </trkpt>
      <trkpt lat="44.18878" lon="6.27">
        <ele>759.79998779297</ele>
        <time>2021-09-02T12:09:57Z</time>
      </trkpt>
      <trkpt lat="44.18868" lon="6.27006">
        <ele>759.59997558594</ele>
        <time>2021-09-02T12:09:59Z</time>
      </trkpt>
      <trkpt lat="44.18856" lon="6.27007">
        <ele>759.59997558594</ele>
        <time>2021-09-02T12:10:01Z</time>
      </trkpt>
      <trkpt lat="44.18844" lon="6.2699">
        <ele>759.40002441406</ele>
        <time>2021-09-02T12:10:04Z</time>
      </trkpt>
      <trkpt lat="44.18836" lon="6.26964">
        <ele>759.20001220703</ele>
        <time>2021-09-02T12:10:07Z</time>
      </trkpt>
      <trkpt lat="44.1883" lon="6.26948">
        <ele>759</ele>
        <time>2021-09-02T12:10:09Z</time>
      </trkpt>
      <trkpt lat="44.18822" lon="6.26913">
        <ele>758.79998779297</ele>
        <time>2021-09-02T12:10:13Z</time>
      </trkpt>
      <trkpt lat="44.18823" lon="6.26894">
        <ele>758.79998779297</ele>
        <time>2021-09-02T12:10:15Z</time>
      </trkpt>
      <trkpt lat="44.18831" lon="6.26865">
        <ele>758.40002441406</ele>
        <time>2021-09-02T12:10:18Z</time>
      </trkpt>
      <trkpt lat="44.18834" lon="6.26856">
        <ele>758.40002441406</ele>
        <time>2021-09-02T12:10:19Z</time>
      </trkpt>
      <trkpt lat="44.18841" lon="6.26829">
        <ele>758</ele>
        <time>2021-09-02T12:10:22Z</time>
      </trkpt>
      <trkpt lat="44.18841" lon="6.26811">
        <ele>757.79998779297</ele>
        <time>2021-09-02T12:10:24Z</time>
      </trkpt>
      <trkpt lat="44.18841" lon="6.26803">
        <ele>757.79998779297</ele>
        <time>2021-09-02T12:10:25Z</time>
      </trkpt>
      <trkpt lat="44.18838" lon="6.26786">
        <ele>757.79998779297</ele>
        <time>2021-09-02T12:10:27Z</time>
      </trkpt>
      <trkpt lat="44.18836" lon="6.26769">
        <ele>757.79998779297</ele>
        <time>2021-09-02T12:10:29Z</time>
      </trkpt>
      <trkpt lat="44.18826" lon="6.26711">
        <ele>757.59997558594</ele>
        <time>2021-09-02T12:10:35Z</time>
      </trkpt>
      <trkpt lat="44.18808" lon="6.26662">
        <ele>756.59997558594</ele>
        <time>2021-09-02T12:10:40Z</time>
      </trkpt>
      <trkpt lat="44.18803" lon="6.26653">
        <ele>756.40002441406</ele>
        <time>2021-09-02T12:10:41Z</time>
      </trkpt>
      <trkpt lat="44.18786" lon="6.26627">
        <ele>755.40002441406</ele>
        <time>2021-09-02T12:10:44Z</time>
      </trkpt>
      <trkpt lat="44.18773" lon="6.26613">
        <ele>755</ele>
        <time>2021-09-02T12:10:46Z</time>
      </trkpt>
      <trkpt lat="44.18759" lon="6.26601">
        <ele>754.59997558594</ele>
        <time>2021-09-02T12:10:48Z</time>
      </trkpt>
      <trkpt lat="44.18752" lon="6.26596">
        <ele>754.40002441406</ele>
        <time>2021-09-02T12:10:49Z</time>
      </trkpt>
      <trkpt lat="44.18739" lon="6.26587">
        <ele>753.79998779297</ele>
        <time>2021-09-02T12:10:51Z</time>
      </trkpt>
      <trkpt lat="44.1872" lon="6.26573">
        <ele>753.40002441406</ele>
        <time>2021-09-02T12:10:54Z</time>
      </trkpt>
      <trkpt lat="44.18709" lon="6.26562">
        <ele>753.20001220703</ele>
        <time>2021-09-02T12:10:56Z</time>
      </trkpt>
      <trkpt lat="44.18705" lon="6.26555">
        <ele>753.20001220703</ele>
        <time>2021-09-02T12:10:57Z</time>
      </trkpt>
      <trkpt lat="44.1868" lon="6.26512">
        <ele>753</ele>
        <time>2021-09-02T12:11:03Z</time>
      </trkpt>
      <trkpt lat="44.18654" lon="6.26485">
        <ele>753.20001220703</ele>
        <time>2021-09-02T12:11:08Z</time>
      </trkpt>
      <trkpt lat="44.18648" lon="6.26482">
        <ele>753.20001220703</ele>
        <time>2021-09-02T12:11:09Z</time>
      </trkpt>
      <trkpt lat="44.18619" lon="6.26466">
        <ele>752.59997558594</ele>
        <time>2021-09-02T12:11:13Z</time>
      </trkpt>
      <trkpt lat="44.18612" lon="6.26459">
        <ele>752.20001220703</ele>
        <time>2021-09-02T12:11:14Z</time>
      </trkpt>
      <trkpt lat="44.186" lon="6.26428">
        <ele>751.40002441406</ele>
        <time>2021-09-02T12:11:17Z</time>
      </trkpt>
      <trkpt lat="44.18598" lon="6.26417">
        <ele>751.20001220703</ele>
        <time>2021-09-02T12:11:18Z</time>
      </trkpt>
      <trkpt lat="44.18595" lon="6.26406">
        <ele>750.79998779297</ele>
        <time>2021-09-02T12:11:19Z</time>
      </trkpt>
      <trkpt lat="44.18586" lon="6.26375">
        <ele>750</ele>
        <time>2021-09-02T12:11:22Z</time>
      </trkpt>
      <trkpt lat="44.18582" lon="6.26366">
        <ele>749.79998779297</ele>
        <time>2021-09-02T12:11:23Z</time>
      </trkpt>
      <trkpt lat="44.18571" lon="6.2635">
        <ele>749</ele>
        <time>2021-09-02T12:11:25Z</time>
      </trkpt>
      <trkpt lat="44.18566" lon="6.26343">
        <ele>748.79998779297</ele>
        <time>2021-09-02T12:11:26Z</time>
      </trkpt>
      <trkpt lat="44.18533" lon="6.26314">
        <ele>747.79998779297</ele>
        <time>2021-09-02T12:11:31Z</time>
      </trkpt>
      <trkpt lat="44.18527" lon="6.26308">
        <ele>747.59997558594</ele>
        <time>2021-09-02T12:11:32Z</time>
      </trkpt>
      <trkpt lat="44.18479" lon="6.26266">
        <ele>746.59997558594</ele>
        <time>2021-09-02T12:11:39Z</time>
      </trkpt>
      <trkpt lat="44.18472" lon="6.26259">
        <ele>746.59997558594</ele>
        <time>2021-09-02T12:11:40Z</time>
      </trkpt>
      <trkpt lat="44.18425" lon="6.26217">
        <ele>745.79998779297</ele>
        <time>2021-09-02T12:11:47Z</time>
      </trkpt>
      <trkpt lat="44.18404" lon="6.26205">
        <ele>745.59997558594</ele>
        <time>2021-09-02T12:11:50Z</time>
      </trkpt>
      <trkpt lat="44.18389" lon="6.26207">
        <ele>745.59997558594</ele>
        <time>2021-09-02T12:11:52Z</time>
      </trkpt>
      <trkpt lat="44.18367" lon="6.26217">
        <ele>745.59997558594</ele>
        <time>2021-09-02T12:11:55Z</time>
      </trkpt>
      <trkpt lat="44.18359" lon="6.26218">
        <ele>745.59997558594</ele>
        <time>2021-09-02T12:11:56Z</time>
      </trkpt>
      <trkpt lat="44.18328" lon="6.26217">
        <ele>745.79998779297</ele>
        <time>2021-09-02T12:12:00Z</time>
      </trkpt>
      <trkpt lat="44.1832" lon="6.26213">
        <ele>745.59997558594</ele>
        <time>2021-09-02T12:12:01Z</time>
      </trkpt>
      <trkpt lat="44.18306" lon="6.26205">
        <ele>745.40002441406</ele>
        <time>2021-09-02T12:12:03Z</time>
      </trkpt>
      <trkpt lat="44.18279" lon="6.26184">
        <ele>744.79998779297</ele>
        <time>2021-09-02T12:12:07Z</time>
      </trkpt>
      <trkpt lat="44.18265" lon="6.26175">
        <ele>744.40002441406</ele>
        <time>2021-09-02T12:12:09Z</time>
      </trkpt>
      <trkpt lat="44.18258" lon="6.26172">
        <ele>744.20001220703</ele>
        <time>2021-09-02T12:12:10Z</time>
      </trkpt>
      <trkpt lat="44.18242" lon="6.26168">
        <ele>744.20001220703</ele>
        <time>2021-09-02T12:12:12Z</time>
      </trkpt>
      <trkpt lat="44.18203" lon="6.26155">
        <ele>743.20001220703</ele>
        <time>2021-09-02T12:12:17Z</time>
      </trkpt>
      <trkpt lat="44.18196" lon="6.2615">
        <ele>742.59997558594</ele>
        <time>2021-09-02T12:12:18Z</time>
      </trkpt>
      <trkpt lat="44.18189" lon="6.26146">
        <ele>742.40002441406</ele>
        <time>2021-09-02T12:12:19Z</time>
      </trkpt>
      <trkpt lat="44.18182" lon="6.26139">
        <ele>742</ele>
        <time>2021-09-02T12:12:20Z</time>
      </trkpt>
      <trkpt lat="44.18167" lon="6.26114">
        <ele>741.59997558594</ele>
        <time>2021-09-02T12:12:23Z</time>
      </trkpt>
      <trkpt lat="44.1816" lon="6.26095">
        <ele>741.40002441406</ele>
        <time>2021-09-02T12:12:25Z</time>
      </trkpt>
      <trkpt lat="44.18152" lon="6.26077">
        <ele>741</ele>
        <time>2021-09-02T12:12:27Z</time>
      </trkpt>
      <trkpt lat="44.18148" lon="6.26068">
        <ele>740.79998779297</ele>
        <time>2021-09-02T12:12:28Z</time>
      </trkpt>
      <trkpt lat="44.18118" lon="6.26">
        <ele>740</ele>
        <time>2021-09-02T12:12:36Z</time>
      </trkpt>
      <trkpt lat="44.18114" lon="6.25992">
        <ele>739.79998779297</ele>
        <time>2021-09-02T12:12:37Z</time>
      </trkpt>
      <trkpt lat="44.18096" lon="6.2595">
        <ele>739.40002441406</ele>
        <time>2021-09-02T12:12:42Z</time>
      </trkpt>
      <trkpt lat="44.18081" lon="6.25917">
        <ele>738.79998779297</ele>
        <time>2021-09-02T12:12:46Z</time>
      </trkpt>
      <trkpt lat="44.18061" lon="6.25888">
        <ele>738.40002441406</ele>
        <time>2021-09-02T12:12:50Z</time>
      </trkpt>
      <trkpt lat="44.18037" lon="6.2587">
        <ele>738</ele>
        <time>2021-09-02T12:12:54Z</time>
      </trkpt>
      <trkpt lat="44.18006" lon="6.25857">
        <ele>738.20001220703</ele>
        <time>2021-09-02T12:12:59Z</time>
      </trkpt>
      <trkpt lat="44.17983" lon="6.25846">
        <ele>738.20001220703</ele>
        <time>2021-09-02T12:13:03Z</time>
      </trkpt>
      <trkpt lat="44.17973" lon="6.25837">
        <ele>738.40002441406</ele>
        <time>2021-09-02T12:13:05Z</time>
      </trkpt>
      <trkpt lat="44.17958" lon="6.25822">
        <ele>738.20001220703</ele>
        <time>2021-09-02T12:13:08Z</time>
      </trkpt>
      <trkpt lat="44.17949" lon="6.2581">
        <ele>738.20001220703</ele>
        <time>2021-09-02T12:13:10Z</time>
      </trkpt>
      <trkpt lat="44.17939" lon="6.258">
        <ele>738.20001220703</ele>
        <time>2021-09-02T12:13:12Z</time>
      </trkpt>
      <trkpt lat="44.17917" lon="6.25783">
        <ele>738.20001220703</ele>
        <time>2021-09-02T12:13:16Z</time>
      </trkpt>
      <trkpt lat="44.17911" lon="6.2578">
        <ele>738</ele>
        <time>2021-09-02T12:13:17Z</time>
      </trkpt>
      <trkpt lat="44.179" lon="6.25779">
        <ele>737.79998779297</ele>
        <time>2021-09-02T12:13:19Z</time>
      </trkpt>
      <trkpt lat="44.17894" lon="6.25779">
        <ele>737.59997558594</ele>
        <time>2021-09-02T12:13:20Z</time>
      </trkpt>
      <trkpt lat="44.1786" lon="6.25781">
        <ele>737.20001220703</ele>
        <time>2021-09-02T12:13:25Z</time>
      </trkpt>
      <trkpt lat="44.17853" lon="6.25781">
        <ele>737</ele>
        <time>2021-09-02T12:13:26Z</time>
      </trkpt>
      <trkpt lat="44.17832" lon="6.25778">
        <ele>736.79998779297</ele>
        <time>2021-09-02T12:13:29Z</time>
      </trkpt>
      <trkpt lat="44.17818" lon="6.25774">
        <ele>736.59997558594</ele>
        <time>2021-09-02T12:13:31Z</time>
      </trkpt>
      <trkpt lat="44.17797" lon="6.25764">
        <ele>736.20001220703</ele>
        <time>2021-09-02T12:13:34Z</time>
      </trkpt>
      <trkpt lat="44.1779" lon="6.25761">
        <ele>736</ele>
        <time>2021-09-02T12:13:35Z</time>
      </trkpt>
      <trkpt lat="44.17761" lon="6.25748">
        <ele>735.59997558594</ele>
        <time>2021-09-02T12:13:39Z</time>
      </trkpt>
      <trkpt lat="44.17741" lon="6.25739">
        <ele>735</ele>
        <time>2021-09-02T12:13:42Z</time>
      </trkpt>
      <trkpt lat="44.17685" lon="6.25713">
        <ele>734.59997558594</ele>
        <time>2021-09-02T12:13:50Z</time>
      </trkpt>
      <trkpt lat="44.17678" lon="6.2571">
        <ele>734.59997558594</ele>
        <time>2021-09-02T12:13:51Z</time>
      </trkpt>
      <trkpt lat="44.17636" lon="6.25701">
        <ele>734.59997558594</ele>
        <time>2021-09-02T12:13:57Z</time>
      </trkpt>
      <trkpt lat="44.17585" lon="6.25703">
        <ele>734</ele>
        <time>2021-09-02T12:14:04Z</time>
      </trkpt>
      <trkpt lat="44.17571" lon="6.25696">
        <ele>733.79998779297</ele>
        <time>2021-09-02T12:14:06Z</time>
      </trkpt>
      <trkpt lat="44.17558" lon="6.25684">
        <ele>733.79998779297</ele>
        <time>2021-09-02T12:14:08Z</time>
      </trkpt>
      <trkpt lat="44.17549" lon="6.25666">
        <ele>733.40002441406</ele>
        <time>2021-09-02T12:14:10Z</time>
      </trkpt>
      <trkpt lat="44.17546" lon="6.25657">
        <ele>733.20001220703</ele>
        <time>2021-09-02T12:14:11Z</time>
      </trkpt>
      <trkpt lat="44.17543" lon="6.25647">
        <ele>733</ele>
        <time>2021-09-02T12:14:12Z</time>
      </trkpt>
      <trkpt lat="44.17535" lon="6.25606">
        <ele>732.40002441406</ele>
        <time>2021-09-02T12:14:16Z</time>
      </trkpt>
      <trkpt lat="44.17533" lon="6.25596">
        <ele>732.40002441406</ele>
        <time>2021-09-02T12:14:17Z</time>
      </trkpt>
      <trkpt lat="44.17524" lon="6.25553">
        <ele>731</ele>
        <time>2021-09-02T12:14:21Z</time>
      </trkpt>
      <trkpt lat="44.17515" lon="6.25512">
        <ele>730</ele>
        <time>2021-09-02T12:14:25Z</time>
      </trkpt>
      <trkpt lat="44.17512" lon="6.25503">
        <ele>729.79998779297</ele>
        <time>2021-09-02T12:14:26Z</time>
      </trkpt>
      <trkpt lat="44.17495" lon="6.25454">
        <ele>729.40002441406</ele>
        <time>2021-09-02T12:14:32Z</time>
      </trkpt>
      <trkpt lat="44.17463" lon="6.25403">
        <ele>729.79998779297</ele>
        <time>2021-09-02T12:14:39Z</time>
      </trkpt>
      <trkpt lat="44.17432" lon="6.2535">
        <ele>729</ele>
        <time>2021-09-02T12:14:45Z</time>
      </trkpt>
      <trkpt lat="44.17426" lon="6.25341">
        <ele>728.79998779297</ele>
        <time>2021-09-02T12:14:46Z</time>
      </trkpt>
      <trkpt lat="44.17397" lon="6.25292">
        <ele>727.59997558594</ele>
        <time>2021-09-02T12:14:51Z</time>
      </trkpt>
      <trkpt lat="44.17373" lon="6.25255">
        <ele>726.40002441406</ele>
        <time>2021-09-02T12:14:55Z</time>
      </trkpt>
      <trkpt lat="44.17366" lon="6.25247">
        <ele>726.20001220703</ele>
        <time>2021-09-02T12:14:56Z</time>
      </trkpt>
      <trkpt lat="44.17344" lon="6.25228">
        <ele>725.79998779297</ele>
        <time>2021-09-02T12:14:59Z</time>
      </trkpt>
      <trkpt lat="44.17336" lon="6.25224">
        <ele>725.79998779297</ele>
        <time>2021-09-02T12:15:00Z</time>
      </trkpt>
      <trkpt lat="44.17312" lon="6.25212">
        <ele>725.40002441406</ele>
        <time>2021-09-02T12:15:03Z</time>
      </trkpt>
      <trkpt lat="44.1728" lon="6.25195">
        <ele>724.59997558594</ele>
        <time>2021-09-02T12:15:07Z</time>
      </trkpt>
      <trkpt lat="44.1725" lon="6.25175">
        <ele>724.40002441406</ele>
        <time>2021-09-02T12:15:11Z</time>
      </trkpt>
      <trkpt lat="44.17243" lon="6.25169">
        <ele>724.40002441406</ele>
        <time>2021-09-02T12:15:12Z</time>
      </trkpt>
      <trkpt lat="44.17195" lon="6.25126">
        <ele>723.79998779297</ele>
        <time>2021-09-02T12:15:19Z</time>
      </trkpt>
      <trkpt lat="44.17188" lon="6.25121">
        <ele>723.79998779297</ele>
        <time>2021-09-02T12:15:20Z</time>
      </trkpt>
      <trkpt lat="44.17136" lon="6.25081">
        <ele>723.20001220703</ele>
        <time>2021-09-02T12:15:27Z</time>
      </trkpt>
      <trkpt lat="44.1709" lon="6.25048">
        <ele>722.59997558594</ele>
        <time>2021-09-02T12:15:34Z</time>
      </trkpt>
      <trkpt lat="44.17059" lon="6.25028">
        <ele>722.79998779297</ele>
        <time>2021-09-02T12:15:39Z</time>
      </trkpt>
      <trkpt lat="44.17046" lon="6.25024">
        <ele>722.79998779297</ele>
        <time>2021-09-02T12:15:41Z</time>
      </trkpt>
      <trkpt lat="44.17025" lon="6.25022">
        <ele>722.59997558594</ele>
        <time>2021-09-02T12:15:44Z</time>
      </trkpt>
      <trkpt lat="44.17011" lon="6.25023">
        <ele>722.40002441406</ele>
        <time>2021-09-02T12:15:46Z</time>
      </trkpt>
      <trkpt lat="44.17005" lon="6.25023">
        <ele>722.20001220703</ele>
        <time>2021-09-02T12:15:47Z</time>
      </trkpt>
      <trkpt lat="44.16965" lon="6.25022">
        <ele>721.59997558594</ele>
        <time>2021-09-02T12:15:53Z</time>
      </trkpt>
      <trkpt lat="44.16949" lon="6.25007">
        <ele>721.59997558594</ele>
        <time>2021-09-02T12:15:56Z</time>
      </trkpt>
      <trkpt lat="44.1694" lon="6.24982">
        <ele>721.59997558594</ele>
        <time>2021-09-02T12:15:59Z</time>
      </trkpt>
      <trkpt lat="44.16937" lon="6.24973">
        <ele>721.59997558594</ele>
        <time>2021-09-02T12:16:00Z</time>
      </trkpt>
      <trkpt lat="44.16927" lon="6.24947">
        <ele>721.20001220703</ele>
        <time>2021-09-02T12:16:03Z</time>
      </trkpt>
      <trkpt lat="44.16918" lon="6.2493">
        <ele>720.79998779297</ele>
        <time>2021-09-02T12:16:05Z</time>
      </trkpt>
      <trkpt lat="44.16891" lon="6.24895">
        <ele>720.20001220703</ele>
        <time>2021-09-02T12:16:10Z</time>
      </trkpt>
      <trkpt lat="44.16868" lon="6.24866">
        <ele>719.40002441406</ele>
        <time>2021-09-02T12:16:14Z</time>
      </trkpt>
      <trkpt lat="44.1686" lon="6.24848">
        <ele>719.40002441406</ele>
        <time>2021-09-02T12:16:16Z</time>
      </trkpt>
      <trkpt lat="44.16853" lon="6.24829">
        <ele>718.79998779297</ele>
        <time>2021-09-02T12:16:18Z</time>
      </trkpt>
      <trkpt lat="44.16837" lon="6.24793">
        <ele>718.40002441406</ele>
        <time>2021-09-02T12:16:22Z</time>
      </trkpt>
      <trkpt lat="44.16833" lon="6.24785">
        <ele>718.20001220703</ele>
        <time>2021-09-02T12:16:23Z</time>
      </trkpt>
      <trkpt lat="44.1682" lon="6.24773">
        <ele>717.59997558594</ele>
        <time>2021-09-02T12:16:25Z</time>
      </trkpt>
      <trkpt lat="44.16807" lon="6.24765">
        <ele>717.20001220703</ele>
        <time>2021-09-02T12:16:27Z</time>
      </trkpt>
      <trkpt lat="44.16773" lon="6.24745">
        <ele>716.59997558594</ele>
        <time>2021-09-02T12:16:32Z</time>
      </trkpt>
      <trkpt lat="44.16766" lon="6.24742">
        <ele>716.40002441406</ele>
        <time>2021-09-02T12:16:33Z</time>
      </trkpt>
      <trkpt lat="44.16737" lon="6.24734">
        <ele>715.79998779297</ele>
        <time>2021-09-02T12:16:37Z</time>
      </trkpt>
      <trkpt lat="44.1673" lon="6.2473">
        <ele>715.79998779297</ele>
        <time>2021-09-02T12:16:38Z</time>
      </trkpt>
      <trkpt lat="44.16716" lon="6.24707">
        <ele>715.59997558594</ele>
        <time>2021-09-02T12:16:41Z</time>
      </trkpt>
      <trkpt lat="44.16713" lon="6.24697">
        <ele>715.59997558594</ele>
        <time>2021-09-02T12:16:42Z</time>
      </trkpt>
      <trkpt lat="44.1671" lon="6.24688">
        <ele>715.40002441406</ele>
        <time>2021-09-02T12:16:43Z</time>
      </trkpt>
      <trkpt lat="44.16704" lon="6.24659">
        <ele>715</ele>
        <time>2021-09-02T12:16:46Z</time>
      </trkpt>
      <trkpt lat="44.16689" lon="6.24586">
        <ele>714.79998779297</ele>
        <time>2021-09-02T12:16:54Z</time>
      </trkpt>
      <trkpt lat="44.1668" lon="6.24539">
        <ele>714.59997558594</ele>
        <time>2021-09-02T12:16:59Z</time>
      </trkpt>
      <trkpt lat="44.16675" lon="6.24522">
        <ele>714.40002441406</ele>
        <time>2021-09-02T12:17:01Z</time>
      </trkpt>
      <trkpt lat="44.16669" lon="6.24505">
        <ele>714.20001220703</ele>
        <time>2021-09-02T12:17:03Z</time>
      </trkpt>
      <trkpt lat="44.16661" lon="6.2449">
        <ele>714.20001220703</ele>
        <time>2021-09-02T12:17:05Z</time>
      </trkpt>
      <trkpt lat="44.16636" lon="6.24455">
        <ele>713.40002441406</ele>
        <time>2021-09-02T12:17:10Z</time>
      </trkpt>
      <trkpt lat="44.16625" lon="6.24442">
        <ele>713</ele>
        <time>2021-09-02T12:17:12Z</time>
      </trkpt>
      <trkpt lat="44.166" lon="6.24409">
        <ele>712.40002441406</ele>
        <time>2021-09-02T12:17:17Z</time>
      </trkpt>
      <trkpt lat="44.16589" lon="6.24395">
        <ele>712.20001220703</ele>
        <time>2021-09-02T12:17:19Z</time>
      </trkpt>
      <trkpt lat="44.16557" lon="6.24353">
        <ele>711.40002441406</ele>
        <time>2021-09-02T12:17:25Z</time>
      </trkpt>
      <trkpt lat="44.16547" lon="6.24338">
        <ele>711.20001220703</ele>
        <time>2021-09-02T12:17:27Z</time>
      </trkpt>
      <trkpt lat="44.16512" lon="6.24282">
        <ele>710.40002441406</ele>
        <time>2021-09-02T12:17:34Z</time>
      </trkpt>
      <trkpt lat="44.16482" lon="6.24217">
        <ele>709.59997558594</ele>
        <time>2021-09-02T12:17:41Z</time>
      </trkpt>
      <trkpt lat="44.16474" lon="6.24198">
        <ele>709.20001220703</ele>
        <time>2021-09-02T12:17:43Z</time>
      </trkpt>
      <trkpt lat="44.16445" lon="6.24134">
        <ele>708.59997558594</ele>
        <time>2021-09-02T12:17:50Z</time>
      </trkpt>
      <trkpt lat="44.16438" lon="6.24117">
        <ele>708.40002441406</ele>
        <time>2021-09-02T12:17:52Z</time>
      </trkpt>
      <trkpt lat="44.16426" lon="6.2409">
        <ele>708.20001220703</ele>
        <time>2021-09-02T12:17:55Z</time>
      </trkpt>
      <trkpt lat="44.16405" lon="6.24048">
        <ele>707.59997558594</ele>
        <time>2021-09-02T12:18:00Z</time>
      </trkpt>
      <trkpt lat="44.16368" lon="6.24005">
        <ele>707.59997558594</ele>
        <time>2021-09-02T12:18:06Z</time>
      </trkpt>
      <trkpt lat="44.1633" lon="6.23983">
        <ele>707.59997558594</ele>
        <time>2021-09-02T12:18:11Z</time>
      </trkpt>
      <trkpt lat="44.1629" lon="6.23966">
        <ele>707</ele>
        <time>2021-09-02T12:18:16Z</time>
      </trkpt>
      <trkpt lat="44.16274" lon="6.2396">
        <ele>706.79998779297</ele>
        <time>2021-09-02T12:18:18Z</time>
      </trkpt>
      <trkpt lat="44.16221" lon="6.23937">
        <ele>707</ele>
        <time>2021-09-02T12:18:25Z</time>
      </trkpt>
      <trkpt lat="44.16163" lon="6.23912">
        <ele>706.79998779297</ele>
        <time>2021-09-02T12:18:33Z</time>
      </trkpt>
      <trkpt lat="44.16144" lon="6.23901">
        <ele>707</ele>
        <time>2021-09-02T12:18:36Z</time>
      </trkpt>
      <trkpt lat="44.16133" lon="6.2389">
        <ele>707</ele>
        <time>2021-09-02T12:18:38Z</time>
      </trkpt>
      <trkpt lat="44.16117" lon="6.23865">
        <ele>707</ele>
        <time>2021-09-02T12:18:42Z</time>
      </trkpt>
      <trkpt lat="44.16114" lon="6.23858">
        <ele>707</ele>
        <time>2021-09-02T12:18:43Z</time>
      </trkpt>
      <trkpt lat="44.16099" lon="6.23819">
        <ele>707.79998779297</ele>
        <time>2021-09-02T12:18:49Z</time>
      </trkpt>
      <trkpt lat="44.16086" lon="6.23797">
        <ele>708.20001220703</ele>
        <time>2021-09-02T12:18:53Z</time>
      </trkpt>
      <trkpt lat="44.16078" lon="6.23787">
        <ele>708.20001220703</ele>
        <time>2021-09-02T12:18:55Z</time>
      </trkpt>
      <trkpt lat="44.16045" lon="6.23743">
        <ele>708.40002441406</ele>
        <time>2021-09-02T12:19:03Z</time>
      </trkpt>
      <trkpt lat="44.16012" lon="6.23702">
        <ele>707.40002441406</ele>
        <time>2021-09-02T12:19:10Z</time>
      </trkpt>
      <trkpt lat="44.15992" lon="6.23679">
        <ele>707</ele>
        <time>2021-09-02T12:19:14Z</time>
      </trkpt>
      <trkpt lat="44.15974" lon="6.23664">
        <ele>706.79998779297</ele>
        <time>2021-09-02T12:19:17Z</time>
      </trkpt>
      <trkpt lat="44.15935" lon="6.23643">
        <ele>706.40002441406</ele>
        <time>2021-09-02T12:19:23Z</time>
      </trkpt>
      <trkpt lat="44.15904" lon="6.23625">
        <ele>706</ele>
        <time>2021-09-02T12:19:28Z</time>
      </trkpt>
      <trkpt lat="44.15885" lon="6.23615">
        <ele>705.79998779297</ele>
        <time>2021-09-02T12:19:31Z</time>
      </trkpt>
      <trkpt lat="44.15843" lon="6.23591">
        <ele>705.40002441406</ele>
        <time>2021-09-02T12:19:38Z</time>
      </trkpt>
      <trkpt lat="44.15837" lon="6.23588">
        <ele>705.40002441406</ele>
        <time>2021-09-02T12:19:39Z</time>
      </trkpt>
      <trkpt lat="44.15818" lon="6.23587">
        <ele>705.20001220703</ele>
        <time>2021-09-02T12:19:42Z</time>
      </trkpt>
      <trkpt lat="44.15797" lon="6.23593">
        <ele>705</ele>
        <time>2021-09-02T12:19:45Z</time>
      </trkpt>
      <trkpt lat="44.1579" lon="6.23595">
        <ele>704.79998779297</ele>
        <time>2021-09-02T12:19:46Z</time>
      </trkpt>
      <trkpt lat="44.15753" lon="6.23606">
        <ele>703.79998779297</ele>
        <time>2021-09-02T12:19:51Z</time>
      </trkpt>
      <trkpt lat="44.15745" lon="6.23609">
        <ele>703.40002441406</ele>
        <time>2021-09-02T12:19:52Z</time>
      </trkpt>
      <trkpt lat="44.15721" lon="6.23617">
        <ele>702.40002441406</ele>
        <time>2021-09-02T12:19:55Z</time>
      </trkpt>
      <trkpt lat="44.15681" lon="6.23631">
        <ele>701.20001220703</ele>
        <time>2021-09-02T12:20:00Z</time>
      </trkpt>
      <trkpt lat="44.15673" lon="6.23635">
        <ele>700.79998779297</ele>
        <time>2021-09-02T12:20:01Z</time>
      </trkpt>
      <trkpt lat="44.15651" lon="6.23648">
        <ele>700</ele>
        <time>2021-09-02T12:20:04Z</time>
      </trkpt>
      <trkpt lat="44.15624" lon="6.23668">
        <ele>699</ele>
        <time>2021-09-02T12:20:08Z</time>
      </trkpt>
      <trkpt lat="44.15618" lon="6.23673">
        <ele>699</ele>
        <time>2021-09-02T12:20:09Z</time>
      </trkpt>
      <trkpt lat="44.15582" lon="6.23705">
        <ele>698.40002441406</ele>
        <time>2021-09-02T12:20:15Z</time>
      </trkpt>
      <trkpt lat="44.15559" lon="6.23723">
        <ele>697.79998779297</ele>
        <time>2021-09-02T12:20:19Z</time>
      </trkpt>
      <trkpt lat="44.15542" lon="6.23735">
        <ele>697.59997558594</ele>
        <time>2021-09-02T12:20:22Z</time>
      </trkpt>
      <trkpt lat="44.15511" lon="6.23766">
        <ele>697.40002441406</ele>
        <time>2021-09-02T12:20:28Z</time>
      </trkpt>
      <trkpt lat="44.15465" lon="6.23815">
        <ele>696.79998779297</ele>
        <time>2021-09-02T12:20:37Z</time>
      </trkpt>
      <trkpt lat="44.1542" lon="6.23855">
        <ele>695.79998779297</ele>
        <time>2021-09-02T12:20:45Z</time>
      </trkpt>
      <trkpt lat="44.15409" lon="6.23864">
        <ele>695.59997558594</ele>
        <time>2021-09-02T12:20:47Z</time>
      </trkpt>
      <trkpt lat="44.15375" lon="6.23896">
        <ele>694.79998779297</ele>
        <time>2021-09-02T12:20:53Z</time>
      </trkpt>
      <trkpt lat="44.15339" lon="6.23932">
        <ele>694.40002441406</ele>
        <time>2021-09-02T12:21:00Z</time>
      </trkpt>
      <trkpt lat="44.15308" lon="6.2396">
        <ele>694.20001220703</ele>
        <time>2021-09-02T12:21:06Z</time>
      </trkpt>
      <trkpt lat="44.15298" lon="6.23969">
        <ele>693.79998779297</ele>
        <time>2021-09-02T12:21:08Z</time>
      </trkpt>
      <trkpt lat="44.15278" lon="6.23986">
        <ele>693.40002441406</ele>
        <time>2021-09-02T12:21:12Z</time>
      </trkpt>
      <trkpt lat="44.15274" lon="6.2399">
        <ele>693.40002441406</ele>
        <time>2021-09-02T12:21:13Z</time>
      </trkpt>
      <trkpt lat="44.15252" lon="6.24002">
        <ele>692.79998779297</ele>
        <time>2021-09-02T12:21:17Z</time>
      </trkpt>
      <trkpt lat="44.15224" lon="6.24015">
        <ele>692.40002441406</ele>
        <time>2021-09-02T12:21:22Z</time>
      </trkpt>
      <trkpt lat="44.15202" lon="6.24026">
        <ele>691.79998779297</ele>
        <time>2021-09-02T12:21:26Z</time>
      </trkpt>
      <trkpt lat="44.15196" lon="6.24029">
        <ele>691.79998779297</ele>
        <time>2021-09-02T12:21:27Z</time>
      </trkpt>
      <trkpt lat="44.15175" lon="6.24048">
        <ele>691.40002441406</ele>
        <time>2021-09-02T12:21:31Z</time>
      </trkpt>
      <trkpt lat="44.15162" lon="6.24066">
        <ele>691.20001220703</ele>
        <time>2021-09-02T12:21:34Z</time>
      </trkpt>
      <trkpt lat="44.15149" lon="6.24084">
        <ele>691</ele>
        <time>2021-09-02T12:21:37Z</time>
      </trkpt>
      <trkpt lat="44.15128" lon="6.24114">
        <ele>690.20001220703</ele>
        <time>2021-09-02T12:21:42Z</time>
      </trkpt>
      <trkpt lat="44.15117" lon="6.24134">
        <ele>690</ele>
        <time>2021-09-02T12:21:45Z</time>
      </trkpt>
      <trkpt lat="44.15101" lon="6.24168">
        <ele>689.40002441406</ele>
        <time>2021-09-02T12:21:50Z</time>
      </trkpt>
      <trkpt lat="44.15093" lon="6.2418">
        <ele>689.20001220703</ele>
        <time>2021-09-02T12:21:52Z</time>
      </trkpt>
      <trkpt lat="44.15071" lon="6.24206">
        <ele>688.20001220703</ele>
        <time>2021-09-02T12:21:57Z</time>
      </trkpt>
      <trkpt lat="44.15066" lon="6.2421">
        <ele>688</ele>
        <time>2021-09-02T12:21:58Z</time>
      </trkpt>
      <trkpt lat="44.15043" lon="6.24225">
        <ele>687.59997558594</ele>
        <time>2021-09-02T12:22:02Z</time>
      </trkpt>
      <trkpt lat="44.15037" lon="6.24227">
        <ele>687.59997558594</ele>
        <time>2021-09-02T12:22:03Z</time>
      </trkpt>
      <trkpt lat="44.15011" lon="6.24233">
        <ele>687</ele>
        <time>2021-09-02T12:22:07Z</time>
      </trkpt>
      <trkpt lat="44.14998" lon="6.24235">
        <ele>686.59997558594</ele>
        <time>2021-09-02T12:22:09Z</time>
      </trkpt>
      <trkpt lat="44.14979" lon="6.2423">
        <ele>686.20001220703</ele>
        <time>2021-09-02T12:22:12Z</time>
      </trkpt>
      <trkpt lat="44.14973" lon="6.24227">
        <ele>686.20001220703</ele>
        <time>2021-09-02T12:22:13Z</time>
      </trkpt>
      <trkpt lat="44.14967" lon="6.24223">
        <ele>686.20001220703</ele>
        <time>2021-09-02T12:22:14Z</time>
      </trkpt>
      <trkpt lat="44.14956" lon="6.24214">
        <ele>686</ele>
        <time>2021-09-02T12:22:16Z</time>
      </trkpt>
      <trkpt lat="44.1495" lon="6.24209">
        <ele>685.79998779297</ele>
        <time>2021-09-02T12:22:17Z</time>
      </trkpt>
      <trkpt lat="44.1491" lon="6.24179">
        <ele>685.59997558594</ele>
        <time>2021-09-02T12:22:24Z</time>
      </trkpt>
      <trkpt lat="44.14862" lon="6.24141">
        <ele>685</ele>
        <time>2021-09-02T12:22:32Z</time>
      </trkpt>
      <trkpt lat="44.14856" lon="6.24136">
        <ele>684.79998779297</ele>
        <time>2021-09-02T12:22:33Z</time>
      </trkpt>
      <trkpt lat="44.14824" lon="6.24109">
        <ele>684</ele>
        <time>2021-09-02T12:22:38Z</time>
      </trkpt>
      <trkpt lat="44.14817" lon="6.24105">
        <ele>683.79998779297</ele>
        <time>2021-09-02T12:22:39Z</time>
      </trkpt>
      <trkpt lat="44.14789" lon="6.24092">
        <ele>683</ele>
        <time>2021-09-02T12:22:43Z</time>
      </trkpt>
      <trkpt lat="44.14774" lon="6.24085">
        <ele>682.79998779297</ele>
        <time>2021-09-02T12:22:45Z</time>
      </trkpt>
      <trkpt lat="44.14748" lon="6.24066">
        <ele>682.79998779297</ele>
        <time>2021-09-02T12:22:49Z</time>
      </trkpt>
      <trkpt lat="44.14742" lon="6.2406">
        <ele>682.59997558594</ele>
        <time>2021-09-02T12:22:50Z</time>
      </trkpt>
      <trkpt lat="44.1471" lon="6.24024">
        <ele>681.79998779297</ele>
        <time>2021-09-02T12:22:56Z</time>
      </trkpt>
      <trkpt lat="44.14705" lon="6.24018">
        <ele>681.59997558594</ele>
        <time>2021-09-02T12:22:57Z</time>
      </trkpt>
      <trkpt lat="44.14662" lon="6.2397">
        <ele>681</ele>
        <time>2021-09-02T12:23:05Z</time>
      </trkpt>
      <trkpt lat="44.14618" lon="6.23924">
        <ele>680.79998779297</ele>
        <time>2021-09-02T12:23:13Z</time>
      </trkpt>
      <trkpt lat="44.14601" lon="6.23907">
        <ele>680.59997558594</ele>
        <time>2021-09-02T12:23:16Z</time>
      </trkpt>
      <trkpt lat="44.14583" lon="6.23892">
        <ele>680.59997558594</ele>
        <time>2021-09-02T12:23:19Z</time>
      </trkpt>
      <trkpt lat="44.14554" lon="6.23868">
        <ele>680.59997558594</ele>
        <time>2021-09-02T12:23:24Z</time>
      </trkpt>
      <trkpt lat="44.14507" lon="6.2383">
        <ele>680.20001220703</ele>
        <time>2021-09-02T12:23:32Z</time>
      </trkpt>
      <trkpt lat="44.14501" lon="6.23826">
        <ele>680.20001220703</ele>
        <time>2021-09-02T12:23:33Z</time>
      </trkpt>
      <trkpt lat="44.14495" lon="6.23823">
        <ele>680.20001220703</ele>
        <time>2021-09-02T12:23:34Z</time>
      </trkpt>
      <trkpt lat="44.14475" lon="6.23819">
        <ele>680.20001220703</ele>
        <time>2021-09-02T12:23:37Z</time>
      </trkpt>
      <trkpt lat="44.14454" lon="6.2382">
        <ele>680.40002441406</ele>
        <time>2021-09-02T12:23:40Z</time>
      </trkpt>
      <trkpt lat="44.1444" lon="6.23821">
        <ele>680.40002441406</ele>
        <time>2021-09-02T12:23:42Z</time>
      </trkpt>
      <trkpt lat="44.144" lon="6.23826">
        <ele>680.40002441406</ele>
        <time>2021-09-02T12:23:48Z</time>
      </trkpt>
      <trkpt lat="44.14373" lon="6.23823">
        <ele>680.40002441406</ele>
        <time>2021-09-02T12:23:52Z</time>
      </trkpt>
      <trkpt lat="44.14366" lon="6.2382">
        <ele>680.40002441406</ele>
        <time>2021-09-02T12:23:53Z</time>
      </trkpt>
      <trkpt lat="44.14344" lon="6.23813">
        <ele>679.79998779297</ele>
        <time>2021-09-02T12:23:56Z</time>
      </trkpt>
      <trkpt lat="44.14329" lon="6.23808">
        <ele>679.59997558594</ele>
        <time>2021-09-02T12:23:58Z</time>
      </trkpt>
      <trkpt lat="44.14321" lon="6.23806">
        <ele>679.40002441406</ele>
        <time>2021-09-02T12:23:59Z</time>
      </trkpt>
      <trkpt lat="44.14281" lon="6.23798">
        <ele>678.59997558594</ele>
        <time>2021-09-02T12:24:04Z</time>
      </trkpt>
      <trkpt lat="44.14273" lon="6.23798">
        <ele>678.40002441406</ele>
        <time>2021-09-02T12:24:05Z</time>
      </trkpt>
      <trkpt lat="44.14242" lon="6.23799">
        <ele>677.79998779297</ele>
        <time>2021-09-02T12:24:09Z</time>
      </trkpt>
      <trkpt lat="44.14211" lon="6.23794">
        <ele>677.40002441406</ele>
        <time>2021-09-02T12:24:13Z</time>
      </trkpt>
      <trkpt lat="44.14204" lon="6.23791">
        <ele>677.20001220703</ele>
        <time>2021-09-02T12:24:14Z</time>
      </trkpt>
      <trkpt lat="44.14175" lon="6.2378">
        <ele>676.20001220703</ele>
        <time>2021-09-02T12:24:18Z</time>
      </trkpt>
      <trkpt lat="44.14153" lon="6.23769">
        <ele>675.40002441406</ele>
        <time>2021-09-02T12:24:21Z</time>
      </trkpt>
      <trkpt lat="44.14146" lon="6.23765">
        <ele>675.20001220703</ele>
        <time>2021-09-02T12:24:22Z</time>
      </trkpt>
      <trkpt lat="44.14104" lon="6.23736">
        <ele>674.40002441406</ele>
        <time>2021-09-02T12:24:28Z</time>
      </trkpt>
      <trkpt lat="44.1409" lon="6.23724">
        <ele>674</ele>
        <time>2021-09-02T12:24:30Z</time>
      </trkpt>
      <trkpt lat="44.14064" lon="6.23701">
        <ele>673.59997558594</ele>
        <time>2021-09-02T12:24:34Z</time>
      </trkpt>
      <trkpt lat="44.14017" lon="6.23662">
        <ele>673</ele>
        <time>2021-09-02T12:24:41Z</time>
      </trkpt>
      <trkpt lat="44.1401" lon="6.23657">
        <ele>673</ele>
        <time>2021-09-02T12:24:42Z</time>
      </trkpt>
      <trkpt lat="44.14003" lon="6.23653">
        <ele>672.79998779297</ele>
        <time>2021-09-02T12:24:43Z</time>
      </trkpt>
      <trkpt lat="44.13967" lon="6.23632">
        <ele>671.59997558594</ele>
        <time>2021-09-02T12:24:48Z</time>
      </trkpt>
      <trkpt lat="44.1396" lon="6.23628">
        <ele>671.59997558594</ele>
        <time>2021-09-02T12:24:49Z</time>
      </trkpt>
      <trkpt lat="44.13953" lon="6.23625">
        <ele>671.59997558594</ele>
        <time>2021-09-02T12:24:50Z</time>
      </trkpt>
      <trkpt lat="44.13931" lon="6.2362">
        <ele>671.20001220703</ele>
        <time>2021-09-02T12:24:53Z</time>
      </trkpt>
      <trkpt lat="44.13923" lon="6.2362">
        <ele>671.20001220703</ele>
        <time>2021-09-02T12:24:54Z</time>
      </trkpt>
      <trkpt lat="44.13894" lon="6.23622">
        <ele>670.59997558594</ele>
        <time>2021-09-02T12:24:58Z</time>
      </trkpt>
      <trkpt lat="44.13887" lon="6.23623">
        <ele>670.59997558594</ele>
        <time>2021-09-02T12:24:59Z</time>
      </trkpt>
      <trkpt lat="44.13837" lon="6.23621">
        <ele>670.59997558594</ele>
        <time>2021-09-02T12:25:06Z</time>
      </trkpt>
      <trkpt lat="44.13788" lon="6.23609">
        <ele>670.20001220703</ele>
        <time>2021-09-02T12:25:13Z</time>
      </trkpt>
      <trkpt lat="44.13752" lon="6.23616">
        <ele>670.20001220703</ele>
        <time>2021-09-02T12:25:18Z</time>
      </trkpt>
      <trkpt lat="44.13725" lon="6.23633">
        <ele>669.79998779297</ele>
        <time>2021-09-02T12:25:22Z</time>
      </trkpt>
      <trkpt lat="44.13687" lon="6.23665">
        <ele>669.59997558594</ele>
        <time>2021-09-02T12:25:28Z</time>
      </trkpt>
      <trkpt lat="44.13667" lon="6.23675">
        <ele>669.40002441406</ele>
        <time>2021-09-02T12:25:31Z</time>
      </trkpt>
      <trkpt lat="44.13655" lon="6.23679">
        <ele>669.40002441406</ele>
        <time>2021-09-02T12:25:33Z</time>
      </trkpt>
      <trkpt lat="44.13636" lon="6.2369">
        <ele>669.20001220703</ele>
        <time>2021-09-02T12:25:36Z</time>
      </trkpt>
      <trkpt lat="44.13623" lon="6.23698">
        <ele>669</ele>
        <time>2021-09-02T12:25:38Z</time>
      </trkpt>
      <trkpt lat="44.13603" lon="6.23706">
        <ele>668.59997558594</ele>
        <time>2021-09-02T12:25:41Z</time>
      </trkpt>
      <trkpt lat="44.1359" lon="6.23708">
        <ele>668.40002441406</ele>
        <time>2021-09-02T12:25:43Z</time>
      </trkpt>
      <trkpt lat="44.1355" lon="6.2372">
        <ele>667.79998779297</ele>
        <time>2021-09-02T12:25:49Z</time>
      </trkpt>
      <trkpt lat="44.13521" lon="6.23728">
        <ele>667.59997558594</ele>
        <time>2021-09-02T12:25:53Z</time>
      </trkpt>
      <trkpt lat="44.13492" lon="6.23733">
        <ele>666.79998779297</ele>
        <time>2021-09-02T12:25:57Z</time>
      </trkpt>
      <trkpt lat="44.13455" lon="6.23744">
        <ele>666.59997558594</ele>
        <time>2021-09-02T12:26:02Z</time>
      </trkpt>
      <trkpt lat="44.13448" lon="6.23748">
        <ele>666.40002441406</ele>
        <time>2021-09-02T12:26:03Z</time>
      </trkpt>
      <trkpt lat="44.13436" lon="6.23761">
        <ele>666</ele>
        <time>2021-09-02T12:26:05Z</time>
      </trkpt>
      <trkpt lat="44.13424" lon="6.23775">
        <ele>665.40002441406</ele>
        <time>2021-09-02T12:26:07Z</time>
      </trkpt>
      <trkpt lat="44.13394" lon="6.23808">
        <ele>664.59997558594</ele>
        <time>2021-09-02T12:26:12Z</time>
      </trkpt>
      <trkpt lat="44.13388" lon="6.23814">
        <ele>664.40002441406</ele>
        <time>2021-09-02T12:26:13Z</time>
      </trkpt>
      <trkpt lat="44.13349" lon="6.23847">
        <ele>663.40002441406</ele>
        <time>2021-09-02T12:26:19Z</time>
      </trkpt>
      <trkpt lat="44.13342" lon="6.2385">
        <ele>663.40002441406</ele>
        <time>2021-09-02T12:26:20Z</time>
      </trkpt>
      <trkpt lat="44.13321" lon="6.23853">
        <ele>662.79998779297</ele>
        <time>2021-09-02T12:26:23Z</time>
      </trkpt>
      <trkpt lat="44.133" lon="6.23852">
        <ele>662.20001220703</ele>
        <time>2021-09-02T12:26:26Z</time>
      </trkpt>
      <trkpt lat="44.1328" lon="6.23848">
        <ele>661.59997558594</ele>
        <time>2021-09-02T12:26:29Z</time>
      </trkpt>
      <trkpt lat="44.1326" lon="6.23841">
        <ele>661</ele>
        <time>2021-09-02T12:26:32Z</time>
      </trkpt>
      <trkpt lat="44.13221" lon="6.23828">
        <ele>660.40002441406</ele>
        <time>2021-09-02T12:26:38Z</time>
      </trkpt>
      <trkpt lat="44.13183" lon="6.23815">
        <ele>660</ele>
        <time>2021-09-02T12:26:44Z</time>
      </trkpt>
      <trkpt lat="44.13172" lon="6.23811">
        <ele>659.79998779297</ele>
        <time>2021-09-02T12:26:46Z</time>
      </trkpt>
      <trkpt lat="44.13138" lon="6.23797">
        <ele>659.40002441406</ele>
        <time>2021-09-02T12:26:52Z</time>
      </trkpt>
      <trkpt lat="44.13111" lon="6.2378">
        <ele>659</ele>
        <time>2021-09-02T12:26:57Z</time>
      </trkpt>
      <trkpt lat="44.13103" lon="6.23774">
        <ele>658.79998779297</ele>
        <time>2021-09-02T12:26:59Z</time>
      </trkpt>
      <trkpt lat="44.13097" lon="6.2377">
        <ele>658.79998779297</ele>
        <time>2021-09-02T12:27:02Z</time>
      </trkpt>
      <trkpt lat="44.13096" lon="6.23768">
        <ele>658</ele>
        <time>2021-09-02T12:27:28Z</time>
      </trkpt>
      <trkpt lat="44.13093" lon="6.23767">
        <ele>658</ele>
        <time>2021-09-02T12:27:30Z</time>
      </trkpt>
      <trkpt lat="44.13091" lon="6.23766">
        <ele>658</ele>
        <time>2021-09-02T12:27:31Z</time>
      </trkpt>
      <trkpt lat="44.13083" lon="6.23761">
        <ele>657.79998779297</ele>
        <time>2021-09-02T12:27:35Z</time>
      </trkpt>
      <trkpt lat="44.13067" lon="6.23747">
        <ele>658</ele>
        <time>2021-09-02T12:27:40Z</time>
      </trkpt>
      <trkpt lat="44.13049" lon="6.23729">
        <ele>657.79998779297</ele>
        <time>2021-09-02T12:27:45Z</time>
      </trkpt>
      <trkpt lat="44.13026" lon="6.23708">
        <ele>657.59997558594</ele>
        <time>2021-09-02T12:27:50Z</time>
      </trkpt>
      <trkpt lat="44.12996" lon="6.23672">
        <ele>657.40002441406</ele>
        <time>2021-09-02T12:27:57Z</time>
      </trkpt>
      <trkpt lat="44.12961" lon="6.23614">
        <ele>657.40002441406</ele>
        <time>2021-09-02T12:28:06Z</time>
      </trkpt>
      <trkpt lat="44.12925" lon="6.23565">
        <ele>657</ele>
        <time>2021-09-02T12:28:14Z</time>
      </trkpt>
      <trkpt lat="44.12914" lon="6.23553">
        <ele>656.79998779297</ele>
        <time>2021-09-02T12:28:16Z</time>
      </trkpt>
      <trkpt lat="44.12895" lon="6.23528">
        <ele>656.59997558594</ele>
        <time>2021-09-02T12:28:20Z</time>
      </trkpt>
      <trkpt lat="44.12851" lon="6.23472">
        <ele>656</ele>
        <time>2021-09-02T12:28:29Z</time>
      </trkpt>
      <trkpt lat="44.12836" lon="6.23454">
        <ele>655.79998779297</ele>
        <time>2021-09-02T12:28:32Z</time>
      </trkpt>
      <trkpt lat="44.12817" lon="6.2343">
        <ele>655.40002441406</ele>
        <time>2021-09-02T12:28:36Z</time>
      </trkpt>
      <trkpt lat="44.12773" lon="6.23377">
        <ele>655</ele>
        <time>2021-09-02T12:28:45Z</time>
      </trkpt>
      <trkpt lat="44.12756" lon="6.23363">
        <ele>654.79998779297</ele>
        <time>2021-09-02T12:28:48Z</time>
      </trkpt>
      <trkpt lat="44.12744" lon="6.23357">
        <ele>654.59997558594</ele>
        <time>2021-09-02T12:28:50Z</time>
      </trkpt>
      <trkpt lat="44.12737" lon="6.23354">
        <ele>654.59997558594</ele>
        <time>2021-09-02T12:28:51Z</time>
      </trkpt>
      <trkpt lat="44.12711" lon="6.23349">
        <ele>654.20001220703</ele>
        <time>2021-09-02T12:28:55Z</time>
      </trkpt>
      <trkpt lat="44.12704" lon="6.2335">
        <ele>654</ele>
        <time>2021-09-02T12:28:56Z</time>
      </trkpt>
      <trkpt lat="44.12682" lon="6.23352">
        <ele>653.59997558594</ele>
        <time>2021-09-02T12:28:59Z</time>
      </trkpt>
      <trkpt lat="44.12646" lon="6.23355">
        <ele>653.40002441406</ele>
        <time>2021-09-02T12:29:04Z</time>
      </trkpt>
      <trkpt lat="44.1259" lon="6.2336">
        <ele>652.79998779297</ele>
        <time>2021-09-02T12:29:12Z</time>
      </trkpt>
      <trkpt lat="44.1257" lon="6.23361">
        <ele>652.79998779297</ele>
        <time>2021-09-02T12:29:15Z</time>
      </trkpt>
      <trkpt lat="44.12556" lon="6.23363">
        <ele>652.59997558594</ele>
        <time>2021-09-02T12:29:17Z</time>
      </trkpt>
      <trkpt lat="44.12508" lon="6.23367">
        <ele>652.40002441406</ele>
        <time>2021-09-02T12:29:24Z</time>
      </trkpt>
      <trkpt lat="44.1246" lon="6.23373">
        <ele>652.59997558594</ele>
        <time>2021-09-02T12:29:31Z</time>
      </trkpt>
      <trkpt lat="44.12406" lon="6.23377">
        <ele>652.20001220703</ele>
        <time>2021-09-02T12:29:39Z</time>
      </trkpt>
      <trkpt lat="44.12399" lon="6.23378">
        <ele>652.20001220703</ele>
        <time>2021-09-02T12:29:40Z</time>
      </trkpt>
      <trkpt lat="44.1235" lon="6.23382">
        <ele>651.59997558594</ele>
        <time>2021-09-02T12:29:47Z</time>
      </trkpt>
      <trkpt lat="44.12292" lon="6.23386">
        <ele>650.79998779297</ele>
        <time>2021-09-02T12:29:55Z</time>
      </trkpt>
      <trkpt lat="44.12262" lon="6.23389">
        <ele>650.59997558594</ele>
        <time>2021-09-02T12:29:59Z</time>
      </trkpt>
      <trkpt lat="44.12221" lon="6.23393">
        <ele>650.20001220703</ele>
        <time>2021-09-02T12:30:05Z</time>
      </trkpt>
      <trkpt lat="44.1216" lon="6.23399">
        <ele>650.20001220703</ele>
        <time>2021-09-02T12:30:14Z</time>
      </trkpt>
      <trkpt lat="44.12113" lon="6.23403">
        <ele>650.40002441406</ele>
        <time>2021-09-02T12:30:21Z</time>
      </trkpt>
      <trkpt lat="44.1206" lon="6.23408">
        <ele>650.59997558594</ele>
        <time>2021-09-02T12:30:29Z</time>
      </trkpt>
      <trkpt lat="44.12011" lon="6.23414">
        <ele>651</ele>
        <time>2021-09-02T12:30:37Z</time>
      </trkpt>
      <trkpt lat="44.11973" lon="6.23417">
        <ele>650.40002441406</ele>
        <time>2021-09-02T12:30:43Z</time>
      </trkpt>
      <trkpt lat="44.11945" lon="6.23421">
        <ele>650.20001220703</ele>
        <time>2021-09-02T12:30:48Z</time>
      </trkpt>
      <trkpt lat="44.11931" lon="6.23423">
        <ele>649.79998779297</ele>
        <time>2021-09-02T12:30:51Z</time>
      </trkpt>
      <trkpt lat="44.11923" lon="6.23423">
        <ele>649.59997558594</ele>
        <time>2021-09-02T12:30:53Z</time>
      </trkpt>
      <trkpt lat="44.11919" lon="6.23423">
        <ele>649.40002441406</ele>
        <time>2021-09-02T12:30:54Z</time>
      </trkpt>
      <trkpt lat="44.11903" lon="6.23421">
        <ele>649.20001220703</ele>
        <time>2021-09-02T12:30:59Z</time>
      </trkpt>
      <trkpt lat="44.1188" lon="6.23416">
        <ele>648.79998779297</ele>
        <time>2021-09-02T12:31:06Z</time>
      </trkpt>
      <trkpt lat="44.11851" lon="6.23411">
        <ele>648.59997558594</ele>
        <time>2021-09-02T12:31:13Z</time>
      </trkpt>
      <trkpt lat="44.11844" lon="6.23408">
        <ele>648.59997558594</ele>
        <time>2021-09-02T12:31:15Z</time>
      </trkpt>
      <trkpt lat="44.11842" lon="6.23399">
        <ele>648.59997558594</ele>
        <time>2021-09-02T12:31:17Z</time>
      </trkpt>
      <trkpt lat="44.11847" lon="6.23387">
        <ele>648.59997558594</ele>
        <time>2021-09-02T12:31:20Z</time>
      </trkpt>
      <trkpt lat="44.11857" lon="6.2339">
        <ele>648.59997558594</ele>
        <time>2021-09-02T12:31:23Z</time>
      </trkpt>
      <trkpt lat="44.11859" lon="6.23393">
        <ele>648.59997558594</ele>
        <time>2021-09-02T12:31:24Z</time>
      </trkpt>
      <trkpt lat="44.11872" lon="6.23396">
        <ele>648.59997558594</ele>
        <time>2021-09-02T12:31:28Z</time>
      </trkpt>
      <trkpt lat="44.11874" lon="6.23395">
        <ele>648.59997558594</ele>
        <time>2021-09-02T12:31:29Z</time>
      </trkpt>
      <trkpt lat="44.11875" lon="6.23393">
        <ele>648.59997558594</ele>
        <time>2021-09-02T12:31:31Z</time>
      </trkpt>
      <trkpt lat="44.11876" lon="6.23394">
        <ele>648.40002441406</ele>
        <time>2021-09-02T12:31:32Z</time>
      </trkpt>
      <trkpt lat="44.11883" lon="6.23399">
        <ele>648.20001220703</ele>
        <time>2021-09-02T12:31:36Z</time>
      </trkpt>
      <trkpt lat="44.11897" lon="6.23408">
        <ele>648.40002441406</ele>
        <time>2021-09-02T12:31:42Z</time>
      </trkpt>
      <trkpt lat="44.11901" lon="6.23411">
        <ele>648.40002441406</ele>
        <time>2021-09-02T12:31:44Z</time>
      </trkpt>
      <trkpt lat="44.119" lon="6.23409">
        <ele>649.79998779297</ele>
        <time>2021-09-02T12:41:22Z</time>
      </trkpt>
      <trkpt lat="44.1189" lon="6.23404">
        <ele>650</ele>
        <time>2021-09-02T12:41:27Z</time>
      </trkpt>
      <trkpt lat="44.11888" lon="6.23403">
        <ele>649.79998779297</ele>
        <time>2021-09-02T12:41:28Z</time>
      </trkpt>
      <trkpt lat="44.11874" lon="6.23399">
        <ele>650</ele>
        <time>2021-09-02T12:41:35Z</time>
      </trkpt>
      <trkpt lat="44.11862" lon="6.23397">
        <ele>649.79998779297</ele>
        <time>2021-09-02T12:41:40Z</time>
      </trkpt>
      <trkpt lat="44.1185" lon="6.23392">
        <ele>649.79998779297</ele>
        <time>2021-09-02T12:41:45Z</time>
      </trkpt>
      <trkpt lat="44.11847" lon="6.23394">
        <ele>650</ele>
        <time>2021-09-02T12:41:46Z</time>
      </trkpt>
      <trkpt lat="44.11844" lon="6.23401">
        <ele>650</ele>
        <time>2021-09-02T12:41:48Z</time>
      </trkpt>
      <trkpt lat="44.11837" lon="6.23409">
        <ele>650.20001220703</ele>
        <time>2021-09-02T12:41:51Z</time>
      </trkpt>
      <trkpt lat="44.11831" lon="6.23411">
        <ele>650</ele>
        <time>2021-09-02T12:41:53Z</time>
      </trkpt>
      <trkpt lat="44.11821" lon="6.2341">
        <ele>650</ele>
        <time>2021-09-02T12:41:56Z</time>
      </trkpt>
      <trkpt lat="44.11813" lon="6.23408">
        <ele>650</ele>
        <time>2021-09-02T12:41:58Z</time>
      </trkpt>
      <trkpt lat="44.11785" lon="6.23401">
        <ele>649.79998779297</ele>
        <time>2021-09-02T12:42:05Z</time>
      </trkpt>
      <trkpt lat="44.11778" lon="6.23397">
        <ele>649.79998779297</ele>
        <time>2021-09-02T12:42:07Z</time>
      </trkpt>
      <trkpt lat="44.11762" lon="6.23387">
        <ele>649.40002441406</ele>
        <time>2021-09-02T12:42:11Z</time>
      </trkpt>
      <trkpt lat="44.11731" lon="6.23364">
        <ele>649.20001220703</ele>
        <time>2021-09-02T12:42:19Z</time>
      </trkpt>
      <trkpt lat="44.11723" lon="6.23361">
        <ele>649.20001220703</ele>
        <time>2021-09-02T12:42:21Z</time>
      </trkpt>
      <trkpt lat="44.1172" lon="6.23358">
        <ele>649.20001220703</ele>
        <time>2021-09-02T12:42:22Z</time>
      </trkpt>
      <trkpt lat="44.117" lon="6.23347">
        <ele>649.20001220703</ele>
        <time>2021-09-02T12:42:27Z</time>
      </trkpt>
      <trkpt lat="44.11686" lon="6.23341">
        <ele>649.20001220703</ele>
        <time>2021-09-02T12:42:32Z</time>
      </trkpt>
      <trkpt lat="44.11679" lon="6.2334">
        <ele>648.79998779297</ele>
        <time>2021-09-02T12:43:24Z</time>
      </trkpt>
      <trkpt lat="44.11677" lon="6.2334">
        <ele>648.79998779297</ele>
        <time>2021-09-02T12:43:25Z</time>
      </trkpt>
      <trkpt lat="44.11663" lon="6.23341">
        <ele>649</ele>
        <time>2021-09-02T12:43:30Z</time>
      </trkpt>
      <trkpt lat="44.11639" lon="6.23344">
        <ele>649</ele>
        <time>2021-09-02T12:43:37Z</time>
      </trkpt>
      <trkpt lat="44.11615" lon="6.23345">
        <ele>649.20001220703</ele>
        <time>2021-09-02T12:43:44Z</time>
      </trkpt>
      <trkpt lat="44.11586" lon="6.23337">
        <ele>649.20001220703</ele>
        <time>2021-09-02T12:43:51Z</time>
      </trkpt>
      <trkpt lat="44.11546" lon="6.23322">
        <ele>648.59997558594</ele>
        <time>2021-09-02T12:43:59Z</time>
      </trkpt>
      <trkpt lat="44.11514" lon="6.23309">
        <ele>647.59997558594</ele>
        <time>2021-09-02T12:44:05Z</time>
      </trkpt>
      <trkpt lat="44.11502" lon="6.23305">
        <ele>647.20001220703</ele>
        <time>2021-09-02T12:44:07Z</time>
      </trkpt>
      <trkpt lat="44.11484" lon="6.23299">
        <ele>646.59997558594</ele>
        <time>2021-09-02T12:44:10Z</time>
      </trkpt>
      <trkpt lat="44.11452" lon="6.23297">
        <ele>645.59997558594</ele>
        <time>2021-09-02T12:44:15Z</time>
      </trkpt>
      <trkpt lat="44.11446" lon="6.23297">
        <ele>645.20001220703</ele>
        <time>2021-09-02T12:44:16Z</time>
      </trkpt>
      <trkpt lat="44.11421" lon="6.23301">
        <ele>644.20001220703</ele>
        <time>2021-09-02T12:44:20Z</time>
      </trkpt>
      <trkpt lat="44.11408" lon="6.23303">
        <ele>643.79998779297</ele>
        <time>2021-09-02T12:44:22Z</time>
      </trkpt>
      <trkpt lat="44.11396" lon="6.23306">
        <ele>643.20001220703</ele>
        <time>2021-09-02T12:44:24Z</time>
      </trkpt>
      <trkpt lat="44.11362" lon="6.23315">
        <ele>642.79998779297</ele>
        <time>2021-09-02T12:44:30Z</time>
      </trkpt>
      <trkpt lat="44.11323" lon="6.23323">
        <ele>642</ele>
        <time>2021-09-02T12:44:37Z</time>
      </trkpt>
      <trkpt lat="44.11317" lon="6.23323">
        <ele>641.79998779297</ele>
        <time>2021-09-02T12:44:38Z</time>
      </trkpt>
      <trkpt lat="44.11289" lon="6.2332">
        <ele>641</ele>
        <time>2021-09-02T12:44:43Z</time>
      </trkpt>
      <trkpt lat="44.11284" lon="6.23317">
        <ele>641</ele>
        <time>2021-09-02T12:44:44Z</time>
      </trkpt>
      <trkpt lat="44.11262" lon="6.23302">
        <ele>640.40002441406</ele>
        <time>2021-09-02T12:44:48Z</time>
      </trkpt>
      <trkpt lat="44.11253" lon="6.23291">
        <ele>640.20001220703</ele>
        <time>2021-09-02T12:44:50Z</time>
      </trkpt>
      <trkpt lat="44.11246" lon="6.23278">
        <ele>640</ele>
        <time>2021-09-02T12:44:52Z</time>
      </trkpt>
      <trkpt lat="44.11232" lon="6.23251">
        <ele>640</ele>
        <time>2021-09-02T12:44:56Z</time>
      </trkpt>
      <trkpt lat="44.11219" lon="6.23225">
        <ele>639.79998779297</ele>
        <time>2021-09-02T12:45:00Z</time>
      </trkpt>
      <trkpt lat="44.11201" lon="6.23195">
        <ele>639.40002441406</ele>
        <time>2021-09-02T12:45:05Z</time>
      </trkpt>
      <trkpt lat="44.11182" lon="6.23178">
        <ele>639.40002441406</ele>
        <time>2021-09-02T12:45:09Z</time>
      </trkpt>
      <trkpt lat="44.11172" lon="6.23174">
        <ele>639.40002441406</ele>
        <time>2021-09-02T12:45:11Z</time>
      </trkpt>
      <trkpt lat="44.11157" lon="6.23169">
        <ele>639.40002441406</ele>
        <time>2021-09-02T12:45:14Z</time>
      </trkpt>
      <trkpt lat="44.11142" lon="6.2317">
        <ele>639.40002441406</ele>
        <time>2021-09-02T12:45:17Z</time>
      </trkpt>
      <trkpt lat="44.11137" lon="6.23172">
        <ele>639.40002441406</ele>
        <time>2021-09-02T12:45:18Z</time>
      </trkpt>
      <trkpt lat="44.11126" lon="6.23176">
        <ele>639.59997558594</ele>
        <time>2021-09-02T12:45:20Z</time>
      </trkpt>
      <trkpt lat="44.11116" lon="6.23182">
        <ele>639.40002441406</ele>
        <time>2021-09-02T12:45:22Z</time>
      </trkpt>
      <trkpt lat="44.11103" lon="6.23194">
        <ele>639.40002441406</ele>
        <time>2021-09-02T12:45:25Z</time>
      </trkpt>
      <trkpt lat="44.11097" lon="6.23206">
        <ele>639.40002441406</ele>
        <time>2021-09-02T12:45:27Z</time>
      </trkpt>
      <trkpt lat="44.11074" lon="6.23243">
        <ele>639.20001220703</ele>
        <time>2021-09-02T12:45:34Z</time>
      </trkpt>
      <trkpt lat="44.11043" lon="6.23292">
        <ele>639.20001220703</ele>
        <time>2021-09-02T12:45:43Z</time>
      </trkpt>
      <trkpt lat="44.1102" lon="6.23331">
        <ele>639.20001220703</ele>
        <time>2021-09-02T12:45:50Z</time>
      </trkpt>
      <trkpt lat="44.11015" lon="6.23332">
        <ele>639.20001220703</ele>
        <time>2021-09-02T12:45:51Z</time>
      </trkpt>
      <trkpt lat="44.11" lon="6.23323">
        <ele>639</ele>
        <time>2021-09-02T12:45:54Z</time>
      </trkpt>
      <trkpt lat="44.10986" lon="6.23298">
        <ele>639</ele>
        <time>2021-09-02T12:45:58Z</time>
      </trkpt>
      <trkpt lat="44.10967" lon="6.23267">
        <ele>638.79998779297</ele>
        <time>2021-09-02T12:46:03Z</time>
      </trkpt>
      <trkpt lat="44.10959" lon="6.23256">
        <ele>638.79998779297</ele>
        <time>2021-09-02T12:46:05Z</time>
      </trkpt>
      <trkpt lat="44.10917" lon="6.23206">
        <ele>637.79998779297</ele>
        <time>2021-09-02T12:46:14Z</time>
      </trkpt>
      <trkpt lat="44.10913" lon="6.232">
        <ele>637.79998779297</ele>
        <time>2021-09-02T12:46:15Z</time>
      </trkpt>
      <trkpt lat="44.10871" lon="6.2315">
        <ele>637.59997558594</ele>
        <time>2021-09-02T12:46:24Z</time>
      </trkpt>
      <trkpt lat="44.10828" lon="6.23101">
        <ele>637</ele>
        <time>2021-09-02T12:46:33Z</time>
      </trkpt>
      <trkpt lat="44.10824" lon="6.23095">
        <ele>637</ele>
        <time>2021-09-02T12:46:34Z</time>
      </trkpt>
      <trkpt lat="44.10818" lon="6.2309">
        <ele>636.79998779297</ele>
        <time>2021-09-02T12:46:35Z</time>
      </trkpt>
      <trkpt lat="44.10793" lon="6.23062">
        <ele>636.20001220703</ele>
        <time>2021-09-02T12:46:40Z</time>
      </trkpt>
      <trkpt lat="44.1077" lon="6.23042">
        <ele>635.79998779297</ele>
        <time>2021-09-02T12:46:44Z</time>
      </trkpt>
      <trkpt lat="44.10747" lon="6.23023">
        <ele>635.40002441406</ele>
        <time>2021-09-02T12:46:48Z</time>
      </trkpt>
      <trkpt lat="44.10704" lon="6.22992">
        <ele>634.79998779297</ele>
        <time>2021-09-02T12:46:55Z</time>
      </trkpt>
      <trkpt lat="44.10692" lon="6.22984">
        <ele>634.59997558594</ele>
        <time>2021-09-02T12:46:57Z</time>
      </trkpt>
      <trkpt lat="44.10641" lon="6.22957">
        <ele>634</ele>
        <time>2021-09-02T12:47:05Z</time>
      </trkpt>
      <trkpt lat="44.10634" lon="6.22954">
        <ele>633.79998779297</ele>
        <time>2021-09-02T12:47:06Z</time>
      </trkpt>
      <trkpt lat="44.10582" lon="6.22934">
        <ele>633.20001220703</ele>
        <time>2021-09-02T12:47:14Z</time>
      </trkpt>
      <trkpt lat="44.10528" lon="6.22921">
        <ele>632.59997558594</ele>
        <time>2021-09-02T12:47:22Z</time>
      </trkpt>
      <trkpt lat="44.10521" lon="6.2292">
        <ele>632.59997558594</ele>
        <time>2021-09-02T12:47:23Z</time>
      </trkpt>
      <trkpt lat="44.10467" lon="6.22916">
        <ele>632</ele>
        <time>2021-09-02T12:47:31Z</time>
      </trkpt>
      <trkpt lat="44.1046" lon="6.22916">
        <ele>632</ele>
        <time>2021-09-02T12:47:32Z</time>
      </trkpt>
      <trkpt lat="44.10439" lon="6.22917">
        <ele>631.59997558594</ele>
        <time>2021-09-02T12:47:35Z</time>
      </trkpt>
      <trkpt lat="44.10407" lon="6.22919">
        <ele>631.40002441406</ele>
        <time>2021-09-02T12:47:40Z</time>
      </trkpt>
      <trkpt lat="44.10372" lon="6.22923">
        <ele>630.79998779297</ele>
        <time>2021-09-02T12:47:47Z</time>
      </trkpt>
      <trkpt lat="44.10365" lon="6.22924">
        <ele>630.59997558594</ele>
        <time>2021-09-02T12:47:49Z</time>
      </trkpt>
      <trkpt lat="44.1035" lon="6.22927">
        <ele>630.20001220703</ele>
        <time>2021-09-02T12:47:53Z</time>
      </trkpt>
      <trkpt lat="44.10322" lon="6.22935">
        <ele>629.79998779297</ele>
        <time>2021-09-02T12:48:00Z</time>
      </trkpt>
      <trkpt lat="44.10303" lon="6.22945">
        <ele>629.59997558594</ele>
        <time>2021-09-02T12:48:04Z</time>
      </trkpt>
      <trkpt lat="44.10293" lon="6.2295">
        <ele>629.40002441406</ele>
        <time>2021-09-02T12:48:06Z</time>
      </trkpt>
      <trkpt lat="44.10252" lon="6.22975">
        <ele>629.40002441406</ele>
        <time>2021-09-02T12:48:14Z</time>
      </trkpt>
      <trkpt lat="44.10226" lon="6.22995">
        <ele>629</ele>
        <time>2021-09-02T12:48:20Z</time>
      </trkpt>
      <trkpt lat="44.10193" lon="6.23019">
        <ele>628.79998779297</ele>
        <time>2021-09-02T12:48:27Z</time>
      </trkpt>
      <trkpt lat="44.10154" lon="6.2305">
        <ele>628.59997558594</ele>
        <time>2021-09-02T12:48:34Z</time>
      </trkpt>
      <trkpt lat="44.10126" lon="6.2307">
        <ele>628.20001220703</ele>
        <time>2021-09-02T12:48:39Z</time>
      </trkpt>
      <trkpt lat="44.10076" lon="6.2311">
        <ele>627.59997558594</ele>
        <time>2021-09-02T12:48:48Z</time>
      </trkpt>
      <trkpt lat="44.10064" lon="6.23118">
        <ele>627.40002441406</ele>
        <time>2021-09-02T12:48:50Z</time>
      </trkpt>
      <trkpt lat="44.1002" lon="6.23152">
        <ele>626.79998779297</ele>
        <time>2021-09-02T12:48:58Z</time>
      </trkpt>
      <trkpt lat="44.09993" lon="6.23174">
        <ele>626.40002441406</ele>
        <time>2021-09-02T12:49:03Z</time>
      </trkpt>
      <trkpt lat="44.09971" lon="6.23191">
        <ele>626.40002441406</ele>
        <time>2021-09-02T12:49:07Z</time>
      </trkpt>
      <trkpt lat="44.0993" lon="6.23223">
        <ele>625.40002441406</ele>
        <time>2021-09-02T12:49:15Z</time>
      </trkpt>
      <trkpt lat="44.09924" lon="6.23227">
        <ele>625.40002441406</ele>
        <time>2021-09-02T12:49:16Z</time>
      </trkpt>
      <trkpt lat="44.09881" lon="6.23261">
        <ele>624.40002441406</ele>
        <time>2021-09-02T12:49:24Z</time>
      </trkpt>
      <trkpt lat="44.09876" lon="6.23265">
        <ele>624.40002441406</ele>
        <time>2021-09-02T12:49:25Z</time>
      </trkpt>
      <trkpt lat="44.09838" lon="6.23293">
        <ele>623.59997558594</ele>
        <time>2021-09-02T12:49:32Z</time>
      </trkpt>
      <trkpt lat="44.09817" lon="6.2331">
        <ele>623.20001220703</ele>
        <time>2021-09-02T12:49:36Z</time>
      </trkpt>
      <trkpt lat="44.09795" lon="6.23326">
        <ele>623.20001220703</ele>
        <time>2021-09-02T12:49:40Z</time>
      </trkpt>
      <trkpt lat="44.09745" lon="6.23364">
        <ele>623.40002441406</ele>
        <time>2021-09-02T12:49:49Z</time>
      </trkpt>
      <trkpt lat="44.09735" lon="6.23372">
        <ele>623.40002441406</ele>
        <time>2021-09-02T12:49:51Z</time>
      </trkpt>
      <trkpt lat="44.09703" lon="6.23396">
        <ele>623</ele>
        <time>2021-09-02T12:49:57Z</time>
      </trkpt>
      <trkpt lat="44.09658" lon="6.2343">
        <ele>623.20001220703</ele>
        <time>2021-09-02T12:50:05Z</time>
      </trkpt>
      <trkpt lat="44.09621" lon="6.23459">
        <ele>623.40002441406</ele>
        <time>2021-09-02T12:50:12Z</time>
      </trkpt>
      <trkpt lat="44.09569" lon="6.23498">
        <ele>623.40002441406</ele>
        <time>2021-09-02T12:50:22Z</time>
      </trkpt>
      <trkpt lat="44.09564" lon="6.23502">
        <ele>623.40002441406</ele>
        <time>2021-09-02T12:50:23Z</time>
      </trkpt>
      <trkpt lat="44.09519" lon="6.23537">
        <ele>623.20001220703</ele>
        <time>2021-09-02T12:50:32Z</time>
      </trkpt>
      <trkpt lat="44.09473" lon="6.23573">
        <ele>623.20001220703</ele>
        <time>2021-09-02T12:50:41Z</time>
      </trkpt>
      <trkpt lat="44.09439" lon="6.23599">
        <ele>623.20001220703</ele>
        <time>2021-09-02T12:50:48Z</time>
      </trkpt>
      <trkpt lat="44.09408" lon="6.23622">
        <ele>623.20001220703</ele>
        <time>2021-09-02T12:50:55Z</time>
      </trkpt>
      <trkpt lat="44.09384" lon="6.23642">
        <ele>623.20001220703</ele>
        <time>2021-09-02T12:51:02Z</time>
      </trkpt>
      <trkpt lat="44.09373" lon="6.2365">
        <ele>623.20001220703</ele>
        <time>2021-09-02T12:51:05Z</time>
      </trkpt>
      <trkpt lat="44.09368" lon="6.23659">
        <ele>623.20001220703</ele>
        <time>2021-09-02T12:51:07Z</time>
      </trkpt>
      <trkpt lat="44.09369" lon="6.23678">
        <ele>623.20001220703</ele>
        <time>2021-09-02T12:51:11Z</time>
      </trkpt>
      <trkpt lat="44.09368" lon="6.23696">
        <ele>623.40002441406</ele>
        <time>2021-09-02T12:51:15Z</time>
      </trkpt>
      <trkpt lat="44.09359" lon="6.23708">
        <ele>623.20001220703</ele>
        <time>2021-09-02T12:51:19Z</time>
      </trkpt>
      <trkpt lat="44.09356" lon="6.2371">
        <ele>623.20001220703</ele>
        <time>2021-09-02T12:51:20Z</time>
      </trkpt>
      <trkpt lat="44.09352" lon="6.23718">
        <ele>622.59997558594</ele>
        <time>2021-09-02T12:51:25Z</time>
      </trkpt>
      <trkpt lat="44.09355" lon="6.23724">
        <ele>622.40002441406</ele>
        <time>2021-09-02T12:52:12Z</time>
      </trkpt>
      <trkpt lat="44.09357" lon="6.23726">
        <ele>622.40002441406</ele>
        <time>2021-09-02T12:52:13Z</time>
      </trkpt>
      <trkpt lat="44.09362" lon="6.23741">
        <ele>622.40002441406</ele>
        <time>2021-09-02T12:52:17Z</time>
      </trkpt>
      <trkpt lat="44.09364" lon="6.23745">
        <ele>622.40002441406</ele>
        <time>2021-09-02T12:52:18Z</time>
      </trkpt>
      <trkpt lat="44.09373" lon="6.23767">
        <ele>623</ele>
        <time>2021-09-02T12:52:24Z</time>
      </trkpt>
      <trkpt lat="44.09384" lon="6.23792">
        <ele>623.59997558594</ele>
        <time>2021-09-02T12:52:31Z</time>
      </trkpt>
      <trkpt lat="44.09393" lon="6.23816">
        <ele>624.20001220703</ele>
        <time>2021-09-02T12:52:39Z</time>
      </trkpt>
      <trkpt lat="44.09394" lon="6.23818">
        <ele>624.40002441406</ele>
        <time>2021-09-02T12:52:40Z</time>
      </trkpt>
      <trkpt lat="44.09396" lon="6.23822">
        <ele>624.59997558594</ele>
        <time>2021-09-02T12:52:43Z</time>
      </trkpt>
      <trkpt lat="44.09397" lon="6.23821">
        <ele>624.79998779297</ele>
        <time>2021-09-02T12:52:44Z</time>
      </trkpt>
      <trkpt lat="44.09393" lon="6.2381">
        <ele>625</ele>
        <time>2021-09-02T12:52:48Z</time>
      </trkpt>
      <trkpt lat="44.09391" lon="6.23807">
        <ele>625</ele>
        <time>2021-09-02T12:52:49Z</time>
      </trkpt>
      <trkpt lat="44.09382" lon="6.23783">
        <ele>624.59997558594</ele>
        <time>2021-09-02T12:52:54Z</time>
      </trkpt>
      <trkpt lat="44.0938" lon="6.23778">
        <ele>624.59997558594</ele>
        <time>2021-09-02T12:52:55Z</time>
      </trkpt>
      <trkpt lat="44.09373" lon="6.23759">
        <ele>624.20001220703</ele>
        <time>2021-09-02T12:52:59Z</time>
      </trkpt>
      <trkpt lat="44.09362" lon="6.23732">
        <ele>623.40002441406</ele>
        <time>2021-09-02T12:53:06Z</time>
      </trkpt>
      <trkpt lat="44.09353" lon="6.23721">
        <ele>622.79998779297</ele>
        <time>2021-09-02T12:53:10Z</time>
      </trkpt>
      <trkpt lat="44.09351" lon="6.23721">
        <ele>622.59997558594</ele>
        <time>2021-09-02T12:53:11Z</time>
      </trkpt>
      <trkpt lat="44.09343" lon="6.23728">
        <ele>622.40002441406</ele>
        <time>2021-09-02T12:53:14Z</time>
      </trkpt>
      <trkpt lat="44.09341" lon="6.23729">
        <ele>622.40002441406</ele>
        <time>2021-09-02T12:53:15Z</time>
      </trkpt>
      <trkpt lat="44.09321" lon="6.23748">
        <ele>623.20001220703</ele>
        <time>2021-09-02T12:53:24Z</time>
      </trkpt>
      <trkpt lat="44.09311" lon="6.23747">
        <ele>623.79998779297</ele>
        <time>2021-09-02T12:53:29Z</time>
      </trkpt>
      <trkpt lat="44.09302" lon="6.23729">
        <ele>624.40002441406</ele>
        <time>2021-09-02T12:53:34Z</time>
      </trkpt>
      <trkpt lat="44.09291" lon="6.23706">
        <ele>624</ele>
        <time>2021-09-02T12:53:40Z</time>
      </trkpt>
      <trkpt lat="44.09282" lon="6.23682">
        <ele>623.79998779297</ele>
        <time>2021-09-02T12:53:46Z</time>
      </trkpt>
      <trkpt lat="44.09274" lon="6.23659">
        <ele>623.79998779297</ele>
        <time>2021-09-02T12:53:52Z</time>
      </trkpt>
      <trkpt lat="44.0927" lon="6.23647">
        <ele>624.20001220703</ele>
        <time>2021-09-02T12:53:58Z</time>
      </trkpt>
      <trkpt lat="44.09269" lon="6.23645">
        <ele>624.59997558594</ele>
        <time>2021-09-02T12:53:59Z</time>
      </trkpt>
      <trkpt lat="44.09263" lon="6.23635">
        <ele>625.59997558594</ele>
        <time>2021-09-02T12:54:05Z</time>
      </trkpt>
      <trkpt lat="44.09263" lon="6.23634">
        <ele>625.79998779297</ele>
        <time>2021-09-02T12:54:06Z</time>
      </trkpt>
      <trkpt lat="44.09258" lon="6.23621">
        <ele>626.79998779297</ele>
        <time>2021-09-02T12:54:12Z</time>
      </trkpt>
      <trkpt lat="44.09256" lon="6.2362">
        <ele>627</ele>
        <time>2021-09-02T12:54:13Z</time>
      </trkpt>
      <trkpt lat="44.09255" lon="6.23621">
        <ele>627.20001220703</ele>
        <time>2021-09-02T12:54:14Z</time>
      </trkpt>
      <trkpt lat="44.09252" lon="6.23625">
        <ele>627.59997558594</ele>
        <time>2021-09-02T12:54:17Z</time>
      </trkpt>
      <trkpt lat="44.09252" lon="6.23627">
        <ele>627.79998779297</ele>
        <time>2021-09-02T12:54:18Z</time>
      </trkpt>
      <trkpt lat="44.09252" lon="6.23629">
        <ele>628</ele>
        <time>2021-09-02T12:54:19Z</time>
      </trkpt>
      <trkpt lat="44.09249" lon="6.23635">
        <ele>628.40002441406</ele>
        <time>2021-09-02T12:54:22Z</time>
      </trkpt>
      <trkpt lat="44.09244" lon="6.23641">
        <ele>629</ele>
        <time>2021-09-02T12:54:25Z</time>
      </trkpt>
      <trkpt lat="44.09239" lon="6.23645">
        <ele>629.59997558594</ele>
        <time>2021-09-02T12:54:28Z</time>
      </trkpt>
      <trkpt lat="44.09234" lon="6.23652">
        <ele>630</ele>
        <time>2021-09-02T12:54:32Z</time>
      </trkpt>
      <trkpt lat="44.09232" lon="6.23656">
        <ele>630</ele>
        <time>2021-09-02T12:54:34Z</time>
      </trkpt>
      <trkpt lat="44.09232" lon="6.23674">
        <ele>630.40002441406</ele>
        <time>2021-09-02T12:54:40Z</time>
      </trkpt>
      <trkpt lat="44.09235" lon="6.23681">
        <ele>630.40002441406</ele>
        <time>2021-09-02T12:54:43Z</time>
      </trkpt>
      <trkpt lat="44.09236" lon="6.23684">
        <ele>630.40002441406</ele>
        <time>2021-09-02T12:54:44Z</time>
      </trkpt>
      <trkpt lat="44.09238" lon="6.23695">
        <ele>630.20001220703</ele>
        <time>2021-09-02T12:54:48Z</time>
      </trkpt>
      <trkpt lat="44.09239" lon="6.23698">
        <ele>630.20001220703</ele>
        <time>2021-09-02T12:54:49Z</time>
      </trkpt>
      <trkpt lat="44.09242" lon="6.23708">
        <ele>630.20001220703</ele>
        <time>2021-09-02T12:54:55Z</time>
      </trkpt>
      <trkpt lat="44.0924" lon="6.2372">
        <ele>630.40002441406</ele>
        <time>2021-09-02T12:55:08Z</time>
      </trkpt>
      <trkpt lat="44.0923" lon="6.2372">
        <ele>630</ele>
        <time>2021-09-02T12:55:12Z</time>
      </trkpt>
      <trkpt lat="44.09221" lon="6.23713">
        <ele>629.20001220703</ele>
        <time>2021-09-02T12:55:15Z</time>
      </trkpt>
      <trkpt lat="44.09217" lon="6.2371">
        <ele>628.79998779297</ele>
        <time>2021-09-02T12:55:17Z</time>
      </trkpt>
      <trkpt lat="44.09217" lon="6.23704">
        <ele>628.59997558594</ele>
        <time>2021-09-02T12:55:18Z</time>
      </trkpt>
      <trkpt lat="44.09215" lon="6.23701">
        <ele>628.40002441406</ele>
        <time>2021-09-02T12:55:19Z</time>
      </trkpt>
      <trkpt lat="44.09205" lon="6.23685">
        <ele>627.79998779297</ele>
        <time>2021-09-02T12:55:23Z</time>
      </trkpt>
      <trkpt lat="44.09201" lon="6.23677">
        <ele>627.59997558594</ele>
        <time>2021-09-02T12:55:25Z</time>
      </trkpt>
      <trkpt lat="44.09194" lon="6.2367">
        <ele>627.40002441406</ele>
        <time>2021-09-02T12:55:28Z</time>
      </trkpt>
      <trkpt lat="44.0919" lon="6.23673">
        <ele>627.40002441406</ele>
        <time>2021-09-02T12:55:30Z</time>
      </trkpt>
      <trkpt lat="44.09188" lon="6.23685">
        <ele>627.20001220703</ele>
        <time>2021-09-02T12:55:33Z</time>
      </trkpt>
      <trkpt lat="44.09193" lon="6.23692">
        <ele>626.40002441406</ele>
        <time>2021-09-02T12:55:35Z</time>
      </trkpt>
      <trkpt lat="44.09196" lon="6.23694">
        <ele>626.20001220703</ele>
        <time>2021-09-02T12:55:36Z</time>
      </trkpt>
      <trkpt lat="44.09205" lon="6.2371">
        <ele>626.20001220703</ele>
        <time>2021-09-02T12:55:41Z</time>
      </trkpt>
      <trkpt lat="44.09201" lon="6.23719">
        <ele>625.79998779297</ele>
        <time>2021-09-02T12:55:45Z</time>
      </trkpt>
      <trkpt lat="44.09199" lon="6.23719">
        <ele>625.79998779297</ele>
        <time>2021-09-02T12:55:46Z</time>
      </trkpt>
      <trkpt lat="44.092" lon="6.23722">
        <ele>624.59997558594</ele>
        <time>2021-09-02T12:56:21Z</time>
      </trkpt>
      <trkpt lat="44.092" lon="6.23722">
        <ele>624.59997558594</ele>
        <time>2021-09-02T12:56:22Z</time>
      </trkpt>
      <trkpt lat="44.09198" lon="6.23719">
        <ele>624.59997558594</ele>
        <time>2021-09-02T12:56:24Z</time>
      </trkpt>
      <trkpt lat="44.09192" lon="6.23717">
        <ele>624.59997558594</ele>
        <time>2021-09-02T12:56:26Z</time>
      </trkpt>
      <trkpt lat="44.09175" lon="6.23707">
        <ele>624.59997558594</ele>
        <time>2021-09-02T12:56:31Z</time>
      </trkpt>
      <trkpt lat="44.0917" lon="6.23705">
        <ele>624.20001220703</ele>
        <time>2021-09-02T12:56:37Z</time>
      </trkpt>
      <trkpt lat="44.09176" lon="6.23711">
        <ele>624</ele>
        <time>2021-09-02T12:56:40Z</time>
      </trkpt>
      <trkpt lat="44.09181" lon="6.23712">
        <ele>624</ele>
        <time>2021-09-02T12:56:44Z</time>
      </trkpt>
      <trkpt lat="44.09177" lon="6.23709">
        <ele>624</ele>
        <time>2021-09-02T12:56:47Z</time>
      </trkpt>
      <trkpt lat="44.09172" lon="6.23705">
        <ele>624.20001220703</ele>
        <time>2021-09-02T12:56:49Z</time>
      </trkpt>
      <trkpt lat="44.09152" lon="6.23691">
        <ele>624</ele>
        <time>2021-09-02T12:56:55Z</time>
      </trkpt>
      <trkpt lat="44.09148" lon="6.23692">
        <ele>623.79998779297</ele>
        <time>2021-09-02T12:56:56Z</time>
      </trkpt>
      <trkpt lat="44.0914" lon="6.23694">
        <ele>623.79998779297</ele>
        <time>2021-09-02T12:56:58Z</time>
      </trkpt>
      <trkpt lat="44.09131" lon="6.23696">
        <ele>623.79998779297</ele>
        <time>2021-09-02T12:57:00Z</time>
      </trkpt>
      <trkpt lat="44.0911" lon="6.23698">
        <ele>623.79998779297</ele>
        <time>2021-09-02T12:57:05Z</time>
      </trkpt>
      <trkpt lat="44.091" lon="6.23697">
        <ele>623.79998779297</ele>
        <time>2021-09-02T12:57:07Z</time>
      </trkpt>
      <trkpt lat="44.09083" lon="6.23699">
        <ele>623.79998779297</ele>
        <time>2021-09-02T12:57:11Z</time>
      </trkpt>
      <trkpt lat="44.09055" lon="6.23697">
        <ele>623.59997558594</ele>
        <time>2021-09-02T12:57:18Z</time>
      </trkpt>
      <trkpt lat="44.09055" lon="6.23699">
        <ele>623.59997558594</ele>
        <time>2021-09-02T12:57:19Z</time>
      </trkpt>
      <trkpt lat="44.09058" lon="6.23702">
        <ele>623.59997558594</ele>
        <time>2021-09-02T12:57:21Z</time>
      </trkpt>
      <trkpt lat="44.09063" lon="6.2371">
        <ele>623.59997558594</ele>
        <time>2021-09-02T12:57:24Z</time>
      </trkpt>
      <trkpt lat="44.09063" lon="6.23718">
        <ele>623.59997558594</ele>
        <time>2021-09-02T12:57:26Z</time>
      </trkpt>
      <trkpt lat="44.09064" lon="6.23752">
        <ele>623.40002441406</ele>
        <time>2021-09-02T12:57:33Z</time>
      </trkpt>
      <trkpt lat="44.09066" lon="6.23787">
        <ele>623.59997558594</ele>
        <time>2021-09-02T12:57:39Z</time>
      </trkpt>
      <trkpt lat="44.09066" lon="6.23798">
        <ele>623.59997558594</ele>
        <time>2021-09-02T12:57:41Z</time>
      </trkpt>
      <trkpt lat="44.09067" lon="6.23841">
        <ele>623.79998779297</ele>
        <time>2021-09-02T12:57:49Z</time>
      </trkpt>
      <trkpt lat="44.09065" lon="6.23877">
        <ele>624</ele>
        <time>2021-09-02T12:57:56Z</time>
      </trkpt>
      <trkpt lat="44.09057" lon="6.23896">
        <ele>624.20001220703</ele>
        <time>2021-09-02T12:58:00Z</time>
      </trkpt>
      <trkpt lat="44.09059" lon="6.23906">
        <ele>624.20001220703</ele>
        <time>2021-09-02T12:58:02Z</time>
      </trkpt>
      <trkpt lat="44.09061" lon="6.2391">
        <ele>624.20001220703</ele>
        <time>2021-09-02T12:58:03Z</time>
      </trkpt>
      <trkpt lat="44.09068" lon="6.23943">
        <ele>624.59997558594</ele>
        <time>2021-09-02T12:58:10Z</time>
      </trkpt>
      <trkpt lat="44.0907" lon="6.23978">
        <ele>625</ele>
        <time>2021-09-02T12:58:17Z</time>
      </trkpt>
      <trkpt lat="44.0907" lon="6.24003">
        <ele>625.40002441406</ele>
        <time>2021-09-02T12:58:22Z</time>
      </trkpt>
      <trkpt lat="44.09069" lon="6.24017">
        <ele>625.59997558594</ele>
        <time>2021-09-02T12:58:25Z</time>
      </trkpt>
      <trkpt lat="44.09066" lon="6.24035">
        <ele>626</ele>
        <time>2021-09-02T12:58:29Z</time>
      </trkpt>
      <trkpt lat="44.09054" lon="6.24044">
        <ele>626.20001220703</ele>
        <time>2021-09-02T12:58:33Z</time>
      </trkpt>
      <trkpt lat="44.09023" lon="6.24052">
        <ele>626.59997558594</ele>
        <time>2021-09-02T12:58:40Z</time>
      </trkpt>
      <trkpt lat="44.08993" lon="6.24058">
        <ele>626.59997558594</ele>
        <time>2021-09-02T12:58:48Z</time>
      </trkpt>
      <trkpt lat="44.08991" lon="6.24061">
        <ele>626.59997558594</ele>
        <time>2021-09-02T12:58:49Z</time>
      </trkpt>
      <trkpt lat="44.08994" lon="6.24066">
        <ele>626.59997558594</ele>
        <time>2021-09-02T12:58:51Z</time>
      </trkpt>
      <trkpt lat="44.09001" lon="6.24079">
        <ele>626.59997558594</ele>
        <time>2021-09-02T12:58:56Z</time>
      </trkpt>
      <trkpt lat="44.09003" lon="6.24082">
        <ele>626.59997558594</ele>
        <time>2021-09-02T12:58:57Z</time>
      </trkpt>
      <trkpt lat="44.09004" lon="6.24086">
        <ele>626.79998779297</ele>
        <time>2021-09-02T12:58:58Z</time>
      </trkpt>
      <trkpt lat="44.09016" lon="6.24105">
        <ele>627</ele>
        <time>2021-09-02T12:59:04Z</time>
      </trkpt>
      <trkpt lat="44.09024" lon="6.2412">
        <ele>627.20001220703</ele>
        <time>2021-09-02T12:59:11Z</time>
      </trkpt>
      <trkpt lat="44.09025" lon="6.24124">
        <ele>627.40002441406</ele>
        <time>2021-09-02T13:00:43Z</time>
      </trkpt>
      <trkpt lat="44.09027" lon="6.24128">
        <ele>627.40002441406</ele>
        <time>2021-09-02T13:00:45Z</time>
      </trkpt>
      <trkpt lat="44.09036" lon="6.24149">
        <ele>627.40002441406</ele>
        <time>2021-09-02T13:00:51Z</time>
      </trkpt>
      <trkpt lat="44.09046" lon="6.24179">
        <ele>627.79998779297</ele>
        <time>2021-09-02T13:00:58Z</time>
      </trkpt>
      <trkpt lat="44.0905" lon="6.24188">
        <ele>627.79998779297</ele>
        <time>2021-09-02T13:01:00Z</time>
      </trkpt>
      <trkpt lat="44.09065" lon="6.24217">
        <ele>628.20001220703</ele>
        <time>2021-09-02T13:01:07Z</time>
      </trkpt>
      <trkpt lat="44.09086" lon="6.24259">
        <ele>628.79998779297</ele>
        <time>2021-09-02T13:01:17Z</time>
      </trkpt>
      <trkpt lat="44.09107" lon="6.243">
        <ele>629.40002441406</ele>
        <time>2021-09-02T13:01:28Z</time>
      </trkpt>
      <trkpt lat="44.09118" lon="6.2432">
        <ele>630</ele>
        <time>2021-09-02T13:01:34Z</time>
      </trkpt>
      <trkpt lat="44.09119" lon="6.24323">
        <ele>630</ele>
        <time>2021-09-02T13:01:35Z</time>
      </trkpt>
      <trkpt lat="44.0912" lon="6.24348">
        <ele>631</ele>
        <time>2021-09-02T13:01:42Z</time>
      </trkpt>
      <trkpt lat="44.09118" lon="6.24375">
        <ele>632</ele>
        <time>2021-09-02T13:01:50Z</time>
      </trkpt>
      <trkpt lat="44.09115" lon="6.24397">
        <ele>633.20001220703</ele>
        <time>2021-09-02T13:01:57Z</time>
      </trkpt>
      <trkpt lat="44.09115" lon="6.244">
        <ele>633.20001220703</ele>
        <time>2021-09-02T13:01:58Z</time>
      </trkpt>
      <trkpt lat="44.09106" lon="6.24424">
        <ele>634</ele>
        <time>2021-09-02T13:02:05Z</time>
      </trkpt>
      <trkpt lat="44.09099" lon="6.24435">
        <ele>633.79998779297</ele>
        <time>2021-09-02T13:02:10Z</time>
      </trkpt>
      <trkpt lat="44.09096" lon="6.2444">
        <ele>633.79998779297</ele>
        <time>2021-09-02T13:02:12Z</time>
      </trkpt>
      <trkpt lat="44.09094" lon="6.24446">
        <ele>633.59997558594</ele>
        <time>2021-09-02T13:02:14Z</time>
      </trkpt>
      <trkpt lat="44.09092" lon="6.24449">
        <ele>633.40002441406</ele>
        <time>2021-09-02T13:02:15Z</time>
      </trkpt>
      <trkpt lat="44.09084" lon="6.2446">
        <ele>633.20001220703</ele>
        <time>2021-09-02T13:02:18Z</time>
      </trkpt>
      <trkpt lat="44.09079" lon="6.24469">
        <ele>633.20001220703</ele>
        <time>2021-09-02T13:02:20Z</time>
      </trkpt>
      <trkpt lat="44.09073" lon="6.24487">
        <ele>633</ele>
        <time>2021-09-02T13:02:23Z</time>
      </trkpt>
      <trkpt lat="44.09071" lon="6.24493">
        <ele>632.79998779297</ele>
        <time>2021-09-02T13:02:24Z</time>
      </trkpt>
      <trkpt lat="44.09069" lon="6.24514">
        <ele>632.59997558594</ele>
        <time>2021-09-02T13:02:27Z</time>
      </trkpt>
      <trkpt lat="44.0907" lon="6.24528">
        <ele>632.40002441406</ele>
        <time>2021-09-02T13:02:29Z</time>
      </trkpt>
      <trkpt lat="44.09071" lon="6.2455">
        <ele>632.20001220703</ele>
        <time>2021-09-02T13:02:32Z</time>
      </trkpt>
      <trkpt lat="44.09071" lon="6.24557">
        <ele>632</ele>
        <time>2021-09-02T13:02:33Z</time>
      </trkpt>
      <trkpt lat="44.09067" lon="6.24576">
        <ele>632</ele>
        <time>2021-09-02T13:02:36Z</time>
      </trkpt>
      <trkpt lat="44.09065" lon="6.24582">
        <ele>632</ele>
        <time>2021-09-02T13:02:37Z</time>
      </trkpt>
      <trkpt lat="44.09063" lon="6.24587">
        <ele>632</ele>
        <time>2021-09-02T13:02:38Z</time>
      </trkpt>
      <trkpt lat="44.09055" lon="6.24602">
        <ele>632</ele>
        <time>2021-09-02T13:02:41Z</time>
      </trkpt>
      <trkpt lat="44.09031" lon="6.2465">
        <ele>632.59997558594</ele>
        <time>2021-09-02T13:02:51Z</time>
      </trkpt>
      <trkpt lat="44.09016" lon="6.24683">
        <ele>633.20001220703</ele>
        <time>2021-09-02T13:02:58Z</time>
      </trkpt>
      <trkpt lat="44.09014" lon="6.24687">
        <ele>633.20001220703</ele>
        <time>2021-09-02T13:02:59Z</time>
      </trkpt>
      <trkpt lat="44.09" lon="6.24718">
        <ele>633.79998779297</ele>
        <time>2021-09-02T13:03:06Z</time>
      </trkpt>
      <trkpt lat="44.0899" lon="6.24746">
        <ele>634.20001220703</ele>
        <time>2021-09-02T13:03:12Z</time>
      </trkpt>
      <trkpt lat="44.08989" lon="6.2475">
        <ele>634.20001220703</ele>
        <time>2021-09-02T13:03:13Z</time>
      </trkpt>
      <trkpt lat="44.08986" lon="6.24788">
        <ele>634.59997558594</ele>
        <time>2021-09-02T13:03:20Z</time>
      </trkpt>
      <trkpt lat="44.08986" lon="6.24831">
        <ele>634.79998779297</ele>
        <time>2021-09-02T13:03:28Z</time>
      </trkpt>
      <trkpt lat="44.08977" lon="6.24864">
        <ele>635.40002441406</ele>
        <time>2021-09-02T13:03:35Z</time>
      </trkpt>
      <trkpt lat="44.08955" lon="6.24892">
        <ele>636</ele>
        <time>2021-09-02T13:03:43Z</time>
      </trkpt>
      <trkpt lat="44.08942" lon="6.24902">
        <ele>636.40002441406</ele>
        <time>2021-09-02T13:03:47Z</time>
      </trkpt>
      <trkpt lat="44.0893" lon="6.24907">
        <ele>636.40002441406</ele>
        <time>2021-09-02T13:03:50Z</time>
      </trkpt>
      <trkpt lat="44.089" lon="6.24922">
        <ele>637</ele>
        <time>2021-09-02T13:03:59Z</time>
      </trkpt>
      <trkpt lat="44.08885" lon="6.24931">
        <ele>637.40002441406</ele>
        <time>2021-09-02T13:04:04Z</time>
      </trkpt>
      <trkpt lat="44.08878" lon="6.24934">
        <ele>637.40002441406</ele>
        <time>2021-09-02T13:04:06Z</time>
      </trkpt>
      <trkpt lat="44.08852" lon="6.24947">
        <ele>638.20001220703</ele>
        <time>2021-09-02T13:04:15Z</time>
      </trkpt>
      <trkpt lat="44.08847" lon="6.24949">
        <ele>638.40002441406</ele>
        <time>2021-09-02T13:04:17Z</time>
      </trkpt>
      <trkpt lat="44.08843" lon="6.24952">
        <ele>638.59997558594</ele>
        <time>2021-09-02T13:04:20Z</time>
      </trkpt>
      <trkpt lat="44.08834" lon="6.24957">
        <ele>638.79998779297</ele>
        <time>2021-09-02T13:04:25Z</time>
      </trkpt>
      <trkpt lat="44.08814" lon="6.24967">
        <ele>639.20001220703</ele>
        <time>2021-09-02T13:04:32Z</time>
      </trkpt>
      <trkpt lat="44.08805" lon="6.24971">
        <ele>639.40002441406</ele>
        <time>2021-09-02T13:04:35Z</time>
      </trkpt>
      <trkpt lat="44.08789" lon="6.24979">
        <ele>640.20001220703</ele>
        <time>2021-09-02T13:04:41Z</time>
      </trkpt>
      <trkpt lat="44.08784" lon="6.24982">
        <ele>640.59997558594</ele>
        <time>2021-09-02T13:04:43Z</time>
      </trkpt>
      <trkpt lat="44.08768" lon="6.24991">
        <ele>641.59997558594</ele>
        <time>2021-09-02T13:04:50Z</time>
      </trkpt>
      <trkpt lat="44.08756" lon="6.25003">
        <ele>642.59997558594</ele>
        <time>2021-09-02T13:04:56Z</time>
      </trkpt>
      <trkpt lat="44.08755" lon="6.25006">
        <ele>642.79998779297</ele>
        <time>2021-09-02T13:04:57Z</time>
      </trkpt>
      <trkpt lat="44.08742" lon="6.25029">
        <ele>643.59997558594</ele>
        <time>2021-09-02T13:05:04Z</time>
      </trkpt>
      <trkpt lat="44.08724" lon="6.2505">
        <ele>643.79998779297</ele>
        <time>2021-09-02T13:05:11Z</time>
      </trkpt>
      <trkpt lat="44.08702" lon="6.25072">
        <ele>644.40002441406</ele>
        <time>2021-09-02T13:05:20Z</time>
      </trkpt>
      <trkpt lat="44.08694" lon="6.25079">
        <ele>644.59997558594</ele>
        <time>2021-09-02T13:05:23Z</time>
      </trkpt>
      <trkpt lat="44.08684" lon="6.25087">
        <ele>645</ele>
        <time>2021-09-02T13:05:27Z</time>
      </trkpt>
      <trkpt lat="44.0867" lon="6.25095">
        <ele>645.40002441406</ele>
        <time>2021-09-02T13:05:33Z</time>
      </trkpt>
      <trkpt lat="44.08667" lon="6.25094">
        <ele>645.40002441406</ele>
        <time>2021-09-02T13:05:34Z</time>
      </trkpt>
      <trkpt lat="44.08661" lon="6.2508">
        <ele>645.59997558594</ele>
        <time>2021-09-02T13:05:38Z</time>
      </trkpt>
      <trkpt lat="44.08654" lon="6.25063">
        <ele>645</ele>
        <time>2021-09-02T13:05:44Z</time>
      </trkpt>
      <trkpt lat="44.08652" lon="6.25063">
        <ele>644.59997558594</ele>
        <time>2021-09-02T13:05:45Z</time>
      </trkpt>
      <trkpt lat="44.08657" lon="6.25059">
        <ele>643.20001220703</ele>
        <time>2021-09-02T13:07:21Z</time>
      </trkpt>
      <trkpt lat="44.08658" lon="6.25047">
        <ele>643.20001220703</ele>
        <time>2021-09-02T13:07:25Z</time>
      </trkpt>
      <trkpt lat="44.08657" lon="6.25037">
        <ele>643.20001220703</ele>
        <time>2021-09-02T13:07:28Z</time>
      </trkpt>
      <trkpt lat="44.08657" lon="6.2503">
        <ele>643.20001220703</ele>
        <time>2021-09-02T13:07:30Z</time>
      </trkpt>
      <trkpt lat="44.08658" lon="6.2502">
        <ele>643</ele>
        <time>2021-09-02T13:10:00Z</time>
      </trkpt>
      <trkpt lat="44.08659" lon="6.25026">
        <ele>643</ele>
        <time>2021-09-02T13:10:02Z</time>
      </trkpt>
      <trkpt lat="44.08658" lon="6.25037">
        <ele>643</ele>
        <time>2021-09-02T13:10:05Z</time>
      </trkpt>
      <trkpt lat="44.08658" lon="6.25043">
        <ele>643</ele>
        <time>2021-09-02T13:10:07Z</time>
      </trkpt>
      <trkpt lat="44.08659" lon="6.25059">
        <ele>643.20001220703</ele>
        <time>2021-09-02T13:10:13Z</time>
      </trkpt>
      <trkpt lat="44.08657" lon="6.25066">
        <ele>643.20001220703</ele>
        <time>2021-09-02T13:10:16Z</time>
      </trkpt>
      <trkpt lat="44.08659" lon="6.25072">
        <ele>643.20001220703</ele>
        <time>2021-09-02T13:10:18Z</time>
      </trkpt>
      <trkpt lat="44.0866" lon="6.25076">
        <ele>643.40002441406</ele>
        <time>2021-09-02T13:10:20Z</time>
      </trkpt>
      <trkpt lat="44.08665" lon="6.25084">
        <ele>644.40002441406</ele>
        <time>2021-09-02T13:10:24Z</time>
      </trkpt>
      <trkpt lat="44.08666" lon="6.25089">
        <ele>644.79998779297</ele>
        <time>2021-09-02T13:10:26Z</time>
      </trkpt>
      <trkpt lat="44.08668" lon="6.25097">
        <ele>645.20001220703</ele>
        <time>2021-09-02T13:10:29Z</time>
      </trkpt>
      <trkpt lat="44.08667" lon="6.25099">
        <ele>645.40002441406</ele>
        <time>2021-09-02T13:10:30Z</time>
      </trkpt>
      <trkpt lat="44.08666" lon="6.25102">
        <ele>645.59997558594</ele>
        <time>2021-09-02T13:10:31Z</time>
      </trkpt>
      <trkpt lat="44.08664" lon="6.25103">
        <ele>645.59997558594</ele>
        <time>2021-09-02T13:10:32Z</time>
      </trkpt>
      <trkpt lat="44.08653" lon="6.25111">
        <ele>646.20001220703</ele>
        <time>2021-09-02T13:10:37Z</time>
      </trkpt>
      <trkpt lat="44.08647" lon="6.25117">
        <ele>646.40002441406</ele>
        <time>2021-09-02T13:10:40Z</time>
      </trkpt>
      <trkpt lat="44.08632" lon="6.25129">
        <ele>647</ele>
        <time>2021-09-02T13:10:47Z</time>
      </trkpt>
      <trkpt lat="44.08621" lon="6.25139">
        <ele>647.40002441406</ele>
        <time>2021-09-02T13:10:52Z</time>
      </trkpt>
      <trkpt lat="44.08613" lon="6.25148">
        <ele>647.79998779297</ele>
        <time>2021-09-02T13:10:56Z</time>
      </trkpt>
      <trkpt lat="44.08595" lon="6.25165">
        <ele>648.20001220703</ele>
        <time>2021-09-02T13:11:04Z</time>
      </trkpt>
      <trkpt lat="44.08586" lon="6.25172">
        <ele>648.40002441406</ele>
        <time>2021-09-02T13:11:08Z</time>
      </trkpt>
      <trkpt lat="44.08579" lon="6.25178">
        <ele>648.79998779297</ele>
        <time>2021-09-02T13:11:11Z</time>
      </trkpt>
      <trkpt lat="44.08564" lon="6.25192">
        <ele>649.59997558594</ele>
        <time>2021-09-02T13:11:18Z</time>
      </trkpt>
      <trkpt lat="44.08546" lon="6.25209">
        <ele>650.20001220703</ele>
        <time>2021-09-02T13:11:26Z</time>
      </trkpt>
      <trkpt lat="44.08533" lon="6.25222">
        <ele>650.59997558594</ele>
        <time>2021-09-02T13:11:32Z</time>
      </trkpt>
      <trkpt lat="44.08528" lon="6.25226">
        <ele>650.79998779297</ele>
        <time>2021-09-02T13:11:34Z</time>
      </trkpt>
      <trkpt lat="44.08509" lon="6.25241">
        <ele>651.59997558594</ele>
        <time>2021-09-02T13:11:42Z</time>
      </trkpt>
      <trkpt lat="44.08507" lon="6.25242">
        <ele>651.59997558594</ele>
        <time>2021-09-02T13:11:43Z</time>
      </trkpt>
      <trkpt lat="44.08494" lon="6.25249">
        <ele>652</ele>
        <time>2021-09-02T13:11:48Z</time>
      </trkpt>
      <trkpt lat="44.08482" lon="6.25258">
        <ele>652.59997558594</ele>
        <time>2021-09-02T13:11:53Z</time>
      </trkpt>
      <trkpt lat="44.08472" lon="6.25264">
        <ele>653.20001220703</ele>
        <time>2021-09-02T13:11:57Z</time>
      </trkpt>
      <trkpt lat="44.0846" lon="6.25272">
        <ele>653.59997558594</ele>
        <time>2021-09-02T13:12:02Z</time>
      </trkpt>
      <trkpt lat="44.08446" lon="6.25281">
        <ele>654.20001220703</ele>
        <time>2021-09-02T13:12:08Z</time>
      </trkpt>
      <trkpt lat="44.08432" lon="6.2528">
        <ele>654.59997558594</ele>
        <time>2021-09-02T13:12:14Z</time>
      </trkpt>
      <trkpt lat="44.08426" lon="6.25278">
        <ele>654.59997558594</ele>
        <time>2021-09-02T13:12:16Z</time>
      </trkpt>
      <trkpt lat="44.08413" lon="6.25269">
        <ele>654.79998779297</ele>
        <time>2021-09-02T13:12:20Z</time>
      </trkpt>
      <trkpt lat="44.08399" lon="6.25267">
        <ele>654.79998779297</ele>
        <time>2021-09-02T13:12:24Z</time>
      </trkpt>
      <trkpt lat="44.08384" lon="6.2528">
        <ele>654</ele>
        <time>2021-09-02T13:12:28Z</time>
      </trkpt>
      <trkpt lat="44.08381" lon="6.25285">
        <ele>654</ele>
        <time>2021-09-02T13:12:29Z</time>
      </trkpt>
      <trkpt lat="44.08354" lon="6.25314">
        <ele>653.79998779297</ele>
        <time>2021-09-02T13:12:36Z</time>
      </trkpt>
      <trkpt lat="44.08333" lon="6.25334">
        <ele>653.79998779297</ele>
        <time>2021-09-02T13:12:42Z</time>
      </trkpt>
      <trkpt lat="44.08317" lon="6.25351">
        <ele>654.40002441406</ele>
        <time>2021-09-02T13:12:48Z</time>
      </trkpt>
      <trkpt lat="44.083" lon="6.25371">
        <ele>655.20001220703</ele>
        <time>2021-09-02T13:12:55Z</time>
      </trkpt>
      <trkpt lat="44.08282" lon="6.25398">
        <ele>655.79998779297</ele>
        <time>2021-09-02T13:13:03Z</time>
      </trkpt>
      <trkpt lat="44.08267" lon="6.25422">
        <ele>656.20001220703</ele>
        <time>2021-09-02T13:13:10Z</time>
      </trkpt>
      <trkpt lat="44.08252" lon="6.25432">
        <ele>656.79998779297</ele>
        <time>2021-09-02T13:13:15Z</time>
      </trkpt>
      <trkpt lat="44.08249" lon="6.25433">
        <ele>657</ele>
        <time>2021-09-02T13:13:16Z</time>
      </trkpt>
      <trkpt lat="44.08223" lon="6.25443">
        <ele>657.40002441406</ele>
        <time>2021-09-02T13:13:25Z</time>
      </trkpt>
      <trkpt lat="44.08207" lon="6.25452">
        <ele>657.79998779297</ele>
        <time>2021-09-02T13:13:31Z</time>
      </trkpt>
      <trkpt lat="44.08204" lon="6.25454">
        <ele>657.79998779297</ele>
        <time>2021-09-02T13:13:32Z</time>
      </trkpt>
      <trkpt lat="44.0819" lon="6.25475">
        <ele>658.79998779297</ele>
        <time>2021-09-02T13:13:39Z</time>
      </trkpt>
      <trkpt lat="44.08188" lon="6.25485">
        <ele>659</ele>
        <time>2021-09-02T13:13:42Z</time>
      </trkpt>
      <trkpt lat="44.08186" lon="6.25495">
        <ele>659.20001220703</ele>
        <time>2021-09-02T13:13:45Z</time>
      </trkpt>
      <trkpt lat="44.08188" lon="6.25516">
        <ele>659.79998779297</ele>
        <time>2021-09-02T13:13:51Z</time>
      </trkpt>
      <trkpt lat="44.0819" lon="6.25523">
        <ele>660</ele>
        <time>2021-09-02T13:13:53Z</time>
      </trkpt>
      <trkpt lat="44.08198" lon="6.25534">
        <ele>660.40002441406</ele>
        <time>2021-09-02T13:13:57Z</time>
      </trkpt>
      <trkpt lat="44.08206" lon="6.25545">
        <ele>661</ele>
        <time>2021-09-02T13:14:02Z</time>
      </trkpt>
      <trkpt lat="44.0821" lon="6.2555">
        <ele>661.40002441406</ele>
        <time>2021-09-02T13:14:04Z</time>
      </trkpt>
      <trkpt lat="44.08215" lon="6.25565">
        <ele>662.20001220703</ele>
        <time>2021-09-02T13:14:10Z</time>
      </trkpt>
      <trkpt lat="44.08215" lon="6.25585">
        <ele>662.79998779297</ele>
        <time>2021-09-02T13:14:16Z</time>
      </trkpt>
      <trkpt lat="44.08207" lon="6.25601">
        <ele>663.20001220703</ele>
        <time>2021-09-02T13:14:21Z</time>
      </trkpt>
      <trkpt lat="44.08204" lon="6.25608">
        <ele>663.40002441406</ele>
        <time>2021-09-02T13:14:23Z</time>
      </trkpt>
      <trkpt lat="44.08191" lon="6.25632">
        <ele>664.40002441406</ele>
        <time>2021-09-02T13:14:31Z</time>
      </trkpt>
      <trkpt lat="44.08189" lon="6.25635">
        <ele>664.40002441406</ele>
        <time>2021-09-02T13:14:32Z</time>
      </trkpt>
      <trkpt lat="44.08174" lon="6.25658">
        <ele>665.20001220703</ele>
        <time>2021-09-02T13:14:40Z</time>
      </trkpt>
      <trkpt lat="44.08172" lon="6.25661">
        <ele>665.40002441406</ele>
        <time>2021-09-02T13:14:41Z</time>
      </trkpt>
      <trkpt lat="44.08164" lon="6.25673">
        <ele>665.79998779297</ele>
        <time>2021-09-02T13:14:45Z</time>
      </trkpt>
      <trkpt lat="44.08158" lon="6.25682">
        <ele>666</ele>
        <time>2021-09-02T13:14:48Z</time>
      </trkpt>
      <trkpt lat="44.0815" lon="6.25693">
        <ele>666.40002441406</ele>
        <time>2021-09-02T13:14:52Z</time>
      </trkpt>
      <trkpt lat="44.08144" lon="6.25706">
        <ele>666.59997558594</ele>
        <time>2021-09-02T13:14:56Z</time>
      </trkpt>
      <trkpt lat="44.08131" lon="6.25743">
        <ele>667.40002441406</ele>
        <time>2021-09-02T13:15:06Z</time>
      </trkpt>
      <trkpt lat="44.08124" lon="6.25771">
        <ele>667.79998779297</ele>
        <time>2021-09-02T13:15:13Z</time>
      </trkpt>
      <trkpt lat="44.08116" lon="6.258">
        <ele>668.40002441406</ele>
        <time>2021-09-02T13:15:20Z</time>
      </trkpt>
      <trkpt lat="44.08113" lon="6.25808">
        <ele>668.59997558594</ele>
        <time>2021-09-02T13:15:22Z</time>
      </trkpt>
      <trkpt lat="44.08098" lon="6.25834">
        <ele>669.20001220703</ele>
        <time>2021-09-02T13:15:29Z</time>
      </trkpt>
      <trkpt lat="44.08081" lon="6.2586">
        <ele>669.59997558594</ele>
        <time>2021-09-02T13:15:36Z</time>
      </trkpt>
      <trkpt lat="44.08077" lon="6.25868">
        <ele>669.79998779297</ele>
        <time>2021-09-02T13:15:38Z</time>
      </trkpt>
      <trkpt lat="44.08068" lon="6.25894">
        <ele>670.20001220703</ele>
        <time>2021-09-02T13:15:44Z</time>
      </trkpt>
      <trkpt lat="44.08061" lon="6.25915">
        <ele>670.59997558594</ele>
        <time>2021-09-02T13:15:49Z</time>
      </trkpt>
      <trkpt lat="44.08057" lon="6.25923">
        <ele>670.79998779297</ele>
        <time>2021-09-02T13:15:51Z</time>
      </trkpt>
      <trkpt lat="44.08047" lon="6.25958">
        <ele>671.59997558594</ele>
        <time>2021-09-02T13:15:59Z</time>
      </trkpt>
      <trkpt lat="44.0804" lon="6.25987">
        <ele>672.20001220703</ele>
        <time>2021-09-02T13:16:06Z</time>
      </trkpt>
      <trkpt lat="44.08033" lon="6.26011">
        <ele>672.59997558594</ele>
        <time>2021-09-02T13:16:12Z</time>
      </trkpt>
      <trkpt lat="44.08029" lon="6.26022">
        <ele>672.79998779297</ele>
        <time>2021-09-02T13:16:15Z</time>
      </trkpt>
      <trkpt lat="44.08019" lon="6.26054">
        <ele>673.59997558594</ele>
        <time>2021-09-02T13:16:24Z</time>
      </trkpt>
      <trkpt lat="44.08013" lon="6.26077">
        <ele>674.40002441406</ele>
        <time>2021-09-02T13:16:30Z</time>
      </trkpt>
      <trkpt lat="44.08008" lon="6.26097">
        <ele>674.79998779297</ele>
        <time>2021-09-02T13:16:35Z</time>
      </trkpt>
      <trkpt lat="44.08005" lon="6.2611">
        <ele>675</ele>
        <time>2021-09-02T13:16:38Z</time>
      </trkpt>
      <trkpt lat="44.07994" lon="6.26136">
        <ele>675.20001220703</ele>
        <time>2021-09-02T13:16:45Z</time>
      </trkpt>
      <trkpt lat="44.0798" lon="6.26163">
        <ele>675.79998779297</ele>
        <time>2021-09-02T13:16:53Z</time>
      </trkpt>
      <trkpt lat="44.07968" lon="6.2619">
        <ele>676.20001220703</ele>
        <time>2021-09-02T13:17:01Z</time>
      </trkpt>
      <trkpt lat="44.07955" lon="6.26211">
        <ele>676.40002441406</ele>
        <time>2021-09-02T13:17:08Z</time>
      </trkpt>
      <trkpt lat="44.07952" lon="6.2621">
        <ele>676.40002441406</ele>
        <time>2021-09-02T13:17:09Z</time>
      </trkpt>
      <trkpt lat="44.07945" lon="6.26207">
        <ele>676.40002441406</ele>
        <time>2021-09-02T13:17:13Z</time>
      </trkpt>
      <trkpt lat="44.07948" lon="6.2621">
        <ele>676.40002441406</ele>
        <time>2021-09-02T13:20:23Z</time>
      </trkpt>
      <trkpt lat="44.07949" lon="6.26214">
        <ele>676.20001220703</ele>
        <time>2021-09-02T13:20:25Z</time>
      </trkpt>
      <trkpt lat="44.07949" lon="6.26232">
        <ele>676.59997558594</ele>
        <time>2021-09-02T13:20:30Z</time>
      </trkpt>
      <trkpt lat="44.07943" lon="6.26255">
        <ele>676.59997558594</ele>
        <time>2021-09-02T13:20:35Z</time>
      </trkpt>
      <trkpt lat="44.07939" lon="6.26282">
        <ele>676.79998779297</ele>
        <time>2021-09-02T13:20:41Z</time>
      </trkpt>
      <trkpt lat="44.07938" lon="6.26292">
        <ele>677</ele>
        <time>2021-09-02T13:20:43Z</time>
      </trkpt>
      <trkpt lat="44.07936" lon="6.26321">
        <ele>677.59997558594</ele>
        <time>2021-09-02T13:20:50Z</time>
      </trkpt>
      <trkpt lat="44.07935" lon="6.26334">
        <ele>677.79998779297</ele>
        <time>2021-09-02T13:20:53Z</time>
      </trkpt>
      <trkpt lat="44.07935" lon="6.26346">
        <ele>678</ele>
        <time>2021-09-02T13:20:56Z</time>
      </trkpt>
      <trkpt lat="44.07934" lon="6.26383">
        <ele>678.59997558594</ele>
        <time>2021-09-02T13:21:05Z</time>
      </trkpt>
      <trkpt lat="44.07934" lon="6.26392">
        <ele>678.79998779297</ele>
        <time>2021-09-02T13:21:07Z</time>
      </trkpt>
      <trkpt lat="44.07933" lon="6.26416">
        <ele>679.20001220703</ele>
        <time>2021-09-02T13:21:13Z</time>
      </trkpt>
      <trkpt lat="44.07933" lon="6.26449">
        <ele>680</ele>
        <time>2021-09-02T13:21:21Z</time>
      </trkpt>
      <trkpt lat="44.07931" lon="6.26485">
        <ele>680.40002441406</ele>
        <time>2021-09-02T13:21:30Z</time>
      </trkpt>
      <trkpt lat="44.07932" lon="6.26522">
        <ele>681</ele>
        <time>2021-09-02T13:21:39Z</time>
      </trkpt>
      <trkpt lat="44.07931" lon="6.26549">
        <ele>681.20001220703</ele>
        <time>2021-09-02T13:21:46Z</time>
      </trkpt>
      <trkpt lat="44.0793" lon="6.26585">
        <ele>682.20001220703</ele>
        <time>2021-09-02T13:21:55Z</time>
      </trkpt>
      <trkpt lat="44.0793" lon="6.2659">
        <ele>682.20001220703</ele>
        <time>2021-09-02T13:21:56Z</time>
      </trkpt>
      <trkpt lat="44.07928" lon="6.26616">
        <ele>682.79998779297</ele>
        <time>2021-09-02T13:22:03Z</time>
      </trkpt>
      <trkpt lat="44.07928" lon="6.26626">
        <ele>683.20001220703</ele>
        <time>2021-09-02T13:22:06Z</time>
      </trkpt>
      <trkpt lat="44.07928" lon="6.26641">
        <ele>683.20001220703</ele>
        <time>2021-09-02T13:22:10Z</time>
      </trkpt>
      <trkpt lat="44.07928" lon="6.26659">
        <ele>683.40002441406</ele>
        <time>2021-09-02T13:22:16Z</time>
      </trkpt>
      <trkpt lat="44.07928" lon="6.26679">
        <ele>684.40002441406</ele>
        <time>2021-09-02T13:22:24Z</time>
      </trkpt>
      <trkpt lat="44.07927" lon="6.26683">
        <ele>686.20001220703</ele>
        <time>2021-09-02T13:22:42Z</time>
      </trkpt>
      <trkpt lat="44.07929" lon="6.26673">
        <ele>686</ele>
        <time>2021-09-02T13:22:45Z</time>
      </trkpt>
      <trkpt lat="44.07929" lon="6.26661">
        <ele>686</ele>
        <time>2021-09-02T13:22:47Z</time>
      </trkpt>
      <trkpt lat="44.07929" lon="6.26647">
        <ele>685.20001220703</ele>
        <time>2021-09-02T13:22:50Z</time>
      </trkpt>
      <trkpt lat="44.07928" lon="6.26644">
        <ele>684.79998779297</ele>
        <time>2021-09-02T13:22:51Z</time>
      </trkpt>
      <trkpt lat="44.07923" lon="6.26643">
        <ele>684</ele>
        <time>2021-09-02T13:22:54Z</time>
      </trkpt>
      <trkpt lat="44.07922" lon="6.26645">
        <ele>683.59997558594</ele>
        <time>2021-09-02T13:22:55Z</time>
      </trkpt>
      <trkpt lat="44.07921" lon="6.26649">
        <ele>683.40002441406</ele>
        <time>2021-09-02T13:22:57Z</time>
      </trkpt>
      <trkpt lat="44.0792" lon="6.26651">
        <ele>683.20001220703</ele>
        <time>2021-09-02T13:22:58Z</time>
      </trkpt>
      <trkpt lat="44.07917" lon="6.26672">
        <ele>682.59997558594</ele>
        <time>2021-09-02T13:23:05Z</time>
      </trkpt>
      <trkpt lat="44.07907" lon="6.26695">
        <ele>683</ele>
        <time>2021-09-02T13:23:13Z</time>
      </trkpt>
      <trkpt lat="44.07901" lon="6.26708">
        <ele>683.40002441406</ele>
        <time>2021-09-02T13:23:19Z</time>
      </trkpt>
      <trkpt lat="44.07899" lon="6.26709">
        <ele>683.40002441406</ele>
        <time>2021-09-02T13:23:20Z</time>
      </trkpt>
      <trkpt lat="44.07889" lon="6.26702">
        <ele>683.59997558594</ele>
        <time>2021-09-02T13:23:25Z</time>
      </trkpt>
      <trkpt lat="44.07881" lon="6.26696">
        <ele>683.40002441406</ele>
        <time>2021-09-02T13:23:30Z</time>
      </trkpt>
      <trkpt lat="44.07879" lon="6.267">
        <ele>683</ele>
        <time>2021-09-02T13:23:34Z</time>
      </trkpt>
      <trkpt lat="44.07883" lon="6.26704">
        <ele>683.20001220703</ele>
        <time>2021-09-02T13:23:37Z</time>
      </trkpt>
      <trkpt lat="44.07886" lon="6.26706">
        <ele>683.40002441406</ele>
        <time>2021-09-02T13:23:39Z</time>
      </trkpt>
      <trkpt lat="44.07888" lon="6.26706">
        <ele>683.59997558594</ele>
        <time>2021-09-02T13:23:41Z</time>
      </trkpt>
      <trkpt lat="44.07886" lon="6.26701">
        <ele>683.40002441406</ele>
        <time>2021-09-02T13:23:44Z</time>
      </trkpt>
      <trkpt lat="44.07882" lon="6.26699">
        <ele>683.40002441406</ele>
        <time>2021-09-02T13:23:46Z</time>
      </trkpt>
      <trkpt lat="44.07877" lon="6.26699">
        <ele>683.40002441406</ele>
        <time>2021-09-02T13:23:49Z</time>
      </trkpt>
      <trkpt lat="44.07873" lon="6.26697">
        <ele>683.59997558594</ele>
        <time>2021-09-02T13:26:11Z</time>
      </trkpt>
      <trkpt lat="44.0788" lon="6.26702">
        <ele>683.59997558594</ele>
        <time>2021-09-02T13:26:15Z</time>
      </trkpt>
      <trkpt lat="44.07891" lon="6.26711">
        <ele>683.59997558594</ele>
        <time>2021-09-02T13:26:21Z</time>
      </trkpt>
      <trkpt lat="44.07893" lon="6.26712">
        <ele>683.79998779297</ele>
        <time>2021-09-02T13:26:22Z</time>
      </trkpt>
      <trkpt lat="44.07901" lon="6.26715">
        <ele>683.79998779297</ele>
        <time>2021-09-02T13:26:26Z</time>
      </trkpt>
      <trkpt lat="44.07905" lon="6.26722">
        <ele>683.79998779297</ele>
        <time>2021-09-02T13:26:29Z</time>
      </trkpt>
      <trkpt lat="44.07911" lon="6.26725">
        <ele>683.79998779297</ele>
        <time>2021-09-02T13:26:32Z</time>
      </trkpt>
      <trkpt lat="44.07919" lon="6.26718">
        <ele>683.79998779297</ele>
        <time>2021-09-02T13:26:36Z</time>
      </trkpt>
      <trkpt lat="44.0792" lon="6.26715">
        <ele>684</ele>
        <time>2021-09-02T13:26:37Z</time>
      </trkpt>
      <trkpt lat="44.07918" lon="6.26703">
        <ele>684.40002441406</ele>
        <time>2021-09-02T13:26:41Z</time>
      </trkpt>
      <trkpt lat="44.07915" lon="6.26683">
        <ele>684</ele>
        <time>2021-09-02T13:26:46Z</time>
      </trkpt>
      <trkpt lat="44.07917" lon="6.26657">
        <ele>682.79998779297</ele>
        <time>2021-09-02T13:26:52Z</time>
      </trkpt>
      <trkpt lat="44.07919" lon="6.2665">
        <ele>682.59997558594</ele>
        <time>2021-09-02T13:26:54Z</time>
      </trkpt>
      <trkpt lat="44.07923" lon="6.26641">
        <ele>682.59997558594</ele>
        <time>2021-09-02T13:26:58Z</time>
      </trkpt>
      <trkpt lat="44.07926" lon="6.26641">
        <ele>682.79998779297</ele>
        <time>2021-09-02T13:27:00Z</time>
      </trkpt>
      <trkpt lat="44.07928" lon="6.26646">
        <ele>682.79998779297</ele>
        <time>2021-09-02T13:27:02Z</time>
      </trkpt>
      <trkpt lat="44.07927" lon="6.26655">
        <ele>683.40002441406</ele>
        <time>2021-09-02T13:27:06Z</time>
      </trkpt>
      <trkpt lat="44.07926" lon="6.26661">
        <ele>683.79998779297</ele>
        <time>2021-09-02T13:27:08Z</time>
      </trkpt>
      <trkpt lat="44.07926" lon="6.2667">
        <ele>684</ele>
        <time>2021-09-02T13:27:12Z</time>
      </trkpt>
      <trkpt lat="44.07926" lon="6.26672">
        <ele>684</ele>
        <time>2021-09-02T13:27:13Z</time>
      </trkpt>
      <trkpt lat="44.07928" lon="6.26685">
        <ele>684.79998779297</ele>
        <time>2021-09-02T13:27:19Z</time>
      </trkpt>
      <trkpt lat="44.0793" lon="6.26691">
        <ele>685.20001220703</ele>
        <time>2021-09-02T13:27:22Z</time>
      </trkpt>
      <trkpt lat="44.07935" lon="6.26698">
        <ele>685.79998779297</ele>
        <time>2021-09-02T13:27:27Z</time>
      </trkpt>
      <trkpt lat="44.07937" lon="6.267">
        <ele>686.20001220703</ele>
        <time>2021-09-02T13:27:29Z</time>
      </trkpt>
      <trkpt lat="44.07947" lon="6.26707">
        <ele>686.79998779297</ele>
        <time>2021-09-02T13:27:36Z</time>
      </trkpt>
      <trkpt lat="44.07953" lon="6.2671">
        <ele>686.79998779297</ele>
        <time>2021-09-02T13:27:40Z</time>
      </trkpt>
      <trkpt lat="44.07961" lon="6.26716">
        <ele>687.59997558594</ele>
        <time>2021-09-02T13:27:46Z</time>
      </trkpt>
      <trkpt lat="44.07964" lon="6.26717">
        <ele>687.79998779297</ele>
        <time>2021-09-02T13:27:48Z</time>
      </trkpt>
      <trkpt lat="44.07971" lon="6.26724">
        <ele>688.79998779297</ele>
        <time>2021-09-02T13:27:54Z</time>
      </trkpt>
      <trkpt lat="44.07972" lon="6.26726">
        <ele>689</ele>
        <time>2021-09-02T13:27:55Z</time>
      </trkpt>
      <trkpt lat="44.07977" lon="6.26734">
        <ele>690</ele>
        <time>2021-09-02T13:28:00Z</time>
      </trkpt>
      <trkpt lat="44.07977" lon="6.26736">
        <ele>690.20001220703</ele>
        <time>2021-09-02T13:28:01Z</time>
      </trkpt>
      <trkpt lat="44.07976" lon="6.26741">
        <ele>690.59997558594</ele>
        <time>2021-09-02T13:28:03Z</time>
      </trkpt>
      <trkpt lat="44.07972" lon="6.26746">
        <ele>691</ele>
        <time>2021-09-02T13:28:06Z</time>
      </trkpt>
      <trkpt lat="44.0797" lon="6.26748">
        <ele>691.20001220703</ele>
        <time>2021-09-02T13:28:07Z</time>
      </trkpt>
      <trkpt lat="44.07963" lon="6.26756">
        <ele>692</ele>
        <time>2021-09-02T13:28:12Z</time>
      </trkpt>
      <trkpt lat="44.07957" lon="6.26763">
        <ele>692.79998779297</ele>
        <time>2021-09-02T13:28:16Z</time>
      </trkpt>
      <trkpt lat="44.07954" lon="6.26766">
        <ele>693.20001220703</ele>
        <time>2021-09-02T13:28:18Z</time>
      </trkpt>
      <trkpt lat="44.07942" lon="6.26779">
        <ele>693.59997558594</ele>
        <time>2021-09-02T13:28:26Z</time>
      </trkpt>
      <trkpt lat="44.07935" lon="6.26788">
        <ele>694.20001220703</ele>
        <time>2021-09-02T13:28:31Z</time>
      </trkpt>
      <trkpt lat="44.07928" lon="6.26796">
        <ele>694.59997558594</ele>
        <time>2021-09-02T13:28:35Z</time>
      </trkpt>
      <trkpt lat="44.07918" lon="6.2681">
        <ele>695.20001220703</ele>
        <time>2021-09-02T13:28:42Z</time>
      </trkpt>
      <trkpt lat="44.07905" lon="6.26828">
        <ele>696.20001220703</ele>
        <time>2021-09-02T13:28:51Z</time>
      </trkpt>
      <trkpt lat="44.07904" lon="6.2683">
        <ele>696.20001220703</ele>
        <time>2021-09-02T13:28:52Z</time>
      </trkpt>
      <trkpt lat="44.07895" lon="6.26847">
        <ele>696.59997558594</ele>
        <time>2021-09-02T13:29:00Z</time>
      </trkpt>
      <trkpt lat="44.07892" lon="6.26861">
        <ele>697.20001220703</ele>
        <time>2021-09-02T13:29:05Z</time>
      </trkpt>
      <trkpt lat="44.07891" lon="6.26867">
        <ele>697.40002441406</ele>
        <time>2021-09-02T13:29:07Z</time>
      </trkpt>
      <trkpt lat="44.07889" lon="6.26893">
        <ele>698.40002441406</ele>
        <time>2021-09-02T13:29:15Z</time>
      </trkpt>
      <trkpt lat="44.07885" lon="6.26911">
        <ele>699</ele>
        <time>2021-09-02T13:29:21Z</time>
      </trkpt>
      <trkpt lat="44.07884" lon="6.26924">
        <ele>699.40002441406</ele>
        <time>2021-09-02T13:29:25Z</time>
      </trkpt>
      <trkpt lat="44.07881" lon="6.26934">
        <ele>699.79998779297</ele>
        <time>2021-09-02T13:29:29Z</time>
      </trkpt>
      <trkpt lat="44.07873" lon="6.26954">
        <ele>700.40002441406</ele>
        <time>2021-09-02T13:29:36Z</time>
      </trkpt>
      <trkpt lat="44.07872" lon="6.26957">
        <ele>700.59997558594</ele>
        <time>2021-09-02T13:29:37Z</time>
      </trkpt>
      <trkpt lat="44.07861" lon="6.26975">
        <ele>701.40002441406</ele>
        <time>2021-09-02T13:29:44Z</time>
      </trkpt>
      <trkpt lat="44.07859" lon="6.26977">
        <ele>701.59997558594</ele>
        <time>2021-09-02T13:29:45Z</time>
      </trkpt>
      <trkpt lat="44.07849" lon="6.26989">
        <ele>702.40002441406</ele>
        <time>2021-09-02T13:29:51Z</time>
      </trkpt>
      <trkpt lat="44.07846" lon="6.26993">
        <ele>702.59997558594</ele>
        <time>2021-09-02T13:29:53Z</time>
      </trkpt>
      <trkpt lat="44.07834" lon="6.27">
        <ele>703.20001220703</ele>
        <time>2021-09-02T13:29:59Z</time>
      </trkpt>
      <trkpt lat="44.07829" lon="6.27003">
        <ele>703.79998779297</ele>
        <time>2021-09-02T13:30:02Z</time>
      </trkpt>
      <trkpt lat="44.07818" lon="6.27007">
        <ele>704.59997558594</ele>
        <time>2021-09-02T13:30:07Z</time>
      </trkpt>
      <trkpt lat="44.07815" lon="6.27007">
        <ele>704.79998779297</ele>
        <time>2021-09-02T13:30:08Z</time>
      </trkpt>
      <trkpt lat="44.07801" lon="6.2701">
        <ele>705.40002441406</ele>
        <time>2021-09-02T13:30:14Z</time>
      </trkpt>
      <trkpt lat="44.07795" lon="6.27013">
        <ele>705.79998779297</ele>
        <time>2021-09-02T13:30:17Z</time>
      </trkpt>
      <trkpt lat="44.07787" lon="6.27019">
        <ele>706.20001220703</ele>
        <time>2021-09-02T13:30:21Z</time>
      </trkpt>
      <trkpt lat="44.07775" lon="6.27028">
        <ele>706.79998779297</ele>
        <time>2021-09-02T13:30:27Z</time>
      </trkpt>
      <trkpt lat="44.07772" lon="6.27031">
        <ele>707</ele>
        <time>2021-09-02T13:30:29Z</time>
      </trkpt>
      <trkpt lat="44.07759" lon="6.27045">
        <ele>707.79998779297</ele>
        <time>2021-09-02T13:30:37Z</time>
      </trkpt>
      <trkpt lat="44.07755" lon="6.27047">
        <ele>708</ele>
        <time>2021-09-02T13:30:39Z</time>
      </trkpt>
      <trkpt lat="44.07748" lon="6.27049">
        <ele>708.20001220703</ele>
        <time>2021-09-02T13:30:42Z</time>
      </trkpt>
      <trkpt lat="44.07733" lon="6.27048">
        <ele>709</ele>
        <time>2021-09-02T13:30:49Z</time>
      </trkpt>
      <trkpt lat="44.07724" lon="6.27035">
        <ele>709.79998779297</ele>
        <time>2021-09-02T13:30:55Z</time>
      </trkpt>
      <trkpt lat="44.07722" lon="6.27029">
        <ele>710.20001220703</ele>
        <time>2021-09-02T13:30:57Z</time>
      </trkpt>
      <trkpt lat="44.07718" lon="6.27011">
        <ele>710.79998779297</ele>
        <time>2021-09-02T13:31:03Z</time>
      </trkpt>
      <trkpt lat="44.07717" lon="6.27004">
        <ele>711.20001220703</ele>
        <time>2021-09-02T13:31:05Z</time>
      </trkpt>
      <trkpt lat="44.07716" lon="6.26979">
        <ele>712</ele>
        <time>2021-09-02T13:31:13Z</time>
      </trkpt>
      <trkpt lat="44.07716" lon="6.26973">
        <ele>712.20001220703</ele>
        <time>2021-09-02T13:31:15Z</time>
      </trkpt>
      <trkpt lat="44.07709" lon="6.26956">
        <ele>712.79998779297</ele>
        <time>2021-09-02T13:31:21Z</time>
      </trkpt>
      <trkpt lat="44.07698" lon="6.26945">
        <ele>713.20001220703</ele>
        <time>2021-09-02T13:31:27Z</time>
      </trkpt>
      <trkpt lat="44.07694" lon="6.26942">
        <ele>713.40002441406</ele>
        <time>2021-09-02T13:31:29Z</time>
      </trkpt>
      <trkpt lat="44.07685" lon="6.26931">
        <ele>714</ele>
        <time>2021-09-02T13:31:35Z</time>
      </trkpt>
      <trkpt lat="44.0768" lon="6.26921">
        <ele>714.40002441406</ele>
        <time>2021-09-02T13:31:39Z</time>
      </trkpt>
      <trkpt lat="44.07673" lon="6.26908">
        <ele>715</ele>
        <time>2021-09-02T13:31:44Z</time>
      </trkpt>
      <trkpt lat="44.07668" lon="6.26903">
        <ele>715.40002441406</ele>
        <time>2021-09-02T13:31:47Z</time>
      </trkpt>
      <trkpt lat="44.0766" lon="6.26897">
        <ele>715.79998779297</ele>
        <time>2021-09-02T13:31:51Z</time>
      </trkpt>
      <trkpt lat="44.07652" lon="6.2689">
        <ele>716.59997558594</ele>
        <time>2021-09-02T13:31:56Z</time>
      </trkpt>
      <trkpt lat="44.07647" lon="6.26887">
        <ele>716.79998779297</ele>
        <time>2021-09-02T13:31:59Z</time>
      </trkpt>
      <trkpt lat="44.07636" lon="6.26885">
        <ele>717.59997558594</ele>
        <time>2021-09-02T13:32:05Z</time>
      </trkpt>
      <trkpt lat="44.07634" lon="6.26885">
        <ele>717.79998779297</ele>
        <time>2021-09-02T13:32:06Z</time>
      </trkpt>
      <trkpt lat="44.07621" lon="6.2689">
        <ele>718.40002441406</ele>
        <time>2021-09-02T13:32:12Z</time>
      </trkpt>
      <trkpt lat="44.0761" lon="6.26906">
        <ele>718.40002441406</ele>
        <time>2021-09-02T13:32:17Z</time>
      </trkpt>
      <trkpt lat="44.07606" lon="6.26917">
        <ele>718</ele>
        <time>2021-09-02T13:32:19Z</time>
      </trkpt>
      <trkpt lat="44.07599" lon="6.26932">
        <ele>717.20001220703</ele>
        <time>2021-09-02T13:32:22Z</time>
      </trkpt>
      <trkpt lat="44.07592" lon="6.26939">
        <ele>716.40002441406</ele>
        <time>2021-09-02T13:32:24Z</time>
      </trkpt>
      <trkpt lat="44.07583" lon="6.26942">
        <ele>715.79998779297</ele>
        <time>2021-09-02T13:32:26Z</time>
      </trkpt>
      <trkpt lat="44.07578" lon="6.26944">
        <ele>715.59997558594</ele>
        <time>2021-09-02T13:32:27Z</time>
      </trkpt>
      <trkpt lat="44.07573" lon="6.26947">
        <ele>715</ele>
        <time>2021-09-02T13:32:28Z</time>
      </trkpt>
      <trkpt lat="44.07559" lon="6.26959">
        <ele>714.20001220703</ele>
        <time>2021-09-02T13:32:31Z</time>
      </trkpt>
      <trkpt lat="44.07552" lon="6.26974">
        <ele>713.79998779297</ele>
        <time>2021-09-02T13:32:33Z</time>
      </trkpt>
      <trkpt lat="44.07548" lon="6.26992">
        <ele>713.20001220703</ele>
        <time>2021-09-02T13:32:35Z</time>
      </trkpt>
      <trkpt lat="44.07547" lon="6.27002">
        <ele>712.79998779297</ele>
        <time>2021-09-02T13:32:36Z</time>
      </trkpt>
      <trkpt lat="44.07546" lon="6.27012">
        <ele>712.40002441406</ele>
        <time>2021-09-02T13:32:37Z</time>
      </trkpt>
      <trkpt lat="44.07543" lon="6.27033">
        <ele>711.59997558594</ele>
        <time>2021-09-02T13:32:39Z</time>
      </trkpt>
      <trkpt lat="44.07541" lon="6.27042">
        <ele>711</ele>
        <time>2021-09-02T13:32:40Z</time>
      </trkpt>
      <trkpt lat="44.07533" lon="6.27069">
        <ele>709.40002441406</ele>
        <time>2021-09-02T13:32:43Z</time>
      </trkpt>
      <trkpt lat="44.07526" lon="6.27086">
        <ele>708.40002441406</ele>
        <time>2021-09-02T13:32:45Z</time>
      </trkpt>
      <trkpt lat="44.07521" lon="6.27093">
        <ele>707.79998779297</ele>
        <time>2021-09-02T13:32:46Z</time>
      </trkpt>
      <trkpt lat="44.07505" lon="6.27099">
        <ele>707</ele>
        <time>2021-09-02T13:32:48Z</time>
      </trkpt>
      <trkpt lat="44.0748" lon="6.27093">
        <ele>705.79998779297</ele>
        <time>2021-09-02T13:32:51Z</time>
      </trkpt>
      <trkpt lat="44.07466" lon="6.27088">
        <ele>704.59997558594</ele>
        <time>2021-09-02T13:32:53Z</time>
      </trkpt>
      <trkpt lat="44.07458" lon="6.27088">
        <ele>704.40002441406</ele>
        <time>2021-09-02T13:32:54Z</time>
      </trkpt>
      <trkpt lat="44.07452" lon="6.27088">
        <ele>704.20001220703</ele>
        <time>2021-09-02T13:32:55Z</time>
      </trkpt>
      <trkpt lat="44.07439" lon="6.27088">
        <ele>703.59997558594</ele>
        <time>2021-09-02T13:32:57Z</time>
      </trkpt>
      <trkpt lat="44.07423" lon="6.27089">
        <ele>703.40002441406</ele>
        <time>2021-09-02T13:33:00Z</time>
      </trkpt>
      <trkpt lat="44.07419" lon="6.2709">
        <ele>703.40002441406</ele>
        <time>2021-09-02T13:33:01Z</time>
      </trkpt>
      <trkpt lat="44.07406" lon="6.27094">
        <ele>703.40002441406</ele>
        <time>2021-09-02T13:33:05Z</time>
      </trkpt>
      <trkpt lat="44.07393" lon="6.27104">
        <ele>703.79998779297</ele>
        <time>2021-09-02T13:33:10Z</time>
      </trkpt>
      <trkpt lat="44.07377" lon="6.27115">
        <ele>704</ele>
        <time>2021-09-02T13:33:16Z</time>
      </trkpt>
      <trkpt lat="44.07356" lon="6.27122">
        <ele>704.59997558594</ele>
        <time>2021-09-02T13:33:23Z</time>
      </trkpt>
      <trkpt lat="44.07354" lon="6.27123">
        <ele>704.79998779297</ele>
        <time>2021-09-02T13:33:24Z</time>
      </trkpt>
      <trkpt lat="44.07335" lon="6.27125">
        <ele>705.40002441406</ele>
        <time>2021-09-02T13:33:31Z</time>
      </trkpt>
      <trkpt lat="44.07319" lon="6.27129">
        <ele>705.59997558594</ele>
        <time>2021-09-02T13:33:37Z</time>
      </trkpt>
      <trkpt lat="44.07317" lon="6.27129">
        <ele>705.79998779297</ele>
        <time>2021-09-02T13:33:38Z</time>
      </trkpt>
      <trkpt lat="44.07306" lon="6.2713">
        <ele>705.79998779297</ele>
        <time>2021-09-02T13:33:44Z</time>
      </trkpt>
      <trkpt lat="44.0729" lon="6.27131">
        <ele>706.40002441406</ele>
        <time>2021-09-02T13:33:50Z</time>
      </trkpt>
      <trkpt lat="44.07273" lon="6.27126">
        <ele>706.59997558594</ele>
        <time>2021-09-02T13:33:56Z</time>
      </trkpt>
      <trkpt lat="44.07271" lon="6.27124">
        <ele>706.59997558594</ele>
        <time>2021-09-02T13:33:57Z</time>
      </trkpt>
      <trkpt lat="44.07253" lon="6.27121">
        <ele>707.59997558594</ele>
        <time>2021-09-02T13:34:04Z</time>
      </trkpt>
      <trkpt lat="44.0725" lon="6.27122">
        <ele>707.79998779297</ele>
        <time>2021-09-02T13:34:05Z</time>
      </trkpt>
      <trkpt lat="44.07241" lon="6.27132">
        <ele>708</ele>
        <time>2021-09-02T13:34:09Z</time>
      </trkpt>
      <trkpt lat="44.07227" lon="6.2716">
        <ele>707.59997558594</ele>
        <time>2021-09-02T13:34:16Z</time>
      </trkpt>
      <trkpt lat="44.07209" lon="6.27194">
        <ele>707.79998779297</ele>
        <time>2021-09-02T13:34:25Z</time>
      </trkpt>
      <trkpt lat="44.07192" lon="6.27213">
        <ele>708.20001220703</ele>
        <time>2021-09-02T13:34:31Z</time>
      </trkpt>
      <trkpt lat="44.07169" lon="6.27229">
        <ele>708.59997558594</ele>
        <time>2021-09-02T13:34:38Z</time>
      </trkpt>
      <trkpt lat="44.07159" lon="6.27236">
        <ele>708.79998779297</ele>
        <time>2021-09-02T13:34:41Z</time>
      </trkpt>
      <trkpt lat="44.07149" lon="6.27242">
        <ele>709</ele>
        <time>2021-09-02T13:34:44Z</time>
      </trkpt>
      <trkpt lat="44.07128" lon="6.27253">
        <ele>709.79998779297</ele>
        <time>2021-09-02T13:34:51Z</time>
      </trkpt>
      <trkpt lat="44.07125" lon="6.27254">
        <ele>710</ele>
        <time>2021-09-02T13:34:52Z</time>
      </trkpt>
      <trkpt lat="44.07111" lon="6.27258">
        <ele>710.40002441406</ele>
        <time>2021-09-02T13:34:57Z</time>
      </trkpt>
      <trkpt lat="44.07094" lon="6.27259">
        <ele>711.20001220703</ele>
        <time>2021-09-02T13:35:04Z</time>
      </trkpt>
      <trkpt lat="44.07092" lon="6.27259">
        <ele>711.20001220703</ele>
        <time>2021-09-02T13:35:05Z</time>
      </trkpt>
      <trkpt lat="44.07076" lon="6.27258">
        <ele>712</ele>
        <time>2021-09-02T13:35:12Z</time>
      </trkpt>
      <trkpt lat="44.07071" lon="6.27258">
        <ele>712.20001220703</ele>
        <time>2021-09-02T13:35:14Z</time>
      </trkpt>
      <trkpt lat="44.07054" lon="6.27258">
        <ele>712.79998779297</ele>
        <time>2021-09-02T13:35:21Z</time>
      </trkpt>
      <trkpt lat="44.07044" lon="6.27257">
        <ele>713.20001220703</ele>
        <time>2021-09-02T13:35:25Z</time>
      </trkpt>
      <trkpt lat="44.07033" lon="6.27258">
        <ele>713.40002441406</ele>
        <time>2021-09-02T13:35:29Z</time>
      </trkpt>
      <trkpt lat="44.07016" lon="6.27259">
        <ele>714.20001220703</ele>
        <time>2021-09-02T13:35:36Z</time>
      </trkpt>
      <trkpt lat="44.07013" lon="6.27259">
        <ele>714.40002441406</ele>
        <time>2021-09-02T13:35:37Z</time>
      </trkpt>
      <trkpt lat="44.06993" lon="6.27263">
        <ele>715.20001220703</ele>
        <time>2021-09-02T13:35:45Z</time>
      </trkpt>
      <trkpt lat="44.06987" lon="6.27264">
        <ele>715.40002441406</ele>
        <time>2021-09-02T13:35:47Z</time>
      </trkpt>
      <trkpt lat="44.06971" lon="6.27266">
        <ele>716.40002441406</ele>
        <time>2021-09-02T13:35:53Z</time>
      </trkpt>
      <trkpt lat="44.06969" lon="6.27266">
        <ele>716.40002441406</ele>
        <time>2021-09-02T13:35:54Z</time>
      </trkpt>
      <trkpt lat="44.0695" lon="6.27269">
        <ele>717.20001220703</ele>
        <time>2021-09-02T13:36:01Z</time>
      </trkpt>
      <trkpt lat="44.06942" lon="6.27271">
        <ele>717.59997558594</ele>
        <time>2021-09-02T13:36:04Z</time>
      </trkpt>
      <trkpt lat="44.06929" lon="6.27275">
        <ele>718</ele>
        <time>2021-09-02T13:36:09Z</time>
      </trkpt>
      <trkpt lat="44.06914" lon="6.27285">
        <ele>718.40002441406</ele>
        <time>2021-09-02T13:36:15Z</time>
      </trkpt>
      <trkpt lat="44.0691" lon="6.27303">
        <ele>718.59997558594</ele>
        <time>2021-09-02T13:36:19Z</time>
      </trkpt>
      <trkpt lat="44.06913" lon="6.27325">
        <ele>719.20001220703</ele>
        <time>2021-09-02T13:36:24Z</time>
      </trkpt>
      <trkpt lat="44.06923" lon="6.27357">
        <ele>718.59997558594</ele>
        <time>2021-09-02T13:36:32Z</time>
      </trkpt>
      <trkpt lat="44.06921" lon="6.27379">
        <ele>718.20001220703</ele>
        <time>2021-09-02T13:36:37Z</time>
      </trkpt>
      <trkpt lat="44.06908" lon="6.27398">
        <ele>718.40002441406</ele>
        <time>2021-09-02T13:36:43Z</time>
      </trkpt>
      <trkpt lat="44.06892" lon="6.27418">
        <ele>719</ele>
        <time>2021-09-02T13:36:50Z</time>
      </trkpt>
      <trkpt lat="44.06882" lon="6.27426">
        <ele>719.59997558594</ele>
        <time>2021-09-02T13:36:54Z</time>
      </trkpt>
      <trkpt lat="44.06873" lon="6.27433">
        <ele>720</ele>
        <time>2021-09-02T13:36:58Z</time>
      </trkpt>
      <trkpt lat="44.0686" lon="6.27448">
        <ele>720.79998779297</ele>
        <time>2021-09-02T13:37:04Z</time>
      </trkpt>
      <trkpt lat="44.06858" lon="6.2745">
        <ele>720.79998779297</ele>
        <time>2021-09-02T13:37:05Z</time>
      </trkpt>
      <trkpt lat="44.06852" lon="6.27465">
        <ele>721.20001220703</ele>
        <time>2021-09-02T13:37:10Z</time>
      </trkpt>
      <trkpt lat="44.06848" lon="6.27482">
        <ele>721.59997558594</ele>
        <time>2021-09-02T13:37:17Z</time>
      </trkpt>
      <trkpt lat="44.06847" lon="6.27484">
        <ele>721.79998779297</ele>
        <time>2021-09-02T13:37:19Z</time>
      </trkpt>
      <trkpt lat="44.06845" lon="6.27486">
        <ele>721.79998779297</ele>
        <time>2021-09-02T13:37:21Z</time>
      </trkpt>
      <trkpt lat="44.0684" lon="6.2749">
        <ele>721.79998779297</ele>
        <time>2021-09-02T13:37:24Z</time>
      </trkpt>
      <trkpt lat="44.06838" lon="6.27491">
        <ele>721.79998779297</ele>
        <time>2021-09-02T13:37:25Z</time>
      </trkpt>
      <trkpt lat="44.06834" lon="6.27494">
        <ele>721.79998779297</ele>
        <time>2021-09-02T13:37:29Z</time>
      </trkpt>
      <trkpt lat="44.06832" lon="6.27495">
        <ele>721.59997558594</ele>
        <time>2021-09-02T13:37:31Z</time>
      </trkpt>
      <trkpt lat="44.06824" lon="6.27498">
        <ele>721.79998779297</ele>
        <time>2021-09-02T13:37:35Z</time>
      </trkpt>
      <trkpt lat="44.06821" lon="6.27501">
        <ele>721.79998779297</ele>
        <time>2021-09-02T13:37:37Z</time>
      </trkpt>
      <trkpt lat="44.06808" lon="6.2751">
        <ele>721.79998779297</ele>
        <time>2021-09-02T13:37:44Z</time>
      </trkpt>
      <trkpt lat="44.06793" lon="6.27517">
        <ele>721.79998779297</ele>
        <time>2021-09-02T13:37:51Z</time>
      </trkpt>
      <trkpt lat="44.06782" lon="6.27523">
        <ele>722</ele>
        <time>2021-09-02T13:37:57Z</time>
      </trkpt>
      <trkpt lat="44.06779" lon="6.2753">
        <ele>722</ele>
        <time>2021-09-02T13:38:01Z</time>
      </trkpt>
      <trkpt lat="44.06779" lon="6.27532">
        <ele>722</ele>
        <time>2021-09-02T13:38:02Z</time>
      </trkpt>
      <trkpt lat="44.06786" lon="6.27537">
        <ele>722</ele>
        <time>2021-09-02T13:38:06Z</time>
      </trkpt>
      <trkpt lat="44.0679" lon="6.2754">
        <ele>722.20001220703</ele>
        <time>2021-09-02T13:38:08Z</time>
      </trkpt>
      <trkpt lat="44.06799" lon="6.27541">
        <ele>722.40002441406</ele>
        <time>2021-09-02T13:38:13Z</time>
      </trkpt>
      <trkpt lat="44.06809" lon="6.27544">
        <ele>722.40002441406</ele>
        <time>2021-09-02T13:38:19Z</time>
      </trkpt>
      <trkpt lat="44.0682" lon="6.27549">
        <ele>722.79998779297</ele>
        <time>2021-09-02T13:38:26Z</time>
      </trkpt>
      <trkpt lat="44.06822" lon="6.2755">
        <ele>722.79998779297</ele>
        <time>2021-09-02T13:38:27Z</time>
      </trkpt>
      <trkpt lat="44.06826" lon="6.27556">
        <ele>723.20001220703</ele>
        <time>2021-09-02T13:38:31Z</time>
      </trkpt>
      <trkpt lat="44.06828" lon="6.27559">
        <ele>723.20001220703</ele>
        <time>2021-09-02T13:38:33Z</time>
      </trkpt>
      <trkpt lat="44.06832" lon="6.27565">
        <ele>724</ele>
        <time>2021-09-02T13:38:37Z</time>
      </trkpt>
      <trkpt lat="44.06833" lon="6.27567">
        <ele>724</ele>
        <time>2021-09-02T13:38:38Z</time>
      </trkpt>
      <trkpt lat="44.06836" lon="6.2757">
        <ele>724.20001220703</ele>
        <time>2021-09-02T13:38:40Z</time>
      </trkpt>
      <trkpt lat="44.06842" lon="6.27584">
        <ele>724.40002441406</ele>
        <time>2021-09-02T13:38:47Z</time>
      </trkpt>
      <trkpt lat="44.06844" lon="6.27594">
        <ele>725</ele>
        <time>2021-09-02T13:38:52Z</time>
      </trkpt>
      <trkpt lat="44.06845" lon="6.276">
        <ele>725.40002441406</ele>
        <time>2021-09-02T13:38:55Z</time>
      </trkpt>
      <trkpt lat="44.06848" lon="6.27605">
        <ele>726</ele>
        <time>2021-09-02T13:38:59Z</time>
      </trkpt>
      <trkpt lat="44.06849" lon="6.27605">
        <ele>726.20001220703</ele>
        <time>2021-09-02T13:39:00Z</time>
      </trkpt>
      <trkpt lat="44.06852" lon="6.27612">
        <ele>726.59997558594</ele>
        <time>2021-09-02T13:39:10Z</time>
      </trkpt>
      <trkpt lat="44.06855" lon="6.27614">
        <ele>726.79998779297</ele>
        <time>2021-09-02T13:39:13Z</time>
      </trkpt>
      <trkpt lat="44.06865" lon="6.27621">
        <ele>715.79998779297</ele>
        <time>2021-09-03T06:30:44Z</time>
      </trkpt>
      <trkpt lat="44.06856" lon="6.27615">
        <ele>716</ele>
        <time>2021-09-03T06:30:59Z</time>
      </trkpt>
      <trkpt lat="44.06853" lon="6.27612">
        <ele>716.20001220703</ele>
        <time>2021-09-03T06:31:02Z</time>
      </trkpt>
      <trkpt lat="44.06848" lon="6.27604">
        <ele>716.40002441406</ele>
        <time>2021-09-03T06:31:08Z</time>
      </trkpt>
      <trkpt lat="44.06843" lon="6.27592">
        <ele>716.40002441406</ele>
        <time>2021-09-03T06:31:14Z</time>
      </trkpt>
      <trkpt lat="44.06842" lon="6.2759">
        <ele>716.40002441406</ele>
        <time>2021-09-03T06:31:15Z</time>
      </trkpt>
      <trkpt lat="44.06835" lon="6.27576">
        <ele>715</ele>
        <time>2021-09-03T06:31:22Z</time>
      </trkpt>
      <trkpt lat="44.06834" lon="6.27571">
        <ele>714.59997558594</ele>
        <time>2021-09-03T06:31:24Z</time>
      </trkpt>
      <trkpt lat="44.06829" lon="6.2756">
        <ele>714.20001220703</ele>
        <time>2021-09-03T06:31:29Z</time>
      </trkpt>
      <trkpt lat="44.06825" lon="6.27556">
        <ele>713.59997558594</ele>
        <time>2021-09-03T06:31:32Z</time>
      </trkpt>
      <trkpt lat="44.06821" lon="6.27551">
        <ele>713.40002441406</ele>
        <time>2021-09-03T06:31:35Z</time>
      </trkpt>
      <trkpt lat="44.06812" lon="6.27544">
        <ele>712.79998779297</ele>
        <time>2021-09-03T06:31:40Z</time>
      </trkpt>
      <trkpt lat="44.0681" lon="6.2754">
        <ele>712.59997558594</ele>
        <time>2021-09-03T06:31:42Z</time>
      </trkpt>
      <trkpt lat="44.06806" lon="6.27536">
        <ele>712.20001220703</ele>
        <time>2021-09-03T06:31:45Z</time>
      </trkpt>
      <trkpt lat="44.06804" lon="6.27534">
        <ele>711.79998779297</ele>
        <time>2021-09-03T06:31:47Z</time>
      </trkpt>
      <trkpt lat="44.06802" lon="6.27531">
        <ele>711.40002441406</ele>
        <time>2021-09-03T06:31:49Z</time>
      </trkpt>
      <trkpt lat="44.06801" lon="6.27531">
        <ele>711.20001220703</ele>
        <time>2021-09-03T06:31:50Z</time>
      </trkpt>
      <trkpt lat="44.06791" lon="6.27524">
        <ele>711</ele>
        <time>2021-09-03T06:31:59Z</time>
      </trkpt>
      <trkpt lat="44.06783" lon="6.27524">
        <ele>710.79998779297</ele>
        <time>2021-09-03T06:32:05Z</time>
      </trkpt>
      <trkpt lat="44.06782" lon="6.27526">
        <ele>710.79998779297</ele>
        <time>2021-09-03T06:32:06Z</time>
      </trkpt>
      <trkpt lat="44.06776" lon="6.27531">
        <ele>710.79998779297</ele>
        <time>2021-09-03T06:32:10Z</time>
      </trkpt>
      <trkpt lat="44.06763" lon="6.27536">
        <ele>711.20001220703</ele>
        <time>2021-09-03T06:32:16Z</time>
      </trkpt>
      <trkpt lat="44.06747" lon="6.27546">
        <ele>711.40002441406</ele>
        <time>2021-09-03T06:32:23Z</time>
      </trkpt>
      <trkpt lat="44.06729" lon="6.27555">
        <ele>711.79998779297</ele>
        <time>2021-09-03T06:32:30Z</time>
      </trkpt>
      <trkpt lat="44.06713" lon="6.27565">
        <ele>712.40002441406</ele>
        <time>2021-09-03T06:32:37Z</time>
      </trkpt>
      <trkpt lat="44.06695" lon="6.27576">
        <ele>713.20001220703</ele>
        <time>2021-09-03T06:32:45Z</time>
      </trkpt>
      <trkpt lat="44.06691" lon="6.27579">
        <ele>713.40002441406</ele>
        <time>2021-09-03T06:32:47Z</time>
      </trkpt>
      <trkpt lat="44.06675" lon="6.2759">
        <ele>713.79998779297</ele>
        <time>2021-09-03T06:32:54Z</time>
      </trkpt>
      <trkpt lat="44.0666" lon="6.27601">
        <ele>714.40002441406</ele>
        <time>2021-09-03T06:33:01Z</time>
      </trkpt>
      <trkpt lat="44.06653" lon="6.27604">
        <ele>714.59997558594</ele>
        <time>2021-09-03T06:33:04Z</time>
      </trkpt>
      <trkpt lat="44.06643" lon="6.27613">
        <ele>715</ele>
        <time>2021-09-03T06:33:09Z</time>
      </trkpt>
      <trkpt lat="44.0663" lon="6.27622">
        <ele>715.59997558594</ele>
        <time>2021-09-03T06:33:15Z</time>
      </trkpt>
      <trkpt lat="44.06628" lon="6.27623">
        <ele>715.79998779297</ele>
        <time>2021-09-03T06:33:16Z</time>
      </trkpt>
      <trkpt lat="44.0661" lon="6.27633">
        <ele>716.40002441406</ele>
        <time>2021-09-03T06:33:24Z</time>
      </trkpt>
      <trkpt lat="44.06607" lon="6.27634">
        <ele>716.59997558594</ele>
        <time>2021-09-03T06:33:25Z</time>
      </trkpt>
      <trkpt lat="44.06595" lon="6.27646">
        <ele>717.20001220703</ele>
        <time>2021-09-03T06:33:31Z</time>
      </trkpt>
      <trkpt lat="44.06582" lon="6.27663">
        <ele>717.79998779297</ele>
        <time>2021-09-03T06:33:39Z</time>
      </trkpt>
      <trkpt lat="44.0657" lon="6.27684">
        <ele>718.40002441406</ele>
        <time>2021-09-03T06:33:47Z</time>
      </trkpt>
      <trkpt lat="44.06565" lon="6.27691">
        <ele>718.79998779297</ele>
        <time>2021-09-03T06:33:50Z</time>
      </trkpt>
      <trkpt lat="44.06557" lon="6.27698">
        <ele>719.20001220703</ele>
        <time>2021-09-03T06:33:54Z</time>
      </trkpt>
      <trkpt lat="44.06544" lon="6.27707">
        <ele>719.79998779297</ele>
        <time>2021-09-03T06:34:00Z</time>
      </trkpt>
      <trkpt lat="44.06541" lon="6.27708">
        <ele>719.79998779297</ele>
        <time>2021-09-03T06:34:01Z</time>
      </trkpt>
      <trkpt lat="44.06524" lon="6.27721">
        <ele>720.20001220703</ele>
        <time>2021-09-03T06:34:09Z</time>
      </trkpt>
      <trkpt lat="44.0651" lon="6.27728">
        <ele>720.79998779297</ele>
        <time>2021-09-03T06:34:15Z</time>
      </trkpt>
      <trkpt lat="44.06504" lon="6.27734">
        <ele>721.20001220703</ele>
        <time>2021-09-03T06:34:18Z</time>
      </trkpt>
      <trkpt lat="44.06486" lon="6.27746">
        <ele>721.59997558594</ele>
        <time>2021-09-03T06:34:25Z</time>
      </trkpt>
      <trkpt lat="44.06477" lon="6.27754">
        <ele>721.79998779297</ele>
        <time>2021-09-03T06:34:29Z</time>
      </trkpt>
      <trkpt lat="44.06465" lon="6.27762">
        <ele>722.20001220703</ele>
        <time>2021-09-03T06:34:34Z</time>
      </trkpt>
      <trkpt lat="44.0645" lon="6.27774">
        <ele>722.79998779297</ele>
        <time>2021-09-03T06:34:41Z</time>
      </trkpt>
      <trkpt lat="44.06448" lon="6.27776">
        <ele>723</ele>
        <time>2021-09-03T06:34:42Z</time>
      </trkpt>
      <trkpt lat="44.06434" lon="6.27787">
        <ele>723.59997558594</ele>
        <time>2021-09-03T06:34:48Z</time>
      </trkpt>
      <trkpt lat="44.06425" lon="6.27795">
        <ele>724</ele>
        <time>2021-09-03T06:34:52Z</time>
      </trkpt>
      <trkpt lat="44.06416" lon="6.27802">
        <ele>724.40002441406</ele>
        <time>2021-09-03T06:34:56Z</time>
      </trkpt>
      <trkpt lat="44.06404" lon="6.27813">
        <ele>725</ele>
        <time>2021-09-03T06:35:02Z</time>
      </trkpt>
      <trkpt lat="44.06401" lon="6.27815">
        <ele>725.20001220703</ele>
        <time>2021-09-03T06:35:03Z</time>
      </trkpt>
      <trkpt lat="44.06388" lon="6.27823">
        <ele>725.59997558594</ele>
        <time>2021-09-03T06:35:08Z</time>
      </trkpt>
      <trkpt lat="44.06374" lon="6.27833">
        <ele>726.20001220703</ele>
        <time>2021-09-03T06:35:14Z</time>
      </trkpt>
      <trkpt lat="44.06369" lon="6.27836">
        <ele>726.20001220703</ele>
        <time>2021-09-03T06:35:16Z</time>
      </trkpt>
      <trkpt lat="44.06348" lon="6.27854">
        <ele>727.20001220703</ele>
        <time>2021-09-03T06:35:25Z</time>
      </trkpt>
      <trkpt lat="44.06341" lon="6.27859">
        <ele>727.40002441406</ele>
        <time>2021-09-03T06:35:28Z</time>
      </trkpt>
      <trkpt lat="44.06326" lon="6.27873">
        <ele>728.40002441406</ele>
        <time>2021-09-03T06:35:35Z</time>
      </trkpt>
      <trkpt lat="44.06323" lon="6.27875">
        <ele>728.40002441406</ele>
        <time>2021-09-03T06:35:36Z</time>
      </trkpt>
      <trkpt lat="44.06305" lon="6.27889">
        <ele>729.20001220703</ele>
        <time>2021-09-03T06:35:44Z</time>
      </trkpt>
      <trkpt lat="44.06303" lon="6.2789">
        <ele>729.40002441406</ele>
        <time>2021-09-03T06:35:45Z</time>
      </trkpt>
      <trkpt lat="44.06284" lon="6.27901">
        <ele>730.20001220703</ele>
        <time>2021-09-03T06:35:53Z</time>
      </trkpt>
      <trkpt lat="44.0628" lon="6.27904">
        <ele>730.40002441406</ele>
        <time>2021-09-03T06:35:55Z</time>
      </trkpt>
      <trkpt lat="44.06265" lon="6.27914">
        <ele>731</ele>
        <time>2021-09-03T06:36:01Z</time>
      </trkpt>
      <trkpt lat="44.06249" lon="6.27926">
        <ele>731.40002441406</ele>
        <time>2021-09-03T06:36:08Z</time>
      </trkpt>
      <trkpt lat="44.06247" lon="6.27928">
        <ele>731.40002441406</ele>
        <time>2021-09-03T06:36:09Z</time>
      </trkpt>
      <trkpt lat="44.06234" lon="6.27941">
        <ele>732</ele>
        <time>2021-09-03T06:36:15Z</time>
      </trkpt>
      <trkpt lat="44.06217" lon="6.27956">
        <ele>732.59997558594</ele>
        <time>2021-09-03T06:36:22Z</time>
      </trkpt>
      <trkpt lat="44.06198" lon="6.27965">
        <ele>733.20001220703</ele>
        <time>2021-09-03T06:36:29Z</time>
      </trkpt>
      <trkpt lat="44.0619" lon="6.27971">
        <ele>733.59997558594</ele>
        <time>2021-09-03T06:36:32Z</time>
      </trkpt>
      <trkpt lat="44.06179" lon="6.27975">
        <ele>733.79998779297</ele>
        <time>2021-09-03T06:36:36Z</time>
      </trkpt>
      <trkpt lat="44.06158" lon="6.27988">
        <ele>734.20001220703</ele>
        <time>2021-09-03T06:36:44Z</time>
      </trkpt>
      <trkpt lat="44.06145" lon="6.27998">
        <ele>734.40002441406</ele>
        <time>2021-09-03T06:36:50Z</time>
      </trkpt>
      <trkpt lat="44.06141" lon="6.28001">
        <ele>734.59997558594</ele>
        <time>2021-09-03T06:36:52Z</time>
      </trkpt>
      <trkpt lat="44.06139" lon="6.28004">
        <ele>734.59997558594</ele>
        <time>2021-09-03T06:36:53Z</time>
      </trkpt>
      <trkpt lat="44.06137" lon="6.28006">
        <ele>734.59997558594</ele>
        <time>2021-09-03T06:36:54Z</time>
      </trkpt>
      <trkpt lat="44.06129" lon="6.28009">
        <ele>735.20001220703</ele>
        <time>2021-09-03T06:36:58Z</time>
      </trkpt>
      <trkpt lat="44.0611" lon="6.28017">
        <ele>735.59997558594</ele>
        <time>2021-09-03T06:37:07Z</time>
      </trkpt>
      <trkpt lat="44.06109" lon="6.28021">
        <ele>735.59997558594</ele>
        <time>2021-09-03T06:37:10Z</time>
      </trkpt>
      <trkpt lat="44.06112" lon="6.28025">
        <ele>735.79998779297</ele>
        <time>2021-09-03T06:38:15Z</time>
      </trkpt>
      <trkpt lat="44.06114" lon="6.28043">
        <ele>736</ele>
        <time>2021-09-03T06:38:21Z</time>
      </trkpt>
      <trkpt lat="44.06109" lon="6.28057">
        <ele>736.40002441406</ele>
        <time>2021-09-03T06:38:26Z</time>
      </trkpt>
      <trkpt lat="44.06107" lon="6.28059">
        <ele>736.40002441406</ele>
        <time>2021-09-03T06:38:27Z</time>
      </trkpt>
      <trkpt lat="44.06102" lon="6.28068">
        <ele>736.59997558594</ele>
        <time>2021-09-03T06:38:30Z</time>
      </trkpt>
      <trkpt lat="44.06094" lon="6.28078">
        <ele>737</ele>
        <time>2021-09-03T06:38:34Z</time>
      </trkpt>
      <trkpt lat="44.06083" lon="6.28095">
        <ele>737.79998779297</ele>
        <time>2021-09-03T06:38:40Z</time>
      </trkpt>
      <trkpt lat="44.06071" lon="6.28117">
        <ele>738.40002441406</ele>
        <time>2021-09-03T06:38:48Z</time>
      </trkpt>
      <trkpt lat="44.06067" lon="6.28122">
        <ele>738.79998779297</ele>
        <time>2021-09-03T06:38:50Z</time>
      </trkpt>
      <trkpt lat="44.06059" lon="6.28137">
        <ele>739.40002441406</ele>
        <time>2021-09-03T06:38:56Z</time>
      </trkpt>
      <trkpt lat="44.06055" lon="6.28144">
        <ele>739.79998779297</ele>
        <time>2021-09-03T06:38:59Z</time>
      </trkpt>
      <trkpt lat="44.0605" lon="6.28155">
        <ele>740.40002441406</ele>
        <time>2021-09-03T06:39:03Z</time>
      </trkpt>
      <trkpt lat="44.06046" lon="6.28163">
        <ele>740.79998779297</ele>
        <time>2021-09-03T06:39:06Z</time>
      </trkpt>
      <trkpt lat="44.06041" lon="6.28173">
        <ele>741.20001220703</ele>
        <time>2021-09-03T06:39:10Z</time>
      </trkpt>
      <trkpt lat="44.06036" lon="6.28183">
        <ele>741.79998779297</ele>
        <time>2021-09-03T06:39:14Z</time>
      </trkpt>
      <trkpt lat="44.06027" lon="6.282">
        <ele>742.79998779297</ele>
        <time>2021-09-03T06:39:21Z</time>
      </trkpt>
      <trkpt lat="44.06025" lon="6.28202">
        <ele>743</ele>
        <time>2021-09-03T06:39:22Z</time>
      </trkpt>
      <trkpt lat="44.06016" lon="6.28221">
        <ele>744</ele>
        <time>2021-09-03T06:39:30Z</time>
      </trkpt>
      <trkpt lat="44.06006" lon="6.2824">
        <ele>745</ele>
        <time>2021-09-03T06:39:38Z</time>
      </trkpt>
      <trkpt lat="44.05997" lon="6.28256">
        <ele>745.79998779297</ele>
        <time>2021-09-03T06:39:45Z</time>
      </trkpt>
      <trkpt lat="44.05994" lon="6.28261">
        <ele>746</ele>
        <time>2021-09-03T06:39:47Z</time>
      </trkpt>
      <trkpt lat="44.05987" lon="6.28275">
        <ele>746.79998779297</ele>
        <time>2021-09-03T06:39:53Z</time>
      </trkpt>
      <trkpt lat="44.05983" lon="6.28282">
        <ele>747.20001220703</ele>
        <time>2021-09-03T06:39:56Z</time>
      </trkpt>
      <trkpt lat="44.05977" lon="6.28294">
        <ele>747.79998779297</ele>
        <time>2021-09-03T06:40:01Z</time>
      </trkpt>
      <trkpt lat="44.05973" lon="6.28303">
        <ele>748.20001220703</ele>
        <time>2021-09-03T06:40:05Z</time>
      </trkpt>
      <trkpt lat="44.0597" lon="6.28308">
        <ele>748.40002441406</ele>
        <time>2021-09-03T06:40:07Z</time>
      </trkpt>
      <trkpt lat="44.05961" lon="6.28324">
        <ele>749.40002441406</ele>
        <time>2021-09-03T06:40:14Z</time>
      </trkpt>
      <trkpt lat="44.05959" lon="6.28326">
        <ele>749.40002441406</ele>
        <time>2021-09-03T06:40:15Z</time>
      </trkpt>
      <trkpt lat="44.05949" lon="6.28349">
        <ele>750.40002441406</ele>
        <time>2021-09-03T06:40:24Z</time>
      </trkpt>
      <trkpt lat="44.05947" lon="6.28351">
        <ele>750.59997558594</ele>
        <time>2021-09-03T06:40:25Z</time>
      </trkpt>
      <trkpt lat="44.05941" lon="6.28369">
        <ele>751.40002441406</ele>
        <time>2021-09-03T06:40:32Z</time>
      </trkpt>
      <trkpt lat="44.0594" lon="6.28388">
        <ele>752.40002441406</ele>
        <time>2021-09-03T06:40:38Z</time>
      </trkpt>
      <trkpt lat="44.05938" lon="6.28394">
        <ele>752.59997558594</ele>
        <time>2021-09-03T06:40:40Z</time>
      </trkpt>
      <trkpt lat="44.05934" lon="6.28404">
        <ele>753</ele>
        <time>2021-09-03T06:40:44Z</time>
      </trkpt>
      <trkpt lat="44.0593" lon="6.28409">
        <ele>753.20001220703</ele>
        <time>2021-09-03T06:40:46Z</time>
      </trkpt>
      <trkpt lat="44.05922" lon="6.28418">
        <ele>753.59997558594</ele>
        <time>2021-09-03T06:40:50Z</time>
      </trkpt>
      <trkpt lat="44.0592" lon="6.2842">
        <ele>753.59997558594</ele>
        <time>2021-09-03T06:40:51Z</time>
      </trkpt>
      <trkpt lat="44.05903" lon="6.28434">
        <ele>754.40002441406</ele>
        <time>2021-09-03T06:40:59Z</time>
      </trkpt>
      <trkpt lat="44.05899" lon="6.28438">
        <ele>754.59997558594</ele>
        <time>2021-09-03T06:41:01Z</time>
      </trkpt>
      <trkpt lat="44.05889" lon="6.28451">
        <ele>755.20001220703</ele>
        <time>2021-09-03T06:41:07Z</time>
      </trkpt>
      <trkpt lat="44.05878" lon="6.28464">
        <ele>755.59997558594</ele>
        <time>2021-09-03T06:41:13Z</time>
      </trkpt>
      <trkpt lat="44.0586" lon="6.2849">
        <ele>756</ele>
        <time>2021-09-03T06:41:22Z</time>
      </trkpt>
      <trkpt lat="44.05843" lon="6.28509">
        <ele>756</ele>
        <time>2021-09-03T06:41:28Z</time>
      </trkpt>
      <trkpt lat="44.05815" lon="6.2853">
        <ele>755.79998779297</ele>
        <time>2021-09-03T06:41:36Z</time>
      </trkpt>
      <trkpt lat="44.0579" lon="6.28558">
        <ele>755.59997558594</ele>
        <time>2021-09-03T06:41:44Z</time>
      </trkpt>
      <trkpt lat="44.05766" lon="6.28601">
        <ele>755.79998779297</ele>
        <time>2021-09-03T06:41:54Z</time>
      </trkpt>
      <trkpt lat="44.05749" lon="6.2863">
        <ele>756.40002441406</ele>
        <time>2021-09-03T06:42:02Z</time>
      </trkpt>
      <trkpt lat="44.05743" lon="6.28641">
        <ele>756.79998779297</ele>
        <time>2021-09-03T06:42:05Z</time>
      </trkpt>
      <trkpt lat="44.05737" lon="6.28652">
        <ele>757</ele>
        <time>2021-09-03T06:42:08Z</time>
      </trkpt>
      <trkpt lat="44.05727" lon="6.28675">
        <ele>757.79998779297</ele>
        <time>2021-09-03T06:42:14Z</time>
      </trkpt>
      <trkpt lat="44.05724" lon="6.28683">
        <ele>758</ele>
        <time>2021-09-03T06:42:16Z</time>
      </trkpt>
      <trkpt lat="44.05717" lon="6.28714">
        <ele>758.79998779297</ele>
        <time>2021-09-03T06:42:24Z</time>
      </trkpt>
      <trkpt lat="44.05716" lon="6.28718">
        <ele>758.79998779297</ele>
        <time>2021-09-03T06:42:25Z</time>
      </trkpt>
      <trkpt lat="44.05715" lon="6.28737">
        <ele>759.20001220703</ele>
        <time>2021-09-03T06:42:30Z</time>
      </trkpt>
      <trkpt lat="44.05712" lon="6.28756">
        <ele>759.79998779297</ele>
        <time>2021-09-03T06:42:35Z</time>
      </trkpt>
      <trkpt lat="44.05711" lon="6.2876">
        <ele>760</ele>
        <time>2021-09-03T06:42:36Z</time>
      </trkpt>
      <trkpt lat="44.05708" lon="6.28782">
        <ele>760.79998779297</ele>
        <time>2021-09-03T06:42:42Z</time>
      </trkpt>
      <trkpt lat="44.05706" lon="6.28791">
        <ele>761.20001220703</ele>
        <time>2021-09-03T06:42:45Z</time>
      </trkpt>
      <trkpt lat="44.05703" lon="6.28808">
        <ele>762</ele>
        <time>2021-09-03T06:42:50Z</time>
      </trkpt>
      <trkpt lat="44.05702" lon="6.28818">
        <ele>762.40002441406</ele>
        <time>2021-09-03T06:42:53Z</time>
      </trkpt>
      <trkpt lat="44.05698" lon="6.28835">
        <ele>763</ele>
        <time>2021-09-03T06:42:58Z</time>
      </trkpt>
      <trkpt lat="44.05695" lon="6.28844">
        <ele>763.40002441406</ele>
        <time>2021-09-03T06:43:01Z</time>
      </trkpt>
      <trkpt lat="44.05692" lon="6.28856">
        <ele>764.20001220703</ele>
        <time>2021-09-03T06:43:05Z</time>
      </trkpt>
      <trkpt lat="44.05688" lon="6.28872">
        <ele>764.79998779297</ele>
        <time>2021-09-03T06:43:10Z</time>
      </trkpt>
      <trkpt lat="44.05685" lon="6.28885">
        <ele>765.20001220703</ele>
        <time>2021-09-03T06:43:14Z</time>
      </trkpt>
      <trkpt lat="44.0568" lon="6.28899">
        <ele>765.79998779297</ele>
        <time>2021-09-03T06:43:19Z</time>
      </trkpt>
      <trkpt lat="44.05674" lon="6.28912">
        <ele>766.20001220703</ele>
        <time>2021-09-03T06:43:23Z</time>
      </trkpt>
      <trkpt lat="44.05668" lon="6.28923">
        <ele>766.79998779297</ele>
        <time>2021-09-03T06:43:27Z</time>
      </trkpt>
      <trkpt lat="44.05653" lon="6.28938">
        <ele>767.20001220703</ele>
        <time>2021-09-03T06:43:34Z</time>
      </trkpt>
      <trkpt lat="44.05651" lon="6.2894">
        <ele>767.40002441406</ele>
        <time>2021-09-03T06:43:35Z</time>
      </trkpt>
      <trkpt lat="44.05634" lon="6.28951">
        <ele>768</ele>
        <time>2021-09-03T06:43:42Z</time>
      </trkpt>
      <trkpt lat="44.05629" lon="6.28955">
        <ele>768.20001220703</ele>
        <time>2021-09-03T06:43:44Z</time>
      </trkpt>
      <trkpt lat="44.05616" lon="6.28962">
        <ele>768.59997558594</ele>
        <time>2021-09-03T06:43:49Z</time>
      </trkpt>
      <trkpt lat="44.05604" lon="6.28966">
        <ele>769.40002441406</ele>
        <time>2021-09-03T06:43:54Z</time>
      </trkpt>
      <trkpt lat="44.056" lon="6.28967">
        <ele>769.40002441406</ele>
        <time>2021-09-03T06:43:56Z</time>
      </trkpt>
      <trkpt lat="44.05584" lon="6.28973">
        <ele>770.40002441406</ele>
        <time>2021-09-03T06:44:03Z</time>
      </trkpt>
      <trkpt lat="44.05582" lon="6.28973">
        <ele>770.40002441406</ele>
        <time>2021-09-03T06:44:04Z</time>
      </trkpt>
      <trkpt lat="44.05565" lon="6.28979">
        <ele>771.40002441406</ele>
        <time>2021-09-03T06:44:11Z</time>
      </trkpt>
      <trkpt lat="44.05554" lon="6.28989">
        <ele>772.40002441406</ele>
        <time>2021-09-03T06:44:17Z</time>
      </trkpt>
      <trkpt lat="44.05552" lon="6.28991">
        <ele>772.40002441406</ele>
        <time>2021-09-03T06:44:18Z</time>
      </trkpt>
      <trkpt lat="44.05546" lon="6.29003">
        <ele>773</ele>
        <time>2021-09-03T06:44:22Z</time>
      </trkpt>
      <trkpt lat="44.05539" lon="6.29015">
        <ele>773.40002441406</ele>
        <time>2021-09-03T06:44:27Z</time>
      </trkpt>
      <trkpt lat="44.05534" lon="6.29022">
        <ele>773.79998779297</ele>
        <time>2021-09-03T06:44:30Z</time>
      </trkpt>
      <trkpt lat="44.05523" lon="6.29038">
        <ele>774.59997558594</ele>
        <time>2021-09-03T06:44:37Z</time>
      </trkpt>
      <trkpt lat="44.0552" lon="6.29042">
        <ele>775</ele>
        <time>2021-09-03T06:44:39Z</time>
      </trkpt>
      <trkpt lat="44.05513" lon="6.29055">
        <ele>775.59997558594</ele>
        <time>2021-09-03T06:44:44Z</time>
      </trkpt>
      <trkpt lat="44.0551" lon="6.29059">
        <ele>775.79998779297</ele>
        <time>2021-09-03T06:44:46Z</time>
      </trkpt>
      <trkpt lat="44.05501" lon="6.29072">
        <ele>776.59997558594</ele>
        <time>2021-09-03T06:44:52Z</time>
      </trkpt>
      <trkpt lat="44.055" lon="6.29074">
        <ele>776.79998779297</ele>
        <time>2021-09-03T06:44:53Z</time>
      </trkpt>
      <trkpt lat="44.05487" lon="6.29091">
        <ele>777.59997558594</ele>
        <time>2021-09-03T06:45:01Z</time>
      </trkpt>
      <trkpt lat="44.05486" lon="6.29093">
        <ele>778</ele>
        <time>2021-09-03T06:45:02Z</time>
      </trkpt>
      <trkpt lat="44.05473" lon="6.29109">
        <ele>778.79998779297</ele>
        <time>2021-09-03T06:45:09Z</time>
      </trkpt>
      <trkpt lat="44.05472" lon="6.29111">
        <ele>779</ele>
        <time>2021-09-03T06:45:10Z</time>
      </trkpt>
      <trkpt lat="44.05464" lon="6.29128">
        <ele>779.59997558594</ele>
        <time>2021-09-03T06:45:16Z</time>
      </trkpt>
      <trkpt lat="44.05458" lon="6.29137">
        <ele>780</ele>
        <time>2021-09-03T06:45:20Z</time>
      </trkpt>
      <trkpt lat="44.05454" lon="6.29148">
        <ele>780.59997558594</ele>
        <time>2021-09-03T06:45:24Z</time>
      </trkpt>
      <trkpt lat="44.05449" lon="6.29159">
        <ele>781</ele>
        <time>2021-09-03T06:45:28Z</time>
      </trkpt>
      <trkpt lat="44.05441" lon="6.29177">
        <ele>781.79998779297</ele>
        <time>2021-09-03T06:45:35Z</time>
      </trkpt>
      <trkpt lat="44.05438" lon="6.29182">
        <ele>782.20001220703</ele>
        <time>2021-09-03T06:45:37Z</time>
      </trkpt>
      <trkpt lat="44.05426" lon="6.29193">
        <ele>783.20001220703</ele>
        <time>2021-09-03T06:45:44Z</time>
      </trkpt>
      <trkpt lat="44.05414" lon="6.29195">
        <ele>784.20001220703</ele>
        <time>2021-09-03T06:45:50Z</time>
      </trkpt>
      <trkpt lat="44.05411" lon="6.29194">
        <ele>784.40002441406</ele>
        <time>2021-09-03T06:45:52Z</time>
      </trkpt>
      <trkpt lat="44.05402" lon="6.29196">
        <ele>785.40002441406</ele>
        <time>2021-09-03T06:45:57Z</time>
      </trkpt>
      <trkpt lat="44.05395" lon="6.29197">
        <ele>786</ele>
        <time>2021-09-03T06:46:01Z</time>
      </trkpt>
      <trkpt lat="44.05392" lon="6.29198">
        <ele>786.40002441406</ele>
        <time>2021-09-03T06:46:03Z</time>
      </trkpt>
      <trkpt lat="44.05383" lon="6.29201">
        <ele>787</ele>
        <time>2021-09-03T06:46:08Z</time>
      </trkpt>
      <trkpt lat="44.0538" lon="6.29201">
        <ele>787.40002441406</ele>
        <time>2021-09-03T06:46:10Z</time>
      </trkpt>
      <trkpt lat="44.0537" lon="6.29203">
        <ele>788.40002441406</ele>
        <time>2021-09-03T06:46:16Z</time>
      </trkpt>
      <trkpt lat="44.05368" lon="6.29203">
        <ele>788.59997558594</ele>
        <time>2021-09-03T06:46:17Z</time>
      </trkpt>
      <trkpt lat="44.05358" lon="6.29202">
        <ele>789.59997558594</ele>
        <time>2021-09-03T06:46:23Z</time>
      </trkpt>
      <trkpt lat="44.05357" lon="6.29202">
        <ele>789.79998779297</ele>
        <time>2021-09-03T06:46:24Z</time>
      </trkpt>
      <trkpt lat="44.05347" lon="6.29199">
        <ele>790.79998779297</ele>
        <time>2021-09-03T06:46:30Z</time>
      </trkpt>
      <trkpt lat="44.05345" lon="6.29199">
        <ele>790.79998779297</ele>
        <time>2021-09-03T06:46:31Z</time>
      </trkpt>
      <trkpt lat="44.05336" lon="6.29195">
        <ele>791.79998779297</ele>
        <time>2021-09-03T06:46:37Z</time>
      </trkpt>
      <trkpt lat="44.05333" lon="6.29194">
        <ele>792.20001220703</ele>
        <time>2021-09-03T06:46:39Z</time>
      </trkpt>
      <trkpt lat="44.05328" lon="6.29193">
        <ele>792.79998779297</ele>
        <time>2021-09-03T06:46:42Z</time>
      </trkpt>
      <trkpt lat="44.05321" lon="6.2919">
        <ele>793.40002441406</ele>
        <time>2021-09-03T06:46:46Z</time>
      </trkpt>
      <trkpt lat="44.05316" lon="6.29188">
        <ele>793.79998779297</ele>
        <time>2021-09-03T06:46:49Z</time>
      </trkpt>
      <trkpt lat="44.05308" lon="6.29185">
        <ele>794.40002441406</ele>
        <time>2021-09-03T06:46:54Z</time>
      </trkpt>
      <trkpt lat="44.05302" lon="6.29185">
        <ele>795</ele>
        <time>2021-09-03T06:46:58Z</time>
      </trkpt>
      <trkpt lat="44.05299" lon="6.29184">
        <ele>795.20001220703</ele>
        <time>2021-09-03T06:47:00Z</time>
      </trkpt>
      <trkpt lat="44.05292" lon="6.29184">
        <ele>796</ele>
        <time>2021-09-03T06:47:04Z</time>
      </trkpt>
      <trkpt lat="44.05285" lon="6.29185">
        <ele>796.59997558594</ele>
        <time>2021-09-03T06:47:08Z</time>
      </trkpt>
      <trkpt lat="44.05278" lon="6.29189">
        <ele>797.20001220703</ele>
        <time>2021-09-03T06:47:12Z</time>
      </trkpt>
      <trkpt lat="44.05273" lon="6.29194">
        <ele>797.59997558594</ele>
        <time>2021-09-03T06:47:16Z</time>
      </trkpt>
      <trkpt lat="44.05268" lon="6.29199">
        <ele>798.20001220703</ele>
        <time>2021-09-03T06:47:20Z</time>
      </trkpt>
      <trkpt lat="44.05265" lon="6.29204">
        <ele>798.79998779297</ele>
        <time>2021-09-03T06:47:23Z</time>
      </trkpt>
      <trkpt lat="44.05261" lon="6.29208">
        <ele>799.40002441406</ele>
        <time>2021-09-03T06:47:26Z</time>
      </trkpt>
      <trkpt lat="44.05258" lon="6.29214">
        <ele>800</ele>
        <time>2021-09-03T06:47:30Z</time>
      </trkpt>
      <trkpt lat="44.05254" lon="6.29219">
        <ele>800.40002441406</ele>
        <time>2021-09-03T06:47:33Z</time>
      </trkpt>
      <trkpt lat="44.05248" lon="6.29221">
        <ele>800.79998779297</ele>
        <time>2021-09-03T06:47:36Z</time>
      </trkpt>
      <trkpt lat="44.05242" lon="6.29221">
        <ele>801.40002441406</ele>
        <time>2021-09-03T06:47:40Z</time>
      </trkpt>
      <trkpt lat="44.05241" lon="6.2922">
        <ele>801.59997558594</ele>
        <time>2021-09-03T06:47:41Z</time>
      </trkpt>
      <trkpt lat="44.0524" lon="6.29218">
        <ele>801.59997558594</ele>
        <time>2021-09-03T06:47:42Z</time>
      </trkpt>
      <trkpt lat="44.0524" lon="6.29204">
        <ele>802.40002441406</ele>
        <time>2021-09-03T06:47:48Z</time>
      </trkpt>
      <trkpt lat="44.05241" lon="6.29203">
        <ele>802.59997558594</ele>
        <time>2021-09-03T06:47:49Z</time>
      </trkpt>
      <trkpt lat="44.05242" lon="6.29201">
        <ele>802.79998779297</ele>
        <time>2021-09-03T06:47:50Z</time>
      </trkpt>
      <trkpt lat="44.05247" lon="6.29194">
        <ele>803.59997558594</ele>
        <time>2021-09-03T06:47:55Z</time>
      </trkpt>
      <trkpt lat="44.05248" lon="6.29192">
        <ele>803.59997558594</ele>
        <time>2021-09-03T06:47:56Z</time>
      </trkpt>
      <trkpt lat="44.05257" lon="6.29181">
        <ele>804.20001220703</ele>
        <time>2021-09-03T06:48:02Z</time>
      </trkpt>
      <trkpt lat="44.05263" lon="6.29174">
        <ele>804.79998779297</ele>
        <time>2021-09-03T06:48:06Z</time>
      </trkpt>
      <trkpt lat="44.05268" lon="6.2917">
        <ele>804.79998779297</ele>
        <time>2021-09-03T06:48:09Z</time>
      </trkpt>
      <trkpt lat="44.05283" lon="6.29161">
        <ele>805.79998779297</ele>
        <time>2021-09-03T06:48:17Z</time>
      </trkpt>
      <trkpt lat="44.05288" lon="6.29153">
        <ele>806.20001220703</ele>
        <time>2021-09-03T06:48:21Z</time>
      </trkpt>
      <trkpt lat="44.05288" lon="6.29148">
        <ele>806.40002441406</ele>
        <time>2021-09-03T06:48:23Z</time>
      </trkpt>
      <trkpt lat="44.05284" lon="6.29143">
        <ele>806.79998779297</ele>
        <time>2021-09-03T06:48:26Z</time>
      </trkpt>
      <trkpt lat="44.0528" lon="6.29142">
        <ele>807</ele>
        <time>2021-09-03T06:48:28Z</time>
      </trkpt>
      <trkpt lat="44.05272" lon="6.29146">
        <ele>807.79998779297</ele>
        <time>2021-09-03T06:48:33Z</time>
      </trkpt>
      <trkpt lat="44.0527" lon="6.29148">
        <ele>807.79998779297</ele>
        <time>2021-09-03T06:48:34Z</time>
      </trkpt>
      <trkpt lat="44.05258" lon="6.29156">
        <ele>808.59997558594</ele>
        <time>2021-09-03T06:48:41Z</time>
      </trkpt>
      <trkpt lat="44.05255" lon="6.29157">
        <ele>808.79998779297</ele>
        <time>2021-09-03T06:48:43Z</time>
      </trkpt>
      <trkpt lat="44.05246" lon="6.29161">
        <ele>809.40002441406</ele>
        <time>2021-09-03T06:48:48Z</time>
      </trkpt>
      <trkpt lat="44.05241" lon="6.29163">
        <ele>810</ele>
        <time>2021-09-03T06:48:51Z</time>
      </trkpt>
      <trkpt lat="44.05233" lon="6.29167">
        <ele>810.59997558594</ele>
        <time>2021-09-03T06:48:56Z</time>
      </trkpt>
      <trkpt lat="44.05229" lon="6.29169">
        <ele>811</ele>
        <time>2021-09-03T06:48:58Z</time>
      </trkpt>
      <trkpt lat="44.05219" lon="6.29173">
        <ele>812.20001220703</ele>
        <time>2021-09-03T06:49:04Z</time>
      </trkpt>
      <trkpt lat="44.0521" lon="6.29175">
        <ele>813.20001220703</ele>
        <time>2021-09-03T06:49:10Z</time>
      </trkpt>
      <trkpt lat="44.05201" lon="6.29178">
        <ele>814.20001220703</ele>
        <time>2021-09-03T06:49:16Z</time>
      </trkpt>
      <trkpt lat="44.05199" lon="6.29178">
        <ele>814.40002441406</ele>
        <time>2021-09-03T06:49:17Z</time>
      </trkpt>
      <trkpt lat="44.0519" lon="6.29179">
        <ele>815.20001220703</ele>
        <time>2021-09-03T06:49:23Z</time>
      </trkpt>
      <trkpt lat="44.05188" lon="6.2918">
        <ele>815.40002441406</ele>
        <time>2021-09-03T06:49:24Z</time>
      </trkpt>
      <trkpt lat="44.05185" lon="6.2918">
        <ele>815.59997558594</ele>
        <time>2021-09-03T06:49:26Z</time>
      </trkpt>
      <trkpt lat="44.05181" lon="6.29179">
        <ele>816.20001220703</ele>
        <time>2021-09-03T06:49:29Z</time>
      </trkpt>
      <trkpt lat="44.0518" lon="6.29179">
        <ele>816.40002441406</ele>
        <time>2021-09-03T06:49:30Z</time>
      </trkpt>
      <trkpt lat="44.0517" lon="6.29182">
        <ele>817.20001220703</ele>
        <time>2021-09-03T06:49:36Z</time>
      </trkpt>
      <trkpt lat="44.05169" lon="6.29182">
        <ele>817.40002441406</ele>
        <time>2021-09-03T06:49:37Z</time>
      </trkpt>
      <trkpt lat="44.05167" lon="6.29182">
        <ele>817.79998779297</ele>
        <time>2021-09-03T06:49:39Z</time>
      </trkpt>
      <trkpt lat="44.05163" lon="6.29185">
        <ele>818.79998779297</ele>
        <time>2021-09-03T06:50:13Z</time>
      </trkpt>
      <trkpt lat="44.05162" lon="6.29186">
        <ele>818.79998779297</ele>
        <time>2021-09-03T06:50:14Z</time>
      </trkpt>
      <trkpt lat="44.05149" lon="6.2919">
        <ele>819.79998779297</ele>
        <time>2021-09-03T06:50:22Z</time>
      </trkpt>
      <trkpt lat="44.05141" lon="6.29188">
        <ele>820.59997558594</ele>
        <time>2021-09-03T06:50:28Z</time>
      </trkpt>
      <trkpt lat="44.0514" lon="6.29188">
        <ele>820.79998779297</ele>
        <time>2021-09-03T06:50:29Z</time>
      </trkpt>
      <trkpt lat="44.05131" lon="6.2919">
        <ele>821.79998779297</ele>
        <time>2021-09-03T06:50:34Z</time>
      </trkpt>
      <trkpt lat="44.0513" lon="6.2919">
        <ele>822</ele>
        <time>2021-09-03T06:50:35Z</time>
      </trkpt>
      <trkpt lat="44.0512" lon="6.2919">
        <ele>823</ele>
        <time>2021-09-03T06:50:41Z</time>
      </trkpt>
      <trkpt lat="44.05116" lon="6.29191">
        <ele>823.59997558594</ele>
        <time>2021-09-03T06:50:44Z</time>
      </trkpt>
      <trkpt lat="44.0511" lon="6.2919">
        <ele>824.20001220703</ele>
        <time>2021-09-03T06:50:48Z</time>
      </trkpt>
      <trkpt lat="44.05108" lon="6.2919">
        <ele>824.40002441406</ele>
        <time>2021-09-03T06:50:49Z</time>
      </trkpt>
      <trkpt lat="44.05099" lon="6.29191">
        <ele>825.20001220703</ele>
        <time>2021-09-03T06:50:55Z</time>
      </trkpt>
      <trkpt lat="44.05096" lon="6.29191">
        <ele>825.59997558594</ele>
        <time>2021-09-03T06:50:57Z</time>
      </trkpt>
      <trkpt lat="44.05093" lon="6.29192">
        <ele>826</ele>
        <time>2021-09-03T06:50:59Z</time>
      </trkpt>
      <trkpt lat="44.05091" lon="6.29192">
        <ele>826.40002441406</ele>
        <time>2021-09-03T06:51:01Z</time>
      </trkpt>
      <trkpt lat="44.05089" lon="6.29193">
        <ele>826.59997558594</ele>
        <time>2021-09-03T06:51:02Z</time>
      </trkpt>
      <trkpt lat="44.05084" lon="6.29196">
        <ele>827.40002441406</ele>
        <time>2021-09-03T06:51:06Z</time>
      </trkpt>
      <trkpt lat="44.0508" lon="6.29196">
        <ele>828</ele>
        <time>2021-09-03T06:51:09Z</time>
      </trkpt>
      <trkpt lat="44.05075" lon="6.29201">
        <ele>828.59997558594</ele>
        <time>2021-09-03T06:51:13Z</time>
      </trkpt>
      <trkpt lat="44.05073" lon="6.29202">
        <ele>828.59997558594</ele>
        <time>2021-09-03T06:51:14Z</time>
      </trkpt>
      <trkpt lat="44.05067" lon="6.29208">
        <ele>829.59997558594</ele>
        <time>2021-09-03T06:51:20Z</time>
      </trkpt>
      <trkpt lat="44.05063" lon="6.29212">
        <ele>830</ele>
        <time>2021-09-03T06:51:23Z</time>
      </trkpt>
      <trkpt lat="44.05058" lon="6.29217">
        <ele>830.59997558594</ele>
        <time>2021-09-03T06:51:27Z</time>
      </trkpt>
      <trkpt lat="44.05056" lon="6.29222">
        <ele>831</ele>
        <time>2021-09-03T06:51:30Z</time>
      </trkpt>
      <trkpt lat="44.05052" lon="6.29228">
        <ele>831.79998779297</ele>
        <time>2021-09-03T06:51:34Z</time>
      </trkpt>
      <trkpt lat="44.05051" lon="6.2923">
        <ele>831.79998779297</ele>
        <time>2021-09-03T06:51:35Z</time>
      </trkpt>
      <trkpt lat="44.05049" lon="6.29234">
        <ele>832.20001220703</ele>
        <time>2021-09-03T06:51:38Z</time>
      </trkpt>
      <trkpt lat="44.05045" lon="6.29239">
        <ele>832.79998779297</ele>
        <time>2021-09-03T06:51:42Z</time>
      </trkpt>
      <trkpt lat="44.05043" lon="6.29242">
        <ele>833.20001220703</ele>
        <time>2021-09-03T06:51:44Z</time>
      </trkpt>
      <trkpt lat="44.05039" lon="6.29247">
        <ele>833.79998779297</ele>
        <time>2021-09-03T06:51:48Z</time>
      </trkpt>
      <trkpt lat="44.05038" lon="6.29249">
        <ele>834</ele>
        <time>2021-09-03T06:51:49Z</time>
      </trkpt>
      <trkpt lat="44.05033" lon="6.29254">
        <ele>834.59997558594</ele>
        <time>2021-09-03T06:51:53Z</time>
      </trkpt>
      <trkpt lat="44.0503" lon="6.29256">
        <ele>835</ele>
        <time>2021-09-03T06:51:55Z</time>
      </trkpt>
      <trkpt lat="44.05019" lon="6.29259">
        <ele>836</ele>
        <time>2021-09-03T06:52:02Z</time>
      </trkpt>
      <trkpt lat="44.05017" lon="6.2926">
        <ele>836.20001220703</ele>
        <time>2021-09-03T06:52:03Z</time>
      </trkpt>
      <trkpt lat="44.0501" lon="6.29261">
        <ele>837</ele>
        <time>2021-09-03T06:52:08Z</time>
      </trkpt>
      <trkpt lat="44.05007" lon="6.29261">
        <ele>837.20001220703</ele>
        <time>2021-09-03T06:52:10Z</time>
      </trkpt>
      <trkpt lat="44.05001" lon="6.29261">
        <ele>837.79998779297</ele>
        <time>2021-09-03T06:52:14Z</time>
      </trkpt>
      <trkpt lat="44.04998" lon="6.29262">
        <ele>838.40002441406</ele>
        <time>2021-09-03T06:52:16Z</time>
      </trkpt>
      <trkpt lat="44.04989" lon="6.29264">
        <ele>839.40002441406</ele>
        <time>2021-09-03T06:52:22Z</time>
      </trkpt>
      <trkpt lat="44.04985" lon="6.29264">
        <ele>839.79998779297</ele>
        <time>2021-09-03T06:52:25Z</time>
      </trkpt>
      <trkpt lat="44.04979" lon="6.29266">
        <ele>840.40002441406</ele>
        <time>2021-09-03T06:52:29Z</time>
      </trkpt>
      <trkpt lat="44.04974" lon="6.29266">
        <ele>841</ele>
        <time>2021-09-03T06:52:33Z</time>
      </trkpt>
      <trkpt lat="44.04971" lon="6.29265">
        <ele>841.40002441406</ele>
        <time>2021-09-03T06:52:35Z</time>
      </trkpt>
      <trkpt lat="44.0497" lon="6.29265">
        <ele>841.59997558594</ele>
        <time>2021-09-03T06:52:36Z</time>
      </trkpt>
      <trkpt lat="44.04964" lon="6.29268">
        <ele>842.40002441406</ele>
        <time>2021-09-03T06:52:40Z</time>
      </trkpt>
      <trkpt lat="44.04963" lon="6.29267">
        <ele>842.59997558594</ele>
        <time>2021-09-03T06:52:41Z</time>
      </trkpt>
      <trkpt lat="44.0496" lon="6.29261">
        <ele>843.20001220703</ele>
        <time>2021-09-03T06:52:45Z</time>
      </trkpt>
      <trkpt lat="44.0496" lon="6.29258">
        <ele>843.40002441406</ele>
        <time>2021-09-03T06:52:46Z</time>
      </trkpt>
      <trkpt lat="44.04961" lon="6.29256">
        <ele>843.59997558594</ele>
        <time>2021-09-03T06:52:47Z</time>
      </trkpt>
      <trkpt lat="44.04961" lon="6.29255">
        <ele>843.59997558594</ele>
        <time>2021-09-03T06:52:48Z</time>
      </trkpt>
      <trkpt lat="44.04963" lon="6.29249">
        <ele>844.20001220703</ele>
        <time>2021-09-03T06:52:51Z</time>
      </trkpt>
      <trkpt lat="44.04968" lon="6.29245">
        <ele>844.79998779297</ele>
        <time>2021-09-03T06:52:55Z</time>
      </trkpt>
      <trkpt lat="44.04971" lon="6.29244">
        <ele>845</ele>
        <time>2021-09-03T06:52:57Z</time>
      </trkpt>
      <trkpt lat="44.04979" lon="6.2924">
        <ele>845.79998779297</ele>
        <time>2021-09-03T06:53:03Z</time>
      </trkpt>
      <trkpt lat="44.0498" lon="6.29239">
        <ele>846</ele>
        <time>2021-09-03T06:53:04Z</time>
      </trkpt>
      <trkpt lat="44.04987" lon="6.29234">
        <ele>846.79998779297</ele>
        <time>2021-09-03T06:53:09Z</time>
      </trkpt>
      <trkpt lat="44.04989" lon="6.29233">
        <ele>846.79998779297</ele>
        <time>2021-09-03T06:53:10Z</time>
      </trkpt>
      <trkpt lat="44.04991" lon="6.29233">
        <ele>847</ele>
        <time>2021-09-03T06:53:12Z</time>
      </trkpt>
      <trkpt lat="44.04996" lon="6.29229">
        <ele>847.59997558594</ele>
        <time>2021-09-03T06:53:16Z</time>
      </trkpt>
      <trkpt lat="44.05" lon="6.29227">
        <ele>848</ele>
        <time>2021-09-03T06:53:19Z</time>
      </trkpt>
      <trkpt lat="44.05009" lon="6.29224">
        <ele>849</ele>
        <time>2021-09-03T06:53:25Z</time>
      </trkpt>
      <trkpt lat="44.05018" lon="6.2922">
        <ele>850</ele>
        <time>2021-09-03T06:53:31Z</time>
      </trkpt>
      <trkpt lat="44.05019" lon="6.29219">
        <ele>850.20001220703</ele>
        <time>2021-09-03T06:53:32Z</time>
      </trkpt>
      <trkpt lat="44.05023" lon="6.29217">
        <ele>850.40002441406</ele>
        <time>2021-09-03T06:53:34Z</time>
      </trkpt>
      <trkpt lat="44.05025" lon="6.29216">
        <ele>850.79998779297</ele>
        <time>2021-09-03T06:53:36Z</time>
      </trkpt>
      <trkpt lat="44.05028" lon="6.29214">
        <ele>851.20001220703</ele>
        <time>2021-09-03T06:53:38Z</time>
      </trkpt>
      <trkpt lat="44.05033" lon="6.29207">
        <ele>852</ele>
        <time>2021-09-03T06:53:43Z</time>
      </trkpt>
      <trkpt lat="44.05034" lon="6.29203">
        <ele>852.20001220703</ele>
        <time>2021-09-03T06:53:45Z</time>
      </trkpt>
      <trkpt lat="44.05034" lon="6.29201">
        <ele>852.40002441406</ele>
        <time>2021-09-03T06:53:46Z</time>
      </trkpt>
      <trkpt lat="44.05032" lon="6.29197">
        <ele>852.59997558594</ele>
        <time>2021-09-03T06:53:48Z</time>
      </trkpt>
      <trkpt lat="44.05024" lon="6.29192">
        <ele>853.20001220703</ele>
        <time>2021-09-03T06:53:53Z</time>
      </trkpt>
      <trkpt lat="44.05023" lon="6.29192">
        <ele>853.40002441406</ele>
        <time>2021-09-03T06:53:54Z</time>
      </trkpt>
      <trkpt lat="44.05021" lon="6.29192">
        <ele>853.59997558594</ele>
        <time>2021-09-03T06:53:55Z</time>
      </trkpt>
      <trkpt lat="44.05012" lon="6.29196">
        <ele>854.40002441406</ele>
        <time>2021-09-03T06:54:01Z</time>
      </trkpt>
      <trkpt lat="44.05007" lon="6.29198">
        <ele>854.79998779297</ele>
        <time>2021-09-03T06:54:04Z</time>
      </trkpt>
      <trkpt lat="44.04999" lon="6.292">
        <ele>855.40002441406</ele>
        <time>2021-09-03T06:54:09Z</time>
      </trkpt>
      <trkpt lat="44.04996" lon="6.29202">
        <ele>855.59997558594</ele>
        <time>2021-09-03T06:54:11Z</time>
      </trkpt>
      <trkpt lat="44.04988" lon="6.29205">
        <ele>856.59997558594</ele>
        <time>2021-09-03T06:54:16Z</time>
      </trkpt>
      <trkpt lat="44.04985" lon="6.29207">
        <ele>856.79998779297</ele>
        <time>2021-09-03T06:54:18Z</time>
      </trkpt>
      <trkpt lat="44.04974" lon="6.2921">
        <ele>857.59997558594</ele>
        <time>2021-09-03T06:54:25Z</time>
      </trkpt>
      <trkpt lat="44.04963" lon="6.29213">
        <ele>858.79998779297</ele>
        <time>2021-09-03T06:54:32Z</time>
      </trkpt>
      <trkpt lat="44.04961" lon="6.29213">
        <ele>858.79998779297</ele>
        <time>2021-09-03T06:54:33Z</time>
      </trkpt>
      <trkpt lat="44.04951" lon="6.29219">
        <ele>859.79998779297</ele>
        <time>2021-09-03T06:54:40Z</time>
      </trkpt>
      <trkpt lat="44.0495" lon="6.2922">
        <ele>860</ele>
        <time>2021-09-03T06:54:41Z</time>
      </trkpt>
      <trkpt lat="44.04943" lon="6.29229">
        <ele>860.79998779297</ele>
        <time>2021-09-03T06:54:48Z</time>
      </trkpt>
      <trkpt lat="44.04942" lon="6.29231">
        <ele>861</ele>
        <time>2021-09-03T06:54:49Z</time>
      </trkpt>
      <trkpt lat="44.04934" lon="6.2924">
        <ele>861.79998779297</ele>
        <time>2021-09-03T06:54:56Z</time>
      </trkpt>
      <trkpt lat="44.04932" lon="6.29242">
        <ele>862</ele>
        <time>2021-09-03T06:54:58Z</time>
      </trkpt>
      <trkpt lat="44.04926" lon="6.29248">
        <ele>862.59997558594</ele>
        <time>2021-09-03T06:55:02Z</time>
      </trkpt>
      <trkpt lat="44.04922" lon="6.2925">
        <ele>863.20001220703</ele>
        <time>2021-09-03T06:55:05Z</time>
      </trkpt>
      <trkpt lat="44.04917" lon="6.29252">
        <ele>863.79998779297</ele>
        <time>2021-09-03T06:55:08Z</time>
      </trkpt>
      <trkpt lat="44.04911" lon="6.29255">
        <ele>864.20001220703</ele>
        <time>2021-09-03T06:55:12Z</time>
      </trkpt>
      <trkpt lat="44.04907" lon="6.29256">
        <ele>864.59997558594</ele>
        <time>2021-09-03T06:55:14Z</time>
      </trkpt>
      <trkpt lat="44.04896" lon="6.29259">
        <ele>865.40002441406</ele>
        <time>2021-09-03T06:55:21Z</time>
      </trkpt>
      <trkpt lat="44.04894" lon="6.2926">
        <ele>865.59997558594</ele>
        <time>2021-09-03T06:55:22Z</time>
      </trkpt>
      <trkpt lat="44.04887" lon="6.29262">
        <ele>866</ele>
        <time>2021-09-03T06:55:26Z</time>
      </trkpt>
      <trkpt lat="44.04884" lon="6.29263">
        <ele>866.40002441406</ele>
        <time>2021-09-03T06:55:28Z</time>
      </trkpt>
      <trkpt lat="44.0488" lon="6.29265">
        <ele>867</ele>
        <time>2021-09-03T06:55:31Z</time>
      </trkpt>
      <trkpt lat="44.04874" lon="6.29268">
        <ele>867.40002441406</ele>
        <time>2021-09-03T06:55:35Z</time>
      </trkpt>
      <trkpt lat="44.04867" lon="6.2927">
        <ele>868</ele>
        <time>2021-09-03T06:55:39Z</time>
      </trkpt>
      <trkpt lat="44.04861" lon="6.29274">
        <ele>868.59997558594</ele>
        <time>2021-09-03T06:55:43Z</time>
      </trkpt>
      <trkpt lat="44.04857" lon="6.29275">
        <ele>869</ele>
        <time>2021-09-03T06:55:46Z</time>
      </trkpt>
      <trkpt lat="44.04852" lon="6.29278">
        <ele>869.59997558594</ele>
        <time>2021-09-03T06:55:50Z</time>
      </trkpt>
      <trkpt lat="44.04849" lon="6.2928">
        <ele>870</ele>
        <time>2021-09-03T06:55:52Z</time>
      </trkpt>
      <trkpt lat="44.04844" lon="6.29283">
        <ele>870.59997558594</ele>
        <time>2021-09-03T06:55:56Z</time>
      </trkpt>
      <trkpt lat="44.04839" lon="6.29287">
        <ele>871.20001220703</ele>
        <time>2021-09-03T06:55:59Z</time>
      </trkpt>
      <trkpt lat="44.04833" lon="6.2929">
        <ele>871.79998779297</ele>
        <time>2021-09-03T06:56:03Z</time>
      </trkpt>
      <trkpt lat="44.04828" lon="6.29292">
        <ele>872.20001220703</ele>
        <time>2021-09-03T06:56:06Z</time>
      </trkpt>
      <trkpt lat="44.04821" lon="6.29295">
        <ele>873</ele>
        <time>2021-09-03T06:56:11Z</time>
      </trkpt>
      <trkpt lat="44.04815" lon="6.29299">
        <ele>873.59997558594</ele>
        <time>2021-09-03T06:56:15Z</time>
      </trkpt>
      <trkpt lat="44.04814" lon="6.29299">
        <ele>873.79998779297</ele>
        <time>2021-09-03T06:56:16Z</time>
      </trkpt>
      <trkpt lat="44.04812" lon="6.293">
        <ele>874</ele>
        <time>2021-09-03T06:56:17Z</time>
      </trkpt>
      <trkpt lat="44.04806" lon="6.29302">
        <ele>874.59997558594</ele>
        <time>2021-09-03T06:56:21Z</time>
      </trkpt>
      <trkpt lat="44.048" lon="6.29303">
        <ele>875</ele>
        <time>2021-09-03T06:56:25Z</time>
      </trkpt>
      <trkpt lat="44.04794" lon="6.29305">
        <ele>875.40002441406</ele>
        <time>2021-09-03T06:56:29Z</time>
      </trkpt>
      <trkpt lat="44.04787" lon="6.29306">
        <ele>876</ele>
        <time>2021-09-03T06:56:33Z</time>
      </trkpt>
      <trkpt lat="44.04783" lon="6.29308">
        <ele>876.40002441406</ele>
        <time>2021-09-03T06:56:36Z</time>
      </trkpt>
      <trkpt lat="44.04776" lon="6.29311">
        <ele>877</ele>
        <time>2021-09-03T06:56:40Z</time>
      </trkpt>
      <trkpt lat="44.04771" lon="6.29312">
        <ele>877.40002441406</ele>
        <time>2021-09-03T06:56:43Z</time>
      </trkpt>
      <trkpt lat="44.0476" lon="6.29315">
        <ele>878.20001220703</ele>
        <time>2021-09-03T06:56:49Z</time>
      </trkpt>
      <trkpt lat="44.04759" lon="6.29316">
        <ele>878.20001220703</ele>
        <time>2021-09-03T06:56:50Z</time>
      </trkpt>
      <trkpt lat="44.04751" lon="6.29319">
        <ele>879</ele>
        <time>2021-09-03T06:56:56Z</time>
      </trkpt>
      <trkpt lat="44.04747" lon="6.29322">
        <ele>879.20001220703</ele>
        <time>2021-09-03T06:56:58Z</time>
      </trkpt>
      <trkpt lat="44.04741" lon="6.29324">
        <ele>879.59997558594</ele>
        <time>2021-09-03T06:57:01Z</time>
      </trkpt>
      <trkpt lat="44.04733" lon="6.29329">
        <ele>880.20001220703</ele>
        <time>2021-09-03T06:57:06Z</time>
      </trkpt>
      <trkpt lat="44.04731" lon="6.2933">
        <ele>880.40002441406</ele>
        <time>2021-09-03T06:57:07Z</time>
      </trkpt>
      <trkpt lat="44.0472" lon="6.29342">
        <ele>881.40002441406</ele>
        <time>2021-09-03T06:57:15Z</time>
      </trkpt>
      <trkpt lat="44.04714" lon="6.2935">
        <ele>881.79998779297</ele>
        <time>2021-09-03T06:57:20Z</time>
      </trkpt>
      <trkpt lat="44.04711" lon="6.29351">
        <ele>882.20001220703</ele>
        <time>2021-09-03T06:58:37Z</time>
      </trkpt>
      <trkpt lat="44.04708" lon="6.29351">
        <ele>882.20001220703</ele>
        <time>2021-09-03T06:58:39Z</time>
      </trkpt>
      <trkpt lat="44.04699" lon="6.29351">
        <ele>882.40002441406</ele>
        <time>2021-09-03T06:58:43Z</time>
      </trkpt>
      <trkpt lat="44.04693" lon="6.29349">
        <ele>882.79998779297</ele>
        <time>2021-09-03T06:58:46Z</time>
      </trkpt>
      <trkpt lat="44.04681" lon="6.29348">
        <ele>883.59997558594</ele>
        <time>2021-09-03T06:58:52Z</time>
      </trkpt>
      <trkpt lat="44.04667" lon="6.29346">
        <ele>884.40002441406</ele>
        <time>2021-09-03T06:58:59Z</time>
      </trkpt>
      <trkpt lat="44.04665" lon="6.29346">
        <ele>884.59997558594</ele>
        <time>2021-09-03T06:59:00Z</time>
      </trkpt>
      <trkpt lat="44.04658" lon="6.29344">
        <ele>885.20001220703</ele>
        <time>2021-09-03T06:59:04Z</time>
      </trkpt>
      <trkpt lat="44.0465" lon="6.29344">
        <ele>885.59997558594</ele>
        <time>2021-09-03T06:59:08Z</time>
      </trkpt>
      <trkpt lat="44.04645" lon="6.29345">
        <ele>886</ele>
        <time>2021-09-03T06:59:11Z</time>
      </trkpt>
      <trkpt lat="44.04634" lon="6.29346">
        <ele>886.79998779297</ele>
        <time>2021-09-03T06:59:17Z</time>
      </trkpt>
      <trkpt lat="44.04632" lon="6.29346">
        <ele>886.79998779297</ele>
        <time>2021-09-03T06:59:18Z</time>
      </trkpt>
      <trkpt lat="44.04623" lon="6.29348">
        <ele>887.79998779297</ele>
        <time>2021-09-03T06:59:24Z</time>
      </trkpt>
      <trkpt lat="44.04621" lon="6.29348">
        <ele>888</ele>
        <time>2021-09-03T06:59:25Z</time>
      </trkpt>
      <trkpt lat="44.04614" lon="6.29351">
        <ele>888.79998779297</ele>
        <time>2021-09-03T06:59:30Z</time>
      </trkpt>
      <trkpt lat="44.04612" lon="6.29352">
        <ele>889</ele>
        <time>2021-09-03T06:59:31Z</time>
      </trkpt>
      <trkpt lat="44.046" lon="6.29355">
        <ele>889.79998779297</ele>
        <time>2021-09-03T06:59:38Z</time>
      </trkpt>
      <trkpt lat="44.04596" lon="6.29356">
        <ele>890.20001220703</ele>
        <time>2021-09-03T06:59:40Z</time>
      </trkpt>
      <trkpt lat="44.04584" lon="6.29358">
        <ele>891</ele>
        <time>2021-09-03T06:59:47Z</time>
      </trkpt>
      <trkpt lat="44.04575" lon="6.29362">
        <ele>892</ele>
        <time>2021-09-03T06:59:53Z</time>
      </trkpt>
      <trkpt lat="44.04573" lon="6.29363">
        <ele>892</ele>
        <time>2021-09-03T06:59:54Z</time>
      </trkpt>
      <trkpt lat="44.04563" lon="6.29367">
        <ele>893</ele>
        <time>2021-09-03T07:00:00Z</time>
      </trkpt>
      <trkpt lat="44.0456" lon="6.29368">
        <ele>893.20001220703</ele>
        <time>2021-09-03T07:00:02Z</time>
      </trkpt>
      <trkpt lat="44.04552" lon="6.29373">
        <ele>894.20001220703</ele>
        <time>2021-09-03T07:00:08Z</time>
      </trkpt>
      <trkpt lat="44.04541" lon="6.29379">
        <ele>895.20001220703</ele>
        <time>2021-09-03T07:00:15Z</time>
      </trkpt>
      <trkpt lat="44.0454" lon="6.29379">
        <ele>895.20001220703</ele>
        <time>2021-09-03T07:00:16Z</time>
      </trkpt>
      <trkpt lat="44.04532" lon="6.2938">
        <ele>896</ele>
        <time>2021-09-03T07:00:21Z</time>
      </trkpt>
      <trkpt lat="44.04529" lon="6.2938">
        <ele>896.20001220703</ele>
        <time>2021-09-03T07:00:23Z</time>
      </trkpt>
      <trkpt lat="44.04519" lon="6.29381">
        <ele>897</ele>
        <time>2021-09-03T07:00:29Z</time>
      </trkpt>
      <trkpt lat="44.04516" lon="6.2938">
        <ele>897.40002441406</ele>
        <time>2021-09-03T07:00:31Z</time>
      </trkpt>
      <trkpt lat="44.04509" lon="6.29381">
        <ele>898.20001220703</ele>
        <time>2021-09-03T07:00:36Z</time>
      </trkpt>
      <trkpt lat="44.04505" lon="6.29383">
        <ele>898.40002441406</ele>
        <time>2021-09-03T07:00:38Z</time>
      </trkpt>
      <trkpt lat="44.04497" lon="6.29383">
        <ele>899.20001220703</ele>
        <time>2021-09-03T07:00:43Z</time>
      </trkpt>
      <trkpt lat="44.04494" lon="6.29383">
        <ele>899.40002441406</ele>
        <time>2021-09-03T07:00:45Z</time>
      </trkpt>
      <trkpt lat="44.04487" lon="6.29383">
        <ele>900.20001220703</ele>
        <time>2021-09-03T07:00:50Z</time>
      </trkpt>
      <trkpt lat="44.04485" lon="6.29383">
        <ele>900.40002441406</ele>
        <time>2021-09-03T07:00:51Z</time>
      </trkpt>
      <trkpt lat="44.04484" lon="6.29382">
        <ele>900.59997558594</ele>
        <time>2021-09-03T07:00:52Z</time>
      </trkpt>
      <trkpt lat="44.04477" lon="6.29379">
        <ele>901</ele>
        <time>2021-09-03T07:00:56Z</time>
      </trkpt>
      <trkpt lat="44.04472" lon="6.29379">
        <ele>901.59997558594</ele>
        <time>2021-09-03T07:00:59Z</time>
      </trkpt>
      <trkpt lat="44.04465" lon="6.29377">
        <ele>902.40002441406</ele>
        <time>2021-09-03T07:01:04Z</time>
      </trkpt>
      <trkpt lat="44.04463" lon="6.29377">
        <ele>902.59997558594</ele>
        <time>2021-09-03T07:01:05Z</time>
      </trkpt>
      <trkpt lat="44.04453" lon="6.29374">
        <ele>903.40002441406</ele>
        <time>2021-09-03T07:01:11Z</time>
      </trkpt>
      <trkpt lat="44.04451" lon="6.29373">
        <ele>903.59997558594</ele>
        <time>2021-09-03T07:01:12Z</time>
      </trkpt>
      <trkpt lat="44.04442" lon="6.29372">
        <ele>904.40002441406</ele>
        <time>2021-09-03T07:01:18Z</time>
      </trkpt>
      <trkpt lat="44.04439" lon="6.29372">
        <ele>904.59997558594</ele>
        <time>2021-09-03T07:01:20Z</time>
      </trkpt>
      <trkpt lat="44.04432" lon="6.2937">
        <ele>905.40002441406</ele>
        <time>2021-09-03T07:01:25Z</time>
      </trkpt>
      <trkpt lat="44.04429" lon="6.29369">
        <ele>905.79998779297</ele>
        <time>2021-09-03T07:01:27Z</time>
      </trkpt>
      <trkpt lat="44.04417" lon="6.29368">
        <ele>906.79998779297</ele>
        <time>2021-09-03T07:01:34Z</time>
      </trkpt>
      <trkpt lat="44.04406" lon="6.29367">
        <ele>907.79998779297</ele>
        <time>2021-09-03T07:01:41Z</time>
      </trkpt>
      <trkpt lat="44.04403" lon="6.29367">
        <ele>908.20001220703</ele>
        <time>2021-09-03T07:01:43Z</time>
      </trkpt>
      <trkpt lat="44.04395" lon="6.29367">
        <ele>909</ele>
        <time>2021-09-03T07:01:48Z</time>
      </trkpt>
      <trkpt lat="44.0439" lon="6.29369">
        <ele>909.20001220703</ele>
        <time>2021-09-03T07:01:51Z</time>
      </trkpt>
      <trkpt lat="44.04385" lon="6.29369">
        <ele>910</ele>
        <time>2021-09-03T07:01:54Z</time>
      </trkpt>
      <trkpt lat="44.04382" lon="6.2937">
        <ele>910.40002441406</ele>
        <time>2021-09-03T07:01:56Z</time>
      </trkpt>
      <trkpt lat="44.0438" lon="6.29372">
        <ele>910.59997558594</ele>
        <time>2021-09-03T07:01:58Z</time>
      </trkpt>
      <trkpt lat="44.04375" lon="6.29374">
        <ele>911</ele>
        <time>2021-09-03T07:02:01Z</time>
      </trkpt>
      <trkpt lat="44.04369" lon="6.29377">
        <ele>911.59997558594</ele>
        <time>2021-09-03T07:02:05Z</time>
      </trkpt>
      <trkpt lat="44.04363" lon="6.29381">
        <ele>912.20001220703</ele>
        <time>2021-09-03T07:02:09Z</time>
      </trkpt>
      <trkpt lat="44.0436" lon="6.29383">
        <ele>912.40002441406</ele>
        <time>2021-09-03T07:02:11Z</time>
      </trkpt>
      <trkpt lat="44.04352" lon="6.29387">
        <ele>913.20001220703</ele>
        <time>2021-09-03T07:02:16Z</time>
      </trkpt>
      <trkpt lat="44.0435" lon="6.29389">
        <ele>913.40002441406</ele>
        <time>2021-09-03T07:02:18Z</time>
      </trkpt>
      <trkpt lat="44.04343" lon="6.29394">
        <ele>914.20001220703</ele>
        <time>2021-09-03T07:02:23Z</time>
      </trkpt>
      <trkpt lat="44.04339" lon="6.29398">
        <ele>914.59997558594</ele>
        <time>2021-09-03T07:02:26Z</time>
      </trkpt>
      <trkpt lat="44.04332" lon="6.29403">
        <ele>915.20001220703</ele>
        <time>2021-09-03T07:02:31Z</time>
      </trkpt>
      <trkpt lat="44.04326" lon="6.29407">
        <ele>916</ele>
        <time>2021-09-03T07:02:36Z</time>
      </trkpt>
      <trkpt lat="44.0432" lon="6.29411">
        <ele>916.59997558594</ele>
        <time>2021-09-03T07:02:40Z</time>
      </trkpt>
      <trkpt lat="44.04316" lon="6.29414">
        <ele>916.79998779297</ele>
        <time>2021-09-03T07:02:43Z</time>
      </trkpt>
      <trkpt lat="44.04313" lon="6.29418">
        <ele>917.40002441406</ele>
        <time>2021-09-03T07:02:46Z</time>
      </trkpt>
      <trkpt lat="44.04309" lon="6.29419">
        <ele>917.59997558594</ele>
        <time>2021-09-03T07:02:48Z</time>
      </trkpt>
      <trkpt lat="44.04306" lon="6.2942">
        <ele>918</ele>
        <time>2021-09-03T07:02:50Z</time>
      </trkpt>
      <trkpt lat="44.043" lon="6.29425">
        <ele>918.79998779297</ele>
        <time>2021-09-03T07:02:54Z</time>
      </trkpt>
      <trkpt lat="44.04297" lon="6.29426">
        <ele>919</ele>
        <time>2021-09-03T07:02:56Z</time>
      </trkpt>
      <trkpt lat="44.04291" lon="6.29427">
        <ele>919.79998779297</ele>
        <time>2021-09-03T07:03:00Z</time>
      </trkpt>
      <trkpt lat="44.04284" lon="6.29429">
        <ele>920.59997558594</ele>
        <time>2021-09-03T07:03:04Z</time>
      </trkpt>
      <trkpt lat="44.04281" lon="6.29429">
        <ele>920.79998779297</ele>
        <time>2021-09-03T07:03:06Z</time>
      </trkpt>
      <trkpt lat="44.04272" lon="6.29429">
        <ele>921.59997558594</ele>
        <time>2021-09-03T07:03:11Z</time>
      </trkpt>
      <trkpt lat="44.04268" lon="6.2943">
        <ele>922</ele>
        <time>2021-09-03T07:03:14Z</time>
      </trkpt>
      <trkpt lat="44.04265" lon="6.29431">
        <ele>922.40002441406</ele>
        <time>2021-09-03T07:03:16Z</time>
      </trkpt>
      <trkpt lat="44.04261" lon="6.2943">
        <ele>922.59997558594</ele>
        <time>2021-09-03T07:03:18Z</time>
      </trkpt>
      <trkpt lat="44.04257" lon="6.2943">
        <ele>923.20001220703</ele>
        <time>2021-09-03T07:03:21Z</time>
      </trkpt>
      <trkpt lat="44.04256" lon="6.2943">
        <ele>923.20001220703</ele>
        <time>2021-09-03T07:03:22Z</time>
      </trkpt>
      <trkpt lat="44.04255" lon="6.29428">
        <ele>923.40002441406</ele>
        <time>2021-09-03T07:03:24Z</time>
      </trkpt>
      <trkpt lat="44.04251" lon="6.29424">
        <ele>924.20001220703</ele>
        <time>2021-09-03T07:03:28Z</time>
      </trkpt>
      <trkpt lat="44.04246" lon="6.29421">
        <ele>924.79998779297</ele>
        <time>2021-09-03T07:03:32Z</time>
      </trkpt>
      <trkpt lat="44.04241" lon="6.2942">
        <ele>925.40002441406</ele>
        <time>2021-09-03T07:03:36Z</time>
      </trkpt>
      <trkpt lat="44.0424" lon="6.29419">
        <ele>925.40002441406</ele>
        <time>2021-09-03T07:03:37Z</time>
      </trkpt>
      <trkpt lat="44.04239" lon="6.29418">
        <ele>925.59997558594</ele>
        <time>2021-09-03T07:03:38Z</time>
      </trkpt>
      <trkpt lat="44.04234" lon="6.29414">
        <ele>926.40002441406</ele>
        <time>2021-09-03T07:03:43Z</time>
      </trkpt>
      <trkpt lat="44.04233" lon="6.29414">
        <ele>926.59997558594</ele>
        <time>2021-09-03T07:03:44Z</time>
      </trkpt>
      <trkpt lat="44.04226" lon="6.29408">
        <ele>927.59997558594</ele>
        <time>2021-09-03T07:03:50Z</time>
      </trkpt>
      <trkpt lat="44.04222" lon="6.29408">
        <ele>928</ele>
        <time>2021-09-03T07:03:52Z</time>
      </trkpt>
      <trkpt lat="44.04216" lon="6.29405">
        <ele>928.59997558594</ele>
        <time>2021-09-03T07:03:56Z</time>
      </trkpt>
      <trkpt lat="44.0421" lon="6.29404">
        <ele>929</ele>
        <time>2021-09-03T07:03:59Z</time>
      </trkpt>
      <trkpt lat="44.042" lon="6.29403">
        <ele>929.59997558594</ele>
        <time>2021-09-03T07:04:03Z</time>
      </trkpt>
      <trkpt lat="44.04195" lon="6.29401">
        <ele>930</ele>
        <time>2021-09-03T07:04:06Z</time>
      </trkpt>
      <trkpt lat="44.04187" lon="6.294">
        <ele>930.79998779297</ele>
        <time>2021-09-03T07:04:10Z</time>
      </trkpt>
      <trkpt lat="44.04183" lon="6.294">
        <ele>931</ele>
        <time>2021-09-03T07:04:12Z</time>
      </trkpt>
      <trkpt lat="44.04176" lon="6.29399">
        <ele>931.79998779297</ele>
        <time>2021-09-03T07:04:16Z</time>
      </trkpt>
      <trkpt lat="44.0417" lon="6.29397">
        <ele>932.40002441406</ele>
        <time>2021-09-03T07:04:20Z</time>
      </trkpt>
      <trkpt lat="44.04168" lon="6.29396">
        <ele>932.59997558594</ele>
        <time>2021-09-03T07:04:21Z</time>
      </trkpt>
      <trkpt lat="44.04166" lon="6.29394">
        <ele>933</ele>
        <time>2021-09-03T07:04:23Z</time>
      </trkpt>
      <trkpt lat="44.04162" lon="6.29393">
        <ele>933.40002441406</ele>
        <time>2021-09-03T07:04:25Z</time>
      </trkpt>
      <trkpt lat="44.04161" lon="6.29393">
        <ele>933.40002441406</ele>
        <time>2021-09-03T07:04:26Z</time>
      </trkpt>
      <trkpt lat="44.04153" lon="6.29393">
        <ele>934.20001220703</ele>
        <time>2021-09-03T07:04:31Z</time>
      </trkpt>
      <trkpt lat="44.04149" lon="6.29395">
        <ele>934.59997558594</ele>
        <time>2021-09-03T07:04:34Z</time>
      </trkpt>
      <trkpt lat="44.04145" lon="6.294">
        <ele>935.20001220703</ele>
        <time>2021-09-03T07:04:38Z</time>
      </trkpt>
      <trkpt lat="44.04142" lon="6.29402">
        <ele>935.59997558594</ele>
        <time>2021-09-03T07:04:40Z</time>
      </trkpt>
      <trkpt lat="44.04141" lon="6.29403">
        <ele>935.79998779297</ele>
        <time>2021-09-03T07:04:41Z</time>
      </trkpt>
      <trkpt lat="44.04137" lon="6.29407">
        <ele>936.20001220703</ele>
        <time>2021-09-03T07:04:44Z</time>
      </trkpt>
      <trkpt lat="44.04134" lon="6.29409">
        <ele>936.59997558594</ele>
        <time>2021-09-03T07:04:46Z</time>
      </trkpt>
      <trkpt lat="44.04126" lon="6.29414">
        <ele>937.20001220703</ele>
        <time>2021-09-03T07:04:51Z</time>
      </trkpt>
      <trkpt lat="44.04121" lon="6.29419">
        <ele>938</ele>
        <time>2021-09-03T07:04:55Z</time>
      </trkpt>
      <trkpt lat="44.04119" lon="6.29421">
        <ele>938.20001220703</ele>
        <time>2021-09-03T07:04:57Z</time>
      </trkpt>
      <trkpt lat="44.04117" lon="6.29422">
        <ele>938.40002441406</ele>
        <time>2021-09-03T07:04:58Z</time>
      </trkpt>
      <trkpt lat="44.04112" lon="6.29427">
        <ele>938.79998779297</ele>
        <time>2021-09-03T07:05:02Z</time>
      </trkpt>
      <trkpt lat="44.04109" lon="6.29429">
        <ele>939.40002441406</ele>
        <time>2021-09-03T07:05:04Z</time>
      </trkpt>
      <trkpt lat="44.04098" lon="6.29433">
        <ele>940.79998779297</ele>
        <time>2021-09-03T07:05:14Z</time>
      </trkpt>
      <trkpt lat="44.04095" lon="6.29434">
        <ele>941</ele>
        <time>2021-09-03T07:05:16Z</time>
      </trkpt>
      <trkpt lat="44.04084" lon="6.2944">
        <ele>942</ele>
        <time>2021-09-03T07:05:22Z</time>
      </trkpt>
      <trkpt lat="44.04077" lon="6.29443">
        <ele>942.59997558594</ele>
        <time>2021-09-03T07:05:26Z</time>
      </trkpt>
      <trkpt lat="44.04073" lon="6.29444">
        <ele>943</ele>
        <time>2021-09-03T07:05:28Z</time>
      </trkpt>
      <trkpt lat="44.04063" lon="6.29444">
        <ele>943.79998779297</ele>
        <time>2021-09-03T07:05:34Z</time>
      </trkpt>
      <trkpt lat="44.0406" lon="6.29443">
        <ele>944</ele>
        <time>2021-09-03T07:05:36Z</time>
      </trkpt>
      <trkpt lat="44.04052" lon="6.29442">
        <ele>944.79998779297</ele>
        <time>2021-09-03T07:05:41Z</time>
      </trkpt>
      <trkpt lat="44.04047" lon="6.29442">
        <ele>945.20001220703</ele>
        <time>2021-09-03T07:05:44Z</time>
      </trkpt>
      <trkpt lat="44.04037" lon="6.29441">
        <ele>946.20001220703</ele>
        <time>2021-09-03T07:05:50Z</time>
      </trkpt>
      <trkpt lat="44.04035" lon="6.29441">
        <ele>946.20001220703</ele>
        <time>2021-09-03T07:05:51Z</time>
      </trkpt>
      <trkpt lat="44.04028" lon="6.29442">
        <ele>947.20001220703</ele>
        <time>2021-09-03T07:05:56Z</time>
      </trkpt>
      <trkpt lat="44.04026" lon="6.29442">
        <ele>947.40002441406</ele>
        <time>2021-09-03T07:05:57Z</time>
      </trkpt>
      <trkpt lat="44.04014" lon="6.29445">
        <ele>948.40002441406</ele>
        <time>2021-09-03T07:06:05Z</time>
      </trkpt>
      <trkpt lat="44.04011" lon="6.29444">
        <ele>948.59997558594</ele>
        <time>2021-09-03T07:06:07Z</time>
      </trkpt>
      <trkpt lat="44.04001" lon="6.29447">
        <ele>949.59997558594</ele>
        <time>2021-09-03T07:06:14Z</time>
      </trkpt>
      <trkpt lat="44.0399" lon="6.29453">
        <ele>950.79998779297</ele>
        <time>2021-09-03T07:06:21Z</time>
      </trkpt>
      <trkpt lat="44.03988" lon="6.29454">
        <ele>950.79998779297</ele>
        <time>2021-09-03T07:06:22Z</time>
      </trkpt>
      <trkpt lat="44.03976" lon="6.29463">
        <ele>951.79998779297</ele>
        <time>2021-09-03T07:06:30Z</time>
      </trkpt>
      <trkpt lat="44.03974" lon="6.29465">
        <ele>952.20001220703</ele>
        <time>2021-09-03T07:06:32Z</time>
      </trkpt>
      <trkpt lat="44.03965" lon="6.29468">
        <ele>953</ele>
        <time>2021-09-03T07:06:38Z</time>
      </trkpt>
      <trkpt lat="44.03963" lon="6.29469">
        <ele>953.20001220703</ele>
        <time>2021-09-03T07:06:39Z</time>
      </trkpt>
      <trkpt lat="44.03958" lon="6.29473">
        <ele>954</ele>
        <time>2021-09-03T07:06:43Z</time>
      </trkpt>
      <trkpt lat="44.03953" lon="6.29477">
        <ele>954.59997558594</ele>
        <time>2021-09-03T07:06:47Z</time>
      </trkpt>
      <trkpt lat="44.03948" lon="6.29482">
        <ele>955.20001220703</ele>
        <time>2021-09-03T07:06:51Z</time>
      </trkpt>
      <trkpt lat="44.03942" lon="6.29486">
        <ele>955.79998779297</ele>
        <time>2021-09-03T07:06:55Z</time>
      </trkpt>
      <trkpt lat="44.03938" lon="6.29488">
        <ele>956.20001220703</ele>
        <time>2021-09-03T07:06:58Z</time>
      </trkpt>
      <trkpt lat="44.03932" lon="6.29492">
        <ele>956.59997558594</ele>
        <time>2021-09-03T07:07:02Z</time>
      </trkpt>
      <trkpt lat="44.03927" lon="6.29497">
        <ele>957.40002441406</ele>
        <time>2021-09-03T07:07:06Z</time>
      </trkpt>
      <trkpt lat="44.03921" lon="6.295">
        <ele>957.79998779297</ele>
        <time>2021-09-03T07:07:10Z</time>
      </trkpt>
      <trkpt lat="44.03916" lon="6.29504">
        <ele>958.40002441406</ele>
        <time>2021-09-03T07:07:14Z</time>
      </trkpt>
      <trkpt lat="44.03912" lon="6.29508">
        <ele>958.79998779297</ele>
        <time>2021-09-03T07:07:17Z</time>
      </trkpt>
      <trkpt lat="44.03904" lon="6.29511">
        <ele>959.40002441406</ele>
        <time>2021-09-03T07:07:22Z</time>
      </trkpt>
      <trkpt lat="44.03898" lon="6.29512">
        <ele>959.79998779297</ele>
        <time>2021-09-03T07:07:25Z</time>
      </trkpt>
      <trkpt lat="44.03891" lon="6.29514">
        <ele>960.59997558594</ele>
        <time>2021-09-03T07:07:29Z</time>
      </trkpt>
      <trkpt lat="44.03888" lon="6.29514">
        <ele>960.79998779297</ele>
        <time>2021-09-03T07:07:31Z</time>
      </trkpt>
      <trkpt lat="44.03882" lon="6.29516">
        <ele>961.59997558594</ele>
        <time>2021-09-03T07:07:35Z</time>
      </trkpt>
      <trkpt lat="44.0388" lon="6.29516">
        <ele>961.79998779297</ele>
        <time>2021-09-03T07:07:37Z</time>
      </trkpt>
      <trkpt lat="44.03872" lon="6.29518">
        <ele>962.59997558594</ele>
        <time>2021-09-03T07:07:42Z</time>
      </trkpt>
      <trkpt lat="44.03869" lon="6.29517">
        <ele>963</ele>
        <time>2021-09-03T07:07:44Z</time>
      </trkpt>
      <trkpt lat="44.03862" lon="6.29516">
        <ele>963.79998779297</ele>
        <time>2021-09-03T07:07:49Z</time>
      </trkpt>
      <trkpt lat="44.03858" lon="6.29517">
        <ele>964.40002441406</ele>
        <time>2021-09-03T07:07:52Z</time>
      </trkpt>
      <trkpt lat="44.03855" lon="6.29516">
        <ele>964.79998779297</ele>
        <time>2021-09-03T07:07:54Z</time>
      </trkpt>
      <trkpt lat="44.03846" lon="6.29514">
        <ele>965.79998779297</ele>
        <time>2021-09-03T07:08:00Z</time>
      </trkpt>
      <trkpt lat="44.03835" lon="6.29512">
        <ele>966.79998779297</ele>
        <time>2021-09-03T07:08:08Z</time>
      </trkpt>
      <trkpt lat="44.03834" lon="6.29512">
        <ele>967</ele>
        <time>2021-09-03T07:08:09Z</time>
      </trkpt>
      <trkpt lat="44.03822" lon="6.29512">
        <ele>968.20001220703</ele>
        <time>2021-09-03T07:08:17Z</time>
      </trkpt>
      <trkpt lat="44.03813" lon="6.29515">
        <ele>969.20001220703</ele>
        <time>2021-09-03T07:08:24Z</time>
      </trkpt>
      <trkpt lat="44.03802" lon="6.2952">
        <ele>970.20001220703</ele>
        <time>2021-09-03T07:08:32Z</time>
      </trkpt>
      <trkpt lat="44.03801" lon="6.29522">
        <ele>970.20001220703</ele>
        <time>2021-09-03T07:08:33Z</time>
      </trkpt>
      <trkpt lat="44.03798" lon="6.29523">
        <ele>970.59997558594</ele>
        <time>2021-09-03T07:08:35Z</time>
      </trkpt>
      <trkpt lat="44.03793" lon="6.29523">
        <ele>970.79998779297</ele>
        <time>2021-09-03T07:08:38Z</time>
      </trkpt>
      <trkpt lat="44.03792" lon="6.29524">
        <ele>971</ele>
        <time>2021-09-03T07:08:39Z</time>
      </trkpt>
      <trkpt lat="44.03789" lon="6.29525">
        <ele>971.40002441406</ele>
        <time>2021-09-03T07:08:41Z</time>
      </trkpt>
      <trkpt lat="44.03781" lon="6.29527">
        <ele>972</ele>
        <time>2021-09-03T07:08:46Z</time>
      </trkpt>
      <trkpt lat="44.0378" lon="6.29528">
        <ele>972</ele>
        <time>2021-09-03T07:08:47Z</time>
      </trkpt>
      <trkpt lat="44.03775" lon="6.29527">
        <ele>972.40002441406</ele>
        <time>2021-09-03T07:08:50Z</time>
      </trkpt>
      <trkpt lat="44.03774" lon="6.29527">
        <ele>972.59997558594</ele>
        <time>2021-09-03T07:08:51Z</time>
      </trkpt>
      <trkpt lat="44.03763" lon="6.29526">
        <ele>973.59997558594</ele>
        <time>2021-09-03T07:08:58Z</time>
      </trkpt>
      <trkpt lat="44.03753" lon="6.29529">
        <ele>974.59997558594</ele>
        <time>2021-09-03T07:09:05Z</time>
      </trkpt>
      <trkpt lat="44.03746" lon="6.29526">
        <ele>975.40002441406</ele>
        <time>2021-09-03T07:09:10Z</time>
      </trkpt>
      <trkpt lat="44.03741" lon="6.29524">
        <ele>975.79998779297</ele>
        <time>2021-09-03T07:09:13Z</time>
      </trkpt>
      <trkpt lat="44.03735" lon="6.29521">
        <ele>976.20001220703</ele>
        <time>2021-09-03T07:09:17Z</time>
      </trkpt>
      <trkpt lat="44.03728" lon="6.29521">
        <ele>976.79998779297</ele>
        <time>2021-09-03T07:09:22Z</time>
      </trkpt>
      <trkpt lat="44.03724" lon="6.2952">
        <ele>977.40002441406</ele>
        <time>2021-09-03T07:09:25Z</time>
      </trkpt>
      <trkpt lat="44.03721" lon="6.29519">
        <ele>977.59997558594</ele>
        <time>2021-09-03T07:09:27Z</time>
      </trkpt>
      <trkpt lat="44.03718" lon="6.29518">
        <ele>978</ele>
        <time>2021-09-03T07:09:29Z</time>
      </trkpt>
      <trkpt lat="44.03715" lon="6.29519">
        <ele>978.40002441406</ele>
        <time>2021-09-03T07:09:31Z</time>
      </trkpt>
      <trkpt lat="44.03707" lon="6.29519">
        <ele>979.20001220703</ele>
        <time>2021-09-03T07:09:36Z</time>
      </trkpt>
      <trkpt lat="44.03706" lon="6.29519">
        <ele>979.20001220703</ele>
        <time>2021-09-03T07:09:37Z</time>
      </trkpt>
      <trkpt lat="44.03703" lon="6.29518">
        <ele>979.40002441406</ele>
        <time>2021-09-03T07:09:39Z</time>
      </trkpt>
      <trkpt lat="44.03695" lon="6.29517">
        <ele>980</ele>
        <time>2021-09-03T07:09:44Z</time>
      </trkpt>
      <trkpt lat="44.03694" lon="6.29517">
        <ele>980.20001220703</ele>
        <time>2021-09-03T07:09:45Z</time>
      </trkpt>
      <trkpt lat="44.03684" lon="6.29518">
        <ele>981</ele>
        <time>2021-09-03T07:09:51Z</time>
      </trkpt>
      <trkpt lat="44.03682" lon="6.29518">
        <ele>981.20001220703</ele>
        <time>2021-09-03T07:09:52Z</time>
      </trkpt>
      <trkpt lat="44.03672" lon="6.29517">
        <ele>982.40002441406</ele>
        <time>2021-09-03T07:09:58Z</time>
      </trkpt>
      <trkpt lat="44.03668" lon="6.29515">
        <ele>982.59997558594</ele>
        <time>2021-09-03T07:10:00Z</time>
      </trkpt>
      <trkpt lat="44.03662" lon="6.29513">
        <ele>983.20001220703</ele>
        <time>2021-09-03T07:10:04Z</time>
      </trkpt>
      <trkpt lat="44.03659" lon="6.29513">
        <ele>983.40002441406</ele>
        <time>2021-09-03T07:10:06Z</time>
      </trkpt>
      <trkpt lat="44.03656" lon="6.29513">
        <ele>983.59997558594</ele>
        <time>2021-09-03T07:10:08Z</time>
      </trkpt>
      <trkpt lat="44.03649" lon="6.29511">
        <ele>984.20001220703</ele>
        <time>2021-09-03T07:10:12Z</time>
      </trkpt>
      <trkpt lat="44.03648" lon="6.2951">
        <ele>984.40002441406</ele>
        <time>2021-09-03T07:10:13Z</time>
      </trkpt>
      <trkpt lat="44.03642" lon="6.2951">
        <ele>985.40002441406</ele>
        <time>2021-09-03T07:10:17Z</time>
      </trkpt>
      <trkpt lat="44.03639" lon="6.2951">
        <ele>985.59997558594</ele>
        <time>2021-09-03T07:10:19Z</time>
      </trkpt>
      <trkpt lat="44.03633" lon="6.29509">
        <ele>986</ele>
        <time>2021-09-03T07:10:23Z</time>
      </trkpt>
      <trkpt lat="44.0363" lon="6.29508">
        <ele>986.20001220703</ele>
        <time>2021-09-03T07:10:25Z</time>
      </trkpt>
      <trkpt lat="44.03625" lon="6.29507">
        <ele>986.79998779297</ele>
        <time>2021-09-03T07:10:28Z</time>
      </trkpt>
      <trkpt lat="44.03615" lon="6.29507">
        <ele>987.59997558594</ele>
        <time>2021-09-03T07:10:34Z</time>
      </trkpt>
      <trkpt lat="44.03614" lon="6.29506">
        <ele>987.79998779297</ele>
        <time>2021-09-03T07:10:35Z</time>
      </trkpt>
      <trkpt lat="44.03607" lon="6.29507">
        <ele>988.79998779297</ele>
        <time>2021-09-03T07:10:40Z</time>
      </trkpt>
      <trkpt lat="44.03604" lon="6.29507">
        <ele>989.40002441406</ele>
        <time>2021-09-03T07:10:42Z</time>
      </trkpt>
      <trkpt lat="44.03595" lon="6.29507">
        <ele>990</ele>
        <time>2021-09-03T07:10:48Z</time>
      </trkpt>
      <trkpt lat="44.03589" lon="6.29507">
        <ele>990.59997558594</ele>
        <time>2021-09-03T07:10:52Z</time>
      </trkpt>
      <trkpt lat="44.03586" lon="6.29507">
        <ele>991</ele>
        <time>2021-09-03T07:10:54Z</time>
      </trkpt>
      <trkpt lat="44.03578" lon="6.29508">
        <ele>991.59997558594</ele>
        <time>2021-09-03T07:10:59Z</time>
      </trkpt>
      <trkpt lat="44.03573" lon="6.29508">
        <ele>992</ele>
        <time>2021-09-03T07:11:02Z</time>
      </trkpt>
      <trkpt lat="44.03562" lon="6.29509">
        <ele>993</ele>
        <time>2021-09-03T07:11:09Z</time>
      </trkpt>
      <trkpt lat="44.03551" lon="6.29512">
        <ele>994.20001220703</ele>
        <time>2021-09-03T07:11:17Z</time>
      </trkpt>
      <trkpt lat="44.03542" lon="6.29513">
        <ele>995.20001220703</ele>
        <time>2021-09-03T07:11:23Z</time>
      </trkpt>
      <trkpt lat="44.0353" lon="6.29518">
        <ele>996.20001220703</ele>
        <time>2021-09-03T07:11:30Z</time>
      </trkpt>
      <trkpt lat="44.03529" lon="6.29518">
        <ele>996.40002441406</ele>
        <time>2021-09-03T07:11:31Z</time>
      </trkpt>
      <trkpt lat="44.03521" lon="6.29519">
        <ele>997.40002441406</ele>
        <time>2021-09-03T07:11:37Z</time>
      </trkpt>
      <trkpt lat="44.03519" lon="6.29519">
        <ele>997.40002441406</ele>
        <time>2021-09-03T07:11:38Z</time>
      </trkpt>
      <trkpt lat="44.03511" lon="6.29522">
        <ele>998.40002441406</ele>
        <time>2021-09-03T07:11:45Z</time>
      </trkpt>
      <trkpt lat="44.03509" lon="6.29522">
        <ele>998.59997558594</ele>
        <time>2021-09-03T07:11:46Z</time>
      </trkpt>
      <trkpt lat="44.035" lon="6.29527">
        <ele>999.40002441406</ele>
        <time>2021-09-03T07:11:52Z</time>
      </trkpt>
      <trkpt lat="44.03497" lon="6.2953">
        <ele>999.79998779297</ele>
        <time>2021-09-03T07:11:54Z</time>
      </trkpt>
      <trkpt lat="44.03491" lon="6.2953">
        <ele>1000.4000244141</ele>
        <time>2021-09-03T07:11:57Z</time>
      </trkpt>
      <trkpt lat="44.03489" lon="6.2953">
        <ele>1000.4000244141</ele>
        <time>2021-09-03T07:11:58Z</time>
      </trkpt>
      <trkpt lat="44.03486" lon="6.29531">
        <ele>1000.799987793</ele>
        <time>2021-09-03T07:12:00Z</time>
      </trkpt>
      <trkpt lat="44.03478" lon="6.29536">
        <ele>1001.5999755859</ele>
        <time>2021-09-03T07:12:05Z</time>
      </trkpt>
      <trkpt lat="44.03476" lon="6.29536">
        <ele>1001.799987793</ele>
        <time>2021-09-03T07:12:06Z</time>
      </trkpt>
      <trkpt lat="44.03466" lon="6.29543">
        <ele>1002.799987793</ele>
        <time>2021-09-03T07:12:13Z</time>
      </trkpt>
      <trkpt lat="44.03459" lon="6.29549">
        <ele>1003.799987793</ele>
        <time>2021-09-03T07:12:19Z</time>
      </trkpt>
      <trkpt lat="44.03458" lon="6.29551">
        <ele>1003.799987793</ele>
        <time>2021-09-03T07:12:20Z</time>
      </trkpt>
      <trkpt lat="44.03449" lon="6.29559">
        <ele>1004.799987793</ele>
        <time>2021-09-03T07:12:27Z</time>
      </trkpt>
      <trkpt lat="44.03448" lon="6.29561">
        <ele>1005</ele>
        <time>2021-09-03T07:12:28Z</time>
      </trkpt>
      <trkpt lat="44.03442" lon="6.29568">
        <ele>1005.799987793</ele>
        <time>2021-09-03T07:12:33Z</time>
      </trkpt>
      <trkpt lat="44.03438" lon="6.29572">
        <ele>1006.200012207</ele>
        <time>2021-09-03T07:12:36Z</time>
      </trkpt>
      <trkpt lat="44.03433" lon="6.29579">
        <ele>1007.200012207</ele>
        <time>2021-09-03T07:12:41Z</time>
      </trkpt>
      <trkpt lat="44.03429" lon="6.29584">
        <ele>1007.5999755859</ele>
        <time>2021-09-03T07:12:44Z</time>
      </trkpt>
      <trkpt lat="44.03422" lon="6.2959">
        <ele>1008.200012207</ele>
        <time>2021-09-03T07:12:49Z</time>
      </trkpt>
      <trkpt lat="44.03417" lon="6.29593">
        <ele>1008.5999755859</ele>
        <time>2021-09-03T07:12:52Z</time>
      </trkpt>
      <trkpt lat="44.03408" lon="6.29598">
        <ele>1009.4000244141</ele>
        <time>2021-09-03T07:12:58Z</time>
      </trkpt>
      <trkpt lat="44.03402" lon="6.29601">
        <ele>1009.799987793</ele>
        <time>2021-09-03T07:13:02Z</time>
      </trkpt>
      <trkpt lat="44.03398" lon="6.29602">
        <ele>1010.5999755859</ele>
        <time>2021-09-03T07:13:05Z</time>
      </trkpt>
      <trkpt lat="44.03392" lon="6.29603">
        <ele>1011.4000244141</ele>
        <time>2021-09-03T07:13:09Z</time>
      </trkpt>
      <trkpt lat="44.03388" lon="6.29603">
        <ele>1011.5999755859</ele>
        <time>2021-09-03T07:13:11Z</time>
      </trkpt>
      <trkpt lat="44.03382" lon="6.29605">
        <ele>1012.4000244141</ele>
        <time>2021-09-03T07:13:16Z</time>
      </trkpt>
      <trkpt lat="44.03379" lon="6.29607">
        <ele>1012.799987793</ele>
        <time>2021-09-03T07:13:18Z</time>
      </trkpt>
      <trkpt lat="44.03375" lon="6.29614">
        <ele>1013.4000244141</ele>
        <time>2021-09-03T07:13:23Z</time>
      </trkpt>
      <trkpt lat="44.03373" lon="6.2962">
        <ele>1013.799987793</ele>
        <time>2021-09-03T07:13:26Z</time>
      </trkpt>
      <trkpt lat="44.03371" lon="6.29628">
        <ele>1014.4000244141</ele>
        <time>2021-09-03T07:13:30Z</time>
      </trkpt>
      <trkpt lat="44.03368" lon="6.29635">
        <ele>1014.799987793</ele>
        <time>2021-09-03T07:13:34Z</time>
      </trkpt>
      <trkpt lat="44.03368" lon="6.29642">
        <ele>1015.200012207</ele>
        <time>2021-09-03T07:13:37Z</time>
      </trkpt>
      <trkpt lat="44.03365" lon="6.29652">
        <ele>1016</ele>
        <time>2021-09-03T07:13:42Z</time>
      </trkpt>
      <trkpt lat="44.03363" lon="6.29655">
        <ele>1016.200012207</ele>
        <time>2021-09-03T07:13:44Z</time>
      </trkpt>
      <trkpt lat="44.03354" lon="6.29664">
        <ele>1017.200012207</ele>
        <time>2021-09-03T07:13:50Z</time>
      </trkpt>
      <trkpt lat="44.03351" lon="6.29666">
        <ele>1017.4000244141</ele>
        <time>2021-09-03T07:13:52Z</time>
      </trkpt>
      <trkpt lat="44.03345" lon="6.29669">
        <ele>1018.200012207</ele>
        <time>2021-09-03T07:13:56Z</time>
      </trkpt>
      <trkpt lat="44.03337" lon="6.29672">
        <ele>1019</ele>
        <time>2021-09-03T07:14:01Z</time>
      </trkpt>
      <trkpt lat="44.03334" lon="6.29672">
        <ele>1019.200012207</ele>
        <time>2021-09-03T07:14:03Z</time>
      </trkpt>
      <trkpt lat="44.03325" lon="6.29673">
        <ele>1020</ele>
        <time>2021-09-03T07:14:09Z</time>
      </trkpt>
      <trkpt lat="44.03322" lon="6.29673">
        <ele>1020.4000244141</ele>
        <time>2021-09-03T07:14:11Z</time>
      </trkpt>
      <trkpt lat="44.03314" lon="6.29672">
        <ele>1021.200012207</ele>
        <time>2021-09-03T07:14:17Z</time>
      </trkpt>
      <trkpt lat="44.03311" lon="6.29672">
        <ele>1021.5999755859</ele>
        <time>2021-09-03T07:14:19Z</time>
      </trkpt>
      <trkpt lat="44.03304" lon="6.29673">
        <ele>1022.200012207</ele>
        <time>2021-09-03T07:14:24Z</time>
      </trkpt>
      <trkpt lat="44.033" lon="6.29673">
        <ele>1022.5999755859</ele>
        <time>2021-09-03T07:14:27Z</time>
      </trkpt>
      <trkpt lat="44.03294" lon="6.29674">
        <ele>1023.200012207</ele>
        <time>2021-09-03T07:14:31Z</time>
      </trkpt>
      <trkpt lat="44.03289" lon="6.29673">
        <ele>1023.799987793</ele>
        <time>2021-09-03T07:14:35Z</time>
      </trkpt>
      <trkpt lat="44.03286" lon="6.29672">
        <ele>1024</ele>
        <time>2021-09-03T07:14:37Z</time>
      </trkpt>
      <trkpt lat="44.03278" lon="6.29673">
        <ele>1024.8000488281</ele>
        <time>2021-09-03T07:14:42Z</time>
      </trkpt>
      <trkpt lat="44.03277" lon="6.29673">
        <ele>1024.8000488281</ele>
        <time>2021-09-03T07:14:43Z</time>
      </trkpt>
      <trkpt lat="44.03266" lon="6.29673">
        <ele>1025.8000488281</ele>
        <time>2021-09-03T07:14:50Z</time>
      </trkpt>
      <trkpt lat="44.03256" lon="6.29673">
        <ele>1026.8000488281</ele>
        <time>2021-09-03T07:14:57Z</time>
      </trkpt>
      <trkpt lat="44.03254" lon="6.29673">
        <ele>1027</ele>
        <time>2021-09-03T07:14:58Z</time>
      </trkpt>
      <trkpt lat="44.03246" lon="6.29673">
        <ele>1027.5999755859</ele>
        <time>2021-09-03T07:15:04Z</time>
      </trkpt>
      <trkpt lat="44.03245" lon="6.29673">
        <ele>1027.8000488281</ele>
        <time>2021-09-03T07:15:05Z</time>
      </trkpt>
      <trkpt lat="44.03236" lon="6.29669">
        <ele>1028.8000488281</ele>
        <time>2021-09-03T07:15:11Z</time>
      </trkpt>
      <trkpt lat="44.03233" lon="6.29668">
        <ele>1029.1999511719</ele>
        <time>2021-09-03T07:15:13Z</time>
      </trkpt>
      <trkpt lat="44.03227" lon="6.29663">
        <ele>1029.8000488281</ele>
        <time>2021-09-03T07:15:18Z</time>
      </trkpt>
      <trkpt lat="44.03225" lon="6.29659">
        <ele>1030</ele>
        <time>2021-09-03T07:15:20Z</time>
      </trkpt>
      <trkpt lat="44.03216" lon="6.29648">
        <ele>1031</ele>
        <time>2021-09-03T07:15:28Z</time>
      </trkpt>
      <trkpt lat="44.03215" lon="6.29647">
        <ele>1031</ele>
        <time>2021-09-03T07:15:29Z</time>
      </trkpt>
      <trkpt lat="44.0321" lon="6.29636">
        <ele>1031.8000488281</ele>
        <time>2021-09-03T07:15:36Z</time>
      </trkpt>
      <trkpt lat="44.03208" lon="6.29633">
        <ele>1032.1999511719</ele>
        <time>2021-09-03T07:15:38Z</time>
      </trkpt>
      <trkpt lat="44.03202" lon="6.29623">
        <ele>1033.1999511719</ele>
        <time>2021-09-03T07:15:44Z</time>
      </trkpt>
      <trkpt lat="44.03192" lon="6.29617">
        <ele>1034.1999511719</ele>
        <time>2021-09-03T07:15:51Z</time>
      </trkpt>
      <trkpt lat="44.03184" lon="6.2962">
        <ele>1035</ele>
        <time>2021-09-03T07:15:57Z</time>
      </trkpt>
      <trkpt lat="44.03181" lon="6.29622">
        <ele>1035.4000244141</ele>
        <time>2021-09-03T07:15:59Z</time>
      </trkpt>
      <trkpt lat="44.03171" lon="6.29628">
        <ele>1036</ele>
        <time>2021-09-03T07:16:05Z</time>
      </trkpt>
      <trkpt lat="44.03169" lon="6.29629">
        <ele>1036.4000244141</ele>
        <time>2021-09-03T07:16:07Z</time>
      </trkpt>
      <trkpt lat="44.03161" lon="6.29631">
        <ele>1037</ele>
        <time>2021-09-03T07:16:12Z</time>
      </trkpt>
      <trkpt lat="44.03157" lon="6.29631">
        <ele>1037.4000244141</ele>
        <time>2021-09-03T07:16:14Z</time>
      </trkpt>
      <trkpt lat="44.03149" lon="6.29631">
        <ele>1038.4000244141</ele>
        <time>2021-09-03T07:16:20Z</time>
      </trkpt>
      <trkpt lat="44.03135" lon="6.29627">
        <ele>1039.5999755859</ele>
        <time>2021-09-03T07:16:28Z</time>
      </trkpt>
      <trkpt lat="44.03133" lon="6.29627">
        <ele>1039.8000488281</ele>
        <time>2021-09-03T07:16:30Z</time>
      </trkpt>
      <trkpt lat="44.03125" lon="6.29626">
        <ele>1040.5999755859</ele>
        <time>2021-09-03T07:16:35Z</time>
      </trkpt>
      <trkpt lat="44.03124" lon="6.29626">
        <ele>1040.8000488281</ele>
        <time>2021-09-03T07:16:36Z</time>
      </trkpt>
      <trkpt lat="44.03121" lon="6.29628">
        <ele>1041.1999511719</ele>
        <time>2021-09-03T07:16:38Z</time>
      </trkpt>
      <trkpt lat="44.03116" lon="6.29633">
        <ele>1041.8000488281</ele>
        <time>2021-09-03T07:16:42Z</time>
      </trkpt>
      <trkpt lat="44.03115" lon="6.29635">
        <ele>1042</ele>
        <time>2021-09-03T07:16:43Z</time>
      </trkpt>
      <trkpt lat="44.03113" lon="6.29638">
        <ele>1042.1999511719</ele>
        <time>2021-09-03T07:16:45Z</time>
      </trkpt>
      <trkpt lat="44.03111" lon="6.29647">
        <ele>1042.8000488281</ele>
        <time>2021-09-03T07:16:49Z</time>
      </trkpt>
      <trkpt lat="44.03105" lon="6.29663">
        <ele>1043.4000244141</ele>
        <time>2021-09-03T07:16:57Z</time>
      </trkpt>
      <trkpt lat="44.031" lon="6.29669">
        <ele>1044</ele>
        <time>2021-09-03T07:17:01Z</time>
      </trkpt>
      <trkpt lat="44.03098" lon="6.29671">
        <ele>1044.1999511719</ele>
        <time>2021-09-03T07:17:02Z</time>
      </trkpt>
      <trkpt lat="44.03091" lon="6.29675">
        <ele>1045.1999511719</ele>
        <time>2021-09-03T07:17:07Z</time>
      </trkpt>
      <trkpt lat="44.03085" lon="6.29677">
        <ele>1045.8000488281</ele>
        <time>2021-09-03T07:17:11Z</time>
      </trkpt>
      <trkpt lat="44.03082" lon="6.2968">
        <ele>1046.1999511719</ele>
        <time>2021-09-03T07:17:14Z</time>
      </trkpt>
      <trkpt lat="44.03077" lon="6.29685">
        <ele>1046.8000488281</ele>
        <time>2021-09-03T07:17:18Z</time>
      </trkpt>
      <trkpt lat="44.03073" lon="6.29687">
        <ele>1047.4000244141</ele>
        <time>2021-09-03T07:17:21Z</time>
      </trkpt>
      <trkpt lat="44.03071" lon="6.29688">
        <ele>1047.5999755859</ele>
        <time>2021-09-03T07:17:22Z</time>
      </trkpt>
      <trkpt lat="44.03067" lon="6.29691">
        <ele>1048</ele>
        <time>2021-09-03T07:17:25Z</time>
      </trkpt>
      <trkpt lat="44.03064" lon="6.29692">
        <ele>1048.4000244141</ele>
        <time>2021-09-03T07:17:27Z</time>
      </trkpt>
      <trkpt lat="44.03063" lon="6.29692">
        <ele>1048.5999755859</ele>
        <time>2021-09-03T07:17:28Z</time>
      </trkpt>
      <trkpt lat="44.03055" lon="6.29696">
        <ele>1049.4000244141</ele>
        <time>2021-09-03T07:17:33Z</time>
      </trkpt>
      <trkpt lat="44.03054" lon="6.29698">
        <ele>1049.5999755859</ele>
        <time>2021-09-03T07:17:34Z</time>
      </trkpt>
      <trkpt lat="44.03041" lon="6.29703">
        <ele>1050.5999755859</ele>
        <time>2021-09-03T07:17:42Z</time>
      </trkpt>
      <trkpt lat="44.0304" lon="6.29703">
        <ele>1050.8000488281</ele>
        <time>2021-09-03T07:17:43Z</time>
      </trkpt>
      <trkpt lat="44.03028" lon="6.29704">
        <ele>1051.8000488281</ele>
        <time>2021-09-03T07:17:50Z</time>
      </trkpt>
      <trkpt lat="44.03026" lon="6.29704">
        <ele>1051.8000488281</ele>
        <time>2021-09-03T07:17:51Z</time>
      </trkpt>
      <trkpt lat="44.0302" lon="6.29706">
        <ele>1052.8000488281</ele>
        <time>2021-09-03T07:17:56Z</time>
      </trkpt>
      <trkpt lat="44.03017" lon="6.29707">
        <ele>1053.1999511719</ele>
        <time>2021-09-03T07:17:58Z</time>
      </trkpt>
      <trkpt lat="44.03008" lon="6.29707">
        <ele>1054</ele>
        <time>2021-09-03T07:18:03Z</time>
      </trkpt>
      <trkpt lat="44.02999" lon="6.29707">
        <ele>1055</ele>
        <time>2021-09-03T07:18:09Z</time>
      </trkpt>
      <trkpt lat="44.02991" lon="6.29709">
        <ele>1055.8000488281</ele>
        <time>2021-09-03T07:18:14Z</time>
      </trkpt>
      <trkpt lat="44.0299" lon="6.29709">
        <ele>1056</ele>
        <time>2021-09-03T07:18:15Z</time>
      </trkpt>
      <trkpt lat="44.02988" lon="6.29709">
        <ele>1056.1999511719</ele>
        <time>2021-09-03T07:18:16Z</time>
      </trkpt>
      <trkpt lat="44.02981" lon="6.29713">
        <ele>1057.1999511719</ele>
        <time>2021-09-03T07:18:21Z</time>
      </trkpt>
      <trkpt lat="44.02979" lon="6.29714">
        <ele>1057.1999511719</ele>
        <time>2021-09-03T07:18:22Z</time>
      </trkpt>
      <trkpt lat="44.02971" lon="6.29715">
        <ele>1058.1999511719</ele>
        <time>2021-09-03T07:18:28Z</time>
      </trkpt>
      <trkpt lat="44.02969" lon="6.29716">
        <ele>1058.1999511719</ele>
        <time>2021-09-03T07:18:29Z</time>
      </trkpt>
      <trkpt lat="44.02968" lon="6.29718">
        <ele>1058.4000244141</ele>
        <time>2021-09-03T07:18:30Z</time>
      </trkpt>
      <trkpt lat="44.02961" lon="6.29721">
        <ele>1059.1999511719</ele>
        <time>2021-09-03T07:18:35Z</time>
      </trkpt>
      <trkpt lat="44.02957" lon="6.29722">
        <ele>1059.5999755859</ele>
        <time>2021-09-03T07:18:37Z</time>
      </trkpt>
      <trkpt lat="44.02948" lon="6.29728">
        <ele>1060.5999755859</ele>
        <time>2021-09-03T07:18:43Z</time>
      </trkpt>
      <trkpt lat="44.02947" lon="6.29728">
        <ele>1060.8000488281</ele>
        <time>2021-09-03T07:18:44Z</time>
      </trkpt>
      <trkpt lat="44.02943" lon="6.29729">
        <ele>1061.4000244141</ele>
        <time>2021-09-03T07:18:47Z</time>
      </trkpt>
      <trkpt lat="44.02941" lon="6.29731">
        <ele>1061.4000244141</ele>
        <time>2021-09-03T07:18:48Z</time>
      </trkpt>
      <trkpt lat="44.02938" lon="6.29733">
        <ele>1061.5999755859</ele>
        <time>2021-09-03T07:18:50Z</time>
      </trkpt>
      <trkpt lat="44.02935" lon="6.29736">
        <ele>1062</ele>
        <time>2021-09-03T07:18:53Z</time>
      </trkpt>
      <trkpt lat="44.02933" lon="6.29736">
        <ele>1062.1999511719</ele>
        <time>2021-09-03T07:18:54Z</time>
      </trkpt>
      <trkpt lat="44.02927" lon="6.29737">
        <ele>1062.8000488281</ele>
        <time>2021-09-03T07:18:58Z</time>
      </trkpt>
      <trkpt lat="44.02922" lon="6.29743">
        <ele>1063</ele>
        <time>2021-09-03T07:21:37Z</time>
      </trkpt>
      <trkpt lat="44.02916" lon="6.29746">
        <ele>1063.1999511719</ele>
        <time>2021-09-03T07:21:40Z</time>
      </trkpt>
      <trkpt lat="44.02899" lon="6.29753">
        <ele>1063.1999511719</ele>
        <time>2021-09-03T07:21:45Z</time>
      </trkpt>
      <trkpt lat="44.02885" lon="6.2976">
        <ele>1063</ele>
        <time>2021-09-03T07:21:48Z</time>
      </trkpt>
      <trkpt lat="44.02875" lon="6.29768">
        <ele>1062.5999755859</ele>
        <time>2021-09-03T07:21:50Z</time>
      </trkpt>
      <trkpt lat="44.02861" lon="6.2978">
        <ele>1061.4000244141</ele>
        <time>2021-09-03T07:21:53Z</time>
      </trkpt>
      <trkpt lat="44.02846" lon="6.29796">
        <ele>1060.1999511719</ele>
        <time>2021-09-03T07:21:56Z</time>
      </trkpt>
      <trkpt lat="44.02826" lon="6.2982">
        <ele>1059</ele>
        <time>2021-09-03T07:22:00Z</time>
      </trkpt>
      <trkpt lat="44.02816" lon="6.29834">
        <ele>1058.1999511719</ele>
        <time>2021-09-03T07:22:02Z</time>
      </trkpt>
      <trkpt lat="44.02805" lon="6.29847">
        <ele>1057.5999755859</ele>
        <time>2021-09-03T07:22:04Z</time>
      </trkpt>
      <trkpt lat="44.02789" lon="6.29864">
        <ele>1057</ele>
        <time>2021-09-03T07:22:07Z</time>
      </trkpt>
      <trkpt lat="44.02783" lon="6.29869">
        <ele>1056.8000488281</ele>
        <time>2021-09-03T07:22:08Z</time>
      </trkpt>
      <trkpt lat="44.02774" lon="6.29877">
        <ele>1056.5999755859</ele>
        <time>2021-09-03T07:22:10Z</time>
      </trkpt>
      <trkpt lat="44.02766" lon="6.29884">
        <ele>1056.4000244141</ele>
        <time>2021-09-03T07:22:12Z</time>
      </trkpt>
      <trkpt lat="44.02761" lon="6.29893">
        <ele>1056.4000244141</ele>
        <time>2021-09-03T07:22:14Z</time>
      </trkpt>
      <trkpt lat="44.02756" lon="6.29901">
        <ele>1056.1999511719</ele>
        <time>2021-09-03T07:22:16Z</time>
      </trkpt>
      <trkpt lat="44.02748" lon="6.2992">
        <ele>1056</ele>
        <time>2021-09-03T07:22:21Z</time>
      </trkpt>
      <trkpt lat="44.02736" lon="6.29942">
        <ele>1055.5999755859</ele>
        <time>2021-09-03T07:22:27Z</time>
      </trkpt>
      <trkpt lat="44.02733" lon="6.29946">
        <ele>1055.5999755859</ele>
        <time>2021-09-03T07:22:28Z</time>
      </trkpt>
      <trkpt lat="44.02719" lon="6.29959">
        <ele>1055.4000244141</ele>
        <time>2021-09-03T07:22:32Z</time>
      </trkpt>
      <trkpt lat="44.02715" lon="6.29962">
        <ele>1055.4000244141</ele>
        <time>2021-09-03T07:22:33Z</time>
      </trkpt>
      <trkpt lat="44.02686" lon="6.29979">
        <ele>1054.5999755859</ele>
        <time>2021-09-03T07:22:39Z</time>
      </trkpt>
      <trkpt lat="44.02676" lon="6.29988">
        <ele>1054.4000244141</ele>
        <time>2021-09-03T07:22:41Z</time>
      </trkpt>
      <trkpt lat="44.02659" lon="6.30014">
        <ele>1053.8000488281</ele>
        <time>2021-09-03T07:22:45Z</time>
      </trkpt>
      <trkpt lat="44.02656" lon="6.30022">
        <ele>1053.5999755859</ele>
        <time>2021-09-03T07:22:46Z</time>
      </trkpt>
      <trkpt lat="44.02656" lon="6.30033">
        <ele>1053.4000244141</ele>
        <time>2021-09-03T07:22:47Z</time>
      </trkpt>
      <trkpt lat="44.02655" lon="6.30043">
        <ele>1053</ele>
        <time>2021-09-03T07:22:48Z</time>
      </trkpt>
      <trkpt lat="44.02652" lon="6.30053">
        <ele>1052.5999755859</ele>
        <time>2021-09-03T07:22:49Z</time>
      </trkpt>
      <trkpt lat="44.02642" lon="6.30069">
        <ele>1052</ele>
        <time>2021-09-03T07:22:51Z</time>
      </trkpt>
      <trkpt lat="44.02622" lon="6.30086">
        <ele>1051.1999511719</ele>
        <time>2021-09-03T07:22:54Z</time>
      </trkpt>
      <trkpt lat="44.02615" lon="6.30091">
        <ele>1050.8000488281</ele>
        <time>2021-09-03T07:22:55Z</time>
      </trkpt>
      <trkpt lat="44.02586" lon="6.30105">
        <ele>1049.8000488281</ele>
        <time>2021-09-03T07:22:59Z</time>
      </trkpt>
      <trkpt lat="44.02578" lon="6.30102">
        <ele>1049.5999755859</ele>
        <time>2021-09-03T07:23:00Z</time>
      </trkpt>
      <trkpt lat="44.02566" lon="6.30087">
        <ele>1049.1999511719</ele>
        <time>2021-09-03T07:23:02Z</time>
      </trkpt>
      <trkpt lat="44.02552" lon="6.30079">
        <ele>1048.4000244141</ele>
        <time>2021-09-03T07:23:04Z</time>
      </trkpt>
      <trkpt lat="44.02544" lon="6.3008">
        <ele>1048</ele>
        <time>2021-09-03T07:23:05Z</time>
      </trkpt>
      <trkpt lat="44.02529" lon="6.30084">
        <ele>1047</ele>
        <time>2021-09-03T07:23:07Z</time>
      </trkpt>
      <trkpt lat="44.02515" lon="6.3009">
        <ele>1046.5999755859</ele>
        <time>2021-09-03T07:23:09Z</time>
      </trkpt>
      <trkpt lat="44.02496" lon="6.30104">
        <ele>1045.8000488281</ele>
        <time>2021-09-03T07:23:12Z</time>
      </trkpt>
      <trkpt lat="44.02486" lon="6.30115">
        <ele>1045.4000244141</ele>
        <time>2021-09-03T07:23:14Z</time>
      </trkpt>
      <trkpt lat="44.0248" lon="6.30122">
        <ele>1045.1999511719</ele>
        <time>2021-09-03T07:23:15Z</time>
      </trkpt>
      <trkpt lat="44.0247" lon="6.30136">
        <ele>1044.8000488281</ele>
        <time>2021-09-03T07:23:17Z</time>
      </trkpt>
      <trkpt lat="44.0246" lon="6.30149">
        <ele>1044.5999755859</ele>
        <time>2021-09-03T07:23:19Z</time>
      </trkpt>
      <trkpt lat="44.02441" lon="6.30177">
        <ele>1043.8000488281</ele>
        <time>2021-09-03T07:23:23Z</time>
      </trkpt>
      <trkpt lat="44.02419" lon="6.30209">
        <ele>1042.5999755859</ele>
        <time>2021-09-03T07:23:28Z</time>
      </trkpt>
      <trkpt lat="44.02389" lon="6.30255">
        <ele>1041.5999755859</ele>
        <time>2021-09-03T07:23:35Z</time>
      </trkpt>
      <trkpt lat="44.02353" lon="6.30307">
        <ele>1040.5999755859</ele>
        <time>2021-09-03T07:23:42Z</time>
      </trkpt>
      <trkpt lat="44.0233" lon="6.30347">
        <ele>1039.5999755859</ele>
        <time>2021-09-03T07:23:47Z</time>
      </trkpt>
      <trkpt lat="44.02326" lon="6.30355">
        <ele>1039.4000244141</ele>
        <time>2021-09-03T07:23:48Z</time>
      </trkpt>
      <trkpt lat="44.02315" lon="6.30368">
        <ele>1039</ele>
        <time>2021-09-03T07:23:50Z</time>
      </trkpt>
      <trkpt lat="44.02304" lon="6.30378">
        <ele>1038.8000488281</ele>
        <time>2021-09-03T07:23:52Z</time>
      </trkpt>
      <trkpt lat="44.02292" lon="6.30386">
        <ele>1038.5999755859</ele>
        <time>2021-09-03T07:23:54Z</time>
      </trkpt>
      <trkpt lat="44.02287" lon="6.3039">
        <ele>1038.4000244141</ele>
        <time>2021-09-03T07:23:55Z</time>
      </trkpt>
      <trkpt lat="44.02281" lon="6.30393">
        <ele>1038.4000244141</ele>
        <time>2021-09-03T07:23:56Z</time>
      </trkpt>
      <trkpt lat="44.02275" lon="6.30396">
        <ele>1038.4000244141</ele>
        <time>2021-09-03T07:23:57Z</time>
      </trkpt>
      <trkpt lat="44.02258" lon="6.30407">
        <ele>1038.4000244141</ele>
        <time>2021-09-03T07:24:00Z</time>
      </trkpt>
      <trkpt lat="44.02243" lon="6.30424">
        <ele>1038.1999511719</ele>
        <time>2021-09-03T07:24:03Z</time>
      </trkpt>
      <trkpt lat="44.02241" lon="6.30432">
        <ele>1038.1999511719</ele>
        <time>2021-09-03T07:24:04Z</time>
      </trkpt>
      <trkpt lat="44.02236" lon="6.30448">
        <ele>1038.1999511719</ele>
        <time>2021-09-03T07:24:06Z</time>
      </trkpt>
      <trkpt lat="44.02223" lon="6.30465">
        <ele>1038</ele>
        <time>2021-09-03T07:24:09Z</time>
      </trkpt>
      <trkpt lat="44.02217" lon="6.30468">
        <ele>1038</ele>
        <time>2021-09-03T07:24:10Z</time>
      </trkpt>
      <trkpt lat="44.02199" lon="6.30466">
        <ele>1038</ele>
        <time>2021-09-03T07:24:13Z</time>
      </trkpt>
      <trkpt lat="44.02193" lon="6.30464">
        <ele>1038</ele>
        <time>2021-09-03T07:24:14Z</time>
      </trkpt>
      <trkpt lat="44.0217" lon="6.30466">
        <ele>1038</ele>
        <time>2021-09-03T07:24:18Z</time>
      </trkpt>
      <trkpt lat="44.02164" lon="6.3047">
        <ele>1038</ele>
        <time>2021-09-03T07:24:19Z</time>
      </trkpt>
      <trkpt lat="44.02149" lon="6.3049">
        <ele>1037.5999755859</ele>
        <time>2021-09-03T07:24:22Z</time>
      </trkpt>
      <trkpt lat="44.02142" lon="6.30505">
        <ele>1037.1999511719</ele>
        <time>2021-09-03T07:24:24Z</time>
      </trkpt>
      <trkpt lat="44.0214" lon="6.30524">
        <ele>1036.4000244141</ele>
        <time>2021-09-03T07:24:26Z</time>
      </trkpt>
      <trkpt lat="44.0214" lon="6.30535">
        <ele>1036.1999511719</ele>
        <time>2021-09-03T07:24:27Z</time>
      </trkpt>
      <trkpt lat="44.02133" lon="6.30565">
        <ele>1035.4000244141</ele>
        <time>2021-09-03T07:24:30Z</time>
      </trkpt>
      <trkpt lat="44.0213" lon="6.30572">
        <ele>1035.1999511719</ele>
        <time>2021-09-03T07:24:32Z</time>
      </trkpt>
      <trkpt lat="44.02116" lon="6.30561">
        <ele>1035.1999511719</ele>
        <time>2021-09-03T07:24:35Z</time>
      </trkpt>
      <trkpt lat="44.02111" lon="6.30555">
        <ele>1035.1999511719</ele>
        <time>2021-09-03T07:24:36Z</time>
      </trkpt>
      <trkpt lat="44.02096" lon="6.30538">
        <ele>1035.5999755859</ele>
        <time>2021-09-03T07:24:40Z</time>
      </trkpt>
      <trkpt lat="44.02074" lon="6.30521">
        <ele>1037.1999511719</ele>
        <time>2021-09-03T07:24:46Z</time>
      </trkpt>
      <trkpt lat="44.0207" lon="6.30521">
        <ele>1037.1999511719</ele>
        <time>2021-09-03T07:24:47Z</time>
      </trkpt>
      <trkpt lat="44.02048" lon="6.30531">
        <ele>1037</ele>
        <time>2021-09-03T07:24:52Z</time>
      </trkpt>
      <trkpt lat="44.02043" lon="6.30535">
        <ele>1036.8000488281</ele>
        <time>2021-09-03T07:24:53Z</time>
      </trkpt>
      <trkpt lat="44.02034" lon="6.30545">
        <ele>1036.5999755859</ele>
        <time>2021-09-03T07:24:55Z</time>
      </trkpt>
      <trkpt lat="44.02021" lon="6.30561">
        <ele>1036</ele>
        <time>2021-09-03T07:24:58Z</time>
      </trkpt>
      <trkpt lat="44.01994" lon="6.30594">
        <ele>1035.5999755859</ele>
        <time>2021-09-03T07:25:05Z</time>
      </trkpt>
      <trkpt lat="44.01987" lon="6.30602">
        <ele>1035.8000488281</ele>
        <time>2021-09-03T07:25:07Z</time>
      </trkpt>
      <trkpt lat="44.01973" lon="6.30619">
        <ele>1036.4000244141</ele>
        <time>2021-09-03T07:25:11Z</time>
      </trkpt>
      <trkpt lat="44.01958" lon="6.30638">
        <ele>1037.1999511719</ele>
        <time>2021-09-03T07:25:16Z</time>
      </trkpt>
      <trkpt lat="44.01949" lon="6.3065">
        <ele>1037.5999755859</ele>
        <time>2021-09-03T07:25:19Z</time>
      </trkpt>
      <trkpt lat="44.01936" lon="6.30664">
        <ele>1038.1999511719</ele>
        <time>2021-09-03T07:25:24Z</time>
      </trkpt>
      <trkpt lat="44.01932" lon="6.3067">
        <ele>1038.5999755859</ele>
        <time>2021-09-03T07:25:26Z</time>
      </trkpt>
      <trkpt lat="44.01919" lon="6.30686">
        <ele>1039.5999755859</ele>
        <time>2021-09-03T07:25:31Z</time>
      </trkpt>
      <trkpt lat="44.01912" lon="6.30695">
        <ele>1040</ele>
        <time>2021-09-03T07:25:34Z</time>
      </trkpt>
      <trkpt lat="44.019" lon="6.30709">
        <ele>1040.8000488281</ele>
        <time>2021-09-03T07:25:39Z</time>
      </trkpt>
      <trkpt lat="44.01893" lon="6.30718">
        <ele>1041.1999511719</ele>
        <time>2021-09-03T07:25:42Z</time>
      </trkpt>
      <trkpt lat="44.01882" lon="6.3073">
        <ele>1041.8000488281</ele>
        <time>2021-09-03T07:25:46Z</time>
      </trkpt>
      <trkpt lat="44.01877" lon="6.30737">
        <ele>1041.8000488281</ele>
        <time>2021-09-03T07:25:48Z</time>
      </trkpt>
      <trkpt lat="44.01864" lon="6.3075">
        <ele>1042.4000244141</ele>
        <time>2021-09-03T07:25:53Z</time>
      </trkpt>
      <trkpt lat="44.01857" lon="6.30757">
        <ele>1042.8000488281</ele>
        <time>2021-09-03T07:25:56Z</time>
      </trkpt>
      <trkpt lat="44.01846" lon="6.30768">
        <ele>1043.4000244141</ele>
        <time>2021-09-03T07:26:01Z</time>
      </trkpt>
      <trkpt lat="44.0184" lon="6.30774">
        <ele>1043.8000488281</ele>
        <time>2021-09-03T07:26:04Z</time>
      </trkpt>
      <trkpt lat="44.01831" lon="6.30782">
        <ele>1044</ele>
        <time>2021-09-03T07:26:07Z</time>
      </trkpt>
      <trkpt lat="44.01814" lon="6.30802">
        <ele>1044</ele>
        <time>2021-09-03T07:26:13Z</time>
      </trkpt>
      <trkpt lat="44.01791" lon="6.30824">
        <ele>1043.1999511719</ele>
        <time>2021-09-03T07:26:18Z</time>
      </trkpt>
      <trkpt lat="44.01784" lon="6.30828">
        <ele>1042.8000488281</ele>
        <time>2021-09-03T07:26:19Z</time>
      </trkpt>
      <trkpt lat="44.01771" lon="6.30837">
        <ele>1042.1999511719</ele>
        <time>2021-09-03T07:26:21Z</time>
      </trkpt>
      <trkpt lat="44.01759" lon="6.30847">
        <ele>1041.4000244141</ele>
        <time>2021-09-03T07:26:23Z</time>
      </trkpt>
      <trkpt lat="44.01746" lon="6.30857">
        <ele>1040.1999511719</ele>
        <time>2021-09-03T07:26:25Z</time>
      </trkpt>
      <trkpt lat="44.0174" lon="6.30861">
        <ele>1039.5999755859</ele>
        <time>2021-09-03T07:26:26Z</time>
      </trkpt>
      <trkpt lat="44.01734" lon="6.30863">
        <ele>1039</ele>
        <time>2021-09-03T07:26:27Z</time>
      </trkpt>
      <trkpt lat="44.01724" lon="6.30865">
        <ele>1038</ele>
        <time>2021-09-03T07:26:29Z</time>
      </trkpt>
      <trkpt lat="44.01715" lon="6.30865">
        <ele>1037</ele>
        <time>2021-09-03T07:26:31Z</time>
      </trkpt>
      <trkpt lat="44.01703" lon="6.30866">
        <ele>1036</ele>
        <time>2021-09-03T07:26:34Z</time>
      </trkpt>
      <trkpt lat="44.01701" lon="6.30865">
        <ele>1036</ele>
        <time>2021-09-03T07:26:35Z</time>
      </trkpt>
      <trkpt lat="44.01696" lon="6.30864">
        <ele>1035.8000488281</ele>
        <time>2021-09-03T07:26:38Z</time>
      </trkpt>
      <trkpt lat="44.0169" lon="6.30872">
        <ele>1035.5999755859</ele>
        <time>2021-09-03T07:29:31Z</time>
      </trkpt>
      <trkpt lat="44.01689" lon="6.30874">
        <ele>1035.5999755859</ele>
        <time>2021-09-03T07:29:32Z</time>
      </trkpt>
      <trkpt lat="44.01677" lon="6.30882">
        <ele>1036</ele>
        <time>2021-09-03T07:29:37Z</time>
      </trkpt>
      <trkpt lat="44.01658" lon="6.30896">
        <ele>1035.8000488281</ele>
        <time>2021-09-03T07:29:42Z</time>
      </trkpt>
      <trkpt lat="44.01637" lon="6.30897">
        <ele>1035.5999755859</ele>
        <time>2021-09-03T07:29:47Z</time>
      </trkpt>
      <trkpt lat="44.01612" lon="6.3089">
        <ele>1036.1999511719</ele>
        <time>2021-09-03T07:29:54Z</time>
      </trkpt>
      <trkpt lat="44.01599" lon="6.30888">
        <ele>1037</ele>
        <time>2021-09-03T07:29:58Z</time>
      </trkpt>
      <trkpt lat="44.01585" lon="6.3089">
        <ele>1037.1999511719</ele>
        <time>2021-09-03T07:30:02Z</time>
      </trkpt>
      <trkpt lat="44.01565" lon="6.30893">
        <ele>1037.4000244141</ele>
        <time>2021-09-03T07:30:07Z</time>
      </trkpt>
      <trkpt lat="44.01556" lon="6.30896">
        <ele>1037.1999511719</ele>
        <time>2021-09-03T07:30:09Z</time>
      </trkpt>
      <trkpt lat="44.01552" lon="6.30896">
        <ele>1037</ele>
        <time>2021-09-03T07:30:10Z</time>
      </trkpt>
      <trkpt lat="44.01533" lon="6.30898">
        <ele>1037</ele>
        <time>2021-09-03T07:30:15Z</time>
      </trkpt>
      <trkpt lat="44.01517" lon="6.30897">
        <ele>1037.5999755859</ele>
        <time>2021-09-03T07:30:21Z</time>
      </trkpt>
      <trkpt lat="44.01511" lon="6.30895">
        <ele>1038.1999511719</ele>
        <time>2021-09-03T07:30:24Z</time>
      </trkpt>
      <trkpt lat="44.01504" lon="6.30892">
        <ele>1039</ele>
        <time>2021-09-03T07:30:28Z</time>
      </trkpt>
      <trkpt lat="44.01503" lon="6.30891">
        <ele>1039.1999511719</ele>
        <time>2021-09-03T07:30:29Z</time>
      </trkpt>
      <trkpt lat="44.01492" lon="6.30883">
        <ele>1040</ele>
        <time>2021-09-03T07:30:35Z</time>
      </trkpt>
      <trkpt lat="44.01489" lon="6.30881">
        <ele>1040.1999511719</ele>
        <time>2021-09-03T07:30:37Z</time>
      </trkpt>
      <trkpt lat="44.01484" lon="6.30876">
        <ele>1040.8000488281</ele>
        <time>2021-09-03T07:30:41Z</time>
      </trkpt>
      <trkpt lat="44.01482" lon="6.30874">
        <ele>1041.4000244141</ele>
        <time>2021-09-03T07:30:43Z</time>
      </trkpt>
      <trkpt lat="44.01475" lon="6.30868">
        <ele>1042</ele>
        <time>2021-09-03T07:30:48Z</time>
      </trkpt>
      <trkpt lat="44.01472" lon="6.30864">
        <ele>1042.4000244141</ele>
        <time>2021-09-03T07:30:50Z</time>
      </trkpt>
      <trkpt lat="44.01466" lon="6.30856">
        <ele>1042.8000488281</ele>
        <time>2021-09-03T07:30:54Z</time>
      </trkpt>
      <trkpt lat="44.01458" lon="6.30851">
        <ele>1043.4000244141</ele>
        <time>2021-09-03T07:30:58Z</time>
      </trkpt>
      <trkpt lat="44.01454" lon="6.30848">
        <ele>1043.8000488281</ele>
        <time>2021-09-03T07:31:01Z</time>
      </trkpt>
      <trkpt lat="44.01443" lon="6.30849">
        <ele>1044.4000244141</ele>
        <time>2021-09-03T07:31:06Z</time>
      </trkpt>
      <trkpt lat="44.01441" lon="6.3085">
        <ele>1044.4000244141</ele>
        <time>2021-09-03T07:31:07Z</time>
      </trkpt>
      <trkpt lat="44.01428" lon="6.30859">
        <ele>1044.8000488281</ele>
        <time>2021-09-03T07:31:13Z</time>
      </trkpt>
      <trkpt lat="44.01417" lon="6.30875">
        <ele>1045.1999511719</ele>
        <time>2021-09-03T07:31:19Z</time>
      </trkpt>
      <trkpt lat="44.01415" lon="6.30886">
        <ele>1045.4000244141</ele>
        <time>2021-09-03T07:31:22Z</time>
      </trkpt>
      <trkpt lat="44.01414" lon="6.30903">
        <ele>1045.8000488281</ele>
        <time>2021-09-03T07:31:26Z</time>
      </trkpt>
      <trkpt lat="44.01413" lon="6.30942">
        <ele>1045.5999755859</ele>
        <time>2021-09-03T07:31:34Z</time>
      </trkpt>
      <trkpt lat="44.01412" lon="6.30965">
        <ele>1045.5999755859</ele>
        <time>2021-09-03T07:31:39Z</time>
      </trkpt>
      <trkpt lat="44.0141" lon="6.30985">
        <ele>1045.4000244141</ele>
        <time>2021-09-03T07:31:45Z</time>
      </trkpt>
      <trkpt lat="44.0141" lon="6.31004">
        <ele>1045.4000244141</ele>
        <time>2021-09-03T07:31:50Z</time>
      </trkpt>
      <trkpt lat="44.01406" lon="6.31035">
        <ele>1046</ele>
        <time>2021-09-03T07:31:56Z</time>
      </trkpt>
      <trkpt lat="44.01396" lon="6.31052">
        <ele>1046.4000244141</ele>
        <time>2021-09-03T07:32:00Z</time>
      </trkpt>
      <trkpt lat="44.01393" lon="6.31055">
        <ele>1046.5999755859</ele>
        <time>2021-09-03T07:32:01Z</time>
      </trkpt>
      <trkpt lat="44.01375" lon="6.31074">
        <ele>1046.8000488281</ele>
        <time>2021-09-03T07:32:07Z</time>
      </trkpt>
      <trkpt lat="44.01355" lon="6.31094">
        <ele>1047.4000244141</ele>
        <time>2021-09-03T07:32:14Z</time>
      </trkpt>
      <trkpt lat="44.01352" lon="6.31097">
        <ele>1047.5999755859</ele>
        <time>2021-09-03T07:32:15Z</time>
      </trkpt>
      <trkpt lat="44.01339" lon="6.31116">
        <ele>1048.5999755859</ele>
        <time>2021-09-03T07:32:20Z</time>
      </trkpt>
      <trkpt lat="44.01337" lon="6.31119">
        <ele>1048.5999755859</ele>
        <time>2021-09-03T07:32:21Z</time>
      </trkpt>
      <trkpt lat="44.01327" lon="6.31131">
        <ele>1049</ele>
        <time>2021-09-03T07:32:25Z</time>
      </trkpt>
      <trkpt lat="44.01312" lon="6.31143">
        <ele>1049.4000244141</ele>
        <time>2021-09-03T07:32:30Z</time>
      </trkpt>
      <trkpt lat="44.01305" lon="6.31149">
        <ele>1049.5999755859</ele>
        <time>2021-09-03T07:32:32Z</time>
      </trkpt>
      <trkpt lat="44.01291" lon="6.31156">
        <ele>1049.8000488281</ele>
        <time>2021-09-03T07:32:36Z</time>
      </trkpt>
      <trkpt lat="44.01263" lon="6.31164">
        <ele>1050.5999755859</ele>
        <time>2021-09-03T07:32:44Z</time>
      </trkpt>
      <trkpt lat="44.01259" lon="6.31165">
        <ele>1050.8000488281</ele>
        <time>2021-09-03T07:32:45Z</time>
      </trkpt>
      <trkpt lat="44.01233" lon="6.3117">
        <ele>1051.4000244141</ele>
        <time>2021-09-03T07:32:52Z</time>
      </trkpt>
      <trkpt lat="44.01227" lon="6.31172">
        <ele>1051.5999755859</ele>
        <time>2021-09-03T07:32:54Z</time>
      </trkpt>
      <trkpt lat="44.01213" lon="6.3118">
        <ele>1052.1999511719</ele>
        <time>2021-09-03T07:32:59Z</time>
      </trkpt>
      <trkpt lat="44.01206" lon="6.31188">
        <ele>1052.8000488281</ele>
        <time>2021-09-03T07:33:02Z</time>
      </trkpt>
      <trkpt lat="44.012" lon="6.31201">
        <ele>1053.4000244141</ele>
        <time>2021-09-03T07:33:06Z</time>
      </trkpt>
      <trkpt lat="44.012" lon="6.31204">
        <ele>1053.4000244141</ele>
        <time>2021-09-03T07:33:07Z</time>
      </trkpt>
      <trkpt lat="44.01198" lon="6.31215">
        <ele>1053.4000244141</ele>
        <time>2021-09-03T07:33:10Z</time>
      </trkpt>
      <trkpt lat="44.01195" lon="6.3123">
        <ele>1053.5999755859</ele>
        <time>2021-09-03T07:33:15Z</time>
      </trkpt>
      <trkpt lat="44.01195" lon="6.31237">
        <ele>1054.5999755859</ele>
        <time>2021-09-03T07:34:37Z</time>
      </trkpt>
      <trkpt lat="44.01194" lon="6.31247">
        <ele>1054.5999755859</ele>
        <time>2021-09-03T07:34:41Z</time>
      </trkpt>
      <trkpt lat="44.01194" lon="6.3125">
        <ele>1054.8000488281</ele>
        <time>2021-09-03T07:34:42Z</time>
      </trkpt>
      <trkpt lat="44.01195" lon="6.31256">
        <ele>1055.1999511719</ele>
        <time>2021-09-03T07:34:44Z</time>
      </trkpt>
      <trkpt lat="44.01195" lon="6.31269">
        <ele>1056</ele>
        <time>2021-09-03T07:34:49Z</time>
      </trkpt>
      <trkpt lat="44.01195" lon="6.31272">
        <ele>1056.1999511719</ele>
        <time>2021-09-03T07:34:50Z</time>
      </trkpt>
      <trkpt lat="44.01197" lon="6.31297">
        <ele>1057.4000244141</ele>
        <time>2021-09-03T07:34:58Z</time>
      </trkpt>
      <trkpt lat="44.01201" lon="6.31315">
        <ele>1058.1999511719</ele>
        <time>2021-09-03T07:35:04Z</time>
      </trkpt>
      <trkpt lat="44.01201" lon="6.31317">
        <ele>1058.4000244141</ele>
        <time>2021-09-03T07:35:05Z</time>
      </trkpt>
      <trkpt lat="44.01208" lon="6.31327">
        <ele>1059.4000244141</ele>
        <time>2021-09-03T07:35:10Z</time>
      </trkpt>
      <trkpt lat="44.0121" lon="6.31329">
        <ele>1059.5999755859</ele>
        <time>2021-09-03T07:35:11Z</time>
      </trkpt>
      <trkpt lat="44.01217" lon="6.3134">
        <ele>1060.5999755859</ele>
        <time>2021-09-03T07:35:17Z</time>
      </trkpt>
      <trkpt lat="44.01229" lon="6.31351">
        <ele>1061.5999755859</ele>
        <time>2021-09-03T07:35:25Z</time>
      </trkpt>
      <trkpt lat="44.01241" lon="6.31362">
        <ele>1062.8000488281</ele>
        <time>2021-09-03T07:35:32Z</time>
      </trkpt>
      <trkpt lat="44.01248" lon="6.31374">
        <ele>1063.8000488281</ele>
        <time>2021-09-03T07:35:38Z</time>
      </trkpt>
      <trkpt lat="44.0125" lon="6.31376">
        <ele>1063.8000488281</ele>
        <time>2021-09-03T07:35:39Z</time>
      </trkpt>
      <trkpt lat="44.01257" lon="6.31388">
        <ele>1064.8000488281</ele>
        <time>2021-09-03T07:35:46Z</time>
      </trkpt>
      <trkpt lat="44.01258" lon="6.3139">
        <ele>1065</ele>
        <time>2021-09-03T07:35:47Z</time>
      </trkpt>
      <trkpt lat="44.01261" lon="6.31402">
        <ele>1066</ele>
        <time>2021-09-03T07:35:53Z</time>
      </trkpt>
      <trkpt lat="44.01261" lon="6.31404">
        <ele>1066.1999511719</ele>
        <time>2021-09-03T07:35:54Z</time>
      </trkpt>
      <trkpt lat="44.01263" lon="6.31414">
        <ele>1067.1999511719</ele>
        <time>2021-09-03T07:35:59Z</time>
      </trkpt>
      <trkpt lat="44.01262" lon="6.31416">
        <ele>1067.1999511719</ele>
        <time>2021-09-03T07:36:00Z</time>
      </trkpt>
      <trkpt lat="44.01263" lon="6.31431">
        <ele>1068.4000244141</ele>
        <time>2021-09-03T07:36:07Z</time>
      </trkpt>
      <trkpt lat="44.01265" lon="6.31447">
        <ele>1069.4000244141</ele>
        <time>2021-09-03T07:36:14Z</time>
      </trkpt>
      <trkpt lat="44.01266" lon="6.31461">
        <ele>1070.4000244141</ele>
        <time>2021-09-03T07:36:20Z</time>
      </trkpt>
      <trkpt lat="44.01266" lon="6.31465">
        <ele>1070.5999755859</ele>
        <time>2021-09-03T07:36:22Z</time>
      </trkpt>
      <trkpt lat="44.01268" lon="6.31479">
        <ele>1071.4000244141</ele>
        <time>2021-09-03T07:36:28Z</time>
      </trkpt>
      <trkpt lat="44.01269" lon="6.31483">
        <ele>1071.5999755859</ele>
        <time>2021-09-03T07:36:30Z</time>
      </trkpt>
      <trkpt lat="44.01271" lon="6.31496">
        <ele>1072.5999755859</ele>
        <time>2021-09-03T07:36:36Z</time>
      </trkpt>
      <trkpt lat="44.01272" lon="6.31498">
        <ele>1072.5999755859</ele>
        <time>2021-09-03T07:36:37Z</time>
      </trkpt>
      <trkpt lat="44.0127" lon="6.31512">
        <ele>1073.5999755859</ele>
        <time>2021-09-03T07:36:43Z</time>
      </trkpt>
      <trkpt lat="44.0127" lon="6.31515">
        <ele>1073.8000488281</ele>
        <time>2021-09-03T07:36:44Z</time>
      </trkpt>
      <trkpt lat="44.01268" lon="6.3153">
        <ele>1074.5999755859</ele>
        <time>2021-09-03T07:36:51Z</time>
      </trkpt>
      <trkpt lat="44.01267" lon="6.31534">
        <ele>1075</ele>
        <time>2021-09-03T07:36:53Z</time>
      </trkpt>
      <trkpt lat="44.01265" lon="6.31546">
        <ele>1075.5999755859</ele>
        <time>2021-09-03T07:36:58Z</time>
      </trkpt>
      <trkpt lat="44.01263" lon="6.31553">
        <ele>1076</ele>
        <time>2021-09-03T07:37:01Z</time>
      </trkpt>
      <trkpt lat="44.01262" lon="6.31562">
        <ele>1076.4000244141</ele>
        <time>2021-09-03T07:37:05Z</time>
      </trkpt>
      <trkpt lat="44.01259" lon="6.3157">
        <ele>1077</ele>
        <time>2021-09-03T07:37:09Z</time>
      </trkpt>
      <trkpt lat="44.01257" lon="6.31574">
        <ele>1077.1999511719</ele>
        <time>2021-09-03T07:37:11Z</time>
      </trkpt>
      <trkpt lat="44.01249" lon="6.31589">
        <ele>1078</ele>
        <time>2021-09-03T07:37:18Z</time>
      </trkpt>
      <trkpt lat="44.01241" lon="6.31597">
        <ele>1079</ele>
        <time>2021-09-03T07:37:24Z</time>
      </trkpt>
      <trkpt lat="44.0124" lon="6.31598">
        <ele>1079.1999511719</ele>
        <time>2021-09-03T07:37:25Z</time>
      </trkpt>
      <trkpt lat="44.01228" lon="6.31604">
        <ele>1080.4000244141</ele>
        <time>2021-09-03T07:37:32Z</time>
      </trkpt>
      <trkpt lat="44.01226" lon="6.31604">
        <ele>1080.4000244141</ele>
        <time>2021-09-03T07:37:33Z</time>
      </trkpt>
      <trkpt lat="44.01218" lon="6.31606">
        <ele>1081.4000244141</ele>
        <time>2021-09-03T07:37:39Z</time>
      </trkpt>
      <trkpt lat="44.01207" lon="6.31611">
        <ele>1082.1999511719</ele>
        <time>2021-09-03T07:37:46Z</time>
      </trkpt>
      <trkpt lat="44.01204" lon="6.31612">
        <ele>1082.4000244141</ele>
        <time>2021-09-03T07:37:48Z</time>
      </trkpt>
      <trkpt lat="44.01195" lon="6.31615">
        <ele>1083.4000244141</ele>
        <time>2021-09-03T07:37:54Z</time>
      </trkpt>
      <trkpt lat="44.01193" lon="6.31616">
        <ele>1083.4000244141</ele>
        <time>2021-09-03T07:37:55Z</time>
      </trkpt>
      <trkpt lat="44.01182" lon="6.31621">
        <ele>1084.5999755859</ele>
        <time>2021-09-03T07:38:02Z</time>
      </trkpt>
      <trkpt lat="44.01177" lon="6.31623">
        <ele>1085</ele>
        <time>2021-09-03T07:38:05Z</time>
      </trkpt>
      <trkpt lat="44.01173" lon="6.31622">
        <ele>1085.4000244141</ele>
        <time>2021-09-03T07:38:08Z</time>
      </trkpt>
      <trkpt lat="44.0117" lon="6.31623">
        <ele>1085.5999755859</ele>
        <time>2021-09-03T07:38:10Z</time>
      </trkpt>
      <trkpt lat="44.01162" lon="6.31626">
        <ele>1086.4000244141</ele>
        <time>2021-09-03T07:38:15Z</time>
      </trkpt>
      <trkpt lat="44.01157" lon="6.31627">
        <ele>1086.8000488281</ele>
        <time>2021-09-03T07:38:18Z</time>
      </trkpt>
      <trkpt lat="44.01152" lon="6.31629">
        <ele>1087.4000244141</ele>
        <time>2021-09-03T07:38:21Z</time>
      </trkpt>
      <trkpt lat="44.01147" lon="6.31631">
        <ele>1087.8000488281</ele>
        <time>2021-09-03T07:38:24Z</time>
      </trkpt>
      <trkpt lat="44.01136" lon="6.31633">
        <ele>1088.5999755859</ele>
        <time>2021-09-03T07:38:30Z</time>
      </trkpt>
      <trkpt lat="44.01133" lon="6.31634">
        <ele>1089</ele>
        <time>2021-09-03T07:38:32Z</time>
      </trkpt>
      <trkpt lat="44.01125" lon="6.31637">
        <ele>1089.5999755859</ele>
        <time>2021-09-03T07:38:38Z</time>
      </trkpt>
      <trkpt lat="44.01121" lon="6.31639">
        <ele>1090</ele>
        <time>2021-09-03T07:38:41Z</time>
      </trkpt>
      <trkpt lat="44.01116" lon="6.31642">
        <ele>1090.8000488281</ele>
        <time>2021-09-03T07:38:45Z</time>
      </trkpt>
      <trkpt lat="44.01114" lon="6.31644">
        <ele>1091</ele>
        <time>2021-09-03T07:38:46Z</time>
      </trkpt>
      <trkpt lat="44.01112" lon="6.31646">
        <ele>1091.1999511719</ele>
        <time>2021-09-03T07:38:47Z</time>
      </trkpt>
      <trkpt lat="44.01107" lon="6.31649">
        <ele>1091.5999755859</ele>
        <time>2021-09-03T07:38:50Z</time>
      </trkpt>
      <trkpt lat="44.01104" lon="6.31651">
        <ele>1091.8000488281</ele>
        <time>2021-09-03T07:38:52Z</time>
      </trkpt>
      <trkpt lat="44.01095" lon="6.31657">
        <ele>1092.1999511719</ele>
        <time>2021-09-03T07:38:57Z</time>
      </trkpt>
      <trkpt lat="44.01094" lon="6.31658">
        <ele>1092.4000244141</ele>
        <time>2021-09-03T07:38:58Z</time>
      </trkpt>
      <trkpt lat="44.01083" lon="6.31671">
        <ele>1092.8000488281</ele>
        <time>2021-09-03T07:39:06Z</time>
      </trkpt>
      <trkpt lat="44.01082" lon="6.31678">
        <ele>1093.1999511719</ele>
        <time>2021-09-03T07:39:09Z</time>
      </trkpt>
      <trkpt lat="44.01082" lon="6.31686">
        <ele>1094.1999511719</ele>
        <time>2021-09-03T07:39:13Z</time>
      </trkpt>
      <trkpt lat="44.01083" lon="6.31688">
        <ele>1094.4000244141</ele>
        <time>2021-09-03T07:39:14Z</time>
      </trkpt>
      <trkpt lat="44.01088" lon="6.31693">
        <ele>1095.1999511719</ele>
        <time>2021-09-03T07:39:18Z</time>
      </trkpt>
      <trkpt lat="44.0109" lon="6.31693">
        <ele>1095.4000244141</ele>
        <time>2021-09-03T07:39:19Z</time>
      </trkpt>
      <trkpt lat="44.01098" lon="6.31691">
        <ele>1096.4000244141</ele>
        <time>2021-09-03T07:39:24Z</time>
      </trkpt>
      <trkpt lat="44.011" lon="6.31689">
        <ele>1096.4000244141</ele>
        <time>2021-09-03T07:39:25Z</time>
      </trkpt>
      <trkpt lat="44.01109" lon="6.31678">
        <ele>1097.5999755859</ele>
        <time>2021-09-03T07:39:32Z</time>
      </trkpt>
      <trkpt lat="44.01124" lon="6.31672">
        <ele>1098.1999511719</ele>
        <time>2021-09-03T07:39:40Z</time>
      </trkpt>
      <trkpt lat="44.01131" lon="6.31672">
        <ele>1098.5999755859</ele>
        <time>2021-09-03T07:39:44Z</time>
      </trkpt>
      <trkpt lat="44.01132" lon="6.31672">
        <ele>1098.8000488281</ele>
        <time>2021-09-03T07:39:45Z</time>
      </trkpt>
      <trkpt lat="44.01135" lon="6.31674">
        <ele>1099</ele>
        <time>2021-09-03T07:39:47Z</time>
      </trkpt>
      <trkpt lat="44.01142" lon="6.31676">
        <ele>1099.5999755859</ele>
        <time>2021-09-03T07:39:51Z</time>
      </trkpt>
      <trkpt lat="44.01144" lon="6.31678">
        <ele>1100</ele>
        <time>2021-09-03T07:39:53Z</time>
      </trkpt>
      <trkpt lat="44.01146" lon="6.31679">
        <ele>1100.1999511719</ele>
        <time>2021-09-03T07:39:54Z</time>
      </trkpt>
      <trkpt lat="44.0115" lon="6.31681">
        <ele>1100.8000488281</ele>
        <time>2021-09-03T07:39:57Z</time>
      </trkpt>
      <trkpt lat="44.01153" lon="6.31683">
        <ele>1101</ele>
        <time>2021-09-03T07:39:59Z</time>
      </trkpt>
      <trkpt lat="44.0116" lon="6.31686">
        <ele>1101.8000488281</ele>
        <time>2021-09-03T07:40:04Z</time>
      </trkpt>
      <trkpt lat="44.01162" lon="6.31686">
        <ele>1102</ele>
        <time>2021-09-03T07:40:05Z</time>
      </trkpt>
      <trkpt lat="44.01173" lon="6.31693">
        <ele>1102.8000488281</ele>
        <time>2021-09-03T07:40:12Z</time>
      </trkpt>
      <trkpt lat="44.01175" lon="6.31695">
        <ele>1103</ele>
        <time>2021-09-03T07:40:13Z</time>
      </trkpt>
      <trkpt lat="44.01181" lon="6.31701">
        <ele>1103.4000244141</ele>
        <time>2021-09-03T07:40:17Z</time>
      </trkpt>
      <trkpt lat="44.01184" lon="6.31703">
        <ele>1103.8000488281</ele>
        <time>2021-09-03T07:40:19Z</time>
      </trkpt>
      <trkpt lat="44.01186" lon="6.31704">
        <ele>1104</ele>
        <time>2021-09-03T07:40:20Z</time>
      </trkpt>
      <trkpt lat="44.01193" lon="6.31712">
        <ele>1104.8000488281</ele>
        <time>2021-09-03T07:40:25Z</time>
      </trkpt>
      <trkpt lat="44.01195" lon="6.31713">
        <ele>1105.1999511719</ele>
        <time>2021-09-03T07:40:27Z</time>
      </trkpt>
      <trkpt lat="44.01199" lon="6.31719">
        <ele>1105.5999755859</ele>
        <time>2021-09-03T07:40:30Z</time>
      </trkpt>
      <trkpt lat="44.01204" lon="6.31728">
        <ele>1106.1999511719</ele>
        <time>2021-09-03T07:40:35Z</time>
      </trkpt>
      <trkpt lat="44.01206" lon="6.3173">
        <ele>1106.4000244141</ele>
        <time>2021-09-03T07:40:36Z</time>
      </trkpt>
      <trkpt lat="44.01216" lon="6.3174">
        <ele>1107.1999511719</ele>
        <time>2021-09-03T07:40:43Z</time>
      </trkpt>
      <trkpt lat="44.01216" lon="6.31742">
        <ele>1107.4000244141</ele>
        <time>2021-09-03T07:40:44Z</time>
      </trkpt>
      <trkpt lat="44.01218" lon="6.31751">
        <ele>1108</ele>
        <time>2021-09-03T07:40:48Z</time>
      </trkpt>
      <trkpt lat="44.01218" lon="6.31753">
        <ele>1108.1999511719</ele>
        <time>2021-09-03T07:40:49Z</time>
      </trkpt>
      <trkpt lat="44.01216" lon="6.31757">
        <ele>1108.5999755859</ele>
        <time>2021-09-03T07:40:51Z</time>
      </trkpt>
      <trkpt lat="44.01212" lon="6.31759">
        <ele>1109</ele>
        <time>2021-09-03T07:40:54Z</time>
      </trkpt>
      <trkpt lat="44.01209" lon="6.3176">
        <ele>1109.1999511719</ele>
        <time>2021-09-03T07:40:56Z</time>
      </trkpt>
      <trkpt lat="44.01208" lon="6.3176">
        <ele>1109.4000244141</ele>
        <time>2021-09-03T07:40:57Z</time>
      </trkpt>
      <trkpt lat="44.01202" lon="6.31757">
        <ele>1110</ele>
        <time>2021-09-03T07:41:01Z</time>
      </trkpt>
      <trkpt lat="44.01198" lon="6.31754">
        <ele>1110.4000244141</ele>
        <time>2021-09-03T07:41:03Z</time>
      </trkpt>
      <trkpt lat="44.01197" lon="6.31752">
        <ele>1110.5999755859</ele>
        <time>2021-09-03T07:41:04Z</time>
      </trkpt>
      <trkpt lat="44.01189" lon="6.31748">
        <ele>1111</ele>
        <time>2021-09-03T07:41:09Z</time>
      </trkpt>
      <trkpt lat="44.01185" lon="6.31744">
        <ele>1111.5999755859</ele>
        <time>2021-09-03T07:41:12Z</time>
      </trkpt>
      <trkpt lat="44.0118" lon="6.31741">
        <ele>1111.8000488281</ele>
        <time>2021-09-03T07:41:15Z</time>
      </trkpt>
      <trkpt lat="44.01168" lon="6.3174">
        <ele>1112.5999755859</ele>
        <time>2021-09-03T07:41:22Z</time>
      </trkpt>
      <trkpt lat="44.01161" lon="6.3174">
        <ele>1113.4000244141</ele>
        <time>2021-09-03T07:41:27Z</time>
      </trkpt>
      <trkpt lat="44.01157" lon="6.31741">
        <ele>1113.8000488281</ele>
        <time>2021-09-03T07:41:30Z</time>
      </trkpt>
      <trkpt lat="44.01155" lon="6.31742">
        <ele>1114.1999511719</ele>
        <time>2021-09-03T07:41:32Z</time>
      </trkpt>
      <trkpt lat="44.01149" lon="6.31744">
        <ele>1114.8000488281</ele>
        <time>2021-09-03T07:41:37Z</time>
      </trkpt>
      <trkpt lat="44.01146" lon="6.31746">
        <ele>1115</ele>
        <time>2021-09-03T07:41:39Z</time>
      </trkpt>
      <trkpt lat="44.0114" lon="6.31751">
        <ele>1115.8000488281</ele>
        <time>2021-09-03T07:41:44Z</time>
      </trkpt>
      <trkpt lat="44.0113" lon="6.31759">
        <ele>1117.1999511719</ele>
        <time>2021-09-03T07:41:54Z</time>
      </trkpt>
      <trkpt lat="44.01122" lon="6.31769">
        <ele>1118</ele>
        <time>2021-09-03T07:41:59Z</time>
      </trkpt>
      <trkpt lat="44.01118" lon="6.31771">
        <ele>1118.1999511719</ele>
        <time>2021-09-03T07:42:01Z</time>
      </trkpt>
      <trkpt lat="44.01109" lon="6.31781">
        <ele>1119.1999511719</ele>
        <time>2021-09-03T07:42:07Z</time>
      </trkpt>
      <trkpt lat="44.01101" lon="6.31793">
        <ele>1120.4000244141</ele>
        <time>2021-09-03T07:42:14Z</time>
      </trkpt>
      <trkpt lat="44.011" lon="6.31795">
        <ele>1120.5999755859</ele>
        <time>2021-09-03T07:42:15Z</time>
      </trkpt>
      <trkpt lat="44.01098" lon="6.31802">
        <ele>1121.1999511719</ele>
        <time>2021-09-03T07:42:18Z</time>
      </trkpt>
      <trkpt lat="44.01098" lon="6.31804">
        <ele>1121.4000244141</ele>
        <time>2021-09-03T07:42:19Z</time>
      </trkpt>
      <trkpt lat="44.01099" lon="6.31808">
        <ele>1122</ele>
        <time>2021-09-03T07:42:21Z</time>
      </trkpt>
      <trkpt lat="44.01101" lon="6.31812">
        <ele>1122.5999755859</ele>
        <time>2021-09-03T07:42:24Z</time>
      </trkpt>
      <trkpt lat="44.01104" lon="6.31812">
        <ele>1122.8000488281</ele>
        <time>2021-09-03T07:42:26Z</time>
      </trkpt>
      <trkpt lat="44.01109" lon="6.31811">
        <ele>1123.1999511719</ele>
        <time>2021-09-03T07:42:29Z</time>
      </trkpt>
      <trkpt lat="44.01115" lon="6.31808">
        <ele>1123.5999755859</ele>
        <time>2021-09-03T07:42:33Z</time>
      </trkpt>
      <trkpt lat="44.01116" lon="6.31806">
        <ele>1123.8000488281</ele>
        <time>2021-09-03T07:42:34Z</time>
      </trkpt>
      <trkpt lat="44.01125" lon="6.31797">
        <ele>1124.4000244141</ele>
        <time>2021-09-03T07:42:41Z</time>
      </trkpt>
      <trkpt lat="44.0113" lon="6.31798">
        <ele>1124.8000488281</ele>
        <time>2021-09-03T07:42:44Z</time>
      </trkpt>
      <trkpt lat="44.01134" lon="6.318">
        <ele>1125.4000244141</ele>
        <time>2021-09-03T07:42:47Z</time>
      </trkpt>
      <trkpt lat="44.0114" lon="6.31804">
        <ele>1126</ele>
        <time>2021-09-03T07:42:51Z</time>
      </trkpt>
      <trkpt lat="44.01143" lon="6.31808">
        <ele>1126.1999511719</ele>
        <time>2021-09-03T07:42:53Z</time>
      </trkpt>
      <trkpt lat="44.01146" lon="6.31812">
        <ele>1126.8000488281</ele>
        <time>2021-09-03T07:42:56Z</time>
      </trkpt>
      <trkpt lat="44.01147" lon="6.31814">
        <ele>1127</ele>
        <time>2021-09-03T07:42:57Z</time>
      </trkpt>
      <trkpt lat="44.01149" lon="6.3182">
        <ele>1127.4000244141</ele>
        <time>2021-09-03T07:43:00Z</time>
      </trkpt>
      <trkpt lat="44.0115" lon="6.3183">
        <ele>1128</ele>
        <time>2021-09-03T07:43:04Z</time>
      </trkpt>
      <trkpt lat="44.01152" lon="6.31838">
        <ele>1128.5999755859</ele>
        <time>2021-09-03T07:43:07Z</time>
      </trkpt>
      <trkpt lat="44.01155" lon="6.31844">
        <ele>1129.1999511719</ele>
        <time>2021-09-03T07:43:10Z</time>
      </trkpt>
      <trkpt lat="44.01158" lon="6.31853">
        <ele>1130</ele>
        <time>2021-09-03T07:43:15Z</time>
      </trkpt>
      <trkpt lat="44.01161" lon="6.31855">
        <ele>1130.1999511719</ele>
        <time>2021-09-03T07:43:17Z</time>
      </trkpt>
      <trkpt lat="44.01165" lon="6.31858">
        <ele>1130.5999755859</ele>
        <time>2021-09-03T07:43:20Z</time>
      </trkpt>
      <trkpt lat="44.01169" lon="6.31859">
        <ele>1130.8000488281</ele>
        <time>2021-09-03T07:43:22Z</time>
      </trkpt>
      <trkpt lat="44.01174" lon="6.3186">
        <ele>1131.4000244141</ele>
        <time>2021-09-03T07:43:25Z</time>
      </trkpt>
      <trkpt lat="44.01179" lon="6.3186">
        <ele>1131.8000488281</ele>
        <time>2021-09-03T07:43:28Z</time>
      </trkpt>
      <trkpt lat="44.01186" lon="6.31857">
        <ele>1132.5999755859</ele>
        <time>2021-09-03T07:43:32Z</time>
      </trkpt>
      <trkpt lat="44.0119" lon="6.31857">
        <ele>1133</ele>
        <time>2021-09-03T07:43:34Z</time>
      </trkpt>
      <trkpt lat="44.012" lon="6.3186">
        <ele>1133.8000488281</ele>
        <time>2021-09-03T07:43:40Z</time>
      </trkpt>
      <trkpt lat="44.01201" lon="6.31861">
        <ele>1134</ele>
        <time>2021-09-03T07:43:41Z</time>
      </trkpt>
      <trkpt lat="44.01203" lon="6.31872">
        <ele>1134.5999755859</ele>
        <time>2021-09-03T07:43:46Z</time>
      </trkpt>
      <trkpt lat="44.01202" lon="6.31874">
        <ele>1134.8000488281</ele>
        <time>2021-09-03T07:43:47Z</time>
      </trkpt>
      <trkpt lat="44.01201" lon="6.31876">
        <ele>1135</ele>
        <time>2021-09-03T07:43:48Z</time>
      </trkpt>
      <trkpt lat="44.01195" lon="6.31881">
        <ele>1135.8000488281</ele>
        <time>2021-09-03T07:43:53Z</time>
      </trkpt>
      <trkpt lat="44.01193" lon="6.31882">
        <ele>1136</ele>
        <time>2021-09-03T07:43:54Z</time>
      </trkpt>
      <trkpt lat="44.01183" lon="6.31887">
        <ele>1137</ele>
        <time>2021-09-03T07:44:01Z</time>
      </trkpt>
      <trkpt lat="44.0118" lon="6.31889">
        <ele>1137.1999511719</ele>
        <time>2021-09-03T07:44:03Z</time>
      </trkpt>
      <trkpt lat="44.01171" lon="6.31895">
        <ele>1137.5999755859</ele>
        <time>2021-09-03T07:44:09Z</time>
      </trkpt>
      <trkpt lat="44.01165" lon="6.31899">
        <ele>1138.1999511719</ele>
        <time>2021-09-03T07:44:13Z</time>
      </trkpt>
      <trkpt lat="44.01159" lon="6.31904">
        <ele>1139</ele>
        <time>2021-09-03T07:44:17Z</time>
      </trkpt>
      <trkpt lat="44.01158" lon="6.31906">
        <ele>1139.4000244141</ele>
        <time>2021-09-03T07:44:18Z</time>
      </trkpt>
      <trkpt lat="44.01154" lon="6.3191">
        <ele>1140.4000244141</ele>
        <time>2021-09-03T07:44:21Z</time>
      </trkpt>
      <trkpt lat="44.01146" lon="6.31915">
        <ele>1141.4000244141</ele>
        <time>2021-09-03T07:44:26Z</time>
      </trkpt>
      <trkpt lat="44.01145" lon="6.31917">
        <ele>1141.4000244141</ele>
        <time>2021-09-03T07:44:27Z</time>
      </trkpt>
      <trkpt lat="44.01134" lon="6.31921">
        <ele>1141.8000488281</ele>
        <time>2021-09-03T07:44:33Z</time>
      </trkpt>
      <trkpt lat="44.01123" lon="6.31919">
        <ele>1142.5999755859</ele>
        <time>2021-09-03T07:44:39Z</time>
      </trkpt>
      <trkpt lat="44.01118" lon="6.31917">
        <ele>1143</ele>
        <time>2021-09-03T07:44:42Z</time>
      </trkpt>
      <trkpt lat="44.01113" lon="6.31916">
        <ele>1143.8000488281</ele>
        <time>2021-09-03T07:44:45Z</time>
      </trkpt>
      <trkpt lat="44.01107" lon="6.31919">
        <ele>1144.1999511719</ele>
        <time>2021-09-03T07:44:49Z</time>
      </trkpt>
      <trkpt lat="44.01104" lon="6.31927">
        <ele>1145</ele>
        <time>2021-09-03T07:44:53Z</time>
      </trkpt>
      <trkpt lat="44.01104" lon="6.31932">
        <ele>1145.5999755859</ele>
        <time>2021-09-03T07:44:55Z</time>
      </trkpt>
      <trkpt lat="44.01106" lon="6.31936">
        <ele>1146</ele>
        <time>2021-09-03T07:44:57Z</time>
      </trkpt>
      <trkpt lat="44.01108" lon="6.31939">
        <ele>1146.5999755859</ele>
        <time>2021-09-03T07:45:00Z</time>
      </trkpt>
      <trkpt lat="44.01113" lon="6.31948">
        <ele>1147.1999511719</ele>
        <time>2021-09-03T07:45:06Z</time>
      </trkpt>
      <trkpt lat="44.01116" lon="6.31952">
        <ele>1148.1999511719</ele>
        <time>2021-09-03T07:45:09Z</time>
      </trkpt>
      <trkpt lat="44.01122" lon="6.31959">
        <ele>1148.5999755859</ele>
        <time>2021-09-03T07:45:13Z</time>
      </trkpt>
      <trkpt lat="44.01125" lon="6.3196">
        <ele>1148.8000488281</ele>
        <time>2021-09-03T07:45:14Z</time>
      </trkpt>
      <trkpt lat="44.0113" lon="6.31964">
        <ele>1149.1999511719</ele>
        <time>2021-09-03T07:45:16Z</time>
      </trkpt>
      <trkpt lat="44.01133" lon="6.31965">
        <ele>1149.4000244141</ele>
        <time>2021-09-03T07:45:18Z</time>
      </trkpt>
      <trkpt lat="44.01137" lon="6.31967">
        <ele>1149.5999755859</ele>
        <time>2021-09-03T07:45:20Z</time>
      </trkpt>
      <trkpt lat="44.01146" lon="6.31971">
        <ele>1150.1999511719</ele>
        <time>2021-09-03T07:45:25Z</time>
      </trkpt>
      <trkpt lat="44.01149" lon="6.31972">
        <ele>1150.5999755859</ele>
        <time>2021-09-03T07:45:27Z</time>
      </trkpt>
      <trkpt lat="44.01158" lon="6.31973">
        <ele>1151.1999511719</ele>
        <time>2021-09-03T07:45:32Z</time>
      </trkpt>
      <trkpt lat="44.01161" lon="6.31974">
        <ele>1151.8000488281</ele>
        <time>2021-09-03T07:45:34Z</time>
      </trkpt>
      <trkpt lat="44.01166" lon="6.31975">
        <ele>1152.4000244141</ele>
        <time>2021-09-03T07:45:37Z</time>
      </trkpt>
      <trkpt lat="44.01175" lon="6.31976">
        <ele>1153.1999511719</ele>
        <time>2021-09-03T07:45:42Z</time>
      </trkpt>
      <trkpt lat="44.01177" lon="6.31976">
        <ele>1153.5999755859</ele>
        <time>2021-09-03T07:45:44Z</time>
      </trkpt>
      <trkpt lat="44.01179" lon="6.31977">
        <ele>1153.8000488281</ele>
        <time>2021-09-03T07:45:45Z</time>
      </trkpt>
      <trkpt lat="44.0118" lon="6.31981">
        <ele>1154</ele>
        <time>2021-09-03T07:45:47Z</time>
      </trkpt>
      <trkpt lat="44.01181" lon="6.31988">
        <ele>1154.5999755859</ele>
        <time>2021-09-03T07:45:50Z</time>
      </trkpt>
      <trkpt lat="44.0118" lon="6.31991">
        <ele>1154.5999755859</ele>
        <time>2021-09-03T07:45:51Z</time>
      </trkpt>
      <trkpt lat="44.01178" lon="6.31994">
        <ele>1155</ele>
        <time>2021-09-03T07:45:53Z</time>
      </trkpt>
      <trkpt lat="44.01177" lon="6.31996">
        <ele>1155</ele>
        <time>2021-09-03T07:45:54Z</time>
      </trkpt>
      <trkpt lat="44.01173" lon="6.32001">
        <ele>1155.5999755859</ele>
        <time>2021-09-03T07:45:57Z</time>
      </trkpt>
      <trkpt lat="44.01169" lon="6.32004">
        <ele>1156.1999511719</ele>
        <time>2021-09-03T07:46:00Z</time>
      </trkpt>
      <trkpt lat="44.01161" lon="6.32008">
        <ele>1156.5999755859</ele>
        <time>2021-09-03T07:46:05Z</time>
      </trkpt>
      <trkpt lat="44.01155" lon="6.3201">
        <ele>1157.5999755859</ele>
        <time>2021-09-03T07:46:09Z</time>
      </trkpt>
      <trkpt lat="44.01153" lon="6.32011">
        <ele>1157.8000488281</ele>
        <time>2021-09-03T07:46:10Z</time>
      </trkpt>
      <trkpt lat="44.01149" lon="6.32012">
        <ele>1157.8000488281</ele>
        <time>2021-09-03T07:46:13Z</time>
      </trkpt>
      <trkpt lat="44.01146" lon="6.32013">
        <ele>1158</ele>
        <time>2021-09-03T07:46:15Z</time>
      </trkpt>
      <trkpt lat="44.01136" lon="6.32016">
        <ele>1158.8000488281</ele>
        <time>2021-09-03T07:46:21Z</time>
      </trkpt>
      <trkpt lat="44.01133" lon="6.32017">
        <ele>1159</ele>
        <time>2021-09-03T07:46:23Z</time>
      </trkpt>
      <trkpt lat="44.01125" lon="6.32018">
        <ele>1159.8000488281</ele>
        <time>2021-09-03T07:46:28Z</time>
      </trkpt>
      <trkpt lat="44.01119" lon="6.32018">
        <ele>1160.1999511719</ele>
        <time>2021-09-03T07:46:31Z</time>
      </trkpt>
      <trkpt lat="44.01109" lon="6.32018">
        <ele>1161</ele>
        <time>2021-09-03T07:46:36Z</time>
      </trkpt>
      <trkpt lat="44.01108" lon="6.32017">
        <ele>1161.1999511719</ele>
        <time>2021-09-03T07:46:37Z</time>
      </trkpt>
      <trkpt lat="44.01104" lon="6.32014">
        <ele>1161.5999755859</ele>
        <time>2021-09-03T07:46:39Z</time>
      </trkpt>
      <trkpt lat="44.01098" lon="6.32011">
        <ele>1162.1999511719</ele>
        <time>2021-09-03T07:46:43Z</time>
      </trkpt>
      <trkpt lat="44.01093" lon="6.3201">
        <ele>1162.8000488281</ele>
        <time>2021-09-03T07:46:46Z</time>
      </trkpt>
      <trkpt lat="44.01088" lon="6.32007">
        <ele>1163.1999511719</ele>
        <time>2021-09-03T07:46:49Z</time>
      </trkpt>
      <trkpt lat="44.01083" lon="6.32006">
        <ele>1163.5999755859</ele>
        <time>2021-09-03T07:46:52Z</time>
      </trkpt>
      <trkpt lat="44.01076" lon="6.32007">
        <ele>1164.4000244141</ele>
        <time>2021-09-03T07:46:56Z</time>
      </trkpt>
      <trkpt lat="44.01072" lon="6.32012">
        <ele>1164.8000488281</ele>
        <time>2021-09-03T07:46:59Z</time>
      </trkpt>
      <trkpt lat="44.01071" lon="6.32018">
        <ele>1165.4000244141</ele>
        <time>2021-09-03T07:47:02Z</time>
      </trkpt>
      <trkpt lat="44.01073" lon="6.32023">
        <ele>1165.8000488281</ele>
        <time>2021-09-03T07:47:04Z</time>
      </trkpt>
      <trkpt lat="44.0108" lon="6.32031">
        <ele>1166.5999755859</ele>
        <time>2021-09-03T07:47:09Z</time>
      </trkpt>
      <trkpt lat="44.01084" lon="6.32033">
        <ele>1166.8000488281</ele>
        <time>2021-09-03T07:47:11Z</time>
      </trkpt>
      <trkpt lat="44.01095" lon="6.32039">
        <ele>1167.5999755859</ele>
        <time>2021-09-03T07:47:18Z</time>
      </trkpt>
      <trkpt lat="44.01096" lon="6.3204">
        <ele>1167.5999755859</ele>
        <time>2021-09-03T07:47:19Z</time>
      </trkpt>
      <trkpt lat="44.01106" lon="6.32042">
        <ele>1168.1999511719</ele>
        <time>2021-09-03T07:47:24Z</time>
      </trkpt>
      <trkpt lat="44.01115" lon="6.32045">
        <ele>1168.8000488281</ele>
        <time>2021-09-03T07:47:29Z</time>
      </trkpt>
      <trkpt lat="44.0112" lon="6.32046">
        <ele>1169</ele>
        <time>2021-09-03T07:47:32Z</time>
      </trkpt>
      <trkpt lat="44.01131" lon="6.32044">
        <ele>1169.8000488281</ele>
        <time>2021-09-03T07:47:38Z</time>
      </trkpt>
      <trkpt lat="44.01134" lon="6.32046">
        <ele>1170</ele>
        <time>2021-09-03T07:47:40Z</time>
      </trkpt>
      <trkpt lat="44.01145" lon="6.32048">
        <ele>1171</ele>
        <time>2021-09-03T07:47:46Z</time>
      </trkpt>
      <trkpt lat="44.01147" lon="6.32048">
        <ele>1171</ele>
        <time>2021-09-03T07:47:47Z</time>
      </trkpt>
      <trkpt lat="44.0116" lon="6.32049">
        <ele>1172</ele>
        <time>2021-09-03T07:47:55Z</time>
      </trkpt>
      <trkpt lat="44.01172" lon="6.32047">
        <ele>1173</ele>
        <time>2021-09-03T07:48:02Z</time>
      </trkpt>
      <trkpt lat="44.01174" lon="6.32046">
        <ele>1173.1999511719</ele>
        <time>2021-09-03T07:48:03Z</time>
      </trkpt>
      <trkpt lat="44.01187" lon="6.32041">
        <ele>1174.1999511719</ele>
        <time>2021-09-03T07:48:11Z</time>
      </trkpt>
      <trkpt lat="44.01189" lon="6.3204">
        <ele>1174.1999511719</ele>
        <time>2021-09-03T07:48:12Z</time>
      </trkpt>
      <trkpt lat="44.01194" lon="6.32035">
        <ele>1174.5999755859</ele>
        <time>2021-09-03T07:48:16Z</time>
      </trkpt>
      <trkpt lat="44.01198" lon="6.32031">
        <ele>1174.8000488281</ele>
        <time>2021-09-03T07:48:19Z</time>
      </trkpt>
      <trkpt lat="44.01202" lon="6.32026">
        <ele>1175.1999511719</ele>
        <time>2021-09-03T07:48:22Z</time>
      </trkpt>
      <trkpt lat="44.01208" lon="6.32019">
        <ele>1175.5999755859</ele>
        <time>2021-09-03T07:48:26Z</time>
      </trkpt>
      <trkpt lat="44.01218" lon="6.32007">
        <ele>1176</ele>
        <time>2021-09-03T07:48:33Z</time>
      </trkpt>
      <trkpt lat="44.01221" lon="6.32007">
        <ele>1176.1999511719</ele>
        <time>2021-09-03T07:48:35Z</time>
      </trkpt>
      <trkpt lat="44.01225" lon="6.32011">
        <ele>1176.5999755859</ele>
        <time>2021-09-03T07:48:38Z</time>
      </trkpt>
      <trkpt lat="44.01224" lon="6.32021">
        <ele>1177.1999511719</ele>
        <time>2021-09-03T07:48:42Z</time>
      </trkpt>
      <trkpt lat="44.01222" lon="6.32026">
        <ele>1177.4000244141</ele>
        <time>2021-09-03T07:48:44Z</time>
      </trkpt>
      <trkpt lat="44.01217" lon="6.32033">
        <ele>1177.5999755859</ele>
        <time>2021-09-03T07:48:47Z</time>
      </trkpt>
      <trkpt lat="44.01215" lon="6.32035">
        <ele>1177.8000488281</ele>
        <time>2021-09-03T07:48:48Z</time>
      </trkpt>
      <trkpt lat="44.01204" lon="6.32046">
        <ele>1178.1999511719</ele>
        <time>2021-09-03T07:48:54Z</time>
      </trkpt>
      <trkpt lat="44.01203" lon="6.32048">
        <ele>1178.4000244141</ele>
        <time>2021-09-03T07:48:55Z</time>
      </trkpt>
      <trkpt lat="44.01195" lon="6.32057">
        <ele>1179</ele>
        <time>2021-09-03T07:49:00Z</time>
      </trkpt>
      <trkpt lat="44.01187" lon="6.32063">
        <ele>1179.4000244141</ele>
        <time>2021-09-03T07:49:04Z</time>
      </trkpt>
      <trkpt lat="44.0118" lon="6.32069">
        <ele>1180</ele>
        <time>2021-09-03T07:49:08Z</time>
      </trkpt>
      <trkpt lat="44.01177" lon="6.32071">
        <ele>1180.5999755859</ele>
        <time>2021-09-03T07:49:10Z</time>
      </trkpt>
      <trkpt lat="44.01169" lon="6.32077">
        <ele>1181.8000488281</ele>
        <time>2021-09-03T07:49:15Z</time>
      </trkpt>
      <trkpt lat="44.0116" lon="6.32083">
        <ele>1182.8000488281</ele>
        <time>2021-09-03T07:49:21Z</time>
      </trkpt>
      <trkpt lat="44.01146" lon="6.32087">
        <ele>1184</ele>
        <time>2021-09-03T07:49:27Z</time>
      </trkpt>
      <trkpt lat="44.01133" lon="6.32096">
        <ele>1185.1999511719</ele>
        <time>2021-09-03T07:49:33Z</time>
      </trkpt>
      <trkpt lat="44.01119" lon="6.32103">
        <ele>1186.4000244141</ele>
        <time>2021-09-03T07:49:39Z</time>
      </trkpt>
      <trkpt lat="44.01114" lon="6.32105">
        <ele>1186.8000488281</ele>
        <time>2021-09-03T07:49:41Z</time>
      </trkpt>
      <trkpt lat="44.01106" lon="6.32109">
        <ele>1187.4000244141</ele>
        <time>2021-09-03T07:49:45Z</time>
      </trkpt>
      <trkpt lat="44.01099" lon="6.3211">
        <ele>1188</ele>
        <time>2021-09-03T07:49:48Z</time>
      </trkpt>
      <trkpt lat="44.0109" lon="6.32113">
        <ele>1188.4000244141</ele>
        <time>2021-09-03T07:49:52Z</time>
      </trkpt>
      <trkpt lat="44.01082" lon="6.32114">
        <ele>1189.4000244141</ele>
        <time>2021-09-03T07:49:56Z</time>
      </trkpt>
      <trkpt lat="44.0108" lon="6.32115">
        <ele>1189.5999755859</ele>
        <time>2021-09-03T07:49:57Z</time>
      </trkpt>
      <trkpt lat="44.01067" lon="6.32114">
        <ele>1190.5999755859</ele>
        <time>2021-09-03T07:50:03Z</time>
      </trkpt>
      <trkpt lat="44.01065" lon="6.32114">
        <ele>1190.8000488281</ele>
        <time>2021-09-03T07:50:04Z</time>
      </trkpt>
      <trkpt lat="44.01051" lon="6.32116">
        <ele>1192</ele>
        <time>2021-09-03T07:50:11Z</time>
      </trkpt>
      <trkpt lat="44.0105" lon="6.32115">
        <ele>1192</ele>
        <time>2021-09-03T07:50:12Z</time>
      </trkpt>
      <trkpt lat="44.01046" lon="6.32115">
        <ele>1192.4000244141</ele>
        <time>2021-09-03T07:50:14Z</time>
      </trkpt>
      <trkpt lat="44.01039" lon="6.32112">
        <ele>1193</ele>
        <time>2021-09-03T07:50:18Z</time>
      </trkpt>
      <trkpt lat="44.01028" lon="6.32105">
        <ele>1194.1999511719</ele>
        <time>2021-09-03T07:50:24Z</time>
      </trkpt>
      <trkpt lat="44.01024" lon="6.32101">
        <ele>1194.8000488281</ele>
        <time>2021-09-03T07:50:27Z</time>
      </trkpt>
      <trkpt lat="44.01021" lon="6.32097">
        <ele>1195.1999511719</ele>
        <time>2021-09-03T07:50:30Z</time>
      </trkpt>
      <trkpt lat="44.01018" lon="6.32092">
        <ele>1195.8000488281</ele>
        <time>2021-09-03T07:50:33Z</time>
      </trkpt>
      <trkpt lat="44.01013" lon="6.32084">
        <ele>1196.4000244141</ele>
        <time>2021-09-03T07:50:37Z</time>
      </trkpt>
      <trkpt lat="44.01005" lon="6.32077">
        <ele>1197.1999511719</ele>
        <time>2021-09-03T07:50:42Z</time>
      </trkpt>
      <trkpt lat="44.01003" lon="6.32074">
        <ele>1197.4000244141</ele>
        <time>2021-09-03T07:50:44Z</time>
      </trkpt>
      <trkpt lat="44.00996" lon="6.32065">
        <ele>1198.4000244141</ele>
        <time>2021-09-03T07:50:49Z</time>
      </trkpt>
      <trkpt lat="44.00995" lon="6.32064">
        <ele>1198.5999755859</ele>
        <time>2021-09-03T07:50:50Z</time>
      </trkpt>
      <trkpt lat="44.00985" lon="6.32052">
        <ele>1199.4000244141</ele>
        <time>2021-09-03T07:50:57Z</time>
      </trkpt>
      <trkpt lat="44.00984" lon="6.32051">
        <ele>1199.5999755859</ele>
        <time>2021-09-03T07:50:58Z</time>
      </trkpt>
      <trkpt lat="44.00976" lon="6.32042">
        <ele>1200.4000244141</ele>
        <time>2021-09-03T07:51:04Z</time>
      </trkpt>
      <trkpt lat="44.00974" lon="6.32041">
        <ele>1200.5999755859</ele>
        <time>2021-09-03T07:51:05Z</time>
      </trkpt>
      <trkpt lat="44.00966" lon="6.32037">
        <ele>1201.1999511719</ele>
        <time>2021-09-03T07:51:10Z</time>
      </trkpt>
      <trkpt lat="44.00962" lon="6.32037">
        <ele>1201.5999755859</ele>
        <time>2021-09-03T07:51:12Z</time>
      </trkpt>
      <trkpt lat="44.00952" lon="6.32037">
        <ele>1202.4000244141</ele>
        <time>2021-09-03T07:51:17Z</time>
      </trkpt>
      <trkpt lat="44.0095" lon="6.32038">
        <ele>1202.5999755859</ele>
        <time>2021-09-03T07:51:18Z</time>
      </trkpt>
      <trkpt lat="44.00948" lon="6.32038">
        <ele>1202.5999755859</ele>
        <time>2021-09-03T07:51:19Z</time>
      </trkpt>
      <trkpt lat="44.00934" lon="6.32039">
        <ele>1203.5999755859</ele>
        <time>2021-09-03T07:51:26Z</time>
      </trkpt>
      <trkpt lat="44.00932" lon="6.3204">
        <ele>1203.8000488281</ele>
        <time>2021-09-03T07:51:27Z</time>
      </trkpt>
      <trkpt lat="44.00926" lon="6.3204">
        <ele>1204.1999511719</ele>
        <time>2021-09-03T07:51:30Z</time>
      </trkpt>
      <trkpt lat="44.00922" lon="6.32041">
        <ele>1204.4000244141</ele>
        <time>2021-09-03T07:51:32Z</time>
      </trkpt>
      <trkpt lat="44.0092" lon="6.32041">
        <ele>1204.8000488281</ele>
        <time>2021-09-03T07:51:33Z</time>
      </trkpt>
      <trkpt lat="44.00905" lon="6.32045">
        <ele>1205.8000488281</ele>
        <time>2021-09-03T07:51:40Z</time>
      </trkpt>
      <trkpt lat="44.00901" lon="6.32045">
        <ele>1206.1999511719</ele>
        <time>2021-09-03T07:51:42Z</time>
      </trkpt>
      <trkpt lat="44.0089" lon="6.32048">
        <ele>1207</ele>
        <time>2021-09-03T07:51:47Z</time>
      </trkpt>
      <trkpt lat="44.00886" lon="6.32049">
        <ele>1207.4000244141</ele>
        <time>2021-09-03T07:51:49Z</time>
      </trkpt>
      <trkpt lat="44.0087" lon="6.32048">
        <ele>1207.8000488281</ele>
        <time>2021-09-03T07:51:56Z</time>
      </trkpt>
      <trkpt lat="44.00862" lon="6.32043">
        <ele>1208.1999511719</ele>
        <time>2021-09-03T07:52:00Z</time>
      </trkpt>
      <trkpt lat="44.00857" lon="6.32042">
        <ele>1208.1999511719</ele>
        <time>2021-09-03T07:52:02Z</time>
      </trkpt>
      <trkpt lat="44.00843" lon="6.32041">
        <ele>1209.1999511719</ele>
        <time>2021-09-03T07:52:08Z</time>
      </trkpt>
      <trkpt lat="44.00842" lon="6.3204">
        <ele>1209.4000244141</ele>
        <time>2021-09-03T07:52:09Z</time>
      </trkpt>
      <trkpt lat="44.00833" lon="6.32034">
        <ele>1208.1999511719</ele>
        <time>2021-09-03T07:57:11Z</time>
      </trkpt>
      <trkpt lat="44.00827" lon="6.32033">
        <ele>1208.1999511719</ele>
        <time>2021-09-03T07:57:14Z</time>
      </trkpt>
      <trkpt lat="44.00814" lon="6.32029">
        <ele>1208.4000244141</ele>
        <time>2021-09-03T07:57:20Z</time>
      </trkpt>
      <trkpt lat="44.00794" lon="6.32024">
        <ele>1208.5999755859</ele>
        <time>2021-09-03T07:57:27Z</time>
      </trkpt>
      <trkpt lat="44.00779" lon="6.32029">
        <ele>1208.8000488281</ele>
        <time>2021-09-03T07:57:32Z</time>
      </trkpt>
      <trkpt lat="44.00774" lon="6.32043">
        <ele>1208.8000488281</ele>
        <time>2021-09-03T07:57:35Z</time>
      </trkpt>
      <trkpt lat="44.0077" lon="6.32072">
        <ele>1207.8000488281</ele>
        <time>2021-09-03T07:57:39Z</time>
      </trkpt>
      <trkpt lat="44.00767" lon="6.3208">
        <ele>1207.4000244141</ele>
        <time>2021-09-03T07:57:40Z</time>
      </trkpt>
      <trkpt lat="44.00763" lon="6.32087">
        <ele>1206.8000488281</ele>
        <time>2021-09-03T07:57:41Z</time>
      </trkpt>
      <trkpt lat="44.00751" lon="6.32098">
        <ele>1206</ele>
        <time>2021-09-03T07:57:43Z</time>
      </trkpt>
      <trkpt lat="44.00744" lon="6.32103">
        <ele>1205.5999755859</ele>
        <time>2021-09-03T07:57:44Z</time>
      </trkpt>
      <trkpt lat="44.0072" lon="6.32113">
        <ele>1204.5999755859</ele>
        <time>2021-09-03T07:57:47Z</time>
      </trkpt>
      <trkpt lat="44.00712" lon="6.32118">
        <ele>1204.1999511719</ele>
        <time>2021-09-03T07:57:48Z</time>
      </trkpt>
      <trkpt lat="44.00693" lon="6.32126">
        <ele>1203</ele>
        <time>2021-09-03T07:57:50Z</time>
      </trkpt>
      <trkpt lat="44.00684" lon="6.32131">
        <ele>1202.1999511719</ele>
        <time>2021-09-03T07:57:51Z</time>
      </trkpt>
      <trkpt lat="44.00674" lon="6.32135">
        <ele>1201.5999755859</ele>
        <time>2021-09-03T07:57:52Z</time>
      </trkpt>
      <trkpt lat="44.00655" lon="6.32141">
        <ele>1200</ele>
        <time>2021-09-03T07:57:54Z</time>
      </trkpt>
      <trkpt lat="44.00645" lon="6.32146">
        <ele>1199.4000244141</ele>
        <time>2021-09-03T07:57:55Z</time>
      </trkpt>
      <trkpt lat="44.00635" lon="6.32152">
        <ele>1198.5999755859</ele>
        <time>2021-09-03T07:57:56Z</time>
      </trkpt>
      <trkpt lat="44.00626" lon="6.32159">
        <ele>1198</ele>
        <time>2021-09-03T07:57:57Z</time>
      </trkpt>
      <trkpt lat="44.00617" lon="6.32167">
        <ele>1197.4000244141</ele>
        <time>2021-09-03T07:57:58Z</time>
      </trkpt>
      <trkpt lat="44.00609" lon="6.32177">
        <ele>1195.8000488281</ele>
        <time>2021-09-03T07:57:59Z</time>
      </trkpt>
      <trkpt lat="44.00594" lon="6.32201">
        <ele>1194.4000244141</ele>
        <time>2021-09-03T07:58:01Z</time>
      </trkpt>
      <trkpt lat="44.00577" lon="6.32221">
        <ele>1192.8000488281</ele>
        <time>2021-09-03T07:58:03Z</time>
      </trkpt>
      <trkpt lat="44.00555" lon="6.32233">
        <ele>1191</ele>
        <time>2021-09-03T07:58:05Z</time>
      </trkpt>
      <trkpt lat="44.00544" lon="6.32239">
        <ele>1190</ele>
        <time>2021-09-03T07:58:06Z</time>
      </trkpt>
      <trkpt lat="44.00534" lon="6.32247">
        <ele>1189.1999511719</ele>
        <time>2021-09-03T07:58:07Z</time>
      </trkpt>
      <trkpt lat="44.00518" lon="6.32267">
        <ele>1187.1999511719</ele>
        <time>2021-09-03T07:58:09Z</time>
      </trkpt>
      <trkpt lat="44.00504" lon="6.32289">
        <ele>1185.4000244141</ele>
        <time>2021-09-03T07:58:11Z</time>
      </trkpt>
      <trkpt lat="44.00497" lon="6.32316">
        <ele>1183.4000244141</ele>
        <time>2021-09-03T07:58:13Z</time>
      </trkpt>
      <trkpt lat="44.00491" lon="6.32335">
        <ele>1181.5999755859</ele>
        <time>2021-09-03T07:58:15Z</time>
      </trkpt>
      <trkpt lat="44.00486" lon="6.32339">
        <ele>1180.5999755859</ele>
        <time>2021-09-03T07:58:16Z</time>
      </trkpt>
      <trkpt lat="44.00481" lon="6.32337">
        <ele>1179.5999755859</ele>
        <time>2021-09-03T07:58:17Z</time>
      </trkpt>
      <trkpt lat="44.00478" lon="6.3233">
        <ele>1178.5999755859</ele>
        <time>2021-09-03T07:58:18Z</time>
      </trkpt>
      <trkpt lat="44.00476" lon="6.3232">
        <ele>1177.4000244141</ele>
        <time>2021-09-03T07:58:19Z</time>
      </trkpt>
      <trkpt lat="44.00476" lon="6.3231">
        <ele>1176.5999755859</ele>
        <time>2021-09-03T07:58:20Z</time>
      </trkpt>
      <trkpt lat="44.00478" lon="6.323">
        <ele>1175.8000488281</ele>
        <time>2021-09-03T07:58:21Z</time>
      </trkpt>
      <trkpt lat="44.0048" lon="6.32289">
        <ele>1175</ele>
        <time>2021-09-03T07:58:22Z</time>
      </trkpt>
      <trkpt lat="44.00483" lon="6.32278">
        <ele>1173.8000488281</ele>
        <time>2021-09-03T07:58:23Z</time>
      </trkpt>
      <trkpt lat="44.00485" lon="6.32267">
        <ele>1173.4000244141</ele>
        <time>2021-09-03T07:58:24Z</time>
      </trkpt>
      <trkpt lat="44.00489" lon="6.32243">
        <ele>1172.4000244141</ele>
        <time>2021-09-03T07:58:26Z</time>
      </trkpt>
      <trkpt lat="44.00494" lon="6.32217">
        <ele>1171.4000244141</ele>
        <time>2021-09-03T07:58:28Z</time>
      </trkpt>
      <trkpt lat="44.00497" lon="6.32204">
        <ele>1170.8000488281</ele>
        <time>2021-09-03T07:58:29Z</time>
      </trkpt>
      <trkpt lat="44.00498" lon="6.32189">
        <ele>1170</ele>
        <time>2021-09-03T07:58:30Z</time>
      </trkpt>
      <trkpt lat="44.00497" lon="6.3216">
        <ele>1168.8000488281</ele>
        <time>2021-09-03T07:58:32Z</time>
      </trkpt>
      <trkpt lat="44.00495" lon="6.32133">
        <ele>1167.4000244141</ele>
        <time>2021-09-03T07:58:34Z</time>
      </trkpt>
      <trkpt lat="44.00495" lon="6.3212">
        <ele>1166.8000488281</ele>
        <time>2021-09-03T07:58:35Z</time>
      </trkpt>
      <trkpt lat="44.00498" lon="6.32107">
        <ele>1165.8000488281</ele>
        <time>2021-09-03T07:58:36Z</time>
      </trkpt>
      <trkpt lat="44.00508" lon="6.32083">
        <ele>1164</ele>
        <time>2021-09-03T07:58:38Z</time>
      </trkpt>
      <trkpt lat="44.00511" lon="6.32068">
        <ele>1163</ele>
        <time>2021-09-03T07:58:39Z</time>
      </trkpt>
      <trkpt lat="44.00512" lon="6.32053">
        <ele>1162.1999511719</ele>
        <time>2021-09-03T07:58:40Z</time>
      </trkpt>
      <trkpt lat="44.00513" lon="6.32037">
        <ele>1161.4000244141</ele>
        <time>2021-09-03T07:58:41Z</time>
      </trkpt>
      <trkpt lat="44.00513" lon="6.32021">
        <ele>1160.8000488281</ele>
        <time>2021-09-03T07:58:42Z</time>
      </trkpt>
      <trkpt lat="44.00514" lon="6.32005">
        <ele>1160</ele>
        <time>2021-09-03T07:58:43Z</time>
      </trkpt>
      <trkpt lat="44.00517" lon="6.31989">
        <ele>1159.1999511719</ele>
        <time>2021-09-03T07:58:44Z</time>
      </trkpt>
      <trkpt lat="44.0052" lon="6.31973">
        <ele>1158.1999511719</ele>
        <time>2021-09-03T07:58:45Z</time>
      </trkpt>
      <trkpt lat="44.00523" lon="6.31956">
        <ele>1157.1999511719</ele>
        <time>2021-09-03T07:58:46Z</time>
      </trkpt>
      <trkpt lat="44.00525" lon="6.3194">
        <ele>1155.4000244141</ele>
        <time>2021-09-03T07:58:47Z</time>
      </trkpt>
      <trkpt lat="44.00526" lon="6.31905">
        <ele>1153.8000488281</ele>
        <time>2021-09-03T07:58:49Z</time>
      </trkpt>
      <trkpt lat="44.00527" lon="6.31871">
        <ele>1151.8000488281</ele>
        <time>2021-09-03T07:58:51Z</time>
      </trkpt>
      <trkpt lat="44.00525" lon="6.31837">
        <ele>1149.8000488281</ele>
        <time>2021-09-03T07:58:53Z</time>
      </trkpt>
      <trkpt lat="44.00526" lon="6.31821">
        <ele>1149</ele>
        <time>2021-09-03T07:58:54Z</time>
      </trkpt>
      <trkpt lat="44.00526" lon="6.31806">
        <ele>1148</ele>
        <time>2021-09-03T07:58:55Z</time>
      </trkpt>
      <trkpt lat="44.00526" lon="6.31781">
        <ele>1146</ele>
        <time>2021-09-03T07:58:57Z</time>
      </trkpt>
      <trkpt lat="44.00524" lon="6.31773">
        <ele>1145</ele>
        <time>2021-09-03T07:58:58Z</time>
      </trkpt>
      <trkpt lat="44.0052" lon="6.31767">
        <ele>1144</ele>
        <time>2021-09-03T07:58:59Z</time>
      </trkpt>
      <trkpt lat="44.00512" lon="6.31759">
        <ele>1142</ele>
        <time>2021-09-03T07:59:01Z</time>
      </trkpt>
      <trkpt lat="44.00507" lon="6.31761">
        <ele>1140.1999511719</ele>
        <time>2021-09-03T07:59:03Z</time>
      </trkpt>
      <trkpt lat="44.00506" lon="6.31765">
        <ele>1139.5999755859</ele>
        <time>2021-09-03T07:59:04Z</time>
      </trkpt>
      <trkpt lat="44.00505" lon="6.31775">
        <ele>1139</ele>
        <time>2021-09-03T07:59:05Z</time>
      </trkpt>
      <trkpt lat="44.00503" lon="6.31785">
        <ele>1138.4000244141</ele>
        <time>2021-09-03T07:59:06Z</time>
      </trkpt>
      <trkpt lat="44.00501" lon="6.31795">
        <ele>1138</ele>
        <time>2021-09-03T07:59:07Z</time>
      </trkpt>
      <trkpt lat="44.00496" lon="6.31808">
        <ele>1137.4000244141</ele>
        <time>2021-09-03T07:59:08Z</time>
      </trkpt>
      <trkpt lat="44.0049" lon="6.31819">
        <ele>1137</ele>
        <time>2021-09-03T07:59:09Z</time>
      </trkpt>
      <trkpt lat="44.00482" lon="6.31828">
        <ele>1136.5999755859</ele>
        <time>2021-09-03T07:59:10Z</time>
      </trkpt>
      <trkpt lat="44.00473" lon="6.31835">
        <ele>1135.1999511719</ele>
        <time>2021-09-03T07:59:11Z</time>
      </trkpt>
      <trkpt lat="44.00464" lon="6.31841">
        <ele>1134.4000244141</ele>
        <time>2021-09-03T07:59:12Z</time>
      </trkpt>
      <trkpt lat="44.00455" lon="6.31846">
        <ele>1133.5999755859</ele>
        <time>2021-09-03T07:59:13Z</time>
      </trkpt>
      <trkpt lat="44.00437" lon="6.31855">
        <ele>1132.5999755859</ele>
        <time>2021-09-03T07:59:15Z</time>
      </trkpt>
      <trkpt lat="44.00419" lon="6.31868">
        <ele>1131.4000244141</ele>
        <time>2021-09-03T07:59:17Z</time>
      </trkpt>
      <trkpt lat="44.00411" lon="6.31875">
        <ele>1130.8000488281</ele>
        <time>2021-09-03T07:59:18Z</time>
      </trkpt>
      <trkpt lat="44.00402" lon="6.31883">
        <ele>1130</ele>
        <time>2021-09-03T07:59:19Z</time>
      </trkpt>
      <trkpt lat="44.00385" lon="6.31901">
        <ele>1128.5999755859</ele>
        <time>2021-09-03T07:59:21Z</time>
      </trkpt>
      <trkpt lat="44.00367" lon="6.31919">
        <ele>1127</ele>
        <time>2021-09-03T07:59:23Z</time>
      </trkpt>
      <trkpt lat="44.00348" lon="6.31939">
        <ele>1125.4000244141</ele>
        <time>2021-09-03T07:59:25Z</time>
      </trkpt>
      <trkpt lat="44.00329" lon="6.31958">
        <ele>1123.4000244141</ele>
        <time>2021-09-03T07:59:27Z</time>
      </trkpt>
      <trkpt lat="44.00309" lon="6.31977">
        <ele>1121.5999755859</ele>
        <time>2021-09-03T07:59:29Z</time>
      </trkpt>
      <trkpt lat="44.0029" lon="6.31996">
        <ele>1120</ele>
        <time>2021-09-03T07:59:31Z</time>
      </trkpt>
      <trkpt lat="44.00271" lon="6.32014">
        <ele>1118.5999755859</ele>
        <time>2021-09-03T07:59:33Z</time>
      </trkpt>
      <trkpt lat="44.00252" lon="6.32031">
        <ele>1116.1999511719</ele>
        <time>2021-09-03T07:59:35Z</time>
      </trkpt>
      <trkpt lat="44.00243" lon="6.3204">
        <ele>1115.1999511719</ele>
        <time>2021-09-03T07:59:36Z</time>
      </trkpt>
      <trkpt lat="44.00234" lon="6.3205">
        <ele>1114.4000244141</ele>
        <time>2021-09-03T07:59:37Z</time>
      </trkpt>
      <trkpt lat="44.00216" lon="6.32067">
        <ele>1112.8000488281</ele>
        <time>2021-09-03T07:59:39Z</time>
      </trkpt>
      <trkpt lat="44.00198" lon="6.32083">
        <ele>1111.4000244141</ele>
        <time>2021-09-03T07:59:41Z</time>
      </trkpt>
      <trkpt lat="44.00182" lon="6.32104">
        <ele>1109.8000488281</ele>
        <time>2021-09-03T07:59:43Z</time>
      </trkpt>
      <trkpt lat="44.00175" lon="6.32118">
        <ele>1109.1999511719</ele>
        <time>2021-09-03T07:59:44Z</time>
      </trkpt>
      <trkpt lat="44.0017" lon="6.32132">
        <ele>1108.5999755859</ele>
        <time>2021-09-03T07:59:45Z</time>
      </trkpt>
      <trkpt lat="44.00163" lon="6.32162">
        <ele>1107</ele>
        <time>2021-09-03T07:59:47Z</time>
      </trkpt>
      <trkpt lat="44.0016" lon="6.32177">
        <ele>1106.1999511719</ele>
        <time>2021-09-03T07:59:48Z</time>
      </trkpt>
      <trkpt lat="44.00157" lon="6.32192">
        <ele>1105.1999511719</ele>
        <time>2021-09-03T07:59:49Z</time>
      </trkpt>
      <trkpt lat="44.00151" lon="6.32223">
        <ele>1103.4000244141</ele>
        <time>2021-09-03T07:59:51Z</time>
      </trkpt>
      <trkpt lat="44.00146" lon="6.32255">
        <ele>1101.8000488281</ele>
        <time>2021-09-03T07:59:53Z</time>
      </trkpt>
      <trkpt lat="44.00143" lon="6.3227">
        <ele>1101</ele>
        <time>2021-09-03T07:59:54Z</time>
      </trkpt>
      <trkpt lat="44.0014" lon="6.32286">
        <ele>1100.1999511719</ele>
        <time>2021-09-03T07:59:55Z</time>
      </trkpt>
      <trkpt lat="44.00138" lon="6.32318">
        <ele>1098.8000488281</ele>
        <time>2021-09-03T07:59:57Z</time>
      </trkpt>
      <trkpt lat="44.00138" lon="6.32334">
        <ele>1098.1999511719</ele>
        <time>2021-09-03T07:59:58Z</time>
      </trkpt>
      <trkpt lat="44.0014" lon="6.3235">
        <ele>1096.8000488281</ele>
        <time>2021-09-03T07:59:59Z</time>
      </trkpt>
      <trkpt lat="44.00142" lon="6.3238">
        <ele>1095.1999511719</ele>
        <time>2021-09-03T08:00:01Z</time>
      </trkpt>
      <trkpt lat="44.00143" lon="6.32397">
        <ele>1094.4000244141</ele>
        <time>2021-09-03T08:00:02Z</time>
      </trkpt>
      <trkpt lat="44.00142" lon="6.32413">
        <ele>1093.4000244141</ele>
        <time>2021-09-03T08:00:03Z</time>
      </trkpt>
      <trkpt lat="44.00138" lon="6.32445">
        <ele>1091.5999755859</ele>
        <time>2021-09-03T08:00:05Z</time>
      </trkpt>
      <trkpt lat="44.00133" lon="6.32477">
        <ele>1089.8000488281</ele>
        <time>2021-09-03T08:00:07Z</time>
      </trkpt>
      <trkpt lat="44.00128" lon="6.3251">
        <ele>1088.1999511719</ele>
        <time>2021-09-03T08:00:09Z</time>
      </trkpt>
      <trkpt lat="44.0012" lon="6.32542">
        <ele>1086.5999755859</ele>
        <time>2021-09-03T08:00:11Z</time>
      </trkpt>
      <trkpt lat="44.00107" lon="6.32571">
        <ele>1084.8000488281</ele>
        <time>2021-09-03T08:00:13Z</time>
      </trkpt>
      <trkpt lat="44.00099" lon="6.32583">
        <ele>1083.8000488281</ele>
        <time>2021-09-03T08:00:14Z</time>
      </trkpt>
      <trkpt lat="44.0009" lon="6.32595">
        <ele>1083</ele>
        <time>2021-09-03T08:00:15Z</time>
      </trkpt>
      <trkpt lat="44.00071" lon="6.3262">
        <ele>1081.1999511719</ele>
        <time>2021-09-03T08:00:17Z</time>
      </trkpt>
      <trkpt lat="44.00061" lon="6.32629">
        <ele>1080.4000244141</ele>
        <time>2021-09-03T08:00:18Z</time>
      </trkpt>
      <trkpt lat="44.00051" lon="6.32639">
        <ele>1079.5999755859</ele>
        <time>2021-09-03T08:00:19Z</time>
      </trkpt>
      <trkpt lat="44.00028" lon="6.32655">
        <ele>1078.1999511719</ele>
        <time>2021-09-03T08:00:21Z</time>
      </trkpt>
      <trkpt lat="44.00015" lon="6.32661">
        <ele>1077.4000244141</ele>
        <time>2021-09-03T08:00:22Z</time>
      </trkpt>
      <trkpt lat="44.00003" lon="6.32667">
        <ele>1075.5999755859</ele>
        <time>2021-09-03T08:00:23Z</time>
      </trkpt>
      <trkpt lat="43.99979" lon="6.32678">
        <ele>1073.5999755859</ele>
        <time>2021-09-03T08:00:25Z</time>
      </trkpt>
      <trkpt lat="43.99967" lon="6.32684">
        <ele>1072.5999755859</ele>
        <time>2021-09-03T08:00:26Z</time>
      </trkpt>
      <trkpt lat="43.99956" lon="6.32689">
        <ele>1071.5999755859</ele>
        <time>2021-09-03T08:00:27Z</time>
      </trkpt>
      <trkpt lat="43.99945" lon="6.32694">
        <ele>1070.5999755859</ele>
        <time>2021-09-03T08:00:28Z</time>
      </trkpt>
      <trkpt lat="43.99934" lon="6.327">
        <ele>1069.5999755859</ele>
        <time>2021-09-03T08:00:29Z</time>
      </trkpt>
      <trkpt lat="43.99923" lon="6.32704">
        <ele>1068.5999755859</ele>
        <time>2021-09-03T08:00:30Z</time>
      </trkpt>
      <trkpt lat="43.99913" lon="6.32709">
        <ele>1067.4000244141</ele>
        <time>2021-09-03T08:00:31Z</time>
      </trkpt>
      <trkpt lat="43.99904" lon="6.32714">
        <ele>1066.4000244141</ele>
        <time>2021-09-03T08:00:32Z</time>
      </trkpt>
      <trkpt lat="43.99889" lon="6.32731">
        <ele>1064.8000488281</ele>
        <time>2021-09-03T08:00:34Z</time>
      </trkpt>
      <trkpt lat="43.99884" lon="6.32741">
        <ele>1064</ele>
        <time>2021-09-03T08:00:35Z</time>
      </trkpt>
      <trkpt lat="43.99878" lon="6.32752">
        <ele>1063</ele>
        <time>2021-09-03T08:00:36Z</time>
      </trkpt>
      <trkpt lat="43.99865" lon="6.32774">
        <ele>1061.1999511719</ele>
        <time>2021-09-03T08:00:38Z</time>
      </trkpt>
      <trkpt lat="43.99852" lon="6.32795">
        <ele>1059.1999511719</ele>
        <time>2021-09-03T08:00:40Z</time>
      </trkpt>
      <trkpt lat="43.99839" lon="6.32817">
        <ele>1057.5999755859</ele>
        <time>2021-09-03T08:00:42Z</time>
      </trkpt>
      <trkpt lat="43.99825" lon="6.3284">
        <ele>1055.8000488281</ele>
        <time>2021-09-03T08:00:44Z</time>
      </trkpt>
      <trkpt lat="43.99819" lon="6.32853">
        <ele>1055</ele>
        <time>2021-09-03T08:00:45Z</time>
      </trkpt>
      <trkpt lat="43.99814" lon="6.32866">
        <ele>1054.1999511719</ele>
        <time>2021-09-03T08:00:46Z</time>
      </trkpt>
      <trkpt lat="43.99809" lon="6.3288">
        <ele>1052.8000488281</ele>
        <time>2021-09-03T08:00:47Z</time>
      </trkpt>
      <trkpt lat="43.99797" lon="6.32906">
        <ele>1051</ele>
        <time>2021-09-03T08:00:49Z</time>
      </trkpt>
      <trkpt lat="43.99789" lon="6.32918">
        <ele>1050</ele>
        <time>2021-09-03T08:00:50Z</time>
      </trkpt>
      <trkpt lat="43.99781" lon="6.32928">
        <ele>1049</ele>
        <time>2021-09-03T08:00:51Z</time>
      </trkpt>
      <trkpt lat="43.99761" lon="6.32942">
        <ele>1047.1999511719</ele>
        <time>2021-09-03T08:00:53Z</time>
      </trkpt>
      <trkpt lat="43.9974" lon="6.32951">
        <ele>1045.5999755859</ele>
        <time>2021-09-03T08:00:55Z</time>
      </trkpt>
      <trkpt lat="43.99719" lon="6.3296">
        <ele>1043.5999755859</ele>
        <time>2021-09-03T08:00:57Z</time>
      </trkpt>
      <trkpt lat="43.99708" lon="6.32965">
        <ele>1042.5999755859</ele>
        <time>2021-09-03T08:00:58Z</time>
      </trkpt>
      <trkpt lat="43.99698" lon="6.3297">
        <ele>1041.5999755859</ele>
        <time>2021-09-03T08:00:59Z</time>
      </trkpt>
      <trkpt lat="43.99677" lon="6.32979">
        <ele>1040</ele>
        <time>2021-09-03T08:01:01Z</time>
      </trkpt>
      <trkpt lat="43.99655" lon="6.32988">
        <ele>1038.1999511719</ele>
        <time>2021-09-03T08:01:03Z</time>
      </trkpt>
      <trkpt lat="43.99644" lon="6.32993">
        <ele>1037.1999511719</ele>
        <time>2021-09-03T08:01:04Z</time>
      </trkpt>
      <trkpt lat="43.99633" lon="6.32999">
        <ele>1036.1999511719</ele>
        <time>2021-09-03T08:01:05Z</time>
      </trkpt>
      <trkpt lat="43.99623" lon="6.33007">
        <ele>1035</ele>
        <time>2021-09-03T08:01:06Z</time>
      </trkpt>
      <trkpt lat="43.99613" lon="6.33015">
        <ele>1034</ele>
        <time>2021-09-03T08:01:07Z</time>
      </trkpt>
      <trkpt lat="43.99591" lon="6.33029">
        <ele>1032.1999511719</ele>
        <time>2021-09-03T08:01:09Z</time>
      </trkpt>
      <trkpt lat="43.99572" lon="6.33043">
        <ele>1029.5999755859</ele>
        <time>2021-09-03T08:01:11Z</time>
      </trkpt>
      <trkpt lat="43.99566" lon="6.33052">
        <ele>1028.5999755859</ele>
        <time>2021-09-03T08:01:12Z</time>
      </trkpt>
      <trkpt lat="43.9956" lon="6.33063">
        <ele>1027.5999755859</ele>
        <time>2021-09-03T08:01:13Z</time>
      </trkpt>
      <trkpt lat="43.99554" lon="6.33089">
        <ele>1025.5999755859</ele>
        <time>2021-09-03T08:01:15Z</time>
      </trkpt>
      <trkpt lat="43.99553" lon="6.33104">
        <ele>1024.5999755859</ele>
        <time>2021-09-03T08:01:16Z</time>
      </trkpt>
      <trkpt lat="43.99552" lon="6.33118">
        <ele>1023.5999755859</ele>
        <time>2021-09-03T08:01:17Z</time>
      </trkpt>
      <trkpt lat="43.99551" lon="6.33131">
        <ele>1022.5999755859</ele>
        <time>2021-09-03T08:01:18Z</time>
      </trkpt>
      <trkpt lat="43.9955" lon="6.33142">
        <ele>1021.799987793</ele>
        <time>2021-09-03T08:01:19Z</time>
      </trkpt>
      <trkpt lat="43.9955" lon="6.33152">
        <ele>1020.799987793</ele>
        <time>2021-09-03T08:01:20Z</time>
      </trkpt>
      <trkpt lat="43.9955" lon="6.33161">
        <ele>1019.799987793</ele>
        <time>2021-09-03T08:01:21Z</time>
      </trkpt>
      <trkpt lat="43.99549" lon="6.3317">
        <ele>1018.5999755859</ele>
        <time>2021-09-03T08:01:22Z</time>
      </trkpt>
      <trkpt lat="43.99547" lon="6.33179">
        <ele>1017.5999755859</ele>
        <time>2021-09-03T08:01:23Z</time>
      </trkpt>
      <trkpt lat="43.99546" lon="6.33187">
        <ele>1016.4000244141</ele>
        <time>2021-09-03T08:01:24Z</time>
      </trkpt>
      <trkpt lat="43.99542" lon="6.33202">
        <ele>1014.799987793</ele>
        <time>2021-09-03T08:01:26Z</time>
      </trkpt>
      <trkpt lat="43.99538" lon="6.33217">
        <ele>1013.5999755859</ele>
        <time>2021-09-03T08:01:28Z</time>
      </trkpt>
      <trkpt lat="43.99537" lon="6.33225">
        <ele>1013</ele>
        <time>2021-09-03T08:01:29Z</time>
      </trkpt>
      <trkpt lat="43.99534" lon="6.33238">
        <ele>1012.4000244141</ele>
        <time>2021-09-03T08:01:31Z</time>
      </trkpt>
      <trkpt lat="43.99533" lon="6.33251">
        <ele>1012.200012207</ele>
        <time>2021-09-03T08:01:33Z</time>
      </trkpt>
      <trkpt lat="43.99532" lon="6.33267">
        <ele>1012.200012207</ele>
        <time>2021-09-03T08:01:35Z</time>
      </trkpt>
      <trkpt lat="43.99529" lon="6.33292">
        <ele>1012</ele>
        <time>2021-09-03T08:01:38Z</time>
      </trkpt>
      <trkpt lat="43.99521" lon="6.33308">
        <ele>1011.5999755859</ele>
        <time>2021-09-03T08:01:40Z</time>
      </trkpt>
      <trkpt lat="43.99516" lon="6.33314">
        <ele>1011.200012207</ele>
        <time>2021-09-03T08:01:41Z</time>
      </trkpt>
      <trkpt lat="43.99502" lon="6.33323">
        <ele>1010.5999755859</ele>
        <time>2021-09-03T08:01:43Z</time>
      </trkpt>
      <trkpt lat="43.99494" lon="6.33327">
        <ele>1010.200012207</ele>
        <time>2021-09-03T08:01:44Z</time>
      </trkpt>
      <trkpt lat="43.99487" lon="6.33331">
        <ele>1009.799987793</ele>
        <time>2021-09-03T08:01:45Z</time>
      </trkpt>
      <trkpt lat="43.99472" lon="6.33338">
        <ele>1009</ele>
        <time>2021-09-03T08:01:47Z</time>
      </trkpt>
      <trkpt lat="43.99449" lon="6.33348">
        <ele>1007.5999755859</ele>
        <time>2021-09-03T08:01:50Z</time>
      </trkpt>
      <trkpt lat="43.99442" lon="6.33353">
        <ele>1007.4000244141</ele>
        <time>2021-09-03T08:01:51Z</time>
      </trkpt>
      <trkpt lat="43.99431" lon="6.33368">
        <ele>1006.5999755859</ele>
        <time>2021-09-03T08:01:53Z</time>
      </trkpt>
      <trkpt lat="43.99426" lon="6.33375">
        <ele>1006.4000244141</ele>
        <time>2021-09-03T08:01:54Z</time>
      </trkpt>
      <trkpt lat="43.99416" lon="6.3339">
        <ele>1005.5999755859</ele>
        <time>2021-09-03T08:01:56Z</time>
      </trkpt>
      <trkpt lat="43.99412" lon="6.33399">
        <ele>1005.200012207</ele>
        <time>2021-09-03T08:01:57Z</time>
      </trkpt>
      <trkpt lat="43.9941" lon="6.33409">
        <ele>1005</ele>
        <time>2021-09-03T08:01:58Z</time>
      </trkpt>
      <trkpt lat="43.99408" lon="6.33439">
        <ele>1004</ele>
        <time>2021-09-03T08:02:01Z</time>
      </trkpt>
      <trkpt lat="43.99408" lon="6.3345">
        <ele>1004</ele>
        <time>2021-09-03T08:02:02Z</time>
      </trkpt>
      <trkpt lat="43.99411" lon="6.33493">
        <ele>1003.200012207</ele>
        <time>2021-09-03T08:02:07Z</time>
      </trkpt>
      <trkpt lat="43.99402" lon="6.33501">
        <ele>1003</ele>
        <time>2021-09-03T08:02:09Z</time>
      </trkpt>
      <trkpt lat="43.99392" lon="6.33493">
        <ele>1002.5999755859</ele>
        <time>2021-09-03T08:02:11Z</time>
      </trkpt>
      <trkpt lat="43.99389" lon="6.33474">
        <ele>1002</ele>
        <time>2021-09-03T08:02:13Z</time>
      </trkpt>
      <trkpt lat="43.99387" lon="6.33465">
        <ele>1001.4000244141</ele>
        <time>2021-09-03T08:02:14Z</time>
      </trkpt>
      <trkpt lat="43.99384" lon="6.33456">
        <ele>1000.799987793</ele>
        <time>2021-09-03T08:02:15Z</time>
      </trkpt>
      <trkpt lat="43.99373" lon="6.3344">
        <ele>999.79998779297</ele>
        <time>2021-09-03T08:02:17Z</time>
      </trkpt>
      <trkpt lat="43.99352" lon="6.33425">
        <ele>998.40002441406</ele>
        <time>2021-09-03T08:02:20Z</time>
      </trkpt>
      <trkpt lat="43.99334" lon="6.33417">
        <ele>997.40002441406</ele>
        <time>2021-09-03T08:02:22Z</time>
      </trkpt>
      <trkpt lat="43.99326" lon="6.33412">
        <ele>996.20001220703</ele>
        <time>2021-09-03T08:02:23Z</time>
      </trkpt>
      <trkpt lat="43.99317" lon="6.33405">
        <ele>995.59997558594</ele>
        <time>2021-09-03T08:02:24Z</time>
      </trkpt>
      <trkpt lat="43.99303" lon="6.33388">
        <ele>994.59997558594</ele>
        <time>2021-09-03T08:02:26Z</time>
      </trkpt>
      <trkpt lat="43.99295" lon="6.33379">
        <ele>994.20001220703</ele>
        <time>2021-09-03T08:02:27Z</time>
      </trkpt>
      <trkpt lat="43.99288" lon="6.33369">
        <ele>993.59997558594</ele>
        <time>2021-09-03T08:02:28Z</time>
      </trkpt>
      <trkpt lat="43.99274" lon="6.33352">
        <ele>992.40002441406</ele>
        <time>2021-09-03T08:02:30Z</time>
      </trkpt>
      <trkpt lat="43.9926" lon="6.33335">
        <ele>991</ele>
        <time>2021-09-03T08:02:32Z</time>
      </trkpt>
      <trkpt lat="43.99254" lon="6.33326">
        <ele>990.40002441406</ele>
        <time>2021-09-03T08:02:33Z</time>
      </trkpt>
      <trkpt lat="43.99249" lon="6.33319">
        <ele>989.59997558594</ele>
        <time>2021-09-03T08:02:34Z</time>
      </trkpt>
      <trkpt lat="43.99246" lon="6.33311">
        <ele>989</ele>
        <time>2021-09-03T08:02:35Z</time>
      </trkpt>
      <trkpt lat="43.99245" lon="6.33302">
        <ele>988.40002441406</ele>
        <time>2021-09-03T08:02:36Z</time>
      </trkpt>
      <trkpt lat="43.99249" lon="6.33282">
        <ele>987</ele>
        <time>2021-09-03T08:02:38Z</time>
      </trkpt>
      <trkpt lat="43.99253" lon="6.33273">
        <ele>986.40002441406</ele>
        <time>2021-09-03T08:02:39Z</time>
      </trkpt>
      <trkpt lat="43.99257" lon="6.33264">
        <ele>985.79998779297</ele>
        <time>2021-09-03T08:02:40Z</time>
      </trkpt>
      <trkpt lat="43.99267" lon="6.33247">
        <ele>984.59997558594</ele>
        <time>2021-09-03T08:02:42Z</time>
      </trkpt>
      <trkpt lat="43.99271" lon="6.33238">
        <ele>984.20001220703</ele>
        <time>2021-09-03T08:02:43Z</time>
      </trkpt>
      <trkpt lat="43.99275" lon="6.33215">
        <ele>983</ele>
        <time>2021-09-03T08:02:45Z</time>
      </trkpt>
      <trkpt lat="43.99277" lon="6.33202">
        <ele>982.40002441406</ele>
        <time>2021-09-03T08:02:46Z</time>
      </trkpt>
      <trkpt lat="43.99279" lon="6.3319">
        <ele>981</ele>
        <time>2021-09-03T08:02:47Z</time>
      </trkpt>
      <trkpt lat="43.99283" lon="6.33163">
        <ele>979.79998779297</ele>
        <time>2021-09-03T08:02:49Z</time>
      </trkpt>
      <trkpt lat="43.99287" lon="6.33137">
        <ele>978.40002441406</ele>
        <time>2021-09-03T08:02:51Z</time>
      </trkpt>
      <trkpt lat="43.9929" lon="6.33125">
        <ele>977.79998779297</ele>
        <time>2021-09-03T08:02:52Z</time>
      </trkpt>
      <trkpt lat="43.99293" lon="6.33114">
        <ele>977.20001220703</ele>
        <time>2021-09-03T08:02:53Z</time>
      </trkpt>
      <trkpt lat="43.99303" lon="6.33097">
        <ele>976</ele>
        <time>2021-09-03T08:02:55Z</time>
      </trkpt>
      <trkpt lat="43.9932" lon="6.33091">
        <ele>974.59997558594</ele>
        <time>2021-09-03T08:02:57Z</time>
      </trkpt>
      <trkpt lat="43.99328" lon="6.3309">
        <ele>973.79998779297</ele>
        <time>2021-09-03T08:02:58Z</time>
      </trkpt>
      <trkpt lat="43.99334" lon="6.33086">
        <ele>973.20001220703</ele>
        <time>2021-09-03T08:02:59Z</time>
      </trkpt>
      <trkpt lat="43.99339" lon="6.33079">
        <ele>972.40002441406</ele>
        <time>2021-09-03T08:03:00Z</time>
      </trkpt>
      <trkpt lat="43.99341" lon="6.33071">
        <ele>971.79998779297</ele>
        <time>2021-09-03T08:03:01Z</time>
      </trkpt>
      <trkpt lat="43.9934" lon="6.33062">
        <ele>971.40002441406</ele>
        <time>2021-09-03T08:03:02Z</time>
      </trkpt>
      <trkpt lat="43.99331" lon="6.33048">
        <ele>970.40002441406</ele>
        <time>2021-09-03T08:03:04Z</time>
      </trkpt>
      <trkpt lat="43.99326" lon="6.33039">
        <ele>970</ele>
        <time>2021-09-03T08:03:05Z</time>
      </trkpt>
      <trkpt lat="43.99321" lon="6.33018">
        <ele>969.40002441406</ele>
        <time>2021-09-03T08:03:07Z</time>
      </trkpt>
      <trkpt lat="43.99321" lon="6.33007">
        <ele>969</ele>
        <time>2021-09-03T08:03:08Z</time>
      </trkpt>
      <trkpt lat="43.99329" lon="6.32987">
        <ele>968.20001220703</ele>
        <time>2021-09-03T08:03:10Z</time>
      </trkpt>
      <trkpt lat="43.99336" lon="6.3298">
        <ele>966.79998779297</ele>
        <time>2021-09-03T08:03:11Z</time>
      </trkpt>
      <trkpt lat="43.99342" lon="6.32971">
        <ele>966</ele>
        <time>2021-09-03T08:03:12Z</time>
      </trkpt>
      <trkpt lat="43.99346" lon="6.3296">
        <ele>965.20001220703</ele>
        <time>2021-09-03T08:03:13Z</time>
      </trkpt>
      <trkpt lat="43.99349" lon="6.32935">
        <ele>963.40002441406</ele>
        <time>2021-09-03T08:03:15Z</time>
      </trkpt>
      <trkpt lat="43.99348" lon="6.32922">
        <ele>962.59997558594</ele>
        <time>2021-09-03T08:03:16Z</time>
      </trkpt>
      <trkpt lat="43.99345" lon="6.32909">
        <ele>961.79998779297</ele>
        <time>2021-09-03T08:03:17Z</time>
      </trkpt>
      <trkpt lat="43.99342" lon="6.32896">
        <ele>961</ele>
        <time>2021-09-03T08:03:18Z</time>
      </trkpt>
      <trkpt lat="43.9934" lon="6.32884">
        <ele>960.20001220703</ele>
        <time>2021-09-03T08:03:19Z</time>
      </trkpt>
      <trkpt lat="43.99338" lon="6.32873">
        <ele>959.40002441406</ele>
        <time>2021-09-03T08:03:20Z</time>
      </trkpt>
      <trkpt lat="43.99339" lon="6.32863">
        <ele>958.59997558594</ele>
        <time>2021-09-03T08:03:21Z</time>
      </trkpt>
      <trkpt lat="43.99347" lon="6.32843">
        <ele>956.79998779297</ele>
        <time>2021-09-03T08:03:23Z</time>
      </trkpt>
      <trkpt lat="43.99351" lon="6.32835">
        <ele>956</ele>
        <time>2021-09-03T08:03:24Z</time>
      </trkpt>
      <trkpt lat="43.99352" lon="6.32825">
        <ele>955.40002441406</ele>
        <time>2021-09-03T08:03:25Z</time>
      </trkpt>
      <trkpt lat="43.99351" lon="6.32815">
        <ele>954.59997558594</ele>
        <time>2021-09-03T08:03:26Z</time>
      </trkpt>
      <trkpt lat="43.99347" lon="6.32806">
        <ele>954</ele>
        <time>2021-09-03T08:03:27Z</time>
      </trkpt>
      <trkpt lat="43.99341" lon="6.32798">
        <ele>953.40002441406</ele>
        <time>2021-09-03T08:03:28Z</time>
      </trkpt>
      <trkpt lat="43.99337" lon="6.32791">
        <ele>952.79998779297</ele>
        <time>2021-09-03T08:03:29Z</time>
      </trkpt>
      <trkpt lat="43.99332" lon="6.32782">
        <ele>952.20001220703</ele>
        <time>2021-09-03T08:03:30Z</time>
      </trkpt>
      <trkpt lat="43.9933" lon="6.32769">
        <ele>951.79998779297</ele>
        <time>2021-09-03T08:03:31Z</time>
      </trkpt>
      <trkpt lat="43.9933" lon="6.32756">
        <ele>951</ele>
        <time>2021-09-03T08:03:32Z</time>
      </trkpt>
      <trkpt lat="43.99331" lon="6.32742">
        <ele>950.40002441406</ele>
        <time>2021-09-03T08:03:33Z</time>
      </trkpt>
      <trkpt lat="43.99335" lon="6.3272">
        <ele>947.59997558594</ele>
        <time>2021-09-03T08:03:35Z</time>
      </trkpt>
      <trkpt lat="43.99334" lon="6.32711">
        <ele>946.40002441406</ele>
        <time>2021-09-03T08:03:36Z</time>
      </trkpt>
      <trkpt lat="43.99332" lon="6.32705">
        <ele>945.40002441406</ele>
        <time>2021-09-03T08:03:37Z</time>
      </trkpt>
      <trkpt lat="43.99327" lon="6.32702">
        <ele>944.59997558594</ele>
        <time>2021-09-03T08:03:38Z</time>
      </trkpt>
      <trkpt lat="43.99322" lon="6.327">
        <ele>943.79998779297</ele>
        <time>2021-09-03T08:03:39Z</time>
      </trkpt>
      <trkpt lat="43.99314" lon="6.32706">
        <ele>943</ele>
        <time>2021-09-03T08:03:40Z</time>
      </trkpt>
      <trkpt lat="43.99308" lon="6.32714">
        <ele>942.40002441406</ele>
        <time>2021-09-03T08:03:41Z</time>
      </trkpt>
      <trkpt lat="43.99291" lon="6.32726">
        <ele>941.40002441406</ele>
        <time>2021-09-03T08:03:43Z</time>
      </trkpt>
      <trkpt lat="43.99276" lon="6.32737">
        <ele>940</ele>
        <time>2021-09-03T08:03:45Z</time>
      </trkpt>
      <trkpt lat="43.99271" lon="6.32746">
        <ele>939.20001220703</ele>
        <time>2021-09-03T08:03:46Z</time>
      </trkpt>
      <trkpt lat="43.99268" lon="6.32758">
        <ele>938.40002441406</ele>
        <time>2021-09-03T08:03:47Z</time>
      </trkpt>
      <trkpt lat="43.99264" lon="6.32771">
        <ele>937.59997558594</ele>
        <time>2021-09-03T08:03:48Z</time>
      </trkpt>
      <trkpt lat="43.9926" lon="6.3278">
        <ele>936.59997558594</ele>
        <time>2021-09-03T08:03:49Z</time>
      </trkpt>
      <trkpt lat="43.99247" lon="6.32794">
        <ele>934.79998779297</ele>
        <time>2021-09-03T08:03:51Z</time>
      </trkpt>
      <trkpt lat="43.99239" lon="6.32797">
        <ele>933.79998779297</ele>
        <time>2021-09-03T08:03:52Z</time>
      </trkpt>
      <trkpt lat="43.99231" lon="6.32794">
        <ele>933</ele>
        <time>2021-09-03T08:03:53Z</time>
      </trkpt>
      <trkpt lat="43.99225" lon="6.32788">
        <ele>932.20001220703</ele>
        <time>2021-09-03T08:03:54Z</time>
      </trkpt>
      <trkpt lat="43.9922" lon="6.32779">
        <ele>931.40002441406</ele>
        <time>2021-09-03T08:03:55Z</time>
      </trkpt>
      <trkpt lat="43.99217" lon="6.32768">
        <ele>930.59997558594</ele>
        <time>2021-09-03T08:03:56Z</time>
      </trkpt>
      <trkpt lat="43.99216" lon="6.32756">
        <ele>929.79998779297</ele>
        <time>2021-09-03T08:03:57Z</time>
      </trkpt>
      <trkpt lat="43.99212" lon="6.32732">
        <ele>927.79998779297</ele>
        <time>2021-09-03T08:03:59Z</time>
      </trkpt>
      <trkpt lat="43.99207" lon="6.32708">
        <ele>926.59997558594</ele>
        <time>2021-09-03T08:04:01Z</time>
      </trkpt>
      <trkpt lat="43.99203" lon="6.32685">
        <ele>925.59997558594</ele>
        <time>2021-09-03T08:04:03Z</time>
      </trkpt>
      <trkpt lat="43.992" lon="6.32675">
        <ele>925</ele>
        <time>2021-09-03T08:04:04Z</time>
      </trkpt>
      <trkpt lat="43.99195" lon="6.32668">
        <ele>924.40002441406</ele>
        <time>2021-09-03T08:04:05Z</time>
      </trkpt>
      <trkpt lat="43.99188" lon="6.32664">
        <ele>923.79998779297</ele>
        <time>2021-09-03T08:04:06Z</time>
      </trkpt>
      <trkpt lat="43.99181" lon="6.32662">
        <ele>923.40002441406</ele>
        <time>2021-09-03T08:04:07Z</time>
      </trkpt>
      <trkpt lat="43.99168" lon="6.32661">
        <ele>922.40002441406</ele>
        <time>2021-09-03T08:04:09Z</time>
      </trkpt>
      <trkpt lat="43.99161" lon="6.32661">
        <ele>922.20001220703</ele>
        <time>2021-09-03T08:04:10Z</time>
      </trkpt>
      <trkpt lat="43.99154" lon="6.32662">
        <ele>922</ele>
        <time>2021-09-03T08:04:11Z</time>
      </trkpt>
      <trkpt lat="43.99136" lon="6.32666">
        <ele>921.79998779297</ele>
        <time>2021-09-03T08:04:14Z</time>
      </trkpt>
      <trkpt lat="43.99092" lon="6.32673">
        <ele>921.79998779297</ele>
        <time>2021-09-03T08:04:21Z</time>
      </trkpt>
      <trkpt lat="43.99048" lon="6.32675">
        <ele>921.40002441406</ele>
        <time>2021-09-03T08:04:28Z</time>
      </trkpt>
      <trkpt lat="43.9903" lon="6.32678">
        <ele>921</ele>
        <time>2021-09-03T08:04:31Z</time>
      </trkpt>
      <trkpt lat="43.99001" lon="6.32683">
        <ele>920.79998779297</ele>
        <time>2021-09-03T08:04:36Z</time>
      </trkpt>
      <trkpt lat="43.98972" lon="6.32687">
        <ele>920.40002441406</ele>
        <time>2021-09-03T08:04:41Z</time>
      </trkpt>
      <trkpt lat="43.98951" lon="6.32698">
        <ele>920.20001220703</ele>
        <time>2021-09-03T08:04:45Z</time>
      </trkpt>
      <trkpt lat="43.98946" lon="6.32703">
        <ele>920.20001220703</ele>
        <time>2021-09-03T08:04:46Z</time>
      </trkpt>
      <trkpt lat="43.98929" lon="6.32715">
        <ele>920</ele>
        <time>2021-09-03T08:04:49Z</time>
      </trkpt>
      <trkpt lat="43.98911" lon="6.32727">
        <ele>919.59997558594</ele>
        <time>2021-09-03T08:04:52Z</time>
      </trkpt>
      <trkpt lat="43.98885" lon="6.32733">
        <ele>919</ele>
        <time>2021-09-03T08:04:56Z</time>
      </trkpt>
      <trkpt lat="43.98879" lon="6.32727">
        <ele>918.79998779297</ele>
        <time>2021-09-03T08:04:57Z</time>
      </trkpt>
      <trkpt lat="43.98875" lon="6.32719">
        <ele>918.59997558594</ele>
        <time>2021-09-03T08:04:58Z</time>
      </trkpt>
      <trkpt lat="43.98874" lon="6.32695">
        <ele>918</ele>
        <time>2021-09-03T08:05:00Z</time>
      </trkpt>
      <trkpt lat="43.98875" lon="6.32683">
        <ele>917.59997558594</ele>
        <time>2021-09-03T08:05:01Z</time>
      </trkpt>
      <trkpt lat="43.98871" lon="6.32661">
        <ele>916.79998779297</ele>
        <time>2021-09-03T08:05:03Z</time>
      </trkpt>
      <trkpt lat="43.98868" lon="6.32649">
        <ele>916.20001220703</ele>
        <time>2021-09-03T08:05:04Z</time>
      </trkpt>
      <trkpt lat="43.9886" lon="6.32627">
        <ele>915.20001220703</ele>
        <time>2021-09-03T08:05:06Z</time>
      </trkpt>
      <trkpt lat="43.98855" lon="6.32616">
        <ele>914.59997558594</ele>
        <time>2021-09-03T08:05:07Z</time>
      </trkpt>
      <trkpt lat="43.98849" lon="6.32605">
        <ele>914</ele>
        <time>2021-09-03T08:05:08Z</time>
      </trkpt>
      <trkpt lat="43.98843" lon="6.32595">
        <ele>913.59997558594</ele>
        <time>2021-09-03T08:05:09Z</time>
      </trkpt>
      <trkpt lat="43.98837" lon="6.32585">
        <ele>913</ele>
        <time>2021-09-03T08:05:10Z</time>
      </trkpt>
      <trkpt lat="43.98832" lon="6.32573">
        <ele>911.79998779297</ele>
        <time>2021-09-03T08:05:11Z</time>
      </trkpt>
      <trkpt lat="43.98826" lon="6.32547">
        <ele>910.40002441406</ele>
        <time>2021-09-03T08:05:13Z</time>
      </trkpt>
      <trkpt lat="43.98824" lon="6.32533">
        <ele>909.59997558594</ele>
        <time>2021-09-03T08:05:14Z</time>
      </trkpt>
      <trkpt lat="43.98823" lon="6.32518">
        <ele>908.79998779297</ele>
        <time>2021-09-03T08:05:15Z</time>
      </trkpt>
      <trkpt lat="43.98821" lon="6.32488">
        <ele>907.40002441406</ele>
        <time>2021-09-03T08:05:17Z</time>
      </trkpt>
      <trkpt lat="43.98821" lon="6.32459">
        <ele>906</ele>
        <time>2021-09-03T08:05:19Z</time>
      </trkpt>
      <trkpt lat="43.98824" lon="6.32446">
        <ele>905.40002441406</ele>
        <time>2021-09-03T08:05:20Z</time>
      </trkpt>
      <trkpt lat="43.98826" lon="6.32434">
        <ele>904.59997558594</ele>
        <time>2021-09-03T08:05:21Z</time>
      </trkpt>
      <trkpt lat="43.98828" lon="6.32424">
        <ele>903.79998779297</ele>
        <time>2021-09-03T08:05:22Z</time>
      </trkpt>
      <trkpt lat="43.98827" lon="6.32417">
        <ele>903.20001220703</ele>
        <time>2021-09-03T08:05:23Z</time>
      </trkpt>
      <trkpt lat="43.98823" lon="6.32412">
        <ele>902.40002441406</ele>
        <time>2021-09-03T08:05:24Z</time>
      </trkpt>
      <trkpt lat="43.98818" lon="6.32413">
        <ele>901.79998779297</ele>
        <time>2021-09-03T08:05:25Z</time>
      </trkpt>
      <trkpt lat="43.98814" lon="6.3242">
        <ele>901</ele>
        <time>2021-09-03T08:05:26Z</time>
      </trkpt>
      <trkpt lat="43.98813" lon="6.32429">
        <ele>900.40002441406</ele>
        <time>2021-09-03T08:05:27Z</time>
      </trkpt>
      <trkpt lat="43.98812" lon="6.32438">
        <ele>899.79998779297</ele>
        <time>2021-09-03T08:05:28Z</time>
      </trkpt>
      <trkpt lat="43.98811" lon="6.32447">
        <ele>899.40002441406</ele>
        <time>2021-09-03T08:05:29Z</time>
      </trkpt>
      <trkpt lat="43.98807" lon="6.32476">
        <ele>898.20001220703</ele>
        <time>2021-09-03T08:05:32Z</time>
      </trkpt>
      <trkpt lat="43.98806" lon="6.32486">
        <ele>897.79998779297</ele>
        <time>2021-09-03T08:05:33Z</time>
      </trkpt>
      <trkpt lat="43.98803" lon="6.32508">
        <ele>896.59997558594</ele>
        <time>2021-09-03T08:05:35Z</time>
      </trkpt>
      <trkpt lat="43.98801" lon="6.32541">
        <ele>895.59997558594</ele>
        <time>2021-09-03T08:05:38Z</time>
      </trkpt>
      <trkpt lat="43.988" lon="6.32553">
        <ele>895.20001220703</ele>
        <time>2021-09-03T08:05:39Z</time>
      </trkpt>
      <trkpt lat="43.98799" lon="6.32578">
        <ele>894.20001220703</ele>
        <time>2021-09-03T08:05:41Z</time>
      </trkpt>
      <trkpt lat="43.98798" lon="6.32611">
        <ele>892.59997558594</ele>
        <time>2021-09-03T08:05:44Z</time>
      </trkpt>
      <trkpt lat="43.98789" lon="6.32621">
        <ele>891.40002441406</ele>
        <time>2021-09-03T08:05:46Z</time>
      </trkpt>
      <trkpt lat="43.98781" lon="6.32609">
        <ele>890.20001220703</ele>
        <time>2021-09-03T08:05:48Z</time>
      </trkpt>
      <trkpt lat="43.98782" lon="6.3259">
        <ele>889</ele>
        <time>2021-09-03T08:05:50Z</time>
      </trkpt>
      <trkpt lat="43.98784" lon="6.32569">
        <ele>888</ele>
        <time>2021-09-03T08:05:52Z</time>
      </trkpt>
      <trkpt lat="43.98784" lon="6.32558">
        <ele>887.59997558594</ele>
        <time>2021-09-03T08:05:53Z</time>
      </trkpt>
      <trkpt lat="43.98784" lon="6.32546">
        <ele>887</ele>
        <time>2021-09-03T08:05:54Z</time>
      </trkpt>
      <trkpt lat="43.98783" lon="6.32534">
        <ele>886.59997558594</ele>
        <time>2021-09-03T08:05:55Z</time>
      </trkpt>
      <trkpt lat="43.9878" lon="6.32509">
        <ele>885.40002441406</ele>
        <time>2021-09-03T08:05:57Z</time>
      </trkpt>
      <trkpt lat="43.98776" lon="6.32483">
        <ele>883.79998779297</ele>
        <time>2021-09-03T08:05:59Z</time>
      </trkpt>
      <trkpt lat="43.98773" lon="6.32456">
        <ele>882.79998779297</ele>
        <time>2021-09-03T08:06:01Z</time>
      </trkpt>
      <trkpt lat="43.98771" lon="6.32427">
        <ele>881.40002441406</ele>
        <time>2021-09-03T08:06:03Z</time>
      </trkpt>
      <trkpt lat="43.98771" lon="6.32412">
        <ele>880.79998779297</ele>
        <time>2021-09-03T08:06:04Z</time>
      </trkpt>
      <trkpt lat="43.98772" lon="6.32399">
        <ele>880</ele>
        <time>2021-09-03T08:06:05Z</time>
      </trkpt>
      <trkpt lat="43.98774" lon="6.32386">
        <ele>879.20001220703</ele>
        <time>2021-09-03T08:06:06Z</time>
      </trkpt>
      <trkpt lat="43.98779" lon="6.32375">
        <ele>878.59997558594</ele>
        <time>2021-09-03T08:06:07Z</time>
      </trkpt>
      <trkpt lat="43.98794" lon="6.32359">
        <ele>877</ele>
        <time>2021-09-03T08:06:09Z</time>
      </trkpt>
      <trkpt lat="43.98814" lon="6.32353">
        <ele>875.40002441406</ele>
        <time>2021-09-03T08:06:11Z</time>
      </trkpt>
      <trkpt lat="43.98823" lon="6.32353">
        <ele>874.79998779297</ele>
        <time>2021-09-03T08:06:12Z</time>
      </trkpt>
      <trkpt lat="43.98832" lon="6.32355">
        <ele>874.20001220703</ele>
        <time>2021-09-03T08:06:13Z</time>
      </trkpt>
      <trkpt lat="43.98851" lon="6.32355">
        <ele>873</ele>
        <time>2021-09-03T08:06:15Z</time>
      </trkpt>
      <trkpt lat="43.98861" lon="6.32355">
        <ele>872.20001220703</ele>
        <time>2021-09-03T08:06:16Z</time>
      </trkpt>
      <trkpt lat="43.9887" lon="6.32353">
        <ele>871.59997558594</ele>
        <time>2021-09-03T08:06:17Z</time>
      </trkpt>
      <trkpt lat="43.98889" lon="6.32348">
        <ele>870.20001220703</ele>
        <time>2021-09-03T08:06:19Z</time>
      </trkpt>
      <trkpt lat="43.98899" lon="6.32344">
        <ele>869.59997558594</ele>
        <time>2021-09-03T08:06:20Z</time>
      </trkpt>
      <trkpt lat="43.98908" lon="6.32339">
        <ele>869</ele>
        <time>2021-09-03T08:06:21Z</time>
      </trkpt>
      <trkpt lat="43.98927" lon="6.32329">
        <ele>867.40002441406</ele>
        <time>2021-09-03T08:06:23Z</time>
      </trkpt>
      <trkpt lat="43.98947" lon="6.32317">
        <ele>866.20001220703</ele>
        <time>2021-09-03T08:06:25Z</time>
      </trkpt>
      <trkpt lat="43.98966" lon="6.32305">
        <ele>864.59997558594</ele>
        <time>2021-09-03T08:06:27Z</time>
      </trkpt>
      <trkpt lat="43.98983" lon="6.32299">
        <ele>863.20001220703</ele>
        <time>2021-09-03T08:06:29Z</time>
      </trkpt>
      <trkpt lat="43.98991" lon="6.32293">
        <ele>862.59997558594</ele>
        <time>2021-09-03T08:06:30Z</time>
      </trkpt>
      <trkpt lat="43.98998" lon="6.32285">
        <ele>862</ele>
        <time>2021-09-03T08:06:31Z</time>
      </trkpt>
      <trkpt lat="43.99004" lon="6.32274">
        <ele>861.20001220703</ele>
        <time>2021-09-03T08:06:32Z</time>
      </trkpt>
      <trkpt lat="43.99009" lon="6.32263">
        <ele>860.40002441406</ele>
        <time>2021-09-03T08:06:33Z</time>
      </trkpt>
      <trkpt lat="43.99015" lon="6.32252">
        <ele>859.79998779297</ele>
        <time>2021-09-03T08:06:34Z</time>
      </trkpt>
      <trkpt lat="43.9902" lon="6.32242">
        <ele>859</ele>
        <time>2021-09-03T08:06:35Z</time>
      </trkpt>
      <trkpt lat="43.99023" lon="6.32232">
        <ele>858.40002441406</ele>
        <time>2021-09-03T08:06:36Z</time>
      </trkpt>
      <trkpt lat="43.99023" lon="6.32222">
        <ele>857.79998779297</ele>
        <time>2021-09-03T08:06:37Z</time>
      </trkpt>
      <trkpt lat="43.99021" lon="6.32212">
        <ele>857</ele>
        <time>2021-09-03T08:06:38Z</time>
      </trkpt>
      <trkpt lat="43.99016" lon="6.32206">
        <ele>856.40002441406</ele>
        <time>2021-09-03T08:06:39Z</time>
      </trkpt>
      <trkpt lat="43.9901" lon="6.32202">
        <ele>855.59997558594</ele>
        <time>2021-09-03T08:06:40Z</time>
      </trkpt>
      <trkpt lat="43.99004" lon="6.32198">
        <ele>855</ele>
        <time>2021-09-03T08:06:41Z</time>
      </trkpt>
      <trkpt lat="43.98995" lon="6.32206">
        <ele>853.79998779297</ele>
        <time>2021-09-03T08:06:43Z</time>
      </trkpt>
      <trkpt lat="43.98977" lon="6.32221">
        <ele>852.59997558594</ele>
        <time>2021-09-03T08:06:46Z</time>
      </trkpt>
      <trkpt lat="43.9897" lon="6.32226">
        <ele>851.59997558594</ele>
        <time>2021-09-03T08:06:47Z</time>
      </trkpt>
      <trkpt lat="43.98962" lon="6.32229">
        <ele>851.20001220703</ele>
        <time>2021-09-03T08:06:48Z</time>
      </trkpt>
      <trkpt lat="43.98941" lon="6.32233">
        <ele>850.20001220703</ele>
        <time>2021-09-03T08:06:50Z</time>
      </trkpt>
      <trkpt lat="43.9893" lon="6.32235">
        <ele>849.79998779297</ele>
        <time>2021-09-03T08:06:51Z</time>
      </trkpt>
      <trkpt lat="43.98908" lon="6.32238">
        <ele>848.59997558594</ele>
        <time>2021-09-03T08:06:53Z</time>
      </trkpt>
      <trkpt lat="43.98886" lon="6.32242">
        <ele>847.59997558594</ele>
        <time>2021-09-03T08:06:55Z</time>
      </trkpt>
      <trkpt lat="43.98876" lon="6.32243">
        <ele>847</ele>
        <time>2021-09-03T08:06:56Z</time>
      </trkpt>
      <trkpt lat="43.98868" lon="6.32242">
        <ele>846.40002441406</ele>
        <time>2021-09-03T08:06:57Z</time>
      </trkpt>
      <trkpt lat="43.98853" lon="6.32228">
        <ele>845.59997558594</ele>
        <time>2021-09-03T08:06:59Z</time>
      </trkpt>
      <trkpt lat="43.98849" lon="6.32218">
        <ele>845.20001220703</ele>
        <time>2021-09-03T08:07:00Z</time>
      </trkpt>
      <trkpt lat="43.98842" lon="6.32201">
        <ele>844</ele>
        <time>2021-09-03T08:07:02Z</time>
      </trkpt>
      <trkpt lat="43.98836" lon="6.32194">
        <ele>843.40002441406</ele>
        <time>2021-09-03T08:07:03Z</time>
      </trkpt>
      <trkpt lat="43.9883" lon="6.3219">
        <ele>843</ele>
        <time>2021-09-03T08:07:04Z</time>
      </trkpt>
      <trkpt lat="43.98824" lon="6.32186">
        <ele>842.59997558594</ele>
        <time>2021-09-03T08:07:05Z</time>
      </trkpt>
      <trkpt lat="43.98812" lon="6.3218">
        <ele>842</ele>
        <time>2021-09-03T08:07:07Z</time>
      </trkpt>
      <trkpt lat="43.98806" lon="6.32176">
        <ele>841.79998779297</ele>
        <time>2021-09-03T08:07:08Z</time>
      </trkpt>
      <trkpt lat="43.98787" lon="6.32168">
        <ele>841.40002441406</ele>
        <time>2021-09-03T08:07:11Z</time>
      </trkpt>
      <trkpt lat="43.98767" lon="6.32151">
        <ele>841.40002441406</ele>
        <time>2021-09-03T08:07:15Z</time>
      </trkpt>
      <trkpt lat="43.98763" lon="6.32145">
        <ele>841.40002441406</ele>
        <time>2021-09-03T08:07:16Z</time>
      </trkpt>
      <trkpt lat="43.98747" lon="6.32115">
        <ele>841.20001220703</ele>
        <time>2021-09-03T08:07:21Z</time>
      </trkpt>
      <trkpt lat="43.98744" lon="6.32109">
        <ele>841.20001220703</ele>
        <time>2021-09-03T08:07:22Z</time>
      </trkpt>
      <trkpt lat="43.98738" lon="6.32105">
        <ele>841.20001220703</ele>
        <time>2021-09-03T08:07:23Z</time>
      </trkpt>
      <trkpt lat="43.98732" lon="6.32103">
        <ele>841</ele>
        <time>2021-09-03T08:07:24Z</time>
      </trkpt>
      <trkpt lat="43.98719" lon="6.32102">
        <ele>840.59997558594</ele>
        <time>2021-09-03T08:07:26Z</time>
      </trkpt>
      <trkpt lat="43.98705" lon="6.32104">
        <ele>839.79998779297</ele>
        <time>2021-09-03T08:07:28Z</time>
      </trkpt>
      <trkpt lat="43.98697" lon="6.32106">
        <ele>839.59997558594</ele>
        <time>2021-09-03T08:07:29Z</time>
      </trkpt>
      <trkpt lat="43.98689" lon="6.32107">
        <ele>839.20001220703</ele>
        <time>2021-09-03T08:07:30Z</time>
      </trkpt>
      <trkpt lat="43.98673" lon="6.32104">
        <ele>838.59997558594</ele>
        <time>2021-09-03T08:07:32Z</time>
      </trkpt>
      <trkpt lat="43.9865" lon="6.32086">
        <ele>837.20001220703</ele>
        <time>2021-09-03T08:07:35Z</time>
      </trkpt>
      <trkpt lat="43.98643" lon="6.32079">
        <ele>836.79998779297</ele>
        <time>2021-09-03T08:07:36Z</time>
      </trkpt>
      <trkpt lat="43.98635" lon="6.32074">
        <ele>836.40002441406</ele>
        <time>2021-09-03T08:07:37Z</time>
      </trkpt>
      <trkpt lat="43.98626" lon="6.32071">
        <ele>835.79998779297</ele>
        <time>2021-09-03T08:07:38Z</time>
      </trkpt>
      <trkpt lat="43.98617" lon="6.3207">
        <ele>835.40002441406</ele>
        <time>2021-09-03T08:07:39Z</time>
      </trkpt>
      <trkpt lat="43.98608" lon="6.32069">
        <ele>834.79998779297</ele>
        <time>2021-09-03T08:07:40Z</time>
      </trkpt>
      <trkpt lat="43.98592" lon="6.32062">
        <ele>833.59997558594</ele>
        <time>2021-09-03T08:07:42Z</time>
      </trkpt>
      <trkpt lat="43.98579" lon="6.32043">
        <ele>832.59997558594</ele>
        <time>2021-09-03T08:07:44Z</time>
      </trkpt>
      <trkpt lat="43.98576" lon="6.32031">
        <ele>831.79998779297</ele>
        <time>2021-09-03T08:07:45Z</time>
      </trkpt>
      <trkpt lat="43.98573" lon="6.32018">
        <ele>831.20001220703</ele>
        <time>2021-09-03T08:07:46Z</time>
      </trkpt>
      <trkpt lat="43.98563" lon="6.31992">
        <ele>829.59997558594</ele>
        <time>2021-09-03T08:07:48Z</time>
      </trkpt>
      <trkpt lat="43.98557" lon="6.31981">
        <ele>828.79998779297</ele>
        <time>2021-09-03T08:07:49Z</time>
      </trkpt>
      <trkpt lat="43.98551" lon="6.31969">
        <ele>828</ele>
        <time>2021-09-03T08:07:50Z</time>
      </trkpt>
      <trkpt lat="43.98546" lon="6.31957">
        <ele>827.20001220703</ele>
        <time>2021-09-03T08:07:51Z</time>
      </trkpt>
      <trkpt lat="43.98542" lon="6.31943">
        <ele>826.40002441406</ele>
        <time>2021-09-03T08:07:52Z</time>
      </trkpt>
      <trkpt lat="43.98538" lon="6.31929">
        <ele>825.59997558594</ele>
        <time>2021-09-03T08:07:53Z</time>
      </trkpt>
      <trkpt lat="43.98534" lon="6.31914">
        <ele>824.79998779297</ele>
        <time>2021-09-03T08:07:54Z</time>
      </trkpt>
      <trkpt lat="43.98528" lon="6.31883">
        <ele>823.20001220703</ele>
        <time>2021-09-03T08:07:56Z</time>
      </trkpt>
      <trkpt lat="43.98521" lon="6.31852">
        <ele>821.40002441406</ele>
        <time>2021-09-03T08:07:58Z</time>
      </trkpt>
      <trkpt lat="43.98518" lon="6.31837">
        <ele>819.59997558594</ele>
        <time>2021-09-03T08:07:59Z</time>
      </trkpt>
      <trkpt lat="43.98512" lon="6.31805">
        <ele>817.79998779297</ele>
        <time>2021-09-03T08:08:01Z</time>
      </trkpt>
      <trkpt lat="43.98508" lon="6.31789">
        <ele>816.79998779297</ele>
        <time>2021-09-03T08:08:02Z</time>
      </trkpt>
      <trkpt lat="43.98503" lon="6.31775">
        <ele>815.59997558594</ele>
        <time>2021-09-03T08:08:03Z</time>
      </trkpt>
      <trkpt lat="43.985" lon="6.3176">
        <ele>814.59997558594</ele>
        <time>2021-09-03T08:08:04Z</time>
      </trkpt>
      <trkpt lat="43.98499" lon="6.31745">
        <ele>813.79998779297</ele>
        <time>2021-09-03T08:08:05Z</time>
      </trkpt>
      <trkpt lat="43.98496" lon="6.3173">
        <ele>813</ele>
        <time>2021-09-03T08:08:06Z</time>
      </trkpt>
      <trkpt lat="43.98492" lon="6.31715">
        <ele>812.20001220703</ele>
        <time>2021-09-03T08:08:07Z</time>
      </trkpt>
      <trkpt lat="43.98489" lon="6.317">
        <ele>811.40002441406</ele>
        <time>2021-09-03T08:08:08Z</time>
      </trkpt>
      <trkpt lat="43.98486" lon="6.31684">
        <ele>810.59997558594</ele>
        <time>2021-09-03T08:08:09Z</time>
      </trkpt>
      <trkpt lat="43.98484" lon="6.31667">
        <ele>809.79998779297</ele>
        <time>2021-09-03T08:08:10Z</time>
      </trkpt>
      <trkpt lat="43.98481" lon="6.31638">
        <ele>808.20001220703</ele>
        <time>2021-09-03T08:08:12Z</time>
      </trkpt>
      <trkpt lat="43.98481" lon="6.31627">
        <ele>807.20001220703</ele>
        <time>2021-09-03T08:08:13Z</time>
      </trkpt>
      <trkpt lat="43.98482" lon="6.31615">
        <ele>806.40002441406</ele>
        <time>2021-09-03T08:08:14Z</time>
      </trkpt>
      <trkpt lat="43.98491" lon="6.31591">
        <ele>804.20001220703</ele>
        <time>2021-09-03T08:08:16Z</time>
      </trkpt>
      <trkpt lat="43.98498" lon="6.31566">
        <ele>802.40002441406</ele>
        <time>2021-09-03T08:08:18Z</time>
      </trkpt>
      <trkpt lat="43.98506" lon="6.31541">
        <ele>800.79998779297</ele>
        <time>2021-09-03T08:08:20Z</time>
      </trkpt>
      <trkpt lat="43.98511" lon="6.31531">
        <ele>800</ele>
        <time>2021-09-03T08:08:21Z</time>
      </trkpt>
      <trkpt lat="43.98518" lon="6.31524">
        <ele>799.40002441406</ele>
        <time>2021-09-03T08:08:22Z</time>
      </trkpt>
      <trkpt lat="43.98522" lon="6.31514">
        <ele>798</ele>
        <time>2021-09-03T08:08:23Z</time>
      </trkpt>
      <trkpt lat="43.98524" lon="6.31503">
        <ele>797.20001220703</ele>
        <time>2021-09-03T08:08:24Z</time>
      </trkpt>
      <trkpt lat="43.98522" lon="6.31493">
        <ele>796.40002441406</ele>
        <time>2021-09-03T08:08:25Z</time>
      </trkpt>
      <trkpt lat="43.9852" lon="6.31487">
        <ele>795.59997558594</ele>
        <time>2021-09-03T08:08:26Z</time>
      </trkpt>
      <trkpt lat="43.98516" lon="6.31482">
        <ele>794.79998779297</ele>
        <time>2021-09-03T08:08:27Z</time>
      </trkpt>
      <trkpt lat="43.985" lon="6.31476">
        <ele>793.59997558594</ele>
        <time>2021-09-03T08:08:29Z</time>
      </trkpt>
      <trkpt lat="43.98491" lon="6.31474">
        <ele>793</ele>
        <time>2021-09-03T08:08:30Z</time>
      </trkpt>
      <trkpt lat="43.98483" lon="6.3147">
        <ele>792.59997558594</ele>
        <time>2021-09-03T08:08:31Z</time>
      </trkpt>
      <trkpt lat="43.98475" lon="6.31466">
        <ele>792.40002441406</ele>
        <time>2021-09-03T08:08:32Z</time>
      </trkpt>
      <trkpt lat="43.9846" lon="6.31454">
        <ele>791.79998779297</ele>
        <time>2021-09-03T08:08:34Z</time>
      </trkpt>
      <trkpt lat="43.98448" lon="6.31434">
        <ele>791.20001220703</ele>
        <time>2021-09-03T08:08:36Z</time>
      </trkpt>
      <trkpt lat="43.98443" lon="6.31423">
        <ele>790.79998779297</ele>
        <time>2021-09-03T08:08:37Z</time>
      </trkpt>
      <trkpt lat="43.98431" lon="6.31403">
        <ele>790</ele>
        <time>2021-09-03T08:08:39Z</time>
      </trkpt>
      <trkpt lat="43.98417" lon="6.31384">
        <ele>789</ele>
        <time>2021-09-03T08:08:41Z</time>
      </trkpt>
      <trkpt lat="43.9841" lon="6.31376">
        <ele>788.59997558594</ele>
        <time>2021-09-03T08:08:42Z</time>
      </trkpt>
      <trkpt lat="43.98403" lon="6.31366">
        <ele>788.20001220703</ele>
        <time>2021-09-03T08:08:43Z</time>
      </trkpt>
      <trkpt lat="43.98389" lon="6.31349">
        <ele>787.20001220703</ele>
        <time>2021-09-03T08:08:45Z</time>
      </trkpt>
      <trkpt lat="43.98383" lon="6.31339">
        <ele>786.59997558594</ele>
        <time>2021-09-03T08:08:46Z</time>
      </trkpt>
      <trkpt lat="43.98377" lon="6.31327">
        <ele>785.79998779297</ele>
        <time>2021-09-03T08:08:47Z</time>
      </trkpt>
      <trkpt lat="43.98367" lon="6.31308">
        <ele>784.59997558594</ele>
        <time>2021-09-03T08:08:49Z</time>
      </trkpt>
      <trkpt lat="43.98352" lon="6.3129">
        <ele>783.20001220703</ele>
        <time>2021-09-03T08:08:51Z</time>
      </trkpt>
      <trkpt lat="43.9834" lon="6.31269">
        <ele>781.79998779297</ele>
        <time>2021-09-03T08:08:53Z</time>
      </trkpt>
      <trkpt lat="43.98335" lon="6.31257">
        <ele>781</ele>
        <time>2021-09-03T08:08:54Z</time>
      </trkpt>
      <trkpt lat="43.98331" lon="6.31243">
        <ele>780.40002441406</ele>
        <time>2021-09-03T08:08:55Z</time>
      </trkpt>
      <trkpt lat="43.98327" lon="6.3123">
        <ele>779.79998779297</ele>
        <time>2021-09-03T08:08:56Z</time>
      </trkpt>
      <trkpt lat="43.98321" lon="6.31217">
        <ele>779</ele>
        <time>2021-09-03T08:08:57Z</time>
      </trkpt>
      <trkpt lat="43.9831" lon="6.31191">
        <ele>777.40002441406</ele>
        <time>2021-09-03T08:08:59Z</time>
      </trkpt>
      <trkpt lat="43.98307" lon="6.31177">
        <ele>776.59997558594</ele>
        <time>2021-09-03T08:09:00Z</time>
      </trkpt>
      <trkpt lat="43.98304" lon="6.31162">
        <ele>775.79998779297</ele>
        <time>2021-09-03T08:09:01Z</time>
      </trkpt>
      <trkpt lat="43.983" lon="6.31149">
        <ele>775</ele>
        <time>2021-09-03T08:09:02Z</time>
      </trkpt>
      <trkpt lat="43.98299" lon="6.31135">
        <ele>774.20001220703</ele>
        <time>2021-09-03T08:09:03Z</time>
      </trkpt>
      <trkpt lat="43.98301" lon="6.31121">
        <ele>773.40002441406</ele>
        <time>2021-09-03T08:09:04Z</time>
      </trkpt>
      <trkpt lat="43.98303" lon="6.31107">
        <ele>772.79998779297</ele>
        <time>2021-09-03T08:09:05Z</time>
      </trkpt>
      <trkpt lat="43.98304" lon="6.31077">
        <ele>771.40002441406</ele>
        <time>2021-09-03T08:09:07Z</time>
      </trkpt>
      <trkpt lat="43.98298" lon="6.31049">
        <ele>769.79998779297</ele>
        <time>2021-09-03T08:09:09Z</time>
      </trkpt>
      <trkpt lat="43.98293" lon="6.31037">
        <ele>769</ele>
        <time>2021-09-03T08:09:10Z</time>
      </trkpt>
      <trkpt lat="43.98288" lon="6.31025">
        <ele>768</ele>
        <time>2021-09-03T08:09:11Z</time>
      </trkpt>
      <trkpt lat="43.98283" lon="6.31011">
        <ele>766.20001220703</ele>
        <time>2021-09-03T08:09:12Z</time>
      </trkpt>
      <trkpt lat="43.98268" lon="6.30989">
        <ele>764.20001220703</ele>
        <time>2021-09-03T08:09:14Z</time>
      </trkpt>
      <trkpt lat="43.98259" lon="6.30982">
        <ele>763.20001220703</ele>
        <time>2021-09-03T08:09:15Z</time>
      </trkpt>
      <trkpt lat="43.98249" lon="6.30978">
        <ele>762</ele>
        <time>2021-09-03T08:09:16Z</time>
      </trkpt>
      <trkpt lat="43.98241" lon="6.30971">
        <ele>760.79998779297</ele>
        <time>2021-09-03T08:09:17Z</time>
      </trkpt>
      <trkpt lat="43.98234" lon="6.30961">
        <ele>759.59997558594</ele>
        <time>2021-09-03T08:09:18Z</time>
      </trkpt>
      <trkpt lat="43.98231" lon="6.30949">
        <ele>758.59997558594</ele>
        <time>2021-09-03T08:09:19Z</time>
      </trkpt>
      <trkpt lat="43.98231" lon="6.30921">
        <ele>756.79998779297</ele>
        <time>2021-09-03T08:09:21Z</time>
      </trkpt>
      <trkpt lat="43.98237" lon="6.30893">
        <ele>755.59997558594</ele>
        <time>2021-09-03T08:09:23Z</time>
      </trkpt>
      <trkpt lat="43.9824" lon="6.3088">
        <ele>754.79998779297</ele>
        <time>2021-09-03T08:09:24Z</time>
      </trkpt>
      <trkpt lat="43.98242" lon="6.30871">
        <ele>754</ele>
        <time>2021-09-03T08:09:25Z</time>
      </trkpt>
      <trkpt lat="43.98242" lon="6.30862">
        <ele>753.20001220703</ele>
        <time>2021-09-03T08:09:26Z</time>
      </trkpt>
      <trkpt lat="43.98239" lon="6.30856">
        <ele>752.40002441406</ele>
        <time>2021-09-03T08:09:27Z</time>
      </trkpt>
      <trkpt lat="43.98228" lon="6.30856">
        <ele>750.79998779297</ele>
        <time>2021-09-03T08:09:29Z</time>
      </trkpt>
      <trkpt lat="43.98224" lon="6.30875">
        <ele>749</ele>
        <time>2021-09-03T08:09:31Z</time>
      </trkpt>
      <trkpt lat="43.98221" lon="6.30896">
        <ele>747.40002441406</ele>
        <time>2021-09-03T08:09:33Z</time>
      </trkpt>
      <trkpt lat="43.98217" lon="6.30906">
        <ele>746.59997558594</ele>
        <time>2021-09-03T08:09:34Z</time>
      </trkpt>
      <trkpt lat="43.98211" lon="6.30915">
        <ele>746</ele>
        <time>2021-09-03T08:09:35Z</time>
      </trkpt>
      <trkpt lat="43.98205" lon="6.30924">
        <ele>745.20001220703</ele>
        <time>2021-09-03T08:09:36Z</time>
      </trkpt>
      <trkpt lat="43.98199" lon="6.30934">
        <ele>744.79998779297</ele>
        <time>2021-09-03T08:09:37Z</time>
      </trkpt>
      <trkpt lat="43.9819" lon="6.30952">
        <ele>743.79998779297</ele>
        <time>2021-09-03T08:09:39Z</time>
      </trkpt>
      <trkpt lat="43.98187" lon="6.30964">
        <ele>743.20001220703</ele>
        <time>2021-09-03T08:09:40Z</time>
      </trkpt>
      <trkpt lat="43.98185" lon="6.30988">
        <ele>741.79998779297</ele>
        <time>2021-09-03T08:09:42Z</time>
      </trkpt>
      <trkpt lat="43.98184" lon="6.31001">
        <ele>741</ele>
        <time>2021-09-03T08:09:43Z</time>
      </trkpt>
      <trkpt lat="43.98183" lon="6.31014">
        <ele>740.40002441406</ele>
        <time>2021-09-03T08:09:44Z</time>
      </trkpt>
      <trkpt lat="43.98181" lon="6.31041">
        <ele>738.79998779297</ele>
        <time>2021-09-03T08:09:46Z</time>
      </trkpt>
      <trkpt lat="43.98183" lon="6.31067">
        <ele>737.40002441406</ele>
        <time>2021-09-03T08:09:48Z</time>
      </trkpt>
      <trkpt lat="43.98186" lon="6.31089">
        <ele>735.59997558594</ele>
        <time>2021-09-03T08:09:50Z</time>
      </trkpt>
      <trkpt lat="43.98187" lon="6.31097">
        <ele>734.59997558594</ele>
        <time>2021-09-03T08:09:51Z</time>
      </trkpt>
      <trkpt lat="43.98187" lon="6.31102">
        <ele>733.59997558594</ele>
        <time>2021-09-03T08:09:52Z</time>
      </trkpt>
      <trkpt lat="43.98183" lon="6.31105">
        <ele>732.40002441406</ele>
        <time>2021-09-03T08:09:53Z</time>
      </trkpt>
      <trkpt lat="43.98178" lon="6.31102">
        <ele>731.20001220703</ele>
        <time>2021-09-03T08:09:54Z</time>
      </trkpt>
      <trkpt lat="43.98175" lon="6.31094">
        <ele>730.20001220703</ele>
        <time>2021-09-03T08:09:55Z</time>
      </trkpt>
      <trkpt lat="43.98173" lon="6.31085">
        <ele>729.20001220703</ele>
        <time>2021-09-03T08:09:56Z</time>
      </trkpt>
      <trkpt lat="43.98172" lon="6.31066">
        <ele>727.40002441406</ele>
        <time>2021-09-03T08:09:58Z</time>
      </trkpt>
      <trkpt lat="43.98172" lon="6.31058">
        <ele>726.79998779297</ele>
        <time>2021-09-03T08:09:59Z</time>
      </trkpt>
      <trkpt lat="43.98171" lon="6.3105">
        <ele>726</ele>
        <time>2021-09-03T08:10:00Z</time>
      </trkpt>
      <trkpt lat="43.98169" lon="6.31042">
        <ele>725.59997558594</ele>
        <time>2021-09-03T08:10:01Z</time>
      </trkpt>
      <trkpt lat="43.98164" lon="6.31015">
        <ele>725</ele>
        <time>2021-09-03T08:10:04Z</time>
      </trkpt>
      <trkpt lat="43.9816" lon="6.31006">
        <ele>724.79998779297</ele>
        <time>2021-09-03T08:10:05Z</time>
      </trkpt>
      <trkpt lat="43.98139" lon="6.30982">
        <ele>723.79998779297</ele>
        <time>2021-09-03T08:10:08Z</time>
      </trkpt>
      <trkpt lat="43.9813" lon="6.30976">
        <ele>723.40002441406</ele>
        <time>2021-09-03T08:10:09Z</time>
      </trkpt>
      <trkpt lat="43.98122" lon="6.3097">
        <ele>722.79998779297</ele>
        <time>2021-09-03T08:10:10Z</time>
      </trkpt>
      <trkpt lat="43.98115" lon="6.30964">
        <ele>722</ele>
        <time>2021-09-03T08:10:11Z</time>
      </trkpt>
      <trkpt lat="43.9811" lon="6.30957">
        <ele>721.20001220703</ele>
        <time>2021-09-03T08:10:12Z</time>
      </trkpt>
      <trkpt lat="43.98107" lon="6.30946">
        <ele>720.40002441406</ele>
        <time>2021-09-03T08:10:13Z</time>
      </trkpt>
      <trkpt lat="43.98107" lon="6.30933">
        <ele>719.40002441406</ele>
        <time>2021-09-03T08:10:14Z</time>
      </trkpt>
      <trkpt lat="43.98107" lon="6.30921">
        <ele>718.59997558594</ele>
        <time>2021-09-03T08:10:15Z</time>
      </trkpt>
      <trkpt lat="43.98107" lon="6.30908">
        <ele>717.59997558594</ele>
        <time>2021-09-03T08:10:16Z</time>
      </trkpt>
      <trkpt lat="43.98106" lon="6.30897">
        <ele>716.59997558594</ele>
        <time>2021-09-03T08:10:17Z</time>
      </trkpt>
      <trkpt lat="43.98105" lon="6.30885">
        <ele>715.59997558594</ele>
        <time>2021-09-03T08:10:18Z</time>
      </trkpt>
      <trkpt lat="43.98105" lon="6.30875">
        <ele>714.59997558594</ele>
        <time>2021-09-03T08:10:19Z</time>
      </trkpt>
      <trkpt lat="43.98101" lon="6.30855">
        <ele>712.79998779297</ele>
        <time>2021-09-03T08:10:21Z</time>
      </trkpt>
      <trkpt lat="43.98096" lon="6.30847">
        <ele>712</ele>
        <time>2021-09-03T08:10:22Z</time>
      </trkpt>
      <trkpt lat="43.9809" lon="6.30842">
        <ele>711</ele>
        <time>2021-09-03T08:10:23Z</time>
      </trkpt>
      <trkpt lat="43.98081" lon="6.30838">
        <ele>709.40002441406</ele>
        <time>2021-09-03T08:10:24Z</time>
      </trkpt>
      <trkpt lat="43.98063" lon="6.30837">
        <ele>707.79998779297</ele>
        <time>2021-09-03T08:10:26Z</time>
      </trkpt>
      <trkpt lat="43.98054" lon="6.3084">
        <ele>707</ele>
        <time>2021-09-03T08:10:27Z</time>
      </trkpt>
      <trkpt lat="43.98045" lon="6.30846">
        <ele>706.20001220703</ele>
        <time>2021-09-03T08:10:28Z</time>
      </trkpt>
      <trkpt lat="43.9803" lon="6.30864">
        <ele>704.20001220703</ele>
        <time>2021-09-03T08:10:30Z</time>
      </trkpt>
      <trkpt lat="43.9802" lon="6.30883">
        <ele>702.40002441406</ele>
        <time>2021-09-03T08:10:32Z</time>
      </trkpt>
      <trkpt lat="43.98015" lon="6.3089">
        <ele>701.59997558594</ele>
        <time>2021-09-03T08:10:33Z</time>
      </trkpt>
      <trkpt lat="43.98011" lon="6.30892">
        <ele>700.59997558594</ele>
        <time>2021-09-03T08:10:34Z</time>
      </trkpt>
      <trkpt lat="43.98008" lon="6.30892">
        <ele>699.59997558594</ele>
        <time>2021-09-03T08:10:35Z</time>
      </trkpt>
      <trkpt lat="43.98004" lon="6.30891">
        <ele>698.59997558594</ele>
        <time>2021-09-03T08:10:36Z</time>
      </trkpt>
      <trkpt lat="43.98" lon="6.30888">
        <ele>697</ele>
        <time>2021-09-03T08:10:38Z</time>
      </trkpt>
      <trkpt lat="43.97999" lon="6.30887">
        <ele>696.40002441406</ele>
        <time>2021-09-03T08:10:39Z</time>
      </trkpt>
      <trkpt lat="43.97997" lon="6.30884">
        <ele>694.79998779297</ele>
        <time>2021-09-03T08:11:14Z</time>
      </trkpt>
      <trkpt lat="43.97997" lon="6.30881">
        <ele>694.79998779297</ele>
        <time>2021-09-03T08:11:15Z</time>
      </trkpt>
      <trkpt lat="43.98" lon="6.30862">
        <ele>694.79998779297</ele>
        <time>2021-09-03T08:11:19Z</time>
      </trkpt>
      <trkpt lat="43.98001" lon="6.30856">
        <ele>694.79998779297</ele>
        <time>2021-09-03T08:11:20Z</time>
      </trkpt>
      <trkpt lat="43.98003" lon="6.30842">
        <ele>694.59997558594</ele>
        <time>2021-09-03T08:11:22Z</time>
      </trkpt>
      <trkpt lat="43.98004" lon="6.30827">
        <ele>694.59997558594</ele>
        <time>2021-09-03T08:11:24Z</time>
      </trkpt>
      <trkpt lat="43.98005" lon="6.30783">
        <ele>693.59997558594</ele>
        <time>2021-09-03T08:11:29Z</time>
      </trkpt>
      <trkpt lat="43.98005" lon="6.30773">
        <ele>693.40002441406</ele>
        <time>2021-09-03T08:11:30Z</time>
      </trkpt>
      <trkpt lat="43.98001" lon="6.30734">
        <ele>692.40002441406</ele>
        <time>2021-09-03T08:11:34Z</time>
      </trkpt>
      <trkpt lat="43.97999" lon="6.30713">
        <ele>691.20001220703</ele>
        <time>2021-09-03T08:11:36Z</time>
      </trkpt>
      <trkpt lat="43.97997" lon="6.3069">
        <ele>690.59997558594</ele>
        <time>2021-09-03T08:11:38Z</time>
      </trkpt>
      <trkpt lat="43.97997" lon="6.30667">
        <ele>690</ele>
        <time>2021-09-03T08:11:40Z</time>
      </trkpt>
      <trkpt lat="43.97998" lon="6.30655">
        <ele>689.59997558594</ele>
        <time>2021-09-03T08:11:41Z</time>
      </trkpt>
      <trkpt lat="43.98" lon="6.30642">
        <ele>689.20001220703</ele>
        <time>2021-09-03T08:11:42Z</time>
      </trkpt>
      <trkpt lat="43.98002" lon="6.3063">
        <ele>688.79998779297</ele>
        <time>2021-09-03T08:11:43Z</time>
      </trkpt>
      <trkpt lat="43.9801" lon="6.30593">
        <ele>687.79998779297</ele>
        <time>2021-09-03T08:11:46Z</time>
      </trkpt>
      <trkpt lat="43.98014" lon="6.30581">
        <ele>687.40002441406</ele>
        <time>2021-09-03T08:11:47Z</time>
      </trkpt>
      <trkpt lat="43.9802" lon="6.30556">
        <ele>686.59997558594</ele>
        <time>2021-09-03T08:11:49Z</time>
      </trkpt>
      <trkpt lat="43.9803" lon="6.30519">
        <ele>685.20001220703</ele>
        <time>2021-09-03T08:11:52Z</time>
      </trkpt>
      <trkpt lat="43.98037" lon="6.30494">
        <ele>684</ele>
        <time>2021-09-03T08:11:54Z</time>
      </trkpt>
      <trkpt lat="43.98045" lon="6.3047">
        <ele>683.20001220703</ele>
        <time>2021-09-03T08:11:56Z</time>
      </trkpt>
      <trkpt lat="43.98055" lon="6.30448">
        <ele>682.79998779297</ele>
        <time>2021-09-03T08:11:58Z</time>
      </trkpt>
      <trkpt lat="43.98068" lon="6.30429">
        <ele>682</ele>
        <time>2021-09-03T08:12:00Z</time>
      </trkpt>
      <trkpt lat="43.98076" lon="6.3042">
        <ele>681.59997558594</ele>
        <time>2021-09-03T08:12:01Z</time>
      </trkpt>
      <trkpt lat="43.98091" lon="6.30406">
        <ele>681</ele>
        <time>2021-09-03T08:12:03Z</time>
      </trkpt>
      <trkpt lat="43.98098" lon="6.30398">
        <ele>680.79998779297</ele>
        <time>2021-09-03T08:12:04Z</time>
      </trkpt>
      <trkpt lat="43.98105" lon="6.30391">
        <ele>680.40002441406</ele>
        <time>2021-09-03T08:12:05Z</time>
      </trkpt>
      <trkpt lat="43.9812" lon="6.30378">
        <ele>679.79998779297</ele>
        <time>2021-09-03T08:12:07Z</time>
      </trkpt>
      <trkpt lat="43.98136" lon="6.30367">
        <ele>679.40002441406</ele>
        <time>2021-09-03T08:12:09Z</time>
      </trkpt>
      <trkpt lat="43.98145" lon="6.30362">
        <ele>679.20001220703</ele>
        <time>2021-09-03T08:12:10Z</time>
      </trkpt>
      <trkpt lat="43.9818" lon="6.30351">
        <ele>678.59997558594</ele>
        <time>2021-09-03T08:12:14Z</time>
      </trkpt>
      <trkpt lat="43.98221" lon="6.30345">
        <ele>678.20001220703</ele>
        <time>2021-09-03T08:12:19Z</time>
      </trkpt>
      <trkpt lat="43.98258" lon="6.30334">
        <ele>678.40002441406</ele>
        <time>2021-09-03T08:12:24Z</time>
      </trkpt>
      <trkpt lat="43.98272" lon="6.30326">
        <ele>678.40002441406</ele>
        <time>2021-09-03T08:12:26Z</time>
      </trkpt>
      <trkpt lat="43.98324" lon="6.303">
        <ele>678.20001220703</ele>
        <time>2021-09-03T08:12:34Z</time>
      </trkpt>
      <trkpt lat="43.98337" lon="6.30293">
        <ele>678.20001220703</ele>
        <time>2021-09-03T08:12:36Z</time>
      </trkpt>
      <trkpt lat="43.98376" lon="6.30272">
        <ele>677.79998779297</ele>
        <time>2021-09-03T08:12:42Z</time>
      </trkpt>
      <trkpt lat="43.98417" lon="6.30239">
        <ele>677.59997558594</ele>
        <time>2021-09-03T08:12:49Z</time>
      </trkpt>
      <trkpt lat="43.98447" lon="6.30199">
        <ele>677.20001220703</ele>
        <time>2021-09-03T08:12:55Z</time>
      </trkpt>
      <trkpt lat="43.9847" lon="6.3015">
        <ele>677</ele>
        <time>2021-09-03T08:13:01Z</time>
      </trkpt>
      <trkpt lat="43.98486" lon="6.30094">
        <ele>676.40002441406</ele>
        <time>2021-09-03T08:13:07Z</time>
      </trkpt>
      <trkpt lat="43.98488" lon="6.30085">
        <ele>676.20001220703</ele>
        <time>2021-09-03T08:13:08Z</time>
      </trkpt>
      <trkpt lat="43.98507" lon="6.30006">
        <ele>675.40002441406</ele>
        <time>2021-09-03T08:13:16Z</time>
      </trkpt>
      <trkpt lat="43.98525" lon="6.29961">
        <ele>675.20001220703</ele>
        <time>2021-09-03T08:13:21Z</time>
      </trkpt>
      <trkpt lat="43.9853" lon="6.29953">
        <ele>675.20001220703</ele>
        <time>2021-09-03T08:13:22Z</time>
      </trkpt>
      <trkpt lat="43.98558" lon="6.29918">
        <ele>674.79998779297</ele>
        <time>2021-09-03T08:13:27Z</time>
      </trkpt>
      <trkpt lat="43.98589" lon="6.29898">
        <ele>674.59997558594</ele>
        <time>2021-09-03T08:13:32Z</time>
      </trkpt>
      <trkpt lat="43.98632" lon="6.29883">
        <ele>674.79998779297</ele>
        <time>2021-09-03T08:13:39Z</time>
      </trkpt>
      <trkpt lat="43.98676" lon="6.29873">
        <ele>675.59997558594</ele>
        <time>2021-09-03T08:13:47Z</time>
      </trkpt>
      <trkpt lat="43.98701" lon="6.29866">
        <ele>676.20001220703</ele>
        <time>2021-09-03T08:13:52Z</time>
      </trkpt>
      <trkpt lat="43.9871" lon="6.29865">
        <ele>676.59997558594</ele>
        <time>2021-09-03T08:13:54Z</time>
      </trkpt>
      <trkpt lat="43.98719" lon="6.29861">
        <ele>676.79998779297</ele>
        <time>2021-09-03T08:13:56Z</time>
      </trkpt>
      <trkpt lat="43.98736" lon="6.29852">
        <ele>677.40002441406</ele>
        <time>2021-09-03T08:14:00Z</time>
      </trkpt>
      <trkpt lat="43.98763" lon="6.2983">
        <ele>677.79998779297</ele>
        <time>2021-09-03T08:14:07Z</time>
      </trkpt>
      <trkpt lat="43.9878" lon="6.29805">
        <ele>678.20001220703</ele>
        <time>2021-09-03T08:14:12Z</time>
      </trkpt>
      <trkpt lat="43.98783" lon="6.29799">
        <ele>678.20001220703</ele>
        <time>2021-09-03T08:14:13Z</time>
      </trkpt>
      <trkpt lat="43.98804" lon="6.29749">
        <ele>678.20001220703</ele>
        <time>2021-09-03T08:14:21Z</time>
      </trkpt>
      <trkpt lat="43.9882" lon="6.29699">
        <ele>678</ele>
        <time>2021-09-03T08:14:28Z</time>
      </trkpt>
      <trkpt lat="43.98827" lon="6.29684">
        <ele>677.59997558594</ele>
        <time>2021-09-03T08:14:30Z</time>
      </trkpt>
      <trkpt lat="43.98841" lon="6.29665">
        <ele>677.20001220703</ele>
        <time>2021-09-03T08:14:33Z</time>
      </trkpt>
      <trkpt lat="43.98868" lon="6.29652">
        <ele>676.59997558594</ele>
        <time>2021-09-03T08:14:37Z</time>
      </trkpt>
      <trkpt lat="43.98884" lon="6.29652">
        <ele>676.40002441406</ele>
        <time>2021-09-03T08:14:39Z</time>
      </trkpt>
      <trkpt lat="43.98891" lon="6.29654">
        <ele>676</ele>
        <time>2021-09-03T08:14:40Z</time>
      </trkpt>
      <trkpt lat="43.98906" lon="6.2966">
        <ele>675.59997558594</ele>
        <time>2021-09-03T08:14:42Z</time>
      </trkpt>
      <trkpt lat="43.98922" lon="6.29666">
        <ele>675.20001220703</ele>
        <time>2021-09-03T08:14:44Z</time>
      </trkpt>
      <trkpt lat="43.98929" lon="6.29669">
        <ele>674.79998779297</ele>
        <time>2021-09-03T08:14:45Z</time>
      </trkpt>
      <trkpt lat="43.98952" lon="6.29677">
        <ele>674</ele>
        <time>2021-09-03T08:14:48Z</time>
      </trkpt>
      <trkpt lat="43.98982" lon="6.2969">
        <ele>673.20001220703</ele>
        <time>2021-09-03T08:14:52Z</time>
      </trkpt>
      <trkpt lat="43.98989" lon="6.29693">
        <ele>672.79998779297</ele>
        <time>2021-09-03T08:14:53Z</time>
      </trkpt>
      <trkpt lat="43.9902" lon="6.29707">
        <ele>671.79998779297</ele>
        <time>2021-09-03T08:14:57Z</time>
      </trkpt>
      <trkpt lat="43.99035" lon="6.29713">
        <ele>671.40002441406</ele>
        <time>2021-09-03T08:14:59Z</time>
      </trkpt>
      <trkpt lat="43.9905" lon="6.29717">
        <ele>670.79998779297</ele>
        <time>2021-09-03T08:15:01Z</time>
      </trkpt>
      <trkpt lat="43.99074" lon="6.29713">
        <ele>670</ele>
        <time>2021-09-03T08:15:04Z</time>
      </trkpt>
      <trkpt lat="43.99082" lon="6.29709">
        <ele>669.79998779297</ele>
        <time>2021-09-03T08:15:05Z</time>
      </trkpt>
      <trkpt lat="43.99105" lon="6.29694">
        <ele>669.20001220703</ele>
        <time>2021-09-03T08:15:08Z</time>
      </trkpt>
      <trkpt lat="43.9912" lon="6.29683">
        <ele>668.59997558594</ele>
        <time>2021-09-03T08:15:10Z</time>
      </trkpt>
      <trkpt lat="43.99142" lon="6.29666">
        <ele>667.59997558594</ele>
        <time>2021-09-03T08:15:13Z</time>
      </trkpt>
      <trkpt lat="43.99163" lon="6.29645">
        <ele>667</ele>
        <time>2021-09-03T08:15:16Z</time>
      </trkpt>
      <trkpt lat="43.99187" lon="6.29616">
        <ele>666.59997558594</ele>
        <time>2021-09-03T08:15:20Z</time>
      </trkpt>
      <trkpt lat="43.99204" lon="6.29595">
        <ele>666.20001220703</ele>
        <time>2021-09-03T08:15:23Z</time>
      </trkpt>
      <trkpt lat="43.99227" lon="6.29553">
        <ele>665.40002441406</ele>
        <time>2021-09-03T08:15:28Z</time>
      </trkpt>
      <trkpt lat="43.99241" lon="6.29508">
        <ele>664.79998779297</ele>
        <time>2021-09-03T08:15:33Z</time>
      </trkpt>
      <trkpt lat="43.99249" lon="6.2948">
        <ele>664.40002441406</ele>
        <time>2021-09-03T08:15:36Z</time>
      </trkpt>
      <trkpt lat="43.99265" lon="6.29414">
        <ele>663.79998779297</ele>
        <time>2021-09-03T08:15:43Z</time>
      </trkpt>
      <trkpt lat="43.99271" lon="6.29374">
        <ele>663.40002441406</ele>
        <time>2021-09-03T08:15:47Z</time>
      </trkpt>
      <trkpt lat="43.99278" lon="6.29344">
        <ele>663</ele>
        <time>2021-09-03T08:15:50Z</time>
      </trkpt>
      <trkpt lat="43.99284" lon="6.29337">
        <ele>663</ele>
        <time>2021-09-03T08:15:51Z</time>
      </trkpt>
      <trkpt lat="43.99307" lon="6.29325">
        <ele>662.59997558594</ele>
        <time>2021-09-03T08:15:54Z</time>
      </trkpt>
      <trkpt lat="43.99324" lon="6.29328">
        <ele>662.40002441406</ele>
        <time>2021-09-03T08:15:56Z</time>
      </trkpt>
      <trkpt lat="43.99332" lon="6.29329">
        <ele>662.40002441406</ele>
        <time>2021-09-03T08:15:57Z</time>
      </trkpt>
      <trkpt lat="43.99341" lon="6.29328">
        <ele>662.40002441406</ele>
        <time>2021-09-03T08:15:58Z</time>
      </trkpt>
      <trkpt lat="43.99349" lon="6.29326">
        <ele>662.20001220703</ele>
        <time>2021-09-03T08:15:59Z</time>
      </trkpt>
      <trkpt lat="43.99373" lon="6.29323">
        <ele>662</ele>
        <time>2021-09-03T08:16:02Z</time>
      </trkpt>
      <trkpt lat="43.99431" lon="6.2931">
        <ele>662</ele>
        <time>2021-09-03T08:16:10Z</time>
      </trkpt>
      <trkpt lat="43.99489" lon="6.29296">
        <ele>661.59997558594</ele>
        <time>2021-09-03T08:16:18Z</time>
      </trkpt>
      <trkpt lat="43.99495" lon="6.29293">
        <ele>661.59997558594</ele>
        <time>2021-09-03T08:16:19Z</time>
      </trkpt>
      <trkpt lat="43.99532" lon="6.29273">
        <ele>661.79998779297</ele>
        <time>2021-09-03T08:16:25Z</time>
      </trkpt>
      <trkpt lat="43.99578" lon="6.29238">
        <ele>661.59997558594</ele>
        <time>2021-09-03T08:16:33Z</time>
      </trkpt>
      <trkpt lat="43.99615" lon="6.29212">
        <ele>661.20001220703</ele>
        <time>2021-09-03T08:16:39Z</time>
      </trkpt>
      <trkpt lat="43.99626" lon="6.29204">
        <ele>661</ele>
        <time>2021-09-03T08:16:41Z</time>
      </trkpt>
      <trkpt lat="43.99676" lon="6.29171">
        <ele>660.40002441406</ele>
        <time>2021-09-03T08:16:49Z</time>
      </trkpt>
      <trkpt lat="43.99682" lon="6.29168">
        <ele>660.20001220703</ele>
        <time>2021-09-03T08:16:50Z</time>
      </trkpt>
      <trkpt lat="43.99717" lon="6.29159">
        <ele>659.59997558594</ele>
        <time>2021-09-03T08:16:55Z</time>
      </trkpt>
      <trkpt lat="43.99773" lon="6.29157">
        <ele>659.40002441406</ele>
        <time>2021-09-03T08:17:03Z</time>
      </trkpt>
      <trkpt lat="43.99823" lon="6.29154">
        <ele>659.40002441406</ele>
        <time>2021-09-03T08:17:11Z</time>
      </trkpt>
      <trkpt lat="43.99861" lon="6.29152">
        <ele>660.40002441406</ele>
        <time>2021-09-03T08:17:18Z</time>
      </trkpt>
      <trkpt lat="43.99895" lon="6.29148">
        <ele>661.20001220703</ele>
        <time>2021-09-03T08:17:25Z</time>
      </trkpt>
      <trkpt lat="43.99929" lon="6.29134">
        <ele>662.20001220703</ele>
        <time>2021-09-03T08:17:33Z</time>
      </trkpt>
      <trkpt lat="43.99938" lon="6.29129">
        <ele>662.20001220703</ele>
        <time>2021-09-03T08:17:35Z</time>
      </trkpt>
      <trkpt lat="43.99959" lon="6.29111">
        <ele>662.40002441406</ele>
        <time>2021-09-03T08:17:40Z</time>
      </trkpt>
      <trkpt lat="43.99987" lon="6.29073">
        <ele>662</ele>
        <time>2021-09-03T08:17:47Z</time>
      </trkpt>
      <trkpt lat="44.00006" lon="6.29029">
        <ele>661.79998779297</ele>
        <time>2021-09-03T08:17:53Z</time>
      </trkpt>
      <trkpt lat="44.00023" lon="6.28979">
        <ele>661.20001220703</ele>
        <time>2021-09-03T08:17:59Z</time>
      </trkpt>
      <trkpt lat="44.00029" lon="6.28962">
        <ele>661</ele>
        <time>2021-09-03T08:18:01Z</time>
      </trkpt>
      <trkpt lat="44.00039" lon="6.28923">
        <ele>660</ele>
        <time>2021-09-03T08:18:05Z</time>
      </trkpt>
      <trkpt lat="44.00045" lon="6.28892">
        <ele>659.40002441406</ele>
        <time>2021-09-03T08:18:08Z</time>
      </trkpt>
      <trkpt lat="44.00053" lon="6.2886">
        <ele>659</ele>
        <time>2021-09-03T08:18:11Z</time>
      </trkpt>
      <trkpt lat="44.00066" lon="6.28818">
        <ele>658.40002441406</ele>
        <time>2021-09-03T08:18:15Z</time>
      </trkpt>
      <trkpt lat="44.00081" lon="6.28788">
        <ele>658</ele>
        <time>2021-09-03T08:18:18Z</time>
      </trkpt>
      <trkpt lat="44.00092" lon="6.2877">
        <ele>657.59997558594</ele>
        <time>2021-09-03T08:18:20Z</time>
      </trkpt>
      <trkpt lat="44.00122" lon="6.28742">
        <ele>657.20001220703</ele>
        <time>2021-09-03T08:18:24Z</time>
      </trkpt>
      <trkpt lat="44.00145" lon="6.28724">
        <ele>656.79998779297</ele>
        <time>2021-09-03T08:18:27Z</time>
      </trkpt>
      <trkpt lat="44.00184" lon="6.28698">
        <ele>656.59997558594</ele>
        <time>2021-09-03T08:18:32Z</time>
      </trkpt>
      <trkpt lat="44.00238" lon="6.28665">
        <ele>656.40002441406</ele>
        <time>2021-09-03T08:18:39Z</time>
      </trkpt>
      <trkpt lat="44.00246" lon="6.2866">
        <ele>656.40002441406</ele>
        <time>2021-09-03T08:18:40Z</time>
      </trkpt>
      <trkpt lat="44.00299" lon="6.28627">
        <ele>656</ele>
        <time>2021-09-03T08:18:47Z</time>
      </trkpt>
      <trkpt lat="44.00349" lon="6.28591">
        <ele>655.79998779297</ele>
        <time>2021-09-03T08:18:54Z</time>
      </trkpt>
      <trkpt lat="44.00355" lon="6.28586">
        <ele>655.79998779297</ele>
        <time>2021-09-03T08:18:55Z</time>
      </trkpt>
      <trkpt lat="44.00367" lon="6.28573">
        <ele>655.79998779297</ele>
        <time>2021-09-03T08:18:57Z</time>
      </trkpt>
      <trkpt lat="44.00398" lon="6.28536">
        <ele>655.59997558594</ele>
        <time>2021-09-03T08:19:02Z</time>
      </trkpt>
      <trkpt lat="44.00444" lon="6.28486">
        <ele>654.79998779297</ele>
        <time>2021-09-03T08:19:09Z</time>
      </trkpt>
      <trkpt lat="44.00492" lon="6.28455">
        <ele>653.79998779297</ele>
        <time>2021-09-03T08:19:15Z</time>
      </trkpt>
      <trkpt lat="44.005" lon="6.2845">
        <ele>653.59997558594</ele>
        <time>2021-09-03T08:19:16Z</time>
      </trkpt>
      <trkpt lat="44.00548" lon="6.28421">
        <ele>652.59997558594</ele>
        <time>2021-09-03T08:19:22Z</time>
      </trkpt>
      <trkpt lat="44.00589" lon="6.28387">
        <ele>652</ele>
        <time>2021-09-03T08:19:28Z</time>
      </trkpt>
      <trkpt lat="44.00595" lon="6.28379">
        <ele>652</ele>
        <time>2021-09-03T08:19:29Z</time>
      </trkpt>
      <trkpt lat="44.00609" lon="6.28354">
        <ele>651.79998779297</ele>
        <time>2021-09-03T08:19:32Z</time>
      </trkpt>
      <trkpt lat="44.00625" lon="6.28315">
        <ele>651.59997558594</ele>
        <time>2021-09-03T08:19:36Z</time>
      </trkpt>
      <trkpt lat="44.00634" lon="6.28295">
        <ele>651.40002441406</ele>
        <time>2021-09-03T08:19:38Z</time>
      </trkpt>
      <trkpt lat="44.00664" lon="6.28227">
        <ele>650.59997558594</ele>
        <time>2021-09-03T08:19:45Z</time>
      </trkpt>
      <trkpt lat="44.00671" lon="6.28208">
        <ele>650.59997558594</ele>
        <time>2021-09-03T08:19:47Z</time>
      </trkpt>
      <trkpt lat="44.007" lon="6.28144">
        <ele>650.40002441406</ele>
        <time>2021-09-03T08:19:54Z</time>
      </trkpt>
      <trkpt lat="44.00704" lon="6.28135">
        <ele>650.40002441406</ele>
        <time>2021-09-03T08:19:55Z</time>
      </trkpt>
      <trkpt lat="44.0073" lon="6.28061">
        <ele>650.40002441406</ele>
        <time>2021-09-03T08:20:03Z</time>
      </trkpt>
      <trkpt lat="44.00737" lon="6.28">
        <ele>650.40002441406</ele>
        <time>2021-09-03T08:20:09Z</time>
      </trkpt>
      <trkpt lat="44.00746" lon="6.2793">
        <ele>650.20001220703</ele>
        <time>2021-09-03T08:20:17Z</time>
      </trkpt>
      <trkpt lat="44.00764" lon="6.27877">
        <ele>649.79998779297</ele>
        <time>2021-09-03T08:20:24Z</time>
      </trkpt>
      <trkpt lat="44.00771" lon="6.27862">
        <ele>649.59997558594</ele>
        <time>2021-09-03T08:20:26Z</time>
      </trkpt>
      <trkpt lat="44.00789" lon="6.27832">
        <ele>648.79998779297</ele>
        <time>2021-09-03T08:20:30Z</time>
      </trkpt>
      <trkpt lat="44.008" lon="6.27816">
        <ele>648.20001220703</ele>
        <time>2021-09-03T08:20:32Z</time>
      </trkpt>
      <trkpt lat="44.00816" lon="6.27789">
        <ele>647.20001220703</ele>
        <time>2021-09-03T08:20:35Z</time>
      </trkpt>
      <trkpt lat="44.00825" lon="6.27771">
        <ele>646.79998779297</ele>
        <time>2021-09-03T08:20:37Z</time>
      </trkpt>
      <trkpt lat="44.00839" lon="6.27733">
        <ele>646.20001220703</ele>
        <time>2021-09-03T08:20:41Z</time>
      </trkpt>
      <trkpt lat="44.00848" lon="6.27705">
        <ele>646</ele>
        <time>2021-09-03T08:20:44Z</time>
      </trkpt>
      <trkpt lat="44.0086" lon="6.2766">
        <ele>646.20001220703</ele>
        <time>2021-09-03T08:20:49Z</time>
      </trkpt>
      <trkpt lat="44.00868" lon="6.27634">
        <ele>646.40002441406</ele>
        <time>2021-09-03T08:20:52Z</time>
      </trkpt>
      <trkpt lat="44.00893" lon="6.27569">
        <ele>646.79998779297</ele>
        <time>2021-09-03T08:21:00Z</time>
      </trkpt>
      <trkpt lat="44.00919" lon="6.27501">
        <ele>646.79998779297</ele>
        <time>2021-09-03T08:21:08Z</time>
      </trkpt>
      <trkpt lat="44.00927" lon="6.27445">
        <ele>646.59997558594</ele>
        <time>2021-09-03T08:21:14Z</time>
      </trkpt>
      <trkpt lat="44.00928" lon="6.27363">
        <ele>645.79998779297</ele>
        <time>2021-09-03T08:21:22Z</time>
      </trkpt>
      <trkpt lat="44.00928" lon="6.27352">
        <ele>645.59997558594</ele>
        <time>2021-09-03T08:21:23Z</time>
      </trkpt>
      <trkpt lat="44.00928" lon="6.27318">
        <ele>645</ele>
        <time>2021-09-03T08:21:26Z</time>
      </trkpt>
      <trkpt lat="44.0093" lon="6.27249">
        <ele>644</ele>
        <time>2021-09-03T08:21:32Z</time>
      </trkpt>
      <trkpt lat="44.0093" lon="6.27237">
        <ele>644</ele>
        <time>2021-09-03T08:21:33Z</time>
      </trkpt>
      <trkpt lat="44.00935" lon="6.27167">
        <ele>643</ele>
        <time>2021-09-03T08:21:39Z</time>
      </trkpt>
      <trkpt lat="44.00944" lon="6.27121">
        <ele>641.79998779297</ele>
        <time>2021-09-03T08:21:43Z</time>
      </trkpt>
      <trkpt lat="44.00944" lon="6.27109">
        <ele>641.59997558594</ele>
        <time>2021-09-03T08:21:44Z</time>
      </trkpt>
      <trkpt lat="44.00943" lon="6.27086">
        <ele>641.20001220703</ele>
        <time>2021-09-03T08:21:46Z</time>
      </trkpt>
      <trkpt lat="44.00941" lon="6.27063">
        <ele>640.79998779297</ele>
        <time>2021-09-03T08:21:48Z</time>
      </trkpt>
      <trkpt lat="44.00939" lon="6.27052">
        <ele>640.59997558594</ele>
        <time>2021-09-03T08:21:49Z</time>
      </trkpt>
      <trkpt lat="44.00935" lon="6.2702">
        <ele>639.79998779297</ele>
        <time>2021-09-03T08:21:52Z</time>
      </trkpt>
      <trkpt lat="44.00933" lon="6.26985">
        <ele>639.40002441406</ele>
        <time>2021-09-03T08:21:55Z</time>
      </trkpt>
      <trkpt lat="44.00933" lon="6.26962">
        <ele>639</ele>
        <time>2021-09-03T08:21:57Z</time>
      </trkpt>
      <trkpt lat="44.00937" lon="6.26929">
        <ele>638.20001220703</ele>
        <time>2021-09-03T08:22:00Z</time>
      </trkpt>
      <trkpt lat="44.0094" lon="6.26897">
        <ele>638</ele>
        <time>2021-09-03T08:22:03Z</time>
      </trkpt>
      <trkpt lat="44.00944" lon="6.26822">
        <ele>637.40002441406</ele>
        <time>2021-09-03T08:22:10Z</time>
      </trkpt>
      <trkpt lat="44.00945" lon="6.26811">
        <ele>637.40002441406</ele>
        <time>2021-09-03T08:22:11Z</time>
      </trkpt>
      <trkpt lat="44.00946" lon="6.26769">
        <ele>637.20001220703</ele>
        <time>2021-09-03T08:22:15Z</time>
      </trkpt>
      <trkpt lat="44.00949" lon="6.26719">
        <ele>636.79998779297</ele>
        <time>2021-09-03T08:22:20Z</time>
      </trkpt>
      <trkpt lat="44.00953" lon="6.26642">
        <ele>636.40002441406</ele>
        <time>2021-09-03T08:22:28Z</time>
      </trkpt>
      <trkpt lat="44.00956" lon="6.26613">
        <ele>636.20001220703</ele>
        <time>2021-09-03T08:22:31Z</time>
      </trkpt>
      <trkpt lat="44.00957" lon="6.26594">
        <ele>636</ele>
        <time>2021-09-03T08:22:33Z</time>
      </trkpt>
      <trkpt lat="44.00962" lon="6.26517">
        <ele>635.40002441406</ele>
        <time>2021-09-03T08:22:41Z</time>
      </trkpt>
      <trkpt lat="44.00962" lon="6.26507">
        <ele>635.40002441406</ele>
        <time>2021-09-03T08:22:42Z</time>
      </trkpt>
      <trkpt lat="44.00966" lon="6.26458">
        <ele>635</ele>
        <time>2021-09-03T08:22:47Z</time>
      </trkpt>
      <trkpt lat="44.00968" lon="6.26409">
        <ele>634.40002441406</ele>
        <time>2021-09-03T08:22:52Z</time>
      </trkpt>
      <trkpt lat="44.00973" lon="6.26329">
        <ele>634</ele>
        <time>2021-09-03T08:23:00Z</time>
      </trkpt>
      <trkpt lat="44.00974" lon="6.26309">
        <ele>634</ele>
        <time>2021-09-03T08:23:02Z</time>
      </trkpt>
      <trkpt lat="44.0098" lon="6.26228">
        <ele>633.59997558594</ele>
        <time>2021-09-03T08:23:10Z</time>
      </trkpt>
      <trkpt lat="44.00985" lon="6.26146">
        <ele>633</ele>
        <time>2021-09-03T08:23:18Z</time>
      </trkpt>
      <trkpt lat="44.00985" lon="6.26136">
        <ele>633</ele>
        <time>2021-09-03T08:23:19Z</time>
      </trkpt>
      <trkpt lat="44.00986" lon="6.26126">
        <ele>632.79998779297</ele>
        <time>2021-09-03T08:23:20Z</time>
      </trkpt>
      <trkpt lat="44.00991" lon="6.26049">
        <ele>632.59997558594</ele>
        <time>2021-09-03T08:23:28Z</time>
      </trkpt>
      <trkpt lat="44.00992" lon="6.26039">
        <ele>632.59997558594</ele>
        <time>2021-09-03T08:23:29Z</time>
      </trkpt>
      <trkpt lat="44.01005" lon="6.25973">
        <ele>632</ele>
        <time>2021-09-03T08:23:36Z</time>
      </trkpt>
      <trkpt lat="44.0101" lon="6.25954">
        <ele>631.79998779297</ele>
        <time>2021-09-03T08:23:38Z</time>
      </trkpt>
      <trkpt lat="44.01025" lon="6.25907">
        <ele>631.59997558594</ele>
        <time>2021-09-03T08:23:43Z</time>
      </trkpt>
      <trkpt lat="44.01048" lon="6.25839">
        <ele>631.20001220703</ele>
        <time>2021-09-03T08:23:50Z</time>
      </trkpt>
      <trkpt lat="44.01052" lon="6.2583">
        <ele>631.20001220703</ele>
        <time>2021-09-03T08:23:51Z</time>
      </trkpt>
      <trkpt lat="44.01075" lon="6.25752">
        <ele>631</ele>
        <time>2021-09-03T08:23:59Z</time>
      </trkpt>
      <trkpt lat="44.0108" lon="6.25711">
        <ele>631</ele>
        <time>2021-09-03T08:24:03Z</time>
      </trkpt>
      <trkpt lat="44.0108" lon="6.25691">
        <ele>630.79998779297</ele>
        <time>2021-09-03T08:24:05Z</time>
      </trkpt>
      <trkpt lat="44.01079" lon="6.25611">
        <ele>630.20001220703</ele>
        <time>2021-09-03T08:24:13Z</time>
      </trkpt>
      <trkpt lat="44.01078" lon="6.25591">
        <ele>630</ele>
        <time>2021-09-03T08:24:15Z</time>
      </trkpt>
      <trkpt lat="44.01078" lon="6.25554">
        <ele>629.79998779297</ele>
        <time>2021-09-03T08:24:19Z</time>
      </trkpt>
      <trkpt lat="44.01078" lon="6.25517">
        <ele>629.79998779297</ele>
        <time>2021-09-03T08:24:23Z</time>
      </trkpt>
      <trkpt lat="44.01081" lon="6.25458">
        <ele>629.40002441406</ele>
        <time>2021-09-03T08:24:29Z</time>
      </trkpt>
      <trkpt lat="44.01083" lon="6.25448">
        <ele>629.40002441406</ele>
        <time>2021-09-03T08:24:30Z</time>
      </trkpt>
      <trkpt lat="44.011" lon="6.25415">
        <ele>629.20001220703</ele>
        <time>2021-09-03T08:24:34Z</time>
      </trkpt>
      <trkpt lat="44.01106" lon="6.25408">
        <ele>629.20001220703</ele>
        <time>2021-09-03T08:24:35Z</time>
      </trkpt>
      <trkpt lat="44.01119" lon="6.25396">
        <ele>629</ele>
        <time>2021-09-03T08:24:37Z</time>
      </trkpt>
      <trkpt lat="44.01132" lon="6.25389">
        <ele>629</ele>
        <time>2021-09-03T08:24:39Z</time>
      </trkpt>
      <trkpt lat="44.01145" lon="6.25384">
        <ele>629</ele>
        <time>2021-09-03T08:24:41Z</time>
      </trkpt>
      <trkpt lat="44.01185" lon="6.25367">
        <ele>629.20001220703</ele>
        <time>2021-09-03T08:24:47Z</time>
      </trkpt>
      <trkpt lat="44.01225" lon="6.25355">
        <ele>628.79998779297</ele>
        <time>2021-09-03T08:24:53Z</time>
      </trkpt>
      <trkpt lat="44.01374" lon="6.2532">
        <ele>627.40002441406</ele>
        <time>2021-09-03T08:25:20Z</time>
      </trkpt>
      <trkpt lat="44.01378" lon="6.2532">
        <ele>627.20001220703</ele>
        <time>2021-09-03T08:25:21Z</time>
      </trkpt>
      <trkpt lat="44.01383" lon="6.25317">
        <ele>626.79998779297</ele>
        <time>2021-09-03T08:25:22Z</time>
      </trkpt>
      <trkpt lat="44.01388" lon="6.25318">
        <ele>626.59997558594</ele>
        <time>2021-09-03T08:25:23Z</time>
      </trkpt>
      <trkpt lat="44.01397" lon="6.25321">
        <ele>626.40002441406</ele>
        <time>2021-09-03T08:25:25Z</time>
      </trkpt>
      <trkpt lat="44.0142" lon="6.25328">
        <ele>626.20001220703</ele>
        <time>2021-09-03T08:25:28Z</time>
      </trkpt>
      <trkpt lat="44.01427" lon="6.25328">
        <ele>626.20001220703</ele>
        <time>2021-09-03T08:25:29Z</time>
      </trkpt>
      <trkpt lat="44.01451" lon="6.25327">
        <ele>626.20001220703</ele>
        <time>2021-09-03T08:25:32Z</time>
      </trkpt>
      <trkpt lat="44.01457" lon="6.25325">
        <ele>626.20001220703</ele>
        <time>2021-09-03T08:25:33Z</time>
      </trkpt>
      <trkpt lat="44.01497" lon="6.2532">
        <ele>626.40002441406</ele>
        <time>2021-09-03T08:25:38Z</time>
      </trkpt>
      <trkpt lat="44.0156" lon="6.25338">
        <ele>626</ele>
        <time>2021-09-03T08:25:43Z</time>
      </trkpt>
      <trkpt lat="44.01581" lon="6.25331">
        <ele>626</ele>
        <time>2021-09-03T08:25:46Z</time>
      </trkpt>
      <trkpt lat="44.01625" lon="6.25312">
        <ele>625.59997558594</ele>
        <time>2021-09-03T08:25:53Z</time>
      </trkpt>
      <trkpt lat="44.01637" lon="6.25306">
        <ele>625.40002441406</ele>
        <time>2021-09-03T08:25:55Z</time>
      </trkpt>
      <trkpt lat="44.01665" lon="6.25281">
        <ele>625.59997558594</ele>
        <time>2021-09-03T08:26:01Z</time>
      </trkpt>
      <trkpt lat="44.01681" lon="6.25251">
        <ele>625.40002441406</ele>
        <time>2021-09-03T08:26:06Z</time>
      </trkpt>
      <trkpt lat="44.01689" lon="6.25211">
        <ele>625.40002441406</ele>
        <time>2021-09-03T08:26:11Z</time>
      </trkpt>
      <trkpt lat="44.01688" lon="6.25167">
        <ele>625</ele>
        <time>2021-09-03T08:26:16Z</time>
      </trkpt>
      <trkpt lat="44.01683" lon="6.25129">
        <ele>624.59997558594</ele>
        <time>2021-09-03T08:26:20Z</time>
      </trkpt>
      <trkpt lat="44.01681" lon="6.25109">
        <ele>624.20001220703</ele>
        <time>2021-09-03T08:26:22Z</time>
      </trkpt>
      <trkpt lat="44.01681" lon="6.25099">
        <ele>624</ele>
        <time>2021-09-03T08:26:23Z</time>
      </trkpt>
      <trkpt lat="44.01681" lon="6.25088">
        <ele>623.40002441406</ele>
        <time>2021-09-03T08:26:24Z</time>
      </trkpt>
      <trkpt lat="44.0168" lon="6.25027">
        <ele>622.40002441406</ele>
        <time>2021-09-03T08:26:30Z</time>
      </trkpt>
      <trkpt lat="44.01681" lon="6.25017">
        <ele>622.40002441406</ele>
        <time>2021-09-03T08:26:31Z</time>
      </trkpt>
      <trkpt lat="44.01683" lon="6.24948">
        <ele>621.40002441406</ele>
        <time>2021-09-03T08:26:38Z</time>
      </trkpt>
      <trkpt lat="44.01683" lon="6.24938">
        <ele>621.40002441406</ele>
        <time>2021-09-03T08:26:39Z</time>
      </trkpt>
      <trkpt lat="44.01685" lon="6.24857">
        <ele>620.79998779297</ele>
        <time>2021-09-03T08:26:47Z</time>
      </trkpt>
      <trkpt lat="44.01686" lon="6.24847">
        <ele>620.79998779297</ele>
        <time>2021-09-03T08:26:48Z</time>
      </trkpt>
      <trkpt lat="44.01688" lon="6.24798">
        <ele>620.20001220703</ele>
        <time>2021-09-03T08:26:53Z</time>
      </trkpt>
      <trkpt lat="44.01689" lon="6.24747">
        <ele>620</ele>
        <time>2021-09-03T08:26:58Z</time>
      </trkpt>
      <trkpt lat="44.0169" lon="6.24675">
        <ele>619.59997558594</ele>
        <time>2021-09-03T08:27:05Z</time>
      </trkpt>
      <trkpt lat="44.01694" lon="6.24645">
        <ele>619.40002441406</ele>
        <time>2021-09-03T08:27:08Z</time>
      </trkpt>
      <trkpt lat="44.01695" lon="6.24635">
        <ele>619.40002441406</ele>
        <time>2021-09-03T08:27:09Z</time>
      </trkpt>
      <trkpt lat="44.01696" lon="6.24615">
        <ele>619.20001220703</ele>
        <time>2021-09-03T08:27:11Z</time>
      </trkpt>
      <trkpt lat="44.01697" lon="6.24556">
        <ele>619</ele>
        <time>2021-09-03T08:27:17Z</time>
      </trkpt>
      <trkpt lat="44.01702" lon="6.2448">
        <ele>618.40002441406</ele>
        <time>2021-09-03T08:27:25Z</time>
      </trkpt>
      <trkpt lat="44.01704" lon="6.24442">
        <ele>618.20001220703</ele>
        <time>2021-09-03T08:27:29Z</time>
      </trkpt>
      <trkpt lat="44.01705" lon="6.24394">
        <ele>618.20001220703</ele>
        <time>2021-09-03T08:27:34Z</time>
      </trkpt>
      <trkpt lat="44.01704" lon="6.24319">
        <ele>618</ele>
        <time>2021-09-03T08:27:42Z</time>
      </trkpt>
      <trkpt lat="44.01704" lon="6.24309">
        <ele>618</ele>
        <time>2021-09-03T08:27:43Z</time>
      </trkpt>
      <trkpt lat="44.01697" lon="6.24247">
        <ele>618.40002441406</ele>
        <time>2021-09-03T08:27:50Z</time>
      </trkpt>
      <trkpt lat="44.01682" lon="6.24183">
        <ele>619</ele>
        <time>2021-09-03T08:27:58Z</time>
      </trkpt>
      <trkpt lat="44.01678" lon="6.24167">
        <ele>619.20001220703</ele>
        <time>2021-09-03T08:28:00Z</time>
      </trkpt>
      <trkpt lat="44.01665" lon="6.24108">
        <ele>620.20001220703</ele>
        <time>2021-09-03T08:28:08Z</time>
      </trkpt>
      <trkpt lat="44.01664" lon="6.24094">
        <ele>620.40002441406</ele>
        <time>2021-09-03T08:28:10Z</time>
      </trkpt>
      <trkpt lat="44.01661" lon="6.24059">
        <ele>620.79998779297</ele>
        <time>2021-09-03T08:28:15Z</time>
      </trkpt>
      <trkpt lat="44.01661" lon="6.24017">
        <ele>621.40002441406</ele>
        <time>2021-09-03T08:28:21Z</time>
      </trkpt>
      <trkpt lat="44.01661" lon="6.23997">
        <ele>621.59997558594</ele>
        <time>2021-09-03T08:28:24Z</time>
      </trkpt>
      <trkpt lat="44.0166" lon="6.2395">
        <ele>622.40002441406</ele>
        <time>2021-09-03T08:28:31Z</time>
      </trkpt>
      <trkpt lat="44.01659" lon="6.23936">
        <ele>622.59997558594</ele>
        <time>2021-09-03T08:28:33Z</time>
      </trkpt>
      <trkpt lat="44.01659" lon="6.23898">
        <ele>623.59997558594</ele>
        <time>2021-09-03T08:28:39Z</time>
      </trkpt>
      <trkpt lat="44.01659" lon="6.23879">
        <ele>623.79998779297</ele>
        <time>2021-09-03T08:28:42Z</time>
      </trkpt>
      <trkpt lat="44.01658" lon="6.23843">
        <ele>624.59997558594</ele>
        <time>2021-09-03T08:28:48Z</time>
      </trkpt>
      <trkpt lat="44.01658" lon="6.23826">
        <ele>625.40002441406</ele>
        <time>2021-09-03T08:28:51Z</time>
      </trkpt>
      <trkpt lat="44.01658" lon="6.23815">
        <ele>625.79998779297</ele>
        <time>2021-09-03T08:28:53Z</time>
      </trkpt>
      <trkpt lat="44.01659" lon="6.23794">
        <ele>626.20001220703</ele>
        <time>2021-09-03T08:28:58Z</time>
      </trkpt>
      <trkpt lat="44.01659" lon="6.23791">
        <ele>626.59997558594</ele>
        <time>2021-09-03T08:29:24Z</time>
      </trkpt>
      <trkpt lat="44.01659" lon="6.23789">
        <ele>626.59997558594</ele>
        <time>2021-09-03T08:29:25Z</time>
      </trkpt>
      <trkpt lat="44.01658" lon="6.23781">
        <ele>626.79998779297</ele>
        <time>2021-09-03T08:29:28Z</time>
      </trkpt>
      <trkpt lat="44.01658" lon="6.23775">
        <ele>627</ele>
        <time>2021-09-03T08:29:30Z</time>
      </trkpt>
      <trkpt lat="44.01656" lon="6.23751">
        <ele>627.40002441406</ele>
        <time>2021-09-03T08:29:36Z</time>
      </trkpt>
      <trkpt lat="44.01654" lon="6.23737">
        <ele>627.79998779297</ele>
        <time>2021-09-03T08:29:39Z</time>
      </trkpt>
      <trkpt lat="44.01649" lon="6.23708">
        <ele>628.79998779297</ele>
        <time>2021-09-03T08:29:45Z</time>
      </trkpt>
      <trkpt lat="44.01648" lon="6.23703">
        <ele>629</ele>
        <time>2021-09-03T08:29:46Z</time>
      </trkpt>
      <trkpt lat="44.01643" lon="6.23685">
        <ele>629.40002441406</ele>
        <time>2021-09-03T08:29:50Z</time>
      </trkpt>
      <trkpt lat="44.01638" lon="6.23659">
        <ele>630</ele>
        <time>2021-09-03T08:29:55Z</time>
      </trkpt>
      <trkpt lat="44.01632" lon="6.2364">
        <ele>630.40002441406</ele>
        <time>2021-09-03T08:29:59Z</time>
      </trkpt>
      <trkpt lat="44.01625" lon="6.23611">
        <ele>631</ele>
        <time>2021-09-03T08:30:05Z</time>
      </trkpt>
      <trkpt lat="44.01623" lon="6.23606">
        <ele>631.20001220703</ele>
        <time>2021-09-03T08:30:06Z</time>
      </trkpt>
      <trkpt lat="44.01614" lon="6.23572">
        <ele>632.20001220703</ele>
        <time>2021-09-03T08:30:13Z</time>
      </trkpt>
      <trkpt lat="44.01611" lon="6.23562">
        <ele>632.20001220703</ele>
        <time>2021-09-03T08:30:15Z</time>
      </trkpt>
      <trkpt lat="44.01601" lon="6.2352">
        <ele>633.20001220703</ele>
        <time>2021-09-03T08:30:23Z</time>
      </trkpt>
      <trkpt lat="44.016" lon="6.23514">
        <ele>633.20001220703</ele>
        <time>2021-09-03T08:30:24Z</time>
      </trkpt>
      <trkpt lat="44.01587" lon="6.23465">
        <ele>634</ele>
        <time>2021-09-03T08:30:33Z</time>
      </trkpt>
      <trkpt lat="44.01582" lon="6.23437">
        <ele>634.20001220703</ele>
        <time>2021-09-03T08:30:38Z</time>
      </trkpt>
      <trkpt lat="44.01578" lon="6.23414">
        <ele>634.40002441406</ele>
        <time>2021-09-03T08:30:42Z</time>
      </trkpt>
      <trkpt lat="44.01572" lon="6.23378">
        <ele>634.40002441406</ele>
        <time>2021-09-03T08:30:49Z</time>
      </trkpt>
      <trkpt lat="44.01566" lon="6.23329">
        <ele>634.59997558594</ele>
        <time>2021-09-03T08:30:57Z</time>
      </trkpt>
      <trkpt lat="44.0156" lon="6.23259">
        <ele>633.79998779297</ele>
        <time>2021-09-03T08:31:07Z</time>
      </trkpt>
      <trkpt lat="44.01555" lon="6.23213">
        <ele>633.20001220703</ele>
        <time>2021-09-03T08:31:13Z</time>
      </trkpt>
      <trkpt lat="44.01553" lon="6.23197">
        <ele>633</ele>
        <time>2021-09-03T08:31:15Z</time>
      </trkpt>
      <trkpt lat="44.01549" lon="6.23135">
        <ele>632</ele>
        <time>2021-09-03T08:31:22Z</time>
      </trkpt>
      <trkpt lat="44.01548" lon="6.23126">
        <ele>631.79998779297</ele>
        <time>2021-09-03T08:31:23Z</time>
      </trkpt>
      <trkpt lat="44.01549" lon="6.23068">
        <ele>631</ele>
        <time>2021-09-03T08:31:29Z</time>
      </trkpt>
      <trkpt lat="44.0155" lon="6.23048">
        <ele>630.59997558594</ele>
        <time>2021-09-03T08:31:31Z</time>
      </trkpt>
      <trkpt lat="44.01555" lon="6.22988">
        <ele>629.59997558594</ele>
        <time>2021-09-03T08:31:37Z</time>
      </trkpt>
      <trkpt lat="44.01558" lon="6.22946">
        <ele>629</ele>
        <time>2021-09-03T08:31:41Z</time>
      </trkpt>
      <trkpt lat="44.01559" lon="6.22925">
        <ele>628.59997558594</ele>
        <time>2021-09-03T08:31:43Z</time>
      </trkpt>
      <trkpt lat="44.01562" lon="6.2287">
        <ele>627.40002441406</ele>
        <time>2021-09-03T08:31:48Z</time>
      </trkpt>
      <trkpt lat="44.01563" lon="6.22859">
        <ele>627.20001220703</ele>
        <time>2021-09-03T08:31:49Z</time>
      </trkpt>
      <trkpt lat="44.01565" lon="6.22814">
        <ele>626.20001220703</ele>
        <time>2021-09-03T08:31:53Z</time>
      </trkpt>
      <trkpt lat="44.01567" lon="6.22758">
        <ele>625.20001220703</ele>
        <time>2021-09-03T08:31:58Z</time>
      </trkpt>
      <trkpt lat="44.01566" lon="6.22713">
        <ele>624</ele>
        <time>2021-09-03T08:32:02Z</time>
      </trkpt>
      <trkpt lat="44.01562" lon="6.22669">
        <ele>623.20001220703</ele>
        <time>2021-09-03T08:32:06Z</time>
      </trkpt>
      <trkpt lat="44.01561" lon="6.22658">
        <ele>622.79998779297</ele>
        <time>2021-09-03T08:32:07Z</time>
      </trkpt>
      <trkpt lat="44.0155" lon="6.22617">
        <ele>622.20001220703</ele>
        <time>2021-09-03T08:32:11Z</time>
      </trkpt>
      <trkpt lat="44.01536" lon="6.2258">
        <ele>621.59997558594</ele>
        <time>2021-09-03T08:32:15Z</time>
      </trkpt>
      <trkpt lat="44.01528" lon="6.22562">
        <ele>621.40002441406</ele>
        <time>2021-09-03T08:32:17Z</time>
      </trkpt>
      <trkpt lat="44.015" lon="6.22507">
        <ele>620.59997558594</ele>
        <time>2021-09-03T08:32:24Z</time>
      </trkpt>
      <trkpt lat="44.01491" lon="6.22493">
        <ele>620.20001220703</ele>
        <time>2021-09-03T08:32:26Z</time>
      </trkpt>
      <trkpt lat="44.01469" lon="6.22458">
        <ele>619.59997558594</ele>
        <time>2021-09-03T08:32:31Z</time>
      </trkpt>
      <trkpt lat="44.01455" lon="6.22439">
        <ele>619.20001220703</ele>
        <time>2021-09-03T08:32:34Z</time>
      </trkpt>
      <trkpt lat="44.01417" lon="6.22382">
        <ele>619.20001220703</ele>
        <time>2021-09-03T08:32:43Z</time>
      </trkpt>
      <trkpt lat="44.01381" lon="6.22328">
        <ele>619.40002441406</ele>
        <time>2021-09-03T08:32:52Z</time>
      </trkpt>
      <trkpt lat="44.01342" lon="6.22271">
        <ele>619</ele>
        <time>2021-09-03T08:33:02Z</time>
      </trkpt>
      <trkpt lat="44.01302" lon="6.22225">
        <ele>618.40002441406</ele>
        <time>2021-09-03T08:33:11Z</time>
      </trkpt>
      <trkpt lat="44.01255" lon="6.22174">
        <ele>617.40002441406</ele>
        <time>2021-09-03T08:33:21Z</time>
      </trkpt>
      <trkpt lat="44.01246" lon="6.22164">
        <ele>617.20001220703</ele>
        <time>2021-09-03T08:33:23Z</time>
      </trkpt>
      <trkpt lat="44.01204" lon="6.22112">
        <ele>616.59997558594</ele>
        <time>2021-09-03T08:33:32Z</time>
      </trkpt>
      <trkpt lat="44.0119" lon="6.22093">
        <ele>616.40002441406</ele>
        <time>2021-09-03T08:33:35Z</time>
      </trkpt>
      <trkpt lat="44.01168" lon="6.22061">
        <ele>615.40002441406</ele>
        <time>2021-09-03T08:33:40Z</time>
      </trkpt>
      <trkpt lat="44.01159" lon="6.22048">
        <ele>615.40002441406</ele>
        <time>2021-09-03T08:33:42Z</time>
      </trkpt>
      <trkpt lat="44.01126" lon="6.22005">
        <ele>615</ele>
        <time>2021-09-03T08:33:49Z</time>
      </trkpt>
      <trkpt lat="44.0111" lon="6.21989">
        <ele>614.79998779297</ele>
        <time>2021-09-03T08:33:52Z</time>
      </trkpt>
      <trkpt lat="44.01095" lon="6.21977">
        <ele>614.79998779297</ele>
        <time>2021-09-03T08:33:55Z</time>
      </trkpt>
      <trkpt lat="44.01067" lon="6.21953">
        <ele>614.20001220703</ele>
        <time>2021-09-03T08:34:01Z</time>
      </trkpt>
      <trkpt lat="44.01062" lon="6.21948">
        <ele>614.20001220703</ele>
        <time>2021-09-03T08:34:02Z</time>
      </trkpt>
      <trkpt lat="44.01014" lon="6.21908">
        <ele>613.40002441406</ele>
        <time>2021-09-03T08:34:11Z</time>
      </trkpt>
      <trkpt lat="44.01009" lon="6.21903">
        <ele>613.20001220703</ele>
        <time>2021-09-03T08:34:12Z</time>
      </trkpt>
      <trkpt lat="44.01" lon="6.21893">
        <ele>613.20001220703</ele>
        <time>2021-09-03T08:34:14Z</time>
      </trkpt>
      <trkpt lat="44.00979" lon="6.21864">
        <ele>612.79998779297</ele>
        <time>2021-09-03T08:34:19Z</time>
      </trkpt>
      <trkpt lat="44.00976" lon="6.21857">
        <ele>612.79998779297</ele>
        <time>2021-09-03T08:34:20Z</time>
      </trkpt>
      <trkpt lat="44.00965" lon="6.21828">
        <ele>612.79998779297</ele>
        <time>2021-09-03T08:34:24Z</time>
      </trkpt>
      <trkpt lat="44.00952" lon="6.21779">
        <ele>612</ele>
        <time>2021-09-03T08:34:30Z</time>
      </trkpt>
      <trkpt lat="44.00949" lon="6.21725">
        <ele>611.20001220703</ele>
        <time>2021-09-03T08:34:36Z</time>
      </trkpt>
      <trkpt lat="44.00949" lon="6.21715">
        <ele>611</ele>
        <time>2021-09-03T08:34:37Z</time>
      </trkpt>
      <trkpt lat="44.00956" lon="6.21671">
        <ele>610.40002441406</ele>
        <time>2021-09-03T08:34:42Z</time>
      </trkpt>
      <trkpt lat="44.00968" lon="6.21629">
        <ele>610</ele>
        <time>2021-09-03T08:34:47Z</time>
      </trkpt>
      <trkpt lat="44.00974" lon="6.21614">
        <ele>609.59997558594</ele>
        <time>2021-09-03T08:34:49Z</time>
      </trkpt>
      <trkpt lat="44.00998" lon="6.21565">
        <ele>609.40002441406</ele>
        <time>2021-09-03T08:34:56Z</time>
      </trkpt>
      <trkpt lat="44.01036" lon="6.21513">
        <ele>609.59997558594</ele>
        <time>2021-09-03T08:35:05Z</time>
      </trkpt>
      <trkpt lat="44.01067" lon="6.2148">
        <ele>610.20001220703</ele>
        <time>2021-09-03T08:35:12Z</time>
      </trkpt>
      <trkpt lat="44.01101" lon="6.2145">
        <ele>610.79998779297</ele>
        <time>2021-09-03T08:35:20Z</time>
      </trkpt>
      <trkpt lat="44.01105" lon="6.21447">
        <ele>611</ele>
        <time>2021-09-03T08:35:21Z</time>
      </trkpt>
      <trkpt lat="44.01133" lon="6.21429">
        <ele>612.20001220703</ele>
        <time>2021-09-03T08:35:28Z</time>
      </trkpt>
      <trkpt lat="44.01154" lon="6.21417">
        <ele>613.20001220703</ele>
        <time>2021-09-03T08:35:34Z</time>
      </trkpt>
      <trkpt lat="44.01161" lon="6.21414">
        <ele>613.59997558594</ele>
        <time>2021-09-03T08:35:36Z</time>
      </trkpt>
      <trkpt lat="44.01174" lon="6.21408">
        <ele>614.40002441406</ele>
        <time>2021-09-03T08:35:40Z</time>
      </trkpt>
      <trkpt lat="44.01189" lon="6.21402">
        <ele>615.20001220703</ele>
        <time>2021-09-03T08:35:45Z</time>
      </trkpt>
      <trkpt lat="44.01193" lon="6.21401">
        <ele>615.40002441406</ele>
        <time>2021-09-03T08:35:46Z</time>
      </trkpt>
      <trkpt lat="44.01214" lon="6.21395">
        <ele>616.59997558594</ele>
        <time>2021-09-03T08:35:53Z</time>
      </trkpt>
      <trkpt lat="44.01219" lon="6.21394">
        <ele>617</ele>
        <time>2021-09-03T08:35:55Z</time>
      </trkpt>
      <trkpt lat="44.01237" lon="6.21389">
        <ele>617.79998779297</ele>
        <time>2021-09-03T08:36:01Z</time>
      </trkpt>
      <trkpt lat="44.01243" lon="6.21388">
        <ele>618.20001220703</ele>
        <time>2021-09-03T08:36:03Z</time>
      </trkpt>
      <trkpt lat="44.0126" lon="6.21385">
        <ele>619</ele>
        <time>2021-09-03T08:36:09Z</time>
      </trkpt>
      <trkpt lat="44.01272" lon="6.21383">
        <ele>619.79998779297</ele>
        <time>2021-09-03T08:36:13Z</time>
      </trkpt>
      <trkpt lat="44.01278" lon="6.21383">
        <ele>620</ele>
        <time>2021-09-03T08:36:15Z</time>
      </trkpt>
      <trkpt lat="44.01294" lon="6.2138">
        <ele>621</ele>
        <time>2021-09-03T08:36:21Z</time>
      </trkpt>
      <trkpt lat="44.01297" lon="6.21379">
        <ele>621</ele>
        <time>2021-09-03T08:36:22Z</time>
      </trkpt>
      <trkpt lat="44.01318" lon="6.21376">
        <ele>622</ele>
        <time>2021-09-03T08:36:29Z</time>
      </trkpt>
      <trkpt lat="44.01321" lon="6.21375">
        <ele>622.20001220703</ele>
        <time>2021-09-03T08:36:30Z</time>
      </trkpt>
      <trkpt lat="44.01342" lon="6.21373">
        <ele>623.20001220703</ele>
        <time>2021-09-03T08:36:37Z</time>
      </trkpt>
      <trkpt lat="44.01345" lon="6.21372">
        <ele>623.40002441406</ele>
        <time>2021-09-03T08:36:38Z</time>
      </trkpt>
      <trkpt lat="44.01366" lon="6.2137">
        <ele>624.40002441406</ele>
        <time>2021-09-03T08:36:45Z</time>
      </trkpt>
      <trkpt lat="44.01368" lon="6.21369">
        <ele>624.59997558594</ele>
        <time>2021-09-03T08:36:46Z</time>
      </trkpt>
      <trkpt lat="44.01386" lon="6.21367">
        <ele>625.59997558594</ele>
        <time>2021-09-03T08:36:52Z</time>
      </trkpt>
      <trkpt lat="44.01389" lon="6.21367">
        <ele>625.79998779297</ele>
        <time>2021-09-03T08:36:53Z</time>
      </trkpt>
      <trkpt lat="44.01406" lon="6.21362">
        <ele>626.59997558594</ele>
        <time>2021-09-03T08:36:59Z</time>
      </trkpt>
      <trkpt lat="44.01409" lon="6.2136">
        <ele>626.79998779297</ele>
        <time>2021-09-03T08:37:00Z</time>
      </trkpt>
      <trkpt lat="44.01428" lon="6.21353">
        <ele>627.79998779297</ele>
        <time>2021-09-03T08:37:07Z</time>
      </trkpt>
      <trkpt lat="44.01446" lon="6.21347">
        <ele>628.79998779297</ele>
        <time>2021-09-03T08:37:13Z</time>
      </trkpt>
      <trkpt lat="44.01455" lon="6.21344">
        <ele>629.20001220703</ele>
        <time>2021-09-03T08:37:16Z</time>
      </trkpt>
      <trkpt lat="44.01463" lon="6.21341">
        <ele>629.79998779297</ele>
        <time>2021-09-03T08:37:19Z</time>
      </trkpt>
      <trkpt lat="44.0147" lon="6.21337">
        <ele>630.20001220703</ele>
        <time>2021-09-03T08:37:22Z</time>
      </trkpt>
      <trkpt lat="44.01472" lon="6.21334">
        <ele>630.20001220703</ele>
        <time>2021-09-03T08:37:23Z</time>
      </trkpt>
      <trkpt lat="44.0148" lon="6.21322">
        <ele>631</ele>
        <time>2021-09-03T08:37:27Z</time>
      </trkpt>
      <trkpt lat="44.01481" lon="6.21318">
        <ele>631.20001220703</ele>
        <time>2021-09-03T08:37:28Z</time>
      </trkpt>
      <trkpt lat="44.01474" lon="6.21297">
        <ele>631.40002441406</ele>
        <time>2021-09-03T08:37:32Z</time>
      </trkpt>
      <trkpt lat="44.01466" lon="6.21258">
        <ele>630.79998779297</ele>
        <time>2021-09-03T08:37:37Z</time>
      </trkpt>
      <trkpt lat="44.01461" lon="6.21213">
        <ele>629.79998779297</ele>
        <time>2021-09-03T08:37:42Z</time>
      </trkpt>
      <trkpt lat="44.0146" lon="6.21204">
        <ele>629.79998779297</ele>
        <time>2021-09-03T08:37:43Z</time>
      </trkpt>
      <trkpt lat="44.01455" lon="6.21166">
        <ele>628.79998779297</ele>
        <time>2021-09-03T08:37:47Z</time>
      </trkpt>
      <trkpt lat="44.01451" lon="6.21138">
        <ele>628</ele>
        <time>2021-09-03T08:37:50Z</time>
      </trkpt>
      <trkpt lat="44.0145" lon="6.21129">
        <ele>627.79998779297</ele>
        <time>2021-09-03T08:37:51Z</time>
      </trkpt>
      <trkpt lat="44.0144" lon="6.21086">
        <ele>627</ele>
        <time>2021-09-03T08:37:56Z</time>
      </trkpt>
      <trkpt lat="44.01437" lon="6.21078">
        <ele>627</ele>
        <time>2021-09-03T08:37:57Z</time>
      </trkpt>
      <trkpt lat="44.01426" lon="6.21056">
        <ele>627</ele>
        <time>2021-09-03T08:38:00Z</time>
      </trkpt>
      <trkpt lat="44.01416" lon="6.21044">
        <ele>626.79998779297</ele>
        <time>2021-09-03T08:38:02Z</time>
      </trkpt>
      <trkpt lat="44.01405" lon="6.21034">
        <ele>626.40002441406</ele>
        <time>2021-09-03T08:38:04Z</time>
      </trkpt>
      <trkpt lat="44.01398" lon="6.2103">
        <ele>626.20001220703</ele>
        <time>2021-09-03T08:38:05Z</time>
      </trkpt>
      <trkpt lat="44.01392" lon="6.21027">
        <ele>626.20001220703</ele>
        <time>2021-09-03T08:38:06Z</time>
      </trkpt>
      <trkpt lat="44.01355" lon="6.2102">
        <ele>625.59997558594</ele>
        <time>2021-09-03T08:38:11Z</time>
      </trkpt>
      <trkpt lat="44.01318" lon="6.21019">
        <ele>624.40002441406</ele>
        <time>2021-09-03T08:38:16Z</time>
      </trkpt>
      <trkpt lat="44.01295" lon="6.21013">
        <ele>623.79998779297</ele>
        <time>2021-09-03T08:38:19Z</time>
      </trkpt>
      <trkpt lat="44.01288" lon="6.2101">
        <ele>623.40002441406</ele>
        <time>2021-09-03T08:38:20Z</time>
      </trkpt>
      <trkpt lat="44.01269" lon="6.20994">
        <ele>622.79998779297</ele>
        <time>2021-09-03T08:38:23Z</time>
      </trkpt>
      <trkpt lat="44.0126" lon="6.2098">
        <ele>622.59997558594</ele>
        <time>2021-09-03T08:38:25Z</time>
      </trkpt>
      <trkpt lat="44.01246" lon="6.20962">
        <ele>622.59997558594</ele>
        <time>2021-09-03T08:38:28Z</time>
      </trkpt>
      <trkpt lat="44.01218" lon="6.2092">
        <ele>622.59997558594</ele>
        <time>2021-09-03T08:38:35Z</time>
      </trkpt>
      <trkpt lat="44.01196" lon="6.20881">
        <ele>622.59997558594</ele>
        <time>2021-09-03T08:38:41Z</time>
      </trkpt>
      <trkpt lat="44.01177" lon="6.20845">
        <ele>622.40002441406</ele>
        <time>2021-09-03T08:38:46Z</time>
      </trkpt>
      <trkpt lat="44.01171" lon="6.20829">
        <ele>622.40002441406</ele>
        <time>2021-09-03T08:38:48Z</time>
      </trkpt>
      <trkpt lat="44.01166" lon="6.20788">
        <ele>621.79998779297</ele>
        <time>2021-09-03T08:38:52Z</time>
      </trkpt>
      <trkpt lat="44.01164" lon="6.20767">
        <ele>621.20001220703</ele>
        <time>2021-09-03T08:38:54Z</time>
      </trkpt>
      <trkpt lat="44.01158" lon="6.20748">
        <ele>620.79998779297</ele>
        <time>2021-09-03T08:38:56Z</time>
      </trkpt>
      <trkpt lat="44.0114" lon="6.2073">
        <ele>620.20001220703</ele>
        <time>2021-09-03T08:38:59Z</time>
      </trkpt>
      <trkpt lat="44.01125" lon="6.20724">
        <ele>620</ele>
        <time>2021-09-03T08:39:01Z</time>
      </trkpt>
      <trkpt lat="44.01109" lon="6.20716">
        <ele>619.59997558594</ele>
        <time>2021-09-03T08:39:03Z</time>
      </trkpt>
      <trkpt lat="44.01102" lon="6.20712">
        <ele>619.20001220703</ele>
        <time>2021-09-03T08:39:04Z</time>
      </trkpt>
      <trkpt lat="44.01071" lon="6.20694">
        <ele>618.20001220703</ele>
        <time>2021-09-03T08:39:08Z</time>
      </trkpt>
      <trkpt lat="44.01057" lon="6.20682">
        <ele>617.40002441406</ele>
        <time>2021-09-03T08:39:10Z</time>
      </trkpt>
      <trkpt lat="44.0105" lon="6.20675">
        <ele>617</ele>
        <time>2021-09-03T08:39:11Z</time>
      </trkpt>
      <trkpt lat="44.01039" lon="6.20657">
        <ele>615.79998779297</ele>
        <time>2021-09-03T08:39:13Z</time>
      </trkpt>
      <trkpt lat="44.01023" lon="6.20631">
        <ele>615.20001220703</ele>
        <time>2021-09-03T08:39:16Z</time>
      </trkpt>
      <trkpt lat="44.01005" lon="6.20608">
        <ele>614.79998779297</ele>
        <time>2021-09-03T08:39:19Z</time>
      </trkpt>
      <trkpt lat="44.00992" lon="6.20595">
        <ele>614.20001220703</ele>
        <time>2021-09-03T08:39:21Z</time>
      </trkpt>
      <trkpt lat="44.0097" lon="6.20577">
        <ele>613.59997558594</ele>
        <time>2021-09-03T08:39:24Z</time>
      </trkpt>
      <trkpt lat="44.00932" lon="6.20546">
        <ele>612.40002441406</ele>
        <time>2021-09-03T08:39:29Z</time>
      </trkpt>
      <trkpt lat="44.00902" lon="6.20517">
        <ele>611</ele>
        <time>2021-09-03T08:39:33Z</time>
      </trkpt>
      <trkpt lat="44.00881" lon="6.20493">
        <ele>609.79998779297</ele>
        <time>2021-09-03T08:39:36Z</time>
      </trkpt>
      <trkpt lat="44.00873" lon="6.20486">
        <ele>609.20001220703</ele>
        <time>2021-09-03T08:39:37Z</time>
      </trkpt>
      <trkpt lat="44.00866" lon="6.20479">
        <ele>608.79998779297</ele>
        <time>2021-09-03T08:39:38Z</time>
      </trkpt>
      <trkpt lat="44.00845" lon="6.20456">
        <ele>607.79998779297</ele>
        <time>2021-09-03T08:39:41Z</time>
      </trkpt>
      <trkpt lat="44.00833" lon="6.2044">
        <ele>607</ele>
        <time>2021-09-03T08:39:43Z</time>
      </trkpt>
      <trkpt lat="44.00827" lon="6.20431">
        <ele>606.59997558594</ele>
        <time>2021-09-03T08:39:44Z</time>
      </trkpt>
      <trkpt lat="44.00796" lon="6.20387">
        <ele>605.79998779297</ele>
        <time>2021-09-03T08:39:50Z</time>
      </trkpt>
      <trkpt lat="44.00792" lon="6.20383">
        <ele>605.59997558594</ele>
        <time>2021-09-03T08:39:51Z</time>
      </trkpt>
      <trkpt lat="44.0078" lon="6.20363">
        <ele>604.40002441406</ele>
        <time>2021-09-03T08:39:55Z</time>
      </trkpt>
      <trkpt lat="44.00753" lon="6.20325">
        <ele>603.20001220703</ele>
        <time>2021-09-03T08:40:02Z</time>
      </trkpt>
      <trkpt lat="44.00745" lon="6.20313">
        <ele>602.79998779297</ele>
        <time>2021-09-03T08:40:04Z</time>
      </trkpt>
      <trkpt lat="44.0071" lon="6.20272">
        <ele>602.40002441406</ele>
        <time>2021-09-03T08:40:11Z</time>
      </trkpt>
      <trkpt lat="44.00685" lon="6.20245">
        <ele>602</ele>
        <time>2021-09-03T08:40:16Z</time>
      </trkpt>
      <trkpt lat="44.00675" lon="6.20235">
        <ele>601.79998779297</ele>
        <time>2021-09-03T08:40:18Z</time>
      </trkpt>
      <trkpt lat="44.0065" lon="6.20201">
        <ele>601.79998779297</ele>
        <time>2021-09-03T08:40:24Z</time>
      </trkpt>
      <trkpt lat="44.00612" lon="6.20157">
        <ele>601.20001220703</ele>
        <time>2021-09-03T08:40:32Z</time>
      </trkpt>
      <trkpt lat="44.00598" lon="6.20141">
        <ele>601</ele>
        <time>2021-09-03T08:40:35Z</time>
      </trkpt>
      <trkpt lat="44.00573" lon="6.20111">
        <ele>600.79998779297</ele>
        <time>2021-09-03T08:40:41Z</time>
      </trkpt>
      <trkpt lat="44.00566" lon="6.201">
        <ele>601</ele>
        <time>2021-09-03T08:40:43Z</time>
      </trkpt>
      <trkpt lat="44.00563" lon="6.20089">
        <ele>601</ele>
        <time>2021-09-03T08:40:45Z</time>
      </trkpt>
      <trkpt lat="44.00569" lon="6.20075">
        <ele>601.20001220703</ele>
        <time>2021-09-03T08:40:48Z</time>
      </trkpt>
      <trkpt lat="44.00586" lon="6.20073">
        <ele>601.59997558594</ele>
        <time>2021-09-03T08:40:52Z</time>
      </trkpt>
      <trkpt lat="44.006" lon="6.20076">
        <ele>602.20001220703</ele>
        <time>2021-09-03T08:40:56Z</time>
      </trkpt>
      <trkpt lat="44.00607" lon="6.20079">
        <ele>602.40002441406</ele>
        <time>2021-09-03T08:40:58Z</time>
      </trkpt>
      <trkpt lat="44.00621" lon="6.20084">
        <ele>603.40002441406</ele>
        <time>2021-09-03T08:41:03Z</time>
      </trkpt>
      <trkpt lat="44.00625" lon="6.20086">
        <ele>603.59997558594</ele>
        <time>2021-09-03T08:41:05Z</time>
      </trkpt>
      <trkpt lat="44.00635" lon="6.20085">
        <ele>604.40002441406</ele>
        <time>2021-09-03T08:41:09Z</time>
      </trkpt>
      <trkpt lat="44.00643" lon="6.20086">
        <ele>604.79998779297</ele>
        <time>2021-09-03T08:41:12Z</time>
      </trkpt>
      <trkpt lat="44.00652" lon="6.20082">
        <ele>605.59997558594</ele>
        <time>2021-09-03T08:41:16Z</time>
      </trkpt>
      <trkpt lat="44.00654" lon="6.20081">
        <ele>605.59997558594</ele>
        <time>2021-09-03T08:41:17Z</time>
      </trkpt>
      <trkpt lat="44.00665" lon="6.20074">
        <ele>606.59997558594</ele>
        <time>2021-09-03T08:41:22Z</time>
      </trkpt>
      <trkpt lat="44.00672" lon="6.2007">
        <ele>607</ele>
        <time>2021-09-03T08:41:25Z</time>
      </trkpt>
      <trkpt lat="44.00681" lon="6.20064">
        <ele>607.59997558594</ele>
        <time>2021-09-03T08:41:29Z</time>
      </trkpt>
      <trkpt lat="44.00685" lon="6.20061">
        <ele>608</ele>
        <time>2021-09-03T08:41:31Z</time>
      </trkpt>
      <trkpt lat="44.00696" lon="6.20054">
        <ele>608.79998779297</ele>
        <time>2021-09-03T08:41:36Z</time>
      </trkpt>
      <trkpt lat="44.00704" lon="6.20046">
        <ele>609.40002441406</ele>
        <time>2021-09-03T08:41:40Z</time>
      </trkpt>
      <trkpt lat="44.0071" lon="6.20041">
        <ele>609.79998779297</ele>
        <time>2021-09-03T08:41:43Z</time>
      </trkpt>
      <trkpt lat="44.00716" lon="6.20034">
        <ele>610.40002441406</ele>
        <time>2021-09-03T08:41:46Z</time>
      </trkpt>
      <trkpt lat="44.00727" lon="6.20024">
        <ele>611</ele>
        <time>2021-09-03T08:41:51Z</time>
      </trkpt>
      <trkpt lat="44.00733" lon="6.20015">
        <ele>611.40002441406</ele>
        <time>2021-09-03T08:41:54Z</time>
      </trkpt>
      <trkpt lat="44.00743" lon="6.19999">
        <ele>612</ele>
        <time>2021-09-03T08:41:59Z</time>
      </trkpt>
      <trkpt lat="44.00747" lon="6.19992">
        <ele>612.20001220703</ele>
        <time>2021-09-03T08:42:01Z</time>
      </trkpt>
      <trkpt lat="44.00758" lon="6.19966">
        <ele>612.79998779297</ele>
        <time>2021-09-03T08:42:08Z</time>
      </trkpt>
      <trkpt lat="44.0076" lon="6.19958">
        <ele>613.20001220703</ele>
        <time>2021-09-03T08:42:10Z</time>
      </trkpt>
      <trkpt lat="44.00767" lon="6.19939">
        <ele>613.59997558594</ele>
        <time>2021-09-03T08:42:15Z</time>
      </trkpt>
      <trkpt lat="44.00773" lon="6.19923">
        <ele>614.20001220703</ele>
        <time>2021-09-03T08:42:19Z</time>
      </trkpt>
      <trkpt lat="44.00782" lon="6.19901">
        <ele>614.59997558594</ele>
        <time>2021-09-03T08:42:25Z</time>
      </trkpt>
      <trkpt lat="44.00789" lon="6.19885">
        <ele>615.20001220703</ele>
        <time>2021-09-03T08:42:30Z</time>
      </trkpt>
      <trkpt lat="44.00795" lon="6.19875">
        <ele>615.59997558594</ele>
        <time>2021-09-03T08:42:33Z</time>
      </trkpt>
      <trkpt lat="44.00804" lon="6.19849">
        <ele>616.40002441406</ele>
        <time>2021-09-03T08:42:40Z</time>
      </trkpt>
      <trkpt lat="44.00817" lon="6.19821">
        <ele>617.40002441406</ele>
        <time>2021-09-03T08:42:48Z</time>
      </trkpt>
      <trkpt lat="44.00819" lon="6.19818">
        <ele>617.40002441406</ele>
        <time>2021-09-03T08:42:49Z</time>
      </trkpt>
      <trkpt lat="44.00834" lon="6.19802">
        <ele>618.59997558594</ele>
        <time>2021-09-03T08:42:56Z</time>
      </trkpt>
      <trkpt lat="44.00853" lon="6.19793">
        <ele>619.20001220703</ele>
        <time>2021-09-03T08:43:02Z</time>
      </trkpt>
      <trkpt lat="44.00867" lon="6.19793">
        <ele>619.59997558594</ele>
        <time>2021-09-03T08:43:06Z</time>
      </trkpt>
      <trkpt lat="44.00871" lon="6.19794">
        <ele>619.59997558594</ele>
        <time>2021-09-03T08:43:07Z</time>
      </trkpt>
      <trkpt lat="44.0089" lon="6.19805">
        <ele>620.20001220703</ele>
        <time>2021-09-03T08:43:13Z</time>
      </trkpt>
      <trkpt lat="44.00899" lon="6.19811">
        <ele>620.79998779297</ele>
        <time>2021-09-03T08:43:16Z</time>
      </trkpt>
      <trkpt lat="44.0091" lon="6.19819">
        <ele>621.20001220703</ele>
        <time>2021-09-03T08:43:20Z</time>
      </trkpt>
      <trkpt lat="44.00923" lon="6.19829">
        <ele>621.79998779297</ele>
        <time>2021-09-03T08:43:25Z</time>
      </trkpt>
      <trkpt lat="44.00931" lon="6.19834">
        <ele>622.20001220703</ele>
        <time>2021-09-03T08:43:28Z</time>
      </trkpt>
      <trkpt lat="44.00939" lon="6.19841">
        <ele>623</ele>
        <time>2021-09-03T08:43:32Z</time>
      </trkpt>
      <trkpt lat="44.00945" lon="6.19845">
        <ele>623.59997558594</ele>
        <time>2021-09-03T08:43:35Z</time>
      </trkpt>
      <trkpt lat="44.00953" lon="6.19851">
        <ele>624.20001220703</ele>
        <time>2021-09-03T08:43:39Z</time>
      </trkpt>
      <trkpt lat="44.0096" lon="6.19855">
        <ele>624.59997558594</ele>
        <time>2021-09-03T08:43:42Z</time>
      </trkpt>
      <trkpt lat="44.00967" lon="6.19856">
        <ele>625.40002441406</ele>
        <time>2021-09-03T08:43:45Z</time>
      </trkpt>
      <trkpt lat="44.00974" lon="6.19854">
        <ele>625.79998779297</ele>
        <time>2021-09-03T08:43:48Z</time>
      </trkpt>
      <trkpt lat="44.00982" lon="6.19844">
        <ele>626.40002441406</ele>
        <time>2021-09-03T08:43:52Z</time>
      </trkpt>
      <trkpt lat="44.00984" lon="6.19838">
        <ele>626.59997558594</ele>
        <time>2021-09-03T08:43:54Z</time>
      </trkpt>
      <trkpt lat="44.00988" lon="6.19809">
        <ele>626.59997558594</ele>
        <time>2021-09-03T08:44:00Z</time>
      </trkpt>
      <trkpt lat="44.00989" lon="6.19798">
        <ele>626.59997558594</ele>
        <time>2021-09-03T08:44:02Z</time>
      </trkpt>
      <trkpt lat="44.00992" lon="6.19775">
        <ele>626.59997558594</ele>
        <time>2021-09-03T08:44:06Z</time>
      </trkpt>
      <trkpt lat="44.00999" lon="6.1973">
        <ele>627</ele>
        <time>2021-09-03T08:44:14Z</time>
      </trkpt>
      <trkpt lat="44.01001" lon="6.19713">
        <ele>627.40002441406</ele>
        <time>2021-09-03T08:44:17Z</time>
      </trkpt>
      <trkpt lat="44.01004" lon="6.19691">
        <ele>627.79998779297</ele>
        <time>2021-09-03T08:44:21Z</time>
      </trkpt>
      <trkpt lat="44.0101" lon="6.19644">
        <ele>628.40002441406</ele>
        <time>2021-09-03T08:44:30Z</time>
      </trkpt>
      <trkpt lat="44.01011" lon="6.19639">
        <ele>628.40002441406</ele>
        <time>2021-09-03T08:44:31Z</time>
      </trkpt>
      <trkpt lat="44.01017" lon="6.19609">
        <ele>629</ele>
        <time>2021-09-03T08:44:37Z</time>
      </trkpt>
      <trkpt lat="44.01021" lon="6.19589">
        <ele>629.59997558594</ele>
        <time>2021-09-03T08:44:41Z</time>
      </trkpt>
      <trkpt lat="44.01026" lon="6.19568">
        <ele>630</ele>
        <time>2021-09-03T08:44:45Z</time>
      </trkpt>
      <trkpt lat="44.01033" lon="6.19537">
        <ele>630.59997558594</ele>
        <time>2021-09-03T08:44:51Z</time>
      </trkpt>
      <trkpt lat="44.01035" lon="6.19527">
        <ele>630.79998779297</ele>
        <time>2021-09-03T08:44:53Z</time>
      </trkpt>
      <trkpt lat="44.01046" lon="6.19476">
        <ele>631.59997558594</ele>
        <time>2021-09-03T08:45:03Z</time>
      </trkpt>
      <trkpt lat="44.01055" lon="6.19427">
        <ele>632.59997558594</ele>
        <time>2021-09-03T08:45:13Z</time>
      </trkpt>
      <trkpt lat="44.01059" lon="6.19397">
        <ele>633.40002441406</ele>
        <time>2021-09-03T08:45:19Z</time>
      </trkpt>
      <trkpt lat="44.01061" lon="6.19378">
        <ele>633.59997558594</ele>
        <time>2021-09-03T08:45:23Z</time>
      </trkpt>
      <trkpt lat="44.01063" lon="6.19353">
        <ele>634.20001220703</ele>
        <time>2021-09-03T08:45:28Z</time>
      </trkpt>
      <trkpt lat="44.01065" lon="6.19321">
        <ele>634.79998779297</ele>
        <time>2021-09-03T08:45:34Z</time>
      </trkpt>
      <trkpt lat="44.01066" lon="6.19295">
        <ele>635</ele>
        <time>2021-09-03T08:45:39Z</time>
      </trkpt>
      <trkpt lat="44.01068" lon="6.19257">
        <ele>635.79998779297</ele>
        <time>2021-09-03T08:45:46Z</time>
      </trkpt>
      <trkpt lat="44.0107" lon="6.19247">
        <ele>635.79998779297</ele>
        <time>2021-09-03T08:45:48Z</time>
      </trkpt>
      <trkpt lat="44.01073" lon="6.19204">
        <ele>636.59997558594</ele>
        <time>2021-09-03T08:45:56Z</time>
      </trkpt>
      <trkpt lat="44.01074" lon="6.19183">
        <ele>636.79998779297</ele>
        <time>2021-09-03T08:46:00Z</time>
      </trkpt>
      <trkpt lat="44.01076" lon="6.1915">
        <ele>637.20001220703</ele>
        <time>2021-09-03T08:46:06Z</time>
      </trkpt>
      <trkpt lat="44.01077" lon="6.19122">
        <ele>637.59997558594</ele>
        <time>2021-09-03T08:46:11Z</time>
      </trkpt>
      <trkpt lat="44.01078" lon="6.19101">
        <ele>637.79998779297</ele>
        <time>2021-09-03T08:46:15Z</time>
      </trkpt>
      <trkpt lat="44.01079" lon="6.19096">
        <ele>638</ele>
        <time>2021-09-03T08:46:16Z</time>
      </trkpt>
      <trkpt lat="44.01081" lon="6.19063">
        <ele>639</ele>
        <time>2021-09-03T08:46:23Z</time>
      </trkpt>
      <trkpt lat="44.01082" lon="6.19053">
        <ele>639.20001220703</ele>
        <time>2021-09-03T08:46:25Z</time>
      </trkpt>
      <trkpt lat="44.01086" lon="6.19013">
        <ele>640</ele>
        <time>2021-09-03T08:46:33Z</time>
      </trkpt>
      <trkpt lat="44.01088" lon="6.18967">
        <ele>641</ele>
        <time>2021-09-03T08:46:42Z</time>
      </trkpt>
      <trkpt lat="44.01088" lon="6.18956">
        <ele>641.20001220703</ele>
        <time>2021-09-03T08:46:44Z</time>
      </trkpt>
      <trkpt lat="44.01088" lon="6.1892">
        <ele>642.40002441406</ele>
        <time>2021-09-03T08:46:51Z</time>
      </trkpt>
      <trkpt lat="44.01091" lon="6.18874">
        <ele>643</ele>
        <time>2021-09-03T08:47:00Z</time>
      </trkpt>
      <trkpt lat="44.01104" lon="6.1885">
        <ele>643.40002441406</ele>
        <time>2021-09-03T08:47:06Z</time>
      </trkpt>
      <trkpt lat="44.01123" lon="6.18831">
        <ele>644.40002441406</ele>
        <time>2021-09-03T08:47:13Z</time>
      </trkpt>
      <trkpt lat="44.01126" lon="6.18829">
        <ele>644.59997558594</ele>
        <time>2021-09-03T08:47:14Z</time>
      </trkpt>
      <trkpt lat="44.01145" lon="6.18813">
        <ele>645.20001220703</ele>
        <time>2021-09-03T08:47:21Z</time>
      </trkpt>
      <trkpt lat="44.01155" lon="6.18804">
        <ele>645.59997558594</ele>
        <time>2021-09-03T08:47:25Z</time>
      </trkpt>
      <trkpt lat="44.01162" lon="6.18797">
        <ele>646</ele>
        <time>2021-09-03T08:47:28Z</time>
      </trkpt>
      <trkpt lat="44.01175" lon="6.18784">
        <ele>646.59997558594</ele>
        <time>2021-09-03T08:47:33Z</time>
      </trkpt>
      <trkpt lat="44.01181" lon="6.18775">
        <ele>646.79998779297</ele>
        <time>2021-09-03T08:47:36Z</time>
      </trkpt>
      <trkpt lat="44.01188" lon="6.1876">
        <ele>647.59997558594</ele>
        <time>2021-09-03T08:47:41Z</time>
      </trkpt>
      <trkpt lat="44.01191" lon="6.18752">
        <ele>648</ele>
        <time>2021-09-03T08:47:43Z</time>
      </trkpt>
      <trkpt lat="44.01195" lon="6.18737">
        <ele>648.79998779297</ele>
        <time>2021-09-03T08:47:47Z</time>
      </trkpt>
      <trkpt lat="44.01202" lon="6.18719">
        <ele>649.59997558594</ele>
        <time>2021-09-03T08:47:52Z</time>
      </trkpt>
      <trkpt lat="44.01204" lon="6.18711">
        <ele>649.79998779297</ele>
        <time>2021-09-03T08:47:54Z</time>
      </trkpt>
      <trkpt lat="44.01211" lon="6.1869">
        <ele>650.79998779297</ele>
        <time>2021-09-03T08:48:00Z</time>
      </trkpt>
      <trkpt lat="44.01213" lon="6.18686">
        <ele>650.79998779297</ele>
        <time>2021-09-03T08:48:01Z</time>
      </trkpt>
      <trkpt lat="44.01222" lon="6.18657">
        <ele>651.79998779297</ele>
        <time>2021-09-03T08:48:08Z</time>
      </trkpt>
      <trkpt lat="44.01225" lon="6.18649">
        <ele>652</ele>
        <time>2021-09-03T08:48:10Z</time>
      </trkpt>
      <trkpt lat="44.01232" lon="6.18626">
        <ele>652.59997558594</ele>
        <time>2021-09-03T08:48:16Z</time>
      </trkpt>
      <trkpt lat="44.01239" lon="6.18608">
        <ele>653</ele>
        <time>2021-09-03T08:48:21Z</time>
      </trkpt>
      <trkpt lat="44.01244" lon="6.18593">
        <ele>653.40002441406</ele>
        <time>2021-09-03T08:48:25Z</time>
      </trkpt>
      <trkpt lat="44.01251" lon="6.18576">
        <ele>654.20001220703</ele>
        <time>2021-09-03T08:48:30Z</time>
      </trkpt>
      <trkpt lat="44.01252" lon="6.18572">
        <ele>654.20001220703</ele>
        <time>2021-09-03T08:48:31Z</time>
      </trkpt>
      <trkpt lat="44.01263" lon="6.1854">
        <ele>655.20001220703</ele>
        <time>2021-09-03T08:48:40Z</time>
      </trkpt>
      <trkpt lat="44.01273" lon="6.1851">
        <ele>656</ele>
        <time>2021-09-03T08:48:48Z</time>
      </trkpt>
      <trkpt lat="44.01275" lon="6.18507">
        <ele>656.20001220703</ele>
        <time>2021-09-03T08:48:49Z</time>
      </trkpt>
      <trkpt lat="44.01284" lon="6.18479">
        <ele>657.20001220703</ele>
        <time>2021-09-03T08:48:57Z</time>
      </trkpt>
      <trkpt lat="44.01286" lon="6.18476">
        <ele>657.40002441406</ele>
        <time>2021-09-03T08:48:58Z</time>
      </trkpt>
      <trkpt lat="44.01293" lon="6.18457">
        <ele>658.40002441406</ele>
        <time>2021-09-03T08:49:04Z</time>
      </trkpt>
      <trkpt lat="44.01295" lon="6.18451">
        <ele>658.59997558594</ele>
        <time>2021-09-03T08:49:06Z</time>
      </trkpt>
      <trkpt lat="44.013" lon="6.18439">
        <ele>659.40002441406</ele>
        <time>2021-09-03T08:49:10Z</time>
      </trkpt>
      <trkpt lat="44.01307" lon="6.18425">
        <ele>660.20001220703</ele>
        <time>2021-09-03T08:49:15Z</time>
      </trkpt>
      <trkpt lat="44.01309" lon="6.18423">
        <ele>660.40002441406</ele>
        <time>2021-09-03T08:49:16Z</time>
      </trkpt>
      <trkpt lat="44.01317" lon="6.18405">
        <ele>661.40002441406</ele>
        <time>2021-09-03T08:49:22Z</time>
      </trkpt>
      <trkpt lat="44.0132" lon="6.18401">
        <ele>661.79998779297</ele>
        <time>2021-09-03T08:49:24Z</time>
      </trkpt>
      <trkpt lat="44.01329" lon="6.18383">
        <ele>662.59997558594</ele>
        <time>2021-09-03T08:49:30Z</time>
      </trkpt>
      <trkpt lat="44.01338" lon="6.18366">
        <ele>663.59997558594</ele>
        <time>2021-09-03T08:49:36Z</time>
      </trkpt>
      <trkpt lat="44.0134" lon="6.18363">
        <ele>663.59997558594</ele>
        <time>2021-09-03T08:49:37Z</time>
      </trkpt>
      <trkpt lat="44.01351" lon="6.18342">
        <ele>664.59997558594</ele>
        <time>2021-09-03T08:49:44Z</time>
      </trkpt>
      <trkpt lat="44.01353" lon="6.18339">
        <ele>664.79998779297</ele>
        <time>2021-09-03T08:49:45Z</time>
      </trkpt>
      <trkpt lat="44.01363" lon="6.18321">
        <ele>665.59997558594</ele>
        <time>2021-09-03T08:49:51Z</time>
      </trkpt>
      <trkpt lat="44.01367" lon="6.18311">
        <ele>665.79998779297</ele>
        <time>2021-09-03T08:49:54Z</time>
      </trkpt>
      <trkpt lat="44.01376" lon="6.18295">
        <ele>666.20001220703</ele>
        <time>2021-09-03T08:49:59Z</time>
      </trkpt>
      <trkpt lat="44.01383" lon="6.18278">
        <ele>666.79998779297</ele>
        <time>2021-09-03T08:50:04Z</time>
      </trkpt>
      <trkpt lat="44.01387" lon="6.18271">
        <ele>667</ele>
        <time>2021-09-03T08:50:06Z</time>
      </trkpt>
      <trkpt lat="44.01399" lon="6.18248">
        <ele>667.59997558594</ele>
        <time>2021-09-03T08:50:13Z</time>
      </trkpt>
      <trkpt lat="44.01405" lon="6.18238">
        <ele>667.79998779297</ele>
        <time>2021-09-03T08:50:16Z</time>
      </trkpt>
      <trkpt lat="44.01416" lon="6.18218">
        <ele>668.59997558594</ele>
        <time>2021-09-03T08:50:22Z</time>
      </trkpt>
      <trkpt lat="44.01423" lon="6.18204">
        <ele>668.79998779297</ele>
        <time>2021-09-03T08:50:26Z</time>
      </trkpt>
      <trkpt lat="44.01428" lon="6.18193">
        <ele>669.20001220703</ele>
        <time>2021-09-03T08:50:29Z</time>
      </trkpt>
      <trkpt lat="44.0144" lon="6.18175">
        <ele>670</ele>
        <time>2021-09-03T08:50:35Z</time>
      </trkpt>
      <trkpt lat="44.01444" lon="6.18168">
        <ele>670</ele>
        <time>2021-09-03T08:50:37Z</time>
      </trkpt>
      <trkpt lat="44.01462" lon="6.18144">
        <ele>671</ele>
        <time>2021-09-03T08:50:45Z</time>
      </trkpt>
      <trkpt lat="44.01464" lon="6.18141">
        <ele>671.20001220703</ele>
        <time>2021-09-03T08:50:46Z</time>
      </trkpt>
      <trkpt lat="44.01486" lon="6.18116">
        <ele>671.79998779297</ele>
        <time>2021-09-03T08:50:54Z</time>
      </trkpt>
      <trkpt lat="44.01493" lon="6.18105">
        <ele>672</ele>
        <time>2021-09-03T08:50:57Z</time>
      </trkpt>
      <trkpt lat="44.01506" lon="6.18087">
        <ele>672.20001220703</ele>
        <time>2021-09-03T08:51:02Z</time>
      </trkpt>
      <trkpt lat="44.01525" lon="6.18062">
        <ele>672.59997558594</ele>
        <time>2021-09-03T08:51:09Z</time>
      </trkpt>
      <trkpt lat="44.01549" lon="6.18033">
        <ele>672.79998779297</ele>
        <time>2021-09-03T08:51:17Z</time>
      </trkpt>
      <trkpt lat="44.01563" lon="6.18014">
        <ele>672.59997558594</ele>
        <time>2021-09-03T08:51:21Z</time>
      </trkpt>
      <trkpt lat="44.01574" lon="6.17998">
        <ele>672.20001220703</ele>
        <time>2021-09-03T08:51:24Z</time>
      </trkpt>
      <trkpt lat="44.01599" lon="6.17963">
        <ele>671</ele>
        <time>2021-09-03T08:51:30Z</time>
      </trkpt>
      <trkpt lat="44.01604" lon="6.17957">
        <ele>670.79998779297</ele>
        <time>2021-09-03T08:51:31Z</time>
      </trkpt>
      <trkpt lat="44.01632" lon="6.1793">
        <ele>669.59997558594</ele>
        <time>2021-09-03T08:51:36Z</time>
      </trkpt>
      <trkpt lat="44.01658" lon="6.17913">
        <ele>668.40002441406</ele>
        <time>2021-09-03T08:51:40Z</time>
      </trkpt>
      <trkpt lat="44.01671" lon="6.17906">
        <ele>668</ele>
        <time>2021-09-03T08:51:42Z</time>
      </trkpt>
      <trkpt lat="44.01692" lon="6.17899">
        <ele>667.40002441406</ele>
        <time>2021-09-03T08:51:45Z</time>
      </trkpt>
      <trkpt lat="44.01713" lon="6.17894">
        <ele>666.79998779297</ele>
        <time>2021-09-03T08:51:48Z</time>
      </trkpt>
      <trkpt lat="44.01727" lon="6.17891">
        <ele>666.40002441406</ele>
        <time>2021-09-03T08:51:50Z</time>
      </trkpt>
      <trkpt lat="44.01762" lon="6.17887">
        <ele>665.20001220703</ele>
        <time>2021-09-03T08:51:55Z</time>
      </trkpt>
      <trkpt lat="44.01788" lon="6.17892">
        <ele>664.59997558594</ele>
        <time>2021-09-03T08:51:59Z</time>
      </trkpt>
      <trkpt lat="44.01794" lon="6.17894">
        <ele>664.59997558594</ele>
        <time>2021-09-03T08:52:00Z</time>
      </trkpt>
      <trkpt lat="44.018" lon="6.17896">
        <ele>664.40002441406</ele>
        <time>2021-09-03T08:52:01Z</time>
      </trkpt>
      <trkpt lat="44.01806" lon="6.17898">
        <ele>664</ele>
        <time>2021-09-03T08:52:02Z</time>
      </trkpt>
      <trkpt lat="44.01825" lon="6.17906">
        <ele>663.40002441406</ele>
        <time>2021-09-03T08:52:05Z</time>
      </trkpt>
      <trkpt lat="44.01831" lon="6.17907">
        <ele>663.40002441406</ele>
        <time>2021-09-03T08:52:06Z</time>
      </trkpt>
      <trkpt lat="44.01858" lon="6.17912">
        <ele>663</ele>
        <time>2021-09-03T08:52:10Z</time>
      </trkpt>
      <trkpt lat="44.01864" lon="6.17912">
        <ele>662.79998779297</ele>
        <time>2021-09-03T08:52:11Z</time>
      </trkpt>
      <trkpt lat="44.01896" lon="6.17911">
        <ele>662</ele>
        <time>2021-09-03T08:52:16Z</time>
      </trkpt>
      <trkpt lat="44.01908" lon="6.17911">
        <ele>662</ele>
        <time>2021-09-03T08:52:18Z</time>
      </trkpt>
      <trkpt lat="44.01947" lon="6.17913">
        <ele>661.79998779297</ele>
        <time>2021-09-03T08:52:24Z</time>
      </trkpt>
      <trkpt lat="44.01999" lon="6.17913">
        <ele>661</ele>
        <time>2021-09-03T08:52:32Z</time>
      </trkpt>
      <trkpt lat="44.02005" lon="6.17912">
        <ele>660.79998779297</ele>
        <time>2021-09-03T08:52:33Z</time>
      </trkpt>
      <trkpt lat="44.02058" lon="6.17897">
        <ele>659.79998779297</ele>
        <time>2021-09-03T08:52:41Z</time>
      </trkpt>
      <trkpt lat="44.02098" lon="6.17883">
        <ele>659</ele>
        <time>2021-09-03T08:52:47Z</time>
      </trkpt>
      <trkpt lat="44.02104" lon="6.17879">
        <ele>658.79998779297</ele>
        <time>2021-09-03T08:52:48Z</time>
      </trkpt>
      <trkpt lat="44.02122" lon="6.17865">
        <ele>658.40002441406</ele>
        <time>2021-09-03T08:52:51Z</time>
      </trkpt>
      <trkpt lat="44.02128" lon="6.1786">
        <ele>658.20001220703</ele>
        <time>2021-09-03T08:52:52Z</time>
      </trkpt>
      <trkpt lat="44.02145" lon="6.17844">
        <ele>657.79998779297</ele>
        <time>2021-09-03T08:52:55Z</time>
      </trkpt>
      <trkpt lat="44.02176" lon="6.17817">
        <ele>656.79998779297</ele>
        <time>2021-09-03T08:53:00Z</time>
      </trkpt>
      <trkpt lat="44.02182" lon="6.17813">
        <ele>656.59997558594</ele>
        <time>2021-09-03T08:53:01Z</time>
      </trkpt>
      <trkpt lat="44.02221" lon="6.17788">
        <ele>655.59997558594</ele>
        <time>2021-09-03T08:53:07Z</time>
      </trkpt>
      <trkpt lat="44.02234" lon="6.17779">
        <ele>655.20001220703</ele>
        <time>2021-09-03T08:53:09Z</time>
      </trkpt>
      <trkpt lat="44.02252" lon="6.17764">
        <ele>654.79998779297</ele>
        <time>2021-09-03T08:53:12Z</time>
      </trkpt>
      <trkpt lat="44.02261" lon="6.17748">
        <ele>654.59997558594</ele>
        <time>2021-09-03T08:53:14Z</time>
      </trkpt>
      <trkpt lat="44.0228" lon="6.17704">
        <ele>653.40002441406</ele>
        <time>2021-09-03T08:53:19Z</time>
      </trkpt>
      <trkpt lat="44.02285" lon="6.17695">
        <ele>653</ele>
        <time>2021-09-03T08:53:20Z</time>
      </trkpt>
      <trkpt lat="44.02295" lon="6.17677">
        <ele>652.40002441406</ele>
        <time>2021-09-03T08:53:22Z</time>
      </trkpt>
      <trkpt lat="44.02311" lon="6.17652">
        <ele>651.40002441406</ele>
        <time>2021-09-03T08:53:25Z</time>
      </trkpt>
      <trkpt lat="44.0233" lon="6.17615">
        <ele>650.20001220703</ele>
        <time>2021-09-03T08:53:29Z</time>
      </trkpt>
      <trkpt lat="44.02348" lon="6.17576">
        <ele>649</ele>
        <time>2021-09-03T08:53:33Z</time>
      </trkpt>
      <trkpt lat="44.02364" lon="6.17536">
        <ele>647.79998779297</ele>
        <time>2021-09-03T08:53:37Z</time>
      </trkpt>
      <trkpt lat="44.02378" lon="6.17507">
        <ele>646.59997558594</ele>
        <time>2021-09-03T08:53:40Z</time>
      </trkpt>
      <trkpt lat="44.02382" lon="6.17497">
        <ele>646.40002441406</ele>
        <time>2021-09-03T08:53:41Z</time>
      </trkpt>
      <trkpt lat="44.02391" lon="6.17478">
        <ele>645.59997558594</ele>
        <time>2021-09-03T08:53:43Z</time>
      </trkpt>
      <trkpt lat="44.02409" lon="6.17438">
        <ele>644.40002441406</ele>
        <time>2021-09-03T08:53:47Z</time>
      </trkpt>
      <trkpt lat="44.02424" lon="6.17408">
        <ele>643.20001220703</ele>
        <time>2021-09-03T08:53:50Z</time>
      </trkpt>
      <trkpt lat="44.02429" lon="6.17398">
        <ele>642.79998779297</ele>
        <time>2021-09-03T08:53:51Z</time>
      </trkpt>
      <trkpt lat="44.02438" lon="6.17377">
        <ele>642</ele>
        <time>2021-09-03T08:53:53Z</time>
      </trkpt>
      <trkpt lat="44.02459" lon="6.1734">
        <ele>640.59997558594</ele>
        <time>2021-09-03T08:53:57Z</time>
      </trkpt>
      <trkpt lat="44.02468" lon="6.17325">
        <ele>639.79998779297</ele>
        <time>2021-09-03T08:53:59Z</time>
      </trkpt>
      <trkpt lat="44.0247" lon="6.17317">
        <ele>639.59997558594</ele>
        <time>2021-09-03T08:54:00Z</time>
      </trkpt>
      <trkpt lat="44.02467" lon="6.17298">
        <ele>638.79998779297</ele>
        <time>2021-09-03T08:54:02Z</time>
      </trkpt>
      <trkpt lat="44.02465" lon="6.17289">
        <ele>638.40002441406</ele>
        <time>2021-09-03T08:54:03Z</time>
      </trkpt>
      <trkpt lat="44.02464" lon="6.17279">
        <ele>637.59997558594</ele>
        <time>2021-09-03T08:54:04Z</time>
      </trkpt>
      <trkpt lat="44.02465" lon="6.17269">
        <ele>637.20001220703</ele>
        <time>2021-09-03T08:54:05Z</time>
      </trkpt>
      <trkpt lat="44.02465" lon="6.17259">
        <ele>637</ele>
        <time>2021-09-03T08:54:06Z</time>
      </trkpt>
      <trkpt lat="44.02468" lon="6.17239">
        <ele>636.59997558594</ele>
        <time>2021-09-03T08:54:08Z</time>
      </trkpt>
      <trkpt lat="44.02477" lon="6.17211">
        <ele>636.20001220703</ele>
        <time>2021-09-03T08:54:11Z</time>
      </trkpt>
      <trkpt lat="44.02481" lon="6.17202">
        <ele>636.20001220703</ele>
        <time>2021-09-03T08:54:12Z</time>
      </trkpt>
      <trkpt lat="44.02485" lon="6.17193">
        <ele>636</ele>
        <time>2021-09-03T08:54:13Z</time>
      </trkpt>
      <trkpt lat="44.02503" lon="6.17154">
        <ele>635.20001220703</ele>
        <time>2021-09-03T08:54:17Z</time>
      </trkpt>
      <trkpt lat="44.02517" lon="6.17123">
        <ele>634.20001220703</ele>
        <time>2021-09-03T08:54:20Z</time>
      </trkpt>
      <trkpt lat="44.02532" lon="6.17092">
        <ele>633</ele>
        <time>2021-09-03T08:54:23Z</time>
      </trkpt>
      <trkpt lat="44.02539" lon="6.17082">
        <ele>632.59997558594</ele>
        <time>2021-09-03T08:54:24Z</time>
      </trkpt>
      <trkpt lat="44.02554" lon="6.17066">
        <ele>632</ele>
        <time>2021-09-03T08:54:26Z</time>
      </trkpt>
      <trkpt lat="44.0257" lon="6.17053">
        <ele>630.79998779297</ele>
        <time>2021-09-03T08:54:28Z</time>
      </trkpt>
      <trkpt lat="44.02595" lon="6.17043">
        <ele>629.59997558594</ele>
        <time>2021-09-03T08:54:31Z</time>
      </trkpt>
      <trkpt lat="44.02604" lon="6.17043">
        <ele>629</ele>
        <time>2021-09-03T08:54:32Z</time>
      </trkpt>
      <trkpt lat="44.02623" lon="6.17043">
        <ele>628</ele>
        <time>2021-09-03T08:54:34Z</time>
      </trkpt>
      <trkpt lat="44.02647" lon="6.1705">
        <ele>627</ele>
        <time>2021-09-03T08:54:36Z</time>
      </trkpt>
      <trkpt lat="44.02657" lon="6.17051">
        <ele>626.59997558594</ele>
        <time>2021-09-03T08:54:37Z</time>
      </trkpt>
      <trkpt lat="44.02678" lon="6.17058">
        <ele>625.40002441406</ele>
        <time>2021-09-03T08:54:39Z</time>
      </trkpt>
      <trkpt lat="44.02687" lon="6.17062">
        <ele>624.79998779297</ele>
        <time>2021-09-03T08:54:40Z</time>
      </trkpt>
      <trkpt lat="44.02697" lon="6.17067">
        <ele>624.40002441406</ele>
        <time>2021-09-03T08:54:41Z</time>
      </trkpt>
      <trkpt lat="44.02706" lon="6.17074">
        <ele>623.79998779297</ele>
        <time>2021-09-03T08:54:42Z</time>
      </trkpt>
      <trkpt lat="44.02722" lon="6.17091">
        <ele>622.79998779297</ele>
        <time>2021-09-03T08:54:44Z</time>
      </trkpt>
      <trkpt lat="44.02737" lon="6.17109">
        <ele>621.59997558594</ele>
        <time>2021-09-03T08:54:46Z</time>
      </trkpt>
      <trkpt lat="44.02751" lon="6.17127">
        <ele>620.59997558594</ele>
        <time>2021-09-03T08:54:48Z</time>
      </trkpt>
      <trkpt lat="44.02765" lon="6.17141">
        <ele>619.40002441406</ele>
        <time>2021-09-03T08:54:50Z</time>
      </trkpt>
      <trkpt lat="44.02778" lon="6.17154">
        <ele>617.79998779297</ele>
        <time>2021-09-03T08:54:52Z</time>
      </trkpt>
      <trkpt lat="44.02792" lon="6.17163">
        <ele>616.40002441406</ele>
        <time>2021-09-03T08:54:54Z</time>
      </trkpt>
      <trkpt lat="44.02799" lon="6.17166">
        <ele>615.79998779297</ele>
        <time>2021-09-03T08:54:55Z</time>
      </trkpt>
      <trkpt lat="44.02805" lon="6.1717">
        <ele>615</ele>
        <time>2021-09-03T08:54:56Z</time>
      </trkpt>
      <trkpt lat="44.02811" lon="6.17174">
        <ele>614</ele>
        <time>2021-09-03T08:54:58Z</time>
      </trkpt>
      <trkpt lat="44.02813" lon="6.17176">
        <ele>612.59997558594</ele>
        <time>2021-09-03T08:55:00Z</time>
      </trkpt>
      <trkpt lat="44.02813" lon="6.17178">
        <ele>610.40002441406</ele>
        <time>2021-09-03T08:55:30Z</time>
      </trkpt>
      <trkpt lat="44.02817" lon="6.17182">
        <ele>610.40002441406</ele>
        <time>2021-09-03T08:55:32Z</time>
      </trkpt>
      <trkpt lat="44.02834" lon="6.17198">
        <ele>610</ele>
        <time>2021-09-03T08:55:38Z</time>
      </trkpt>
      <trkpt lat="44.02846" lon="6.1721">
        <ele>609.20001220703</ele>
        <time>2021-09-03T08:55:41Z</time>
      </trkpt>
      <trkpt lat="44.02854" lon="6.17222">
        <ele>608.79998779297</ele>
        <time>2021-09-03T08:55:43Z</time>
      </trkpt>
      <trkpt lat="44.02872" lon="6.17239">
        <ele>608.20001220703</ele>
        <time>2021-09-03T08:55:46Z</time>
      </trkpt>
      <trkpt lat="44.02878" lon="6.17245">
        <ele>608</ele>
        <time>2021-09-03T08:55:47Z</time>
      </trkpt>
      <trkpt lat="44.02899" lon="6.17263">
        <ele>606.79998779297</ele>
        <time>2021-09-03T08:55:50Z</time>
      </trkpt>
      <trkpt lat="44.02914" lon="6.17273">
        <ele>606.20001220703</ele>
        <time>2021-09-03T08:55:52Z</time>
      </trkpt>
      <trkpt lat="44.02923" lon="6.17276">
        <ele>605.79998779297</ele>
        <time>2021-09-03T08:55:53Z</time>
      </trkpt>
      <trkpt lat="44.0294" lon="6.1728">
        <ele>604.79998779297</ele>
        <time>2021-09-03T08:55:55Z</time>
      </trkpt>
      <trkpt lat="44.02949" lon="6.1728">
        <ele>604.40002441406</ele>
        <time>2021-09-03T08:55:56Z</time>
      </trkpt>
      <trkpt lat="44.02958" lon="6.1728">
        <ele>603.79998779297</ele>
        <time>2021-09-03T08:55:57Z</time>
      </trkpt>
      <trkpt lat="44.02977" lon="6.17281">
        <ele>603</ele>
        <time>2021-09-03T08:55:59Z</time>
      </trkpt>
      <trkpt lat="44.03005" lon="6.17283">
        <ele>601.79998779297</ele>
        <time>2021-09-03T08:56:02Z</time>
      </trkpt>
      <trkpt lat="44.03014" lon="6.17284">
        <ele>601.40002441406</ele>
        <time>2021-09-03T08:56:03Z</time>
      </trkpt>
      <trkpt lat="44.03023" lon="6.17284">
        <ele>600.59997558594</ele>
        <time>2021-09-03T08:56:04Z</time>
      </trkpt>
      <trkpt lat="44.03058" lon="6.17286">
        <ele>599.59997558594</ele>
        <time>2021-09-03T08:56:08Z</time>
      </trkpt>
      <trkpt lat="44.03083" lon="6.17283">
        <ele>599</ele>
        <time>2021-09-03T08:56:11Z</time>
      </trkpt>
      <trkpt lat="44.031" lon="6.17279">
        <ele>598.59997558594</ele>
        <time>2021-09-03T08:56:13Z</time>
      </trkpt>
      <trkpt lat="44.03108" lon="6.17275">
        <ele>598.20001220703</ele>
        <time>2021-09-03T08:56:14Z</time>
      </trkpt>
      <trkpt lat="44.03123" lon="6.17266">
        <ele>597.59997558594</ele>
        <time>2021-09-03T08:56:16Z</time>
      </trkpt>
      <trkpt lat="44.0313" lon="6.17262">
        <ele>597.59997558594</ele>
        <time>2021-09-03T08:56:17Z</time>
      </trkpt>
      <trkpt lat="44.03161" lon="6.17244">
        <ele>596.59997558594</ele>
        <time>2021-09-03T08:56:21Z</time>
      </trkpt>
      <trkpt lat="44.03169" lon="6.17239">
        <ele>596.40002441406</ele>
        <time>2021-09-03T08:56:22Z</time>
      </trkpt>
      <trkpt lat="44.03193" lon="6.17224">
        <ele>595.20001220703</ele>
        <time>2021-09-03T08:56:25Z</time>
      </trkpt>
      <trkpt lat="44.03219" lon="6.1721">
        <ele>593.59997558594</ele>
        <time>2021-09-03T08:56:28Z</time>
      </trkpt>
      <trkpt lat="44.03247" lon="6.17201">
        <ele>592.20001220703</ele>
        <time>2021-09-03T08:56:31Z</time>
      </trkpt>
      <trkpt lat="44.03266" lon="6.17199">
        <ele>591.20001220703</ele>
        <time>2021-09-03T08:56:33Z</time>
      </trkpt>
      <trkpt lat="44.03275" lon="6.17198">
        <ele>590.79998779297</ele>
        <time>2021-09-03T08:56:34Z</time>
      </trkpt>
      <trkpt lat="44.03304" lon="6.17196">
        <ele>589.59997558594</ele>
        <time>2021-09-03T08:56:37Z</time>
      </trkpt>
      <trkpt lat="44.03333" lon="6.17196">
        <ele>588.40002441406</ele>
        <time>2021-09-03T08:56:40Z</time>
      </trkpt>
      <trkpt lat="44.03343" lon="6.17196">
        <ele>588</ele>
        <time>2021-09-03T08:56:41Z</time>
      </trkpt>
      <trkpt lat="44.03361" lon="6.17198">
        <ele>587</ele>
        <time>2021-09-03T08:56:43Z</time>
      </trkpt>
      <trkpt lat="44.03387" lon="6.17203">
        <ele>586.20001220703</ele>
        <time>2021-09-03T08:56:46Z</time>
      </trkpt>
      <trkpt lat="44.03396" lon="6.17205">
        <ele>586</ele>
        <time>2021-09-03T08:56:47Z</time>
      </trkpt>
      <trkpt lat="44.03429" lon="6.17216">
        <ele>585</ele>
        <time>2021-09-03T08:56:51Z</time>
      </trkpt>
      <trkpt lat="44.03446" lon="6.17223">
        <ele>584.20001220703</ele>
        <time>2021-09-03T08:56:53Z</time>
      </trkpt>
      <trkpt lat="44.03463" lon="6.17229">
        <ele>583.79998779297</ele>
        <time>2021-09-03T08:56:55Z</time>
      </trkpt>
      <trkpt lat="44.03499" lon="6.17241">
        <ele>582.40002441406</ele>
        <time>2021-09-03T08:56:59Z</time>
      </trkpt>
      <trkpt lat="44.03525" lon="6.1725">
        <ele>581.40002441406</ele>
        <time>2021-09-03T08:57:02Z</time>
      </trkpt>
      <trkpt lat="44.03552" lon="6.17257">
        <ele>580.20001220703</ele>
        <time>2021-09-03T08:57:05Z</time>
      </trkpt>
      <trkpt lat="44.03561" lon="6.17257">
        <ele>580</ele>
        <time>2021-09-03T08:57:06Z</time>
      </trkpt>
      <trkpt lat="44.03586" lon="6.17253">
        <ele>579.20001220703</ele>
        <time>2021-09-03T08:57:09Z</time>
      </trkpt>
      <trkpt lat="44.03594" lon="6.17249">
        <ele>579</ele>
        <time>2021-09-03T08:57:10Z</time>
      </trkpt>
      <trkpt lat="44.03625" lon="6.17234">
        <ele>578.20001220703</ele>
        <time>2021-09-03T08:57:14Z</time>
      </trkpt>
      <trkpt lat="44.03639" lon="6.17221">
        <ele>577.40002441406</ele>
        <time>2021-09-03T08:57:16Z</time>
      </trkpt>
      <trkpt lat="44.03646" lon="6.17215">
        <ele>577.20001220703</ele>
        <time>2021-09-03T08:57:17Z</time>
      </trkpt>
      <trkpt lat="44.03672" lon="6.17188">
        <ele>575.79998779297</ele>
        <time>2021-09-03T08:57:21Z</time>
      </trkpt>
      <trkpt lat="44.0369" lon="6.17168">
        <ele>575.40002441406</ele>
        <time>2021-09-03T08:57:24Z</time>
      </trkpt>
      <trkpt lat="44.03702" lon="6.17155">
        <ele>574.79998779297</ele>
        <time>2021-09-03T08:57:26Z</time>
      </trkpt>
      <trkpt lat="44.03738" lon="6.17115">
        <ele>573.59997558594</ele>
        <time>2021-09-03T08:57:32Z</time>
      </trkpt>
      <trkpt lat="44.03756" lon="6.17096">
        <ele>573.20001220703</ele>
        <time>2021-09-03T08:57:35Z</time>
      </trkpt>
      <trkpt lat="44.03796" lon="6.17051">
        <ele>572.59997558594</ele>
        <time>2021-09-03T08:57:42Z</time>
      </trkpt>
      <trkpt lat="44.03808" lon="6.17038">
        <ele>572.40002441406</ele>
        <time>2021-09-03T08:57:44Z</time>
      </trkpt>
      <trkpt lat="44.03844" lon="6.17">
        <ele>571.59997558594</ele>
        <time>2021-09-03T08:57:50Z</time>
      </trkpt>
      <trkpt lat="44.03873" lon="6.1697">
        <ele>571</ele>
        <time>2021-09-03T08:57:55Z</time>
      </trkpt>
      <trkpt lat="44.03923" lon="6.16933">
        <ele>570.40002441406</ele>
        <time>2021-09-03T08:58:03Z</time>
      </trkpt>
      <trkpt lat="44.03975" lon="6.16895">
        <ele>569.79998779297</ele>
        <time>2021-09-03T08:58:11Z</time>
      </trkpt>
      <trkpt lat="44.03981" lon="6.16889">
        <ele>569.59997558594</ele>
        <time>2021-09-03T08:58:12Z</time>
      </trkpt>
      <trkpt lat="44.03988" lon="6.16883">
        <ele>569.20001220703</ele>
        <time>2021-09-03T08:58:13Z</time>
      </trkpt>
      <trkpt lat="44.04016" lon="6.16862">
        <ele>568</ele>
        <time>2021-09-03T08:58:17Z</time>
      </trkpt>
      <trkpt lat="44.04024" lon="6.16858">
        <ele>567.79998779297</ele>
        <time>2021-09-03T08:58:18Z</time>
      </trkpt>
      <trkpt lat="44.04061" lon="6.16844">
        <ele>567</ele>
        <time>2021-09-03T08:58:23Z</time>
      </trkpt>
      <trkpt lat="44.04077" lon="6.16841">
        <ele>566.20001220703</ele>
        <time>2021-09-03T08:58:25Z</time>
      </trkpt>
      <trkpt lat="44.04085" lon="6.16841">
        <ele>565.79998779297</ele>
        <time>2021-09-03T08:58:26Z</time>
      </trkpt>
      <trkpt lat="44.04122" lon="6.16841">
        <ele>564.79998779297</ele>
        <time>2021-09-03T08:58:31Z</time>
      </trkpt>
      <trkpt lat="44.0416" lon="6.16843">
        <ele>564.40002441406</ele>
        <time>2021-09-03T08:58:36Z</time>
      </trkpt>
      <trkpt lat="44.04168" lon="6.16841">
        <ele>564.20001220703</ele>
        <time>2021-09-03T08:58:37Z</time>
      </trkpt>
      <trkpt lat="44.04183" lon="6.16837">
        <ele>563.59997558594</ele>
        <time>2021-09-03T08:58:39Z</time>
      </trkpt>
      <trkpt lat="44.04217" lon="6.1683">
        <ele>563.40002441406</ele>
        <time>2021-09-03T08:58:44Z</time>
      </trkpt>
      <trkpt lat="44.04244" lon="6.16824">
        <ele>563.59997558594</ele>
        <time>2021-09-03T08:58:48Z</time>
      </trkpt>
      <trkpt lat="44.04263" lon="6.16817">
        <ele>563.59997558594</ele>
        <time>2021-09-03T08:58:51Z</time>
      </trkpt>
      <trkpt lat="44.04307" lon="6.16795">
        <ele>563</ele>
        <time>2021-09-03T08:58:57Z</time>
      </trkpt>
      <trkpt lat="44.04322" lon="6.16783">
        <ele>562.20001220703</ele>
        <time>2021-09-03T08:58:59Z</time>
      </trkpt>
      <trkpt lat="44.04339" lon="6.16775">
        <ele>561</ele>
        <time>2021-09-03T08:59:01Z</time>
      </trkpt>
      <trkpt lat="44.04369" lon="6.16768">
        <ele>559.59997558594</ele>
        <time>2021-09-03T08:59:04Z</time>
      </trkpt>
      <trkpt lat="44.04379" lon="6.16766">
        <ele>559.20001220703</ele>
        <time>2021-09-03T08:59:05Z</time>
      </trkpt>
      <trkpt lat="44.04397" lon="6.16759">
        <ele>558.40002441406</ele>
        <time>2021-09-03T08:59:07Z</time>
      </trkpt>
      <trkpt lat="44.04412" lon="6.16748">
        <ele>557.59997558594</ele>
        <time>2021-09-03T08:59:09Z</time>
      </trkpt>
      <trkpt lat="44.04426" lon="6.16738">
        <ele>557.20001220703</ele>
        <time>2021-09-03T08:59:11Z</time>
      </trkpt>
      <trkpt lat="44.04446" lon="6.16719">
        <ele>557</ele>
        <time>2021-09-03T08:59:14Z</time>
      </trkpt>
      <trkpt lat="44.04452" lon="6.16712">
        <ele>557</ele>
        <time>2021-09-03T08:59:15Z</time>
      </trkpt>
      <trkpt lat="44.04465" lon="6.167">
        <ele>556.59997558594</ele>
        <time>2021-09-03T08:59:17Z</time>
      </trkpt>
      <trkpt lat="44.04479" lon="6.16692">
        <ele>556.20001220703</ele>
        <time>2021-09-03T08:59:19Z</time>
      </trkpt>
      <trkpt lat="44.0451" lon="6.1668">
        <ele>555</ele>
        <time>2021-09-03T08:59:23Z</time>
      </trkpt>
      <trkpt lat="44.04518" lon="6.16678">
        <ele>554.79998779297</ele>
        <time>2021-09-03T08:59:24Z</time>
      </trkpt>
      <trkpt lat="44.04539" lon="6.16671">
        <ele>554.40002441406</ele>
        <time>2021-09-03T08:59:27Z</time>
      </trkpt>
      <trkpt lat="44.04552" lon="6.16661">
        <ele>554.20001220703</ele>
        <time>2021-09-03T08:59:29Z</time>
      </trkpt>
      <trkpt lat="44.04564" lon="6.16653">
        <ele>554.20001220703</ele>
        <time>2021-09-03T08:59:31Z</time>
      </trkpt>
      <trkpt lat="44.04589" lon="6.16641">
        <ele>554.20001220703</ele>
        <time>2021-09-03T08:59:35Z</time>
      </trkpt>
      <trkpt lat="44.04626" lon="6.16619">
        <ele>554.40002441406</ele>
        <time>2021-09-03T08:59:41Z</time>
      </trkpt>
      <trkpt lat="44.04646" lon="6.16606">
        <ele>553.79998779297</ele>
        <time>2021-09-03T08:59:44Z</time>
      </trkpt>
      <trkpt lat="44.04686" lon="6.16577">
        <ele>552.79998779297</ele>
        <time>2021-09-03T08:59:50Z</time>
      </trkpt>
      <trkpt lat="44.04736" lon="6.16535">
        <ele>552.20001220703</ele>
        <time>2021-09-03T08:59:58Z</time>
      </trkpt>
      <trkpt lat="44.04748" lon="6.16521">
        <ele>552.20001220703</ele>
        <time>2021-09-03T09:00:00Z</time>
      </trkpt>
      <trkpt lat="44.04765" lon="6.16498">
        <ele>551.59997558594</ele>
        <time>2021-09-03T09:00:03Z</time>
      </trkpt>
      <trkpt lat="44.04789" lon="6.16467">
        <ele>550.40002441406</ele>
        <time>2021-09-03T09:00:07Z</time>
      </trkpt>
      <trkpt lat="44.04795" lon="6.16459">
        <ele>550.20001220703</ele>
        <time>2021-09-03T09:00:08Z</time>
      </trkpt>
      <trkpt lat="44.04819" lon="6.16425">
        <ele>549</ele>
        <time>2021-09-03T09:00:12Z</time>
      </trkpt>
      <trkpt lat="44.04832" lon="6.16408">
        <ele>548.20001220703</ele>
        <time>2021-09-03T09:00:14Z</time>
      </trkpt>
      <trkpt lat="44.04838" lon="6.16402">
        <ele>548</ele>
        <time>2021-09-03T09:00:15Z</time>
      </trkpt>
      <trkpt lat="44.04844" lon="6.16397">
        <ele>547.59997558594</ele>
        <time>2021-09-03T09:00:16Z</time>
      </trkpt>
      <trkpt lat="44.04854" lon="6.16389">
        <ele>546.59997558594</ele>
        <time>2021-09-03T09:00:18Z</time>
      </trkpt>
      <trkpt lat="44.04856" lon="6.1637">
        <ele>545.20001220703</ele>
        <time>2021-09-03T09:00:21Z</time>
      </trkpt>
      <trkpt lat="44.04844" lon="6.16356">
        <ele>543.79998779297</ele>
        <time>2021-09-03T09:00:24Z</time>
      </trkpt>
      <trkpt lat="44.0484" lon="6.16353">
        <ele>543.59997558594</ele>
        <time>2021-09-03T09:00:25Z</time>
      </trkpt>
      <trkpt lat="44.04826" lon="6.16341">
        <ele>543.20001220703</ele>
        <time>2021-09-03T09:00:28Z</time>
      </trkpt>
      <trkpt lat="44.04812" lon="6.16327">
        <ele>543.20001220703</ele>
        <time>2021-09-03T09:00:31Z</time>
      </trkpt>
      <trkpt lat="44.04772" lon="6.16291">
        <ele>543.79998779297</ele>
        <time>2021-09-03T09:00:40Z</time>
      </trkpt>
      <trkpt lat="44.04744" lon="6.16265">
        <ele>544.20001220703</ele>
        <time>2021-09-03T09:00:47Z</time>
      </trkpt>
      <trkpt lat="44.04722" lon="6.16244">
        <ele>544.79998779297</ele>
        <time>2021-09-03T09:00:53Z</time>
      </trkpt>
      <trkpt lat="44.04714" lon="6.16237">
        <ele>545</ele>
        <time>2021-09-03T09:00:55Z</time>
      </trkpt>
      <trkpt lat="44.04675" lon="6.16201">
        <ele>544.79998779297</ele>
        <time>2021-09-03T09:01:04Z</time>
      </trkpt>
      <trkpt lat="44.04643" lon="6.16163">
        <ele>544.20001220703</ele>
        <time>2021-09-03T09:01:11Z</time>
      </trkpt>
      <trkpt lat="44.0462" lon="6.16133">
        <ele>543.79998779297</ele>
        <time>2021-09-03T09:01:16Z</time>
      </trkpt>
      <trkpt lat="44.04611" lon="6.16121">
        <ele>543.59997558594</ele>
        <time>2021-09-03T09:01:18Z</time>
      </trkpt>
      <trkpt lat="44.04572" lon="6.16067">
        <ele>542.79998779297</ele>
        <time>2021-09-03T09:01:27Z</time>
      </trkpt>
      <trkpt lat="44.04557" lon="6.1605">
        <ele>542.59997558594</ele>
        <time>2021-09-03T09:01:30Z</time>
      </trkpt>
      <trkpt lat="44.04514" lon="6.16011">
        <ele>542</ele>
        <time>2021-09-03T09:01:38Z</time>
      </trkpt>
      <trkpt lat="44.04499" lon="6.15999">
        <ele>541.59997558594</ele>
        <time>2021-09-03T09:01:41Z</time>
      </trkpt>
      <trkpt lat="44.04474" lon="6.15981">
        <ele>541</ele>
        <time>2021-09-03T09:01:46Z</time>
      </trkpt>
      <trkpt lat="44.04427" lon="6.15951">
        <ele>540.79998779297</ele>
        <time>2021-09-03T09:01:55Z</time>
      </trkpt>
      <trkpt lat="44.04391" lon="6.15928">
        <ele>541</ele>
        <time>2021-09-03T09:02:02Z</time>
      </trkpt>
      <trkpt lat="44.04386" lon="6.15926">
        <ele>541.20001220703</ele>
        <time>2021-09-03T09:02:03Z</time>
      </trkpt>
      <trkpt lat="44.0435" lon="6.1591">
        <ele>541.59997558594</ele>
        <time>2021-09-03T09:02:10Z</time>
      </trkpt>
      <trkpt lat="44.04315" lon="6.15886">
        <ele>541.40002441406</ele>
        <time>2021-09-03T09:02:17Z</time>
      </trkpt>
      <trkpt lat="44.04311" lon="6.15881">
        <ele>541.40002441406</ele>
        <time>2021-09-03T09:02:18Z</time>
      </trkpt>
      <trkpt lat="44.04292" lon="6.1586">
        <ele>541.20001220703</ele>
        <time>2021-09-03T09:02:22Z</time>
      </trkpt>
      <trkpt lat="44.04265" lon="6.15819">
        <ele>541</ele>
        <time>2021-09-03T09:02:29Z</time>
      </trkpt>
      <trkpt lat="44.04245" lon="6.1579">
        <ele>540.59997558594</ele>
        <time>2021-09-03T09:02:34Z</time>
      </trkpt>
      <trkpt lat="44.04231" lon="6.15768">
        <ele>540.59997558594</ele>
        <time>2021-09-03T09:02:38Z</time>
      </trkpt>
      <trkpt lat="44.04206" lon="6.15729">
        <ele>541</ele>
        <time>2021-09-03T09:02:46Z</time>
      </trkpt>
      <trkpt lat="44.04188" lon="6.15704">
        <ele>541.59997558594</ele>
        <time>2021-09-03T09:02:52Z</time>
      </trkpt>
      <trkpt lat="44.04184" lon="6.15701">
        <ele>541.79998779297</ele>
        <time>2021-09-03T09:02:53Z</time>
      </trkpt>
      <trkpt lat="44.04181" lon="6.15698">
        <ele>542</ele>
        <time>2021-09-03T09:02:54Z</time>
      </trkpt>
      <trkpt lat="44.04159" lon="6.15679">
        <ele>542.59997558594</ele>
        <time>2021-09-03T09:03:00Z</time>
      </trkpt>
      <trkpt lat="44.04121" lon="6.15651">
        <ele>542.59997558594</ele>
        <time>2021-09-03T09:03:08Z</time>
      </trkpt>
      <trkpt lat="44.04078" lon="6.15607">
        <ele>541.79998779297</ele>
        <time>2021-09-03T09:03:17Z</time>
      </trkpt>
      <trkpt lat="44.0405" lon="6.15562">
        <ele>541.40002441406</ele>
        <time>2021-09-03T09:03:24Z</time>
      </trkpt>
      <trkpt lat="44.04032" lon="6.15526">
        <ele>540.79998779297</ele>
        <time>2021-09-03T09:03:29Z</time>
      </trkpt>
      <trkpt lat="44.04023" lon="6.15503">
        <ele>540.59997558594</ele>
        <time>2021-09-03T09:03:32Z</time>
      </trkpt>
      <trkpt lat="44.04008" lon="6.15445">
        <ele>539.79998779297</ele>
        <time>2021-09-03T09:03:39Z</time>
      </trkpt>
      <trkpt lat="44.04006" lon="6.15437">
        <ele>539.59997558594</ele>
        <time>2021-09-03T09:03:40Z</time>
      </trkpt>
      <trkpt lat="44.04" lon="6.15386">
        <ele>539.40002441406</ele>
        <time>2021-09-03T09:03:46Z</time>
      </trkpt>
      <trkpt lat="44.03999" lon="6.1537">
        <ele>539.40002441406</ele>
        <time>2021-09-03T09:03:48Z</time>
      </trkpt>
      <trkpt lat="44.03996" lon="6.15337">
        <ele>539.40002441406</ele>
        <time>2021-09-03T09:03:52Z</time>
      </trkpt>
      <trkpt lat="44.0399" lon="6.15263">
        <ele>539.40002441406</ele>
        <time>2021-09-03T09:04:01Z</time>
      </trkpt>
      <trkpt lat="44.03983" lon="6.15205">
        <ele>539.79998779297</ele>
        <time>2021-09-03T09:04:09Z</time>
      </trkpt>
      <trkpt lat="44.03976" lon="6.15155">
        <ele>540.40002441406</ele>
        <time>2021-09-03T09:04:16Z</time>
      </trkpt>
      <trkpt lat="44.03972" lon="6.15142">
        <ele>540.40002441406</ele>
        <time>2021-09-03T09:04:18Z</time>
      </trkpt>
      <trkpt lat="44.03969" lon="6.15137">
        <ele>540.40002441406</ele>
        <time>2021-09-03T09:04:19Z</time>
      </trkpt>
      <trkpt lat="44.03956" lon="6.15132">
        <ele>540.40002441406</ele>
        <time>2021-09-03T09:04:22Z</time>
      </trkpt>
      <trkpt lat="44.03946" lon="6.15137">
        <ele>540.20001220703</ele>
        <time>2021-09-03T09:04:25Z</time>
      </trkpt>
      <trkpt lat="44.03939" lon="6.15132">
        <ele>540.20001220703</ele>
        <time>2021-09-03T09:04:28Z</time>
      </trkpt>
      <trkpt lat="44.03936" lon="6.1513">
        <ele>540.20001220703</ele>
        <time>2021-09-03T09:04:29Z</time>
      </trkpt>
      <trkpt lat="44.03917" lon="6.15119">
        <ele>540.40002441406</ele>
        <time>2021-09-03T09:04:34Z</time>
      </trkpt>
      <trkpt lat="44.03913" lon="6.15116">
        <ele>540.20001220703</ele>
        <time>2021-09-03T09:04:35Z</time>
      </trkpt>
      <trkpt lat="44.03892" lon="6.15097">
        <ele>539.40002441406</ele>
        <time>2021-09-03T09:04:40Z</time>
      </trkpt>
      <trkpt lat="44.03883" lon="6.15085">
        <ele>538.79998779297</ele>
        <time>2021-09-03T09:04:44Z</time>
      </trkpt>
      <trkpt lat="44.03881" lon="6.15082">
        <ele>538.40002441406</ele>
        <time>2021-09-03T09:04:46Z</time>
      </trkpt>
      <trkpt lat="44.03876" lon="6.15078">
        <ele>537.79998779297</ele>
        <time>2021-09-03T09:04:49Z</time>
      </trkpt>
      <trkpt lat="44.03869" lon="6.15071">
        <ele>537.40002441406</ele>
        <time>2021-09-03T09:04:52Z</time>
      </trkpt>
      <trkpt lat="44.03865" lon="6.15064">
        <ele>537.20001220703</ele>
        <time>2021-09-03T09:04:54Z</time>
      </trkpt>
      <trkpt lat="44.03854" lon="6.15057">
        <ele>536.79998779297</ele>
        <time>2021-09-03T09:04:59Z</time>
      </trkpt>
      <trkpt lat="44.03849" lon="6.15057">
        <ele>536.40002441406</ele>
        <time>2021-09-03T09:05:03Z</time>
      </trkpt>
      <trkpt lat="44.0384" lon="6.15057">
        <ele>536.40002441406</ele>
        <time>2021-09-03T09:05:10Z</time>
      </trkpt>
      <trkpt lat="44.03835" lon="6.15055">
        <ele>536.59997558594</ele>
        <time>2021-09-03T09:05:15Z</time>
      </trkpt>
      <trkpt lat="44.03836" lon="6.15055">
        <ele>536.59997558594</ele>
        <time>2021-09-03T09:05:16Z</time>
      </trkpt>
      <trkpt lat="44.03836" lon="6.15054">
        <ele>536.59997558594</ele>
        <time>2021-09-03T09:05:17Z</time>
      </trkpt>
      <trkpt lat="44.0384" lon="6.15054">
        <ele>536.59997558594</ele>
        <time>2021-09-03T09:05:22Z</time>
      </trkpt>
      <trkpt lat="44.03842" lon="6.15054">
        <ele>536.59997558594</ele>
        <time>2021-09-03T09:05:23Z</time>
      </trkpt>
      <trkpt lat="44.03855" lon="6.15055">
        <ele>536.59997558594</ele>
        <time>2021-09-03T09:05:28Z</time>
      </trkpt>
      <trkpt lat="44.03869" lon="6.15068">
        <ele>536.40002441406</ele>
        <time>2021-09-03T09:05:33Z</time>
      </trkpt>
      <trkpt lat="44.03883" lon="6.15084">
        <ele>536.59997558594</ele>
        <time>2021-09-03T09:05:39Z</time>
      </trkpt>
      <trkpt lat="44.03887" lon="6.15082">
        <ele>537</ele>
        <time>2021-09-03T09:05:41Z</time>
      </trkpt>
      <trkpt lat="44.03889" lon="6.15082">
        <ele>537.20001220703</ele>
        <time>2021-09-03T09:05:43Z</time>
      </trkpt>
      <trkpt lat="44.03892" lon="6.15078">
        <ele>537.40002441406</ele>
        <time>2021-09-03T09:05:45Z</time>
      </trkpt>
      <trkpt lat="44.03893" lon="6.15072">
        <ele>537.40002441406</ele>
        <time>2021-09-03T09:05:47Z</time>
      </trkpt>
      <trkpt lat="44.03892" lon="6.15067">
        <ele>536.79998779297</ele>
        <time>2021-09-03T09:05:51Z</time>
      </trkpt>
      <trkpt lat="44.03893" lon="6.15064">
        <ele>536.59997558594</ele>
        <time>2021-09-03T09:05:53Z</time>
      </trkpt>
      <trkpt lat="44.03896" lon="6.15066">
        <ele>535.79998779297</ele>
        <time>2021-09-03T09:06:39Z</time>
      </trkpt>
      <trkpt lat="44.03897" lon="6.15068">
        <ele>535.79998779297</ele>
        <time>2021-09-03T09:06:40Z</time>
      </trkpt>
      <trkpt lat="44.03893" lon="6.15076">
        <ele>535.79998779297</ele>
        <time>2021-09-03T09:06:43Z</time>
      </trkpt>
      <trkpt lat="44.03888" lon="6.15085">
        <ele>536.20001220703</ele>
        <time>2021-09-03T09:06:47Z</time>
      </trkpt>
      <trkpt lat="44.03885" lon="6.15087">
        <ele>536.79998779297</ele>
        <time>2021-09-03T09:16:15Z</time>
      </trkpt>
      <trkpt lat="44.03884" lon="6.15086">
        <ele>536.59997558594</ele>
        <time>2021-09-03T09:16:16Z</time>
      </trkpt>
      <trkpt lat="44.03871" lon="6.15072">
        <ele>536.59997558594</ele>
        <time>2021-09-03T09:16:21Z</time>
      </trkpt>
      <trkpt lat="44.03857" lon="6.15051">
        <ele>536.40002441406</ele>
        <time>2021-09-03T09:16:26Z</time>
      </trkpt>
      <trkpt lat="44.03853" lon="6.15048">
        <ele>536.20001220703</ele>
        <time>2021-09-03T09:16:27Z</time>
      </trkpt>
      <trkpt lat="44.03841" lon="6.15038">
        <ele>535.79998779297</ele>
        <time>2021-09-03T09:16:30Z</time>
      </trkpt>
      <trkpt lat="44.03825" lon="6.15023">
        <ele>535.40002441406</ele>
        <time>2021-09-03T09:16:34Z</time>
      </trkpt>
      <trkpt lat="44.03809" lon="6.15009">
        <ele>535</ele>
        <time>2021-09-03T09:16:38Z</time>
      </trkpt>
      <trkpt lat="44.03803" lon="6.15001">
        <ele>534.59997558594</ele>
        <time>2021-09-03T09:16:40Z</time>
      </trkpt>
      <trkpt lat="44.03793" lon="6.14991">
        <ele>534.20001220703</ele>
        <time>2021-09-03T09:16:43Z</time>
      </trkpt>
      <trkpt lat="44.03784" lon="6.14981">
        <ele>534.20001220703</ele>
        <time>2021-09-03T09:16:46Z</time>
      </trkpt>
      <trkpt lat="44.03779" lon="6.14973">
        <ele>534</ele>
        <time>2021-09-03T09:16:48Z</time>
      </trkpt>
      <trkpt lat="44.0377" lon="6.14957">
        <ele>533.79998779297</ele>
        <time>2021-09-03T09:16:52Z</time>
      </trkpt>
      <trkpt lat="44.0377" lon="6.14955">
        <ele>533.79998779297</ele>
        <time>2021-09-03T09:16:53Z</time>
      </trkpt>
      <trkpt lat="44.0377" lon="6.14954">
        <ele>533.79998779297</ele>
        <time>2021-09-03T09:16:55Z</time>
      </trkpt>
      <trkpt lat="44.03769" lon="6.14951">
        <ele>533</ele>
        <time>2021-09-03T09:18:31Z</time>
      </trkpt>
      <trkpt lat="44.03765" lon="6.14947">
        <ele>533</ele>
        <time>2021-09-03T09:18:33Z</time>
      </trkpt>
      <trkpt lat="44.03748" lon="6.14928">
        <ele>532.79998779297</ele>
        <time>2021-09-03T09:18:40Z</time>
      </trkpt>
      <trkpt lat="44.03743" lon="6.14919">
        <ele>532.59997558594</ele>
        <time>2021-09-03T09:18:42Z</time>
      </trkpt>
      <trkpt lat="44.03734" lon="6.14903">
        <ele>532.20001220703</ele>
        <time>2021-09-03T09:18:45Z</time>
      </trkpt>
      <trkpt lat="44.03727" lon="6.14893">
        <ele>532</ele>
        <time>2021-09-03T09:18:47Z</time>
      </trkpt>
      <trkpt lat="44.03714" lon="6.1487">
        <ele>531.20001220703</ele>
        <time>2021-09-03T09:18:51Z</time>
      </trkpt>
      <trkpt lat="44.0371" lon="6.14865">
        <ele>531.20001220703</ele>
        <time>2021-09-03T09:18:52Z</time>
      </trkpt>
      <trkpt lat="44.03704" lon="6.14856">
        <ele>530.79998779297</ele>
        <time>2021-09-03T09:18:54Z</time>
      </trkpt>
      <trkpt lat="44.03699" lon="6.14848">
        <ele>530.59997558594</ele>
        <time>2021-09-03T09:18:56Z</time>
      </trkpt>
      <trkpt lat="44.0369" lon="6.14836">
        <ele>530.40002441406</ele>
        <time>2021-09-03T09:18:59Z</time>
      </trkpt>
      <trkpt lat="44.0368" lon="6.14816">
        <ele>530.40002441406</ele>
        <time>2021-09-03T09:19:03Z</time>
      </trkpt>
      <trkpt lat="44.03675" lon="6.14804">
        <ele>530.40002441406</ele>
        <time>2021-09-03T09:19:05Z</time>
      </trkpt>
      <trkpt lat="44.03667" lon="6.14788">
        <ele>530.40002441406</ele>
        <time>2021-09-03T09:19:08Z</time>
      </trkpt>
      <trkpt lat="44.03659" lon="6.14774">
        <ele>530.40002441406</ele>
        <time>2021-09-03T09:19:11Z</time>
      </trkpt>
      <trkpt lat="44.03655" lon="6.14765">
        <ele>530.40002441406</ele>
        <time>2021-09-03T09:19:13Z</time>
      </trkpt>
      <trkpt lat="44.03649" lon="6.14735">
        <ele>530.79998779297</ele>
        <time>2021-09-03T09:19:19Z</time>
      </trkpt>
      <trkpt lat="44.0365" lon="6.14729">
        <ele>530.79998779297</ele>
        <time>2021-09-03T09:19:20Z</time>
      </trkpt>
      <trkpt lat="44.03657" lon="6.14712">
        <ele>530.59997558594</ele>
        <time>2021-09-03T09:19:23Z</time>
      </trkpt>
      <trkpt lat="44.03664" lon="6.14699">
        <ele>530.40002441406</ele>
        <time>2021-09-03T09:19:25Z</time>
      </trkpt>
      <trkpt lat="44.03677" lon="6.14682">
        <ele>530</ele>
        <time>2021-09-03T09:19:28Z</time>
      </trkpt>
      <trkpt lat="44.03682" lon="6.14676">
        <ele>529.79998779297</ele>
        <time>2021-09-03T09:19:29Z</time>
      </trkpt>
      <trkpt lat="44.03706" lon="6.14646">
        <ele>528.59997558594</ele>
        <time>2021-09-03T09:19:34Z</time>
      </trkpt>
      <trkpt lat="44.03733" lon="6.14614">
        <ele>527.40002441406</ele>
        <time>2021-09-03T09:19:39Z</time>
      </trkpt>
      <trkpt lat="44.03745" lon="6.14603">
        <ele>527</ele>
        <time>2021-09-03T09:19:41Z</time>
      </trkpt>
      <trkpt lat="44.03757" lon="6.14595">
        <ele>526.40002441406</ele>
        <time>2021-09-03T09:19:43Z</time>
      </trkpt>
      <trkpt lat="44.03771" lon="6.14591">
        <ele>526</ele>
        <time>2021-09-03T09:19:45Z</time>
      </trkpt>
      <trkpt lat="44.03789" lon="6.14577">
        <ele>525.40002441406</ele>
        <time>2021-09-03T09:19:48Z</time>
      </trkpt>
      <trkpt lat="44.03794" lon="6.1457">
        <ele>525.20001220703</ele>
        <time>2021-09-03T09:19:49Z</time>
      </trkpt>
      <trkpt lat="44.03802" lon="6.14555">
        <ele>525</ele>
        <time>2021-09-03T09:19:51Z</time>
      </trkpt>
      <trkpt lat="44.03806" lon="6.14547">
        <ele>524.79998779297</ele>
        <time>2021-09-03T09:19:52Z</time>
      </trkpt>
      <trkpt lat="44.03818" lon="6.14527">
        <ele>524.20001220703</ele>
        <time>2021-09-03T09:19:55Z</time>
      </trkpt>
      <trkpt lat="44.03836" lon="6.14503">
        <ele>524.20001220703</ele>
        <time>2021-09-03T09:19:59Z</time>
      </trkpt>
      <trkpt lat="44.03877" lon="6.14452">
        <ele>524</ele>
        <time>2021-09-03T09:20:08Z</time>
      </trkpt>
      <trkpt lat="44.0389" lon="6.14436">
        <ele>524</ele>
        <time>2021-09-03T09:20:11Z</time>
      </trkpt>
      <trkpt lat="44.03929" lon="6.14384">
        <ele>524</ele>
        <time>2021-09-03T09:20:21Z</time>
      </trkpt>
      <trkpt lat="44.03932" lon="6.14379">
        <ele>524</ele>
        <time>2021-09-03T09:20:22Z</time>
      </trkpt>
      <trkpt lat="44.03947" lon="6.14361">
        <ele>524.40002441406</ele>
        <time>2021-09-03T09:20:26Z</time>
      </trkpt>
      <trkpt lat="44.03953" lon="6.14351">
        <ele>524.59997558594</ele>
        <time>2021-09-03T09:20:28Z</time>
      </trkpt>
      <trkpt lat="44.0396" lon="6.14342">
        <ele>524.79998779297</ele>
        <time>2021-09-03T09:20:30Z</time>
      </trkpt>
      <trkpt lat="44.03981" lon="6.14316">
        <ele>525</ele>
        <time>2021-09-03T09:20:36Z</time>
      </trkpt>
      <trkpt lat="44.03992" lon="6.14303">
        <ele>525.20001220703</ele>
        <time>2021-09-03T09:20:39Z</time>
      </trkpt>
      <trkpt lat="44.04026" lon="6.14258">
        <ele>525.59997558594</ele>
        <time>2021-09-03T09:20:49Z</time>
      </trkpt>
      <trkpt lat="44.04059" lon="6.14216">
        <ele>525.79998779297</ele>
        <time>2021-09-03T09:20:58Z</time>
      </trkpt>
      <trkpt lat="44.04095" lon="6.14169">
        <ele>525.20001220703</ele>
        <time>2021-09-03T09:21:07Z</time>
      </trkpt>
      <trkpt lat="44.04134" lon="6.14126">
        <ele>524.20001220703</ele>
        <time>2021-09-03T09:21:15Z</time>
      </trkpt>
      <trkpt lat="44.04183" lon="6.1408">
        <ele>523.40002441406</ele>
        <time>2021-09-03T09:21:24Z</time>
      </trkpt>
      <trkpt lat="44.04189" lon="6.14075">
        <ele>523.20001220703</ele>
        <time>2021-09-03T09:21:25Z</time>
      </trkpt>
      <trkpt lat="44.04234" lon="6.14039">
        <ele>522.59997558594</ele>
        <time>2021-09-03T09:21:33Z</time>
      </trkpt>
      <trkpt lat="44.04279" lon="6.14008">
        <ele>522.40002441406</ele>
        <time>2021-09-03T09:21:41Z</time>
      </trkpt>
      <trkpt lat="44.04291" lon="6.14">
        <ele>522.20001220703</ele>
        <time>2021-09-03T09:21:43Z</time>
      </trkpt>
      <trkpt lat="44.04319" lon="6.13978">
        <ele>522</ele>
        <time>2021-09-03T09:21:48Z</time>
      </trkpt>
      <trkpt lat="44.04367" lon="6.13936">
        <ele>521.40002441406</ele>
        <time>2021-09-03T09:21:57Z</time>
      </trkpt>
      <trkpt lat="44.04372" lon="6.13931">
        <ele>521.40002441406</ele>
        <time>2021-09-03T09:21:58Z</time>
      </trkpt>
      <trkpt lat="44.04413" lon="6.13897">
        <ele>521.20001220703</ele>
        <time>2021-09-03T09:22:06Z</time>
      </trkpt>
      <trkpt lat="44.04428" lon="6.13885">
        <ele>521.20001220703</ele>
        <time>2021-09-03T09:22:09Z</time>
      </trkpt>
      <trkpt lat="44.04464" lon="6.13857">
        <ele>521</ele>
        <time>2021-09-03T09:22:16Z</time>
      </trkpt>
      <trkpt lat="44.0451" lon="6.13819">
        <ele>520.79998779297</ele>
        <time>2021-09-03T09:22:25Z</time>
      </trkpt>
      <trkpt lat="44.04561" lon="6.13778">
        <ele>521.20001220703</ele>
        <time>2021-09-03T09:22:35Z</time>
      </trkpt>
      <trkpt lat="44.04582" lon="6.1376">
        <ele>521.40002441406</ele>
        <time>2021-09-03T09:22:40Z</time>
      </trkpt>
      <trkpt lat="44.0459" lon="6.13754">
        <ele>521.40002441406</ele>
        <time>2021-09-03T09:22:42Z</time>
      </trkpt>
      <trkpt lat="44.04602" lon="6.13744">
        <ele>522.20001220703</ele>
        <time>2021-09-03T09:22:46Z</time>
      </trkpt>
      <trkpt lat="44.04607" lon="6.1374">
        <ele>522.59997558594</ele>
        <time>2021-09-03T09:22:48Z</time>
      </trkpt>
      <trkpt lat="44.04612" lon="6.13736">
        <ele>523.20001220703</ele>
        <time>2021-09-03T09:22:50Z</time>
      </trkpt>
      <trkpt lat="44.0462" lon="6.13729">
        <ele>524.20001220703</ele>
        <time>2021-09-03T09:22:54Z</time>
      </trkpt>
      <trkpt lat="44.04623" lon="6.13728">
        <ele>524.40002441406</ele>
        <time>2021-09-03T09:22:55Z</time>
      </trkpt>
      <trkpt lat="44.04635" lon="6.13717">
        <ele>525.40002441406</ele>
        <time>2021-09-03T09:23:01Z</time>
      </trkpt>
      <trkpt lat="44.04638" lon="6.13715">
        <ele>525.59997558594</ele>
        <time>2021-09-03T09:23:02Z</time>
      </trkpt>
      <trkpt lat="44.04651" lon="6.13708">
        <ele>526.59997558594</ele>
        <time>2021-09-03T09:23:08Z</time>
      </trkpt>
      <trkpt lat="44.04654" lon="6.13707">
        <ele>526.79998779297</ele>
        <time>2021-09-03T09:23:09Z</time>
      </trkpt>
      <trkpt lat="44.04662" lon="6.137">
        <ele>527.59997558594</ele>
        <time>2021-09-03T09:23:13Z</time>
      </trkpt>
      <trkpt lat="44.04664" lon="6.13697">
        <ele>528</ele>
        <time>2021-09-03T09:23:15Z</time>
      </trkpt>
      <trkpt lat="44.04668" lon="6.13694">
        <ele>528.59997558594</ele>
        <time>2021-09-03T09:23:24Z</time>
      </trkpt>
      <trkpt lat="44.0467" lon="6.13692">
        <ele>528.59997558594</ele>
        <time>2021-09-03T09:23:25Z</time>
      </trkpt>
      <trkpt lat="44.0467" lon="6.13675">
        <ele>528.59997558594</ele>
        <time>2021-09-03T09:23:29Z</time>
      </trkpt>
      <trkpt lat="44.04663" lon="6.13643">
        <ele>528.40002441406</ele>
        <time>2021-09-03T09:23:35Z</time>
      </trkpt>
      <trkpt lat="44.04653" lon="6.136">
        <ele>528.59997558594</ele>
        <time>2021-09-03T09:23:42Z</time>
      </trkpt>
      <trkpt lat="44.04631" lon="6.13537">
        <ele>528.20001220703</ele>
        <time>2021-09-03T09:23:52Z</time>
      </trkpt>
      <trkpt lat="44.0461" lon="6.13494">
        <ele>528</ele>
        <time>2021-09-03T09:23:59Z</time>
      </trkpt>
      <trkpt lat="44.04581" lon="6.13445">
        <ele>527.79998779297</ele>
        <time>2021-09-03T09:24:07Z</time>
      </trkpt>
      <trkpt lat="44.04553" lon="6.13397">
        <ele>527.59997558594</ele>
        <time>2021-09-03T09:24:15Z</time>
      </trkpt>
      <trkpt lat="44.0452" lon="6.13341">
        <ele>527</ele>
        <time>2021-09-03T09:24:24Z</time>
      </trkpt>
      <trkpt lat="44.04488" lon="6.13287">
        <ele>526.59997558594</ele>
        <time>2021-09-03T09:24:32Z</time>
      </trkpt>
      <trkpt lat="44.0445" lon="6.13223">
        <ele>526</ele>
        <time>2021-09-03T09:24:41Z</time>
      </trkpt>
      <trkpt lat="44.04446" lon="6.13216">
        <ele>525.79998779297</ele>
        <time>2021-09-03T09:24:42Z</time>
      </trkpt>
      <trkpt lat="44.04429" lon="6.13186">
        <ele>525.59997558594</ele>
        <time>2021-09-03T09:24:46Z</time>
      </trkpt>
      <trkpt lat="44.04413" lon="6.13154">
        <ele>525</ele>
        <time>2021-09-03T09:24:50Z</time>
      </trkpt>
      <trkpt lat="44.044" lon="6.1312">
        <ele>524.59997558594</ele>
        <time>2021-09-03T09:24:54Z</time>
      </trkpt>
      <trkpt lat="44.04395" lon="6.13101">
        <ele>524.40002441406</ele>
        <time>2021-09-03T09:24:56Z</time>
      </trkpt>
      <trkpt lat="44.04375" lon="6.13029">
        <ele>523.59997558594</ele>
        <time>2021-09-03T09:25:04Z</time>
      </trkpt>
      <trkpt lat="44.04372" lon="6.13021">
        <ele>523.40002441406</ele>
        <time>2021-09-03T09:25:05Z</time>
      </trkpt>
      <trkpt lat="44.04352" lon="6.12965">
        <ele>523.40002441406</ele>
        <time>2021-09-03T09:25:12Z</time>
      </trkpt>
      <trkpt lat="44.04329" lon="6.12908">
        <ele>522.40002441406</ele>
        <time>2021-09-03T09:25:19Z</time>
      </trkpt>
      <trkpt lat="44.04321" lon="6.12892">
        <ele>522</ele>
        <time>2021-09-03T09:25:21Z</time>
      </trkpt>
      <trkpt lat="44.0429" lon="6.1283">
        <ele>521.40002441406</ele>
        <time>2021-09-03T09:25:29Z</time>
      </trkpt>
      <trkpt lat="44.04281" lon="6.12815">
        <ele>521.20001220703</ele>
        <time>2021-09-03T09:25:31Z</time>
      </trkpt>
      <trkpt lat="44.04241" lon="6.12752">
        <ele>520.59997558594</ele>
        <time>2021-09-03T09:25:40Z</time>
      </trkpt>
      <trkpt lat="44.04229" lon="6.12733">
        <ele>520.20001220703</ele>
        <time>2021-09-03T09:25:43Z</time>
      </trkpt>
      <trkpt lat="44.04204" lon="6.12695">
        <ele>520</ele>
        <time>2021-09-03T09:25:49Z</time>
      </trkpt>
      <trkpt lat="44.04165" lon="6.12634">
        <ele>519.59997558594</ele>
        <time>2021-09-03T09:25:59Z</time>
      </trkpt>
      <trkpt lat="44.04163" lon="6.12613">
        <ele>519.59997558594</ele>
        <time>2021-09-03T09:26:02Z</time>
      </trkpt>
      <trkpt lat="44.04156" lon="6.12592">
        <ele>519.59997558594</ele>
        <time>2021-09-03T09:26:06Z</time>
      </trkpt>
      <trkpt lat="44.04142" lon="6.12591">
        <ele>519.79998779297</ele>
        <time>2021-09-03T09:26:09Z</time>
      </trkpt>
      <trkpt lat="44.04137" lon="6.1259">
        <ele>520</ele>
        <time>2021-09-03T09:26:10Z</time>
      </trkpt>
      <trkpt lat="44.04123" lon="6.12576">
        <ele>520</ele>
        <time>2021-09-03T09:26:13Z</time>
      </trkpt>
      <trkpt lat="44.04119" lon="6.12571">
        <ele>519.79998779297</ele>
        <time>2021-09-03T09:26:14Z</time>
      </trkpt>
      <trkpt lat="44.04094" lon="6.12534">
        <ele>519.59997558594</ele>
        <time>2021-09-03T09:26:21Z</time>
      </trkpt>
      <trkpt lat="44.04078" lon="6.12516">
        <ele>519.20001220703</ele>
        <time>2021-09-03T09:26:25Z</time>
      </trkpt>
      <trkpt lat="44.04074" lon="6.12513">
        <ele>519.20001220703</ele>
        <time>2021-09-03T09:26:26Z</time>
      </trkpt>
      <trkpt lat="44.04071" lon="6.12512">
        <ele>519</ele>
        <time>2021-09-03T09:26:27Z</time>
      </trkpt>
      <trkpt lat="44.04063" lon="6.12509">
        <ele>518.79998779297</ele>
        <time>2021-09-03T09:26:32Z</time>
      </trkpt>
      <trkpt lat="44.04064" lon="6.12501">
        <ele>517.79998779297</ele>
        <time>2021-09-03T09:36:07Z</time>
      </trkpt>
      <trkpt lat="44.04065" lon="6.125">
        <ele>517.79998779297</ele>
        <time>2021-09-03T09:36:08Z</time>
      </trkpt>
      <trkpt lat="44.04068" lon="6.12495">
        <ele>517.79998779297</ele>
        <time>2021-09-03T09:36:13Z</time>
      </trkpt>
      <trkpt lat="44.04067" lon="6.12492">
        <ele>518</ele>
        <time>2021-09-03T09:37:04Z</time>
      </trkpt>
      <trkpt lat="44.04065" lon="6.12489">
        <ele>517.79998779297</ele>
        <time>2021-09-03T09:37:05Z</time>
      </trkpt>
      <trkpt lat="44.04051" lon="6.12469">
        <ele>517.79998779297</ele>
        <time>2021-09-03T09:37:10Z</time>
      </trkpt>
      <trkpt lat="44.04027" lon="6.12431">
        <ele>517.59997558594</ele>
        <time>2021-09-03T09:37:17Z</time>
      </trkpt>
      <trkpt lat="44.03991" lon="6.12375">
        <ele>516.79998779297</ele>
        <time>2021-09-03T09:37:26Z</time>
      </trkpt>
      <trkpt lat="44.03953" lon="6.12319">
        <ele>516</ele>
        <time>2021-09-03T09:37:35Z</time>
      </trkpt>
      <trkpt lat="44.03949" lon="6.12312">
        <ele>516</ele>
        <time>2021-09-03T09:37:36Z</time>
      </trkpt>
      <trkpt lat="44.03917" lon="6.12264">
        <ele>515.79998779297</ele>
        <time>2021-09-03T09:37:44Z</time>
      </trkpt>
      <trkpt lat="44.03912" lon="6.12258">
        <ele>515.59997558594</ele>
        <time>2021-09-03T09:37:45Z</time>
      </trkpt>
      <trkpt lat="44.03884" lon="6.12213">
        <ele>514.59997558594</ele>
        <time>2021-09-03T09:37:52Z</time>
      </trkpt>
      <trkpt lat="44.0388" lon="6.12207">
        <ele>514.40002441406</ele>
        <time>2021-09-03T09:37:53Z</time>
      </trkpt>
      <trkpt lat="44.03852" lon="6.12158">
        <ele>513.40002441406</ele>
        <time>2021-09-03T09:38:00Z</time>
      </trkpt>
      <trkpt lat="44.03848" lon="6.1215">
        <ele>513.20001220703</ele>
        <time>2021-09-03T09:38:01Z</time>
      </trkpt>
      <trkpt lat="44.03825" lon="6.12097">
        <ele>512.20001220703</ele>
        <time>2021-09-03T09:38:08Z</time>
      </trkpt>
      <trkpt lat="44.03823" lon="6.12089">
        <ele>512</ele>
        <time>2021-09-03T09:38:09Z</time>
      </trkpt>
      <trkpt lat="44.0381" lon="6.12043">
        <ele>511.39999389648</ele>
        <time>2021-09-03T09:38:15Z</time>
      </trkpt>
      <trkpt lat="44.03808" lon="6.12036">
        <ele>511.20001220703</ele>
        <time>2021-09-03T09:38:16Z</time>
      </trkpt>
      <trkpt lat="44.038" lon="6.11992">
        <ele>510.79998779297</ele>
        <time>2021-09-03T09:38:22Z</time>
      </trkpt>
      <trkpt lat="44.03787" lon="6.11917">
        <ele>510.39999389648</ele>
        <time>2021-09-03T09:38:32Z</time>
      </trkpt>
      <trkpt lat="44.03784" lon="6.11901">
        <ele>510.39999389648</ele>
        <time>2021-09-03T09:38:34Z</time>
      </trkpt>
      <trkpt lat="44.0378" lon="6.11877">
        <ele>510.20001220703</ele>
        <time>2021-09-03T09:38:37Z</time>
      </trkpt>
      <trkpt lat="44.0377" lon="6.11826">
        <ele>509.20001220703</ele>
        <time>2021-09-03T09:38:43Z</time>
      </trkpt>
      <trkpt lat="44.03768" lon="6.11817">
        <ele>509</ele>
        <time>2021-09-03T09:38:44Z</time>
      </trkpt>
      <trkpt lat="44.03759" lon="6.11768">
        <ele>508.20001220703</ele>
        <time>2021-09-03T09:38:50Z</time>
      </trkpt>
      <trkpt lat="44.03751" lon="6.11726">
        <ele>507.79998779297</ele>
        <time>2021-09-03T09:38:55Z</time>
      </trkpt>
      <trkpt lat="44.03745" lon="6.11685">
        <ele>506.79998779297</ele>
        <time>2021-09-03T09:39:00Z</time>
      </trkpt>
      <trkpt lat="44.03743" lon="6.11677">
        <ele>506.79998779297</ele>
        <time>2021-09-03T09:39:01Z</time>
      </trkpt>
      <trkpt lat="44.03734" lon="6.11621">
        <ele>506.79998779297</ele>
        <time>2021-09-03T09:39:08Z</time>
      </trkpt>
      <trkpt lat="44.03723" lon="6.11543">
        <ele>506.79998779297</ele>
        <time>2021-09-03T09:39:18Z</time>
      </trkpt>
      <trkpt lat="44.03712" lon="6.11465">
        <ele>507.39999389648</ele>
        <time>2021-09-03T09:39:28Z</time>
      </trkpt>
      <trkpt lat="44.03702" lon="6.114">
        <ele>506.39999389648</ele>
        <time>2021-09-03T09:39:36Z</time>
      </trkpt>
      <trkpt lat="44.03692" lon="6.1135">
        <ele>505.79998779297</ele>
        <time>2021-09-03T09:39:42Z</time>
      </trkpt>
      <trkpt lat="44.03687" lon="6.11326">
        <ele>505.60000610352</ele>
        <time>2021-09-03T09:39:45Z</time>
      </trkpt>
      <trkpt lat="44.03671" lon="6.1125">
        <ele>505</ele>
        <time>2021-09-03T09:39:54Z</time>
      </trkpt>
      <trkpt lat="44.0367" lon="6.11242">
        <ele>505</ele>
        <time>2021-09-03T09:39:55Z</time>
      </trkpt>
      <trkpt lat="44.03655" lon="6.11174">
        <ele>505</ele>
        <time>2021-09-03T09:40:04Z</time>
      </trkpt>
      <trkpt lat="44.03647" lon="6.11131">
        <ele>504.79998779297</ele>
        <time>2021-09-03T09:40:10Z</time>
      </trkpt>
      <trkpt lat="44.03643" lon="6.11111">
        <ele>504.39999389648</ele>
        <time>2021-09-03T09:40:13Z</time>
      </trkpt>
      <trkpt lat="44.03639" lon="6.11086">
        <ele>504.20001220703</ele>
        <time>2021-09-03T09:40:18Z</time>
      </trkpt>
      <trkpt lat="44.03633" lon="6.11059">
        <ele>503.60000610352</ele>
        <time>2021-09-03T09:40:25Z</time>
      </trkpt>
      <trkpt lat="44.03627" lon="6.11028">
        <ele>503.20001220703</ele>
        <time>2021-09-03T09:40:31Z</time>
      </trkpt>
      <trkpt lat="44.03618" lon="6.10989">
        <ele>503.60000610352</ele>
        <time>2021-09-03T09:40:37Z</time>
      </trkpt>
      <trkpt lat="44.03605" lon="6.10924">
        <ele>503.39999389648</ele>
        <time>2021-09-03T09:40:46Z</time>
      </trkpt>
      <trkpt lat="44.03592" lon="6.1086">
        <ele>503.39999389648</ele>
        <time>2021-09-03T09:40:55Z</time>
      </trkpt>
      <trkpt lat="44.0358" lon="6.10798">
        <ele>503.39999389648</ele>
        <time>2021-09-03T09:41:04Z</time>
      </trkpt>
      <trkpt lat="44.03564" lon="6.10724">
        <ele>503.20001220703</ele>
        <time>2021-09-03T09:41:15Z</time>
      </trkpt>
      <trkpt lat="44.0355" lon="6.10651">
        <ele>503</ele>
        <time>2021-09-03T09:41:26Z</time>
      </trkpt>
      <trkpt lat="44.03541" lon="6.10607">
        <ele>503</ele>
        <time>2021-09-03T09:41:33Z</time>
      </trkpt>
      <trkpt lat="44.03538" lon="6.10594">
        <ele>503</ele>
        <time>2021-09-03T09:41:35Z</time>
      </trkpt>
      <trkpt lat="44.03526" lon="6.10534">
        <ele>503.20001220703</ele>
        <time>2021-09-03T09:41:44Z</time>
      </trkpt>
      <trkpt lat="44.03514" lon="6.10474">
        <ele>503.39999389648</ele>
        <time>2021-09-03T09:41:53Z</time>
      </trkpt>
      <trkpt lat="44.03499" lon="6.10395">
        <ele>503.39999389648</ele>
        <time>2021-09-03T09:42:04Z</time>
      </trkpt>
      <trkpt lat="44.03486" lon="6.10333">
        <ele>503.20001220703</ele>
        <time>2021-09-03T09:42:12Z</time>
      </trkpt>
      <trkpt lat="44.03471" lon="6.10255">
        <ele>503</ele>
        <time>2021-09-03T09:42:22Z</time>
      </trkpt>
      <trkpt lat="44.03463" lon="6.10216">
        <ele>502.60000610352</ele>
        <time>2021-09-03T09:42:27Z</time>
      </trkpt>
      <trkpt lat="44.03457" lon="6.10185">
        <ele>502.39999389648</ele>
        <time>2021-09-03T09:42:31Z</time>
      </trkpt>
      <trkpt lat="44.03441" lon="6.10106">
        <ele>502.39999389648</ele>
        <time>2021-09-03T09:42:41Z</time>
      </trkpt>
      <trkpt lat="44.03427" lon="6.10034">
        <ele>501.60000610352</ele>
        <time>2021-09-03T09:42:50Z</time>
      </trkpt>
      <trkpt lat="44.03425" lon="6.10026">
        <ele>501.60000610352</ele>
        <time>2021-09-03T09:42:51Z</time>
      </trkpt>
      <trkpt lat="44.0341" lon="6.09953">
        <ele>501.20001220703</ele>
        <time>2021-09-03T09:43:00Z</time>
      </trkpt>
      <trkpt lat="44.03409" lon="6.09944">
        <ele>501.20001220703</ele>
        <time>2021-09-03T09:43:01Z</time>
      </trkpt>
      <trkpt lat="44.03393" lon="6.09869">
        <ele>501</ele>
        <time>2021-09-03T09:43:10Z</time>
      </trkpt>
      <trkpt lat="44.03381" lon="6.09805">
        <ele>501</ele>
        <time>2021-09-03T09:43:18Z</time>
      </trkpt>
      <trkpt lat="44.03369" lon="6.09743">
        <ele>501</ele>
        <time>2021-09-03T09:43:26Z</time>
      </trkpt>
      <trkpt lat="44.03357" lon="6.09677">
        <ele>501</ele>
        <time>2021-09-03T09:43:34Z</time>
      </trkpt>
      <trkpt lat="44.03351" lon="6.09642">
        <ele>500.60000610352</ele>
        <time>2021-09-03T09:43:38Z</time>
      </trkpt>
      <trkpt lat="44.03343" lon="6.0959">
        <ele>500.39999389648</ele>
        <time>2021-09-03T09:43:44Z</time>
      </trkpt>
      <trkpt lat="44.0333" lon="6.0952">
        <ele>500</ele>
        <time>2021-09-03T09:43:52Z</time>
      </trkpt>
      <trkpt lat="44.03324" lon="6.09486">
        <ele>499.60000610352</ele>
        <time>2021-09-03T09:43:56Z</time>
      </trkpt>
      <trkpt lat="44.03317" lon="6.09451">
        <ele>499.60000610352</ele>
        <time>2021-09-03T09:44:00Z</time>
      </trkpt>
      <trkpt lat="44.03302" lon="6.09374">
        <ele>498.79998779297</ele>
        <time>2021-09-03T09:44:09Z</time>
      </trkpt>
      <trkpt lat="44.033" lon="6.09366">
        <ele>498.79998779297</ele>
        <time>2021-09-03T09:44:10Z</time>
      </trkpt>
      <trkpt lat="44.03298" lon="6.09338">
        <ele>498.60000610352</ele>
        <time>2021-09-03T09:44:13Z</time>
      </trkpt>
      <trkpt lat="44.03297" lon="6.09304">
        <ele>498.60000610352</ele>
        <time>2021-09-03T09:44:17Z</time>
      </trkpt>
      <trkpt lat="44.03302" lon="6.0925">
        <ele>498.79998779297</ele>
        <time>2021-09-03T09:44:24Z</time>
      </trkpt>
      <trkpt lat="44.03311" lon="6.09192">
        <ele>499.20001220703</ele>
        <time>2021-09-03T09:44:32Z</time>
      </trkpt>
      <trkpt lat="44.03321" lon="6.09128">
        <ele>498.20001220703</ele>
        <time>2021-09-03T09:44:40Z</time>
      </trkpt>
      <trkpt lat="44.03327" lon="6.09094">
        <ele>497.60000610352</ele>
        <time>2021-09-03T09:44:44Z</time>
      </trkpt>
      <trkpt lat="44.03335" lon="6.09057">
        <ele>497.20001220703</ele>
        <time>2021-09-03T09:44:48Z</time>
      </trkpt>
      <trkpt lat="44.03342" lon="6.09029">
        <ele>496.39999389648</ele>
        <time>2021-09-03T09:44:51Z</time>
      </trkpt>
      <trkpt lat="44.03354" lon="6.08983">
        <ele>495.39999389648</ele>
        <time>2021-09-03T09:44:56Z</time>
      </trkpt>
      <trkpt lat="44.03376" lon="6.08915">
        <ele>494.39999389648</ele>
        <time>2021-09-03T09:45:04Z</time>
      </trkpt>
      <trkpt lat="44.03379" lon="6.08907">
        <ele>494.39999389648</ele>
        <time>2021-09-03T09:45:05Z</time>
      </trkpt>
      <trkpt lat="44.03398" lon="6.0885">
        <ele>494.39999389648</ele>
        <time>2021-09-03T09:45:13Z</time>
      </trkpt>
      <trkpt lat="44.03414" lon="6.088">
        <ele>494.79998779297</ele>
        <time>2021-09-03T09:45:21Z</time>
      </trkpt>
      <trkpt lat="44.03433" lon="6.0873">
        <ele>495</ele>
        <time>2021-09-03T09:45:31Z</time>
      </trkpt>
      <trkpt lat="44.03451" lon="6.08662">
        <ele>495</ele>
        <time>2021-09-03T09:45:40Z</time>
      </trkpt>
      <trkpt lat="44.03468" lon="6.086">
        <ele>493.39999389648</ele>
        <time>2021-09-03T09:45:47Z</time>
      </trkpt>
      <trkpt lat="44.03471" lon="6.0859">
        <ele>493</ele>
        <time>2021-09-03T09:45:48Z</time>
      </trkpt>
      <trkpt lat="44.03484" lon="6.08553">
        <ele>492.20001220703</ele>
        <time>2021-09-03T09:45:52Z</time>
      </trkpt>
      <trkpt lat="44.03495" lon="6.08526">
        <ele>491.39999389648</ele>
        <time>2021-09-03T09:45:55Z</time>
      </trkpt>
      <trkpt lat="44.035" lon="6.08517">
        <ele>491.20001220703</ele>
        <time>2021-09-03T09:45:56Z</time>
      </trkpt>
      <trkpt lat="44.03517" lon="6.08482">
        <ele>490</ele>
        <time>2021-09-03T09:46:00Z</time>
      </trkpt>
      <trkpt lat="44.03525" lon="6.08464">
        <ele>489.39999389648</ele>
        <time>2021-09-03T09:46:02Z</time>
      </trkpt>
      <trkpt lat="44.03536" lon="6.08439">
        <ele>489</ele>
        <time>2021-09-03T09:46:05Z</time>
      </trkpt>
      <trkpt lat="44.03554" lon="6.08395">
        <ele>488</ele>
        <time>2021-09-03T09:46:10Z</time>
      </trkpt>
      <trkpt lat="44.03557" lon="6.08386">
        <ele>487.79998779297</ele>
        <time>2021-09-03T09:46:11Z</time>
      </trkpt>
      <trkpt lat="44.03578" lon="6.08336">
        <ele>486.79998779297</ele>
        <time>2021-09-03T09:46:17Z</time>
      </trkpt>
      <trkpt lat="44.03588" lon="6.08312">
        <ele>486.39999389648</ele>
        <time>2021-09-03T09:46:20Z</time>
      </trkpt>
      <trkpt lat="44.03606" lon="6.08272">
        <ele>485.60000610352</ele>
        <time>2021-09-03T09:46:25Z</time>
      </trkpt>
      <trkpt lat="44.03619" lon="6.08242">
        <ele>485.20001220703</ele>
        <time>2021-09-03T09:46:29Z</time>
      </trkpt>
      <trkpt lat="44.03643" lon="6.0819">
        <ele>485</ele>
        <time>2021-09-03T09:46:37Z</time>
      </trkpt>
      <trkpt lat="44.03666" lon="6.08142">
        <ele>485.79998779297</ele>
        <time>2021-09-03T09:46:46Z</time>
      </trkpt>
      <trkpt lat="44.03689" lon="6.08097">
        <ele>486.60000610352</ele>
        <time>2021-09-03T09:46:55Z</time>
      </trkpt>
      <trkpt lat="44.03692" lon="6.08092">
        <ele>486.79998779297</ele>
        <time>2021-09-03T09:46:56Z</time>
      </trkpt>
      <trkpt lat="44.03716" lon="6.08048">
        <ele>487.39999389648</ele>
        <time>2021-09-03T09:47:04Z</time>
      </trkpt>
      <trkpt lat="44.03747" lon="6.07986">
        <ele>487</ele>
        <time>2021-09-03T09:47:14Z</time>
      </trkpt>
      <trkpt lat="44.03779" lon="6.07923">
        <ele>485.79998779297</ele>
        <time>2021-09-03T09:47:23Z</time>
      </trkpt>
      <trkpt lat="44.03787" lon="6.07907">
        <ele>485.60000610352</ele>
        <time>2021-09-03T09:47:25Z</time>
      </trkpt>
      <trkpt lat="44.03809" lon="6.07866">
        <ele>484.60000610352</ele>
        <time>2021-09-03T09:47:30Z</time>
      </trkpt>
      <trkpt lat="44.03813" lon="6.07857">
        <ele>484.39999389648</ele>
        <time>2021-09-03T09:47:31Z</time>
      </trkpt>
      <trkpt lat="44.03832" lon="6.07822">
        <ele>483.39999389648</ele>
        <time>2021-09-03T09:47:35Z</time>
      </trkpt>
      <trkpt lat="44.03851" lon="6.07786">
        <ele>482.20001220703</ele>
        <time>2021-09-03T09:47:39Z</time>
      </trkpt>
      <trkpt lat="44.03859" lon="6.07769">
        <ele>481.79998779297</ele>
        <time>2021-09-03T09:47:41Z</time>
      </trkpt>
      <trkpt lat="44.03873" lon="6.07744">
        <ele>481.20001220703</ele>
        <time>2021-09-03T09:47:44Z</time>
      </trkpt>
      <trkpt lat="44.0389" lon="6.07715">
        <ele>481</ele>
        <time>2021-09-03T09:47:48Z</time>
      </trkpt>
      <trkpt lat="44.03921" lon="6.07662">
        <ele>481</ele>
        <time>2021-09-03T09:47:56Z</time>
      </trkpt>
      <trkpt lat="44.03947" lon="6.07614">
        <ele>480.79998779297</ele>
        <time>2021-09-03T09:48:04Z</time>
      </trkpt>
      <trkpt lat="44.03976" lon="6.07547">
        <ele>480.79998779297</ele>
        <time>2021-09-03T09:48:14Z</time>
      </trkpt>
      <trkpt lat="44.03991" lon="6.07509">
        <ele>480.20001220703</ele>
        <time>2021-09-03T09:48:19Z</time>
      </trkpt>
      <trkpt lat="44.04003" lon="6.07477">
        <ele>479.79998779297</ele>
        <time>2021-09-03T09:48:23Z</time>
      </trkpt>
      <trkpt lat="44.04027" lon="6.07408">
        <ele>479</ele>
        <time>2021-09-03T09:48:31Z</time>
      </trkpt>
      <trkpt lat="44.04029" lon="6.07399">
        <ele>479</ele>
        <time>2021-09-03T09:48:32Z</time>
      </trkpt>
      <trkpt lat="44.04044" lon="6.0733">
        <ele>478.20001220703</ele>
        <time>2021-09-03T09:48:39Z</time>
      </trkpt>
      <trkpt lat="44.04045" lon="6.07319">
        <ele>477.79998779297</ele>
        <time>2021-09-03T09:48:40Z</time>
      </trkpt>
      <trkpt lat="44.04054" lon="6.07274">
        <ele>476.60000610352</ele>
        <time>2021-09-03T09:48:44Z</time>
      </trkpt>
      <trkpt lat="44.04059" lon="6.07251">
        <ele>475.79998779297</ele>
        <time>2021-09-03T09:48:46Z</time>
      </trkpt>
      <trkpt lat="44.04062" lon="6.0724">
        <ele>475.39999389648</ele>
        <time>2021-09-03T09:48:47Z</time>
      </trkpt>
      <trkpt lat="44.04078" lon="6.07185">
        <ele>474.20001220703</ele>
        <time>2021-09-03T09:48:52Z</time>
      </trkpt>
      <trkpt lat="44.04083" lon="6.07174">
        <ele>473.79998779297</ele>
        <time>2021-09-03T09:48:53Z</time>
      </trkpt>
      <trkpt lat="44.04095" lon="6.07143">
        <ele>473.20001220703</ele>
        <time>2021-09-03T09:48:56Z</time>
      </trkpt>
      <trkpt lat="44.0412" lon="6.07075">
        <ele>472.39999389648</ele>
        <time>2021-09-03T09:49:03Z</time>
      </trkpt>
      <trkpt lat="44.04131" lon="6.07048">
        <ele>472</ele>
        <time>2021-09-03T09:49:06Z</time>
      </trkpt>
      <trkpt lat="44.04147" lon="6.07005">
        <ele>471.39999389648</ele>
        <time>2021-09-03T09:49:11Z</time>
      </trkpt>
      <trkpt lat="44.04174" lon="6.06935">
        <ele>471.20001220703</ele>
        <time>2021-09-03T09:49:20Z</time>
      </trkpt>
      <trkpt lat="44.04195" lon="6.06878">
        <ele>471</ele>
        <time>2021-09-03T09:49:28Z</time>
      </trkpt>
      <trkpt lat="44.04215" lon="6.06825">
        <ele>471.39999389648</ele>
        <time>2021-09-03T09:49:36Z</time>
      </trkpt>
      <trkpt lat="44.04237" lon="6.0676">
        <ele>472</ele>
        <time>2021-09-03T09:49:46Z</time>
      </trkpt>
      <trkpt lat="44.04255" lon="6.06704">
        <ele>472.60000610352</ele>
        <time>2021-09-03T09:49:55Z</time>
      </trkpt>
      <trkpt lat="44.04271" lon="6.06653">
        <ele>473</ele>
        <time>2021-09-03T09:50:03Z</time>
      </trkpt>
      <trkpt lat="44.04273" lon="6.06648">
        <ele>473</ele>
        <time>2021-09-03T09:50:04Z</time>
      </trkpt>
      <trkpt lat="44.04288" lon="6.06604">
        <ele>473.20001220703</ele>
        <time>2021-09-03T09:50:11Z</time>
      </trkpt>
      <trkpt lat="44.04307" lon="6.06544">
        <ele>474</ele>
        <time>2021-09-03T09:50:21Z</time>
      </trkpt>
      <trkpt lat="44.04311" lon="6.06532">
        <ele>474.20001220703</ele>
        <time>2021-09-03T09:50:23Z</time>
      </trkpt>
      <trkpt lat="44.04332" lon="6.0647">
        <ele>475</ele>
        <time>2021-09-03T09:50:33Z</time>
      </trkpt>
      <trkpt lat="44.04349" lon="6.06418">
        <ele>474.79998779297</ele>
        <time>2021-09-03T09:50:41Z</time>
      </trkpt>
      <trkpt lat="44.04355" lon="6.06399">
        <ele>474.79998779297</ele>
        <time>2021-09-03T09:50:44Z</time>
      </trkpt>
      <trkpt lat="44.04366" lon="6.06367">
        <ele>474.39999389648</ele>
        <time>2021-09-03T09:50:49Z</time>
      </trkpt>
      <trkpt lat="44.04384" lon="6.06312">
        <ele>473.60000610352</ele>
        <time>2021-09-03T09:50:57Z</time>
      </trkpt>
      <trkpt lat="44.04404" lon="6.0625">
        <ele>473</ele>
        <time>2021-09-03T09:51:05Z</time>
      </trkpt>
      <trkpt lat="44.0441" lon="6.06233">
        <ele>472.60000610352</ele>
        <time>2021-09-03T09:51:07Z</time>
      </trkpt>
      <trkpt lat="44.04422" lon="6.06196">
        <ele>471.79998779297</ele>
        <time>2021-09-03T09:51:11Z</time>
      </trkpt>
      <trkpt lat="44.04432" lon="6.06166">
        <ele>470.79998779297</ele>
        <time>2021-09-03T09:51:14Z</time>
      </trkpt>
      <trkpt lat="44.04435" lon="6.06156">
        <ele>470.60000610352</ele>
        <time>2021-09-03T09:51:15Z</time>
      </trkpt>
      <trkpt lat="44.04454" lon="6.06095">
        <ele>469.39999389648</ele>
        <time>2021-09-03T09:51:21Z</time>
      </trkpt>
      <trkpt lat="44.0446" lon="6.06075">
        <ele>469</ele>
        <time>2021-09-03T09:51:23Z</time>
      </trkpt>
      <trkpt lat="44.04475" lon="6.06028">
        <ele>468.39999389648</ele>
        <time>2021-09-03T09:51:28Z</time>
      </trkpt>
      <trkpt lat="44.04487" lon="6.05981">
        <ele>467.79998779297</ele>
        <time>2021-09-03T09:51:33Z</time>
      </trkpt>
      <trkpt lat="44.04494" lon="6.05952">
        <ele>467.39999389648</ele>
        <time>2021-09-03T09:51:36Z</time>
      </trkpt>
      <trkpt lat="44.04511" lon="6.05878">
        <ele>466.60000610352</ele>
        <time>2021-09-03T09:51:44Z</time>
      </trkpt>
      <trkpt lat="44.04518" lon="6.05842">
        <ele>466.39999389648</ele>
        <time>2021-09-03T09:51:48Z</time>
      </trkpt>
      <trkpt lat="44.04527" lon="6.05789">
        <ele>465.79998779297</ele>
        <time>2021-09-03T09:51:54Z</time>
      </trkpt>
      <trkpt lat="44.04531" lon="6.05762">
        <ele>465.39999389648</ele>
        <time>2021-09-03T09:51:57Z</time>
      </trkpt>
      <trkpt lat="44.04539" lon="6.05698">
        <ele>464.39999389648</ele>
        <time>2021-09-03T09:52:04Z</time>
      </trkpt>
      <trkpt lat="44.04542" lon="6.0568">
        <ele>464.39999389648</ele>
        <time>2021-09-03T09:52:06Z</time>
      </trkpt>
      <trkpt lat="44.0455" lon="6.0562">
        <ele>463.79998779297</ele>
        <time>2021-09-03T09:52:13Z</time>
      </trkpt>
      <trkpt lat="44.04557" lon="6.05569">
        <ele>463.79998779297</ele>
        <time>2021-09-03T09:52:20Z</time>
      </trkpt>
      <trkpt lat="44.04567" lon="6.05492">
        <ele>464</ele>
        <time>2021-09-03T09:52:31Z</time>
      </trkpt>
      <trkpt lat="44.04576" lon="6.05422">
        <ele>465</ele>
        <time>2021-09-03T09:52:41Z</time>
      </trkpt>
      <trkpt lat="44.04579" lon="6.054">
        <ele>465.39999389648</ele>
        <time>2021-09-03T09:52:44Z</time>
      </trkpt>
      <trkpt lat="44.04587" lon="6.05354">
        <ele>465.39999389648</ele>
        <time>2021-09-03T09:52:50Z</time>
      </trkpt>
      <trkpt lat="44.04597" lon="6.05283">
        <ele>464.79998779297</ele>
        <time>2021-09-03T09:52:58Z</time>
      </trkpt>
      <trkpt lat="44.04601" lon="6.05252">
        <ele>464.39999389648</ele>
        <time>2021-09-03T09:53:01Z</time>
      </trkpt>
      <trkpt lat="44.04607" lon="6.05209">
        <ele>463.39999389648</ele>
        <time>2021-09-03T09:53:05Z</time>
      </trkpt>
      <trkpt lat="44.04609" lon="6.05198">
        <ele>463.20001220703</ele>
        <time>2021-09-03T09:53:06Z</time>
      </trkpt>
      <trkpt lat="44.04617" lon="6.05143">
        <ele>462.20001220703</ele>
        <time>2021-09-03T09:53:11Z</time>
      </trkpt>
      <trkpt lat="44.04621" lon="6.05121">
        <ele>461.79998779297</ele>
        <time>2021-09-03T09:53:13Z</time>
      </trkpt>
      <trkpt lat="44.04626" lon="6.0509">
        <ele>461</ele>
        <time>2021-09-03T09:53:16Z</time>
      </trkpt>
      <trkpt lat="44.04633" lon="6.05039">
        <ele>460.20001220703</ele>
        <time>2021-09-03T09:53:21Z</time>
      </trkpt>
      <trkpt lat="44.04635" lon="6.05029">
        <ele>460</ele>
        <time>2021-09-03T09:53:22Z</time>
      </trkpt>
      <trkpt lat="44.04644" lon="6.04971">
        <ele>459.60000610352</ele>
        <time>2021-09-03T09:53:28Z</time>
      </trkpt>
      <trkpt lat="44.04654" lon="6.04901">
        <ele>458.79998779297</ele>
        <time>2021-09-03T09:53:36Z</time>
      </trkpt>
      <trkpt lat="44.04656" lon="6.04893">
        <ele>458.79998779297</ele>
        <time>2021-09-03T09:53:37Z</time>
      </trkpt>
      <trkpt lat="44.04665" lon="6.04816">
        <ele>458.39999389648</ele>
        <time>2021-09-03T09:53:47Z</time>
      </trkpt>
      <trkpt lat="44.04664" lon="6.04751">
        <ele>458.39999389648</ele>
        <time>2021-09-03T09:53:56Z</time>
      </trkpt>
      <trkpt lat="44.04657" lon="6.04696">
        <ele>458.60000610352</ele>
        <time>2021-09-03T09:54:04Z</time>
      </trkpt>
      <trkpt lat="44.04644" lon="6.04632">
        <ele>459</ele>
        <time>2021-09-03T09:54:14Z</time>
      </trkpt>
      <trkpt lat="44.04634" lon="6.0457">
        <ele>459</ele>
        <time>2021-09-03T09:54:23Z</time>
      </trkpt>
      <trkpt lat="44.04634" lon="6.04521">
        <ele>459.20001220703</ele>
        <time>2021-09-03T09:54:30Z</time>
      </trkpt>
      <trkpt lat="44.04644" lon="6.04497">
        <ele>459.39999389648</ele>
        <time>2021-09-03T09:54:34Z</time>
      </trkpt>
      <trkpt lat="44.04642" lon="6.0447">
        <ele>459.79998779297</ele>
        <time>2021-09-03T09:54:38Z</time>
      </trkpt>
      <trkpt lat="44.04631" lon="6.04448">
        <ele>460</ele>
        <time>2021-09-03T09:54:42Z</time>
      </trkpt>
      <trkpt lat="44.04629" lon="6.04442">
        <ele>460</ele>
        <time>2021-09-03T09:54:43Z</time>
      </trkpt>
      <trkpt lat="44.04628" lon="6.04437">
        <ele>460</ele>
        <time>2021-09-03T09:54:44Z</time>
      </trkpt>
      <trkpt lat="44.04627" lon="6.04415">
        <ele>460</ele>
        <time>2021-09-03T09:54:48Z</time>
      </trkpt>
      <trkpt lat="44.04628" lon="6.0441">
        <ele>460</ele>
        <time>2021-09-03T09:54:49Z</time>
      </trkpt>
      <trkpt lat="44.0463" lon="6.04397">
        <ele>460</ele>
        <time>2021-09-03T09:54:51Z</time>
      </trkpt>
      <trkpt lat="44.04632" lon="6.04384">
        <ele>460</ele>
        <time>2021-09-03T09:54:53Z</time>
      </trkpt>
      <trkpt lat="44.04633" lon="6.04328">
        <ele>459.39999389648</ele>
        <time>2021-09-03T09:55:00Z</time>
      </trkpt>
      <trkpt lat="44.04632" lon="6.0429">
        <ele>458.79998779297</ele>
        <time>2021-09-03T09:55:04Z</time>
      </trkpt>
      <trkpt lat="44.0463" lon="6.04271">
        <ele>458.39999389648</ele>
        <time>2021-09-03T09:55:06Z</time>
      </trkpt>
      <trkpt lat="44.04627" lon="6.0424">
        <ele>457.60000610352</ele>
        <time>2021-09-03T09:55:09Z</time>
      </trkpt>
      <trkpt lat="44.04621" lon="6.04185">
        <ele>456.39999389648</ele>
        <time>2021-09-03T09:55:14Z</time>
      </trkpt>
      <trkpt lat="44.04617" lon="6.04141">
        <ele>455.39999389648</ele>
        <time>2021-09-03T09:55:18Z</time>
      </trkpt>
      <trkpt lat="44.04614" lon="6.04108">
        <ele>454.39999389648</ele>
        <time>2021-09-03T09:55:21Z</time>
      </trkpt>
      <trkpt lat="44.04613" lon="6.04098">
        <ele>454</ele>
        <time>2021-09-03T09:55:22Z</time>
      </trkpt>
      <trkpt lat="44.04611" lon="6.04045">
        <ele>453</ele>
        <time>2021-09-03T09:55:27Z</time>
      </trkpt>
      <trkpt lat="44.0461" lon="6.04024">
        <ele>452.60000610352</ele>
        <time>2021-09-03T09:55:29Z</time>
      </trkpt>
      <trkpt lat="44.0461" lon="6.03952">
        <ele>452</ele>
        <time>2021-09-03T09:55:36Z</time>
      </trkpt>
      <trkpt lat="44.0461" lon="6.03941">
        <ele>451.79998779297</ele>
        <time>2021-09-03T09:55:37Z</time>
      </trkpt>
      <trkpt lat="44.04612" lon="6.03868">
        <ele>451.20001220703</ele>
        <time>2021-09-03T09:55:44Z</time>
      </trkpt>
      <trkpt lat="44.04615" lon="6.03788">
        <ele>451</ele>
        <time>2021-09-03T09:55:52Z</time>
      </trkpt>
      <trkpt lat="44.04618" lon="6.03712">
        <ele>450.60000610352</ele>
        <time>2021-09-03T09:56:00Z</time>
      </trkpt>
      <trkpt lat="44.04622" lon="6.03629">
        <ele>450.39999389648</ele>
        <time>2021-09-03T09:56:09Z</time>
      </trkpt>
      <trkpt lat="44.04622" lon="6.0362">
        <ele>450.39999389648</ele>
        <time>2021-09-03T09:56:10Z</time>
      </trkpt>
      <trkpt lat="44.04624" lon="6.03553">
        <ele>450.39999389648</ele>
        <time>2021-09-03T09:56:18Z</time>
      </trkpt>
      <trkpt lat="44.04626" lon="6.03482">
        <ele>450.20001220703</ele>
        <time>2021-09-03T09:56:26Z</time>
      </trkpt>
      <trkpt lat="44.04627" lon="6.03455">
        <ele>449.79998779297</ele>
        <time>2021-09-03T09:56:29Z</time>
      </trkpt>
      <trkpt lat="44.04627" lon="6.0345">
        <ele>449.79998779297</ele>
        <time>2021-09-03T09:56:30Z</time>
      </trkpt>
      <trkpt lat="44.04629" lon="6.03442">
        <ele>449.60000610352</ele>
        <time>2021-09-03T09:56:32Z</time>
      </trkpt>
      <trkpt lat="44.04633" lon="6.03427">
        <ele>448.79998779297</ele>
        <time>2021-09-03T09:56:36Z</time>
      </trkpt>
      <trkpt lat="44.04635" lon="6.03421">
        <ele>448.39999389648</ele>
        <time>2021-09-03T09:56:38Z</time>
      </trkpt>
      <trkpt lat="44.04637" lon="6.03415">
        <ele>447.79998779297</ele>
        <time>2021-09-03T10:01:42Z</time>
      </trkpt>
      <trkpt lat="44.04637" lon="6.03413">
        <ele>447.79998779297</ele>
        <time>2021-09-03T10:01:43Z</time>
      </trkpt>
      <trkpt lat="44.04639" lon="6.034">
        <ele>447.79998779297</ele>
        <time>2021-09-03T10:01:49Z</time>
      </trkpt>
      <trkpt lat="44.04638" lon="6.03392">
        <ele>447.79998779297</ele>
        <time>2021-09-03T10:01:54Z</time>
      </trkpt>
      <trkpt lat="44.04637" lon="6.03388">
        <ele>447.60000610352</ele>
        <time>2021-09-03T10:01:55Z</time>
      </trkpt>
      <trkpt lat="44.04636" lon="6.03367">
        <ele>447.60000610352</ele>
        <time>2021-09-03T10:02:00Z</time>
      </trkpt>
      <trkpt lat="44.04637" lon="6.03324">
        <ele>447.39999389648</ele>
        <time>2021-09-03T10:02:08Z</time>
      </trkpt>
      <trkpt lat="44.04634" lon="6.03313">
        <ele>447</ele>
        <time>2021-09-03T10:02:12Z</time>
      </trkpt>
      <trkpt lat="44.04633" lon="6.03309">
        <ele>446.60000610352</ele>
        <time>2021-09-03T10:02:18Z</time>
      </trkpt>
      <trkpt lat="44.04633" lon="6.03306">
        <ele>446.60000610352</ele>
        <time>2021-09-03T10:02:19Z</time>
      </trkpt>
      <trkpt lat="44.04635" lon="6.03279">
        <ele>446.39999389648</ele>
        <time>2021-09-03T10:02:24Z</time>
      </trkpt>
      <trkpt lat="44.04634" lon="6.03254">
        <ele>446.39999389648</ele>
        <time>2021-09-03T10:02:28Z</time>
      </trkpt>
      <trkpt lat="44.04628" lon="6.03244">
        <ele>446.20001220703</ele>
        <time>2021-09-03T10:02:30Z</time>
      </trkpt>
      <trkpt lat="44.0461" lon="6.03237">
        <ele>446.20001220703</ele>
        <time>2021-09-03T10:02:34Z</time>
      </trkpt>
      <trkpt lat="44.04606" lon="6.03235">
        <ele>446.20001220703</ele>
        <time>2021-09-03T10:02:35Z</time>
      </trkpt>
      <trkpt lat="44.046" lon="6.03228">
        <ele>446.39999389648</ele>
        <time>2021-09-03T10:02:37Z</time>
      </trkpt>
      <trkpt lat="44.04596" lon="6.03218">
        <ele>446.60000610352</ele>
        <time>2021-09-03T10:02:39Z</time>
      </trkpt>
      <trkpt lat="44.0459" lon="6.03211">
        <ele>446.60000610352</ele>
        <time>2021-09-03T10:02:41Z</time>
      </trkpt>
      <trkpt lat="44.04582" lon="6.03209">
        <ele>446.79998779297</ele>
        <time>2021-09-03T10:02:44Z</time>
      </trkpt>
      <trkpt lat="44.04585" lon="6.03205">
        <ele>446.79998779297</ele>
        <time>2021-09-03T10:02:49Z</time>
      </trkpt>
      <trkpt lat="44.04589" lon="6.03202">
        <ele>446.79998779297</ele>
        <time>2021-09-03T10:02:51Z</time>
      </trkpt>
      <trkpt lat="44.04591" lon="6.03196">
        <ele>446.79998779297</ele>
        <time>2021-09-03T10:02:53Z</time>
      </trkpt>
      <trkpt lat="44.04593" lon="6.03191">
        <ele>446.79998779297</ele>
        <time>2021-09-03T10:02:56Z</time>
      </trkpt>
      <trkpt lat="44.04594" lon="6.03197">
        <ele>446.39999389648</ele>
        <time>2021-09-03T10:02:59Z</time>
      </trkpt>
      <trkpt lat="44.04585" lon="6.03207">
        <ele>446.20001220703</ele>
        <time>2021-09-03T10:03:04Z</time>
      </trkpt>
      <trkpt lat="44.04575" lon="6.03213">
        <ele>446.60000610352</ele>
        <time>2021-09-03T10:03:08Z</time>
      </trkpt>
      <trkpt lat="44.04568" lon="6.0321">
        <ele>446.60000610352</ele>
        <time>2021-09-03T10:03:10Z</time>
      </trkpt>
      <trkpt lat="44.04557" lon="6.03208">
        <ele>446.60000610352</ele>
        <time>2021-09-03T10:03:13Z</time>
      </trkpt>
      <trkpt lat="44.04545" lon="6.0321">
        <ele>446.60000610352</ele>
        <time>2021-09-03T10:03:16Z</time>
      </trkpt>
      <trkpt lat="44.04541" lon="6.03208">
        <ele>446.60000610352</ele>
        <time>2021-09-03T10:03:17Z</time>
      </trkpt>
      <trkpt lat="44.04532" lon="6.03195">
        <ele>446.60000610352</ele>
        <time>2021-09-03T10:03:20Z</time>
      </trkpt>
      <trkpt lat="44.04529" lon="6.03191">
        <ele>446.60000610352</ele>
        <time>2021-09-03T10:03:21Z</time>
      </trkpt>
      <trkpt lat="44.0451" lon="6.03169">
        <ele>446.60000610352</ele>
        <time>2021-09-03T10:03:26Z</time>
      </trkpt>
      <trkpt lat="44.04507" lon="6.03165">
        <ele>446.60000610352</ele>
        <time>2021-09-03T10:03:27Z</time>
      </trkpt>
      <trkpt lat="44.04493" lon="6.03137">
        <ele>446.39999389648</ele>
        <time>2021-09-03T10:03:33Z</time>
      </trkpt>
      <trkpt lat="44.04492" lon="6.03132">
        <ele>446.39999389648</ele>
        <time>2021-09-03T10:03:34Z</time>
      </trkpt>
      <trkpt lat="44.04488" lon="6.03122">
        <ele>446.39999389648</ele>
        <time>2021-09-03T10:03:36Z</time>
      </trkpt>
      <trkpt lat="44.04481" lon="6.03116">
        <ele>446.20001220703</ele>
        <time>2021-09-03T10:03:38Z</time>
      </trkpt>
      <trkpt lat="44.04469" lon="6.03107">
        <ele>446.20001220703</ele>
        <time>2021-09-03T10:03:41Z</time>
      </trkpt>
      <trkpt lat="44.04466" lon="6.03103">
        <ele>446.20001220703</ele>
        <time>2021-09-03T10:03:42Z</time>
      </trkpt>
      <trkpt lat="44.04465" lon="6.03092">
        <ele>446.20001220703</ele>
        <time>2021-09-03T10:03:44Z</time>
      </trkpt>
      <trkpt lat="44.04466" lon="6.03081">
        <ele>446</ele>
        <time>2021-09-03T10:03:47Z</time>
      </trkpt>
      <trkpt lat="44.04459" lon="6.03074">
        <ele>445.60000610352</ele>
        <time>2021-09-03T10:03:51Z</time>
      </trkpt>
      <trkpt lat="44.04462" lon="6.03105">
        <ele>445.39999389648</ele>
        <time>2021-09-03T10:16:00Z</time>
      </trkpt>
      <trkpt lat="44.04462" lon="6.03105">
        <ele>445.39999389648</ele>
        <time>2021-09-03T10:16:01Z</time>
      </trkpt>
      <trkpt lat="44.04464" lon="6.031">
        <ele>445.39999389648</ele>
        <time>2021-09-03T10:16:06Z</time>
      </trkpt>
      <trkpt lat="44.04465" lon="6.03098">
        <ele>445.39999389648</ele>
        <time>2021-09-03T10:16:07Z</time>
      </trkpt>
      <trkpt lat="44.04465" lon="6.0309">
        <ele>445.60000610352</ele>
        <time>2021-09-03T10:16:11Z</time>
      </trkpt>
      <trkpt lat="44.04465" lon="6.03088">
        <ele>445.60000610352</ele>
        <time>2021-09-03T10:16:12Z</time>
      </trkpt>
      <trkpt lat="44.04464" lon="6.03086">
        <ele>445.79998779297</ele>
        <time>2021-09-03T10:16:13Z</time>
      </trkpt>
      <trkpt lat="44.04466" lon="6.03073">
        <ele>445.79998779297</ele>
        <time>2021-09-03T10:16:18Z</time>
      </trkpt>
      <trkpt lat="44.04466" lon="6.03062">
        <ele>445.39999389648</ele>
        <time>2021-09-03T10:16:23Z</time>
      </trkpt>
      <trkpt lat="44.04473" lon="6.03056">
        <ele>445</ele>
        <time>2021-09-03T10:16:27Z</time>
      </trkpt>
      <trkpt lat="44.04484" lon="6.03066">
        <ele>444.79998779297</ele>
        <time>2021-09-03T10:16:31Z</time>
      </trkpt>
      <trkpt lat="44.04495" lon="6.03083">
        <ele>444.79998779297</ele>
        <time>2021-09-03T10:16:36Z</time>
      </trkpt>
      <trkpt lat="44.04511" lon="6.03113">
        <ele>445.39999389648</ele>
        <time>2021-09-03T10:16:44Z</time>
      </trkpt>
      <trkpt lat="44.04535" lon="6.03143">
        <ele>445.60000610352</ele>
        <time>2021-09-03T10:16:53Z</time>
      </trkpt>
      <trkpt lat="44.0455" lon="6.03166">
        <ele>446</ele>
        <time>2021-09-03T10:16:59Z</time>
      </trkpt>
      <trkpt lat="44.04567" lon="6.03193">
        <ele>446.20001220703</ele>
        <time>2021-09-03T10:17:06Z</time>
      </trkpt>
      <trkpt lat="44.04577" lon="6.0321">
        <ele>446.60000610352</ele>
        <time>2021-09-03T10:17:11Z</time>
      </trkpt>
      <trkpt lat="44.04579" lon="6.03219">
        <ele>446.79998779297</ele>
        <time>2021-09-03T10:17:13Z</time>
      </trkpt>
      <trkpt lat="44.04583" lon="6.03231">
        <ele>447</ele>
        <time>2021-09-03T10:17:16Z</time>
      </trkpt>
      <trkpt lat="44.04587" lon="6.03234">
        <ele>447</ele>
        <time>2021-09-03T10:17:17Z</time>
      </trkpt>
      <trkpt lat="44.04598" lon="6.0324">
        <ele>447.20001220703</ele>
        <time>2021-09-03T10:17:20Z</time>
      </trkpt>
      <trkpt lat="44.04609" lon="6.03247">
        <ele>447.20001220703</ele>
        <time>2021-09-03T10:17:23Z</time>
      </trkpt>
      <trkpt lat="44.04624" lon="6.03253">
        <ele>447</ele>
        <time>2021-09-03T10:17:28Z</time>
      </trkpt>
      <trkpt lat="44.04627" lon="6.03253">
        <ele>446.60000610352</ele>
        <time>2021-09-03T10:17:33Z</time>
      </trkpt>
      <trkpt lat="44.04632" lon="6.03248">
        <ele>446.39999389648</ele>
        <time>2021-09-03T10:17:36Z</time>
      </trkpt>
      <trkpt lat="44.04634" lon="6.03244">
        <ele>446.39999389648</ele>
        <time>2021-09-03T10:17:37Z</time>
      </trkpt>
      <trkpt lat="44.04637" lon="6.03227">
        <ele>446.39999389648</ele>
        <time>2021-09-03T10:17:40Z</time>
      </trkpt>
      <trkpt lat="44.04637" lon="6.03221">
        <ele>446.39999389648</ele>
        <time>2021-09-03T10:17:41Z</time>
      </trkpt>
      <trkpt lat="44.04638" lon="6.03202">
        <ele>446.39999389648</ele>
        <time>2021-09-03T10:17:44Z</time>
      </trkpt>
      <trkpt lat="44.04641" lon="6.03169">
        <ele>446.20001220703</ele>
        <time>2021-09-03T10:17:49Z</time>
      </trkpt>
      <trkpt lat="44.04645" lon="6.03103">
        <ele>446</ele>
        <time>2021-09-03T10:17:58Z</time>
      </trkpt>
      <trkpt lat="44.04649" lon="6.03026">
        <ele>445.79998779297</ele>
        <time>2021-09-03T10:18:08Z</time>
      </trkpt>
      <trkpt lat="44.04649" lon="6.03019">
        <ele>445.79998779297</ele>
        <time>2021-09-03T10:18:09Z</time>
      </trkpt>
      <trkpt lat="44.04652" lon="6.02972">
        <ele>445.60000610352</ele>
        <time>2021-09-03T10:18:15Z</time>
      </trkpt>
      <trkpt lat="44.04653" lon="6.02955">
        <ele>445.39999389648</ele>
        <time>2021-09-03T10:18:17Z</time>
      </trkpt>
      <trkpt lat="44.04658" lon="6.0288">
        <ele>445</ele>
        <time>2021-09-03T10:18:26Z</time>
      </trkpt>
      <trkpt lat="44.04668" lon="6.02822">
        <ele>444.60000610352</ele>
        <time>2021-09-03T10:18:33Z</time>
      </trkpt>
      <trkpt lat="44.04672" lon="6.02807">
        <ele>444.39999389648</ele>
        <time>2021-09-03T10:18:35Z</time>
      </trkpt>
      <trkpt lat="44.04675" lon="6.028">
        <ele>444.39999389648</ele>
        <time>2021-09-03T10:18:36Z</time>
      </trkpt>
      <trkpt lat="44.04683" lon="6.02778">
        <ele>444</ele>
        <time>2021-09-03T10:18:39Z</time>
      </trkpt>
      <trkpt lat="44.04708" lon="6.02723">
        <ele>443.79998779297</ele>
        <time>2021-09-03T10:18:47Z</time>
      </trkpt>
      <trkpt lat="44.0472" lon="6.02705">
        <ele>443.39999389648</ele>
        <time>2021-09-03T10:18:50Z</time>
      </trkpt>
      <trkpt lat="44.0474" lon="6.02676">
        <ele>443.20001220703</ele>
        <time>2021-09-03T10:18:55Z</time>
      </trkpt>
      <trkpt lat="44.04787" lon="6.02627">
        <ele>442.60000610352</ele>
        <time>2021-09-03T10:19:05Z</time>
      </trkpt>
      <trkpt lat="44.04802" lon="6.02615">
        <ele>442.39999389648</ele>
        <time>2021-09-03T10:19:09Z</time>
      </trkpt>
      <trkpt lat="44.04822" lon="6.02602">
        <ele>442</ele>
        <time>2021-09-03T10:19:13Z</time>
      </trkpt>
      <trkpt lat="44.0486" lon="6.02581">
        <ele>441.60000610352</ele>
        <time>2021-09-03T10:19:20Z</time>
      </trkpt>
      <trkpt lat="44.04866" lon="6.02578">
        <ele>441.39999389648</ele>
        <time>2021-09-03T10:19:21Z</time>
      </trkpt>
      <trkpt lat="44.04899" lon="6.02561">
        <ele>441</ele>
        <time>2021-09-03T10:19:27Z</time>
      </trkpt>
      <trkpt lat="44.04931" lon="6.02544">
        <ele>440.60000610352</ele>
        <time>2021-09-03T10:19:33Z</time>
      </trkpt>
      <trkpt lat="44.04969" lon="6.02523">
        <ele>440.39999389648</ele>
        <time>2021-09-03T10:19:40Z</time>
      </trkpt>
      <trkpt lat="44.0498" lon="6.02518">
        <ele>440.39999389648</ele>
        <time>2021-09-03T10:19:42Z</time>
      </trkpt>
      <trkpt lat="44.05023" lon="6.02493">
        <ele>440.20001220703</ele>
        <time>2021-09-03T10:19:50Z</time>
      </trkpt>
      <trkpt lat="44.0506" lon="6.02474">
        <ele>440.20001220703</ele>
        <time>2021-09-03T10:19:57Z</time>
      </trkpt>
      <trkpt lat="44.05104" lon="6.02442">
        <ele>440</ele>
        <time>2021-09-03T10:20:06Z</time>
      </trkpt>
      <trkpt lat="44.05136" lon="6.02409">
        <ele>439.39999389648</ele>
        <time>2021-09-03T10:20:13Z</time>
      </trkpt>
      <trkpt lat="44.05167" lon="6.02364">
        <ele>439.60000610352</ele>
        <time>2021-09-03T10:20:21Z</time>
      </trkpt>
      <trkpt lat="44.05203" lon="6.02305">
        <ele>439.60000610352</ele>
        <time>2021-09-03T10:20:32Z</time>
      </trkpt>
      <trkpt lat="44.05226" lon="6.02266">
        <ele>440.20001220703</ele>
        <time>2021-09-03T10:20:40Z</time>
      </trkpt>
      <trkpt lat="44.05251" lon="6.02228">
        <ele>441.20001220703</ele>
        <time>2021-09-03T10:20:49Z</time>
      </trkpt>
      <trkpt lat="44.05261" lon="6.02214">
        <ele>441.39999389648</ele>
        <time>2021-09-03T10:20:53Z</time>
      </trkpt>
      <trkpt lat="44.05276" lon="6.02193">
        <ele>442</ele>
        <time>2021-09-03T10:20:59Z</time>
      </trkpt>
      <trkpt lat="44.05287" lon="6.0218">
        <ele>442.60000610352</ele>
        <time>2021-09-03T10:21:03Z</time>
      </trkpt>
      <trkpt lat="44.05299" lon="6.02164">
        <ele>443.20001220703</ele>
        <time>2021-09-03T10:21:08Z</time>
      </trkpt>
      <trkpt lat="44.05303" lon="6.02158">
        <ele>443.60000610352</ele>
        <time>2021-09-03T10:21:10Z</time>
      </trkpt>
      <trkpt lat="44.05316" lon="6.02144">
        <ele>444.20001220703</ele>
        <time>2021-09-03T10:21:15Z</time>
      </trkpt>
      <trkpt lat="44.05322" lon="6.02135">
        <ele>444.60000610352</ele>
        <time>2021-09-03T10:21:18Z</time>
      </trkpt>
      <trkpt lat="44.05337" lon="6.02118">
        <ele>445.20001220703</ele>
        <time>2021-09-03T10:21:24Z</time>
      </trkpt>
      <trkpt lat="44.05339" lon="6.02115">
        <ele>445.60000610352</ele>
        <time>2021-09-03T10:21:25Z</time>
      </trkpt>
      <trkpt lat="44.0536" lon="6.0209">
        <ele>446.60000610352</ele>
        <time>2021-09-03T10:21:34Z</time>
      </trkpt>
      <trkpt lat="44.05363" lon="6.02087">
        <ele>446.79998779297</ele>
        <time>2021-09-03T10:21:35Z</time>
      </trkpt>
      <trkpt lat="44.05382" lon="6.02065">
        <ele>447.79998779297</ele>
        <time>2021-09-03T10:21:43Z</time>
      </trkpt>
      <trkpt lat="44.05387" lon="6.0206">
        <ele>448</ele>
        <time>2021-09-03T10:21:45Z</time>
      </trkpt>
      <trkpt lat="44.054" lon="6.02048">
        <ele>448.79998779297</ele>
        <time>2021-09-03T10:21:50Z</time>
      </trkpt>
      <trkpt lat="44.0541" lon="6.02038">
        <ele>449.20001220703</ele>
        <time>2021-09-03T10:21:54Z</time>
      </trkpt>
      <trkpt lat="44.05436" lon="6.02018">
        <ele>449.79998779297</ele>
        <time>2021-09-03T10:22:02Z</time>
      </trkpt>
      <trkpt lat="44.05458" lon="6.02003">
        <ele>450.20001220703</ele>
        <time>2021-09-03T10:22:08Z</time>
      </trkpt>
      <trkpt lat="44.0547" lon="6.01996">
        <ele>450.39999389648</ele>
        <time>2021-09-03T10:22:11Z</time>
      </trkpt>
      <trkpt lat="44.05516" lon="6.01972">
        <ele>450.60000610352</ele>
        <time>2021-09-03T10:22:21Z</time>
      </trkpt>
      <trkpt lat="44.05557" lon="6.01959">
        <ele>450.20001220703</ele>
        <time>2021-09-03T10:22:28Z</time>
      </trkpt>
      <trkpt lat="44.05603" lon="6.0195">
        <ele>449.20001220703</ele>
        <time>2021-09-03T10:22:35Z</time>
      </trkpt>
      <trkpt lat="44.05616" lon="6.01948">
        <ele>448.60000610352</ele>
        <time>2021-09-03T10:22:37Z</time>
      </trkpt>
      <trkpt lat="44.05651" lon="6.01946">
        <ele>447.60000610352</ele>
        <time>2021-09-03T10:22:42Z</time>
      </trkpt>
      <trkpt lat="44.05665" lon="6.01947">
        <ele>447.20001220703</ele>
        <time>2021-09-03T10:22:44Z</time>
      </trkpt>
      <trkpt lat="44.05685" lon="6.01949">
        <ele>446.60000610352</ele>
        <time>2021-09-03T10:22:47Z</time>
      </trkpt>
      <trkpt lat="44.05707" lon="6.01952">
        <ele>445.79998779297</ele>
        <time>2021-09-03T10:22:50Z</time>
      </trkpt>
      <trkpt lat="44.05722" lon="6.01956">
        <ele>445.39999389648</ele>
        <time>2021-09-03T10:22:52Z</time>
      </trkpt>
      <trkpt lat="44.05761" lon="6.01968">
        <ele>444.60000610352</ele>
        <time>2021-09-03T10:22:57Z</time>
      </trkpt>
      <trkpt lat="44.05769" lon="6.01971">
        <ele>444.39999389648</ele>
        <time>2021-09-03T10:22:58Z</time>
      </trkpt>
      <trkpt lat="44.05812" lon="6.01989">
        <ele>443.60000610352</ele>
        <time>2021-09-03T10:23:04Z</time>
      </trkpt>
      <trkpt lat="44.05846" lon="6.02004">
        <ele>443.39999389648</ele>
        <time>2021-09-03T10:23:09Z</time>
      </trkpt>
      <trkpt lat="44.05872" lon="6.02015">
        <ele>443.20001220703</ele>
        <time>2021-09-03T10:23:13Z</time>
      </trkpt>
      <trkpt lat="44.05927" lon="6.02037">
        <ele>443.20001220703</ele>
        <time>2021-09-03T10:23:22Z</time>
      </trkpt>
      <trkpt lat="44.0598" lon="6.02059">
        <ele>443</ele>
        <time>2021-09-03T10:23:31Z</time>
      </trkpt>
      <trkpt lat="44.05986" lon="6.02061">
        <ele>443</ele>
        <time>2021-09-03T10:23:32Z</time>
      </trkpt>
      <trkpt lat="44.06039" lon="6.02079">
        <ele>443</ele>
        <time>2021-09-03T10:23:41Z</time>
      </trkpt>
      <trkpt lat="44.06045" lon="6.02081">
        <ele>443</ele>
        <time>2021-09-03T10:23:42Z</time>
      </trkpt>
      <trkpt lat="44.06094" lon="6.02094">
        <ele>443.20001220703</ele>
        <time>2021-09-03T10:23:51Z</time>
      </trkpt>
      <trkpt lat="44.06152" lon="6.02104">
        <ele>443.20001220703</ele>
        <time>2021-09-03T10:24:01Z</time>
      </trkpt>
      <trkpt lat="44.06158" lon="6.02104">
        <ele>443.20001220703</ele>
        <time>2021-09-03T10:24:02Z</time>
      </trkpt>
      <trkpt lat="44.06212" lon="6.02111">
        <ele>443</ele>
        <time>2021-09-03T10:24:11Z</time>
      </trkpt>
      <trkpt lat="44.0627" lon="6.02118">
        <ele>443</ele>
        <time>2021-09-03T10:24:21Z</time>
      </trkpt>
      <trkpt lat="44.06281" lon="6.0212">
        <ele>443.20001220703</ele>
        <time>2021-09-03T10:24:23Z</time>
      </trkpt>
      <trkpt lat="44.06337" lon="6.02127">
        <ele>443.79998779297</ele>
        <time>2021-09-03T10:24:33Z</time>
      </trkpt>
      <trkpt lat="44.06342" lon="6.02128">
        <ele>443.79998779297</ele>
        <time>2021-09-03T10:24:34Z</time>
      </trkpt>
      <trkpt lat="44.06388" lon="6.02134">
        <ele>444</ele>
        <time>2021-09-03T10:24:42Z</time>
      </trkpt>
      <trkpt lat="44.06429" lon="6.0214">
        <ele>444.39999389648</ele>
        <time>2021-09-03T10:24:49Z</time>
      </trkpt>
      <trkpt lat="44.06435" lon="6.02141">
        <ele>444.39999389648</ele>
        <time>2021-09-03T10:24:50Z</time>
      </trkpt>
      <trkpt lat="44.06489" lon="6.02151">
        <ele>444.60000610352</ele>
        <time>2021-09-03T10:24:59Z</time>
      </trkpt>
      <trkpt lat="44.06548" lon="6.02161">
        <ele>445</ele>
        <time>2021-09-03T10:25:09Z</time>
      </trkpt>
      <trkpt lat="44.0656" lon="6.02162">
        <ele>445</ele>
        <time>2021-09-03T10:25:11Z</time>
      </trkpt>
      <trkpt lat="44.06618" lon="6.02172">
        <ele>445.20001220703</ele>
        <time>2021-09-03T10:25:21Z</time>
      </trkpt>
      <trkpt lat="44.06635" lon="6.02175">
        <ele>445.39999389648</ele>
        <time>2021-09-03T10:25:24Z</time>
      </trkpt>
      <trkpt lat="44.06668" lon="6.02181">
        <ele>445.79998779297</ele>
        <time>2021-09-03T10:25:30Z</time>
      </trkpt>
      <trkpt lat="44.06723" lon="6.0219">
        <ele>446</ele>
        <time>2021-09-03T10:25:40Z</time>
      </trkpt>
      <trkpt lat="44.06735" lon="6.02191">
        <ele>446</ele>
        <time>2021-09-03T10:25:42Z</time>
      </trkpt>
      <trkpt lat="44.0679" lon="6.02201">
        <ele>446.20001220703</ele>
        <time>2021-09-03T10:25:52Z</time>
      </trkpt>
      <trkpt lat="44.06801" lon="6.02203">
        <ele>446.39999389648</ele>
        <time>2021-09-03T10:25:54Z</time>
      </trkpt>
      <trkpt lat="44.06851" lon="6.02211">
        <ele>447</ele>
        <time>2021-09-03T10:26:03Z</time>
      </trkpt>
      <trkpt lat="44.069" lon="6.02219">
        <ele>447.39999389648</ele>
        <time>2021-09-03T10:26:12Z</time>
      </trkpt>
      <trkpt lat="44.06957" lon="6.02225">
        <ele>447.60000610352</ele>
        <time>2021-09-03T10:26:22Z</time>
      </trkpt>
      <trkpt lat="44.07012" lon="6.02229">
        <ele>448.20001220703</ele>
        <time>2021-09-03T10:26:32Z</time>
      </trkpt>
      <trkpt lat="44.0706" lon="6.02231">
        <ele>448.39999389648</ele>
        <time>2021-09-03T10:26:41Z</time>
      </trkpt>
      <trkpt lat="44.07066" lon="6.02231">
        <ele>448.60000610352</ele>
        <time>2021-09-03T10:26:42Z</time>
      </trkpt>
      <trkpt lat="44.07112" lon="6.02233">
        <ele>449</ele>
        <time>2021-09-03T10:26:51Z</time>
      </trkpt>
      <trkpt lat="44.07149" lon="6.02233">
        <ele>449.20001220703</ele>
        <time>2021-09-03T10:26:59Z</time>
      </trkpt>
      <trkpt lat="44.07161" lon="6.02233">
        <ele>449.20001220703</ele>
        <time>2021-09-03T10:27:04Z</time>
      </trkpt>
      <trkpt lat="44.07163" lon="6.02235">
        <ele>449</ele>
        <time>2021-09-03T10:27:46Z</time>
      </trkpt>
      <trkpt lat="44.07166" lon="6.02237">
        <ele>449</ele>
        <time>2021-09-03T10:27:48Z</time>
      </trkpt>
      <trkpt lat="44.07183" lon="6.02242">
        <ele>449</ele>
        <time>2021-09-03T10:27:53Z</time>
      </trkpt>
      <trkpt lat="44.07204" lon="6.02247">
        <ele>449.39999389648</ele>
        <time>2021-09-03T10:27:59Z</time>
      </trkpt>
      <trkpt lat="44.07206" lon="6.02251">
        <ele>449.39999389648</ele>
        <time>2021-09-03T10:28:00Z</time>
      </trkpt>
      <trkpt lat="44.07207" lon="6.02256">
        <ele>449.60000610352</ele>
        <time>2021-09-03T10:28:01Z</time>
      </trkpt>
      <trkpt lat="44.07208" lon="6.0227">
        <ele>450.20001220703</ele>
        <time>2021-09-03T10:28:04Z</time>
      </trkpt>
      <trkpt lat="44.07207" lon="6.02275">
        <ele>450.20001220703</ele>
        <time>2021-09-03T10:28:05Z</time>
      </trkpt>
      <trkpt lat="44.07207" lon="6.02291">
        <ele>450.60000610352</ele>
        <time>2021-09-03T10:28:08Z</time>
      </trkpt>
      <trkpt lat="44.07207" lon="6.02309">
        <ele>450.79998779297</ele>
        <time>2021-09-03T10:28:11Z</time>
      </trkpt>
      <trkpt lat="44.0721" lon="6.02324">
        <ele>450.79998779297</ele>
        <time>2021-09-03T10:28:14Z</time>
      </trkpt>
      <trkpt lat="44.07213" lon="6.02326">
        <ele>450.79998779297</ele>
        <time>2021-09-03T10:28:15Z</time>
      </trkpt>
      <trkpt lat="44.0723" lon="6.02327">
        <ele>450.60000610352</ele>
        <time>2021-09-03T10:28:19Z</time>
      </trkpt>
      <trkpt lat="44.07249" lon="6.02323">
        <ele>450.60000610352</ele>
        <time>2021-09-03T10:28:23Z</time>
      </trkpt>
      <trkpt lat="44.07259" lon="6.0232">
        <ele>450.60000610352</ele>
        <time>2021-09-03T10:28:25Z</time>
      </trkpt>
      <trkpt lat="44.07294" lon="6.02312">
        <ele>450.60000610352</ele>
        <time>2021-09-03T10:28:32Z</time>
      </trkpt>
      <trkpt lat="44.0733" lon="6.023">
        <ele>450.79998779297</ele>
        <time>2021-09-03T10:28:39Z</time>
      </trkpt>
      <trkpt lat="44.0737" lon="6.02286">
        <ele>450.79998779297</ele>
        <time>2021-09-03T10:28:47Z</time>
      </trkpt>
      <trkpt lat="44.07375" lon="6.02283">
        <ele>450.79998779297</ele>
        <time>2021-09-03T10:28:48Z</time>
      </trkpt>
      <trkpt lat="44.0741" lon="6.02263">
        <ele>451.39999389648</ele>
        <time>2021-09-03T10:28:56Z</time>
      </trkpt>
      <trkpt lat="44.0743" lon="6.02253">
        <ele>451.60000610352</ele>
        <time>2021-09-03T10:29:01Z</time>
      </trkpt>
      <trkpt lat="44.0744" lon="6.02248">
        <ele>452.20001220703</ele>
        <time>2021-09-03T10:29:04Z</time>
      </trkpt>
      <trkpt lat="44.07451" lon="6.02244">
        <ele>452.79998779297</ele>
        <time>2021-09-03T10:29:07Z</time>
      </trkpt>
      <trkpt lat="44.07468" lon="6.02238">
        <ele>453.60000610352</ele>
        <time>2021-09-03T10:29:12Z</time>
      </trkpt>
      <trkpt lat="44.07471" lon="6.02236">
        <ele>453.79998779297</ele>
        <time>2021-09-03T10:29:13Z</time>
      </trkpt>
      <trkpt lat="44.07484" lon="6.02232">
        <ele>454.39999389648</ele>
        <time>2021-09-03T10:29:17Z</time>
      </trkpt>
      <trkpt lat="44.07491" lon="6.02234">
        <ele>454.79998779297</ele>
        <time>2021-09-03T10:29:19Z</time>
      </trkpt>
      <trkpt lat="44.07514" lon="6.02237">
        <ele>455.60000610352</ele>
        <time>2021-09-03T10:29:25Z</time>
      </trkpt>
      <trkpt lat="44.07518" lon="6.02237">
        <ele>456</ele>
        <time>2021-09-03T10:29:26Z</time>
      </trkpt>
      <trkpt lat="44.07539" lon="6.02237">
        <ele>456.79998779297</ele>
        <time>2021-09-03T10:29:32Z</time>
      </trkpt>
      <trkpt lat="44.07546" lon="6.02237">
        <ele>457</ele>
        <time>2021-09-03T10:29:34Z</time>
      </trkpt>
      <trkpt lat="44.07566" lon="6.02234">
        <ele>457.39999389648</ele>
        <time>2021-09-03T10:29:39Z</time>
      </trkpt>
      <trkpt lat="44.07592" lon="6.02225">
        <ele>457.79998779297</ele>
        <time>2021-09-03T10:29:46Z</time>
      </trkpt>
      <trkpt lat="44.07603" lon="6.02221">
        <ele>458</ele>
        <time>2021-09-03T10:29:49Z</time>
      </trkpt>
      <trkpt lat="44.07615" lon="6.02215">
        <ele>458.60000610352</ele>
        <time>2021-09-03T10:29:53Z</time>
      </trkpt>
      <trkpt lat="44.07629" lon="6.02215">
        <ele>459</ele>
        <time>2021-09-03T10:29:57Z</time>
      </trkpt>
      <trkpt lat="44.07632" lon="6.02215">
        <ele>459.20001220703</ele>
        <time>2021-09-03T10:29:58Z</time>
      </trkpt>
      <trkpt lat="44.07659" lon="6.02209">
        <ele>460.20001220703</ele>
        <time>2021-09-03T10:30:06Z</time>
      </trkpt>
      <trkpt lat="44.07682" lon="6.02209">
        <ele>461.20001220703</ele>
        <time>2021-09-03T10:30:13Z</time>
      </trkpt>
      <trkpt lat="44.077" lon="6.02211">
        <ele>462.20001220703</ele>
        <time>2021-09-03T10:30:19Z</time>
      </trkpt>
      <trkpt lat="44.07706" lon="6.02213">
        <ele>462.60000610352</ele>
        <time>2021-09-03T10:30:21Z</time>
      </trkpt>
      <trkpt lat="44.07719" lon="6.02218">
        <ele>463.39999389648</ele>
        <time>2021-09-03T10:30:26Z</time>
      </trkpt>
      <trkpt lat="44.07725" lon="6.02222">
        <ele>463.79998779297</ele>
        <time>2021-09-03T10:30:28Z</time>
      </trkpt>
      <trkpt lat="44.07736" lon="6.02236">
        <ele>464.39999389648</ele>
        <time>2021-09-03T10:30:33Z</time>
      </trkpt>
      <trkpt lat="44.07738" lon="6.02239">
        <ele>464.60000610352</ele>
        <time>2021-09-03T10:30:34Z</time>
      </trkpt>
      <trkpt lat="44.07745" lon="6.02247">
        <ele>465.60000610352</ele>
        <time>2021-09-03T10:30:38Z</time>
      </trkpt>
      <trkpt lat="44.0775" lon="6.02249">
        <ele>466</ele>
        <time>2021-09-03T10:30:40Z</time>
      </trkpt>
      <trkpt lat="44.07752" lon="6.02247">
        <ele>466.20001220703</ele>
        <time>2021-09-03T10:30:41Z</time>
      </trkpt>
      <trkpt lat="44.07759" lon="6.0224">
        <ele>466.60000610352</ele>
        <time>2021-09-03T10:30:44Z</time>
      </trkpt>
      <trkpt lat="44.07761" lon="6.02231">
        <ele>466.79998779297</ele>
        <time>2021-09-03T10:30:46Z</time>
      </trkpt>
      <trkpt lat="44.07763" lon="6.02227">
        <ele>466.79998779297</ele>
        <time>2021-09-03T10:30:47Z</time>
      </trkpt>
      <trkpt lat="44.07772" lon="6.02218">
        <ele>466.39999389648</ele>
        <time>2021-09-03T10:30:50Z</time>
      </trkpt>
      <trkpt lat="44.0778" lon="6.02216">
        <ele>466.20001220703</ele>
        <time>2021-09-03T10:30:52Z</time>
      </trkpt>
      <trkpt lat="44.07793" lon="6.02215">
        <ele>466</ele>
        <time>2021-09-03T10:30:55Z</time>
      </trkpt>
      <trkpt lat="44.07823" lon="6.02215">
        <ele>466.39999389648</ele>
        <time>2021-09-03T10:31:02Z</time>
      </trkpt>
      <trkpt lat="44.0785" lon="6.02211">
        <ele>467</ele>
        <time>2021-09-03T10:31:09Z</time>
      </trkpt>
      <trkpt lat="44.07866" lon="6.0221">
        <ele>467.39999389648</ele>
        <time>2021-09-03T10:31:13Z</time>
      </trkpt>
      <trkpt lat="44.07874" lon="6.02208">
        <ele>467.39999389648</ele>
        <time>2021-09-03T10:31:15Z</time>
      </trkpt>
      <trkpt lat="44.07897" lon="6.02204">
        <ele>467.39999389648</ele>
        <time>2021-09-03T10:31:20Z</time>
      </trkpt>
      <trkpt lat="44.07906" lon="6.02202">
        <ele>467.39999389648</ele>
        <time>2021-09-03T10:31:22Z</time>
      </trkpt>
      <trkpt lat="44.07941" lon="6.02188">
        <ele>467.20001220703</ele>
        <time>2021-09-03T10:31:29Z</time>
      </trkpt>
      <trkpt lat="44.07983" lon="6.02171">
        <ele>466.79998779297</ele>
        <time>2021-09-03T10:31:37Z</time>
      </trkpt>
      <trkpt lat="44.0802" lon="6.02156">
        <ele>466.20001220703</ele>
        <time>2021-09-03T10:31:43Z</time>
      </trkpt>
      <trkpt lat="44.08047" lon="6.02152">
        <ele>465.39999389648</ele>
        <time>2021-09-03T10:31:47Z</time>
      </trkpt>
      <trkpt lat="44.08059" lon="6.02153">
        <ele>465</ele>
        <time>2021-09-03T10:31:49Z</time>
      </trkpt>
      <trkpt lat="44.08078" lon="6.02153">
        <ele>464.39999389648</ele>
        <time>2021-09-03T10:31:52Z</time>
      </trkpt>
      <trkpt lat="44.08096" lon="6.02152">
        <ele>464.20001220703</ele>
        <time>2021-09-03T10:31:55Z</time>
      </trkpt>
      <trkpt lat="44.08128" lon="6.02146">
        <ele>463.20001220703</ele>
        <time>2021-09-03T10:32:00Z</time>
      </trkpt>
      <trkpt lat="44.08143" lon="6.02144">
        <ele>462.60000610352</ele>
        <time>2021-09-03T10:32:02Z</time>
      </trkpt>
      <trkpt lat="44.0816" lon="6.02141">
        <ele>462</ele>
        <time>2021-09-03T10:32:04Z</time>
      </trkpt>
      <trkpt lat="44.08185" lon="6.02137">
        <ele>461</ele>
        <time>2021-09-03T10:32:07Z</time>
      </trkpt>
      <trkpt lat="44.08202" lon="6.02136">
        <ele>460.20001220703</ele>
        <time>2021-09-03T10:32:09Z</time>
      </trkpt>
      <trkpt lat="44.0821" lon="6.02136">
        <ele>459.79998779297</ele>
        <time>2021-09-03T10:32:10Z</time>
      </trkpt>
      <trkpt lat="44.08234" lon="6.02138">
        <ele>458.60000610352</ele>
        <time>2021-09-03T10:32:13Z</time>
      </trkpt>
      <trkpt lat="44.0825" lon="6.02141">
        <ele>457.79998779297</ele>
        <time>2021-09-03T10:32:15Z</time>
      </trkpt>
      <trkpt lat="44.08257" lon="6.02143">
        <ele>457.60000610352</ele>
        <time>2021-09-03T10:32:16Z</time>
      </trkpt>
      <trkpt lat="44.08281" lon="6.02152">
        <ele>457</ele>
        <time>2021-09-03T10:32:20Z</time>
      </trkpt>
      <trkpt lat="44.08303" lon="6.02159">
        <ele>457.20001220703</ele>
        <time>2021-09-03T10:32:24Z</time>
      </trkpt>
      <trkpt lat="44.08309" lon="6.02159">
        <ele>457.20001220703</ele>
        <time>2021-09-03T10:32:25Z</time>
      </trkpt>
      <trkpt lat="44.08343" lon="6.02157">
        <ele>456.39999389648</ele>
        <time>2021-09-03T10:32:30Z</time>
      </trkpt>
      <trkpt lat="44.0835" lon="6.02156">
        <ele>456.20001220703</ele>
        <time>2021-09-03T10:32:31Z</time>
      </trkpt>
      <trkpt lat="44.0837" lon="6.02155">
        <ele>455.39999389648</ele>
        <time>2021-09-03T10:32:34Z</time>
      </trkpt>
      <trkpt lat="44.08395" lon="6.02153">
        <ele>454.60000610352</ele>
        <time>2021-09-03T10:32:38Z</time>
      </trkpt>
      <trkpt lat="44.08408" lon="6.02153">
        <ele>454.20001220703</ele>
        <time>2021-09-03T10:32:40Z</time>
      </trkpt>
      <trkpt lat="44.08414" lon="6.02152">
        <ele>454.20001220703</ele>
        <time>2021-09-03T10:32:41Z</time>
      </trkpt>
      <trkpt lat="44.08431" lon="6.02147">
        <ele>454.20001220703</ele>
        <time>2021-09-03T10:32:44Z</time>
      </trkpt>
      <trkpt lat="44.08445" lon="6.02143">
        <ele>454.20001220703</ele>
        <time>2021-09-03T10:32:47Z</time>
      </trkpt>
      <trkpt lat="44.08454" lon="6.02138">
        <ele>454.39999389648</ele>
        <time>2021-09-03T10:32:49Z</time>
      </trkpt>
      <trkpt lat="44.08459" lon="6.02137">
        <ele>454.39999389648</ele>
        <time>2021-09-03T10:32:50Z</time>
      </trkpt>
      <trkpt lat="44.08479" lon="6.02132">
        <ele>455</ele>
        <time>2021-09-03T10:32:55Z</time>
      </trkpt>
      <trkpt lat="44.0849" lon="6.02132">
        <ele>455.20001220703</ele>
        <time>2021-09-03T10:32:58Z</time>
      </trkpt>
      <trkpt lat="44.085" lon="6.02134">
        <ele>455.39999389648</ele>
        <time>2021-09-03T10:33:01Z</time>
      </trkpt>
      <trkpt lat="44.08515" lon="6.02131">
        <ele>455.60000610352</ele>
        <time>2021-09-03T10:33:06Z</time>
      </trkpt>
      <trkpt lat="44.08526" lon="6.02134">
        <ele>455.39999389648</ele>
        <time>2021-09-03T10:33:11Z</time>
      </trkpt>
      <trkpt lat="44.08542" lon="6.02136">
        <ele>455.20001220703</ele>
        <time>2021-09-03T10:33:16Z</time>
      </trkpt>
      <trkpt lat="44.08558" lon="6.02133">
        <ele>454.79998779297</ele>
        <time>2021-09-03T10:33:20Z</time>
      </trkpt>
      <trkpt lat="44.08562" lon="6.02133">
        <ele>454.79998779297</ele>
        <time>2021-09-03T10:33:21Z</time>
      </trkpt>
      <trkpt lat="44.08593" lon="6.02132">
        <ele>454.79998779297</ele>
        <time>2021-09-03T10:33:28Z</time>
      </trkpt>
      <trkpt lat="44.08605" lon="6.0213">
        <ele>455</ele>
        <time>2021-09-03T10:33:31Z</time>
      </trkpt>
      <trkpt lat="44.08613" lon="6.02131">
        <ele>455.20001220703</ele>
        <time>2021-09-03T10:33:33Z</time>
      </trkpt>
      <trkpt lat="44.08649" lon="6.0213">
        <ele>455.79998779297</ele>
        <time>2021-09-03T10:33:41Z</time>
      </trkpt>
      <trkpt lat="44.08675" lon="6.02129">
        <ele>456</ele>
        <time>2021-09-03T10:33:47Z</time>
      </trkpt>
      <trkpt lat="44.08705" lon="6.02126">
        <ele>455.79998779297</ele>
        <time>2021-09-03T10:33:53Z</time>
      </trkpt>
      <trkpt lat="44.08742" lon="6.02126">
        <ele>455.20001220703</ele>
        <time>2021-09-03T10:34:00Z</time>
      </trkpt>
      <trkpt lat="44.08747" lon="6.02127">
        <ele>455</ele>
        <time>2021-09-03T10:34:01Z</time>
      </trkpt>
      <trkpt lat="44.08768" lon="6.02129">
        <ele>454.60000610352</ele>
        <time>2021-09-03T10:34:05Z</time>
      </trkpt>
      <trkpt lat="44.08794" lon="6.02126">
        <ele>454.20001220703</ele>
        <time>2021-09-03T10:34:09Z</time>
      </trkpt>
      <trkpt lat="44.08801" lon="6.02123">
        <ele>454</ele>
        <time>2021-09-03T10:34:10Z</time>
      </trkpt>
      <trkpt lat="44.08814" lon="6.02119">
        <ele>453.39999389648</ele>
        <time>2021-09-03T10:34:12Z</time>
      </trkpt>
      <trkpt lat="44.0882" lon="6.02118">
        <ele>453.20001220703</ele>
        <time>2021-09-03T10:34:13Z</time>
      </trkpt>
      <trkpt lat="44.08838" lon="6.02118">
        <ele>451.79998779297</ele>
        <time>2021-09-03T10:34:16Z</time>
      </trkpt>
      <trkpt lat="44.08855" lon="6.02128">
        <ele>450.79998779297</ele>
        <time>2021-09-03T10:34:19Z</time>
      </trkpt>
      <trkpt lat="44.08868" lon="6.02134">
        <ele>450.20001220703</ele>
        <time>2021-09-03T10:34:21Z</time>
      </trkpt>
      <trkpt lat="44.08897" lon="6.02148">
        <ele>450.20001220703</ele>
        <time>2021-09-03T10:34:26Z</time>
      </trkpt>
      <trkpt lat="44.08902" lon="6.02151">
        <ele>450.20001220703</ele>
        <time>2021-09-03T10:34:27Z</time>
      </trkpt>
      <trkpt lat="44.08951" lon="6.02174">
        <ele>450.20001220703</ele>
        <time>2021-09-03T10:34:36Z</time>
      </trkpt>
      <trkpt lat="44.08978" lon="6.02184">
        <ele>450</ele>
        <time>2021-09-03T10:34:41Z</time>
      </trkpt>
      <trkpt lat="44.08989" lon="6.02187">
        <ele>450</ele>
        <time>2021-09-03T10:34:43Z</time>
      </trkpt>
      <trkpt lat="44.09037" lon="6.02194">
        <ele>450.39999389648</ele>
        <time>2021-09-03T10:34:51Z</time>
      </trkpt>
      <trkpt lat="44.09089" lon="6.02199">
        <ele>450.20001220703</ele>
        <time>2021-09-03T10:35:00Z</time>
      </trkpt>
      <trkpt lat="44.09129" lon="6.02204">
        <ele>450</ele>
        <time>2021-09-03T10:35:07Z</time>
      </trkpt>
      <trkpt lat="44.09158" lon="6.0221">
        <ele>450.39999389648</ele>
        <time>2021-09-03T10:35:13Z</time>
      </trkpt>
      <trkpt lat="44.09191" lon="6.02214">
        <ele>451.60000610352</ele>
        <time>2021-09-03T10:35:21Z</time>
      </trkpt>
      <trkpt lat="44.09199" lon="6.02215">
        <ele>451.79998779297</ele>
        <time>2021-09-03T10:35:23Z</time>
      </trkpt>
      <trkpt lat="44.09221" lon="6.02219">
        <ele>452.79998779297</ele>
        <time>2021-09-03T10:35:29Z</time>
      </trkpt>
      <trkpt lat="44.09245" lon="6.02222">
        <ele>453.79998779297</ele>
        <time>2021-09-03T10:35:35Z</time>
      </trkpt>
      <trkpt lat="44.09249" lon="6.02223">
        <ele>454</ele>
        <time>2021-09-03T10:35:36Z</time>
      </trkpt>
      <trkpt lat="44.09274" lon="6.02228">
        <ele>454.20001220703</ele>
        <time>2021-09-03T10:35:41Z</time>
      </trkpt>
      <trkpt lat="44.09313" lon="6.02241">
        <ele>453.79998779297</ele>
        <time>2021-09-03T10:35:48Z</time>
      </trkpt>
      <trkpt lat="44.09349" lon="6.02251">
        <ele>453</ele>
        <time>2021-09-03T10:35:54Z</time>
      </trkpt>
      <trkpt lat="44.09355" lon="6.02254">
        <ele>453</ele>
        <time>2021-09-03T10:35:55Z</time>
      </trkpt>
      <trkpt lat="44.09361" lon="6.02258">
        <ele>452.79998779297</ele>
        <time>2021-09-03T10:35:56Z</time>
      </trkpt>
      <trkpt lat="44.09378" lon="6.0227">
        <ele>452.39999389648</ele>
        <time>2021-09-03T10:35:59Z</time>
      </trkpt>
      <trkpt lat="44.09402" lon="6.02289">
        <ele>451.79998779297</ele>
        <time>2021-09-03T10:36:03Z</time>
      </trkpt>
      <trkpt lat="44.09418" lon="6.02302">
        <ele>451.79998779297</ele>
        <time>2021-09-03T10:36:06Z</time>
      </trkpt>
      <trkpt lat="44.09441" lon="6.02317">
        <ele>451.79998779297</ele>
        <time>2021-09-03T10:36:10Z</time>
      </trkpt>
      <trkpt lat="44.09453" lon="6.02322">
        <ele>451.79998779297</ele>
        <time>2021-09-03T10:36:12Z</time>
      </trkpt>
      <trkpt lat="44.09492" lon="6.02327">
        <ele>451.79998779297</ele>
        <time>2021-09-03T10:36:18Z</time>
      </trkpt>
      <trkpt lat="44.09535" lon="6.02338">
        <ele>451.79998779297</ele>
        <time>2021-09-03T10:36:25Z</time>
      </trkpt>
      <trkpt lat="44.09581" lon="6.02359">
        <ele>452</ele>
        <time>2021-09-03T10:36:33Z</time>
      </trkpt>
      <trkpt lat="44.09605" lon="6.02371">
        <ele>451.79998779297</ele>
        <time>2021-09-03T10:36:37Z</time>
      </trkpt>
      <trkpt lat="44.09623" lon="6.02382">
        <ele>451.60000610352</ele>
        <time>2021-09-03T10:36:40Z</time>
      </trkpt>
      <trkpt lat="44.09659" lon="6.02407">
        <ele>451.20001220703</ele>
        <time>2021-09-03T10:36:46Z</time>
      </trkpt>
      <trkpt lat="44.09674" lon="6.02415">
        <ele>450.79998779297</ele>
        <time>2021-09-03T10:36:48Z</time>
      </trkpt>
      <trkpt lat="44.09694" lon="6.02423">
        <ele>450.39999389648</ele>
        <time>2021-09-03T10:36:51Z</time>
      </trkpt>
      <trkpt lat="44.0972" lon="6.02418">
        <ele>450.20001220703</ele>
        <time>2021-09-03T10:36:55Z</time>
      </trkpt>
      <trkpt lat="44.09746" lon="6.02416">
        <ele>450.20001220703</ele>
        <time>2021-09-03T10:36:59Z</time>
      </trkpt>
      <trkpt lat="44.09753" lon="6.02418">
        <ele>450.20001220703</ele>
        <time>2021-09-03T10:37:00Z</time>
      </trkpt>
      <trkpt lat="44.09785" lon="6.02434">
        <ele>450</ele>
        <time>2021-09-03T10:37:05Z</time>
      </trkpt>
      <trkpt lat="44.0981" lon="6.02443">
        <ele>450</ele>
        <time>2021-09-03T10:37:09Z</time>
      </trkpt>
      <trkpt lat="44.09817" lon="6.02442">
        <ele>450</ele>
        <time>2021-09-03T10:37:10Z</time>
      </trkpt>
      <trkpt lat="44.09836" lon="6.02438">
        <ele>450</ele>
        <time>2021-09-03T10:37:13Z</time>
      </trkpt>
      <trkpt lat="44.09849" lon="6.02434">
        <ele>450</ele>
        <time>2021-09-03T10:37:15Z</time>
      </trkpt>
      <trkpt lat="44.0988" lon="6.02433">
        <ele>450</ele>
        <time>2021-09-03T10:37:20Z</time>
      </trkpt>
      <trkpt lat="44.09926" lon="6.02434">
        <ele>450</ele>
        <time>2021-09-03T10:37:27Z</time>
      </trkpt>
      <trkpt lat="44.09959" lon="6.02421">
        <ele>450.20001220703</ele>
        <time>2021-09-03T10:37:33Z</time>
      </trkpt>
      <trkpt lat="44.09969" lon="6.02416">
        <ele>450.60000610352</ele>
        <time>2021-09-03T10:37:35Z</time>
      </trkpt>
      <trkpt lat="44.09982" lon="6.0241">
        <ele>451.20001220703</ele>
        <time>2021-09-03T10:37:38Z</time>
      </trkpt>
      <trkpt lat="44.09999" lon="6.02399">
        <ele>451.79998779297</ele>
        <time>2021-09-03T10:37:42Z</time>
      </trkpt>
      <trkpt lat="44.10007" lon="6.02391">
        <ele>452</ele>
        <time>2021-09-03T10:37:44Z</time>
      </trkpt>
      <trkpt lat="44.10023" lon="6.02365">
        <ele>452.60000610352</ele>
        <time>2021-09-03T10:37:49Z</time>
      </trkpt>
      <trkpt lat="44.10026" lon="6.0236">
        <ele>452.79998779297</ele>
        <time>2021-09-03T10:37:50Z</time>
      </trkpt>
      <trkpt lat="44.10043" lon="6.0235">
        <ele>453.20001220703</ele>
        <time>2021-09-03T10:37:54Z</time>
      </trkpt>
      <trkpt lat="44.10051" lon="6.02348">
        <ele>453.60000610352</ele>
        <time>2021-09-03T10:37:56Z</time>
      </trkpt>
      <trkpt lat="44.1006" lon="6.02351">
        <ele>453.79998779297</ele>
        <time>2021-09-03T10:37:58Z</time>
      </trkpt>
      <trkpt lat="44.10065" lon="6.02353">
        <ele>454</ele>
        <time>2021-09-03T10:37:59Z</time>
      </trkpt>
      <trkpt lat="44.10069" lon="6.02356">
        <ele>454</ele>
        <time>2021-09-03T10:38:00Z</time>
      </trkpt>
      <trkpt lat="44.10091" lon="6.02374">
        <ele>454.20001220703</ele>
        <time>2021-09-03T10:38:05Z</time>
      </trkpt>
      <trkpt lat="44.10122" lon="6.02399">
        <ele>454.39999389648</ele>
        <time>2021-09-03T10:38:12Z</time>
      </trkpt>
      <trkpt lat="44.10159" lon="6.02428">
        <ele>454.20001220703</ele>
        <time>2021-09-03T10:38:20Z</time>
      </trkpt>
      <trkpt lat="44.10189" lon="6.02456">
        <ele>454.39999389648</ele>
        <time>2021-09-03T10:38:27Z</time>
      </trkpt>
      <trkpt lat="44.10216" lon="6.0248">
        <ele>455</ele>
        <time>2021-09-03T10:38:34Z</time>
      </trkpt>
      <trkpt lat="44.10241" lon="6.02499">
        <ele>456</ele>
        <time>2021-09-03T10:38:41Z</time>
      </trkpt>
      <trkpt lat="44.10264" lon="6.025">
        <ele>457</ele>
        <time>2021-09-03T10:38:48Z</time>
      </trkpt>
      <trkpt lat="44.10267" lon="6.02497">
        <ele>457</ele>
        <time>2021-09-03T10:38:49Z</time>
      </trkpt>
      <trkpt lat="44.10273" lon="6.02485">
        <ele>457.60000610352</ele>
        <time>2021-09-03T10:38:52Z</time>
      </trkpt>
      <trkpt lat="44.10279" lon="6.02468">
        <ele>458.20001220703</ele>
        <time>2021-09-03T10:38:56Z</time>
      </trkpt>
      <trkpt lat="44.10279" lon="6.02458">
        <ele>458.39999389648</ele>
        <time>2021-09-03T10:38:58Z</time>
      </trkpt>
      <trkpt lat="44.10275" lon="6.02433">
        <ele>459.20001220703</ele>
        <time>2021-09-03T10:39:03Z</time>
      </trkpt>
      <trkpt lat="44.1026" lon="6.02414">
        <ele>460</ele>
        <time>2021-09-03T10:39:09Z</time>
      </trkpt>
      <trkpt lat="44.10253" lon="6.02407">
        <ele>460.39999389648</ele>
        <time>2021-09-03T10:39:12Z</time>
      </trkpt>
      <trkpt lat="44.10242" lon="6.02395">
        <ele>461.20001220703</ele>
        <time>2021-09-03T10:39:17Z</time>
      </trkpt>
      <trkpt lat="44.10238" lon="6.0239">
        <ele>461.39999389648</ele>
        <time>2021-09-03T10:39:19Z</time>
      </trkpt>
      <trkpt lat="44.10227" lon="6.02376">
        <ele>462.60000610352</ele>
        <time>2021-09-03T10:39:25Z</time>
      </trkpt>
      <trkpt lat="44.10221" lon="6.02357">
        <ele>463.79998779297</ele>
        <time>2021-09-03T10:39:30Z</time>
      </trkpt>
      <trkpt lat="44.1022" lon="6.02353">
        <ele>463.79998779297</ele>
        <time>2021-09-03T10:39:31Z</time>
      </trkpt>
      <trkpt lat="44.10225" lon="6.02328">
        <ele>464.79998779297</ele>
        <time>2021-09-03T10:39:37Z</time>
      </trkpt>
      <trkpt lat="44.10235" lon="6.023">
        <ele>465.39999389648</ele>
        <time>2021-09-03T10:39:44Z</time>
      </trkpt>
      <trkpt lat="44.10249" lon="6.02269">
        <ele>465</ele>
        <time>2021-09-03T10:39:50Z</time>
      </trkpt>
      <trkpt lat="44.10265" lon="6.02233">
        <ele>463.79998779297</ele>
        <time>2021-09-03T10:39:55Z</time>
      </trkpt>
      <trkpt lat="44.10268" lon="6.02226">
        <ele>463.60000610352</ele>
        <time>2021-09-03T10:39:56Z</time>
      </trkpt>
      <trkpt lat="44.10289" lon="6.02187">
        <ele>462.60000610352</ele>
        <time>2021-09-03T10:40:01Z</time>
      </trkpt>
      <trkpt lat="44.10293" lon="6.02179">
        <ele>462.39999389648</ele>
        <time>2021-09-03T10:40:02Z</time>
      </trkpt>
      <trkpt lat="44.10312" lon="6.02144">
        <ele>461.39999389648</ele>
        <time>2021-09-03T10:40:06Z</time>
      </trkpt>
      <trkpt lat="44.10328" lon="6.02122">
        <ele>460.60000610352</ele>
        <time>2021-09-03T10:40:09Z</time>
      </trkpt>
      <trkpt lat="44.10333" lon="6.02115">
        <ele>460.20001220703</ele>
        <time>2021-09-03T10:40:10Z</time>
      </trkpt>
      <trkpt lat="44.10356" lon="6.02085">
        <ele>459.20001220703</ele>
        <time>2021-09-03T10:40:15Z</time>
      </trkpt>
      <trkpt lat="44.10394" lon="6.02042">
        <ele>459</ele>
        <time>2021-09-03T10:40:23Z</time>
      </trkpt>
      <trkpt lat="44.10429" lon="6.02003">
        <ele>459</ele>
        <time>2021-09-03T10:40:30Z</time>
      </trkpt>
      <trkpt lat="44.1046" lon="6.01964">
        <ele>458.79998779297</ele>
        <time>2021-09-03T10:40:37Z</time>
      </trkpt>
      <trkpt lat="44.10483" lon="6.01927">
        <ele>459.20001220703</ele>
        <time>2021-09-03T10:40:44Z</time>
      </trkpt>
      <trkpt lat="44.10508" lon="6.01894">
        <ele>459.79998779297</ele>
        <time>2021-09-03T10:40:51Z</time>
      </trkpt>
      <trkpt lat="44.10525" lon="6.01869">
        <ele>460.20001220703</ele>
        <time>2021-09-03T10:40:56Z</time>
      </trkpt>
      <trkpt lat="44.10529" lon="6.01864">
        <ele>460.20001220703</ele>
        <time>2021-09-03T10:40:57Z</time>
      </trkpt>
      <trkpt lat="44.10553" lon="6.01831">
        <ele>461</ele>
        <time>2021-09-03T10:41:04Z</time>
      </trkpt>
      <trkpt lat="44.10561" lon="6.01823">
        <ele>461.20001220703</ele>
        <time>2021-09-03T10:41:06Z</time>
      </trkpt>
      <trkpt lat="44.10582" lon="6.01804">
        <ele>461.60000610352</ele>
        <time>2021-09-03T10:41:11Z</time>
      </trkpt>
      <trkpt lat="44.10586" lon="6.01801">
        <ele>461.60000610352</ele>
        <time>2021-09-03T10:41:12Z</time>
      </trkpt>
      <trkpt lat="44.10621" lon="6.0177">
        <ele>462.20001220703</ele>
        <time>2021-09-03T10:41:20Z</time>
      </trkpt>
      <trkpt lat="44.10625" lon="6.01766">
        <ele>462.20001220703</ele>
        <time>2021-09-03T10:41:21Z</time>
      </trkpt>
      <trkpt lat="44.10658" lon="6.01735">
        <ele>463</ele>
        <time>2021-09-03T10:41:29Z</time>
      </trkpt>
      <trkpt lat="44.1067" lon="6.01724">
        <ele>463.39999389648</ele>
        <time>2021-09-03T10:41:32Z</time>
      </trkpt>
      <trkpt lat="44.1069" lon="6.01705">
        <ele>463.60000610352</ele>
        <time>2021-09-03T10:41:37Z</time>
      </trkpt>
      <trkpt lat="44.10728" lon="6.01675">
        <ele>464</ele>
        <time>2021-09-03T10:41:46Z</time>
      </trkpt>
      <trkpt lat="44.10744" lon="6.01661">
        <ele>464.39999389648</ele>
        <time>2021-09-03T10:41:50Z</time>
      </trkpt>
      <trkpt lat="44.10755" lon="6.0165">
        <ele>464.60000610352</ele>
        <time>2021-09-03T10:41:53Z</time>
      </trkpt>
      <trkpt lat="44.10776" lon="6.01623">
        <ele>464.79998779297</ele>
        <time>2021-09-03T10:41:59Z</time>
      </trkpt>
      <trkpt lat="44.10799" lon="6.01582">
        <ele>464.39999389648</ele>
        <time>2021-09-03T10:42:05Z</time>
      </trkpt>
      <trkpt lat="44.10821" lon="6.01539">
        <ele>463.20001220703</ele>
        <time>2021-09-03T10:42:10Z</time>
      </trkpt>
      <trkpt lat="44.10825" lon="6.0153">
        <ele>462.79998779297</ele>
        <time>2021-09-03T10:42:11Z</time>
      </trkpt>
      <trkpt lat="44.10835" lon="6.0151">
        <ele>462.20001220703</ele>
        <time>2021-09-03T10:42:13Z</time>
      </trkpt>
      <trkpt lat="44.10846" lon="6.01489">
        <ele>461</ele>
        <time>2021-09-03T10:42:15Z</time>
      </trkpt>
      <trkpt lat="44.10857" lon="6.01468">
        <ele>460.20001220703</ele>
        <time>2021-09-03T10:42:17Z</time>
      </trkpt>
      <trkpt lat="44.10863" lon="6.01458">
        <ele>459.60000610352</ele>
        <time>2021-09-03T10:42:18Z</time>
      </trkpt>
      <trkpt lat="44.10878" lon="6.01429">
        <ele>458.20001220703</ele>
        <time>2021-09-03T10:42:21Z</time>
      </trkpt>
      <trkpt lat="44.10882" lon="6.01421">
        <ele>457.79998779297</ele>
        <time>2021-09-03T10:42:22Z</time>
      </trkpt>
      <trkpt lat="44.10894" lon="6.014">
        <ele>457.60000610352</ele>
        <time>2021-09-03T10:42:26Z</time>
      </trkpt>
      <trkpt lat="44.10896" lon="6.01397">
        <ele>457.79998779297</ele>
        <time>2021-09-03T10:43:11Z</time>
      </trkpt>
      <trkpt lat="44.10899" lon="6.01393">
        <ele>457.79998779297</ele>
        <time>2021-09-03T10:43:14Z</time>
      </trkpt>
      <trkpt lat="44.10908" lon="6.01382">
        <ele>458.60000610352</ele>
        <time>2021-09-03T10:43:20Z</time>
      </trkpt>
      <trkpt lat="44.10917" lon="6.01367">
        <ele>459.20001220703</ele>
        <time>2021-09-03T10:43:24Z</time>
      </trkpt>
      <trkpt lat="44.10925" lon="6.01358">
        <ele>460</ele>
        <time>2021-09-03T10:43:27Z</time>
      </trkpt>
      <trkpt lat="44.10934" lon="6.01348">
        <ele>460.39999389648</ele>
        <time>2021-09-03T10:43:30Z</time>
      </trkpt>
      <trkpt lat="44.10948" lon="6.01334">
        <ele>460.79998779297</ele>
        <time>2021-09-03T10:43:34Z</time>
      </trkpt>
      <trkpt lat="44.10976" lon="6.01309">
        <ele>461.39999389648</ele>
        <time>2021-09-03T10:43:42Z</time>
      </trkpt>
      <trkpt lat="44.10997" lon="6.01294">
        <ele>461.79998779297</ele>
        <time>2021-09-03T10:43:47Z</time>
      </trkpt>
      <trkpt lat="44.11007" lon="6.01291">
        <ele>462</ele>
        <time>2021-09-03T10:43:49Z</time>
      </trkpt>
      <trkpt lat="44.11012" lon="6.01288">
        <ele>462</ele>
        <time>2021-09-03T10:43:50Z</time>
      </trkpt>
      <trkpt lat="44.11034" lon="6.01273">
        <ele>462</ele>
        <time>2021-09-03T10:43:55Z</time>
      </trkpt>
      <trkpt lat="44.1107" lon="6.01251">
        <ele>461.60000610352</ele>
        <time>2021-09-03T10:44:02Z</time>
      </trkpt>
      <trkpt lat="44.11094" lon="6.01238">
        <ele>460.60000610352</ele>
        <time>2021-09-03T10:44:08Z</time>
      </trkpt>
      <trkpt lat="44.11093" lon="6.01238">
        <ele>459.60000610352</ele>
        <time>2021-09-03T10:45:28Z</time>
      </trkpt>
      <trkpt lat="44.11103" lon="6.01232">
        <ele>459.60000610352</ele>
        <time>2021-09-03T10:45:32Z</time>
      </trkpt>
      <trkpt lat="44.11124" lon="6.0122">
        <ele>459.60000610352</ele>
        <time>2021-09-03T10:45:37Z</time>
      </trkpt>
      <trkpt lat="44.11165" lon="6.01197">
        <ele>459.60000610352</ele>
        <time>2021-09-03T10:45:46Z</time>
      </trkpt>
      <trkpt lat="44.11199" lon="6.0117">
        <ele>459.79998779297</ele>
        <time>2021-09-03T10:45:53Z</time>
      </trkpt>
      <trkpt lat="44.11231" lon="6.01132">
        <ele>460</ele>
        <time>2021-09-03T10:46:01Z</time>
      </trkpt>
      <trkpt lat="44.11263" lon="6.01093">
        <ele>460.39999389648</ele>
        <time>2021-09-03T10:46:09Z</time>
      </trkpt>
      <trkpt lat="44.11295" lon="6.01053">
        <ele>460.79998779297</ele>
        <time>2021-09-03T10:46:17Z</time>
      </trkpt>
      <trkpt lat="44.11299" lon="6.01048">
        <ele>461</ele>
        <time>2021-09-03T10:46:18Z</time>
      </trkpt>
      <trkpt lat="44.11338" lon="6.01">
        <ele>461.20001220703</ele>
        <time>2021-09-03T10:46:28Z</time>
      </trkpt>
      <trkpt lat="44.11371" lon="6.0096">
        <ele>461.60000610352</ele>
        <time>2021-09-03T10:46:36Z</time>
      </trkpt>
      <trkpt lat="44.11383" lon="6.00944">
        <ele>461.79998779297</ele>
        <time>2021-09-03T10:46:39Z</time>
      </trkpt>
      <trkpt lat="44.11412" lon="6.00908">
        <ele>462</ele>
        <time>2021-09-03T10:46:46Z</time>
      </trkpt>
      <trkpt lat="44.11444" lon="6.00867">
        <ele>461.20001220703</ele>
        <time>2021-09-03T10:46:54Z</time>
      </trkpt>
      <trkpt lat="44.11475" lon="6.0083">
        <ele>460.79998779297</ele>
        <time>2021-09-03T10:47:01Z</time>
      </trkpt>
      <trkpt lat="44.11498" lon="6.008">
        <ele>460.39999389648</ele>
        <time>2021-09-03T10:47:07Z</time>
      </trkpt>
      <trkpt lat="44.11506" lon="6.00791">
        <ele>460.39999389648</ele>
        <time>2021-09-03T10:47:09Z</time>
      </trkpt>
      <trkpt lat="44.11527" lon="6.00767">
        <ele>460.60000610352</ele>
        <time>2021-09-03T10:47:14Z</time>
      </trkpt>
      <trkpt lat="44.1156" lon="6.00727">
        <ele>461.20001220703</ele>
        <time>2021-09-03T10:47:22Z</time>
      </trkpt>
      <trkpt lat="44.11589" lon="6.00691">
        <ele>461.39999389648</ele>
        <time>2021-09-03T10:47:30Z</time>
      </trkpt>
      <trkpt lat="44.11609" lon="6.00667">
        <ele>461.60000610352</ele>
        <time>2021-09-03T10:47:35Z</time>
      </trkpt>
      <trkpt lat="44.11622" lon="6.00653">
        <ele>461.60000610352</ele>
        <time>2021-09-03T10:47:38Z</time>
      </trkpt>
      <trkpt lat="44.11631" lon="6.00644">
        <ele>461.79998779297</ele>
        <time>2021-09-03T10:47:40Z</time>
      </trkpt>
      <trkpt lat="44.11665" lon="6.00617">
        <ele>462.39999389648</ele>
        <time>2021-09-03T10:47:47Z</time>
      </trkpt>
      <trkpt lat="44.11682" lon="6.00605">
        <ele>463</ele>
        <time>2021-09-03T10:47:51Z</time>
      </trkpt>
      <trkpt lat="44.117" lon="6.00596">
        <ele>463.39999389648</ele>
        <time>2021-09-03T10:47:55Z</time>
      </trkpt>
      <trkpt lat="44.11704" lon="6.00595">
        <ele>463.60000610352</ele>
        <time>2021-09-03T10:47:56Z</time>
      </trkpt>
      <trkpt lat="44.11717" lon="6.0059">
        <ele>464.20001220703</ele>
        <time>2021-09-03T10:47:59Z</time>
      </trkpt>
      <trkpt lat="44.11732" lon="6.00584">
        <ele>464.79998779297</ele>
        <time>2021-09-03T10:48:03Z</time>
      </trkpt>
      <trkpt lat="44.11744" lon="6.00581">
        <ele>465.20001220703</ele>
        <time>2021-09-03T10:48:06Z</time>
      </trkpt>
      <trkpt lat="44.11764" lon="6.00576">
        <ele>466</ele>
        <time>2021-09-03T10:48:11Z</time>
      </trkpt>
      <trkpt lat="44.11768" lon="6.00576">
        <ele>466.20001220703</ele>
        <time>2021-09-03T10:48:12Z</time>
      </trkpt>
      <trkpt lat="44.11772" lon="6.00574">
        <ele>466.20001220703</ele>
        <time>2021-09-03T10:48:13Z</time>
      </trkpt>
      <trkpt lat="44.11792" lon="6.00569">
        <ele>467.20001220703</ele>
        <time>2021-09-03T10:48:18Z</time>
      </trkpt>
      <trkpt lat="44.118" lon="6.00567">
        <ele>467.39999389648</ele>
        <time>2021-09-03T10:48:20Z</time>
      </trkpt>
      <trkpt lat="44.11812" lon="6.00563">
        <ele>467.79998779297</ele>
        <time>2021-09-03T10:48:23Z</time>
      </trkpt>
      <trkpt lat="44.11825" lon="6.00559">
        <ele>468.20001220703</ele>
        <time>2021-09-03T10:48:26Z</time>
      </trkpt>
      <trkpt lat="44.11838" lon="6.00556">
        <ele>468.39999389648</ele>
        <time>2021-09-03T10:48:29Z</time>
      </trkpt>
      <trkpt lat="44.11869" lon="6.00547">
        <ele>469</ele>
        <time>2021-09-03T10:48:36Z</time>
      </trkpt>
      <trkpt lat="44.11912" lon="6.00529">
        <ele>469.20001220703</ele>
        <time>2021-09-03T10:48:45Z</time>
      </trkpt>
      <trkpt lat="44.11949" lon="6.00503">
        <ele>469.39999389648</ele>
        <time>2021-09-03T10:48:53Z</time>
      </trkpt>
      <trkpt lat="44.11958" lon="6.00496">
        <ele>469.39999389648</ele>
        <time>2021-09-03T10:48:55Z</time>
      </trkpt>
      <trkpt lat="44.11986" lon="6.00472">
        <ele>469.60000610352</ele>
        <time>2021-09-03T10:49:01Z</time>
      </trkpt>
      <trkpt lat="44.12034" lon="6.00432">
        <ele>470.39999389648</ele>
        <time>2021-09-03T10:49:11Z</time>
      </trkpt>
      <trkpt lat="44.12038" lon="6.00428">
        <ele>470.39999389648</ele>
        <time>2021-09-03T10:49:12Z</time>
      </trkpt>
      <trkpt lat="44.12088" lon="6.0039">
        <ele>471.20001220703</ele>
        <time>2021-09-03T10:49:22Z</time>
      </trkpt>
      <trkpt lat="44.12093" lon="6.00387">
        <ele>471.39999389648</ele>
        <time>2021-09-03T10:49:23Z</time>
      </trkpt>
      <trkpt lat="44.1211" lon="6.0038">
        <ele>471.60000610352</ele>
        <time>2021-09-03T10:49:26Z</time>
      </trkpt>
      <trkpt lat="44.12121" lon="6.00377">
        <ele>471.60000610352</ele>
        <time>2021-09-03T10:49:28Z</time>
      </trkpt>
      <trkpt lat="44.12163" lon="6.00366">
        <ele>472.20001220703</ele>
        <time>2021-09-03T10:49:36Z</time>
      </trkpt>
      <trkpt lat="44.12188" lon="6.00359">
        <ele>472.60000610352</ele>
        <time>2021-09-03T10:49:41Z</time>
      </trkpt>
      <trkpt lat="44.12198" lon="6.00354">
        <ele>472.79998779297</ele>
        <time>2021-09-03T10:49:43Z</time>
      </trkpt>
      <trkpt lat="44.12221" lon="6.0034">
        <ele>473.39999389648</ele>
        <time>2021-09-03T10:49:49Z</time>
      </trkpt>
      <trkpt lat="44.12224" lon="6.00338">
        <ele>473.60000610352</ele>
        <time>2021-09-03T10:49:50Z</time>
      </trkpt>
      <trkpt lat="44.12236" lon="6.0033">
        <ele>474.60000610352</ele>
        <time>2021-09-03T10:49:54Z</time>
      </trkpt>
      <trkpt lat="44.12241" lon="6.00324">
        <ele>475.20001220703</ele>
        <time>2021-09-03T10:49:56Z</time>
      </trkpt>
      <trkpt lat="44.12249" lon="6.00316">
        <ele>475.79998779297</ele>
        <time>2021-09-03T10:49:59Z</time>
      </trkpt>
      <trkpt lat="44.12261" lon="6.00304">
        <ele>476.79998779297</ele>
        <time>2021-09-03T10:50:04Z</time>
      </trkpt>
      <trkpt lat="44.12273" lon="6.00286">
        <ele>478</ele>
        <time>2021-09-03T10:50:09Z</time>
      </trkpt>
      <trkpt lat="44.12279" lon="6.00279">
        <ele>478.20001220703</ele>
        <time>2021-09-03T10:50:11Z</time>
      </trkpt>
      <trkpt lat="44.12291" lon="6.00261">
        <ele>479</ele>
        <time>2021-09-03T10:50:16Z</time>
      </trkpt>
      <trkpt lat="44.12297" lon="6.00254">
        <ele>479.20001220703</ele>
        <time>2021-09-03T10:50:18Z</time>
      </trkpt>
      <trkpt lat="44.12322" lon="6.00221">
        <ele>480.20001220703</ele>
        <time>2021-09-03T10:50:27Z</time>
      </trkpt>
      <trkpt lat="44.12325" lon="6.00217">
        <ele>480.20001220703</ele>
        <time>2021-09-03T10:50:28Z</time>
      </trkpt>
      <trkpt lat="44.12356" lon="6.00185">
        <ele>481.20001220703</ele>
        <time>2021-09-03T10:50:37Z</time>
      </trkpt>
      <trkpt lat="44.12399" lon="6.00142">
        <ele>481.39999389648</ele>
        <time>2021-09-03T10:50:48Z</time>
      </trkpt>
      <trkpt lat="44.12435" lon="6.00105">
        <ele>481.60000610352</ele>
        <time>2021-09-03T10:50:57Z</time>
      </trkpt>
      <trkpt lat="44.1247" lon="6.00074">
        <ele>481.79998779297</ele>
        <time>2021-09-03T10:51:05Z</time>
      </trkpt>
      <trkpt lat="44.12507" lon="6.00045">
        <ele>481.60000610352</ele>
        <time>2021-09-03T10:51:12Z</time>
      </trkpt>
      <trkpt lat="44.12547" lon="6.00014">
        <ele>481</ele>
        <time>2021-09-03T10:51:19Z</time>
      </trkpt>
      <trkpt lat="44.12594" lon="5.99975">
        <ele>480.20001220703</ele>
        <time>2021-09-03T10:51:27Z</time>
      </trkpt>
      <trkpt lat="44.12606" lon="5.99965">
        <ele>480.20001220703</ele>
        <time>2021-09-03T10:51:29Z</time>
      </trkpt>
      <trkpt lat="44.12651" lon="5.99921">
        <ele>480.20001220703</ele>
        <time>2021-09-03T10:51:37Z</time>
      </trkpt>
      <trkpt lat="44.12657" lon="5.99916">
        <ele>480.20001220703</ele>
        <time>2021-09-03T10:51:38Z</time>
      </trkpt>
      <trkpt lat="44.12699" lon="5.99872">
        <ele>480</ele>
        <time>2021-09-03T10:51:46Z</time>
      </trkpt>
      <trkpt lat="44.12728" lon="5.99821">
        <ele>479.79998779297</ele>
        <time>2021-09-03T10:51:53Z</time>
      </trkpt>
      <trkpt lat="44.1276" lon="5.99763">
        <ele>479.60000610352</ele>
        <time>2021-09-03T10:52:01Z</time>
      </trkpt>
      <trkpt lat="44.12797" lon="5.99702">
        <ele>479.60000610352</ele>
        <time>2021-09-03T10:52:10Z</time>
      </trkpt>
      <trkpt lat="44.12802" lon="5.99696">
        <ele>479.60000610352</ele>
        <time>2021-09-03T10:52:11Z</time>
      </trkpt>
      <trkpt lat="44.12841" lon="5.99634">
        <ele>479.79998779297</ele>
        <time>2021-09-03T10:52:20Z</time>
      </trkpt>
      <trkpt lat="44.12879" lon="5.99573">
        <ele>480</ele>
        <time>2021-09-03T10:52:29Z</time>
      </trkpt>
      <trkpt lat="44.12919" lon="5.99516">
        <ele>480</ele>
        <time>2021-09-03T10:52:38Z</time>
      </trkpt>
      <trkpt lat="44.12952" lon="5.99476">
        <ele>480.20001220703</ele>
        <time>2021-09-03T10:52:45Z</time>
      </trkpt>
      <trkpt lat="44.12996" lon="5.99422">
        <ele>479.20001220703</ele>
        <time>2021-09-03T10:52:54Z</time>
      </trkpt>
      <trkpt lat="44.13001" lon="5.99417">
        <ele>479.20001220703</ele>
        <time>2021-09-03T10:52:55Z</time>
      </trkpt>
      <trkpt lat="44.13027" lon="5.99376">
        <ele>478.60000610352</ele>
        <time>2021-09-03T10:53:01Z</time>
      </trkpt>
      <trkpt lat="44.13039" lon="5.99347">
        <ele>477.79998779297</ele>
        <time>2021-09-03T10:53:04Z</time>
      </trkpt>
      <trkpt lat="44.13046" lon="5.99325">
        <ele>477</ele>
        <time>2021-09-03T10:53:06Z</time>
      </trkpt>
      <trkpt lat="44.13049" lon="5.99313">
        <ele>476.60000610352</ele>
        <time>2021-09-03T10:53:07Z</time>
      </trkpt>
      <trkpt lat="44.13057" lon="5.99274">
        <ele>475.20001220703</ele>
        <time>2021-09-03T10:53:10Z</time>
      </trkpt>
      <trkpt lat="44.13059" lon="5.9926">
        <ele>474.60000610352</ele>
        <time>2021-09-03T10:53:11Z</time>
      </trkpt>
      <trkpt lat="44.13062" lon="5.99246">
        <ele>474</ele>
        <time>2021-09-03T10:53:12Z</time>
      </trkpt>
      <trkpt lat="44.13067" lon="5.99217">
        <ele>473</ele>
        <time>2021-09-03T10:53:14Z</time>
      </trkpt>
      <trkpt lat="44.13072" lon="5.99187">
        <ele>472</ele>
        <time>2021-09-03T10:53:16Z</time>
      </trkpt>
      <trkpt lat="44.13076" lon="5.99172">
        <ele>471.20001220703</ele>
        <time>2021-09-03T10:53:17Z</time>
      </trkpt>
      <trkpt lat="44.13079" lon="5.99157">
        <ele>470.60000610352</ele>
        <time>2021-09-03T10:53:18Z</time>
      </trkpt>
      <trkpt lat="44.13088" lon="5.99128">
        <ele>469.20001220703</ele>
        <time>2021-09-03T10:53:20Z</time>
      </trkpt>
      <trkpt lat="44.13094" lon="5.99115">
        <ele>468.39999389648</ele>
        <time>2021-09-03T10:53:21Z</time>
      </trkpt>
      <trkpt lat="44.13101" lon="5.99103">
        <ele>467.60000610352</ele>
        <time>2021-09-03T10:53:22Z</time>
      </trkpt>
      <trkpt lat="44.13118" lon="5.99083">
        <ele>466</ele>
        <time>2021-09-03T10:53:24Z</time>
      </trkpt>
      <trkpt lat="44.13127" lon="5.99075">
        <ele>465.20001220703</ele>
        <time>2021-09-03T10:53:25Z</time>
      </trkpt>
      <trkpt lat="44.13136" lon="5.99066">
        <ele>464.60000610352</ele>
        <time>2021-09-03T10:53:26Z</time>
      </trkpt>
      <trkpt lat="44.13153" lon="5.9905">
        <ele>462.60000610352</ele>
        <time>2021-09-03T10:53:28Z</time>
      </trkpt>
      <trkpt lat="44.13161" lon="5.99042">
        <ele>462</ele>
        <time>2021-09-03T10:53:29Z</time>
      </trkpt>
      <trkpt lat="44.13169" lon="5.99035">
        <ele>461.39999389648</ele>
        <time>2021-09-03T10:53:30Z</time>
      </trkpt>
      <trkpt lat="44.13192" lon="5.99013">
        <ele>460.39999389648</ele>
        <time>2021-09-03T10:53:33Z</time>
      </trkpt>
      <trkpt lat="44.13214" lon="5.98992">
        <ele>460</ele>
        <time>2021-09-03T10:53:36Z</time>
      </trkpt>
      <trkpt lat="44.13263" lon="5.98947">
        <ele>459.60000610352</ele>
        <time>2021-09-03T10:53:43Z</time>
      </trkpt>
      <trkpt lat="44.13276" lon="5.98935">
        <ele>459.39999389648</ele>
        <time>2021-09-03T10:53:45Z</time>
      </trkpt>
      <trkpt lat="44.13314" lon="5.98899">
        <ele>459</ele>
        <time>2021-09-03T10:53:51Z</time>
      </trkpt>
      <trkpt lat="44.13354" lon="5.98858">
        <ele>459</ele>
        <time>2021-09-03T10:53:58Z</time>
      </trkpt>
      <trkpt lat="44.13394" lon="5.98812">
        <ele>459</ele>
        <time>2021-09-03T10:54:06Z</time>
      </trkpt>
      <trkpt lat="44.13408" lon="5.98793">
        <ele>459.20001220703</ele>
        <time>2021-09-03T10:54:09Z</time>
      </trkpt>
      <trkpt lat="44.13418" lon="5.98771">
        <ele>459.20001220703</ele>
        <time>2021-09-03T10:54:12Z</time>
      </trkpt>
      <trkpt lat="44.13435" lon="5.98716">
        <ele>458.79998779297</ele>
        <time>2021-09-03T10:54:19Z</time>
      </trkpt>
      <trkpt lat="44.13446" lon="5.98667">
        <ele>458.79998779297</ele>
        <time>2021-09-03T10:54:25Z</time>
      </trkpt>
      <trkpt lat="44.13451" lon="5.98662">
        <ele>458.79998779297</ele>
        <time>2021-09-03T10:54:26Z</time>
      </trkpt>
      <trkpt lat="44.13473" lon="5.98651">
        <ele>459</ele>
        <time>2021-09-03T10:54:30Z</time>
      </trkpt>
      <trkpt lat="44.13504" lon="5.9864">
        <ele>459.39999389648</ele>
        <time>2021-09-03T10:54:36Z</time>
      </trkpt>
      <trkpt lat="44.13536" lon="5.9862">
        <ele>460</ele>
        <time>2021-09-03T10:54:43Z</time>
      </trkpt>
      <trkpt lat="44.13554" lon="5.98609">
        <ele>460.20001220703</ele>
        <time>2021-09-03T10:54:47Z</time>
      </trkpt>
      <trkpt lat="44.13564" lon="5.98604">
        <ele>460.39999389648</ele>
        <time>2021-09-03T10:54:49Z</time>
      </trkpt>
      <trkpt lat="44.1359" lon="5.986">
        <ele>460.39999389648</ele>
        <time>2021-09-03T10:54:54Z</time>
      </trkpt>
      <trkpt lat="44.13595" lon="5.986">
        <ele>460.60000610352</ele>
        <time>2021-09-03T10:54:55Z</time>
      </trkpt>
      <trkpt lat="44.13624" lon="5.98602">
        <ele>461.20001220703</ele>
        <time>2021-09-03T10:55:01Z</time>
      </trkpt>
      <trkpt lat="44.13649" lon="5.98605">
        <ele>461.39999389648</ele>
        <time>2021-09-03T10:55:06Z</time>
      </trkpt>
      <trkpt lat="44.13668" lon="5.98606">
        <ele>461.79998779297</ele>
        <time>2021-09-03T10:55:10Z</time>
      </trkpt>
      <trkpt lat="44.13698" lon="5.98608">
        <ele>462</ele>
        <time>2021-09-03T10:55:16Z</time>
      </trkpt>
      <trkpt lat="44.13723" lon="5.98606">
        <ele>462.60000610352</ele>
        <time>2021-09-03T10:55:21Z</time>
      </trkpt>
      <trkpt lat="44.13739" lon="5.98601">
        <ele>462.79998779297</ele>
        <time>2021-09-03T10:55:24Z</time>
      </trkpt>
      <trkpt lat="44.13794" lon="5.98592">
        <ele>463.39999389648</ele>
        <time>2021-09-03T10:55:35Z</time>
      </trkpt>
      <trkpt lat="44.13799" lon="5.98592">
        <ele>463.60000610352</ele>
        <time>2021-09-03T10:55:36Z</time>
      </trkpt>
      <trkpt lat="44.13818" lon="5.986">
        <ele>464</ele>
        <time>2021-09-03T10:55:40Z</time>
      </trkpt>
      <trkpt lat="44.13843" lon="5.98612">
        <ele>464.60000610352</ele>
        <time>2021-09-03T10:55:46Z</time>
      </trkpt>
      <trkpt lat="44.13847" lon="5.98614">
        <ele>464.79998779297</ele>
        <time>2021-09-03T10:55:47Z</time>
      </trkpt>
      <trkpt lat="44.13867" lon="5.98623">
        <ele>465.60000610352</ele>
        <time>2021-09-03T10:55:52Z</time>
      </trkpt>
      <trkpt lat="44.13873" lon="5.98626">
        <ele>466</ele>
        <time>2021-09-03T10:55:54Z</time>
      </trkpt>
      <trkpt lat="44.13881" lon="5.98632">
        <ele>466.79998779297</ele>
        <time>2021-09-03T10:55:57Z</time>
      </trkpt>
      <trkpt lat="44.13892" lon="5.98638">
        <ele>467.60000610352</ele>
        <time>2021-09-03T10:56:01Z</time>
      </trkpt>
      <trkpt lat="44.13895" lon="5.98639">
        <ele>467.79998779297</ele>
        <time>2021-09-03T10:56:02Z</time>
      </trkpt>
      <trkpt lat="44.13918" lon="5.98654">
        <ele>469</ele>
        <time>2021-09-03T10:56:11Z</time>
      </trkpt>
      <trkpt lat="44.13941" lon="5.98664">
        <ele>470</ele>
        <time>2021-09-03T10:56:19Z</time>
      </trkpt>
      <trkpt lat="44.1396" lon="5.98669">
        <ele>471.20001220703</ele>
        <time>2021-09-03T10:56:26Z</time>
      </trkpt>
      <trkpt lat="44.13981" lon="5.98673">
        <ele>472.20001220703</ele>
        <time>2021-09-03T10:56:34Z</time>
      </trkpt>
      <trkpt lat="44.13997" lon="5.98674">
        <ele>473.20001220703</ele>
        <time>2021-09-03T10:56:41Z</time>
      </trkpt>
      <trkpt lat="44.13999" lon="5.98674">
        <ele>473.39999389648</ele>
        <time>2021-09-03T10:56:42Z</time>
      </trkpt>
      <trkpt lat="44.14013" lon="5.98679">
        <ele>474.39999389648</ele>
        <time>2021-09-03T10:56:48Z</time>
      </trkpt>
      <trkpt lat="44.1403" lon="5.98686">
        <ele>475.39999389648</ele>
        <time>2021-09-03T10:56:55Z</time>
      </trkpt>
      <trkpt lat="44.14032" lon="5.98687">
        <ele>475.60000610352</ele>
        <time>2021-09-03T10:56:56Z</time>
      </trkpt>
      <trkpt lat="44.14047" lon="5.98698">
        <ele>476.60000610352</ele>
        <time>2021-09-03T10:57:03Z</time>
      </trkpt>
      <trkpt lat="44.14052" lon="5.98701">
        <ele>477</ele>
        <time>2021-09-03T10:57:05Z</time>
      </trkpt>
      <trkpt lat="44.14061" lon="5.98706">
        <ele>477.60000610352</ele>
        <time>2021-09-03T10:57:09Z</time>
      </trkpt>
      <trkpt lat="44.14066" lon="5.98708">
        <ele>478</ele>
        <time>2021-09-03T10:57:12Z</time>
      </trkpt>
      <trkpt lat="44.14074" lon="5.98711">
        <ele>478.79998779297</ele>
        <time>2021-09-03T10:57:16Z</time>
      </trkpt>
      <trkpt lat="44.14079" lon="5.98713">
        <ele>479.20001220703</ele>
        <time>2021-09-03T10:57:19Z</time>
      </trkpt>
      <trkpt lat="44.14087" lon="5.98717">
        <ele>479.79998779297</ele>
        <time>2021-09-03T10:57:23Z</time>
      </trkpt>
      <trkpt lat="44.14096" lon="5.98719">
        <ele>480.20001220703</ele>
        <time>2021-09-03T10:57:27Z</time>
      </trkpt>
      <trkpt lat="44.14102" lon="5.98721">
        <ele>480.79998779297</ele>
        <time>2021-09-03T10:57:30Z</time>
      </trkpt>
      <trkpt lat="44.14115" lon="5.98725">
        <ele>481.39999389648</ele>
        <time>2021-09-03T10:57:36Z</time>
      </trkpt>
      <trkpt lat="44.14125" lon="5.98726">
        <ele>482</ele>
        <time>2021-09-03T10:57:40Z</time>
      </trkpt>
      <trkpt lat="44.14132" lon="5.98726">
        <ele>482.39999389648</ele>
        <time>2021-09-03T10:57:43Z</time>
      </trkpt>
      <trkpt lat="44.14143" lon="5.98724">
        <ele>483</ele>
        <time>2021-09-03T10:57:48Z</time>
      </trkpt>
      <trkpt lat="44.14146" lon="5.98722">
        <ele>483.20001220703</ele>
        <time>2021-09-03T10:57:49Z</time>
      </trkpt>
      <trkpt lat="44.14156" lon="5.98713">
        <ele>484.20001220703</ele>
        <time>2021-09-03T10:57:54Z</time>
      </trkpt>
      <trkpt lat="44.14162" lon="5.98709">
        <ele>484.79998779297</ele>
        <time>2021-09-03T10:57:57Z</time>
      </trkpt>
      <trkpt lat="44.1417" lon="5.98704">
        <ele>485.39999389648</ele>
        <time>2021-09-03T10:58:01Z</time>
      </trkpt>
      <trkpt lat="44.14177" lon="5.98696">
        <ele>486.20001220703</ele>
        <time>2021-09-03T10:58:05Z</time>
      </trkpt>
      <trkpt lat="44.14181" lon="5.98691">
        <ele>486.39999389648</ele>
        <time>2021-09-03T10:58:07Z</time>
      </trkpt>
      <trkpt lat="44.14197" lon="5.9867">
        <ele>487.39999389648</ele>
        <time>2021-09-03T10:58:15Z</time>
      </trkpt>
      <trkpt lat="44.14202" lon="5.98666">
        <ele>487.60000610352</ele>
        <time>2021-09-03T10:58:17Z</time>
      </trkpt>
      <trkpt lat="44.14216" lon="5.98653">
        <ele>488.20001220703</ele>
        <time>2021-09-03T10:58:23Z</time>
      </trkpt>
      <trkpt lat="44.14224" lon="5.98646">
        <ele>488.79998779297</ele>
        <time>2021-09-03T10:58:27Z</time>
      </trkpt>
      <trkpt lat="44.14232" lon="5.98642">
        <ele>489.20001220703</ele>
        <time>2021-09-03T10:58:30Z</time>
      </trkpt>
      <trkpt lat="44.14239" lon="5.98636">
        <ele>489.79998779297</ele>
        <time>2021-09-03T10:58:33Z</time>
      </trkpt>
      <trkpt lat="44.14247" lon="5.98628">
        <ele>490.39999389648</ele>
        <time>2021-09-03T10:58:37Z</time>
      </trkpt>
      <trkpt lat="44.14253" lon="5.98623">
        <ele>491</ele>
        <time>2021-09-03T10:58:40Z</time>
      </trkpt>
      <trkpt lat="44.14257" lon="5.98619">
        <ele>491.39999389648</ele>
        <time>2021-09-03T10:58:42Z</time>
      </trkpt>
      <trkpt lat="44.1427" lon="5.98607">
        <ele>492</ele>
        <time>2021-09-03T10:58:47Z</time>
      </trkpt>
      <trkpt lat="44.14275" lon="5.98601">
        <ele>492.20001220703</ele>
        <time>2021-09-03T10:58:49Z</time>
      </trkpt>
      <trkpt lat="44.14294" lon="5.98583">
        <ele>493</ele>
        <time>2021-09-03T10:58:56Z</time>
      </trkpt>
      <trkpt lat="44.14311" lon="5.98562">
        <ele>493.79998779297</ele>
        <time>2021-09-03T10:59:03Z</time>
      </trkpt>
      <trkpt lat="44.14322" lon="5.98551">
        <ele>494.20001220703</ele>
        <time>2021-09-03T10:59:07Z</time>
      </trkpt>
      <trkpt lat="44.14334" lon="5.98536">
        <ele>494.39999389648</ele>
        <time>2021-09-03T10:59:12Z</time>
      </trkpt>
      <trkpt lat="44.14347" lon="5.98513">
        <ele>495</ele>
        <time>2021-09-03T10:59:19Z</time>
      </trkpt>
      <trkpt lat="44.14349" lon="5.98509">
        <ele>495.20001220703</ele>
        <time>2021-09-03T10:59:20Z</time>
      </trkpt>
      <trkpt lat="44.14356" lon="5.98485">
        <ele>496</ele>
        <time>2021-09-03T10:59:26Z</time>
      </trkpt>
      <trkpt lat="44.14357" lon="5.98481">
        <ele>496.20001220703</ele>
        <time>2021-09-03T10:59:27Z</time>
      </trkpt>
      <trkpt lat="44.14362" lon="5.9846">
        <ele>497.20001220703</ele>
        <time>2021-09-03T10:59:33Z</time>
      </trkpt>
      <trkpt lat="44.14368" lon="5.98442">
        <ele>498.39999389648</ele>
        <time>2021-09-03T10:59:39Z</time>
      </trkpt>
      <trkpt lat="44.1437" lon="5.98438">
        <ele>498.60000610352</ele>
        <time>2021-09-03T10:59:40Z</time>
      </trkpt>
      <trkpt lat="44.14379" lon="5.98423">
        <ele>499.60000610352</ele>
        <time>2021-09-03T10:59:45Z</time>
      </trkpt>
      <trkpt lat="44.14381" lon="5.98421">
        <ele>499.79998779297</ele>
        <time>2021-09-03T10:59:46Z</time>
      </trkpt>
      <trkpt lat="44.1439" lon="5.98411">
        <ele>500.60000610352</ele>
        <time>2021-09-03T10:59:50Z</time>
      </trkpt>
      <trkpt lat="44.14399" lon="5.98403">
        <ele>501.60000610352</ele>
        <time>2021-09-03T10:59:54Z</time>
      </trkpt>
      <trkpt lat="44.14401" lon="5.98401">
        <ele>501.79998779297</ele>
        <time>2021-09-03T10:59:55Z</time>
      </trkpt>
      <trkpt lat="44.14413" lon="5.98391">
        <ele>502.79998779297</ele>
        <time>2021-09-03T11:00:02Z</time>
      </trkpt>
      <trkpt lat="44.14414" lon="5.98391">
        <ele>502.79998779297</ele>
        <time>2021-09-03T11:00:03Z</time>
      </trkpt>
      <trkpt lat="44.14417" lon="5.98389">
        <ele>503.39999389648</ele>
        <time>2021-09-03T11:00:32Z</time>
      </trkpt>
      <trkpt lat="44.14419" lon="5.98387">
        <ele>503.39999389648</ele>
        <time>2021-09-03T11:00:33Z</time>
      </trkpt>
      <trkpt lat="44.14428" lon="5.98377">
        <ele>503.79998779297</ele>
        <time>2021-09-03T11:00:38Z</time>
      </trkpt>
      <trkpt lat="44.14432" lon="5.98373">
        <ele>504</ele>
        <time>2021-09-03T11:00:40Z</time>
      </trkpt>
      <trkpt lat="44.14441" lon="5.98364">
        <ele>504.79998779297</ele>
        <time>2021-09-03T11:00:45Z</time>
      </trkpt>
      <trkpt lat="44.14444" lon="5.9836">
        <ele>505.20001220703</ele>
        <time>2021-09-03T11:00:47Z</time>
      </trkpt>
      <trkpt lat="44.14451" lon="5.98352">
        <ele>506</ele>
        <time>2021-09-03T11:00:52Z</time>
      </trkpt>
      <trkpt lat="44.14452" lon="5.98351">
        <ele>506.39999389648</ele>
        <time>2021-09-03T11:00:53Z</time>
      </trkpt>
      <trkpt lat="44.1446" lon="5.98346">
        <ele>507.39999389648</ele>
        <time>2021-09-03T11:00:58Z</time>
      </trkpt>
      <trkpt lat="44.14461" lon="5.98345">
        <ele>507.60000610352</ele>
        <time>2021-09-03T11:00:59Z</time>
      </trkpt>
      <trkpt lat="44.14469" lon="5.98338">
        <ele>508.39999389648</ele>
        <time>2021-09-03T11:01:04Z</time>
      </trkpt>
      <trkpt lat="44.14471" lon="5.98336">
        <ele>508.79998779297</ele>
        <time>2021-09-03T11:01:05Z</time>
      </trkpt>
      <trkpt lat="44.1448" lon="5.98329">
        <ele>509.79998779297</ele>
        <time>2021-09-03T11:01:10Z</time>
      </trkpt>
      <trkpt lat="44.14482" lon="5.98327">
        <ele>509.79998779297</ele>
        <time>2021-09-03T11:01:11Z</time>
      </trkpt>
      <trkpt lat="44.14494" lon="5.98321">
        <ele>511</ele>
        <time>2021-09-03T11:01:18Z</time>
      </trkpt>
      <trkpt lat="44.14507" lon="5.98314">
        <ele>512.20001220703</ele>
        <time>2021-09-03T11:01:25Z</time>
      </trkpt>
      <trkpt lat="44.14515" lon="5.98309">
        <ele>513.20001220703</ele>
        <time>2021-09-03T11:01:30Z</time>
      </trkpt>
      <trkpt lat="44.1452" lon="5.98305">
        <ele>513.79998779297</ele>
        <time>2021-09-03T11:01:33Z</time>
      </trkpt>
      <trkpt lat="44.14526" lon="5.98301">
        <ele>514.20001220703</ele>
        <time>2021-09-03T11:01:36Z</time>
      </trkpt>
      <trkpt lat="44.14534" lon="5.98294">
        <ele>515.20001220703</ele>
        <time>2021-09-03T11:01:41Z</time>
      </trkpt>
      <trkpt lat="44.14536" lon="5.98293">
        <ele>515.40002441406</ele>
        <time>2021-09-03T11:01:42Z</time>
      </trkpt>
      <trkpt lat="44.14547" lon="5.98284">
        <ele>516.20001220703</ele>
        <time>2021-09-03T11:01:48Z</time>
      </trkpt>
      <trkpt lat="44.14549" lon="5.98283">
        <ele>516.40002441406</ele>
        <time>2021-09-03T11:01:49Z</time>
      </trkpt>
      <trkpt lat="44.14561" lon="5.98273">
        <ele>517.40002441406</ele>
        <time>2021-09-03T11:01:55Z</time>
      </trkpt>
      <trkpt lat="44.14577" lon="5.98258">
        <ele>518.59997558594</ele>
        <time>2021-09-03T11:02:03Z</time>
      </trkpt>
      <trkpt lat="44.14581" lon="5.98255">
        <ele>518.79998779297</ele>
        <time>2021-09-03T11:02:05Z</time>
      </trkpt>
      <trkpt lat="44.146" lon="5.98245">
        <ele>519.59997558594</ele>
        <time>2021-09-03T11:02:13Z</time>
      </trkpt>
      <trkpt lat="44.14602" lon="5.98244">
        <ele>519.59997558594</ele>
        <time>2021-09-03T11:02:14Z</time>
      </trkpt>
      <trkpt lat="44.14622" lon="5.98233">
        <ele>520.59997558594</ele>
        <time>2021-09-03T11:02:22Z</time>
      </trkpt>
      <trkpt lat="44.1463" lon="5.98229">
        <ele>521</ele>
        <time>2021-09-03T11:02:25Z</time>
      </trkpt>
      <trkpt lat="44.14644" lon="5.98221">
        <ele>521.40002441406</ele>
        <time>2021-09-03T11:02:30Z</time>
      </trkpt>
      <trkpt lat="44.14649" lon="5.98217">
        <ele>521.59997558594</ele>
        <time>2021-09-03T11:02:32Z</time>
      </trkpt>
      <trkpt lat="44.14652" lon="5.98216">
        <ele>521.79998779297</ele>
        <time>2021-09-03T11:02:33Z</time>
      </trkpt>
      <trkpt lat="44.14673" lon="5.98199">
        <ele>522.79998779297</ele>
        <time>2021-09-03T11:02:41Z</time>
      </trkpt>
      <trkpt lat="44.14694" lon="5.98173">
        <ele>523.79998779297</ele>
        <time>2021-09-03T11:02:50Z</time>
      </trkpt>
      <trkpt lat="44.14713" lon="5.98149">
        <ele>524.79998779297</ele>
        <time>2021-09-03T11:02:58Z</time>
      </trkpt>
      <trkpt lat="44.14717" lon="5.98142">
        <ele>525.20001220703</ele>
        <time>2021-09-03T11:03:00Z</time>
      </trkpt>
      <trkpt lat="44.14729" lon="5.98126">
        <ele>526</ele>
        <time>2021-09-03T11:03:05Z</time>
      </trkpt>
      <trkpt lat="44.14739" lon="5.98112">
        <ele>526.40002441406</ele>
        <time>2021-09-03T11:03:09Z</time>
      </trkpt>
      <trkpt lat="44.14755" lon="5.9809">
        <ele>527</ele>
        <time>2021-09-03T11:03:15Z</time>
      </trkpt>
      <trkpt lat="44.14761" lon="5.98083">
        <ele>527.20001220703</ele>
        <time>2021-09-03T11:03:17Z</time>
      </trkpt>
      <trkpt lat="44.14788" lon="5.98047">
        <ele>527.79998779297</ele>
        <time>2021-09-03T11:03:26Z</time>
      </trkpt>
      <trkpt lat="44.14819" lon="5.98005">
        <ele>528</ele>
        <time>2021-09-03T11:03:36Z</time>
      </trkpt>
      <trkpt lat="44.14841" lon="5.97975">
        <ele>528.20001220703</ele>
        <time>2021-09-03T11:03:43Z</time>
      </trkpt>
      <trkpt lat="44.14852" lon="5.97963">
        <ele>528.20001220703</ele>
        <time>2021-09-03T11:03:46Z</time>
      </trkpt>
      <trkpt lat="44.14883" lon="5.97932">
        <ele>529</ele>
        <time>2021-09-03T11:03:54Z</time>
      </trkpt>
      <trkpt lat="44.14891" lon="5.97925">
        <ele>529</ele>
        <time>2021-09-03T11:03:56Z</time>
      </trkpt>
      <trkpt lat="44.14911" lon="5.97904">
        <ele>529.20001220703</ele>
        <time>2021-09-03T11:04:01Z</time>
      </trkpt>
      <trkpt lat="44.14943" lon="5.97871">
        <ele>529.79998779297</ele>
        <time>2021-09-03T11:04:09Z</time>
      </trkpt>
      <trkpt lat="44.14978" lon="5.97836">
        <ele>530</ele>
        <time>2021-09-03T11:04:17Z</time>
      </trkpt>
      <trkpt lat="44.14996" lon="5.97819">
        <ele>530.20001220703</ele>
        <time>2021-09-03T11:04:21Z</time>
      </trkpt>
      <trkpt lat="44.15018" lon="5.97795">
        <ele>530.40002441406</ele>
        <time>2021-09-03T11:04:26Z</time>
      </trkpt>
      <trkpt lat="44.15066" lon="5.97747">
        <ele>530.59997558594</ele>
        <time>2021-09-03T11:04:36Z</time>
      </trkpt>
      <trkpt lat="44.15099" lon="5.97714">
        <ele>531</ele>
        <time>2021-09-03T11:04:43Z</time>
      </trkpt>
      <trkpt lat="44.15133" lon="5.9768">
        <ele>531.20001220703</ele>
        <time>2021-09-03T11:04:50Z</time>
      </trkpt>
      <trkpt lat="44.15174" lon="5.97638">
        <ele>531.59997558594</ele>
        <time>2021-09-03T11:04:59Z</time>
      </trkpt>
      <trkpt lat="44.15206" lon="5.97607">
        <ele>531.79998779297</ele>
        <time>2021-09-03T11:05:06Z</time>
      </trkpt>
      <trkpt lat="44.15242" lon="5.9757">
        <ele>532.20001220703</ele>
        <time>2021-09-03T11:05:14Z</time>
      </trkpt>
      <trkpt lat="44.15275" lon="5.97536">
        <ele>532.59997558594</ele>
        <time>2021-09-03T11:05:22Z</time>
      </trkpt>
      <trkpt lat="44.15289" lon="5.97525">
        <ele>533</ele>
        <time>2021-09-03T11:05:27Z</time>
      </trkpt>
      <trkpt lat="44.15292" lon="5.9752">
        <ele>533</ele>
        <time>2021-09-03T11:09:18Z</time>
      </trkpt>
      <trkpt lat="44.15295" lon="5.97517">
        <ele>533</ele>
        <time>2021-09-03T11:09:20Z</time>
      </trkpt>
      <trkpt lat="44.15307" lon="5.97505">
        <ele>533</ele>
        <time>2021-09-03T11:09:25Z</time>
      </trkpt>
      <trkpt lat="44.15319" lon="5.97493">
        <ele>533.20001220703</ele>
        <time>2021-09-03T11:09:29Z</time>
      </trkpt>
      <trkpt lat="44.15325" lon="5.97486">
        <ele>533.20001220703</ele>
        <time>2021-09-03T11:09:31Z</time>
      </trkpt>
      <trkpt lat="44.15349" lon="5.97461">
        <ele>533.40002441406</ele>
        <time>2021-09-03T11:09:38Z</time>
      </trkpt>
      <trkpt lat="44.15382" lon="5.97428">
        <ele>533.79998779297</ele>
        <time>2021-09-03T11:09:46Z</time>
      </trkpt>
      <trkpt lat="44.15422" lon="5.97388">
        <ele>534.20001220703</ele>
        <time>2021-09-03T11:09:56Z</time>
      </trkpt>
      <trkpt lat="44.15427" lon="5.97384">
        <ele>534.40002441406</ele>
        <time>2021-09-03T11:09:57Z</time>
      </trkpt>
      <trkpt lat="44.15471" lon="5.9734">
        <ele>535</ele>
        <time>2021-09-03T11:10:08Z</time>
      </trkpt>
      <trkpt lat="44.15486" lon="5.97324">
        <ele>535.40002441406</ele>
        <time>2021-09-03T11:10:12Z</time>
      </trkpt>
      <trkpt lat="44.15494" lon="5.97316">
        <ele>535.40002441406</ele>
        <time>2021-09-03T11:10:14Z</time>
      </trkpt>
      <trkpt lat="44.15502" lon="5.97309">
        <ele>535.59997558594</ele>
        <time>2021-09-03T11:10:16Z</time>
      </trkpt>
      <trkpt lat="44.15537" lon="5.97273">
        <ele>536</ele>
        <time>2021-09-03T11:10:25Z</time>
      </trkpt>
      <trkpt lat="44.1558" lon="5.97225">
        <ele>536.20001220703</ele>
        <time>2021-09-03T11:10:36Z</time>
      </trkpt>
      <trkpt lat="44.15591" lon="5.97211">
        <ele>536.40002441406</ele>
        <time>2021-09-03T11:10:39Z</time>
      </trkpt>
      <trkpt lat="44.15617" lon="5.97179">
        <ele>536.59997558594</ele>
        <time>2021-09-03T11:10:46Z</time>
      </trkpt>
      <trkpt lat="44.15624" lon="5.9717">
        <ele>536.79998779297</ele>
        <time>2021-09-03T11:10:48Z</time>
      </trkpt>
      <trkpt lat="44.15639" lon="5.97151">
        <ele>537</ele>
        <time>2021-09-03T11:10:52Z</time>
      </trkpt>
      <trkpt lat="44.15678" lon="5.97104">
        <ele>537</ele>
        <time>2021-09-03T11:11:02Z</time>
      </trkpt>
      <trkpt lat="44.15699" lon="5.97081">
        <ele>537.40002441406</ele>
        <time>2021-09-03T11:11:07Z</time>
      </trkpt>
      <trkpt lat="44.15719" lon="5.97057">
        <ele>537.59997558594</ele>
        <time>2021-09-03T11:11:12Z</time>
      </trkpt>
      <trkpt lat="44.15738" lon="5.9703">
        <ele>537.59997558594</ele>
        <time>2021-09-03T11:11:17Z</time>
      </trkpt>
      <trkpt lat="44.15745" lon="5.9702">
        <ele>537.59997558594</ele>
        <time>2021-09-03T11:11:19Z</time>
      </trkpt>
      <trkpt lat="44.15764" lon="5.96997">
        <ele>537.79998779297</ele>
        <time>2021-09-03T11:11:24Z</time>
      </trkpt>
      <trkpt lat="44.15799" lon="5.96955">
        <ele>538.20001220703</ele>
        <time>2021-09-03T11:11:33Z</time>
      </trkpt>
      <trkpt lat="44.15807" lon="5.96946">
        <ele>538.40002441406</ele>
        <time>2021-09-03T11:11:35Z</time>
      </trkpt>
      <trkpt lat="44.15837" lon="5.96908">
        <ele>538.79998779297</ele>
        <time>2021-09-03T11:11:43Z</time>
      </trkpt>
      <trkpt lat="44.15869" lon="5.96869">
        <ele>539.20001220703</ele>
        <time>2021-09-03T11:11:51Z</time>
      </trkpt>
      <trkpt lat="44.15885" lon="5.96849">
        <ele>539.40002441406</ele>
        <time>2021-09-03T11:11:55Z</time>
      </trkpt>
      <trkpt lat="44.15901" lon="5.9683">
        <ele>539.59997558594</ele>
        <time>2021-09-03T11:11:59Z</time>
      </trkpt>
      <trkpt lat="44.15938" lon="5.96783">
        <ele>540</ele>
        <time>2021-09-03T11:12:08Z</time>
      </trkpt>
      <trkpt lat="44.15971" lon="5.96744">
        <ele>540.40002441406</ele>
        <time>2021-09-03T11:12:16Z</time>
      </trkpt>
      <trkpt lat="44.15983" lon="5.96728">
        <ele>540.40002441406</ele>
        <time>2021-09-03T11:12:19Z</time>
      </trkpt>
      <trkpt lat="44.16009" lon="5.96696">
        <ele>540.59997558594</ele>
        <time>2021-09-03T11:12:25Z</time>
      </trkpt>
      <trkpt lat="44.16053" lon="5.96643">
        <ele>540.79998779297</ele>
        <time>2021-09-03T11:12:35Z</time>
      </trkpt>
      <trkpt lat="44.16057" lon="5.96638">
        <ele>540.79998779297</ele>
        <time>2021-09-03T11:12:36Z</time>
      </trkpt>
      <trkpt lat="44.161" lon="5.96586">
        <ele>541.20001220703</ele>
        <time>2021-09-03T11:12:46Z</time>
      </trkpt>
      <trkpt lat="44.16139" lon="5.96538">
        <ele>541.40002441406</ele>
        <time>2021-09-03T11:12:55Z</time>
      </trkpt>
      <trkpt lat="44.16166" lon="5.96508">
        <ele>541.40002441406</ele>
        <time>2021-09-03T11:13:01Z</time>
      </trkpt>
      <trkpt lat="44.16179" lon="5.96493">
        <ele>541.59997558594</ele>
        <time>2021-09-03T11:13:04Z</time>
      </trkpt>
      <trkpt lat="44.1622" lon="5.96449">
        <ele>541.59997558594</ele>
        <time>2021-09-03T11:13:13Z</time>
      </trkpt>
      <trkpt lat="44.16265" lon="5.964">
        <ele>541.79998779297</ele>
        <time>2021-09-03T11:13:23Z</time>
      </trkpt>
      <trkpt lat="44.1627" lon="5.96395">
        <ele>541.79998779297</ele>
        <time>2021-09-03T11:13:24Z</time>
      </trkpt>
      <trkpt lat="44.16313" lon="5.96347">
        <ele>541.59997558594</ele>
        <time>2021-09-03T11:13:33Z</time>
      </trkpt>
      <trkpt lat="44.16318" lon="5.96341">
        <ele>541.59997558594</ele>
        <time>2021-09-03T11:13:34Z</time>
      </trkpt>
      <trkpt lat="44.16363" lon="5.96292">
        <ele>541.79998779297</ele>
        <time>2021-09-03T11:13:43Z</time>
      </trkpt>
      <trkpt lat="44.16368" lon="5.96287">
        <ele>541.79998779297</ele>
        <time>2021-09-03T11:13:44Z</time>
      </trkpt>
      <trkpt lat="44.16413" lon="5.96237">
        <ele>541.59997558594</ele>
        <time>2021-09-03T11:13:53Z</time>
      </trkpt>
      <trkpt lat="44.16423" lon="5.96226">
        <ele>541.59997558594</ele>
        <time>2021-09-03T11:13:55Z</time>
      </trkpt>
      <trkpt lat="44.16466" lon="5.96178">
        <ele>541.79998779297</ele>
        <time>2021-09-03T11:14:04Z</time>
      </trkpt>
      <trkpt lat="44.16509" lon="5.9613">
        <ele>541.79998779297</ele>
        <time>2021-09-03T11:14:13Z</time>
      </trkpt>
      <trkpt lat="44.16518" lon="5.9612">
        <ele>541.79998779297</ele>
        <time>2021-09-03T11:14:15Z</time>
      </trkpt>
      <trkpt lat="44.16561" lon="5.96073">
        <ele>541.79998779297</ele>
        <time>2021-09-03T11:14:24Z</time>
      </trkpt>
      <trkpt lat="44.16606" lon="5.96023">
        <ele>541.40002441406</ele>
        <time>2021-09-03T11:14:33Z</time>
      </trkpt>
      <trkpt lat="44.16651" lon="5.95974">
        <ele>541.20001220703</ele>
        <time>2021-09-03T11:14:42Z</time>
      </trkpt>
      <trkpt lat="44.16661" lon="5.95962">
        <ele>541</ele>
        <time>2021-09-03T11:14:44Z</time>
      </trkpt>
      <trkpt lat="44.16705" lon="5.95913">
        <ele>540.59997558594</ele>
        <time>2021-09-03T11:14:53Z</time>
      </trkpt>
      <trkpt lat="44.1671" lon="5.95908">
        <ele>540.59997558594</ele>
        <time>2021-09-03T11:14:54Z</time>
      </trkpt>
      <trkpt lat="44.16734" lon="5.9588">
        <ele>540.40002441406</ele>
        <time>2021-09-03T11:14:59Z</time>
      </trkpt>
      <trkpt lat="44.16761" lon="5.9585">
        <ele>540</ele>
        <time>2021-09-03T11:15:04Z</time>
      </trkpt>
      <trkpt lat="44.16777" lon="5.95832">
        <ele>539.20001220703</ele>
        <time>2021-09-03T11:15:07Z</time>
      </trkpt>
      <trkpt lat="44.16805" lon="5.95801">
        <ele>538.20001220703</ele>
        <time>2021-09-03T11:15:12Z</time>
      </trkpt>
      <trkpt lat="44.16817" lon="5.95789">
        <ele>537.59997558594</ele>
        <time>2021-09-03T11:15:14Z</time>
      </trkpt>
      <trkpt lat="44.16837" lon="5.95775">
        <ele>537</ele>
        <time>2021-09-03T11:15:17Z</time>
      </trkpt>
      <trkpt lat="44.16853" lon="5.95769">
        <ele>536.59997558594</ele>
        <time>2021-09-03T11:15:19Z</time>
      </trkpt>
      <trkpt lat="44.16875" lon="5.95766">
        <ele>535.59997558594</ele>
        <time>2021-09-03T11:15:22Z</time>
      </trkpt>
      <trkpt lat="44.16879" lon="5.95764">
        <ele>535.20001220703</ele>
        <time>2021-09-03T11:15:23Z</time>
      </trkpt>
      <trkpt lat="44.16885" lon="5.9576">
        <ele>534.20001220703</ele>
        <time>2021-09-03T11:15:25Z</time>
      </trkpt>
      <trkpt lat="44.16889" lon="5.95757">
        <ele>533.20001220703</ele>
        <time>2021-09-03T11:15:27Z</time>
      </trkpt>
      <trkpt lat="44.1689" lon="5.95756">
        <ele>532.79998779297</ele>
        <time>2021-09-03T11:15:28Z</time>
      </trkpt>
      <trkpt lat="44.16894" lon="5.9576">
        <ele>531</ele>
        <time>2021-09-03T11:16:04Z</time>
      </trkpt>
      <trkpt lat="44.16903" lon="5.95763">
        <ele>531</ele>
        <time>2021-09-03T11:16:08Z</time>
      </trkpt>
      <trkpt lat="44.16905" lon="5.95763">
        <ele>530.79998779297</ele>
        <time>2021-09-03T11:16:09Z</time>
      </trkpt>
      <trkpt lat="44.16919" lon="5.95773">
        <ele>530.40002441406</ele>
        <time>2021-09-03T11:16:14Z</time>
      </trkpt>
      <trkpt lat="44.1693" lon="5.95779">
        <ele>530.20001220703</ele>
        <time>2021-09-03T11:16:16Z</time>
      </trkpt>
      <trkpt lat="44.16935" lon="5.95781">
        <ele>530</ele>
        <time>2021-09-03T11:16:17Z</time>
      </trkpt>
      <trkpt lat="44.16941" lon="5.95784">
        <ele>529.79998779297</ele>
        <time>2021-09-03T11:16:18Z</time>
      </trkpt>
      <trkpt lat="44.16961" lon="5.95796">
        <ele>528.59997558594</ele>
        <time>2021-09-03T11:16:21Z</time>
      </trkpt>
      <trkpt lat="44.16969" lon="5.95799">
        <ele>528.20001220703</ele>
        <time>2021-09-03T11:16:22Z</time>
      </trkpt>
      <trkpt lat="44.16985" lon="5.95804">
        <ele>527.40002441406</ele>
        <time>2021-09-03T11:16:24Z</time>
      </trkpt>
      <trkpt lat="44.17011" lon="5.95809">
        <ele>526.20001220703</ele>
        <time>2021-09-03T11:16:27Z</time>
      </trkpt>
      <trkpt lat="44.1703" lon="5.95811">
        <ele>525</ele>
        <time>2021-09-03T11:16:29Z</time>
      </trkpt>
      <trkpt lat="44.17049" lon="5.95812">
        <ele>524</ele>
        <time>2021-09-03T11:16:31Z</time>
      </trkpt>
      <trkpt lat="44.17069" lon="5.95811">
        <ele>522.79998779297</ele>
        <time>2021-09-03T11:16:33Z</time>
      </trkpt>
      <trkpt lat="44.1709" lon="5.95808">
        <ele>521.59997558594</ele>
        <time>2021-09-03T11:16:35Z</time>
      </trkpt>
      <trkpt lat="44.171" lon="5.95805">
        <ele>521</ele>
        <time>2021-09-03T11:16:36Z</time>
      </trkpt>
      <trkpt lat="44.1711" lon="5.95801">
        <ele>520.40002441406</ele>
        <time>2021-09-03T11:16:37Z</time>
      </trkpt>
      <trkpt lat="44.1712" lon="5.95797">
        <ele>519.79998779297</ele>
        <time>2021-09-03T11:16:38Z</time>
      </trkpt>
      <trkpt lat="44.1713" lon="5.95791">
        <ele>519</ele>
        <time>2021-09-03T11:16:39Z</time>
      </trkpt>
      <trkpt lat="44.17149" lon="5.95778">
        <ele>517.79998779297</ele>
        <time>2021-09-03T11:16:41Z</time>
      </trkpt>
      <trkpt lat="44.17157" lon="5.95771">
        <ele>517</ele>
        <time>2021-09-03T11:16:42Z</time>
      </trkpt>
      <trkpt lat="44.17165" lon="5.95763">
        <ele>515.59997558594</ele>
        <time>2021-09-03T11:16:43Z</time>
      </trkpt>
      <trkpt lat="44.1718" lon="5.95746">
        <ele>514</ele>
        <time>2021-09-03T11:16:45Z</time>
      </trkpt>
      <trkpt lat="44.17188" lon="5.95736">
        <ele>513.20001220703</ele>
        <time>2021-09-03T11:16:46Z</time>
      </trkpt>
      <trkpt lat="44.17195" lon="5.95725">
        <ele>512.40002441406</ele>
        <time>2021-09-03T11:16:47Z</time>
      </trkpt>
      <trkpt lat="44.17207" lon="5.95702">
        <ele>511</ele>
        <time>2021-09-03T11:16:49Z</time>
      </trkpt>
      <trkpt lat="44.1722" lon="5.95679">
        <ele>509.60000610352</ele>
        <time>2021-09-03T11:16:51Z</time>
      </trkpt>
      <trkpt lat="44.17233" lon="5.95655">
        <ele>508</ele>
        <time>2021-09-03T11:16:53Z</time>
      </trkpt>
      <trkpt lat="44.17247" lon="5.95632">
        <ele>506.60000610352</ele>
        <time>2021-09-03T11:16:55Z</time>
      </trkpt>
      <trkpt lat="44.17262" lon="5.95611">
        <ele>505</ele>
        <time>2021-09-03T11:16:57Z</time>
      </trkpt>
      <trkpt lat="44.17278" lon="5.95592">
        <ele>503.60000610352</ele>
        <time>2021-09-03T11:16:59Z</time>
      </trkpt>
      <trkpt lat="44.17293" lon="5.95571">
        <ele>502.20001220703</ele>
        <time>2021-09-03T11:17:01Z</time>
      </trkpt>
      <trkpt lat="44.17305" lon="5.9555">
        <ele>500.79998779297</ele>
        <time>2021-09-03T11:17:03Z</time>
      </trkpt>
      <trkpt lat="44.17315" lon="5.95527">
        <ele>499.39999389648</ele>
        <time>2021-09-03T11:17:05Z</time>
      </trkpt>
      <trkpt lat="44.17322" lon="5.95504">
        <ele>497.20001220703</ele>
        <time>2021-09-03T11:17:07Z</time>
      </trkpt>
      <trkpt lat="44.17324" lon="5.95495">
        <ele>496.60000610352</ele>
        <time>2021-09-03T11:17:08Z</time>
      </trkpt>
      <trkpt lat="44.17327" lon="5.95489">
        <ele>495.79998779297</ele>
        <time>2021-09-03T11:17:09Z</time>
      </trkpt>
      <trkpt lat="44.17338" lon="5.95483">
        <ele>494.39999389648</ele>
        <time>2021-09-03T11:17:11Z</time>
      </trkpt>
      <trkpt lat="44.17345" lon="5.95483">
        <ele>493</ele>
        <time>2021-09-03T11:17:13Z</time>
      </trkpt>
      <trkpt lat="44.17348" lon="5.95483">
        <ele>492.60000610352</ele>
        <time>2021-09-03T11:17:14Z</time>
      </trkpt>
      <trkpt lat="44.1735" lon="5.95483">
        <ele>492</ele>
        <time>2021-09-03T11:17:15Z</time>
      </trkpt>
      <trkpt lat="44.17352" lon="5.95484">
        <ele>491.79998779297</ele>
        <time>2021-09-03T11:17:16Z</time>
      </trkpt>
      <trkpt lat="44.17355" lon="5.95483">
        <ele>490.39999389648</ele>
        <time>2021-09-03T11:18:26Z</time>
      </trkpt>
      <trkpt lat="44.17358" lon="5.95467">
        <ele>490.60000610352</ele>
        <time>2021-09-03T11:18:31Z</time>
      </trkpt>
      <trkpt lat="44.1736" lon="5.95463">
        <ele>490.60000610352</ele>
        <time>2021-09-03T11:18:32Z</time>
      </trkpt>
      <trkpt lat="44.17362" lon="5.95443">
        <ele>490.60000610352</ele>
        <time>2021-09-03T11:18:37Z</time>
      </trkpt>
      <trkpt lat="44.17369" lon="5.95434">
        <ele>490.39999389648</ele>
        <time>2021-09-03T11:18:40Z</time>
      </trkpt>
      <trkpt lat="44.17372" lon="5.95432">
        <ele>490.20001220703</ele>
        <time>2021-09-03T11:18:41Z</time>
      </trkpt>
      <trkpt lat="44.17386" lon="5.95429">
        <ele>490</ele>
        <time>2021-09-03T11:18:44Z</time>
      </trkpt>
      <trkpt lat="44.17392" lon="5.95428">
        <ele>490</ele>
        <time>2021-09-03T11:18:45Z</time>
      </trkpt>
      <trkpt lat="44.17397" lon="5.95429">
        <ele>489.79998779297</ele>
        <time>2021-09-03T11:18:46Z</time>
      </trkpt>
      <trkpt lat="44.17415" lon="5.9543">
        <ele>489.39999389648</ele>
        <time>2021-09-03T11:18:49Z</time>
      </trkpt>
      <trkpt lat="44.17428" lon="5.9543">
        <ele>489</ele>
        <time>2021-09-03T11:18:51Z</time>
      </trkpt>
      <trkpt lat="44.17449" lon="5.95425">
        <ele>488.39999389648</ele>
        <time>2021-09-03T11:18:54Z</time>
      </trkpt>
      <trkpt lat="44.17456" lon="5.95422">
        <ele>488.20001220703</ele>
        <time>2021-09-03T11:18:55Z</time>
      </trkpt>
      <trkpt lat="44.17463" lon="5.95417">
        <ele>487.79998779297</ele>
        <time>2021-09-03T11:18:56Z</time>
      </trkpt>
      <trkpt lat="44.17476" lon="5.95404">
        <ele>487</ele>
        <time>2021-09-03T11:18:58Z</time>
      </trkpt>
      <trkpt lat="44.17482" lon="5.95396">
        <ele>486.79998779297</ele>
        <time>2021-09-03T11:18:59Z</time>
      </trkpt>
      <trkpt lat="44.17487" lon="5.95389">
        <ele>486.39999389648</ele>
        <time>2021-09-03T11:19:00Z</time>
      </trkpt>
      <trkpt lat="44.17492" lon="5.95378">
        <ele>485.79998779297</ele>
        <time>2021-09-03T11:19:01Z</time>
      </trkpt>
      <trkpt lat="44.17496" lon="5.95367">
        <ele>485.39999389648</ele>
        <time>2021-09-03T11:19:02Z</time>
      </trkpt>
      <trkpt lat="44.17501" lon="5.95345">
        <ele>484.39999389648</ele>
        <time>2021-09-03T11:19:04Z</time>
      </trkpt>
      <trkpt lat="44.17505" lon="5.95321">
        <ele>483.39999389648</ele>
        <time>2021-09-03T11:19:06Z</time>
      </trkpt>
      <trkpt lat="44.17507" lon="5.95309">
        <ele>482.20001220703</ele>
        <time>2021-09-03T11:19:07Z</time>
      </trkpt>
      <trkpt lat="44.17513" lon="5.95268">
        <ele>481.20001220703</ele>
        <time>2021-09-03T11:19:11Z</time>
      </trkpt>
      <trkpt lat="44.17522" lon="5.95204">
        <ele>481</ele>
        <time>2021-09-03T11:19:18Z</time>
      </trkpt>
      <trkpt lat="44.17536" lon="5.95126">
        <ele>480.60000610352</ele>
        <time>2021-09-03T11:19:27Z</time>
      </trkpt>
      <trkpt lat="44.17546" lon="5.95062">
        <ele>480.79998779297</ele>
        <time>2021-09-03T11:19:35Z</time>
      </trkpt>
      <trkpt lat="44.17548" lon="5.95031">
        <ele>481.20001220703</ele>
        <time>2021-09-03T11:19:40Z</time>
      </trkpt>
      <trkpt lat="44.17548" lon="5.95025">
        <ele>481.39999389648</ele>
        <time>2021-09-03T11:19:41Z</time>
      </trkpt>
      <trkpt lat="44.17545" lon="5.94996">
        <ele>482.39999389648</ele>
        <time>2021-09-03T11:19:47Z</time>
      </trkpt>
      <trkpt lat="44.17537" lon="5.94968">
        <ele>483.39999389648</ele>
        <time>2021-09-03T11:19:54Z</time>
      </trkpt>
      <trkpt lat="44.17521" lon="5.94946">
        <ele>484.39999389648</ele>
        <time>2021-09-03T11:20:01Z</time>
      </trkpt>
      <trkpt lat="44.17501" lon="5.94929">
        <ele>485.60000610352</ele>
        <time>2021-09-03T11:20:08Z</time>
      </trkpt>
      <trkpt lat="44.17498" lon="5.94927">
        <ele>485.79998779297</ele>
        <time>2021-09-03T11:20:09Z</time>
      </trkpt>
      <trkpt lat="44.17479" lon="5.94921">
        <ele>486.60000610352</ele>
        <time>2021-09-03T11:20:15Z</time>
      </trkpt>
      <trkpt lat="44.17476" lon="5.94921">
        <ele>486.60000610352</ele>
        <time>2021-09-03T11:20:16Z</time>
      </trkpt>
      <trkpt lat="44.17457" lon="5.94921">
        <ele>487.60000610352</ele>
        <time>2021-09-03T11:20:22Z</time>
      </trkpt>
      <trkpt lat="44.17447" lon="5.94922">
        <ele>488</ele>
        <time>2021-09-03T11:20:25Z</time>
      </trkpt>
      <trkpt lat="44.17429" lon="5.94921">
        <ele>488.79998779297</ele>
        <time>2021-09-03T11:20:31Z</time>
      </trkpt>
      <trkpt lat="44.17422" lon="5.94921">
        <ele>489</ele>
        <time>2021-09-03T11:20:33Z</time>
      </trkpt>
      <trkpt lat="44.17407" lon="5.94917">
        <ele>489.79998779297</ele>
        <time>2021-09-03T11:20:38Z</time>
      </trkpt>
      <trkpt lat="44.17398" lon="5.94914">
        <ele>490.20001220703</ele>
        <time>2021-09-03T11:20:41Z</time>
      </trkpt>
      <trkpt lat="44.17386" lon="5.94907">
        <ele>490.79998779297</ele>
        <time>2021-09-03T11:20:45Z</time>
      </trkpt>
      <trkpt lat="44.17378" lon="5.94901">
        <ele>491.39999389648</ele>
        <time>2021-09-03T11:20:48Z</time>
      </trkpt>
      <trkpt lat="44.17367" lon="5.94892">
        <ele>492</ele>
        <time>2021-09-03T11:20:52Z</time>
      </trkpt>
      <trkpt lat="44.17354" lon="5.9488">
        <ele>492.60000610352</ele>
        <time>2021-09-03T11:20:57Z</time>
      </trkpt>
      <trkpt lat="44.17348" lon="5.94858">
        <ele>493</ele>
        <time>2021-09-03T11:21:02Z</time>
      </trkpt>
      <trkpt lat="44.17351" lon="5.94832">
        <ele>493.39999389648</ele>
        <time>2021-09-03T11:21:07Z</time>
      </trkpt>
      <trkpt lat="44.17345" lon="5.94819">
        <ele>493.60000610352</ele>
        <time>2021-09-03T11:21:10Z</time>
      </trkpt>
      <trkpt lat="44.17342" lon="5.94816">
        <ele>493.60000610352</ele>
        <time>2021-09-03T11:21:11Z</time>
      </trkpt>
      <trkpt lat="44.17328" lon="5.94816">
        <ele>493.60000610352</ele>
        <time>2021-09-03T11:21:14Z</time>
      </trkpt>
      <trkpt lat="44.17319" lon="5.94822">
        <ele>493.39999389648</ele>
        <time>2021-09-03T11:21:16Z</time>
      </trkpt>
      <trkpt lat="44.17309" lon="5.94826">
        <ele>493.39999389648</ele>
        <time>2021-09-03T11:21:18Z</time>
      </trkpt>
      <trkpt lat="44.17284" lon="5.94824">
        <ele>493.39999389648</ele>
        <time>2021-09-03T11:21:23Z</time>
      </trkpt>
      <trkpt lat="44.17249" lon="5.94819">
        <ele>493.39999389648</ele>
        <time>2021-09-03T11:21:30Z</time>
      </trkpt>
      <trkpt lat="44.17208" lon="5.94821">
        <ele>493.39999389648</ele>
        <time>2021-09-03T11:21:38Z</time>
      </trkpt>
      <trkpt lat="44.17169" lon="5.94828">
        <ele>493.20001220703</ele>
        <time>2021-09-03T11:21:45Z</time>
      </trkpt>
      <trkpt lat="44.17119" lon="5.94845">
        <ele>493.39999389648</ele>
        <time>2021-09-03T11:21:54Z</time>
      </trkpt>
      <trkpt lat="44.17067" lon="5.94863">
        <ele>493</ele>
        <time>2021-09-03T11:22:03Z</time>
      </trkpt>
      <trkpt lat="44.17024" lon="5.94877">
        <ele>492.60000610352</ele>
        <time>2021-09-03T11:22:10Z</time>
      </trkpt>
      <trkpt lat="44.16987" lon="5.94888">
        <ele>492</ele>
        <time>2021-09-03T11:22:16Z</time>
      </trkpt>
      <trkpt lat="44.16957" lon="5.94899">
        <ele>491.60000610352</ele>
        <time>2021-09-03T11:22:21Z</time>
      </trkpt>
      <trkpt lat="44.16916" lon="5.94914">
        <ele>491.39999389648</ele>
        <time>2021-09-03T11:22:28Z</time>
      </trkpt>
      <trkpt lat="44.16877" lon="5.94929">
        <ele>491.60000610352</ele>
        <time>2021-09-03T11:22:35Z</time>
      </trkpt>
      <trkpt lat="44.16823" lon="5.94946">
        <ele>491.39999389648</ele>
        <time>2021-09-03T11:22:44Z</time>
      </trkpt>
      <trkpt lat="44.16789" lon="5.94957">
        <ele>491</ele>
        <time>2021-09-03T11:22:49Z</time>
      </trkpt>
      <trkpt lat="44.16774" lon="5.94963">
        <ele>490.60000610352</ele>
        <time>2021-09-03T11:22:51Z</time>
      </trkpt>
      <trkpt lat="44.16742" lon="5.94973">
        <ele>489.79998779297</ele>
        <time>2021-09-03T11:22:55Z</time>
      </trkpt>
      <trkpt lat="44.16709" lon="5.94981">
        <ele>488.79998779297</ele>
        <time>2021-09-03T11:22:59Z</time>
      </trkpt>
      <trkpt lat="44.16666" lon="5.94985">
        <ele>487.60000610352</ele>
        <time>2021-09-03T11:23:04Z</time>
      </trkpt>
      <trkpt lat="44.16648" lon="5.94985">
        <ele>487.20001220703</ele>
        <time>2021-09-03T11:23:06Z</time>
      </trkpt>
      <trkpt lat="44.1663" lon="5.94986">
        <ele>486.39999389648</ele>
        <time>2021-09-03T11:23:08Z</time>
      </trkpt>
      <trkpt lat="44.16604" lon="5.94985">
        <ele>485.20001220703</ele>
        <time>2021-09-03T11:23:11Z</time>
      </trkpt>
      <trkpt lat="44.16568" lon="5.94988">
        <ele>484.20001220703</ele>
        <time>2021-09-03T11:23:15Z</time>
      </trkpt>
      <trkpt lat="44.16559" lon="5.94988">
        <ele>483.79998779297</ele>
        <time>2021-09-03T11:23:16Z</time>
      </trkpt>
      <trkpt lat="44.16532" lon="5.94987">
        <ele>482.79998779297</ele>
        <time>2021-09-03T11:23:19Z</time>
      </trkpt>
      <trkpt lat="44.16506" lon="5.94986">
        <ele>481.79998779297</ele>
        <time>2021-09-03T11:23:22Z</time>
      </trkpt>
      <trkpt lat="44.16497" lon="5.94986">
        <ele>481.39999389648</ele>
        <time>2021-09-03T11:23:23Z</time>
      </trkpt>
      <trkpt lat="44.1648" lon="5.94986">
        <ele>480.60000610352</ele>
        <time>2021-09-03T11:23:25Z</time>
      </trkpt>
      <trkpt lat="44.16456" lon="5.94986">
        <ele>479.39999389648</ele>
        <time>2021-09-03T11:23:28Z</time>
      </trkpt>
      <trkpt lat="44.16441" lon="5.94983">
        <ele>478.60000610352</ele>
        <time>2021-09-03T11:23:30Z</time>
      </trkpt>
      <trkpt lat="44.16433" lon="5.9498">
        <ele>478.20001220703</ele>
        <time>2021-09-03T11:23:31Z</time>
      </trkpt>
      <trkpt lat="44.16413" lon="5.94964">
        <ele>477</ele>
        <time>2021-09-03T11:23:34Z</time>
      </trkpt>
      <trkpt lat="44.16403" lon="5.9495">
        <ele>476.60000610352</ele>
        <time>2021-09-03T11:23:36Z</time>
      </trkpt>
      <trkpt lat="44.16392" lon="5.94938">
        <ele>476.20001220703</ele>
        <time>2021-09-03T11:23:38Z</time>
      </trkpt>
      <trkpt lat="44.16374" lon="5.94918">
        <ele>476</ele>
        <time>2021-09-03T11:23:42Z</time>
      </trkpt>
      <trkpt lat="44.16366" lon="5.94909">
        <ele>476</ele>
        <time>2021-09-03T11:23:44Z</time>
      </trkpt>
      <trkpt lat="44.16363" lon="5.94904">
        <ele>475.79998779297</ele>
        <time>2021-09-03T11:23:45Z</time>
      </trkpt>
      <trkpt lat="44.16348" lon="5.94877">
        <ele>475.39999389648</ele>
        <time>2021-09-03T11:23:50Z</time>
      </trkpt>
      <trkpt lat="44.16331" lon="5.94842">
        <ele>475.20001220703</ele>
        <time>2021-09-03T11:23:56Z</time>
      </trkpt>
      <trkpt lat="44.16326" lon="5.94829">
        <ele>475</ele>
        <time>2021-09-03T11:23:58Z</time>
      </trkpt>
      <trkpt lat="44.16303" lon="5.94766">
        <ele>475</ele>
        <time>2021-09-03T11:24:07Z</time>
      </trkpt>
      <trkpt lat="44.16281" lon="5.94701">
        <ele>475.20001220703</ele>
        <time>2021-09-03T11:24:16Z</time>
      </trkpt>
      <trkpt lat="44.1627" lon="5.94664">
        <ele>475</ele>
        <time>2021-09-03T11:24:21Z</time>
      </trkpt>
      <trkpt lat="44.16263" lon="5.94642">
        <ele>474.79998779297</ele>
        <time>2021-09-03T11:24:24Z</time>
      </trkpt>
      <trkpt lat="44.16244" lon="5.94585">
        <ele>474</ele>
        <time>2021-09-03T11:24:31Z</time>
      </trkpt>
      <trkpt lat="44.16222" lon="5.94526">
        <ele>472.79998779297</ele>
        <time>2021-09-03T11:24:38Z</time>
      </trkpt>
      <trkpt lat="44.16216" lon="5.94509">
        <ele>472.39999389648</ele>
        <time>2021-09-03T11:24:40Z</time>
      </trkpt>
      <trkpt lat="44.16204" lon="5.94476">
        <ele>471.79998779297</ele>
        <time>2021-09-03T11:24:44Z</time>
      </trkpt>
      <trkpt lat="44.16197" lon="5.94452">
        <ele>471.39999389648</ele>
        <time>2021-09-03T11:24:47Z</time>
      </trkpt>
      <trkpt lat="44.16188" lon="5.94401">
        <ele>471.60000610352</ele>
        <time>2021-09-03T11:24:54Z</time>
      </trkpt>
      <trkpt lat="44.16187" lon="5.94366">
        <ele>472</ele>
        <time>2021-09-03T11:25:00Z</time>
      </trkpt>
      <trkpt lat="44.16186" lon="5.94341">
        <ele>472.79998779297</ele>
        <time>2021-09-03T11:25:05Z</time>
      </trkpt>
      <trkpt lat="44.16186" lon="5.9432">
        <ele>473.39999389648</ele>
        <time>2021-09-03T11:25:09Z</time>
      </trkpt>
      <trkpt lat="44.16186" lon="5.94305">
        <ele>474</ele>
        <time>2021-09-03T11:25:12Z</time>
      </trkpt>
      <trkpt lat="44.16185" lon="5.94282">
        <ele>474.79998779297</ele>
        <time>2021-09-03T11:25:17Z</time>
      </trkpt>
      <trkpt lat="44.16184" lon="5.94273">
        <ele>475</ele>
        <time>2021-09-03T11:25:19Z</time>
      </trkpt>
      <trkpt lat="44.16182" lon="5.9424">
        <ele>476</ele>
        <time>2021-09-03T11:25:26Z</time>
      </trkpt>
      <trkpt lat="44.16182" lon="5.94235">
        <ele>476</ele>
        <time>2021-09-03T11:25:27Z</time>
      </trkpt>
      <trkpt lat="44.16181" lon="5.94206">
        <ele>477</ele>
        <time>2021-09-03T11:25:34Z</time>
      </trkpt>
      <trkpt lat="44.16183" lon="5.94175">
        <ele>477.79998779297</ele>
        <time>2021-09-03T11:25:41Z</time>
      </trkpt>
      <trkpt lat="44.16184" lon="5.94166">
        <ele>478.20001220703</ele>
        <time>2021-09-03T11:25:43Z</time>
      </trkpt>
      <trkpt lat="44.16187" lon="5.94142">
        <ele>478.79998779297</ele>
        <time>2021-09-03T11:25:48Z</time>
      </trkpt>
      <trkpt lat="44.16191" lon="5.94108">
        <ele>479.20001220703</ele>
        <time>2021-09-03T11:25:55Z</time>
      </trkpt>
      <trkpt lat="44.16191" lon="5.94097">
        <ele>479.60000610352</ele>
        <time>2021-09-03T11:25:57Z</time>
      </trkpt>
      <trkpt lat="44.16187" lon="5.94047">
        <ele>480.20001220703</ele>
        <time>2021-09-03T11:26:06Z</time>
      </trkpt>
      <trkpt lat="44.16185" lon="5.93998">
        <ele>480.20001220703</ele>
        <time>2021-09-03T11:26:14Z</time>
      </trkpt>
      <trkpt lat="44.16188" lon="5.93967">
        <ele>480.39999389648</ele>
        <time>2021-09-03T11:26:19Z</time>
      </trkpt>
      <trkpt lat="44.16188" lon="5.93947">
        <ele>480.39999389648</ele>
        <time>2021-09-03T11:26:22Z</time>
      </trkpt>
      <trkpt lat="44.16194" lon="5.93895">
        <ele>480.60000610352</ele>
        <time>2021-09-03T11:26:30Z</time>
      </trkpt>
      <trkpt lat="44.16209" lon="5.9385">
        <ele>480.60000610352</ele>
        <time>2021-09-03T11:26:37Z</time>
      </trkpt>
      <trkpt lat="44.16234" lon="5.93796">
        <ele>480.39999389648</ele>
        <time>2021-09-03T11:26:46Z</time>
      </trkpt>
      <trkpt lat="44.16255" lon="5.93735">
        <ele>480.20001220703</ele>
        <time>2021-09-03T11:26:55Z</time>
      </trkpt>
      <trkpt lat="44.16276" lon="5.93691">
        <ele>480.20001220703</ele>
        <time>2021-09-03T11:27:02Z</time>
      </trkpt>
      <trkpt lat="44.16299" lon="5.93645">
        <ele>480</ele>
        <time>2021-09-03T11:27:09Z</time>
      </trkpt>
      <trkpt lat="44.16308" lon="5.93615">
        <ele>479.79998779297</ele>
        <time>2021-09-03T11:27:13Z</time>
      </trkpt>
      <trkpt lat="44.16309" lon="5.93606">
        <ele>479.79998779297</ele>
        <time>2021-09-03T11:27:14Z</time>
      </trkpt>
      <trkpt lat="44.16314" lon="5.93546">
        <ele>479.60000610352</ele>
        <time>2021-09-03T11:27:21Z</time>
      </trkpt>
      <trkpt lat="44.1631" lon="5.93487">
        <ele>479.20001220703</ele>
        <time>2021-09-03T11:27:28Z</time>
      </trkpt>
      <trkpt lat="44.16306" lon="5.93424">
        <ele>479</ele>
        <time>2021-09-03T11:27:36Z</time>
      </trkpt>
      <trkpt lat="44.16301" lon="5.9338">
        <ele>479</ele>
        <time>2021-09-03T11:27:42Z</time>
      </trkpt>
      <trkpt lat="44.163" lon="5.93374">
        <ele>479</ele>
        <time>2021-09-03T11:27:43Z</time>
      </trkpt>
      <trkpt lat="44.16296" lon="5.93318">
        <ele>479.60000610352</ele>
        <time>2021-09-03T11:27:52Z</time>
      </trkpt>
      <trkpt lat="44.16297" lon="5.93313">
        <ele>479.79998779297</ele>
        <time>2021-09-03T11:27:53Z</time>
      </trkpt>
      <trkpt lat="44.16302" lon="5.93292">
        <ele>480.39999389648</ele>
        <time>2021-09-03T11:27:57Z</time>
      </trkpt>
      <trkpt lat="44.16303" lon="5.93288">
        <ele>480.39999389648</ele>
        <time>2021-09-03T11:27:58Z</time>
      </trkpt>
      <trkpt lat="44.16315" lon="5.93264">
        <ele>481.20001220703</ele>
        <time>2021-09-03T11:28:04Z</time>
      </trkpt>
      <trkpt lat="44.16318" lon="5.93261">
        <ele>481.39999389648</ele>
        <time>2021-09-03T11:28:05Z</time>
      </trkpt>
      <trkpt lat="44.16334" lon="5.93243">
        <ele>482.39999389648</ele>
        <time>2021-09-03T11:28:11Z</time>
      </trkpt>
      <trkpt lat="44.16337" lon="5.9324">
        <ele>482.39999389648</ele>
        <time>2021-09-03T11:28:12Z</time>
      </trkpt>
      <trkpt lat="44.16356" lon="5.9322">
        <ele>483.60000610352</ele>
        <time>2021-09-03T11:28:19Z</time>
      </trkpt>
      <trkpt lat="44.16359" lon="5.93218">
        <ele>483.79998779297</ele>
        <time>2021-09-03T11:28:20Z</time>
      </trkpt>
      <trkpt lat="44.16376" lon="5.93202">
        <ele>484.60000610352</ele>
        <time>2021-09-03T11:28:26Z</time>
      </trkpt>
      <trkpt lat="44.16382" lon="5.93198">
        <ele>484.79998779297</ele>
        <time>2021-09-03T11:28:28Z</time>
      </trkpt>
      <trkpt lat="44.164" lon="5.93178">
        <ele>485.60000610352</ele>
        <time>2021-09-03T11:28:35Z</time>
      </trkpt>
      <trkpt lat="44.16402" lon="5.93175">
        <ele>485.79998779297</ele>
        <time>2021-09-03T11:28:36Z</time>
      </trkpt>
      <trkpt lat="44.1642" lon="5.93153">
        <ele>486.79998779297</ele>
        <time>2021-09-03T11:28:43Z</time>
      </trkpt>
      <trkpt lat="44.16425" lon="5.93148">
        <ele>487.20001220703</ele>
        <time>2021-09-03T11:28:45Z</time>
      </trkpt>
      <trkpt lat="44.16438" lon="5.93135">
        <ele>487.79998779297</ele>
        <time>2021-09-03T11:28:50Z</time>
      </trkpt>
      <trkpt lat="44.16456" lon="5.93117">
        <ele>488.79998779297</ele>
        <time>2021-09-03T11:28:57Z</time>
      </trkpt>
      <trkpt lat="44.16459" lon="5.93115">
        <ele>488.79998779297</ele>
        <time>2021-09-03T11:28:58Z</time>
      </trkpt>
      <trkpt lat="44.16478" lon="5.931">
        <ele>489.60000610352</ele>
        <time>2021-09-03T11:29:05Z</time>
      </trkpt>
      <trkpt lat="44.16484" lon="5.93094">
        <ele>490</ele>
        <time>2021-09-03T11:29:07Z</time>
      </trkpt>
      <trkpt lat="44.16494" lon="5.93082">
        <ele>490.39999389648</ele>
        <time>2021-09-03T11:29:11Z</time>
      </trkpt>
      <trkpt lat="44.16509" lon="5.93061">
        <ele>491</ele>
        <time>2021-09-03T11:29:17Z</time>
      </trkpt>
      <trkpt lat="44.16511" lon="5.93056">
        <ele>491</ele>
        <time>2021-09-03T11:29:18Z</time>
      </trkpt>
      <trkpt lat="44.16526" lon="5.93023">
        <ele>491</ele>
        <time>2021-09-03T11:29:24Z</time>
      </trkpt>
      <trkpt lat="44.1654" lon="5.92984">
        <ele>490.39999389648</ele>
        <time>2021-09-03T11:29:30Z</time>
      </trkpt>
      <trkpt lat="44.16547" lon="5.92962">
        <ele>490</ele>
        <time>2021-09-03T11:29:33Z</time>
      </trkpt>
      <trkpt lat="44.16551" lon="5.92946">
        <ele>489.60000610352</ele>
        <time>2021-09-03T11:29:35Z</time>
      </trkpt>
      <trkpt lat="44.16561" lon="5.92904">
        <ele>489</ele>
        <time>2021-09-03T11:29:40Z</time>
      </trkpt>
      <trkpt lat="44.16569" lon="5.92878">
        <ele>488.39999389648</ele>
        <time>2021-09-03T11:29:43Z</time>
      </trkpt>
      <trkpt lat="44.16586" lon="5.92833">
        <ele>488.20001220703</ele>
        <time>2021-09-03T11:29:49Z</time>
      </trkpt>
      <trkpt lat="44.16593" lon="5.92818">
        <ele>487.79998779297</ele>
        <time>2021-09-03T11:29:51Z</time>
      </trkpt>
      <trkpt lat="44.16617" lon="5.92763">
        <ele>487.60000610352</ele>
        <time>2021-09-03T11:29:59Z</time>
      </trkpt>
      <trkpt lat="44.16637" lon="5.92709">
        <ele>488.20001220703</ele>
        <time>2021-09-03T11:30:07Z</time>
      </trkpt>
      <trkpt lat="44.16651" lon="5.92659">
        <ele>488.60000610352</ele>
        <time>2021-09-03T11:30:14Z</time>
      </trkpt>
      <trkpt lat="44.16665" lon="5.92607">
        <ele>489</ele>
        <time>2021-09-03T11:30:21Z</time>
      </trkpt>
      <trkpt lat="44.16685" lon="5.92565">
        <ele>489</ele>
        <time>2021-09-03T11:30:27Z</time>
      </trkpt>
      <trkpt lat="44.1671" lon="5.92539">
        <ele>488.60000610352</ele>
        <time>2021-09-03T11:30:32Z</time>
      </trkpt>
      <trkpt lat="44.16716" lon="5.92536">
        <ele>488.60000610352</ele>
        <time>2021-09-03T11:30:33Z</time>
      </trkpt>
      <trkpt lat="44.16733" lon="5.92529">
        <ele>488.60000610352</ele>
        <time>2021-09-03T11:30:36Z</time>
      </trkpt>
      <trkpt lat="44.16746" lon="5.92525">
        <ele>488.39999389648</ele>
        <time>2021-09-03T11:30:38Z</time>
      </trkpt>
      <trkpt lat="44.16753" lon="5.92525">
        <ele>488.39999389648</ele>
        <time>2021-09-03T11:30:39Z</time>
      </trkpt>
      <trkpt lat="44.16781" lon="5.92526">
        <ele>487.79998779297</ele>
        <time>2021-09-03T11:30:43Z</time>
      </trkpt>
      <trkpt lat="44.16822" lon="5.92528">
        <ele>486.79998779297</ele>
        <time>2021-09-03T11:30:49Z</time>
      </trkpt>
      <trkpt lat="44.16835" lon="5.92527">
        <ele>486.60000610352</ele>
        <time>2021-09-03T11:30:51Z</time>
      </trkpt>
      <trkpt lat="44.16864" lon="5.92525">
        <ele>486.60000610352</ele>
        <time>2021-09-03T11:30:56Z</time>
      </trkpt>
      <trkpt lat="44.16869" lon="5.92522">
        <ele>486.60000610352</ele>
        <time>2021-09-03T11:30:57Z</time>
      </trkpt>
      <trkpt lat="44.169" lon="5.92502">
        <ele>486.60000610352</ele>
        <time>2021-09-03T11:31:03Z</time>
      </trkpt>
      <trkpt lat="44.16904" lon="5.92497">
        <ele>486.60000610352</ele>
        <time>2021-09-03T11:31:04Z</time>
      </trkpt>
      <trkpt lat="44.16911" lon="5.92487">
        <ele>486.79998779297</ele>
        <time>2021-09-03T11:31:06Z</time>
      </trkpt>
      <trkpt lat="44.16921" lon="5.92471">
        <ele>487</ele>
        <time>2021-09-03T11:31:09Z</time>
      </trkpt>
      <trkpt lat="44.16939" lon="5.92434">
        <ele>487.79998779297</ele>
        <time>2021-09-03T11:31:16Z</time>
      </trkpt>
      <trkpt lat="44.16958" lon="5.9238">
        <ele>488.60000610352</ele>
        <time>2021-09-03T11:31:26Z</time>
      </trkpt>
      <trkpt lat="44.16964" lon="5.92357">
        <ele>488.79998779297</ele>
        <time>2021-09-03T11:31:30Z</time>
      </trkpt>
      <trkpt lat="44.16968" lon="5.92347">
        <ele>489</ele>
        <time>2021-09-03T11:31:32Z</time>
      </trkpt>
      <trkpt lat="44.16985" lon="5.92308">
        <ele>489.39999389648</ele>
        <time>2021-09-03T11:31:39Z</time>
      </trkpt>
      <trkpt lat="44.17011" lon="5.92254">
        <ele>489.39999389648</ele>
        <time>2021-09-03T11:31:49Z</time>
      </trkpt>
      <trkpt lat="44.17038" lon="5.92209">
        <ele>489.79998779297</ele>
        <time>2021-09-03T11:31:58Z</time>
      </trkpt>
      <trkpt lat="44.17058" lon="5.92178">
        <ele>489.79998779297</ele>
        <time>2021-09-03T11:32:04Z</time>
      </trkpt>
      <trkpt lat="44.17068" lon="5.92162">
        <ele>490</ele>
        <time>2021-09-03T11:32:07Z</time>
      </trkpt>
      <trkpt lat="44.17102" lon="5.92099">
        <ele>489.79998779297</ele>
        <time>2021-09-03T11:32:18Z</time>
      </trkpt>
      <trkpt lat="44.17105" lon="5.92094">
        <ele>489.60000610352</ele>
        <time>2021-09-03T11:32:19Z</time>
      </trkpt>
      <trkpt lat="44.17124" lon="5.92055">
        <ele>489.60000610352</ele>
        <time>2021-09-03T11:32:26Z</time>
      </trkpt>
      <trkpt lat="44.17136" lon="5.92015">
        <ele>490.20001220703</ele>
        <time>2021-09-03T11:32:33Z</time>
      </trkpt>
      <trkpt lat="44.17144" lon="5.91972">
        <ele>490.79998779297</ele>
        <time>2021-09-03T11:32:40Z</time>
      </trkpt>
      <trkpt lat="44.17145" lon="5.91966">
        <ele>491</ele>
        <time>2021-09-03T11:32:41Z</time>
      </trkpt>
      <trkpt lat="44.17156" lon="5.91921">
        <ele>491.60000610352</ele>
        <time>2021-09-03T11:32:49Z</time>
      </trkpt>
      <trkpt lat="44.17156" lon="5.91915">
        <ele>491.79998779297</ele>
        <time>2021-09-03T11:32:50Z</time>
      </trkpt>
      <trkpt lat="44.17159" lon="5.91903">
        <ele>492</ele>
        <time>2021-09-03T11:32:52Z</time>
      </trkpt>
      <trkpt lat="44.17163" lon="5.9188">
        <ele>492.39999389648</ele>
        <time>2021-09-03T11:32:56Z</time>
      </trkpt>
      <trkpt lat="44.17176" lon="5.9181">
        <ele>493</ele>
        <time>2021-09-03T11:33:08Z</time>
      </trkpt>
      <trkpt lat="44.17184" lon="5.91767">
        <ele>493.60000610352</ele>
        <time>2021-09-03T11:33:15Z</time>
      </trkpt>
      <trkpt lat="44.1719" lon="5.91722">
        <ele>493.79998779297</ele>
        <time>2021-09-03T11:33:22Z</time>
      </trkpt>
      <trkpt lat="44.17191" lon="5.91715">
        <ele>493.79998779297</ele>
        <time>2021-09-03T11:33:23Z</time>
      </trkpt>
      <trkpt lat="44.17196" lon="5.91676">
        <ele>494</ele>
        <time>2021-09-03T11:33:29Z</time>
      </trkpt>
      <trkpt lat="44.1721" lon="5.91615">
        <ele>494</ele>
        <time>2021-09-03T11:33:38Z</time>
      </trkpt>
      <trkpt lat="44.17222" lon="5.91552">
        <ele>494</ele>
        <time>2021-09-03T11:33:47Z</time>
      </trkpt>
      <trkpt lat="44.17233" lon="5.91487">
        <ele>494</ele>
        <time>2021-09-03T11:33:56Z</time>
      </trkpt>
      <trkpt lat="44.17241" lon="5.91438">
        <ele>494.20001220703</ele>
        <time>2021-09-03T11:34:03Z</time>
      </trkpt>
      <trkpt lat="44.17242" lon="5.91431">
        <ele>494.20001220703</ele>
        <time>2021-09-03T11:34:04Z</time>
      </trkpt>
      <trkpt lat="44.17253" lon="5.91375">
        <ele>494.39999389648</ele>
        <time>2021-09-03T11:34:12Z</time>
      </trkpt>
      <trkpt lat="44.1727" lon="5.91312">
        <ele>495</ele>
        <time>2021-09-03T11:34:22Z</time>
      </trkpt>
      <trkpt lat="44.17272" lon="5.91306">
        <ele>495.20001220703</ele>
        <time>2021-09-03T11:34:23Z</time>
      </trkpt>
      <trkpt lat="44.17291" lon="5.91262">
        <ele>495.79998779297</ele>
        <time>2021-09-03T11:34:31Z</time>
      </trkpt>
      <trkpt lat="44.17298" lon="5.91246">
        <ele>496.20001220703</ele>
        <time>2021-09-03T11:34:34Z</time>
      </trkpt>
      <trkpt lat="44.17315" lon="5.91213">
        <ele>496.39999389648</ele>
        <time>2021-09-03T11:34:40Z</time>
      </trkpt>
      <trkpt lat="44.17338" lon="5.91159">
        <ele>496.39999389648</ele>
        <time>2021-09-03T11:34:49Z</time>
      </trkpt>
      <trkpt lat="44.17346" lon="5.91121">
        <ele>496.60000610352</ele>
        <time>2021-09-03T11:34:55Z</time>
      </trkpt>
      <trkpt lat="44.17347" lon="5.91114">
        <ele>496.79998779297</ele>
        <time>2021-09-03T11:34:56Z</time>
      </trkpt>
      <trkpt lat="44.1735" lon="5.91084">
        <ele>497.20001220703</ele>
        <time>2021-09-03T11:35:01Z</time>
      </trkpt>
      <trkpt lat="44.17351" lon="5.91073">
        <ele>497.39999389648</ele>
        <time>2021-09-03T11:35:03Z</time>
      </trkpt>
      <trkpt lat="44.17353" lon="5.91038">
        <ele>498.20001220703</ele>
        <time>2021-09-03T11:35:09Z</time>
      </trkpt>
      <trkpt lat="44.17354" lon="5.91032">
        <ele>498.39999389648</ele>
        <time>2021-09-03T11:35:10Z</time>
      </trkpt>
      <trkpt lat="44.17356" lon="5.90986">
        <ele>499.20001220703</ele>
        <time>2021-09-03T11:35:18Z</time>
      </trkpt>
      <trkpt lat="44.17357" lon="5.9098">
        <ele>499.20001220703</ele>
        <time>2021-09-03T11:35:19Z</time>
      </trkpt>
      <trkpt lat="44.17362" lon="5.9094">
        <ele>499.79998779297</ele>
        <time>2021-09-03T11:35:26Z</time>
      </trkpt>
      <trkpt lat="44.17365" lon="5.90904">
        <ele>500.20001220703</ele>
        <time>2021-09-03T11:35:32Z</time>
      </trkpt>
      <trkpt lat="44.17366" lon="5.90898">
        <ele>500.20001220703</ele>
        <time>2021-09-03T11:35:33Z</time>
      </trkpt>
      <trkpt lat="44.17368" lon="5.90886">
        <ele>500.39999389648</ele>
        <time>2021-09-03T11:35:35Z</time>
      </trkpt>
      <trkpt lat="44.17374" lon="5.90842">
        <ele>500.79998779297</ele>
        <time>2021-09-03T11:35:42Z</time>
      </trkpt>
      <trkpt lat="44.17378" lon="5.90792">
        <ele>501.20001220703</ele>
        <time>2021-09-03T11:35:50Z</time>
      </trkpt>
      <trkpt lat="44.17379" lon="5.90779">
        <ele>501.39999389648</ele>
        <time>2021-09-03T11:35:52Z</time>
      </trkpt>
      <trkpt lat="44.1738" lon="5.9074">
        <ele>501.39999389648</ele>
        <time>2021-09-03T11:35:58Z</time>
      </trkpt>
      <trkpt lat="44.17381" lon="5.90678">
        <ele>501.39999389648</ele>
        <time>2021-09-03T11:36:07Z</time>
      </trkpt>
      <trkpt lat="44.17382" lon="5.90611">
        <ele>501.60000610352</ele>
        <time>2021-09-03T11:36:17Z</time>
      </trkpt>
      <trkpt lat="44.17383" lon="5.90555">
        <ele>501.79998779297</ele>
        <time>2021-09-03T11:36:25Z</time>
      </trkpt>
      <trkpt lat="44.17383" lon="5.90487">
        <ele>502.20001220703</ele>
        <time>2021-09-03T11:36:35Z</time>
      </trkpt>
      <trkpt lat="44.17384" lon="5.90431">
        <ele>502.39999389648</ele>
        <time>2021-09-03T11:36:43Z</time>
      </trkpt>
      <trkpt lat="44.17388" lon="5.90369">
        <ele>502.60000610352</ele>
        <time>2021-09-03T11:36:52Z</time>
      </trkpt>
      <trkpt lat="44.17394" lon="5.90315">
        <ele>503.39999389648</ele>
        <time>2021-09-03T11:37:00Z</time>
      </trkpt>
      <trkpt lat="44.17398" lon="5.90273">
        <ele>504.39999389648</ele>
        <time>2021-09-03T11:37:07Z</time>
      </trkpt>
      <trkpt lat="44.17398" lon="5.90267">
        <ele>504.60000610352</ele>
        <time>2021-09-03T11:37:08Z</time>
      </trkpt>
      <trkpt lat="44.17399" lon="5.90231">
        <ele>505.39999389648</ele>
        <time>2021-09-03T11:37:14Z</time>
      </trkpt>
      <trkpt lat="44.174" lon="5.90201">
        <ele>505.60000610352</ele>
        <time>2021-09-03T11:37:19Z</time>
      </trkpt>
      <trkpt lat="44.17401" lon="5.90142">
        <ele>506</ele>
        <time>2021-09-03T11:37:28Z</time>
      </trkpt>
      <trkpt lat="44.17398" lon="5.90101">
        <ele>506</ele>
        <time>2021-09-03T11:37:34Z</time>
      </trkpt>
      <trkpt lat="44.17389" lon="5.90048">
        <ele>506.20001220703</ele>
        <time>2021-09-03T11:37:42Z</time>
      </trkpt>
      <trkpt lat="44.17384" lon="5.90029">
        <ele>506.39999389648</ele>
        <time>2021-09-03T11:37:45Z</time>
      </trkpt>
      <trkpt lat="44.17371" lon="5.89986">
        <ele>507</ele>
        <time>2021-09-03T11:37:52Z</time>
      </trkpt>
      <trkpt lat="44.17352" lon="5.8993">
        <ele>507.39999389648</ele>
        <time>2021-09-03T11:38:01Z</time>
      </trkpt>
      <trkpt lat="44.17345" lon="5.89903">
        <ele>507.39999389648</ele>
        <time>2021-09-03T11:38:05Z</time>
      </trkpt>
      <trkpt lat="44.17337" lon="5.89861">
        <ele>507.60000610352</ele>
        <time>2021-09-03T11:38:11Z</time>
      </trkpt>
      <trkpt lat="44.17326" lon="5.898">
        <ele>507.79998779297</ele>
        <time>2021-09-03T11:38:20Z</time>
      </trkpt>
      <trkpt lat="44.17318" lon="5.89751">
        <ele>508</ele>
        <time>2021-09-03T11:38:27Z</time>
      </trkpt>
      <trkpt lat="44.17306" lon="5.89681">
        <ele>508.20001220703</ele>
        <time>2021-09-03T11:38:37Z</time>
      </trkpt>
      <trkpt lat="44.17297" lon="5.8962">
        <ele>508.20001220703</ele>
        <time>2021-09-03T11:38:45Z</time>
      </trkpt>
      <trkpt lat="44.1729" lon="5.89556">
        <ele>508.20001220703</ele>
        <time>2021-09-03T11:38:54Z</time>
      </trkpt>
      <trkpt lat="44.17285" lon="5.89517">
        <ele>508.60000610352</ele>
        <time>2021-09-03T11:39:00Z</time>
      </trkpt>
      <trkpt lat="44.17282" lon="5.89492">
        <ele>508.79998779297</ele>
        <time>2021-09-03T11:39:04Z</time>
      </trkpt>
      <trkpt lat="44.17275" lon="5.89434">
        <ele>509.60000610352</ele>
        <time>2021-09-03T11:39:13Z</time>
      </trkpt>
      <trkpt lat="44.17274" lon="5.89428">
        <ele>509.60000610352</ele>
        <time>2021-09-03T11:39:14Z</time>
      </trkpt>
      <trkpt lat="44.17268" lon="5.89374">
        <ele>510.60000610352</ele>
        <time>2021-09-03T11:39:23Z</time>
      </trkpt>
      <trkpt lat="44.17268" lon="5.89368">
        <ele>510.60000610352</ele>
        <time>2021-09-03T11:39:24Z</time>
      </trkpt>
      <trkpt lat="44.17262" lon="5.89319">
        <ele>511</ele>
        <time>2021-09-03T11:39:32Z</time>
      </trkpt>
      <trkpt lat="44.17254" lon="5.8926">
        <ele>511.39999389648</ele>
        <time>2021-09-03T11:39:42Z</time>
      </trkpt>
      <trkpt lat="44.17246" lon="5.89228">
        <ele>511.79998779297</ele>
        <time>2021-09-03T11:39:48Z</time>
      </trkpt>
      <trkpt lat="44.17244" lon="5.89222">
        <ele>511.79998779297</ele>
        <time>2021-09-03T11:39:49Z</time>
      </trkpt>
      <trkpt lat="44.17226" lon="5.89173">
        <ele>512</ele>
        <time>2021-09-03T11:39:58Z</time>
      </trkpt>
      <trkpt lat="44.17208" lon="5.89127">
        <ele>512.40002441406</ele>
        <time>2021-09-03T11:40:07Z</time>
      </trkpt>
      <trkpt lat="44.17201" lon="5.89107">
        <ele>512.79998779297</ele>
        <time>2021-09-03T11:40:11Z</time>
      </trkpt>
      <trkpt lat="44.17197" lon="5.89098">
        <ele>513</ele>
        <time>2021-09-03T11:40:13Z</time>
      </trkpt>
      <trkpt lat="44.17184" lon="5.89059">
        <ele>513.79998779297</ele>
        <time>2021-09-03T11:40:20Z</time>
      </trkpt>
      <trkpt lat="44.17176" lon="5.89018">
        <ele>514.40002441406</ele>
        <time>2021-09-03T11:40:27Z</time>
      </trkpt>
      <trkpt lat="44.17172" lon="5.89">
        <ele>514.40002441406</ele>
        <time>2021-09-03T11:40:30Z</time>
      </trkpt>
      <trkpt lat="44.17169" lon="5.88983">
        <ele>514.40002441406</ele>
        <time>2021-09-03T11:40:33Z</time>
      </trkpt>
      <trkpt lat="44.17163" lon="5.88951">
        <ele>514.40002441406</ele>
        <time>2021-09-03T11:40:39Z</time>
      </trkpt>
      <trkpt lat="44.17161" lon="5.88944">
        <ele>514.59997558594</ele>
        <time>2021-09-03T11:40:41Z</time>
      </trkpt>
      <trkpt lat="44.17159" lon="5.88944">
        <ele>514.59997558594</ele>
        <time>2021-09-03T11:40:42Z</time>
      </trkpt>
      <trkpt lat="44.17159" lon="5.88953">
        <ele>514.40002441406</ele>
        <time>2021-09-03T11:40:45Z</time>
      </trkpt>
      <trkpt lat="44.17169" lon="5.88964">
        <ele>514.40002441406</ele>
        <time>2021-09-03T11:40:49Z</time>
      </trkpt>
      <trkpt lat="44.17172" lon="5.88966">
        <ele>514.40002441406</ele>
        <time>2021-09-03T11:40:50Z</time>
      </trkpt>
      <trkpt lat="44.17181" lon="5.88978">
        <ele>514.79998779297</ele>
        <time>2021-09-03T11:40:55Z</time>
      </trkpt>
      <trkpt lat="44.17187" lon="5.88995">
        <ele>516</ele>
        <time>2021-09-03T11:41:02Z</time>
      </trkpt>
      <trkpt lat="44.17193" lon="5.89005">
        <ele>516.79998779297</ele>
        <time>2021-09-03T11:41:08Z</time>
      </trkpt>
      <trkpt lat="44.17194" lon="5.89007">
        <ele>517.20001220703</ele>
        <time>2021-09-03T11:41:09Z</time>
      </trkpt>
      <trkpt lat="44.17199" lon="5.89012">
        <ele>518.20001220703</ele>
        <time>2021-09-03T11:41:14Z</time>
      </trkpt>
      <trkpt lat="44.172" lon="5.89011">
        <ele>518.40002441406</ele>
        <time>2021-09-03T11:41:15Z</time>
      </trkpt>
      <trkpt lat="44.17204" lon="5.89004">
        <ele>519.20001220703</ele>
        <time>2021-09-03T11:41:19Z</time>
      </trkpt>
      <trkpt lat="44.17207" lon="5.89003">
        <ele>519.59997558594</ele>
        <time>2021-09-03T11:41:21Z</time>
      </trkpt>
      <trkpt lat="44.17209" lon="5.89006">
        <ele>519.79998779297</ele>
        <time>2021-09-03T11:41:23Z</time>
      </trkpt>
      <trkpt lat="44.17215" lon="5.89014">
        <ele>520.79998779297</ele>
        <time>2021-09-03T11:41:28Z</time>
      </trkpt>
      <trkpt lat="44.17217" lon="5.89015">
        <ele>521</ele>
        <time>2021-09-03T11:41:30Z</time>
      </trkpt>
      <trkpt lat="44.17221" lon="5.89014">
        <ele>521.79998779297</ele>
        <time>2021-09-03T11:41:33Z</time>
      </trkpt>
      <trkpt lat="44.17226" lon="5.89011">
        <ele>522.40002441406</ele>
        <time>2021-09-03T11:41:36Z</time>
      </trkpt>
      <trkpt lat="44.1723" lon="5.89012">
        <ele>523</ele>
        <time>2021-09-03T11:41:39Z</time>
      </trkpt>
      <trkpt lat="44.17234" lon="5.89015">
        <ele>523.59997558594</ele>
        <time>2021-09-03T11:41:42Z</time>
      </trkpt>
      <trkpt lat="44.17236" lon="5.89017">
        <ele>524</ele>
        <time>2021-09-03T11:41:44Z</time>
      </trkpt>
      <trkpt lat="44.17241" lon="5.89017">
        <ele>524.79998779297</ele>
        <time>2021-09-03T11:41:47Z</time>
      </trkpt>
      <trkpt lat="44.17244" lon="5.89018">
        <ele>525.20001220703</ele>
        <time>2021-09-03T11:41:49Z</time>
      </trkpt>
      <trkpt lat="44.17247" lon="5.89023">
        <ele>526</ele>
        <time>2021-09-03T11:41:53Z</time>
      </trkpt>
      <trkpt lat="44.17246" lon="5.89025">
        <ele>526.20001220703</ele>
        <time>2021-09-03T11:41:54Z</time>
      </trkpt>
      <trkpt lat="44.17245" lon="5.89036">
        <ele>526.79998779297</ele>
        <time>2021-09-03T11:41:58Z</time>
      </trkpt>
      <trkpt lat="44.17245" lon="5.89052">
        <ele>527</ele>
        <time>2021-09-03T11:42:05Z</time>
      </trkpt>
      <trkpt lat="44.17244" lon="5.89059">
        <ele>527.20001220703</ele>
        <time>2021-09-03T11:42:08Z</time>
      </trkpt>
      <trkpt lat="44.17245" lon="5.89069">
        <ele>527.59997558594</ele>
        <time>2021-09-03T11:42:11Z</time>
      </trkpt>
      <trkpt lat="44.17248" lon="5.89075">
        <ele>527.79998779297</ele>
        <time>2021-09-03T11:42:14Z</time>
      </trkpt>
      <trkpt lat="44.1725" lon="5.89073">
        <ele>527.79998779297</ele>
        <time>2021-09-03T11:42:16Z</time>
      </trkpt>
      <trkpt lat="44.17249" lon="5.89066">
        <ele>527.79998779297</ele>
        <time>2021-09-03T11:42:19Z</time>
      </trkpt>
      <trkpt lat="44.17249" lon="5.89063">
        <ele>527.79998779297</ele>
        <time>2021-09-03T11:42:20Z</time>
      </trkpt>
      <trkpt lat="44.17249" lon="5.89037">
        <ele>528</ele>
        <time>2021-09-03T11:42:26Z</time>
      </trkpt>
      <trkpt lat="44.17247" lon="5.89026">
        <ele>527.59997558594</ele>
        <time>2021-09-03T11:42:28Z</time>
      </trkpt>
      <trkpt lat="44.1724" lon="5.89018">
        <ele>527.40002441406</ele>
        <time>2021-09-03T11:42:30Z</time>
      </trkpt>
      <trkpt lat="44.1723" lon="5.89014">
        <ele>526.79998779297</ele>
        <time>2021-09-03T11:42:33Z</time>
      </trkpt>
      <trkpt lat="44.17223" lon="5.89013">
        <ele>526.20001220703</ele>
        <time>2021-09-03T11:42:35Z</time>
      </trkpt>
      <trkpt lat="44.17215" lon="5.89013">
        <ele>524.79998779297</ele>
        <time>2021-09-03T11:42:38Z</time>
      </trkpt>
      <trkpt lat="44.17209" lon="5.89012">
        <ele>523.79998779297</ele>
        <time>2021-09-03T11:42:40Z</time>
      </trkpt>
      <trkpt lat="44.17206" lon="5.8901">
        <ele>523.20001220703</ele>
        <time>2021-09-03T11:42:41Z</time>
      </trkpt>
      <trkpt lat="44.172" lon="5.89011">
        <ele>522.40002441406</ele>
        <time>2021-09-03T11:42:43Z</time>
      </trkpt>
      <trkpt lat="44.17197" lon="5.89014">
        <ele>522</ele>
        <time>2021-09-03T11:42:44Z</time>
      </trkpt>
      <trkpt lat="44.17194" lon="5.89022">
        <ele>520.79998779297</ele>
        <time>2021-09-03T11:42:46Z</time>
      </trkpt>
      <trkpt lat="44.17192" lon="5.89031">
        <ele>520</ele>
        <time>2021-09-03T11:42:48Z</time>
      </trkpt>
      <trkpt lat="44.17191" lon="5.89035">
        <ele>519.59997558594</ele>
        <time>2021-09-03T11:42:49Z</time>
      </trkpt>
      <trkpt lat="44.17198" lon="5.89027">
        <ele>520.79998779297</ele>
        <time>2021-09-03T12:08:36Z</time>
      </trkpt>
      <trkpt lat="44.17198" lon="5.89019">
        <ele>520.59997558594</ele>
        <time>2021-09-03T12:08:38Z</time>
      </trkpt>
      <trkpt lat="44.17197" lon="5.8901">
        <ele>519.79998779297</ele>
        <time>2021-09-03T12:08:47Z</time>
      </trkpt>
      <trkpt lat="44.17195" lon="5.89006">
        <ele>519.79998779297</ele>
        <time>2021-09-03T12:08:48Z</time>
      </trkpt>
      <trkpt lat="44.17194" lon="5.89002">
        <ele>519.79998779297</ele>
        <time>2021-09-03T12:08:49Z</time>
      </trkpt>
      <trkpt lat="44.17181" lon="5.88975">
        <ele>518.59997558594</ele>
        <time>2021-09-03T12:08:55Z</time>
      </trkpt>
      <trkpt lat="44.17169" lon="5.88963">
        <ele>517.40002441406</ele>
        <time>2021-09-03T12:08:59Z</time>
      </trkpt>
      <trkpt lat="44.17166" lon="5.88958">
        <ele>517</ele>
        <time>2021-09-03T12:09:00Z</time>
      </trkpt>
      <trkpt lat="44.1716" lon="5.88942">
        <ele>516.20001220703</ele>
        <time>2021-09-03T12:09:03Z</time>
      </trkpt>
      <trkpt lat="44.17158" lon="5.88937">
        <ele>516</ele>
        <time>2021-09-03T12:09:04Z</time>
      </trkpt>
      <trkpt lat="44.17156" lon="5.88931">
        <ele>515.79998779297</ele>
        <time>2021-09-03T12:09:05Z</time>
      </trkpt>
      <trkpt lat="44.17147" lon="5.88904">
        <ele>515.40002441406</ele>
        <time>2021-09-03T12:09:11Z</time>
      </trkpt>
      <trkpt lat="44.17141" lon="5.88888">
        <ele>515.40002441406</ele>
        <time>2021-09-03T12:09:14Z</time>
      </trkpt>
      <trkpt lat="44.17134" lon="5.88873">
        <ele>515.40002441406</ele>
        <time>2021-09-03T12:09:17Z</time>
      </trkpt>
      <trkpt lat="44.17114" lon="5.88822">
        <ele>515.59997558594</ele>
        <time>2021-09-03T12:09:26Z</time>
      </trkpt>
      <trkpt lat="44.17094" lon="5.8877">
        <ele>515.40002441406</ele>
        <time>2021-09-03T12:09:35Z</time>
      </trkpt>
      <trkpt lat="44.17079" lon="5.88725">
        <ele>516</ele>
        <time>2021-09-03T12:09:43Z</time>
      </trkpt>
      <trkpt lat="44.17066" lon="5.8868">
        <ele>516.40002441406</ele>
        <time>2021-09-03T12:09:51Z</time>
      </trkpt>
      <trkpt lat="44.17054" lon="5.88638">
        <ele>516.59997558594</ele>
        <time>2021-09-03T12:09:58Z</time>
      </trkpt>
      <trkpt lat="44.17036" lon="5.88583">
        <ele>516.59997558594</ele>
        <time>2021-09-03T12:10:07Z</time>
      </trkpt>
      <trkpt lat="44.17021" lon="5.88541">
        <ele>516.79998779297</ele>
        <time>2021-09-03T12:10:14Z</time>
      </trkpt>
      <trkpt lat="44.17013" lon="5.8852">
        <ele>517.20001220703</ele>
        <time>2021-09-03T12:10:18Z</time>
      </trkpt>
      <trkpt lat="44.17001" lon="5.88495">
        <ele>517.79998779297</ele>
        <time>2021-09-03T12:10:23Z</time>
      </trkpt>
      <trkpt lat="44.16989" lon="5.8847">
        <ele>518.20001220703</ele>
        <time>2021-09-03T12:10:28Z</time>
      </trkpt>
      <trkpt lat="44.16981" lon="5.88448">
        <ele>518.40002441406</ele>
        <time>2021-09-03T12:10:32Z</time>
      </trkpt>
      <trkpt lat="44.16974" lon="5.88431">
        <ele>518.59997558594</ele>
        <time>2021-09-03T12:10:35Z</time>
      </trkpt>
      <trkpt lat="44.16969" lon="5.88407">
        <ele>518.79998779297</ele>
        <time>2021-09-03T12:10:39Z</time>
      </trkpt>
      <trkpt lat="44.16961" lon="5.8835">
        <ele>519.20001220703</ele>
        <time>2021-09-03T12:10:48Z</time>
      </trkpt>
      <trkpt lat="44.16959" lon="5.88337">
        <ele>519.40002441406</ele>
        <time>2021-09-03T12:10:50Z</time>
      </trkpt>
      <trkpt lat="44.16951" lon="5.88259">
        <ele>519.79998779297</ele>
        <time>2021-09-03T12:11:02Z</time>
      </trkpt>
      <trkpt lat="44.1694" lon="5.88216">
        <ele>519.79998779297</ele>
        <time>2021-09-03T12:11:08Z</time>
      </trkpt>
      <trkpt lat="44.16919" lon="5.88166">
        <ele>519</ele>
        <time>2021-09-03T12:11:15Z</time>
      </trkpt>
      <trkpt lat="44.16906" lon="5.88124">
        <ele>518.20001220703</ele>
        <time>2021-09-03T12:11:20Z</time>
      </trkpt>
      <trkpt lat="44.16904" lon="5.88114">
        <ele>518</ele>
        <time>2021-09-03T12:11:21Z</time>
      </trkpt>
      <trkpt lat="44.16894" lon="5.88049">
        <ele>517.20001220703</ele>
        <time>2021-09-03T12:11:28Z</time>
      </trkpt>
      <trkpt lat="44.16892" lon="5.8804">
        <ele>517</ele>
        <time>2021-09-03T12:11:29Z</time>
      </trkpt>
      <trkpt lat="44.16879" lon="5.87962">
        <ele>516.40002441406</ele>
        <time>2021-09-03T12:11:38Z</time>
      </trkpt>
      <trkpt lat="44.16869" lon="5.87899">
        <ele>516.79998779297</ele>
        <time>2021-09-03T12:11:46Z</time>
      </trkpt>
      <trkpt lat="44.16856" lon="5.87822">
        <ele>517</ele>
        <time>2021-09-03T12:11:56Z</time>
      </trkpt>
      <trkpt lat="44.16844" lon="5.87747">
        <ele>517.20001220703</ele>
        <time>2021-09-03T12:12:06Z</time>
      </trkpt>
      <trkpt lat="44.16842" lon="5.87732">
        <ele>517.20001220703</ele>
        <time>2021-09-03T12:12:08Z</time>
      </trkpt>
      <trkpt lat="44.16829" lon="5.87654">
        <ele>517.40002441406</ele>
        <time>2021-09-03T12:12:19Z</time>
      </trkpt>
      <trkpt lat="44.16821" lon="5.87605">
        <ele>517.59997558594</ele>
        <time>2021-09-03T12:12:26Z</time>
      </trkpt>
      <trkpt lat="44.16812" lon="5.8755">
        <ele>518</ele>
        <time>2021-09-03T12:12:34Z</time>
      </trkpt>
      <trkpt lat="44.16808" lon="5.87532">
        <ele>518.20001220703</ele>
        <time>2021-09-03T12:12:37Z</time>
      </trkpt>
      <trkpt lat="44.16803" lon="5.87511">
        <ele>518.79998779297</ele>
        <time>2021-09-03T12:12:41Z</time>
      </trkpt>
      <trkpt lat="44.16799" lon="5.87496">
        <ele>519.20001220703</ele>
        <time>2021-09-03T12:12:44Z</time>
      </trkpt>
      <trkpt lat="44.16794" lon="5.87476">
        <ele>520</ele>
        <time>2021-09-03T12:12:48Z</time>
      </trkpt>
      <trkpt lat="44.16792" lon="5.87465">
        <ele>520.40002441406</ele>
        <time>2021-09-03T12:12:50Z</time>
      </trkpt>
      <trkpt lat="44.16788" lon="5.87435">
        <ele>521</ele>
        <time>2021-09-03T12:12:56Z</time>
      </trkpt>
      <trkpt lat="44.16787" lon="5.8742">
        <ele>521.40002441406</ele>
        <time>2021-09-03T12:12:59Z</time>
      </trkpt>
      <trkpt lat="44.16784" lon="5.87395">
        <ele>522.20001220703</ele>
        <time>2021-09-03T12:13:04Z</time>
      </trkpt>
      <trkpt lat="44.16779" lon="5.87358">
        <ele>522.40002441406</ele>
        <time>2021-09-03T12:13:10Z</time>
      </trkpt>
      <trkpt lat="44.16772" lon="5.87305">
        <ele>521.79998779297</ele>
        <time>2021-09-03T12:13:17Z</time>
      </trkpt>
      <trkpt lat="44.16765" lon="5.87249">
        <ele>521.40002441406</ele>
        <time>2021-09-03T12:13:25Z</time>
      </trkpt>
      <trkpt lat="44.16756" lon="5.87189">
        <ele>522</ele>
        <time>2021-09-03T12:13:35Z</time>
      </trkpt>
      <trkpt lat="44.16753" lon="5.87167">
        <ele>522.59997558594</ele>
        <time>2021-09-03T12:13:40Z</time>
      </trkpt>
      <trkpt lat="44.16752" lon="5.87163">
        <ele>522.79998779297</ele>
        <time>2021-09-03T12:13:41Z</time>
      </trkpt>
      <trkpt lat="44.16743" lon="5.8714">
        <ele>523.79998779297</ele>
        <time>2021-09-03T12:13:47Z</time>
      </trkpt>
      <trkpt lat="44.16734" lon="5.87124">
        <ele>524.20001220703</ele>
        <time>2021-09-03T12:13:52Z</time>
      </trkpt>
      <trkpt lat="44.16717" lon="5.8711">
        <ele>524.40002441406</ele>
        <time>2021-09-03T12:13:57Z</time>
      </trkpt>
      <trkpt lat="44.16695" lon="5.87105">
        <ele>524.20001220703</ele>
        <time>2021-09-03T12:14:02Z</time>
      </trkpt>
      <trkpt lat="44.1669" lon="5.87105">
        <ele>524.20001220703</ele>
        <time>2021-09-03T12:14:03Z</time>
      </trkpt>
      <trkpt lat="44.16652" lon="5.87104">
        <ele>524.20001220703</ele>
        <time>2021-09-03T12:14:12Z</time>
      </trkpt>
      <trkpt lat="44.16626" lon="5.87105">
        <ele>524.20001220703</ele>
        <time>2021-09-03T12:14:19Z</time>
      </trkpt>
      <trkpt lat="44.16591" lon="5.87105">
        <ele>524.79998779297</ele>
        <time>2021-09-03T12:14:27Z</time>
      </trkpt>
      <trkpt lat="44.16554" lon="5.87107">
        <ele>524.59997558594</ele>
        <time>2021-09-03T12:14:35Z</time>
      </trkpt>
      <trkpt lat="44.1651" lon="5.87106">
        <ele>524.59997558594</ele>
        <time>2021-09-03T12:14:44Z</time>
      </trkpt>
      <trkpt lat="44.16464" lon="5.87107">
        <ele>524.20001220703</ele>
        <time>2021-09-03T12:14:53Z</time>
      </trkpt>
      <trkpt lat="44.16424" lon="5.87104">
        <ele>524</ele>
        <time>2021-09-03T12:15:01Z</time>
      </trkpt>
      <trkpt lat="44.16411" lon="5.87099">
        <ele>524</ele>
        <time>2021-09-03T12:15:04Z</time>
      </trkpt>
      <trkpt lat="44.16403" lon="5.87093">
        <ele>524</ele>
        <time>2021-09-03T12:15:06Z</time>
      </trkpt>
      <trkpt lat="44.16393" lon="5.87077">
        <ele>524.40002441406</ele>
        <time>2021-09-03T12:15:10Z</time>
      </trkpt>
      <trkpt lat="44.16392" lon="5.87074">
        <ele>524.59997558594</ele>
        <time>2021-09-03T12:15:11Z</time>
      </trkpt>
      <trkpt lat="44.16391" lon="5.87071">
        <ele>524.79998779297</ele>
        <time>2021-09-03T12:15:12Z</time>
      </trkpt>
      <trkpt lat="44.16385" lon="5.87057">
        <ele>525.79998779297</ele>
        <time>2021-09-03T12:15:17Z</time>
      </trkpt>
      <trkpt lat="44.16378" lon="5.87039">
        <ele>527</ele>
        <time>2021-09-03T12:15:23Z</time>
      </trkpt>
      <trkpt lat="44.16376" lon="5.87034">
        <ele>527.20001220703</ele>
        <time>2021-09-03T12:15:25Z</time>
      </trkpt>
      <trkpt lat="44.1637" lon="5.87021">
        <ele>528</ele>
        <time>2021-09-03T12:15:30Z</time>
      </trkpt>
      <trkpt lat="44.16364" lon="5.87011">
        <ele>528.40002441406</ele>
        <time>2021-09-03T12:15:34Z</time>
      </trkpt>
      <trkpt lat="44.1636" lon="5.87">
        <ele>529</ele>
        <time>2021-09-03T12:15:38Z</time>
      </trkpt>
      <trkpt lat="44.16357" lon="5.86994">
        <ele>529.40002441406</ele>
        <time>2021-09-03T12:15:41Z</time>
      </trkpt>
      <trkpt lat="44.16351" lon="5.86986">
        <ele>530</ele>
        <time>2021-09-03T12:15:45Z</time>
      </trkpt>
      <trkpt lat="44.16346" lon="5.8698">
        <ele>530.59997558594</ele>
        <time>2021-09-03T12:15:48Z</time>
      </trkpt>
      <trkpt lat="44.16335" lon="5.86975">
        <ele>531.20001220703</ele>
        <time>2021-09-03T12:15:53Z</time>
      </trkpt>
      <trkpt lat="44.16333" lon="5.86974">
        <ele>531.20001220703</ele>
        <time>2021-09-03T12:15:54Z</time>
      </trkpt>
      <trkpt lat="44.16317" lon="5.86967">
        <ele>532</ele>
        <time>2021-09-03T12:16:01Z</time>
      </trkpt>
      <trkpt lat="44.1631" lon="5.86964">
        <ele>532.20001220703</ele>
        <time>2021-09-03T12:16:04Z</time>
      </trkpt>
      <trkpt lat="44.16301" lon="5.86961">
        <ele>532.40002441406</ele>
        <time>2021-09-03T12:16:07Z</time>
      </trkpt>
      <trkpt lat="44.16278" lon="5.86944">
        <ele>532.59997558594</ele>
        <time>2021-09-03T12:16:15Z</time>
      </trkpt>
      <trkpt lat="44.16253" lon="5.86921">
        <ele>533.20001220703</ele>
        <time>2021-09-03T12:16:24Z</time>
      </trkpt>
      <trkpt lat="44.16231" lon="5.86894">
        <ele>533.59997558594</ele>
        <time>2021-09-03T12:16:32Z</time>
      </trkpt>
      <trkpt lat="44.16208" lon="5.86864">
        <ele>534</ele>
        <time>2021-09-03T12:16:41Z</time>
      </trkpt>
      <trkpt lat="44.16194" lon="5.86852">
        <ele>534.40002441406</ele>
        <time>2021-09-03T12:16:46Z</time>
      </trkpt>
      <trkpt lat="44.16186" lon="5.86848">
        <ele>535</ele>
        <time>2021-09-03T12:16:49Z</time>
      </trkpt>
      <trkpt lat="44.16168" lon="5.8684">
        <ele>535.40002441406</ele>
        <time>2021-09-03T12:16:55Z</time>
      </trkpt>
      <trkpt lat="44.16161" lon="5.86838">
        <ele>535.40002441406</ele>
        <time>2021-09-03T12:16:57Z</time>
      </trkpt>
      <trkpt lat="44.16138" lon="5.86833">
        <ele>535.59997558594</ele>
        <time>2021-09-03T12:17:03Z</time>
      </trkpt>
      <trkpt lat="44.16111" lon="5.86818">
        <ele>535.40002441406</ele>
        <time>2021-09-03T12:17:10Z</time>
      </trkpt>
      <trkpt lat="44.16081" lon="5.86794">
        <ele>535</ele>
        <time>2021-09-03T12:17:17Z</time>
      </trkpt>
      <trkpt lat="44.16059" lon="5.8678">
        <ele>534.40002441406</ele>
        <time>2021-09-03T12:17:21Z</time>
      </trkpt>
      <trkpt lat="44.16048" lon="5.86778">
        <ele>534</ele>
        <time>2021-09-03T12:17:23Z</time>
      </trkpt>
      <trkpt lat="44.16024" lon="5.86783">
        <ele>533.20001220703</ele>
        <time>2021-09-03T12:17:27Z</time>
      </trkpt>
      <trkpt lat="44.16019" lon="5.86786">
        <ele>533.20001220703</ele>
        <time>2021-09-03T12:17:28Z</time>
      </trkpt>
      <trkpt lat="44.15996" lon="5.86801">
        <ele>532.79998779297</ele>
        <time>2021-09-03T12:17:33Z</time>
      </trkpt>
      <trkpt lat="44.15979" lon="5.86815">
        <ele>532.59997558594</ele>
        <time>2021-09-03T12:17:37Z</time>
      </trkpt>
      <trkpt lat="44.15967" lon="5.86824">
        <ele>532.59997558594</ele>
        <time>2021-09-03T12:17:40Z</time>
      </trkpt>
      <trkpt lat="44.1593" lon="5.86853">
        <ele>533.20001220703</ele>
        <time>2021-09-03T12:17:50Z</time>
      </trkpt>
      <trkpt lat="44.15907" lon="5.86866">
        <ele>533.59997558594</ele>
        <time>2021-09-03T12:17:56Z</time>
      </trkpt>
      <trkpt lat="44.1588" lon="5.86876">
        <ele>534.20001220703</ele>
        <time>2021-09-03T12:18:03Z</time>
      </trkpt>
      <trkpt lat="44.15846" lon="5.86889">
        <ele>534.79998779297</ele>
        <time>2021-09-03T12:18:12Z</time>
      </trkpt>
      <trkpt lat="44.15824" lon="5.86901">
        <ele>535</ele>
        <time>2021-09-03T12:18:18Z</time>
      </trkpt>
      <trkpt lat="44.15814" lon="5.86909">
        <ele>535.40002441406</ele>
        <time>2021-09-03T12:18:21Z</time>
      </trkpt>
      <trkpt lat="44.15807" lon="5.86919">
        <ele>535.40002441406</ele>
        <time>2021-09-03T12:18:24Z</time>
      </trkpt>
      <trkpt lat="44.15783" lon="5.86942">
        <ele>536.40002441406</ele>
        <time>2021-09-03T12:18:32Z</time>
      </trkpt>
      <trkpt lat="44.15763" lon="5.86955">
        <ele>537</ele>
        <time>2021-09-03T12:18:39Z</time>
      </trkpt>
      <trkpt lat="44.1575" lon="5.86959">
        <ele>537.40002441406</ele>
        <time>2021-09-03T12:18:43Z</time>
      </trkpt>
      <trkpt lat="44.15737" lon="5.86964">
        <ele>538</ele>
        <time>2021-09-03T12:18:48Z</time>
      </trkpt>
      <trkpt lat="44.15732" lon="5.86968">
        <ele>538.59997558594</ele>
        <time>2021-09-03T12:18:50Z</time>
      </trkpt>
      <trkpt lat="44.15719" lon="5.86977">
        <ele>539.20001220703</ele>
        <time>2021-09-03T12:18:55Z</time>
      </trkpt>
      <trkpt lat="44.15713" lon="5.86985">
        <ele>539.59997558594</ele>
        <time>2021-09-03T12:18:58Z</time>
      </trkpt>
      <trkpt lat="44.15704" lon="5.86996">
        <ele>540.20001220703</ele>
        <time>2021-09-03T12:19:02Z</time>
      </trkpt>
      <trkpt lat="44.15686" lon="5.87012">
        <ele>540.79998779297</ele>
        <time>2021-09-03T12:19:09Z</time>
      </trkpt>
      <trkpt lat="44.15683" lon="5.87014">
        <ele>540.79998779297</ele>
        <time>2021-09-03T12:19:10Z</time>
      </trkpt>
      <trkpt lat="44.1566" lon="5.87035">
        <ele>541.40002441406</ele>
        <time>2021-09-03T12:19:18Z</time>
      </trkpt>
      <trkpt lat="44.15648" lon="5.87053">
        <ele>541.79998779297</ele>
        <time>2021-09-03T12:19:23Z</time>
      </trkpt>
      <trkpt lat="44.1564" lon="5.87064">
        <ele>541.79998779297</ele>
        <time>2021-09-03T12:19:26Z</time>
      </trkpt>
      <trkpt lat="44.15617" lon="5.87108">
        <ele>542.40002441406</ele>
        <time>2021-09-03T12:19:36Z</time>
      </trkpt>
      <trkpt lat="44.15603" lon="5.87136">
        <ele>542.59997558594</ele>
        <time>2021-09-03T12:19:42Z</time>
      </trkpt>
      <trkpt lat="44.15597" lon="5.87145">
        <ele>542.59997558594</ele>
        <time>2021-09-03T12:19:44Z</time>
      </trkpt>
      <trkpt lat="44.15588" lon="5.87157">
        <ele>542.79998779297</ele>
        <time>2021-09-03T12:19:47Z</time>
      </trkpt>
      <trkpt lat="44.15572" lon="5.87177">
        <ele>543</ele>
        <time>2021-09-03T12:19:52Z</time>
      </trkpt>
      <trkpt lat="44.15542" lon="5.87213">
        <ele>543.59997558594</ele>
        <time>2021-09-03T12:20:01Z</time>
      </trkpt>
      <trkpt lat="44.15539" lon="5.87217">
        <ele>543.79998779297</ele>
        <time>2021-09-03T12:20:02Z</time>
      </trkpt>
      <trkpt lat="44.15526" lon="5.87232">
        <ele>544</ele>
        <time>2021-09-03T12:20:06Z</time>
      </trkpt>
      <trkpt lat="44.15515" lon="5.87241">
        <ele>544.20001220703</ele>
        <time>2021-09-03T12:20:09Z</time>
      </trkpt>
      <trkpt lat="44.15484" lon="5.87264">
        <ele>544.79998779297</ele>
        <time>2021-09-03T12:20:17Z</time>
      </trkpt>
      <trkpt lat="44.15469" lon="5.87275">
        <ele>545</ele>
        <time>2021-09-03T12:20:21Z</time>
      </trkpt>
      <trkpt lat="44.15439" lon="5.87295">
        <ele>545.40002441406</ele>
        <time>2021-09-03T12:20:29Z</time>
      </trkpt>
      <trkpt lat="44.15425" lon="5.87305">
        <ele>546</ele>
        <time>2021-09-03T12:20:33Z</time>
      </trkpt>
      <trkpt lat="44.15414" lon="5.87313">
        <ele>546.20001220703</ele>
        <time>2021-09-03T12:20:36Z</time>
      </trkpt>
      <trkpt lat="44.15394" lon="5.87326">
        <ele>547</ele>
        <time>2021-09-03T12:20:42Z</time>
      </trkpt>
      <trkpt lat="44.15391" lon="5.87329">
        <ele>547</ele>
        <time>2021-09-03T12:20:43Z</time>
      </trkpt>
      <trkpt lat="44.15372" lon="5.87344">
        <ele>548</ele>
        <time>2021-09-03T12:20:49Z</time>
      </trkpt>
      <trkpt lat="44.15369" lon="5.87346">
        <ele>548.20001220703</ele>
        <time>2021-09-03T12:20:50Z</time>
      </trkpt>
      <trkpt lat="44.15344" lon="5.87367">
        <ele>548.79998779297</ele>
        <time>2021-09-03T12:20:58Z</time>
      </trkpt>
      <trkpt lat="44.15338" lon="5.87372">
        <ele>549</ele>
        <time>2021-09-03T12:21:00Z</time>
      </trkpt>
      <trkpt lat="44.15319" lon="5.87391">
        <ele>549.40002441406</ele>
        <time>2021-09-03T12:21:06Z</time>
      </trkpt>
      <trkpt lat="44.15298" lon="5.87415">
        <ele>549.79998779297</ele>
        <time>2021-09-03T12:21:13Z</time>
      </trkpt>
      <trkpt lat="44.15279" lon="5.87435">
        <ele>550.20001220703</ele>
        <time>2021-09-03T12:21:19Z</time>
      </trkpt>
      <trkpt lat="44.15267" lon="5.87448">
        <ele>550.40002441406</ele>
        <time>2021-09-03T12:21:23Z</time>
      </trkpt>
      <trkpt lat="44.15247" lon="5.87475">
        <ele>551</ele>
        <time>2021-09-03T12:21:30Z</time>
      </trkpt>
      <trkpt lat="44.1524" lon="5.87487">
        <ele>551.20001220703</ele>
        <time>2021-09-03T12:21:33Z</time>
      </trkpt>
      <trkpt lat="44.15229" lon="5.87513">
        <ele>551.79998779297</ele>
        <time>2021-09-03T12:21:39Z</time>
      </trkpt>
      <trkpt lat="44.15222" lon="5.87536">
        <ele>552.20001220703</ele>
        <time>2021-09-03T12:21:44Z</time>
      </trkpt>
      <trkpt lat="44.15218" lon="5.8755">
        <ele>552.40002441406</ele>
        <time>2021-09-03T12:21:47Z</time>
      </trkpt>
      <trkpt lat="44.15209" lon="5.87583">
        <ele>553</ele>
        <time>2021-09-03T12:21:54Z</time>
      </trkpt>
      <trkpt lat="44.15206" lon="5.87592">
        <ele>553.20001220703</ele>
        <time>2021-09-03T12:21:56Z</time>
      </trkpt>
      <trkpt lat="44.15196" lon="5.87613">
        <ele>553.79998779297</ele>
        <time>2021-09-03T12:22:01Z</time>
      </trkpt>
      <trkpt lat="44.15181" lon="5.87624">
        <ele>554</ele>
        <time>2021-09-03T12:22:06Z</time>
      </trkpt>
      <trkpt lat="44.15166" lon="5.87627">
        <ele>554.20001220703</ele>
        <time>2021-09-03T12:22:10Z</time>
      </trkpt>
      <trkpt lat="44.15155" lon="5.87626">
        <ele>554.40002441406</ele>
        <time>2021-09-03T12:22:13Z</time>
      </trkpt>
      <trkpt lat="44.15138" lon="5.87629">
        <ele>554.40002441406</ele>
        <time>2021-09-03T12:22:18Z</time>
      </trkpt>
      <trkpt lat="44.15137" lon="5.87631">
        <ele>554.59997558594</ele>
        <time>2021-09-03T12:22:19Z</time>
      </trkpt>
      <trkpt lat="44.15136" lon="5.87634">
        <ele>554.59997558594</ele>
        <time>2021-09-03T12:24:16Z</time>
      </trkpt>
      <trkpt lat="44.15125" lon="5.87632">
        <ele>554.59997558594</ele>
        <time>2021-09-03T12:24:21Z</time>
      </trkpt>
      <trkpt lat="44.15099" lon="5.87635">
        <ele>554.59997558594</ele>
        <time>2021-09-03T12:24:28Z</time>
      </trkpt>
      <trkpt lat="44.15072" lon="5.87636">
        <ele>554.79998779297</ele>
        <time>2021-09-03T12:24:35Z</time>
      </trkpt>
      <trkpt lat="44.15049" lon="5.8764">
        <ele>555.20001220703</ele>
        <time>2021-09-03T12:24:42Z</time>
      </trkpt>
      <trkpt lat="44.15042" lon="5.87642">
        <ele>555.40002441406</ele>
        <time>2021-09-03T12:24:44Z</time>
      </trkpt>
      <trkpt lat="44.15022" lon="5.87649">
        <ele>556</ele>
        <time>2021-09-03T12:24:50Z</time>
      </trkpt>
      <trkpt lat="44.15011" lon="5.87659">
        <ele>556.40002441406</ele>
        <time>2021-09-03T12:24:54Z</time>
      </trkpt>
      <trkpt lat="44.15003" lon="5.87667">
        <ele>556.59997558594</ele>
        <time>2021-09-03T12:24:57Z</time>
      </trkpt>
      <trkpt lat="44.1499" lon="5.87681">
        <ele>557.59997558594</ele>
        <time>2021-09-03T12:25:03Z</time>
      </trkpt>
      <trkpt lat="44.14986" lon="5.87685">
        <ele>557.79998779297</ele>
        <time>2021-09-03T12:25:05Z</time>
      </trkpt>
      <trkpt lat="44.14977" lon="5.87697">
        <ele>558.59997558594</ele>
        <time>2021-09-03T12:25:10Z</time>
      </trkpt>
      <trkpt lat="44.14973" lon="5.87704">
        <ele>559</ele>
        <time>2021-09-03T12:25:13Z</time>
      </trkpt>
      <trkpt lat="44.14969" lon="5.87711">
        <ele>559.40002441406</ele>
        <time>2021-09-03T12:25:16Z</time>
      </trkpt>
      <trkpt lat="44.14965" lon="5.87714">
        <ele>559.59997558594</ele>
        <time>2021-09-03T12:25:18Z</time>
      </trkpt>
      <trkpt lat="44.14963" lon="5.87723">
        <ele>559.79998779297</ele>
        <time>2021-09-03T12:25:21Z</time>
      </trkpt>
      <trkpt lat="44.14955" lon="5.8773">
        <ele>560.20001220703</ele>
        <time>2021-09-03T12:25:25Z</time>
      </trkpt>
      <trkpt lat="44.1495" lon="5.8774">
        <ele>560.40002441406</ele>
        <time>2021-09-03T12:25:29Z</time>
      </trkpt>
      <trkpt lat="44.14942" lon="5.87751">
        <ele>560.79998779297</ele>
        <time>2021-09-03T12:25:33Z</time>
      </trkpt>
      <trkpt lat="44.14935" lon="5.87762">
        <ele>561.20001220703</ele>
        <time>2021-09-03T12:25:37Z</time>
      </trkpt>
      <trkpt lat="44.14927" lon="5.87776">
        <ele>561.79998779297</ele>
        <time>2021-09-03T12:25:42Z</time>
      </trkpt>
      <trkpt lat="44.14923" lon="5.87782">
        <ele>562</ele>
        <time>2021-09-03T12:25:44Z</time>
      </trkpt>
      <trkpt lat="44.14909" lon="5.87804">
        <ele>562.79998779297</ele>
        <time>2021-09-03T12:25:52Z</time>
      </trkpt>
      <trkpt lat="44.14897" lon="5.87822">
        <ele>563.59997558594</ele>
        <time>2021-09-03T12:25:59Z</time>
      </trkpt>
      <trkpt lat="44.14892" lon="5.8783">
        <ele>564</ele>
        <time>2021-09-03T12:26:02Z</time>
      </trkpt>
      <trkpt lat="44.14883" lon="5.87847">
        <ele>564.79998779297</ele>
        <time>2021-09-03T12:26:08Z</time>
      </trkpt>
      <trkpt lat="44.14876" lon="5.87858">
        <ele>565.20001220703</ele>
        <time>2021-09-03T12:26:12Z</time>
      </trkpt>
      <trkpt lat="44.14871" lon="5.87866">
        <ele>565.59997558594</ele>
        <time>2021-09-03T12:26:15Z</time>
      </trkpt>
      <trkpt lat="44.14866" lon="5.8788">
        <ele>566.20001220703</ele>
        <time>2021-09-03T12:26:20Z</time>
      </trkpt>
      <trkpt lat="44.14864" lon="5.87886">
        <ele>566.40002441406</ele>
        <time>2021-09-03T12:26:22Z</time>
      </trkpt>
      <trkpt lat="44.14857" lon="5.87898">
        <ele>567.20001220703</ele>
        <time>2021-09-03T12:26:27Z</time>
      </trkpt>
      <trkpt lat="44.14856" lon="5.87901">
        <ele>567.40002441406</ele>
        <time>2021-09-03T12:26:28Z</time>
      </trkpt>
      <trkpt lat="44.14847" lon="5.87918">
        <ele>568.40002441406</ele>
        <time>2021-09-03T12:26:35Z</time>
      </trkpt>
      <trkpt lat="44.14843" lon="5.87924">
        <ele>568.79998779297</ele>
        <time>2021-09-03T12:26:38Z</time>
      </trkpt>
      <trkpt lat="44.14837" lon="5.87937">
        <ele>569.40002441406</ele>
        <time>2021-09-03T12:26:43Z</time>
      </trkpt>
      <trkpt lat="44.14832" lon="5.87947">
        <ele>570</ele>
        <time>2021-09-03T12:26:47Z</time>
      </trkpt>
      <trkpt lat="44.14828" lon="5.87955">
        <ele>570.59997558594</ele>
        <time>2021-09-03T12:26:50Z</time>
      </trkpt>
      <trkpt lat="44.14827" lon="5.87958">
        <ele>570.59997558594</ele>
        <time>2021-09-03T12:26:51Z</time>
      </trkpt>
      <trkpt lat="44.14815" lon="5.87983">
        <ele>571.59997558594</ele>
        <time>2021-09-03T12:27:00Z</time>
      </trkpt>
      <trkpt lat="44.14813" lon="5.87986">
        <ele>571.59997558594</ele>
        <time>2021-09-03T12:27:01Z</time>
      </trkpt>
      <trkpt lat="44.14802" lon="5.88012">
        <ele>572</ele>
        <time>2021-09-03T12:27:09Z</time>
      </trkpt>
      <trkpt lat="44.14793" lon="5.88035">
        <ele>572.59997558594</ele>
        <time>2021-09-03T12:27:16Z</time>
      </trkpt>
      <trkpt lat="44.14791" lon="5.88042">
        <ele>572.79998779297</ele>
        <time>2021-09-03T12:27:18Z</time>
      </trkpt>
      <trkpt lat="44.14793" lon="5.88057">
        <ele>573.20001220703</ele>
        <time>2021-09-03T12:27:22Z</time>
      </trkpt>
      <trkpt lat="44.14803" lon="5.8808">
        <ele>573.59997558594</ele>
        <time>2021-09-03T12:27:28Z</time>
      </trkpt>
      <trkpt lat="44.14817" lon="5.88105">
        <ele>573.40002441406</ele>
        <time>2021-09-03T12:27:34Z</time>
      </trkpt>
      <trkpt lat="44.14832" lon="5.88134">
        <ele>573.40002441406</ele>
        <time>2021-09-03T12:27:41Z</time>
      </trkpt>
      <trkpt lat="44.14835" lon="5.88142">
        <ele>573.59997558594</ele>
        <time>2021-09-03T12:27:43Z</time>
      </trkpt>
      <trkpt lat="44.14844" lon="5.88178">
        <ele>574.20001220703</ele>
        <time>2021-09-03T12:27:51Z</time>
      </trkpt>
      <trkpt lat="44.14851" lon="5.88203">
        <ele>574.59997558594</ele>
        <time>2021-09-03T12:27:57Z</time>
      </trkpt>
      <trkpt lat="44.14857" lon="5.88241">
        <ele>575.40002441406</ele>
        <time>2021-09-03T12:28:05Z</time>
      </trkpt>
      <trkpt lat="44.14854" lon="5.88269">
        <ele>575.59997558594</ele>
        <time>2021-09-03T12:28:11Z</time>
      </trkpt>
      <trkpt lat="44.14853" lon="5.88273">
        <ele>575.79998779297</ele>
        <time>2021-09-03T12:28:12Z</time>
      </trkpt>
      <trkpt lat="44.14843" lon="5.88303">
        <ele>576.59997558594</ele>
        <time>2021-09-03T12:28:19Z</time>
      </trkpt>
      <trkpt lat="44.1484" lon="5.88315">
        <ele>576.79998779297</ele>
        <time>2021-09-03T12:28:22Z</time>
      </trkpt>
      <trkpt lat="44.14835" lon="5.88336">
        <ele>577.40002441406</ele>
        <time>2021-09-03T12:28:27Z</time>
      </trkpt>
      <trkpt lat="44.14834" lon="5.88348">
        <ele>577.79998779297</ele>
        <time>2021-09-03T12:28:30Z</time>
      </trkpt>
      <trkpt lat="44.14831" lon="5.88364">
        <ele>578.20001220703</ele>
        <time>2021-09-03T12:28:34Z</time>
      </trkpt>
      <trkpt lat="44.14827" lon="5.88396">
        <ele>578.79998779297</ele>
        <time>2021-09-03T12:28:42Z</time>
      </trkpt>
      <trkpt lat="44.14821" lon="5.88424">
        <ele>579.59997558594</ele>
        <time>2021-09-03T12:28:49Z</time>
      </trkpt>
      <trkpt lat="44.1482" lon="5.88433">
        <ele>579.79998779297</ele>
        <time>2021-09-03T12:28:51Z</time>
      </trkpt>
      <trkpt lat="44.14818" lon="5.88457">
        <ele>580.40002441406</ele>
        <time>2021-09-03T12:28:57Z</time>
      </trkpt>
      <trkpt lat="44.14821" lon="5.88487">
        <ele>580.79998779297</ele>
        <time>2021-09-03T12:29:04Z</time>
      </trkpt>
      <trkpt lat="44.14825" lon="5.88504">
        <ele>581</ele>
        <time>2021-09-03T12:29:08Z</time>
      </trkpt>
      <trkpt lat="44.14826" lon="5.88521">
        <ele>581.20001220703</ele>
        <time>2021-09-03T12:29:12Z</time>
      </trkpt>
      <trkpt lat="44.14819" lon="5.88538">
        <ele>581.79998779297</ele>
        <time>2021-09-03T12:29:17Z</time>
      </trkpt>
      <trkpt lat="44.14815" lon="5.88543">
        <ele>582</ele>
        <time>2021-09-03T12:29:19Z</time>
      </trkpt>
      <trkpt lat="44.14805" lon="5.88556">
        <ele>582.59997558594</ele>
        <time>2021-09-03T12:29:24Z</time>
      </trkpt>
      <trkpt lat="44.14798" lon="5.88562">
        <ele>583.20001220703</ele>
        <time>2021-09-03T12:29:27Z</time>
      </trkpt>
      <trkpt lat="44.14785" lon="5.88577">
        <ele>583.79998779297</ele>
        <time>2021-09-03T12:29:33Z</time>
      </trkpt>
      <trkpt lat="44.14775" lon="5.88589">
        <ele>584.40002441406</ele>
        <time>2021-09-03T12:29:38Z</time>
      </trkpt>
      <trkpt lat="44.14769" lon="5.88597">
        <ele>584.79998779297</ele>
        <time>2021-09-03T12:29:41Z</time>
      </trkpt>
      <trkpt lat="44.14756" lon="5.88615">
        <ele>585.40002441406</ele>
        <time>2021-09-03T12:29:48Z</time>
      </trkpt>
      <trkpt lat="44.14753" lon="5.88617">
        <ele>585.59997558594</ele>
        <time>2021-09-03T12:29:49Z</time>
      </trkpt>
      <trkpt lat="44.14736" lon="5.88634">
        <ele>586.40002441406</ele>
        <time>2021-09-03T12:29:57Z</time>
      </trkpt>
      <trkpt lat="44.14733" lon="5.88636">
        <ele>586.40002441406</ele>
        <time>2021-09-03T12:29:58Z</time>
      </trkpt>
      <trkpt lat="44.14717" lon="5.88648">
        <ele>587.40002441406</ele>
        <time>2021-09-03T12:30:05Z</time>
      </trkpt>
      <trkpt lat="44.14715" lon="5.88649">
        <ele>587.59997558594</ele>
        <time>2021-09-03T12:30:06Z</time>
      </trkpt>
      <trkpt lat="44.14702" lon="5.8866">
        <ele>588.20001220703</ele>
        <time>2021-09-03T12:30:12Z</time>
      </trkpt>
      <trkpt lat="44.14696" lon="5.88666">
        <ele>588.59997558594</ele>
        <time>2021-09-03T12:30:15Z</time>
      </trkpt>
      <trkpt lat="44.14685" lon="5.88674">
        <ele>589.20001220703</ele>
        <time>2021-09-03T12:30:20Z</time>
      </trkpt>
      <trkpt lat="44.1468" lon="5.8868">
        <ele>589.59997558594</ele>
        <time>2021-09-03T12:30:23Z</time>
      </trkpt>
      <trkpt lat="44.14677" lon="5.88685">
        <ele>589.79998779297</ele>
        <time>2021-09-03T12:30:25Z</time>
      </trkpt>
      <trkpt lat="44.14665" lon="5.88697">
        <ele>590.59997558594</ele>
        <time>2021-09-03T12:30:31Z</time>
      </trkpt>
      <trkpt lat="44.14661" lon="5.88701">
        <ele>590.79998779297</ele>
        <time>2021-09-03T12:30:33Z</time>
      </trkpt>
      <trkpt lat="44.14646" lon="5.88716">
        <ele>591.59997558594</ele>
        <time>2021-09-03T12:30:40Z</time>
      </trkpt>
      <trkpt lat="44.14645" lon="5.88718">
        <ele>591.79998779297</ele>
        <time>2021-09-03T12:30:41Z</time>
      </trkpt>
      <trkpt lat="44.14635" lon="5.88733">
        <ele>592.20001220703</ele>
        <time>2021-09-03T12:30:47Z</time>
      </trkpt>
      <trkpt lat="44.14629" lon="5.88751">
        <ele>592.79998779297</ele>
        <time>2021-09-03T12:30:52Z</time>
      </trkpt>
      <trkpt lat="44.14627" lon="5.88762">
        <ele>593</ele>
        <time>2021-09-03T12:30:55Z</time>
      </trkpt>
      <trkpt lat="44.14626" lon="5.8879">
        <ele>593.59997558594</ele>
        <time>2021-09-03T12:31:02Z</time>
      </trkpt>
      <trkpt lat="44.14632" lon="5.88814">
        <ele>593.59997558594</ele>
        <time>2021-09-03T12:31:07Z</time>
      </trkpt>
      <trkpt lat="44.14641" lon="5.88846">
        <ele>593</ele>
        <time>2021-09-03T12:31:12Z</time>
      </trkpt>
      <trkpt lat="44.14642" lon="5.88853">
        <ele>593</ele>
        <time>2021-09-03T12:31:13Z</time>
      </trkpt>
      <trkpt lat="44.14644" lon="5.88877">
        <ele>592.20001220703</ele>
        <time>2021-09-03T12:31:16Z</time>
      </trkpt>
      <trkpt lat="44.14643" lon="5.88894">
        <ele>591.79998779297</ele>
        <time>2021-09-03T12:31:18Z</time>
      </trkpt>
      <trkpt lat="44.14639" lon="5.88914">
        <ele>591</ele>
        <time>2021-09-03T12:31:20Z</time>
      </trkpt>
      <trkpt lat="44.14634" lon="5.88932">
        <ele>590.40002441406</ele>
        <time>2021-09-03T12:31:22Z</time>
      </trkpt>
      <trkpt lat="44.14631" lon="5.88941">
        <ele>590.20001220703</ele>
        <time>2021-09-03T12:31:23Z</time>
      </trkpt>
      <trkpt lat="44.14624" lon="5.88965">
        <ele>589.20001220703</ele>
        <time>2021-09-03T12:31:26Z</time>
      </trkpt>
      <trkpt lat="44.14618" lon="5.88976">
        <ele>589</ele>
        <time>2021-09-03T12:31:28Z</time>
      </trkpt>
      <trkpt lat="44.14606" lon="5.88992">
        <ele>589.20001220703</ele>
        <time>2021-09-03T12:31:33Z</time>
      </trkpt>
      <trkpt lat="44.14597" lon="5.88998">
        <ele>590.40002441406</ele>
        <time>2021-09-03T12:31:38Z</time>
      </trkpt>
      <trkpt lat="44.14593" lon="5.89">
        <ele>590.79998779297</ele>
        <time>2021-09-03T12:31:40Z</time>
      </trkpt>
      <trkpt lat="44.14589" lon="5.89004">
        <ele>591.40002441406</ele>
        <time>2021-09-03T12:31:43Z</time>
      </trkpt>
      <trkpt lat="44.14585" lon="5.89006">
        <ele>591.59997558594</ele>
        <time>2021-09-03T12:31:45Z</time>
      </trkpt>
      <trkpt lat="44.14584" lon="5.89006">
        <ele>591.79998779297</ele>
        <time>2021-09-03T12:31:46Z</time>
      </trkpt>
      <trkpt lat="44.14578" lon="5.89008">
        <ele>592.40002441406</ele>
        <time>2021-09-03T12:31:49Z</time>
      </trkpt>
      <trkpt lat="44.1457" lon="5.89011">
        <ele>593.20001220703</ele>
        <time>2021-09-03T12:31:54Z</time>
      </trkpt>
      <trkpt lat="44.14566" lon="5.89013">
        <ele>593.59997558594</ele>
        <time>2021-09-03T12:31:56Z</time>
      </trkpt>
      <trkpt lat="44.14557" lon="5.89018">
        <ele>594.59997558594</ele>
        <time>2021-09-03T12:32:02Z</time>
      </trkpt>
      <trkpt lat="44.14555" lon="5.89018">
        <ele>594.59997558594</ele>
        <time>2021-09-03T12:32:03Z</time>
      </trkpt>
      <trkpt lat="44.14545" lon="5.89026">
        <ele>595.79998779297</ele>
        <time>2021-09-03T12:32:10Z</time>
      </trkpt>
      <trkpt lat="44.14535" lon="5.89033">
        <ele>596.79998779297</ele>
        <time>2021-09-03T12:32:17Z</time>
      </trkpt>
      <trkpt lat="44.14534" lon="5.89035">
        <ele>597</ele>
        <time>2021-09-03T12:32:18Z</time>
      </trkpt>
      <trkpt lat="44.14524" lon="5.89042">
        <ele>597.79998779297</ele>
        <time>2021-09-03T12:32:25Z</time>
      </trkpt>
      <trkpt lat="44.14522" lon="5.89044">
        <ele>598.20001220703</ele>
        <time>2021-09-03T12:32:26Z</time>
      </trkpt>
      <trkpt lat="44.14515" lon="5.89054">
        <ele>599</ele>
        <time>2021-09-03T12:32:32Z</time>
      </trkpt>
      <trkpt lat="44.14513" lon="5.89058">
        <ele>599.20001220703</ele>
        <time>2021-09-03T12:32:34Z</time>
      </trkpt>
      <trkpt lat="44.14508" lon="5.89071">
        <ele>600</ele>
        <time>2021-09-03T12:32:40Z</time>
      </trkpt>
      <trkpt lat="44.14507" lon="5.89074">
        <ele>600.20001220703</ele>
        <time>2021-09-03T12:32:41Z</time>
      </trkpt>
      <trkpt lat="44.14503" lon="5.89088">
        <ele>601</ele>
        <time>2021-09-03T12:32:47Z</time>
      </trkpt>
      <trkpt lat="44.14503" lon="5.89091">
        <ele>601</ele>
        <time>2021-09-03T12:32:48Z</time>
      </trkpt>
      <trkpt lat="44.14501" lon="5.8911">
        <ele>602.20001220703</ele>
        <time>2021-09-03T12:32:55Z</time>
      </trkpt>
      <trkpt lat="44.14496" lon="5.89134">
        <ele>603.20001220703</ele>
        <time>2021-09-03T12:33:04Z</time>
      </trkpt>
      <trkpt lat="44.14488" lon="5.89156">
        <ele>604</ele>
        <time>2021-09-03T12:33:13Z</time>
      </trkpt>
      <trkpt lat="44.14487" lon="5.89158">
        <ele>604.20001220703</ele>
        <time>2021-09-03T12:33:14Z</time>
      </trkpt>
      <trkpt lat="44.14486" lon="5.89161">
        <ele>604.59997558594</ele>
        <time>2021-09-03T12:34:22Z</time>
      </trkpt>
      <trkpt lat="44.14486" lon="5.89164">
        <ele>604.59997558594</ele>
        <time>2021-09-03T12:34:23Z</time>
      </trkpt>
      <trkpt lat="44.14481" lon="5.8918">
        <ele>604.79998779297</ele>
        <time>2021-09-03T12:34:29Z</time>
      </trkpt>
      <trkpt lat="44.1448" lon="5.89183">
        <ele>605</ele>
        <time>2021-09-03T12:34:30Z</time>
      </trkpt>
      <trkpt lat="44.14475" lon="5.8919">
        <ele>605.20001220703</ele>
        <time>2021-09-03T12:34:33Z</time>
      </trkpt>
      <trkpt lat="44.14471" lon="5.89199">
        <ele>605.59997558594</ele>
        <time>2021-09-03T12:34:36Z</time>
      </trkpt>
      <trkpt lat="44.14461" lon="5.8922">
        <ele>606.20001220703</ele>
        <time>2021-09-03T12:34:43Z</time>
      </trkpt>
      <trkpt lat="44.14453" lon="5.89239">
        <ele>606.79998779297</ele>
        <time>2021-09-03T12:34:49Z</time>
      </trkpt>
      <trkpt lat="44.14446" lon="5.89251">
        <ele>607.40002441406</ele>
        <time>2021-09-03T12:34:53Z</time>
      </trkpt>
      <trkpt lat="44.14443" lon="5.89256">
        <ele>607.59997558594</ele>
        <time>2021-09-03T12:34:55Z</time>
      </trkpt>
      <trkpt lat="44.14429" lon="5.89283">
        <ele>608.40002441406</ele>
        <time>2021-09-03T12:35:04Z</time>
      </trkpt>
      <trkpt lat="44.1442" lon="5.89297">
        <ele>609</ele>
        <time>2021-09-03T12:35:09Z</time>
      </trkpt>
      <trkpt lat="44.14413" lon="5.89311">
        <ele>609.79998779297</ele>
        <time>2021-09-03T12:35:14Z</time>
      </trkpt>
      <trkpt lat="44.14409" lon="5.8932">
        <ele>610.20001220703</ele>
        <time>2021-09-03T12:35:17Z</time>
      </trkpt>
      <trkpt lat="44.14402" lon="5.89338">
        <ele>610.79998779297</ele>
        <time>2021-09-03T12:35:23Z</time>
      </trkpt>
      <trkpt lat="44.144" lon="5.89341">
        <ele>610.79998779297</ele>
        <time>2021-09-03T12:35:24Z</time>
      </trkpt>
      <trkpt lat="44.14393" lon="5.89359">
        <ele>611.59997558594</ele>
        <time>2021-09-03T12:35:30Z</time>
      </trkpt>
      <trkpt lat="44.14386" lon="5.8937">
        <ele>612</ele>
        <time>2021-09-03T12:35:34Z</time>
      </trkpt>
      <trkpt lat="44.14381" lon="5.89377">
        <ele>612.20001220703</ele>
        <time>2021-09-03T12:35:37Z</time>
      </trkpt>
      <trkpt lat="44.14364" lon="5.89396">
        <ele>613</ele>
        <time>2021-09-03T12:35:45Z</time>
      </trkpt>
      <trkpt lat="44.14345" lon="5.89424">
        <ele>613.59997558594</ele>
        <time>2021-09-03T12:35:55Z</time>
      </trkpt>
      <trkpt lat="44.1434" lon="5.89433">
        <ele>614</ele>
        <time>2021-09-03T12:35:58Z</time>
      </trkpt>
      <trkpt lat="44.14332" lon="5.89445">
        <ele>614.20001220703</ele>
        <time>2021-09-03T12:36:02Z</time>
      </trkpt>
      <trkpt lat="44.14318" lon="5.89466">
        <ele>614.40002441406</ele>
        <time>2021-09-03T12:36:09Z</time>
      </trkpt>
      <trkpt lat="44.14305" lon="5.89487">
        <ele>614.79998779297</ele>
        <time>2021-09-03T12:36:16Z</time>
      </trkpt>
      <trkpt lat="44.143" lon="5.89496">
        <ele>615.20001220703</ele>
        <time>2021-09-03T12:36:19Z</time>
      </trkpt>
      <trkpt lat="44.14291" lon="5.8951">
        <ele>615.40002441406</ele>
        <time>2021-09-03T12:36:24Z</time>
      </trkpt>
      <trkpt lat="44.14283" lon="5.89523">
        <ele>616.20001220703</ele>
        <time>2021-09-03T12:36:29Z</time>
      </trkpt>
      <trkpt lat="44.14277" lon="5.89531">
        <ele>616.59997558594</ele>
        <time>2021-09-03T12:36:32Z</time>
      </trkpt>
      <trkpt lat="44.14266" lon="5.89543">
        <ele>617.20001220703</ele>
        <time>2021-09-03T12:36:38Z</time>
      </trkpt>
      <trkpt lat="44.1425" lon="5.89556">
        <ele>618.20001220703</ele>
        <time>2021-09-03T12:36:46Z</time>
      </trkpt>
      <trkpt lat="44.14248" lon="5.89557">
        <ele>618.20001220703</ele>
        <time>2021-09-03T12:36:47Z</time>
      </trkpt>
      <trkpt lat="44.14232" lon="5.89567">
        <ele>619.20001220703</ele>
        <time>2021-09-03T12:36:55Z</time>
      </trkpt>
      <trkpt lat="44.14221" lon="5.8958">
        <ele>619.79998779297</ele>
        <time>2021-09-03T12:37:02Z</time>
      </trkpt>
      <trkpt lat="44.14216" lon="5.89585">
        <ele>620.59997558594</ele>
        <time>2021-09-03T12:37:38Z</time>
      </trkpt>
      <trkpt lat="44.14209" lon="5.89595">
        <ele>620.79998779297</ele>
        <time>2021-09-03T12:37:44Z</time>
      </trkpt>
      <trkpt lat="44.14198" lon="5.8961">
        <ele>621.79998779297</ele>
        <time>2021-09-03T12:37:51Z</time>
      </trkpt>
      <trkpt lat="44.14187" lon="5.89627">
        <ele>622.59997558594</ele>
        <time>2021-09-03T12:37:59Z</time>
      </trkpt>
      <trkpt lat="44.14186" lon="5.89629">
        <ele>622.79998779297</ele>
        <time>2021-09-03T12:38:00Z</time>
      </trkpt>
      <trkpt lat="44.14177" lon="5.89644">
        <ele>623.79998779297</ele>
        <time>2021-09-03T12:38:07Z</time>
      </trkpt>
      <trkpt lat="44.14165" lon="5.89658">
        <ele>624.79998779297</ele>
        <time>2021-09-03T12:38:15Z</time>
      </trkpt>
      <trkpt lat="44.14164" lon="5.8966">
        <ele>625</ele>
        <time>2021-09-03T12:38:16Z</time>
      </trkpt>
      <trkpt lat="44.14157" lon="5.8967">
        <ele>625.59997558594</ele>
        <time>2021-09-03T12:38:21Z</time>
      </trkpt>
      <trkpt lat="44.1415" lon="5.8968">
        <ele>626</ele>
        <time>2021-09-03T12:38:26Z</time>
      </trkpt>
      <trkpt lat="44.14144" lon="5.89688">
        <ele>626.79998779297</ele>
        <time>2021-09-03T12:38:30Z</time>
      </trkpt>
      <trkpt lat="44.14139" lon="5.89694">
        <ele>627.20001220703</ele>
        <time>2021-09-03T12:38:33Z</time>
      </trkpt>
      <trkpt lat="44.14127" lon="5.89707">
        <ele>627.79998779297</ele>
        <time>2021-09-03T12:38:40Z</time>
      </trkpt>
      <trkpt lat="44.14121" lon="5.89712">
        <ele>628.20001220703</ele>
        <time>2021-09-03T12:38:43Z</time>
      </trkpt>
      <trkpt lat="44.14113" lon="5.8972">
        <ele>628.79998779297</ele>
        <time>2021-09-03T12:38:48Z</time>
      </trkpt>
      <trkpt lat="44.14108" lon="5.89726">
        <ele>629.40002441406</ele>
        <time>2021-09-03T12:38:51Z</time>
      </trkpt>
      <trkpt lat="44.14101" lon="5.89735">
        <ele>630</ele>
        <time>2021-09-03T12:38:56Z</time>
      </trkpt>
      <trkpt lat="44.14096" lon="5.8974">
        <ele>630.40002441406</ele>
        <time>2021-09-03T12:38:59Z</time>
      </trkpt>
      <trkpt lat="44.1409" lon="5.89748">
        <ele>631</ele>
        <time>2021-09-03T12:39:03Z</time>
      </trkpt>
      <trkpt lat="44.14085" lon="5.89756">
        <ele>631.40002441406</ele>
        <time>2021-09-03T12:39:07Z</time>
      </trkpt>
      <trkpt lat="44.14082" lon="5.8976">
        <ele>631.79998779297</ele>
        <time>2021-09-03T12:39:09Z</time>
      </trkpt>
      <trkpt lat="44.14074" lon="5.89771">
        <ele>632.59997558594</ele>
        <time>2021-09-03T12:39:15Z</time>
      </trkpt>
      <trkpt lat="44.14067" lon="5.89783">
        <ele>633.40002441406</ele>
        <time>2021-09-03T12:39:21Z</time>
      </trkpt>
      <trkpt lat="44.14064" lon="5.89787">
        <ele>633.79998779297</ele>
        <time>2021-09-03T12:39:23Z</time>
      </trkpt>
      <trkpt lat="44.14056" lon="5.89799">
        <ele>634.40002441406</ele>
        <time>2021-09-03T12:39:29Z</time>
      </trkpt>
      <trkpt lat="44.14053" lon="5.89806">
        <ele>634.79998779297</ele>
        <time>2021-09-03T12:39:32Z</time>
      </trkpt>
      <trkpt lat="44.14049" lon="5.89816">
        <ele>635.40002441406</ele>
        <time>2021-09-03T12:39:36Z</time>
      </trkpt>
      <trkpt lat="44.14045" lon="5.89821">
        <ele>636</ele>
        <time>2021-09-03T12:39:39Z</time>
      </trkpt>
      <trkpt lat="44.14041" lon="5.89827">
        <ele>636.40002441406</ele>
        <time>2021-09-03T12:39:42Z</time>
      </trkpt>
      <trkpt lat="44.14035" lon="5.89839">
        <ele>637.20001220703</ele>
        <time>2021-09-03T12:39:47Z</time>
      </trkpt>
      <trkpt lat="44.14031" lon="5.89845">
        <ele>637.59997558594</ele>
        <time>2021-09-03T12:39:50Z</time>
      </trkpt>
      <trkpt lat="44.14026" lon="5.89853">
        <ele>638.20001220703</ele>
        <time>2021-09-03T12:39:54Z</time>
      </trkpt>
      <trkpt lat="44.14021" lon="5.89861">
        <ele>639</ele>
        <time>2021-09-03T12:39:58Z</time>
      </trkpt>
      <trkpt lat="44.14016" lon="5.89868">
        <ele>639.40002441406</ele>
        <time>2021-09-03T12:40:02Z</time>
      </trkpt>
      <trkpt lat="44.14012" lon="5.89875">
        <ele>640</ele>
        <time>2021-09-03T12:40:05Z</time>
      </trkpt>
      <trkpt lat="44.14008" lon="5.89881">
        <ele>640.40002441406</ele>
        <time>2021-09-03T12:40:08Z</time>
      </trkpt>
      <trkpt lat="44.14001" lon="5.89888">
        <ele>641</ele>
        <time>2021-09-03T12:40:12Z</time>
      </trkpt>
      <trkpt lat="44.13997" lon="5.89893">
        <ele>641.59997558594</ele>
        <time>2021-09-03T12:40:15Z</time>
      </trkpt>
      <trkpt lat="44.13989" lon="5.89901">
        <ele>642.20001220703</ele>
        <time>2021-09-03T12:40:20Z</time>
      </trkpt>
      <trkpt lat="44.13986" lon="5.89905">
        <ele>642.59997558594</ele>
        <time>2021-09-03T12:40:22Z</time>
      </trkpt>
      <trkpt lat="44.13975" lon="5.89916">
        <ele>643.59997558594</ele>
        <time>2021-09-03T12:40:29Z</time>
      </trkpt>
      <trkpt lat="44.13974" lon="5.89918">
        <ele>643.79998779297</ele>
        <time>2021-09-03T12:40:30Z</time>
      </trkpt>
      <trkpt lat="44.13967" lon="5.89924">
        <ele>644.40002441406</ele>
        <time>2021-09-03T12:40:35Z</time>
      </trkpt>
      <trkpt lat="44.13964" lon="5.8993">
        <ele>645.40002441406</ele>
        <time>2021-09-03T12:48:26Z</time>
      </trkpt>
      <trkpt lat="44.13961" lon="5.89936">
        <ele>645.59997558594</ele>
        <time>2021-09-03T12:48:29Z</time>
      </trkpt>
      <trkpt lat="44.13953" lon="5.89955">
        <ele>646.40002441406</ele>
        <time>2021-09-03T12:48:37Z</time>
      </trkpt>
      <trkpt lat="44.13949" lon="5.89967">
        <ele>647.20001220703</ele>
        <time>2021-09-03T12:48:42Z</time>
      </trkpt>
      <trkpt lat="44.13947" lon="5.89972">
        <ele>647.59997558594</ele>
        <time>2021-09-03T12:48:44Z</time>
      </trkpt>
      <trkpt lat="44.13944" lon="5.89981">
        <ele>648</ele>
        <time>2021-09-03T12:48:48Z</time>
      </trkpt>
      <trkpt lat="44.13938" lon="5.89987">
        <ele>648.79998779297</ele>
        <time>2021-09-03T12:48:52Z</time>
      </trkpt>
      <trkpt lat="44.13937" lon="5.89988">
        <ele>648.79998779297</ele>
        <time>2021-09-03T12:48:53Z</time>
      </trkpt>
      <trkpt lat="44.13929" lon="5.89996">
        <ele>649.59997558594</ele>
        <time>2021-09-03T12:48:59Z</time>
      </trkpt>
      <trkpt lat="44.13927" lon="5.89997">
        <ele>649.79998779297</ele>
        <time>2021-09-03T12:49:00Z</time>
      </trkpt>
      <trkpt lat="44.13922" lon="5.90002">
        <ele>650.40002441406</ele>
        <time>2021-09-03T12:49:04Z</time>
      </trkpt>
      <trkpt lat="44.13915" lon="5.90007">
        <ele>650.79998779297</ele>
        <time>2021-09-03T12:49:08Z</time>
      </trkpt>
      <trkpt lat="44.1391" lon="5.90012">
        <ele>651.40002441406</ele>
        <time>2021-09-03T12:49:12Z</time>
      </trkpt>
      <trkpt lat="44.13905" lon="5.90017">
        <ele>652</ele>
        <time>2021-09-03T12:49:16Z</time>
      </trkpt>
      <trkpt lat="44.139" lon="5.90021">
        <ele>652.40002441406</ele>
        <time>2021-09-03T12:49:19Z</time>
      </trkpt>
      <trkpt lat="44.13894" lon="5.90028">
        <ele>653.20001220703</ele>
        <time>2021-09-03T12:49:24Z</time>
      </trkpt>
      <trkpt lat="44.13892" lon="5.90032">
        <ele>653.40002441406</ele>
        <time>2021-09-03T12:49:26Z</time>
      </trkpt>
      <trkpt lat="44.13887" lon="5.90043">
        <ele>654.40002441406</ele>
        <time>2021-09-03T12:49:32Z</time>
      </trkpt>
      <trkpt lat="44.13885" lon="5.90049">
        <ele>654.59997558594</ele>
        <time>2021-09-03T12:49:35Z</time>
      </trkpt>
      <trkpt lat="44.13879" lon="5.90057">
        <ele>655.40002441406</ele>
        <time>2021-09-03T12:49:40Z</time>
      </trkpt>
      <trkpt lat="44.13878" lon="5.90061">
        <ele>655.59997558594</ele>
        <time>2021-09-03T12:49:42Z</time>
      </trkpt>
      <trkpt lat="44.13874" lon="5.90075">
        <ele>656.40002441406</ele>
        <time>2021-09-03T12:49:48Z</time>
      </trkpt>
      <trkpt lat="44.13874" lon="5.90076">
        <ele>656.40002441406</ele>
        <time>2021-09-03T12:49:49Z</time>
      </trkpt>
      <trkpt lat="44.13872" lon="5.90091">
        <ele>657.59997558594</ele>
        <time>2021-09-03T12:49:56Z</time>
      </trkpt>
      <trkpt lat="44.1387" lon="5.90092">
        <ele>657.59997558594</ele>
        <time>2021-09-03T12:49:57Z</time>
      </trkpt>
      <trkpt lat="44.13868" lon="5.90104">
        <ele>658.20001220703</ele>
        <time>2021-09-03T12:50:02Z</time>
      </trkpt>
      <trkpt lat="44.13866" lon="5.90108">
        <ele>658.59997558594</ele>
        <time>2021-09-03T12:50:04Z</time>
      </trkpt>
      <trkpt lat="44.13864" lon="5.90116">
        <ele>659.20001220703</ele>
        <time>2021-09-03T12:50:08Z</time>
      </trkpt>
      <trkpt lat="44.13863" lon="5.90123">
        <ele>659.59997558594</ele>
        <time>2021-09-03T12:50:11Z</time>
      </trkpt>
      <trkpt lat="44.13861" lon="5.90131">
        <ele>660.20001220703</ele>
        <time>2021-09-03T12:50:15Z</time>
      </trkpt>
      <trkpt lat="44.1386" lon="5.90139">
        <ele>660.79998779297</ele>
        <time>2021-09-03T12:50:19Z</time>
      </trkpt>
      <trkpt lat="44.13858" lon="5.90146">
        <ele>661.20001220703</ele>
        <time>2021-09-03T12:50:22Z</time>
      </trkpt>
      <trkpt lat="44.13855" lon="5.90157">
        <ele>662</ele>
        <time>2021-09-03T12:50:27Z</time>
      </trkpt>
      <trkpt lat="44.13854" lon="5.90161">
        <ele>662.40002441406</ele>
        <time>2021-09-03T12:50:29Z</time>
      </trkpt>
      <trkpt lat="44.13849" lon="5.9017">
        <ele>663</ele>
        <time>2021-09-03T12:50:34Z</time>
      </trkpt>
      <trkpt lat="44.13847" lon="5.90174">
        <ele>663.40002441406</ele>
        <time>2021-09-03T12:50:36Z</time>
      </trkpt>
      <trkpt lat="44.13844" lon="5.90184">
        <ele>664.20001220703</ele>
        <time>2021-09-03T12:50:41Z</time>
      </trkpt>
      <trkpt lat="44.13842" lon="5.90191">
        <ele>664.59997558594</ele>
        <time>2021-09-03T12:50:44Z</time>
      </trkpt>
      <trkpt lat="44.13838" lon="5.90199">
        <ele>665.20001220703</ele>
        <time>2021-09-03T12:50:49Z</time>
      </trkpt>
      <trkpt lat="44.13837" lon="5.90203">
        <ele>665.59997558594</ele>
        <time>2021-09-03T12:50:51Z</time>
      </trkpt>
      <trkpt lat="44.13835" lon="5.90211">
        <ele>666.40002441406</ele>
        <time>2021-09-03T12:50:55Z</time>
      </trkpt>
      <trkpt lat="44.13832" lon="5.9022">
        <ele>667</ele>
        <time>2021-09-03T12:51:00Z</time>
      </trkpt>
      <trkpt lat="44.1383" lon="5.90226">
        <ele>667.40002441406</ele>
        <time>2021-09-03T12:51:03Z</time>
      </trkpt>
      <trkpt lat="44.13828" lon="5.90234">
        <ele>668</ele>
        <time>2021-09-03T12:51:07Z</time>
      </trkpt>
      <trkpt lat="44.13827" lon="5.90237">
        <ele>668.20001220703</ele>
        <time>2021-09-03T12:51:09Z</time>
      </trkpt>
      <trkpt lat="44.13824" lon="5.9024">
        <ele>668.59997558594</ele>
        <time>2021-09-03T12:51:11Z</time>
      </trkpt>
      <trkpt lat="44.13823" lon="5.90244">
        <ele>668.79998779297</ele>
        <time>2021-09-03T12:51:13Z</time>
      </trkpt>
      <trkpt lat="44.1382" lon="5.90254">
        <ele>669.59997558594</ele>
        <time>2021-09-03T12:51:18Z</time>
      </trkpt>
      <trkpt lat="44.13817" lon="5.90261">
        <ele>670.20001220703</ele>
        <time>2021-09-03T12:51:22Z</time>
      </trkpt>
      <trkpt lat="44.13813" lon="5.90267">
        <ele>670.79998779297</ele>
        <time>2021-09-03T12:51:26Z</time>
      </trkpt>
      <trkpt lat="44.13809" lon="5.90274">
        <ele>671.40002441406</ele>
        <time>2021-09-03T12:51:30Z</time>
      </trkpt>
      <trkpt lat="44.13806" lon="5.9028">
        <ele>671.79998779297</ele>
        <time>2021-09-03T12:51:34Z</time>
      </trkpt>
      <trkpt lat="44.13804" lon="5.90284">
        <ele>672.20001220703</ele>
        <time>2021-09-03T12:51:36Z</time>
      </trkpt>
      <trkpt lat="44.138" lon="5.90292">
        <ele>673</ele>
        <time>2021-09-03T12:51:41Z</time>
      </trkpt>
      <trkpt lat="44.13798" lon="5.90297">
        <ele>673.40002441406</ele>
        <time>2021-09-03T12:51:44Z</time>
      </trkpt>
      <trkpt lat="44.13796" lon="5.90308">
        <ele>674</ele>
        <time>2021-09-03T12:51:49Z</time>
      </trkpt>
      <trkpt lat="44.13795" lon="5.90311">
        <ele>674.20001220703</ele>
        <time>2021-09-03T12:51:51Z</time>
      </trkpt>
      <trkpt lat="44.13791" lon="5.90321">
        <ele>675</ele>
        <time>2021-09-03T12:51:56Z</time>
      </trkpt>
      <trkpt lat="44.1379" lon="5.90324">
        <ele>675.40002441406</ele>
        <time>2021-09-03T12:51:58Z</time>
      </trkpt>
      <trkpt lat="44.13785" lon="5.90334">
        <ele>676.20001220703</ele>
        <time>2021-09-03T12:52:04Z</time>
      </trkpt>
      <trkpt lat="44.13784" lon="5.9034">
        <ele>676.79998779297</ele>
        <time>2021-09-03T12:52:07Z</time>
      </trkpt>
      <trkpt lat="44.13781" lon="5.90347">
        <ele>677.20001220703</ele>
        <time>2021-09-03T12:52:11Z</time>
      </trkpt>
      <trkpt lat="44.13778" lon="5.90358">
        <ele>678</ele>
        <time>2021-09-03T12:52:16Z</time>
      </trkpt>
      <trkpt lat="44.13776" lon="5.90361">
        <ele>678.20001220703</ele>
        <time>2021-09-03T12:52:18Z</time>
      </trkpt>
      <trkpt lat="44.13771" lon="5.90368">
        <ele>679</ele>
        <time>2021-09-03T12:52:23Z</time>
      </trkpt>
      <trkpt lat="44.13768" lon="5.90372">
        <ele>679.40002441406</ele>
        <time>2021-09-03T12:52:26Z</time>
      </trkpt>
      <trkpt lat="44.13764" lon="5.90375">
        <ele>680</ele>
        <time>2021-09-03T12:52:29Z</time>
      </trkpt>
      <trkpt lat="44.13763" lon="5.90376">
        <ele>680.20001220703</ele>
        <time>2021-09-03T12:52:30Z</time>
      </trkpt>
      <trkpt lat="44.1376" lon="5.90377">
        <ele>680.40002441406</ele>
        <time>2021-09-03T12:52:32Z</time>
      </trkpt>
      <trkpt lat="44.13753" lon="5.90379">
        <ele>681.20001220703</ele>
        <time>2021-09-03T12:52:37Z</time>
      </trkpt>
      <trkpt lat="44.1375" lon="5.9038">
        <ele>681.59997558594</ele>
        <time>2021-09-03T12:52:39Z</time>
      </trkpt>
      <trkpt lat="44.13742" lon="5.90384">
        <ele>682.20001220703</ele>
        <time>2021-09-03T12:52:44Z</time>
      </trkpt>
      <trkpt lat="44.13738" lon="5.90384">
        <ele>682.59997558594</ele>
        <time>2021-09-03T12:52:46Z</time>
      </trkpt>
      <trkpt lat="44.13729" lon="5.90386">
        <ele>683.40002441406</ele>
        <time>2021-09-03T12:52:52Z</time>
      </trkpt>
      <trkpt lat="44.13726" lon="5.90386">
        <ele>683.59997558594</ele>
        <time>2021-09-03T12:52:54Z</time>
      </trkpt>
      <trkpt lat="44.13717" lon="5.90389">
        <ele>684.40002441406</ele>
        <time>2021-09-03T12:52:59Z</time>
      </trkpt>
      <trkpt lat="44.13712" lon="5.90389">
        <ele>684.79998779297</ele>
        <time>2021-09-03T12:53:02Z</time>
      </trkpt>
      <trkpt lat="44.13706" lon="5.90393">
        <ele>685.20001220703</ele>
        <time>2021-09-03T12:53:06Z</time>
      </trkpt>
      <trkpt lat="44.13691" lon="5.90401">
        <ele>685.79998779297</ele>
        <time>2021-09-03T12:53:13Z</time>
      </trkpt>
      <trkpt lat="44.13678" lon="5.9041">
        <ele>686.79998779297</ele>
        <time>2021-09-03T12:53:20Z</time>
      </trkpt>
      <trkpt lat="44.13676" lon="5.9041">
        <ele>686.79998779297</ele>
        <time>2021-09-03T12:53:21Z</time>
      </trkpt>
      <trkpt lat="44.13665" lon="5.90416">
        <ele>687.40002441406</ele>
        <time>2021-09-03T12:53:28Z</time>
      </trkpt>
      <trkpt lat="44.1366" lon="5.9042">
        <ele>687.79998779297</ele>
        <time>2021-09-03T12:53:31Z</time>
      </trkpt>
      <trkpt lat="44.13655" lon="5.90422">
        <ele>688.20001220703</ele>
        <time>2021-09-03T12:53:34Z</time>
      </trkpt>
      <trkpt lat="44.13642" lon="5.90428">
        <ele>689</ele>
        <time>2021-09-03T12:53:41Z</time>
      </trkpt>
      <trkpt lat="44.13628" lon="5.90435">
        <ele>690</ele>
        <time>2021-09-03T12:53:49Z</time>
      </trkpt>
      <trkpt lat="44.13626" lon="5.90436">
        <ele>690.20001220703</ele>
        <time>2021-09-03T12:53:50Z</time>
      </trkpt>
      <trkpt lat="44.13613" lon="5.90445">
        <ele>691</ele>
        <time>2021-09-03T12:53:57Z</time>
      </trkpt>
      <trkpt lat="44.13611" lon="5.90446">
        <ele>691.20001220703</ele>
        <time>2021-09-03T12:53:58Z</time>
      </trkpt>
      <trkpt lat="44.13598" lon="5.90455">
        <ele>692.20001220703</ele>
        <time>2021-09-03T12:54:05Z</time>
      </trkpt>
      <trkpt lat="44.13581" lon="5.90465">
        <ele>693.20001220703</ele>
        <time>2021-09-03T12:54:14Z</time>
      </trkpt>
      <trkpt lat="44.13579" lon="5.90466">
        <ele>693.40002441406</ele>
        <time>2021-09-03T12:54:15Z</time>
      </trkpt>
      <trkpt lat="44.13566" lon="5.90477">
        <ele>694.20001220703</ele>
        <time>2021-09-03T12:54:23Z</time>
      </trkpt>
      <trkpt lat="44.13555" lon="5.9049">
        <ele>695.40002441406</ele>
        <time>2021-09-03T12:54:31Z</time>
      </trkpt>
      <trkpt lat="44.13554" lon="5.90492">
        <ele>695.40002441406</ele>
        <time>2021-09-03T12:54:32Z</time>
      </trkpt>
      <trkpt lat="44.13546" lon="5.90505">
        <ele>696</ele>
        <time>2021-09-03T12:54:38Z</time>
      </trkpt>
      <trkpt lat="44.13542" lon="5.9051">
        <ele>696.40002441406</ele>
        <time>2021-09-03T12:54:41Z</time>
      </trkpt>
      <trkpt lat="44.13538" lon="5.90521">
        <ele>697</ele>
        <time>2021-09-03T12:54:46Z</time>
      </trkpt>
      <trkpt lat="44.13534" lon="5.90534">
        <ele>697.59997558594</ele>
        <time>2021-09-03T12:54:51Z</time>
      </trkpt>
      <trkpt lat="44.13533" lon="5.90543">
        <ele>698</ele>
        <time>2021-09-03T12:54:54Z</time>
      </trkpt>
      <trkpt lat="44.1353" lon="5.90563">
        <ele>698.59997558594</ele>
        <time>2021-09-03T12:55:01Z</time>
      </trkpt>
      <trkpt lat="44.13529" lon="5.90566">
        <ele>698.59997558594</ele>
        <time>2021-09-03T12:55:02Z</time>
      </trkpt>
      <trkpt lat="44.13519" lon="5.90583">
        <ele>699.40002441406</ele>
        <time>2021-09-03T12:55:09Z</time>
      </trkpt>
      <trkpt lat="44.13512" lon="5.90588">
        <ele>699.59997558594</ele>
        <time>2021-09-03T12:55:12Z</time>
      </trkpt>
      <trkpt lat="44.135" lon="5.90593">
        <ele>700</ele>
        <time>2021-09-03T12:55:16Z</time>
      </trkpt>
      <trkpt lat="44.13474" lon="5.90605">
        <ele>700.79998779297</ele>
        <time>2021-09-03T12:55:25Z</time>
      </trkpt>
      <trkpt lat="44.13453" lon="5.90602">
        <ele>701.20001220703</ele>
        <time>2021-09-03T12:55:32Z</time>
      </trkpt>
      <trkpt lat="44.13442" lon="5.90599">
        <ele>701.79998779297</ele>
        <time>2021-09-03T12:55:37Z</time>
      </trkpt>
      <trkpt lat="44.13438" lon="5.90597">
        <ele>702.20001220703</ele>
        <time>2021-09-03T12:55:39Z</time>
      </trkpt>
      <trkpt lat="44.13431" lon="5.90594">
        <ele>702.79998779297</ele>
        <time>2021-09-03T12:55:43Z</time>
      </trkpt>
      <trkpt lat="44.13425" lon="5.90592">
        <ele>703.40002441406</ele>
        <time>2021-09-03T12:55:46Z</time>
      </trkpt>
      <trkpt lat="44.13417" lon="5.90589">
        <ele>704</ele>
        <time>2021-09-03T12:55:50Z</time>
      </trkpt>
      <trkpt lat="44.13412" lon="5.90588">
        <ele>704.40002441406</ele>
        <time>2021-09-03T12:55:53Z</time>
      </trkpt>
      <trkpt lat="44.13401" lon="5.90587">
        <ele>705</ele>
        <time>2021-09-03T12:55:58Z</time>
      </trkpt>
      <trkpt lat="44.13395" lon="5.90587">
        <ele>705.40002441406</ele>
        <time>2021-09-03T12:56:01Z</time>
      </trkpt>
      <trkpt lat="44.13384" lon="5.90584">
        <ele>706</ele>
        <time>2021-09-03T12:56:06Z</time>
      </trkpt>
      <trkpt lat="44.13376" lon="5.90584">
        <ele>706.40002441406</ele>
        <time>2021-09-03T12:56:10Z</time>
      </trkpt>
      <trkpt lat="44.13363" lon="5.90585">
        <ele>707</ele>
        <time>2021-09-03T12:56:17Z</time>
      </trkpt>
      <trkpt lat="44.13357" lon="5.90584">
        <ele>707.40002441406</ele>
        <time>2021-09-03T12:56:20Z</time>
      </trkpt>
      <trkpt lat="44.13347" lon="5.90581">
        <ele>708</ele>
        <time>2021-09-03T12:56:25Z</time>
      </trkpt>
      <trkpt lat="44.13345" lon="5.90581">
        <ele>708.20001220703</ele>
        <time>2021-09-03T12:56:26Z</time>
      </trkpt>
      <trkpt lat="44.13333" lon="5.90582">
        <ele>709.20001220703</ele>
        <time>2021-09-03T12:56:33Z</time>
      </trkpt>
      <trkpt lat="44.13325" lon="5.90579">
        <ele>710</ele>
        <time>2021-09-03T12:56:38Z</time>
      </trkpt>
      <trkpt lat="44.13322" lon="5.90578">
        <ele>710.20001220703</ele>
        <time>2021-09-03T12:56:40Z</time>
      </trkpt>
      <trkpt lat="44.1332" lon="5.90578">
        <ele>710.40002441406</ele>
        <time>2021-09-03T12:56:41Z</time>
      </trkpt>
      <trkpt lat="44.13313" lon="5.90578">
        <ele>711</ele>
        <time>2021-09-03T12:56:45Z</time>
      </trkpt>
      <trkpt lat="44.1331" lon="5.90578">
        <ele>711.40002441406</ele>
        <time>2021-09-03T12:56:47Z</time>
      </trkpt>
      <trkpt lat="44.13307" lon="5.90579">
        <ele>711.59997558594</ele>
        <time>2021-09-03T12:56:49Z</time>
      </trkpt>
      <trkpt lat="44.13299" lon="5.9058">
        <ele>712.59997558594</ele>
        <time>2021-09-03T12:56:54Z</time>
      </trkpt>
      <trkpt lat="44.13294" lon="5.90582">
        <ele>713</ele>
        <time>2021-09-03T12:56:57Z</time>
      </trkpt>
      <trkpt lat="44.13288" lon="5.90585">
        <ele>713.59997558594</ele>
        <time>2021-09-03T12:57:01Z</time>
      </trkpt>
      <trkpt lat="44.13282" lon="5.90588">
        <ele>714.20001220703</ele>
        <time>2021-09-03T12:57:05Z</time>
      </trkpt>
      <trkpt lat="44.13277" lon="5.90593">
        <ele>714.59997558594</ele>
        <time>2021-09-03T12:57:09Z</time>
      </trkpt>
      <trkpt lat="44.13275" lon="5.90594">
        <ele>715</ele>
        <time>2021-09-03T12:57:11Z</time>
      </trkpt>
      <trkpt lat="44.1327" lon="5.90599">
        <ele>715.79998779297</ele>
        <time>2021-09-03T12:57:15Z</time>
      </trkpt>
      <trkpt lat="44.13267" lon="5.90598">
        <ele>716.20001220703</ele>
        <time>2021-09-03T12:57:17Z</time>
      </trkpt>
      <trkpt lat="44.13262" lon="5.90606">
        <ele>716.79998779297</ele>
        <time>2021-09-03T12:57:22Z</time>
      </trkpt>
      <trkpt lat="44.1326" lon="5.90606">
        <ele>717</ele>
        <time>2021-09-03T12:57:23Z</time>
      </trkpt>
      <trkpt lat="44.13253" lon="5.9061">
        <ele>717.79998779297</ele>
        <time>2021-09-03T12:57:28Z</time>
      </trkpt>
      <trkpt lat="44.13253" lon="5.9061">
        <ele>718</ele>
        <time>2021-09-03T12:57:29Z</time>
      </trkpt>
      <trkpt lat="44.1325" lon="5.90612">
        <ele>718.59997558594</ele>
        <time>2021-09-03T12:57:41Z</time>
      </trkpt>
      <trkpt lat="44.13245" lon="5.90613">
        <ele>718.79998779297</ele>
        <time>2021-09-03T12:57:44Z</time>
      </trkpt>
      <trkpt lat="44.1324" lon="5.90614">
        <ele>719</ele>
        <time>2021-09-03T12:57:47Z</time>
      </trkpt>
      <trkpt lat="44.13236" lon="5.90615">
        <ele>719.59997558594</ele>
        <time>2021-09-03T12:57:50Z</time>
      </trkpt>
      <trkpt lat="44.13232" lon="5.90615">
        <ele>720</ele>
        <time>2021-09-03T12:57:52Z</time>
      </trkpt>
      <trkpt lat="44.1323" lon="5.90615">
        <ele>720</ele>
        <time>2021-09-03T12:57:53Z</time>
      </trkpt>
      <trkpt lat="44.13225" lon="5.90616">
        <ele>720.40002441406</ele>
        <time>2021-09-03T12:57:56Z</time>
      </trkpt>
      <trkpt lat="44.1322" lon="5.90617">
        <ele>721</ele>
        <time>2021-09-03T12:57:59Z</time>
      </trkpt>
      <trkpt lat="44.13219" lon="5.90617">
        <ele>721.20001220703</ele>
        <time>2021-09-03T12:58:00Z</time>
      </trkpt>
      <trkpt lat="44.13208" lon="5.90618">
        <ele>722.20001220703</ele>
        <time>2021-09-03T12:58:06Z</time>
      </trkpt>
      <trkpt lat="44.13205" lon="5.90618">
        <ele>722.59997558594</ele>
        <time>2021-09-03T12:58:08Z</time>
      </trkpt>
      <trkpt lat="44.13197" lon="5.90618">
        <ele>723.40002441406</ele>
        <time>2021-09-03T12:58:13Z</time>
      </trkpt>
      <trkpt lat="44.13189" lon="5.9062">
        <ele>724</ele>
        <time>2021-09-03T12:58:18Z</time>
      </trkpt>
      <trkpt lat="44.13186" lon="5.9062">
        <ele>724.59997558594</ele>
        <time>2021-09-03T12:58:20Z</time>
      </trkpt>
      <trkpt lat="44.13178" lon="5.90619">
        <ele>725.20001220703</ele>
        <time>2021-09-03T12:58:25Z</time>
      </trkpt>
      <trkpt lat="44.13175" lon="5.9062">
        <ele>725.59997558594</ele>
        <time>2021-09-03T12:58:27Z</time>
      </trkpt>
      <trkpt lat="44.13169" lon="5.90621">
        <ele>726.40002441406</ele>
        <time>2021-09-03T12:58:31Z</time>
      </trkpt>
      <trkpt lat="44.13164" lon="5.90621">
        <ele>726.79998779297</ele>
        <time>2021-09-03T12:58:34Z</time>
      </trkpt>
      <trkpt lat="44.13152" lon="5.90621">
        <ele>728</ele>
        <time>2021-09-03T12:58:41Z</time>
      </trkpt>
      <trkpt lat="44.13142" lon="5.90624">
        <ele>729.20001220703</ele>
        <time>2021-09-03T12:58:48Z</time>
      </trkpt>
      <trkpt lat="44.13139" lon="5.90624">
        <ele>729.40002441406</ele>
        <time>2021-09-03T12:58:50Z</time>
      </trkpt>
      <trkpt lat="44.13133" lon="5.90625">
        <ele>730.20001220703</ele>
        <time>2021-09-03T12:58:54Z</time>
      </trkpt>
      <trkpt lat="44.1313" lon="5.90626">
        <ele>730.59997558594</ele>
        <time>2021-09-03T12:58:56Z</time>
      </trkpt>
      <trkpt lat="44.13122" lon="5.90628">
        <ele>731.40002441406</ele>
        <time>2021-09-03T12:59:01Z</time>
      </trkpt>
      <trkpt lat="44.13117" lon="5.90627">
        <ele>731.79998779297</ele>
        <time>2021-09-03T12:59:04Z</time>
      </trkpt>
      <trkpt lat="44.13108" lon="5.90629">
        <ele>732.40002441406</ele>
        <time>2021-09-03T12:59:09Z</time>
      </trkpt>
      <trkpt lat="44.131" lon="5.90631">
        <ele>733</ele>
        <time>2021-09-03T12:59:13Z</time>
      </trkpt>
      <trkpt lat="44.13095" lon="5.90633">
        <ele>733.40002441406</ele>
        <time>2021-09-03T12:59:16Z</time>
      </trkpt>
      <trkpt lat="44.13086" lon="5.90634">
        <ele>734.20001220703</ele>
        <time>2021-09-03T12:59:21Z</time>
      </trkpt>
      <trkpt lat="44.13082" lon="5.90635">
        <ele>734.59997558594</ele>
        <time>2021-09-03T12:59:23Z</time>
      </trkpt>
      <trkpt lat="44.13071" lon="5.90636">
        <ele>735.20001220703</ele>
        <time>2021-09-03T12:59:29Z</time>
      </trkpt>
      <trkpt lat="44.13066" lon="5.90636">
        <ele>735.59997558594</ele>
        <time>2021-09-03T12:59:32Z</time>
      </trkpt>
      <trkpt lat="44.13056" lon="5.90635">
        <ele>736.20001220703</ele>
        <time>2021-09-03T12:59:37Z</time>
      </trkpt>
      <trkpt lat="44.13045" lon="5.9063">
        <ele>736.79998779297</ele>
        <time>2021-09-03T12:59:42Z</time>
      </trkpt>
      <trkpt lat="44.13039" lon="5.90626">
        <ele>737.20001220703</ele>
        <time>2021-09-03T12:59:45Z</time>
      </trkpt>
      <trkpt lat="44.1303" lon="5.90616">
        <ele>737.79998779297</ele>
        <time>2021-09-03T12:59:50Z</time>
      </trkpt>
      <trkpt lat="44.13027" lon="5.90612">
        <ele>738</ele>
        <time>2021-09-03T12:59:52Z</time>
      </trkpt>
      <trkpt lat="44.13017" lon="5.906">
        <ele>738.79998779297</ele>
        <time>2021-09-03T12:59:59Z</time>
      </trkpt>
      <trkpt lat="44.13012" lon="5.90595">
        <ele>739.40002441406</ele>
        <time>2021-09-03T13:00:02Z</time>
      </trkpt>
      <trkpt lat="44.13008" lon="5.9059">
        <ele>739.79998779297</ele>
        <time>2021-09-03T13:00:05Z</time>
      </trkpt>
      <trkpt lat="44.13003" lon="5.90583">
        <ele>740.40002441406</ele>
        <time>2021-09-03T13:00:09Z</time>
      </trkpt>
      <trkpt lat="44.12997" lon="5.90578">
        <ele>741</ele>
        <time>2021-09-03T13:00:13Z</time>
      </trkpt>
      <trkpt lat="44.12991" lon="5.90571">
        <ele>741.59997558594</ele>
        <time>2021-09-03T13:00:18Z</time>
      </trkpt>
      <trkpt lat="44.12986" lon="5.90568">
        <ele>742</ele>
        <time>2021-09-03T13:00:21Z</time>
      </trkpt>
      <trkpt lat="44.12983" lon="5.90566">
        <ele>742.20001220703</ele>
        <time>2021-09-03T13:00:23Z</time>
      </trkpt>
      <trkpt lat="44.12981" lon="5.90562">
        <ele>742.59997558594</ele>
        <time>2021-09-03T13:00:25Z</time>
      </trkpt>
      <trkpt lat="44.12977" lon="5.90553">
        <ele>743.20001220703</ele>
        <time>2021-09-03T13:00:29Z</time>
      </trkpt>
      <trkpt lat="44.12977" lon="5.90544">
        <ele>743.59997558594</ele>
        <time>2021-09-03T13:00:33Z</time>
      </trkpt>
      <trkpt lat="44.12979" lon="5.90528">
        <ele>744.20001220703</ele>
        <time>2021-09-03T13:00:39Z</time>
      </trkpt>
      <trkpt lat="44.12981" lon="5.90523">
        <ele>744.40002441406</ele>
        <time>2021-09-03T13:00:41Z</time>
      </trkpt>
      <trkpt lat="44.12986" lon="5.90512">
        <ele>745.20001220703</ele>
        <time>2021-09-03T13:00:47Z</time>
      </trkpt>
      <trkpt lat="44.12987" lon="5.9051">
        <ele>745.40002441406</ele>
        <time>2021-09-03T13:00:48Z</time>
      </trkpt>
      <trkpt lat="44.12988" lon="5.90508">
        <ele>745.40002441406</ele>
        <time>2021-09-03T13:00:49Z</time>
      </trkpt>
      <trkpt lat="44.12995" lon="5.90499">
        <ele>746.40002441406</ele>
        <time>2021-09-03T13:00:55Z</time>
      </trkpt>
      <trkpt lat="44.12997" lon="5.90496">
        <ele>746.59997558594</ele>
        <time>2021-09-03T13:00:57Z</time>
      </trkpt>
      <trkpt lat="44.13005" lon="5.90489">
        <ele>747.40002441406</ele>
        <time>2021-09-03T13:01:03Z</time>
      </trkpt>
      <trkpt lat="44.13007" lon="5.90485">
        <ele>747.79998779297</ele>
        <time>2021-09-03T13:01:05Z</time>
      </trkpt>
      <trkpt lat="44.13012" lon="5.9048">
        <ele>748.59997558594</ele>
        <time>2021-09-03T13:01:09Z</time>
      </trkpt>
      <trkpt lat="44.13016" lon="5.90475">
        <ele>749</ele>
        <time>2021-09-03T13:01:12Z</time>
      </trkpt>
      <trkpt lat="44.13023" lon="5.90471">
        <ele>749.59997558594</ele>
        <time>2021-09-03T13:01:16Z</time>
      </trkpt>
      <trkpt lat="44.13028" lon="5.90462">
        <ele>750.20001220703</ele>
        <time>2021-09-03T13:01:20Z</time>
      </trkpt>
      <trkpt lat="44.13031" lon="5.90454">
        <ele>750.59997558594</ele>
        <time>2021-09-03T13:01:23Z</time>
      </trkpt>
      <trkpt lat="44.13034" lon="5.90442">
        <ele>751</ele>
        <time>2021-09-03T13:01:27Z</time>
      </trkpt>
      <trkpt lat="44.13033" lon="5.90418">
        <ele>751.59997558594</ele>
        <time>2021-09-03T13:01:35Z</time>
      </trkpt>
      <trkpt lat="44.13029" lon="5.90394">
        <ele>752.40002441406</ele>
        <time>2021-09-03T13:01:43Z</time>
      </trkpt>
      <trkpt lat="44.13027" lon="5.90381">
        <ele>752.79998779297</ele>
        <time>2021-09-03T13:01:48Z</time>
      </trkpt>
      <trkpt lat="44.13026" lon="5.90375">
        <ele>753</ele>
        <time>2021-09-03T13:01:50Z</time>
      </trkpt>
      <trkpt lat="44.13026" lon="5.90358">
        <ele>753.40002441406</ele>
        <time>2021-09-03T13:01:56Z</time>
      </trkpt>
      <trkpt lat="44.13026" lon="5.90348">
        <ele>753.79998779297</ele>
        <time>2021-09-03T13:02:00Z</time>
      </trkpt>
      <trkpt lat="44.13026" lon="5.90337">
        <ele>754.40002441406</ele>
        <time>2021-09-03T13:02:04Z</time>
      </trkpt>
      <trkpt lat="44.13026" lon="5.90333">
        <ele>755</ele>
        <time>2021-09-03T13:02:06Z</time>
      </trkpt>
      <trkpt lat="44.1303" lon="5.90325">
        <ele>755.40002441406</ele>
        <time>2021-09-03T13:02:10Z</time>
      </trkpt>
      <trkpt lat="44.13033" lon="5.90314">
        <ele>756</ele>
        <time>2021-09-03T13:02:15Z</time>
      </trkpt>
      <trkpt lat="44.13036" lon="5.90308">
        <ele>756.59997558594</ele>
        <time>2021-09-03T13:02:18Z</time>
      </trkpt>
      <trkpt lat="44.1304" lon="5.90298">
        <ele>757.20001220703</ele>
        <time>2021-09-03T13:02:23Z</time>
      </trkpt>
      <trkpt lat="44.13044" lon="5.90291">
        <ele>757.59997558594</ele>
        <time>2021-09-03T13:02:27Z</time>
      </trkpt>
      <trkpt lat="44.13046" lon="5.90286">
        <ele>758.20001220703</ele>
        <time>2021-09-03T13:02:30Z</time>
      </trkpt>
      <trkpt lat="44.13049" lon="5.90277">
        <ele>759</ele>
        <time>2021-09-03T13:02:35Z</time>
      </trkpt>
      <trkpt lat="44.1305" lon="5.90271">
        <ele>759.20001220703</ele>
        <time>2021-09-03T13:02:38Z</time>
      </trkpt>
      <trkpt lat="44.13052" lon="5.90267">
        <ele>759.40002441406</ele>
        <time>2021-09-03T13:02:40Z</time>
      </trkpt>
      <trkpt lat="44.13053" lon="5.90264">
        <ele>759.59997558594</ele>
        <time>2021-09-03T13:02:41Z</time>
      </trkpt>
      <trkpt lat="44.13056" lon="5.90258">
        <ele>760</ele>
        <time>2021-09-03T13:02:44Z</time>
      </trkpt>
      <trkpt lat="44.13057" lon="5.90253">
        <ele>760.40002441406</ele>
        <time>2021-09-03T13:02:46Z</time>
      </trkpt>
      <trkpt lat="44.13057" lon="5.90247">
        <ele>760.59997558594</ele>
        <time>2021-09-03T13:02:48Z</time>
      </trkpt>
      <trkpt lat="44.13059" lon="5.90234">
        <ele>761.40002441406</ele>
        <time>2021-09-03T13:02:53Z</time>
      </trkpt>
      <trkpt lat="44.13062" lon="5.90226">
        <ele>762</ele>
        <time>2021-09-03T13:02:57Z</time>
      </trkpt>
      <trkpt lat="44.13065" lon="5.90217">
        <ele>762.40002441406</ele>
        <time>2021-09-03T13:03:01Z</time>
      </trkpt>
      <trkpt lat="44.13068" lon="5.90212">
        <ele>762.79998779297</ele>
        <time>2021-09-03T13:03:03Z</time>
      </trkpt>
      <trkpt lat="44.13075" lon="5.90197">
        <ele>763.59997558594</ele>
        <time>2021-09-03T13:03:09Z</time>
      </trkpt>
      <trkpt lat="44.13075" lon="5.90193">
        <ele>763.59997558594</ele>
        <time>2021-09-03T13:03:10Z</time>
      </trkpt>
      <trkpt lat="44.1308" lon="5.90175">
        <ele>764.59997558594</ele>
        <time>2021-09-03T13:03:17Z</time>
      </trkpt>
      <trkpt lat="44.13081" lon="5.90157">
        <ele>765.79998779297</ele>
        <time>2021-09-03T13:03:23Z</time>
      </trkpt>
      <trkpt lat="44.13081" lon="5.90155">
        <ele>765.79998779297</ele>
        <time>2021-09-03T13:03:24Z</time>
      </trkpt>
      <trkpt lat="44.13074" lon="5.90143">
        <ele>766.79998779297</ele>
        <time>2021-09-03T13:03:30Z</time>
      </trkpt>
      <trkpt lat="44.13073" lon="5.90142">
        <ele>766.79998779297</ele>
        <time>2021-09-03T13:03:31Z</time>
      </trkpt>
      <trkpt lat="44.13061" lon="5.90138">
        <ele>767.79998779297</ele>
        <time>2021-09-03T13:03:38Z</time>
      </trkpt>
      <trkpt lat="44.13046" lon="5.90137">
        <ele>769</ele>
        <time>2021-09-03T13:03:46Z</time>
      </trkpt>
      <trkpt lat="44.1303" lon="5.90139">
        <ele>770</ele>
        <time>2021-09-03T13:03:54Z</time>
      </trkpt>
      <trkpt lat="44.13029" lon="5.90139">
        <ele>770</ele>
        <time>2021-09-03T13:03:55Z</time>
      </trkpt>
      <trkpt lat="44.13016" lon="5.90139">
        <ele>771</ele>
        <time>2021-09-03T13:04:02Z</time>
      </trkpt>
      <trkpt lat="44.13014" lon="5.90138">
        <ele>771</ele>
        <time>2021-09-03T13:04:03Z</time>
      </trkpt>
      <trkpt lat="44.13003" lon="5.90139">
        <ele>771.79998779297</ele>
        <time>2021-09-03T13:04:09Z</time>
      </trkpt>
      <trkpt lat="44.12997" lon="5.90139">
        <ele>772</ele>
        <time>2021-09-03T13:04:12Z</time>
      </trkpt>
      <trkpt lat="44.12988" lon="5.90139">
        <ele>772.59997558594</ele>
        <time>2021-09-03T13:04:16Z</time>
      </trkpt>
      <trkpt lat="44.12979" lon="5.90138">
        <ele>773.20001220703</ele>
        <time>2021-09-03T13:04:21Z</time>
      </trkpt>
      <trkpt lat="44.12974" lon="5.90138">
        <ele>773.40002441406</ele>
        <time>2021-09-03T13:04:23Z</time>
      </trkpt>
      <trkpt lat="44.12959" lon="5.90138">
        <ele>774.20001220703</ele>
        <time>2021-09-03T13:04:30Z</time>
      </trkpt>
      <trkpt lat="44.12953" lon="5.90136">
        <ele>774.40002441406</ele>
        <time>2021-09-03T13:04:33Z</time>
      </trkpt>
      <trkpt lat="44.12936" lon="5.90133">
        <ele>775.20001220703</ele>
        <time>2021-09-03T13:04:40Z</time>
      </trkpt>
      <trkpt lat="44.12921" lon="5.90123">
        <ele>775.79998779297</ele>
        <time>2021-09-03T13:04:46Z</time>
      </trkpt>
      <trkpt lat="44.12913" lon="5.90114">
        <ele>776.20001220703</ele>
        <time>2021-09-03T13:04:50Z</time>
      </trkpt>
      <trkpt lat="44.12909" lon="5.9011">
        <ele>776.40002441406</ele>
        <time>2021-09-03T13:04:52Z</time>
      </trkpt>
      <trkpt lat="44.12898" lon="5.90095">
        <ele>777.20001220703</ele>
        <time>2021-09-03T13:04:58Z</time>
      </trkpt>
      <trkpt lat="44.12885" lon="5.90069">
        <ele>778.20001220703</ele>
        <time>2021-09-03T13:05:07Z</time>
      </trkpt>
      <trkpt lat="44.12881" lon="5.90064">
        <ele>778.40002441406</ele>
        <time>2021-09-03T13:05:09Z</time>
      </trkpt>
      <trkpt lat="44.1287" lon="5.90044">
        <ele>778.59997558594</ele>
        <time>2021-09-03T13:05:15Z</time>
      </trkpt>
      <trkpt lat="44.12856" lon="5.90023">
        <ele>779</ele>
        <time>2021-09-03T13:05:22Z</time>
      </trkpt>
      <trkpt lat="44.12846" lon="5.90018">
        <ele>779</ele>
        <time>2021-09-03T13:05:25Z</time>
      </trkpt>
      <trkpt lat="44.12839" lon="5.90018">
        <ele>779</ele>
        <time>2021-09-03T13:05:27Z</time>
      </trkpt>
      <trkpt lat="44.1283" lon="5.90019">
        <ele>778.79998779297</ele>
        <time>2021-09-03T13:05:29Z</time>
      </trkpt>
      <trkpt lat="44.12816" lon="5.90024">
        <ele>778.20001220703</ele>
        <time>2021-09-03T13:05:32Z</time>
      </trkpt>
      <trkpt lat="44.12811" lon="5.90027">
        <ele>778</ele>
        <time>2021-09-03T13:05:33Z</time>
      </trkpt>
      <trkpt lat="44.12792" lon="5.90038">
        <ele>777.20001220703</ele>
        <time>2021-09-03T13:05:36Z</time>
      </trkpt>
      <trkpt lat="44.12784" lon="5.90041">
        <ele>777</ele>
        <time>2021-09-03T13:05:37Z</time>
      </trkpt>
      <trkpt lat="44.12761" lon="5.9005">
        <ele>776</ele>
        <time>2021-09-03T13:05:40Z</time>
      </trkpt>
      <trkpt lat="44.12744" lon="5.90052">
        <ele>774.79998779297</ele>
        <time>2021-09-03T13:05:42Z</time>
      </trkpt>
      <trkpt lat="44.1272" lon="5.90039">
        <ele>773.59997558594</ele>
        <time>2021-09-03T13:05:45Z</time>
      </trkpt>
      <trkpt lat="44.12702" lon="5.90011">
        <ele>772.20001220703</ele>
        <time>2021-09-03T13:05:48Z</time>
      </trkpt>
      <trkpt lat="44.12691" lon="5.89981">
        <ele>771.20001220703</ele>
        <time>2021-09-03T13:05:51Z</time>
      </trkpt>
      <trkpt lat="44.12687" lon="5.89972">
        <ele>771</ele>
        <time>2021-09-03T13:05:52Z</time>
      </trkpt>
      <trkpt lat="44.12672" lon="5.89922">
        <ele>770.59997558594</ele>
        <time>2021-09-03T13:05:58Z</time>
      </trkpt>
      <trkpt lat="44.12671" lon="5.89914">
        <ele>770.59997558594</ele>
        <time>2021-09-03T13:05:59Z</time>
      </trkpt>
      <trkpt lat="44.12671" lon="5.89896">
        <ele>770.59997558594</ele>
        <time>2021-09-03T13:06:02Z</time>
      </trkpt>
      <trkpt lat="44.12673" lon="5.89875">
        <ele>772</ele>
        <time>2021-09-03T13:06:07Z</time>
      </trkpt>
      <trkpt lat="44.12673" lon="5.89872">
        <ele>772.20001220703</ele>
        <time>2021-09-03T13:06:08Z</time>
      </trkpt>
      <trkpt lat="44.12674" lon="5.89861">
        <ele>773.20001220703</ele>
        <time>2021-09-03T13:06:12Z</time>
      </trkpt>
      <trkpt lat="44.12674" lon="5.89852">
        <ele>773.79998779297</ele>
        <time>2021-09-03T13:06:15Z</time>
      </trkpt>
      <trkpt lat="44.12675" lon="5.89843">
        <ele>774.20001220703</ele>
        <time>2021-09-03T13:06:18Z</time>
      </trkpt>
      <trkpt lat="44.12678" lon="5.89833">
        <ele>775</ele>
        <time>2021-09-03T13:06:22Z</time>
      </trkpt>
      <trkpt lat="44.1268" lon="5.89826">
        <ele>775.20001220703</ele>
        <time>2021-09-03T13:06:25Z</time>
      </trkpt>
      <trkpt lat="44.12683" lon="5.89815">
        <ele>776.20001220703</ele>
        <time>2021-09-03T13:06:30Z</time>
      </trkpt>
      <trkpt lat="44.12684" lon="5.89813">
        <ele>776.40002441406</ele>
        <time>2021-09-03T13:06:31Z</time>
      </trkpt>
      <trkpt lat="44.12693" lon="5.89795">
        <ele>777.40002441406</ele>
        <time>2021-09-03T13:06:40Z</time>
      </trkpt>
      <trkpt lat="44.12702" lon="5.89789">
        <ele>778.20001220703</ele>
        <time>2021-09-03T13:06:46Z</time>
      </trkpt>
      <trkpt lat="44.12704" lon="5.89788">
        <ele>778.40002441406</ele>
        <time>2021-09-03T13:06:47Z</time>
      </trkpt>
      <trkpt lat="44.12716" lon="5.89779">
        <ele>779.40002441406</ele>
        <time>2021-09-03T13:06:54Z</time>
      </trkpt>
      <trkpt lat="44.12724" lon="5.89773">
        <ele>780.20001220703</ele>
        <time>2021-09-03T13:06:59Z</time>
      </trkpt>
      <trkpt lat="44.12726" lon="5.89769">
        <ele>780.40002441406</ele>
        <time>2021-09-03T13:07:01Z</time>
      </trkpt>
      <trkpt lat="44.12728" lon="5.89766">
        <ele>780.59997558594</ele>
        <time>2021-09-03T13:07:02Z</time>
      </trkpt>
      <trkpt lat="44.12734" lon="5.8975">
        <ele>781.59997558594</ele>
        <time>2021-09-03T13:07:09Z</time>
      </trkpt>
      <trkpt lat="44.12734" lon="5.89748">
        <ele>781.79998779297</ele>
        <time>2021-09-03T13:07:10Z</time>
      </trkpt>
      <trkpt lat="44.12735" lon="5.8974">
        <ele>782.20001220703</ele>
        <time>2021-09-03T13:07:13Z</time>
      </trkpt>
      <trkpt lat="44.12734" lon="5.89731">
        <ele>782.59997558594</ele>
        <time>2021-09-03T13:07:16Z</time>
      </trkpt>
      <trkpt lat="44.12733" lon="5.89729">
        <ele>782.79998779297</ele>
        <time>2021-09-03T13:07:17Z</time>
      </trkpt>
      <trkpt lat="44.12732" lon="5.89711">
        <ele>783.79998779297</ele>
        <time>2021-09-03T13:07:24Z</time>
      </trkpt>
      <trkpt lat="44.12732" lon="5.89708">
        <ele>783.79998779297</ele>
        <time>2021-09-03T13:07:25Z</time>
      </trkpt>
      <trkpt lat="44.12732" lon="5.89702">
        <ele>784</ele>
        <time>2021-09-03T13:07:27Z</time>
      </trkpt>
      <trkpt lat="44.12732" lon="5.89691">
        <ele>784.59997558594</ele>
        <time>2021-09-03T13:07:31Z</time>
      </trkpt>
      <trkpt lat="44.12732" lon="5.89686">
        <ele>784.79998779297</ele>
        <time>2021-09-03T13:07:33Z</time>
      </trkpt>
      <trkpt lat="44.12735" lon="5.8967">
        <ele>785.40002441406</ele>
        <time>2021-09-03T13:07:39Z</time>
      </trkpt>
      <trkpt lat="44.12735" lon="5.89664">
        <ele>785.79998779297</ele>
        <time>2021-09-03T13:07:41Z</time>
      </trkpt>
      <trkpt lat="44.12736" lon="5.89649">
        <ele>786.79998779297</ele>
        <time>2021-09-03T13:07:47Z</time>
      </trkpt>
      <trkpt lat="44.12737" lon="5.89646">
        <ele>787</ele>
        <time>2021-09-03T13:07:48Z</time>
      </trkpt>
      <trkpt lat="44.12737" lon="5.89624">
        <ele>787.79998779297</ele>
        <time>2021-09-03T13:07:56Z</time>
      </trkpt>
      <trkpt lat="44.12736" lon="5.89621">
        <ele>788</ele>
        <time>2021-09-03T13:07:57Z</time>
      </trkpt>
      <trkpt lat="44.12729" lon="5.89606">
        <ele>789</ele>
        <time>2021-09-03T13:08:03Z</time>
      </trkpt>
      <trkpt lat="44.12714" lon="5.89586">
        <ele>790</ele>
        <time>2021-09-03T13:08:12Z</time>
      </trkpt>
      <trkpt lat="44.12698" lon="5.89577">
        <ele>790.20001220703</ele>
        <time>2021-09-03T13:08:18Z</time>
      </trkpt>
      <trkpt lat="44.12671" lon="5.89566">
        <ele>790</ele>
        <time>2021-09-03T13:08:25Z</time>
      </trkpt>
      <trkpt lat="44.12659" lon="5.89561">
        <ele>789.79998779297</ele>
        <time>2021-09-03T13:08:28Z</time>
      </trkpt>
      <trkpt lat="44.12641" lon="5.89556">
        <ele>789.40002441406</ele>
        <time>2021-09-03T13:08:32Z</time>
      </trkpt>
      <trkpt lat="44.12624" lon="5.89548">
        <ele>789.20001220703</ele>
        <time>2021-09-03T13:08:36Z</time>
      </trkpt>
      <trkpt lat="44.12617" lon="5.89539">
        <ele>789</ele>
        <time>2021-09-03T13:08:38Z</time>
      </trkpt>
      <trkpt lat="44.12613" lon="5.89527">
        <ele>789</ele>
        <time>2021-09-03T13:08:40Z</time>
      </trkpt>
      <trkpt lat="44.12613" lon="5.89521">
        <ele>788.79998779297</ele>
        <time>2021-09-03T13:08:41Z</time>
      </trkpt>
      <trkpt lat="44.12614" lon="5.89515">
        <ele>788.79998779297</ele>
        <time>2021-09-03T13:08:42Z</time>
      </trkpt>
      <trkpt lat="44.12617" lon="5.89508">
        <ele>788.59997558594</ele>
        <time>2021-09-03T13:08:43Z</time>
      </trkpt>
      <trkpt lat="44.12623" lon="5.89498">
        <ele>788.59997558594</ele>
        <time>2021-09-03T13:08:45Z</time>
      </trkpt>
      <trkpt lat="44.12635" lon="5.89489">
        <ele>788.59997558594</ele>
        <time>2021-09-03T13:08:49Z</time>
      </trkpt>
      <trkpt lat="44.12638" lon="5.89488">
        <ele>788.79998779297</ele>
        <time>2021-09-03T13:08:50Z</time>
      </trkpt>
      <trkpt lat="44.12648" lon="5.89479">
        <ele>789.79998779297</ele>
        <time>2021-09-03T13:08:56Z</time>
      </trkpt>
      <trkpt lat="44.1265" lon="5.89478">
        <ele>790</ele>
        <time>2021-09-03T13:08:57Z</time>
      </trkpt>
      <trkpt lat="44.12662" lon="5.89467">
        <ele>791.20001220703</ele>
        <time>2021-09-03T13:09:03Z</time>
      </trkpt>
      <trkpt lat="44.12665" lon="5.89462">
        <ele>791.59997558594</ele>
        <time>2021-09-03T13:09:06Z</time>
      </trkpt>
      <trkpt lat="44.12668" lon="5.89456">
        <ele>792.20001220703</ele>
        <time>2021-09-03T13:09:09Z</time>
      </trkpt>
      <trkpt lat="44.12674" lon="5.89446">
        <ele>792.79998779297</ele>
        <time>2021-09-03T13:09:14Z</time>
      </trkpt>
      <trkpt lat="44.12675" lon="5.89441">
        <ele>793.20001220703</ele>
        <time>2021-09-03T13:09:16Z</time>
      </trkpt>
      <trkpt lat="44.12676" lon="5.89424">
        <ele>794</ele>
        <time>2021-09-03T13:09:22Z</time>
      </trkpt>
      <trkpt lat="44.12677" lon="5.89417">
        <ele>794.40002441406</ele>
        <time>2021-09-03T13:09:25Z</time>
      </trkpt>
      <trkpt lat="44.12676" lon="5.89407">
        <ele>794.79998779297</ele>
        <time>2021-09-03T13:09:29Z</time>
      </trkpt>
      <trkpt lat="44.12677" lon="5.89397">
        <ele>795.40002441406</ele>
        <time>2021-09-03T13:09:33Z</time>
      </trkpt>
      <trkpt lat="44.12677" lon="5.89389">
        <ele>795.79998779297</ele>
        <time>2021-09-03T13:09:36Z</time>
      </trkpt>
      <trkpt lat="44.12675" lon="5.89377">
        <ele>796.59997558594</ele>
        <time>2021-09-03T13:09:41Z</time>
      </trkpt>
      <trkpt lat="44.12674" lon="5.8937">
        <ele>797</ele>
        <time>2021-09-03T13:09:44Z</time>
      </trkpt>
      <trkpt lat="44.12672" lon="5.89361">
        <ele>797.59997558594</ele>
        <time>2021-09-03T13:09:48Z</time>
      </trkpt>
      <trkpt lat="44.12668" lon="5.89345">
        <ele>798.40002441406</ele>
        <time>2021-09-03T13:09:54Z</time>
      </trkpt>
      <trkpt lat="44.12665" lon="5.89337">
        <ele>798.59997558594</ele>
        <time>2021-09-03T13:09:57Z</time>
      </trkpt>
      <trkpt lat="44.12661" lon="5.89327">
        <ele>799</ele>
        <time>2021-09-03T13:10:00Z</time>
      </trkpt>
      <trkpt lat="44.12646" lon="5.89303">
        <ele>799</ele>
        <time>2021-09-03T13:10:07Z</time>
      </trkpt>
      <trkpt lat="44.12624" lon="5.89274">
        <ele>799.20001220703</ele>
        <time>2021-09-03T13:10:16Z</time>
      </trkpt>
      <trkpt lat="44.12608" lon="5.89253">
        <ele>799.59997558594</ele>
        <time>2021-09-03T13:10:23Z</time>
      </trkpt>
      <trkpt lat="44.12591" lon="5.89233">
        <ele>800.20001220703</ele>
        <time>2021-09-03T13:10:30Z</time>
      </trkpt>
      <trkpt lat="44.12572" lon="5.89209">
        <ele>800.40002441406</ele>
        <time>2021-09-03T13:10:38Z</time>
      </trkpt>
      <trkpt lat="44.12564" lon="5.89201">
        <ele>800.79998779297</ele>
        <time>2021-09-03T13:10:42Z</time>
      </trkpt>
      <trkpt lat="44.12559" lon="5.89195">
        <ele>801</ele>
        <time>2021-09-03T13:10:45Z</time>
      </trkpt>
      <trkpt lat="44.12552" lon="5.89185">
        <ele>801.79998779297</ele>
        <time>2021-09-03T13:10:51Z</time>
      </trkpt>
      <trkpt lat="44.12548" lon="5.89181">
        <ele>802.59997558594</ele>
        <time>2021-09-03T13:10:54Z</time>
      </trkpt>
      <trkpt lat="44.12545" lon="5.89179">
        <ele>803</ele>
        <time>2021-09-03T13:10:56Z</time>
      </trkpt>
      <trkpt lat="44.12541" lon="5.89173">
        <ele>803.59997558594</ele>
        <time>2021-09-03T13:11:00Z</time>
      </trkpt>
      <trkpt lat="44.12538" lon="5.89169">
        <ele>804</ele>
        <time>2021-09-03T13:11:03Z</time>
      </trkpt>
      <trkpt lat="44.12535" lon="5.89165">
        <ele>804.59997558594</ele>
        <time>2021-09-03T13:11:06Z</time>
      </trkpt>
      <trkpt lat="44.1253" lon="5.89159">
        <ele>805.20001220703</ele>
        <time>2021-09-03T13:11:10Z</time>
      </trkpt>
      <trkpt lat="44.12524" lon="5.89152">
        <ele>806.20001220703</ele>
        <time>2021-09-03T13:11:15Z</time>
      </trkpt>
      <trkpt lat="44.12523" lon="5.8915">
        <ele>806.20001220703</ele>
        <time>2021-09-03T13:11:16Z</time>
      </trkpt>
      <trkpt lat="44.12516" lon="5.89141">
        <ele>807.20001220703</ele>
        <time>2021-09-03T13:11:22Z</time>
      </trkpt>
      <trkpt lat="44.12509" lon="5.89125">
        <ele>808.40002441406</ele>
        <time>2021-09-03T13:11:30Z</time>
      </trkpt>
      <trkpt lat="44.12507" lon="5.89107">
        <ele>809</ele>
        <time>2021-09-03T13:11:37Z</time>
      </trkpt>
      <trkpt lat="44.1251" lon="5.89096">
        <ele>809.40002441406</ele>
        <time>2021-09-03T13:11:41Z</time>
      </trkpt>
      <trkpt lat="44.12513" lon="5.89092">
        <ele>809.79998779297</ele>
        <time>2021-09-03T13:11:43Z</time>
      </trkpt>
      <trkpt lat="44.12527" lon="5.89083">
        <ele>810.40002441406</ele>
        <time>2021-09-03T13:11:50Z</time>
      </trkpt>
      <trkpt lat="44.12529" lon="5.89082">
        <ele>810.59997558594</ele>
        <time>2021-09-03T13:11:51Z</time>
      </trkpt>
      <trkpt lat="44.12538" lon="5.89077">
        <ele>811.20001220703</ele>
        <time>2021-09-03T13:11:56Z</time>
      </trkpt>
      <trkpt lat="44.12544" lon="5.89074">
        <ele>811.59997558594</ele>
        <time>2021-09-03T13:11:59Z</time>
      </trkpt>
      <trkpt lat="44.12553" lon="5.8907">
        <ele>812.40002441406</ele>
        <time>2021-09-03T13:12:04Z</time>
      </trkpt>
      <trkpt lat="44.12557" lon="5.89068">
        <ele>812.79998779297</ele>
        <time>2021-09-03T13:12:06Z</time>
      </trkpt>
      <trkpt lat="44.12567" lon="5.89063">
        <ele>813.40002441406</ele>
        <time>2021-09-03T13:12:11Z</time>
      </trkpt>
      <trkpt lat="44.12574" lon="5.89059">
        <ele>813.79998779297</ele>
        <time>2021-09-03T13:12:14Z</time>
      </trkpt>
      <trkpt lat="44.12587" lon="5.89051">
        <ele>814.59997558594</ele>
        <time>2021-09-03T13:12:20Z</time>
      </trkpt>
      <trkpt lat="44.12596" lon="5.89046">
        <ele>814.79998779297</ele>
        <time>2021-09-03T13:12:24Z</time>
      </trkpt>
      <trkpt lat="44.12604" lon="5.89043">
        <ele>815.20001220703</ele>
        <time>2021-09-03T13:12:27Z</time>
      </trkpt>
      <trkpt lat="44.12623" lon="5.89037">
        <ele>815.79998779297</ele>
        <time>2021-09-03T13:12:34Z</time>
      </trkpt>
      <trkpt lat="44.12648" lon="5.89035">
        <ele>815.79998779297</ele>
        <time>2021-09-03T13:12:41Z</time>
      </trkpt>
      <trkpt lat="44.12675" lon="5.8903">
        <ele>815.79998779297</ele>
        <time>2021-09-03T13:12:48Z</time>
      </trkpt>
      <trkpt lat="44.12691" lon="5.89029">
        <ele>816</ele>
        <time>2021-09-03T13:12:52Z</time>
      </trkpt>
      <trkpt lat="44.12708" lon="5.89028">
        <ele>816</ele>
        <time>2021-09-03T13:12:56Z</time>
      </trkpt>
      <trkpt lat="44.12717" lon="5.89029">
        <ele>816</ele>
        <time>2021-09-03T13:12:58Z</time>
      </trkpt>
      <trkpt lat="44.12733" lon="5.89032">
        <ele>816</ele>
        <time>2021-09-03T13:13:02Z</time>
      </trkpt>
      <trkpt lat="44.12749" lon="5.89028">
        <ele>816.40002441406</ele>
        <time>2021-09-03T13:13:07Z</time>
      </trkpt>
      <trkpt lat="44.12757" lon="5.89013">
        <ele>817</ele>
        <time>2021-09-03T13:13:12Z</time>
      </trkpt>
      <trkpt lat="44.12754" lon="5.88996">
        <ele>817.79998779297</ele>
        <time>2021-09-03T13:13:17Z</time>
      </trkpt>
      <trkpt lat="44.12749" lon="5.88991">
        <ele>818.20001220703</ele>
        <time>2021-09-03T13:13:19Z</time>
      </trkpt>
      <trkpt lat="44.12741" lon="5.88984">
        <ele>818.59997558594</ele>
        <time>2021-09-03T13:13:23Z</time>
      </trkpt>
      <trkpt lat="44.12726" lon="5.88977">
        <ele>819.20001220703</ele>
        <time>2021-09-03T13:13:29Z</time>
      </trkpt>
      <trkpt lat="44.12721" lon="5.88975">
        <ele>819.40002441406</ele>
        <time>2021-09-03T13:13:31Z</time>
      </trkpt>
      <trkpt lat="44.12708" lon="5.88962">
        <ele>820.20001220703</ele>
        <time>2021-09-03T13:13:38Z</time>
      </trkpt>
      <trkpt lat="44.12707" lon="5.8896">
        <ele>820.40002441406</ele>
        <time>2021-09-03T13:13:39Z</time>
      </trkpt>
      <trkpt lat="44.12701" lon="5.8894">
        <ele>821.40002441406</ele>
        <time>2021-09-03T13:13:46Z</time>
      </trkpt>
      <trkpt lat="44.12704" lon="5.8892">
        <ele>822.40002441406</ele>
        <time>2021-09-03T13:13:54Z</time>
      </trkpt>
      <trkpt lat="44.12704" lon="5.88917">
        <ele>822.59997558594</ele>
        <time>2021-09-03T13:13:55Z</time>
      </trkpt>
      <trkpt lat="44.12706" lon="5.88902">
        <ele>823.59997558594</ele>
        <time>2021-09-03T13:14:01Z</time>
      </trkpt>
      <trkpt lat="44.12706" lon="5.88898">
        <ele>823.79998779297</ele>
        <time>2021-09-03T13:14:03Z</time>
      </trkpt>
      <trkpt lat="44.12705" lon="5.88888">
        <ele>824.59997558594</ele>
        <time>2021-09-03T13:14:07Z</time>
      </trkpt>
      <trkpt lat="44.12704" lon="5.8888">
        <ele>825</ele>
        <time>2021-09-03T13:14:10Z</time>
      </trkpt>
      <trkpt lat="44.12702" lon="5.88866">
        <ele>825.59997558594</ele>
        <time>2021-09-03T13:14:16Z</time>
      </trkpt>
      <trkpt lat="44.12701" lon="5.88863">
        <ele>825.79998779297</ele>
        <time>2021-09-03T13:14:17Z</time>
      </trkpt>
      <trkpt lat="44.12697" lon="5.88845">
        <ele>826.40002441406</ele>
        <time>2021-09-03T13:14:25Z</time>
      </trkpt>
      <trkpt lat="44.12697" lon="5.88843">
        <ele>826.59997558594</ele>
        <time>2021-09-03T13:14:26Z</time>
      </trkpt>
      <trkpt lat="44.12693" lon="5.88825">
        <ele>827.59997558594</ele>
        <time>2021-09-03T13:14:33Z</time>
      </trkpt>
      <trkpt lat="44.12692" lon="5.88822">
        <ele>827.79998779297</ele>
        <time>2021-09-03T13:14:34Z</time>
      </trkpt>
      <trkpt lat="44.12686" lon="5.88809">
        <ele>828.40002441406</ele>
        <time>2021-09-03T13:14:40Z</time>
      </trkpt>
      <trkpt lat="44.12682" lon="5.88801">
        <ele>828.79998779297</ele>
        <time>2021-09-03T13:14:43Z</time>
      </trkpt>
      <trkpt lat="44.12679" lon="5.88796">
        <ele>829</ele>
        <time>2021-09-03T13:14:45Z</time>
      </trkpt>
      <trkpt lat="44.1267" lon="5.88787">
        <ele>829.79998779297</ele>
        <time>2021-09-03T13:14:51Z</time>
      </trkpt>
      <trkpt lat="44.12655" lon="5.88776">
        <ele>831</ele>
        <time>2021-09-03T13:14:59Z</time>
      </trkpt>
      <trkpt lat="44.12639" lon="5.88768">
        <ele>831.79998779297</ele>
        <time>2021-09-03T13:15:07Z</time>
      </trkpt>
      <trkpt lat="44.12637" lon="5.88767">
        <ele>832</ele>
        <time>2021-09-03T13:15:08Z</time>
      </trkpt>
      <trkpt lat="44.12625" lon="5.88756">
        <ele>832.79998779297</ele>
        <time>2021-09-03T13:15:15Z</time>
      </trkpt>
      <trkpt lat="44.12621" lon="5.88754">
        <ele>833.20001220703</ele>
        <time>2021-09-03T13:15:17Z</time>
      </trkpt>
      <trkpt lat="44.12615" lon="5.88751">
        <ele>833.79998779297</ele>
        <time>2021-09-03T13:15:20Z</time>
      </trkpt>
      <trkpt lat="44.12606" lon="5.88747">
        <ele>834.20001220703</ele>
        <time>2021-09-03T13:15:24Z</time>
      </trkpt>
      <trkpt lat="44.12599" lon="5.88738">
        <ele>834.79998779297</ele>
        <time>2021-09-03T13:15:28Z</time>
      </trkpt>
      <trkpt lat="44.12595" lon="5.88732">
        <ele>835.20001220703</ele>
        <time>2021-09-03T13:15:31Z</time>
      </trkpt>
      <trkpt lat="44.12588" lon="5.88723">
        <ele>835.79998779297</ele>
        <time>2021-09-03T13:15:35Z</time>
      </trkpt>
      <trkpt lat="44.12579" lon="5.88713">
        <ele>836.40002441406</ele>
        <time>2021-09-03T13:15:40Z</time>
      </trkpt>
      <trkpt lat="44.12574" lon="5.88708">
        <ele>836.79998779297</ele>
        <time>2021-09-03T13:15:43Z</time>
      </trkpt>
      <trkpt lat="44.12566" lon="5.88698">
        <ele>837.40002441406</ele>
        <time>2021-09-03T13:15:48Z</time>
      </trkpt>
      <trkpt lat="44.12561" lon="5.88693">
        <ele>837.79998779297</ele>
        <time>2021-09-03T13:15:51Z</time>
      </trkpt>
      <trkpt lat="44.1255" lon="5.88679">
        <ele>838.40002441406</ele>
        <time>2021-09-03T13:15:58Z</time>
      </trkpt>
      <trkpt lat="44.12547" lon="5.88676">
        <ele>838.59997558594</ele>
        <time>2021-09-03T13:16:00Z</time>
      </trkpt>
      <trkpt lat="44.12536" lon="5.88664">
        <ele>839.40002441406</ele>
        <time>2021-09-03T13:16:07Z</time>
      </trkpt>
      <trkpt lat="44.12532" lon="5.8866">
        <ele>839.59997558594</ele>
        <time>2021-09-03T13:16:09Z</time>
      </trkpt>
      <trkpt lat="44.12516" lon="5.8865">
        <ele>840.40002441406</ele>
        <time>2021-09-03T13:16:17Z</time>
      </trkpt>
      <trkpt lat="44.12514" lon="5.88649">
        <ele>840.40002441406</ele>
        <time>2021-09-03T13:16:18Z</time>
      </trkpt>
      <trkpt lat="44.12498" lon="5.88644">
        <ele>841.20001220703</ele>
        <time>2021-09-03T13:16:25Z</time>
      </trkpt>
      <trkpt lat="44.12493" lon="5.88643">
        <ele>841.40002441406</ele>
        <time>2021-09-03T13:16:27Z</time>
      </trkpt>
      <trkpt lat="44.12479" lon="5.88639">
        <ele>842.20001220703</ele>
        <time>2021-09-03T13:16:32Z</time>
      </trkpt>
      <trkpt lat="44.12468" lon="5.88633">
        <ele>842.59997558594</ele>
        <time>2021-09-03T13:16:36Z</time>
      </trkpt>
      <trkpt lat="44.12456" lon="5.88625">
        <ele>842.59997558594</ele>
        <time>2021-09-03T13:16:40Z</time>
      </trkpt>
      <trkpt lat="44.12432" lon="5.88602">
        <ele>843</ele>
        <time>2021-09-03T13:16:48Z</time>
      </trkpt>
      <trkpt lat="44.12416" lon="5.88575">
        <ele>843.40002441406</ele>
        <time>2021-09-03T13:16:55Z</time>
      </trkpt>
      <trkpt lat="44.12415" lon="5.88566">
        <ele>843.59997558594</ele>
        <time>2021-09-03T13:16:57Z</time>
      </trkpt>
      <trkpt lat="44.12416" lon="5.88558">
        <ele>843.79998779297</ele>
        <time>2021-09-03T13:16:59Z</time>
      </trkpt>
      <trkpt lat="44.12422" lon="5.88548">
        <ele>844</ele>
        <time>2021-09-03T13:17:02Z</time>
      </trkpt>
      <trkpt lat="44.12425" lon="5.88547">
        <ele>844.20001220703</ele>
        <time>2021-09-03T13:17:03Z</time>
      </trkpt>
      <trkpt lat="44.12436" lon="5.88548">
        <ele>844.59997558594</ele>
        <time>2021-09-03T13:17:07Z</time>
      </trkpt>
      <trkpt lat="44.12438" lon="5.88549">
        <ele>844.79998779297</ele>
        <time>2021-09-03T13:17:08Z</time>
      </trkpt>
      <trkpt lat="44.12441" lon="5.8855">
        <ele>845</ele>
        <time>2021-09-03T13:17:09Z</time>
      </trkpt>
      <trkpt lat="44.12447" lon="5.88553">
        <ele>845.59997558594</ele>
        <time>2021-09-03T13:17:12Z</time>
      </trkpt>
      <trkpt lat="44.12453" lon="5.88555">
        <ele>846</ele>
        <time>2021-09-03T13:17:15Z</time>
      </trkpt>
      <trkpt lat="44.12459" lon="5.88556">
        <ele>846.79998779297</ele>
        <time>2021-09-03T13:17:18Z</time>
      </trkpt>
      <trkpt lat="44.12461" lon="5.88555">
        <ele>846.79998779297</ele>
        <time>2021-09-03T13:17:19Z</time>
      </trkpt>
      <trkpt lat="44.12466" lon="5.88552">
        <ele>847.20001220703</ele>
        <time>2021-09-03T13:17:21Z</time>
      </trkpt>
      <trkpt lat="44.12474" lon="5.88539">
        <ele>847.79998779297</ele>
        <time>2021-09-03T13:17:26Z</time>
      </trkpt>
      <trkpt lat="44.12477" lon="5.8853">
        <ele>848.20001220703</ele>
        <time>2021-09-03T13:17:29Z</time>
      </trkpt>
      <trkpt lat="44.12481" lon="5.88512">
        <ele>848.79998779297</ele>
        <time>2021-09-03T13:17:35Z</time>
      </trkpt>
      <trkpt lat="44.12482" lon="5.88509">
        <ele>848.79998779297</ele>
        <time>2021-09-03T13:17:36Z</time>
      </trkpt>
      <trkpt lat="44.12489" lon="5.88495">
        <ele>849.59997558594</ele>
        <time>2021-09-03T13:17:42Z</time>
      </trkpt>
      <trkpt lat="44.1249" lon="5.88492">
        <ele>850</ele>
        <time>2021-09-03T13:17:43Z</time>
      </trkpt>
      <trkpt lat="44.125" lon="5.88478">
        <ele>851</ele>
        <time>2021-09-03T13:17:50Z</time>
      </trkpt>
      <trkpt lat="44.1251" lon="5.88463">
        <ele>852</ele>
        <time>2021-09-03T13:17:58Z</time>
      </trkpt>
      <trkpt lat="44.12516" lon="5.88445">
        <ele>853.20001220703</ele>
        <time>2021-09-03T13:18:06Z</time>
      </trkpt>
      <trkpt lat="44.12518" lon="5.88427">
        <ele>854.20001220703</ele>
        <time>2021-09-03T13:18:13Z</time>
      </trkpt>
      <trkpt lat="44.12516" lon="5.88411">
        <ele>855.20001220703</ele>
        <time>2021-09-03T13:18:20Z</time>
      </trkpt>
      <trkpt lat="44.12515" lon="5.88408">
        <ele>855.40002441406</ele>
        <time>2021-09-03T13:18:21Z</time>
      </trkpt>
      <trkpt lat="44.12512" lon="5.88389">
        <ele>856.40002441406</ele>
        <time>2021-09-03T13:18:28Z</time>
      </trkpt>
      <trkpt lat="44.12512" lon="5.88386">
        <ele>856.59997558594</ele>
        <time>2021-09-03T13:18:29Z</time>
      </trkpt>
      <trkpt lat="44.12509" lon="5.88371">
        <ele>857.40002441406</ele>
        <time>2021-09-03T13:18:35Z</time>
      </trkpt>
      <trkpt lat="44.12508" lon="5.88369">
        <ele>857.59997558594</ele>
        <time>2021-09-03T13:18:36Z</time>
      </trkpt>
      <trkpt lat="44.12504" lon="5.88357">
        <ele>858.20001220703</ele>
        <time>2021-09-03T13:18:41Z</time>
      </trkpt>
      <trkpt lat="44.12502" lon="5.88353">
        <ele>858.59997558594</ele>
        <time>2021-09-03T13:18:43Z</time>
      </trkpt>
      <trkpt lat="44.12502" lon="5.8835">
        <ele>858.59997558594</ele>
        <time>2021-09-03T13:18:44Z</time>
      </trkpt>
      <trkpt lat="44.12498" lon="5.88341">
        <ele>859.20001220703</ele>
        <time>2021-09-03T13:18:48Z</time>
      </trkpt>
      <trkpt lat="44.12497" lon="5.88332">
        <ele>859.59997558594</ele>
        <time>2021-09-03T13:18:51Z</time>
      </trkpt>
      <trkpt lat="44.12496" lon="5.88324">
        <ele>860</ele>
        <time>2021-09-03T13:18:54Z</time>
      </trkpt>
      <trkpt lat="44.12496" lon="5.88322">
        <ele>860.40002441406</ele>
        <time>2021-09-03T13:18:55Z</time>
      </trkpt>
      <trkpt lat="44.12494" lon="5.88314">
        <ele>860.79998779297</ele>
        <time>2021-09-03T13:18:58Z</time>
      </trkpt>
      <trkpt lat="44.12492" lon="5.88301">
        <ele>861.40002441406</ele>
        <time>2021-09-03T13:19:03Z</time>
      </trkpt>
      <trkpt lat="44.12491" lon="5.88296">
        <ele>861.79998779297</ele>
        <time>2021-09-03T13:19:05Z</time>
      </trkpt>
      <trkpt lat="44.12491" lon="5.88291">
        <ele>862</ele>
        <time>2021-09-03T13:19:07Z</time>
      </trkpt>
      <trkpt lat="44.12492" lon="5.88285">
        <ele>862.40002441406</ele>
        <time>2021-09-03T13:19:09Z</time>
      </trkpt>
      <trkpt lat="44.12492" lon="5.88274">
        <ele>863</ele>
        <time>2021-09-03T13:19:13Z</time>
      </trkpt>
      <trkpt lat="44.12492" lon="5.88269">
        <ele>863</ele>
        <time>2021-09-03T13:19:15Z</time>
      </trkpt>
      <trkpt lat="44.12492" lon="5.88255">
        <ele>864</ele>
        <time>2021-09-03T13:19:21Z</time>
      </trkpt>
      <trkpt lat="44.12492" lon="5.88253">
        <ele>864.20001220703</ele>
        <time>2021-09-03T13:19:22Z</time>
      </trkpt>
      <trkpt lat="44.12488" lon="5.88235">
        <ele>865.20001220703</ele>
        <time>2021-09-03T13:19:29Z</time>
      </trkpt>
      <trkpt lat="44.12487" lon="5.88233">
        <ele>865.40002441406</ele>
        <time>2021-09-03T13:19:30Z</time>
      </trkpt>
      <trkpt lat="44.1248" lon="5.88215">
        <ele>866.20001220703</ele>
        <time>2021-09-03T13:19:38Z</time>
      </trkpt>
      <trkpt lat="44.12473" lon="5.88205">
        <ele>867.40002441406</ele>
        <time>2021-09-03T13:19:44Z</time>
      </trkpt>
      <trkpt lat="44.1246" lon="5.88191">
        <ele>868.40002441406</ele>
        <time>2021-09-03T13:19:52Z</time>
      </trkpt>
      <trkpt lat="44.12452" lon="5.88174">
        <ele>869.20001220703</ele>
        <time>2021-09-03T13:19:58Z</time>
      </trkpt>
      <trkpt lat="44.12451" lon="5.88168">
        <ele>869.40002441406</ele>
        <time>2021-09-03T13:20:00Z</time>
      </trkpt>
      <trkpt lat="44.12449" lon="5.88153">
        <ele>870</ele>
        <time>2021-09-03T13:20:05Z</time>
      </trkpt>
      <trkpt lat="44.12448" lon="5.88145">
        <ele>870.40002441406</ele>
        <time>2021-09-03T13:20:08Z</time>
      </trkpt>
      <trkpt lat="44.12447" lon="5.88132">
        <ele>871.20001220703</ele>
        <time>2021-09-03T13:20:13Z</time>
      </trkpt>
      <trkpt lat="44.12446" lon="5.88125">
        <ele>871.59997558594</ele>
        <time>2021-09-03T13:20:16Z</time>
      </trkpt>
      <trkpt lat="44.12444" lon="5.88109">
        <ele>872.40002441406</ele>
        <time>2021-09-03T13:20:22Z</time>
      </trkpt>
      <trkpt lat="44.12443" lon="5.88101">
        <ele>872.59997558594</ele>
        <time>2021-09-03T13:20:25Z</time>
      </trkpt>
      <trkpt lat="44.12444" lon="5.88088">
        <ele>873</ele>
        <time>2021-09-03T13:20:30Z</time>
      </trkpt>
      <trkpt lat="44.12448" lon="5.88079">
        <ele>873.59997558594</ele>
        <time>2021-09-03T13:20:34Z</time>
      </trkpt>
      <trkpt lat="44.12451" lon="5.88076">
        <ele>873.79998779297</ele>
        <time>2021-09-03T13:20:36Z</time>
      </trkpt>
      <trkpt lat="44.12463" lon="5.88069">
        <ele>874.59997558594</ele>
        <time>2021-09-03T13:20:42Z</time>
      </trkpt>
      <trkpt lat="44.12467" lon="5.88068">
        <ele>874.79998779297</ele>
        <time>2021-09-03T13:20:44Z</time>
      </trkpt>
      <trkpt lat="44.1248" lon="5.88067">
        <ele>875.79998779297</ele>
        <time>2021-09-03T13:20:51Z</time>
      </trkpt>
      <trkpt lat="44.12491" lon="5.88067">
        <ele>876.79998779297</ele>
        <time>2021-09-03T13:20:57Z</time>
      </trkpt>
      <trkpt lat="44.12503" lon="5.88054">
        <ele>877.59997558594</ele>
        <time>2021-09-03T13:21:05Z</time>
      </trkpt>
      <trkpt lat="44.12504" lon="5.88052">
        <ele>877.79998779297</ele>
        <time>2021-09-03T13:21:06Z</time>
      </trkpt>
      <trkpt lat="44.12507" lon="5.88038">
        <ele>878.59997558594</ele>
        <time>2021-09-03T13:21:12Z</time>
      </trkpt>
      <trkpt lat="44.12508" lon="5.88036">
        <ele>878.79998779297</ele>
        <time>2021-09-03T13:21:13Z</time>
      </trkpt>
      <trkpt lat="44.12511" lon="5.8802">
        <ele>879.79998779297</ele>
        <time>2021-09-03T13:21:20Z</time>
      </trkpt>
      <trkpt lat="44.12511" lon="5.88018">
        <ele>880</ele>
        <time>2021-09-03T13:21:21Z</time>
      </trkpt>
      <trkpt lat="44.12511" lon="5.88001">
        <ele>880.79998779297</ele>
        <time>2021-09-03T13:21:28Z</time>
      </trkpt>
      <trkpt lat="44.12511" lon="5.87999">
        <ele>881</ele>
        <time>2021-09-03T13:21:29Z</time>
      </trkpt>
      <trkpt lat="44.12512" lon="5.87985">
        <ele>881.79998779297</ele>
        <time>2021-09-03T13:21:35Z</time>
      </trkpt>
      <trkpt lat="44.12512" lon="5.87981">
        <ele>882</ele>
        <time>2021-09-03T13:21:37Z</time>
      </trkpt>
      <trkpt lat="44.12513" lon="5.87967">
        <ele>882.79998779297</ele>
        <time>2021-09-03T13:21:43Z</time>
      </trkpt>
      <trkpt lat="44.12513" lon="5.87963">
        <ele>883.20001220703</ele>
        <time>2021-09-03T13:21:45Z</time>
      </trkpt>
      <trkpt lat="44.12513" lon="5.87949">
        <ele>883.79998779297</ele>
        <time>2021-09-03T13:21:51Z</time>
      </trkpt>
      <trkpt lat="44.12514" lon="5.87942">
        <ele>884.20001220703</ele>
        <time>2021-09-03T13:21:54Z</time>
      </trkpt>
      <trkpt lat="44.12514" lon="5.87934">
        <ele>884.79998779297</ele>
        <time>2021-09-03T13:21:58Z</time>
      </trkpt>
      <trkpt lat="44.12515" lon="5.87924">
        <ele>885.20001220703</ele>
        <time>2021-09-03T13:22:02Z</time>
      </trkpt>
      <trkpt lat="44.12515" lon="5.87919">
        <ele>885.59997558594</ele>
        <time>2021-09-03T13:22:04Z</time>
      </trkpt>
      <trkpt lat="44.12514" lon="5.8791">
        <ele>886.20001220703</ele>
        <time>2021-09-03T13:22:08Z</time>
      </trkpt>
      <trkpt lat="44.12514" lon="5.87901">
        <ele>886.79998779297</ele>
        <time>2021-09-03T13:22:12Z</time>
      </trkpt>
      <trkpt lat="44.12513" lon="5.87892">
        <ele>887.40002441406</ele>
        <time>2021-09-03T13:22:16Z</time>
      </trkpt>
      <trkpt lat="44.12512" lon="5.87888">
        <ele>887.40002441406</ele>
        <time>2021-09-03T13:22:18Z</time>
      </trkpt>
      <trkpt lat="44.12512" lon="5.87875">
        <ele>888.20001220703</ele>
        <time>2021-09-03T13:22:24Z</time>
      </trkpt>
      <trkpt lat="44.12512" lon="5.87873">
        <ele>888.40002441406</ele>
        <time>2021-09-03T13:22:25Z</time>
      </trkpt>
      <trkpt lat="44.1251" lon="5.87863">
        <ele>889.20001220703</ele>
        <time>2021-09-03T13:22:30Z</time>
      </trkpt>
      <trkpt lat="44.12509" lon="5.87861">
        <ele>889.40002441406</ele>
        <time>2021-09-03T13:22:31Z</time>
      </trkpt>
      <trkpt lat="44.12507" lon="5.87846">
        <ele>890.20001220703</ele>
        <time>2021-09-03T13:22:37Z</time>
      </trkpt>
      <trkpt lat="44.12505" lon="5.87839">
        <ele>890.40002441406</ele>
        <time>2021-09-03T13:22:40Z</time>
      </trkpt>
      <trkpt lat="44.12498" lon="5.87824">
        <ele>891</ele>
        <time>2021-09-03T13:22:48Z</time>
      </trkpt>
      <trkpt lat="44.12494" lon="5.87819">
        <ele>891.59997558594</ele>
        <time>2021-09-03T13:22:51Z</time>
      </trkpt>
      <trkpt lat="44.12488" lon="5.87812">
        <ele>892.20001220703</ele>
        <time>2021-09-03T13:22:55Z</time>
      </trkpt>
      <trkpt lat="44.12483" lon="5.87805">
        <ele>892.59997558594</ele>
        <time>2021-09-03T13:23:00Z</time>
      </trkpt>
      <trkpt lat="44.1248" lon="5.87803">
        <ele>892.79998779297</ele>
        <time>2021-09-03T13:23:02Z</time>
      </trkpt>
      <trkpt lat="44.12477" lon="5.87801">
        <ele>893</ele>
        <time>2021-09-03T13:23:04Z</time>
      </trkpt>
      <trkpt lat="44.12467" lon="5.87796">
        <ele>893.59997558594</ele>
        <time>2021-09-03T13:23:10Z</time>
      </trkpt>
      <trkpt lat="44.12465" lon="5.87796">
        <ele>893.59997558594</ele>
        <time>2021-09-03T13:23:11Z</time>
      </trkpt>
      <trkpt lat="44.12458" lon="5.87792">
        <ele>894</ele>
        <time>2021-09-03T13:23:15Z</time>
      </trkpt>
      <trkpt lat="44.12452" lon="5.87787">
        <ele>894.79998779297</ele>
        <time>2021-09-03T13:23:19Z</time>
      </trkpt>
      <trkpt lat="44.12447" lon="5.87785">
        <ele>895.20001220703</ele>
        <time>2021-09-03T13:23:22Z</time>
      </trkpt>
      <trkpt lat="44.12442" lon="5.87781">
        <ele>895.79998779297</ele>
        <time>2021-09-03T13:23:25Z</time>
      </trkpt>
      <trkpt lat="44.12436" lon="5.87777">
        <ele>896.20001220703</ele>
        <time>2021-09-03T13:23:28Z</time>
      </trkpt>
      <trkpt lat="44.12428" lon="5.87773">
        <ele>896.79998779297</ele>
        <time>2021-09-03T13:23:32Z</time>
      </trkpt>
      <trkpt lat="44.1242" lon="5.87767">
        <ele>897.40002441406</ele>
        <time>2021-09-03T13:23:36Z</time>
      </trkpt>
      <trkpt lat="44.12415" lon="5.87758">
        <ele>898</ele>
        <time>2021-09-03T13:23:40Z</time>
      </trkpt>
      <trkpt lat="44.12413" lon="5.87749">
        <ele>898.40002441406</ele>
        <time>2021-09-03T13:23:43Z</time>
      </trkpt>
      <trkpt lat="44.12411" lon="5.87739">
        <ele>898.59997558594</ele>
        <time>2021-09-03T13:23:47Z</time>
      </trkpt>
      <trkpt lat="44.1241" lon="5.87734">
        <ele>899</ele>
        <time>2021-09-03T13:23:49Z</time>
      </trkpt>
      <trkpt lat="44.12409" lon="5.87732">
        <ele>899</ele>
        <time>2021-09-03T13:23:50Z</time>
      </trkpt>
      <trkpt lat="44.12402" lon="5.87717">
        <ele>900</ele>
        <time>2021-09-03T13:23:57Z</time>
      </trkpt>
      <trkpt lat="44.12398" lon="5.87714">
        <ele>900.20001220703</ele>
        <time>2021-09-03T13:23:59Z</time>
      </trkpt>
      <trkpt lat="44.12386" lon="5.87704">
        <ele>900.59997558594</ele>
        <time>2021-09-03T13:24:05Z</time>
      </trkpt>
      <trkpt lat="44.12381" lon="5.87699">
        <ele>901.20001220703</ele>
        <time>2021-09-03T13:24:08Z</time>
      </trkpt>
      <trkpt lat="44.12374" lon="5.87693">
        <ele>901.59997558594</ele>
        <time>2021-09-03T13:24:12Z</time>
      </trkpt>
      <trkpt lat="44.12367" lon="5.87682">
        <ele>902.20001220703</ele>
        <time>2021-09-03T13:24:17Z</time>
      </trkpt>
      <trkpt lat="44.12364" lon="5.87677">
        <ele>902.40002441406</ele>
        <time>2021-09-03T13:24:19Z</time>
      </trkpt>
      <trkpt lat="44.12363" lon="5.87661">
        <ele>902.79998779297</ele>
        <time>2021-09-03T13:24:24Z</time>
      </trkpt>
      <trkpt lat="44.12366" lon="5.87656">
        <ele>902.79998779297</ele>
        <time>2021-09-03T13:24:27Z</time>
      </trkpt>
      <trkpt lat="44.12367" lon="5.87655">
        <ele>903</ele>
        <time>2021-09-03T13:24:28Z</time>
      </trkpt>
      <trkpt lat="44.12373" lon="5.87654">
        <ele>903.20001220703</ele>
        <time>2021-09-03T13:24:31Z</time>
      </trkpt>
      <trkpt lat="44.12375" lon="5.87654">
        <ele>903.20001220703</ele>
        <time>2021-09-03T13:24:32Z</time>
      </trkpt>
      <trkpt lat="44.12382" lon="5.87651">
        <ele>903.59997558594</ele>
        <time>2021-09-03T13:24:36Z</time>
      </trkpt>
      <trkpt lat="44.12396" lon="5.87649">
        <ele>903.59997558594</ele>
        <time>2021-09-03T13:24:43Z</time>
      </trkpt>
      <trkpt lat="44.12406" lon="5.87646">
        <ele>903.40002441406</ele>
        <time>2021-09-03T13:24:48Z</time>
      </trkpt>
      <trkpt lat="44.1242" lon="5.87644">
        <ele>903.59997558594</ele>
        <time>2021-09-03T13:24:54Z</time>
      </trkpt>
      <trkpt lat="44.12437" lon="5.87643">
        <ele>903.40002441406</ele>
        <time>2021-09-03T13:25:00Z</time>
      </trkpt>
      <trkpt lat="44.12454" lon="5.87639">
        <ele>903.40002441406</ele>
        <time>2021-09-03T13:25:05Z</time>
      </trkpt>
      <trkpt lat="44.12466" lon="5.87623">
        <ele>903.40002441406</ele>
        <time>2021-09-03T13:25:09Z</time>
      </trkpt>
      <trkpt lat="44.12477" lon="5.87593">
        <ele>902.59997558594</ele>
        <time>2021-09-03T13:25:15Z</time>
      </trkpt>
      <trkpt lat="44.12478" lon="5.87582">
        <ele>902.20001220703</ele>
        <time>2021-09-03T13:25:17Z</time>
      </trkpt>
      <trkpt lat="44.12481" lon="5.87552">
        <ele>901.59997558594</ele>
        <time>2021-09-03T13:25:22Z</time>
      </trkpt>
      <trkpt lat="44.12482" lon="5.87526">
        <ele>901</ele>
        <time>2021-09-03T13:25:26Z</time>
      </trkpt>
      <trkpt lat="44.12487" lon="5.875">
        <ele>900.40002441406</ele>
        <time>2021-09-03T13:25:30Z</time>
      </trkpt>
      <trkpt lat="44.12489" lon="5.87494">
        <ele>900.20001220703</ele>
        <time>2021-09-03T13:25:31Z</time>
      </trkpt>
      <trkpt lat="44.12491" lon="5.87489">
        <ele>900</ele>
        <time>2021-09-03T13:25:32Z</time>
      </trkpt>
      <trkpt lat="44.12496" lon="5.87481">
        <ele>899.79998779297</ele>
        <time>2021-09-03T13:25:34Z</time>
      </trkpt>
      <trkpt lat="44.12504" lon="5.87467">
        <ele>899.79998779297</ele>
        <time>2021-09-03T13:25:38Z</time>
      </trkpt>
      <trkpt lat="44.12507" lon="5.8746">
        <ele>900.20001220703</ele>
        <time>2021-09-03T13:25:40Z</time>
      </trkpt>
      <trkpt lat="44.12511" lon="5.87447">
        <ele>901</ele>
        <time>2021-09-03T13:25:44Z</time>
      </trkpt>
      <trkpt lat="44.12512" lon="5.87436">
        <ele>901.59997558594</ele>
        <time>2021-09-03T13:25:47Z</time>
      </trkpt>
      <trkpt lat="44.12514" lon="5.87423">
        <ele>902</ele>
        <time>2021-09-03T13:25:51Z</time>
      </trkpt>
      <trkpt lat="44.12517" lon="5.87407">
        <ele>902.79998779297</ele>
        <time>2021-09-03T13:25:56Z</time>
      </trkpt>
      <trkpt lat="44.12518" lon="5.87401">
        <ele>903.20001220703</ele>
        <time>2021-09-03T13:25:58Z</time>
      </trkpt>
      <trkpt lat="44.1252" lon="5.87383">
        <ele>904</ele>
        <time>2021-09-03T13:26:04Z</time>
      </trkpt>
      <trkpt lat="44.12521" lon="5.87377">
        <ele>904.20001220703</ele>
        <time>2021-09-03T13:26:06Z</time>
      </trkpt>
      <trkpt lat="44.1252" lon="5.87358">
        <ele>905.20001220703</ele>
        <time>2021-09-03T13:26:13Z</time>
      </trkpt>
      <trkpt lat="44.1252" lon="5.87356">
        <ele>905.40002441406</ele>
        <time>2021-09-03T13:26:14Z</time>
      </trkpt>
      <trkpt lat="44.12517" lon="5.87338">
        <ele>906.20001220703</ele>
        <time>2021-09-03T13:26:21Z</time>
      </trkpt>
      <trkpt lat="44.12516" lon="5.87335">
        <ele>906.40002441406</ele>
        <time>2021-09-03T13:26:22Z</time>
      </trkpt>
      <trkpt lat="44.12513" lon="5.87317">
        <ele>907</ele>
        <time>2021-09-03T13:26:29Z</time>
      </trkpt>
      <trkpt lat="44.12511" lon="5.8731">
        <ele>907.40002441406</ele>
        <time>2021-09-03T13:26:32Z</time>
      </trkpt>
      <trkpt lat="44.12511" lon="5.87298">
        <ele>907.79998779297</ele>
        <time>2021-09-03T13:26:36Z</time>
      </trkpt>
      <trkpt lat="44.12513" lon="5.87278">
        <ele>908.40002441406</ele>
        <time>2021-09-03T13:26:43Z</time>
      </trkpt>
      <trkpt lat="44.12513" lon="5.87276">
        <ele>908.40002441406</ele>
        <time>2021-09-03T13:26:44Z</time>
      </trkpt>
      <trkpt lat="44.12514" lon="5.87255">
        <ele>908.79998779297</ele>
        <time>2021-09-03T13:26:52Z</time>
      </trkpt>
      <trkpt lat="44.12518" lon="5.87231">
        <ele>909.40002441406</ele>
        <time>2021-09-03T13:27:00Z</time>
      </trkpt>
      <trkpt lat="44.12518" lon="5.87228">
        <ele>909.40002441406</ele>
        <time>2021-09-03T13:27:01Z</time>
      </trkpt>
      <trkpt lat="44.1252" lon="5.87212">
        <ele>910.20001220703</ele>
        <time>2021-09-03T13:27:07Z</time>
      </trkpt>
      <trkpt lat="44.1252" lon="5.87202">
        <ele>910.59997558594</ele>
        <time>2021-09-03T13:27:10Z</time>
      </trkpt>
      <trkpt lat="44.12522" lon="5.87189">
        <ele>911.20001220703</ele>
        <time>2021-09-03T13:27:14Z</time>
      </trkpt>
      <trkpt lat="44.12523" lon="5.87183">
        <ele>911.59997558594</ele>
        <time>2021-09-03T13:27:16Z</time>
      </trkpt>
      <trkpt lat="44.12525" lon="5.87163">
        <ele>912.59997558594</ele>
        <time>2021-09-03T13:27:22Z</time>
      </trkpt>
      <trkpt lat="44.12529" lon="5.87144">
        <ele>913.59997558594</ele>
        <time>2021-09-03T13:27:28Z</time>
      </trkpt>
      <trkpt lat="44.12529" lon="5.87141">
        <ele>913.59997558594</ele>
        <time>2021-09-03T13:27:29Z</time>
      </trkpt>
      <trkpt lat="44.12531" lon="5.87122">
        <ele>914.79998779297</ele>
        <time>2021-09-03T13:27:35Z</time>
      </trkpt>
      <trkpt lat="44.12532" lon="5.87119">
        <ele>915</ele>
        <time>2021-09-03T13:27:36Z</time>
      </trkpt>
      <trkpt lat="44.12532" lon="5.87104">
        <ele>915.59997558594</ele>
        <time>2021-09-03T13:27:41Z</time>
      </trkpt>
      <trkpt lat="44.12534" lon="5.87097">
        <ele>915.79998779297</ele>
        <time>2021-09-03T13:27:43Z</time>
      </trkpt>
      <trkpt lat="44.12536" lon="5.87077">
        <ele>916.20001220703</ele>
        <time>2021-09-03T13:27:49Z</time>
      </trkpt>
      <trkpt lat="44.12538" lon="5.87057">
        <ele>916.59997558594</ele>
        <time>2021-09-03T13:27:55Z</time>
      </trkpt>
      <trkpt lat="44.12536" lon="5.8705">
        <ele>916.59997558594</ele>
        <time>2021-09-03T13:27:57Z</time>
      </trkpt>
      <trkpt lat="44.12535" lon="5.87044">
        <ele>916.79998779297</ele>
        <time>2021-09-03T13:27:59Z</time>
      </trkpt>
      <trkpt lat="44.1253" lon="5.87031">
        <ele>917</ele>
        <time>2021-09-03T13:28:03Z</time>
      </trkpt>
      <trkpt lat="44.12529" lon="5.87027">
        <ele>917</ele>
        <time>2021-09-03T13:28:04Z</time>
      </trkpt>
      <trkpt lat="44.1252" lon="5.87011">
        <ele>917.40002441406</ele>
        <time>2021-09-03T13:28:09Z</time>
      </trkpt>
      <trkpt lat="44.12505" lon="5.86986">
        <ele>917.79998779297</ele>
        <time>2021-09-03T13:28:17Z</time>
      </trkpt>
      <trkpt lat="44.12484" lon="5.86974">
        <ele>917.59997558594</ele>
        <time>2021-09-03T13:28:24Z</time>
      </trkpt>
      <trkpt lat="44.1246" lon="5.86974">
        <ele>917.59997558594</ele>
        <time>2021-09-03T13:28:31Z</time>
      </trkpt>
      <trkpt lat="44.12444" lon="5.86963">
        <ele>917.79998779297</ele>
        <time>2021-09-03T13:28:36Z</time>
      </trkpt>
      <trkpt lat="44.12442" lon="5.86953">
        <ele>917.79998779297</ele>
        <time>2021-09-03T13:28:38Z</time>
      </trkpt>
      <trkpt lat="44.12444" lon="5.86948">
        <ele>918</ele>
        <time>2021-09-03T13:28:39Z</time>
      </trkpt>
      <trkpt lat="44.12454" lon="5.86923">
        <ele>918.20001220703</ele>
        <time>2021-09-03T13:28:44Z</time>
      </trkpt>
      <trkpt lat="44.12457" lon="5.86897">
        <ele>918.40002441406</ele>
        <time>2021-09-03T13:28:49Z</time>
      </trkpt>
      <trkpt lat="44.12453" lon="5.86869">
        <ele>918.40002441406</ele>
        <time>2021-09-03T13:28:54Z</time>
      </trkpt>
      <trkpt lat="44.12453" lon="5.86864">
        <ele>918.40002441406</ele>
        <time>2021-09-03T13:28:55Z</time>
      </trkpt>
      <trkpt lat="44.12447" lon="5.86836">
        <ele>918.79998779297</ele>
        <time>2021-09-03T13:29:01Z</time>
      </trkpt>
      <trkpt lat="44.12435" lon="5.86826">
        <ele>919.20001220703</ele>
        <time>2021-09-03T13:29:05Z</time>
      </trkpt>
      <trkpt lat="44.12412" lon="5.86821">
        <ele>919.20001220703</ele>
        <time>2021-09-03T13:29:11Z</time>
      </trkpt>
      <trkpt lat="44.12386" lon="5.8682">
        <ele>919.20001220703</ele>
        <time>2021-09-03T13:29:18Z</time>
      </trkpt>
      <trkpt lat="44.12363" lon="5.86826">
        <ele>919.40002441406</ele>
        <time>2021-09-03T13:29:25Z</time>
      </trkpt>
      <trkpt lat="44.12341" lon="5.86835">
        <ele>919.59997558594</ele>
        <time>2021-09-03T13:29:31Z</time>
      </trkpt>
      <trkpt lat="44.1233" lon="5.86834">
        <ele>919.59997558594</ele>
        <time>2021-09-03T13:29:34Z</time>
      </trkpt>
      <trkpt lat="44.12326" lon="5.86831">
        <ele>919.59997558594</ele>
        <time>2021-09-03T13:29:35Z</time>
      </trkpt>
      <trkpt lat="44.12319" lon="5.86812">
        <ele>919.59997558594</ele>
        <time>2021-09-03T13:29:39Z</time>
      </trkpt>
      <trkpt lat="44.12318" lon="5.86807">
        <ele>919.59997558594</ele>
        <time>2021-09-03T13:29:40Z</time>
      </trkpt>
      <trkpt lat="44.12314" lon="5.86768">
        <ele>919.79998779297</ele>
        <time>2021-09-03T13:29:47Z</time>
      </trkpt>
      <trkpt lat="44.12321" lon="5.86741">
        <ele>919.79998779297</ele>
        <time>2021-09-03T13:29:52Z</time>
      </trkpt>
      <trkpt lat="44.12323" lon="5.86736">
        <ele>919.79998779297</ele>
        <time>2021-09-03T13:29:53Z</time>
      </trkpt>
      <trkpt lat="44.12333" lon="5.86726">
        <ele>920</ele>
        <time>2021-09-03T13:29:56Z</time>
      </trkpt>
      <trkpt lat="44.12337" lon="5.86724">
        <ele>920</ele>
        <time>2021-09-03T13:29:57Z</time>
      </trkpt>
      <trkpt lat="44.12356" lon="5.86716">
        <ele>920.20001220703</ele>
        <time>2021-09-03T13:30:02Z</time>
      </trkpt>
      <trkpt lat="44.12381" lon="5.86705">
        <ele>920.79998779297</ele>
        <time>2021-09-03T13:30:09Z</time>
      </trkpt>
      <trkpt lat="44.12385" lon="5.86702">
        <ele>921</ele>
        <time>2021-09-03T13:30:10Z</time>
      </trkpt>
      <trkpt lat="44.12403" lon="5.86691">
        <ele>921.40002441406</ele>
        <time>2021-09-03T13:30:15Z</time>
      </trkpt>
      <trkpt lat="44.12422" lon="5.86678">
        <ele>921.59997558594</ele>
        <time>2021-09-03T13:30:20Z</time>
      </trkpt>
      <trkpt lat="44.1243" lon="5.86674">
        <ele>921.59997558594</ele>
        <time>2021-09-03T13:30:22Z</time>
      </trkpt>
      <trkpt lat="44.12454" lon="5.86665">
        <ele>922</ele>
        <time>2021-09-03T13:30:28Z</time>
      </trkpt>
      <trkpt lat="44.1246" lon="5.86658">
        <ele>922.20001220703</ele>
        <time>2021-09-03T13:30:30Z</time>
      </trkpt>
      <trkpt lat="44.12463" lon="5.86649">
        <ele>922.40002441406</ele>
        <time>2021-09-03T13:30:32Z</time>
      </trkpt>
      <trkpt lat="44.12464" lon="5.86621">
        <ele>922.40002441406</ele>
        <time>2021-09-03T13:30:37Z</time>
      </trkpt>
      <trkpt lat="44.12454" lon="5.86597">
        <ele>922.59997558594</ele>
        <time>2021-09-03T13:30:42Z</time>
      </trkpt>
      <trkpt lat="44.12434" lon="5.86578">
        <ele>922.59997558594</ele>
        <time>2021-09-03T13:30:48Z</time>
      </trkpt>
      <trkpt lat="44.12406" lon="5.86554">
        <ele>923</ele>
        <time>2021-09-03T13:30:56Z</time>
      </trkpt>
      <trkpt lat="44.12403" lon="5.86552">
        <ele>923.20001220703</ele>
        <time>2021-09-03T13:30:57Z</time>
      </trkpt>
      <trkpt lat="44.12389" lon="5.86533">
        <ele>923.40002441406</ele>
        <time>2021-09-03T13:31:02Z</time>
      </trkpt>
      <trkpt lat="44.12382" lon="5.86506">
        <ele>923.79998779297</ele>
        <time>2021-09-03T13:31:07Z</time>
      </trkpt>
      <trkpt lat="44.12389" lon="5.8648">
        <ele>923.79998779297</ele>
        <time>2021-09-03T13:31:11Z</time>
      </trkpt>
      <trkpt lat="44.12392" lon="5.86475">
        <ele>924</ele>
        <time>2021-09-03T13:31:12Z</time>
      </trkpt>
      <trkpt lat="44.12401" lon="5.86455">
        <ele>924.20001220703</ele>
        <time>2021-09-03T13:31:16Z</time>
      </trkpt>
      <trkpt lat="44.124" lon="5.86439">
        <ele>924.40002441406</ele>
        <time>2021-09-03T13:31:19Z</time>
      </trkpt>
      <trkpt lat="44.12398" lon="5.86434">
        <ele>924.40002441406</ele>
        <time>2021-09-03T13:31:20Z</time>
      </trkpt>
      <trkpt lat="44.12382" lon="5.86402">
        <ele>924.79998779297</ele>
        <time>2021-09-03T13:31:27Z</time>
      </trkpt>
      <trkpt lat="44.12365" lon="5.86365">
        <ele>925.20001220703</ele>
        <time>2021-09-03T13:31:35Z</time>
      </trkpt>
      <trkpt lat="44.12361" lon="5.86356">
        <ele>925.40002441406</ele>
        <time>2021-09-03T13:31:37Z</time>
      </trkpt>
      <trkpt lat="44.12349" lon="5.86335">
        <ele>925.40002441406</ele>
        <time>2021-09-03T13:31:42Z</time>
      </trkpt>
      <trkpt lat="44.12327" lon="5.86304">
        <ele>926</ele>
        <time>2021-09-03T13:31:50Z</time>
      </trkpt>
      <trkpt lat="44.12316" lon="5.86294">
        <ele>926.59997558594</ele>
        <time>2021-09-03T13:31:53Z</time>
      </trkpt>
      <trkpt lat="44.12307" lon="5.86283">
        <ele>927</ele>
        <time>2021-09-03T13:31:56Z</time>
      </trkpt>
      <trkpt lat="44.12301" lon="5.86274">
        <ele>927</ele>
        <time>2021-09-03T13:31:58Z</time>
      </trkpt>
      <trkpt lat="44.12299" lon="5.86269">
        <ele>927</ele>
        <time>2021-09-03T13:31:59Z</time>
      </trkpt>
      <trkpt lat="44.123" lon="5.86251">
        <ele>927</ele>
        <time>2021-09-03T13:32:02Z</time>
      </trkpt>
      <trkpt lat="44.12312" lon="5.86241">
        <ele>927</ele>
        <time>2021-09-03T13:32:05Z</time>
      </trkpt>
      <trkpt lat="44.12323" lon="5.86242">
        <ele>927.20001220703</ele>
        <time>2021-09-03T13:32:07Z</time>
      </trkpt>
      <trkpt lat="44.12338" lon="5.86244">
        <ele>927.20001220703</ele>
        <time>2021-09-03T13:32:10Z</time>
      </trkpt>
      <trkpt lat="44.12352" lon="5.86245">
        <ele>927</ele>
        <time>2021-09-03T13:32:13Z</time>
      </trkpt>
      <trkpt lat="44.12365" lon="5.86242">
        <ele>927</ele>
        <time>2021-09-03T13:32:16Z</time>
      </trkpt>
      <trkpt lat="44.12376" lon="5.86227">
        <ele>927.40002441406</ele>
        <time>2021-09-03T13:32:20Z</time>
      </trkpt>
      <trkpt lat="44.12378" lon="5.86217">
        <ele>927.59997558594</ele>
        <time>2021-09-03T13:32:22Z</time>
      </trkpt>
      <trkpt lat="44.12377" lon="5.86205">
        <ele>928</ele>
        <time>2021-09-03T13:32:24Z</time>
      </trkpt>
      <trkpt lat="44.12374" lon="5.86195">
        <ele>928</ele>
        <time>2021-09-03T13:32:26Z</time>
      </trkpt>
      <trkpt lat="44.1237" lon="5.8618">
        <ele>928.20001220703</ele>
        <time>2021-09-03T13:32:29Z</time>
      </trkpt>
      <trkpt lat="44.12364" lon="5.86152">
        <ele>928.20001220703</ele>
        <time>2021-09-03T13:32:34Z</time>
      </trkpt>
      <trkpt lat="44.12365" lon="5.86139">
        <ele>928.20001220703</ele>
        <time>2021-09-03T13:32:36Z</time>
      </trkpt>
      <trkpt lat="44.12373" lon="5.86124">
        <ele>928</ele>
        <time>2021-09-03T13:32:39Z</time>
      </trkpt>
      <trkpt lat="44.1239" lon="5.8612">
        <ele>927.59997558594</ele>
        <time>2021-09-03T13:32:43Z</time>
      </trkpt>
      <trkpt lat="44.12394" lon="5.8612">
        <ele>927.59997558594</ele>
        <time>2021-09-03T13:32:44Z</time>
      </trkpt>
      <trkpt lat="44.12407" lon="5.86121">
        <ele>928.20001220703</ele>
        <time>2021-09-03T13:32:48Z</time>
      </trkpt>
      <trkpt lat="44.1242" lon="5.86126">
        <ele>928.79998779297</ele>
        <time>2021-09-03T13:32:53Z</time>
      </trkpt>
      <trkpt lat="44.12426" lon="5.86129">
        <ele>929.20001220703</ele>
        <time>2021-09-03T13:32:55Z</time>
      </trkpt>
      <trkpt lat="44.1244" lon="5.86141">
        <ele>929.79998779297</ele>
        <time>2021-09-03T13:33:00Z</time>
      </trkpt>
      <trkpt lat="44.12448" lon="5.86151">
        <ele>930</ele>
        <time>2021-09-03T13:33:03Z</time>
      </trkpt>
      <trkpt lat="44.12465" lon="5.86171">
        <ele>930.79998779297</ele>
        <time>2021-09-03T13:33:10Z</time>
      </trkpt>
      <trkpt lat="44.12467" lon="5.86173">
        <ele>931</ele>
        <time>2021-09-03T13:33:11Z</time>
      </trkpt>
      <trkpt lat="44.1248" lon="5.86189">
        <ele>931.59997558594</ele>
        <time>2021-09-03T13:33:17Z</time>
      </trkpt>
      <trkpt lat="44.12488" lon="5.86195">
        <ele>932</ele>
        <time>2021-09-03T13:33:21Z</time>
      </trkpt>
      <trkpt lat="44.12492" lon="5.86197">
        <ele>932.40002441406</ele>
        <time>2021-09-03T13:33:23Z</time>
      </trkpt>
      <trkpt lat="44.12503" lon="5.86194">
        <ele>933.20001220703</ele>
        <time>2021-09-03T13:33:28Z</time>
      </trkpt>
      <trkpt lat="44.12506" lon="5.86192">
        <ele>933.40002441406</ele>
        <time>2021-09-03T13:33:29Z</time>
      </trkpt>
      <trkpt lat="44.12519" lon="5.86173">
        <ele>934</ele>
        <time>2021-09-03T13:33:36Z</time>
      </trkpt>
      <trkpt lat="44.12521" lon="5.86166">
        <ele>934.20001220703</ele>
        <time>2021-09-03T13:33:38Z</time>
      </trkpt>
      <trkpt lat="44.12524" lon="5.86156">
        <ele>934.59997558594</ele>
        <time>2021-09-03T13:33:41Z</time>
      </trkpt>
      <trkpt lat="44.12529" lon="5.86133">
        <ele>935.40002441406</ele>
        <time>2021-09-03T13:33:47Z</time>
      </trkpt>
      <trkpt lat="44.12531" lon="5.86119">
        <ele>935.79998779297</ele>
        <time>2021-09-03T13:33:51Z</time>
      </trkpt>
      <trkpt lat="44.12533" lon="5.86095">
        <ele>936.20001220703</ele>
        <time>2021-09-03T13:33:58Z</time>
      </trkpt>
      <trkpt lat="44.12534" lon="5.86092">
        <ele>936.40002441406</ele>
        <time>2021-09-03T13:33:59Z</time>
      </trkpt>
      <trkpt lat="44.1254" lon="5.86082">
        <ele>936.79998779297</ele>
        <time>2021-09-03T13:34:03Z</time>
      </trkpt>
      <trkpt lat="44.12542" lon="5.86072">
        <ele>937</ele>
        <time>2021-09-03T13:34:06Z</time>
      </trkpt>
      <trkpt lat="44.12545" lon="5.86064">
        <ele>937.40002441406</ele>
        <time>2021-09-03T13:34:09Z</time>
      </trkpt>
      <trkpt lat="44.12552" lon="5.86041">
        <ele>938.40002441406</ele>
        <time>2021-09-03T13:34:17Z</time>
      </trkpt>
      <trkpt lat="44.12553" lon="5.86037">
        <ele>938.40002441406</ele>
        <time>2021-09-03T13:34:18Z</time>
      </trkpt>
      <trkpt lat="44.12557" lon="5.86013">
        <ele>939.20001220703</ele>
        <time>2021-09-03T13:34:25Z</time>
      </trkpt>
      <trkpt lat="44.12557" lon="5.86006">
        <ele>939.59997558594</ele>
        <time>2021-09-03T13:34:27Z</time>
      </trkpt>
      <trkpt lat="44.12556" lon="5.8599">
        <ele>940</ele>
        <time>2021-09-03T13:34:31Z</time>
      </trkpt>
      <trkpt lat="44.12553" lon="5.85975">
        <ele>940.59997558594</ele>
        <time>2021-09-03T13:34:35Z</time>
      </trkpt>
      <trkpt lat="44.1255" lon="5.85965">
        <ele>941</ele>
        <time>2021-09-03T13:34:38Z</time>
      </trkpt>
      <trkpt lat="44.12539" lon="5.85946">
        <ele>941.59997558594</ele>
        <time>2021-09-03T13:34:44Z</time>
      </trkpt>
      <trkpt lat="44.12538" lon="5.85942">
        <ele>941.79998779297</ele>
        <time>2021-09-03T13:34:45Z</time>
      </trkpt>
      <trkpt lat="44.12535" lon="5.85921">
        <ele>942.20001220703</ele>
        <time>2021-09-03T13:34:50Z</time>
      </trkpt>
      <trkpt lat="44.12539" lon="5.85906">
        <ele>942.59997558594</ele>
        <time>2021-09-03T13:34:54Z</time>
      </trkpt>
      <trkpt lat="44.12542" lon="5.85896">
        <ele>943.20001220703</ele>
        <time>2021-09-03T13:34:57Z</time>
      </trkpt>
      <trkpt lat="44.12543" lon="5.85886">
        <ele>943.59997558594</ele>
        <time>2021-09-03T13:35:00Z</time>
      </trkpt>
      <trkpt lat="44.12543" lon="5.85873">
        <ele>944.20001220703</ele>
        <time>2021-09-03T13:35:04Z</time>
      </trkpt>
      <trkpt lat="44.12549" lon="5.85856">
        <ele>944.40002441406</ele>
        <time>2021-09-03T13:35:09Z</time>
      </trkpt>
      <trkpt lat="44.12556" lon="5.85847">
        <ele>944.79998779297</ele>
        <time>2021-09-03T13:35:13Z</time>
      </trkpt>
      <trkpt lat="44.1256" lon="5.8584">
        <ele>945.20001220703</ele>
        <time>2021-09-03T13:35:16Z</time>
      </trkpt>
      <trkpt lat="44.12564" lon="5.85823">
        <ele>945.79998779297</ele>
        <time>2021-09-03T13:35:21Z</time>
      </trkpt>
      <trkpt lat="44.12564" lon="5.85819">
        <ele>946</ele>
        <time>2021-09-03T13:35:22Z</time>
      </trkpt>
      <trkpt lat="44.12565" lon="5.85796">
        <ele>946.79998779297</ele>
        <time>2021-09-03T13:35:28Z</time>
      </trkpt>
      <trkpt lat="44.12565" lon="5.85773">
        <ele>948</ele>
        <time>2021-09-03T13:35:34Z</time>
      </trkpt>
      <trkpt lat="44.12564" lon="5.85762">
        <ele>948.40002441406</ele>
        <time>2021-09-03T13:35:37Z</time>
      </trkpt>
      <trkpt lat="44.12561" lon="5.85748">
        <ele>949</ele>
        <time>2021-09-03T13:35:41Z</time>
      </trkpt>
      <trkpt lat="44.12561" lon="5.85741">
        <ele>949.40002441406</ele>
        <time>2021-09-03T13:35:43Z</time>
      </trkpt>
      <trkpt lat="44.12558" lon="5.85726">
        <ele>950</ele>
        <time>2021-09-03T13:35:47Z</time>
      </trkpt>
      <trkpt lat="44.12556" lon="5.85709">
        <ele>950.59997558594</ele>
        <time>2021-09-03T13:35:52Z</time>
      </trkpt>
      <trkpt lat="44.12554" lon="5.85698">
        <ele>951</ele>
        <time>2021-09-03T13:35:55Z</time>
      </trkpt>
      <trkpt lat="44.12551" lon="5.8568">
        <ele>951.59997558594</ele>
        <time>2021-09-03T13:36:00Z</time>
      </trkpt>
      <trkpt lat="44.12544" lon="5.85665">
        <ele>952.20001220703</ele>
        <time>2021-09-03T13:36:05Z</time>
      </trkpt>
      <trkpt lat="44.12542" lon="5.85662">
        <ele>952.20001220703</ele>
        <time>2021-09-03T13:36:06Z</time>
      </trkpt>
      <trkpt lat="44.12523" lon="5.8564">
        <ele>953</ele>
        <time>2021-09-03T13:36:15Z</time>
      </trkpt>
      <trkpt lat="44.12522" lon="5.85636">
        <ele>953.20001220703</ele>
        <time>2021-09-03T13:36:16Z</time>
      </trkpt>
      <trkpt lat="44.12522" lon="5.85617">
        <ele>953.40002441406</ele>
        <time>2021-09-03T13:36:21Z</time>
      </trkpt>
      <trkpt lat="44.12523" lon="5.85595">
        <ele>954.20001220703</ele>
        <time>2021-09-03T13:36:28Z</time>
      </trkpt>
      <trkpt lat="44.12523" lon="5.85592">
        <ele>954.20001220703</ele>
        <time>2021-09-03T13:36:29Z</time>
      </trkpt>
      <trkpt lat="44.1252" lon="5.8557">
        <ele>955</ele>
        <time>2021-09-03T13:36:36Z</time>
      </trkpt>
      <trkpt lat="44.12517" lon="5.85561">
        <ele>955.20001220703</ele>
        <time>2021-09-03T13:36:39Z</time>
      </trkpt>
      <trkpt lat="44.12514" lon="5.85549">
        <ele>955.59997558594</ele>
        <time>2021-09-03T13:36:43Z</time>
      </trkpt>
      <trkpt lat="44.12506" lon="5.85526">
        <ele>956.40002441406</ele>
        <time>2021-09-03T13:36:51Z</time>
      </trkpt>
      <trkpt lat="44.1249" lon="5.85503">
        <ele>957.20001220703</ele>
        <time>2021-09-03T13:37:00Z</time>
      </trkpt>
      <trkpt lat="44.12486" lon="5.85495">
        <ele>957.40002441406</ele>
        <time>2021-09-03T13:37:03Z</time>
      </trkpt>
      <trkpt lat="44.1248" lon="5.85485">
        <ele>957.79998779297</ele>
        <time>2021-09-03T13:37:07Z</time>
      </trkpt>
      <trkpt lat="44.12469" lon="5.8547">
        <ele>958.40002441406</ele>
        <time>2021-09-03T13:37:14Z</time>
      </trkpt>
      <trkpt lat="44.1246" lon="5.85454">
        <ele>959.40002441406</ele>
        <time>2021-09-03T13:37:21Z</time>
      </trkpt>
      <trkpt lat="44.12459" lon="5.85451">
        <ele>959.59997558594</ele>
        <time>2021-09-03T13:37:22Z</time>
      </trkpt>
      <trkpt lat="44.1245" lon="5.8543">
        <ele>960.59997558594</ele>
        <time>2021-09-03T13:37:30Z</time>
      </trkpt>
      <trkpt lat="44.12449" lon="5.85424">
        <ele>960.79998779297</ele>
        <time>2021-09-03T13:37:32Z</time>
      </trkpt>
      <trkpt lat="44.1245" lon="5.854">
        <ele>961.59997558594</ele>
        <time>2021-09-03T13:37:39Z</time>
      </trkpt>
      <trkpt lat="44.1246" lon="5.85389">
        <ele>962</ele>
        <time>2021-09-03T13:37:44Z</time>
      </trkpt>
      <trkpt lat="44.12471" lon="5.85385">
        <ele>962.79998779297</ele>
        <time>2021-09-03T13:37:49Z</time>
      </trkpt>
      <trkpt lat="44.12475" lon="5.85384">
        <ele>963</ele>
        <time>2021-09-03T13:37:51Z</time>
      </trkpt>
      <trkpt lat="44.12489" lon="5.8538">
        <ele>963.79998779297</ele>
        <time>2021-09-03T13:37:58Z</time>
      </trkpt>
      <trkpt lat="44.12507" lon="5.85378">
        <ele>964.59997558594</ele>
        <time>2021-09-03T13:38:06Z</time>
      </trkpt>
      <trkpt lat="44.12511" lon="5.85377">
        <ele>964.79998779297</ele>
        <time>2021-09-03T13:38:08Z</time>
      </trkpt>
      <trkpt lat="44.12523" lon="5.85378">
        <ele>965.59997558594</ele>
        <time>2021-09-03T13:38:13Z</time>
      </trkpt>
      <trkpt lat="44.12532" lon="5.85378">
        <ele>965.79998779297</ele>
        <time>2021-09-03T13:38:17Z</time>
      </trkpt>
      <trkpt lat="44.12543" lon="5.85378">
        <ele>966.20001220703</ele>
        <time>2021-09-03T13:38:22Z</time>
      </trkpt>
      <trkpt lat="44.12555" lon="5.85381">
        <ele>966.79998779297</ele>
        <time>2021-09-03T13:38:28Z</time>
      </trkpt>
      <trkpt lat="44.1257" lon="5.8538">
        <ele>967.79998779297</ele>
        <time>2021-09-03T13:38:35Z</time>
      </trkpt>
      <trkpt lat="44.12574" lon="5.85379">
        <ele>968</ele>
        <time>2021-09-03T13:38:37Z</time>
      </trkpt>
      <trkpt lat="44.12586" lon="5.85371">
        <ele>968.59997558594</ele>
        <time>2021-09-03T13:38:43Z</time>
      </trkpt>
      <trkpt lat="44.12593" lon="5.8536">
        <ele>969</ele>
        <time>2021-09-03T13:38:48Z</time>
      </trkpt>
      <trkpt lat="44.12594" lon="5.85351">
        <ele>969.20001220703</ele>
        <time>2021-09-03T13:38:51Z</time>
      </trkpt>
      <trkpt lat="44.12595" lon="5.85335">
        <ele>969.59997558594</ele>
        <time>2021-09-03T13:38:57Z</time>
      </trkpt>
      <trkpt lat="44.12592" lon="5.85324">
        <ele>970</ele>
        <time>2021-09-03T13:39:01Z</time>
      </trkpt>
      <trkpt lat="44.1259" lon="5.85316">
        <ele>970.59997558594</ele>
        <time>2021-09-03T13:39:04Z</time>
      </trkpt>
      <trkpt lat="44.12583" lon="5.85295">
        <ele>971.20001220703</ele>
        <time>2021-09-03T13:39:11Z</time>
      </trkpt>
      <trkpt lat="44.12582" lon="5.85292">
        <ele>971.20001220703</ele>
        <time>2021-09-03T13:39:12Z</time>
      </trkpt>
      <trkpt lat="44.12569" lon="5.85273">
        <ele>972.20001220703</ele>
        <time>2021-09-03T13:39:19Z</time>
      </trkpt>
      <trkpt lat="44.12549" lon="5.85258">
        <ele>973.20001220703</ele>
        <time>2021-09-03T13:39:27Z</time>
      </trkpt>
      <trkpt lat="44.12547" lon="5.85257">
        <ele>973.20001220703</ele>
        <time>2021-09-03T13:39:28Z</time>
      </trkpt>
      <trkpt lat="44.12527" lon="5.85245">
        <ele>973.79998779297</ele>
        <time>2021-09-03T13:39:35Z</time>
      </trkpt>
      <trkpt lat="44.12517" lon="5.8523">
        <ele>974.20001220703</ele>
        <time>2021-09-03T13:39:40Z</time>
      </trkpt>
      <trkpt lat="44.12511" lon="5.85199">
        <ele>975</ele>
        <time>2021-09-03T13:39:48Z</time>
      </trkpt>
      <trkpt lat="44.12509" lon="5.85183">
        <ele>975.40002441406</ele>
        <time>2021-09-03T13:39:52Z</time>
      </trkpt>
      <trkpt lat="44.12503" lon="5.85165">
        <ele>975.79998779297</ele>
        <time>2021-09-03T13:39:57Z</time>
      </trkpt>
      <trkpt lat="44.12492" lon="5.85152">
        <ele>976.20001220703</ele>
        <time>2021-09-03T13:40:02Z</time>
      </trkpt>
      <trkpt lat="44.12484" lon="5.85146">
        <ele>976.40002441406</ele>
        <time>2021-09-03T13:40:05Z</time>
      </trkpt>
      <trkpt lat="44.12472" lon="5.85137">
        <ele>977</ele>
        <time>2021-09-03T13:40:09Z</time>
      </trkpt>
      <trkpt lat="44.12457" lon="5.85129">
        <ele>977.40002441406</ele>
        <time>2021-09-03T13:40:14Z</time>
      </trkpt>
      <trkpt lat="44.12448" lon="5.85126">
        <ele>977.79998779297</ele>
        <time>2021-09-03T13:40:17Z</time>
      </trkpt>
      <trkpt lat="44.12427" lon="5.85118">
        <ele>978.40002441406</ele>
        <time>2021-09-03T13:40:24Z</time>
      </trkpt>
      <trkpt lat="44.12423" lon="5.85117">
        <ele>978.59997558594</ele>
        <time>2021-09-03T13:40:25Z</time>
      </trkpt>
      <trkpt lat="44.12401" lon="5.85107">
        <ele>979.59997558594</ele>
        <time>2021-09-03T13:40:31Z</time>
      </trkpt>
      <trkpt lat="44.12395" lon="5.85101">
        <ele>979.59997558594</ele>
        <time>2021-09-03T13:40:33Z</time>
      </trkpt>
      <trkpt lat="44.12385" lon="5.85074">
        <ele>980.40002441406</ele>
        <time>2021-09-03T13:40:39Z</time>
      </trkpt>
      <trkpt lat="44.12383" lon="5.85066">
        <ele>980.59997558594</ele>
        <time>2021-09-03T13:40:41Z</time>
      </trkpt>
      <trkpt lat="44.12374" lon="5.85037">
        <ele>981.40002441406</ele>
        <time>2021-09-03T13:40:48Z</time>
      </trkpt>
      <trkpt lat="44.12371" lon="5.85025">
        <ele>981.59997558594</ele>
        <time>2021-09-03T13:40:51Z</time>
      </trkpt>
      <trkpt lat="44.12372" lon="5.85008">
        <ele>982</ele>
        <time>2021-09-03T13:40:55Z</time>
      </trkpt>
      <trkpt lat="44.12377" lon="5.84997">
        <ele>982.40002441406</ele>
        <time>2021-09-03T13:40:59Z</time>
      </trkpt>
      <trkpt lat="44.12386" lon="5.84986">
        <ele>982.59997558594</ele>
        <time>2021-09-03T13:41:03Z</time>
      </trkpt>
      <trkpt lat="44.12393" lon="5.8498">
        <ele>982.79998779297</ele>
        <time>2021-09-03T13:41:05Z</time>
      </trkpt>
      <trkpt lat="44.12404" lon="5.84962">
        <ele>983.20001220703</ele>
        <time>2021-09-03T13:41:10Z</time>
      </trkpt>
      <trkpt lat="44.1241" lon="5.84945">
        <ele>983.59997558594</ele>
        <time>2021-09-03T13:41:15Z</time>
      </trkpt>
      <trkpt lat="44.12412" lon="5.84941">
        <ele>983.59997558594</ele>
        <time>2021-09-03T13:41:16Z</time>
      </trkpt>
      <trkpt lat="44.12421" lon="5.84917">
        <ele>984.59997558594</ele>
        <time>2021-09-03T13:41:23Z</time>
      </trkpt>
      <trkpt lat="44.12424" lon="5.84908">
        <ele>984.79998779297</ele>
        <time>2021-09-03T13:41:25Z</time>
      </trkpt>
      <trkpt lat="44.12424" lon="5.84885">
        <ele>985.59997558594</ele>
        <time>2021-09-03T13:41:30Z</time>
      </trkpt>
      <trkpt lat="44.12423" lon="5.84877">
        <ele>986</ele>
        <time>2021-09-03T13:41:32Z</time>
      </trkpt>
      <trkpt lat="44.12419" lon="5.84862">
        <ele>986.59997558594</ele>
        <time>2021-09-03T13:41:36Z</time>
      </trkpt>
      <trkpt lat="44.12414" lon="5.84854">
        <ele>987.20001220703</ele>
        <time>2021-09-03T13:41:39Z</time>
      </trkpt>
      <trkpt lat="44.12408" lon="5.84844">
        <ele>987.79998779297</ele>
        <time>2021-09-03T13:41:43Z</time>
      </trkpt>
      <trkpt lat="44.12405" lon="5.84839">
        <ele>988.20001220703</ele>
        <time>2021-09-03T13:41:45Z</time>
      </trkpt>
      <trkpt lat="44.124" lon="5.84829">
        <ele>988.79998779297</ele>
        <time>2021-09-03T13:41:49Z</time>
      </trkpt>
      <trkpt lat="44.12395" lon="5.8482">
        <ele>989.20001220703</ele>
        <time>2021-09-03T13:41:53Z</time>
      </trkpt>
      <trkpt lat="44.12391" lon="5.84813">
        <ele>989.59997558594</ele>
        <time>2021-09-03T13:41:56Z</time>
      </trkpt>
      <trkpt lat="44.12381" lon="5.84801">
        <ele>990.40002441406</ele>
        <time>2021-09-03T13:42:02Z</time>
      </trkpt>
      <trkpt lat="44.12379" lon="5.84799">
        <ele>990.40002441406</ele>
        <time>2021-09-03T13:42:03Z</time>
      </trkpt>
      <trkpt lat="44.12372" lon="5.8478">
        <ele>991.40002441406</ele>
        <time>2021-09-03T13:42:10Z</time>
      </trkpt>
      <trkpt lat="44.12371" lon="5.84763">
        <ele>992.20001220703</ele>
        <time>2021-09-03T13:42:16Z</time>
      </trkpt>
      <trkpt lat="44.1237" lon="5.84758">
        <ele>992.59997558594</ele>
        <time>2021-09-03T13:42:18Z</time>
      </trkpt>
      <trkpt lat="44.12368" lon="5.8475">
        <ele>993</ele>
        <time>2021-09-03T13:42:21Z</time>
      </trkpt>
      <trkpt lat="44.12365" lon="5.84744">
        <ele>993.20001220703</ele>
        <time>2021-09-03T13:42:23Z</time>
      </trkpt>
      <trkpt lat="44.1236" lon="5.84734">
        <ele>993.59997558594</ele>
        <time>2021-09-03T13:42:27Z</time>
      </trkpt>
      <trkpt lat="44.12359" lon="5.84732">
        <ele>993.79998779297</ele>
        <time>2021-09-03T13:42:28Z</time>
      </trkpt>
      <trkpt lat="44.1235" lon="5.84721">
        <ele>994.79998779297</ele>
        <time>2021-09-03T13:42:34Z</time>
      </trkpt>
      <trkpt lat="44.12348" lon="5.84719">
        <ele>994.79998779297</ele>
        <time>2021-09-03T13:42:35Z</time>
      </trkpt>
      <trkpt lat="44.12339" lon="5.84704">
        <ele>995.79998779297</ele>
        <time>2021-09-03T13:42:42Z</time>
      </trkpt>
      <trkpt lat="44.12334" lon="5.84688">
        <ele>996.79998779297</ele>
        <time>2021-09-03T13:42:49Z</time>
      </trkpt>
      <trkpt lat="44.12332" lon="5.84686">
        <ele>997</ele>
        <time>2021-09-03T13:42:50Z</time>
      </trkpt>
      <trkpt lat="44.12331" lon="5.84671">
        <ele>997.59997558594</ele>
        <time>2021-09-03T13:42:55Z</time>
      </trkpt>
      <trkpt lat="44.1233" lon="5.84663">
        <ele>998</ele>
        <time>2021-09-03T13:42:58Z</time>
      </trkpt>
      <trkpt lat="44.1233" lon="5.84651">
        <ele>998.59997558594</ele>
        <time>2021-09-03T13:43:02Z</time>
      </trkpt>
      <trkpt lat="44.12329" lon="5.84643">
        <ele>999.20001220703</ele>
        <time>2021-09-03T13:43:05Z</time>
      </trkpt>
      <trkpt lat="44.12329" lon="5.84628">
        <ele>999.79998779297</ele>
        <time>2021-09-03T13:43:10Z</time>
      </trkpt>
      <trkpt lat="44.12329" lon="5.84621">
        <ele>1000.200012207</ele>
        <time>2021-09-03T13:43:13Z</time>
      </trkpt>
      <trkpt lat="44.12329" lon="5.84608">
        <ele>1000.799987793</ele>
        <time>2021-09-03T13:43:18Z</time>
      </trkpt>
      <trkpt lat="44.12327" lon="5.84597">
        <ele>1001.4000244141</ele>
        <time>2021-09-03T13:43:22Z</time>
      </trkpt>
      <trkpt lat="44.12324" lon="5.84592">
        <ele>1001.5999755859</ele>
        <time>2021-09-03T13:43:24Z</time>
      </trkpt>
      <trkpt lat="44.12317" lon="5.84577">
        <ele>1002.4000244141</ele>
        <time>2021-09-03T13:43:30Z</time>
      </trkpt>
      <trkpt lat="44.12316" lon="5.84576">
        <ele>1002.4000244141</ele>
        <time>2021-09-03T13:43:31Z</time>
      </trkpt>
      <trkpt lat="44.12311" lon="5.84562">
        <ele>1003.200012207</ele>
        <time>2021-09-03T13:43:37Z</time>
      </trkpt>
      <trkpt lat="44.1231" lon="5.84557">
        <ele>1003.5999755859</ele>
        <time>2021-09-03T13:43:39Z</time>
      </trkpt>
      <trkpt lat="44.12309" lon="5.84541">
        <ele>1004.200012207</ele>
        <time>2021-09-03T13:43:45Z</time>
      </trkpt>
      <trkpt lat="44.12309" lon="5.84536">
        <ele>1004.799987793</ele>
        <time>2021-09-03T13:43:47Z</time>
      </trkpt>
      <trkpt lat="44.1231" lon="5.84527">
        <ele>1005.200012207</ele>
        <time>2021-09-03T13:43:50Z</time>
      </trkpt>
      <trkpt lat="44.1231" lon="5.84522">
        <ele>1005.4000244141</ele>
        <time>2021-09-03T13:43:52Z</time>
      </trkpt>
      <trkpt lat="44.1231" lon="5.8452">
        <ele>1005.5999755859</ele>
        <time>2021-09-03T13:43:53Z</time>
      </trkpt>
      <trkpt lat="44.12309" lon="5.84517">
        <ele>1005.799987793</ele>
        <time>2021-09-03T13:43:54Z</time>
      </trkpt>
      <trkpt lat="44.12309" lon="5.84515">
        <ele>1005.799987793</ele>
        <time>2021-09-03T13:43:55Z</time>
      </trkpt>
      <trkpt lat="44.12308" lon="5.84507">
        <ele>1006.200012207</ele>
        <time>2021-09-03T13:43:58Z</time>
      </trkpt>
      <trkpt lat="44.12306" lon="5.84497">
        <ele>1006.799987793</ele>
        <time>2021-09-03T13:44:02Z</time>
      </trkpt>
      <trkpt lat="44.12305" lon="5.84487">
        <ele>1007.4000244141</ele>
        <time>2021-09-03T13:44:06Z</time>
      </trkpt>
      <trkpt lat="44.12305" lon="5.84476">
        <ele>1008</ele>
        <time>2021-09-03T13:44:10Z</time>
      </trkpt>
      <trkpt lat="44.12307" lon="5.84468">
        <ele>1008.4000244141</ele>
        <time>2021-09-03T13:44:13Z</time>
      </trkpt>
      <trkpt lat="44.12307" lon="5.84462">
        <ele>1008.799987793</ele>
        <time>2021-09-03T13:44:16Z</time>
      </trkpt>
      <trkpt lat="44.12308" lon="5.8446">
        <ele>1009</ele>
        <time>2021-09-03T13:44:17Z</time>
      </trkpt>
      <trkpt lat="44.12308" lon="5.84457">
        <ele>1009</ele>
        <time>2021-09-03T13:44:18Z</time>
      </trkpt>
      <trkpt lat="44.1231" lon="5.84455">
        <ele>1009.200012207</ele>
        <time>2021-09-03T13:44:19Z</time>
      </trkpt>
      <trkpt lat="44.12315" lon="5.84443">
        <ele>1009.799987793</ele>
        <time>2021-09-03T13:44:23Z</time>
      </trkpt>
      <trkpt lat="44.12317" lon="5.8444">
        <ele>1010</ele>
        <time>2021-09-03T13:44:24Z</time>
      </trkpt>
      <trkpt lat="44.12317" lon="5.84438">
        <ele>1010</ele>
        <time>2021-09-03T13:44:25Z</time>
      </trkpt>
      <trkpt lat="44.12318" lon="5.84436">
        <ele>1010.200012207</ele>
        <time>2021-09-03T13:44:26Z</time>
      </trkpt>
      <trkpt lat="44.12321" lon="5.84425">
        <ele>1010.799987793</ele>
        <time>2021-09-03T13:44:30Z</time>
      </trkpt>
      <trkpt lat="44.12323" lon="5.8442">
        <ele>1011</ele>
        <time>2021-09-03T13:44:32Z</time>
      </trkpt>
      <trkpt lat="44.12328" lon="5.84407">
        <ele>1011.5999755859</ele>
        <time>2021-09-03T13:44:36Z</time>
      </trkpt>
      <trkpt lat="44.12332" lon="5.84391">
        <ele>1012</ele>
        <time>2021-09-03T13:44:41Z</time>
      </trkpt>
      <trkpt lat="44.12335" lon="5.84382">
        <ele>1012.4000244141</ele>
        <time>2021-09-03T13:44:44Z</time>
      </trkpt>
      <trkpt lat="44.1234" lon="5.84359">
        <ele>1013</ele>
        <time>2021-09-03T13:44:52Z</time>
      </trkpt>
      <trkpt lat="44.12341" lon="5.84357">
        <ele>1013.200012207</ele>
        <time>2021-09-03T13:44:53Z</time>
      </trkpt>
      <trkpt lat="44.12346" lon="5.84338">
        <ele>1013.799987793</ele>
        <time>2021-09-03T13:45:00Z</time>
      </trkpt>
      <trkpt lat="44.12348" lon="5.84333">
        <ele>1014.200012207</ele>
        <time>2021-09-03T13:45:02Z</time>
      </trkpt>
      <trkpt lat="44.1235" lon="5.84319">
        <ele>1014.5999755859</ele>
        <time>2021-09-03T13:45:07Z</time>
      </trkpt>
      <trkpt lat="44.12351" lon="5.843">
        <ele>1015.200012207</ele>
        <time>2021-09-03T13:45:14Z</time>
      </trkpt>
      <trkpt lat="44.12351" lon="5.84297">
        <ele>1015.4000244141</ele>
        <time>2021-09-03T13:45:15Z</time>
      </trkpt>
      <trkpt lat="44.12357" lon="5.84277">
        <ele>1016</ele>
        <time>2021-09-03T13:45:22Z</time>
      </trkpt>
      <trkpt lat="44.1236" lon="5.84272">
        <ele>1016.200012207</ele>
        <time>2021-09-03T13:45:24Z</time>
      </trkpt>
      <trkpt lat="44.12366" lon="5.84266">
        <ele>1016.799987793</ele>
        <time>2021-09-03T13:45:28Z</time>
      </trkpt>
      <trkpt lat="44.12372" lon="5.84263">
        <ele>1017.200012207</ele>
        <time>2021-09-03T13:45:31Z</time>
      </trkpt>
      <trkpt lat="44.12374" lon="5.84263">
        <ele>1017.4000244141</ele>
        <time>2021-09-03T13:45:32Z</time>
      </trkpt>
      <trkpt lat="44.12377" lon="5.84261">
        <ele>1017.799987793</ele>
        <time>2021-09-03T13:45:34Z</time>
      </trkpt>
      <trkpt lat="44.12387" lon="5.84262">
        <ele>1018.4000244141</ele>
        <time>2021-09-03T13:45:39Z</time>
      </trkpt>
      <trkpt lat="44.12388" lon="5.84263">
        <ele>1018.5999755859</ele>
        <time>2021-09-03T13:45:40Z</time>
      </trkpt>
      <trkpt lat="44.12396" lon="5.84274">
        <ele>1019.4000244141</ele>
        <time>2021-09-03T13:45:46Z</time>
      </trkpt>
      <trkpt lat="44.12402" lon="5.84289">
        <ele>1020.200012207</ele>
        <time>2021-09-03T13:45:52Z</time>
      </trkpt>
      <trkpt lat="44.12403" lon="5.84293">
        <ele>1020.5999755859</ele>
        <time>2021-09-03T13:45:54Z</time>
      </trkpt>
      <trkpt lat="44.12409" lon="5.84305">
        <ele>1021.4000244141</ele>
        <time>2021-09-03T13:46:00Z</time>
      </trkpt>
      <trkpt lat="44.1241" lon="5.84308">
        <ele>1021.5999755859</ele>
        <time>2021-09-03T13:46:01Z</time>
      </trkpt>
      <trkpt lat="44.12419" lon="5.84327">
        <ele>1023</ele>
        <time>2021-09-03T13:46:10Z</time>
      </trkpt>
      <trkpt lat="44.12425" lon="5.84342">
        <ele>1024</ele>
        <time>2021-09-03T13:46:17Z</time>
      </trkpt>
      <trkpt lat="44.12426" lon="5.84344">
        <ele>1024.1999511719</ele>
        <time>2021-09-03T13:46:18Z</time>
      </trkpt>
      <trkpt lat="44.12436" lon="5.84362">
        <ele>1025</ele>
        <time>2021-09-03T13:46:27Z</time>
      </trkpt>
      <trkpt lat="44.12446" lon="5.84378">
        <ele>1026.1999511719</ele>
        <time>2021-09-03T13:46:35Z</time>
      </trkpt>
      <trkpt lat="44.12453" lon="5.8439">
        <ele>1026.8000488281</ele>
        <time>2021-09-03T13:46:41Z</time>
      </trkpt>
      <trkpt lat="44.12457" lon="5.84396">
        <ele>1027.1999511719</ele>
        <time>2021-09-03T13:46:44Z</time>
      </trkpt>
      <trkpt lat="44.12464" lon="5.84405">
        <ele>1027.8000488281</ele>
        <time>2021-09-03T13:46:49Z</time>
      </trkpt>
      <trkpt lat="44.12468" lon="5.84408">
        <ele>1028.1999511719</ele>
        <time>2021-09-03T13:46:52Z</time>
      </trkpt>
      <trkpt lat="44.12473" lon="5.84415">
        <ele>1028.8000488281</ele>
        <time>2021-09-03T13:46:56Z</time>
      </trkpt>
      <trkpt lat="44.12476" lon="5.84419">
        <ele>1029.1999511719</ele>
        <time>2021-09-03T13:46:58Z</time>
      </trkpt>
      <trkpt lat="44.12485" lon="5.8443">
        <ele>1030.1999511719</ele>
        <time>2021-09-03T13:47:05Z</time>
      </trkpt>
      <trkpt lat="44.12487" lon="5.84431">
        <ele>1030.4000244141</ele>
        <time>2021-09-03T13:47:06Z</time>
      </trkpt>
      <trkpt lat="44.12497" lon="5.84443">
        <ele>1031.1999511719</ele>
        <time>2021-09-03T13:47:13Z</time>
      </trkpt>
      <trkpt lat="44.125" lon="5.84444">
        <ele>1031.4000244141</ele>
        <time>2021-09-03T13:47:14Z</time>
      </trkpt>
      <trkpt lat="44.1251" lon="5.84453">
        <ele>1032.1999511719</ele>
        <time>2021-09-03T13:47:20Z</time>
      </trkpt>
      <trkpt lat="44.12513" lon="5.84453">
        <ele>1032.5999755859</ele>
        <time>2021-09-03T13:47:22Z</time>
      </trkpt>
      <trkpt lat="44.12525" lon="5.84452">
        <ele>1033.1999511719</ele>
        <time>2021-09-03T13:47:27Z</time>
      </trkpt>
      <trkpt lat="44.12528" lon="5.84448">
        <ele>1033.5999755859</ele>
        <time>2021-09-03T13:47:29Z</time>
      </trkpt>
      <trkpt lat="44.12532" lon="5.84439">
        <ele>1034</ele>
        <time>2021-09-03T13:47:33Z</time>
      </trkpt>
      <trkpt lat="44.12534" lon="5.84425">
        <ele>1034.5999755859</ele>
        <time>2021-09-03T13:47:39Z</time>
      </trkpt>
      <trkpt lat="44.12535" lon="5.84421">
        <ele>1034.8000488281</ele>
        <time>2021-09-03T13:47:41Z</time>
      </trkpt>
      <trkpt lat="44.12537" lon="5.84414">
        <ele>1035</ele>
        <time>2021-09-03T13:47:44Z</time>
      </trkpt>
      <trkpt lat="44.12535" lon="5.84408">
        <ele>1035.5999755859</ele>
        <time>2021-09-03T13:47:47Z</time>
      </trkpt>
      <trkpt lat="44.12528" lon="5.84404">
        <ele>1036.5999755859</ele>
        <time>2021-09-03T13:47:52Z</time>
      </trkpt>
      <trkpt lat="44.12526" lon="5.84404">
        <ele>1036.8000488281</ele>
        <time>2021-09-03T13:47:53Z</time>
      </trkpt>
      <trkpt lat="44.12523" lon="5.84404">
        <ele>1037</ele>
        <time>2021-09-03T13:47:55Z</time>
      </trkpt>
      <trkpt lat="44.1252" lon="5.84408">
        <ele>1037.4000244141</ele>
        <time>2021-09-03T13:47:58Z</time>
      </trkpt>
      <trkpt lat="44.12517" lon="5.84413">
        <ele>1037.8000488281</ele>
        <time>2021-09-03T13:48:01Z</time>
      </trkpt>
      <trkpt lat="44.12515" lon="5.84415">
        <ele>1038.1999511719</ele>
        <time>2021-09-03T13:48:03Z</time>
      </trkpt>
      <trkpt lat="44.12514" lon="5.84416">
        <ele>1038.4000244141</ele>
        <time>2021-09-03T13:48:04Z</time>
      </trkpt>
      <trkpt lat="44.1251" lon="5.84415">
        <ele>1038.5999755859</ele>
        <time>2021-09-03T13:48:07Z</time>
      </trkpt>
      <trkpt lat="44.12508" lon="5.84414">
        <ele>1038.8000488281</ele>
        <time>2021-09-03T13:48:08Z</time>
      </trkpt>
      <trkpt lat="44.12505" lon="5.84412">
        <ele>1039</ele>
        <time>2021-09-03T13:48:10Z</time>
      </trkpt>
      <trkpt lat="44.12503" lon="5.84408">
        <ele>1039.1999511719</ele>
        <time>2021-09-03T13:48:12Z</time>
      </trkpt>
      <trkpt lat="44.12497" lon="5.84401">
        <ele>1039.8000488281</ele>
        <time>2021-09-03T13:48:16Z</time>
      </trkpt>
      <trkpt lat="44.12496" lon="5.84399">
        <ele>1040</ele>
        <time>2021-09-03T13:48:17Z</time>
      </trkpt>
      <trkpt lat="44.12489" lon="5.84385">
        <ele>1041</ele>
        <time>2021-09-03T13:48:24Z</time>
      </trkpt>
      <trkpt lat="44.1248" lon="5.84374">
        <ele>1042</ele>
        <time>2021-09-03T13:48:31Z</time>
      </trkpt>
      <trkpt lat="44.12479" lon="5.8437">
        <ele>1042.1999511719</ele>
        <time>2021-09-03T13:48:33Z</time>
      </trkpt>
      <trkpt lat="44.12475" lon="5.84362">
        <ele>1043.1999511719</ele>
        <time>2021-09-03T13:48:37Z</time>
      </trkpt>
      <trkpt lat="44.12471" lon="5.84358">
        <ele>1043.4000244141</ele>
        <time>2021-09-03T13:48:40Z</time>
      </trkpt>
      <trkpt lat="44.12471" lon="5.84355">
        <ele>1043.5999755859</ele>
        <time>2021-09-03T13:48:41Z</time>
      </trkpt>
      <trkpt lat="44.12467" lon="5.84343">
        <ele>1044.1999511719</ele>
        <time>2021-09-03T13:48:46Z</time>
      </trkpt>
      <trkpt lat="44.12463" lon="5.84328">
        <ele>1045.1999511719</ele>
        <time>2021-09-03T13:48:53Z</time>
      </trkpt>
      <trkpt lat="44.12462" lon="5.84326">
        <ele>1045.4000244141</ele>
        <time>2021-09-03T13:48:54Z</time>
      </trkpt>
      <trkpt lat="44.1246" lon="5.84311">
        <ele>1046.4000244141</ele>
        <time>2021-09-03T13:49:00Z</time>
      </trkpt>
      <trkpt lat="44.12459" lon="5.84309">
        <ele>1046.4000244141</ele>
        <time>2021-09-03T13:49:01Z</time>
      </trkpt>
      <trkpt lat="44.12459" lon="5.84296">
        <ele>1047.1999511719</ele>
        <time>2021-09-03T13:49:06Z</time>
      </trkpt>
      <trkpt lat="44.12458" lon="5.84291">
        <ele>1047.5999755859</ele>
        <time>2021-09-03T13:49:08Z</time>
      </trkpt>
      <trkpt lat="44.12458" lon="5.84274">
        <ele>1048.5999755859</ele>
        <time>2021-09-03T13:49:15Z</time>
      </trkpt>
      <trkpt lat="44.12458" lon="5.84256">
        <ele>1049.8000488281</ele>
        <time>2021-09-03T13:49:22Z</time>
      </trkpt>
      <trkpt lat="44.12456" lon="5.84236">
        <ele>1050.8000488281</ele>
        <time>2021-09-03T13:49:30Z</time>
      </trkpt>
      <trkpt lat="44.12455" lon="5.84222">
        <ele>1052</ele>
        <time>2021-09-03T13:51:56Z</time>
      </trkpt>
      <trkpt lat="44.12451" lon="5.84201">
        <ele>1052.4000244141</ele>
        <time>2021-09-03T13:52:04Z</time>
      </trkpt>
      <trkpt lat="44.12443" lon="5.84182">
        <ele>1053</ele>
        <time>2021-09-03T13:52:11Z</time>
      </trkpt>
      <trkpt lat="44.12441" lon="5.8418">
        <ele>1053</ele>
        <time>2021-09-03T13:52:12Z</time>
      </trkpt>
      <trkpt lat="44.1243" lon="5.84165">
        <ele>1053.1999511719</ele>
        <time>2021-09-03T13:52:18Z</time>
      </trkpt>
      <trkpt lat="44.12413" lon="5.84146">
        <ele>1053.1999511719</ele>
        <time>2021-09-03T13:52:26Z</time>
      </trkpt>
      <trkpt lat="44.12404" lon="5.84131">
        <ele>1053.5999755859</ele>
        <time>2021-09-03T13:52:32Z</time>
      </trkpt>
      <trkpt lat="44.12395" lon="5.8412">
        <ele>1054</ele>
        <time>2021-09-03T13:52:37Z</time>
      </trkpt>
      <trkpt lat="44.12392" lon="5.84115">
        <ele>1054.4000244141</ele>
        <time>2021-09-03T13:52:39Z</time>
      </trkpt>
      <trkpt lat="44.12381" lon="5.841">
        <ele>1055</ele>
        <time>2021-09-03T13:52:47Z</time>
      </trkpt>
      <trkpt lat="44.12379" lon="5.84098">
        <ele>1055.1999511719</ele>
        <time>2021-09-03T13:52:48Z</time>
      </trkpt>
      <trkpt lat="44.1237" lon="5.84088">
        <ele>1055.5999755859</ele>
        <time>2021-09-03T13:52:54Z</time>
      </trkpt>
      <trkpt lat="44.12361" lon="5.8408">
        <ele>1056.1999511719</ele>
        <time>2021-09-03T13:52:59Z</time>
      </trkpt>
      <trkpt lat="44.12357" lon="5.84076">
        <ele>1056.4000244141</ele>
        <time>2021-09-03T13:53:02Z</time>
      </trkpt>
      <trkpt lat="44.1235" lon="5.84067">
        <ele>1057.1999511719</ele>
        <time>2021-09-03T13:53:07Z</time>
      </trkpt>
      <trkpt lat="44.12347" lon="5.84062">
        <ele>1057.4000244141</ele>
        <time>2021-09-03T13:53:09Z</time>
      </trkpt>
      <trkpt lat="44.12343" lon="5.84051">
        <ele>1058.1999511719</ele>
        <time>2021-09-03T13:53:14Z</time>
      </trkpt>
      <trkpt lat="44.12342" lon="5.84047">
        <ele>1058.5999755859</ele>
        <time>2021-09-03T13:53:16Z</time>
      </trkpt>
      <trkpt lat="44.12341" lon="5.84042">
        <ele>1059</ele>
        <time>2021-09-03T13:53:18Z</time>
      </trkpt>
      <trkpt lat="44.1234" lon="5.84037">
        <ele>1059.4000244141</ele>
        <time>2021-09-03T13:53:20Z</time>
      </trkpt>
      <trkpt lat="44.12341" lon="5.84031">
        <ele>1059.5999755859</ele>
        <time>2021-09-03T13:53:22Z</time>
      </trkpt>
      <trkpt lat="44.12345" lon="5.84017">
        <ele>1060</ele>
        <time>2021-09-03T13:53:27Z</time>
      </trkpt>
      <trkpt lat="44.12351" lon="5.84008">
        <ele>1060.4000244141</ele>
        <time>2021-09-03T13:53:31Z</time>
      </trkpt>
      <trkpt lat="44.12355" lon="5.84002">
        <ele>1060.8000488281</ele>
        <time>2021-09-03T13:53:34Z</time>
      </trkpt>
      <trkpt lat="44.12366" lon="5.83986">
        <ele>1061.1999511719</ele>
        <time>2021-09-03T13:53:41Z</time>
      </trkpt>
      <trkpt lat="44.1237" lon="5.8398">
        <ele>1061.5999755859</ele>
        <time>2021-09-03T13:53:44Z</time>
      </trkpt>
      <trkpt lat="44.12377" lon="5.83962">
        <ele>1062.4000244141</ele>
        <time>2021-09-03T13:53:51Z</time>
      </trkpt>
      <trkpt lat="44.12378" lon="5.83953">
        <ele>1062.5999755859</ele>
        <time>2021-09-03T13:53:54Z</time>
      </trkpt>
      <trkpt lat="44.12377" lon="5.83938">
        <ele>1063</ele>
        <time>2021-09-03T13:53:59Z</time>
      </trkpt>
      <trkpt lat="44.12372" lon="5.83924">
        <ele>1063.8000488281</ele>
        <time>2021-09-03T13:54:05Z</time>
      </trkpt>
      <trkpt lat="44.12369" lon="5.83919">
        <ele>1064</ele>
        <time>2021-09-03T13:54:07Z</time>
      </trkpt>
      <trkpt lat="44.12357" lon="5.83902">
        <ele>1064.4000244141</ele>
        <time>2021-09-03T13:54:15Z</time>
      </trkpt>
      <trkpt lat="44.12349" lon="5.83887">
        <ele>1064.8000488281</ele>
        <time>2021-09-03T13:54:21Z</time>
      </trkpt>
      <trkpt lat="44.12347" lon="5.83866">
        <ele>1065.5999755859</ele>
        <time>2021-09-03T13:54:28Z</time>
      </trkpt>
      <trkpt lat="44.12346" lon="5.83857">
        <ele>1065.8000488281</ele>
        <time>2021-09-03T13:54:31Z</time>
      </trkpt>
      <trkpt lat="44.12342" lon="5.83841">
        <ele>1066.4000244141</ele>
        <time>2021-09-03T13:54:37Z</time>
      </trkpt>
      <trkpt lat="44.12338" lon="5.83827">
        <ele>1066.8000488281</ele>
        <time>2021-09-03T13:54:42Z</time>
      </trkpt>
      <trkpt lat="44.12335" lon="5.83819">
        <ele>1067.1999511719</ele>
        <time>2021-09-03T13:54:45Z</time>
      </trkpt>
      <trkpt lat="44.12329" lon="5.83797">
        <ele>1067.8000488281</ele>
        <time>2021-09-03T13:54:53Z</time>
      </trkpt>
      <trkpt lat="44.12328" lon="5.83794">
        <ele>1068</ele>
        <time>2021-09-03T13:54:54Z</time>
      </trkpt>
      <trkpt lat="44.12326" lon="5.83777">
        <ele>1068.5999755859</ele>
        <time>2021-09-03T13:55:00Z</time>
      </trkpt>
      <trkpt lat="44.12324" lon="5.83768">
        <ele>1069</ele>
        <time>2021-09-03T13:55:03Z</time>
      </trkpt>
      <trkpt lat="44.12323" lon="5.83754">
        <ele>1069.4000244141</ele>
        <time>2021-09-03T13:55:08Z</time>
      </trkpt>
      <trkpt lat="44.12322" lon="5.83733">
        <ele>1070.1999511719</ele>
        <time>2021-09-03T13:55:15Z</time>
      </trkpt>
      <trkpt lat="44.12323" lon="5.83728">
        <ele>1070.4000244141</ele>
        <time>2021-09-03T13:55:17Z</time>
      </trkpt>
      <trkpt lat="44.12327" lon="5.83706">
        <ele>1071.1999511719</ele>
        <time>2021-09-03T13:55:24Z</time>
      </trkpt>
      <trkpt lat="44.12328" lon="5.83703">
        <ele>1071.4000244141</ele>
        <time>2021-09-03T13:55:25Z</time>
      </trkpt>
      <trkpt lat="44.12328" lon="5.8369">
        <ele>1072</ele>
        <time>2021-09-03T13:55:29Z</time>
      </trkpt>
      <trkpt lat="44.12329" lon="5.83687">
        <ele>1072</ele>
        <time>2021-09-03T13:55:30Z</time>
      </trkpt>
      <trkpt lat="44.12332" lon="5.83677">
        <ele>1072.4000244141</ele>
        <time>2021-09-03T13:55:33Z</time>
      </trkpt>
      <trkpt lat="44.12333" lon="5.83662">
        <ele>1073</ele>
        <time>2021-09-03T13:55:38Z</time>
      </trkpt>
      <trkpt lat="44.12335" lon="5.83647">
        <ele>1073.4000244141</ele>
        <time>2021-09-03T13:55:43Z</time>
      </trkpt>
      <trkpt lat="44.12336" lon="5.83644">
        <ele>1073.4000244141</ele>
        <time>2021-09-03T13:55:44Z</time>
      </trkpt>
      <trkpt lat="44.12346" lon="5.83625">
        <ele>1074</ele>
        <time>2021-09-03T13:55:51Z</time>
      </trkpt>
      <trkpt lat="44.12361" lon="5.83607">
        <ele>1074.4000244141</ele>
        <time>2021-09-03T13:55:59Z</time>
      </trkpt>
      <trkpt lat="44.12363" lon="5.83605">
        <ele>1074.4000244141</ele>
        <time>2021-09-03T13:56:00Z</time>
      </trkpt>
      <trkpt lat="44.12374" lon="5.83587">
        <ele>1075.4000244141</ele>
        <time>2021-09-03T13:56:08Z</time>
      </trkpt>
      <trkpt lat="44.12376" lon="5.83585">
        <ele>1075.4000244141</ele>
        <time>2021-09-03T13:56:09Z</time>
      </trkpt>
      <trkpt lat="44.12384" lon="5.8358">
        <ele>1076.1999511719</ele>
        <time>2021-09-03T13:56:14Z</time>
      </trkpt>
      <trkpt lat="44.1239" lon="5.83576">
        <ele>1076.5999755859</ele>
        <time>2021-09-03T13:56:17Z</time>
      </trkpt>
      <trkpt lat="44.12397" lon="5.83574">
        <ele>1077</ele>
        <time>2021-09-03T13:56:21Z</time>
      </trkpt>
      <trkpt lat="44.12409" lon="5.83575">
        <ele>1077.4000244141</ele>
        <time>2021-09-03T13:56:26Z</time>
      </trkpt>
      <trkpt lat="44.12413" lon="5.83575">
        <ele>1077.5999755859</ele>
        <time>2021-09-03T13:56:28Z</time>
      </trkpt>
      <trkpt lat="44.12428" lon="5.83579">
        <ele>1078.4000244141</ele>
        <time>2021-09-03T13:56:34Z</time>
      </trkpt>
      <trkpt lat="44.12433" lon="5.8358">
        <ele>1078.5999755859</ele>
        <time>2021-09-03T13:56:36Z</time>
      </trkpt>
      <trkpt lat="44.12443" lon="5.83583">
        <ele>1079.1999511719</ele>
        <time>2021-09-03T13:56:41Z</time>
      </trkpt>
      <trkpt lat="44.12454" lon="5.83585">
        <ele>1079.5999755859</ele>
        <time>2021-09-03T13:56:45Z</time>
      </trkpt>
      <trkpt lat="44.12461" lon="5.83587">
        <ele>1080.1999511719</ele>
        <time>2021-09-03T13:56:49Z</time>
      </trkpt>
      <trkpt lat="44.1247" lon="5.83587">
        <ele>1080.5999755859</ele>
        <time>2021-09-03T13:56:54Z</time>
      </trkpt>
      <trkpt lat="44.12477" lon="5.83584">
        <ele>1081</ele>
        <time>2021-09-03T13:56:57Z</time>
      </trkpt>
      <trkpt lat="44.12487" lon="5.83575">
        <ele>1081.5999755859</ele>
        <time>2021-09-03T13:57:03Z</time>
      </trkpt>
      <trkpt lat="44.12488" lon="5.83573">
        <ele>1081.8000488281</ele>
        <time>2021-09-03T13:57:04Z</time>
      </trkpt>
      <trkpt lat="44.12497" lon="5.8356">
        <ele>1082.4000244141</ele>
        <time>2021-09-03T13:57:10Z</time>
      </trkpt>
      <trkpt lat="44.12501" lon="5.83549">
        <ele>1082.8000488281</ele>
        <time>2021-09-03T13:57:14Z</time>
      </trkpt>
      <trkpt lat="44.12505" lon="5.83539">
        <ele>1083.1999511719</ele>
        <time>2021-09-03T13:57:18Z</time>
      </trkpt>
      <trkpt lat="44.12509" lon="5.83523">
        <ele>1083.8000488281</ele>
        <time>2021-09-03T13:57:24Z</time>
      </trkpt>
      <trkpt lat="44.12509" lon="5.8352">
        <ele>1084</ele>
        <time>2021-09-03T13:57:25Z</time>
      </trkpt>
      <trkpt lat="44.12512" lon="5.83498">
        <ele>1084.8000488281</ele>
        <time>2021-09-03T13:57:33Z</time>
      </trkpt>
      <trkpt lat="44.12512" lon="5.83495">
        <ele>1084.8000488281</ele>
        <time>2021-09-03T13:57:34Z</time>
      </trkpt>
      <trkpt lat="44.12513" lon="5.83482">
        <ele>1085.1999511719</ele>
        <time>2021-09-03T13:57:39Z</time>
      </trkpt>
      <trkpt lat="44.12517" lon="5.83468">
        <ele>1085.8000488281</ele>
        <time>2021-09-03T13:57:44Z</time>
      </trkpt>
      <trkpt lat="44.12518" lon="5.83465">
        <ele>1086</ele>
        <time>2021-09-03T13:57:45Z</time>
      </trkpt>
      <trkpt lat="44.12527" lon="5.83455">
        <ele>1086.5999755859</ele>
        <time>2021-09-03T13:57:51Z</time>
      </trkpt>
      <trkpt lat="44.1253" lon="5.83452">
        <ele>1087</ele>
        <time>2021-09-03T13:57:53Z</time>
      </trkpt>
      <trkpt lat="44.12541" lon="5.83438">
        <ele>1087.8000488281</ele>
        <time>2021-09-03T13:58:00Z</time>
      </trkpt>
      <trkpt lat="44.12543" lon="5.83434">
        <ele>1088</ele>
        <time>2021-09-03T13:58:02Z</time>
      </trkpt>
      <trkpt lat="44.12554" lon="5.83418">
        <ele>1088.8000488281</ele>
        <time>2021-09-03T13:58:09Z</time>
      </trkpt>
      <trkpt lat="44.12557" lon="5.83414">
        <ele>1089.1999511719</ele>
        <time>2021-09-03T13:58:11Z</time>
      </trkpt>
      <trkpt lat="44.12565" lon="5.834">
        <ele>1090</ele>
        <time>2021-09-03T13:58:17Z</time>
      </trkpt>
      <trkpt lat="44.12566" lon="5.83397">
        <ele>1090.1999511719</ele>
        <time>2021-09-03T13:58:18Z</time>
      </trkpt>
      <trkpt lat="44.12574" lon="5.83373">
        <ele>1091</ele>
        <time>2021-09-03T13:58:27Z</time>
      </trkpt>
      <trkpt lat="44.12576" lon="5.83368">
        <ele>1091.1999511719</ele>
        <time>2021-09-03T13:58:29Z</time>
      </trkpt>
      <trkpt lat="44.12581" lon="5.83346">
        <ele>1092</ele>
        <time>2021-09-03T13:58:37Z</time>
      </trkpt>
      <trkpt lat="44.12583" lon="5.83338">
        <ele>1092.4000244141</ele>
        <time>2021-09-03T13:58:40Z</time>
      </trkpt>
      <trkpt lat="44.12589" lon="5.83329">
        <ele>1092.8000488281</ele>
        <time>2021-09-03T13:58:44Z</time>
      </trkpt>
      <trkpt lat="44.12596" lon="5.83323">
        <ele>1093.4000244141</ele>
        <time>2021-09-03T13:58:48Z</time>
      </trkpt>
      <trkpt lat="44.12602" lon="5.8332">
        <ele>1093.5999755859</ele>
        <time>2021-09-03T13:58:51Z</time>
      </trkpt>
      <trkpt lat="44.12615" lon="5.83317">
        <ele>1094.4000244141</ele>
        <time>2021-09-03T13:58:57Z</time>
      </trkpt>
      <trkpt lat="44.12617" lon="5.83316">
        <ele>1094.4000244141</ele>
        <time>2021-09-03T13:58:58Z</time>
      </trkpt>
      <trkpt lat="44.12634" lon="5.83306">
        <ele>1095.1999511719</ele>
        <time>2021-09-03T13:59:06Z</time>
      </trkpt>
      <trkpt lat="44.12636" lon="5.83304">
        <ele>1095.4000244141</ele>
        <time>2021-09-03T13:59:07Z</time>
      </trkpt>
      <trkpt lat="44.12645" lon="5.83295">
        <ele>1096</ele>
        <time>2021-09-03T13:59:12Z</time>
      </trkpt>
      <trkpt lat="44.12649" lon="5.83285">
        <ele>1096.4000244141</ele>
        <time>2021-09-03T13:59:16Z</time>
      </trkpt>
      <trkpt lat="44.12653" lon="5.83274">
        <ele>1096.8000488281</ele>
        <time>2021-09-03T13:59:20Z</time>
      </trkpt>
      <trkpt lat="44.12658" lon="5.83256">
        <ele>1097.4000244141</ele>
        <time>2021-09-03T13:59:26Z</time>
      </trkpt>
      <trkpt lat="44.12658" lon="5.83236">
        <ele>1098.4000244141</ele>
        <time>2021-09-03T13:59:32Z</time>
      </trkpt>
      <trkpt lat="44.12658" lon="5.83233">
        <ele>1098.5999755859</ele>
        <time>2021-09-03T13:59:33Z</time>
      </trkpt>
      <trkpt lat="44.12653" lon="5.83216">
        <ele>1099.1999511719</ele>
        <time>2021-09-03T13:59:39Z</time>
      </trkpt>
      <trkpt lat="44.1265" lon="5.83207">
        <ele>1099.5999755859</ele>
        <time>2021-09-03T13:59:42Z</time>
      </trkpt>
      <trkpt lat="44.12648" lon="5.83195">
        <ele>1100</ele>
        <time>2021-09-03T13:59:46Z</time>
      </trkpt>
      <trkpt lat="44.12653" lon="5.8318">
        <ele>1100.8000488281</ele>
        <time>2021-09-03T13:59:51Z</time>
      </trkpt>
      <trkpt lat="44.12655" lon="5.83178">
        <ele>1100.8000488281</ele>
        <time>2021-09-03T13:59:52Z</time>
      </trkpt>
      <trkpt lat="44.12667" lon="5.83165">
        <ele>1101.4000244141</ele>
        <time>2021-09-03T13:59:59Z</time>
      </trkpt>
      <trkpt lat="44.12672" lon="5.83159">
        <ele>1101.8000488281</ele>
        <time>2021-09-03T14:00:02Z</time>
      </trkpt>
      <trkpt lat="44.12679" lon="5.8315">
        <ele>1102.4000244141</ele>
        <time>2021-09-03T14:00:07Z</time>
      </trkpt>
      <trkpt lat="44.12683" lon="5.83141">
        <ele>1103</ele>
        <time>2021-09-03T14:00:11Z</time>
      </trkpt>
      <trkpt lat="44.12686" lon="5.83133">
        <ele>1103.4000244141</ele>
        <time>2021-09-03T14:00:14Z</time>
      </trkpt>
      <trkpt lat="44.12693" lon="5.83121">
        <ele>1104.1999511719</ele>
        <time>2021-09-03T14:00:20Z</time>
      </trkpt>
      <trkpt lat="44.12694" lon="5.83116">
        <ele>1104.4000244141</ele>
        <time>2021-09-03T14:00:22Z</time>
      </trkpt>
      <trkpt lat="44.12699" lon="5.83101">
        <ele>1105.1999511719</ele>
        <time>2021-09-03T14:00:28Z</time>
      </trkpt>
      <trkpt lat="44.127" lon="5.83099">
        <ele>1105.1999511719</ele>
        <time>2021-09-03T14:00:29Z</time>
      </trkpt>
      <trkpt lat="44.12704" lon="5.83083">
        <ele>1106.1999511719</ele>
        <time>2021-09-03T14:00:36Z</time>
      </trkpt>
      <trkpt lat="44.12704" lon="5.8308">
        <ele>1106.1999511719</ele>
        <time>2021-09-03T14:00:37Z</time>
      </trkpt>
      <trkpt lat="44.12707" lon="5.83064">
        <ele>1107.1999511719</ele>
        <time>2021-09-03T14:00:44Z</time>
      </trkpt>
      <trkpt lat="44.12709" lon="5.83045">
        <ele>1108.1999511719</ele>
        <time>2021-09-03T14:00:52Z</time>
      </trkpt>
      <trkpt lat="44.12709" lon="5.83042">
        <ele>1108.1999511719</ele>
        <time>2021-09-03T14:00:53Z</time>
      </trkpt>
      <trkpt lat="44.12709" lon="5.83028">
        <ele>1109.1999511719</ele>
        <time>2021-09-03T14:00:59Z</time>
      </trkpt>
      <trkpt lat="44.12709" lon="5.83026">
        <ele>1109.4000244141</ele>
        <time>2021-09-03T14:01:00Z</time>
      </trkpt>
      <trkpt lat="44.12709" lon="5.83014">
        <ele>1110</ele>
        <time>2021-09-03T14:01:05Z</time>
      </trkpt>
      <trkpt lat="44.12709" lon="5.83006">
        <ele>1110.4000244141</ele>
        <time>2021-09-03T14:01:08Z</time>
      </trkpt>
      <trkpt lat="44.12707" lon="5.82997">
        <ele>1111</ele>
        <time>2021-09-03T14:01:12Z</time>
      </trkpt>
      <trkpt lat="44.12706" lon="5.8299">
        <ele>1111.4000244141</ele>
        <time>2021-09-03T14:01:15Z</time>
      </trkpt>
      <trkpt lat="44.12702" lon="5.82978">
        <ele>1112</ele>
        <time>2021-09-03T14:01:21Z</time>
      </trkpt>
      <trkpt lat="44.12702" lon="5.82974">
        <ele>1112.5999755859</ele>
        <time>2021-09-03T14:01:23Z</time>
      </trkpt>
      <trkpt lat="44.12702" lon="5.82969">
        <ele>1112.8000488281</ele>
        <time>2021-09-03T14:01:25Z</time>
      </trkpt>
      <trkpt lat="44.12699" lon="5.82955">
        <ele>1113.5999755859</ele>
        <time>2021-09-03T14:01:31Z</time>
      </trkpt>
      <trkpt lat="44.12698" lon="5.82948">
        <ele>1114</ele>
        <time>2021-09-03T14:01:34Z</time>
      </trkpt>
      <trkpt lat="44.12695" lon="5.82934">
        <ele>1114.5999755859</ele>
        <time>2021-09-03T14:01:40Z</time>
      </trkpt>
      <trkpt lat="44.12694" lon="5.82929">
        <ele>1114.8000488281</ele>
        <time>2021-09-03T14:01:42Z</time>
      </trkpt>
      <trkpt lat="44.12691" lon="5.82916">
        <ele>1115.8000488281</ele>
        <time>2021-09-03T14:01:48Z</time>
      </trkpt>
      <trkpt lat="44.12689" lon="5.82912">
        <ele>1116</ele>
        <time>2021-09-03T14:01:50Z</time>
      </trkpt>
      <trkpt lat="44.12687" lon="5.82899">
        <ele>1116.8000488281</ele>
        <time>2021-09-03T14:01:56Z</time>
      </trkpt>
      <trkpt lat="44.12685" lon="5.82895">
        <ele>1117</ele>
        <time>2021-09-03T14:01:58Z</time>
      </trkpt>
      <trkpt lat="44.12682" lon="5.82883">
        <ele>1117.8000488281</ele>
        <time>2021-09-03T14:02:04Z</time>
      </trkpt>
      <trkpt lat="44.12681" lon="5.82881">
        <ele>1118</ele>
        <time>2021-09-03T14:02:05Z</time>
      </trkpt>
      <trkpt lat="44.12677" lon="5.82867">
        <ele>1118.8000488281</ele>
        <time>2021-09-03T14:02:12Z</time>
      </trkpt>
      <trkpt lat="44.12675" lon="5.82863">
        <ele>1119</ele>
        <time>2021-09-03T14:02:14Z</time>
      </trkpt>
      <trkpt lat="44.12671" lon="5.82853">
        <ele>1119.5999755859</ele>
        <time>2021-09-03T14:02:19Z</time>
      </trkpt>
      <trkpt lat="44.12668" lon="5.82843">
        <ele>1120.1999511719</ele>
        <time>2021-09-03T14:02:24Z</time>
      </trkpt>
      <trkpt lat="44.12668" lon="5.82841">
        <ele>1120.1999511719</ele>
        <time>2021-09-03T14:02:25Z</time>
      </trkpt>
      <trkpt lat="44.12672" lon="5.82827">
        <ele>1121</ele>
        <time>2021-09-03T14:02:31Z</time>
      </trkpt>
      <trkpt lat="44.12674" lon="5.82824">
        <ele>1121.1999511719</ele>
        <time>2021-09-03T14:02:32Z</time>
      </trkpt>
      <trkpt lat="44.12678" lon="5.82811">
        <ele>1122</ele>
        <time>2021-09-03T14:02:38Z</time>
      </trkpt>
      <trkpt lat="44.12678" lon="5.82809">
        <ele>1122.1999511719</ele>
        <time>2021-09-03T14:02:39Z</time>
      </trkpt>
      <trkpt lat="44.1268" lon="5.828">
        <ele>1122.8000488281</ele>
        <time>2021-09-03T14:02:43Z</time>
      </trkpt>
      <trkpt lat="44.1268" lon="5.82794">
        <ele>1123.1999511719</ele>
        <time>2021-09-03T14:02:46Z</time>
      </trkpt>
      <trkpt lat="44.1268" lon="5.82792">
        <ele>1123.1999511719</ele>
        <time>2021-09-03T14:02:47Z</time>
      </trkpt>
      <trkpt lat="44.1268" lon="5.82776">
        <ele>1124</ele>
        <time>2021-09-03T14:02:53Z</time>
      </trkpt>
      <trkpt lat="44.12681" lon="5.82768">
        <ele>1124.1999511719</ele>
        <time>2021-09-03T14:02:56Z</time>
      </trkpt>
      <trkpt lat="44.1268" lon="5.82763">
        <ele>1124.8000488281</ele>
        <time>2021-09-03T14:02:59Z</time>
      </trkpt>
      <trkpt lat="44.1268" lon="5.82754">
        <ele>1125.4000244141</ele>
        <time>2021-09-03T14:03:03Z</time>
      </trkpt>
      <trkpt lat="44.1268" lon="5.82746">
        <ele>1125.8000488281</ele>
        <time>2021-09-03T14:03:07Z</time>
      </trkpt>
      <trkpt lat="44.12679" lon="5.82744">
        <ele>1126</ele>
        <time>2021-09-03T14:03:08Z</time>
      </trkpt>
      <trkpt lat="44.1268" lon="5.82737">
        <ele>1126.1999511719</ele>
        <time>2021-09-03T14:03:11Z</time>
      </trkpt>
      <trkpt lat="44.12681" lon="5.82734">
        <ele>1126.4000244141</ele>
        <time>2021-09-03T14:03:12Z</time>
      </trkpt>
      <trkpt lat="44.12685" lon="5.82727">
        <ele>1126.8000488281</ele>
        <time>2021-09-03T14:03:15Z</time>
      </trkpt>
      <trkpt lat="44.12688" lon="5.82721">
        <ele>1127.1999511719</ele>
        <time>2021-09-03T14:03:18Z</time>
      </trkpt>
      <trkpt lat="44.12691" lon="5.82719">
        <ele>1127.5999755859</ele>
        <time>2021-09-03T14:03:20Z</time>
      </trkpt>
      <trkpt lat="44.12697" lon="5.82713">
        <ele>1128.1999511719</ele>
        <time>2021-09-03T14:03:24Z</time>
      </trkpt>
      <trkpt lat="44.12701" lon="5.82709">
        <ele>1128.5999755859</ele>
        <time>2021-09-03T14:03:27Z</time>
      </trkpt>
      <trkpt lat="44.12707" lon="5.82703">
        <ele>1129.1999511719</ele>
        <time>2021-09-03T14:03:31Z</time>
      </trkpt>
      <trkpt lat="44.1271" lon="5.82699">
        <ele>1129.5999755859</ele>
        <time>2021-09-03T14:03:33Z</time>
      </trkpt>
      <trkpt lat="44.12719" lon="5.82686">
        <ele>1130.4000244141</ele>
        <time>2021-09-03T14:03:40Z</time>
      </trkpt>
      <trkpt lat="44.12721" lon="5.82683">
        <ele>1130.5999755859</ele>
        <time>2021-09-03T14:03:42Z</time>
      </trkpt>
      <trkpt lat="44.12728" lon="5.82673">
        <ele>1131.5999755859</ele>
        <time>2021-09-03T14:03:48Z</time>
      </trkpt>
      <trkpt lat="44.12731" lon="5.82669">
        <ele>1131.8000488281</ele>
        <time>2021-09-03T14:03:50Z</time>
      </trkpt>
      <trkpt lat="44.12739" lon="5.8266">
        <ele>1132.5999755859</ele>
        <time>2021-09-03T14:03:56Z</time>
      </trkpt>
      <trkpt lat="44.12743" lon="5.82655">
        <ele>1132.8000488281</ele>
        <time>2021-09-03T14:03:59Z</time>
      </trkpt>
      <trkpt lat="44.1275" lon="5.8265">
        <ele>1133.4000244141</ele>
        <time>2021-09-03T14:04:04Z</time>
      </trkpt>
      <trkpt lat="44.12757" lon="5.82649">
        <ele>1134</ele>
        <time>2021-09-03T14:04:08Z</time>
      </trkpt>
      <trkpt lat="44.1276" lon="5.82648">
        <ele>1134.1999511719</ele>
        <time>2021-09-03T14:04:10Z</time>
      </trkpt>
      <trkpt lat="44.1277" lon="5.82648">
        <ele>1135</ele>
        <time>2021-09-03T14:04:16Z</time>
      </trkpt>
      <trkpt lat="44.12772" lon="5.82647">
        <ele>1135.1999511719</ele>
        <time>2021-09-03T14:04:17Z</time>
      </trkpt>
      <trkpt lat="44.12784" lon="5.82636">
        <ele>1136.1999511719</ele>
        <time>2021-09-03T14:04:25Z</time>
      </trkpt>
      <trkpt lat="44.12795" lon="5.82619">
        <ele>1137.1999511719</ele>
        <time>2021-09-03T14:04:34Z</time>
      </trkpt>
      <trkpt lat="44.12798" lon="5.82604">
        <ele>1137.8000488281</ele>
        <time>2021-09-03T14:04:41Z</time>
      </trkpt>
      <trkpt lat="44.12799" lon="5.826">
        <ele>1138.1999511719</ele>
        <time>2021-09-03T14:04:43Z</time>
      </trkpt>
      <trkpt lat="44.128" lon="5.82596">
        <ele>1138.4000244141</ele>
        <time>2021-09-03T14:04:45Z</time>
      </trkpt>
      <trkpt lat="44.128" lon="5.82585">
        <ele>1138.8000488281</ele>
        <time>2021-09-03T14:04:49Z</time>
      </trkpt>
      <trkpt lat="44.12799" lon="5.8257">
        <ele>1139.1999511719</ele>
        <time>2021-09-03T14:04:55Z</time>
      </trkpt>
      <trkpt lat="44.12799" lon="5.82567">
        <ele>1139.4000244141</ele>
        <time>2021-09-03T14:04:56Z</time>
      </trkpt>
      <trkpt lat="44.12799" lon="5.8255">
        <ele>1140.1999511719</ele>
        <time>2021-09-03T14:05:03Z</time>
      </trkpt>
      <trkpt lat="44.12799" lon="5.82547">
        <ele>1140.4000244141</ele>
        <time>2021-09-03T14:05:04Z</time>
      </trkpt>
      <trkpt lat="44.12798" lon="5.82532">
        <ele>1141</ele>
        <time>2021-09-03T14:05:10Z</time>
      </trkpt>
      <trkpt lat="44.12798" lon="5.82523">
        <ele>1141.4000244141</ele>
        <time>2021-09-03T14:05:14Z</time>
      </trkpt>
      <trkpt lat="44.12798" lon="5.82515">
        <ele>1141.8000488281</ele>
        <time>2021-09-03T14:05:17Z</time>
      </trkpt>
      <trkpt lat="44.12799" lon="5.8251">
        <ele>1142</ele>
        <time>2021-09-03T14:05:19Z</time>
      </trkpt>
      <trkpt lat="44.128" lon="5.82502">
        <ele>1142.4000244141</ele>
        <time>2021-09-03T14:05:22Z</time>
      </trkpt>
      <trkpt lat="44.12799" lon="5.825">
        <ele>1142.5999755859</ele>
        <time>2021-09-03T14:05:23Z</time>
      </trkpt>
      <trkpt lat="44.12799" lon="5.8249">
        <ele>1143</ele>
        <time>2021-09-03T14:05:27Z</time>
      </trkpt>
      <trkpt lat="44.12801" lon="5.82484">
        <ele>1143.1999511719</ele>
        <time>2021-09-03T14:05:29Z</time>
      </trkpt>
      <trkpt lat="44.12804" lon="5.82475">
        <ele>1143.5999755859</ele>
        <time>2021-09-03T14:05:32Z</time>
      </trkpt>
      <trkpt lat="44.12806" lon="5.82469">
        <ele>1144</ele>
        <time>2021-09-03T14:05:35Z</time>
      </trkpt>
      <trkpt lat="44.12812" lon="5.82455">
        <ele>1144.5999755859</ele>
        <time>2021-09-03T14:05:41Z</time>
      </trkpt>
      <trkpt lat="44.12814" lon="5.82453">
        <ele>1144.8000488281</ele>
        <time>2021-09-03T14:05:42Z</time>
      </trkpt>
      <trkpt lat="44.12822" lon="5.82443">
        <ele>1145.8000488281</ele>
        <time>2021-09-03T14:05:47Z</time>
      </trkpt>
      <trkpt lat="44.12826" lon="5.8244">
        <ele>1146</ele>
        <time>2021-09-03T14:05:49Z</time>
      </trkpt>
      <trkpt lat="44.12834" lon="5.8243">
        <ele>1146.8000488281</ele>
        <time>2021-09-03T14:05:54Z</time>
      </trkpt>
      <trkpt lat="44.12839" lon="5.82426">
        <ele>1147</ele>
        <time>2021-09-03T14:05:57Z</time>
      </trkpt>
      <trkpt lat="44.12848" lon="5.82423">
        <ele>1147.8000488281</ele>
        <time>2021-09-03T14:06:04Z</time>
      </trkpt>
      <trkpt lat="44.12849" lon="5.82423">
        <ele>1147.8000488281</ele>
        <time>2021-09-03T14:06:05Z</time>
      </trkpt>
      <trkpt lat="44.12859" lon="5.82424">
        <ele>1148.5999755859</ele>
        <time>2021-09-03T14:06:12Z</time>
      </trkpt>
      <trkpt lat="44.12864" lon="5.82425">
        <ele>1149</ele>
        <time>2021-09-03T14:06:15Z</time>
      </trkpt>
      <trkpt lat="44.12874" lon="5.82427">
        <ele>1149.5999755859</ele>
        <time>2021-09-03T14:06:20Z</time>
      </trkpt>
      <trkpt lat="44.12879" lon="5.82426">
        <ele>1149.8000488281</ele>
        <time>2021-09-03T14:06:22Z</time>
      </trkpt>
      <trkpt lat="44.12884" lon="5.82423">
        <ele>1150</ele>
        <time>2021-09-03T14:06:24Z</time>
      </trkpt>
      <trkpt lat="44.12886" lon="5.82422">
        <ele>1150.1999511719</ele>
        <time>2021-09-03T14:06:25Z</time>
      </trkpt>
      <trkpt lat="44.12896" lon="5.82406">
        <ele>1151</ele>
        <time>2021-09-03T14:06:33Z</time>
      </trkpt>
      <trkpt lat="44.12896" lon="5.82404">
        <ele>1151.1999511719</ele>
        <time>2021-09-03T14:06:34Z</time>
      </trkpt>
      <trkpt lat="44.12901" lon="5.82391">
        <ele>1151.5999755859</ele>
        <time>2021-09-03T14:06:39Z</time>
      </trkpt>
      <trkpt lat="44.12904" lon="5.82379">
        <ele>1152.1999511719</ele>
        <time>2021-09-03T14:06:44Z</time>
      </trkpt>
      <trkpt lat="44.12905" lon="5.82376">
        <ele>1152.4000244141</ele>
        <time>2021-09-03T14:06:45Z</time>
      </trkpt>
      <trkpt lat="44.12906" lon="5.82366">
        <ele>1152.8000488281</ele>
        <time>2021-09-03T14:06:49Z</time>
      </trkpt>
      <trkpt lat="44.12906" lon="5.82361">
        <ele>1153</ele>
        <time>2021-09-03T14:06:51Z</time>
      </trkpt>
      <trkpt lat="44.12906" lon="5.82355">
        <ele>1153.1999511719</ele>
        <time>2021-09-03T14:06:53Z</time>
      </trkpt>
      <trkpt lat="44.12909" lon="5.82339">
        <ele>1153.8000488281</ele>
        <time>2021-09-03T14:06:58Z</time>
      </trkpt>
      <trkpt lat="44.1291" lon="5.8233">
        <ele>1154.4000244141</ele>
        <time>2021-09-03T14:07:01Z</time>
      </trkpt>
      <trkpt lat="44.12911" lon="5.8232">
        <ele>1155</ele>
        <time>2021-09-03T14:07:05Z</time>
      </trkpt>
      <trkpt lat="44.12913" lon="5.82309">
        <ele>1155.4000244141</ele>
        <time>2021-09-03T14:07:09Z</time>
      </trkpt>
      <trkpt lat="44.12913" lon="5.82304">
        <ele>1155.8000488281</ele>
        <time>2021-09-03T14:07:11Z</time>
      </trkpt>
      <trkpt lat="44.1291" lon="5.82292">
        <ele>1156.4000244141</ele>
        <time>2021-09-03T14:07:16Z</time>
      </trkpt>
      <trkpt lat="44.1291" lon="5.82289">
        <ele>1156.5999755859</ele>
        <time>2021-09-03T14:07:17Z</time>
      </trkpt>
      <trkpt lat="44.12907" lon="5.82276">
        <ele>1157.5999755859</ele>
        <time>2021-09-03T14:07:23Z</time>
      </trkpt>
      <trkpt lat="44.12908" lon="5.82271">
        <ele>1158</ele>
        <time>2021-09-03T14:07:25Z</time>
      </trkpt>
      <trkpt lat="44.1291" lon="5.82256">
        <ele>1158.5999755859</ele>
        <time>2021-09-03T14:07:31Z</time>
      </trkpt>
      <trkpt lat="44.12911" lon="5.8225">
        <ele>1158.8000488281</ele>
        <time>2021-09-03T14:07:33Z</time>
      </trkpt>
      <trkpt lat="44.12911" lon="5.82234">
        <ele>1159.1999511719</ele>
        <time>2021-09-03T14:07:38Z</time>
      </trkpt>
      <trkpt lat="44.12914" lon="5.82215">
        <ele>1159.8000488281</ele>
        <time>2021-09-03T14:07:44Z</time>
      </trkpt>
      <trkpt lat="44.12914" lon="5.82212">
        <ele>1159.8000488281</ele>
        <time>2021-09-03T14:07:45Z</time>
      </trkpt>
      <trkpt lat="44.12911" lon="5.82194">
        <ele>1160.5999755859</ele>
        <time>2021-09-03T14:07:51Z</time>
      </trkpt>
      <trkpt lat="44.1291" lon="5.82188">
        <ele>1160.8000488281</ele>
        <time>2021-09-03T14:07:53Z</time>
      </trkpt>
      <trkpt lat="44.12908" lon="5.82178">
        <ele>1161.4000244141</ele>
        <time>2021-09-03T14:07:57Z</time>
      </trkpt>
      <trkpt lat="44.12907" lon="5.82175">
        <ele>1161.4000244141</ele>
        <time>2021-09-03T14:07:58Z</time>
      </trkpt>
      <trkpt lat="44.12908" lon="5.82166">
        <ele>1161.8000488281</ele>
        <time>2021-09-03T14:08:01Z</time>
      </trkpt>
      <trkpt lat="44.12909" lon="5.82164">
        <ele>1162</ele>
        <time>2021-09-03T14:08:02Z</time>
      </trkpt>
      <trkpt lat="44.12916" lon="5.82155">
        <ele>1162.5999755859</ele>
        <time>2021-09-03T14:08:06Z</time>
      </trkpt>
      <trkpt lat="44.12921" lon="5.82148">
        <ele>1162.8000488281</ele>
        <time>2021-09-03T14:08:09Z</time>
      </trkpt>
      <trkpt lat="44.1293" lon="5.8213">
        <ele>1163.5999755859</ele>
        <time>2021-09-03T14:08:15Z</time>
      </trkpt>
      <trkpt lat="44.12938" lon="5.8211">
        <ele>1164</ele>
        <time>2021-09-03T14:08:22Z</time>
      </trkpt>
      <trkpt lat="44.12944" lon="5.82095">
        <ele>1164.5999755859</ele>
        <time>2021-09-03T14:08:28Z</time>
      </trkpt>
      <trkpt lat="44.12948" lon="5.8209">
        <ele>1165</ele>
        <time>2021-09-03T14:08:30Z</time>
      </trkpt>
      <trkpt lat="44.12952" lon="5.82082">
        <ele>1165.4000244141</ele>
        <time>2021-09-03T14:08:33Z</time>
      </trkpt>
      <trkpt lat="44.12962" lon="5.82065">
        <ele>1166</ele>
        <time>2021-09-03T14:08:40Z</time>
      </trkpt>
      <trkpt lat="44.12964" lon="5.82063">
        <ele>1166.1999511719</ele>
        <time>2021-09-03T14:08:41Z</time>
      </trkpt>
      <trkpt lat="44.12973" lon="5.82049">
        <ele>1166.5999755859</ele>
        <time>2021-09-03T14:08:48Z</time>
      </trkpt>
      <trkpt lat="44.12979" lon="5.82041">
        <ele>1167.1999511719</ele>
        <time>2021-09-03T14:08:52Z</time>
      </trkpt>
      <trkpt lat="44.12982" lon="5.82037">
        <ele>1167.5999755859</ele>
        <time>2021-09-03T14:08:54Z</time>
      </trkpt>
      <trkpt lat="44.12987" lon="5.82023">
        <ele>1168.1999511719</ele>
        <time>2021-09-03T14:09:00Z</time>
      </trkpt>
      <trkpt lat="44.12988" lon="5.8202">
        <ele>1168.4000244141</ele>
        <time>2021-09-03T14:09:01Z</time>
      </trkpt>
      <trkpt lat="44.12993" lon="5.81999">
        <ele>1169.1999511719</ele>
        <time>2021-09-03T14:09:09Z</time>
      </trkpt>
      <trkpt lat="44.12995" lon="5.8199">
        <ele>1169.5999755859</ele>
        <time>2021-09-03T14:09:12Z</time>
      </trkpt>
      <trkpt lat="44.12998" lon="5.81982">
        <ele>1170</ele>
        <time>2021-09-03T14:09:15Z</time>
      </trkpt>
      <trkpt lat="44.13002" lon="5.81975">
        <ele>1170.4000244141</ele>
        <time>2021-09-03T14:09:18Z</time>
      </trkpt>
      <trkpt lat="44.13009" lon="5.81965">
        <ele>1171</ele>
        <time>2021-09-03T14:09:23Z</time>
      </trkpt>
      <trkpt lat="44.13012" lon="5.81958">
        <ele>1171.4000244141</ele>
        <time>2021-09-03T14:09:26Z</time>
      </trkpt>
      <trkpt lat="44.13017" lon="5.81952">
        <ele>1171.8000488281</ele>
        <time>2021-09-03T14:09:29Z</time>
      </trkpt>
      <trkpt lat="44.13024" lon="5.81943">
        <ele>1172.4000244141</ele>
        <time>2021-09-03T14:09:34Z</time>
      </trkpt>
      <trkpt lat="44.13031" lon="5.81934">
        <ele>1173</ele>
        <time>2021-09-03T14:09:39Z</time>
      </trkpt>
      <trkpt lat="44.13037" lon="5.81925">
        <ele>1173.4000244141</ele>
        <time>2021-09-03T14:09:43Z</time>
      </trkpt>
      <trkpt lat="44.13042" lon="5.81914">
        <ele>1174.1999511719</ele>
        <time>2021-09-03T14:09:48Z</time>
      </trkpt>
      <trkpt lat="44.13044" lon="5.8191">
        <ele>1174.5999755859</ele>
        <time>2021-09-03T14:09:50Z</time>
      </trkpt>
      <trkpt lat="44.13048" lon="5.81895">
        <ele>1174.8000488281</ele>
        <time>2021-09-03T14:09:56Z</time>
      </trkpt>
      <trkpt lat="44.13052" lon="5.81877">
        <ele>1175.4000244141</ele>
        <time>2021-09-03T14:10:03Z</time>
      </trkpt>
      <trkpt lat="44.13052" lon="5.81874">
        <ele>1175.5999755859</ele>
        <time>2021-09-03T14:10:04Z</time>
      </trkpt>
      <trkpt lat="44.13055" lon="5.81857">
        <ele>1176</ele>
        <time>2021-09-03T14:10:10Z</time>
      </trkpt>
      <trkpt lat="44.13055" lon="5.81846">
        <ele>1176.5999755859</ele>
        <time>2021-09-03T14:10:14Z</time>
      </trkpt>
      <trkpt lat="44.13055" lon="5.81835">
        <ele>1177.1999511719</ele>
        <time>2021-09-03T14:10:18Z</time>
      </trkpt>
      <trkpt lat="44.13054" lon="5.81827">
        <ele>1177.8000488281</ele>
        <time>2021-09-03T14:10:21Z</time>
      </trkpt>
      <trkpt lat="44.13052" lon="5.81817">
        <ele>1178.1999511719</ele>
        <time>2021-09-03T14:10:25Z</time>
      </trkpt>
      <trkpt lat="44.13051" lon="5.81805">
        <ele>1178.8000488281</ele>
        <time>2021-09-03T14:10:30Z</time>
      </trkpt>
      <trkpt lat="44.1305" lon="5.81798">
        <ele>1179.1999511719</ele>
        <time>2021-09-03T14:10:33Z</time>
      </trkpt>
      <trkpt lat="44.13048" lon="5.81782">
        <ele>1179.8000488281</ele>
        <time>2021-09-03T14:10:39Z</time>
      </trkpt>
      <trkpt lat="44.13047" lon="5.81776">
        <ele>1180.1999511719</ele>
        <time>2021-09-03T14:10:41Z</time>
      </trkpt>
      <trkpt lat="44.13044" lon="5.8176">
        <ele>1180.8000488281</ele>
        <time>2021-09-03T14:10:48Z</time>
      </trkpt>
      <trkpt lat="44.13044" lon="5.81757">
        <ele>1181</ele>
        <time>2021-09-03T14:10:49Z</time>
      </trkpt>
      <trkpt lat="44.13042" lon="5.81743">
        <ele>1181.8000488281</ele>
        <time>2021-09-03T14:10:55Z</time>
      </trkpt>
      <trkpt lat="44.13042" lon="5.81741">
        <ele>1182</ele>
        <time>2021-09-03T14:10:56Z</time>
      </trkpt>
      <trkpt lat="44.13041" lon="5.81728">
        <ele>1182.8000488281</ele>
        <time>2021-09-03T14:11:01Z</time>
      </trkpt>
      <trkpt lat="44.13042" lon="5.81722">
        <ele>1183</ele>
        <time>2021-09-03T14:11:03Z</time>
      </trkpt>
      <trkpt lat="44.13044" lon="5.81704">
        <ele>1184</ele>
        <time>2021-09-03T14:11:10Z</time>
      </trkpt>
      <trkpt lat="44.13047" lon="5.81684">
        <ele>1185.1999511719</ele>
        <time>2021-09-03T14:11:18Z</time>
      </trkpt>
      <trkpt lat="44.13048" lon="5.8168">
        <ele>1185.4000244141</ele>
        <time>2021-09-03T14:11:20Z</time>
      </trkpt>
      <trkpt lat="44.13051" lon="5.81667">
        <ele>1186.1999511719</ele>
        <time>2021-09-03T14:11:26Z</time>
      </trkpt>
      <trkpt lat="44.13052" lon="5.81665">
        <ele>1186.4000244141</ele>
        <time>2021-09-03T14:11:27Z</time>
      </trkpt>
      <trkpt lat="44.13056" lon="5.81649">
        <ele>1187.4000244141</ele>
        <time>2021-09-03T14:11:34Z</time>
      </trkpt>
      <trkpt lat="44.13057" lon="5.81647">
        <ele>1187.4000244141</ele>
        <time>2021-09-03T14:11:35Z</time>
      </trkpt>
      <trkpt lat="44.13059" lon="5.81631">
        <ele>1188.4000244141</ele>
        <time>2021-09-03T14:11:42Z</time>
      </trkpt>
      <trkpt lat="44.13062" lon="5.81617">
        <ele>1189.1999511719</ele>
        <time>2021-09-03T14:11:48Z</time>
      </trkpt>
      <trkpt lat="44.13063" lon="5.81612">
        <ele>1189.4000244141</ele>
        <time>2021-09-03T14:11:50Z</time>
      </trkpt>
      <trkpt lat="44.13063" lon="5.816">
        <ele>1190</ele>
        <time>2021-09-03T14:11:55Z</time>
      </trkpt>
      <trkpt lat="44.13064" lon="5.81588">
        <ele>1190.4000244141</ele>
        <time>2021-09-03T14:12:00Z</time>
      </trkpt>
      <trkpt lat="44.13064" lon="5.81577">
        <ele>1191</ele>
        <time>2021-09-03T14:12:05Z</time>
      </trkpt>
      <trkpt lat="44.13063" lon="5.81565">
        <ele>1191.5999755859</ele>
        <time>2021-09-03T14:12:10Z</time>
      </trkpt>
      <trkpt lat="44.13063" lon="5.81554">
        <ele>1192.1999511719</ele>
        <time>2021-09-03T14:12:14Z</time>
      </trkpt>
      <trkpt lat="44.13063" lon="5.81545">
        <ele>1192.5999755859</ele>
        <time>2021-09-03T14:12:18Z</time>
      </trkpt>
      <trkpt lat="44.13064" lon="5.81535">
        <ele>1193.1999511719</ele>
        <time>2021-09-03T14:12:22Z</time>
      </trkpt>
      <trkpt lat="44.13062" lon="5.81528">
        <ele>1193.5999755859</ele>
        <time>2021-09-03T14:12:25Z</time>
      </trkpt>
      <trkpt lat="44.13061" lon="5.81523">
        <ele>1193.8000488281</ele>
        <time>2021-09-03T14:12:27Z</time>
      </trkpt>
      <trkpt lat="44.13061" lon="5.81518">
        <ele>1194</ele>
        <time>2021-09-03T14:12:29Z</time>
      </trkpt>
      <trkpt lat="44.1306" lon="5.8151">
        <ele>1194.5999755859</ele>
        <time>2021-09-03T14:12:33Z</time>
      </trkpt>
      <trkpt lat="44.13059" lon="5.81508">
        <ele>1194.8000488281</ele>
        <time>2021-09-03T14:12:34Z</time>
      </trkpt>
      <trkpt lat="44.13057" lon="5.81498">
        <ele>1195.5999755859</ele>
        <time>2021-09-03T14:12:39Z</time>
      </trkpt>
      <trkpt lat="44.13057" lon="5.81496">
        <ele>1195.5999755859</ele>
        <time>2021-09-03T14:12:40Z</time>
      </trkpt>
      <trkpt lat="44.13056" lon="5.81491">
        <ele>1195.8000488281</ele>
        <time>2021-09-03T14:12:42Z</time>
      </trkpt>
      <trkpt lat="44.13055" lon="5.81484">
        <ele>1196.1999511719</ele>
        <time>2021-09-03T14:12:45Z</time>
      </trkpt>
      <trkpt lat="44.13053" lon="5.81477">
        <ele>1196.5999755859</ele>
        <time>2021-09-03T14:12:48Z</time>
      </trkpt>
      <trkpt lat="44.13052" lon="5.81471">
        <ele>1196.8000488281</ele>
        <time>2021-09-03T14:12:51Z</time>
      </trkpt>
      <trkpt lat="44.13052" lon="5.81469">
        <ele>1197</ele>
        <time>2021-09-03T14:12:52Z</time>
      </trkpt>
      <trkpt lat="44.13053" lon="5.81454">
        <ele>1197.5999755859</ele>
        <time>2021-09-03T14:12:58Z</time>
      </trkpt>
      <trkpt lat="44.13053" lon="5.8145">
        <ele>1198</ele>
        <time>2021-09-03T14:13:00Z</time>
      </trkpt>
      <trkpt lat="44.13053" lon="5.81435">
        <ele>1199</ele>
        <time>2021-09-03T14:13:07Z</time>
      </trkpt>
      <trkpt lat="44.13053" lon="5.81431">
        <ele>1199.1999511719</ele>
        <time>2021-09-03T14:13:09Z</time>
      </trkpt>
      <trkpt lat="44.13055" lon="5.81421">
        <ele>1199.5999755859</ele>
        <time>2021-09-03T14:13:13Z</time>
      </trkpt>
      <trkpt lat="44.13058" lon="5.81404">
        <ele>1200</ele>
        <time>2021-09-03T14:13:20Z</time>
      </trkpt>
      <trkpt lat="44.13059" lon="5.81401">
        <ele>1200.1999511719</ele>
        <time>2021-09-03T14:13:21Z</time>
      </trkpt>
      <trkpt lat="44.13063" lon="5.81393">
        <ele>1200.5999755859</ele>
        <time>2021-09-03T14:13:25Z</time>
      </trkpt>
      <trkpt lat="44.13069" lon="5.81385">
        <ele>1201.1999511719</ele>
        <time>2021-09-03T14:13:30Z</time>
      </trkpt>
      <trkpt lat="44.13071" lon="5.81381">
        <ele>1201.4000244141</ele>
        <time>2021-09-03T14:13:32Z</time>
      </trkpt>
      <trkpt lat="44.13079" lon="5.81372">
        <ele>1202.1999511719</ele>
        <time>2021-09-03T14:13:38Z</time>
      </trkpt>
      <trkpt lat="44.13087" lon="5.81361">
        <ele>1202.8000488281</ele>
        <time>2021-09-03T14:13:44Z</time>
      </trkpt>
      <trkpt lat="44.13092" lon="5.81354">
        <ele>1203.4000244141</ele>
        <time>2021-09-03T14:13:48Z</time>
      </trkpt>
      <trkpt lat="44.131" lon="5.81345">
        <ele>1204</ele>
        <time>2021-09-03T14:13:54Z</time>
      </trkpt>
      <trkpt lat="44.13107" lon="5.81335">
        <ele>1204.5999755859</ele>
        <time>2021-09-03T14:14:00Z</time>
      </trkpt>
      <trkpt lat="44.13109" lon="5.81332">
        <ele>1204.8000488281</ele>
        <time>2021-09-03T14:14:02Z</time>
      </trkpt>
      <trkpt lat="44.13118" lon="5.81315">
        <ele>1205.5999755859</ele>
        <time>2021-09-03T14:14:10Z</time>
      </trkpt>
      <trkpt lat="44.13125" lon="5.81302">
        <ele>1206.4000244141</ele>
        <time>2021-09-03T14:14:17Z</time>
      </trkpt>
      <trkpt lat="44.13127" lon="5.81297">
        <ele>1206.5999755859</ele>
        <time>2021-09-03T14:14:19Z</time>
      </trkpt>
      <trkpt lat="44.13129" lon="5.81287">
        <ele>1207.1999511719</ele>
        <time>2021-09-03T14:14:23Z</time>
      </trkpt>
      <trkpt lat="44.1313" lon="5.81279">
        <ele>1207.8000488281</ele>
        <time>2021-09-03T14:14:26Z</time>
      </trkpt>
      <trkpt lat="44.13133" lon="5.81266">
        <ele>1208.5999755859</ele>
        <time>2021-09-03T14:14:31Z</time>
      </trkpt>
      <trkpt lat="44.13133" lon="5.81264">
        <ele>1208.5999755859</ele>
        <time>2021-09-03T14:14:32Z</time>
      </trkpt>
      <trkpt lat="44.13133" lon="5.81261">
        <ele>1208.8000488281</ele>
        <time>2021-09-03T14:14:33Z</time>
      </trkpt>
      <trkpt lat="44.13134" lon="5.81255">
        <ele>1209.4000244141</ele>
        <time>2021-09-03T14:14:36Z</time>
      </trkpt>
      <trkpt lat="44.13134" lon="5.81248">
        <ele>1209.8000488281</ele>
        <time>2021-09-03T14:14:39Z</time>
      </trkpt>
      <trkpt lat="44.13134" lon="5.81241">
        <ele>1210.1999511719</ele>
        <time>2021-09-03T14:14:42Z</time>
      </trkpt>
      <trkpt lat="44.13132" lon="5.81233">
        <ele>1210.8000488281</ele>
        <time>2021-09-03T14:14:45Z</time>
      </trkpt>
      <trkpt lat="44.13131" lon="5.8123">
        <ele>1211</ele>
        <time>2021-09-03T14:14:47Z</time>
      </trkpt>
      <trkpt lat="44.1313" lon="5.81228">
        <ele>1211</ele>
        <time>2021-09-03T14:14:48Z</time>
      </trkpt>
      <trkpt lat="44.13128" lon="5.81225">
        <ele>1211.4000244141</ele>
        <time>2021-09-03T14:14:50Z</time>
      </trkpt>
      <trkpt lat="44.13125" lon="5.81225">
        <ele>1211.8000488281</ele>
        <time>2021-09-03T14:14:53Z</time>
      </trkpt>
      <trkpt lat="44.13122" lon="5.81226">
        <ele>1212</ele>
        <time>2021-09-03T14:14:55Z</time>
      </trkpt>
      <trkpt lat="44.13118" lon="5.8123">
        <ele>1212.4000244141</ele>
        <time>2021-09-03T14:14:58Z</time>
      </trkpt>
      <trkpt lat="44.13118" lon="5.81232">
        <ele>1212.5999755859</ele>
        <time>2021-09-03T14:14:59Z</time>
      </trkpt>
      <trkpt lat="44.13118" lon="5.8124">
        <ele>1213.1999511719</ele>
        <time>2021-09-03T14:15:02Z</time>
      </trkpt>
      <trkpt lat="44.13116" lon="5.81249">
        <ele>1213.5999755859</ele>
        <time>2021-09-03T14:15:06Z</time>
      </trkpt>
      <trkpt lat="44.13115" lon="5.81266">
        <ele>1214.1999511719</ele>
        <time>2021-09-03T14:15:12Z</time>
      </trkpt>
      <trkpt lat="44.13114" lon="5.81271">
        <ele>1214.4000244141</ele>
        <time>2021-09-03T14:15:14Z</time>
      </trkpt>
      <trkpt lat="44.1311" lon="5.81292">
        <ele>1215.1999511719</ele>
        <time>2021-09-03T14:15:22Z</time>
      </trkpt>
      <trkpt lat="44.13109" lon="5.81295">
        <ele>1215.1999511719</ele>
        <time>2021-09-03T14:15:23Z</time>
      </trkpt>
      <trkpt lat="44.13103" lon="5.81302">
        <ele>1215.5999755859</ele>
        <time>2021-09-03T14:15:27Z</time>
      </trkpt>
      <trkpt lat="44.13097" lon="5.81312">
        <ele>1216.1999511719</ele>
        <time>2021-09-03T14:15:32Z</time>
      </trkpt>
      <trkpt lat="44.13095" lon="5.81314">
        <ele>1216.1999511719</ele>
        <time>2021-09-03T14:15:33Z</time>
      </trkpt>
      <trkpt lat="44.13086" lon="5.81326">
        <ele>1216.8000488281</ele>
        <time>2021-09-03T14:15:40Z</time>
      </trkpt>
      <trkpt lat="44.13082" lon="5.81331">
        <ele>1217.1999511719</ele>
        <time>2021-09-03T14:15:43Z</time>
      </trkpt>
      <trkpt lat="44.13077" lon="5.81338">
        <ele>1217.8000488281</ele>
        <time>2021-09-03T14:15:47Z</time>
      </trkpt>
      <trkpt lat="44.13071" lon="5.81347">
        <ele>1218.4000244141</ele>
        <time>2021-09-03T14:15:52Z</time>
      </trkpt>
      <trkpt lat="44.13069" lon="5.81348">
        <ele>1218.4000244141</ele>
        <time>2021-09-03T14:15:53Z</time>
      </trkpt>
      <trkpt lat="44.1306" lon="5.81354">
        <ele>1219</ele>
        <time>2021-09-03T14:15:58Z</time>
      </trkpt>
      <trkpt lat="44.13056" lon="5.81357">
        <ele>1219.4000244141</ele>
        <time>2021-09-03T14:16:01Z</time>
      </trkpt>
      <trkpt lat="44.13051" lon="5.81359">
        <ele>1219.8000488281</ele>
        <time>2021-09-03T14:16:05Z</time>
      </trkpt>
      <trkpt lat="44.13043" lon="5.81365">
        <ele>1220.4000244141</ele>
        <time>2021-09-03T14:16:10Z</time>
      </trkpt>
      <trkpt lat="44.13039" lon="5.81371">
        <ele>1220.8000488281</ele>
        <time>2021-09-03T14:16:12Z</time>
      </trkpt>
      <trkpt lat="44.13035" lon="5.8139">
        <ele>1221.1999511719</ele>
        <time>2021-09-03T14:16:17Z</time>
      </trkpt>
      <trkpt lat="44.13034" lon="5.81405">
        <ele>1221.4000244141</ele>
        <time>2021-09-03T14:16:21Z</time>
      </trkpt>
      <trkpt lat="44.13032" lon="5.81419">
        <ele>1221.8000488281</ele>
        <time>2021-09-03T14:16:25Z</time>
      </trkpt>
      <trkpt lat="44.13029" lon="5.81442">
        <ele>1222.5999755859</ele>
        <time>2021-09-03T14:16:33Z</time>
      </trkpt>
      <trkpt lat="44.13028" lon="5.81448">
        <ele>1222.8000488281</ele>
        <time>2021-09-03T14:16:35Z</time>
      </trkpt>
      <trkpt lat="44.13024" lon="5.8147">
        <ele>1223.5999755859</ele>
        <time>2021-09-03T14:16:42Z</time>
      </trkpt>
      <trkpt lat="44.13021" lon="5.81491">
        <ele>1224.4000244141</ele>
        <time>2021-09-03T14:16:49Z</time>
      </trkpt>
      <trkpt lat="44.1302" lon="5.81496">
        <ele>1224.5999755859</ele>
        <time>2021-09-03T14:16:51Z</time>
      </trkpt>
      <trkpt lat="44.13018" lon="5.8151">
        <ele>1225.1999511719</ele>
        <time>2021-09-03T14:16:56Z</time>
      </trkpt>
      <trkpt lat="44.13015" lon="5.81522">
        <ele>1225.5999755859</ele>
        <time>2021-09-03T14:17:00Z</time>
      </trkpt>
      <trkpt lat="44.13013" lon="5.8153">
        <ele>1226</ele>
        <time>2021-09-03T14:17:03Z</time>
      </trkpt>
      <trkpt lat="44.1301" lon="5.81546">
        <ele>1226.5999755859</ele>
        <time>2021-09-03T14:17:09Z</time>
      </trkpt>
      <trkpt lat="44.13009" lon="5.81549">
        <ele>1226.8000488281</ele>
        <time>2021-09-03T14:17:10Z</time>
      </trkpt>
      <trkpt lat="44.13001" lon="5.81567">
        <ele>1227.4000244141</ele>
        <time>2021-09-03T14:17:17Z</time>
      </trkpt>
      <trkpt lat="44.12996" lon="5.81579">
        <ele>1227.5999755859</ele>
        <time>2021-09-03T14:17:22Z</time>
      </trkpt>
      <trkpt lat="44.12994" lon="5.81584">
        <ele>1227.8000488281</ele>
        <time>2021-09-03T14:17:24Z</time>
      </trkpt>
      <trkpt lat="44.12984" lon="5.81599">
        <ele>1228.8000488281</ele>
        <time>2021-09-03T14:17:31Z</time>
      </trkpt>
      <trkpt lat="44.12983" lon="5.81601">
        <ele>1228.8000488281</ele>
        <time>2021-09-03T14:17:32Z</time>
      </trkpt>
      <trkpt lat="44.12975" lon="5.81615">
        <ele>1229.5999755859</ele>
        <time>2021-09-03T14:17:39Z</time>
      </trkpt>
      <trkpt lat="44.12973" lon="5.8162">
        <ele>1229.8000488281</ele>
        <time>2021-09-03T14:17:41Z</time>
      </trkpt>
      <trkpt lat="44.12967" lon="5.81634">
        <ele>1230.4000244141</ele>
        <time>2021-09-03T14:17:47Z</time>
      </trkpt>
      <trkpt lat="44.12964" lon="5.81641">
        <ele>1231</ele>
        <time>2021-09-03T14:17:50Z</time>
      </trkpt>
      <trkpt lat="44.12959" lon="5.81651">
        <ele>1231.4000244141</ele>
        <time>2021-09-03T14:17:54Z</time>
      </trkpt>
      <trkpt lat="44.12955" lon="5.81664">
        <ele>1232</ele>
        <time>2021-09-03T14:17:59Z</time>
      </trkpt>
      <trkpt lat="44.12954" lon="5.81668">
        <ele>1232.1999511719</ele>
        <time>2021-09-03T14:18:01Z</time>
      </trkpt>
      <trkpt lat="44.12949" lon="5.81693">
        <ele>1233</ele>
        <time>2021-09-03T14:18:10Z</time>
      </trkpt>
      <trkpt lat="44.12945" lon="5.81719">
        <ele>1234</ele>
        <time>2021-09-03T14:18:19Z</time>
      </trkpt>
      <trkpt lat="44.12944" lon="5.81722">
        <ele>1234.1999511719</ele>
        <time>2021-09-03T14:18:20Z</time>
      </trkpt>
      <trkpt lat="44.1294" lon="5.81741">
        <ele>1234.8000488281</ele>
        <time>2021-09-03T14:18:27Z</time>
      </trkpt>
      <trkpt lat="44.12938" lon="5.81748">
        <ele>1235.1999511719</ele>
        <time>2021-09-03T14:18:30Z</time>
      </trkpt>
      <trkpt lat="44.12935" lon="5.81756">
        <ele>1235.5999755859</ele>
        <time>2021-09-03T14:18:33Z</time>
      </trkpt>
      <trkpt lat="44.1293" lon="5.81769">
        <ele>1236.4000244141</ele>
        <time>2021-09-03T14:18:39Z</time>
      </trkpt>
      <trkpt lat="44.12927" lon="5.81773">
        <ele>1236.5999755859</ele>
        <time>2021-09-03T14:18:41Z</time>
      </trkpt>
      <trkpt lat="44.1292" lon="5.81789">
        <ele>1237.4000244141</ele>
        <time>2021-09-03T14:18:48Z</time>
      </trkpt>
      <trkpt lat="44.12914" lon="5.81803">
        <ele>1238.1999511719</ele>
        <time>2021-09-03T14:18:55Z</time>
      </trkpt>
      <trkpt lat="44.12909" lon="5.81808">
        <ele>1238.5999755859</ele>
        <time>2021-09-03T14:18:58Z</time>
      </trkpt>
      <trkpt lat="44.12904" lon="5.81814">
        <ele>1239</ele>
        <time>2021-09-03T14:19:02Z</time>
      </trkpt>
      <trkpt lat="44.12896" lon="5.81822">
        <ele>1239.5999755859</ele>
        <time>2021-09-03T14:19:07Z</time>
      </trkpt>
      <trkpt lat="44.12893" lon="5.81825">
        <ele>1239.8000488281</ele>
        <time>2021-09-03T14:19:09Z</time>
      </trkpt>
      <trkpt lat="44.12887" lon="5.81838">
        <ele>1240.4000244141</ele>
        <time>2021-09-03T14:19:16Z</time>
      </trkpt>
      <trkpt lat="44.12882" lon="5.81845">
        <ele>1240.5999755859</ele>
        <time>2021-09-03T14:19:19Z</time>
      </trkpt>
      <trkpt lat="44.12876" lon="5.81856">
        <ele>1241</ele>
        <time>2021-09-03T14:19:24Z</time>
      </trkpt>
      <trkpt lat="44.12869" lon="5.81869">
        <ele>1241.5999755859</ele>
        <time>2021-09-03T14:19:30Z</time>
      </trkpt>
      <trkpt lat="44.12868" lon="5.81871">
        <ele>1241.8000488281</ele>
        <time>2021-09-03T14:19:31Z</time>
      </trkpt>
      <trkpt lat="44.12859" lon="5.81887">
        <ele>1242.4000244141</ele>
        <time>2021-09-03T14:19:38Z</time>
      </trkpt>
      <trkpt lat="44.12856" lon="5.8189">
        <ele>1242.5999755859</ele>
        <time>2021-09-03T14:19:40Z</time>
      </trkpt>
      <trkpt lat="44.12853" lon="5.81893">
        <ele>1242.8000488281</ele>
        <time>2021-09-03T14:19:42Z</time>
      </trkpt>
      <trkpt lat="44.12852" lon="5.81896">
        <ele>1242.8000488281</ele>
        <time>2021-09-03T14:19:43Z</time>
      </trkpt>
      <trkpt lat="44.12846" lon="5.81905">
        <ele>1243.1999511719</ele>
        <time>2021-09-03T14:19:47Z</time>
      </trkpt>
      <trkpt lat="44.12844" lon="5.8191">
        <ele>1243.5999755859</ele>
        <time>2021-09-03T14:19:49Z</time>
      </trkpt>
      <trkpt lat="44.12841" lon="5.81915">
        <ele>1243.8000488281</ele>
        <time>2021-09-03T14:19:51Z</time>
      </trkpt>
      <trkpt lat="44.12835" lon="5.81923">
        <ele>1244.1999511719</ele>
        <time>2021-09-03T14:19:55Z</time>
      </trkpt>
      <trkpt lat="44.1283" lon="5.81933">
        <ele>1245</ele>
        <time>2021-09-03T14:20:00Z</time>
      </trkpt>
      <trkpt lat="44.12827" lon="5.8194">
        <ele>1245.1999511719</ele>
        <time>2021-09-03T14:20:03Z</time>
      </trkpt>
      <trkpt lat="44.12821" lon="5.81955">
        <ele>1246</ele>
        <time>2021-09-03T14:20:10Z</time>
      </trkpt>
      <trkpt lat="44.1282" lon="5.81957">
        <ele>1246.1999511719</ele>
        <time>2021-09-03T14:20:11Z</time>
      </trkpt>
      <trkpt lat="44.12816" lon="5.81969">
        <ele>1247</ele>
        <time>2021-09-03T14:20:17Z</time>
      </trkpt>
      <trkpt lat="44.12816" lon="5.81971">
        <ele>1247</ele>
        <time>2021-09-03T14:20:18Z</time>
      </trkpt>
      <trkpt lat="44.12813" lon="5.81983">
        <ele>1247.5999755859</ele>
        <time>2021-09-03T14:20:23Z</time>
      </trkpt>
      <trkpt lat="44.1281" lon="5.81995">
        <ele>1248</ele>
        <time>2021-09-03T14:20:28Z</time>
      </trkpt>
      <trkpt lat="44.1281" lon="5.81998">
        <ele>1248.1999511719</ele>
        <time>2021-09-03T14:20:29Z</time>
      </trkpt>
      <trkpt lat="44.12804" lon="5.82018">
        <ele>1248.8000488281</ele>
        <time>2021-09-03T14:20:37Z</time>
      </trkpt>
      <trkpt lat="44.12802" lon="5.82024">
        <ele>1249</ele>
        <time>2021-09-03T14:20:39Z</time>
      </trkpt>
      <trkpt lat="44.12797" lon="5.8204">
        <ele>1249.5999755859</ele>
        <time>2021-09-03T14:20:45Z</time>
      </trkpt>
      <trkpt lat="44.12795" lon="5.82052">
        <ele>1250.1999511719</ele>
        <time>2021-09-03T14:20:50Z</time>
      </trkpt>
      <trkpt lat="44.12794" lon="5.82057">
        <ele>1250.4000244141</ele>
        <time>2021-09-03T14:20:52Z</time>
      </trkpt>
      <trkpt lat="44.12789" lon="5.82071">
        <ele>1251</ele>
        <time>2021-09-03T14:20:58Z</time>
      </trkpt>
      <trkpt lat="44.12788" lon="5.82075">
        <ele>1251.1999511719</ele>
        <time>2021-09-03T14:21:00Z</time>
      </trkpt>
      <trkpt lat="44.12781" lon="5.82092">
        <ele>1252.4000244141</ele>
        <time>2021-09-03T14:21:08Z</time>
      </trkpt>
      <trkpt lat="44.12775" lon="5.82106">
        <ele>1253.1999511719</ele>
        <time>2021-09-03T14:21:15Z</time>
      </trkpt>
      <trkpt lat="44.12774" lon="5.82108">
        <ele>1253.4000244141</ele>
        <time>2021-09-03T14:21:16Z</time>
      </trkpt>
      <trkpt lat="44.12767" lon="5.82121">
        <ele>1254.1999511719</ele>
        <time>2021-09-03T14:21:22Z</time>
      </trkpt>
      <trkpt lat="44.12765" lon="5.82124">
        <ele>1254.4000244141</ele>
        <time>2021-09-03T14:21:24Z</time>
      </trkpt>
      <trkpt lat="44.12758" lon="5.82129">
        <ele>1254.8000488281</ele>
        <time>2021-09-03T14:21:28Z</time>
      </trkpt>
      <trkpt lat="44.12749" lon="5.82135">
        <ele>1255.5999755859</ele>
        <time>2021-09-03T14:21:34Z</time>
      </trkpt>
      <trkpt lat="44.12747" lon="5.82135">
        <ele>1255.8000488281</ele>
        <time>2021-09-03T14:21:35Z</time>
      </trkpt>
      <trkpt lat="44.12736" lon="5.82137">
        <ele>1256.8000488281</ele>
        <time>2021-09-03T14:21:41Z</time>
      </trkpt>
      <trkpt lat="44.12728" lon="5.82137">
        <ele>1257.5999755859</ele>
        <time>2021-09-03T14:21:46Z</time>
      </trkpt>
      <trkpt lat="44.12726" lon="5.82136">
        <ele>1257.8000488281</ele>
        <time>2021-09-03T14:21:47Z</time>
      </trkpt>
      <trkpt lat="44.12716" lon="5.82133">
        <ele>1258.8000488281</ele>
        <time>2021-09-03T14:21:53Z</time>
      </trkpt>
      <trkpt lat="44.12714" lon="5.82133">
        <ele>1259</ele>
        <time>2021-09-03T14:21:54Z</time>
      </trkpt>
      <trkpt lat="44.12702" lon="5.82133">
        <ele>1259.5999755859</ele>
        <time>2021-09-03T14:22:00Z</time>
      </trkpt>
      <trkpt lat="44.12697" lon="5.82133">
        <ele>1260</ele>
        <time>2021-09-03T14:22:03Z</time>
      </trkpt>
      <trkpt lat="44.12689" lon="5.82136">
        <ele>1260.4000244141</ele>
        <time>2021-09-03T14:22:08Z</time>
      </trkpt>
      <trkpt lat="44.12682" lon="5.82141">
        <ele>1261</ele>
        <time>2021-09-03T14:22:14Z</time>
      </trkpt>
      <trkpt lat="44.12681" lon="5.82143">
        <ele>1261.1999511719</ele>
        <time>2021-09-03T14:22:15Z</time>
      </trkpt>
      <trkpt lat="44.12679" lon="5.82146">
        <ele>1261.4000244141</ele>
        <time>2021-09-03T14:22:16Z</time>
      </trkpt>
      <trkpt lat="44.12673" lon="5.82161">
        <ele>1261.5999755859</ele>
        <time>2021-09-03T14:22:20Z</time>
      </trkpt>
      <trkpt lat="44.12671" lon="5.8217">
        <ele>1262.1999511719</ele>
        <time>2021-09-03T14:22:24Z</time>
      </trkpt>
      <trkpt lat="44.1267" lon="5.82179">
        <ele>1262.4000244141</ele>
        <time>2021-09-03T14:22:27Z</time>
      </trkpt>
      <trkpt lat="44.12666" lon="5.82194">
        <ele>1263.1999511719</ele>
        <time>2021-09-03T14:22:33Z</time>
      </trkpt>
      <trkpt lat="44.12663" lon="5.82203">
        <ele>1263.5999755859</ele>
        <time>2021-09-03T14:22:36Z</time>
      </trkpt>
      <trkpt lat="44.1266" lon="5.82209">
        <ele>1264.4000244141</ele>
        <time>2021-09-03T14:22:39Z</time>
      </trkpt>
      <trkpt lat="44.12655" lon="5.82215">
        <ele>1264.8000488281</ele>
        <time>2021-09-03T14:22:42Z</time>
      </trkpt>
      <trkpt lat="44.1265" lon="5.82223">
        <ele>1265.4000244141</ele>
        <time>2021-09-03T14:22:46Z</time>
      </trkpt>
      <trkpt lat="44.12647" lon="5.82228">
        <ele>1265.8000488281</ele>
        <time>2021-09-03T14:22:49Z</time>
      </trkpt>
      <trkpt lat="44.12638" lon="5.82239">
        <ele>1266.4000244141</ele>
        <time>2021-09-03T14:22:55Z</time>
      </trkpt>
      <trkpt lat="44.12629" lon="5.82251">
        <ele>1267</ele>
        <time>2021-09-03T14:23:01Z</time>
      </trkpt>
      <trkpt lat="44.12623" lon="5.82258">
        <ele>1267.5999755859</ele>
        <time>2021-09-03T14:23:05Z</time>
      </trkpt>
      <trkpt lat="44.12622" lon="5.8226">
        <ele>1267.5999755859</ele>
        <time>2021-09-03T14:23:06Z</time>
      </trkpt>
      <trkpt lat="44.12611" lon="5.82271">
        <ele>1268.4000244141</ele>
        <time>2021-09-03T14:23:13Z</time>
      </trkpt>
      <trkpt lat="44.12608" lon="5.82275">
        <ele>1268.5999755859</ele>
        <time>2021-09-03T14:23:15Z</time>
      </trkpt>
      <trkpt lat="44.126" lon="5.82282">
        <ele>1269.1999511719</ele>
        <time>2021-09-03T14:23:20Z</time>
      </trkpt>
      <trkpt lat="44.12592" lon="5.82291">
        <ele>1269.8000488281</ele>
        <time>2021-09-03T14:23:25Z</time>
      </trkpt>
      <trkpt lat="44.12589" lon="5.82295">
        <ele>1270</ele>
        <time>2021-09-03T14:23:27Z</time>
      </trkpt>
      <trkpt lat="44.12579" lon="5.82308">
        <ele>1270.8000488281</ele>
        <time>2021-09-03T14:23:34Z</time>
      </trkpt>
      <trkpt lat="44.12577" lon="5.8231">
        <ele>1271</ele>
        <time>2021-09-03T14:23:35Z</time>
      </trkpt>
      <trkpt lat="44.12566" lon="5.82324">
        <ele>1271.8000488281</ele>
        <time>2021-09-03T14:23:42Z</time>
      </trkpt>
      <trkpt lat="44.12564" lon="5.82325">
        <ele>1271.8000488281</ele>
        <time>2021-09-03T14:23:43Z</time>
      </trkpt>
      <trkpt lat="44.1255" lon="5.82333">
        <ele>1272.5999755859</ele>
        <time>2021-09-03T14:23:50Z</time>
      </trkpt>
      <trkpt lat="44.12545" lon="5.82336">
        <ele>1273</ele>
        <time>2021-09-03T14:23:53Z</time>
      </trkpt>
      <trkpt lat="44.12536" lon="5.82344">
        <ele>1273.5999755859</ele>
        <time>2021-09-03T14:23:58Z</time>
      </trkpt>
      <trkpt lat="44.12528" lon="5.82353">
        <ele>1274</ele>
        <time>2021-09-03T14:24:03Z</time>
      </trkpt>
      <trkpt lat="44.12525" lon="5.82358">
        <ele>1274.1999511719</ele>
        <time>2021-09-03T14:24:05Z</time>
      </trkpt>
      <trkpt lat="44.12516" lon="5.82372">
        <ele>1275</ele>
        <time>2021-09-03T14:24:11Z</time>
      </trkpt>
      <trkpt lat="44.12506" lon="5.82387">
        <ele>1276.1999511719</ele>
        <time>2021-09-03T14:24:18Z</time>
      </trkpt>
      <trkpt lat="44.12496" lon="5.82399">
        <ele>1277</ele>
        <time>2021-09-03T14:24:25Z</time>
      </trkpt>
      <trkpt lat="44.12494" lon="5.82402">
        <ele>1277.4000244141</ele>
        <time>2021-09-03T14:24:27Z</time>
      </trkpt>
      <trkpt lat="44.12488" lon="5.82412">
        <ele>1278</ele>
        <time>2021-09-03T14:24:32Z</time>
      </trkpt>
      <trkpt lat="44.12486" lon="5.82416">
        <ele>1278.4000244141</ele>
        <time>2021-09-03T14:24:34Z</time>
      </trkpt>
      <trkpt lat="44.1248" lon="5.82427">
        <ele>1279.1999511719</ele>
        <time>2021-09-03T14:24:39Z</time>
      </trkpt>
      <trkpt lat="44.12478" lon="5.82431">
        <ele>1279.4000244141</ele>
        <time>2021-09-03T14:24:41Z</time>
      </trkpt>
      <trkpt lat="44.12474" lon="5.82444">
        <ele>1280</ele>
        <time>2021-09-03T14:24:46Z</time>
      </trkpt>
      <trkpt lat="44.12473" lon="5.82456">
        <ele>1280.4000244141</ele>
        <time>2021-09-03T14:24:50Z</time>
      </trkpt>
      <trkpt lat="44.12472" lon="5.82461">
        <ele>1280.8000488281</ele>
        <time>2021-09-03T14:24:52Z</time>
      </trkpt>
      <trkpt lat="44.12473" lon="5.82476">
        <ele>1281.4000244141</ele>
        <time>2021-09-03T14:24:57Z</time>
      </trkpt>
      <trkpt lat="44.12474" lon="5.82481">
        <ele>1281.8000488281</ele>
        <time>2021-09-03T14:24:59Z</time>
      </trkpt>
      <trkpt lat="44.12474" lon="5.82495">
        <ele>1282.5999755859</ele>
        <time>2021-09-03T14:25:04Z</time>
      </trkpt>
      <trkpt lat="44.12474" lon="5.82503">
        <ele>1282.8000488281</ele>
        <time>2021-09-03T14:25:07Z</time>
      </trkpt>
      <trkpt lat="44.12472" lon="5.82522">
        <ele>1283.5999755859</ele>
        <time>2021-09-03T14:25:13Z</time>
      </trkpt>
      <trkpt lat="44.12472" lon="5.82525">
        <ele>1283.8000488281</ele>
        <time>2021-09-03T14:25:14Z</time>
      </trkpt>
      <trkpt lat="44.12466" lon="5.82541">
        <ele>1284.5999755859</ele>
        <time>2021-09-03T14:25:20Z</time>
      </trkpt>
      <trkpt lat="44.12465" lon="5.82544">
        <ele>1284.5999755859</ele>
        <time>2021-09-03T14:25:21Z</time>
      </trkpt>
      <trkpt lat="44.12459" lon="5.82561">
        <ele>1285.5999755859</ele>
        <time>2021-09-03T14:25:27Z</time>
      </trkpt>
      <trkpt lat="44.12458" lon="5.82564">
        <ele>1285.8000488281</ele>
        <time>2021-09-03T14:25:28Z</time>
      </trkpt>
      <trkpt lat="44.12454" lon="5.82578">
        <ele>1286.1999511719</ele>
        <time>2021-09-03T14:25:33Z</time>
      </trkpt>
      <trkpt lat="44.12448" lon="5.82589">
        <ele>1286.8000488281</ele>
        <time>2021-09-03T14:25:37Z</time>
      </trkpt>
      <trkpt lat="44.12442" lon="5.82596">
        <ele>1287.1999511719</ele>
        <time>2021-09-03T14:25:40Z</time>
      </trkpt>
      <trkpt lat="44.12433" lon="5.82605">
        <ele>1287.8000488281</ele>
        <time>2021-09-03T14:25:44Z</time>
      </trkpt>
      <trkpt lat="44.12428" lon="5.82612">
        <ele>1288.1999511719</ele>
        <time>2021-09-03T14:25:47Z</time>
      </trkpt>
      <trkpt lat="44.12421" lon="5.82619">
        <ele>1289</ele>
        <time>2021-09-03T14:25:50Z</time>
      </trkpt>
      <trkpt lat="44.12413" lon="5.82629">
        <ele>1289.4000244141</ele>
        <time>2021-09-03T14:25:55Z</time>
      </trkpt>
      <trkpt lat="44.12406" lon="5.82637">
        <ele>1290</ele>
        <time>2021-09-03T14:25:59Z</time>
      </trkpt>
      <trkpt lat="44.12402" lon="5.82643">
        <ele>1290.4000244141</ele>
        <time>2021-09-03T14:26:02Z</time>
      </trkpt>
      <trkpt lat="44.12392" lon="5.82651">
        <ele>1291</ele>
        <time>2021-09-03T14:26:08Z</time>
      </trkpt>
      <trkpt lat="44.12383" lon="5.82658">
        <ele>1291.8000488281</ele>
        <time>2021-09-03T14:26:15Z</time>
      </trkpt>
      <trkpt lat="44.12382" lon="5.8266">
        <ele>1292</ele>
        <time>2021-09-03T14:26:17Z</time>
      </trkpt>
      <trkpt lat="44.1238" lon="5.82665">
        <ele>1292.4000244141</ele>
        <time>2021-09-03T14:26:20Z</time>
      </trkpt>
      <trkpt lat="44.12379" lon="5.82668">
        <ele>1292.4000244141</ele>
        <time>2021-09-03T14:26:21Z</time>
      </trkpt>
      <trkpt lat="44.12372" lon="5.82682">
        <ele>1293</ele>
        <time>2021-09-03T14:26:27Z</time>
      </trkpt>
      <trkpt lat="44.12372" lon="5.82684">
        <ele>1293.1999511719</ele>
        <time>2021-09-03T14:26:28Z</time>
      </trkpt>
      <trkpt lat="44.12365" lon="5.82705">
        <ele>1294</ele>
        <time>2021-09-03T14:26:36Z</time>
      </trkpt>
      <trkpt lat="44.12364" lon="5.82708">
        <ele>1294.1999511719</ele>
        <time>2021-09-03T14:26:37Z</time>
      </trkpt>
      <trkpt lat="44.12363" lon="5.82714">
        <ele>1294.5999755859</ele>
        <time>2021-09-03T14:26:39Z</time>
      </trkpt>
      <trkpt lat="44.12359" lon="5.82722">
        <ele>1295</ele>
        <time>2021-09-03T14:26:43Z</time>
      </trkpt>
      <trkpt lat="44.12358" lon="5.82727">
        <ele>1295.1999511719</ele>
        <time>2021-09-03T14:26:45Z</time>
      </trkpt>
      <trkpt lat="44.12355" lon="5.82736">
        <ele>1295.4000244141</ele>
        <time>2021-09-03T14:26:49Z</time>
      </trkpt>
      <trkpt lat="44.12347" lon="5.82749">
        <ele>1296.1999511719</ele>
        <time>2021-09-03T14:26:55Z</time>
      </trkpt>
      <trkpt lat="44.12345" lon="5.82753">
        <ele>1296.5999755859</ele>
        <time>2021-09-03T14:26:57Z</time>
      </trkpt>
      <trkpt lat="44.12336" lon="5.82765">
        <ele>1297.4000244141</ele>
        <time>2021-09-03T14:27:03Z</time>
      </trkpt>
      <trkpt lat="44.12325" lon="5.82777">
        <ele>1298.1999511719</ele>
        <time>2021-09-03T14:27:10Z</time>
      </trkpt>
      <trkpt lat="44.1232" lon="5.82782">
        <ele>1298.4000244141</ele>
        <time>2021-09-03T14:27:13Z</time>
      </trkpt>
      <trkpt lat="44.12316" lon="5.82787">
        <ele>1298.5999755859</ele>
        <time>2021-09-03T14:27:16Z</time>
      </trkpt>
      <trkpt lat="44.12306" lon="5.82796">
        <ele>1299.4000244141</ele>
        <time>2021-09-03T14:27:23Z</time>
      </trkpt>
      <trkpt lat="44.12304" lon="5.82798">
        <ele>1299.5999755859</ele>
        <time>2021-09-03T14:27:24Z</time>
      </trkpt>
      <trkpt lat="44.12295" lon="5.82807">
        <ele>1300.4000244141</ele>
        <time>2021-09-03T14:27:31Z</time>
      </trkpt>
      <trkpt lat="44.12293" lon="5.82807">
        <ele>1300.5999755859</ele>
        <time>2021-09-03T14:27:32Z</time>
      </trkpt>
      <trkpt lat="44.12283" lon="5.82819">
        <ele>1301.4000244141</ele>
        <time>2021-09-03T14:27:40Z</time>
      </trkpt>
      <trkpt lat="44.12281" lon="5.82822">
        <ele>1301.5999755859</ele>
        <time>2021-09-03T14:27:41Z</time>
      </trkpt>
      <trkpt lat="44.12272" lon="5.82835">
        <ele>1302.1999511719</ele>
        <time>2021-09-03T14:27:47Z</time>
      </trkpt>
      <trkpt lat="44.12268" lon="5.82841">
        <ele>1302.8000488281</ele>
        <time>2021-09-03T14:27:50Z</time>
      </trkpt>
      <trkpt lat="44.12264" lon="5.82849">
        <ele>1303.1999511719</ele>
        <time>2021-09-03T14:27:54Z</time>
      </trkpt>
      <trkpt lat="44.12258" lon="5.82859">
        <ele>1303.8000488281</ele>
        <time>2021-09-03T14:27:59Z</time>
      </trkpt>
      <trkpt lat="44.12256" lon="5.8286">
        <ele>1304</ele>
        <time>2021-09-03T14:28:00Z</time>
      </trkpt>
      <trkpt lat="44.12246" lon="5.82875">
        <ele>1304.8000488281</ele>
        <time>2021-09-03T14:28:07Z</time>
      </trkpt>
      <trkpt lat="44.12235" lon="5.82888">
        <ele>1306</ele>
        <time>2021-09-03T14:28:14Z</time>
      </trkpt>
      <trkpt lat="44.12224" lon="5.82903">
        <ele>1306.8000488281</ele>
        <time>2021-09-03T14:28:21Z</time>
      </trkpt>
      <trkpt lat="44.12222" lon="5.82907">
        <ele>1307</ele>
        <time>2021-09-03T14:28:23Z</time>
      </trkpt>
      <trkpt lat="44.12214" lon="5.82918">
        <ele>1307.4000244141</ele>
        <time>2021-09-03T14:28:28Z</time>
      </trkpt>
      <trkpt lat="44.12208" lon="5.82928">
        <ele>1308.1999511719</ele>
        <time>2021-09-03T14:28:32Z</time>
      </trkpt>
      <trkpt lat="44.12204" lon="5.82935">
        <ele>1308.5999755859</ele>
        <time>2021-09-03T14:28:35Z</time>
      </trkpt>
      <trkpt lat="44.12199" lon="5.82945">
        <ele>1309.1999511719</ele>
        <time>2021-09-03T14:28:39Z</time>
      </trkpt>
      <trkpt lat="44.12193" lon="5.82954">
        <ele>1309.5999755859</ele>
        <time>2021-09-03T14:28:43Z</time>
      </trkpt>
      <trkpt lat="44.12184" lon="5.82963">
        <ele>1310.4000244141</ele>
        <time>2021-09-03T14:28:48Z</time>
      </trkpt>
      <trkpt lat="44.12169" lon="5.82972">
        <ele>1311.1999511719</ele>
        <time>2021-09-03T14:28:55Z</time>
      </trkpt>
      <trkpt lat="44.12164" lon="5.82975">
        <ele>1311.4000244141</ele>
        <time>2021-09-03T14:28:58Z</time>
      </trkpt>
      <trkpt lat="44.12152" lon="5.8298">
        <ele>1312.1999511719</ele>
        <time>2021-09-03T14:29:04Z</time>
      </trkpt>
      <trkpt lat="44.12148" lon="5.82981">
        <ele>1312.4000244141</ele>
        <time>2021-09-03T14:29:06Z</time>
      </trkpt>
      <trkpt lat="44.12137" lon="5.82986">
        <ele>1313.4000244141</ele>
        <time>2021-09-03T14:29:12Z</time>
      </trkpt>
      <trkpt lat="44.12135" lon="5.82987">
        <ele>1313.4000244141</ele>
        <time>2021-09-03T14:29:13Z</time>
      </trkpt>
      <trkpt lat="44.12125" lon="5.82991">
        <ele>1314.1999511719</ele>
        <time>2021-09-03T14:29:18Z</time>
      </trkpt>
      <trkpt lat="44.12118" lon="5.82995">
        <ele>1314.5999755859</ele>
        <time>2021-09-03T14:29:21Z</time>
      </trkpt>
      <trkpt lat="44.12112" lon="5.82998">
        <ele>1314.8000488281</ele>
        <time>2021-09-03T14:29:24Z</time>
      </trkpt>
      <trkpt lat="44.12099" lon="5.8301">
        <ele>1315.5999755859</ele>
        <time>2021-09-03T14:29:30Z</time>
      </trkpt>
      <trkpt lat="44.12083" lon="5.83025">
        <ele>1316.4000244141</ele>
        <time>2021-09-03T14:29:37Z</time>
      </trkpt>
      <trkpt lat="44.12079" lon="5.8303">
        <ele>1316.5999755859</ele>
        <time>2021-09-03T14:29:39Z</time>
      </trkpt>
      <trkpt lat="44.12068" lon="5.83046">
        <ele>1317.5999755859</ele>
        <time>2021-09-03T14:29:46Z</time>
      </trkpt>
      <trkpt lat="44.12066" lon="5.83048">
        <ele>1317.8000488281</ele>
        <time>2021-09-03T14:29:47Z</time>
      </trkpt>
      <trkpt lat="44.12056" lon="5.83066">
        <ele>1318.8000488281</ele>
        <time>2021-09-03T14:29:55Z</time>
      </trkpt>
      <trkpt lat="44.12047" lon="5.8308">
        <ele>1319.4000244141</ele>
        <time>2021-09-03T14:30:01Z</time>
      </trkpt>
      <trkpt lat="44.12039" lon="5.83091">
        <ele>1319.8000488281</ele>
        <time>2021-09-03T14:30:06Z</time>
      </trkpt>
      <trkpt lat="44.12033" lon="5.831">
        <ele>1320.1999511719</ele>
        <time>2021-09-03T14:30:10Z</time>
      </trkpt>
      <trkpt lat="44.12026" lon="5.83113">
        <ele>1321</ele>
        <time>2021-09-03T14:30:16Z</time>
      </trkpt>
      <trkpt lat="44.12025" lon="5.83115">
        <ele>1321</ele>
        <time>2021-09-03T14:30:17Z</time>
      </trkpt>
      <trkpt lat="44.12015" lon="5.8313">
        <ele>1322</ele>
        <time>2021-09-03T14:30:24Z</time>
      </trkpt>
      <trkpt lat="44.12014" lon="5.83132">
        <ele>1322</ele>
        <time>2021-09-03T14:30:25Z</time>
      </trkpt>
      <trkpt lat="44.12007" lon="5.83145">
        <ele>1322.5999755859</ele>
        <time>2021-09-03T14:30:31Z</time>
      </trkpt>
      <trkpt lat="44.12003" lon="5.83155">
        <ele>1323.1999511719</ele>
        <time>2021-09-03T14:30:35Z</time>
      </trkpt>
      <trkpt lat="44.12001" lon="5.8316">
        <ele>1323.4000244141</ele>
        <time>2021-09-03T14:30:37Z</time>
      </trkpt>
      <trkpt lat="44.12001" lon="5.83162">
        <ele>1323.5999755859</ele>
        <time>2021-09-03T14:30:38Z</time>
      </trkpt>
      <trkpt lat="44.11998" lon="5.83168">
        <ele>1324.1999511719</ele>
        <time>2021-09-03T14:30:41Z</time>
      </trkpt>
      <trkpt lat="44.11996" lon="5.83172">
        <ele>1324.4000244141</ele>
        <time>2021-09-03T14:30:43Z</time>
      </trkpt>
      <trkpt lat="44.1199" lon="5.83172">
        <ele>1325</ele>
        <time>2021-09-03T14:30:47Z</time>
      </trkpt>
      <trkpt lat="44.11987" lon="5.83167">
        <ele>1325.4000244141</ele>
        <time>2021-09-03T14:30:49Z</time>
      </trkpt>
      <trkpt lat="44.11987" lon="5.83159">
        <ele>1325.8000488281</ele>
        <time>2021-09-03T14:30:52Z</time>
      </trkpt>
      <trkpt lat="44.11988" lon="5.83156">
        <ele>1325.8000488281</ele>
        <time>2021-09-03T14:30:53Z</time>
      </trkpt>
      <trkpt lat="44.1199" lon="5.83149">
        <ele>1326.4000244141</ele>
        <time>2021-09-03T14:30:56Z</time>
      </trkpt>
      <trkpt lat="44.11992" lon="5.83145">
        <ele>1326.8000488281</ele>
        <time>2021-09-03T14:30:58Z</time>
      </trkpt>
      <trkpt lat="44.11995" lon="5.83134">
        <ele>1327.5999755859</ele>
        <time>2021-09-03T14:31:03Z</time>
      </trkpt>
      <trkpt lat="44.11997" lon="5.83127">
        <ele>1328</ele>
        <time>2021-09-03T14:31:06Z</time>
      </trkpt>
      <trkpt lat="44.12001" lon="5.83117">
        <ele>1328.8000488281</ele>
        <time>2021-09-03T14:31:11Z</time>
      </trkpt>
      <trkpt lat="44.12002" lon="5.83115">
        <ele>1328.8000488281</ele>
        <time>2021-09-03T14:31:12Z</time>
      </trkpt>
      <trkpt lat="44.12007" lon="5.831">
        <ele>1329.8000488281</ele>
        <time>2021-09-03T14:31:19Z</time>
      </trkpt>
      <trkpt lat="44.12007" lon="5.83098">
        <ele>1330</ele>
        <time>2021-09-03T14:31:20Z</time>
      </trkpt>
      <trkpt lat="44.12011" lon="5.83082">
        <ele>1331</ele>
        <time>2021-09-03T14:31:27Z</time>
      </trkpt>
      <trkpt lat="44.12012" lon="5.8308">
        <ele>1331</ele>
        <time>2021-09-03T14:31:28Z</time>
      </trkpt>
      <trkpt lat="44.12015" lon="5.83065">
        <ele>1332</ele>
        <time>2021-09-03T14:31:35Z</time>
      </trkpt>
      <trkpt lat="44.12016" lon="5.83063">
        <ele>1332</ele>
        <time>2021-09-03T14:31:36Z</time>
      </trkpt>
      <trkpt lat="44.12022" lon="5.83043">
        <ele>1333</ele>
        <time>2021-09-03T14:31:45Z</time>
      </trkpt>
      <trkpt lat="44.12028" lon="5.83028">
        <ele>1334</ele>
        <time>2021-09-03T14:31:52Z</time>
      </trkpt>
      <trkpt lat="44.1203" lon="5.83024">
        <ele>1334.1999511719</ele>
        <time>2021-09-03T14:31:54Z</time>
      </trkpt>
      <trkpt lat="44.12034" lon="5.83014">
        <ele>1334.4000244141</ele>
        <time>2021-09-03T14:31:59Z</time>
      </trkpt>
      <trkpt lat="44.12039" lon="5.83003">
        <ele>1335.1999511719</ele>
        <time>2021-09-03T14:32:04Z</time>
      </trkpt>
      <trkpt lat="44.1204" lon="5.82998">
        <ele>1335.4000244141</ele>
        <time>2021-09-03T14:32:06Z</time>
      </trkpt>
      <trkpt lat="44.12045" lon="5.82985">
        <ele>1336.1999511719</ele>
        <time>2021-09-03T14:32:12Z</time>
      </trkpt>
      <trkpt lat="44.12047" lon="5.82979">
        <ele>1336.8000488281</ele>
        <time>2021-09-03T14:32:15Z</time>
      </trkpt>
      <trkpt lat="44.1205" lon="5.82973">
        <ele>1337.1999511719</ele>
        <time>2021-09-03T14:32:18Z</time>
      </trkpt>
      <trkpt lat="44.12052" lon="5.82966">
        <ele>1337.8000488281</ele>
        <time>2021-09-03T14:32:22Z</time>
      </trkpt>
      <trkpt lat="44.12054" lon="5.82958">
        <ele>1338.4000244141</ele>
        <time>2021-09-03T14:32:25Z</time>
      </trkpt>
      <trkpt lat="44.1206" lon="5.82951">
        <ele>1338.8000488281</ele>
        <time>2021-09-03T14:32:29Z</time>
      </trkpt>
      <trkpt lat="44.12069" lon="5.82943">
        <ele>1339.4000244141</ele>
        <time>2021-09-03T14:32:35Z</time>
      </trkpt>
      <trkpt lat="44.12071" lon="5.82942">
        <ele>1339.5999755859</ele>
        <time>2021-09-03T14:32:36Z</time>
      </trkpt>
      <trkpt lat="44.12081" lon="5.82935">
        <ele>1340.5999755859</ele>
        <time>2021-09-03T14:32:42Z</time>
      </trkpt>
      <trkpt lat="44.12083" lon="5.82934">
        <ele>1340.8000488281</ele>
        <time>2021-09-03T14:32:43Z</time>
      </trkpt>
      <trkpt lat="44.12094" lon="5.82926">
        <ele>1341.4000244141</ele>
        <time>2021-09-03T14:32:50Z</time>
      </trkpt>
      <trkpt lat="44.12098" lon="5.82924">
        <ele>1341.8000488281</ele>
        <time>2021-09-03T14:32:52Z</time>
      </trkpt>
      <trkpt lat="44.12105" lon="5.82918">
        <ele>1342.5999755859</ele>
        <time>2021-09-03T14:32:57Z</time>
      </trkpt>
      <trkpt lat="44.1211" lon="5.82914">
        <ele>1342.8000488281</ele>
        <time>2021-09-03T14:33:00Z</time>
      </trkpt>
      <trkpt lat="44.12117" lon="5.82906">
        <ele>1343.5999755859</ele>
        <time>2021-09-03T14:33:05Z</time>
      </trkpt>
      <trkpt lat="44.12119" lon="5.82903">
        <ele>1344</ele>
        <time>2021-09-03T14:33:07Z</time>
      </trkpt>
      <trkpt lat="44.12123" lon="5.82891">
        <ele>1344.5999755859</ele>
        <time>2021-09-03T14:33:12Z</time>
      </trkpt>
      <trkpt lat="44.12126" lon="5.82884">
        <ele>1345</ele>
        <time>2021-09-03T14:33:15Z</time>
      </trkpt>
      <trkpt lat="44.1213" lon="5.82873">
        <ele>1345.5999755859</ele>
        <time>2021-09-03T14:33:20Z</time>
      </trkpt>
      <trkpt lat="44.12132" lon="5.82865">
        <ele>1346</ele>
        <time>2021-09-03T14:33:23Z</time>
      </trkpt>
      <trkpt lat="44.12138" lon="5.82852">
        <ele>1347.1999511719</ele>
        <time>2021-09-03T14:33:29Z</time>
      </trkpt>
      <trkpt lat="44.12144" lon="5.82837">
        <ele>1348.1999511719</ele>
        <time>2021-09-03T14:33:36Z</time>
      </trkpt>
      <trkpt lat="44.12145" lon="5.82835">
        <ele>1348.4000244141</ele>
        <time>2021-09-03T14:33:37Z</time>
      </trkpt>
      <trkpt lat="44.12151" lon="5.82822">
        <ele>1349.1999511719</ele>
        <time>2021-09-03T14:33:43Z</time>
      </trkpt>
      <trkpt lat="44.12152" lon="5.8282">
        <ele>1349.4000244141</ele>
        <time>2021-09-03T14:33:44Z</time>
      </trkpt>
      <trkpt lat="44.12158" lon="5.8281">
        <ele>1350.1999511719</ele>
        <time>2021-09-03T14:33:50Z</time>
      </trkpt>
      <trkpt lat="44.12159" lon="5.82808">
        <ele>1350.5999755859</ele>
        <time>2021-09-03T14:33:51Z</time>
      </trkpt>
      <trkpt lat="44.12164" lon="5.82794">
        <ele>1351.1999511719</ele>
        <time>2021-09-03T14:33:57Z</time>
      </trkpt>
      <trkpt lat="44.12165" lon="5.82792">
        <ele>1351.1999511719</ele>
        <time>2021-09-03T14:33:58Z</time>
      </trkpt>
      <trkpt lat="44.12172" lon="5.82777">
        <ele>1352.1999511719</ele>
        <time>2021-09-03T14:34:06Z</time>
      </trkpt>
      <trkpt lat="44.12173" lon="5.82775">
        <ele>1352.4000244141</ele>
        <time>2021-09-03T14:34:07Z</time>
      </trkpt>
      <trkpt lat="44.1218" lon="5.8276">
        <ele>1353.4000244141</ele>
        <time>2021-09-03T14:34:15Z</time>
      </trkpt>
      <trkpt lat="44.12186" lon="5.82746">
        <ele>1354</ele>
        <time>2021-09-03T14:34:22Z</time>
      </trkpt>
      <trkpt lat="44.12188" lon="5.8274">
        <ele>1354.5999755859</ele>
        <time>2021-09-03T14:34:25Z</time>
      </trkpt>
      <trkpt lat="44.12192" lon="5.82729">
        <ele>1355</ele>
        <time>2021-09-03T14:34:30Z</time>
      </trkpt>
      <trkpt lat="44.12196" lon="5.82722">
        <ele>1355.5999755859</ele>
        <time>2021-09-03T14:34:34Z</time>
      </trkpt>
      <trkpt lat="44.122" lon="5.82715">
        <ele>1356.1999511719</ele>
        <time>2021-09-03T14:34:38Z</time>
      </trkpt>
      <trkpt lat="44.12204" lon="5.82709">
        <ele>1356.5999755859</ele>
        <time>2021-09-03T14:34:41Z</time>
      </trkpt>
      <trkpt lat="44.12209" lon="5.82702">
        <ele>1357</ele>
        <time>2021-09-03T14:34:45Z</time>
      </trkpt>
      <trkpt lat="44.12214" lon="5.82692">
        <ele>1357.8000488281</ele>
        <time>2021-09-03T14:34:50Z</time>
      </trkpt>
      <trkpt lat="44.12222" lon="5.82677">
        <ele>1358.8000488281</ele>
        <time>2021-09-03T14:34:57Z</time>
      </trkpt>
      <trkpt lat="44.12224" lon="5.82673">
        <ele>1359.1999511719</ele>
        <time>2021-09-03T14:34:59Z</time>
      </trkpt>
      <trkpt lat="44.12228" lon="5.82664">
        <ele>1359.8000488281</ele>
        <time>2021-09-03T14:35:03Z</time>
      </trkpt>
      <trkpt lat="44.1223" lon="5.82657">
        <ele>1360.4000244141</ele>
        <time>2021-09-03T14:35:06Z</time>
      </trkpt>
      <trkpt lat="44.12234" lon="5.82648">
        <ele>1361</ele>
        <time>2021-09-03T14:35:10Z</time>
      </trkpt>
      <trkpt lat="44.12236" lon="5.82642">
        <ele>1361.4000244141</ele>
        <time>2021-09-03T14:35:13Z</time>
      </trkpt>
      <trkpt lat="44.12238" lon="5.82633">
        <ele>1362</ele>
        <time>2021-09-03T14:35:17Z</time>
      </trkpt>
      <trkpt lat="44.12239" lon="5.82624">
        <ele>1362.5999755859</ele>
        <time>2021-09-03T14:35:21Z</time>
      </trkpt>
      <trkpt lat="44.12242" lon="5.82617">
        <ele>1363</ele>
        <time>2021-09-03T14:35:24Z</time>
      </trkpt>
      <trkpt lat="44.12243" lon="5.82605">
        <ele>1363.8000488281</ele>
        <time>2021-09-03T14:35:29Z</time>
      </trkpt>
      <trkpt lat="44.12243" lon="5.826">
        <ele>1364.1999511719</ele>
        <time>2021-09-03T14:35:31Z</time>
      </trkpt>
      <trkpt lat="44.12244" lon="5.82587">
        <ele>1365</ele>
        <time>2021-09-03T14:35:37Z</time>
      </trkpt>
      <trkpt lat="44.12246" lon="5.82582">
        <ele>1365.1999511719</ele>
        <time>2021-09-03T14:35:39Z</time>
      </trkpt>
      <trkpt lat="44.12249" lon="5.8257">
        <ele>1365.8000488281</ele>
        <time>2021-09-03T14:35:44Z</time>
      </trkpt>
      <trkpt lat="44.12253" lon="5.82562">
        <ele>1366.4000244141</ele>
        <time>2021-09-03T14:35:48Z</time>
      </trkpt>
      <trkpt lat="44.1226" lon="5.82552">
        <ele>1367.1999511719</ele>
        <time>2021-09-03T14:35:53Z</time>
      </trkpt>
      <trkpt lat="44.12261" lon="5.8255">
        <ele>1367.4000244141</ele>
        <time>2021-09-03T14:35:54Z</time>
      </trkpt>
      <trkpt lat="44.12271" lon="5.82538">
        <ele>1368.5999755859</ele>
        <time>2021-09-03T14:36:01Z</time>
      </trkpt>
      <trkpt lat="44.12277" lon="5.82524">
        <ele>1369.4000244141</ele>
        <time>2021-09-03T14:36:07Z</time>
      </trkpt>
      <trkpt lat="44.1228" lon="5.82522">
        <ele>1369.5999755859</ele>
        <time>2021-09-03T14:36:09Z</time>
      </trkpt>
      <trkpt lat="44.12282" lon="5.82517">
        <ele>1369.8000488281</ele>
        <time>2021-09-03T14:36:11Z</time>
      </trkpt>
      <trkpt lat="44.12284" lon="5.82516">
        <ele>1370</ele>
        <time>2021-09-03T14:36:12Z</time>
      </trkpt>
      <trkpt lat="44.12289" lon="5.82508">
        <ele>1370.4000244141</ele>
        <time>2021-09-03T14:36:16Z</time>
      </trkpt>
      <trkpt lat="44.12289" lon="5.82505">
        <ele>1370.5999755859</ele>
        <time>2021-09-03T14:36:17Z</time>
      </trkpt>
      <trkpt lat="44.12294" lon="5.82493">
        <ele>1371</ele>
        <time>2021-09-03T14:36:23Z</time>
      </trkpt>
      <trkpt lat="44.12297" lon="5.82479">
        <ele>1371.5999755859</ele>
        <time>2021-09-03T14:36:28Z</time>
      </trkpt>
      <trkpt lat="44.12297" lon="5.82475">
        <ele>1371.8000488281</ele>
        <time>2021-09-03T14:36:30Z</time>
      </trkpt>
      <trkpt lat="44.12298" lon="5.82457">
        <ele>1372.5999755859</ele>
        <time>2021-09-03T14:36:37Z</time>
      </trkpt>
      <trkpt lat="44.12298" lon="5.82454">
        <ele>1372.8000488281</ele>
        <time>2021-09-03T14:36:38Z</time>
      </trkpt>
      <trkpt lat="44.12297" lon="5.82437">
        <ele>1373.8000488281</ele>
        <time>2021-09-03T14:36:45Z</time>
      </trkpt>
      <trkpt lat="44.12296" lon="5.82433">
        <ele>1374.1999511719</ele>
        <time>2021-09-03T14:36:47Z</time>
      </trkpt>
      <trkpt lat="44.12293" lon="5.8242">
        <ele>1375</ele>
        <time>2021-09-03T14:36:53Z</time>
      </trkpt>
      <trkpt lat="44.12293" lon="5.82413">
        <ele>1375.1999511719</ele>
        <time>2021-09-03T14:36:56Z</time>
      </trkpt>
      <trkpt lat="44.12294" lon="5.82402">
        <ele>1376</ele>
        <time>2021-09-03T14:37:01Z</time>
      </trkpt>
      <trkpt lat="44.12297" lon="5.82396">
        <ele>1376.8000488281</ele>
        <time>2021-09-03T14:37:04Z</time>
      </trkpt>
      <trkpt lat="44.12296" lon="5.82392">
        <ele>1377.1999511719</ele>
        <time>2021-09-03T14:37:06Z</time>
      </trkpt>
      <trkpt lat="44.12295" lon="5.82385">
        <ele>1377.8000488281</ele>
        <time>2021-09-03T14:37:09Z</time>
      </trkpt>
      <trkpt lat="44.12295" lon="5.82378">
        <ele>1378.1999511719</ele>
        <time>2021-09-03T14:37:12Z</time>
      </trkpt>
      <trkpt lat="44.12296" lon="5.82368">
        <ele>1378.8000488281</ele>
        <time>2021-09-03T14:37:16Z</time>
      </trkpt>
      <trkpt lat="44.12295" lon="5.8236">
        <ele>1379.1999511719</ele>
        <time>2021-09-03T14:37:19Z</time>
      </trkpt>
      <trkpt lat="44.12295" lon="5.82352">
        <ele>1379.8000488281</ele>
        <time>2021-09-03T14:37:23Z</time>
      </trkpt>
      <trkpt lat="44.12296" lon="5.82345">
        <ele>1380.1999511719</ele>
        <time>2021-09-03T14:37:26Z</time>
      </trkpt>
      <trkpt lat="44.12298" lon="5.82333">
        <ele>1381</ele>
        <time>2021-09-03T14:37:31Z</time>
      </trkpt>
      <trkpt lat="44.12299" lon="5.82326">
        <ele>1381.4000244141</ele>
        <time>2021-09-03T14:37:34Z</time>
      </trkpt>
      <trkpt lat="44.12302" lon="5.82316">
        <ele>1381.8000488281</ele>
        <time>2021-09-03T14:37:38Z</time>
      </trkpt>
      <trkpt lat="44.12306" lon="5.82303">
        <ele>1382.4000244141</ele>
        <time>2021-09-03T14:37:44Z</time>
      </trkpt>
      <trkpt lat="44.12308" lon="5.82298">
        <ele>1382.5999755859</ele>
        <time>2021-09-03T14:37:46Z</time>
      </trkpt>
      <trkpt lat="44.12312" lon="5.82285">
        <ele>1383.5999755859</ele>
        <time>2021-09-03T14:37:52Z</time>
      </trkpt>
      <trkpt lat="44.12314" lon="5.82281">
        <ele>1383.8000488281</ele>
        <time>2021-09-03T14:37:54Z</time>
      </trkpt>
      <trkpt lat="44.12319" lon="5.82267">
        <ele>1384.5999755859</ele>
        <time>2021-09-03T14:38:00Z</time>
      </trkpt>
      <trkpt lat="44.12322" lon="5.82259">
        <ele>1385</ele>
        <time>2021-09-03T14:38:04Z</time>
      </trkpt>
      <trkpt lat="44.12326" lon="5.8225">
        <ele>1385.5999755859</ele>
        <time>2021-09-03T14:38:08Z</time>
      </trkpt>
      <trkpt lat="44.1233" lon="5.82243">
        <ele>1386.1999511719</ele>
        <time>2021-09-03T14:38:12Z</time>
      </trkpt>
      <trkpt lat="44.12333" lon="5.82236">
        <ele>1386.5999755859</ele>
        <time>2021-09-03T14:38:15Z</time>
      </trkpt>
      <trkpt lat="44.12338" lon="5.82225">
        <ele>1387.4000244141</ele>
        <time>2021-09-03T14:38:20Z</time>
      </trkpt>
      <trkpt lat="44.12339" lon="5.82219">
        <ele>1387.8000488281</ele>
        <time>2021-09-03T14:38:23Z</time>
      </trkpt>
      <trkpt lat="44.1234" lon="5.82209">
        <ele>1388.1999511719</ele>
        <time>2021-09-03T14:38:27Z</time>
      </trkpt>
      <trkpt lat="44.12342" lon="5.82201">
        <ele>1388.8000488281</ele>
        <time>2021-09-03T14:38:30Z</time>
      </trkpt>
      <trkpt lat="44.12344" lon="5.82189">
        <ele>1389.5999755859</ele>
        <time>2021-09-03T14:38:35Z</time>
      </trkpt>
      <trkpt lat="44.12344" lon="5.82184">
        <ele>1389.8000488281</ele>
        <time>2021-09-03T14:38:37Z</time>
      </trkpt>
      <trkpt lat="44.12349" lon="5.82173">
        <ele>1390.8000488281</ele>
        <time>2021-09-03T14:38:43Z</time>
      </trkpt>
      <trkpt lat="44.1235" lon="5.82171">
        <ele>1391</ele>
        <time>2021-09-03T14:38:44Z</time>
      </trkpt>
      <trkpt lat="44.12358" lon="5.8217">
        <ele>1319.1999511719</ele>
        <time>2021-09-03T14:49:59Z</time>
      </trkpt>
      <trkpt lat="44.12357" lon="5.8217">
        <ele>1319</ele>
        <time>2021-09-03T14:50:29Z</time>
      </trkpt>
      <trkpt lat="44.12358" lon="5.82164">
        <ele>1319</ele>
        <time>2021-09-03T14:50:32Z</time>
      </trkpt>
      <trkpt lat="44.12359" lon="5.82162">
        <ele>1319.1999511719</ele>
        <time>2021-09-03T14:50:33Z</time>
      </trkpt>
      <trkpt lat="44.12366" lon="5.82147">
        <ele>1320.1999511719</ele>
        <time>2021-09-03T14:50:41Z</time>
      </trkpt>
      <trkpt lat="44.12367" lon="5.82145">
        <ele>1320.1999511719</ele>
        <time>2021-09-03T14:50:42Z</time>
      </trkpt>
      <trkpt lat="44.12374" lon="5.82132">
        <ele>1321</ele>
        <time>2021-09-03T14:50:49Z</time>
      </trkpt>
      <trkpt lat="44.12376" lon="5.82129">
        <ele>1321.4000244141</ele>
        <time>2021-09-03T14:50:51Z</time>
      </trkpt>
      <trkpt lat="44.12381" lon="5.82117">
        <ele>1322.1999511719</ele>
        <time>2021-09-03T14:50:57Z</time>
      </trkpt>
      <trkpt lat="44.12384" lon="5.82111">
        <ele>1322.4000244141</ele>
        <time>2021-09-03T14:51:00Z</time>
      </trkpt>
      <trkpt lat="44.12387" lon="5.82103">
        <ele>1322.8000488281</ele>
        <time>2021-09-03T14:51:04Z</time>
      </trkpt>
      <trkpt lat="44.1239" lon="5.82098">
        <ele>1323.1999511719</ele>
        <time>2021-09-03T14:51:07Z</time>
      </trkpt>
      <trkpt lat="44.12391" lon="5.82092">
        <ele>1323.4000244141</ele>
        <time>2021-09-03T14:51:10Z</time>
      </trkpt>
      <trkpt lat="44.12396" lon="5.82078">
        <ele>1324.5999755859</ele>
        <time>2021-09-03T14:51:17Z</time>
      </trkpt>
      <trkpt lat="44.12397" lon="5.82076">
        <ele>1324.8000488281</ele>
        <time>2021-09-03T14:51:18Z</time>
      </trkpt>
      <trkpt lat="44.12402" lon="5.82063">
        <ele>1325.5999755859</ele>
        <time>2021-09-03T14:51:25Z</time>
      </trkpt>
      <trkpt lat="44.12403" lon="5.8206">
        <ele>1325.8000488281</ele>
        <time>2021-09-03T14:51:26Z</time>
      </trkpt>
      <trkpt lat="44.12406" lon="5.82047">
        <ele>1326.8000488281</ele>
        <time>2021-09-03T14:51:33Z</time>
      </trkpt>
      <trkpt lat="44.1241" lon="5.82033">
        <ele>1327.8000488281</ele>
        <time>2021-09-03T14:51:40Z</time>
      </trkpt>
      <trkpt lat="44.12411" lon="5.82031">
        <ele>1328</ele>
        <time>2021-09-03T14:51:41Z</time>
      </trkpt>
      <trkpt lat="44.12416" lon="5.82018">
        <ele>1329</ele>
        <time>2021-09-03T14:51:48Z</time>
      </trkpt>
      <trkpt lat="44.12422" lon="5.82003">
        <ele>1330</ele>
        <time>2021-09-03T14:51:56Z</time>
      </trkpt>
      <trkpt lat="44.12422" lon="5.82001">
        <ele>1330.1999511719</ele>
        <time>2021-09-03T14:51:57Z</time>
      </trkpt>
      <trkpt lat="44.12427" lon="5.8199">
        <ele>1330.8000488281</ele>
        <time>2021-09-03T14:52:03Z</time>
      </trkpt>
      <trkpt lat="44.12428" lon="5.81988">
        <ele>1331</ele>
        <time>2021-09-03T14:52:04Z</time>
      </trkpt>
      <trkpt lat="44.12429" lon="5.81986">
        <ele>1331</ele>
        <time>2021-09-03T14:52:05Z</time>
      </trkpt>
      <trkpt lat="44.12433" lon="5.81974">
        <ele>1331.8000488281</ele>
        <time>2021-09-03T14:52:11Z</time>
      </trkpt>
      <trkpt lat="44.12436" lon="5.81965">
        <ele>1332.1999511719</ele>
        <time>2021-09-03T14:52:15Z</time>
      </trkpt>
      <trkpt lat="44.12438" lon="5.81955">
        <ele>1332.8000488281</ele>
        <time>2021-09-03T14:52:20Z</time>
      </trkpt>
      <trkpt lat="44.12441" lon="5.81947">
        <ele>1333.1999511719</ele>
        <time>2021-09-03T14:52:24Z</time>
      </trkpt>
      <trkpt lat="44.12447" lon="5.81935">
        <ele>1334.1999511719</ele>
        <time>2021-09-03T14:52:29Z</time>
      </trkpt>
      <trkpt lat="44.12448" lon="5.81933">
        <ele>1334.1999511719</ele>
        <time>2021-09-03T14:52:30Z</time>
      </trkpt>
      <trkpt lat="44.12452" lon="5.81921">
        <ele>1335.1999511719</ele>
        <time>2021-09-03T14:52:36Z</time>
      </trkpt>
      <trkpt lat="44.12453" lon="5.81918">
        <ele>1335.1999511719</ele>
        <time>2021-09-03T14:52:37Z</time>
      </trkpt>
      <trkpt lat="44.12459" lon="5.81905">
        <ele>1336.1999511719</ele>
        <time>2021-09-03T14:52:44Z</time>
      </trkpt>
      <trkpt lat="44.1246" lon="5.81903">
        <ele>1336.4000244141</ele>
        <time>2021-09-03T14:52:45Z</time>
      </trkpt>
      <trkpt lat="44.12467" lon="5.81892">
        <ele>1337.4000244141</ele>
        <time>2021-09-03T14:52:52Z</time>
      </trkpt>
      <trkpt lat="44.12477" lon="5.8188">
        <ele>1338.4000244141</ele>
        <time>2021-09-03T14:53:00Z</time>
      </trkpt>
      <trkpt lat="44.12489" lon="5.81873">
        <ele>1339.4000244141</ele>
        <time>2021-09-03T14:53:06Z</time>
      </trkpt>
      <trkpt lat="44.12491" lon="5.81871">
        <ele>1339.4000244141</ele>
        <time>2021-09-03T14:53:07Z</time>
      </trkpt>
      <trkpt lat="44.12493" lon="5.81869">
        <ele>1339.5999755859</ele>
        <time>2021-09-03T14:53:08Z</time>
      </trkpt>
      <trkpt lat="44.12501" lon="5.81857">
        <ele>1340.1999511719</ele>
        <time>2021-09-03T14:53:15Z</time>
      </trkpt>
      <trkpt lat="44.12506" lon="5.81852">
        <ele>1340.5999755859</ele>
        <time>2021-09-03T14:53:18Z</time>
      </trkpt>
      <trkpt lat="44.12513" lon="5.81841">
        <ele>1341.1999511719</ele>
        <time>2021-09-03T14:53:24Z</time>
      </trkpt>
      <trkpt lat="44.12518" lon="5.81831">
        <ele>1341.5999755859</ele>
        <time>2021-09-03T14:53:29Z</time>
      </trkpt>
      <trkpt lat="44.1252" lon="5.81821">
        <ele>1342</ele>
        <time>2021-09-03T14:53:33Z</time>
      </trkpt>
      <trkpt lat="44.12523" lon="5.81808">
        <ele>1342.8000488281</ele>
        <time>2021-09-03T14:53:38Z</time>
      </trkpt>
      <trkpt lat="44.12525" lon="5.81804">
        <ele>1343</ele>
        <time>2021-09-03T14:53:40Z</time>
      </trkpt>
      <trkpt lat="44.12528" lon="5.81788">
        <ele>1343.8000488281</ele>
        <time>2021-09-03T14:53:46Z</time>
      </trkpt>
      <trkpt lat="44.12528" lon="5.81785">
        <ele>1344</ele>
        <time>2021-09-03T14:53:47Z</time>
      </trkpt>
      <trkpt lat="44.1253" lon="5.81765">
        <ele>1345</ele>
        <time>2021-09-03T14:53:55Z</time>
      </trkpt>
      <trkpt lat="44.1253" lon="5.8176">
        <ele>1345.1999511719</ele>
        <time>2021-09-03T14:53:57Z</time>
      </trkpt>
      <trkpt lat="44.12531" lon="5.81752">
        <ele>1345.5999755859</ele>
        <time>2021-09-03T14:54:00Z</time>
      </trkpt>
      <trkpt lat="44.12532" lon="5.81747">
        <ele>1346</ele>
        <time>2021-09-03T14:54:02Z</time>
      </trkpt>
      <trkpt lat="44.12533" lon="5.81741">
        <ele>1346.4000244141</ele>
        <time>2021-09-03T14:54:05Z</time>
      </trkpt>
      <trkpt lat="44.12532" lon="5.81736">
        <ele>1346.8000488281</ele>
        <time>2021-09-03T14:54:07Z</time>
      </trkpt>
      <trkpt lat="44.12532" lon="5.8173">
        <ele>1347</ele>
        <time>2021-09-03T14:54:10Z</time>
      </trkpt>
      <trkpt lat="44.12534" lon="5.81719">
        <ele>1347.5999755859</ele>
        <time>2021-09-03T14:54:15Z</time>
      </trkpt>
      <trkpt lat="44.12534" lon="5.81711">
        <ele>1348</ele>
        <time>2021-09-03T14:54:18Z</time>
      </trkpt>
      <trkpt lat="44.12534" lon="5.81701">
        <ele>1348.5999755859</ele>
        <time>2021-09-03T14:54:22Z</time>
      </trkpt>
      <trkpt lat="44.12537" lon="5.81691">
        <ele>1349.1999511719</ele>
        <time>2021-09-03T14:54:26Z</time>
      </trkpt>
      <trkpt lat="44.12538" lon="5.81682">
        <ele>1349.8000488281</ele>
        <time>2021-09-03T14:54:30Z</time>
      </trkpt>
      <trkpt lat="44.1254" lon="5.81672">
        <ele>1350.4000244141</ele>
        <time>2021-09-03T14:54:35Z</time>
      </trkpt>
      <trkpt lat="44.1254" lon="5.8167">
        <ele>1350.5999755859</ele>
        <time>2021-09-03T14:54:36Z</time>
      </trkpt>
      <trkpt lat="44.12544" lon="5.81654">
        <ele>1351.5999755859</ele>
        <time>2021-09-03T14:54:43Z</time>
      </trkpt>
      <trkpt lat="44.12544" lon="5.81652">
        <ele>1351.5999755859</ele>
        <time>2021-09-03T14:54:44Z</time>
      </trkpt>
      <trkpt lat="44.12545" lon="5.81649">
        <ele>1352</ele>
        <time>2021-09-03T14:54:46Z</time>
      </trkpt>
      <trkpt lat="44.12547" lon="5.8164">
        <ele>1352.5999755859</ele>
        <time>2021-09-03T14:54:50Z</time>
      </trkpt>
      <trkpt lat="44.12548" lon="5.81638">
        <ele>1352.8000488281</ele>
        <time>2021-09-03T14:54:51Z</time>
      </trkpt>
      <trkpt lat="44.12554" lon="5.81623">
        <ele>1353.8000488281</ele>
        <time>2021-09-03T14:54:58Z</time>
      </trkpt>
      <trkpt lat="44.12554" lon="5.81621">
        <ele>1354</ele>
        <time>2021-09-03T14:54:59Z</time>
      </trkpt>
      <trkpt lat="44.12557" lon="5.8161">
        <ele>1354.5999755859</ele>
        <time>2021-09-03T14:55:04Z</time>
      </trkpt>
      <trkpt lat="44.12559" lon="5.81606">
        <ele>1355</ele>
        <time>2021-09-03T14:55:06Z</time>
      </trkpt>
      <trkpt lat="44.12564" lon="5.81592">
        <ele>1355.5999755859</ele>
        <time>2021-09-03T14:55:13Z</time>
      </trkpt>
      <trkpt lat="44.12564" lon="5.8159">
        <ele>1356</ele>
        <time>2021-09-03T14:55:14Z</time>
      </trkpt>
      <trkpt lat="44.12565" lon="5.81579">
        <ele>1356.5999755859</ele>
        <time>2021-09-03T14:55:19Z</time>
      </trkpt>
      <trkpt lat="44.12565" lon="5.81573">
        <ele>1357</ele>
        <time>2021-09-03T14:55:22Z</time>
      </trkpt>
      <trkpt lat="44.12565" lon="5.81565">
        <ele>1357.4000244141</ele>
        <time>2021-09-03T14:55:26Z</time>
      </trkpt>
      <trkpt lat="44.12567" lon="5.81556">
        <ele>1358</ele>
        <time>2021-09-03T14:55:30Z</time>
      </trkpt>
      <trkpt lat="44.12568" lon="5.81547">
        <ele>1358.4000244141</ele>
        <time>2021-09-03T14:55:34Z</time>
      </trkpt>
      <trkpt lat="44.12568" lon="5.81538">
        <ele>1359</ele>
        <time>2021-09-03T14:55:38Z</time>
      </trkpt>
      <trkpt lat="44.12568" lon="5.81534">
        <ele>1359.1999511719</ele>
        <time>2021-09-03T14:55:40Z</time>
      </trkpt>
      <trkpt lat="44.12572" lon="5.8152">
        <ele>1360</ele>
        <time>2021-09-03T14:55:46Z</time>
      </trkpt>
      <trkpt lat="44.12578" lon="5.81504">
        <ele>1361.1999511719</ele>
        <time>2021-09-03T14:55:54Z</time>
      </trkpt>
      <trkpt lat="44.12579" lon="5.81501">
        <ele>1361.4000244141</ele>
        <time>2021-09-03T14:55:56Z</time>
      </trkpt>
      <trkpt lat="44.12584" lon="5.81488">
        <ele>1362.1999511719</ele>
        <time>2021-09-03T14:56:02Z</time>
      </trkpt>
      <trkpt lat="44.12592" lon="5.81474">
        <ele>1363.1999511719</ele>
        <time>2021-09-03T14:56:09Z</time>
      </trkpt>
      <trkpt lat="44.12592" lon="5.81473">
        <ele>1363.1999511719</ele>
        <time>2021-09-03T14:56:10Z</time>
      </trkpt>
      <trkpt lat="44.12595" lon="5.81461">
        <ele>1364.1999511719</ele>
        <time>2021-09-03T14:56:17Z</time>
      </trkpt>
      <trkpt lat="44.12596" lon="5.81459">
        <ele>1364.4000244141</ele>
        <time>2021-09-03T14:56:18Z</time>
      </trkpt>
      <trkpt lat="44.126" lon="5.81449">
        <ele>1365</ele>
        <time>2021-09-03T14:56:22Z</time>
      </trkpt>
      <trkpt lat="44.12601" lon="5.81444">
        <ele>1365</ele>
        <time>2021-09-03T14:56:24Z</time>
      </trkpt>
      <trkpt lat="44.12602" lon="5.8144">
        <ele>1365.4000244141</ele>
        <time>2021-09-03T14:56:26Z</time>
      </trkpt>
      <trkpt lat="44.12606" lon="5.81427">
        <ele>1366.1999511719</ele>
        <time>2021-09-03T14:56:32Z</time>
      </trkpt>
      <trkpt lat="44.12606" lon="5.81423">
        <ele>1366.5999755859</ele>
        <time>2021-09-03T14:56:34Z</time>
      </trkpt>
      <trkpt lat="44.1261" lon="5.81411">
        <ele>1367.4000244141</ele>
        <time>2021-09-03T14:56:40Z</time>
      </trkpt>
      <trkpt lat="44.12612" lon="5.81404">
        <ele>1367.5999755859</ele>
        <time>2021-09-03T14:56:43Z</time>
      </trkpt>
      <trkpt lat="44.12613" lon="5.81399">
        <ele>1368</ele>
        <time>2021-09-03T14:56:45Z</time>
      </trkpt>
      <trkpt lat="44.12613" lon="5.81397">
        <ele>1368</ele>
        <time>2021-09-03T14:56:46Z</time>
      </trkpt>
      <trkpt lat="44.12615" lon="5.81389">
        <ele>1368.8000488281</ele>
        <time>2021-09-03T14:56:50Z</time>
      </trkpt>
      <trkpt lat="44.1262" lon="5.8138">
        <ele>1369.4000244141</ele>
        <time>2021-09-03T14:56:55Z</time>
      </trkpt>
      <trkpt lat="44.12622" lon="5.81374">
        <ele>1369.8000488281</ele>
        <time>2021-09-03T14:56:58Z</time>
      </trkpt>
      <trkpt lat="44.12625" lon="5.81366">
        <ele>1370.1999511719</ele>
        <time>2021-09-03T14:57:02Z</time>
      </trkpt>
      <trkpt lat="44.12629" lon="5.81358">
        <ele>1370.8000488281</ele>
        <time>2021-09-03T14:57:06Z</time>
      </trkpt>
      <trkpt lat="44.12636" lon="5.81346">
        <ele>1371.5999755859</ele>
        <time>2021-09-03T14:57:11Z</time>
      </trkpt>
      <trkpt lat="44.1264" lon="5.81338">
        <ele>1372</ele>
        <time>2021-09-03T14:57:14Z</time>
      </trkpt>
      <trkpt lat="44.12643" lon="5.81329">
        <ele>1372.4000244141</ele>
        <time>2021-09-03T14:57:18Z</time>
      </trkpt>
      <trkpt lat="44.12644" lon="5.81321">
        <ele>1373</ele>
        <time>2021-09-03T14:57:22Z</time>
      </trkpt>
      <trkpt lat="44.12645" lon="5.81317">
        <ele>1373.4000244141</ele>
        <time>2021-09-03T14:57:25Z</time>
      </trkpt>
      <trkpt lat="44.12646" lon="5.81309">
        <ele>1374</ele>
        <time>2021-09-03T14:57:29Z</time>
      </trkpt>
      <trkpt lat="44.12648" lon="5.81301">
        <ele>1374.4000244141</ele>
        <time>2021-09-03T14:57:32Z</time>
      </trkpt>
      <trkpt lat="44.12653" lon="5.81289">
        <ele>1375</ele>
        <time>2021-09-03T14:57:37Z</time>
      </trkpt>
      <trkpt lat="44.12655" lon="5.81284">
        <ele>1375.1999511719</ele>
        <time>2021-09-03T14:57:39Z</time>
      </trkpt>
      <trkpt lat="44.1266" lon="5.8127">
        <ele>1376</ele>
        <time>2021-09-03T14:57:46Z</time>
      </trkpt>
      <trkpt lat="44.1266" lon="5.81268">
        <ele>1376</ele>
        <time>2021-09-03T14:57:47Z</time>
      </trkpt>
      <trkpt lat="44.12663" lon="5.81253">
        <ele>1377</ele>
        <time>2021-09-03T14:57:54Z</time>
      </trkpt>
      <trkpt lat="44.12664" lon="5.81249">
        <ele>1377.1999511719</ele>
        <time>2021-09-03T14:57:56Z</time>
      </trkpt>
      <trkpt lat="44.12665" lon="5.81242">
        <ele>1377.5999755859</ele>
        <time>2021-09-03T14:57:59Z</time>
      </trkpt>
      <trkpt lat="44.12664" lon="5.81241">
        <ele>1377.8000488281</ele>
        <time>2021-09-03T14:58:00Z</time>
      </trkpt>
      <trkpt lat="44.1266" lon="5.81245">
        <ele>1378.1999511719</ele>
        <time>2021-09-03T14:58:03Z</time>
      </trkpt>
      <trkpt lat="44.12659" lon="5.81247">
        <ele>1378.1999511719</ele>
        <time>2021-09-03T14:58:04Z</time>
      </trkpt>
      <trkpt lat="44.12654" lon="5.81262">
        <ele>1379.1999511719</ele>
        <time>2021-09-03T14:58:10Z</time>
      </trkpt>
      <trkpt lat="44.1265" lon="5.81276">
        <ele>1380</ele>
        <time>2021-09-03T14:58:16Z</time>
      </trkpt>
      <trkpt lat="44.12647" lon="5.81285">
        <ele>1380.4000244141</ele>
        <time>2021-09-03T14:58:20Z</time>
      </trkpt>
      <trkpt lat="44.12646" lon="5.8129">
        <ele>1380.4000244141</ele>
        <time>2021-09-03T14:58:22Z</time>
      </trkpt>
      <trkpt lat="44.1264" lon="5.8131">
        <ele>1381.4000244141</ele>
        <time>2021-09-03T14:58:30Z</time>
      </trkpt>
      <trkpt lat="44.12632" lon="5.81325">
        <ele>1382</ele>
        <time>2021-09-03T14:58:36Z</time>
      </trkpt>
      <trkpt lat="44.1263" lon="5.81332">
        <ele>1382.4000244141</ele>
        <time>2021-09-03T14:58:39Z</time>
      </trkpt>
      <trkpt lat="44.12627" lon="5.81338">
        <ele>1382.8000488281</ele>
        <time>2021-09-03T14:58:42Z</time>
      </trkpt>
      <trkpt lat="44.1262" lon="5.81351">
        <ele>1383.1999511719</ele>
        <time>2021-09-03T14:58:48Z</time>
      </trkpt>
      <trkpt lat="44.12617" lon="5.81355">
        <ele>1383.5999755859</ele>
        <time>2021-09-03T14:58:50Z</time>
      </trkpt>
      <trkpt lat="44.12612" lon="5.81363">
        <ele>1384.1999511719</ele>
        <time>2021-09-03T14:58:54Z</time>
      </trkpt>
      <trkpt lat="44.12608" lon="5.81371">
        <ele>1384.5999755859</ele>
        <time>2021-09-03T14:58:58Z</time>
      </trkpt>
      <trkpt lat="44.12605" lon="5.81377">
        <ele>1384.8000488281</ele>
        <time>2021-09-03T14:59:01Z</time>
      </trkpt>
      <trkpt lat="44.12599" lon="5.81393">
        <ele>1385.5999755859</ele>
        <time>2021-09-03T14:59:08Z</time>
      </trkpt>
      <trkpt lat="44.12592" lon="5.81411">
        <ele>1386.8000488281</ele>
        <time>2021-09-03T14:59:16Z</time>
      </trkpt>
      <trkpt lat="44.12591" lon="5.81413">
        <ele>1386.8000488281</ele>
        <time>2021-09-03T14:59:17Z</time>
      </trkpt>
      <trkpt lat="44.1259" lon="5.81415">
        <ele>1387</ele>
        <time>2021-09-03T14:59:18Z</time>
      </trkpt>
      <trkpt lat="44.12584" lon="5.81426">
        <ele>1387.5999755859</ele>
        <time>2021-09-03T14:59:23Z</time>
      </trkpt>
      <trkpt lat="44.12583" lon="5.81429">
        <ele>1387.8000488281</ele>
        <time>2021-09-03T14:59:24Z</time>
      </trkpt>
      <trkpt lat="44.12578" lon="5.81438">
        <ele>1388.4000244141</ele>
        <time>2021-09-03T14:59:29Z</time>
      </trkpt>
      <trkpt lat="44.12574" lon="5.81443">
        <ele>1388.8000488281</ele>
        <time>2021-09-03T14:59:32Z</time>
      </trkpt>
      <trkpt lat="44.12571" lon="5.81447">
        <ele>1389.1999511719</ele>
        <time>2021-09-03T14:59:34Z</time>
      </trkpt>
      <trkpt lat="44.12565" lon="5.81456">
        <ele>1389.8000488281</ele>
        <time>2021-09-03T14:59:39Z</time>
      </trkpt>
      <trkpt lat="44.12564" lon="5.81459">
        <ele>1390</ele>
        <time>2021-09-03T14:59:40Z</time>
      </trkpt>
      <trkpt lat="44.12557" lon="5.81471">
        <ele>1390.8000488281</ele>
        <time>2021-09-03T14:59:46Z</time>
      </trkpt>
      <trkpt lat="44.12556" lon="5.81474">
        <ele>1391</ele>
        <time>2021-09-03T14:59:47Z</time>
      </trkpt>
      <trkpt lat="44.12551" lon="5.81485">
        <ele>1391.5999755859</ele>
        <time>2021-09-03T14:59:52Z</time>
      </trkpt>
      <trkpt lat="44.12549" lon="5.8149">
        <ele>1392</ele>
        <time>2021-09-03T14:59:54Z</time>
      </trkpt>
      <trkpt lat="44.12544" lon="5.81503">
        <ele>1392.8000488281</ele>
        <time>2021-09-03T14:59:59Z</time>
      </trkpt>
      <trkpt lat="44.12544" lon="5.81505">
        <ele>1393</ele>
        <time>2021-09-03T15:00:00Z</time>
      </trkpt>
      <trkpt lat="44.12542" lon="5.81514">
        <ele>1393.8000488281</ele>
        <time>2021-09-03T15:00:04Z</time>
      </trkpt>
      <trkpt lat="44.1254" lon="5.81521">
        <ele>1394.1999511719</ele>
        <time>2021-09-03T15:00:07Z</time>
      </trkpt>
      <trkpt lat="44.12536" lon="5.8153">
        <ele>1394.8000488281</ele>
        <time>2021-09-03T15:00:12Z</time>
      </trkpt>
      <trkpt lat="44.12531" lon="5.81541">
        <ele>1395.1999511719</ele>
        <time>2021-09-03T15:00:16Z</time>
      </trkpt>
      <trkpt lat="44.12529" lon="5.81549">
        <ele>1395.5999755859</ele>
        <time>2021-09-03T15:00:19Z</time>
      </trkpt>
      <trkpt lat="44.12526" lon="5.8156">
        <ele>1396</ele>
        <time>2021-09-03T15:00:23Z</time>
      </trkpt>
      <trkpt lat="44.12524" lon="5.81565">
        <ele>1396.1999511719</ele>
        <time>2021-09-03T15:00:25Z</time>
      </trkpt>
      <trkpt lat="44.12522" lon="5.81567">
        <ele>1396.1999511719</ele>
        <time>2021-09-03T15:00:26Z</time>
      </trkpt>
      <trkpt lat="44.12515" lon="5.81578">
        <ele>1396.8000488281</ele>
        <time>2021-09-03T15:00:31Z</time>
      </trkpt>
      <trkpt lat="44.12509" lon="5.81588">
        <ele>1397.4000244141</ele>
        <time>2021-09-03T15:00:36Z</time>
      </trkpt>
      <trkpt lat="44.12507" lon="5.8159">
        <ele>1397.4000244141</ele>
        <time>2021-09-03T15:00:37Z</time>
      </trkpt>
      <trkpt lat="44.12496" lon="5.8161">
        <ele>1398.4000244141</ele>
        <time>2021-09-03T15:00:45Z</time>
      </trkpt>
      <trkpt lat="44.12483" lon="5.81627">
        <ele>1399.4000244141</ele>
        <time>2021-09-03T15:00:52Z</time>
      </trkpt>
      <trkpt lat="44.12475" lon="5.81644">
        <ele>1400.4000244141</ele>
        <time>2021-09-03T15:00:59Z</time>
      </trkpt>
      <trkpt lat="44.12473" lon="5.81649">
        <ele>1400.5999755859</ele>
        <time>2021-09-03T15:01:01Z</time>
      </trkpt>
      <trkpt lat="44.12469" lon="5.81664">
        <ele>1401.1999511719</ele>
        <time>2021-09-03T15:01:07Z</time>
      </trkpt>
      <trkpt lat="44.12467" lon="5.8167">
        <ele>1401.5999755859</ele>
        <time>2021-09-03T15:01:10Z</time>
      </trkpt>
      <trkpt lat="44.12464" lon="5.8168">
        <ele>1402.1999511719</ele>
        <time>2021-09-03T15:01:14Z</time>
      </trkpt>
      <trkpt lat="44.1246" lon="5.81692">
        <ele>1402.8000488281</ele>
        <time>2021-09-03T15:01:19Z</time>
      </trkpt>
      <trkpt lat="44.1246" lon="5.81697">
        <ele>1403</ele>
        <time>2021-09-03T15:01:21Z</time>
      </trkpt>
      <trkpt lat="44.12457" lon="5.81704">
        <ele>1403.4000244141</ele>
        <time>2021-09-03T15:01:24Z</time>
      </trkpt>
      <trkpt lat="44.12455" lon="5.81711">
        <ele>1403.8000488281</ele>
        <time>2021-09-03T15:01:27Z</time>
      </trkpt>
      <trkpt lat="44.12454" lon="5.81713">
        <ele>1404</ele>
        <time>2021-09-03T15:01:28Z</time>
      </trkpt>
      <trkpt lat="44.12449" lon="5.81725">
        <ele>1405</ele>
        <time>2021-09-03T15:01:35Z</time>
      </trkpt>
      <trkpt lat="44.12442" lon="5.81739">
        <ele>1406</ele>
        <time>2021-09-03T15:01:42Z</time>
      </trkpt>
      <trkpt lat="44.12426" lon="5.8176">
        <ele>1407.5999755859</ele>
        <time>2021-09-03T15:01:58Z</time>
      </trkpt>
      <trkpt lat="44.12419" lon="5.81767">
        <ele>1408.1999511719</ele>
        <time>2021-09-03T15:02:03Z</time>
      </trkpt>
      <trkpt lat="44.12415" lon="5.8177">
        <ele>1408.5999755859</ele>
        <time>2021-09-03T15:02:07Z</time>
      </trkpt>
      <trkpt lat="44.12411" lon="5.81773">
        <ele>1409</ele>
        <time>2021-09-03T15:02:10Z</time>
      </trkpt>
      <trkpt lat="44.12403" lon="5.81777">
        <ele>1409.5999755859</ele>
        <time>2021-09-03T15:02:15Z</time>
      </trkpt>
      <trkpt lat="44.124" lon="5.81779">
        <ele>1409.8000488281</ele>
        <time>2021-09-03T15:02:17Z</time>
      </trkpt>
      <trkpt lat="44.12396" lon="5.81783">
        <ele>1410.1999511719</ele>
        <time>2021-09-03T15:02:20Z</time>
      </trkpt>
      <trkpt lat="44.12392" lon="5.81787">
        <ele>1410.4000244141</ele>
        <time>2021-09-03T15:02:23Z</time>
      </trkpt>
      <trkpt lat="44.1239" lon="5.8179">
        <ele>1410.5999755859</ele>
        <time>2021-09-03T15:02:25Z</time>
      </trkpt>
      <trkpt lat="44.12383" lon="5.81799">
        <ele>1411.4000244141</ele>
        <time>2021-09-03T15:02:30Z</time>
      </trkpt>
      <trkpt lat="44.12381" lon="5.818">
        <ele>1411.4000244141</ele>
        <time>2021-09-03T15:02:31Z</time>
      </trkpt>
      <trkpt lat="44.12377" lon="5.81807">
        <ele>1411.8000488281</ele>
        <time>2021-09-03T15:02:34Z</time>
      </trkpt>
      <trkpt lat="44.12369" lon="5.81818">
        <ele>1412.4000244141</ele>
        <time>2021-09-03T15:02:39Z</time>
      </trkpt>
      <trkpt lat="44.12362" lon="5.8183">
        <ele>1412.8000488281</ele>
        <time>2021-09-03T15:02:44Z</time>
      </trkpt>
      <trkpt lat="44.12358" lon="5.81836">
        <ele>1413</ele>
        <time>2021-09-03T15:02:47Z</time>
      </trkpt>
      <trkpt lat="44.12349" lon="5.8185">
        <ele>1413.8000488281</ele>
        <time>2021-09-03T15:02:53Z</time>
      </trkpt>
      <trkpt lat="44.12345" lon="5.81857">
        <ele>1414.1999511719</ele>
        <time>2021-09-03T15:02:57Z</time>
      </trkpt>
      <trkpt lat="44.1234" lon="5.81867">
        <ele>1414.8000488281</ele>
        <time>2021-09-03T15:03:02Z</time>
      </trkpt>
      <trkpt lat="44.12338" lon="5.81871">
        <ele>1415.1999511719</ele>
        <time>2021-09-03T15:03:04Z</time>
      </trkpt>
      <trkpt lat="44.12332" lon="5.81881">
        <ele>1416</ele>
        <time>2021-09-03T15:03:10Z</time>
      </trkpt>
      <trkpt lat="44.12331" lon="5.81883">
        <ele>1416</ele>
        <time>2021-09-03T15:03:11Z</time>
      </trkpt>
      <trkpt lat="44.12323" lon="5.81897">
        <ele>1417</ele>
        <time>2021-09-03T15:03:18Z</time>
      </trkpt>
      <trkpt lat="44.12322" lon="5.81899">
        <ele>1417</ele>
        <time>2021-09-03T15:03:19Z</time>
      </trkpt>
      <trkpt lat="44.12315" lon="5.81908">
        <ele>1417.8000488281</ele>
        <time>2021-09-03T15:03:25Z</time>
      </trkpt>
      <trkpt lat="44.12312" lon="5.81913">
        <ele>1418</ele>
        <time>2021-09-03T15:03:28Z</time>
      </trkpt>
      <trkpt lat="44.12308" lon="5.81921">
        <ele>1418.5999755859</ele>
        <time>2021-09-03T15:03:32Z</time>
      </trkpt>
      <trkpt lat="44.12303" lon="5.8193">
        <ele>1419</ele>
        <time>2021-09-03T15:03:37Z</time>
      </trkpt>
      <trkpt lat="44.12302" lon="5.81931">
        <ele>1419.1999511719</ele>
        <time>2021-09-03T15:03:38Z</time>
      </trkpt>
      <trkpt lat="44.12297" lon="5.81939">
        <ele>1419.8000488281</ele>
        <time>2021-09-03T15:03:42Z</time>
      </trkpt>
      <trkpt lat="44.12294" lon="5.81944">
        <ele>1420.1999511719</ele>
        <time>2021-09-03T15:03:45Z</time>
      </trkpt>
      <trkpt lat="44.12285" lon="5.81958">
        <ele>1421.1999511719</ele>
        <time>2021-09-03T15:03:53Z</time>
      </trkpt>
      <trkpt lat="44.12284" lon="5.81962">
        <ele>1421.4000244141</ele>
        <time>2021-09-03T15:03:55Z</time>
      </trkpt>
      <trkpt lat="44.12283" lon="5.81966">
        <ele>1422</ele>
        <time>2021-09-03T15:03:58Z</time>
      </trkpt>
      <trkpt lat="44.12282" lon="5.81968">
        <ele>1422</ele>
        <time>2021-09-03T15:03:59Z</time>
      </trkpt>
      <trkpt lat="44.1228" lon="5.81971">
        <ele>1422.4000244141</ele>
        <time>2021-09-03T15:04:01Z</time>
      </trkpt>
      <trkpt lat="44.12275" lon="5.81982">
        <ele>1423.4000244141</ele>
        <time>2021-09-03T15:04:07Z</time>
      </trkpt>
      <trkpt lat="44.12274" lon="5.81984">
        <ele>1423.5999755859</ele>
        <time>2021-09-03T15:04:08Z</time>
      </trkpt>
      <trkpt lat="44.12269" lon="5.8199">
        <ele>1424.1999511719</ele>
        <time>2021-09-03T15:04:13Z</time>
      </trkpt>
      <trkpt lat="44.12265" lon="5.81996">
        <ele>1424.5999755859</ele>
        <time>2021-09-03T15:04:17Z</time>
      </trkpt>
      <trkpt lat="44.12262" lon="5.82001">
        <ele>1425</ele>
        <time>2021-09-03T15:04:20Z</time>
      </trkpt>
      <trkpt lat="44.12255" lon="5.82009">
        <ele>1425.5999755859</ele>
        <time>2021-09-03T15:04:25Z</time>
      </trkpt>
      <trkpt lat="44.12252" lon="5.82011">
        <ele>1426</ele>
        <time>2021-09-03T15:04:27Z</time>
      </trkpt>
      <trkpt lat="44.12251" lon="5.82013">
        <ele>1426.1999511719</ele>
        <time>2021-09-03T15:04:28Z</time>
      </trkpt>
      <trkpt lat="44.12228" lon="5.82045">
        <ele>1429.5999755859</ele>
        <time>2021-09-03T15:04:55Z</time>
      </trkpt>
      <trkpt lat="44.12224" lon="5.82049">
        <ele>1429.8000488281</ele>
        <time>2021-09-03T15:04:57Z</time>
      </trkpt>
      <trkpt lat="44.12214" lon="5.82066">
        <ele>1430.5999755859</ele>
        <time>2021-09-03T15:05:05Z</time>
      </trkpt>
      <trkpt lat="44.12206" lon="5.82076">
        <ele>1431.5999755859</ele>
        <time>2021-09-03T15:05:11Z</time>
      </trkpt>
      <trkpt lat="44.12204" lon="5.82077">
        <ele>1431.8000488281</ele>
        <time>2021-09-03T15:05:12Z</time>
      </trkpt>
      <trkpt lat="44.12195" lon="5.82087">
        <ele>1432.8000488281</ele>
        <time>2021-09-03T15:05:18Z</time>
      </trkpt>
      <trkpt lat="44.12193" lon="5.82088">
        <ele>1432.8000488281</ele>
        <time>2021-09-03T15:05:19Z</time>
      </trkpt>
      <trkpt lat="44.12185" lon="5.82097">
        <ele>1433.8000488281</ele>
        <time>2021-09-03T15:05:26Z</time>
      </trkpt>
      <trkpt lat="44.12185" lon="5.82098">
        <ele>1433.8000488281</ele>
        <time>2021-09-03T15:05:27Z</time>
      </trkpt>
      <trkpt lat="44.12183" lon="5.82101">
        <ele>1434.1999511719</ele>
        <time>2021-09-03T15:05:29Z</time>
      </trkpt>
      <trkpt lat="44.1218" lon="5.82105">
        <ele>1434.4000244141</ele>
        <time>2021-09-03T15:05:32Z</time>
      </trkpt>
      <trkpt lat="44.12163" lon="5.82127">
        <ele>1436.8000488281</ele>
        <time>2021-09-03T15:05:52Z</time>
      </trkpt>
      <trkpt lat="44.12158" lon="5.82133">
        <ele>1437.1999511719</ele>
        <time>2021-09-03T15:05:55Z</time>
      </trkpt>
      <trkpt lat="44.12149" lon="5.82144">
        <ele>1437.8000488281</ele>
        <time>2021-09-03T15:06:01Z</time>
      </trkpt>
      <trkpt lat="44.12146" lon="5.82149">
        <ele>1438.1999511719</ele>
        <time>2021-09-03T15:06:03Z</time>
      </trkpt>
      <trkpt lat="44.12139" lon="5.82161">
        <ele>1439</ele>
        <time>2021-09-03T15:06:08Z</time>
      </trkpt>
      <trkpt lat="44.12136" lon="5.82169">
        <ele>1439.4000244141</ele>
        <time>2021-09-03T15:06:12Z</time>
      </trkpt>
      <trkpt lat="44.12133" lon="5.82177">
        <ele>1439.8000488281</ele>
        <time>2021-09-03T15:06:16Z</time>
      </trkpt>
      <trkpt lat="44.12132" lon="5.82179">
        <ele>1440</ele>
        <time>2021-09-03T15:06:17Z</time>
      </trkpt>
      <trkpt lat="44.12125" lon="5.82194">
        <ele>1441</ele>
        <time>2021-09-03T15:06:25Z</time>
      </trkpt>
      <trkpt lat="44.12125" lon="5.82196">
        <ele>1441</ele>
        <time>2021-09-03T15:06:26Z</time>
      </trkpt>
      <trkpt lat="44.12124" lon="5.822">
        <ele>1441.4000244141</ele>
        <time>2021-09-03T15:06:28Z</time>
      </trkpt>
      <trkpt lat="44.12121" lon="5.82206">
        <ele>1441.5999755859</ele>
        <time>2021-09-03T15:06:31Z</time>
      </trkpt>
      <trkpt lat="44.1212" lon="5.82209">
        <ele>1442</ele>
        <time>2021-09-03T15:06:33Z</time>
      </trkpt>
      <trkpt lat="44.1212" lon="5.82213">
        <ele>1442.1999511719</ele>
        <time>2021-09-03T15:06:35Z</time>
      </trkpt>
      <trkpt lat="44.12119" lon="5.82219">
        <ele>1442.4000244141</ele>
        <time>2021-09-03T15:06:38Z</time>
      </trkpt>
      <trkpt lat="44.12115" lon="5.82232">
        <ele>1443.1999511719</ele>
        <time>2021-09-03T15:06:45Z</time>
      </trkpt>
      <trkpt lat="44.12115" lon="5.82235">
        <ele>1443.1999511719</ele>
        <time>2021-09-03T15:06:46Z</time>
      </trkpt>
      <trkpt lat="44.12109" lon="5.82246">
        <ele>1444</ele>
        <time>2021-09-03T15:06:52Z</time>
      </trkpt>
      <trkpt lat="44.12107" lon="5.82249">
        <ele>1444.1999511719</ele>
        <time>2021-09-03T15:06:54Z</time>
      </trkpt>
      <trkpt lat="44.12102" lon="5.82258">
        <ele>1444.5999755859</ele>
        <time>2021-09-03T15:06:59Z</time>
      </trkpt>
      <trkpt lat="44.12097" lon="5.82268">
        <ele>1445.4000244141</ele>
        <time>2021-09-03T15:07:05Z</time>
      </trkpt>
      <trkpt lat="44.12095" lon="5.8227">
        <ele>1445.8000488281</ele>
        <time>2021-09-03T15:07:06Z</time>
      </trkpt>
      <trkpt lat="44.12093" lon="5.82273">
        <ele>1446.1999511719</ele>
        <time>2021-09-03T15:07:08Z</time>
      </trkpt>
      <trkpt lat="44.12089" lon="5.82279">
        <ele>1446.5999755859</ele>
        <time>2021-09-03T15:07:12Z</time>
      </trkpt>
      <trkpt lat="44.12086" lon="5.82285">
        <ele>1447</ele>
        <time>2021-09-03T15:07:16Z</time>
      </trkpt>
      <trkpt lat="44.12082" lon="5.82292">
        <ele>1447.5999755859</ele>
        <time>2021-09-03T15:07:21Z</time>
      </trkpt>
      <trkpt lat="44.12082" lon="5.82295">
        <ele>1447.8000488281</ele>
        <time>2021-09-03T15:07:22Z</time>
      </trkpt>
      <trkpt lat="44.1208" lon="5.823">
        <ele>1448</ele>
        <time>2021-09-03T15:07:24Z</time>
      </trkpt>
      <trkpt lat="44.12078" lon="5.82311">
        <ele>1448.5999755859</ele>
        <time>2021-09-03T15:07:29Z</time>
      </trkpt>
      <trkpt lat="44.12075" lon="5.82318">
        <ele>1448.8000488281</ele>
        <time>2021-09-03T15:07:32Z</time>
      </trkpt>
      <trkpt lat="44.12071" lon="5.82328">
        <ele>1449.4000244141</ele>
        <time>2021-09-03T15:07:37Z</time>
      </trkpt>
      <trkpt lat="44.12067" lon="5.82331">
        <ele>1449.8000488281</ele>
        <time>2021-09-03T15:07:39Z</time>
      </trkpt>
      <trkpt lat="44.12061" lon="5.82341">
        <ele>1450.5999755859</ele>
        <time>2021-09-03T15:07:45Z</time>
      </trkpt>
      <trkpt lat="44.1206" lon="5.82347">
        <ele>1451</ele>
        <time>2021-09-03T15:07:48Z</time>
      </trkpt>
      <trkpt lat="44.12058" lon="5.82353">
        <ele>1451.4000244141</ele>
        <time>2021-09-03T15:07:51Z</time>
      </trkpt>
      <trkpt lat="44.12052" lon="5.82362">
        <ele>1452</ele>
        <time>2021-09-03T15:07:57Z</time>
      </trkpt>
      <trkpt lat="44.12051" lon="5.82364">
        <ele>1452.1999511719</ele>
        <time>2021-09-03T15:07:58Z</time>
      </trkpt>
      <trkpt lat="44.12045" lon="5.82373">
        <ele>1453</ele>
        <time>2021-09-03T15:08:05Z</time>
      </trkpt>
      <trkpt lat="44.12035" lon="5.82385">
        <ele>1454</ele>
        <time>2021-09-03T15:08:14Z</time>
      </trkpt>
      <trkpt lat="44.12029" lon="5.8239">
        <ele>1455</ele>
        <time>2021-09-03T15:08:20Z</time>
      </trkpt>
      <trkpt lat="44.12028" lon="5.82392">
        <ele>1455.1999511719</ele>
        <time>2021-09-03T15:08:21Z</time>
      </trkpt>
      <trkpt lat="44.1202" lon="5.82398">
        <ele>1456</ele>
        <time>2021-09-03T15:08:27Z</time>
      </trkpt>
      <trkpt lat="44.12017" lon="5.82401">
        <ele>1456.1999511719</ele>
        <time>2021-09-03T15:08:29Z</time>
      </trkpt>
      <trkpt lat="44.12004" lon="5.82418">
        <ele>1457.5999755859</ele>
        <time>2021-09-03T15:08:43Z</time>
      </trkpt>
      <trkpt lat="44.11999" lon="5.82427">
        <ele>1458.1999511719</ele>
        <time>2021-09-03T15:08:46Z</time>
      </trkpt>
      <trkpt lat="44.11994" lon="5.82439">
        <ele>1458.5999755859</ele>
        <time>2021-09-03T15:08:50Z</time>
      </trkpt>
      <trkpt lat="44.11992" lon="5.82442">
        <ele>1458.8000488281</ele>
        <time>2021-09-03T15:08:51Z</time>
      </trkpt>
      <trkpt lat="44.1199" lon="5.82445">
        <ele>1458.8000488281</ele>
        <time>2021-09-03T15:08:52Z</time>
      </trkpt>
      <trkpt lat="44.11987" lon="5.82449">
        <ele>1459</ele>
        <time>2021-09-03T15:08:54Z</time>
      </trkpt>
      <trkpt lat="44.11983" lon="5.82461">
        <ele>1459.5999755859</ele>
        <time>2021-09-03T15:08:59Z</time>
      </trkpt>
      <trkpt lat="44.11982" lon="5.82463">
        <ele>1459.8000488281</ele>
        <time>2021-09-03T15:09:00Z</time>
      </trkpt>
      <trkpt lat="44.11977" lon="5.82478">
        <ele>1460.4000244141</ele>
        <time>2021-09-03T15:09:06Z</time>
      </trkpt>
      <trkpt lat="44.11975" lon="5.82486">
        <ele>1460.8000488281</ele>
        <time>2021-09-03T15:09:10Z</time>
      </trkpt>
      <trkpt lat="44.11973" lon="5.82492">
        <ele>1461.1999511719</ele>
        <time>2021-09-03T15:09:14Z</time>
      </trkpt>
      <trkpt lat="44.11969" lon="5.82498">
        <ele>1461.8000488281</ele>
        <time>2021-09-03T15:09:18Z</time>
      </trkpt>
      <trkpt lat="44.11966" lon="5.82503">
        <ele>1462.1999511719</ele>
        <time>2021-09-03T15:09:21Z</time>
      </trkpt>
      <trkpt lat="44.11961" lon="5.82511">
        <ele>1463</ele>
        <time>2021-09-03T15:09:26Z</time>
      </trkpt>
      <trkpt lat="44.11958" lon="5.82516">
        <ele>1463.1999511719</ele>
        <time>2021-09-03T15:09:29Z</time>
      </trkpt>
      <trkpt lat="44.11948" lon="5.82527">
        <ele>1464</ele>
        <time>2021-09-03T15:09:37Z</time>
      </trkpt>
      <trkpt lat="44.11946" lon="5.82529">
        <ele>1464.1999511719</ele>
        <time>2021-09-03T15:09:38Z</time>
      </trkpt>
      <trkpt lat="44.11937" lon="5.82539">
        <ele>1465.1999511719</ele>
        <time>2021-09-03T15:09:44Z</time>
      </trkpt>
      <trkpt lat="44.11935" lon="5.82541">
        <ele>1465.1999511719</ele>
        <time>2021-09-03T15:09:45Z</time>
      </trkpt>
      <trkpt lat="44.11923" lon="5.82551">
        <ele>1466.1999511719</ele>
        <time>2021-09-03T15:09:52Z</time>
      </trkpt>
      <trkpt lat="44.11909" lon="5.82564">
        <ele>1467.1999511719</ele>
        <time>2021-09-03T15:09:59Z</time>
      </trkpt>
      <trkpt lat="44.11908" lon="5.82565">
        <ele>1467.4000244141</ele>
        <time>2021-09-03T15:10:00Z</time>
      </trkpt>
      <trkpt lat="44.119" lon="5.82569">
        <ele>1468.4000244141</ele>
        <time>2021-09-03T15:10:05Z</time>
      </trkpt>
      <trkpt lat="44.11897" lon="5.8257">
        <ele>1468.5999755859</ele>
        <time>2021-09-03T15:10:07Z</time>
      </trkpt>
      <trkpt lat="44.11886" lon="5.82581">
        <ele>1469.4000244141</ele>
        <time>2021-09-03T15:10:14Z</time>
      </trkpt>
      <trkpt lat="44.11884" lon="5.82585">
        <ele>1469.5999755859</ele>
        <time>2021-09-03T15:10:15Z</time>
      </trkpt>
      <trkpt lat="44.11868" lon="5.82608">
        <ele>1470.4000244141</ele>
        <time>2021-09-03T15:10:23Z</time>
      </trkpt>
      <trkpt lat="44.11855" lon="5.82627">
        <ele>1471.5999755859</ele>
        <time>2021-09-03T15:10:30Z</time>
      </trkpt>
      <trkpt lat="44.11844" lon="5.82645">
        <ele>1472.5999755859</ele>
        <time>2021-09-03T15:10:37Z</time>
      </trkpt>
      <trkpt lat="44.11827" lon="5.8267">
        <ele>1473.8000488281</ele>
        <time>2021-09-03T15:10:46Z</time>
      </trkpt>
      <trkpt lat="44.11815" lon="5.82689">
        <ele>1474.5999755859</ele>
        <time>2021-09-03T15:10:53Z</time>
      </trkpt>
      <trkpt lat="44.11813" lon="5.82691">
        <ele>1474.8000488281</ele>
        <time>2021-09-03T15:10:54Z</time>
      </trkpt>
      <trkpt lat="44.11802" lon="5.82701">
        <ele>1475.5999755859</ele>
        <time>2021-09-03T15:11:00Z</time>
      </trkpt>
      <trkpt lat="44.11801" lon="5.82704">
        <ele>1475.8000488281</ele>
        <time>2021-09-03T15:11:01Z</time>
      </trkpt>
      <trkpt lat="44.11793" lon="5.82719">
        <ele>1476.5999755859</ele>
        <time>2021-09-03T15:11:07Z</time>
      </trkpt>
      <trkpt lat="44.1179" lon="5.82724">
        <ele>1477</ele>
        <time>2021-09-03T15:11:09Z</time>
      </trkpt>
      <trkpt lat="44.11787" lon="5.82732">
        <ele>1477.4000244141</ele>
        <time>2021-09-03T15:11:12Z</time>
      </trkpt>
      <trkpt lat="44.11782" lon="5.82741">
        <ele>1478</ele>
        <time>2021-09-03T15:11:16Z</time>
      </trkpt>
      <trkpt lat="44.1178" lon="5.82747">
        <ele>1478.4000244141</ele>
        <time>2021-09-03T15:11:19Z</time>
      </trkpt>
      <trkpt lat="44.11773" lon="5.82762">
        <ele>1479</ele>
        <time>2021-09-03T15:11:25Z</time>
      </trkpt>
      <trkpt lat="44.11772" lon="5.82763">
        <ele>1479.1999511719</ele>
        <time>2021-09-03T15:11:26Z</time>
      </trkpt>
      <trkpt lat="44.11763" lon="5.82775">
        <ele>1480</ele>
        <time>2021-09-03T15:11:32Z</time>
      </trkpt>
      <trkpt lat="44.11761" lon="5.82777">
        <ele>1480.1999511719</ele>
        <time>2021-09-03T15:11:34Z</time>
      </trkpt>
      <trkpt lat="44.11757" lon="5.82782">
        <ele>1480.5999755859</ele>
        <time>2021-09-03T15:11:37Z</time>
      </trkpt>
      <trkpt lat="44.11752" lon="5.82791">
        <ele>1481.1999511719</ele>
        <time>2021-09-03T15:11:42Z</time>
      </trkpt>
      <trkpt lat="44.1174" lon="5.82813">
        <ele>1482.4000244141</ele>
        <time>2021-09-03T15:11:51Z</time>
      </trkpt>
      <trkpt lat="44.11739" lon="5.82816">
        <ele>1482.4000244141</ele>
        <time>2021-09-03T15:11:52Z</time>
      </trkpt>
      <trkpt lat="44.11729" lon="5.82835">
        <ele>1483.4000244141</ele>
        <time>2021-09-03T15:12:00Z</time>
      </trkpt>
      <trkpt lat="44.11728" lon="5.82837">
        <ele>1483.4000244141</ele>
        <time>2021-09-03T15:12:01Z</time>
      </trkpt>
      <trkpt lat="44.11722" lon="5.82848">
        <ele>1484.4000244141</ele>
        <time>2021-09-03T15:12:06Z</time>
      </trkpt>
      <trkpt lat="44.11719" lon="5.82853">
        <ele>1484.8000488281</ele>
        <time>2021-09-03T15:12:09Z</time>
      </trkpt>
      <trkpt lat="44.11715" lon="5.82861">
        <ele>1485.4000244141</ele>
        <time>2021-09-03T15:12:14Z</time>
      </trkpt>
      <trkpt lat="44.11714" lon="5.82863">
        <ele>1485.5999755859</ele>
        <time>2021-09-03T15:12:15Z</time>
      </trkpt>
      <trkpt lat="44.11705" lon="5.82877">
        <ele>1486.4000244141</ele>
        <time>2021-09-03T15:12:22Z</time>
      </trkpt>
      <trkpt lat="44.11703" lon="5.82882">
        <ele>1486.8000488281</ele>
        <time>2021-09-03T15:12:24Z</time>
      </trkpt>
      <trkpt lat="44.11697" lon="5.82893">
        <ele>1487.4000244141</ele>
        <time>2021-09-03T15:12:29Z</time>
      </trkpt>
      <trkpt lat="44.11697" lon="5.82896">
        <ele>1487.5999755859</ele>
        <time>2021-09-03T15:12:30Z</time>
      </trkpt>
      <trkpt lat="44.11696" lon="5.82898">
        <ele>1487.8000488281</ele>
        <time>2021-09-03T15:12:31Z</time>
      </trkpt>
      <trkpt lat="44.11694" lon="5.82908">
        <ele>1488.4000244141</ele>
        <time>2021-09-03T15:12:35Z</time>
      </trkpt>
      <trkpt lat="44.11693" lon="5.82911">
        <ele>1488.5999755859</ele>
        <time>2021-09-03T15:12:36Z</time>
      </trkpt>
      <trkpt lat="44.11692" lon="5.82921">
        <ele>1489</ele>
        <time>2021-09-03T15:12:40Z</time>
      </trkpt>
      <trkpt lat="44.1169" lon="5.82925">
        <ele>1489.4000244141</ele>
        <time>2021-09-03T15:12:42Z</time>
      </trkpt>
      <trkpt lat="44.11689" lon="5.82927">
        <ele>1489.5999755859</ele>
        <time>2021-09-03T15:12:43Z</time>
      </trkpt>
      <trkpt lat="44.11686" lon="5.82932">
        <ele>1489.8000488281</ele>
        <time>2021-09-03T15:12:45Z</time>
      </trkpt>
      <trkpt lat="44.1168" lon="5.82944">
        <ele>1490.5999755859</ele>
        <time>2021-09-03T15:12:51Z</time>
      </trkpt>
      <trkpt lat="44.11672" lon="5.82954">
        <ele>1491.8000488281</ele>
        <time>2021-09-03T15:12:59Z</time>
      </trkpt>
      <trkpt lat="44.11671" lon="5.82955">
        <ele>1491.8000488281</ele>
        <time>2021-09-03T15:13:00Z</time>
      </trkpt>
      <trkpt lat="44.11671" lon="5.82956">
        <ele>1492</ele>
        <time>2021-09-03T15:13:01Z</time>
      </trkpt>
      <trkpt lat="44.11666" lon="5.82964">
        <ele>1492.8000488281</ele>
        <time>2021-09-03T15:13:07Z</time>
      </trkpt>
      <trkpt lat="44.11665" lon="5.82966">
        <ele>1493</ele>
        <time>2021-09-03T15:13:08Z</time>
      </trkpt>
      <trkpt lat="44.11653" lon="5.82986">
        <ele>1493.8000488281</ele>
        <time>2021-09-03T15:13:15Z</time>
      </trkpt>
      <trkpt lat="44.11652" lon="5.82989">
        <ele>1493.8000488281</ele>
        <time>2021-09-03T15:13:16Z</time>
      </trkpt>
      <trkpt lat="44.11645" lon="5.83002">
        <ele>1494.4000244141</ele>
        <time>2021-09-03T15:13:21Z</time>
      </trkpt>
      <trkpt lat="44.1164" lon="5.83012">
        <ele>1495</ele>
        <time>2021-09-03T15:13:26Z</time>
      </trkpt>
      <trkpt lat="44.11634" lon="5.83028">
        <ele>1495.8000488281</ele>
        <time>2021-09-03T15:13:34Z</time>
      </trkpt>
      <trkpt lat="44.11632" lon="5.83034">
        <ele>1496</ele>
        <time>2021-09-03T15:13:37Z</time>
      </trkpt>
      <trkpt lat="44.11628" lon="5.83043">
        <ele>1496.5999755859</ele>
        <time>2021-09-03T15:13:41Z</time>
      </trkpt>
      <trkpt lat="44.11626" lon="5.83051">
        <ele>1497</ele>
        <time>2021-09-03T15:13:44Z</time>
      </trkpt>
      <trkpt lat="44.1162" lon="5.83061">
        <ele>1497.8000488281</ele>
        <time>2021-09-03T15:13:49Z</time>
      </trkpt>
      <trkpt lat="44.11617" lon="5.83068">
        <ele>1498</ele>
        <time>2021-09-03T15:13:52Z</time>
      </trkpt>
      <trkpt lat="44.11613" lon="5.83075">
        <ele>1498.1999511719</ele>
        <time>2021-09-03T15:13:55Z</time>
      </trkpt>
      <trkpt lat="44.11605" lon="5.83094">
        <ele>1499.1999511719</ele>
        <time>2021-09-03T15:14:03Z</time>
      </trkpt>
      <trkpt lat="44.11604" lon="5.83095">
        <ele>1499.4000244141</ele>
        <time>2021-09-03T15:14:04Z</time>
      </trkpt>
      <trkpt lat="44.11595" lon="5.83107">
        <ele>1500</ele>
        <time>2021-09-03T15:14:11Z</time>
      </trkpt>
      <trkpt lat="44.11592" lon="5.83109">
        <ele>1500.1999511719</ele>
        <time>2021-09-03T15:14:13Z</time>
      </trkpt>
      <trkpt lat="44.11585" lon="5.83119">
        <ele>1501</ele>
        <time>2021-09-03T15:14:18Z</time>
      </trkpt>
      <trkpt lat="44.11581" lon="5.83127">
        <ele>1501.4000244141</ele>
        <time>2021-09-03T15:14:21Z</time>
      </trkpt>
      <trkpt lat="44.11575" lon="5.83137">
        <ele>1501.8000488281</ele>
        <time>2021-09-03T15:14:25Z</time>
      </trkpt>
      <trkpt lat="44.1157" lon="5.83151">
        <ele>1502.4000244141</ele>
        <time>2021-09-03T15:14:30Z</time>
      </trkpt>
      <trkpt lat="44.11568" lon="5.83162">
        <ele>1503</ele>
        <time>2021-09-03T15:14:34Z</time>
      </trkpt>
      <trkpt lat="44.11565" lon="5.83175">
        <ele>1503.4000244141</ele>
        <time>2021-09-03T15:14:39Z</time>
      </trkpt>
      <trkpt lat="44.11557" lon="5.83188">
        <ele>1504.4000244141</ele>
        <time>2021-09-03T15:14:45Z</time>
      </trkpt>
      <trkpt lat="44.11554" lon="5.83195">
        <ele>1504.4000244141</ele>
        <time>2021-09-03T15:14:48Z</time>
      </trkpt>
      <trkpt lat="44.1155" lon="5.83207">
        <ele>1505.4000244141</ele>
        <time>2021-09-03T15:14:53Z</time>
      </trkpt>
      <trkpt lat="44.11549" lon="5.83216">
        <ele>1505.5999755859</ele>
        <time>2021-09-03T15:14:56Z</time>
      </trkpt>
      <trkpt lat="44.11548" lon="5.83224">
        <ele>1505.8000488281</ele>
        <time>2021-09-03T15:14:59Z</time>
      </trkpt>
      <trkpt lat="44.11546" lon="5.83243">
        <ele>1506.5999755859</ele>
        <time>2021-09-03T15:15:06Z</time>
      </trkpt>
      <trkpt lat="44.11546" lon="5.83258">
        <ele>1507.4000244141</ele>
        <time>2021-09-03T15:15:12Z</time>
      </trkpt>
      <trkpt lat="44.11547" lon="5.83266">
        <ele>1508</ele>
        <time>2021-09-03T15:15:15Z</time>
      </trkpt>
      <trkpt lat="44.11548" lon="5.83275">
        <ele>1508.5999755859</ele>
        <time>2021-09-03T15:15:19Z</time>
      </trkpt>
      <trkpt lat="44.11547" lon="5.83285">
        <ele>1509</ele>
        <time>2021-09-03T15:15:23Z</time>
      </trkpt>
      <trkpt lat="44.11546" lon="5.83289">
        <ele>1509.4000244141</ele>
        <time>2021-09-03T15:15:25Z</time>
      </trkpt>
      <trkpt lat="44.11543" lon="5.83303">
        <ele>1510.1999511719</ele>
        <time>2021-09-03T15:15:31Z</time>
      </trkpt>
      <trkpt lat="44.11542" lon="5.83305">
        <ele>1510.1999511719</ele>
        <time>2021-09-03T15:15:32Z</time>
      </trkpt>
      <trkpt lat="44.11536" lon="5.83314">
        <ele>1510.8000488281</ele>
        <time>2021-09-03T15:15:37Z</time>
      </trkpt>
      <trkpt lat="44.11535" lon="5.83318">
        <ele>1511.1999511719</ele>
        <time>2021-09-03T15:15:39Z</time>
      </trkpt>
      <trkpt lat="44.11533" lon="5.83319">
        <ele>1511.4000244141</ele>
        <time>2021-09-03T15:15:40Z</time>
      </trkpt>
      <trkpt lat="44.11531" lon="5.83321">
        <ele>1511.5999755859</ele>
        <time>2021-09-03T15:15:42Z</time>
      </trkpt>
      <trkpt lat="44.11523" lon="5.83321">
        <ele>1512.8000488281</ele>
        <time>2021-09-03T15:18:10Z</time>
      </trkpt>
      <trkpt lat="44.11517" lon="5.83317">
        <ele>1512.5999755859</ele>
        <time>2021-09-03T15:18:13Z</time>
      </trkpt>
      <trkpt lat="44.11513" lon="5.8331">
        <ele>1512.5999755859</ele>
        <time>2021-09-03T15:18:15Z</time>
      </trkpt>
      <trkpt lat="44.11513" lon="5.83301">
        <ele>1512.5999755859</ele>
        <time>2021-09-03T15:18:17Z</time>
      </trkpt>
      <trkpt lat="44.11513" lon="5.83292">
        <ele>1512.8000488281</ele>
        <time>2021-09-03T15:18:19Z</time>
      </trkpt>
      <trkpt lat="44.11513" lon="5.83273">
        <ele>1513.1999511719</ele>
        <time>2021-09-03T15:18:24Z</time>
      </trkpt>
      <trkpt lat="44.11516" lon="5.83251">
        <ele>1513.8000488281</ele>
        <time>2021-09-03T15:18:30Z</time>
      </trkpt>
      <trkpt lat="44.11517" lon="5.83224">
        <ele>1514.5999755859</ele>
        <time>2021-09-03T15:18:38Z</time>
      </trkpt>
      <trkpt lat="44.11516" lon="5.8322">
        <ele>1514.8000488281</ele>
        <time>2021-09-03T15:18:39Z</time>
      </trkpt>
      <trkpt lat="44.11515" lon="5.83212">
        <ele>1515</ele>
        <time>2021-09-03T15:18:42Z</time>
      </trkpt>
      <trkpt lat="44.11513" lon="5.83207">
        <ele>1515.4000244141</ele>
        <time>2021-09-03T15:18:44Z</time>
      </trkpt>
      <trkpt lat="44.1151" lon="5.83196">
        <ele>1515.8000488281</ele>
        <time>2021-09-03T15:18:48Z</time>
      </trkpt>
      <trkpt lat="44.11504" lon="5.83183">
        <ele>1516.4000244141</ele>
        <time>2021-09-03T15:18:53Z</time>
      </trkpt>
      <trkpt lat="44.11502" lon="5.8317">
        <ele>1517</ele>
        <time>2021-09-03T15:18:57Z</time>
      </trkpt>
      <trkpt lat="44.115" lon="5.83157">
        <ele>1517.1999511719</ele>
        <time>2021-09-03T15:19:01Z</time>
      </trkpt>
      <trkpt lat="44.11498" lon="5.83127">
        <ele>1517.8000488281</ele>
        <time>2021-09-03T15:19:10Z</time>
      </trkpt>
      <trkpt lat="44.11498" lon="5.83123">
        <ele>1518</ele>
        <time>2021-09-03T15:19:11Z</time>
      </trkpt>
      <trkpt lat="44.11498" lon="5.831">
        <ele>1518.8000488281</ele>
        <time>2021-09-03T15:19:18Z</time>
      </trkpt>
      <trkpt lat="44.11498" lon="5.83091">
        <ele>1519</ele>
        <time>2021-09-03T15:19:21Z</time>
      </trkpt>
      <trkpt lat="44.11497" lon="5.83072">
        <ele>1520</ele>
        <time>2021-09-03T15:19:27Z</time>
      </trkpt>
      <trkpt lat="44.11499" lon="5.83066">
        <ele>1520.1999511719</ele>
        <time>2021-09-03T15:19:29Z</time>
      </trkpt>
      <trkpt lat="44.11498" lon="5.83063">
        <ele>1520.1999511719</ele>
        <time>2021-09-03T15:19:30Z</time>
      </trkpt>
      <trkpt lat="44.11497" lon="5.83057">
        <ele>1520.4000244141</ele>
        <time>2021-09-03T15:19:32Z</time>
      </trkpt>
      <trkpt lat="44.11498" lon="5.83048">
        <ele>1520.5999755859</ele>
        <time>2021-09-03T15:19:35Z</time>
      </trkpt>
      <trkpt lat="44.11499" lon="5.83039">
        <ele>1521</ele>
        <time>2021-09-03T15:19:38Z</time>
      </trkpt>
      <trkpt lat="44.11499" lon="5.83033">
        <ele>1521.4000244141</ele>
        <time>2021-09-03T15:19:40Z</time>
      </trkpt>
      <trkpt lat="44.115" lon="5.83012">
        <ele>1522.1999511719</ele>
        <time>2021-09-03T15:19:47Z</time>
      </trkpt>
      <trkpt lat="44.11501" lon="5.83002">
        <ele>1522.4000244141</ele>
        <time>2021-09-03T15:19:50Z</time>
      </trkpt>
      <trkpt lat="44.11503" lon="5.82983">
        <ele>1523</ele>
        <time>2021-09-03T15:19:56Z</time>
      </trkpt>
      <trkpt lat="44.11505" lon="5.82973">
        <ele>1523.4000244141</ele>
        <time>2021-09-03T15:19:59Z</time>
      </trkpt>
      <trkpt lat="44.11508" lon="5.82957">
        <ele>1524</ele>
        <time>2021-09-03T15:20:04Z</time>
      </trkpt>
      <trkpt lat="44.11512" lon="5.82945">
        <ele>1524.5999755859</ele>
        <time>2021-09-03T15:20:08Z</time>
      </trkpt>
      <trkpt lat="44.11515" lon="5.82933">
        <ele>1524.8000488281</ele>
        <time>2021-09-03T15:20:12Z</time>
      </trkpt>
      <trkpt lat="44.11523" lon="5.82917">
        <ele>1525.5999755859</ele>
        <time>2021-09-03T15:20:18Z</time>
      </trkpt>
      <trkpt lat="44.11525" lon="5.82912">
        <ele>1525.8000488281</ele>
        <time>2021-09-03T15:20:20Z</time>
      </trkpt>
      <trkpt lat="44.11534" lon="5.82894">
        <ele>1526.5999755859</ele>
        <time>2021-09-03T15:20:27Z</time>
      </trkpt>
      <trkpt lat="44.11545" lon="5.82872">
        <ele>1527.5999755859</ele>
        <time>2021-09-03T15:20:35Z</time>
      </trkpt>
      <trkpt lat="44.11546" lon="5.8287">
        <ele>1527.5999755859</ele>
        <time>2021-09-03T15:20:36Z</time>
      </trkpt>
      <trkpt lat="44.11558" lon="5.82849">
        <ele>1528.8000488281</ele>
        <time>2021-09-03T15:20:44Z</time>
      </trkpt>
      <trkpt lat="44.1156" lon="5.82846">
        <ele>1528.8000488281</ele>
        <time>2021-09-03T15:20:45Z</time>
      </trkpt>
      <trkpt lat="44.11571" lon="5.82828">
        <ele>1529.8000488281</ele>
        <time>2021-09-03T15:20:52Z</time>
      </trkpt>
      <trkpt lat="44.11574" lon="5.82822">
        <ele>1529.8000488281</ele>
        <time>2021-09-03T15:20:54Z</time>
      </trkpt>
      <trkpt lat="44.11587" lon="5.82805">
        <ele>1530.5999755859</ele>
        <time>2021-09-03T15:21:02Z</time>
      </trkpt>
      <trkpt lat="44.1159" lon="5.82799">
        <ele>1530.8000488281</ele>
        <time>2021-09-03T15:21:04Z</time>
      </trkpt>
      <trkpt lat="44.11598" lon="5.82787">
        <ele>1531.4000244141</ele>
        <time>2021-09-03T15:21:09Z</time>
      </trkpt>
      <trkpt lat="44.11604" lon="5.82774">
        <ele>1532</ele>
        <time>2021-09-03T15:21:14Z</time>
      </trkpt>
      <trkpt lat="44.11606" lon="5.8277">
        <ele>1532.4000244141</ele>
        <time>2021-09-03T15:21:16Z</time>
      </trkpt>
      <trkpt lat="44.11608" lon="5.82766">
        <ele>1532.8000488281</ele>
        <time>2021-09-03T15:21:19Z</time>
      </trkpt>
      <trkpt lat="44.11611" lon="5.82765">
        <ele>1533</ele>
        <time>2021-09-03T15:21:52Z</time>
      </trkpt>
      <trkpt lat="44.1162" lon="5.82752">
        <ele>1533.4000244141</ele>
        <time>2021-09-03T15:21:58Z</time>
      </trkpt>
      <trkpt lat="44.11631" lon="5.82736">
        <ele>1534.1999511719</ele>
        <time>2021-09-03T15:22:04Z</time>
      </trkpt>
      <trkpt lat="44.11639" lon="5.82727">
        <ele>1534.5999755859</ele>
        <time>2021-09-03T15:22:08Z</time>
      </trkpt>
      <trkpt lat="44.11646" lon="5.82717">
        <ele>1535.4000244141</ele>
        <time>2021-09-03T15:22:12Z</time>
      </trkpt>
      <trkpt lat="44.11655" lon="5.82706">
        <ele>1536.1999511719</ele>
        <time>2021-09-03T15:22:17Z</time>
      </trkpt>
      <trkpt lat="44.11659" lon="5.82702">
        <ele>1536.4000244141</ele>
        <time>2021-09-03T15:22:19Z</time>
      </trkpt>
      <trkpt lat="44.11667" lon="5.82685">
        <ele>1537</ele>
        <time>2021-09-03T15:22:25Z</time>
      </trkpt>
      <trkpt lat="44.11671" lon="5.82678">
        <ele>1537.4000244141</ele>
        <time>2021-09-03T15:22:28Z</time>
      </trkpt>
      <trkpt lat="44.11676" lon="5.82667">
        <ele>1538</ele>
        <time>2021-09-03T15:22:32Z</time>
      </trkpt>
      <trkpt lat="44.11681" lon="5.8266">
        <ele>1538.4000244141</ele>
        <time>2021-09-03T15:22:35Z</time>
      </trkpt>
      <trkpt lat="44.11685" lon="5.82653">
        <ele>1539</ele>
        <time>2021-09-03T15:22:38Z</time>
      </trkpt>
      <trkpt lat="44.11692" lon="5.8264">
        <ele>1539.5999755859</ele>
        <time>2021-09-03T15:22:43Z</time>
      </trkpt>
      <trkpt lat="44.11695" lon="5.82635">
        <ele>1539.8000488281</ele>
        <time>2021-09-03T15:22:45Z</time>
      </trkpt>
      <trkpt lat="44.11702" lon="5.82621">
        <ele>1540.5999755859</ele>
        <time>2021-09-03T15:22:51Z</time>
      </trkpt>
      <trkpt lat="44.11704" lon="5.82616">
        <ele>1541</ele>
        <time>2021-09-03T15:22:53Z</time>
      </trkpt>
      <trkpt lat="44.11711" lon="5.82603">
        <ele>1541.8000488281</ele>
        <time>2021-09-03T15:22:59Z</time>
      </trkpt>
      <trkpt lat="44.11715" lon="5.82594">
        <ele>1542.1999511719</ele>
        <time>2021-09-03T15:23:03Z</time>
      </trkpt>
      <trkpt lat="44.11719" lon="5.82583">
        <ele>1542.8000488281</ele>
        <time>2021-09-03T15:23:07Z</time>
      </trkpt>
      <trkpt lat="44.11722" lon="5.82571">
        <ele>1543.4000244141</ele>
        <time>2021-09-03T15:23:11Z</time>
      </trkpt>
      <trkpt lat="44.11725" lon="5.82553">
        <ele>1544</ele>
        <time>2021-09-03T15:23:17Z</time>
      </trkpt>
      <trkpt lat="44.11727" lon="5.82541">
        <ele>1544.4000244141</ele>
        <time>2021-09-03T15:23:21Z</time>
      </trkpt>
      <trkpt lat="44.11728" lon="5.82529">
        <ele>1545</ele>
        <time>2021-09-03T15:23:25Z</time>
      </trkpt>
      <trkpt lat="44.11731" lon="5.82512">
        <ele>1545.5999755859</ele>
        <time>2021-09-03T15:23:31Z</time>
      </trkpt>
      <trkpt lat="44.11733" lon="5.82498">
        <ele>1546</ele>
        <time>2021-09-03T15:23:36Z</time>
      </trkpt>
      <trkpt lat="44.11735" lon="5.82489">
        <ele>1546.4000244141</ele>
        <time>2021-09-03T15:23:39Z</time>
      </trkpt>
      <trkpt lat="44.11738" lon="5.82473">
        <ele>1547</ele>
        <time>2021-09-03T15:23:44Z</time>
      </trkpt>
      <trkpt lat="44.1174" lon="5.82456">
        <ele>1547.5999755859</ele>
        <time>2021-09-03T15:23:49Z</time>
      </trkpt>
      <trkpt lat="44.11743" lon="5.8244">
        <ele>1548.1999511719</ele>
        <time>2021-09-03T15:23:54Z</time>
      </trkpt>
      <trkpt lat="44.11747" lon="5.82421">
        <ele>1548.5999755859</ele>
        <time>2021-09-03T15:24:00Z</time>
      </trkpt>
      <trkpt lat="44.11751" lon="5.82409">
        <ele>1549.1999511719</ele>
        <time>2021-09-03T15:24:04Z</time>
      </trkpt>
      <trkpt lat="44.11757" lon="5.82386">
        <ele>1550</ele>
        <time>2021-09-03T15:24:12Z</time>
      </trkpt>
      <trkpt lat="44.11758" lon="5.82383">
        <ele>1550.1999511719</ele>
        <time>2021-09-03T15:24:13Z</time>
      </trkpt>
      <trkpt lat="44.11766" lon="5.82364">
        <ele>1551</ele>
        <time>2021-09-03T15:24:20Z</time>
      </trkpt>
      <trkpt lat="44.11768" lon="5.82359">
        <ele>1551.1999511719</ele>
        <time>2021-09-03T15:24:22Z</time>
      </trkpt>
      <trkpt lat="44.11776" lon="5.82336">
        <ele>1552.1999511719</ele>
        <time>2021-09-03T15:24:30Z</time>
      </trkpt>
      <trkpt lat="44.11778" lon="5.82333">
        <ele>1552.1999511719</ele>
        <time>2021-09-03T15:24:31Z</time>
      </trkpt>
      <trkpt lat="44.11787" lon="5.8231">
        <ele>1553</ele>
        <time>2021-09-03T15:24:39Z</time>
      </trkpt>
      <trkpt lat="44.11789" lon="5.82304">
        <ele>1553.1999511719</ele>
        <time>2021-09-03T15:24:41Z</time>
      </trkpt>
      <trkpt lat="44.11795" lon="5.82284">
        <ele>1554.1999511719</ele>
        <time>2021-09-03T15:24:47Z</time>
      </trkpt>
      <trkpt lat="44.11798" lon="5.82278">
        <ele>1554.4000244141</ele>
        <time>2021-09-03T15:24:49Z</time>
      </trkpt>
      <trkpt lat="44.11805" lon="5.82262">
        <ele>1555.1999511719</ele>
        <time>2021-09-03T15:24:54Z</time>
      </trkpt>
      <trkpt lat="44.11807" lon="5.82255">
        <ele>1555.4000244141</ele>
        <time>2021-09-03T15:24:56Z</time>
      </trkpt>
      <trkpt lat="44.11816" lon="5.82235">
        <ele>1556.1999511719</ele>
        <time>2021-09-03T15:25:03Z</time>
      </trkpt>
      <trkpt lat="44.11817" lon="5.82232">
        <ele>1556.4000244141</ele>
        <time>2021-09-03T15:25:04Z</time>
      </trkpt>
      <trkpt lat="44.11823" lon="5.82211">
        <ele>1557.1999511719</ele>
        <time>2021-09-03T15:25:11Z</time>
      </trkpt>
      <trkpt lat="44.11825" lon="5.82205">
        <ele>1557.4000244141</ele>
        <time>2021-09-03T15:25:13Z</time>
      </trkpt>
      <trkpt lat="44.11829" lon="5.82189">
        <ele>1558.1999511719</ele>
        <time>2021-09-03T15:25:18Z</time>
      </trkpt>
      <trkpt lat="44.1183" lon="5.8218">
        <ele>1558.5999755859</ele>
        <time>2021-09-03T15:25:21Z</time>
      </trkpt>
      <trkpt lat="44.11831" lon="5.8217">
        <ele>1558.8000488281</ele>
        <time>2021-09-03T15:25:24Z</time>
      </trkpt>
      <trkpt lat="44.11834" lon="5.8215">
        <ele>1559.5999755859</ele>
        <time>2021-09-03T15:25:30Z</time>
      </trkpt>
      <trkpt lat="44.11835" lon="5.82144">
        <ele>1559.8000488281</ele>
        <time>2021-09-03T15:25:32Z</time>
      </trkpt>
      <trkpt lat="44.11837" lon="5.8212">
        <ele>1560.5999755859</ele>
        <time>2021-09-03T15:25:39Z</time>
      </trkpt>
      <trkpt lat="44.11837" lon="5.82117">
        <ele>1560.8000488281</ele>
        <time>2021-09-03T15:25:40Z</time>
      </trkpt>
      <trkpt lat="44.11838" lon="5.82097">
        <ele>1561.5999755859</ele>
        <time>2021-09-03T15:25:46Z</time>
      </trkpt>
      <trkpt lat="44.11838" lon="5.82084">
        <ele>1562</ele>
        <time>2021-09-03T15:25:50Z</time>
      </trkpt>
      <trkpt lat="44.11838" lon="5.82062">
        <ele>1562.5999755859</ele>
        <time>2021-09-03T15:25:57Z</time>
      </trkpt>
      <trkpt lat="44.11838" lon="5.82059">
        <ele>1562.8000488281</ele>
        <time>2021-09-03T15:25:58Z</time>
      </trkpt>
      <trkpt lat="44.11838" lon="5.82052">
        <ele>1563.4000244141</ele>
        <time>2021-09-03T15:26:41Z</time>
      </trkpt>
      <trkpt lat="44.11836" lon="5.82034">
        <ele>1563.5999755859</ele>
        <time>2021-09-03T15:26:47Z</time>
      </trkpt>
      <trkpt lat="44.11835" lon="5.82031">
        <ele>1563.5999755859</ele>
        <time>2021-09-03T15:26:48Z</time>
      </trkpt>
      <trkpt lat="44.11831" lon="5.82008">
        <ele>1564.8000488281</ele>
        <time>2021-09-03T15:26:55Z</time>
      </trkpt>
      <trkpt lat="44.1183" lon="5.82002">
        <ele>1565</ele>
        <time>2021-09-03T15:26:57Z</time>
      </trkpt>
      <trkpt lat="44.11824" lon="5.81974">
        <ele>1565.8000488281</ele>
        <time>2021-09-03T15:27:06Z</time>
      </trkpt>
      <trkpt lat="44.11818" lon="5.81946">
        <ele>1566.8000488281</ele>
        <time>2021-09-03T15:27:15Z</time>
      </trkpt>
      <trkpt lat="44.11811" lon="5.81921">
        <ele>1568</ele>
        <time>2021-09-03T15:27:23Z</time>
      </trkpt>
      <trkpt lat="44.11805" lon="5.81897">
        <ele>1568.8000488281</ele>
        <time>2021-09-03T15:27:31Z</time>
      </trkpt>
      <trkpt lat="44.11805" lon="5.81894">
        <ele>1568.8000488281</ele>
        <time>2021-09-03T15:27:32Z</time>
      </trkpt>
      <trkpt lat="44.11804" lon="5.81891">
        <ele>1569</ele>
        <time>2021-09-03T15:27:33Z</time>
      </trkpt>
      <trkpt lat="44.11799" lon="5.81875">
        <ele>1569.5999755859</ele>
        <time>2021-09-03T15:27:38Z</time>
      </trkpt>
      <trkpt lat="44.11796" lon="5.81867">
        <ele>1570.1999511719</ele>
        <time>2021-09-03T15:27:41Z</time>
      </trkpt>
      <trkpt lat="44.11792" lon="5.81849">
        <ele>1570.8000488281</ele>
        <time>2021-09-03T15:27:47Z</time>
      </trkpt>
      <trkpt lat="44.11789" lon="5.81844">
        <ele>1571.1999511719</ele>
        <time>2021-09-03T15:27:49Z</time>
      </trkpt>
      <trkpt lat="44.11783" lon="5.81823">
        <ele>1572.1999511719</ele>
        <time>2021-09-03T15:27:56Z</time>
      </trkpt>
      <trkpt lat="44.11782" lon="5.8182">
        <ele>1572.1999511719</ele>
        <time>2021-09-03T15:27:57Z</time>
      </trkpt>
      <trkpt lat="44.11777" lon="5.818">
        <ele>1572.8000488281</ele>
        <time>2021-09-03T15:28:03Z</time>
      </trkpt>
      <trkpt lat="44.11776" lon="5.8179">
        <ele>1573.1999511719</ele>
        <time>2021-09-03T15:28:06Z</time>
      </trkpt>
      <trkpt lat="44.11773" lon="5.81777">
        <ele>1573.8000488281</ele>
        <time>2021-09-03T15:28:10Z</time>
      </trkpt>
      <trkpt lat="44.11771" lon="5.81761">
        <ele>1574.4000244141</ele>
        <time>2021-09-03T15:28:15Z</time>
      </trkpt>
      <trkpt lat="44.1177" lon="5.81744">
        <ele>1575</ele>
        <time>2021-09-03T15:28:20Z</time>
      </trkpt>
      <trkpt lat="44.11768" lon="5.81735">
        <ele>1575.4000244141</ele>
        <time>2021-09-03T15:28:23Z</time>
      </trkpt>
      <trkpt lat="44.11767" lon="5.81716">
        <ele>1576.1999511719</ele>
        <time>2021-09-03T15:28:29Z</time>
      </trkpt>
      <trkpt lat="44.11767" lon="5.81706">
        <ele>1576.5999755859</ele>
        <time>2021-09-03T15:28:32Z</time>
      </trkpt>
      <trkpt lat="44.11766" lon="5.81691">
        <ele>1577.1999511719</ele>
        <time>2021-09-03T15:28:37Z</time>
      </trkpt>
      <trkpt lat="44.11766" lon="5.81681">
        <ele>1577.5999755859</ele>
        <time>2021-09-03T15:28:40Z</time>
      </trkpt>
      <trkpt lat="44.11765" lon="5.81669">
        <ele>1578.1999511719</ele>
        <time>2021-09-03T15:28:44Z</time>
      </trkpt>
      <trkpt lat="44.11764" lon="5.81653">
        <ele>1578.8000488281</ele>
        <time>2021-09-03T15:28:49Z</time>
      </trkpt>
      <trkpt lat="44.11764" lon="5.8165">
        <ele>1579</ele>
        <time>2021-09-03T15:28:50Z</time>
      </trkpt>
      <trkpt lat="44.11764" lon="5.8163">
        <ele>1580</ele>
        <time>2021-09-03T15:28:56Z</time>
      </trkpt>
      <trkpt lat="44.11764" lon="5.81623">
        <ele>1580.1999511719</ele>
        <time>2021-09-03T15:28:58Z</time>
      </trkpt>
      <trkpt lat="44.11763" lon="5.81605">
        <ele>1581</ele>
        <time>2021-09-03T15:29:03Z</time>
      </trkpt>
      <trkpt lat="44.11764" lon="5.81598">
        <ele>1581.4000244141</ele>
        <time>2021-09-03T15:29:05Z</time>
      </trkpt>
      <trkpt lat="44.11769" lon="5.81575">
        <ele>1582</ele>
        <time>2021-09-03T15:29:12Z</time>
      </trkpt>
      <trkpt lat="44.1178" lon="5.81566">
        <ele>1583</ele>
        <time>2021-09-03T15:29:18Z</time>
      </trkpt>
      <trkpt lat="44.11782" lon="5.81566">
        <ele>1583.1999511719</ele>
        <time>2021-09-03T15:29:19Z</time>
      </trkpt>
      <trkpt lat="44.11793" lon="5.81568">
        <ele>1583.8000488281</ele>
        <time>2021-09-03T15:29:24Z</time>
      </trkpt>
      <trkpt lat="44.11801" lon="5.81571">
        <ele>1584.1999511719</ele>
        <time>2021-09-03T15:29:27Z</time>
      </trkpt>
      <trkpt lat="44.11814" lon="5.81578">
        <ele>1584.8000488281</ele>
        <time>2021-09-03T15:29:32Z</time>
      </trkpt>
      <trkpt lat="44.11827" lon="5.81587">
        <ele>1585.1999511719</ele>
        <time>2021-09-03T15:29:37Z</time>
      </trkpt>
      <trkpt lat="44.11846" lon="5.81596">
        <ele>1586.1999511719</ele>
        <time>2021-09-03T15:29:44Z</time>
      </trkpt>
      <trkpt lat="44.11865" lon="5.81606">
        <ele>1587.1999511719</ele>
        <time>2021-09-03T15:29:51Z</time>
      </trkpt>
      <trkpt lat="44.1187" lon="5.81609">
        <ele>1587.4000244141</ele>
        <time>2021-09-03T15:29:53Z</time>
      </trkpt>
      <trkpt lat="44.11882" lon="5.8162">
        <ele>1587.8000488281</ele>
        <time>2021-09-03T15:29:58Z</time>
      </trkpt>
      <trkpt lat="44.11896" lon="5.81632">
        <ele>1588.4000244141</ele>
        <time>2021-09-03T15:30:04Z</time>
      </trkpt>
      <trkpt lat="44.11898" lon="5.81634">
        <ele>1588.5999755859</ele>
        <time>2021-09-03T15:30:05Z</time>
      </trkpt>
      <trkpt lat="44.11915" lon="5.81645">
        <ele>1589.4000244141</ele>
        <time>2021-09-03T15:30:12Z</time>
      </trkpt>
      <trkpt lat="44.11924" lon="5.81636">
        <ele>1589.8000488281</ele>
        <time>2021-09-03T15:30:16Z</time>
      </trkpt>
      <trkpt lat="44.11927" lon="5.81622">
        <ele>1590.4000244141</ele>
        <time>2021-09-03T15:30:20Z</time>
      </trkpt>
      <trkpt lat="44.11927" lon="5.81619">
        <ele>1590.5999755859</ele>
        <time>2021-09-03T15:30:21Z</time>
      </trkpt>
      <trkpt lat="44.11923" lon="5.81595">
        <ele>1591.4000244141</ele>
        <time>2021-09-03T15:30:28Z</time>
      </trkpt>
      <trkpt lat="44.11922" lon="5.81591">
        <ele>1591.8000488281</ele>
        <time>2021-09-03T15:30:29Z</time>
      </trkpt>
      <trkpt lat="44.11916" lon="5.81571">
        <ele>1592.4000244141</ele>
        <time>2021-09-03T15:30:35Z</time>
      </trkpt>
      <trkpt lat="44.11912" lon="5.81553">
        <ele>1592.8000488281</ele>
        <time>2021-09-03T15:30:40Z</time>
      </trkpt>
      <trkpt lat="44.11909" lon="5.81531">
        <ele>1593.5999755859</ele>
        <time>2021-09-03T15:30:46Z</time>
      </trkpt>
      <trkpt lat="44.11908" lon="5.81516">
        <ele>1594</ele>
        <time>2021-09-03T15:30:50Z</time>
      </trkpt>
      <trkpt lat="44.11907" lon="5.81499">
        <ele>1594.5999755859</ele>
        <time>2021-09-03T15:30:55Z</time>
      </trkpt>
      <trkpt lat="44.11907" lon="5.81484">
        <ele>1595</ele>
        <time>2021-09-03T15:30:59Z</time>
      </trkpt>
      <trkpt lat="44.1191" lon="5.8146">
        <ele>1595.8000488281</ele>
        <time>2021-09-03T15:31:06Z</time>
      </trkpt>
      <trkpt lat="44.11911" lon="5.81454">
        <ele>1596.1999511719</ele>
        <time>2021-09-03T15:31:08Z</time>
      </trkpt>
      <trkpt lat="44.11916" lon="5.81434">
        <ele>1597.1999511719</ele>
        <time>2021-09-03T15:31:15Z</time>
      </trkpt>
      <trkpt lat="44.11917" lon="5.81431">
        <ele>1597.1999511719</ele>
        <time>2021-09-03T15:31:16Z</time>
      </trkpt>
      <trkpt lat="44.11926" lon="5.81412">
        <ele>1598.4000244141</ele>
        <time>2021-09-03T15:31:24Z</time>
      </trkpt>
      <trkpt lat="44.11925" lon="5.81408">
        <ele>1598.8000488281</ele>
        <time>2021-09-03T15:32:29Z</time>
      </trkpt>
      <trkpt lat="44.11926" lon="5.81405">
        <ele>1598.8000488281</ele>
        <time>2021-09-03T15:32:30Z</time>
      </trkpt>
      <trkpt lat="44.1193" lon="5.81397">
        <ele>1598.8000488281</ele>
        <time>2021-09-03T15:32:33Z</time>
      </trkpt>
      <trkpt lat="44.11935" lon="5.81388">
        <ele>1598.8000488281</ele>
        <time>2021-09-03T15:32:36Z</time>
      </trkpt>
      <trkpt lat="44.11941" lon="5.81376">
        <ele>1599.4000244141</ele>
        <time>2021-09-03T15:32:40Z</time>
      </trkpt>
      <trkpt lat="44.11948" lon="5.81365">
        <ele>1600.1999511719</ele>
        <time>2021-09-03T15:32:44Z</time>
      </trkpt>
      <trkpt lat="44.11955" lon="5.81353">
        <ele>1600.5999755859</ele>
        <time>2021-09-03T15:32:48Z</time>
      </trkpt>
      <trkpt lat="44.11967" lon="5.81339">
        <ele>1601.4000244141</ele>
        <time>2021-09-03T15:32:54Z</time>
      </trkpt>
      <trkpt lat="44.11969" lon="5.81336">
        <ele>1601.5999755859</ele>
        <time>2021-09-03T15:32:55Z</time>
      </trkpt>
      <trkpt lat="44.11982" lon="5.81322">
        <ele>1602.5999755859</ele>
        <time>2021-09-03T15:33:02Z</time>
      </trkpt>
      <trkpt lat="44.11984" lon="5.8132">
        <ele>1602.8000488281</ele>
        <time>2021-09-03T15:33:03Z</time>
      </trkpt>
      <trkpt lat="44.11999" lon="5.81304">
        <ele>1603.5999755859</ele>
        <time>2021-09-03T15:33:11Z</time>
      </trkpt>
      <trkpt lat="44.12001" lon="5.81302">
        <ele>1603.8000488281</ele>
        <time>2021-09-03T15:33:12Z</time>
      </trkpt>
      <trkpt lat="44.12015" lon="5.81287">
        <ele>1604.8000488281</ele>
        <time>2021-09-03T15:33:19Z</time>
      </trkpt>
      <trkpt lat="44.12017" lon="5.81285">
        <ele>1605</ele>
        <time>2021-09-03T15:33:20Z</time>
      </trkpt>
      <trkpt lat="44.12031" lon="5.81272">
        <ele>1605.8000488281</ele>
        <time>2021-09-03T15:33:27Z</time>
      </trkpt>
      <trkpt lat="44.12033" lon="5.8127">
        <ele>1606</ele>
        <time>2021-09-03T15:33:28Z</time>
      </trkpt>
      <trkpt lat="44.12047" lon="5.81256">
        <ele>1606.8000488281</ele>
        <time>2021-09-03T15:33:35Z</time>
      </trkpt>
      <trkpt lat="44.12065" lon="5.81242">
        <ele>1608</ele>
        <time>2021-09-03T15:33:43Z</time>
      </trkpt>
      <trkpt lat="44.12083" lon="5.81225">
        <ele>1609</ele>
        <time>2021-09-03T15:33:52Z</time>
      </trkpt>
      <trkpt lat="44.12085" lon="5.81223">
        <ele>1609.1999511719</ele>
        <time>2021-09-03T15:33:53Z</time>
      </trkpt>
      <trkpt lat="44.12099" lon="5.81211">
        <ele>1610</ele>
        <time>2021-09-03T15:34:00Z</time>
      </trkpt>
      <trkpt lat="44.12103" lon="5.81206">
        <ele>1610.4000244141</ele>
        <time>2021-09-03T15:34:02Z</time>
      </trkpt>
      <trkpt lat="44.12111" lon="5.81194">
        <ele>1611.1999511719</ele>
        <time>2021-09-03T15:34:07Z</time>
      </trkpt>
      <trkpt lat="44.12114" lon="5.81189">
        <ele>1611.4000244141</ele>
        <time>2021-09-03T15:34:09Z</time>
      </trkpt>
      <trkpt lat="44.12114" lon="5.81177">
        <ele>1611.8000488281</ele>
        <time>2021-09-03T15:34:13Z</time>
      </trkpt>
      <trkpt lat="44.12112" lon="5.81167">
        <ele>1612.1999511719</ele>
        <time>2021-09-03T15:34:16Z</time>
      </trkpt>
      <trkpt lat="44.12107" lon="5.81158">
        <ele>1612.5999755859</ele>
        <time>2021-09-03T15:34:19Z</time>
      </trkpt>
      <trkpt lat="44.12094" lon="5.81146">
        <ele>1613.4000244141</ele>
        <time>2021-09-03T15:34:25Z</time>
      </trkpt>
      <trkpt lat="44.1209" lon="5.81142">
        <ele>1613.5999755859</ele>
        <time>2021-09-03T15:34:27Z</time>
      </trkpt>
      <trkpt lat="44.12083" lon="5.81133">
        <ele>1614.4000244141</ele>
        <time>2021-09-03T15:34:31Z</time>
      </trkpt>
      <trkpt lat="44.1208" lon="5.81128">
        <ele>1614.5999755859</ele>
        <time>2021-09-03T15:34:33Z</time>
      </trkpt>
      <trkpt lat="44.12075" lon="5.81106">
        <ele>1615.4000244141</ele>
        <time>2021-09-03T15:34:40Z</time>
      </trkpt>
      <trkpt lat="44.1208" lon="5.8108">
        <ele>1616.5999755859</ele>
        <time>2021-09-03T15:34:48Z</time>
      </trkpt>
      <trkpt lat="44.12089" lon="5.81064">
        <ele>1617.5999755859</ele>
        <time>2021-09-03T15:34:54Z</time>
      </trkpt>
      <trkpt lat="44.12091" lon="5.81059">
        <ele>1617.8000488281</ele>
        <time>2021-09-03T15:34:56Z</time>
      </trkpt>
      <trkpt lat="44.121" lon="5.81039">
        <ele>1618.8000488281</ele>
        <time>2021-09-03T15:35:03Z</time>
      </trkpt>
      <trkpt lat="44.12101" lon="5.81036">
        <ele>1618.8000488281</ele>
        <time>2021-09-03T15:35:04Z</time>
      </trkpt>
      <trkpt lat="44.12109" lon="5.81019">
        <ele>1619.4000244141</ele>
        <time>2021-09-03T15:35:10Z</time>
      </trkpt>
      <trkpt lat="44.12112" lon="5.81011">
        <ele>1619.8000488281</ele>
        <time>2021-09-03T15:35:13Z</time>
      </trkpt>
      <trkpt lat="44.12116" lon="5.80996">
        <ele>1620.5999755859</ele>
        <time>2021-09-03T15:35:18Z</time>
      </trkpt>
      <trkpt lat="44.12117" lon="5.80989">
        <ele>1620.8000488281</ele>
        <time>2021-09-03T15:35:20Z</time>
      </trkpt>
      <trkpt lat="44.1212" lon="5.8097">
        <ele>1621.5999755859</ele>
        <time>2021-09-03T15:35:26Z</time>
      </trkpt>
      <trkpt lat="44.12121" lon="5.80963">
        <ele>1622</ele>
        <time>2021-09-03T15:35:28Z</time>
      </trkpt>
      <trkpt lat="44.12123" lon="5.80943">
        <ele>1622.5999755859</ele>
        <time>2021-09-03T15:35:34Z</time>
      </trkpt>
      <trkpt lat="44.12124" lon="5.80929">
        <ele>1623</ele>
        <time>2021-09-03T15:35:38Z</time>
      </trkpt>
      <trkpt lat="44.12125" lon="5.80912">
        <ele>1623.8000488281</ele>
        <time>2021-09-03T15:35:43Z</time>
      </trkpt>
      <trkpt lat="44.12126" lon="5.80901">
        <ele>1624.1999511719</ele>
        <time>2021-09-03T15:35:46Z</time>
      </trkpt>
      <trkpt lat="44.12128" lon="5.80873">
        <ele>1625.1999511719</ele>
        <time>2021-09-03T15:35:54Z</time>
      </trkpt>
      <trkpt lat="44.12131" lon="5.80839">
        <ele>1626.4000244141</ele>
        <time>2021-09-03T15:36:04Z</time>
      </trkpt>
      <trkpt lat="44.12132" lon="5.8083">
        <ele>1626.8000488281</ele>
        <time>2021-09-03T15:36:07Z</time>
      </trkpt>
      <trkpt lat="44.12136" lon="5.80814">
        <ele>1627.4000244141</ele>
        <time>2021-09-03T15:36:12Z</time>
      </trkpt>
      <trkpt lat="44.12139" lon="5.80801">
        <ele>1628</ele>
        <time>2021-09-03T15:36:16Z</time>
      </trkpt>
      <trkpt lat="44.12143" lon="5.80782">
        <ele>1628.4000244141</ele>
        <time>2021-09-03T15:36:22Z</time>
      </trkpt>
      <trkpt lat="44.12142" lon="5.80773">
        <ele>1628.8000488281</ele>
        <time>2021-09-03T15:36:25Z</time>
      </trkpt>
      <trkpt lat="44.12137" lon="5.8076">
        <ele>1629.5999755859</ele>
        <time>2021-09-03T15:36:30Z</time>
      </trkpt>
      <trkpt lat="44.12134" lon="5.80756">
        <ele>1629.8000488281</ele>
        <time>2021-09-03T15:36:32Z</time>
      </trkpt>
      <trkpt lat="44.12126" lon="5.80748">
        <ele>1630.8000488281</ele>
        <time>2021-09-03T15:36:37Z</time>
      </trkpt>
      <trkpt lat="44.12124" lon="5.80746">
        <ele>1630.8000488281</ele>
        <time>2021-09-03T15:36:38Z</time>
      </trkpt>
      <trkpt lat="44.12113" lon="5.80728">
        <ele>1631.8000488281</ele>
        <time>2021-09-03T15:36:45Z</time>
      </trkpt>
      <trkpt lat="44.1211" lon="5.80721">
        <ele>1632</ele>
        <time>2021-09-03T15:36:47Z</time>
      </trkpt>
      <trkpt lat="44.12104" lon="5.80703">
        <ele>1633</ele>
        <time>2021-09-03T15:36:53Z</time>
      </trkpt>
      <trkpt lat="44.12103" lon="5.80699">
        <ele>1633</ele>
        <time>2021-09-03T15:36:54Z</time>
      </trkpt>
      <trkpt lat="44.12099" lon="5.80678">
        <ele>1634</ele>
        <time>2021-09-03T15:37:01Z</time>
      </trkpt>
      <trkpt lat="44.12093" lon="5.80652">
        <ele>1634.8000488281</ele>
        <time>2021-09-03T15:37:09Z</time>
      </trkpt>
      <trkpt lat="44.12091" lon="5.80646">
        <ele>1635</ele>
        <time>2021-09-03T15:37:11Z</time>
      </trkpt>
      <trkpt lat="44.12087" lon="5.8063">
        <ele>1635.8000488281</ele>
        <time>2021-09-03T15:37:16Z</time>
      </trkpt>
      <trkpt lat="44.12084" lon="5.80621">
        <ele>1636.1999511719</ele>
        <time>2021-09-03T15:37:19Z</time>
      </trkpt>
      <trkpt lat="44.12079" lon="5.80604">
        <ele>1636.8000488281</ele>
        <time>2021-09-03T15:37:25Z</time>
      </trkpt>
      <trkpt lat="44.12076" lon="5.80598">
        <ele>1637.1999511719</ele>
        <time>2021-09-03T15:37:27Z</time>
      </trkpt>
      <trkpt lat="44.12069" lon="5.80579">
        <ele>1637.8000488281</ele>
        <time>2021-09-03T15:37:33Z</time>
      </trkpt>
      <trkpt lat="44.12065" lon="5.8057">
        <ele>1638.1999511719</ele>
        <time>2021-09-03T15:37:36Z</time>
      </trkpt>
      <trkpt lat="44.12055" lon="5.80549">
        <ele>1639.1999511719</ele>
        <time>2021-09-03T15:37:43Z</time>
      </trkpt>
      <trkpt lat="44.12052" lon="5.80543">
        <ele>1639.4000244141</ele>
        <time>2021-09-03T15:37:45Z</time>
      </trkpt>
      <trkpt lat="44.12041" lon="5.80519">
        <ele>1640.1999511719</ele>
        <time>2021-09-03T15:37:53Z</time>
      </trkpt>
      <trkpt lat="44.12038" lon="5.80513">
        <ele>1640.4000244141</ele>
        <time>2021-09-03T15:37:55Z</time>
      </trkpt>
      <trkpt lat="44.12029" lon="5.8049">
        <ele>1641.4000244141</ele>
        <time>2021-09-03T15:38:03Z</time>
      </trkpt>
      <trkpt lat="44.12019" lon="5.80469">
        <ele>1642.5999755859</ele>
        <time>2021-09-03T15:38:10Z</time>
      </trkpt>
      <trkpt lat="44.12016" lon="5.80463">
        <ele>1642.8000488281</ele>
        <time>2021-09-03T15:38:12Z</time>
      </trkpt>
      <trkpt lat="44.12008" lon="5.80443">
        <ele>1643.5999755859</ele>
        <time>2021-09-03T15:38:18Z</time>
      </trkpt>
      <trkpt lat="44.12004" lon="5.80433">
        <ele>1644</ele>
        <time>2021-09-03T15:38:21Z</time>
      </trkpt>
      <trkpt lat="44.11996" lon="5.80417">
        <ele>1644.8000488281</ele>
        <time>2021-09-03T15:38:26Z</time>
      </trkpt>
      <trkpt lat="44.11991" lon="5.80408">
        <ele>1645.4000244141</ele>
        <time>2021-09-03T15:38:29Z</time>
      </trkpt>
      <trkpt lat="44.11987" lon="5.80399">
        <ele>1645.8000488281</ele>
        <time>2021-09-03T15:38:32Z</time>
      </trkpt>
      <trkpt lat="44.1198" lon="5.80385">
        <ele>1646.4000244141</ele>
        <time>2021-09-03T15:38:37Z</time>
      </trkpt>
      <trkpt lat="44.11975" lon="5.80374">
        <ele>1646.8000488281</ele>
        <time>2021-09-03T15:38:41Z</time>
      </trkpt>
      <trkpt lat="44.11969" lon="5.80361">
        <ele>1647.5999755859</ele>
        <time>2021-09-03T15:38:46Z</time>
      </trkpt>
      <trkpt lat="44.11966" lon="5.80356">
        <ele>1647.8000488281</ele>
        <time>2021-09-03T15:38:48Z</time>
      </trkpt>
      <trkpt lat="44.11955" lon="5.80334">
        <ele>1649</ele>
        <time>2021-09-03T15:38:56Z</time>
      </trkpt>
      <trkpt lat="44.11947" lon="5.80313">
        <ele>1649.8000488281</ele>
        <time>2021-09-03T15:39:03Z</time>
      </trkpt>
      <trkpt lat="44.11945" lon="5.80307">
        <ele>1650</ele>
        <time>2021-09-03T15:39:05Z</time>
      </trkpt>
      <trkpt lat="44.11937" lon="5.80287">
        <ele>1651</ele>
        <time>2021-09-03T15:39:12Z</time>
      </trkpt>
      <trkpt lat="44.11935" lon="5.80285">
        <ele>1651</ele>
        <time>2021-09-03T15:39:13Z</time>
      </trkpt>
      <trkpt lat="44.11926" lon="5.80262">
        <ele>1652.1999511719</ele>
        <time>2021-09-03T15:39:21Z</time>
      </trkpt>
      <trkpt lat="44.11925" lon="5.80259">
        <ele>1652.1999511719</ele>
        <time>2021-09-03T15:39:22Z</time>
      </trkpt>
      <trkpt lat="44.11922" lon="5.80253">
        <ele>1652.5999755859</ele>
        <time>2021-09-03T15:39:24Z</time>
      </trkpt>
      <trkpt lat="44.11916" lon="5.80239">
        <ele>1653.1999511719</ele>
        <time>2021-09-03T15:39:29Z</time>
      </trkpt>
      <trkpt lat="44.11915" lon="5.80236">
        <ele>1653.1999511719</ele>
        <time>2021-09-03T15:39:30Z</time>
      </trkpt>
      <trkpt lat="44.11908" lon="5.80219">
        <ele>1654.1999511719</ele>
        <time>2021-09-03T15:39:36Z</time>
      </trkpt>
      <trkpt lat="44.11906" lon="5.80217">
        <ele>1654.1999511719</ele>
        <time>2021-09-03T15:39:37Z</time>
      </trkpt>
      <trkpt lat="44.11905" lon="5.80213">
        <ele>1654.5999755859</ele>
        <time>2021-09-03T15:39:39Z</time>
      </trkpt>
      <trkpt lat="44.11904" lon="5.80208">
        <ele>1655</ele>
        <time>2021-09-03T15:39:41Z</time>
      </trkpt>
      <trkpt lat="44.11905" lon="5.80204">
        <ele>1655.1999511719</ele>
        <time>2021-09-03T15:39:43Z</time>
      </trkpt>
      <trkpt lat="44.11905" lon="5.80198">
        <ele>1655.1999511719</ele>
        <time>2021-09-03T15:39:46Z</time>
      </trkpt>
      <trkpt lat="44.11903" lon="5.80195">
        <ele>1655.1999511719</ele>
        <time>2021-09-03T15:40:09Z</time>
      </trkpt>
      <trkpt lat="44.11902" lon="5.80197">
        <ele>1655.1999511719</ele>
        <time>2021-09-03T15:40:10Z</time>
      </trkpt>
      <trkpt lat="44.11899" lon="5.80203">
        <ele>1655.1999511719</ele>
        <time>2021-09-03T15:40:13Z</time>
      </trkpt>
      <trkpt lat="44.11895" lon="5.80206">
        <ele>1655.4000244141</ele>
        <time>2021-09-03T15:40:15Z</time>
      </trkpt>
      <trkpt lat="44.11888" lon="5.80209">
        <ele>1655.4000244141</ele>
        <time>2021-09-03T15:40:18Z</time>
      </trkpt>
      <trkpt lat="44.11876" lon="5.80213">
        <ele>1656</ele>
        <time>2021-09-03T15:40:24Z</time>
      </trkpt>
      <trkpt lat="44.11872" lon="5.80215">
        <ele>1656.4000244141</ele>
        <time>2021-09-03T15:40:26Z</time>
      </trkpt>
      <trkpt lat="44.11864" lon="5.80223">
        <ele>1657.1999511719</ele>
        <time>2021-09-03T15:40:30Z</time>
      </trkpt>
      <trkpt lat="44.11856" lon="5.80236">
        <ele>1657.4000244141</ele>
        <time>2021-09-03T15:40:36Z</time>
      </trkpt>
      <trkpt lat="44.1185" lon="5.80245">
        <ele>1657.8000488281</ele>
        <time>2021-09-03T15:40:41Z</time>
      </trkpt>
      <trkpt lat="44.11853" lon="5.80237">
        <ele>1658</ele>
        <time>2021-09-03T15:46:22Z</time>
      </trkpt>
      <trkpt lat="44.11855" lon="5.80232">
        <ele>1658.1999511719</ele>
        <time>2021-09-03T15:46:24Z</time>
      </trkpt>
      <trkpt lat="44.11862" lon="5.80227">
        <ele>1658.1999511719</ele>
        <time>2021-09-03T15:46:27Z</time>
      </trkpt>
      <trkpt lat="44.11866" lon="5.80222">
        <ele>1658</ele>
        <time>2021-09-03T15:46:29Z</time>
      </trkpt>
      <trkpt lat="44.11878" lon="5.80213">
        <ele>1657.8000488281</ele>
        <time>2021-09-03T15:46:34Z</time>
      </trkpt>
      <trkpt lat="44.11891" lon="5.80205">
        <ele>1657.1999511719</ele>
        <time>2021-09-03T15:46:39Z</time>
      </trkpt>
      <trkpt lat="44.11901" lon="5.80197">
        <ele>1656.5999755859</ele>
        <time>2021-09-03T15:46:43Z</time>
      </trkpt>
      <trkpt lat="44.11902" lon="5.80193">
        <ele>1656.1999511719</ele>
        <time>2021-09-03T15:46:44Z</time>
      </trkpt>
      <trkpt lat="44.11904" lon="5.80182">
        <ele>1655.8000488281</ele>
        <time>2021-09-03T15:46:47Z</time>
      </trkpt>
      <trkpt lat="44.11906" lon="5.80178">
        <ele>1655.5999755859</ele>
        <time>2021-09-03T15:46:48Z</time>
      </trkpt>
      <trkpt lat="44.11918" lon="5.80155">
        <ele>1655.1999511719</ele>
        <time>2021-09-03T15:46:54Z</time>
      </trkpt>
      <trkpt lat="44.11921" lon="5.80152">
        <ele>1655</ele>
        <time>2021-09-03T15:46:55Z</time>
      </trkpt>
      <trkpt lat="44.11925" lon="5.80149">
        <ele>1655</ele>
        <time>2021-09-03T15:46:56Z</time>
      </trkpt>
      <trkpt lat="44.11931" lon="5.80141">
        <ele>1654.5999755859</ele>
        <time>2021-09-03T15:46:58Z</time>
      </trkpt>
      <trkpt lat="44.11948" lon="5.80121">
        <ele>1654</ele>
        <time>2021-09-03T15:47:03Z</time>
      </trkpt>
      <trkpt lat="44.11952" lon="5.80118">
        <ele>1654</ele>
        <time>2021-09-03T15:47:04Z</time>
      </trkpt>
      <trkpt lat="44.11956" lon="5.80115">
        <ele>1653.8000488281</ele>
        <time>2021-09-03T15:47:05Z</time>
      </trkpt>
      <trkpt lat="44.11985" lon="5.80096">
        <ele>1653.1999511719</ele>
        <time>2021-09-03T15:47:11Z</time>
      </trkpt>
      <trkpt lat="44.11991" lon="5.80094">
        <ele>1653</ele>
        <time>2021-09-03T15:47:12Z</time>
      </trkpt>
      <trkpt lat="44.12021" lon="5.8008">
        <ele>1651.8000488281</ele>
        <time>2021-09-03T15:47:17Z</time>
      </trkpt>
      <trkpt lat="44.12027" lon="5.80078">
        <ele>1651.5999755859</ele>
        <time>2021-09-03T15:47:18Z</time>
      </trkpt>
      <trkpt lat="44.12064" lon="5.80058">
        <ele>1650.8000488281</ele>
        <time>2021-09-03T15:47:24Z</time>
      </trkpt>
      <trkpt lat="44.12084" lon="5.80049">
        <ele>1650.1999511719</ele>
        <time>2021-09-03T15:47:27Z</time>
      </trkpt>
      <trkpt lat="44.12095" lon="5.80041">
        <ele>1649.8000488281</ele>
        <time>2021-09-03T15:47:29Z</time>
      </trkpt>
      <trkpt lat="44.12099" lon="5.80034">
        <ele>1649.5999755859</ele>
        <time>2021-09-03T15:47:30Z</time>
      </trkpt>
      <trkpt lat="44.121" lon="5.80015">
        <ele>1649.1999511719</ele>
        <time>2021-09-03T15:47:32Z</time>
      </trkpt>
      <trkpt lat="44.12091" lon="5.8">
        <ele>1648.8000488281</ele>
        <time>2021-09-03T15:47:34Z</time>
      </trkpt>
      <trkpt lat="44.12086" lon="5.79995">
        <ele>1648.5999755859</ele>
        <time>2021-09-03T15:47:35Z</time>
      </trkpt>
      <trkpt lat="44.12079" lon="5.79985">
        <ele>1648.1999511719</ele>
        <time>2021-09-03T15:47:37Z</time>
      </trkpt>
      <trkpt lat="44.12077" lon="5.79982">
        <ele>1647.1999511719</ele>
        <time>2021-09-03T15:47:41Z</time>
      </trkpt>
      <trkpt lat="44.1207" lon="5.79971">
        <ele>1646.1999511719</ele>
        <time>2021-09-03T15:47:45Z</time>
      </trkpt>
      <trkpt lat="44.12067" lon="5.79962">
        <ele>1646.1999511719</ele>
        <time>2021-09-03T15:47:47Z</time>
      </trkpt>
      <trkpt lat="44.12056" lon="5.79942">
        <ele>1646</ele>
        <time>2021-09-03T15:47:51Z</time>
      </trkpt>
      <trkpt lat="44.12033" lon="5.79892">
        <ele>1645.1999511719</ele>
        <time>2021-09-03T15:47:59Z</time>
      </trkpt>
      <trkpt lat="44.12004" lon="5.79836">
        <ele>1644</ele>
        <time>2021-09-03T15:48:07Z</time>
      </trkpt>
      <trkpt lat="44.11977" lon="5.79791">
        <ele>1643</ele>
        <time>2021-09-03T15:48:13Z</time>
      </trkpt>
      <trkpt lat="44.11972" lon="5.79783">
        <ele>1642.8000488281</ele>
        <time>2021-09-03T15:48:14Z</time>
      </trkpt>
      <trkpt lat="44.11954" lon="5.79752">
        <ele>1641.8000488281</ele>
        <time>2021-09-03T15:48:18Z</time>
      </trkpt>
      <trkpt lat="44.11937" lon="5.7972">
        <ele>1641.1999511719</ele>
        <time>2021-09-03T15:48:22Z</time>
      </trkpt>
      <trkpt lat="44.11928" lon="5.79704">
        <ele>1640.8000488281</ele>
        <time>2021-09-03T15:48:24Z</time>
      </trkpt>
      <trkpt lat="44.11906" lon="5.79655">
        <ele>1639.5999755859</ele>
        <time>2021-09-03T15:48:30Z</time>
      </trkpt>
      <trkpt lat="44.11903" lon="5.79646">
        <ele>1639.1999511719</ele>
        <time>2021-09-03T15:48:31Z</time>
      </trkpt>
      <trkpt lat="44.11898" lon="5.79616">
        <ele>1638.5999755859</ele>
        <time>2021-09-03T15:48:34Z</time>
      </trkpt>
      <trkpt lat="44.11898" lon="5.79606">
        <ele>1638.1999511719</ele>
        <time>2021-09-03T15:48:35Z</time>
      </trkpt>
      <trkpt lat="44.11903" lon="5.79578">
        <ele>1637.4000244141</ele>
        <time>2021-09-03T15:48:38Z</time>
      </trkpt>
      <trkpt lat="44.11906" lon="5.79569">
        <ele>1637.1999511719</ele>
        <time>2021-09-03T15:48:39Z</time>
      </trkpt>
      <trkpt lat="44.11924" lon="5.79536">
        <ele>1636.5999755859</ele>
        <time>2021-09-03T15:48:43Z</time>
      </trkpt>
      <trkpt lat="44.1193" lon="5.79529">
        <ele>1636.4000244141</ele>
        <time>2021-09-03T15:48:44Z</time>
      </trkpt>
      <trkpt lat="44.11936" lon="5.79523">
        <ele>1636.4000244141</ele>
        <time>2021-09-03T15:48:45Z</time>
      </trkpt>
      <trkpt lat="44.11949" lon="5.79514">
        <ele>1636</ele>
        <time>2021-09-03T15:48:47Z</time>
      </trkpt>
      <trkpt lat="44.11969" lon="5.79501">
        <ele>1635.4000244141</ele>
        <time>2021-09-03T15:48:50Z</time>
      </trkpt>
      <trkpt lat="44.11996" lon="5.79482">
        <ele>1634.4000244141</ele>
        <time>2021-09-03T15:48:54Z</time>
      </trkpt>
      <trkpt lat="44.12003" lon="5.79477">
        <ele>1634</ele>
        <time>2021-09-03T15:48:55Z</time>
      </trkpt>
      <trkpt lat="44.12038" lon="5.79457">
        <ele>1633</ele>
        <time>2021-09-03T15:49:00Z</time>
      </trkpt>
      <trkpt lat="44.12082" lon="5.79441">
        <ele>1631.8000488281</ele>
        <time>2021-09-03T15:49:06Z</time>
      </trkpt>
      <trkpt lat="44.1209" lon="5.79439">
        <ele>1631.4000244141</ele>
        <time>2021-09-03T15:49:07Z</time>
      </trkpt>
      <trkpt lat="44.12106" lon="5.79435">
        <ele>1630.8000488281</ele>
        <time>2021-09-03T15:49:09Z</time>
      </trkpt>
      <trkpt lat="44.12145" lon="5.79429">
        <ele>1629.5999755859</ele>
        <time>2021-09-03T15:49:14Z</time>
      </trkpt>
      <trkpt lat="44.12153" lon="5.79429">
        <ele>1629.4000244141</ele>
        <time>2021-09-03T15:49:15Z</time>
      </trkpt>
      <trkpt lat="44.12177" lon="5.79433">
        <ele>1628.4000244141</ele>
        <time>2021-09-03T15:49:18Z</time>
      </trkpt>
      <trkpt lat="44.12185" lon="5.79436">
        <ele>1627.8000488281</ele>
        <time>2021-09-03T15:49:19Z</time>
      </trkpt>
      <trkpt lat="44.122" lon="5.79443">
        <ele>1627.4000244141</ele>
        <time>2021-09-03T15:49:21Z</time>
      </trkpt>
      <trkpt lat="44.12208" lon="5.79443">
        <ele>1627.1999511719</ele>
        <time>2021-09-03T15:49:22Z</time>
      </trkpt>
      <trkpt lat="44.12222" lon="5.79432">
        <ele>1626.5999755859</ele>
        <time>2021-09-03T15:49:24Z</time>
      </trkpt>
      <trkpt lat="44.1223" lon="5.79414">
        <ele>1626.1999511719</ele>
        <time>2021-09-03T15:49:26Z</time>
      </trkpt>
      <trkpt lat="44.12233" lon="5.79404">
        <ele>1626</ele>
        <time>2021-09-03T15:49:27Z</time>
      </trkpt>
      <trkpt lat="44.12236" lon="5.79394">
        <ele>1625.8000488281</ele>
        <time>2021-09-03T15:49:28Z</time>
      </trkpt>
      <trkpt lat="44.12247" lon="5.79363">
        <ele>1625.1999511719</ele>
        <time>2021-09-03T15:49:31Z</time>
      </trkpt>
      <trkpt lat="44.12261" lon="5.79322">
        <ele>1624.1999511719</ele>
        <time>2021-09-03T15:49:35Z</time>
      </trkpt>
      <trkpt lat="44.12264" lon="5.79311">
        <ele>1624</ele>
        <time>2021-09-03T15:49:36Z</time>
      </trkpt>
      <trkpt lat="44.12287" lon="5.7926">
        <ele>1622.8000488281</ele>
        <time>2021-09-03T15:49:41Z</time>
      </trkpt>
      <trkpt lat="44.12293" lon="5.79251">
        <ele>1622.5999755859</ele>
        <time>2021-09-03T15:49:42Z</time>
      </trkpt>
      <trkpt lat="44.12311" lon="5.79225">
        <ele>1621.5999755859</ele>
        <time>2021-09-03T15:49:45Z</time>
      </trkpt>
      <trkpt lat="44.12335" lon="5.7919">
        <ele>1620.4000244141</ele>
        <time>2021-09-03T15:49:49Z</time>
      </trkpt>
      <trkpt lat="44.12358" lon="5.79156">
        <ele>1619.8000488281</ele>
        <time>2021-09-03T15:49:53Z</time>
      </trkpt>
      <trkpt lat="44.12363" lon="5.79135">
        <ele>1619.4000244141</ele>
        <time>2021-09-03T15:49:55Z</time>
      </trkpt>
      <trkpt lat="44.12356" lon="5.79108">
        <ele>1618.8000488281</ele>
        <time>2021-09-03T15:49:58Z</time>
      </trkpt>
      <trkpt lat="44.12346" lon="5.79098">
        <ele>1618.8000488281</ele>
        <time>2021-09-03T15:50:00Z</time>
      </trkpt>
      <trkpt lat="44.12341" lon="5.79095">
        <ele>1618.5999755859</ele>
        <time>2021-09-03T15:50:01Z</time>
      </trkpt>
      <trkpt lat="44.12322" lon="5.79081">
        <ele>1618.1999511719</ele>
        <time>2021-09-03T15:50:05Z</time>
      </trkpt>
      <trkpt lat="44.12308" lon="5.79071">
        <ele>1618</ele>
        <time>2021-09-03T15:50:08Z</time>
      </trkpt>
      <trkpt lat="44.12272" lon="5.79041">
        <ele>1618</ele>
        <time>2021-09-03T15:50:16Z</time>
      </trkpt>
      <trkpt lat="44.1224" lon="5.79023">
        <ele>1618</ele>
        <time>2021-09-03T15:50:23Z</time>
      </trkpt>
      <trkpt lat="44.12206" lon="5.79013">
        <ele>1618.1999511719</ele>
        <time>2021-09-03T15:50:30Z</time>
      </trkpt>
      <trkpt lat="44.12157" lon="5.79">
        <ele>1618</ele>
        <time>2021-09-03T15:50:40Z</time>
      </trkpt>
      <trkpt lat="44.12132" lon="5.78991">
        <ele>1617.8000488281</ele>
        <time>2021-09-03T15:50:45Z</time>
      </trkpt>
      <trkpt lat="44.12118" lon="5.78983">
        <ele>1617.8000488281</ele>
        <time>2021-09-03T15:50:48Z</time>
      </trkpt>
      <trkpt lat="44.12114" lon="5.78979">
        <ele>1617.8000488281</ele>
        <time>2021-09-03T15:50:49Z</time>
      </trkpt>
      <trkpt lat="44.12104" lon="5.78965">
        <ele>1617.8000488281</ele>
        <time>2021-09-03T15:50:52Z</time>
      </trkpt>
      <trkpt lat="44.121" lon="5.7896">
        <ele>1617.8000488281</ele>
        <time>2021-09-03T15:50:53Z</time>
      </trkpt>
      <trkpt lat="44.12098" lon="5.78954">
        <ele>1617.8000488281</ele>
        <time>2021-09-03T15:50:54Z</time>
      </trkpt>
      <trkpt lat="44.12094" lon="5.78934">
        <ele>1618</ele>
        <time>2021-09-03T15:50:57Z</time>
      </trkpt>
      <trkpt lat="44.12093" lon="5.78927">
        <ele>1618</ele>
        <time>2021-09-03T15:50:58Z</time>
      </trkpt>
      <trkpt lat="44.12093" lon="5.78899">
        <ele>1617.8000488281</ele>
        <time>2021-09-03T15:51:02Z</time>
      </trkpt>
      <trkpt lat="44.12094" lon="5.78892">
        <ele>1617.8000488281</ele>
        <time>2021-09-03T15:51:03Z</time>
      </trkpt>
      <trkpt lat="44.12095" lon="5.78886">
        <ele>1617.8000488281</ele>
        <time>2021-09-03T15:51:04Z</time>
      </trkpt>
      <trkpt lat="44.12101" lon="5.78852">
        <ele>1617.8000488281</ele>
        <time>2021-09-03T15:51:09Z</time>
      </trkpt>
      <trkpt lat="44.12108" lon="5.78805">
        <ele>1617.8000488281</ele>
        <time>2021-09-03T15:51:16Z</time>
      </trkpt>
      <trkpt lat="44.12122" lon="5.78751">
        <ele>1617.8000488281</ele>
        <time>2021-09-03T15:51:24Z</time>
      </trkpt>
      <trkpt lat="44.12139" lon="5.78691">
        <ele>1617.4000244141</ele>
        <time>2021-09-03T15:51:32Z</time>
      </trkpt>
      <trkpt lat="44.12138" lon="5.78663">
        <ele>1617</ele>
        <time>2021-09-03T15:51:35Z</time>
      </trkpt>
      <trkpt lat="44.12135" lon="5.78655">
        <ele>1616.8000488281</ele>
        <time>2021-09-03T15:51:36Z</time>
      </trkpt>
      <trkpt lat="44.12121" lon="5.78636">
        <ele>1616.1999511719</ele>
        <time>2021-09-03T15:51:39Z</time>
      </trkpt>
      <trkpt lat="44.12111" lon="5.78627">
        <ele>1616</ele>
        <time>2021-09-03T15:51:41Z</time>
      </trkpt>
      <trkpt lat="44.12106" lon="5.78623">
        <ele>1616</ele>
        <time>2021-09-03T15:51:42Z</time>
      </trkpt>
      <trkpt lat="44.1209" lon="5.78614">
        <ele>1615.5999755859</ele>
        <time>2021-09-03T15:51:45Z</time>
      </trkpt>
      <trkpt lat="44.12066" lon="5.78615">
        <ele>1615</ele>
        <time>2021-09-03T15:51:49Z</time>
      </trkpt>
      <trkpt lat="44.12059" lon="5.78618">
        <ele>1615</ele>
        <time>2021-09-03T15:51:50Z</time>
      </trkpt>
      <trkpt lat="44.12042" lon="5.78633">
        <ele>1613.8000488281</ele>
        <time>2021-09-03T15:51:53Z</time>
      </trkpt>
      <trkpt lat="44.12032" lon="5.78647">
        <ele>1613</ele>
        <time>2021-09-03T15:51:55Z</time>
      </trkpt>
      <trkpt lat="44.12028" lon="5.78654">
        <ele>1612.5999755859</ele>
        <time>2021-09-03T15:51:56Z</time>
      </trkpt>
      <trkpt lat="44.12024" lon="5.7866">
        <ele>1612.1999511719</ele>
        <time>2021-09-03T15:51:57Z</time>
      </trkpt>
      <trkpt lat="44.12012" lon="5.7868">
        <ele>1611.4000244141</ele>
        <time>2021-09-03T15:52:00Z</time>
      </trkpt>
      <trkpt lat="44.12008" lon="5.78686">
        <ele>1611.1999511719</ele>
        <time>2021-09-03T15:52:01Z</time>
      </trkpt>
      <trkpt lat="44.11999" lon="5.78698">
        <ele>1611</ele>
        <time>2021-09-03T15:52:03Z</time>
      </trkpt>
      <trkpt lat="44.11969" lon="5.78733">
        <ele>1610.4000244141</ele>
        <time>2021-09-03T15:52:09Z</time>
      </trkpt>
      <trkpt lat="44.11964" lon="5.78739">
        <ele>1610.1999511719</ele>
        <time>2021-09-03T15:52:10Z</time>
      </trkpt>
      <trkpt lat="44.11943" lon="5.78763">
        <ele>1609.4000244141</ele>
        <time>2021-09-03T15:52:14Z</time>
      </trkpt>
      <trkpt lat="44.11925" lon="5.78779">
        <ele>1608.5999755859</ele>
        <time>2021-09-03T15:52:17Z</time>
      </trkpt>
      <trkpt lat="44.11912" lon="5.78789">
        <ele>1608.1999511719</ele>
        <time>2021-09-03T15:52:19Z</time>
      </trkpt>
      <trkpt lat="44.11885" lon="5.78807">
        <ele>1607.1999511719</ele>
        <time>2021-09-03T15:52:23Z</time>
      </trkpt>
      <trkpt lat="44.11878" lon="5.78811">
        <ele>1606.8000488281</ele>
        <time>2021-09-03T15:52:24Z</time>
      </trkpt>
      <trkpt lat="44.11855" lon="5.78822">
        <ele>1605.8000488281</ele>
        <time>2021-09-03T15:52:27Z</time>
      </trkpt>
      <trkpt lat="44.11831" lon="5.78833">
        <ele>1605</ele>
        <time>2021-09-03T15:52:30Z</time>
      </trkpt>
      <trkpt lat="44.11823" lon="5.78837">
        <ele>1604.1999511719</ele>
        <time>2021-09-03T15:52:31Z</time>
      </trkpt>
      <trkpt lat="44.11798" lon="5.78849">
        <ele>1602.8000488281</ele>
        <time>2021-09-03T15:52:34Z</time>
      </trkpt>
      <trkpt lat="44.1178" lon="5.78855">
        <ele>1601.8000488281</ele>
        <time>2021-09-03T15:52:36Z</time>
      </trkpt>
      <trkpt lat="44.11771" lon="5.78858">
        <ele>1601.1999511719</ele>
        <time>2021-09-03T15:52:37Z</time>
      </trkpt>
      <trkpt lat="44.11761" lon="5.7886">
        <ele>1600.4000244141</ele>
        <time>2021-09-03T15:52:38Z</time>
      </trkpt>
      <trkpt lat="44.11744" lon="5.78865">
        <ele>1599.1999511719</ele>
        <time>2021-09-03T15:52:40Z</time>
      </trkpt>
      <trkpt lat="44.11725" lon="5.78868">
        <ele>1598</ele>
        <time>2021-09-03T15:52:42Z</time>
      </trkpt>
      <trkpt lat="44.11706" lon="5.7887">
        <ele>1596.5999755859</ele>
        <time>2021-09-03T15:52:44Z</time>
      </trkpt>
      <trkpt lat="44.11689" lon="5.78872">
        <ele>1595.4000244141</ele>
        <time>2021-09-03T15:52:46Z</time>
      </trkpt>
      <trkpt lat="44.11671" lon="5.78871">
        <ele>1594</ele>
        <time>2021-09-03T15:52:48Z</time>
      </trkpt>
      <trkpt lat="44.11662" lon="5.78869">
        <ele>1593.1999511719</ele>
        <time>2021-09-03T15:52:49Z</time>
      </trkpt>
      <trkpt lat="44.11653" lon="5.78866">
        <ele>1592.4000244141</ele>
        <time>2021-09-03T15:52:50Z</time>
      </trkpt>
      <trkpt lat="44.11636" lon="5.78859">
        <ele>1591</ele>
        <time>2021-09-03T15:52:52Z</time>
      </trkpt>
      <trkpt lat="44.11621" lon="5.78851">
        <ele>1589.4000244141</ele>
        <time>2021-09-03T15:52:54Z</time>
      </trkpt>
      <trkpt lat="44.11613" lon="5.78846">
        <ele>1588.1999511719</ele>
        <time>2021-09-03T15:52:55Z</time>
      </trkpt>
      <trkpt lat="44.11606" lon="5.7884">
        <ele>1587.5999755859</ele>
        <time>2021-09-03T15:52:56Z</time>
      </trkpt>
      <trkpt lat="44.116" lon="5.78832">
        <ele>1587</ele>
        <time>2021-09-03T15:52:57Z</time>
      </trkpt>
      <trkpt lat="44.1159" lon="5.78816">
        <ele>1585.8000488281</ele>
        <time>2021-09-03T15:52:59Z</time>
      </trkpt>
      <trkpt lat="44.11585" lon="5.788">
        <ele>1584.5999755859</ele>
        <time>2021-09-03T15:53:01Z</time>
      </trkpt>
      <trkpt lat="44.11584" lon="5.78785">
        <ele>1583.4000244141</ele>
        <time>2021-09-03T15:53:03Z</time>
      </trkpt>
      <trkpt lat="44.11584" lon="5.78781">
        <ele>1582.8000488281</ele>
        <time>2021-09-03T15:53:04Z</time>
      </trkpt>
      <trkpt lat="44.11583" lon="5.78779">
        <ele>1582.4000244141</ele>
        <time>2021-09-03T15:53:05Z</time>
      </trkpt>
      <trkpt lat="44.11583" lon="5.78789">
        <ele>1580</ele>
        <time>2021-09-03T15:55:42Z</time>
      </trkpt>
      <trkpt lat="44.11582" lon="5.78795">
        <ele>1580</ele>
        <time>2021-09-03T15:55:45Z</time>
      </trkpt>
      <trkpt lat="44.11579" lon="5.7881">
        <ele>1579.1999511719</ele>
        <time>2021-09-03T15:55:52Z</time>
      </trkpt>
      <trkpt lat="44.11578" lon="5.78812">
        <ele>1579</ele>
        <time>2021-09-03T15:55:53Z</time>
      </trkpt>
      <trkpt lat="44.11574" lon="5.78826">
        <ele>1578.1999511719</ele>
        <time>2021-09-03T15:56:00Z</time>
      </trkpt>
      <trkpt lat="44.1157" lon="5.78828">
        <ele>1577.8000488281</ele>
        <time>2021-09-03T15:56:02Z</time>
      </trkpt>
      <trkpt lat="44.11562" lon="5.78831">
        <ele>1577.4000244141</ele>
        <time>2021-09-03T15:56:06Z</time>
      </trkpt>
      <trkpt lat="44.1156" lon="5.78833">
        <ele>1577</ele>
        <time>2021-09-03T15:56:08Z</time>
      </trkpt>
      <trkpt lat="44.11559" lon="5.78836">
        <ele>1576.8000488281</ele>
        <time>2021-09-03T15:56:10Z</time>
      </trkpt>
      <trkpt lat="44.11557" lon="5.78839">
        <ele>1576.5999755859</ele>
        <time>2021-09-03T15:56:12Z</time>
      </trkpt>
      <trkpt lat="44.11556" lon="5.78844">
        <ele>1576.4000244141</ele>
        <time>2021-09-03T15:56:15Z</time>
      </trkpt>
      <trkpt lat="44.11557" lon="5.78849">
        <ele>1659.8000488281</ele>
        <time>2021-09-04T06:33:28Z</time>
      </trkpt>
      <trkpt lat="44.11558" lon="5.78847">
        <ele>1659.8000488281</ele>
        <time>2021-09-04T06:33:35Z</time>
      </trkpt>
      <trkpt lat="44.1156" lon="5.78841">
        <ele>1659.8000488281</ele>
        <time>2021-09-04T06:33:38Z</time>
      </trkpt>
      <trkpt lat="44.1156" lon="5.7884">
        <ele>1660</ele>
        <time>2021-09-04T06:33:39Z</time>
      </trkpt>
      <trkpt lat="44.11562" lon="5.78833">
        <ele>1660</ele>
        <time>2021-09-04T06:33:43Z</time>
      </trkpt>
      <trkpt lat="44.11568" lon="5.78829">
        <ele>1660.1999511719</ele>
        <time>2021-09-04T06:33:48Z</time>
      </trkpt>
      <trkpt lat="44.11569" lon="5.78829">
        <ele>1660.1999511719</ele>
        <time>2021-09-04T06:33:49Z</time>
      </trkpt>
      <trkpt lat="44.11575" lon="5.78822">
        <ele>1660.5999755859</ele>
        <time>2021-09-04T06:33:55Z</time>
      </trkpt>
      <trkpt lat="44.11577" lon="5.78818">
        <ele>1660.8000488281</ele>
        <time>2021-09-04T06:33:58Z</time>
      </trkpt>
      <trkpt lat="44.11578" lon="5.78813">
        <ele>1661</ele>
        <time>2021-09-04T06:34:01Z</time>
      </trkpt>
      <trkpt lat="44.11579" lon="5.78812">
        <ele>1661.1999511719</ele>
        <time>2021-09-04T06:34:02Z</time>
      </trkpt>
      <trkpt lat="44.11583" lon="5.78793">
        <ele>1662.4000244141</ele>
        <time>2021-09-04T06:34:16Z</time>
      </trkpt>
      <trkpt lat="44.11587" lon="5.78784">
        <ele>1663.1999511719</ele>
        <time>2021-09-04T06:34:22Z</time>
      </trkpt>
      <trkpt lat="44.11587" lon="5.78782">
        <ele>1663.1999511719</ele>
        <time>2021-09-04T06:34:23Z</time>
      </trkpt>
      <trkpt lat="44.11587" lon="5.78773">
        <ele>1663.4000244141</ele>
        <time>2021-09-04T06:34:26Z</time>
      </trkpt>
      <trkpt lat="44.11586" lon="5.78763">
        <ele>1663.4000244141</ele>
        <time>2021-09-04T06:34:28Z</time>
      </trkpt>
      <trkpt lat="44.11588" lon="5.78734">
        <ele>1663</ele>
        <time>2021-09-04T06:34:33Z</time>
      </trkpt>
      <trkpt lat="44.1159" lon="5.78722">
        <ele>1662.5999755859</ele>
        <time>2021-09-04T06:34:35Z</time>
      </trkpt>
      <trkpt lat="44.11597" lon="5.78702">
        <ele>1661.8000488281</ele>
        <time>2021-09-04T06:34:38Z</time>
      </trkpt>
      <trkpt lat="44.11603" lon="5.78689">
        <ele>1661.4000244141</ele>
        <time>2021-09-04T06:34:40Z</time>
      </trkpt>
      <trkpt lat="44.11617" lon="5.78669">
        <ele>1660.5999755859</ele>
        <time>2021-09-04T06:34:43Z</time>
      </trkpt>
      <trkpt lat="44.11622" lon="5.78663">
        <ele>1660.4000244141</ele>
        <time>2021-09-04T06:34:44Z</time>
      </trkpt>
      <trkpt lat="44.11645" lon="5.78637">
        <ele>1659.1999511719</ele>
        <time>2021-09-04T06:34:48Z</time>
      </trkpt>
      <trkpt lat="44.11651" lon="5.78631">
        <ele>1659</ele>
        <time>2021-09-04T06:34:49Z</time>
      </trkpt>
      <trkpt lat="44.11673" lon="5.78614">
        <ele>1658</ele>
        <time>2021-09-04T06:34:52Z</time>
      </trkpt>
      <trkpt lat="44.11688" lon="5.78602">
        <ele>1657</ele>
        <time>2021-09-04T06:34:54Z</time>
      </trkpt>
      <trkpt lat="44.11696" lon="5.78597">
        <ele>1656.5999755859</ele>
        <time>2021-09-04T06:34:55Z</time>
      </trkpt>
      <trkpt lat="44.1172" lon="5.78578">
        <ele>1655</ele>
        <time>2021-09-04T06:34:58Z</time>
      </trkpt>
      <trkpt lat="44.11737" lon="5.78564">
        <ele>1653.5999755859</ele>
        <time>2021-09-04T06:35:00Z</time>
      </trkpt>
      <trkpt lat="44.11745" lon="5.78557">
        <ele>1652.5999755859</ele>
        <time>2021-09-04T06:35:01Z</time>
      </trkpt>
      <trkpt lat="44.11763" lon="5.78543">
        <ele>1651.4000244141</ele>
        <time>2021-09-04T06:35:03Z</time>
      </trkpt>
      <trkpt lat="44.1178" lon="5.78529">
        <ele>1650</ele>
        <time>2021-09-04T06:35:05Z</time>
      </trkpt>
      <trkpt lat="44.11799" lon="5.78516">
        <ele>1648.5999755859</ele>
        <time>2021-09-04T06:35:07Z</time>
      </trkpt>
      <trkpt lat="44.11816" lon="5.78505">
        <ele>1647.4000244141</ele>
        <time>2021-09-04T06:35:09Z</time>
      </trkpt>
      <trkpt lat="44.11832" lon="5.78495">
        <ele>1645.8000488281</ele>
        <time>2021-09-04T06:35:11Z</time>
      </trkpt>
      <trkpt lat="44.11839" lon="5.78489">
        <ele>1645</ele>
        <time>2021-09-04T06:35:12Z</time>
      </trkpt>
      <trkpt lat="44.11845" lon="5.78486">
        <ele>1644.1999511719</ele>
        <time>2021-09-04T06:35:13Z</time>
      </trkpt>
      <trkpt lat="44.11852" lon="5.78479">
        <ele>1642.5999755859</ele>
        <time>2021-09-04T06:35:15Z</time>
      </trkpt>
      <trkpt lat="44.11856" lon="5.78477">
        <ele>1638.1999511719</ele>
        <time>2021-09-04T06:35:48Z</time>
      </trkpt>
      <trkpt lat="44.1186" lon="5.78475">
        <ele>1638.1999511719</ele>
        <time>2021-09-04T06:35:50Z</time>
      </trkpt>
      <trkpt lat="44.11877" lon="5.78464">
        <ele>1637.8000488281</ele>
        <time>2021-09-04T06:35:55Z</time>
      </trkpt>
      <trkpt lat="44.11896" lon="5.78448">
        <ele>1637.1999511719</ele>
        <time>2021-09-04T06:35:59Z</time>
      </trkpt>
      <trkpt lat="44.11901" lon="5.78443">
        <ele>1637</ele>
        <time>2021-09-04T06:36:00Z</time>
      </trkpt>
      <trkpt lat="44.11906" lon="5.78437">
        <ele>1636.5999755859</ele>
        <time>2021-09-04T06:36:01Z</time>
      </trkpt>
      <trkpt lat="44.1191" lon="5.7842">
        <ele>1636</ele>
        <time>2021-09-04T06:36:03Z</time>
      </trkpt>
      <trkpt lat="44.11902" lon="5.78404">
        <ele>1635.4000244141</ele>
        <time>2021-09-04T06:36:05Z</time>
      </trkpt>
      <trkpt lat="44.11896" lon="5.78397">
        <ele>1634.8000488281</ele>
        <time>2021-09-04T06:36:06Z</time>
      </trkpt>
      <trkpt lat="44.1189" lon="5.7839">
        <ele>1634.4000244141</ele>
        <time>2021-09-04T06:36:07Z</time>
      </trkpt>
      <trkpt lat="44.11877" lon="5.78374">
        <ele>1633.5999755859</ele>
        <time>2021-09-04T06:36:09Z</time>
      </trkpt>
      <trkpt lat="44.11869" lon="5.78369">
        <ele>1633.1999511719</ele>
        <time>2021-09-04T06:36:10Z</time>
      </trkpt>
      <trkpt lat="44.11852" lon="5.78361">
        <ele>1632.1999511719</ele>
        <time>2021-09-04T06:36:12Z</time>
      </trkpt>
      <trkpt lat="44.11833" lon="5.78355">
        <ele>1630.8000488281</ele>
        <time>2021-09-04T06:36:14Z</time>
      </trkpt>
      <trkpt lat="44.11815" lon="5.78349">
        <ele>1629.5999755859</ele>
        <time>2021-09-04T06:36:16Z</time>
      </trkpt>
      <trkpt lat="44.11797" lon="5.78344">
        <ele>1628.4000244141</ele>
        <time>2021-09-04T06:36:18Z</time>
      </trkpt>
      <trkpt lat="44.11779" lon="5.78338">
        <ele>1627</ele>
        <time>2021-09-04T06:36:20Z</time>
      </trkpt>
      <trkpt lat="44.1176" lon="5.78333">
        <ele>1625.4000244141</ele>
        <time>2021-09-04T06:36:22Z</time>
      </trkpt>
      <trkpt lat="44.11741" lon="5.78328">
        <ele>1624</ele>
        <time>2021-09-04T06:36:24Z</time>
      </trkpt>
      <trkpt lat="44.11721" lon="5.78323">
        <ele>1622.8000488281</ele>
        <time>2021-09-04T06:36:26Z</time>
      </trkpt>
      <trkpt lat="44.11701" lon="5.78315">
        <ele>1621.4000244141</ele>
        <time>2021-09-04T06:36:28Z</time>
      </trkpt>
      <trkpt lat="44.11683" lon="5.78306">
        <ele>1620.1999511719</ele>
        <time>2021-09-04T06:36:30Z</time>
      </trkpt>
      <trkpt lat="44.11675" lon="5.78302">
        <ele>1619.5999755859</ele>
        <time>2021-09-04T06:36:31Z</time>
      </trkpt>
      <trkpt lat="44.11667" lon="5.78298">
        <ele>1619</ele>
        <time>2021-09-04T06:36:32Z</time>
      </trkpt>
      <trkpt lat="44.1165" lon="5.7829">
        <ele>1617.8000488281</ele>
        <time>2021-09-04T06:36:34Z</time>
      </trkpt>
      <trkpt lat="44.11632" lon="5.7828">
        <ele>1616.5999755859</ele>
        <time>2021-09-04T06:36:36Z</time>
      </trkpt>
      <trkpt lat="44.11623" lon="5.78275">
        <ele>1615.8000488281</ele>
        <time>2021-09-04T06:36:37Z</time>
      </trkpt>
      <trkpt lat="44.11614" lon="5.7827">
        <ele>1614.1999511719</ele>
        <time>2021-09-04T06:36:38Z</time>
      </trkpt>
      <trkpt lat="44.11598" lon="5.78259">
        <ele>1612.5999755859</ele>
        <time>2021-09-04T06:36:40Z</time>
      </trkpt>
      <trkpt lat="44.11584" lon="5.78249">
        <ele>1611.1999511719</ele>
        <time>2021-09-04T06:36:42Z</time>
      </trkpt>
      <trkpt lat="44.11573" lon="5.78241">
        <ele>1609.5999755859</ele>
        <time>2021-09-04T06:36:44Z</time>
      </trkpt>
      <trkpt lat="44.11566" lon="5.78236">
        <ele>1608</ele>
        <time>2021-09-04T06:36:46Z</time>
      </trkpt>
      <trkpt lat="44.11564" lon="5.78234">
        <ele>1606.8000488281</ele>
        <time>2021-09-04T06:36:48Z</time>
      </trkpt>
      <trkpt lat="44.11563" lon="5.78231">
        <ele>1604.4000244141</ele>
        <time>2021-09-04T06:37:17Z</time>
      </trkpt>
      <trkpt lat="44.11559" lon="5.78227">
        <ele>1604.4000244141</ele>
        <time>2021-09-04T06:37:19Z</time>
      </trkpt>
      <trkpt lat="44.11544" lon="5.78207">
        <ele>1604</ele>
        <time>2021-09-04T06:37:24Z</time>
      </trkpt>
      <trkpt lat="44.11533" lon="5.7819">
        <ele>1603.1999511719</ele>
        <time>2021-09-04T06:37:27Z</time>
      </trkpt>
      <trkpt lat="44.1152" lon="5.78169">
        <ele>1602.4000244141</ele>
        <time>2021-09-04T06:37:30Z</time>
      </trkpt>
      <trkpt lat="44.11515" lon="5.78161">
        <ele>1602</ele>
        <time>2021-09-04T06:37:31Z</time>
      </trkpt>
      <trkpt lat="44.115" lon="5.78135">
        <ele>1601</ele>
        <time>2021-09-04T06:37:34Z</time>
      </trkpt>
      <trkpt lat="44.11495" lon="5.78125">
        <ele>1600.5999755859</ele>
        <time>2021-09-04T06:37:35Z</time>
      </trkpt>
      <trkpt lat="44.11484" lon="5.78106">
        <ele>1599.5999755859</ele>
        <time>2021-09-04T06:37:37Z</time>
      </trkpt>
      <trkpt lat="44.11474" lon="5.78089">
        <ele>1598.5999755859</ele>
        <time>2021-09-04T06:37:39Z</time>
      </trkpt>
      <trkpt lat="44.11463" lon="5.78075">
        <ele>1597.4000244141</ele>
        <time>2021-09-04T06:37:41Z</time>
      </trkpt>
      <trkpt lat="44.11449" lon="5.78064">
        <ele>1596.1999511719</ele>
        <time>2021-09-04T06:37:43Z</time>
      </trkpt>
      <trkpt lat="44.11435" lon="5.78054">
        <ele>1595</ele>
        <time>2021-09-04T06:37:45Z</time>
      </trkpt>
      <trkpt lat="44.11427" lon="5.7805">
        <ele>1594.5999755859</ele>
        <time>2021-09-04T06:37:46Z</time>
      </trkpt>
      <trkpt lat="44.11411" lon="5.78041">
        <ele>1593.5999755859</ele>
        <time>2021-09-04T06:37:48Z</time>
      </trkpt>
      <trkpt lat="44.11396" lon="5.78032">
        <ele>1592.1999511719</ele>
        <time>2021-09-04T06:37:50Z</time>
      </trkpt>
      <trkpt lat="44.1139" lon="5.78028">
        <ele>1591.8000488281</ele>
        <time>2021-09-04T06:37:51Z</time>
      </trkpt>
      <trkpt lat="44.11384" lon="5.78023">
        <ele>1591.4000244141</ele>
        <time>2021-09-04T06:37:52Z</time>
      </trkpt>
      <trkpt lat="44.11378" lon="5.78019">
        <ele>1591</ele>
        <time>2021-09-04T06:37:53Z</time>
      </trkpt>
      <trkpt lat="44.1136" lon="5.78005">
        <ele>1590</ele>
        <time>2021-09-04T06:37:56Z</time>
      </trkpt>
      <trkpt lat="44.11335" lon="5.77988">
        <ele>1589</ele>
        <time>2021-09-04T06:38:00Z</time>
      </trkpt>
      <trkpt lat="44.11322" lon="5.7798">
        <ele>1588.5999755859</ele>
        <time>2021-09-04T06:38:02Z</time>
      </trkpt>
      <trkpt lat="44.11294" lon="5.77966">
        <ele>1587.8000488281</ele>
        <time>2021-09-04T06:38:06Z</time>
      </trkpt>
      <trkpt lat="44.11266" lon="5.77952">
        <ele>1586.5999755859</ele>
        <time>2021-09-04T06:38:10Z</time>
      </trkpt>
      <trkpt lat="44.11257" lon="5.77952">
        <ele>1586.4000244141</ele>
        <time>2021-09-04T06:38:11Z</time>
      </trkpt>
      <trkpt lat="44.11243" lon="5.7796">
        <ele>1585.8000488281</ele>
        <time>2021-09-04T06:38:13Z</time>
      </trkpt>
      <trkpt lat="44.11237" lon="5.77967">
        <ele>1585</ele>
        <time>2021-09-04T06:38:14Z</time>
      </trkpt>
      <trkpt lat="44.11231" lon="5.77988">
        <ele>1584.1999511719</ele>
        <time>2021-09-04T06:38:16Z</time>
      </trkpt>
      <trkpt lat="44.11231" lon="5.77999">
        <ele>1584</ele>
        <time>2021-09-04T06:38:17Z</time>
      </trkpt>
      <trkpt lat="44.11234" lon="5.78022">
        <ele>1583.1999511719</ele>
        <time>2021-09-04T06:38:19Z</time>
      </trkpt>
      <trkpt lat="44.11235" lon="5.78034">
        <ele>1582.5999755859</ele>
        <time>2021-09-04T06:38:20Z</time>
      </trkpt>
      <trkpt lat="44.11242" lon="5.78069">
        <ele>1581.1999511719</ele>
        <time>2021-09-04T06:38:23Z</time>
      </trkpt>
      <trkpt lat="44.11245" lon="5.78078">
        <ele>1580.8000488281</ele>
        <time>2021-09-04T06:38:24Z</time>
      </trkpt>
      <trkpt lat="44.11247" lon="5.78084">
        <ele>1580.1999511719</ele>
        <time>2021-09-04T06:38:25Z</time>
      </trkpt>
      <trkpt lat="44.11251" lon="5.78093">
        <ele>1579</ele>
        <time>2021-09-04T06:38:27Z</time>
      </trkpt>
      <trkpt lat="44.11254" lon="5.78099">
        <ele>1577.8000488281</ele>
        <time>2021-09-04T06:38:29Z</time>
      </trkpt>
      <trkpt lat="44.11257" lon="5.78102">
        <ele>1575.1999511719</ele>
        <time>2021-09-04T06:38:44Z</time>
      </trkpt>
      <trkpt lat="44.11258" lon="5.7811">
        <ele>1575.1999511719</ele>
        <time>2021-09-04T06:38:47Z</time>
      </trkpt>
      <trkpt lat="44.11261" lon="5.78128">
        <ele>1574.8000488281</ele>
        <time>2021-09-04T06:38:51Z</time>
      </trkpt>
      <trkpt lat="44.11261" lon="5.78133">
        <ele>1574.5999755859</ele>
        <time>2021-09-04T06:38:52Z</time>
      </trkpt>
      <trkpt lat="44.11262" lon="5.78153">
        <ele>1574</ele>
        <time>2021-09-04T06:38:56Z</time>
      </trkpt>
      <trkpt lat="44.11264" lon="5.78159">
        <ele>1573.8000488281</ele>
        <time>2021-09-04T06:38:57Z</time>
      </trkpt>
      <trkpt lat="44.11262" lon="5.78179">
        <ele>1573.1999511719</ele>
        <time>2021-09-04T06:39:01Z</time>
      </trkpt>
      <trkpt lat="44.1126" lon="5.78184">
        <ele>1572.8000488281</ele>
        <time>2021-09-04T06:39:02Z</time>
      </trkpt>
      <trkpt lat="44.11252" lon="5.78192">
        <ele>1572.5999755859</ele>
        <time>2021-09-04T06:39:04Z</time>
      </trkpt>
      <trkpt lat="44.11233" lon="5.78203">
        <ele>1571.8000488281</ele>
        <time>2021-09-04T06:39:07Z</time>
      </trkpt>
      <trkpt lat="44.11227" lon="5.78208">
        <ele>1571.4000244141</ele>
        <time>2021-09-04T06:39:08Z</time>
      </trkpt>
      <trkpt lat="44.11211" lon="5.78221">
        <ele>1570.1999511719</ele>
        <time>2021-09-04T06:39:11Z</time>
      </trkpt>
      <trkpt lat="44.112" lon="5.78226">
        <ele>1569.1999511719</ele>
        <time>2021-09-04T06:39:13Z</time>
      </trkpt>
      <trkpt lat="44.11194" lon="5.78227">
        <ele>1568.8000488281</ele>
        <time>2021-09-04T06:39:14Z</time>
      </trkpt>
      <trkpt lat="44.11174" lon="5.78227">
        <ele>1567.8000488281</ele>
        <time>2021-09-04T06:39:17Z</time>
      </trkpt>
      <trkpt lat="44.11167" lon="5.78226">
        <ele>1567.5999755859</ele>
        <time>2021-09-04T06:39:18Z</time>
      </trkpt>
      <trkpt lat="44.11147" lon="5.7822">
        <ele>1566.8000488281</ele>
        <time>2021-09-04T06:39:21Z</time>
      </trkpt>
      <trkpt lat="44.11141" lon="5.78215">
        <ele>1566.5999755859</ele>
        <time>2021-09-04T06:39:22Z</time>
      </trkpt>
      <trkpt lat="44.11123" lon="5.78198">
        <ele>1565.1999511719</ele>
        <time>2021-09-04T06:39:25Z</time>
      </trkpt>
      <trkpt lat="44.1111" lon="5.78187">
        <ele>1564.1999511719</ele>
        <time>2021-09-04T06:39:27Z</time>
      </trkpt>
      <trkpt lat="44.11096" lon="5.78178">
        <ele>1563.4000244141</ele>
        <time>2021-09-04T06:39:29Z</time>
      </trkpt>
      <trkpt lat="44.11089" lon="5.78175">
        <ele>1563</ele>
        <time>2021-09-04T06:39:30Z</time>
      </trkpt>
      <trkpt lat="44.11067" lon="5.78166">
        <ele>1561.5999755859</ele>
        <time>2021-09-04T06:39:33Z</time>
      </trkpt>
      <trkpt lat="44.1105" lon="5.78164">
        <ele>1560.5999755859</ele>
        <time>2021-09-04T06:39:35Z</time>
      </trkpt>
      <trkpt lat="44.11032" lon="5.78166">
        <ele>1559.5999755859</ele>
        <time>2021-09-04T06:39:37Z</time>
      </trkpt>
      <trkpt lat="44.11015" lon="5.7817">
        <ele>1558.4000244141</ele>
        <time>2021-09-04T06:39:39Z</time>
      </trkpt>
      <trkpt lat="44.11006" lon="5.78173">
        <ele>1558</ele>
        <time>2021-09-04T06:39:40Z</time>
      </trkpt>
      <trkpt lat="44.10997" lon="5.78177">
        <ele>1557.4000244141</ele>
        <time>2021-09-04T06:39:41Z</time>
      </trkpt>
      <trkpt lat="44.10989" lon="5.78183">
        <ele>1556.8000488281</ele>
        <time>2021-09-04T06:39:42Z</time>
      </trkpt>
      <trkpt lat="44.1098" lon="5.78189">
        <ele>1556.1999511719</ele>
        <time>2021-09-04T06:39:43Z</time>
      </trkpt>
      <trkpt lat="44.10972" lon="5.78197">
        <ele>1555.8000488281</ele>
        <time>2021-09-04T06:39:44Z</time>
      </trkpt>
      <trkpt lat="44.10964" lon="5.78204">
        <ele>1555.1999511719</ele>
        <time>2021-09-04T06:39:45Z</time>
      </trkpt>
      <trkpt lat="44.10947" lon="5.78219">
        <ele>1554.1999511719</ele>
        <time>2021-09-04T06:39:47Z</time>
      </trkpt>
      <trkpt lat="44.10928" lon="5.78232">
        <ele>1552.8000488281</ele>
        <time>2021-09-04T06:39:49Z</time>
      </trkpt>
      <trkpt lat="44.10918" lon="5.78239">
        <ele>1551.5999755859</ele>
        <time>2021-09-04T06:39:50Z</time>
      </trkpt>
      <trkpt lat="44.10899" lon="5.78252">
        <ele>1550.4000244141</ele>
        <time>2021-09-04T06:39:52Z</time>
      </trkpt>
      <trkpt lat="44.10879" lon="5.78265">
        <ele>1549</ele>
        <time>2021-09-04T06:39:54Z</time>
      </trkpt>
      <trkpt lat="44.10859" lon="5.78278">
        <ele>1547.5999755859</ele>
        <time>2021-09-04T06:39:56Z</time>
      </trkpt>
      <trkpt lat="44.10838" lon="5.7829">
        <ele>1546.1999511719</ele>
        <time>2021-09-04T06:39:58Z</time>
      </trkpt>
      <trkpt lat="44.10828" lon="5.78296">
        <ele>1545.4000244141</ele>
        <time>2021-09-04T06:39:59Z</time>
      </trkpt>
      <trkpt lat="44.10817" lon="5.78303">
        <ele>1544.8000488281</ele>
        <time>2021-09-04T06:40:00Z</time>
      </trkpt>
      <trkpt lat="44.10797" lon="5.78317">
        <ele>1543.4000244141</ele>
        <time>2021-09-04T06:40:02Z</time>
      </trkpt>
      <trkpt lat="44.10789" lon="5.78326">
        <ele>1542.5999755859</ele>
        <time>2021-09-04T06:40:03Z</time>
      </trkpt>
      <trkpt lat="44.10782" lon="5.78337">
        <ele>1541.8000488281</ele>
        <time>2021-09-04T06:40:04Z</time>
      </trkpt>
      <trkpt lat="44.10773" lon="5.78363">
        <ele>1540.1999511719</ele>
        <time>2021-09-04T06:40:06Z</time>
      </trkpt>
      <trkpt lat="44.10771" lon="5.78378">
        <ele>1539.4000244141</ele>
        <time>2021-09-04T06:40:07Z</time>
      </trkpt>
      <trkpt lat="44.10771" lon="5.78393">
        <ele>1538.8000488281</ele>
        <time>2021-09-04T06:40:08Z</time>
      </trkpt>
      <trkpt lat="44.10778" lon="5.78422">
        <ele>1537.4000244141</ele>
        <time>2021-09-04T06:40:10Z</time>
      </trkpt>
      <trkpt lat="44.10788" lon="5.7845">
        <ele>1535.8000488281</ele>
        <time>2021-09-04T06:40:12Z</time>
      </trkpt>
      <trkpt lat="44.10794" lon="5.78463">
        <ele>1535.1999511719</ele>
        <time>2021-09-04T06:40:13Z</time>
      </trkpt>
      <trkpt lat="44.108" lon="5.78475">
        <ele>1533.8000488281</ele>
        <time>2021-09-04T06:40:14Z</time>
      </trkpt>
      <trkpt lat="44.10811" lon="5.78502">
        <ele>1532.4000244141</ele>
        <time>2021-09-04T06:40:16Z</time>
      </trkpt>
      <trkpt lat="44.10819" lon="5.78532">
        <ele>1531</ele>
        <time>2021-09-04T06:40:18Z</time>
      </trkpt>
      <trkpt lat="44.10822" lon="5.78547">
        <ele>1530.1999511719</ele>
        <time>2021-09-04T06:40:19Z</time>
      </trkpt>
      <trkpt lat="44.10824" lon="5.78562">
        <ele>1529.4000244141</ele>
        <time>2021-09-04T06:40:20Z</time>
      </trkpt>
      <trkpt lat="44.10825" lon="5.78577">
        <ele>1528.5999755859</ele>
        <time>2021-09-04T06:40:21Z</time>
      </trkpt>
      <trkpt lat="44.10826" lon="5.78593">
        <ele>1527.8000488281</ele>
        <time>2021-09-04T06:40:22Z</time>
      </trkpt>
      <trkpt lat="44.10826" lon="5.78609">
        <ele>1527.1999511719</ele>
        <time>2021-09-04T06:40:23Z</time>
      </trkpt>
      <trkpt lat="44.10827" lon="5.78622">
        <ele>1526.4000244141</ele>
        <time>2021-09-04T06:40:24Z</time>
      </trkpt>
      <trkpt lat="44.10826" lon="5.78641">
        <ele>1524.8000488281</ele>
        <time>2021-09-04T06:40:26Z</time>
      </trkpt>
      <trkpt lat="44.10815" lon="5.78646">
        <ele>1523.5999755859</ele>
        <time>2021-09-04T06:40:28Z</time>
      </trkpt>
      <trkpt lat="44.10806" lon="5.78636">
        <ele>1522.4000244141</ele>
        <time>2021-09-04T06:40:30Z</time>
      </trkpt>
      <trkpt lat="44.10802" lon="5.78619">
        <ele>1521</ele>
        <time>2021-09-04T06:40:32Z</time>
      </trkpt>
      <trkpt lat="44.10799" lon="5.78608">
        <ele>1520.4000244141</ele>
        <time>2021-09-04T06:40:33Z</time>
      </trkpt>
      <trkpt lat="44.10797" lon="5.78598">
        <ele>1519.8000488281</ele>
        <time>2021-09-04T06:40:34Z</time>
      </trkpt>
      <trkpt lat="44.10787" lon="5.78565">
        <ele>1518.5999755859</ele>
        <time>2021-09-04T06:40:37Z</time>
      </trkpt>
      <trkpt lat="44.10782" lon="5.78554">
        <ele>1517.8000488281</ele>
        <time>2021-09-04T06:40:38Z</time>
      </trkpt>
      <trkpt lat="44.10776" lon="5.78545">
        <ele>1517.4000244141</ele>
        <time>2021-09-04T06:40:39Z</time>
      </trkpt>
      <trkpt lat="44.10762" lon="5.78529">
        <ele>1516.5999755859</ele>
        <time>2021-09-04T06:40:41Z</time>
      </trkpt>
      <trkpt lat="44.10754" lon="5.78521">
        <ele>1516</ele>
        <time>2021-09-04T06:40:42Z</time>
      </trkpt>
      <trkpt lat="44.10738" lon="5.78506">
        <ele>1514.8000488281</ele>
        <time>2021-09-04T06:40:44Z</time>
      </trkpt>
      <trkpt lat="44.10721" lon="5.78491">
        <ele>1513.8000488281</ele>
        <time>2021-09-04T06:40:46Z</time>
      </trkpt>
      <trkpt lat="44.10712" lon="5.78484">
        <ele>1513.1999511719</ele>
        <time>2021-09-04T06:40:47Z</time>
      </trkpt>
      <trkpt lat="44.10703" lon="5.78476">
        <ele>1512.5999755859</ele>
        <time>2021-09-04T06:40:48Z</time>
      </trkpt>
      <trkpt lat="44.10684" lon="5.78462">
        <ele>1511.4000244141</ele>
        <time>2021-09-04T06:40:50Z</time>
      </trkpt>
      <trkpt lat="44.10666" lon="5.78447">
        <ele>1509.8000488281</ele>
        <time>2021-09-04T06:40:52Z</time>
      </trkpt>
      <trkpt lat="44.10656" lon="5.7844">
        <ele>1509</ele>
        <time>2021-09-04T06:40:53Z</time>
      </trkpt>
      <trkpt lat="44.10646" lon="5.78434">
        <ele>1508.4000244141</ele>
        <time>2021-09-04T06:40:54Z</time>
      </trkpt>
      <trkpt lat="44.10626" lon="5.78423">
        <ele>1507</ele>
        <time>2021-09-04T06:40:56Z</time>
      </trkpt>
      <trkpt lat="44.10604" lon="5.78411">
        <ele>1505.4000244141</ele>
        <time>2021-09-04T06:40:58Z</time>
      </trkpt>
      <trkpt lat="44.10581" lon="5.78399">
        <ele>1503.8000488281</ele>
        <time>2021-09-04T06:41:00Z</time>
      </trkpt>
      <trkpt lat="44.1057" lon="5.7839">
        <ele>1502.8000488281</ele>
        <time>2021-09-04T06:41:01Z</time>
      </trkpt>
      <trkpt lat="44.10561" lon="5.78381">
        <ele>1501</ele>
        <time>2021-09-04T06:41:02Z</time>
      </trkpt>
      <trkpt lat="44.10552" lon="5.7837">
        <ele>1499.8000488281</ele>
        <time>2021-09-04T06:41:03Z</time>
      </trkpt>
      <trkpt lat="44.10543" lon="5.7836">
        <ele>1498.8000488281</ele>
        <time>2021-09-04T06:41:04Z</time>
      </trkpt>
      <trkpt lat="44.10535" lon="5.78349">
        <ele>1497.5999755859</ele>
        <time>2021-09-04T06:41:05Z</time>
      </trkpt>
      <trkpt lat="44.10527" lon="5.78338">
        <ele>1496.5999755859</ele>
        <time>2021-09-04T06:41:06Z</time>
      </trkpt>
      <trkpt lat="44.1052" lon="5.78329">
        <ele>1495.5999755859</ele>
        <time>2021-09-04T06:41:07Z</time>
      </trkpt>
      <trkpt lat="44.10513" lon="5.78321">
        <ele>1494.4000244141</ele>
        <time>2021-09-04T06:41:08Z</time>
      </trkpt>
      <trkpt lat="44.10506" lon="5.78315">
        <ele>1493.4000244141</ele>
        <time>2021-09-04T06:41:09Z</time>
      </trkpt>
      <trkpt lat="44.10498" lon="5.78313">
        <ele>1492.4000244141</ele>
        <time>2021-09-04T06:41:10Z</time>
      </trkpt>
      <trkpt lat="44.10485" lon="5.78324">
        <ele>1490.4000244141</ele>
        <time>2021-09-04T06:41:12Z</time>
      </trkpt>
      <trkpt lat="44.10483" lon="5.78347">
        <ele>1488.5999755859</ele>
        <time>2021-09-04T06:41:14Z</time>
      </trkpt>
      <trkpt lat="44.10492" lon="5.78369">
        <ele>1487</ele>
        <time>2021-09-04T06:41:16Z</time>
      </trkpt>
      <trkpt lat="44.10496" lon="5.78379">
        <ele>1486.4000244141</ele>
        <time>2021-09-04T06:41:17Z</time>
      </trkpt>
      <trkpt lat="44.105" lon="5.78389">
        <ele>1485.8000488281</ele>
        <time>2021-09-04T06:41:18Z</time>
      </trkpt>
      <trkpt lat="44.10506" lon="5.78409">
        <ele>1484.5999755859</ele>
        <time>2021-09-04T06:41:20Z</time>
      </trkpt>
      <trkpt lat="44.10504" lon="5.78417">
        <ele>1483.8000488281</ele>
        <time>2021-09-04T06:41:21Z</time>
      </trkpt>
      <trkpt lat="44.10499" lon="5.78423">
        <ele>1483.1999511719</ele>
        <time>2021-09-04T06:41:22Z</time>
      </trkpt>
      <trkpt lat="44.10494" lon="5.78426">
        <ele>1482.4000244141</ele>
        <time>2021-09-04T06:41:23Z</time>
      </trkpt>
      <trkpt lat="44.10488" lon="5.78427">
        <ele>1481.5999755859</ele>
        <time>2021-09-04T06:41:24Z</time>
      </trkpt>
      <trkpt lat="44.10475" lon="5.7843">
        <ele>1479.8000488281</ele>
        <time>2021-09-04T06:41:26Z</time>
      </trkpt>
      <trkpt lat="44.10453" lon="5.78438">
        <ele>1478.4000244141</ele>
        <time>2021-09-04T06:41:29Z</time>
      </trkpt>
      <trkpt lat="44.10436" lon="5.78443">
        <ele>1477.4000244141</ele>
        <time>2021-09-04T06:41:31Z</time>
      </trkpt>
      <trkpt lat="44.10426" lon="5.78444">
        <ele>1476.8000488281</ele>
        <time>2021-09-04T06:41:32Z</time>
      </trkpt>
      <trkpt lat="44.10417" lon="5.78444">
        <ele>1476.4000244141</ele>
        <time>2021-09-04T06:41:33Z</time>
      </trkpt>
      <trkpt lat="44.10407" lon="5.78442">
        <ele>1475.5999755859</ele>
        <time>2021-09-04T06:41:34Z</time>
      </trkpt>
      <trkpt lat="44.10397" lon="5.78438">
        <ele>1475</ele>
        <time>2021-09-04T06:41:35Z</time>
      </trkpt>
      <trkpt lat="44.10387" lon="5.78432">
        <ele>1474.1999511719</ele>
        <time>2021-09-04T06:41:36Z</time>
      </trkpt>
      <trkpt lat="44.10369" lon="5.78415">
        <ele>1472.8000488281</ele>
        <time>2021-09-04T06:41:38Z</time>
      </trkpt>
      <trkpt lat="44.10355" lon="5.78392">
        <ele>1471.5999755859</ele>
        <time>2021-09-04T06:41:40Z</time>
      </trkpt>
      <trkpt lat="44.1035" lon="5.7838">
        <ele>1470.8000488281</ele>
        <time>2021-09-04T06:41:41Z</time>
      </trkpt>
      <trkpt lat="44.10346" lon="5.78368">
        <ele>1470</ele>
        <time>2021-09-04T06:41:42Z</time>
      </trkpt>
      <trkpt lat="44.10343" lon="5.78347">
        <ele>1468.4000244141</ele>
        <time>2021-09-04T06:41:44Z</time>
      </trkpt>
      <trkpt lat="44.1034" lon="5.78339">
        <ele>1467.4000244141</ele>
        <time>2021-09-04T06:41:45Z</time>
      </trkpt>
      <trkpt lat="44.10334" lon="5.78336">
        <ele>1466.5999755859</ele>
        <time>2021-09-04T06:41:46Z</time>
      </trkpt>
      <trkpt lat="44.10322" lon="5.78338">
        <ele>1465.1999511719</ele>
        <time>2021-09-04T06:41:48Z</time>
      </trkpt>
      <trkpt lat="44.10319" lon="5.78347">
        <ele>1464.5999755859</ele>
        <time>2021-09-04T06:41:49Z</time>
      </trkpt>
      <trkpt lat="44.10319" lon="5.78357">
        <ele>1463.1999511719</ele>
        <time>2021-09-04T06:41:50Z</time>
      </trkpt>
      <trkpt lat="44.10318" lon="5.78379">
        <ele>1462.1999511719</ele>
        <time>2021-09-04T06:41:52Z</time>
      </trkpt>
      <trkpt lat="44.10317" lon="5.78391">
        <ele>1461.8000488281</ele>
        <time>2021-09-04T06:41:53Z</time>
      </trkpt>
      <trkpt lat="44.10315" lon="5.78416">
        <ele>1461</ele>
        <time>2021-09-04T06:41:55Z</time>
      </trkpt>
      <trkpt lat="44.10314" lon="5.78441">
        <ele>1460.1999511719</ele>
        <time>2021-09-04T06:41:57Z</time>
      </trkpt>
      <trkpt lat="44.10313" lon="5.78454">
        <ele>1459.5999755859</ele>
        <time>2021-09-04T06:41:58Z</time>
      </trkpt>
      <trkpt lat="44.10316" lon="5.78482">
        <ele>1458.5999755859</ele>
        <time>2021-09-04T06:42:00Z</time>
      </trkpt>
      <trkpt lat="44.1032" lon="5.78494">
        <ele>1458</ele>
        <time>2021-09-04T06:42:01Z</time>
      </trkpt>
      <trkpt lat="44.10325" lon="5.78505">
        <ele>1457.4000244141</ele>
        <time>2021-09-04T06:42:02Z</time>
      </trkpt>
      <trkpt lat="44.10333" lon="5.78524">
        <ele>1456.1999511719</ele>
        <time>2021-09-04T06:42:04Z</time>
      </trkpt>
      <trkpt lat="44.10328" lon="5.78542">
        <ele>1454.8000488281</ele>
        <time>2021-09-04T06:42:06Z</time>
      </trkpt>
      <trkpt lat="44.10315" lon="5.78542">
        <ele>1453.5999755859</ele>
        <time>2021-09-04T06:42:08Z</time>
      </trkpt>
      <trkpt lat="44.10305" lon="5.78524">
        <ele>1452.5999755859</ele>
        <time>2021-09-04T06:42:10Z</time>
      </trkpt>
      <trkpt lat="44.103" lon="5.78515">
        <ele>1452</ele>
        <time>2021-09-04T06:42:11Z</time>
      </trkpt>
      <trkpt lat="44.10294" lon="5.78507">
        <ele>1451.4000244141</ele>
        <time>2021-09-04T06:42:12Z</time>
      </trkpt>
      <trkpt lat="44.10282" lon="5.78491">
        <ele>1449.8000488281</ele>
        <time>2021-09-04T06:42:14Z</time>
      </trkpt>
      <trkpt lat="44.10275" lon="5.78482">
        <ele>1449.4000244141</ele>
        <time>2021-09-04T06:42:15Z</time>
      </trkpt>
      <trkpt lat="44.10268" lon="5.78475">
        <ele>1449</ele>
        <time>2021-09-04T06:42:16Z</time>
      </trkpt>
      <trkpt lat="44.1026" lon="5.78469">
        <ele>1448.5999755859</ele>
        <time>2021-09-04T06:42:17Z</time>
      </trkpt>
      <trkpt lat="44.10243" lon="5.78455">
        <ele>1447.8000488281</ele>
        <time>2021-09-04T06:42:19Z</time>
      </trkpt>
      <trkpt lat="44.10235" lon="5.78448">
        <ele>1447.1999511719</ele>
        <time>2021-09-04T06:42:20Z</time>
      </trkpt>
      <trkpt lat="44.10217" lon="5.78435">
        <ele>1446</ele>
        <time>2021-09-04T06:42:22Z</time>
      </trkpt>
      <trkpt lat="44.10197" lon="5.78424">
        <ele>1444.5999755859</ele>
        <time>2021-09-04T06:42:24Z</time>
      </trkpt>
      <trkpt lat="44.10176" lon="5.78416">
        <ele>1443.1999511719</ele>
        <time>2021-09-04T06:42:26Z</time>
      </trkpt>
      <trkpt lat="44.10154" lon="5.7841">
        <ele>1441.8000488281</ele>
        <time>2021-09-04T06:42:28Z</time>
      </trkpt>
      <trkpt lat="44.10142" lon="5.78406">
        <ele>1441</ele>
        <time>2021-09-04T06:42:29Z</time>
      </trkpt>
      <trkpt lat="44.1013" lon="5.78404">
        <ele>1440.1999511719</ele>
        <time>2021-09-04T06:42:30Z</time>
      </trkpt>
      <trkpt lat="44.10106" lon="5.78402">
        <ele>1438.5999755859</ele>
        <time>2021-09-04T06:42:32Z</time>
      </trkpt>
      <trkpt lat="44.10093" lon="5.78404">
        <ele>1437.5999755859</ele>
        <time>2021-09-04T06:42:33Z</time>
      </trkpt>
      <trkpt lat="44.1008" lon="5.78406">
        <ele>1436.4000244141</ele>
        <time>2021-09-04T06:42:34Z</time>
      </trkpt>
      <trkpt lat="44.10067" lon="5.78409">
        <ele>1435.4000244141</ele>
        <time>2021-09-04T06:42:35Z</time>
      </trkpt>
      <trkpt lat="44.10054" lon="5.78412">
        <ele>1434.4000244141</ele>
        <time>2021-09-04T06:42:36Z</time>
      </trkpt>
      <trkpt lat="44.10041" lon="5.78417">
        <ele>1433.1999511719</ele>
        <time>2021-09-04T06:42:37Z</time>
      </trkpt>
      <trkpt lat="44.10028" lon="5.78421">
        <ele>1430.8000488281</ele>
        <time>2021-09-04T06:42:38Z</time>
      </trkpt>
      <trkpt lat="44.10016" lon="5.78424">
        <ele>1429.8000488281</ele>
        <time>2021-09-04T06:42:39Z</time>
      </trkpt>
      <trkpt lat="44.10002" lon="5.78428">
        <ele>1428.5999755859</ele>
        <time>2021-09-04T06:42:40Z</time>
      </trkpt>
      <trkpt lat="44.09989" lon="5.7843">
        <ele>1427.4000244141</ele>
        <time>2021-09-04T06:42:41Z</time>
      </trkpt>
      <trkpt lat="44.09976" lon="5.78432">
        <ele>1426.4000244141</ele>
        <time>2021-09-04T06:42:42Z</time>
      </trkpt>
      <trkpt lat="44.09963" lon="5.78434">
        <ele>1425.1999511719</ele>
        <time>2021-09-04T06:42:43Z</time>
      </trkpt>
      <trkpt lat="44.0995" lon="5.78436">
        <ele>1424</ele>
        <time>2021-09-04T06:42:44Z</time>
      </trkpt>
      <trkpt lat="44.09937" lon="5.78436">
        <ele>1422.8000488281</ele>
        <time>2021-09-04T06:42:45Z</time>
      </trkpt>
      <trkpt lat="44.09924" lon="5.78433">
        <ele>1421.8000488281</ele>
        <time>2021-09-04T06:42:46Z</time>
      </trkpt>
      <trkpt lat="44.09911" lon="5.78429">
        <ele>1420.8000488281</ele>
        <time>2021-09-04T06:42:47Z</time>
      </trkpt>
      <trkpt lat="44.09899" lon="5.78423">
        <ele>1419.5999755859</ele>
        <time>2021-09-04T06:42:48Z</time>
      </trkpt>
      <trkpt lat="44.09888" lon="5.78415">
        <ele>1418.5999755859</ele>
        <time>2021-09-04T06:42:49Z</time>
      </trkpt>
      <trkpt lat="44.09877" lon="5.78407">
        <ele>1417.8000488281</ele>
        <time>2021-09-04T06:42:50Z</time>
      </trkpt>
      <trkpt lat="44.09866" lon="5.78397">
        <ele>1416.8000488281</ele>
        <time>2021-09-04T06:42:51Z</time>
      </trkpt>
      <trkpt lat="44.09855" lon="5.78388">
        <ele>1415.8000488281</ele>
        <time>2021-09-04T06:42:52Z</time>
      </trkpt>
      <trkpt lat="44.09846" lon="5.78377">
        <ele>1414.8000488281</ele>
        <time>2021-09-04T06:42:53Z</time>
      </trkpt>
      <trkpt lat="44.09838" lon="5.78364">
        <ele>1413.8000488281</ele>
        <time>2021-09-04T06:42:54Z</time>
      </trkpt>
      <trkpt lat="44.09831" lon="5.7835">
        <ele>1413</ele>
        <time>2021-09-04T06:42:55Z</time>
      </trkpt>
      <trkpt lat="44.09821" lon="5.78324">
        <ele>1411.1999511719</ele>
        <time>2021-09-04T06:42:57Z</time>
      </trkpt>
      <trkpt lat="44.09814" lon="5.78301">
        <ele>1409.4000244141</ele>
        <time>2021-09-04T06:42:59Z</time>
      </trkpt>
      <trkpt lat="44.09809" lon="5.78294">
        <ele>1408.5999755859</ele>
        <time>2021-09-04T06:43:00Z</time>
      </trkpt>
      <trkpt lat="44.09803" lon="5.78291">
        <ele>1407.8000488281</ele>
        <time>2021-09-04T06:43:01Z</time>
      </trkpt>
      <trkpt lat="44.09797" lon="5.78296">
        <ele>1406.4000244141</ele>
        <time>2021-09-04T06:43:02Z</time>
      </trkpt>
      <trkpt lat="44.09796" lon="5.78313">
        <ele>1405.1999511719</ele>
        <time>2021-09-04T06:43:04Z</time>
      </trkpt>
      <trkpt lat="44.09799" lon="5.78332">
        <ele>1404</ele>
        <time>2021-09-04T06:43:06Z</time>
      </trkpt>
      <trkpt lat="44.09802" lon="5.78342">
        <ele>1403.4000244141</ele>
        <time>2021-09-04T06:43:07Z</time>
      </trkpt>
      <trkpt lat="44.09805" lon="5.78353">
        <ele>1403</ele>
        <time>2021-09-04T06:43:08Z</time>
      </trkpt>
      <trkpt lat="44.09807" lon="5.78364">
        <ele>1402.5999755859</ele>
        <time>2021-09-04T06:43:09Z</time>
      </trkpt>
      <trkpt lat="44.09814" lon="5.78398">
        <ele>1401.4000244141</ele>
        <time>2021-09-04T06:43:12Z</time>
      </trkpt>
      <trkpt lat="44.09816" lon="5.7841">
        <ele>1401</ele>
        <time>2021-09-04T06:43:13Z</time>
      </trkpt>
      <trkpt lat="44.09817" lon="5.78435">
        <ele>1400</ele>
        <time>2021-09-04T06:43:15Z</time>
      </trkpt>
      <trkpt lat="44.09816" lon="5.78447">
        <ele>1399.4000244141</ele>
        <time>2021-09-04T06:43:16Z</time>
      </trkpt>
      <trkpt lat="44.09815" lon="5.78459">
        <ele>1398.8000488281</ele>
        <time>2021-09-04T06:43:17Z</time>
      </trkpt>
      <trkpt lat="44.09813" lon="5.78472">
        <ele>1398.1999511719</ele>
        <time>2021-09-04T06:43:18Z</time>
      </trkpt>
      <trkpt lat="44.09811" lon="5.78485">
        <ele>1397.5999755859</ele>
        <time>2021-09-04T06:43:19Z</time>
      </trkpt>
      <trkpt lat="44.09804" lon="5.78511">
        <ele>1396</ele>
        <time>2021-09-04T06:43:21Z</time>
      </trkpt>
      <trkpt lat="44.09799" lon="5.78525">
        <ele>1395.1999511719</ele>
        <time>2021-09-04T06:43:22Z</time>
      </trkpt>
      <trkpt lat="44.09795" lon="5.78539">
        <ele>1394.5999755859</ele>
        <time>2021-09-04T06:43:23Z</time>
      </trkpt>
      <trkpt lat="44.09784" lon="5.78566">
        <ele>1393</ele>
        <time>2021-09-04T06:43:25Z</time>
      </trkpt>
      <trkpt lat="44.09778" lon="5.7858">
        <ele>1391.5999755859</ele>
        <time>2021-09-04T06:43:26Z</time>
      </trkpt>
      <trkpt lat="44.0977" lon="5.78599">
        <ele>1390.5999755859</ele>
        <time>2021-09-04T06:43:27Z</time>
      </trkpt>
      <trkpt lat="44.09763" lon="5.78616">
        <ele>1389.8000488281</ele>
        <time>2021-09-04T06:43:28Z</time>
      </trkpt>
      <trkpt lat="44.0975" lon="5.78649">
        <ele>1387.8000488281</ele>
        <time>2021-09-04T06:43:30Z</time>
      </trkpt>
      <trkpt lat="44.09739" lon="5.78684">
        <ele>1385.8000488281</ele>
        <time>2021-09-04T06:43:32Z</time>
      </trkpt>
      <trkpt lat="44.09734" lon="5.78701">
        <ele>1384.8000488281</ele>
        <time>2021-09-04T06:43:33Z</time>
      </trkpt>
      <trkpt lat="44.0973" lon="5.78717">
        <ele>1383.5999755859</ele>
        <time>2021-09-04T06:43:34Z</time>
      </trkpt>
      <trkpt lat="44.09725" lon="5.78735">
        <ele>1382.4000244141</ele>
        <time>2021-09-04T06:43:35Z</time>
      </trkpt>
      <trkpt lat="44.09717" lon="5.7875">
        <ele>1381.1999511719</ele>
        <time>2021-09-04T06:43:36Z</time>
      </trkpt>
      <trkpt lat="44.09708" lon="5.78763">
        <ele>1380</ele>
        <time>2021-09-04T06:43:37Z</time>
      </trkpt>
      <trkpt lat="44.09699" lon="5.78775">
        <ele>1378.8000488281</ele>
        <time>2021-09-04T06:43:38Z</time>
      </trkpt>
      <trkpt lat="44.09688" lon="5.78785">
        <ele>1377.4000244141</ele>
        <time>2021-09-04T06:43:39Z</time>
      </trkpt>
      <trkpt lat="44.09677" lon="5.78793">
        <ele>1376.4000244141</ele>
        <time>2021-09-04T06:43:40Z</time>
      </trkpt>
      <trkpt lat="44.09666" lon="5.78801">
        <ele>1375.1999511719</ele>
        <time>2021-09-04T06:43:41Z</time>
      </trkpt>
      <trkpt lat="44.09647" lon="5.78819">
        <ele>1373.4000244141</ele>
        <time>2021-09-04T06:43:43Z</time>
      </trkpt>
      <trkpt lat="44.09639" lon="5.78824">
        <ele>1372.5999755859</ele>
        <time>2021-09-04T06:43:44Z</time>
      </trkpt>
      <trkpt lat="44.0963" lon="5.78823">
        <ele>1371.8000488281</ele>
        <time>2021-09-04T06:43:45Z</time>
      </trkpt>
      <trkpt lat="44.09618" lon="5.78806">
        <ele>1369.8000488281</ele>
        <time>2021-09-04T06:43:47Z</time>
      </trkpt>
      <trkpt lat="44.09616" lon="5.78794">
        <ele>1368.8000488281</ele>
        <time>2021-09-04T06:43:48Z</time>
      </trkpt>
      <trkpt lat="44.09618" lon="5.78782">
        <ele>1367.8000488281</ele>
        <time>2021-09-04T06:43:49Z</time>
      </trkpt>
      <trkpt lat="44.09622" lon="5.7877">
        <ele>1366.4000244141</ele>
        <time>2021-09-04T06:43:50Z</time>
      </trkpt>
      <trkpt lat="44.09628" lon="5.7876">
        <ele>1365.8000488281</ele>
        <time>2021-09-04T06:43:51Z</time>
      </trkpt>
      <trkpt lat="44.09633" lon="5.7875">
        <ele>1365.1999511719</ele>
        <time>2021-09-04T06:43:52Z</time>
      </trkpt>
      <trkpt lat="44.09647" lon="5.78734">
        <ele>1364</ele>
        <time>2021-09-04T06:43:54Z</time>
      </trkpt>
      <trkpt lat="44.09653" lon="5.78728">
        <ele>1363.5999755859</ele>
        <time>2021-09-04T06:43:55Z</time>
      </trkpt>
      <trkpt lat="44.09656" lon="5.7872">
        <ele>1363</ele>
        <time>2021-09-04T06:43:56Z</time>
      </trkpt>
      <trkpt lat="44.09656" lon="5.78712">
        <ele>1362.4000244141</ele>
        <time>2021-09-04T06:43:57Z</time>
      </trkpt>
      <trkpt lat="44.09652" lon="5.78707">
        <ele>1361.8000488281</ele>
        <time>2021-09-04T06:43:58Z</time>
      </trkpt>
      <trkpt lat="44.09648" lon="5.78703">
        <ele>1361.1999511719</ele>
        <time>2021-09-04T06:43:59Z</time>
      </trkpt>
      <trkpt lat="44.09641" lon="5.78705">
        <ele>1360.5999755859</ele>
        <time>2021-09-04T06:44:00Z</time>
      </trkpt>
      <trkpt lat="44.09634" lon="5.7871">
        <ele>1360</ele>
        <time>2021-09-04T06:44:01Z</time>
      </trkpt>
      <trkpt lat="44.09625" lon="5.78713">
        <ele>1359.1999511719</ele>
        <time>2021-09-04T06:44:02Z</time>
      </trkpt>
      <trkpt lat="44.09607" lon="5.78716">
        <ele>1358.1999511719</ele>
        <time>2021-09-04T06:44:04Z</time>
      </trkpt>
      <trkpt lat="44.09598" lon="5.78717">
        <ele>1357.8000488281</ele>
        <time>2021-09-04T06:44:05Z</time>
      </trkpt>
      <trkpt lat="44.09577" lon="5.78717">
        <ele>1356.8000488281</ele>
        <time>2021-09-04T06:44:07Z</time>
      </trkpt>
      <trkpt lat="44.09555" lon="5.78716">
        <ele>1355.5999755859</ele>
        <time>2021-09-04T06:44:09Z</time>
      </trkpt>
      <trkpt lat="44.09534" lon="5.78721">
        <ele>1354</ele>
        <time>2021-09-04T06:44:11Z</time>
      </trkpt>
      <trkpt lat="44.09523" lon="5.78728">
        <ele>1353.1999511719</ele>
        <time>2021-09-04T06:44:12Z</time>
      </trkpt>
      <trkpt lat="44.09513" lon="5.78736">
        <ele>1352.4000244141</ele>
        <time>2021-09-04T06:44:13Z</time>
      </trkpt>
      <trkpt lat="44.09505" lon="5.78747">
        <ele>1350.5999755859</ele>
        <time>2021-09-04T06:44:14Z</time>
      </trkpt>
      <trkpt lat="44.09499" lon="5.78759">
        <ele>1349.5999755859</ele>
        <time>2021-09-04T06:44:15Z</time>
      </trkpt>
      <trkpt lat="44.09495" lon="5.78772">
        <ele>1348.8000488281</ele>
        <time>2021-09-04T06:44:16Z</time>
      </trkpt>
      <trkpt lat="44.09486" lon="5.78791">
        <ele>1346.8000488281</ele>
        <time>2021-09-04T06:44:18Z</time>
      </trkpt>
      <trkpt lat="44.09471" lon="5.78788">
        <ele>1345.1999511719</ele>
        <time>2021-09-04T06:44:20Z</time>
      </trkpt>
      <trkpt lat="44.09465" lon="5.78767">
        <ele>1343.5999755859</ele>
        <time>2021-09-04T06:44:22Z</time>
      </trkpt>
      <trkpt lat="44.09462" lon="5.78745">
        <ele>1342.1999511719</ele>
        <time>2021-09-04T06:44:24Z</time>
      </trkpt>
      <trkpt lat="44.09458" lon="5.78734">
        <ele>1341.5999755859</ele>
        <time>2021-09-04T06:44:25Z</time>
      </trkpt>
      <trkpt lat="44.09453" lon="5.78723">
        <ele>1341.1999511719</ele>
        <time>2021-09-04T06:44:26Z</time>
      </trkpt>
      <trkpt lat="44.09435" lon="5.78714">
        <ele>1340.1999511719</ele>
        <time>2021-09-04T06:44:28Z</time>
      </trkpt>
      <trkpt lat="44.09415" lon="5.78721">
        <ele>1339</ele>
        <time>2021-09-04T06:44:30Z</time>
      </trkpt>
      <trkpt lat="44.09398" lon="5.78737">
        <ele>1337.5999755859</ele>
        <time>2021-09-04T06:44:32Z</time>
      </trkpt>
      <trkpt lat="44.0939" lon="5.78746">
        <ele>1337</ele>
        <time>2021-09-04T06:44:33Z</time>
      </trkpt>
      <trkpt lat="44.09383" lon="5.78758">
        <ele>1336.1999511719</ele>
        <time>2021-09-04T06:44:34Z</time>
      </trkpt>
      <trkpt lat="44.09375" lon="5.78785">
        <ele>1334.8000488281</ele>
        <time>2021-09-04T06:44:36Z</time>
      </trkpt>
      <trkpt lat="44.09372" lon="5.78814">
        <ele>1332.8000488281</ele>
        <time>2021-09-04T06:44:38Z</time>
      </trkpt>
      <trkpt lat="44.09372" lon="5.78828">
        <ele>1332</ele>
        <time>2021-09-04T06:44:39Z</time>
      </trkpt>
      <trkpt lat="44.09372" lon="5.7884">
        <ele>1331.1999511719</ele>
        <time>2021-09-04T06:44:40Z</time>
      </trkpt>
      <trkpt lat="44.0937" lon="5.78851">
        <ele>1330.5999755859</ele>
        <time>2021-09-04T06:44:41Z</time>
      </trkpt>
      <trkpt lat="44.09364" lon="5.78858">
        <ele>1329.8000488281</ele>
        <time>2021-09-04T06:44:42Z</time>
      </trkpt>
      <trkpt lat="44.09347" lon="5.78853">
        <ele>1328.1999511719</ele>
        <time>2021-09-04T06:44:44Z</time>
      </trkpt>
      <trkpt lat="44.09336" lon="5.78835">
        <ele>1326.8000488281</ele>
        <time>2021-09-04T06:44:46Z</time>
      </trkpt>
      <trkpt lat="44.09326" lon="5.78814">
        <ele>1325.4000244141</ele>
        <time>2021-09-04T06:44:48Z</time>
      </trkpt>
      <trkpt lat="44.09318" lon="5.78791">
        <ele>1324.4000244141</ele>
        <time>2021-09-04T06:44:50Z</time>
      </trkpt>
      <trkpt lat="44.09314" lon="5.78765">
        <ele>1323.1999511719</ele>
        <time>2021-09-04T06:44:52Z</time>
      </trkpt>
      <trkpt lat="44.09314" lon="5.78751">
        <ele>1322.5999755859</ele>
        <time>2021-09-04T06:44:53Z</time>
      </trkpt>
      <trkpt lat="44.09312" lon="5.78738">
        <ele>1322.1999511719</ele>
        <time>2021-09-04T06:44:54Z</time>
      </trkpt>
      <trkpt lat="44.09311" lon="5.78725">
        <ele>1321.5999755859</ele>
        <time>2021-09-04T06:44:55Z</time>
      </trkpt>
      <trkpt lat="44.09309" lon="5.78715">
        <ele>1321</ele>
        <time>2021-09-04T06:44:56Z</time>
      </trkpt>
      <trkpt lat="44.09304" lon="5.78708">
        <ele>1320.4000244141</ele>
        <time>2021-09-04T06:44:57Z</time>
      </trkpt>
      <trkpt lat="44.09297" lon="5.78707">
        <ele>1319.8000488281</ele>
        <time>2021-09-04T06:44:58Z</time>
      </trkpt>
      <trkpt lat="44.09289" lon="5.78707">
        <ele>1319</ele>
        <time>2021-09-04T06:44:59Z</time>
      </trkpt>
      <trkpt lat="44.09285" lon="5.78708">
        <ele>1318.4000244141</ele>
        <time>2021-09-04T06:45:00Z</time>
      </trkpt>
      <trkpt lat="44.09284" lon="5.78731">
        <ele>1316.5999755859</ele>
        <time>2021-09-04T06:45:02Z</time>
      </trkpt>
      <trkpt lat="44.09283" lon="5.78743">
        <ele>1316.1999511719</ele>
        <time>2021-09-04T06:45:03Z</time>
      </trkpt>
      <trkpt lat="44.09279" lon="5.78768">
        <ele>1315.1999511719</ele>
        <time>2021-09-04T06:45:05Z</time>
      </trkpt>
      <trkpt lat="44.09275" lon="5.78792">
        <ele>1314.1999511719</ele>
        <time>2021-09-04T06:45:07Z</time>
      </trkpt>
      <trkpt lat="44.09272" lon="5.78804">
        <ele>1313.5999755859</ele>
        <time>2021-09-04T06:45:08Z</time>
      </trkpt>
      <trkpt lat="44.0927" lon="5.78816">
        <ele>1313</ele>
        <time>2021-09-04T06:45:09Z</time>
      </trkpt>
      <trkpt lat="44.09262" lon="5.78841">
        <ele>1311.8000488281</ele>
        <time>2021-09-04T06:45:11Z</time>
      </trkpt>
      <trkpt lat="44.09253" lon="5.78865">
        <ele>1310.5999755859</ele>
        <time>2021-09-04T06:45:13Z</time>
      </trkpt>
      <trkpt lat="44.09245" lon="5.7889">
        <ele>1309.1999511719</ele>
        <time>2021-09-04T06:45:15Z</time>
      </trkpt>
      <trkpt lat="44.09237" lon="5.78916">
        <ele>1307.5999755859</ele>
        <time>2021-09-04T06:45:17Z</time>
      </trkpt>
      <trkpt lat="44.09233" lon="5.78936">
        <ele>1306.8000488281</ele>
        <time>2021-09-04T06:45:18Z</time>
      </trkpt>
      <trkpt lat="44.09232" lon="5.78953">
        <ele>1306</ele>
        <time>2021-09-04T06:45:19Z</time>
      </trkpt>
      <trkpt lat="44.09234" lon="5.78985">
        <ele>1304.5999755859</ele>
        <time>2021-09-04T06:45:21Z</time>
      </trkpt>
      <trkpt lat="44.09238" lon="5.79001">
        <ele>1303.8000488281</ele>
        <time>2021-09-04T06:45:22Z</time>
      </trkpt>
      <trkpt lat="44.09242" lon="5.79014">
        <ele>1302.8000488281</ele>
        <time>2021-09-04T06:45:23Z</time>
      </trkpt>
      <trkpt lat="44.09254" lon="5.79037">
        <ele>1301</ele>
        <time>2021-09-04T06:45:25Z</time>
      </trkpt>
      <trkpt lat="44.09262" lon="5.79046">
        <ele>1299.4000244141</ele>
        <time>2021-09-04T06:45:26Z</time>
      </trkpt>
      <trkpt lat="44.09271" lon="5.79054">
        <ele>1298.5999755859</ele>
        <time>2021-09-04T06:45:27Z</time>
      </trkpt>
      <trkpt lat="44.0928" lon="5.79061">
        <ele>1298</ele>
        <time>2021-09-04T06:45:28Z</time>
      </trkpt>
      <trkpt lat="44.093" lon="5.79072">
        <ele>1296.5999755859</ele>
        <time>2021-09-04T06:45:30Z</time>
      </trkpt>
      <trkpt lat="44.0932" lon="5.7908">
        <ele>1295.1999511719</ele>
        <time>2021-09-04T06:45:32Z</time>
      </trkpt>
      <trkpt lat="44.09342" lon="5.79085">
        <ele>1293.8000488281</ele>
        <time>2021-09-04T06:45:34Z</time>
      </trkpt>
      <trkpt lat="44.0936" lon="5.79083">
        <ele>1292.4000244141</ele>
        <time>2021-09-04T06:45:36Z</time>
      </trkpt>
      <trkpt lat="44.09375" lon="5.79088">
        <ele>1291</ele>
        <time>2021-09-04T06:45:38Z</time>
      </trkpt>
      <trkpt lat="44.09379" lon="5.79094">
        <ele>1290.1999511719</ele>
        <time>2021-09-04T06:45:39Z</time>
      </trkpt>
      <trkpt lat="44.09379" lon="5.79099">
        <ele>1289.4000244141</ele>
        <time>2021-09-04T06:45:40Z</time>
      </trkpt>
      <trkpt lat="44.09372" lon="5.79105">
        <ele>1288.5999755859</ele>
        <time>2021-09-04T06:45:41Z</time>
      </trkpt>
      <trkpt lat="44.09364" lon="5.79109">
        <ele>1287.8000488281</ele>
        <time>2021-09-04T06:45:42Z</time>
      </trkpt>
      <trkpt lat="44.09348" lon="5.79112">
        <ele>1286.5999755859</ele>
        <time>2021-09-04T06:45:44Z</time>
      </trkpt>
      <trkpt lat="44.0934" lon="5.79114">
        <ele>1286.1999511719</ele>
        <time>2021-09-04T06:45:45Z</time>
      </trkpt>
      <trkpt lat="44.09332" lon="5.79117">
        <ele>1285.8000488281</ele>
        <time>2021-09-04T06:45:46Z</time>
      </trkpt>
      <trkpt lat="44.09323" lon="5.79121">
        <ele>1285.1999511719</ele>
        <time>2021-09-04T06:45:47Z</time>
      </trkpt>
      <trkpt lat="44.09314" lon="5.79124">
        <ele>1284.5999755859</ele>
        <time>2021-09-04T06:45:48Z</time>
      </trkpt>
      <trkpt lat="44.09305" lon="5.79127">
        <ele>1284.1999511719</ele>
        <time>2021-09-04T06:45:49Z</time>
      </trkpt>
      <trkpt lat="44.09296" lon="5.79132">
        <ele>1283</ele>
        <time>2021-09-04T06:45:50Z</time>
      </trkpt>
      <trkpt lat="44.09278" lon="5.79142">
        <ele>1281.8000488281</ele>
        <time>2021-09-04T06:45:52Z</time>
      </trkpt>
      <trkpt lat="44.09269" lon="5.79147">
        <ele>1281.1999511719</ele>
        <time>2021-09-04T06:45:53Z</time>
      </trkpt>
      <trkpt lat="44.0926" lon="5.79152">
        <ele>1280.4000244141</ele>
        <time>2021-09-04T06:45:54Z</time>
      </trkpt>
      <trkpt lat="44.0924" lon="5.79165">
        <ele>1278.8000488281</ele>
        <time>2021-09-04T06:45:56Z</time>
      </trkpt>
      <trkpt lat="44.09218" lon="5.79181">
        <ele>1276.8000488281</ele>
        <time>2021-09-04T06:45:58Z</time>
      </trkpt>
      <trkpt lat="44.09207" lon="5.79189">
        <ele>1275.5999755859</ele>
        <time>2021-09-04T06:45:59Z</time>
      </trkpt>
      <trkpt lat="44.09196" lon="5.79196">
        <ele>1274.5999755859</ele>
        <time>2021-09-04T06:46:00Z</time>
      </trkpt>
      <trkpt lat="44.09185" lon="5.79204">
        <ele>1273.4000244141</ele>
        <time>2021-09-04T06:46:01Z</time>
      </trkpt>
      <trkpt lat="44.09174" lon="5.7921">
        <ele>1272.4000244141</ele>
        <time>2021-09-04T06:46:02Z</time>
      </trkpt>
      <trkpt lat="44.09163" lon="5.79217">
        <ele>1271.1999511719</ele>
        <time>2021-09-04T06:46:03Z</time>
      </trkpt>
      <trkpt lat="44.0915" lon="5.79226">
        <ele>1270</ele>
        <time>2021-09-04T06:46:04Z</time>
      </trkpt>
      <trkpt lat="44.09138" lon="5.79234">
        <ele>1268.8000488281</ele>
        <time>2021-09-04T06:46:05Z</time>
      </trkpt>
      <trkpt lat="44.09125" lon="5.79242">
        <ele>1267.4000244141</ele>
        <time>2021-09-04T06:46:06Z</time>
      </trkpt>
      <trkpt lat="44.09111" lon="5.79249">
        <ele>1266.1999511719</ele>
        <time>2021-09-04T06:46:07Z</time>
      </trkpt>
      <trkpt lat="44.09098" lon="5.79256">
        <ele>1264.8000488281</ele>
        <time>2021-09-04T06:46:08Z</time>
      </trkpt>
      <trkpt lat="44.09085" lon="5.79263">
        <ele>1263.4000244141</ele>
        <time>2021-09-04T06:46:09Z</time>
      </trkpt>
      <trkpt lat="44.09072" lon="5.79271">
        <ele>1262.1999511719</ele>
        <time>2021-09-04T06:46:10Z</time>
      </trkpt>
      <trkpt lat="44.0906" lon="5.79278">
        <ele>1260.8000488281</ele>
        <time>2021-09-04T06:46:11Z</time>
      </trkpt>
      <trkpt lat="44.09048" lon="5.79283">
        <ele>1259.4000244141</ele>
        <time>2021-09-04T06:46:12Z</time>
      </trkpt>
      <trkpt lat="44.09034" lon="5.79287">
        <ele>1258</ele>
        <time>2021-09-04T06:46:13Z</time>
      </trkpt>
      <trkpt lat="44.0902" lon="5.79289">
        <ele>1255.4000244141</ele>
        <time>2021-09-04T06:46:14Z</time>
      </trkpt>
      <trkpt lat="44.09007" lon="5.79288">
        <ele>1254</ele>
        <time>2021-09-04T06:46:15Z</time>
      </trkpt>
      <trkpt lat="44.08994" lon="5.79284">
        <ele>1252.8000488281</ele>
        <time>2021-09-04T06:46:16Z</time>
      </trkpt>
      <trkpt lat="44.08981" lon="5.79276">
        <ele>1251.5999755859</ele>
        <time>2021-09-04T06:46:17Z</time>
      </trkpt>
      <trkpt lat="44.0897" lon="5.79265">
        <ele>1250.4000244141</ele>
        <time>2021-09-04T06:46:18Z</time>
      </trkpt>
      <trkpt lat="44.08961" lon="5.79252">
        <ele>1249.4000244141</ele>
        <time>2021-09-04T06:46:19Z</time>
      </trkpt>
      <trkpt lat="44.08954" lon="5.79237">
        <ele>1248.4000244141</ele>
        <time>2021-09-04T06:46:20Z</time>
      </trkpt>
      <trkpt lat="44.08947" lon="5.79222">
        <ele>1247.4000244141</ele>
        <time>2021-09-04T06:46:21Z</time>
      </trkpt>
      <trkpt lat="44.0894" lon="5.79207">
        <ele>1246.4000244141</ele>
        <time>2021-09-04T06:46:22Z</time>
      </trkpt>
      <trkpt lat="44.08933" lon="5.79192">
        <ele>1245.4000244141</ele>
        <time>2021-09-04T06:46:23Z</time>
      </trkpt>
      <trkpt lat="44.08919" lon="5.79163">
        <ele>1243.5999755859</ele>
        <time>2021-09-04T06:46:25Z</time>
      </trkpt>
      <trkpt lat="44.08905" lon="5.79133">
        <ele>1241.8000488281</ele>
        <time>2021-09-04T06:46:27Z</time>
      </trkpt>
      <trkpt lat="44.08893" lon="5.791">
        <ele>1240</ele>
        <time>2021-09-04T06:46:29Z</time>
      </trkpt>
      <trkpt lat="44.0889" lon="5.79083">
        <ele>1239.1999511719</ele>
        <time>2021-09-04T06:46:30Z</time>
      </trkpt>
      <trkpt lat="44.08888" lon="5.79066">
        <ele>1238.1999511719</ele>
        <time>2021-09-04T06:46:31Z</time>
      </trkpt>
      <trkpt lat="44.08888" lon="5.79048">
        <ele>1237.1999511719</ele>
        <time>2021-09-04T06:46:32Z</time>
      </trkpt>
      <trkpt lat="44.08888" lon="5.7903">
        <ele>1236.1999511719</ele>
        <time>2021-09-04T06:46:33Z</time>
      </trkpt>
      <trkpt lat="44.08892" lon="5.78995">
        <ele>1234.4000244141</ele>
        <time>2021-09-04T06:46:35Z</time>
      </trkpt>
      <trkpt lat="44.089" lon="5.78963">
        <ele>1232.5999755859</ele>
        <time>2021-09-04T06:46:37Z</time>
      </trkpt>
      <trkpt lat="44.08904" lon="5.78946">
        <ele>1230.8000488281</ele>
        <time>2021-09-04T06:46:38Z</time>
      </trkpt>
      <trkpt lat="44.08909" lon="5.7893">
        <ele>1230</ele>
        <time>2021-09-04T06:46:39Z</time>
      </trkpt>
      <trkpt lat="44.08913" lon="5.78914">
        <ele>1229.1999511719</ele>
        <time>2021-09-04T06:46:40Z</time>
      </trkpt>
      <trkpt lat="44.08924" lon="5.78882">
        <ele>1227.5999755859</ele>
        <time>2021-09-04T06:46:42Z</time>
      </trkpt>
      <trkpt lat="44.08935" lon="5.78852">
        <ele>1225.8000488281</ele>
        <time>2021-09-04T06:46:44Z</time>
      </trkpt>
      <trkpt lat="44.0895" lon="5.78829">
        <ele>1224</ele>
        <time>2021-09-04T06:46:46Z</time>
      </trkpt>
      <trkpt lat="44.08959" lon="5.78821">
        <ele>1223.1999511719</ele>
        <time>2021-09-04T06:46:47Z</time>
      </trkpt>
      <trkpt lat="44.08966" lon="5.78814">
        <ele>1222.1999511719</ele>
        <time>2021-09-04T06:46:48Z</time>
      </trkpt>
      <trkpt lat="44.0897" lon="5.78807">
        <ele>1221.4000244141</ele>
        <time>2021-09-04T06:46:49Z</time>
      </trkpt>
      <trkpt lat="44.08971" lon="5.78799">
        <ele>1220.5999755859</ele>
        <time>2021-09-04T06:46:50Z</time>
      </trkpt>
      <trkpt lat="44.08962" lon="5.78782">
        <ele>1219</ele>
        <time>2021-09-04T06:46:52Z</time>
      </trkpt>
      <trkpt lat="44.08944" lon="5.78779">
        <ele>1217.4000244141</ele>
        <time>2021-09-04T06:46:54Z</time>
      </trkpt>
      <trkpt lat="44.08935" lon="5.78779">
        <ele>1216.8000488281</ele>
        <time>2021-09-04T06:46:55Z</time>
      </trkpt>
      <trkpt lat="44.08925" lon="5.78778">
        <ele>1216</ele>
        <time>2021-09-04T06:46:56Z</time>
      </trkpt>
      <trkpt lat="44.08905" lon="5.78782">
        <ele>1215</ele>
        <time>2021-09-04T06:46:58Z</time>
      </trkpt>
      <trkpt lat="44.08886" lon="5.78791">
        <ele>1213.8000488281</ele>
        <time>2021-09-04T06:47:00Z</time>
      </trkpt>
      <trkpt lat="44.08866" lon="5.78802">
        <ele>1212.1999511719</ele>
        <time>2021-09-04T06:47:02Z</time>
      </trkpt>
      <trkpt lat="44.08847" lon="5.78815">
        <ele>1210.8000488281</ele>
        <time>2021-09-04T06:47:04Z</time>
      </trkpt>
      <trkpt lat="44.08826" lon="5.78828">
        <ele>1209.5999755859</ele>
        <time>2021-09-04T06:47:06Z</time>
      </trkpt>
      <trkpt lat="44.08804" lon="5.78838">
        <ele>1208</ele>
        <time>2021-09-04T06:47:08Z</time>
      </trkpt>
      <trkpt lat="44.08793" lon="5.78842">
        <ele>1207.1999511719</ele>
        <time>2021-09-04T06:47:09Z</time>
      </trkpt>
      <trkpt lat="44.08781" lon="5.78846">
        <ele>1206.4000244141</ele>
        <time>2021-09-04T06:47:10Z</time>
      </trkpt>
      <trkpt lat="44.08757" lon="5.78851">
        <ele>1204.8000488281</ele>
        <time>2021-09-04T06:47:12Z</time>
      </trkpt>
      <trkpt lat="44.08733" lon="5.78854">
        <ele>1203.4000244141</ele>
        <time>2021-09-04T06:47:14Z</time>
      </trkpt>
      <trkpt lat="44.08708" lon="5.78854">
        <ele>1201.8000488281</ele>
        <time>2021-09-04T06:47:16Z</time>
      </trkpt>
      <trkpt lat="44.08684" lon="5.78854">
        <ele>1200.4000244141</ele>
        <time>2021-09-04T06:47:18Z</time>
      </trkpt>
      <trkpt lat="44.08672" lon="5.78854">
        <ele>1199.5999755859</ele>
        <time>2021-09-04T06:47:19Z</time>
      </trkpt>
      <trkpt lat="44.08659" lon="5.78854">
        <ele>1199</ele>
        <time>2021-09-04T06:47:20Z</time>
      </trkpt>
      <trkpt lat="44.08635" lon="5.78853">
        <ele>1197.4000244141</ele>
        <time>2021-09-04T06:47:22Z</time>
      </trkpt>
      <trkpt lat="44.08611" lon="5.78851">
        <ele>1196</ele>
        <time>2021-09-04T06:47:24Z</time>
      </trkpt>
      <trkpt lat="44.08587" lon="5.78852">
        <ele>1193.8000488281</ele>
        <time>2021-09-04T06:47:26Z</time>
      </trkpt>
      <trkpt lat="44.08563" lon="5.78851">
        <ele>1192.1999511719</ele>
        <time>2021-09-04T06:47:28Z</time>
      </trkpt>
      <trkpt lat="44.0854" lon="5.78851">
        <ele>1190.5999755859</ele>
        <time>2021-09-04T06:47:30Z</time>
      </trkpt>
      <trkpt lat="44.08517" lon="5.7885">
        <ele>1189</ele>
        <time>2021-09-04T06:47:32Z</time>
      </trkpt>
      <trkpt lat="44.08494" lon="5.7885">
        <ele>1187.8000488281</ele>
        <time>2021-09-04T06:47:34Z</time>
      </trkpt>
      <trkpt lat="44.08471" lon="5.7885">
        <ele>1186.4000244141</ele>
        <time>2021-09-04T06:47:36Z</time>
      </trkpt>
      <trkpt lat="44.08448" lon="5.78849">
        <ele>1185</ele>
        <time>2021-09-04T06:47:38Z</time>
      </trkpt>
      <trkpt lat="44.08425" lon="5.78849">
        <ele>1183.8000488281</ele>
        <time>2021-09-04T06:47:40Z</time>
      </trkpt>
      <trkpt lat="44.08402" lon="5.78848">
        <ele>1182.4000244141</ele>
        <time>2021-09-04T06:47:42Z</time>
      </trkpt>
      <trkpt lat="44.0838" lon="5.78844">
        <ele>1181</ele>
        <time>2021-09-04T06:47:44Z</time>
      </trkpt>
      <trkpt lat="44.08369" lon="5.7884">
        <ele>1180.4000244141</ele>
        <time>2021-09-04T06:47:45Z</time>
      </trkpt>
      <trkpt lat="44.08358" lon="5.78835">
        <ele>1179.5999755859</ele>
        <time>2021-09-04T06:47:46Z</time>
      </trkpt>
      <trkpt lat="44.08336" lon="5.78822">
        <ele>1178</ele>
        <time>2021-09-04T06:47:48Z</time>
      </trkpt>
      <trkpt lat="44.08326" lon="5.78815">
        <ele>1177.1999511719</ele>
        <time>2021-09-04T06:47:49Z</time>
      </trkpt>
      <trkpt lat="44.08316" lon="5.78808">
        <ele>1175.8000488281</ele>
        <time>2021-09-04T06:47:50Z</time>
      </trkpt>
      <trkpt lat="44.08295" lon="5.78794">
        <ele>1174.5999755859</ele>
        <time>2021-09-04T06:47:52Z</time>
      </trkpt>
      <trkpt lat="44.08274" lon="5.7878">
        <ele>1173.1999511719</ele>
        <time>2021-09-04T06:47:54Z</time>
      </trkpt>
      <trkpt lat="44.08254" lon="5.78766">
        <ele>1171.8000488281</ele>
        <time>2021-09-04T06:47:56Z</time>
      </trkpt>
      <trkpt lat="44.08234" lon="5.78751">
        <ele>1170.4000244141</ele>
        <time>2021-09-04T06:47:58Z</time>
      </trkpt>
      <trkpt lat="44.08214" lon="5.78737">
        <ele>1169</ele>
        <time>2021-09-04T06:48:00Z</time>
      </trkpt>
      <trkpt lat="44.08205" lon="5.78727">
        <ele>1168.4000244141</ele>
        <time>2021-09-04T06:48:01Z</time>
      </trkpt>
      <trkpt lat="44.08197" lon="5.78717">
        <ele>1167.8000488281</ele>
        <time>2021-09-04T06:48:02Z</time>
      </trkpt>
      <trkpt lat="44.0819" lon="5.78706">
        <ele>1167.1999511719</ele>
        <time>2021-09-04T06:48:03Z</time>
      </trkpt>
      <trkpt lat="44.08183" lon="5.78693">
        <ele>1166.4000244141</ele>
        <time>2021-09-04T06:48:04Z</time>
      </trkpt>
      <trkpt lat="44.08177" lon="5.78679">
        <ele>1165.8000488281</ele>
        <time>2021-09-04T06:48:05Z</time>
      </trkpt>
      <trkpt lat="44.0817" lon="5.78668">
        <ele>1165</ele>
        <time>2021-09-04T06:48:06Z</time>
      </trkpt>
      <trkpt lat="44.08162" lon="5.78659">
        <ele>1164.1999511719</ele>
        <time>2021-09-04T06:48:07Z</time>
      </trkpt>
      <trkpt lat="44.08152" lon="5.78657">
        <ele>1163.5999755859</ele>
        <time>2021-09-04T06:48:08Z</time>
      </trkpt>
      <trkpt lat="44.08143" lon="5.78661">
        <ele>1163</ele>
        <time>2021-09-04T06:48:09Z</time>
      </trkpt>
      <trkpt lat="44.08135" lon="5.7867">
        <ele>1162.1999511719</ele>
        <time>2021-09-04T06:48:10Z</time>
      </trkpt>
      <trkpt lat="44.08131" lon="5.78682">
        <ele>1161.5999755859</ele>
        <time>2021-09-04T06:48:11Z</time>
      </trkpt>
      <trkpt lat="44.08131" lon="5.78696">
        <ele>1161</ele>
        <time>2021-09-04T06:48:12Z</time>
      </trkpt>
      <trkpt lat="44.08133" lon="5.7871">
        <ele>1160.4000244141</ele>
        <time>2021-09-04T06:48:13Z</time>
      </trkpt>
      <trkpt lat="44.08136" lon="5.78723">
        <ele>1159.1999511719</ele>
        <time>2021-09-04T06:48:14Z</time>
      </trkpt>
      <trkpt lat="44.08139" lon="5.78736">
        <ele>1158.5999755859</ele>
        <time>2021-09-04T06:48:15Z</time>
      </trkpt>
      <trkpt lat="44.08142" lon="5.78749">
        <ele>1158</ele>
        <time>2021-09-04T06:48:16Z</time>
      </trkpt>
      <trkpt lat="44.08145" lon="5.78761">
        <ele>1157.5999755859</ele>
        <time>2021-09-04T06:48:17Z</time>
      </trkpt>
      <trkpt lat="44.08154" lon="5.78786">
        <ele>1156.5999755859</ele>
        <time>2021-09-04T06:48:19Z</time>
      </trkpt>
      <trkpt lat="44.08168" lon="5.78822">
        <ele>1155.1999511719</ele>
        <time>2021-09-04T06:48:22Z</time>
      </trkpt>
      <trkpt lat="44.08174" lon="5.78834">
        <ele>1154.5999755859</ele>
        <time>2021-09-04T06:48:23Z</time>
      </trkpt>
      <trkpt lat="44.0818" lon="5.78846">
        <ele>1154</ele>
        <time>2021-09-04T06:48:24Z</time>
      </trkpt>
      <trkpt lat="44.08192" lon="5.78868">
        <ele>1153</ele>
        <time>2021-09-04T06:48:26Z</time>
      </trkpt>
      <trkpt lat="44.08206" lon="5.7889">
        <ele>1151.8000488281</ele>
        <time>2021-09-04T06:48:28Z</time>
      </trkpt>
      <trkpt lat="44.0822" lon="5.78911">
        <ele>1150.5999755859</ele>
        <time>2021-09-04T06:48:30Z</time>
      </trkpt>
      <trkpt lat="44.08235" lon="5.7893">
        <ele>1149.4000244141</ele>
        <time>2021-09-04T06:48:32Z</time>
      </trkpt>
      <trkpt lat="44.08253" lon="5.78946">
        <ele>1148.4000244141</ele>
        <time>2021-09-04T06:48:34Z</time>
      </trkpt>
      <trkpt lat="44.08271" lon="5.7896">
        <ele>1147.1999511719</ele>
        <time>2021-09-04T06:48:36Z</time>
      </trkpt>
      <trkpt lat="44.08286" lon="5.78975">
        <ele>1145.4000244141</ele>
        <time>2021-09-04T06:48:38Z</time>
      </trkpt>
      <trkpt lat="44.08289" lon="5.78991">
        <ele>1144</ele>
        <time>2021-09-04T06:48:40Z</time>
      </trkpt>
      <trkpt lat="44.08272" lon="5.78999">
        <ele>1142.5999755859</ele>
        <time>2021-09-04T06:48:42Z</time>
      </trkpt>
      <trkpt lat="44.08256" lon="5.78989">
        <ele>1141.4000244141</ele>
        <time>2021-09-04T06:48:44Z</time>
      </trkpt>
      <trkpt lat="44.08247" lon="5.78984">
        <ele>1140.5999755859</ele>
        <time>2021-09-04T06:48:45Z</time>
      </trkpt>
      <trkpt lat="44.08238" lon="5.78979">
        <ele>1140.1999511719</ele>
        <time>2021-09-04T06:48:46Z</time>
      </trkpt>
      <trkpt lat="44.08211" lon="5.78966">
        <ele>1138.8000488281</ele>
        <time>2021-09-04T06:48:49Z</time>
      </trkpt>
      <trkpt lat="44.08182" lon="5.78951">
        <ele>1137.1999511719</ele>
        <time>2021-09-04T06:48:52Z</time>
      </trkpt>
      <trkpt lat="44.08163" lon="5.78944">
        <ele>1136</ele>
        <time>2021-09-04T06:48:54Z</time>
      </trkpt>
      <trkpt lat="44.08142" lon="5.78939">
        <ele>1135</ele>
        <time>2021-09-04T06:48:56Z</time>
      </trkpt>
      <trkpt lat="44.08121" lon="5.78933">
        <ele>1133.8000488281</ele>
        <time>2021-09-04T06:48:58Z</time>
      </trkpt>
      <trkpt lat="44.081" lon="5.78929">
        <ele>1132.4000244141</ele>
        <time>2021-09-04T06:49:00Z</time>
      </trkpt>
      <trkpt lat="44.08078" lon="5.78923">
        <ele>1130.5999755859</ele>
        <time>2021-09-04T06:49:02Z</time>
      </trkpt>
      <trkpt lat="44.08056" lon="5.78918">
        <ele>1129.1999511719</ele>
        <time>2021-09-04T06:49:04Z</time>
      </trkpt>
      <trkpt lat="44.08034" lon="5.78914">
        <ele>1127.8000488281</ele>
        <time>2021-09-04T06:49:06Z</time>
      </trkpt>
      <trkpt lat="44.08022" lon="5.78912">
        <ele>1127.1999511719</ele>
        <time>2021-09-04T06:49:07Z</time>
      </trkpt>
      <trkpt lat="44.08012" lon="5.78908">
        <ele>1126.4000244141</ele>
        <time>2021-09-04T06:49:08Z</time>
      </trkpt>
      <trkpt lat="44.0799" lon="5.78901">
        <ele>1125</ele>
        <time>2021-09-04T06:49:10Z</time>
      </trkpt>
      <trkpt lat="44.07978" lon="5.78898">
        <ele>1124.4000244141</ele>
        <time>2021-09-04T06:49:11Z</time>
      </trkpt>
      <trkpt lat="44.07967" lon="5.78895">
        <ele>1123.5999755859</ele>
        <time>2021-09-04T06:49:12Z</time>
      </trkpt>
      <trkpt lat="44.07944" lon="5.7889">
        <ele>1122.4000244141</ele>
        <time>2021-09-04T06:49:14Z</time>
      </trkpt>
      <trkpt lat="44.07921" lon="5.78885">
        <ele>1120.8000488281</ele>
        <time>2021-09-04T06:49:16Z</time>
      </trkpt>
      <trkpt lat="44.0791" lon="5.78882">
        <ele>1120</ele>
        <time>2021-09-04T06:49:17Z</time>
      </trkpt>
      <trkpt lat="44.07899" lon="5.78879">
        <ele>1119.4000244141</ele>
        <time>2021-09-04T06:49:18Z</time>
      </trkpt>
      <trkpt lat="44.07876" lon="5.78874">
        <ele>1118</ele>
        <time>2021-09-04T06:49:20Z</time>
      </trkpt>
      <trkpt lat="44.07854" lon="5.78869">
        <ele>1116.8000488281</ele>
        <time>2021-09-04T06:49:22Z</time>
      </trkpt>
      <trkpt lat="44.07832" lon="5.78862">
        <ele>1115.4000244141</ele>
        <time>2021-09-04T06:49:24Z</time>
      </trkpt>
      <trkpt lat="44.07811" lon="5.78849">
        <ele>1113</ele>
        <time>2021-09-04T06:49:26Z</time>
      </trkpt>
      <trkpt lat="44.07792" lon="5.78833">
        <ele>1111.4000244141</ele>
        <time>2021-09-04T06:49:28Z</time>
      </trkpt>
      <trkpt lat="44.07773" lon="5.78816">
        <ele>1110</ele>
        <time>2021-09-04T06:49:30Z</time>
      </trkpt>
      <trkpt lat="44.07755" lon="5.788">
        <ele>1108.5999755859</ele>
        <time>2021-09-04T06:49:32Z</time>
      </trkpt>
      <trkpt lat="44.07746" lon="5.78797">
        <ele>1107.8000488281</ele>
        <time>2021-09-04T06:49:33Z</time>
      </trkpt>
      <trkpt lat="44.07737" lon="5.78801">
        <ele>1107.1999511719</ele>
        <time>2021-09-04T06:49:34Z</time>
      </trkpt>
      <trkpt lat="44.0773" lon="5.78811">
        <ele>1106.4000244141</ele>
        <time>2021-09-04T06:49:35Z</time>
      </trkpt>
      <trkpt lat="44.07725" lon="5.78823">
        <ele>1105.5999755859</ele>
        <time>2021-09-04T06:49:36Z</time>
      </trkpt>
      <trkpt lat="44.07722" lon="5.78838">
        <ele>1104.8000488281</ele>
        <time>2021-09-04T06:49:37Z</time>
      </trkpt>
      <trkpt lat="44.07722" lon="5.78852">
        <ele>1104</ele>
        <time>2021-09-04T06:49:38Z</time>
      </trkpt>
      <trkpt lat="44.0772" lon="5.78881">
        <ele>1102.8000488281</ele>
        <time>2021-09-04T06:49:40Z</time>
      </trkpt>
      <trkpt lat="44.07718" lon="5.7891">
        <ele>1101.4000244141</ele>
        <time>2021-09-04T06:49:42Z</time>
      </trkpt>
      <trkpt lat="44.07716" lon="5.78939">
        <ele>1100.1999511719</ele>
        <time>2021-09-04T06:49:44Z</time>
      </trkpt>
      <trkpt lat="44.0771" lon="5.78953">
        <ele>1099.5999755859</ele>
        <time>2021-09-04T06:49:45Z</time>
      </trkpt>
      <trkpt lat="44.07703" lon="5.78965">
        <ele>1099.1999511719</ele>
        <time>2021-09-04T06:49:46Z</time>
      </trkpt>
      <trkpt lat="44.07693" lon="5.78973">
        <ele>1098.5999755859</ele>
        <time>2021-09-04T06:49:47Z</time>
      </trkpt>
      <trkpt lat="44.07682" lon="5.78978">
        <ele>1097.8000488281</ele>
        <time>2021-09-04T06:49:48Z</time>
      </trkpt>
      <trkpt lat="44.07671" lon="5.7898">
        <ele>1097.1999511719</ele>
        <time>2021-09-04T06:49:49Z</time>
      </trkpt>
      <trkpt lat="44.07659" lon="5.78978">
        <ele>1095.5999755859</ele>
        <time>2021-09-04T06:49:50Z</time>
      </trkpt>
      <trkpt lat="44.07648" lon="5.78974">
        <ele>1095</ele>
        <time>2021-09-04T06:49:51Z</time>
      </trkpt>
      <trkpt lat="44.07638" lon="5.78968">
        <ele>1094.4000244141</ele>
        <time>2021-09-04T06:49:52Z</time>
      </trkpt>
      <trkpt lat="44.07627" lon="5.78964">
        <ele>1093.8000488281</ele>
        <time>2021-09-04T06:49:53Z</time>
      </trkpt>
      <trkpt lat="44.07616" lon="5.78959">
        <ele>1093.1999511719</ele>
        <time>2021-09-04T06:49:54Z</time>
      </trkpt>
      <trkpt lat="44.07606" lon="5.78954">
        <ele>1092.5999755859</ele>
        <time>2021-09-04T06:49:55Z</time>
      </trkpt>
      <trkpt lat="44.07595" lon="5.78949">
        <ele>1091.8000488281</ele>
        <time>2021-09-04T06:49:56Z</time>
      </trkpt>
      <trkpt lat="44.07574" lon="5.78939">
        <ele>1090.5999755859</ele>
        <time>2021-09-04T06:49:58Z</time>
      </trkpt>
      <trkpt lat="44.07563" lon="5.78937">
        <ele>1089.8000488281</ele>
        <time>2021-09-04T06:49:59Z</time>
      </trkpt>
      <trkpt lat="44.07552" lon="5.78938">
        <ele>1089.1999511719</ele>
        <time>2021-09-04T06:50:00Z</time>
      </trkpt>
      <trkpt lat="44.07532" lon="5.78951">
        <ele>1087.8000488281</ele>
        <time>2021-09-04T06:50:02Z</time>
      </trkpt>
      <trkpt lat="44.07518" lon="5.78977">
        <ele>1086.4000244141</ele>
        <time>2021-09-04T06:50:04Z</time>
      </trkpt>
      <trkpt lat="44.07514" lon="5.7901">
        <ele>1085</ele>
        <time>2021-09-04T06:50:06Z</time>
      </trkpt>
      <trkpt lat="44.07519" lon="5.79042">
        <ele>1083.5999755859</ele>
        <time>2021-09-04T06:50:08Z</time>
      </trkpt>
      <trkpt lat="44.07521" lon="5.79058">
        <ele>1083</ele>
        <time>2021-09-04T06:50:09Z</time>
      </trkpt>
      <trkpt lat="44.07523" lon="5.79074">
        <ele>1082.4000244141</ele>
        <time>2021-09-04T06:50:10Z</time>
      </trkpt>
      <trkpt lat="44.07526" lon="5.79107">
        <ele>1081</ele>
        <time>2021-09-04T06:50:12Z</time>
      </trkpt>
      <trkpt lat="44.07531" lon="5.79138">
        <ele>1079.4000244141</ele>
        <time>2021-09-04T06:50:14Z</time>
      </trkpt>
      <trkpt lat="44.07533" lon="5.79154">
        <ele>1077.8000488281</ele>
        <time>2021-09-04T06:50:15Z</time>
      </trkpt>
      <trkpt lat="44.07535" lon="5.7917">
        <ele>1077</ele>
        <time>2021-09-04T06:50:16Z</time>
      </trkpt>
      <trkpt lat="44.07538" lon="5.79186">
        <ele>1076.1999511719</ele>
        <time>2021-09-04T06:50:17Z</time>
      </trkpt>
      <trkpt lat="44.07542" lon="5.79218">
        <ele>1075</ele>
        <time>2021-09-04T06:50:19Z</time>
      </trkpt>
      <trkpt lat="44.07547" lon="5.7925">
        <ele>1073.5999755859</ele>
        <time>2021-09-04T06:50:21Z</time>
      </trkpt>
      <trkpt lat="44.07552" lon="5.79282">
        <ele>1072.1999511719</ele>
        <time>2021-09-04T06:50:23Z</time>
      </trkpt>
      <trkpt lat="44.07555" lon="5.79298">
        <ele>1071.4000244141</ele>
        <time>2021-09-04T06:50:24Z</time>
      </trkpt>
      <trkpt lat="44.07557" lon="5.79314">
        <ele>1070.5999755859</ele>
        <time>2021-09-04T06:50:25Z</time>
      </trkpt>
      <trkpt lat="44.0756" lon="5.79346">
        <ele>1069</ele>
        <time>2021-09-04T06:50:27Z</time>
      </trkpt>
      <trkpt lat="44.07559" lon="5.79378">
        <ele>1067.4000244141</ele>
        <time>2021-09-04T06:50:29Z</time>
      </trkpt>
      <trkpt lat="44.07555" lon="5.7941">
        <ele>1066</ele>
        <time>2021-09-04T06:50:31Z</time>
      </trkpt>
      <trkpt lat="44.07553" lon="5.79442">
        <ele>1064.5999755859</ele>
        <time>2021-09-04T06:50:33Z</time>
      </trkpt>
      <trkpt lat="44.07552" lon="5.79469">
        <ele>1063.1999511719</ele>
        <time>2021-09-04T06:50:35Z</time>
      </trkpt>
      <trkpt lat="44.0755" lon="5.79482">
        <ele>1062.5999755859</ele>
        <time>2021-09-04T06:50:36Z</time>
      </trkpt>
      <trkpt lat="44.07544" lon="5.7949">
        <ele>1061.8000488281</ele>
        <time>2021-09-04T06:50:37Z</time>
      </trkpt>
      <trkpt lat="44.07526" lon="5.79489">
        <ele>1059.8000488281</ele>
        <time>2021-09-04T06:50:39Z</time>
      </trkpt>
      <trkpt lat="44.07519" lon="5.79478">
        <ele>1059</ele>
        <time>2021-09-04T06:50:40Z</time>
      </trkpt>
      <trkpt lat="44.07515" lon="5.79465">
        <ele>1058.4000244141</ele>
        <time>2021-09-04T06:50:41Z</time>
      </trkpt>
      <trkpt lat="44.07508" lon="5.79441">
        <ele>1057</ele>
        <time>2021-09-04T06:50:43Z</time>
      </trkpt>
      <trkpt lat="44.07499" lon="5.79416">
        <ele>1055.8000488281</ele>
        <time>2021-09-04T06:50:45Z</time>
      </trkpt>
      <trkpt lat="44.0749" lon="5.79392">
        <ele>1054.8000488281</ele>
        <time>2021-09-04T06:50:47Z</time>
      </trkpt>
      <trkpt lat="44.07484" lon="5.7938">
        <ele>1054.1999511719</ele>
        <time>2021-09-04T06:50:48Z</time>
      </trkpt>
      <trkpt lat="44.07477" lon="5.7937">
        <ele>1053.5999755859</ele>
        <time>2021-09-04T06:50:49Z</time>
      </trkpt>
      <trkpt lat="44.0747" lon="5.79358">
        <ele>1053.1999511719</ele>
        <time>2021-09-04T06:50:50Z</time>
      </trkpt>
      <trkpt lat="44.07463" lon="5.79347">
        <ele>1052.5999755859</ele>
        <time>2021-09-04T06:50:51Z</time>
      </trkpt>
      <trkpt lat="44.07449" lon="5.79325">
        <ele>1051.5999755859</ele>
        <time>2021-09-04T06:50:53Z</time>
      </trkpt>
      <trkpt lat="44.07435" lon="5.79303">
        <ele>1050.4000244141</ele>
        <time>2021-09-04T06:50:55Z</time>
      </trkpt>
      <trkpt lat="44.07421" lon="5.79281">
        <ele>1049.1999511719</ele>
        <time>2021-09-04T06:50:57Z</time>
      </trkpt>
      <trkpt lat="44.07414" lon="5.7927">
        <ele>1048.5999755859</ele>
        <time>2021-09-04T06:50:58Z</time>
      </trkpt>
      <trkpt lat="44.07407" lon="5.79259">
        <ele>1048.1999511719</ele>
        <time>2021-09-04T06:50:59Z</time>
      </trkpt>
      <trkpt lat="44.07393" lon="5.79237">
        <ele>1047</ele>
        <time>2021-09-04T06:51:01Z</time>
      </trkpt>
      <trkpt lat="44.07378" lon="5.79215">
        <ele>1045.4000244141</ele>
        <time>2021-09-04T06:51:03Z</time>
      </trkpt>
      <trkpt lat="44.0737" lon="5.79205">
        <ele>1044.8000488281</ele>
        <time>2021-09-04T06:51:04Z</time>
      </trkpt>
      <trkpt lat="44.07363" lon="5.79195">
        <ele>1044.1999511719</ele>
        <time>2021-09-04T06:51:05Z</time>
      </trkpt>
      <trkpt lat="44.07354" lon="5.79187">
        <ele>1043.5999755859</ele>
        <time>2021-09-04T06:51:06Z</time>
      </trkpt>
      <trkpt lat="44.07344" lon="5.7918">
        <ele>1043</ele>
        <time>2021-09-04T06:51:07Z</time>
      </trkpt>
      <trkpt lat="44.07334" lon="5.79174">
        <ele>1042.4000244141</ele>
        <time>2021-09-04T06:51:08Z</time>
      </trkpt>
      <trkpt lat="44.07324" lon="5.79168">
        <ele>1041.8000488281</ele>
        <time>2021-09-04T06:51:09Z</time>
      </trkpt>
      <trkpt lat="44.07303" lon="5.79157">
        <ele>1040.4000244141</ele>
        <time>2021-09-04T06:51:11Z</time>
      </trkpt>
      <trkpt lat="44.07282" lon="5.79147">
        <ele>1039.1999511719</ele>
        <time>2021-09-04T06:51:13Z</time>
      </trkpt>
      <trkpt lat="44.0726" lon="5.79137">
        <ele>1037.8000488281</ele>
        <time>2021-09-04T06:51:15Z</time>
      </trkpt>
      <trkpt lat="44.07239" lon="5.79129">
        <ele>1036.1999511719</ele>
        <time>2021-09-04T06:51:17Z</time>
      </trkpt>
      <trkpt lat="44.07218" lon="5.79119">
        <ele>1034.8000488281</ele>
        <time>2021-09-04T06:51:19Z</time>
      </trkpt>
      <trkpt lat="44.07197" lon="5.79105">
        <ele>1033.4000244141</ele>
        <time>2021-09-04T06:51:21Z</time>
      </trkpt>
      <trkpt lat="44.07178" lon="5.79088">
        <ele>1032</ele>
        <time>2021-09-04T06:51:23Z</time>
      </trkpt>
      <trkpt lat="44.07158" lon="5.79071">
        <ele>1030.5999755859</ele>
        <time>2021-09-04T06:51:25Z</time>
      </trkpt>
      <trkpt lat="44.07139" lon="5.79054">
        <ele>1028.1999511719</ele>
        <time>2021-09-04T06:51:27Z</time>
      </trkpt>
      <trkpt lat="44.07119" lon="5.79037">
        <ele>1026.8000488281</ele>
        <time>2021-09-04T06:51:29Z</time>
      </trkpt>
      <trkpt lat="44.071" lon="5.7902">
        <ele>1025.4000244141</ele>
        <time>2021-09-04T06:51:31Z</time>
      </trkpt>
      <trkpt lat="44.07081" lon="5.79004">
        <ele>1024.1999511719</ele>
        <time>2021-09-04T06:51:33Z</time>
      </trkpt>
      <trkpt lat="44.07071" lon="5.78996">
        <ele>1023.5999755859</ele>
        <time>2021-09-04T06:51:34Z</time>
      </trkpt>
      <trkpt lat="44.07061" lon="5.78988">
        <ele>1023</ele>
        <time>2021-09-04T06:51:35Z</time>
      </trkpt>
      <trkpt lat="44.07043" lon="5.78971">
        <ele>1021.5999755859</ele>
        <time>2021-09-04T06:51:37Z</time>
      </trkpt>
      <trkpt lat="44.07023" lon="5.78954">
        <ele>1020.4000244141</ele>
        <time>2021-09-04T06:51:39Z</time>
      </trkpt>
      <trkpt lat="44.07005" lon="5.78935">
        <ele>1019</ele>
        <time>2021-09-04T06:51:41Z</time>
      </trkpt>
      <trkpt lat="44.06996" lon="5.78926">
        <ele>1018.200012207</ele>
        <time>2021-09-04T06:51:42Z</time>
      </trkpt>
      <trkpt lat="44.06986" lon="5.78917">
        <ele>1017.5999755859</ele>
        <time>2021-09-04T06:51:43Z</time>
      </trkpt>
      <trkpt lat="44.06969" lon="5.78897">
        <ele>1016.200012207</ele>
        <time>2021-09-04T06:51:45Z</time>
      </trkpt>
      <trkpt lat="44.06954" lon="5.78874">
        <ele>1014.799987793</ele>
        <time>2021-09-04T06:51:47Z</time>
      </trkpt>
      <trkpt lat="44.06949" lon="5.7886">
        <ele>1014</ele>
        <time>2021-09-04T06:51:48Z</time>
      </trkpt>
      <trkpt lat="44.06945" lon="5.78846">
        <ele>1013.4000244141</ele>
        <time>2021-09-04T06:51:49Z</time>
      </trkpt>
      <trkpt lat="44.06936" lon="5.78819">
        <ele>1011.4000244141</ele>
        <time>2021-09-04T06:51:51Z</time>
      </trkpt>
      <trkpt lat="44.06932" lon="5.78807">
        <ele>1010.799987793</ele>
        <time>2021-09-04T06:51:52Z</time>
      </trkpt>
      <trkpt lat="44.06926" lon="5.78798">
        <ele>1010.200012207</ele>
        <time>2021-09-04T06:51:53Z</time>
      </trkpt>
      <trkpt lat="44.06908" lon="5.7879">
        <ele>1009.200012207</ele>
        <time>2021-09-04T06:51:55Z</time>
      </trkpt>
      <trkpt lat="44.06893" lon="5.78803">
        <ele>1008</ele>
        <time>2021-09-04T06:51:57Z</time>
      </trkpt>
      <trkpt lat="44.06888" lon="5.78829">
        <ele>1006.4000244141</ele>
        <time>2021-09-04T06:51:59Z</time>
      </trkpt>
      <trkpt lat="44.06888" lon="5.78857">
        <ele>1005</ele>
        <time>2021-09-04T06:52:01Z</time>
      </trkpt>
      <trkpt lat="44.06889" lon="5.78871">
        <ele>1004.4000244141</ele>
        <time>2021-09-04T06:52:02Z</time>
      </trkpt>
      <trkpt lat="44.0689" lon="5.78886">
        <ele>1003.799987793</ele>
        <time>2021-09-04T06:52:03Z</time>
      </trkpt>
      <trkpt lat="44.06893" lon="5.78915">
        <ele>1002.5999755859</ele>
        <time>2021-09-04T06:52:05Z</time>
      </trkpt>
      <trkpt lat="44.06896" lon="5.78944">
        <ele>1001.5999755859</ele>
        <time>2021-09-04T06:52:07Z</time>
      </trkpt>
      <trkpt lat="44.069" lon="5.78957">
        <ele>1001</ele>
        <time>2021-09-04T06:52:08Z</time>
      </trkpt>
      <trkpt lat="44.06904" lon="5.78971">
        <ele>1000.200012207</ele>
        <time>2021-09-04T06:52:09Z</time>
      </trkpt>
      <trkpt lat="44.06911" lon="5.78999">
        <ele>999.20001220703</ele>
        <time>2021-09-04T06:52:11Z</time>
      </trkpt>
      <trkpt lat="44.06919" lon="5.79027">
        <ele>997.79998779297</ele>
        <time>2021-09-04T06:52:13Z</time>
      </trkpt>
      <trkpt lat="44.06923" lon="5.79041">
        <ele>997.20001220703</ele>
        <time>2021-09-04T06:52:14Z</time>
      </trkpt>
      <trkpt lat="44.06927" lon="5.79055">
        <ele>996</ele>
        <time>2021-09-04T06:52:15Z</time>
      </trkpt>
      <trkpt lat="44.06935" lon="5.79083">
        <ele>994.59997558594</ele>
        <time>2021-09-04T06:52:17Z</time>
      </trkpt>
      <trkpt lat="44.06943" lon="5.79112">
        <ele>993.40002441406</ele>
        <time>2021-09-04T06:52:19Z</time>
      </trkpt>
      <trkpt lat="44.06947" lon="5.79126">
        <ele>992.59997558594</ele>
        <time>2021-09-04T06:52:20Z</time>
      </trkpt>
      <trkpt lat="44.06951" lon="5.7914">
        <ele>992</ele>
        <time>2021-09-04T06:52:21Z</time>
      </trkpt>
      <trkpt lat="44.06959" lon="5.79169">
        <ele>990.40002441406</ele>
        <time>2021-09-04T06:52:23Z</time>
      </trkpt>
      <trkpt lat="44.06967" lon="5.79198">
        <ele>989</ele>
        <time>2021-09-04T06:52:25Z</time>
      </trkpt>
      <trkpt lat="44.06975" lon="5.79226">
        <ele>987.59997558594</ele>
        <time>2021-09-04T06:52:27Z</time>
      </trkpt>
      <trkpt lat="44.06983" lon="5.79254">
        <ele>986.40002441406</ele>
        <time>2021-09-04T06:52:29Z</time>
      </trkpt>
      <trkpt lat="44.06987" lon="5.79268">
        <ele>985.59997558594</ele>
        <time>2021-09-04T06:52:30Z</time>
      </trkpt>
      <trkpt lat="44.06991" lon="5.79282">
        <ele>985.20001220703</ele>
        <time>2021-09-04T06:52:31Z</time>
      </trkpt>
      <trkpt lat="44.06998" lon="5.79309">
        <ele>984</ele>
        <time>2021-09-04T06:52:33Z</time>
      </trkpt>
      <trkpt lat="44.07003" lon="5.79322">
        <ele>983.40002441406</ele>
        <time>2021-09-04T06:52:34Z</time>
      </trkpt>
      <trkpt lat="44.07011" lon="5.7933">
        <ele>982.79998779297</ele>
        <time>2021-09-04T06:52:35Z</time>
      </trkpt>
      <trkpt lat="44.07025" lon="5.79349">
        <ele>981.79998779297</ele>
        <time>2021-09-04T06:52:37Z</time>
      </trkpt>
      <trkpt lat="44.07031" lon="5.79359">
        <ele>981.20001220703</ele>
        <time>2021-09-04T06:52:38Z</time>
      </trkpt>
      <trkpt lat="44.07038" lon="5.79367">
        <ele>980.40002441406</ele>
        <time>2021-09-04T06:52:39Z</time>
      </trkpt>
      <trkpt lat="44.07042" lon="5.79378">
        <ele>980</ele>
        <time>2021-09-04T06:52:40Z</time>
      </trkpt>
      <trkpt lat="44.07042" lon="5.79391">
        <ele>979.59997558594</ele>
        <time>2021-09-04T06:52:41Z</time>
      </trkpt>
      <trkpt lat="44.07038" lon="5.79402">
        <ele>979.20001220703</ele>
        <time>2021-09-04T06:52:42Z</time>
      </trkpt>
      <trkpt lat="44.07031" lon="5.79408">
        <ele>978.79998779297</ele>
        <time>2021-09-04T06:52:43Z</time>
      </trkpt>
      <trkpt lat="44.07015" lon="5.79408">
        <ele>977.79998779297</ele>
        <time>2021-09-04T06:52:45Z</time>
      </trkpt>
      <trkpt lat="44.07001" lon="5.79393">
        <ele>976.79998779297</ele>
        <time>2021-09-04T06:52:47Z</time>
      </trkpt>
      <trkpt lat="44.06989" lon="5.79374">
        <ele>975.79998779297</ele>
        <time>2021-09-04T06:52:49Z</time>
      </trkpt>
      <trkpt lat="44.06983" lon="5.79366">
        <ele>975.40002441406</ele>
        <time>2021-09-04T06:52:50Z</time>
      </trkpt>
      <trkpt lat="44.06976" lon="5.79358">
        <ele>975</ele>
        <time>2021-09-04T06:52:51Z</time>
      </trkpt>
      <trkpt lat="44.06955" lon="5.79331">
        <ele>974</ele>
        <time>2021-09-04T06:52:54Z</time>
      </trkpt>
      <trkpt lat="44.06932" lon="5.79305">
        <ele>972.79998779297</ele>
        <time>2021-09-04T06:52:57Z</time>
      </trkpt>
      <trkpt lat="44.06915" lon="5.79288">
        <ele>971.79998779297</ele>
        <time>2021-09-04T06:52:59Z</time>
      </trkpt>
      <trkpt lat="44.06899" lon="5.79269">
        <ele>970.79998779297</ele>
        <time>2021-09-04T06:53:01Z</time>
      </trkpt>
      <trkpt lat="44.06881" lon="5.79255">
        <ele>968.79998779297</ele>
        <time>2021-09-04T06:53:03Z</time>
      </trkpt>
      <trkpt lat="44.06861" lon="5.79242">
        <ele>967.40002441406</ele>
        <time>2021-09-04T06:53:05Z</time>
      </trkpt>
      <trkpt lat="44.06841" lon="5.79229">
        <ele>966.20001220703</ele>
        <time>2021-09-04T06:53:07Z</time>
      </trkpt>
      <trkpt lat="44.06821" lon="5.79216">
        <ele>964.79998779297</ele>
        <time>2021-09-04T06:53:09Z</time>
      </trkpt>
      <trkpt lat="44.068" lon="5.79204">
        <ele>963.40002441406</ele>
        <time>2021-09-04T06:53:11Z</time>
      </trkpt>
      <trkpt lat="44.06779" lon="5.7919">
        <ele>962.20001220703</ele>
        <time>2021-09-04T06:53:13Z</time>
      </trkpt>
      <trkpt lat="44.06758" lon="5.79178">
        <ele>961</ele>
        <time>2021-09-04T06:53:15Z</time>
      </trkpt>
      <trkpt lat="44.06737" lon="5.79167">
        <ele>959.59997558594</ele>
        <time>2021-09-04T06:53:17Z</time>
      </trkpt>
      <trkpt lat="44.06716" lon="5.79155">
        <ele>958</ele>
        <time>2021-09-04T06:53:19Z</time>
      </trkpt>
      <trkpt lat="44.06696" lon="5.79142">
        <ele>956.59997558594</ele>
        <time>2021-09-04T06:53:21Z</time>
      </trkpt>
      <trkpt lat="44.06675" lon="5.79128">
        <ele>955.20001220703</ele>
        <time>2021-09-04T06:53:23Z</time>
      </trkpt>
      <trkpt lat="44.06654" lon="5.79116">
        <ele>953.79998779297</ele>
        <time>2021-09-04T06:53:25Z</time>
      </trkpt>
      <trkpt lat="44.06633" lon="5.79104">
        <ele>951.79998779297</ele>
        <time>2021-09-04T06:53:27Z</time>
      </trkpt>
      <trkpt lat="44.06612" lon="5.79091">
        <ele>950</ele>
        <time>2021-09-04T06:53:29Z</time>
      </trkpt>
      <trkpt lat="44.06592" lon="5.79076">
        <ele>948.79998779297</ele>
        <time>2021-09-04T06:53:31Z</time>
      </trkpt>
      <trkpt lat="44.06571" lon="5.79064">
        <ele>947.40002441406</ele>
        <time>2021-09-04T06:53:33Z</time>
      </trkpt>
      <trkpt lat="44.0656" lon="5.79056">
        <ele>946.79998779297</ele>
        <time>2021-09-04T06:53:34Z</time>
      </trkpt>
      <trkpt lat="44.0655" lon="5.79049">
        <ele>946.20001220703</ele>
        <time>2021-09-04T06:53:35Z</time>
      </trkpt>
      <trkpt lat="44.06531" lon="5.79033">
        <ele>944.79998779297</ele>
        <time>2021-09-04T06:53:37Z</time>
      </trkpt>
      <trkpt lat="44.06511" lon="5.79018">
        <ele>943.40002441406</ele>
        <time>2021-09-04T06:53:39Z</time>
      </trkpt>
      <trkpt lat="44.06492" lon="5.79002">
        <ele>942</ele>
        <time>2021-09-04T06:53:41Z</time>
      </trkpt>
      <trkpt lat="44.06475" lon="5.78981">
        <ele>940.40002441406</ele>
        <time>2021-09-04T06:53:43Z</time>
      </trkpt>
      <trkpt lat="44.06469" lon="5.78967">
        <ele>939.79998779297</ele>
        <time>2021-09-04T06:53:44Z</time>
      </trkpt>
      <trkpt lat="44.06466" lon="5.78952">
        <ele>939</ele>
        <time>2021-09-04T06:53:45Z</time>
      </trkpt>
      <trkpt lat="44.06466" lon="5.78936">
        <ele>938.40002441406</ele>
        <time>2021-09-04T06:53:46Z</time>
      </trkpt>
      <trkpt lat="44.06467" lon="5.78921">
        <ele>937.59997558594</ele>
        <time>2021-09-04T06:53:47Z</time>
      </trkpt>
      <trkpt lat="44.06473" lon="5.78891">
        <ele>936</ele>
        <time>2021-09-04T06:53:49Z</time>
      </trkpt>
      <trkpt lat="44.06473" lon="5.78875">
        <ele>935.40002441406</ele>
        <time>2021-09-04T06:53:50Z</time>
      </trkpt>
      <trkpt lat="44.06472" lon="5.7886">
        <ele>934</ele>
        <time>2021-09-04T06:53:51Z</time>
      </trkpt>
      <trkpt lat="44.06467" lon="5.78847">
        <ele>933.20001220703</ele>
        <time>2021-09-04T06:53:52Z</time>
      </trkpt>
      <trkpt lat="44.0646" lon="5.78836">
        <ele>932.59997558594</ele>
        <time>2021-09-04T06:53:53Z</time>
      </trkpt>
      <trkpt lat="44.06451" lon="5.78828">
        <ele>932</ele>
        <time>2021-09-04T06:53:54Z</time>
      </trkpt>
      <trkpt lat="44.06442" lon="5.78821">
        <ele>931.40002441406</ele>
        <time>2021-09-04T06:53:55Z</time>
      </trkpt>
      <trkpt lat="44.06432" lon="5.78819">
        <ele>930.59997558594</ele>
        <time>2021-09-04T06:53:56Z</time>
      </trkpt>
      <trkpt lat="44.06421" lon="5.7882">
        <ele>930</ele>
        <time>2021-09-04T06:53:57Z</time>
      </trkpt>
      <trkpt lat="44.0639" lon="5.7882">
        <ele>928.79998779297</ele>
        <time>2021-09-04T06:54:00Z</time>
      </trkpt>
      <trkpt lat="44.06369" lon="5.78823">
        <ele>928</ele>
        <time>2021-09-04T06:54:02Z</time>
      </trkpt>
      <trkpt lat="44.06359" lon="5.78824">
        <ele>927.59997558594</ele>
        <time>2021-09-04T06:54:03Z</time>
      </trkpt>
      <trkpt lat="44.06328" lon="5.78827">
        <ele>926.20001220703</ele>
        <time>2021-09-04T06:54:06Z</time>
      </trkpt>
      <trkpt lat="44.06297" lon="5.7883">
        <ele>925</ele>
        <time>2021-09-04T06:54:09Z</time>
      </trkpt>
      <trkpt lat="44.06278" lon="5.78824">
        <ele>924.40002441406</ele>
        <time>2021-09-04T06:54:11Z</time>
      </trkpt>
      <trkpt lat="44.06269" lon="5.78816">
        <ele>924</ele>
        <time>2021-09-04T06:54:12Z</time>
      </trkpt>
      <trkpt lat="44.06253" lon="5.78782">
        <ele>922</ele>
        <time>2021-09-04T06:54:15Z</time>
      </trkpt>
      <trkpt lat="44.0625" lon="5.78769">
        <ele>921.59997558594</ele>
        <time>2021-09-04T06:54:16Z</time>
      </trkpt>
      <trkpt lat="44.06244" lon="5.78743">
        <ele>920.79998779297</ele>
        <time>2021-09-04T06:54:18Z</time>
      </trkpt>
      <trkpt lat="44.06234" lon="5.78703">
        <ele>919.40002441406</ele>
        <time>2021-09-04T06:54:21Z</time>
      </trkpt>
      <trkpt lat="44.06227" lon="5.78677">
        <ele>918.40002441406</ele>
        <time>2021-09-04T06:54:23Z</time>
      </trkpt>
      <trkpt lat="44.0622" lon="5.7865">
        <ele>917.40002441406</ele>
        <time>2021-09-04T06:54:25Z</time>
      </trkpt>
      <trkpt lat="44.06213" lon="5.78639">
        <ele>916.79998779297</ele>
        <time>2021-09-04T06:54:26Z</time>
      </trkpt>
      <trkpt lat="44.06206" lon="5.78628">
        <ele>916.20001220703</ele>
        <time>2021-09-04T06:54:27Z</time>
      </trkpt>
      <trkpt lat="44.06191" lon="5.78607">
        <ele>915</ele>
        <time>2021-09-04T06:54:29Z</time>
      </trkpt>
      <trkpt lat="44.06184" lon="5.78597">
        <ele>914.59997558594</ele>
        <time>2021-09-04T06:54:30Z</time>
      </trkpt>
      <trkpt lat="44.06176" lon="5.78586">
        <ele>914</ele>
        <time>2021-09-04T06:54:31Z</time>
      </trkpt>
      <trkpt lat="44.0616" lon="5.78566">
        <ele>912.79998779297</ele>
        <time>2021-09-04T06:54:33Z</time>
      </trkpt>
      <trkpt lat="44.06144" lon="5.78546">
        <ele>911.40002441406</ele>
        <time>2021-09-04T06:54:35Z</time>
      </trkpt>
      <trkpt lat="44.06128" lon="5.78526">
        <ele>910.20001220703</ele>
        <time>2021-09-04T06:54:37Z</time>
      </trkpt>
      <trkpt lat="44.0612" lon="5.78516">
        <ele>909.79998779297</ele>
        <time>2021-09-04T06:54:38Z</time>
      </trkpt>
      <trkpt lat="44.06112" lon="5.78505">
        <ele>908.59997558594</ele>
        <time>2021-09-04T06:54:39Z</time>
      </trkpt>
      <trkpt lat="44.06096" lon="5.78484">
        <ele>907.40002441406</ele>
        <time>2021-09-04T06:54:41Z</time>
      </trkpt>
      <trkpt lat="44.0608" lon="5.78463">
        <ele>906.20001220703</ele>
        <time>2021-09-04T06:54:43Z</time>
      </trkpt>
      <trkpt lat="44.06063" lon="5.78443">
        <ele>904.79998779297</ele>
        <time>2021-09-04T06:54:45Z</time>
      </trkpt>
      <trkpt lat="44.06046" lon="5.78423">
        <ele>903.40002441406</ele>
        <time>2021-09-04T06:54:47Z</time>
      </trkpt>
      <trkpt lat="44.06032" lon="5.78398">
        <ele>902.20001220703</ele>
        <time>2021-09-04T06:54:49Z</time>
      </trkpt>
      <trkpt lat="44.06027" lon="5.78385">
        <ele>901.59997558594</ele>
        <time>2021-09-04T06:54:50Z</time>
      </trkpt>
      <trkpt lat="44.06023" lon="5.78372">
        <ele>901.20001220703</ele>
        <time>2021-09-04T06:54:51Z</time>
      </trkpt>
      <trkpt lat="44.06018" lon="5.78362">
        <ele>900.59997558594</ele>
        <time>2021-09-04T06:54:52Z</time>
      </trkpt>
      <trkpt lat="44.0601" lon="5.78355">
        <ele>899.79998779297</ele>
        <time>2021-09-04T06:54:53Z</time>
      </trkpt>
      <trkpt lat="44.06002" lon="5.78354">
        <ele>899.20001220703</ele>
        <time>2021-09-04T06:54:54Z</time>
      </trkpt>
      <trkpt lat="44.05994" lon="5.78358">
        <ele>898.59997558594</ele>
        <time>2021-09-04T06:54:55Z</time>
      </trkpt>
      <trkpt lat="44.0599" lon="5.78369">
        <ele>898</ele>
        <time>2021-09-04T06:54:56Z</time>
      </trkpt>
      <trkpt lat="44.05987" lon="5.7838">
        <ele>897.40002441406</ele>
        <time>2021-09-04T06:54:57Z</time>
      </trkpt>
      <trkpt lat="44.05988" lon="5.78392">
        <ele>896.79998779297</ele>
        <time>2021-09-04T06:54:58Z</time>
      </trkpt>
      <trkpt lat="44.05989" lon="5.78404">
        <ele>896.20001220703</ele>
        <time>2021-09-04T06:54:59Z</time>
      </trkpt>
      <trkpt lat="44.05991" lon="5.7843">
        <ele>895.20001220703</ele>
        <time>2021-09-04T06:55:01Z</time>
      </trkpt>
      <trkpt lat="44.05994" lon="5.78455">
        <ele>893.79998779297</ele>
        <time>2021-09-04T06:55:03Z</time>
      </trkpt>
      <trkpt lat="44.05996" lon="5.78468">
        <ele>893.40002441406</ele>
        <time>2021-09-04T06:55:04Z</time>
      </trkpt>
      <trkpt lat="44.06" lon="5.78495">
        <ele>892.20001220703</ele>
        <time>2021-09-04T06:55:06Z</time>
      </trkpt>
      <trkpt lat="44.06004" lon="5.78522">
        <ele>891.20001220703</ele>
        <time>2021-09-04T06:55:08Z</time>
      </trkpt>
      <trkpt lat="44.06007" lon="5.7855">
        <ele>890.20001220703</ele>
        <time>2021-09-04T06:55:10Z</time>
      </trkpt>
      <trkpt lat="44.0601" lon="5.78563">
        <ele>889.59997558594</ele>
        <time>2021-09-04T06:55:11Z</time>
      </trkpt>
      <trkpt lat="44.06012" lon="5.78576">
        <ele>889</ele>
        <time>2021-09-04T06:55:12Z</time>
      </trkpt>
      <trkpt lat="44.0601" lon="5.78603">
        <ele>888</ele>
        <time>2021-09-04T06:55:14Z</time>
      </trkpt>
      <trkpt lat="44.06001" lon="5.78628">
        <ele>886.79998779297</ele>
        <time>2021-09-04T06:55:16Z</time>
      </trkpt>
      <trkpt lat="44.05983" lon="5.78645">
        <ele>885.59997558594</ele>
        <time>2021-09-04T06:55:18Z</time>
      </trkpt>
      <trkpt lat="44.05964" lon="5.78656">
        <ele>884.20001220703</ele>
        <time>2021-09-04T06:55:20Z</time>
      </trkpt>
      <trkpt lat="44.05944" lon="5.78668">
        <ele>883</ele>
        <time>2021-09-04T06:55:22Z</time>
      </trkpt>
      <trkpt lat="44.05924" lon="5.78679">
        <ele>881.79998779297</ele>
        <time>2021-09-04T06:55:24Z</time>
      </trkpt>
      <trkpt lat="44.05904" lon="5.78691">
        <ele>880.59997558594</ele>
        <time>2021-09-04T06:55:26Z</time>
      </trkpt>
      <trkpt lat="44.05894" lon="5.78696">
        <ele>879.20001220703</ele>
        <time>2021-09-04T06:55:27Z</time>
      </trkpt>
      <trkpt lat="44.05884" lon="5.78702">
        <ele>878.40002441406</ele>
        <time>2021-09-04T06:55:28Z</time>
      </trkpt>
      <trkpt lat="44.05874" lon="5.78709">
        <ele>877.79998779297</ele>
        <time>2021-09-04T06:55:29Z</time>
      </trkpt>
      <trkpt lat="44.05859" lon="5.7873">
        <ele>876.79998779297</ele>
        <time>2021-09-04T06:55:31Z</time>
      </trkpt>
      <trkpt lat="44.05848" lon="5.78756">
        <ele>875.79998779297</ele>
        <time>2021-09-04T06:55:33Z</time>
      </trkpt>
      <trkpt lat="44.05841" lon="5.78769">
        <ele>875</ele>
        <time>2021-09-04T06:55:34Z</time>
      </trkpt>
      <trkpt lat="44.05834" lon="5.7878">
        <ele>874.40002441406</ele>
        <time>2021-09-04T06:55:35Z</time>
      </trkpt>
      <trkpt lat="44.05817" lon="5.788">
        <ele>873</ele>
        <time>2021-09-04T06:55:37Z</time>
      </trkpt>
      <trkpt lat="44.05807" lon="5.78806">
        <ele>872.20001220703</ele>
        <time>2021-09-04T06:55:38Z</time>
      </trkpt>
      <trkpt lat="44.05796" lon="5.7881">
        <ele>871.40002441406</ele>
        <time>2021-09-04T06:55:39Z</time>
      </trkpt>
      <trkpt lat="44.05777" lon="5.78822">
        <ele>870.20001220703</ele>
        <time>2021-09-04T06:55:41Z</time>
      </trkpt>
      <trkpt lat="44.05759" lon="5.7884">
        <ele>869.20001220703</ele>
        <time>2021-09-04T06:55:43Z</time>
      </trkpt>
      <trkpt lat="44.0575" lon="5.78849">
        <ele>868.59997558594</ele>
        <time>2021-09-04T06:55:44Z</time>
      </trkpt>
      <trkpt lat="44.05742" lon="5.78859">
        <ele>868</ele>
        <time>2021-09-04T06:55:45Z</time>
      </trkpt>
      <trkpt lat="44.05727" lon="5.78882">
        <ele>866.59997558594</ele>
        <time>2021-09-04T06:55:47Z</time>
      </trkpt>
      <trkpt lat="44.05719" lon="5.78893">
        <ele>866</ele>
        <time>2021-09-04T06:55:48Z</time>
      </trkpt>
      <trkpt lat="44.05712" lon="5.78901">
        <ele>865.40002441406</ele>
        <time>2021-09-04T06:55:49Z</time>
      </trkpt>
      <trkpt lat="44.05696" lon="5.78909">
        <ele>863.20001220703</ele>
        <time>2021-09-04T06:55:51Z</time>
      </trkpt>
      <trkpt lat="44.05687" lon="5.78906">
        <ele>862.59997558594</ele>
        <time>2021-09-04T06:55:52Z</time>
      </trkpt>
      <trkpt lat="44.0568" lon="5.78898">
        <ele>861.79998779297</ele>
        <time>2021-09-04T06:55:53Z</time>
      </trkpt>
      <trkpt lat="44.05674" lon="5.78889">
        <ele>861.20001220703</ele>
        <time>2021-09-04T06:55:54Z</time>
      </trkpt>
      <trkpt lat="44.05672" lon="5.78877">
        <ele>860.40002441406</ele>
        <time>2021-09-04T06:55:55Z</time>
      </trkpt>
      <trkpt lat="44.05671" lon="5.78863">
        <ele>859.59997558594</ele>
        <time>2021-09-04T06:55:56Z</time>
      </trkpt>
      <trkpt lat="44.05671" lon="5.7885">
        <ele>859</ele>
        <time>2021-09-04T06:55:57Z</time>
      </trkpt>
      <trkpt lat="44.05668" lon="5.78823">
        <ele>857.79998779297</ele>
        <time>2021-09-04T06:55:59Z</time>
      </trkpt>
      <trkpt lat="44.05664" lon="5.78783">
        <ele>856.40002441406</ele>
        <time>2021-09-04T06:56:02Z</time>
      </trkpt>
      <trkpt lat="44.05662" lon="5.78755">
        <ele>855.20001220703</ele>
        <time>2021-09-04T06:56:04Z</time>
      </trkpt>
      <trkpt lat="44.05658" lon="5.78728">
        <ele>854.20001220703</ele>
        <time>2021-09-04T06:56:06Z</time>
      </trkpt>
      <trkpt lat="44.05653" lon="5.787">
        <ele>853</ele>
        <time>2021-09-04T06:56:08Z</time>
      </trkpt>
      <trkpt lat="44.05648" lon="5.78672">
        <ele>851.59997558594</ele>
        <time>2021-09-04T06:56:10Z</time>
      </trkpt>
      <trkpt lat="44.05642" lon="5.78644">
        <ele>850.20001220703</ele>
        <time>2021-09-04T06:56:12Z</time>
      </trkpt>
      <trkpt lat="44.05636" lon="5.78615">
        <ele>849</ele>
        <time>2021-09-04T06:56:14Z</time>
      </trkpt>
      <trkpt lat="44.05632" lon="5.786">
        <ele>847.59997558594</ele>
        <time>2021-09-04T06:56:15Z</time>
      </trkpt>
      <trkpt lat="44.05627" lon="5.78587">
        <ele>846.79998779297</ele>
        <time>2021-09-04T06:56:16Z</time>
      </trkpt>
      <trkpt lat="44.05621" lon="5.78573">
        <ele>846.20001220703</ele>
        <time>2021-09-04T06:56:17Z</time>
      </trkpt>
      <trkpt lat="44.05606" lon="5.7855">
        <ele>844.79998779297</ele>
        <time>2021-09-04T06:56:19Z</time>
      </trkpt>
      <trkpt lat="44.05592" lon="5.78525">
        <ele>843.20001220703</ele>
        <time>2021-09-04T06:56:21Z</time>
      </trkpt>
      <trkpt lat="44.05584" lon="5.78513">
        <ele>842.40002441406</ele>
        <time>2021-09-04T06:56:22Z</time>
      </trkpt>
      <trkpt lat="44.05576" lon="5.78501">
        <ele>841.40002441406</ele>
        <time>2021-09-04T06:56:23Z</time>
      </trkpt>
      <trkpt lat="44.05561" lon="5.78474">
        <ele>839.79998779297</ele>
        <time>2021-09-04T06:56:25Z</time>
      </trkpt>
      <trkpt lat="44.05556" lon="5.78459">
        <ele>838.79998779297</ele>
        <time>2021-09-04T06:56:26Z</time>
      </trkpt>
      <trkpt lat="44.05553" lon="5.78443">
        <ele>837.79998779297</ele>
        <time>2021-09-04T06:56:27Z</time>
      </trkpt>
      <trkpt lat="44.05552" lon="5.78427">
        <ele>837</ele>
        <time>2021-09-04T06:56:28Z</time>
      </trkpt>
      <trkpt lat="44.05554" lon="5.7841">
        <ele>836</ele>
        <time>2021-09-04T06:56:29Z</time>
      </trkpt>
      <trkpt lat="44.05559" lon="5.78379">
        <ele>834.20001220703</ele>
        <time>2021-09-04T06:56:31Z</time>
      </trkpt>
      <trkpt lat="44.05565" lon="5.78348">
        <ele>832.59997558594</ele>
        <time>2021-09-04T06:56:33Z</time>
      </trkpt>
      <trkpt lat="44.05566" lon="5.78334">
        <ele>831.79998779297</ele>
        <time>2021-09-04T06:56:34Z</time>
      </trkpt>
      <trkpt lat="44.05565" lon="5.78319">
        <ele>831</ele>
        <time>2021-09-04T06:56:35Z</time>
      </trkpt>
      <trkpt lat="44.05556" lon="5.78295">
        <ele>829.20001220703</ele>
        <time>2021-09-04T06:56:37Z</time>
      </trkpt>
      <trkpt lat="44.05539" lon="5.78279">
        <ele>826.59997558594</ele>
        <time>2021-09-04T06:56:39Z</time>
      </trkpt>
      <trkpt lat="44.05518" lon="5.78272">
        <ele>825.20001220703</ele>
        <time>2021-09-04T06:56:41Z</time>
      </trkpt>
      <trkpt lat="44.05497" lon="5.78265">
        <ele>823.79998779297</ele>
        <time>2021-09-04T06:56:43Z</time>
      </trkpt>
      <trkpt lat="44.05475" lon="5.78257">
        <ele>822.40002441406</ele>
        <time>2021-09-04T06:56:45Z</time>
      </trkpt>
      <trkpt lat="44.05453" lon="5.7825">
        <ele>821</ele>
        <time>2021-09-04T06:56:47Z</time>
      </trkpt>
      <trkpt lat="44.05432" lon="5.7824">
        <ele>819.40002441406</ele>
        <time>2021-09-04T06:56:49Z</time>
      </trkpt>
      <trkpt lat="44.05422" lon="5.78233">
        <ele>818.59997558594</ele>
        <time>2021-09-04T06:56:50Z</time>
      </trkpt>
      <trkpt lat="44.05412" lon="5.78225">
        <ele>817.79998779297</ele>
        <time>2021-09-04T06:56:51Z</time>
      </trkpt>
      <trkpt lat="44.05392" lon="5.78209">
        <ele>816.40002441406</ele>
        <time>2021-09-04T06:56:53Z</time>
      </trkpt>
      <trkpt lat="44.05374" lon="5.7819">
        <ele>814.79998779297</ele>
        <time>2021-09-04T06:56:55Z</time>
      </trkpt>
      <trkpt lat="44.05356" lon="5.78171">
        <ele>813.20001220703</ele>
        <time>2021-09-04T06:56:57Z</time>
      </trkpt>
      <trkpt lat="44.05338" lon="5.7815">
        <ele>811.79998779297</ele>
        <time>2021-09-04T06:56:59Z</time>
      </trkpt>
      <trkpt lat="44.05323" lon="5.78127">
        <ele>810</ele>
        <time>2021-09-04T06:57:01Z</time>
      </trkpt>
      <trkpt lat="44.05311" lon="5.78103">
        <ele>807.59997558594</ele>
        <time>2021-09-04T06:57:03Z</time>
      </trkpt>
      <trkpt lat="44.05307" lon="5.78094">
        <ele>806.79998779297</ele>
        <time>2021-09-04T06:57:04Z</time>
      </trkpt>
      <trkpt lat="44.05304" lon="5.78087">
        <ele>806</ele>
        <time>2021-09-04T06:57:05Z</time>
      </trkpt>
      <trkpt lat="44.05296" lon="5.78072">
        <ele>804.20001220703</ele>
        <time>2021-09-04T06:57:07Z</time>
      </trkpt>
      <trkpt lat="44.05292" lon="5.78065">
        <ele>803.20001220703</ele>
        <time>2021-09-04T06:57:08Z</time>
      </trkpt>
      <trkpt lat="44.05286" lon="5.78058">
        <ele>802.40002441406</ele>
        <time>2021-09-04T06:57:09Z</time>
      </trkpt>
      <trkpt lat="44.05277" lon="5.78047">
        <ele>801.20001220703</ele>
        <time>2021-09-04T06:57:11Z</time>
      </trkpt>
      <trkpt lat="44.05273" lon="5.78045">
        <ele>800.79998779297</ele>
        <time>2021-09-04T06:57:12Z</time>
      </trkpt>
      <trkpt lat="44.05264" lon="5.78041">
        <ele>799.79998779297</ele>
        <time>2021-09-04T06:57:14Z</time>
      </trkpt>
      <trkpt lat="44.05259" lon="5.78039">
        <ele>799.20001220703</ele>
        <time>2021-09-04T06:57:15Z</time>
      </trkpt>
      <trkpt lat="44.05255" lon="5.78036">
        <ele>798.79998779297</ele>
        <time>2021-09-04T06:57:16Z</time>
      </trkpt>
      <trkpt lat="44.05242" lon="5.78029">
        <ele>797.59997558594</ele>
        <time>2021-09-04T06:57:19Z</time>
      </trkpt>
      <trkpt lat="44.05227" lon="5.78021">
        <ele>796.40002441406</ele>
        <time>2021-09-04T06:57:22Z</time>
      </trkpt>
      <trkpt lat="44.05207" lon="5.7801">
        <ele>795.20001220703</ele>
        <time>2021-09-04T06:57:25Z</time>
      </trkpt>
      <trkpt lat="44.05192" lon="5.77999">
        <ele>793.79998779297</ele>
        <time>2021-09-04T06:57:27Z</time>
      </trkpt>
      <trkpt lat="44.05178" lon="5.77986">
        <ele>792.59997558594</ele>
        <time>2021-09-04T06:57:29Z</time>
      </trkpt>
      <trkpt lat="44.05162" lon="5.77972">
        <ele>791.59997558594</ele>
        <time>2021-09-04T06:57:31Z</time>
      </trkpt>
      <trkpt lat="44.05154" lon="5.77965">
        <ele>791.20001220703</ele>
        <time>2021-09-04T06:57:32Z</time>
      </trkpt>
      <trkpt lat="44.05145" lon="5.77957">
        <ele>790.59997558594</ele>
        <time>2021-09-04T06:57:33Z</time>
      </trkpt>
      <trkpt lat="44.05128" lon="5.7794">
        <ele>789.20001220703</ele>
        <time>2021-09-04T06:57:35Z</time>
      </trkpt>
      <trkpt lat="44.05121" lon="5.7793">
        <ele>788.59997558594</ele>
        <time>2021-09-04T06:57:36Z</time>
      </trkpt>
      <trkpt lat="44.05114" lon="5.77918">
        <ele>788</ele>
        <time>2021-09-04T06:57:37Z</time>
      </trkpt>
      <trkpt lat="44.05102" lon="5.77897">
        <ele>786.59997558594</ele>
        <time>2021-09-04T06:57:39Z</time>
      </trkpt>
      <trkpt lat="44.05089" lon="5.77885">
        <ele>785.20001220703</ele>
        <time>2021-09-04T06:57:41Z</time>
      </trkpt>
      <trkpt lat="44.05082" lon="5.77885">
        <ele>784.40002441406</ele>
        <time>2021-09-04T06:57:42Z</time>
      </trkpt>
      <trkpt lat="44.05076" lon="5.7789">
        <ele>783.59997558594</ele>
        <time>2021-09-04T06:57:43Z</time>
      </trkpt>
      <trkpt lat="44.05072" lon="5.77898">
        <ele>783</ele>
        <time>2021-09-04T06:57:44Z</time>
      </trkpt>
      <trkpt lat="44.05069" lon="5.77908">
        <ele>782.20001220703</ele>
        <time>2021-09-04T06:57:45Z</time>
      </trkpt>
      <trkpt lat="44.05067" lon="5.77919">
        <ele>781.59997558594</ele>
        <time>2021-09-04T06:57:46Z</time>
      </trkpt>
      <trkpt lat="44.05065" lon="5.7793">
        <ele>781.20001220703</ele>
        <time>2021-09-04T06:57:47Z</time>
      </trkpt>
      <trkpt lat="44.05061" lon="5.77965">
        <ele>779.79998779297</ele>
        <time>2021-09-04T06:57:50Z</time>
      </trkpt>
      <trkpt lat="44.05059" lon="5.77989">
        <ele>778.20001220703</ele>
        <time>2021-09-04T06:57:52Z</time>
      </trkpt>
      <trkpt lat="44.05058" lon="5.78001">
        <ele>777.79998779297</ele>
        <time>2021-09-04T06:57:53Z</time>
      </trkpt>
      <trkpt lat="44.05056" lon="5.78014">
        <ele>777.20001220703</ele>
        <time>2021-09-04T06:57:54Z</time>
      </trkpt>
      <trkpt lat="44.05054" lon="5.7804">
        <ele>776</ele>
        <time>2021-09-04T06:57:56Z</time>
      </trkpt>
      <trkpt lat="44.05049" lon="5.7808">
        <ele>774.59997558594</ele>
        <time>2021-09-04T06:57:59Z</time>
      </trkpt>
      <trkpt lat="44.05045" lon="5.78107">
        <ele>773</ele>
        <time>2021-09-04T06:58:01Z</time>
      </trkpt>
      <trkpt lat="44.05041" lon="5.78134">
        <ele>771.40002441406</ele>
        <time>2021-09-04T06:58:03Z</time>
      </trkpt>
      <trkpt lat="44.05039" lon="5.78146">
        <ele>770.79998779297</ele>
        <time>2021-09-04T06:58:04Z</time>
      </trkpt>
      <trkpt lat="44.05036" lon="5.78158">
        <ele>770.20001220703</ele>
        <time>2021-09-04T06:58:05Z</time>
      </trkpt>
      <trkpt lat="44.05025" lon="5.78179">
        <ele>768.59997558594</ele>
        <time>2021-09-04T06:58:07Z</time>
      </trkpt>
      <trkpt lat="44.05008" lon="5.78193">
        <ele>767.20001220703</ele>
        <time>2021-09-04T06:58:09Z</time>
      </trkpt>
      <trkpt lat="44.04998" lon="5.78196">
        <ele>766.40002441406</ele>
        <time>2021-09-04T06:58:10Z</time>
      </trkpt>
      <trkpt lat="44.04987" lon="5.78195">
        <ele>765.79998779297</ele>
        <time>2021-09-04T06:58:11Z</time>
      </trkpt>
      <trkpt lat="44.04967" lon="5.78189">
        <ele>764.20001220703</ele>
        <time>2021-09-04T06:58:13Z</time>
      </trkpt>
      <trkpt lat="44.04947" lon="5.78182">
        <ele>762</ele>
        <time>2021-09-04T06:58:15Z</time>
      </trkpt>
      <trkpt lat="44.04927" lon="5.78175">
        <ele>760.59997558594</ele>
        <time>2021-09-04T06:58:17Z</time>
      </trkpt>
      <trkpt lat="44.04909" lon="5.78169">
        <ele>758.79998779297</ele>
        <time>2021-09-04T06:58:19Z</time>
      </trkpt>
      <trkpt lat="44.04902" lon="5.78165">
        <ele>758</ele>
        <time>2021-09-04T06:58:20Z</time>
      </trkpt>
      <trkpt lat="44.04897" lon="5.7816">
        <ele>757</ele>
        <time>2021-09-04T06:58:21Z</time>
      </trkpt>
      <trkpt lat="44.04893" lon="5.78155">
        <ele>756.20001220703</ele>
        <time>2021-09-04T06:58:22Z</time>
      </trkpt>
      <trkpt lat="44.04891" lon="5.7815">
        <ele>755.20001220703</ele>
        <time>2021-09-04T06:58:23Z</time>
      </trkpt>
      <trkpt lat="44.0489" lon="5.78145">
        <ele>753.59997558594</ele>
        <time>2021-09-04T06:58:25Z</time>
      </trkpt>
      <trkpt lat="44.04889" lon="5.78142">
        <ele>752.40002441406</ele>
        <time>2021-09-04T06:58:27Z</time>
      </trkpt>
      <trkpt lat="44.04885" lon="5.78143">
        <ele>750.79998779297</ele>
        <time>2021-09-04T06:58:53Z</time>
      </trkpt>
      <trkpt lat="44.04876" lon="5.78154">
        <ele>750.79998779297</ele>
        <time>2021-09-04T06:58:58Z</time>
      </trkpt>
      <trkpt lat="44.04868" lon="5.78155">
        <ele>750.79998779297</ele>
        <time>2021-09-04T06:59:00Z</time>
      </trkpt>
      <trkpt lat="44.04864" lon="5.78154">
        <ele>750.59997558594</ele>
        <time>2021-09-04T06:59:01Z</time>
      </trkpt>
      <trkpt lat="44.04853" lon="5.78148">
        <ele>749.79998779297</ele>
        <time>2021-09-04T06:59:05Z</time>
      </trkpt>
      <trkpt lat="44.04841" lon="5.78143">
        <ele>748.59997558594</ele>
        <time>2021-09-04T06:59:09Z</time>
      </trkpt>
      <trkpt lat="44.04837" lon="5.78142">
        <ele>748.40002441406</ele>
        <time>2021-09-04T06:59:10Z</time>
      </trkpt>
      <trkpt lat="44.04832" lon="5.78141">
        <ele>748.20001220703</ele>
        <time>2021-09-04T06:59:11Z</time>
      </trkpt>
      <trkpt lat="44.04822" lon="5.78136">
        <ele>747.59997558594</ele>
        <time>2021-09-04T06:59:13Z</time>
      </trkpt>
      <trkpt lat="44.04816" lon="5.78134">
        <ele>747.40002441406</ele>
        <time>2021-09-04T06:59:14Z</time>
      </trkpt>
      <trkpt lat="44.04795" lon="5.78127">
        <ele>746.40002441406</ele>
        <time>2021-09-04T06:59:17Z</time>
      </trkpt>
      <trkpt lat="44.04788" lon="5.78125">
        <ele>746</ele>
        <time>2021-09-04T06:59:18Z</time>
      </trkpt>
      <trkpt lat="44.04765" lon="5.78116">
        <ele>744.79998779297</ele>
        <time>2021-09-04T06:59:21Z</time>
      </trkpt>
      <trkpt lat="44.04757" lon="5.78113">
        <ele>744.40002441406</ele>
        <time>2021-09-04T06:59:22Z</time>
      </trkpt>
      <trkpt lat="44.04741" lon="5.78107">
        <ele>743.20001220703</ele>
        <time>2021-09-04T06:59:24Z</time>
      </trkpt>
      <trkpt lat="44.04724" lon="5.78101">
        <ele>742</ele>
        <time>2021-09-04T06:59:26Z</time>
      </trkpt>
      <trkpt lat="44.04717" lon="5.78098">
        <ele>740.79998779297</ele>
        <time>2021-09-04T06:59:27Z</time>
      </trkpt>
      <trkpt lat="44.04707" lon="5.78094">
        <ele>739.59997558594</ele>
        <time>2021-09-04T06:59:29Z</time>
      </trkpt>
      <trkpt lat="44.04702" lon="5.78091">
        <ele>738.79998779297</ele>
        <time>2021-09-04T06:59:30Z</time>
      </trkpt>
      <trkpt lat="44.04697" lon="5.78088">
        <ele>738</ele>
        <time>2021-09-04T06:59:31Z</time>
      </trkpt>
      <trkpt lat="44.04688" lon="5.78083">
        <ele>736.40002441406</ele>
        <time>2021-09-04T06:59:33Z</time>
      </trkpt>
      <trkpt lat="44.04685" lon="5.78081">
        <ele>735.79998779297</ele>
        <time>2021-09-04T06:59:34Z</time>
      </trkpt>
      <trkpt lat="44.04682" lon="5.7808">
        <ele>735.20001220703</ele>
        <time>2021-09-04T06:59:35Z</time>
      </trkpt>
      <trkpt lat="44.04676" lon="5.78076">
        <ele>734.20001220703</ele>
        <time>2021-09-04T06:59:37Z</time>
      </trkpt>
      <trkpt lat="44.04669" lon="5.78068">
        <ele>733.20001220703</ele>
        <time>2021-09-04T06:59:39Z</time>
      </trkpt>
      <trkpt lat="44.04665" lon="5.78064">
        <ele>732.79998779297</ele>
        <time>2021-09-04T06:59:40Z</time>
      </trkpt>
      <trkpt lat="44.0466" lon="5.7806">
        <ele>732.59997558594</ele>
        <time>2021-09-04T06:59:41Z</time>
      </trkpt>
      <trkpt lat="44.0465" lon="5.78051">
        <ele>731.79998779297</ele>
        <time>2021-09-04T06:59:43Z</time>
      </trkpt>
      <trkpt lat="44.04645" lon="5.78047">
        <ele>731.59997558594</ele>
        <time>2021-09-04T06:59:44Z</time>
      </trkpt>
      <trkpt lat="44.04633" lon="5.78042">
        <ele>730.79998779297</ele>
        <time>2021-09-04T06:59:46Z</time>
      </trkpt>
      <trkpt lat="44.04628" lon="5.78039">
        <ele>730.40002441406</ele>
        <time>2021-09-04T06:59:47Z</time>
      </trkpt>
      <trkpt lat="44.04618" lon="5.78032">
        <ele>729.40002441406</ele>
        <time>2021-09-04T06:59:49Z</time>
      </trkpt>
      <trkpt lat="44.04606" lon="5.78025">
        <ele>727.59997558594</ele>
        <time>2021-09-04T06:59:51Z</time>
      </trkpt>
      <trkpt lat="44.04594" lon="5.78018">
        <ele>726.40002441406</ele>
        <time>2021-09-04T06:59:53Z</time>
      </trkpt>
      <trkpt lat="44.04583" lon="5.78013">
        <ele>725.20001220703</ele>
        <time>2021-09-04T06:59:55Z</time>
      </trkpt>
      <trkpt lat="44.04578" lon="5.7801">
        <ele>724.59997558594</ele>
        <time>2021-09-04T06:59:56Z</time>
      </trkpt>
      <trkpt lat="44.04574" lon="5.78008">
        <ele>724</ele>
        <time>2021-09-04T06:59:57Z</time>
      </trkpt>
      <trkpt lat="44.04567" lon="5.78005">
        <ele>722.59997558594</ele>
        <time>2021-09-04T06:59:59Z</time>
      </trkpt>
      <trkpt lat="44.04562" lon="5.78003">
        <ele>721.59997558594</ele>
        <time>2021-09-04T07:00:01Z</time>
      </trkpt>
      <trkpt lat="44.04554" lon="5.77999">
        <ele>720.20001220703</ele>
        <time>2021-09-04T07:00:04Z</time>
      </trkpt>
      <trkpt lat="44.04548" lon="5.77994">
        <ele>719.20001220703</ele>
        <time>2021-09-04T07:00:08Z</time>
      </trkpt>
      <trkpt lat="44.04547" lon="5.77994">
        <ele>719</ele>
        <time>2021-09-04T07:00:09Z</time>
      </trkpt>
      <trkpt lat="44.04548" lon="5.77988">
        <ele>718.59997558594</ele>
        <time>2021-09-04T07:00:11Z</time>
      </trkpt>
      <trkpt lat="44.0455" lon="5.77976">
        <ele>718.20001220703</ele>
        <time>2021-09-04T07:00:14Z</time>
      </trkpt>
      <trkpt lat="44.04551" lon="5.77971">
        <ele>717.59997558594</ele>
        <time>2021-09-04T07:00:22Z</time>
      </trkpt>
      <trkpt lat="44.04553" lon="5.77954">
        <ele>717.59997558594</ele>
        <time>2021-09-04T07:00:27Z</time>
      </trkpt>
      <trkpt lat="44.04554" lon="5.7793">
        <ele>717.20001220703</ele>
        <time>2021-09-04T07:00:31Z</time>
      </trkpt>
      <trkpt lat="44.04554" lon="5.77924">
        <ele>717</ele>
        <time>2021-09-04T07:00:32Z</time>
      </trkpt>
      <trkpt lat="44.04552" lon="5.77917">
        <ele>716.79998779297</ele>
        <time>2021-09-04T07:00:33Z</time>
      </trkpt>
      <trkpt lat="44.04547" lon="5.77897">
        <ele>716.20001220703</ele>
        <time>2021-09-04T07:00:36Z</time>
      </trkpt>
      <trkpt lat="44.04545" lon="5.77891">
        <ele>716</ele>
        <time>2021-09-04T07:00:37Z</time>
      </trkpt>
      <trkpt lat="44.04541" lon="5.77879">
        <ele>715</ele>
        <time>2021-09-04T07:00:39Z</time>
      </trkpt>
      <trkpt lat="44.04541" lon="5.77872">
        <ele>714.79998779297</ele>
        <time>2021-09-04T07:00:40Z</time>
      </trkpt>
      <trkpt lat="44.04541" lon="5.77865">
        <ele>714.59997558594</ele>
        <time>2021-09-04T07:00:41Z</time>
      </trkpt>
      <trkpt lat="44.04541" lon="5.77859">
        <ele>714.20001220703</ele>
        <time>2021-09-04T07:00:42Z</time>
      </trkpt>
      <trkpt lat="44.0454" lon="5.77839">
        <ele>713.59997558594</ele>
        <time>2021-09-04T07:00:45Z</time>
      </trkpt>
      <trkpt lat="44.04538" lon="5.77814">
        <ele>713.40002441406</ele>
        <time>2021-09-04T07:00:49Z</time>
      </trkpt>
      <trkpt lat="44.04534" lon="5.77776">
        <ele>713</ele>
        <time>2021-09-04T07:00:56Z</time>
      </trkpt>
      <trkpt lat="44.04529" lon="5.77738">
        <ele>713.20001220703</ele>
        <time>2021-09-04T07:01:03Z</time>
      </trkpt>
      <trkpt lat="44.04522" lon="5.77706">
        <ele>713.20001220703</ele>
        <time>2021-09-04T07:01:09Z</time>
      </trkpt>
      <trkpt lat="44.04515" lon="5.77654">
        <ele>712.79998779297</ele>
        <time>2021-09-04T07:01:17Z</time>
      </trkpt>
      <trkpt lat="44.04513" lon="5.77633">
        <ele>712.59997558594</ele>
        <time>2021-09-04T07:01:20Z</time>
      </trkpt>
      <trkpt lat="44.04508" lon="5.77614">
        <ele>712.59997558594</ele>
        <time>2021-09-04T07:01:23Z</time>
      </trkpt>
      <trkpt lat="44.04505" lon="5.77607">
        <ele>712.40002441406</ele>
        <time>2021-09-04T07:01:24Z</time>
      </trkpt>
      <trkpt lat="44.04489" lon="5.77583">
        <ele>711.79998779297</ele>
        <time>2021-09-04T07:01:28Z</time>
      </trkpt>
      <trkpt lat="44.04484" lon="5.77577">
        <ele>711.59997558594</ele>
        <time>2021-09-04T07:01:29Z</time>
      </trkpt>
      <trkpt lat="44.0448" lon="5.7757">
        <ele>711.59997558594</ele>
        <time>2021-09-04T07:01:30Z</time>
      </trkpt>
      <trkpt lat="44.04461" lon="5.77538">
        <ele>710.40002441406</ele>
        <time>2021-09-04T07:01:34Z</time>
      </trkpt>
      <trkpt lat="44.04446" lon="5.77506">
        <ele>709.20001220703</ele>
        <time>2021-09-04T07:01:38Z</time>
      </trkpt>
      <trkpt lat="44.04435" lon="5.77483">
        <ele>708.79998779297</ele>
        <time>2021-09-04T07:01:41Z</time>
      </trkpt>
      <trkpt lat="44.04423" lon="5.7744">
        <ele>708.40002441406</ele>
        <time>2021-09-04T07:01:46Z</time>
      </trkpt>
      <trkpt lat="44.04419" lon="5.77422">
        <ele>708.40002441406</ele>
        <time>2021-09-04T07:01:48Z</time>
      </trkpt>
      <trkpt lat="44.04413" lon="5.77406">
        <ele>708.20001220703</ele>
        <time>2021-09-04T07:01:50Z</time>
      </trkpt>
      <trkpt lat="44.04409" lon="5.77398">
        <ele>707.79998779297</ele>
        <time>2021-09-04T07:01:51Z</time>
      </trkpt>
      <trkpt lat="44.04405" lon="5.77391">
        <ele>707.79998779297</ele>
        <time>2021-09-04T07:01:52Z</time>
      </trkpt>
      <trkpt lat="44.04391" lon="5.77372">
        <ele>707.40002441406</ele>
        <time>2021-09-04T07:01:55Z</time>
      </trkpt>
      <trkpt lat="44.04378" lon="5.77352">
        <ele>707</ele>
        <time>2021-09-04T07:01:58Z</time>
      </trkpt>
      <trkpt lat="44.04352" lon="5.7732">
        <ele>705.79998779297</ele>
        <time>2021-09-04T07:02:03Z</time>
      </trkpt>
      <trkpt lat="44.0433" lon="5.77294">
        <ele>704.79998779297</ele>
        <time>2021-09-04T07:02:07Z</time>
      </trkpt>
      <trkpt lat="44.04308" lon="5.77265">
        <ele>703.79998779297</ele>
        <time>2021-09-04T07:02:11Z</time>
      </trkpt>
      <trkpt lat="44.04303" lon="5.77258">
        <ele>703.59997558594</ele>
        <time>2021-09-04T07:02:12Z</time>
      </trkpt>
      <trkpt lat="44.0428" lon="5.7723">
        <ele>702.40002441406</ele>
        <time>2021-09-04T07:02:16Z</time>
      </trkpt>
      <trkpt lat="44.04256" lon="5.77201">
        <ele>701.59997558594</ele>
        <time>2021-09-04T07:02:20Z</time>
      </trkpt>
      <trkpt lat="44.0425" lon="5.77194">
        <ele>701.40002441406</ele>
        <time>2021-09-04T07:02:21Z</time>
      </trkpt>
      <trkpt lat="44.04226" lon="5.77161">
        <ele>700.20001220703</ele>
        <time>2021-09-04T07:02:25Z</time>
      </trkpt>
      <trkpt lat="44.04215" lon="5.77143">
        <ele>699.59997558594</ele>
        <time>2021-09-04T07:02:27Z</time>
      </trkpt>
      <trkpt lat="44.04205" lon="5.77125">
        <ele>698.79998779297</ele>
        <time>2021-09-04T07:02:29Z</time>
      </trkpt>
      <trkpt lat="44.04185" lon="5.77087">
        <ele>697.79998779297</ele>
        <time>2021-09-04T07:02:33Z</time>
      </trkpt>
      <trkpt lat="44.0418" lon="5.77078">
        <ele>697.59997558594</ele>
        <time>2021-09-04T07:02:34Z</time>
      </trkpt>
      <trkpt lat="44.04144" lon="5.77036">
        <ele>697.20001220703</ele>
        <time>2021-09-04T07:02:40Z</time>
      </trkpt>
      <trkpt lat="44.04097" lon="5.76991">
        <ele>697</ele>
        <time>2021-09-04T07:02:48Z</time>
      </trkpt>
      <trkpt lat="44.04087" lon="5.76978">
        <ele>696.79998779297</ele>
        <time>2021-09-04T07:02:50Z</time>
      </trkpt>
      <trkpt lat="44.0406" lon="5.76948">
        <ele>696.40002441406</ele>
        <time>2021-09-04T07:02:55Z</time>
      </trkpt>
      <trkpt lat="44.04037" lon="5.76916">
        <ele>696.20001220703</ele>
        <time>2021-09-04T07:03:00Z</time>
      </trkpt>
      <trkpt lat="44.04023" lon="5.76897">
        <ele>696</ele>
        <time>2021-09-04T07:03:03Z</time>
      </trkpt>
      <trkpt lat="44.03983" lon="5.7685">
        <ele>695.79998779297</ele>
        <time>2021-09-04T07:03:11Z</time>
      </trkpt>
      <trkpt lat="44.03978" lon="5.76844">
        <ele>695.79998779297</ele>
        <time>2021-09-04T07:03:12Z</time>
      </trkpt>
      <trkpt lat="44.03949" lon="5.7681">
        <ele>695.20001220703</ele>
        <time>2021-09-04T07:03:18Z</time>
      </trkpt>
      <trkpt lat="44.03905" lon="5.76757">
        <ele>695</ele>
        <time>2021-09-04T07:03:27Z</time>
      </trkpt>
      <trkpt lat="44.03901" lon="5.76751">
        <ele>694.79998779297</ele>
        <time>2021-09-04T07:03:28Z</time>
      </trkpt>
      <trkpt lat="44.03875" lon="5.76712">
        <ele>694.59997558594</ele>
        <time>2021-09-04T07:03:34Z</time>
      </trkpt>
      <trkpt lat="44.0387" lon="5.76705">
        <ele>694.59997558594</ele>
        <time>2021-09-04T07:03:35Z</time>
      </trkpt>
      <trkpt lat="44.0384" lon="5.76669">
        <ele>694</ele>
        <time>2021-09-04T07:03:41Z</time>
      </trkpt>
      <trkpt lat="44.03798" lon="5.76625">
        <ele>694</ele>
        <time>2021-09-04T07:03:50Z</time>
      </trkpt>
      <trkpt lat="44.03756" lon="5.76575">
        <ele>694.20001220703</ele>
        <time>2021-09-04T07:04:00Z</time>
      </trkpt>
      <trkpt lat="44.03752" lon="5.7657">
        <ele>694.20001220703</ele>
        <time>2021-09-04T07:04:01Z</time>
      </trkpt>
      <trkpt lat="44.03721" lon="5.76532">
        <ele>694.59997558594</ele>
        <time>2021-09-04T07:04:09Z</time>
      </trkpt>
      <trkpt lat="44.03688" lon="5.76504">
        <ele>695.20001220703</ele>
        <time>2021-09-04T07:04:17Z</time>
      </trkpt>
      <trkpt lat="44.03676" lon="5.76495">
        <ele>695.59997558594</ele>
        <time>2021-09-04T07:04:20Z</time>
      </trkpt>
      <trkpt lat="44.03672" lon="5.76492">
        <ele>695.79998779297</ele>
        <time>2021-09-04T07:04:21Z</time>
      </trkpt>
      <trkpt lat="44.0366" lon="5.76481">
        <ele>696</ele>
        <time>2021-09-04T07:04:24Z</time>
      </trkpt>
      <trkpt lat="44.03634" lon="5.7645">
        <ele>696.40002441406</ele>
        <time>2021-09-04T07:04:31Z</time>
      </trkpt>
      <trkpt lat="44.03601" lon="5.76406">
        <ele>695.40002441406</ele>
        <time>2021-09-04T07:04:38Z</time>
      </trkpt>
      <trkpt lat="44.03591" lon="5.76395">
        <ele>694.59997558594</ele>
        <time>2021-09-04T07:04:40Z</time>
      </trkpt>
      <trkpt lat="44.03564" lon="5.76366">
        <ele>693.59997558594</ele>
        <time>2021-09-04T07:04:45Z</time>
      </trkpt>
      <trkpt lat="44.03559" lon="5.76359">
        <ele>693.40002441406</ele>
        <time>2021-09-04T07:04:46Z</time>
      </trkpt>
      <trkpt lat="44.03539" lon="5.76331">
        <ele>692.59997558594</ele>
        <time>2021-09-04T07:04:50Z</time>
      </trkpt>
      <trkpt lat="44.03528" lon="5.76318">
        <ele>691.79998779297</ele>
        <time>2021-09-04T07:04:52Z</time>
      </trkpt>
      <trkpt lat="44.03522" lon="5.76312">
        <ele>691.40002441406</ele>
        <time>2021-09-04T07:04:53Z</time>
      </trkpt>
      <trkpt lat="44.03497" lon="5.76285">
        <ele>690.40002441406</ele>
        <time>2021-09-04T07:04:57Z</time>
      </trkpt>
      <trkpt lat="44.03478" lon="5.76264">
        <ele>689.40002441406</ele>
        <time>2021-09-04T07:05:00Z</time>
      </trkpt>
      <trkpt lat="44.03454" lon="5.76231">
        <ele>687.59997558594</ele>
        <time>2021-09-04T07:05:04Z</time>
      </trkpt>
      <trkpt lat="44.03442" lon="5.76214">
        <ele>686.79998779297</ele>
        <time>2021-09-04T07:05:06Z</time>
      </trkpt>
      <trkpt lat="44.03435" lon="5.76206">
        <ele>686.40002441406</ele>
        <time>2021-09-04T07:05:07Z</time>
      </trkpt>
      <trkpt lat="44.03412" lon="5.76188">
        <ele>685.20001220703</ele>
        <time>2021-09-04T07:05:10Z</time>
      </trkpt>
      <trkpt lat="44.03389" lon="5.76171">
        <ele>684</ele>
        <time>2021-09-04T07:05:13Z</time>
      </trkpt>
      <trkpt lat="44.03365" lon="5.76155">
        <ele>683</ele>
        <time>2021-09-04T07:05:16Z</time>
      </trkpt>
      <trkpt lat="44.03349" lon="5.76144">
        <ele>682.20001220703</ele>
        <time>2021-09-04T07:05:18Z</time>
      </trkpt>
      <trkpt lat="44.03341" lon="5.76137">
        <ele>681.79998779297</ele>
        <time>2021-09-04T07:05:19Z</time>
      </trkpt>
      <trkpt lat="44.03319" lon="5.76116">
        <ele>680.59997558594</ele>
        <time>2021-09-04T07:05:22Z</time>
      </trkpt>
      <trkpt lat="44.03313" lon="5.76107">
        <ele>680.20001220703</ele>
        <time>2021-09-04T07:05:23Z</time>
      </trkpt>
      <trkpt lat="44.03307" lon="5.76098">
        <ele>679.79998779297</ele>
        <time>2021-09-04T07:05:24Z</time>
      </trkpt>
      <trkpt lat="44.033" lon="5.7609">
        <ele>679.40002441406</ele>
        <time>2021-09-04T07:05:25Z</time>
      </trkpt>
      <trkpt lat="44.03277" lon="5.76068">
        <ele>677.40002441406</ele>
        <time>2021-09-04T07:05:28Z</time>
      </trkpt>
      <trkpt lat="44.03255" lon="5.76049">
        <ele>676.20001220703</ele>
        <time>2021-09-04T07:05:31Z</time>
      </trkpt>
      <trkpt lat="44.03232" lon="5.76029">
        <ele>675.20001220703</ele>
        <time>2021-09-04T07:05:34Z</time>
      </trkpt>
      <trkpt lat="44.0321" lon="5.76008">
        <ele>674</ele>
        <time>2021-09-04T07:05:37Z</time>
      </trkpt>
      <trkpt lat="44.03202" lon="5.76002">
        <ele>673.59997558594</ele>
        <time>2021-09-04T07:05:38Z</time>
      </trkpt>
      <trkpt lat="44.03187" lon="5.75988">
        <ele>672.79998779297</ele>
        <time>2021-09-04T07:05:40Z</time>
      </trkpt>
      <trkpt lat="44.03165" lon="5.75967">
        <ele>671.79998779297</ele>
        <time>2021-09-04T07:05:43Z</time>
      </trkpt>
      <trkpt lat="44.03143" lon="5.75944">
        <ele>670.59997558594</ele>
        <time>2021-09-04T07:05:46Z</time>
      </trkpt>
      <trkpt lat="44.03121" lon="5.7592">
        <ele>669.20001220703</ele>
        <time>2021-09-04T07:05:49Z</time>
      </trkpt>
      <trkpt lat="44.03099" lon="5.75896">
        <ele>667.79998779297</ele>
        <time>2021-09-04T07:05:52Z</time>
      </trkpt>
      <trkpt lat="44.03085" lon="5.7588">
        <ele>667</ele>
        <time>2021-09-04T07:05:54Z</time>
      </trkpt>
      <trkpt lat="44.03077" lon="5.75873">
        <ele>666.59997558594</ele>
        <time>2021-09-04T07:05:55Z</time>
      </trkpt>
      <trkpt lat="44.03053" lon="5.7585">
        <ele>665.59997558594</ele>
        <time>2021-09-04T07:05:58Z</time>
      </trkpt>
      <trkpt lat="44.03039" lon="5.75834">
        <ele>664.79998779297</ele>
        <time>2021-09-04T07:06:00Z</time>
      </trkpt>
      <trkpt lat="44.03031" lon="5.75827">
        <ele>664.40002441406</ele>
        <time>2021-09-04T07:06:01Z</time>
      </trkpt>
      <trkpt lat="44.03009" lon="5.75803">
        <ele>663.20001220703</ele>
        <time>2021-09-04T07:06:04Z</time>
      </trkpt>
      <trkpt lat="44.02987" lon="5.75779">
        <ele>661.79998779297</ele>
        <time>2021-09-04T07:06:07Z</time>
      </trkpt>
      <trkpt lat="44.02966" lon="5.75753">
        <ele>660.40002441406</ele>
        <time>2021-09-04T07:06:10Z</time>
      </trkpt>
      <trkpt lat="44.02952" lon="5.75735">
        <ele>659.20001220703</ele>
        <time>2021-09-04T07:06:12Z</time>
      </trkpt>
      <trkpt lat="44.02946" lon="5.75725">
        <ele>658.79998779297</ele>
        <time>2021-09-04T07:06:13Z</time>
      </trkpt>
      <trkpt lat="44.0294" lon="5.75715">
        <ele>658.40002441406</ele>
        <time>2021-09-04T07:06:14Z</time>
      </trkpt>
      <trkpt lat="44.02935" lon="5.75703">
        <ele>657.79998779297</ele>
        <time>2021-09-04T07:06:15Z</time>
      </trkpt>
      <trkpt lat="44.02932" lon="5.75691">
        <ele>657</ele>
        <time>2021-09-04T07:06:16Z</time>
      </trkpt>
      <trkpt lat="44.02932" lon="5.75677">
        <ele>656.40002441406</ele>
        <time>2021-09-04T07:06:17Z</time>
      </trkpt>
      <trkpt lat="44.02934" lon="5.75664">
        <ele>656</ele>
        <time>2021-09-04T07:06:18Z</time>
      </trkpt>
      <trkpt lat="44.0294" lon="5.75653">
        <ele>655.40002441406</ele>
        <time>2021-09-04T07:06:19Z</time>
      </trkpt>
      <trkpt lat="44.02947" lon="5.75644">
        <ele>655</ele>
        <time>2021-09-04T07:06:20Z</time>
      </trkpt>
      <trkpt lat="44.02966" lon="5.75633">
        <ele>654</ele>
        <time>2021-09-04T07:06:22Z</time>
      </trkpt>
      <trkpt lat="44.02975" lon="5.75627">
        <ele>653.59997558594</ele>
        <time>2021-09-04T07:06:23Z</time>
      </trkpt>
      <trkpt lat="44.02993" lon="5.75615">
        <ele>652.59997558594</ele>
        <time>2021-09-04T07:06:25Z</time>
      </trkpt>
      <trkpt lat="44.03011" lon="5.75602">
        <ele>651.40002441406</ele>
        <time>2021-09-04T07:06:27Z</time>
      </trkpt>
      <trkpt lat="44.03028" lon="5.75587">
        <ele>650.40002441406</ele>
        <time>2021-09-04T07:06:29Z</time>
      </trkpt>
      <trkpt lat="44.03037" lon="5.7558">
        <ele>649.79998779297</ele>
        <time>2021-09-04T07:06:30Z</time>
      </trkpt>
      <trkpt lat="44.03045" lon="5.7557">
        <ele>649.20001220703</ele>
        <time>2021-09-04T07:06:31Z</time>
      </trkpt>
      <trkpt lat="44.03055" lon="5.75548">
        <ele>648.20001220703</ele>
        <time>2021-09-04T07:06:33Z</time>
      </trkpt>
      <trkpt lat="44.03056" lon="5.75522">
        <ele>646.79998779297</ele>
        <time>2021-09-04T07:06:35Z</time>
      </trkpt>
      <trkpt lat="44.03047" lon="5.75498">
        <ele>645.59997558594</ele>
        <time>2021-09-04T07:06:37Z</time>
      </trkpt>
      <trkpt lat="44.03033" lon="5.7548">
        <ele>644.40002441406</ele>
        <time>2021-09-04T07:06:39Z</time>
      </trkpt>
      <trkpt lat="44.03021" lon="5.7546">
        <ele>643.40002441406</ele>
        <time>2021-09-04T07:06:41Z</time>
      </trkpt>
      <trkpt lat="44.03016" lon="5.75449">
        <ele>643</ele>
        <time>2021-09-04T07:06:42Z</time>
      </trkpt>
      <trkpt lat="44.03004" lon="5.75414">
        <ele>642.40002441406</ele>
        <time>2021-09-04T07:06:45Z</time>
      </trkpt>
      <trkpt lat="44.02993" lon="5.7538">
        <ele>642</ele>
        <time>2021-09-04T07:06:48Z</time>
      </trkpt>
      <trkpt lat="44.02988" lon="5.7537">
        <ele>641.59997558594</ele>
        <time>2021-09-04T07:06:49Z</time>
      </trkpt>
      <trkpt lat="44.02982" lon="5.75361">
        <ele>641.40002441406</ele>
        <time>2021-09-04T07:06:50Z</time>
      </trkpt>
      <trkpt lat="44.02956" lon="5.75333">
        <ele>641</ele>
        <time>2021-09-04T07:06:54Z</time>
      </trkpt>
      <trkpt lat="44.0295" lon="5.75328">
        <ele>641</ele>
        <time>2021-09-04T07:06:55Z</time>
      </trkpt>
      <trkpt lat="44.02908" lon="5.753">
        <ele>640.79998779297</ele>
        <time>2021-09-04T07:07:01Z</time>
      </trkpt>
      <trkpt lat="44.02866" lon="5.75271">
        <ele>639.79998779297</ele>
        <time>2021-09-04T07:07:07Z</time>
      </trkpt>
      <trkpt lat="44.02851" lon="5.75261">
        <ele>639.40002441406</ele>
        <time>2021-09-04T07:07:09Z</time>
      </trkpt>
      <trkpt lat="44.02829" lon="5.75245">
        <ele>638.79998779297</ele>
        <time>2021-09-04T07:07:12Z</time>
      </trkpt>
      <trkpt lat="44.02814" lon="5.75234">
        <ele>638.40002441406</ele>
        <time>2021-09-04T07:07:14Z</time>
      </trkpt>
      <trkpt lat="44.02791" lon="5.75218">
        <ele>637.59997558594</ele>
        <time>2021-09-04T07:07:17Z</time>
      </trkpt>
      <trkpt lat="44.02761" lon="5.75197">
        <ele>636.59997558594</ele>
        <time>2021-09-04T07:07:21Z</time>
      </trkpt>
      <trkpt lat="44.02747" lon="5.75186">
        <ele>636.20001220703</ele>
        <time>2021-09-04T07:07:23Z</time>
      </trkpt>
      <trkpt lat="44.0271" lon="5.75162">
        <ele>635.40002441406</ele>
        <time>2021-09-04T07:07:28Z</time>
      </trkpt>
      <trkpt lat="44.02696" lon="5.75152">
        <ele>635</ele>
        <time>2021-09-04T07:07:30Z</time>
      </trkpt>
      <trkpt lat="44.02652" lon="5.75122">
        <ele>634.20001220703</ele>
        <time>2021-09-04T07:07:36Z</time>
      </trkpt>
      <trkpt lat="44.02625" lon="5.751">
        <ele>633.40002441406</ele>
        <time>2021-09-04T07:07:40Z</time>
      </trkpt>
      <trkpt lat="44.0261" lon="5.75089">
        <ele>633.20001220703</ele>
        <time>2021-09-04T07:07:42Z</time>
      </trkpt>
      <trkpt lat="44.02579" lon="5.75068">
        <ele>632.20001220703</ele>
        <time>2021-09-04T07:07:46Z</time>
      </trkpt>
      <trkpt lat="44.0257" lon="5.75064">
        <ele>632</ele>
        <time>2021-09-04T07:07:47Z</time>
      </trkpt>
      <trkpt lat="44.02545" lon="5.75053">
        <ele>630.79998779297</ele>
        <time>2021-09-04T07:07:50Z</time>
      </trkpt>
      <trkpt lat="44.02528" lon="5.75045">
        <ele>629.59997558594</ele>
        <time>2021-09-04T07:07:52Z</time>
      </trkpt>
      <trkpt lat="44.02519" lon="5.75041">
        <ele>629.20001220703</ele>
        <time>2021-09-04T07:07:53Z</time>
      </trkpt>
      <trkpt lat="44.02502" lon="5.75033">
        <ele>628.40002441406</ele>
        <time>2021-09-04T07:07:55Z</time>
      </trkpt>
      <trkpt lat="44.02468" lon="5.75018">
        <ele>627.40002441406</ele>
        <time>2021-09-04T07:07:59Z</time>
      </trkpt>
      <trkpt lat="44.02451" lon="5.7501">
        <ele>626.79998779297</ele>
        <time>2021-09-04T07:08:01Z</time>
      </trkpt>
      <trkpt lat="44.02435" lon="5.75003">
        <ele>626</ele>
        <time>2021-09-04T07:08:03Z</time>
      </trkpt>
      <trkpt lat="44.024" lon="5.74988">
        <ele>625</ele>
        <time>2021-09-04T07:08:07Z</time>
      </trkpt>
      <trkpt lat="44.02366" lon="5.74974">
        <ele>624</ele>
        <time>2021-09-04T07:08:11Z</time>
      </trkpt>
      <trkpt lat="44.02332" lon="5.74963">
        <ele>622.79998779297</ele>
        <time>2021-09-04T07:08:15Z</time>
      </trkpt>
      <trkpt lat="44.02307" lon="5.74953">
        <ele>621.79998779297</ele>
        <time>2021-09-04T07:08:18Z</time>
      </trkpt>
      <trkpt lat="44.02285" lon="5.74941">
        <ele>621.40002441406</ele>
        <time>2021-09-04T07:08:21Z</time>
      </trkpt>
      <trkpt lat="44.02232" lon="5.74902">
        <ele>621</ele>
        <time>2021-09-04T07:08:29Z</time>
      </trkpt>
      <trkpt lat="44.02226" lon="5.74897">
        <ele>621</ele>
        <time>2021-09-04T07:08:30Z</time>
      </trkpt>
      <trkpt lat="44.02206" lon="5.74882">
        <ele>620.79998779297</ele>
        <time>2021-09-04T07:08:33Z</time>
      </trkpt>
      <trkpt lat="44.02173" lon="5.74855">
        <ele>620</ele>
        <time>2021-09-04T07:08:38Z</time>
      </trkpt>
      <trkpt lat="44.0216" lon="5.74845">
        <ele>619.59997558594</ele>
        <time>2021-09-04T07:08:40Z</time>
      </trkpt>
      <trkpt lat="44.02121" lon="5.7481">
        <ele>618.59997558594</ele>
        <time>2021-09-04T07:08:46Z</time>
      </trkpt>
      <trkpt lat="44.02115" lon="5.74802">
        <ele>618.59997558594</ele>
        <time>2021-09-04T07:08:47Z</time>
      </trkpt>
      <trkpt lat="44.02086" lon="5.74761">
        <ele>617.40002441406</ele>
        <time>2021-09-04T07:08:52Z</time>
      </trkpt>
      <trkpt lat="44.0208" lon="5.74753">
        <ele>617.20001220703</ele>
        <time>2021-09-04T07:08:53Z</time>
      </trkpt>
      <trkpt lat="44.02049" lon="5.74704">
        <ele>616.40002441406</ele>
        <time>2021-09-04T07:08:59Z</time>
      </trkpt>
      <trkpt lat="44.02018" lon="5.74662">
        <ele>616.20001220703</ele>
        <time>2021-09-04T07:09:05Z</time>
      </trkpt>
      <trkpt lat="44.01992" lon="5.74611">
        <ele>615.79998779297</ele>
        <time>2021-09-04T07:09:11Z</time>
      </trkpt>
      <trkpt lat="44.0198" lon="5.74582">
        <ele>615.40002441406</ele>
        <time>2021-09-04T07:09:14Z</time>
      </trkpt>
      <trkpt lat="44.01954" lon="5.74523">
        <ele>614.20001220703</ele>
        <time>2021-09-04T07:09:20Z</time>
      </trkpt>
      <trkpt lat="44.01936" lon="5.74482">
        <ele>613.20001220703</ele>
        <time>2021-09-04T07:09:24Z</time>
      </trkpt>
      <trkpt lat="44.01918" lon="5.74441">
        <ele>612</ele>
        <time>2021-09-04T07:09:28Z</time>
      </trkpt>
      <trkpt lat="44.01914" lon="5.7443">
        <ele>611.59997558594</ele>
        <time>2021-09-04T07:09:29Z</time>
      </trkpt>
      <trkpt lat="44.01914" lon="5.74406">
        <ele>611</ele>
        <time>2021-09-04T07:09:31Z</time>
      </trkpt>
      <trkpt lat="44.01917" lon="5.74394">
        <ele>610.79998779297</ele>
        <time>2021-09-04T07:09:32Z</time>
      </trkpt>
      <trkpt lat="44.01923" lon="5.74385">
        <ele>610.59997558594</ele>
        <time>2021-09-04T07:09:33Z</time>
      </trkpt>
      <trkpt lat="44.01946" lon="5.74366">
        <ele>609.79998779297</ele>
        <time>2021-09-04T07:09:36Z</time>
      </trkpt>
      <trkpt lat="44.01954" lon="5.74361">
        <ele>609.59997558594</ele>
        <time>2021-09-04T07:09:37Z</time>
      </trkpt>
      <trkpt lat="44.01961" lon="5.74354">
        <ele>609.40002441406</ele>
        <time>2021-09-04T07:09:38Z</time>
      </trkpt>
      <trkpt lat="44.01975" lon="5.74338">
        <ele>609</ele>
        <time>2021-09-04T07:09:40Z</time>
      </trkpt>
      <trkpt lat="44.01991" lon="5.7431">
        <ele>608.40002441406</ele>
        <time>2021-09-04T07:09:43Z</time>
      </trkpt>
      <trkpt lat="44.01996" lon="5.74299">
        <ele>608.20001220703</ele>
        <time>2021-09-04T07:09:44Z</time>
      </trkpt>
      <trkpt lat="44.02" lon="5.74289">
        <ele>608</ele>
        <time>2021-09-04T07:09:45Z</time>
      </trkpt>
      <trkpt lat="44.02014" lon="5.74246">
        <ele>607.40002441406</ele>
        <time>2021-09-04T07:09:49Z</time>
      </trkpt>
      <trkpt lat="44.0202" lon="5.74224">
        <ele>607</ele>
        <time>2021-09-04T07:09:51Z</time>
      </trkpt>
      <trkpt lat="44.02027" lon="5.7419">
        <ele>606.20001220703</ele>
        <time>2021-09-04T07:09:54Z</time>
      </trkpt>
      <trkpt lat="44.02034" lon="5.74168">
        <ele>605.79998779297</ele>
        <time>2021-09-04T07:09:56Z</time>
      </trkpt>
      <trkpt lat="44.02039" lon="5.74157">
        <ele>605.59997558594</ele>
        <time>2021-09-04T07:09:57Z</time>
      </trkpt>
      <trkpt lat="44.02058" lon="5.74132">
        <ele>605</ele>
        <time>2021-09-04T07:10:00Z</time>
      </trkpt>
      <trkpt lat="44.02065" lon="5.74124">
        <ele>604.59997558594</ele>
        <time>2021-09-04T07:10:01Z</time>
      </trkpt>
      <trkpt lat="44.02077" lon="5.74107">
        <ele>604</ele>
        <time>2021-09-04T07:10:03Z</time>
      </trkpt>
      <trkpt lat="44.02081" lon="5.74096">
        <ele>603.59997558594</ele>
        <time>2021-09-04T07:10:04Z</time>
      </trkpt>
      <trkpt lat="44.02102" lon="5.74055">
        <ele>602.59997558594</ele>
        <time>2021-09-04T07:10:08Z</time>
      </trkpt>
      <trkpt lat="44.02115" lon="5.74038">
        <ele>602</ele>
        <time>2021-09-04T07:10:10Z</time>
      </trkpt>
      <trkpt lat="44.02127" lon="5.74021">
        <ele>601.40002441406</ele>
        <time>2021-09-04T07:10:12Z</time>
      </trkpt>
      <trkpt lat="44.02132" lon="5.74013">
        <ele>601.20001220703</ele>
        <time>2021-09-04T07:10:13Z</time>
      </trkpt>
      <trkpt lat="44.02158" lon="5.73961">
        <ele>600.59997558594</ele>
        <time>2021-09-04T07:10:19Z</time>
      </trkpt>
      <trkpt lat="44.02171" lon="5.73909">
        <ele>601</ele>
        <time>2021-09-04T07:10:25Z</time>
      </trkpt>
      <trkpt lat="44.02175" lon="5.73861">
        <ele>601.59997558594</ele>
        <time>2021-09-04T07:10:31Z</time>
      </trkpt>
      <trkpt lat="44.02171" lon="5.73818">
        <ele>602.20001220703</ele>
        <time>2021-09-04T07:10:37Z</time>
      </trkpt>
      <trkpt lat="44.02166" lon="5.73799">
        <ele>602.59997558594</ele>
        <time>2021-09-04T07:10:40Z</time>
      </trkpt>
      <trkpt lat="44.02157" lon="5.73761">
        <ele>603.20001220703</ele>
        <time>2021-09-04T07:10:46Z</time>
      </trkpt>
      <trkpt lat="44.02148" lon="5.73738">
        <ele>603.59997558594</ele>
        <time>2021-09-04T07:10:50Z</time>
      </trkpt>
      <trkpt lat="44.02142" lon="5.73722">
        <ele>603.79998779297</ele>
        <time>2021-09-04T07:10:53Z</time>
      </trkpt>
      <trkpt lat="44.02134" lon="5.737">
        <ele>604.20001220703</ele>
        <time>2021-09-04T07:10:57Z</time>
      </trkpt>
      <trkpt lat="44.02132" lon="5.73687">
        <ele>604.20001220703</ele>
        <time>2021-09-04T07:10:59Z</time>
      </trkpt>
      <trkpt lat="44.0213" lon="5.73681">
        <ele>604.40002441406</ele>
        <time>2021-09-04T07:11:00Z</time>
      </trkpt>
      <trkpt lat="44.02129" lon="5.73662">
        <ele>604.20001220703</ele>
        <time>2021-09-04T07:11:03Z</time>
      </trkpt>
      <trkpt lat="44.02127" lon="5.73649">
        <ele>604.20001220703</ele>
        <time>2021-09-04T07:11:05Z</time>
      </trkpt>
      <trkpt lat="44.02116" lon="5.73628">
        <ele>604.40002441406</ele>
        <time>2021-09-04T07:11:09Z</time>
      </trkpt>
      <trkpt lat="44.02104" lon="5.7361">
        <ele>604.59997558594</ele>
        <time>2021-09-04T07:11:13Z</time>
      </trkpt>
      <trkpt lat="44.02097" lon="5.73596">
        <ele>605</ele>
        <time>2021-09-04T07:11:16Z</time>
      </trkpt>
      <trkpt lat="44.02087" lon="5.73574">
        <ele>605.79998779297</ele>
        <time>2021-09-04T07:11:22Z</time>
      </trkpt>
      <trkpt lat="44.02078" lon="5.73555">
        <ele>607</ele>
        <time>2021-09-04T07:11:28Z</time>
      </trkpt>
      <trkpt lat="44.02075" lon="5.73548">
        <ele>607.20001220703</ele>
        <time>2021-09-04T07:11:30Z</time>
      </trkpt>
      <trkpt lat="44.02068" lon="5.73531">
        <ele>608</ele>
        <time>2021-09-04T07:11:35Z</time>
      </trkpt>
      <trkpt lat="44.02067" lon="5.73528">
        <ele>608.20001220703</ele>
        <time>2021-09-04T07:11:36Z</time>
      </trkpt>
      <trkpt lat="44.02056" lon="5.73505">
        <ele>609.20001220703</ele>
        <time>2021-09-04T07:11:43Z</time>
      </trkpt>
      <trkpt lat="44.02054" lon="5.73502">
        <ele>609.20001220703</ele>
        <time>2021-09-04T07:11:44Z</time>
      </trkpt>
      <trkpt lat="44.02044" lon="5.73484">
        <ele>610.20001220703</ele>
        <time>2021-09-04T07:11:50Z</time>
      </trkpt>
      <trkpt lat="44.02037" lon="5.73473">
        <ele>611.20001220703</ele>
        <time>2021-09-04T07:11:54Z</time>
      </trkpt>
      <trkpt lat="44.02027" lon="5.73462">
        <ele>611.59997558594</ele>
        <time>2021-09-04T07:11:59Z</time>
      </trkpt>
      <trkpt lat="44.02018" lon="5.73451">
        <ele>612.20001220703</ele>
        <time>2021-09-04T07:12:03Z</time>
      </trkpt>
      <trkpt lat="44.02008" lon="5.73443">
        <ele>612.59997558594</ele>
        <time>2021-09-04T07:12:07Z</time>
      </trkpt>
      <trkpt lat="44.01986" lon="5.73421">
        <ele>613.20001220703</ele>
        <time>2021-09-04T07:12:16Z</time>
      </trkpt>
      <trkpt lat="44.01958" lon="5.73396">
        <ele>613.79998779297</ele>
        <time>2021-09-04T07:12:26Z</time>
      </trkpt>
      <trkpt lat="44.01933" lon="5.73371">
        <ele>614.40002441406</ele>
        <time>2021-09-04T07:12:35Z</time>
      </trkpt>
      <trkpt lat="44.01917" lon="5.7335">
        <ele>615.59997558594</ele>
        <time>2021-09-04T07:12:42Z</time>
      </trkpt>
      <trkpt lat="44.0191" lon="5.7334">
        <ele>616</ele>
        <time>2021-09-04T07:12:45Z</time>
      </trkpt>
      <trkpt lat="44.01902" lon="5.73326">
        <ele>616.59997558594</ele>
        <time>2021-09-04T07:12:49Z</time>
      </trkpt>
      <trkpt lat="44.01896" lon="5.73311">
        <ele>617.20001220703</ele>
        <time>2021-09-04T07:12:53Z</time>
      </trkpt>
      <trkpt lat="44.01892" lon="5.73297">
        <ele>617.59997558594</ele>
        <time>2021-09-04T07:12:57Z</time>
      </trkpt>
      <trkpt lat="44.0189" lon="5.73281">
        <ele>618.20001220703</ele>
        <time>2021-09-04T07:13:01Z</time>
      </trkpt>
      <trkpt lat="44.01889" lon="5.7327">
        <ele>618.79998779297</ele>
        <time>2021-09-04T07:13:04Z</time>
      </trkpt>
      <trkpt lat="44.01888" lon="5.73245">
        <ele>619.79998779297</ele>
        <time>2021-09-04T07:13:10Z</time>
      </trkpt>
      <trkpt lat="44.01888" lon="5.73241">
        <ele>620</ele>
        <time>2021-09-04T07:13:11Z</time>
      </trkpt>
      <trkpt lat="44.01887" lon="5.73215">
        <ele>621</ele>
        <time>2021-09-04T07:13:18Z</time>
      </trkpt>
      <trkpt lat="44.01888" lon="5.73207">
        <ele>621.20001220703</ele>
        <time>2021-09-04T07:13:20Z</time>
      </trkpt>
      <trkpt lat="44.01888" lon="5.73187">
        <ele>622</ele>
        <time>2021-09-04T07:13:25Z</time>
      </trkpt>
      <trkpt lat="44.01889" lon="5.73175">
        <ele>622.59997558594</ele>
        <time>2021-09-04T07:13:28Z</time>
      </trkpt>
      <trkpt lat="44.0189" lon="5.73159">
        <ele>623.20001220703</ele>
        <time>2021-09-04T07:13:32Z</time>
      </trkpt>
      <trkpt lat="44.01891" lon="5.73136">
        <ele>624</ele>
        <time>2021-09-04T07:13:38Z</time>
      </trkpt>
      <trkpt lat="44.01893" lon="5.73129">
        <ele>624.20001220703</ele>
        <time>2021-09-04T07:13:40Z</time>
      </trkpt>
      <trkpt lat="44.01895" lon="5.73106">
        <ele>625.20001220703</ele>
        <time>2021-09-04T07:13:46Z</time>
      </trkpt>
      <trkpt lat="44.01895" lon="5.73102">
        <ele>625.20001220703</ele>
        <time>2021-09-04T07:13:47Z</time>
      </trkpt>
      <trkpt lat="44.01898" lon="5.73081">
        <ele>626</ele>
        <time>2021-09-04T07:13:52Z</time>
      </trkpt>
      <trkpt lat="44.01898" lon="5.73072">
        <ele>626.40002441406</ele>
        <time>2021-09-04T07:13:54Z</time>
      </trkpt>
      <trkpt lat="44.019" lon="5.73043">
        <ele>626.79998779297</ele>
        <time>2021-09-04T07:14:00Z</time>
      </trkpt>
      <trkpt lat="44.01896" lon="5.73011">
        <ele>627.40002441406</ele>
        <time>2021-09-04T07:14:07Z</time>
      </trkpt>
      <trkpt lat="44.01886" lon="5.7298">
        <ele>628</ele>
        <time>2021-09-04T07:14:14Z</time>
      </trkpt>
      <trkpt lat="44.0188" lon="5.72962">
        <ele>628.40002441406</ele>
        <time>2021-09-04T07:14:18Z</time>
      </trkpt>
      <trkpt lat="44.01872" lon="5.72935">
        <ele>629</ele>
        <time>2021-09-04T07:14:24Z</time>
      </trkpt>
      <trkpt lat="44.01862" lon="5.72896">
        <ele>629.20001220703</ele>
        <time>2021-09-04T07:14:32Z</time>
      </trkpt>
      <trkpt lat="44.0186" lon="5.72886">
        <ele>629.59997558594</ele>
        <time>2021-09-04T07:14:34Z</time>
      </trkpt>
      <trkpt lat="44.01855" lon="5.7286">
        <ele>630</ele>
        <time>2021-09-04T07:14:39Z</time>
      </trkpt>
      <trkpt lat="44.01855" lon="5.7283">
        <ele>630.59997558594</ele>
        <time>2021-09-04T07:14:45Z</time>
      </trkpt>
      <trkpt lat="44.01855" lon="5.7282">
        <ele>630.79998779297</ele>
        <time>2021-09-04T07:14:47Z</time>
      </trkpt>
      <trkpt lat="44.01865" lon="5.72777">
        <ele>631.59997558594</ele>
        <time>2021-09-04T07:14:55Z</time>
      </trkpt>
      <trkpt lat="44.01866" lon="5.72772">
        <ele>631.59997558594</ele>
        <time>2021-09-04T07:14:56Z</time>
      </trkpt>
      <trkpt lat="44.01878" lon="5.72746">
        <ele>632.20001220703</ele>
        <time>2021-09-04T07:15:02Z</time>
      </trkpt>
      <trkpt lat="44.01884" lon="5.72732">
        <ele>632.79998779297</ele>
        <time>2021-09-04T07:15:05Z</time>
      </trkpt>
      <trkpt lat="44.01891" lon="5.72708">
        <ele>633.40002441406</ele>
        <time>2021-09-04T07:15:10Z</time>
      </trkpt>
      <trkpt lat="44.01897" lon="5.72688">
        <ele>633.79998779297</ele>
        <time>2021-09-04T07:15:14Z</time>
      </trkpt>
      <trkpt lat="44.01902" lon="5.72663">
        <ele>634.20001220703</ele>
        <time>2021-09-04T07:15:19Z</time>
      </trkpt>
      <trkpt lat="44.01913" lon="5.72621">
        <ele>634.79998779297</ele>
        <time>2021-09-04T07:15:27Z</time>
      </trkpt>
      <trkpt lat="44.01914" lon="5.72616">
        <ele>635</ele>
        <time>2021-09-04T07:15:28Z</time>
      </trkpt>
      <trkpt lat="44.01925" lon="5.72574">
        <ele>635.40002441406</ele>
        <time>2021-09-04T07:15:36Z</time>
      </trkpt>
      <trkpt lat="44.01927" lon="5.72553">
        <ele>635.79998779297</ele>
        <time>2021-09-04T07:15:41Z</time>
      </trkpt>
      <trkpt lat="44.01929" lon="5.7255">
        <ele>635.40002441406</ele>
        <time>2021-09-04T07:24:00Z</time>
      </trkpt>
      <trkpt lat="44.01938" lon="5.72539">
        <ele>635.59997558594</ele>
        <time>2021-09-04T07:24:05Z</time>
      </trkpt>
      <trkpt lat="44.01944" lon="5.72524">
        <ele>635.59997558594</ele>
        <time>2021-09-04T07:24:09Z</time>
      </trkpt>
      <trkpt lat="44.01961" lon="5.7249">
        <ele>636.59997558594</ele>
        <time>2021-09-04T07:24:18Z</time>
      </trkpt>
      <trkpt lat="44.01971" lon="5.72472">
        <ele>637</ele>
        <time>2021-09-04T07:24:23Z</time>
      </trkpt>
      <trkpt lat="44.01984" lon="5.72453">
        <ele>637.59997558594</ele>
        <time>2021-09-04T07:24:29Z</time>
      </trkpt>
      <trkpt lat="44.0199" lon="5.72444">
        <ele>638</ele>
        <time>2021-09-04T07:24:32Z</time>
      </trkpt>
      <trkpt lat="44.02002" lon="5.7243">
        <ele>638.59997558594</ele>
        <time>2021-09-04T07:24:37Z</time>
      </trkpt>
      <trkpt lat="44.02012" lon="5.72414">
        <ele>639.20001220703</ele>
        <time>2021-09-04T07:24:42Z</time>
      </trkpt>
      <trkpt lat="44.02018" lon="5.72406">
        <ele>639.59997558594</ele>
        <time>2021-09-04T07:24:45Z</time>
      </trkpt>
      <trkpt lat="44.02027" lon="5.72391">
        <ele>640.40002441406</ele>
        <time>2021-09-04T07:24:50Z</time>
      </trkpt>
      <trkpt lat="44.02029" lon="5.72384">
        <ele>640.59997558594</ele>
        <time>2021-09-04T07:24:52Z</time>
      </trkpt>
      <trkpt lat="44.02035" lon="5.7237">
        <ele>641.40002441406</ele>
        <time>2021-09-04T07:24:56Z</time>
      </trkpt>
      <trkpt lat="44.0204" lon="5.72357">
        <ele>642</ele>
        <time>2021-09-04T07:25:00Z</time>
      </trkpt>
      <trkpt lat="44.02046" lon="5.72343">
        <ele>642.40002441406</ele>
        <time>2021-09-04T07:25:04Z</time>
      </trkpt>
      <trkpt lat="44.02049" lon="5.72336">
        <ele>642.79998779297</ele>
        <time>2021-09-04T07:25:06Z</time>
      </trkpt>
      <trkpt lat="44.02059" lon="5.72309">
        <ele>643.40002441406</ele>
        <time>2021-09-04T07:25:13Z</time>
      </trkpt>
      <trkpt lat="44.0206" lon="5.72305">
        <ele>643.59997558594</ele>
        <time>2021-09-04T07:25:14Z</time>
      </trkpt>
      <trkpt lat="44.02073" lon="5.72274">
        <ele>643.79998779297</ele>
        <time>2021-09-04T07:25:21Z</time>
      </trkpt>
      <trkpt lat="44.02095" lon="5.72232">
        <ele>643.59997558594</ele>
        <time>2021-09-04T07:25:29Z</time>
      </trkpt>
      <trkpt lat="44.0211" lon="5.72191">
        <ele>643.20001220703</ele>
        <time>2021-09-04T07:25:35Z</time>
      </trkpt>
      <trkpt lat="44.02116" lon="5.72144">
        <ele>642.79998779297</ele>
        <time>2021-09-04T07:25:41Z</time>
      </trkpt>
      <trkpt lat="44.02112" lon="5.72088">
        <ele>642.59997558594</ele>
        <time>2021-09-04T07:25:48Z</time>
      </trkpt>
      <trkpt lat="44.02105" lon="5.72038">
        <ele>642.59997558594</ele>
        <time>2021-09-04T07:25:55Z</time>
      </trkpt>
      <trkpt lat="44.02104" lon="5.72025">
        <ele>642.79998779297</ele>
        <time>2021-09-04T07:25:57Z</time>
      </trkpt>
      <trkpt lat="44.02103" lon="5.72">
        <ele>643.40002441406</ele>
        <time>2021-09-04T07:26:01Z</time>
      </trkpt>
      <trkpt lat="44.02102" lon="5.71937">
        <ele>644.20001220703</ele>
        <time>2021-09-04T07:26:11Z</time>
      </trkpt>
      <trkpt lat="44.02102" lon="5.71888">
        <ele>644.20001220703</ele>
        <time>2021-09-04T07:26:18Z</time>
      </trkpt>
      <trkpt lat="44.02102" lon="5.71809">
        <ele>644.40002441406</ele>
        <time>2021-09-04T07:26:29Z</time>
      </trkpt>
      <trkpt lat="44.02102" lon="5.71774">
        <ele>644.40002441406</ele>
        <time>2021-09-04T07:26:34Z</time>
      </trkpt>
      <trkpt lat="44.02103" lon="5.71755">
        <ele>644.79998779297</ele>
        <time>2021-09-04T07:26:37Z</time>
      </trkpt>
      <trkpt lat="44.02104" lon="5.71707">
        <ele>645.59997558594</ele>
        <time>2021-09-04T07:26:45Z</time>
      </trkpt>
      <trkpt lat="44.02106" lon="5.71647">
        <ele>646.20001220703</ele>
        <time>2021-09-04T07:26:55Z</time>
      </trkpt>
      <trkpt lat="44.02107" lon="5.71618">
        <ele>646.40002441406</ele>
        <time>2021-09-04T07:27:01Z</time>
      </trkpt>
      <trkpt lat="44.02107" lon="5.71614">
        <ele>646.59997558594</ele>
        <time>2021-09-04T07:27:02Z</time>
      </trkpt>
      <trkpt lat="44.02108" lon="5.71601">
        <ele>646.79998779297</ele>
        <time>2021-09-04T07:27:07Z</time>
      </trkpt>
      <trkpt lat="44.02107" lon="5.71599">
        <ele>646.79998779297</ele>
        <time>2021-09-04T07:28:23Z</time>
      </trkpt>
      <trkpt lat="44.02107" lon="5.71596">
        <ele>646.79998779297</ele>
        <time>2021-09-04T07:28:24Z</time>
      </trkpt>
      <trkpt lat="44.02106" lon="5.71593">
        <ele>646.79998779297</ele>
        <time>2021-09-04T07:28:25Z</time>
      </trkpt>
      <trkpt lat="44.02107" lon="5.71577">
        <ele>646.79998779297</ele>
        <time>2021-09-04T07:28:29Z</time>
      </trkpt>
      <trkpt lat="44.02108" lon="5.71572">
        <ele>646.79998779297</ele>
        <time>2021-09-04T07:28:30Z</time>
      </trkpt>
      <trkpt lat="44.0211" lon="5.71535">
        <ele>647.20001220703</ele>
        <time>2021-09-04T07:28:36Z</time>
      </trkpt>
      <trkpt lat="44.02113" lon="5.71471">
        <ele>646.59997558594</ele>
        <time>2021-09-04T07:28:45Z</time>
      </trkpt>
      <trkpt lat="44.0212" lon="5.71422">
        <ele>646.20001220703</ele>
        <time>2021-09-04T07:28:53Z</time>
      </trkpt>
      <trkpt lat="44.02126" lon="5.71398">
        <ele>646.20001220703</ele>
        <time>2021-09-04T07:28:57Z</time>
      </trkpt>
      <trkpt lat="44.02135" lon="5.71383">
        <ele>646.20001220703</ele>
        <time>2021-09-04T07:29:00Z</time>
      </trkpt>
      <trkpt lat="44.02148" lon="5.71363">
        <ele>646.40002441406</ele>
        <time>2021-09-04T07:29:05Z</time>
      </trkpt>
      <trkpt lat="44.02169" lon="5.71326">
        <ele>646.20001220703</ele>
        <time>2021-09-04T07:29:12Z</time>
      </trkpt>
      <trkpt lat="44.02182" lon="5.71286">
        <ele>646</ele>
        <time>2021-09-04T07:29:18Z</time>
      </trkpt>
      <trkpt lat="44.02182" lon="5.71279">
        <ele>646</ele>
        <time>2021-09-04T07:29:19Z</time>
      </trkpt>
      <trkpt lat="44.02176" lon="5.71261">
        <ele>646</ele>
        <time>2021-09-04T07:29:22Z</time>
      </trkpt>
      <trkpt lat="44.02162" lon="5.7124">
        <ele>646</ele>
        <time>2021-09-04T07:29:27Z</time>
      </trkpt>
      <trkpt lat="44.02161" lon="5.71232">
        <ele>645.59997558594</ele>
        <time>2021-09-04T07:29:31Z</time>
      </trkpt>
      <trkpt lat="44.0216" lon="5.71239">
        <ele>644.20001220703</ele>
        <time>2021-09-04T07:40:18Z</time>
      </trkpt>
      <trkpt lat="44.02162" lon="5.71246">
        <ele>644.20001220703</ele>
        <time>2021-09-04T07:40:20Z</time>
      </trkpt>
      <trkpt lat="44.02169" lon="5.71254">
        <ele>644.40002441406</ele>
        <time>2021-09-04T07:40:23Z</time>
      </trkpt>
      <trkpt lat="44.02172" lon="5.71255">
        <ele>644.40002441406</ele>
        <time>2021-09-04T07:40:24Z</time>
      </trkpt>
      <trkpt lat="44.0218" lon="5.71261">
        <ele>644.40002441406</ele>
        <time>2021-09-04T07:40:27Z</time>
      </trkpt>
      <trkpt lat="44.02187" lon="5.71264">
        <ele>644.59997558594</ele>
        <time>2021-09-04T07:40:30Z</time>
      </trkpt>
      <trkpt lat="44.02195" lon="5.71271">
        <ele>645.20001220703</ele>
        <time>2021-09-04T07:40:34Z</time>
      </trkpt>
      <trkpt lat="44.02199" lon="5.71273">
        <ele>645.59997558594</ele>
        <time>2021-09-04T07:40:36Z</time>
      </trkpt>
      <trkpt lat="44.02205" lon="5.71276">
        <ele>646.40002441406</ele>
        <time>2021-09-04T07:40:39Z</time>
      </trkpt>
      <trkpt lat="44.02211" lon="5.71279">
        <ele>647</ele>
        <time>2021-09-04T07:40:42Z</time>
      </trkpt>
      <trkpt lat="44.02213" lon="5.71279">
        <ele>647.40002441406</ele>
        <time>2021-09-04T07:40:43Z</time>
      </trkpt>
      <trkpt lat="44.02224" lon="5.71286">
        <ele>648.40002441406</ele>
        <time>2021-09-04T07:40:49Z</time>
      </trkpt>
      <trkpt lat="44.02236" lon="5.71292">
        <ele>649.59997558594</ele>
        <time>2021-09-04T07:40:56Z</time>
      </trkpt>
      <trkpt lat="44.02238" lon="5.71294">
        <ele>649.79998779297</ele>
        <time>2021-09-04T07:40:57Z</time>
      </trkpt>
      <trkpt lat="44.02247" lon="5.71305">
        <ele>650.59997558594</ele>
        <time>2021-09-04T07:41:03Z</time>
      </trkpt>
      <trkpt lat="44.02256" lon="5.71314">
        <ele>651.59997558594</ele>
        <time>2021-09-04T07:41:09Z</time>
      </trkpt>
      <trkpt lat="44.02258" lon="5.71316">
        <ele>651.79998779297</ele>
        <time>2021-09-04T07:41:10Z</time>
      </trkpt>
      <trkpt lat="44.02269" lon="5.71329">
        <ele>652.79998779297</ele>
        <time>2021-09-04T07:41:17Z</time>
      </trkpt>
      <trkpt lat="44.02271" lon="5.7133">
        <ele>653</ele>
        <time>2021-09-04T07:41:18Z</time>
      </trkpt>
      <trkpt lat="44.02283" lon="5.71341">
        <ele>653.79998779297</ele>
        <time>2021-09-04T07:41:25Z</time>
      </trkpt>
      <trkpt lat="44.02287" lon="5.71344">
        <ele>653.79998779297</ele>
        <time>2021-09-04T07:41:27Z</time>
      </trkpt>
      <trkpt lat="44.02296" lon="5.7135">
        <ele>654.59997558594</ele>
        <time>2021-09-04T07:41:32Z</time>
      </trkpt>
      <trkpt lat="44.02303" lon="5.7135">
        <ele>654.79998779297</ele>
        <time>2021-09-04T07:41:35Z</time>
      </trkpt>
      <trkpt lat="44.02307" lon="5.71348">
        <ele>654.79998779297</ele>
        <time>2021-09-04T07:41:37Z</time>
      </trkpt>
      <trkpt lat="44.0231" lon="5.71347">
        <ele>655</ele>
        <time>2021-09-04T07:41:38Z</time>
      </trkpt>
      <trkpt lat="44.02328" lon="5.71335">
        <ele>655</ele>
        <time>2021-09-04T07:41:45Z</time>
      </trkpt>
      <trkpt lat="44.02349" lon="5.71323">
        <ele>655.40002441406</ele>
        <time>2021-09-04T07:41:52Z</time>
      </trkpt>
      <trkpt lat="44.02368" lon="5.71314">
        <ele>656</ele>
        <time>2021-09-04T07:41:58Z</time>
      </trkpt>
      <trkpt lat="44.02374" lon="5.7131">
        <ele>656.20001220703</ele>
        <time>2021-09-04T07:42:00Z</time>
      </trkpt>
      <trkpt lat="44.02404" lon="5.71295">
        <ele>657</ele>
        <time>2021-09-04T07:42:09Z</time>
      </trkpt>
      <trkpt lat="44.02411" lon="5.71291">
        <ele>657.20001220703</ele>
        <time>2021-09-04T07:42:11Z</time>
      </trkpt>
      <trkpt lat="44.02425" lon="5.71283">
        <ele>657.79998779297</ele>
        <time>2021-09-04T07:42:16Z</time>
      </trkpt>
      <trkpt lat="44.02435" lon="5.71278">
        <ele>658.20001220703</ele>
        <time>2021-09-04T07:42:19Z</time>
      </trkpt>
      <trkpt lat="44.02461" lon="5.71265">
        <ele>659</ele>
        <time>2021-09-04T07:42:27Z</time>
      </trkpt>
      <trkpt lat="44.02467" lon="5.71262">
        <ele>659.20001220703</ele>
        <time>2021-09-04T07:42:29Z</time>
      </trkpt>
      <trkpt lat="44.02486" lon="5.71252">
        <ele>660</ele>
        <time>2021-09-04T07:42:35Z</time>
      </trkpt>
      <trkpt lat="44.02496" lon="5.71247">
        <ele>660.20001220703</ele>
        <time>2021-09-04T07:42:38Z</time>
      </trkpt>
      <trkpt lat="44.02519" lon="5.71233">
        <ele>661.40002441406</ele>
        <time>2021-09-04T07:42:45Z</time>
      </trkpt>
      <trkpt lat="44.02552" lon="5.71216">
        <ele>662.40002441406</ele>
        <time>2021-09-04T07:42:55Z</time>
      </trkpt>
      <trkpt lat="44.02579" lon="5.71201">
        <ele>663.40002441406</ele>
        <time>2021-09-04T07:43:03Z</time>
      </trkpt>
      <trkpt lat="44.02583" lon="5.71199">
        <ele>663.59997558594</ele>
        <time>2021-09-04T07:43:04Z</time>
      </trkpt>
      <trkpt lat="44.02606" lon="5.71186">
        <ele>664.40002441406</ele>
        <time>2021-09-04T07:43:11Z</time>
      </trkpt>
      <trkpt lat="44.0262" lon="5.7118">
        <ele>665</ele>
        <time>2021-09-04T07:43:15Z</time>
      </trkpt>
      <trkpt lat="44.02641" lon="5.71168">
        <ele>665.59997558594</ele>
        <time>2021-09-04T07:43:21Z</time>
      </trkpt>
      <trkpt lat="44.02655" lon="5.7116">
        <ele>666</ele>
        <time>2021-09-04T07:43:25Z</time>
      </trkpt>
      <trkpt lat="44.02676" lon="5.71149">
        <ele>666.59997558594</ele>
        <time>2021-09-04T07:43:31Z</time>
      </trkpt>
      <trkpt lat="44.02693" lon="5.71139">
        <ele>667.20001220703</ele>
        <time>2021-09-04T07:43:36Z</time>
      </trkpt>
      <trkpt lat="44.02703" lon="5.71135">
        <ele>667.59997558594</ele>
        <time>2021-09-04T07:43:39Z</time>
      </trkpt>
      <trkpt lat="44.02725" lon="5.71127">
        <ele>668.20001220703</ele>
        <time>2021-09-04T07:43:45Z</time>
      </trkpt>
      <trkpt lat="44.02738" lon="5.71124">
        <ele>668.59997558594</ele>
        <time>2021-09-04T07:43:49Z</time>
      </trkpt>
      <trkpt lat="44.02749" lon="5.71125">
        <ele>669</ele>
        <time>2021-09-04T07:43:52Z</time>
      </trkpt>
      <trkpt lat="44.02769" lon="5.71127">
        <ele>669.79998779297</ele>
        <time>2021-09-04T07:43:58Z</time>
      </trkpt>
      <trkpt lat="44.02772" lon="5.71128">
        <ele>670</ele>
        <time>2021-09-04T07:43:59Z</time>
      </trkpt>
      <trkpt lat="44.02793" lon="5.71131">
        <ele>670.79998779297</ele>
        <time>2021-09-04T07:44:05Z</time>
      </trkpt>
      <trkpt lat="44.028" lon="5.71132">
        <ele>671.20001220703</ele>
        <time>2021-09-04T07:44:07Z</time>
      </trkpt>
      <trkpt lat="44.02824" lon="5.71134">
        <ele>672</ele>
        <time>2021-09-04T07:44:14Z</time>
      </trkpt>
      <trkpt lat="44.02827" lon="5.71134">
        <ele>672.20001220703</ele>
        <time>2021-09-04T07:44:15Z</time>
      </trkpt>
      <trkpt lat="44.02848" lon="5.71137">
        <ele>673</ele>
        <time>2021-09-04T07:44:21Z</time>
      </trkpt>
      <trkpt lat="44.02861" lon="5.71138">
        <ele>673.40002441406</ele>
        <time>2021-09-04T07:44:25Z</time>
      </trkpt>
      <trkpt lat="44.02875" lon="5.7114">
        <ele>674</ele>
        <time>2021-09-04T07:44:29Z</time>
      </trkpt>
      <trkpt lat="44.02892" lon="5.71142">
        <ele>674.59997558594</ele>
        <time>2021-09-04T07:44:34Z</time>
      </trkpt>
      <trkpt lat="44.02906" lon="5.71143">
        <ele>675.20001220703</ele>
        <time>2021-09-04T07:44:38Z</time>
      </trkpt>
      <trkpt lat="44.0292" lon="5.71145">
        <ele>675.59997558594</ele>
        <time>2021-09-04T07:44:42Z</time>
      </trkpt>
      <trkpt lat="44.02933" lon="5.71146">
        <ele>676.20001220703</ele>
        <time>2021-09-04T07:44:46Z</time>
      </trkpt>
      <trkpt lat="44.0295" lon="5.71148">
        <ele>676.79998779297</ele>
        <time>2021-09-04T07:44:51Z</time>
      </trkpt>
      <trkpt lat="44.0296" lon="5.71149">
        <ele>677.20001220703</ele>
        <time>2021-09-04T07:44:54Z</time>
      </trkpt>
      <trkpt lat="44.02978" lon="5.71151">
        <ele>678</ele>
        <time>2021-09-04T07:44:59Z</time>
      </trkpt>
      <trkpt lat="44.02988" lon="5.71151">
        <ele>678.40002441406</ele>
        <time>2021-09-04T07:45:02Z</time>
      </trkpt>
      <trkpt lat="44.03015" lon="5.71155">
        <ele>679.40002441406</ele>
        <time>2021-09-04T07:45:10Z</time>
      </trkpt>
      <trkpt lat="44.03019" lon="5.71155">
        <ele>679.59997558594</ele>
        <time>2021-09-04T07:45:11Z</time>
      </trkpt>
      <trkpt lat="44.03045" lon="5.71157">
        <ele>680.59997558594</ele>
        <time>2021-09-04T07:45:19Z</time>
      </trkpt>
      <trkpt lat="44.03056" lon="5.71158">
        <ele>680.79998779297</ele>
        <time>2021-09-04T07:45:22Z</time>
      </trkpt>
      <trkpt lat="44.03079" lon="5.7116">
        <ele>681.59997558594</ele>
        <time>2021-09-04T07:45:29Z</time>
      </trkpt>
      <trkpt lat="44.03086" lon="5.71161">
        <ele>681.79998779297</ele>
        <time>2021-09-04T07:45:31Z</time>
      </trkpt>
      <trkpt lat="44.03111" lon="5.71164">
        <ele>682.59997558594</ele>
        <time>2021-09-04T07:45:38Z</time>
      </trkpt>
      <trkpt lat="44.03142" lon="5.71168">
        <ele>683.79998779297</ele>
        <time>2021-09-04T07:45:47Z</time>
      </trkpt>
      <trkpt lat="44.03167" lon="5.7117">
        <ele>684.79998779297</ele>
        <time>2021-09-04T07:45:55Z</time>
      </trkpt>
      <trkpt lat="44.03171" lon="5.71171">
        <ele>685.20001220703</ele>
        <time>2021-09-04T07:45:56Z</time>
      </trkpt>
      <trkpt lat="44.03182" lon="5.71172">
        <ele>686</ele>
        <time>2021-09-04T07:46:00Z</time>
      </trkpt>
      <trkpt lat="44.03193" lon="5.71173">
        <ele>686.59997558594</ele>
        <time>2021-09-04T07:46:04Z</time>
      </trkpt>
      <trkpt lat="44.03202" lon="5.71172">
        <ele>687</ele>
        <time>2021-09-04T07:46:07Z</time>
      </trkpt>
      <trkpt lat="44.03213" lon="5.7117">
        <ele>687.79998779297</ele>
        <time>2021-09-04T07:46:11Z</time>
      </trkpt>
      <trkpt lat="44.03219" lon="5.7117">
        <ele>688</ele>
        <time>2021-09-04T07:46:13Z</time>
      </trkpt>
      <trkpt lat="44.03231" lon="5.71169">
        <ele>688.79998779297</ele>
        <time>2021-09-04T07:46:17Z</time>
      </trkpt>
      <trkpt lat="44.03236" lon="5.71168">
        <ele>689.20001220703</ele>
        <time>2021-09-04T07:46:19Z</time>
      </trkpt>
      <trkpt lat="44.03249" lon="5.71168">
        <ele>690.40002441406</ele>
        <time>2021-09-04T07:46:24Z</time>
      </trkpt>
      <trkpt lat="44.0327" lon="5.71167">
        <ele>691.40002441406</ele>
        <time>2021-09-04T07:46:32Z</time>
      </trkpt>
      <trkpt lat="44.03275" lon="5.71166">
        <ele>691.59997558594</ele>
        <time>2021-09-04T07:46:34Z</time>
      </trkpt>
      <trkpt lat="44.03297" lon="5.7116">
        <ele>692.59997558594</ele>
        <time>2021-09-04T07:46:42Z</time>
      </trkpt>
      <trkpt lat="44.03316" lon="5.71152">
        <ele>693.40002441406</ele>
        <time>2021-09-04T07:46:49Z</time>
      </trkpt>
      <trkpt lat="44.03322" lon="5.71149">
        <ele>693.59997558594</ele>
        <time>2021-09-04T07:46:51Z</time>
      </trkpt>
      <trkpt lat="44.03341" lon="5.71141">
        <ele>694</ele>
        <time>2021-09-04T07:46:56Z</time>
      </trkpt>
      <trkpt lat="44.03349" lon="5.71138">
        <ele>694</ele>
        <time>2021-09-04T07:46:58Z</time>
      </trkpt>
      <trkpt lat="44.0337" lon="5.7113">
        <ele>694.20001220703</ele>
        <time>2021-09-04T07:47:03Z</time>
      </trkpt>
      <trkpt lat="44.03402" lon="5.7112">
        <ele>694.59997558594</ele>
        <time>2021-09-04T07:47:10Z</time>
      </trkpt>
      <trkpt lat="44.03412" lon="5.71117">
        <ele>694.59997558594</ele>
        <time>2021-09-04T07:47:12Z</time>
      </trkpt>
      <trkpt lat="44.0344" lon="5.71109">
        <ele>694.59997558594</ele>
        <time>2021-09-04T07:47:18Z</time>
      </trkpt>
      <trkpt lat="44.03455" lon="5.71103">
        <ele>694.59997558594</ele>
        <time>2021-09-04T07:47:21Z</time>
      </trkpt>
      <trkpt lat="44.03496" lon="5.71088">
        <ele>694.59997558594</ele>
        <time>2021-09-04T07:47:29Z</time>
      </trkpt>
      <trkpt lat="44.035" lon="5.71086">
        <ele>694.59997558594</ele>
        <time>2021-09-04T07:47:30Z</time>
      </trkpt>
      <trkpt lat="44.03521" lon="5.71081">
        <ele>694.79998779297</ele>
        <time>2021-09-04T07:47:34Z</time>
      </trkpt>
      <trkpt lat="44.03564" lon="5.71072">
        <ele>695</ele>
        <time>2021-09-04T07:47:42Z</time>
      </trkpt>
      <trkpt lat="44.03612" lon="5.71056">
        <ele>695</ele>
        <time>2021-09-04T07:47:51Z</time>
      </trkpt>
      <trkpt lat="44.03647" lon="5.71035">
        <ele>695.59997558594</ele>
        <time>2021-09-04T07:47:58Z</time>
      </trkpt>
      <trkpt lat="44.03656" lon="5.71029">
        <ele>695.59997558594</ele>
        <time>2021-09-04T07:48:00Z</time>
      </trkpt>
      <trkpt lat="44.03682" lon="5.71011">
        <ele>696.20001220703</ele>
        <time>2021-09-04T07:48:06Z</time>
      </trkpt>
      <trkpt lat="44.03694" lon="5.71003">
        <ele>696.79998779297</ele>
        <time>2021-09-04T07:48:09Z</time>
      </trkpt>
      <trkpt lat="44.03702" lon="5.70998">
        <ele>697</ele>
        <time>2021-09-04T07:48:11Z</time>
      </trkpt>
      <trkpt lat="44.03713" lon="5.7099">
        <ele>697.40002441406</ele>
        <time>2021-09-04T07:48:14Z</time>
      </trkpt>
      <trkpt lat="44.03729" lon="5.70981">
        <ele>697.79998779297</ele>
        <time>2021-09-04T07:48:18Z</time>
      </trkpt>
      <trkpt lat="44.0374" lon="5.70973">
        <ele>698.20001220703</ele>
        <time>2021-09-04T07:48:21Z</time>
      </trkpt>
      <trkpt lat="44.03758" lon="5.70961">
        <ele>698.79998779297</ele>
        <time>2021-09-04T07:48:26Z</time>
      </trkpt>
      <trkpt lat="44.03777" lon="5.7095">
        <ele>699.59997558594</ele>
        <time>2021-09-04T07:48:31Z</time>
      </trkpt>
      <trkpt lat="44.03791" lon="5.70941">
        <ele>699.79998779297</ele>
        <time>2021-09-04T07:48:35Z</time>
      </trkpt>
      <trkpt lat="44.0382" lon="5.70924">
        <ele>700.59997558594</ele>
        <time>2021-09-04T07:48:43Z</time>
      </trkpt>
      <trkpt lat="44.03823" lon="5.70921">
        <ele>701</ele>
        <time>2021-09-04T07:48:44Z</time>
      </trkpt>
      <trkpt lat="44.03849" lon="5.70906">
        <ele>701.79998779297</ele>
        <time>2021-09-04T07:48:51Z</time>
      </trkpt>
      <trkpt lat="44.03859" lon="5.709">
        <ele>702</ele>
        <time>2021-09-04T07:48:54Z</time>
      </trkpt>
      <trkpt lat="44.03882" lon="5.70885">
        <ele>702.79998779297</ele>
        <time>2021-09-04T07:49:01Z</time>
      </trkpt>
      <trkpt lat="44.03895" lon="5.70877">
        <ele>703.20001220703</ele>
        <time>2021-09-04T07:49:05Z</time>
      </trkpt>
      <trkpt lat="44.03901" lon="5.70873">
        <ele>703.40002441406</ele>
        <time>2021-09-04T07:49:07Z</time>
      </trkpt>
      <trkpt lat="44.03911" lon="5.70866">
        <ele>704</ele>
        <time>2021-09-04T07:49:10Z</time>
      </trkpt>
      <trkpt lat="44.03924" lon="5.70857">
        <ele>704.20001220703</ele>
        <time>2021-09-04T07:49:14Z</time>
      </trkpt>
      <trkpt lat="44.0394" lon="5.70847">
        <ele>704.59997558594</ele>
        <time>2021-09-04T07:49:19Z</time>
      </trkpt>
      <trkpt lat="44.03956" lon="5.70838">
        <ele>705.40002441406</ele>
        <time>2021-09-04T07:49:24Z</time>
      </trkpt>
      <trkpt lat="44.03964" lon="5.70831">
        <ele>705.79998779297</ele>
        <time>2021-09-04T07:49:27Z</time>
      </trkpt>
      <trkpt lat="44.03979" lon="5.70823">
        <ele>706.40002441406</ele>
        <time>2021-09-04T07:49:32Z</time>
      </trkpt>
      <trkpt lat="44.03985" lon="5.70819">
        <ele>706.59997558594</ele>
        <time>2021-09-04T07:49:34Z</time>
      </trkpt>
      <trkpt lat="44.03996" lon="5.70813">
        <ele>707.40002441406</ele>
        <time>2021-09-04T07:49:38Z</time>
      </trkpt>
      <trkpt lat="44.04005" lon="5.70808">
        <ele>708</ele>
        <time>2021-09-04T07:49:41Z</time>
      </trkpt>
      <trkpt lat="44.04015" lon="5.70804">
        <ele>708.59997558594</ele>
        <time>2021-09-04T07:49:44Z</time>
      </trkpt>
      <trkpt lat="44.04028" lon="5.70801">
        <ele>709.20001220703</ele>
        <time>2021-09-04T07:49:48Z</time>
      </trkpt>
      <trkpt lat="44.04041" lon="5.708">
        <ele>709.79998779297</ele>
        <time>2021-09-04T07:49:52Z</time>
      </trkpt>
      <trkpt lat="44.04054" lon="5.70797">
        <ele>710.40002441406</ele>
        <time>2021-09-04T07:49:56Z</time>
      </trkpt>
      <trkpt lat="44.04064" lon="5.70795">
        <ele>710.79998779297</ele>
        <time>2021-09-04T07:49:59Z</time>
      </trkpt>
      <trkpt lat="44.0408" lon="5.70795">
        <ele>711.59997558594</ele>
        <time>2021-09-04T07:50:04Z</time>
      </trkpt>
      <trkpt lat="44.04089" lon="5.70793">
        <ele>711.79998779297</ele>
        <time>2021-09-04T07:50:07Z</time>
      </trkpt>
      <trkpt lat="44.04111" lon="5.7079">
        <ele>712.79998779297</ele>
        <time>2021-09-04T07:50:14Z</time>
      </trkpt>
      <trkpt lat="44.04128" lon="5.70787">
        <ele>713.79998779297</ele>
        <time>2021-09-04T07:50:20Z</time>
      </trkpt>
      <trkpt lat="44.04152" lon="5.70784">
        <ele>714.79998779297</ele>
        <time>2021-09-04T07:50:27Z</time>
      </trkpt>
      <trkpt lat="44.04175" lon="5.70781">
        <ele>716</ele>
        <time>2021-09-04T07:50:34Z</time>
      </trkpt>
      <trkpt lat="44.04213" lon="5.70775">
        <ele>717</ele>
        <time>2021-09-04T07:50:44Z</time>
      </trkpt>
      <trkpt lat="44.04248" lon="5.70769">
        <ele>717.79998779297</ele>
        <time>2021-09-04T07:50:53Z</time>
      </trkpt>
      <trkpt lat="44.04256" lon="5.70768">
        <ele>718</ele>
        <time>2021-09-04T07:50:55Z</time>
      </trkpt>
      <trkpt lat="44.04279" lon="5.70766">
        <ele>718.59997558594</ele>
        <time>2021-09-04T07:51:01Z</time>
      </trkpt>
      <trkpt lat="44.04293" lon="5.70764">
        <ele>719.20001220703</ele>
        <time>2021-09-04T07:51:05Z</time>
      </trkpt>
      <trkpt lat="44.04303" lon="5.70763">
        <ele>719.79998779297</ele>
        <time>2021-09-04T07:51:08Z</time>
      </trkpt>
      <trkpt lat="44.04313" lon="5.70761">
        <ele>720.20001220703</ele>
        <time>2021-09-04T07:51:11Z</time>
      </trkpt>
      <trkpt lat="44.04332" lon="5.70757">
        <ele>721.20001220703</ele>
        <time>2021-09-04T07:51:17Z</time>
      </trkpt>
      <trkpt lat="44.04335" lon="5.70757">
        <ele>721.40002441406</ele>
        <time>2021-09-04T07:51:18Z</time>
      </trkpt>
      <trkpt lat="44.04351" lon="5.70756">
        <ele>722.40002441406</ele>
        <time>2021-09-04T07:51:23Z</time>
      </trkpt>
      <trkpt lat="44.04358" lon="5.70756">
        <ele>722.59997558594</ele>
        <time>2021-09-04T07:51:25Z</time>
      </trkpt>
      <trkpt lat="44.04385" lon="5.70754">
        <ele>723.40002441406</ele>
        <time>2021-09-04T07:51:32Z</time>
      </trkpt>
      <trkpt lat="44.04411" lon="5.70754">
        <ele>724.20001220703</ele>
        <time>2021-09-04T07:51:39Z</time>
      </trkpt>
      <trkpt lat="44.04422" lon="5.70753">
        <ele>724.59997558594</ele>
        <time>2021-09-04T07:51:42Z</time>
      </trkpt>
      <trkpt lat="44.04441" lon="5.70752">
        <ele>725</ele>
        <time>2021-09-04T07:51:47Z</time>
      </trkpt>
      <trkpt lat="44.04456" lon="5.70752">
        <ele>725.59997558594</ele>
        <time>2021-09-04T07:51:51Z</time>
      </trkpt>
      <trkpt lat="44.04467" lon="5.70752">
        <ele>725.79998779297</ele>
        <time>2021-09-04T07:51:54Z</time>
      </trkpt>
      <trkpt lat="44.0449" lon="5.70752">
        <ele>726.59997558594</ele>
        <time>2021-09-04T07:52:00Z</time>
      </trkpt>
      <trkpt lat="44.04498" lon="5.70752">
        <ele>727</ele>
        <time>2021-09-04T07:52:02Z</time>
      </trkpt>
      <trkpt lat="44.04519" lon="5.70751">
        <ele>727.79998779297</ele>
        <time>2021-09-04T07:52:08Z</time>
      </trkpt>
      <trkpt lat="44.0453" lon="5.70752">
        <ele>728.20001220703</ele>
        <time>2021-09-04T07:52:11Z</time>
      </trkpt>
      <trkpt lat="44.04548" lon="5.70753">
        <ele>728.79998779297</ele>
        <time>2021-09-04T07:52:16Z</time>
      </trkpt>
      <trkpt lat="44.04565" lon="5.70752">
        <ele>729.59997558594</ele>
        <time>2021-09-04T07:52:21Z</time>
      </trkpt>
      <trkpt lat="44.04571" lon="5.70753">
        <ele>730</ele>
        <time>2021-09-04T07:52:23Z</time>
      </trkpt>
      <trkpt lat="44.04598" lon="5.70753">
        <ele>731</ele>
        <time>2021-09-04T07:52:31Z</time>
      </trkpt>
      <trkpt lat="44.04625" lon="5.70753">
        <ele>732</ele>
        <time>2021-09-04T07:52:39Z</time>
      </trkpt>
      <trkpt lat="44.04628" lon="5.70753">
        <ele>732.20001220703</ele>
        <time>2021-09-04T07:52:40Z</time>
      </trkpt>
      <trkpt lat="44.04652" lon="5.70753">
        <ele>733.20001220703</ele>
        <time>2021-09-04T07:52:47Z</time>
      </trkpt>
      <trkpt lat="44.04662" lon="5.70752">
        <ele>733.59997558594</ele>
        <time>2021-09-04T07:52:50Z</time>
      </trkpt>
      <trkpt lat="44.04678" lon="5.70753">
        <ele>734.20001220703</ele>
        <time>2021-09-04T07:52:55Z</time>
      </trkpt>
      <trkpt lat="44.04681" lon="5.70753">
        <ele>734.20001220703</ele>
        <time>2021-09-04T07:52:56Z</time>
      </trkpt>
      <trkpt lat="44.04707" lon="5.70752">
        <ele>735.20001220703</ele>
        <time>2021-09-04T07:53:04Z</time>
      </trkpt>
      <trkpt lat="44.0471" lon="5.70752">
        <ele>735.20001220703</ele>
        <time>2021-09-04T07:53:05Z</time>
      </trkpt>
      <trkpt lat="44.04729" lon="5.70752">
        <ele>736.40002441406</ele>
        <time>2021-09-04T07:53:11Z</time>
      </trkpt>
      <trkpt lat="44.04733" lon="5.70752">
        <ele>736.59997558594</ele>
        <time>2021-09-04T07:53:12Z</time>
      </trkpt>
      <trkpt lat="44.04755" lon="5.70752">
        <ele>737.40002441406</ele>
        <time>2021-09-04T07:53:19Z</time>
      </trkpt>
      <trkpt lat="44.04762" lon="5.70752">
        <ele>737.79998779297</ele>
        <time>2021-09-04T07:53:21Z</time>
      </trkpt>
      <trkpt lat="44.04785" lon="5.70753">
        <ele>738.59997558594</ele>
        <time>2021-09-04T07:53:28Z</time>
      </trkpt>
      <trkpt lat="44.04788" lon="5.70753">
        <ele>738.59997558594</ele>
        <time>2021-09-04T07:53:29Z</time>
      </trkpt>
      <trkpt lat="44.04811" lon="5.70752">
        <ele>739.59997558594</ele>
        <time>2021-09-04T07:53:36Z</time>
      </trkpt>
      <trkpt lat="44.04836" lon="5.70753">
        <ele>740.59997558594</ele>
        <time>2021-09-04T07:53:44Z</time>
      </trkpt>
      <trkpt lat="44.0484" lon="5.70753">
        <ele>740.79998779297</ele>
        <time>2021-09-04T07:53:45Z</time>
      </trkpt>
      <trkpt lat="44.04863" lon="5.70754">
        <ele>741.59997558594</ele>
        <time>2021-09-04T07:53:52Z</time>
      </trkpt>
      <trkpt lat="44.04872" lon="5.70754">
        <ele>742</ele>
        <time>2021-09-04T07:53:55Z</time>
      </trkpt>
      <trkpt lat="44.04889" lon="5.70753">
        <ele>742.79998779297</ele>
        <time>2021-09-04T07:54:00Z</time>
      </trkpt>
      <trkpt lat="44.04909" lon="5.70755">
        <ele>743.40002441406</ele>
        <time>2021-09-04T07:54:06Z</time>
      </trkpt>
      <trkpt lat="44.04922" lon="5.70755">
        <ele>743.79998779297</ele>
        <time>2021-09-04T07:54:10Z</time>
      </trkpt>
      <trkpt lat="44.04938" lon="5.70757">
        <ele>744.59997558594</ele>
        <time>2021-09-04T07:54:15Z</time>
      </trkpt>
      <trkpt lat="44.04944" lon="5.70758">
        <ele>745</ele>
        <time>2021-09-04T07:54:17Z</time>
      </trkpt>
      <trkpt lat="44.0496" lon="5.7076">
        <ele>745.59997558594</ele>
        <time>2021-09-04T07:54:22Z</time>
      </trkpt>
      <trkpt lat="44.0497" lon="5.7076">
        <ele>746</ele>
        <time>2021-09-04T07:54:25Z</time>
      </trkpt>
      <trkpt lat="44.04979" lon="5.70762">
        <ele>746.40002441406</ele>
        <time>2021-09-04T07:54:28Z</time>
      </trkpt>
      <trkpt lat="44.04994" lon="5.70765">
        <ele>747.20001220703</ele>
        <time>2021-09-04T07:54:33Z</time>
      </trkpt>
      <trkpt lat="44.05006" lon="5.70769">
        <ele>747.59997558594</ele>
        <time>2021-09-04T07:54:37Z</time>
      </trkpt>
      <trkpt lat="44.05018" lon="5.70774">
        <ele>748.20001220703</ele>
        <time>2021-09-04T07:54:41Z</time>
      </trkpt>
      <trkpt lat="44.05031" lon="5.70782">
        <ele>749.20001220703</ele>
        <time>2021-09-04T07:54:46Z</time>
      </trkpt>
      <trkpt lat="44.05033" lon="5.70784">
        <ele>749.40002441406</ele>
        <time>2021-09-04T07:54:47Z</time>
      </trkpt>
      <trkpt lat="44.05053" lon="5.70801">
        <ele>750.40002441406</ele>
        <time>2021-09-04T07:54:55Z</time>
      </trkpt>
      <trkpt lat="44.0506" lon="5.70807">
        <ele>750.79998779297</ele>
        <time>2021-09-04T07:54:58Z</time>
      </trkpt>
      <trkpt lat="44.05072" lon="5.7082">
        <ele>751.59997558594</ele>
        <time>2021-09-04T07:55:03Z</time>
      </trkpt>
      <trkpt lat="44.05086" lon="5.70834">
        <ele>752.40002441406</ele>
        <time>2021-09-04T07:55:09Z</time>
      </trkpt>
      <trkpt lat="44.05088" lon="5.70838">
        <ele>752.59997558594</ele>
        <time>2021-09-04T07:55:10Z</time>
      </trkpt>
      <trkpt lat="44.05096" lon="5.70855">
        <ele>753.40002441406</ele>
        <time>2021-09-04T07:55:15Z</time>
      </trkpt>
      <trkpt lat="44.05099" lon="5.70861">
        <ele>753.59997558594</ele>
        <time>2021-09-04T07:55:17Z</time>
      </trkpt>
      <trkpt lat="44.05108" lon="5.70876">
        <ele>754.20001220703</ele>
        <time>2021-09-04T07:55:22Z</time>
      </trkpt>
      <trkpt lat="44.05113" lon="5.70885">
        <ele>754.79998779297</ele>
        <time>2021-09-04T07:55:25Z</time>
      </trkpt>
      <trkpt lat="44.05128" lon="5.70909">
        <ele>756</ele>
        <time>2021-09-04T07:55:33Z</time>
      </trkpt>
      <trkpt lat="44.05142" lon="5.70933">
        <ele>757.20001220703</ele>
        <time>2021-09-04T07:55:41Z</time>
      </trkpt>
      <trkpt lat="44.05143" lon="5.70936">
        <ele>757.20001220703</ele>
        <time>2021-09-04T07:55:42Z</time>
      </trkpt>
      <trkpt lat="44.05157" lon="5.70956">
        <ele>758.20001220703</ele>
        <time>2021-09-04T07:55:49Z</time>
      </trkpt>
      <trkpt lat="44.0516" lon="5.70963">
        <ele>758.40002441406</ele>
        <time>2021-09-04T07:55:51Z</time>
      </trkpt>
      <trkpt lat="44.05169" lon="5.70978">
        <ele>759.20001220703</ele>
        <time>2021-09-04T07:55:56Z</time>
      </trkpt>
      <trkpt lat="44.05174" lon="5.70987">
        <ele>760</ele>
        <time>2021-09-04T07:55:59Z</time>
      </trkpt>
      <trkpt lat="44.05177" lon="5.70992">
        <ele>760.40002441406</ele>
        <time>2021-09-04T07:56:01Z</time>
      </trkpt>
      <trkpt lat="44.05189" lon="5.71011">
        <ele>761.40002441406</ele>
        <time>2021-09-04T07:56:08Z</time>
      </trkpt>
      <trkpt lat="44.05202" lon="5.71027">
        <ele>762.20001220703</ele>
        <time>2021-09-04T07:56:14Z</time>
      </trkpt>
      <trkpt lat="44.05205" lon="5.71033">
        <ele>762.59997558594</ele>
        <time>2021-09-04T07:56:16Z</time>
      </trkpt>
      <trkpt lat="44.05215" lon="5.71046">
        <ele>763.59997558594</ele>
        <time>2021-09-04T07:56:21Z</time>
      </trkpt>
      <trkpt lat="44.05216" lon="5.71049">
        <ele>763.79998779297</ele>
        <time>2021-09-04T07:56:22Z</time>
      </trkpt>
      <trkpt lat="44.0523" lon="5.71067">
        <ele>764.79998779297</ele>
        <time>2021-09-04T07:56:29Z</time>
      </trkpt>
      <trkpt lat="44.05232" lon="5.7107">
        <ele>764.79998779297</ele>
        <time>2021-09-04T07:56:30Z</time>
      </trkpt>
      <trkpt lat="44.05246" lon="5.71089">
        <ele>765.79998779297</ele>
        <time>2021-09-04T07:56:37Z</time>
      </trkpt>
      <trkpt lat="44.05248" lon="5.71092">
        <ele>766</ele>
        <time>2021-09-04T07:56:38Z</time>
      </trkpt>
      <trkpt lat="44.0526" lon="5.71107">
        <ele>766.79998779297</ele>
        <time>2021-09-04T07:56:44Z</time>
      </trkpt>
      <trkpt lat="44.05262" lon="5.7111">
        <ele>767</ele>
        <time>2021-09-04T07:56:45Z</time>
      </trkpt>
      <trkpt lat="44.05278" lon="5.71125">
        <ele>768</ele>
        <time>2021-09-04T07:56:52Z</time>
      </trkpt>
      <trkpt lat="44.05283" lon="5.7113">
        <ele>768.20001220703</ele>
        <time>2021-09-04T07:56:54Z</time>
      </trkpt>
      <trkpt lat="44.05299" lon="5.71147">
        <ele>769</ele>
        <time>2021-09-04T07:57:01Z</time>
      </trkpt>
      <trkpt lat="44.05304" lon="5.71151">
        <ele>769.20001220703</ele>
        <time>2021-09-04T07:57:03Z</time>
      </trkpt>
      <trkpt lat="44.05322" lon="5.71171">
        <ele>770.20001220703</ele>
        <time>2021-09-04T07:57:10Z</time>
      </trkpt>
      <trkpt lat="44.05325" lon="5.71173">
        <ele>770.40002441406</ele>
        <time>2021-09-04T07:57:11Z</time>
      </trkpt>
      <trkpt lat="44.05344" lon="5.71198">
        <ele>771.40002441406</ele>
        <time>2021-09-04T07:57:19Z</time>
      </trkpt>
      <trkpt lat="44.05365" lon="5.71227">
        <ele>772.20001220703</ele>
        <time>2021-09-04T07:57:28Z</time>
      </trkpt>
      <trkpt lat="44.05367" lon="5.7123">
        <ele>772.40002441406</ele>
        <time>2021-09-04T07:57:29Z</time>
      </trkpt>
      <trkpt lat="44.05382" lon="5.71252">
        <ele>773.40002441406</ele>
        <time>2021-09-04T07:57:36Z</time>
      </trkpt>
      <trkpt lat="44.05385" lon="5.71255">
        <ele>773.40002441406</ele>
        <time>2021-09-04T07:57:37Z</time>
      </trkpt>
      <trkpt lat="44.05401" lon="5.71274">
        <ele>774.40002441406</ele>
        <time>2021-09-04T07:57:44Z</time>
      </trkpt>
      <trkpt lat="44.05403" lon="5.71276">
        <ele>774.59997558594</ele>
        <time>2021-09-04T07:57:45Z</time>
      </trkpt>
      <trkpt lat="44.05418" lon="5.71283">
        <ele>775.40002441406</ele>
        <time>2021-09-04T07:57:51Z</time>
      </trkpt>
      <trkpt lat="44.05421" lon="5.71284">
        <ele>775.59997558594</ele>
        <time>2021-09-04T07:57:52Z</time>
      </trkpt>
      <trkpt lat="44.0543" lon="5.71285">
        <ele>776.20001220703</ele>
        <time>2021-09-04T07:57:56Z</time>
      </trkpt>
      <trkpt lat="44.05435" lon="5.71286">
        <ele>776.79998779297</ele>
        <time>2021-09-04T07:57:58Z</time>
      </trkpt>
      <trkpt lat="44.0545" lon="5.71289">
        <ele>777.59997558594</ele>
        <time>2021-09-04T07:58:04Z</time>
      </trkpt>
      <trkpt lat="44.05452" lon="5.7129">
        <ele>777.79998779297</ele>
        <time>2021-09-04T07:58:05Z</time>
      </trkpt>
      <trkpt lat="44.05468" lon="5.71294">
        <ele>779</ele>
        <time>2021-09-04T07:58:12Z</time>
      </trkpt>
      <trkpt lat="44.05483" lon="5.71301">
        <ele>780</ele>
        <time>2021-09-04T07:58:19Z</time>
      </trkpt>
      <trkpt lat="44.05486" lon="5.71303">
        <ele>780.20001220703</ele>
        <time>2021-09-04T07:58:20Z</time>
      </trkpt>
      <trkpt lat="44.05497" lon="5.7131">
        <ele>781.20001220703</ele>
        <time>2021-09-04T07:58:25Z</time>
      </trkpt>
      <trkpt lat="44.05503" lon="5.71314">
        <ele>781.40002441406</ele>
        <time>2021-09-04T07:58:28Z</time>
      </trkpt>
      <trkpt lat="44.05514" lon="5.71323">
        <ele>782.20001220703</ele>
        <time>2021-09-04T07:58:33Z</time>
      </trkpt>
      <trkpt lat="44.05518" lon="5.71327">
        <ele>782.40002441406</ele>
        <time>2021-09-04T07:58:35Z</time>
      </trkpt>
      <trkpt lat="44.05532" lon="5.71342">
        <ele>783.20001220703</ele>
        <time>2021-09-04T07:58:42Z</time>
      </trkpt>
      <trkpt lat="44.05534" lon="5.71344">
        <ele>783.40002441406</ele>
        <time>2021-09-04T07:58:43Z</time>
      </trkpt>
      <trkpt lat="44.05543" lon="5.71357">
        <ele>784.40002441406</ele>
        <time>2021-09-04T07:58:48Z</time>
      </trkpt>
      <trkpt lat="44.05548" lon="5.71365">
        <ele>784.79998779297</ele>
        <time>2021-09-04T07:58:51Z</time>
      </trkpt>
      <trkpt lat="44.05558" lon="5.71378">
        <ele>785.40002441406</ele>
        <time>2021-09-04T07:58:56Z</time>
      </trkpt>
      <trkpt lat="44.05565" lon="5.71389">
        <ele>785.79998779297</ele>
        <time>2021-09-04T07:59:00Z</time>
      </trkpt>
      <trkpt lat="44.05574" lon="5.714">
        <ele>786.40002441406</ele>
        <time>2021-09-04T07:59:04Z</time>
      </trkpt>
      <trkpt lat="44.05586" lon="5.71411">
        <ele>787</ele>
        <time>2021-09-04T07:59:09Z</time>
      </trkpt>
      <trkpt lat="44.05594" lon="5.71416">
        <ele>787.40002441406</ele>
        <time>2021-09-04T07:59:12Z</time>
      </trkpt>
      <trkpt lat="44.05605" lon="5.71421">
        <ele>788</ele>
        <time>2021-09-04T07:59:16Z</time>
      </trkpt>
      <trkpt lat="44.05616" lon="5.71425">
        <ele>788.59997558594</ele>
        <time>2021-09-04T07:59:20Z</time>
      </trkpt>
      <trkpt lat="44.05621" lon="5.71426">
        <ele>788.79998779297</ele>
        <time>2021-09-04T07:59:22Z</time>
      </trkpt>
      <trkpt lat="44.05638" lon="5.7142">
        <ele>789.59997558594</ele>
        <time>2021-09-04T07:59:28Z</time>
      </trkpt>
      <trkpt lat="44.05649" lon="5.71402">
        <ele>790.40002441406</ele>
        <time>2021-09-04T07:59:34Z</time>
      </trkpt>
      <trkpt lat="44.05654" lon="5.71389">
        <ele>790.79998779297</ele>
        <time>2021-09-04T07:59:37Z</time>
      </trkpt>
      <trkpt lat="44.05657" lon="5.71375">
        <ele>791</ele>
        <time>2021-09-04T07:59:40Z</time>
      </trkpt>
      <trkpt lat="44.05664" lon="5.7134">
        <ele>791.20001220703</ele>
        <time>2021-09-04T07:59:47Z</time>
      </trkpt>
      <trkpt lat="44.05668" lon="5.71309">
        <ele>791.79998779297</ele>
        <time>2021-09-04T07:59:54Z</time>
      </trkpt>
      <trkpt lat="44.0566" lon="5.71292">
        <ele>792.40002441406</ele>
        <time>2021-09-04T07:59:59Z</time>
      </trkpt>
      <trkpt lat="44.05659" lon="5.71286">
        <ele>792.40002441406</ele>
        <time>2021-09-04T08:02:18Z</time>
      </trkpt>
      <trkpt lat="44.05659" lon="5.7128">
        <ele>792.40002441406</ele>
        <time>2021-09-04T08:02:20Z</time>
      </trkpt>
      <trkpt lat="44.05662" lon="5.71277">
        <ele>792.40002441406</ele>
        <time>2021-09-04T08:02:22Z</time>
      </trkpt>
      <trkpt lat="44.05671" lon="5.71272">
        <ele>792.79998779297</ele>
        <time>2021-09-04T08:02:27Z</time>
      </trkpt>
      <trkpt lat="44.05675" lon="5.71271">
        <ele>793</ele>
        <time>2021-09-04T08:02:29Z</time>
      </trkpt>
      <trkpt lat="44.05684" lon="5.7127">
        <ele>793.59997558594</ele>
        <time>2021-09-04T08:02:33Z</time>
      </trkpt>
      <trkpt lat="44.05688" lon="5.71268">
        <ele>794</ele>
        <time>2021-09-04T08:02:35Z</time>
      </trkpt>
      <trkpt lat="44.05696" lon="5.71265">
        <ele>795</ele>
        <time>2021-09-04T08:02:39Z</time>
      </trkpt>
      <trkpt lat="44.05698" lon="5.71264">
        <ele>795.20001220703</ele>
        <time>2021-09-04T08:02:40Z</time>
      </trkpt>
      <trkpt lat="44.05708" lon="5.71255">
        <ele>796.20001220703</ele>
        <time>2021-09-04T08:02:46Z</time>
      </trkpt>
      <trkpt lat="44.0572" lon="5.7124">
        <ele>796.79998779297</ele>
        <time>2021-09-04T08:02:53Z</time>
      </trkpt>
      <trkpt lat="44.05725" lon="5.71235">
        <ele>797.20001220703</ele>
        <time>2021-09-04T08:02:56Z</time>
      </trkpt>
      <trkpt lat="44.05731" lon="5.7123">
        <ele>797.40002441406</ele>
        <time>2021-09-04T08:02:59Z</time>
      </trkpt>
      <trkpt lat="44.05745" lon="5.71218">
        <ele>797.40002441406</ele>
        <time>2021-09-04T08:03:04Z</time>
      </trkpt>
      <trkpt lat="44.05763" lon="5.71195">
        <ele>797.20001220703</ele>
        <time>2021-09-04T08:03:10Z</time>
      </trkpt>
      <trkpt lat="44.05771" lon="5.71183">
        <ele>797</ele>
        <time>2021-09-04T08:03:13Z</time>
      </trkpt>
      <trkpt lat="44.05782" lon="5.71161">
        <ele>796.40002441406</ele>
        <time>2021-09-04T08:03:17Z</time>
      </trkpt>
      <trkpt lat="44.05788" lon="5.7115">
        <ele>796.20001220703</ele>
        <time>2021-09-04T08:03:19Z</time>
      </trkpt>
      <trkpt lat="44.05799" lon="5.71129">
        <ele>796</ele>
        <time>2021-09-04T08:03:23Z</time>
      </trkpt>
      <trkpt lat="44.05806" lon="5.7112">
        <ele>795.79998779297</ele>
        <time>2021-09-04T08:03:25Z</time>
      </trkpt>
      <trkpt lat="44.05819" lon="5.71101">
        <ele>795.59997558594</ele>
        <time>2021-09-04T08:03:29Z</time>
      </trkpt>
      <trkpt lat="44.05836" lon="5.71079">
        <ele>795.20001220703</ele>
        <time>2021-09-04T08:03:34Z</time>
      </trkpt>
      <trkpt lat="44.05844" lon="5.71074">
        <ele>795</ele>
        <time>2021-09-04T08:03:36Z</time>
      </trkpt>
      <trkpt lat="44.05865" lon="5.71074">
        <ele>795</ele>
        <time>2021-09-04T08:03:41Z</time>
      </trkpt>
      <trkpt lat="44.05879" lon="5.71082">
        <ele>795.40002441406</ele>
        <time>2021-09-04T08:03:45Z</time>
      </trkpt>
      <trkpt lat="44.05886" lon="5.71086">
        <ele>795.59997558594</ele>
        <time>2021-09-04T08:03:47Z</time>
      </trkpt>
      <trkpt lat="44.05898" lon="5.71096">
        <ele>796.20001220703</ele>
        <time>2021-09-04T08:03:51Z</time>
      </trkpt>
      <trkpt lat="44.05904" lon="5.71101">
        <ele>796.40002441406</ele>
        <time>2021-09-04T08:03:53Z</time>
      </trkpt>
      <trkpt lat="44.05917" lon="5.71109">
        <ele>797.40002441406</ele>
        <time>2021-09-04T08:03:57Z</time>
      </trkpt>
      <trkpt lat="44.05925" lon="5.71116">
        <ele>797.79998779297</ele>
        <time>2021-09-04T08:04:00Z</time>
      </trkpt>
      <trkpt lat="44.05937" lon="5.71124">
        <ele>798.40002441406</ele>
        <time>2021-09-04T08:04:04Z</time>
      </trkpt>
      <trkpt lat="44.05948" lon="5.71134">
        <ele>798.79998779297</ele>
        <time>2021-09-04T08:04:08Z</time>
      </trkpt>
      <trkpt lat="44.05959" lon="5.71142">
        <ele>799.40002441406</ele>
        <time>2021-09-04T08:04:12Z</time>
      </trkpt>
      <trkpt lat="44.05973" lon="5.71156">
        <ele>800</ele>
        <time>2021-09-04T08:04:17Z</time>
      </trkpt>
      <trkpt lat="44.05982" lon="5.71168">
        <ele>800.59997558594</ele>
        <time>2021-09-04T08:04:21Z</time>
      </trkpt>
      <trkpt lat="44.05991" lon="5.71182">
        <ele>800.79998779297</ele>
        <time>2021-09-04T08:04:25Z</time>
      </trkpt>
      <trkpt lat="44.06003" lon="5.71197">
        <ele>801.59997558594</ele>
        <time>2021-09-04T08:04:30Z</time>
      </trkpt>
      <trkpt lat="44.06012" lon="5.7121">
        <ele>802.20001220703</ele>
        <time>2021-09-04T08:04:34Z</time>
      </trkpt>
      <trkpt lat="44.06021" lon="5.71223">
        <ele>802.79998779297</ele>
        <time>2021-09-04T08:04:38Z</time>
      </trkpt>
      <trkpt lat="44.06035" lon="5.71241">
        <ele>803.40002441406</ele>
        <time>2021-09-04T08:04:44Z</time>
      </trkpt>
      <trkpt lat="44.06041" lon="5.71247">
        <ele>803.79998779297</ele>
        <time>2021-09-04T08:04:46Z</time>
      </trkpt>
      <trkpt lat="44.06053" lon="5.71258">
        <ele>804.20001220703</ele>
        <time>2021-09-04T08:04:51Z</time>
      </trkpt>
      <trkpt lat="44.06074" lon="5.71273">
        <ele>805</ele>
        <time>2021-09-04T08:04:58Z</time>
      </trkpt>
      <trkpt lat="44.06081" lon="5.71278">
        <ele>805.20001220703</ele>
        <time>2021-09-04T08:05:00Z</time>
      </trkpt>
      <trkpt lat="44.06114" lon="5.71291">
        <ele>806</ele>
        <time>2021-09-04T08:05:09Z</time>
      </trkpt>
      <trkpt lat="44.06121" lon="5.71294">
        <ele>806.40002441406</ele>
        <time>2021-09-04T08:05:11Z</time>
      </trkpt>
      <trkpt lat="44.06139" lon="5.71295">
        <ele>806.59997558594</ele>
        <time>2021-09-04T08:05:15Z</time>
      </trkpt>
      <trkpt lat="44.06186" lon="5.71302">
        <ele>807</ele>
        <time>2021-09-04T08:05:25Z</time>
      </trkpt>
      <trkpt lat="44.06201" lon="5.713">
        <ele>807</ele>
        <time>2021-09-04T08:05:28Z</time>
      </trkpt>
      <trkpt lat="44.06211" lon="5.71293">
        <ele>807</ele>
        <time>2021-09-04T08:05:30Z</time>
      </trkpt>
      <trkpt lat="44.06221" lon="5.71275">
        <ele>806.79998779297</ele>
        <time>2021-09-04T08:05:33Z</time>
      </trkpt>
      <trkpt lat="44.06223" lon="5.71245">
        <ele>806.59997558594</ele>
        <time>2021-09-04T08:05:37Z</time>
      </trkpt>
      <trkpt lat="44.06223" lon="5.71232">
        <ele>806.79998779297</ele>
        <time>2021-09-04T08:05:39Z</time>
      </trkpt>
      <trkpt lat="44.06222" lon="5.71209">
        <ele>807.20001220703</ele>
        <time>2021-09-04T08:05:43Z</time>
      </trkpt>
      <trkpt lat="44.06225" lon="5.71178">
        <ele>808</ele>
        <time>2021-09-04T08:05:49Z</time>
      </trkpt>
      <trkpt lat="44.06226" lon="5.71173">
        <ele>808.20001220703</ele>
        <time>2021-09-04T08:05:50Z</time>
      </trkpt>
      <trkpt lat="44.06235" lon="5.7115">
        <ele>809</ele>
        <time>2021-09-04T08:05:55Z</time>
      </trkpt>
      <trkpt lat="44.06241" lon="5.71136">
        <ele>809.40002441406</ele>
        <time>2021-09-04T08:05:58Z</time>
      </trkpt>
      <trkpt lat="44.06252" lon="5.71123">
        <ele>810</ele>
        <time>2021-09-04T08:06:02Z</time>
      </trkpt>
      <trkpt lat="44.06258" lon="5.71117">
        <ele>810.40002441406</ele>
        <time>2021-09-04T08:06:04Z</time>
      </trkpt>
      <trkpt lat="44.06273" lon="5.71103">
        <ele>811.20001220703</ele>
        <time>2021-09-04T08:06:09Z</time>
      </trkpt>
      <trkpt lat="44.06281" lon="5.71095">
        <ele>811.59997558594</ele>
        <time>2021-09-04T08:06:12Z</time>
      </trkpt>
      <trkpt lat="44.06299" lon="5.7108">
        <ele>812.40002441406</ele>
        <time>2021-09-04T08:06:18Z</time>
      </trkpt>
      <trkpt lat="44.06302" lon="5.71079">
        <ele>812.59997558594</ele>
        <time>2021-09-04T08:06:19Z</time>
      </trkpt>
      <trkpt lat="44.06318" lon="5.7107">
        <ele>813.40002441406</ele>
        <time>2021-09-04T08:06:24Z</time>
      </trkpt>
      <trkpt lat="44.06321" lon="5.71067">
        <ele>813.59997558594</ele>
        <time>2021-09-04T08:06:25Z</time>
      </trkpt>
      <trkpt lat="44.06342" lon="5.71056">
        <ele>814.59997558594</ele>
        <time>2021-09-04T08:06:32Z</time>
      </trkpt>
      <trkpt lat="44.06365" lon="5.7104">
        <ele>815.79998779297</ele>
        <time>2021-09-04T08:06:40Z</time>
      </trkpt>
      <trkpt lat="44.06367" lon="5.71037">
        <ele>816</ele>
        <time>2021-09-04T08:06:41Z</time>
      </trkpt>
      <trkpt lat="44.06381" lon="5.7102">
        <ele>816.79998779297</ele>
        <time>2021-09-04T08:06:47Z</time>
      </trkpt>
      <trkpt lat="44.06384" lon="5.71013">
        <ele>817</ele>
        <time>2021-09-04T08:06:49Z</time>
      </trkpt>
      <trkpt lat="44.0639" lon="5.70993">
        <ele>817.79998779297</ele>
        <time>2021-09-04T08:06:54Z</time>
      </trkpt>
      <trkpt lat="44.0639" lon="5.70985">
        <ele>818.20001220703</ele>
        <time>2021-09-04T08:06:56Z</time>
      </trkpt>
      <trkpt lat="44.06391" lon="5.70956">
        <ele>819</ele>
        <time>2021-09-04T08:07:03Z</time>
      </trkpt>
      <trkpt lat="44.06394" lon="5.70926">
        <ele>820</ele>
        <time>2021-09-04T08:07:10Z</time>
      </trkpt>
      <trkpt lat="44.06395" lon="5.70922">
        <ele>820</ele>
        <time>2021-09-04T08:07:11Z</time>
      </trkpt>
      <trkpt lat="44.06405" lon="5.70904">
        <ele>820.79998779297</ele>
        <time>2021-09-04T08:07:16Z</time>
      </trkpt>
      <trkpt lat="44.06409" lon="5.70898">
        <ele>821</ele>
        <time>2021-09-04T08:07:18Z</time>
      </trkpt>
      <trkpt lat="44.06421" lon="5.7088">
        <ele>822</ele>
        <time>2021-09-04T08:07:24Z</time>
      </trkpt>
      <trkpt lat="44.06423" lon="5.70877">
        <ele>822.20001220703</ele>
        <time>2021-09-04T08:07:25Z</time>
      </trkpt>
      <trkpt lat="44.06435" lon="5.70858">
        <ele>822.79998779297</ele>
        <time>2021-09-04T08:07:31Z</time>
      </trkpt>
      <trkpt lat="44.06441" lon="5.70849">
        <ele>823.40002441406</ele>
        <time>2021-09-04T08:07:34Z</time>
      </trkpt>
      <trkpt lat="44.06457" lon="5.70824">
        <ele>824.40002441406</ele>
        <time>2021-09-04T08:07:42Z</time>
      </trkpt>
      <trkpt lat="44.06462" lon="5.70819">
        <ele>824.59997558594</ele>
        <time>2021-09-04T08:07:44Z</time>
      </trkpt>
      <trkpt lat="44.0648" lon="5.70805">
        <ele>825.40002441406</ele>
        <time>2021-09-04T08:07:51Z</time>
      </trkpt>
      <trkpt lat="44.06483" lon="5.70802">
        <ele>825.59997558594</ele>
        <time>2021-09-04T08:07:52Z</time>
      </trkpt>
      <trkpt lat="44.06499" lon="5.70792">
        <ele>826.59997558594</ele>
        <time>2021-09-04T08:07:58Z</time>
      </trkpt>
      <trkpt lat="44.06504" lon="5.70788">
        <ele>826.79998779297</ele>
        <time>2021-09-04T08:08:00Z</time>
      </trkpt>
      <trkpt lat="44.06521" lon="5.70779">
        <ele>827.59997558594</ele>
        <time>2021-09-04T08:08:06Z</time>
      </trkpt>
      <trkpt lat="44.0653" lon="5.70775">
        <ele>828</ele>
        <time>2021-09-04T08:08:09Z</time>
      </trkpt>
      <trkpt lat="44.06544" lon="5.7077">
        <ele>828.79998779297</ele>
        <time>2021-09-04T08:08:14Z</time>
      </trkpt>
      <trkpt lat="44.0655" lon="5.70767">
        <ele>829</ele>
        <time>2021-09-04T08:08:16Z</time>
      </trkpt>
      <trkpt lat="44.06567" lon="5.70762">
        <ele>829.79998779297</ele>
        <time>2021-09-04T08:08:22Z</time>
      </trkpt>
      <trkpt lat="44.0657" lon="5.70762">
        <ele>829.79998779297</ele>
        <time>2021-09-04T08:08:23Z</time>
      </trkpt>
      <trkpt lat="44.06588" lon="5.70757">
        <ele>830.79998779297</ele>
        <time>2021-09-04T08:08:29Z</time>
      </trkpt>
      <trkpt lat="44.06591" lon="5.70756">
        <ele>830.79998779297</ele>
        <time>2021-09-04T08:08:30Z</time>
      </trkpt>
      <trkpt lat="44.06612" lon="5.70752">
        <ele>831.59997558594</ele>
        <time>2021-09-04T08:08:37Z</time>
      </trkpt>
      <trkpt lat="44.06615" lon="5.70751">
        <ele>831.79998779297</ele>
        <time>2021-09-04T08:08:38Z</time>
      </trkpt>
      <trkpt lat="44.0664" lon="5.70749">
        <ele>833</ele>
        <time>2021-09-04T08:08:46Z</time>
      </trkpt>
      <trkpt lat="44.06663" lon="5.70748">
        <ele>834</ele>
        <time>2021-09-04T08:08:53Z</time>
      </trkpt>
      <trkpt lat="44.06666" lon="5.70748">
        <ele>834</ele>
        <time>2021-09-04T08:08:54Z</time>
      </trkpt>
      <trkpt lat="44.06688" lon="5.70749">
        <ele>835</ele>
        <time>2021-09-04T08:09:01Z</time>
      </trkpt>
      <trkpt lat="44.06717" lon="5.70751">
        <ele>836.20001220703</ele>
        <time>2021-09-04T08:09:10Z</time>
      </trkpt>
      <trkpt lat="44.06738" lon="5.70752">
        <ele>837.20001220703</ele>
        <time>2021-09-04T08:09:17Z</time>
      </trkpt>
      <trkpt lat="44.06758" lon="5.70751">
        <ele>838.20001220703</ele>
        <time>2021-09-04T08:09:24Z</time>
      </trkpt>
      <trkpt lat="44.06778" lon="5.70746">
        <ele>839.20001220703</ele>
        <time>2021-09-04T08:09:31Z</time>
      </trkpt>
      <trkpt lat="44.06784" lon="5.70745">
        <ele>839.59997558594</ele>
        <time>2021-09-04T08:09:33Z</time>
      </trkpt>
      <trkpt lat="44.06795" lon="5.70741">
        <ele>840.40002441406</ele>
        <time>2021-09-04T08:09:37Z</time>
      </trkpt>
      <trkpt lat="44.06801" lon="5.7074">
        <ele>840.59997558594</ele>
        <time>2021-09-04T08:09:39Z</time>
      </trkpt>
      <trkpt lat="44.06819" lon="5.70738">
        <ele>841.40002441406</ele>
        <time>2021-09-04T08:09:45Z</time>
      </trkpt>
      <trkpt lat="44.06825" lon="5.70738">
        <ele>841.59997558594</ele>
        <time>2021-09-04T08:09:47Z</time>
      </trkpt>
      <trkpt lat="44.06836" lon="5.70736">
        <ele>842.40002441406</ele>
        <time>2021-09-04T08:09:51Z</time>
      </trkpt>
      <trkpt lat="44.06859" lon="5.70738">
        <ele>843.59997558594</ele>
        <time>2021-09-04T08:09:59Z</time>
      </trkpt>
      <trkpt lat="44.06865" lon="5.70739">
        <ele>843.79998779297</ele>
        <time>2021-09-04T08:10:01Z</time>
      </trkpt>
      <trkpt lat="44.06879" lon="5.7074">
        <ele>844.59997558594</ele>
        <time>2021-09-04T08:10:06Z</time>
      </trkpt>
      <trkpt lat="44.06884" lon="5.7074">
        <ele>845</ele>
        <time>2021-09-04T08:10:08Z</time>
      </trkpt>
      <trkpt lat="44.06899" lon="5.70738">
        <ele>845.79998779297</ele>
        <time>2021-09-04T08:10:13Z</time>
      </trkpt>
      <trkpt lat="44.06905" lon="5.70737">
        <ele>846</ele>
        <time>2021-09-04T08:10:15Z</time>
      </trkpt>
      <trkpt lat="44.06926" lon="5.70726">
        <ele>846.79998779297</ele>
        <time>2021-09-04T08:10:22Z</time>
      </trkpt>
      <trkpt lat="44.06929" lon="5.70724">
        <ele>847.20001220703</ele>
        <time>2021-09-04T08:10:23Z</time>
      </trkpt>
      <trkpt lat="44.06948" lon="5.70714">
        <ele>848</ele>
        <time>2021-09-04T08:10:29Z</time>
      </trkpt>
      <trkpt lat="44.06954" lon="5.7071">
        <ele>848</ele>
        <time>2021-09-04T08:10:31Z</time>
      </trkpt>
      <trkpt lat="44.06973" lon="5.707">
        <ele>849</ele>
        <time>2021-09-04T08:10:37Z</time>
      </trkpt>
      <trkpt lat="44.0698" lon="5.70697">
        <ele>849.20001220703</ele>
        <time>2021-09-04T08:10:39Z</time>
      </trkpt>
      <trkpt lat="44.06999" lon="5.7068">
        <ele>849.79998779297</ele>
        <time>2021-09-04T08:10:45Z</time>
      </trkpt>
      <trkpt lat="44.07003" lon="5.70673">
        <ele>850.20001220703</ele>
        <time>2021-09-04T08:10:47Z</time>
      </trkpt>
      <trkpt lat="44.0701" lon="5.70657">
        <ele>850.79998779297</ele>
        <time>2021-09-04T08:10:51Z</time>
      </trkpt>
      <trkpt lat="44.07014" lon="5.70649">
        <ele>851.20001220703</ele>
        <time>2021-09-04T08:10:53Z</time>
      </trkpt>
      <trkpt lat="44.07022" lon="5.7062">
        <ele>852</ele>
        <time>2021-09-04T08:10:59Z</time>
      </trkpt>
      <trkpt lat="44.07023" lon="5.70609">
        <ele>852.20001220703</ele>
        <time>2021-09-04T08:11:01Z</time>
      </trkpt>
      <trkpt lat="44.07019" lon="5.70599">
        <ele>852.40002441406</ele>
        <time>2021-09-04T08:11:03Z</time>
      </trkpt>
      <trkpt lat="44.07005" lon="5.70588">
        <ele>852.79998779297</ele>
        <time>2021-09-04T08:11:07Z</time>
      </trkpt>
      <trkpt lat="44.07001" lon="5.70587">
        <ele>853</ele>
        <time>2021-09-04T08:11:08Z</time>
      </trkpt>
      <trkpt lat="44.06995" lon="5.70584">
        <ele>853.40002441406</ele>
        <time>2021-09-04T08:11:10Z</time>
      </trkpt>
      <trkpt lat="44.06982" lon="5.70576">
        <ele>854.20001220703</ele>
        <time>2021-09-04T08:11:14Z</time>
      </trkpt>
      <trkpt lat="44.06976" lon="5.70572">
        <ele>854.59997558594</ele>
        <time>2021-09-04T08:11:16Z</time>
      </trkpt>
      <trkpt lat="44.06962" lon="5.70564">
        <ele>855.59997558594</ele>
        <time>2021-09-04T08:11:21Z</time>
      </trkpt>
      <trkpt lat="44.06941" lon="5.70551">
        <ele>856.59997558594</ele>
        <time>2021-09-04T08:11:28Z</time>
      </trkpt>
      <trkpt lat="44.06938" lon="5.70549">
        <ele>856.79998779297</ele>
        <time>2021-09-04T08:11:29Z</time>
      </trkpt>
      <trkpt lat="44.06924" lon="5.7054">
        <ele>857.59997558594</ele>
        <time>2021-09-04T08:11:34Z</time>
      </trkpt>
      <trkpt lat="44.06916" lon="5.70535">
        <ele>858.40002441406</ele>
        <time>2021-09-04T08:11:37Z</time>
      </trkpt>
      <trkpt lat="44.06907" lon="5.70532">
        <ele>858.79998779297</ele>
        <time>2021-09-04T08:11:40Z</time>
      </trkpt>
      <trkpt lat="44.06895" lon="5.7053">
        <ele>859.59997558594</ele>
        <time>2021-09-04T08:11:44Z</time>
      </trkpt>
      <trkpt lat="44.06888" lon="5.70529">
        <ele>859.79998779297</ele>
        <time>2021-09-04T08:11:46Z</time>
      </trkpt>
      <trkpt lat="44.0688" lon="5.70521">
        <ele>860</ele>
        <time>2021-09-04T08:11:49Z</time>
      </trkpt>
      <trkpt lat="44.06879" lon="5.70516">
        <ele>860.20001220703</ele>
        <time>2021-09-04T08:11:50Z</time>
      </trkpt>
      <trkpt lat="44.06887" lon="5.70505">
        <ele>860.59997558594</ele>
        <time>2021-09-04T08:11:53Z</time>
      </trkpt>
      <trkpt lat="44.06898" lon="5.70508">
        <ele>860.79998779297</ele>
        <time>2021-09-04T08:11:56Z</time>
      </trkpt>
      <trkpt lat="44.06907" lon="5.70514">
        <ele>861</ele>
        <time>2021-09-04T08:11:59Z</time>
      </trkpt>
      <trkpt lat="44.06917" lon="5.70519">
        <ele>861.40002441406</ele>
        <time>2021-09-04T08:12:02Z</time>
      </trkpt>
      <trkpt lat="44.06934" lon="5.70523">
        <ele>862.20001220703</ele>
        <time>2021-09-04T08:12:07Z</time>
      </trkpt>
      <trkpt lat="44.0694" lon="5.70524">
        <ele>862.59997558594</ele>
        <time>2021-09-04T08:12:09Z</time>
      </trkpt>
      <trkpt lat="44.06953" lon="5.70526">
        <ele>863.20001220703</ele>
        <time>2021-09-04T08:12:13Z</time>
      </trkpt>
      <trkpt lat="44.06966" lon="5.70527">
        <ele>863.79998779297</ele>
        <time>2021-09-04T08:12:17Z</time>
      </trkpt>
      <trkpt lat="44.06972" lon="5.70527">
        <ele>864.20001220703</ele>
        <time>2021-09-04T08:12:19Z</time>
      </trkpt>
      <trkpt lat="44.06987" lon="5.70526">
        <ele>865.20001220703</ele>
        <time>2021-09-04T08:12:24Z</time>
      </trkpt>
      <trkpt lat="44.0699" lon="5.70526">
        <ele>865.40002441406</ele>
        <time>2021-09-04T08:12:25Z</time>
      </trkpt>
      <trkpt lat="44.07012" lon="5.7052">
        <ele>866.40002441406</ele>
        <time>2021-09-04T08:12:33Z</time>
      </trkpt>
      <trkpt lat="44.07028" lon="5.70513">
        <ele>867.40002441406</ele>
        <time>2021-09-04T08:12:39Z</time>
      </trkpt>
      <trkpt lat="44.0703" lon="5.70513">
        <ele>867.59997558594</ele>
        <time>2021-09-04T08:12:40Z</time>
      </trkpt>
      <trkpt lat="44.07047" lon="5.70506">
        <ele>868.59997558594</ele>
        <time>2021-09-04T08:12:46Z</time>
      </trkpt>
      <trkpt lat="44.07055" lon="5.70502">
        <ele>869.40002441406</ele>
        <time>2021-09-04T08:12:49Z</time>
      </trkpt>
      <trkpt lat="44.0706" lon="5.705">
        <ele>869.79998779297</ele>
        <time>2021-09-04T08:12:51Z</time>
      </trkpt>
      <trkpt lat="44.07078" lon="5.70493">
        <ele>870.79998779297</ele>
        <time>2021-09-04T08:12:58Z</time>
      </trkpt>
      <trkpt lat="44.07093" lon="5.70486">
        <ele>871.59997558594</ele>
        <time>2021-09-04T08:13:04Z</time>
      </trkpt>
      <trkpt lat="44.07095" lon="5.70485">
        <ele>871.79998779297</ele>
        <time>2021-09-04T08:13:05Z</time>
      </trkpt>
      <trkpt lat="44.07111" lon="5.70479">
        <ele>873.20001220703</ele>
        <time>2021-09-04T08:13:11Z</time>
      </trkpt>
      <trkpt lat="44.07129" lon="5.70472">
        <ele>874.40002441406</ele>
        <time>2021-09-04T08:13:18Z</time>
      </trkpt>
      <trkpt lat="44.07131" lon="5.7047">
        <ele>874.40002441406</ele>
        <time>2021-09-04T08:13:19Z</time>
      </trkpt>
      <trkpt lat="44.07144" lon="5.70465">
        <ele>875.40002441406</ele>
        <time>2021-09-04T08:13:24Z</time>
      </trkpt>
      <trkpt lat="44.07149" lon="5.70463">
        <ele>875.59997558594</ele>
        <time>2021-09-04T08:13:26Z</time>
      </trkpt>
      <trkpt lat="44.07161" lon="5.70457">
        <ele>876.40002441406</ele>
        <time>2021-09-04T08:13:31Z</time>
      </trkpt>
      <trkpt lat="44.07163" lon="5.70457">
        <ele>876.59997558594</ele>
        <time>2021-09-04T08:13:32Z</time>
      </trkpt>
      <trkpt lat="44.07178" lon="5.7045">
        <ele>877.40002441406</ele>
        <time>2021-09-04T08:13:39Z</time>
      </trkpt>
      <trkpt lat="44.07187" lon="5.70445">
        <ele>878.20001220703</ele>
        <time>2021-09-04T08:14:37Z</time>
      </trkpt>
      <trkpt lat="44.07191" lon="5.70443">
        <ele>878.20001220703</ele>
        <time>2021-09-04T08:14:39Z</time>
      </trkpt>
      <trkpt lat="44.07208" lon="5.70435">
        <ele>878.40002441406</ele>
        <time>2021-09-04T08:14:45Z</time>
      </trkpt>
      <trkpt lat="44.07221" lon="5.7043">
        <ele>878.40002441406</ele>
        <time>2021-09-04T08:14:48Z</time>
      </trkpt>
      <trkpt lat="44.07229" lon="5.70426">
        <ele>878.40002441406</ele>
        <time>2021-09-04T08:14:50Z</time>
      </trkpt>
      <trkpt lat="44.07245" lon="5.70428">
        <ele>878.20001220703</ele>
        <time>2021-09-04T08:14:53Z</time>
      </trkpt>
      <trkpt lat="44.07251" lon="5.70429">
        <ele>878.20001220703</ele>
        <time>2021-09-04T08:14:54Z</time>
      </trkpt>
      <trkpt lat="44.07257" lon="5.70431">
        <ele>878</ele>
        <time>2021-09-04T08:14:55Z</time>
      </trkpt>
      <trkpt lat="44.07276" lon="5.70443">
        <ele>877.20001220703</ele>
        <time>2021-09-04T08:14:58Z</time>
      </trkpt>
      <trkpt lat="44.07282" lon="5.70449">
        <ele>876.79998779297</ele>
        <time>2021-09-04T08:15:00Z</time>
      </trkpt>
      <trkpt lat="44.07282" lon="5.70448">
        <ele>876.40002441406</ele>
        <time>2021-09-04T08:15:01Z</time>
      </trkpt>
      <trkpt lat="44.07284" lon="5.7045">
        <ele>874.20001220703</ele>
        <time>2021-09-04T08:15:16Z</time>
      </trkpt>
      <trkpt lat="44.07289" lon="5.70453">
        <ele>874.20001220703</ele>
        <time>2021-09-04T08:15:18Z</time>
      </trkpt>
      <trkpt lat="44.07297" lon="5.70459">
        <ele>874.20001220703</ele>
        <time>2021-09-04T08:15:20Z</time>
      </trkpt>
      <trkpt lat="44.07306" lon="5.70467">
        <ele>874</ele>
        <time>2021-09-04T08:15:22Z</time>
      </trkpt>
      <trkpt lat="44.07335" lon="5.70492">
        <ele>873</ele>
        <time>2021-09-04T08:15:27Z</time>
      </trkpt>
      <trkpt lat="44.07355" lon="5.70512">
        <ele>872</ele>
        <time>2021-09-04T08:15:30Z</time>
      </trkpt>
      <trkpt lat="44.07368" lon="5.70525">
        <ele>871.20001220703</ele>
        <time>2021-09-04T08:15:32Z</time>
      </trkpt>
      <trkpt lat="44.07375" lon="5.70532">
        <ele>870.79998779297</ele>
        <time>2021-09-04T08:15:33Z</time>
      </trkpt>
      <trkpt lat="44.0739" lon="5.70545">
        <ele>869.40002441406</ele>
        <time>2021-09-04T08:15:35Z</time>
      </trkpt>
      <trkpt lat="44.07405" lon="5.70556">
        <ele>868.79998779297</ele>
        <time>2021-09-04T08:15:37Z</time>
      </trkpt>
      <trkpt lat="44.07414" lon="5.70558">
        <ele>868.40002441406</ele>
        <time>2021-09-04T08:15:38Z</time>
      </trkpt>
      <trkpt lat="44.07441" lon="5.70558">
        <ele>867</ele>
        <time>2021-09-04T08:15:41Z</time>
      </trkpt>
      <trkpt lat="44.07464" lon="5.70545">
        <ele>865.79998779297</ele>
        <time>2021-09-04T08:15:44Z</time>
      </trkpt>
      <trkpt lat="44.07488" lon="5.70518">
        <ele>864.79998779297</ele>
        <time>2021-09-04T08:15:48Z</time>
      </trkpt>
      <trkpt lat="44.07499" lon="5.70505">
        <ele>864.40002441406</ele>
        <time>2021-09-04T08:15:50Z</time>
      </trkpt>
      <trkpt lat="44.07519" lon="5.70492">
        <ele>864</ele>
        <time>2021-09-04T08:15:53Z</time>
      </trkpt>
      <trkpt lat="44.07526" lon="5.70489">
        <ele>863.79998779297</ele>
        <time>2021-09-04T08:15:54Z</time>
      </trkpt>
      <trkpt lat="44.07533" lon="5.70488">
        <ele>863.79998779297</ele>
        <time>2021-09-04T08:15:55Z</time>
      </trkpt>
      <trkpt lat="44.07547" lon="5.70485">
        <ele>863.59997558594</ele>
        <time>2021-09-04T08:15:57Z</time>
      </trkpt>
      <trkpt lat="44.07586" lon="5.70486">
        <ele>863.59997558594</ele>
        <time>2021-09-04T08:16:03Z</time>
      </trkpt>
      <trkpt lat="44.07637" lon="5.70489">
        <ele>863.79998779297</ele>
        <time>2021-09-04T08:16:11Z</time>
      </trkpt>
      <trkpt lat="44.07673" lon="5.70493">
        <ele>863.79998779297</ele>
        <time>2021-09-04T08:16:17Z</time>
      </trkpt>
      <trkpt lat="44.07725" lon="5.70493">
        <ele>864</ele>
        <time>2021-09-04T08:16:26Z</time>
      </trkpt>
      <trkpt lat="44.07765" lon="5.70481">
        <ele>864.40002441406</ele>
        <time>2021-09-04T08:16:33Z</time>
      </trkpt>
      <trkpt lat="44.07809" lon="5.70455">
        <ele>863.79998779297</ele>
        <time>2021-09-04T08:16:40Z</time>
      </trkpt>
      <trkpt lat="44.07846" lon="5.70434">
        <ele>862.40002441406</ele>
        <time>2021-09-04T08:16:45Z</time>
      </trkpt>
      <trkpt lat="44.07862" lon="5.70427">
        <ele>861.40002441406</ele>
        <time>2021-09-04T08:16:47Z</time>
      </trkpt>
      <trkpt lat="44.07886" lon="5.70419">
        <ele>860.40002441406</ele>
        <time>2021-09-04T08:16:50Z</time>
      </trkpt>
      <trkpt lat="44.07895" lon="5.70416">
        <ele>860</ele>
        <time>2021-09-04T08:16:51Z</time>
      </trkpt>
      <trkpt lat="44.07912" lon="5.70411">
        <ele>859.20001220703</ele>
        <time>2021-09-04T08:16:53Z</time>
      </trkpt>
      <trkpt lat="44.07938" lon="5.70402">
        <ele>858.20001220703</ele>
        <time>2021-09-04T08:16:56Z</time>
      </trkpt>
      <trkpt lat="44.07963" lon="5.70393">
        <ele>857.20001220703</ele>
        <time>2021-09-04T08:16:59Z</time>
      </trkpt>
      <trkpt lat="44.07971" lon="5.7039">
        <ele>857</ele>
        <time>2021-09-04T08:17:00Z</time>
      </trkpt>
      <trkpt lat="44.08006" lon="5.70377">
        <ele>855.79998779297</ele>
        <time>2021-09-04T08:17:04Z</time>
      </trkpt>
      <trkpt lat="44.08032" lon="5.70367">
        <ele>854.59997558594</ele>
        <time>2021-09-04T08:17:07Z</time>
      </trkpt>
      <trkpt lat="44.08058" lon="5.70351">
        <ele>853.59997558594</ele>
        <time>2021-09-04T08:17:10Z</time>
      </trkpt>
      <trkpt lat="44.08066" lon="5.70343">
        <ele>852.79998779297</ele>
        <time>2021-09-04T08:17:11Z</time>
      </trkpt>
      <trkpt lat="44.08073" lon="5.70334">
        <ele>852.20001220703</ele>
        <time>2021-09-04T08:17:12Z</time>
      </trkpt>
      <trkpt lat="44.08086" lon="5.70314">
        <ele>851.20001220703</ele>
        <time>2021-09-04T08:17:14Z</time>
      </trkpt>
      <trkpt lat="44.08105" lon="5.7029">
        <ele>850</ele>
        <time>2021-09-04T08:17:17Z</time>
      </trkpt>
      <trkpt lat="44.08117" lon="5.70274">
        <ele>849.40002441406</ele>
        <time>2021-09-04T08:17:19Z</time>
      </trkpt>
      <trkpt lat="44.08135" lon="5.70252">
        <ele>849</ele>
        <time>2021-09-04T08:17:22Z</time>
      </trkpt>
      <trkpt lat="44.08156" lon="5.70225">
        <ele>849</ele>
        <time>2021-09-04T08:17:26Z</time>
      </trkpt>
      <trkpt lat="44.08175" lon="5.70202">
        <ele>849.59997558594</ele>
        <time>2021-09-04T08:17:31Z</time>
      </trkpt>
      <trkpt lat="44.08181" lon="5.70194">
        <ele>850</ele>
        <time>2021-09-04T08:17:33Z</time>
      </trkpt>
      <trkpt lat="44.08189" lon="5.70183">
        <ele>851.20001220703</ele>
        <time>2021-09-04T08:17:36Z</time>
      </trkpt>
      <trkpt lat="44.08191" lon="5.7018">
        <ele>851.40002441406</ele>
        <time>2021-09-04T08:17:37Z</time>
      </trkpt>
      <trkpt lat="44.082" lon="5.70168">
        <ele>852.40002441406</ele>
        <time>2021-09-04T08:17:41Z</time>
      </trkpt>
      <trkpt lat="44.08206" lon="5.70158">
        <ele>852.79998779297</ele>
        <time>2021-09-04T08:17:44Z</time>
      </trkpt>
      <trkpt lat="44.0821" lon="5.70152">
        <ele>853.40002441406</ele>
        <time>2021-09-04T08:17:46Z</time>
      </trkpt>
      <trkpt lat="44.0822" lon="5.70142">
        <ele>854.40002441406</ele>
        <time>2021-09-04T08:17:51Z</time>
      </trkpt>
      <trkpt lat="44.08232" lon="5.70127">
        <ele>855.40002441406</ele>
        <time>2021-09-04T08:17:57Z</time>
      </trkpt>
      <trkpt lat="44.08237" lon="5.7012">
        <ele>856</ele>
        <time>2021-09-04T08:18:00Z</time>
      </trkpt>
      <trkpt lat="44.08246" lon="5.70109">
        <ele>856.59997558594</ele>
        <time>2021-09-04T08:18:05Z</time>
      </trkpt>
      <trkpt lat="44.08253" lon="5.70099">
        <ele>857.20001220703</ele>
        <time>2021-09-04T08:18:09Z</time>
      </trkpt>
      <trkpt lat="44.08258" lon="5.70093">
        <ele>857.59997558594</ele>
        <time>2021-09-04T08:18:12Z</time>
      </trkpt>
      <trkpt lat="44.08271" lon="5.70078">
        <ele>858.79998779297</ele>
        <time>2021-09-04T08:18:19Z</time>
      </trkpt>
      <trkpt lat="44.08279" lon="5.70069">
        <ele>859.79998779297</ele>
        <time>2021-09-04T08:18:24Z</time>
      </trkpt>
      <trkpt lat="44.08287" lon="5.70058">
        <ele>860.40002441406</ele>
        <time>2021-09-04T08:18:29Z</time>
      </trkpt>
      <trkpt lat="44.08291" lon="5.70055">
        <ele>860.79998779297</ele>
        <time>2021-09-04T08:18:31Z</time>
      </trkpt>
      <trkpt lat="44.08301" lon="5.70044">
        <ele>861.59997558594</ele>
        <time>2021-09-04T08:18:37Z</time>
      </trkpt>
      <trkpt lat="44.08303" lon="5.70042">
        <ele>861.79998779297</ele>
        <time>2021-09-04T08:18:38Z</time>
      </trkpt>
      <trkpt lat="44.08315" lon="5.70027">
        <ele>863</ele>
        <time>2021-09-04T08:18:45Z</time>
      </trkpt>
      <trkpt lat="44.08316" lon="5.70025">
        <ele>863.20001220703</ele>
        <time>2021-09-04T08:18:46Z</time>
      </trkpt>
      <trkpt lat="44.08326" lon="5.70015">
        <ele>864</ele>
        <time>2021-09-04T08:18:51Z</time>
      </trkpt>
      <trkpt lat="44.08329" lon="5.70011">
        <ele>864.40002441406</ele>
        <time>2021-09-04T08:18:53Z</time>
      </trkpt>
      <trkpt lat="44.08339" lon="5.70002">
        <ele>865</ele>
        <time>2021-09-04T08:18:58Z</time>
      </trkpt>
      <trkpt lat="44.08348" lon="5.69992">
        <ele>865.79998779297</ele>
        <time>2021-09-04T08:19:03Z</time>
      </trkpt>
      <trkpt lat="44.08352" lon="5.69989">
        <ele>866.20001220703</ele>
        <time>2021-09-04T08:19:05Z</time>
      </trkpt>
      <trkpt lat="44.08364" lon="5.69975">
        <ele>867.40002441406</ele>
        <time>2021-09-04T08:19:12Z</time>
      </trkpt>
      <trkpt lat="44.08377" lon="5.69962">
        <ele>868.40002441406</ele>
        <time>2021-09-04T08:19:19Z</time>
      </trkpt>
      <trkpt lat="44.08379" lon="5.6996">
        <ele>868.40002441406</ele>
        <time>2021-09-04T08:19:20Z</time>
      </trkpt>
      <trkpt lat="44.0839" lon="5.6995">
        <ele>869.40002441406</ele>
        <time>2021-09-04T08:19:26Z</time>
      </trkpt>
      <trkpt lat="44.08393" lon="5.69946">
        <ele>869.59997558594</ele>
        <time>2021-09-04T08:19:28Z</time>
      </trkpt>
      <trkpt lat="44.08403" lon="5.69935">
        <ele>870.59997558594</ele>
        <time>2021-09-04T08:19:34Z</time>
      </trkpt>
      <trkpt lat="44.08407" lon="5.69932">
        <ele>871</ele>
        <time>2021-09-04T08:19:36Z</time>
      </trkpt>
      <trkpt lat="44.08412" lon="5.69927">
        <ele>871.59997558594</ele>
        <time>2021-09-04T08:19:39Z</time>
      </trkpt>
      <trkpt lat="44.08425" lon="5.69912">
        <ele>872.79998779297</ele>
        <time>2021-09-04T08:19:47Z</time>
      </trkpt>
      <trkpt lat="44.08426" lon="5.6991">
        <ele>873</ele>
        <time>2021-09-04T08:19:48Z</time>
      </trkpt>
      <trkpt lat="44.08435" lon="5.69899">
        <ele>873.79998779297</ele>
        <time>2021-09-04T08:19:54Z</time>
      </trkpt>
      <trkpt lat="44.0844" lon="5.69893">
        <ele>874.20001220703</ele>
        <time>2021-09-04T08:19:57Z</time>
      </trkpt>
      <trkpt lat="44.08445" lon="5.69887">
        <ele>874.79998779297</ele>
        <time>2021-09-04T08:20:00Z</time>
      </trkpt>
      <trkpt lat="44.08453" lon="5.69875">
        <ele>875.79998779297</ele>
        <time>2021-09-04T08:20:06Z</time>
      </trkpt>
      <trkpt lat="44.08455" lon="5.69873">
        <ele>876</ele>
        <time>2021-09-04T08:20:07Z</time>
      </trkpt>
      <trkpt lat="44.08466" lon="5.69859">
        <ele>877</ele>
        <time>2021-09-04T08:20:14Z</time>
      </trkpt>
      <trkpt lat="44.08469" lon="5.69854">
        <ele>877.20001220703</ele>
        <time>2021-09-04T08:20:16Z</time>
      </trkpt>
      <trkpt lat="44.08476" lon="5.69844">
        <ele>878</ele>
        <time>2021-09-04T08:20:21Z</time>
      </trkpt>
      <trkpt lat="44.08485" lon="5.69832">
        <ele>879.20001220703</ele>
        <time>2021-09-04T08:20:27Z</time>
      </trkpt>
      <trkpt lat="44.08497" lon="5.69816">
        <ele>880.20001220703</ele>
        <time>2021-09-04T08:20:34Z</time>
      </trkpt>
      <trkpt lat="44.08503" lon="5.69806">
        <ele>880.79998779297</ele>
        <time>2021-09-04T08:20:38Z</time>
      </trkpt>
      <trkpt lat="44.08507" lon="5.69799">
        <ele>881.20001220703</ele>
        <time>2021-09-04T08:20:41Z</time>
      </trkpt>
      <trkpt lat="44.08514" lon="5.69781">
        <ele>882.20001220703</ele>
        <time>2021-09-04T08:20:47Z</time>
      </trkpt>
      <trkpt lat="44.08515" lon="5.69778">
        <ele>882.40002441406</ele>
        <time>2021-09-04T08:20:48Z</time>
      </trkpt>
      <trkpt lat="44.08523" lon="5.69757">
        <ele>883.40002441406</ele>
        <time>2021-09-04T08:20:55Z</time>
      </trkpt>
      <trkpt lat="44.08523" lon="5.69753">
        <ele>883.59997558594</ele>
        <time>2021-09-04T08:20:56Z</time>
      </trkpt>
      <trkpt lat="44.0853" lon="5.69724">
        <ele>884</ele>
        <time>2021-09-04T08:21:02Z</time>
      </trkpt>
      <trkpt lat="44.08541" lon="5.69686">
        <ele>883.40002441406</ele>
        <time>2021-09-04T08:21:07Z</time>
      </trkpt>
      <trkpt lat="44.08553" lon="5.69648">
        <ele>882.20001220703</ele>
        <time>2021-09-04T08:21:11Z</time>
      </trkpt>
      <trkpt lat="44.08556" lon="5.69638">
        <ele>881.59997558594</ele>
        <time>2021-09-04T08:21:12Z</time>
      </trkpt>
      <trkpt lat="44.08563" lon="5.69617">
        <ele>881</ele>
        <time>2021-09-04T08:21:14Z</time>
      </trkpt>
      <trkpt lat="44.08576" lon="5.69588">
        <ele>879.79998779297</ele>
        <time>2021-09-04T08:21:17Z</time>
      </trkpt>
      <trkpt lat="44.08583" lon="5.6958">
        <ele>879.20001220703</ele>
        <time>2021-09-04T08:21:18Z</time>
      </trkpt>
      <trkpt lat="44.0859" lon="5.69573">
        <ele>878.79998779297</ele>
        <time>2021-09-04T08:21:19Z</time>
      </trkpt>
      <trkpt lat="44.08607" lon="5.69565">
        <ele>877.59997558594</ele>
        <time>2021-09-04T08:21:21Z</time>
      </trkpt>
      <trkpt lat="44.08625" lon="5.69561">
        <ele>876.59997558594</ele>
        <time>2021-09-04T08:21:23Z</time>
      </trkpt>
      <trkpt lat="44.08643" lon="5.69562">
        <ele>875.79998779297</ele>
        <time>2021-09-04T08:21:25Z</time>
      </trkpt>
      <trkpt lat="44.08651" lon="5.69564">
        <ele>875.40002441406</ele>
        <time>2021-09-04T08:21:26Z</time>
      </trkpt>
      <trkpt lat="44.08674" lon="5.69573">
        <ele>874.59997558594</ele>
        <time>2021-09-04T08:21:29Z</time>
      </trkpt>
      <trkpt lat="44.08682" lon="5.69576">
        <ele>874.40002441406</ele>
        <time>2021-09-04T08:21:30Z</time>
      </trkpt>
      <trkpt lat="44.0872" lon="5.69582">
        <ele>873.59997558594</ele>
        <time>2021-09-04T08:21:35Z</time>
      </trkpt>
      <trkpt lat="44.08727" lon="5.69582">
        <ele>873.20001220703</ele>
        <time>2021-09-04T08:21:36Z</time>
      </trkpt>
      <trkpt lat="44.08761" lon="5.69581">
        <ele>872</ele>
        <time>2021-09-04T08:21:40Z</time>
      </trkpt>
      <trkpt lat="44.0877" lon="5.69581">
        <ele>871.79998779297</ele>
        <time>2021-09-04T08:21:41Z</time>
      </trkpt>
      <trkpt lat="44.08789" lon="5.69582">
        <ele>871</ele>
        <time>2021-09-04T08:21:43Z</time>
      </trkpt>
      <trkpt lat="44.08815" lon="5.69577">
        <ele>869.59997558594</ele>
        <time>2021-09-04T08:21:46Z</time>
      </trkpt>
      <trkpt lat="44.08824" lon="5.69569">
        <ele>869.20001220703</ele>
        <time>2021-09-04T08:21:47Z</time>
      </trkpt>
      <trkpt lat="44.08835" lon="5.69546">
        <ele>868.59997558594</ele>
        <time>2021-09-04T08:21:49Z</time>
      </trkpt>
      <trkpt lat="44.0884" lon="5.69533">
        <ele>868.20001220703</ele>
        <time>2021-09-04T08:21:50Z</time>
      </trkpt>
      <trkpt lat="44.08847" lon="5.69508">
        <ele>867</ele>
        <time>2021-09-04T08:21:52Z</time>
      </trkpt>
      <trkpt lat="44.08855" lon="5.69484">
        <ele>865.79998779297</ele>
        <time>2021-09-04T08:21:54Z</time>
      </trkpt>
      <trkpt lat="44.08858" lon="5.69472">
        <ele>865.40002441406</ele>
        <time>2021-09-04T08:21:55Z</time>
      </trkpt>
      <trkpt lat="44.0886" lon="5.69461">
        <ele>865</ele>
        <time>2021-09-04T08:21:56Z</time>
      </trkpt>
      <trkpt lat="44.0886" lon="5.69449">
        <ele>864.59997558594</ele>
        <time>2021-09-04T08:21:57Z</time>
      </trkpt>
      <trkpt lat="44.08859" lon="5.69438">
        <ele>864.40002441406</ele>
        <time>2021-09-04T08:21:58Z</time>
      </trkpt>
      <trkpt lat="44.08848" lon="5.69411">
        <ele>863.79998779297</ele>
        <time>2021-09-04T08:22:01Z</time>
      </trkpt>
      <trkpt lat="44.08839" lon="5.69396">
        <ele>863.59997558594</ele>
        <time>2021-09-04T08:22:03Z</time>
      </trkpt>
      <trkpt lat="44.0883" lon="5.69382">
        <ele>863.59997558594</ele>
        <time>2021-09-04T08:22:05Z</time>
      </trkpt>
      <trkpt lat="44.08825" lon="5.69376">
        <ele>863.59997558594</ele>
        <time>2021-09-04T08:22:06Z</time>
      </trkpt>
      <trkpt lat="44.08796" lon="5.69334">
        <ele>864</ele>
        <time>2021-09-04T08:22:13Z</time>
      </trkpt>
      <trkpt lat="44.08775" lon="5.69309">
        <ele>864.40002441406</ele>
        <time>2021-09-04T08:22:18Z</time>
      </trkpt>
      <trkpt lat="44.08753" lon="5.693">
        <ele>864.59997558594</ele>
        <time>2021-09-04T08:22:23Z</time>
      </trkpt>
      <trkpt lat="44.08748" lon="5.693">
        <ele>864.79998779297</ele>
        <time>2021-09-04T08:22:24Z</time>
      </trkpt>
      <trkpt lat="44.08734" lon="5.69303">
        <ele>865.40002441406</ele>
        <time>2021-09-04T08:22:28Z</time>
      </trkpt>
      <trkpt lat="44.08724" lon="5.69304">
        <ele>866</ele>
        <time>2021-09-04T08:22:31Z</time>
      </trkpt>
      <trkpt lat="44.08714" lon="5.69303">
        <ele>866.40002441406</ele>
        <time>2021-09-04T08:22:34Z</time>
      </trkpt>
      <trkpt lat="44.08704" lon="5.69298">
        <ele>867</ele>
        <time>2021-09-04T08:22:38Z</time>
      </trkpt>
      <trkpt lat="44.087" lon="5.69295">
        <ele>867.20001220703</ele>
        <time>2021-09-04T08:22:40Z</time>
      </trkpt>
      <trkpt lat="44.08687" lon="5.69285">
        <ele>868</ele>
        <time>2021-09-04T08:22:46Z</time>
      </trkpt>
      <trkpt lat="44.08679" lon="5.69278">
        <ele>868.79998779297</ele>
        <time>2021-09-04T08:22:50Z</time>
      </trkpt>
      <trkpt lat="44.08674" lon="5.69274">
        <ele>869.20001220703</ele>
        <time>2021-09-04T08:22:52Z</time>
      </trkpt>
      <trkpt lat="44.08659" lon="5.69263">
        <ele>870</ele>
        <time>2021-09-04T08:22:59Z</time>
      </trkpt>
      <trkpt lat="44.08656" lon="5.69257">
        <ele>870.20001220703</ele>
        <time>2021-09-04T08:23:01Z</time>
      </trkpt>
      <trkpt lat="44.08647" lon="5.69248">
        <ele>870.59997558594</ele>
        <time>2021-09-04T08:23:05Z</time>
      </trkpt>
      <trkpt lat="44.08637" lon="5.6923">
        <ele>871.40002441406</ele>
        <time>2021-09-04T08:23:11Z</time>
      </trkpt>
      <trkpt lat="44.08634" lon="5.69224">
        <ele>871.79998779297</ele>
        <time>2021-09-04T08:23:13Z</time>
      </trkpt>
      <trkpt lat="44.08629" lon="5.69206">
        <ele>872.40002441406</ele>
        <time>2021-09-04T08:23:18Z</time>
      </trkpt>
      <trkpt lat="44.08627" lon="5.69194">
        <ele>872.79998779297</ele>
        <time>2021-09-04T08:23:21Z</time>
      </trkpt>
      <trkpt lat="44.08621" lon="5.69165">
        <ele>873.40002441406</ele>
        <time>2021-09-04T08:23:28Z</time>
      </trkpt>
      <trkpt lat="44.08619" lon="5.69157">
        <ele>873.40002441406</ele>
        <time>2021-09-04T08:23:30Z</time>
      </trkpt>
      <trkpt lat="44.08613" lon="5.69122">
        <ele>873.59997558594</ele>
        <time>2021-09-04T08:23:37Z</time>
      </trkpt>
      <trkpt lat="44.08611" lon="5.69117">
        <ele>873.59997558594</ele>
        <time>2021-09-04T08:23:38Z</time>
      </trkpt>
      <trkpt lat="44.08605" lon="5.69086">
        <ele>873.20001220703</ele>
        <time>2021-09-04T08:23:43Z</time>
      </trkpt>
      <trkpt lat="44.08591" lon="5.69014">
        <ele>872.59997558594</ele>
        <time>2021-09-04T08:23:54Z</time>
      </trkpt>
      <trkpt lat="44.08589" lon="5.68986">
        <ele>872.40002441406</ele>
        <time>2021-09-04T08:23:58Z</time>
      </trkpt>
      <trkpt lat="44.08589" lon="5.68978">
        <ele>872.20001220703</ele>
        <time>2021-09-04T08:23:59Z</time>
      </trkpt>
      <trkpt lat="44.08591" lon="5.68963">
        <ele>871.79998779297</ele>
        <time>2021-09-04T08:24:01Z</time>
      </trkpt>
      <trkpt lat="44.08593" lon="5.68955">
        <ele>871.79998779297</ele>
        <time>2021-09-04T08:24:02Z</time>
      </trkpt>
      <trkpt lat="44.08601" lon="5.68919">
        <ele>871.20001220703</ele>
        <time>2021-09-04T08:24:06Z</time>
      </trkpt>
      <trkpt lat="44.08603" lon="5.68909">
        <ele>871</ele>
        <time>2021-09-04T08:24:07Z</time>
      </trkpt>
      <trkpt lat="44.08609" lon="5.6888">
        <ele>870.20001220703</ele>
        <time>2021-09-04T08:24:10Z</time>
      </trkpt>
      <trkpt lat="44.08609" lon="5.6887">
        <ele>870</ele>
        <time>2021-09-04T08:24:11Z</time>
      </trkpt>
      <trkpt lat="44.08609" lon="5.6886">
        <ele>869.79998779297</ele>
        <time>2021-09-04T08:24:12Z</time>
      </trkpt>
      <trkpt lat="44.08608" lon="5.68821">
        <ele>868.79998779297</ele>
        <time>2021-09-04T08:24:16Z</time>
      </trkpt>
      <trkpt lat="44.08604" lon="5.68794">
        <ele>868.40002441406</ele>
        <time>2021-09-04T08:24:19Z</time>
      </trkpt>
      <trkpt lat="44.08596" lon="5.68751">
        <ele>867.79998779297</ele>
        <time>2021-09-04T08:24:24Z</time>
      </trkpt>
      <trkpt lat="44.08592" lon="5.68725">
        <ele>867.59997558594</ele>
        <time>2021-09-04T08:24:27Z</time>
      </trkpt>
      <trkpt lat="44.08578" lon="5.68669">
        <ele>866.59997558594</ele>
        <time>2021-09-04T08:24:33Z</time>
      </trkpt>
      <trkpt lat="44.08562" lon="5.6863">
        <ele>865.40002441406</ele>
        <time>2021-09-04T08:24:37Z</time>
      </trkpt>
      <trkpt lat="44.08552" lon="5.68612">
        <ele>864.59997558594</ele>
        <time>2021-09-04T08:24:39Z</time>
      </trkpt>
      <trkpt lat="44.08547" lon="5.68603">
        <ele>864.20001220703</ele>
        <time>2021-09-04T08:24:40Z</time>
      </trkpt>
      <trkpt lat="44.08531" lon="5.68576">
        <ele>863.20001220703</ele>
        <time>2021-09-04T08:24:43Z</time>
      </trkpt>
      <trkpt lat="44.08515" lon="5.68548">
        <ele>862.20001220703</ele>
        <time>2021-09-04T08:24:46Z</time>
      </trkpt>
      <trkpt lat="44.08499" lon="5.68519">
        <ele>860.79998779297</ele>
        <time>2021-09-04T08:24:49Z</time>
      </trkpt>
      <trkpt lat="44.08483" lon="5.68488">
        <ele>859.40002441406</ele>
        <time>2021-09-04T08:24:52Z</time>
      </trkpt>
      <trkpt lat="44.08477" lon="5.68478">
        <ele>859</ele>
        <time>2021-09-04T08:24:53Z</time>
      </trkpt>
      <trkpt lat="44.08471" lon="5.6847">
        <ele>858.59997558594</ele>
        <time>2021-09-04T08:24:54Z</time>
      </trkpt>
      <trkpt lat="44.08464" lon="5.68462">
        <ele>858</ele>
        <time>2021-09-04T08:24:55Z</time>
      </trkpt>
      <trkpt lat="44.08444" lon="5.68438">
        <ele>857</ele>
        <time>2021-09-04T08:24:58Z</time>
      </trkpt>
      <trkpt lat="44.08413" lon="5.68398">
        <ele>855.79998779297</ele>
        <time>2021-09-04T08:25:03Z</time>
      </trkpt>
      <trkpt lat="44.08394" lon="5.68374">
        <ele>854.59997558594</ele>
        <time>2021-09-04T08:25:06Z</time>
      </trkpt>
      <trkpt lat="44.08387" lon="5.68367">
        <ele>854.40002441406</ele>
        <time>2021-09-04T08:25:07Z</time>
      </trkpt>
      <trkpt lat="44.08369" lon="5.68343">
        <ele>853.59997558594</ele>
        <time>2021-09-04T08:25:10Z</time>
      </trkpt>
      <trkpt lat="44.08356" lon="5.68327">
        <ele>852.59997558594</ele>
        <time>2021-09-04T08:25:12Z</time>
      </trkpt>
      <trkpt lat="44.08343" lon="5.68311">
        <ele>852</ele>
        <time>2021-09-04T08:25:14Z</time>
      </trkpt>
      <trkpt lat="44.08329" lon="5.68295">
        <ele>851.40002441406</ele>
        <time>2021-09-04T08:25:16Z</time>
      </trkpt>
      <trkpt lat="44.08301" lon="5.68262">
        <ele>850</ele>
        <time>2021-09-04T08:25:20Z</time>
      </trkpt>
      <trkpt lat="44.0828" lon="5.68238">
        <ele>848.79998779297</ele>
        <time>2021-09-04T08:25:23Z</time>
      </trkpt>
      <trkpt lat="44.08273" lon="5.6823">
        <ele>848.40002441406</ele>
        <time>2021-09-04T08:25:24Z</time>
      </trkpt>
      <trkpt lat="44.08259" lon="5.68214">
        <ele>847.59997558594</ele>
        <time>2021-09-04T08:25:26Z</time>
      </trkpt>
      <trkpt lat="44.08237" lon="5.68191">
        <ele>846.40002441406</ele>
        <time>2021-09-04T08:25:29Z</time>
      </trkpt>
      <trkpt lat="44.08214" lon="5.68168">
        <ele>845.20001220703</ele>
        <time>2021-09-04T08:25:32Z</time>
      </trkpt>
      <trkpt lat="44.08199" lon="5.68152">
        <ele>844.40002441406</ele>
        <time>2021-09-04T08:25:34Z</time>
      </trkpt>
      <trkpt lat="44.08192" lon="5.68145">
        <ele>844</ele>
        <time>2021-09-04T08:25:35Z</time>
      </trkpt>
      <trkpt lat="44.08177" lon="5.68129">
        <ele>842.59997558594</ele>
        <time>2021-09-04T08:25:37Z</time>
      </trkpt>
      <trkpt lat="44.08155" lon="5.68107">
        <ele>841.40002441406</ele>
        <time>2021-09-04T08:25:40Z</time>
      </trkpt>
      <trkpt lat="44.08134" lon="5.68085">
        <ele>840.20001220703</ele>
        <time>2021-09-04T08:25:43Z</time>
      </trkpt>
      <trkpt lat="44.08126" lon="5.68077">
        <ele>839.59997558594</ele>
        <time>2021-09-04T08:25:44Z</time>
      </trkpt>
      <trkpt lat="44.08112" lon="5.68063">
        <ele>838.59997558594</ele>
        <time>2021-09-04T08:25:46Z</time>
      </trkpt>
      <trkpt lat="44.08089" lon="5.6804">
        <ele>837.40002441406</ele>
        <time>2021-09-04T08:25:49Z</time>
      </trkpt>
      <trkpt lat="44.08066" lon="5.68017">
        <ele>836.20001220703</ele>
        <time>2021-09-04T08:25:52Z</time>
      </trkpt>
      <trkpt lat="44.08058" lon="5.68009">
        <ele>835.79998779297</ele>
        <time>2021-09-04T08:25:53Z</time>
      </trkpt>
      <trkpt lat="44.08043" lon="5.67992">
        <ele>835</ele>
        <time>2021-09-04T08:25:55Z</time>
      </trkpt>
      <trkpt lat="44.08018" lon="5.67969">
        <ele>833.59997558594</ele>
        <time>2021-09-04T08:25:58Z</time>
      </trkpt>
      <trkpt lat="44.08001" lon="5.67953">
        <ele>832</ele>
        <time>2021-09-04T08:26:00Z</time>
      </trkpt>
      <trkpt lat="44.07992" lon="5.67946">
        <ele>831.40002441406</ele>
        <time>2021-09-04T08:26:01Z</time>
      </trkpt>
      <trkpt lat="44.07984" lon="5.67938">
        <ele>831</ele>
        <time>2021-09-04T08:26:02Z</time>
      </trkpt>
      <trkpt lat="44.07966" lon="5.67926">
        <ele>829.79998779297</ele>
        <time>2021-09-04T08:26:04Z</time>
      </trkpt>
      <trkpt lat="44.07949" lon="5.67913">
        <ele>828.79998779297</ele>
        <time>2021-09-04T08:26:06Z</time>
      </trkpt>
      <trkpt lat="44.0794" lon="5.67908">
        <ele>828.40002441406</ele>
        <time>2021-09-04T08:26:07Z</time>
      </trkpt>
      <trkpt lat="44.07922" lon="5.67897">
        <ele>827.40002441406</ele>
        <time>2021-09-04T08:26:09Z</time>
      </trkpt>
      <trkpt lat="44.07894" lon="5.67879">
        <ele>826</ele>
        <time>2021-09-04T08:26:12Z</time>
      </trkpt>
      <trkpt lat="44.07875" lon="5.67868">
        <ele>824.59997558594</ele>
        <time>2021-09-04T08:26:14Z</time>
      </trkpt>
      <trkpt lat="44.07866" lon="5.67861">
        <ele>824</ele>
        <time>2021-09-04T08:26:15Z</time>
      </trkpt>
      <trkpt lat="44.07856" lon="5.67855">
        <ele>823.40002441406</ele>
        <time>2021-09-04T08:26:16Z</time>
      </trkpt>
      <trkpt lat="44.07837" lon="5.67844">
        <ele>822.20001220703</ele>
        <time>2021-09-04T08:26:18Z</time>
      </trkpt>
      <trkpt lat="44.07818" lon="5.67833">
        <ele>821.20001220703</ele>
        <time>2021-09-04T08:26:20Z</time>
      </trkpt>
      <trkpt lat="44.07799" lon="5.67822">
        <ele>819.79998779297</ele>
        <time>2021-09-04T08:26:22Z</time>
      </trkpt>
      <trkpt lat="44.07781" lon="5.6781">
        <ele>817.79998779297</ele>
        <time>2021-09-04T08:26:24Z</time>
      </trkpt>
      <trkpt lat="44.07763" lon="5.67799">
        <ele>816.79998779297</ele>
        <time>2021-09-04T08:26:26Z</time>
      </trkpt>
      <trkpt lat="44.07737" lon="5.67783">
        <ele>815.20001220703</ele>
        <time>2021-09-04T08:26:29Z</time>
      </trkpt>
      <trkpt lat="44.0772" lon="5.67772">
        <ele>814.20001220703</ele>
        <time>2021-09-04T08:26:31Z</time>
      </trkpt>
      <trkpt lat="44.07712" lon="5.67766">
        <ele>813.79998779297</ele>
        <time>2021-09-04T08:26:32Z</time>
      </trkpt>
      <trkpt lat="44.07696" lon="5.67753">
        <ele>813.20001220703</ele>
        <time>2021-09-04T08:26:34Z</time>
      </trkpt>
      <trkpt lat="44.07663" lon="5.67727">
        <ele>811.79998779297</ele>
        <time>2021-09-04T08:26:38Z</time>
      </trkpt>
      <trkpt lat="44.07637" lon="5.67711">
        <ele>810.40002441406</ele>
        <time>2021-09-04T08:26:41Z</time>
      </trkpt>
      <trkpt lat="44.07611" lon="5.67694">
        <ele>809.20001220703</ele>
        <time>2021-09-04T08:26:44Z</time>
      </trkpt>
      <trkpt lat="44.07593" lon="5.67684">
        <ele>808</ele>
        <time>2021-09-04T08:26:46Z</time>
      </trkpt>
      <trkpt lat="44.07575" lon="5.67674">
        <ele>806.59997558594</ele>
        <time>2021-09-04T08:26:48Z</time>
      </trkpt>
      <trkpt lat="44.07533" lon="5.67649">
        <ele>805.59997558594</ele>
        <time>2021-09-04T08:26:53Z</time>
      </trkpt>
      <trkpt lat="44.07525" lon="5.67644">
        <ele>805.40002441406</ele>
        <time>2021-09-04T08:26:54Z</time>
      </trkpt>
      <trkpt lat="44.07493" lon="5.67626">
        <ele>804.59997558594</ele>
        <time>2021-09-04T08:26:58Z</time>
      </trkpt>
      <trkpt lat="44.07463" lon="5.67607">
        <ele>804</ele>
        <time>2021-09-04T08:27:02Z</time>
      </trkpt>
      <trkpt lat="44.07438" lon="5.6758">
        <ele>803.59997558594</ele>
        <time>2021-09-04T08:27:06Z</time>
      </trkpt>
      <trkpt lat="44.07433" lon="5.67572">
        <ele>803.40002441406</ele>
        <time>2021-09-04T08:27:07Z</time>
      </trkpt>
      <trkpt lat="44.07399" lon="5.67524">
        <ele>803.40002441406</ele>
        <time>2021-09-04T08:27:14Z</time>
      </trkpt>
      <trkpt lat="44.07364" lon="5.67473">
        <ele>803.79998779297</ele>
        <time>2021-09-04T08:27:22Z</time>
      </trkpt>
      <trkpt lat="44.07337" lon="5.6743">
        <ele>804</ele>
        <time>2021-09-04T08:27:29Z</time>
      </trkpt>
      <trkpt lat="44.07316" lon="5.67377">
        <ele>803.79998779297</ele>
        <time>2021-09-04T08:27:36Z</time>
      </trkpt>
      <trkpt lat="44.073" lon="5.67315">
        <ele>803.20001220703</ele>
        <time>2021-09-04T08:27:43Z</time>
      </trkpt>
      <trkpt lat="44.07287" lon="5.67267">
        <ele>802.59997558594</ele>
        <time>2021-09-04T08:27:48Z</time>
      </trkpt>
      <trkpt lat="44.07279" lon="5.67248">
        <ele>802.20001220703</ele>
        <time>2021-09-04T08:27:50Z</time>
      </trkpt>
      <trkpt lat="44.07265" lon="5.6722">
        <ele>801.40002441406</ele>
        <time>2021-09-04T08:27:53Z</time>
      </trkpt>
      <trkpt lat="44.07249" lon="5.67193">
        <ele>800.20001220703</ele>
        <time>2021-09-04T08:27:56Z</time>
      </trkpt>
      <trkpt lat="44.07234" lon="5.67167">
        <ele>799</ele>
        <time>2021-09-04T08:27:59Z</time>
      </trkpt>
      <trkpt lat="44.07218" lon="5.67143">
        <ele>797.79998779297</ele>
        <time>2021-09-04T08:28:02Z</time>
      </trkpt>
      <trkpt lat="44.07206" lon="5.67129">
        <ele>797.20001220703</ele>
        <time>2021-09-04T08:28:04Z</time>
      </trkpt>
      <trkpt lat="44.07193" lon="5.67116">
        <ele>796.59997558594</ele>
        <time>2021-09-04T08:28:06Z</time>
      </trkpt>
      <trkpt lat="44.07166" lon="5.67096">
        <ele>796</ele>
        <time>2021-09-04T08:28:10Z</time>
      </trkpt>
      <trkpt lat="44.07147" lon="5.67087">
        <ele>795.59997558594</ele>
        <time>2021-09-04T08:28:13Z</time>
      </trkpt>
      <trkpt lat="44.07129" lon="5.67079">
        <ele>795.59997558594</ele>
        <time>2021-09-04T08:28:16Z</time>
      </trkpt>
      <trkpt lat="44.07099" lon="5.6706">
        <ele>796</ele>
        <time>2021-09-04T08:28:22Z</time>
      </trkpt>
      <trkpt lat="44.07069" lon="5.67026">
        <ele>796.20001220703</ele>
        <time>2021-09-04T08:28:29Z</time>
      </trkpt>
      <trkpt lat="44.07029" lon="5.66975">
        <ele>796</ele>
        <time>2021-09-04T08:28:38Z</time>
      </trkpt>
      <trkpt lat="44.07015" lon="5.66958">
        <ele>796</ele>
        <time>2021-09-04T08:28:41Z</time>
      </trkpt>
      <trkpt lat="44.06976" lon="5.66912">
        <ele>795.79998779297</ele>
        <time>2021-09-04T08:28:50Z</time>
      </trkpt>
      <trkpt lat="44.06935" lon="5.66863">
        <ele>795.79998779297</ele>
        <time>2021-09-04T08:29:00Z</time>
      </trkpt>
      <trkpt lat="44.06926" lon="5.66853">
        <ele>795.79998779297</ele>
        <time>2021-09-04T08:29:02Z</time>
      </trkpt>
      <trkpt lat="44.06887" lon="5.66803">
        <ele>795.59997558594</ele>
        <time>2021-09-04T08:29:11Z</time>
      </trkpt>
      <trkpt lat="44.06883" lon="5.66797">
        <ele>795.59997558594</ele>
        <time>2021-09-04T08:29:12Z</time>
      </trkpt>
      <trkpt lat="44.06852" lon="5.66755">
        <ele>794.59997558594</ele>
        <time>2021-09-04T08:29:19Z</time>
      </trkpt>
      <trkpt lat="44.06848" lon="5.66749">
        <ele>794.59997558594</ele>
        <time>2021-09-04T08:29:20Z</time>
      </trkpt>
      <trkpt lat="44.06818" lon="5.66709">
        <ele>794.59997558594</ele>
        <time>2021-09-04T08:29:28Z</time>
      </trkpt>
      <trkpt lat="44.06787" lon="5.66669">
        <ele>795.20001220703</ele>
        <time>2021-09-04T08:29:36Z</time>
      </trkpt>
      <trkpt lat="44.06749" lon="5.66619">
        <ele>795</ele>
        <time>2021-09-04T08:29:45Z</time>
      </trkpt>
      <trkpt lat="44.06725" lon="5.66593">
        <ele>794.59997558594</ele>
        <time>2021-09-04T08:29:50Z</time>
      </trkpt>
      <trkpt lat="44.06708" lon="5.66578">
        <ele>794.20001220703</ele>
        <time>2021-09-04T08:29:53Z</time>
      </trkpt>
      <trkpt lat="44.0668" lon="5.66554">
        <ele>793.59997558594</ele>
        <time>2021-09-04T08:29:58Z</time>
      </trkpt>
      <trkpt lat="44.06668" lon="5.66544">
        <ele>793.40002441406</ele>
        <time>2021-09-04T08:30:00Z</time>
      </trkpt>
      <trkpt lat="44.0664" lon="5.6652">
        <ele>792.59997558594</ele>
        <time>2021-09-04T08:30:05Z</time>
      </trkpt>
      <trkpt lat="44.06617" lon="5.66501">
        <ele>792.20001220703</ele>
        <time>2021-09-04T08:30:09Z</time>
      </trkpt>
      <trkpt lat="44.06566" lon="5.66458">
        <ele>791.79998779297</ele>
        <time>2021-09-04T08:30:18Z</time>
      </trkpt>
      <trkpt lat="44.0656" lon="5.66454">
        <ele>791.79998779297</ele>
        <time>2021-09-04T08:30:19Z</time>
      </trkpt>
      <trkpt lat="44.06531" lon="5.66429">
        <ele>791.40002441406</ele>
        <time>2021-09-04T08:30:24Z</time>
      </trkpt>
      <trkpt lat="44.06497" lon="5.66398">
        <ele>790.59997558594</ele>
        <time>2021-09-04T08:30:30Z</time>
      </trkpt>
      <trkpt lat="44.06485" lon="5.66388">
        <ele>790.40002441406</ele>
        <time>2021-09-04T08:30:32Z</time>
      </trkpt>
      <trkpt lat="44.06451" lon="5.66359">
        <ele>789.79998779297</ele>
        <time>2021-09-04T08:30:38Z</time>
      </trkpt>
      <trkpt lat="44.06426" lon="5.66336">
        <ele>789.20001220703</ele>
        <time>2021-09-04T08:30:43Z</time>
      </trkpt>
      <trkpt lat="44.06416" lon="5.66328">
        <ele>789</ele>
        <time>2021-09-04T08:30:45Z</time>
      </trkpt>
      <trkpt lat="44.0638" lon="5.66296">
        <ele>788.40002441406</ele>
        <time>2021-09-04T08:30:52Z</time>
      </trkpt>
      <trkpt lat="44.06369" lon="5.66287">
        <ele>788.20001220703</ele>
        <time>2021-09-04T08:30:54Z</time>
      </trkpt>
      <trkpt lat="44.06334" lon="5.66256">
        <ele>787.40002441406</ele>
        <time>2021-09-04T08:31:00Z</time>
      </trkpt>
      <trkpt lat="44.06315" lon="5.6624">
        <ele>787</ele>
        <time>2021-09-04T08:31:03Z</time>
      </trkpt>
      <trkpt lat="44.06278" lon="5.66207">
        <ele>786</ele>
        <time>2021-09-04T08:31:09Z</time>
      </trkpt>
      <trkpt lat="44.06241" lon="5.66173">
        <ele>785</ele>
        <time>2021-09-04T08:31:15Z</time>
      </trkpt>
      <trkpt lat="44.06211" lon="5.66145">
        <ele>784.20001220703</ele>
        <time>2021-09-04T08:31:20Z</time>
      </trkpt>
      <trkpt lat="44.06199" lon="5.66135">
        <ele>784</ele>
        <time>2021-09-04T08:31:22Z</time>
      </trkpt>
      <trkpt lat="44.06162" lon="5.66103">
        <ele>782.79998779297</ele>
        <time>2021-09-04T08:31:28Z</time>
      </trkpt>
      <trkpt lat="44.06144" lon="5.66089">
        <ele>782.20001220703</ele>
        <time>2021-09-04T08:31:31Z</time>
      </trkpt>
      <trkpt lat="44.06125" lon="5.66076">
        <ele>781.59997558594</ele>
        <time>2021-09-04T08:31:34Z</time>
      </trkpt>
      <trkpt lat="44.06102" lon="5.66059">
        <ele>780.59997558594</ele>
        <time>2021-09-04T08:31:38Z</time>
      </trkpt>
      <trkpt lat="44.06096" lon="5.66054">
        <ele>780.40002441406</ele>
        <time>2021-09-04T08:31:39Z</time>
      </trkpt>
      <trkpt lat="44.06084" lon="5.66044">
        <ele>779.79998779297</ele>
        <time>2021-09-04T08:31:41Z</time>
      </trkpt>
      <trkpt lat="44.06074" lon="5.6603">
        <ele>779.40002441406</ele>
        <time>2021-09-04T08:31:43Z</time>
      </trkpt>
      <trkpt lat="44.06054" lon="5.65992">
        <ele>778.40002441406</ele>
        <time>2021-09-04T08:31:47Z</time>
      </trkpt>
      <trkpt lat="44.06049" lon="5.65982">
        <ele>778.20001220703</ele>
        <time>2021-09-04T08:31:48Z</time>
      </trkpt>
      <trkpt lat="44.06036" lon="5.65949">
        <ele>777</ele>
        <time>2021-09-04T08:31:51Z</time>
      </trkpt>
      <trkpt lat="44.06023" lon="5.65916">
        <ele>775.79998779297</ele>
        <time>2021-09-04T08:31:54Z</time>
      </trkpt>
      <trkpt lat="44.06009" lon="5.65885">
        <ele>774.59997558594</ele>
        <time>2021-09-04T08:31:57Z</time>
      </trkpt>
      <trkpt lat="44.05996" lon="5.65858">
        <ele>773.40002441406</ele>
        <time>2021-09-04T08:32:00Z</time>
      </trkpt>
      <trkpt lat="44.05972" lon="5.65828">
        <ele>773</ele>
        <time>2021-09-04T08:32:05Z</time>
      </trkpt>
      <trkpt lat="44.05943" lon="5.65803">
        <ele>773.59997558594</ele>
        <time>2021-09-04T08:32:11Z</time>
      </trkpt>
      <trkpt lat="44.05914" lon="5.65781">
        <ele>773.79998779297</ele>
        <time>2021-09-04T08:32:17Z</time>
      </trkpt>
      <trkpt lat="44.05876" lon="5.65751">
        <ele>773.40002441406</ele>
        <time>2021-09-04T08:32:24Z</time>
      </trkpt>
      <trkpt lat="44.0584" lon="5.65724">
        <ele>772.40002441406</ele>
        <time>2021-09-04T08:32:30Z</time>
      </trkpt>
      <trkpt lat="44.05822" lon="5.65709">
        <ele>771.79998779297</ele>
        <time>2021-09-04T08:32:33Z</time>
      </trkpt>
      <trkpt lat="44.05804" lon="5.65694">
        <ele>771.20001220703</ele>
        <time>2021-09-04T08:32:36Z</time>
      </trkpt>
      <trkpt lat="44.05778" lon="5.65674">
        <ele>770</ele>
        <time>2021-09-04T08:32:40Z</time>
      </trkpt>
      <trkpt lat="44.05759" lon="5.65659">
        <ele>769.20001220703</ele>
        <time>2021-09-04T08:32:43Z</time>
      </trkpt>
      <trkpt lat="44.05753" lon="5.65654">
        <ele>769</ele>
        <time>2021-09-04T08:32:44Z</time>
      </trkpt>
      <trkpt lat="44.05721" lon="5.65628">
        <ele>767.79998779297</ele>
        <time>2021-09-04T08:32:49Z</time>
      </trkpt>
      <trkpt lat="44.05694" lon="5.65607">
        <ele>767</ele>
        <time>2021-09-04T08:32:53Z</time>
      </trkpt>
      <trkpt lat="44.05682" lon="5.65596">
        <ele>766.59997558594</ele>
        <time>2021-09-04T08:32:55Z</time>
      </trkpt>
      <trkpt lat="44.05646" lon="5.65562">
        <ele>765.59997558594</ele>
        <time>2021-09-04T08:33:01Z</time>
      </trkpt>
      <trkpt lat="44.0564" lon="5.65556">
        <ele>765.40002441406</ele>
        <time>2021-09-04T08:33:02Z</time>
      </trkpt>
      <trkpt lat="44.05608" lon="5.65521">
        <ele>765</ele>
        <time>2021-09-04T08:33:08Z</time>
      </trkpt>
      <trkpt lat="44.05581" lon="5.65491">
        <ele>764.20001220703</ele>
        <time>2021-09-04T08:33:13Z</time>
      </trkpt>
      <trkpt lat="44.05553" lon="5.6546">
        <ele>763.40002441406</ele>
        <time>2021-09-04T08:33:18Z</time>
      </trkpt>
      <trkpt lat="44.05547" lon="5.65453">
        <ele>763.20001220703</ele>
        <time>2021-09-04T08:33:19Z</time>
      </trkpt>
      <trkpt lat="44.05505" lon="5.65406">
        <ele>762</ele>
        <time>2021-09-04T08:33:26Z</time>
      </trkpt>
      <trkpt lat="44.05498" lon="5.65398">
        <ele>761.79998779297</ele>
        <time>2021-09-04T08:33:27Z</time>
      </trkpt>
      <trkpt lat="44.05478" lon="5.65372">
        <ele>760.79998779297</ele>
        <time>2021-09-04T08:33:30Z</time>
      </trkpt>
      <trkpt lat="44.05463" lon="5.65353">
        <ele>759.79998779297</ele>
        <time>2021-09-04T08:33:32Z</time>
      </trkpt>
      <trkpt lat="44.05457" lon="5.65344">
        <ele>759.20001220703</ele>
        <time>2021-09-04T08:33:33Z</time>
      </trkpt>
      <trkpt lat="44.0545" lon="5.65334">
        <ele>758.59997558594</ele>
        <time>2021-09-04T08:33:34Z</time>
      </trkpt>
      <trkpt lat="44.05437" lon="5.65314">
        <ele>757.40002441406</ele>
        <time>2021-09-04T08:33:36Z</time>
      </trkpt>
      <trkpt lat="44.05431" lon="5.65305">
        <ele>756.40002441406</ele>
        <time>2021-09-04T08:33:37Z</time>
      </trkpt>
      <trkpt lat="44.05413" lon="5.65277">
        <ele>755</ele>
        <time>2021-09-04T08:33:40Z</time>
      </trkpt>
      <trkpt lat="44.05387" lon="5.65244">
        <ele>754</ele>
        <time>2021-09-04T08:33:44Z</time>
      </trkpt>
      <trkpt lat="44.05374" lon="5.6523">
        <ele>753.59997558594</ele>
        <time>2021-09-04T08:33:46Z</time>
      </trkpt>
      <trkpt lat="44.05331" lon="5.65186">
        <ele>753</ele>
        <time>2021-09-04T08:33:53Z</time>
      </trkpt>
      <trkpt lat="44.0532" lon="5.65175">
        <ele>752.79998779297</ele>
        <time>2021-09-04T08:33:55Z</time>
      </trkpt>
      <trkpt lat="44.05287" lon="5.65143">
        <ele>752.59997558594</ele>
        <time>2021-09-04T08:34:01Z</time>
      </trkpt>
      <trkpt lat="44.05238" lon="5.65095">
        <ele>752.40002441406</ele>
        <time>2021-09-04T08:34:10Z</time>
      </trkpt>
      <trkpt lat="44.05233" lon="5.65089">
        <ele>752.20001220703</ele>
        <time>2021-09-04T08:34:11Z</time>
      </trkpt>
      <trkpt lat="44.05215" lon="5.65071">
        <ele>751.79998779297</ele>
        <time>2021-09-04T08:34:14Z</time>
      </trkpt>
      <trkpt lat="44.05182" lon="5.65039">
        <ele>750.79998779297</ele>
        <time>2021-09-04T08:34:19Z</time>
      </trkpt>
      <trkpt lat="44.05161" lon="5.65019">
        <ele>749.59997558594</ele>
        <time>2021-09-04T08:34:22Z</time>
      </trkpt>
      <trkpt lat="44.05141" lon="5.65">
        <ele>748.40002441406</ele>
        <time>2021-09-04T08:34:25Z</time>
      </trkpt>
      <trkpt lat="44.05123" lon="5.64981">
        <ele>747.79998779297</ele>
        <time>2021-09-04T08:34:28Z</time>
      </trkpt>
      <trkpt lat="44.05093" lon="5.64948">
        <ele>747.59997558594</ele>
        <time>2021-09-04T08:34:34Z</time>
      </trkpt>
      <trkpt lat="44.05065" lon="5.64903">
        <ele>748.20001220703</ele>
        <time>2021-09-04T08:34:42Z</time>
      </trkpt>
      <trkpt lat="44.05047" lon="5.64875">
        <ele>748.20001220703</ele>
        <time>2021-09-04T08:34:47Z</time>
      </trkpt>
      <trkpt lat="44.05037" lon="5.64857">
        <ele>748.20001220703</ele>
        <time>2021-09-04T08:34:50Z</time>
      </trkpt>
      <trkpt lat="44.05009" lon="5.64812">
        <ele>748.20001220703</ele>
        <time>2021-09-04T08:34:58Z</time>
      </trkpt>
      <trkpt lat="44.0498" lon="5.64769">
        <ele>748.20001220703</ele>
        <time>2021-09-04T08:35:06Z</time>
      </trkpt>
      <trkpt lat="44.04947" lon="5.64725">
        <ele>748.40002441406</ele>
        <time>2021-09-04T08:35:15Z</time>
      </trkpt>
      <trkpt lat="44.04915" lon="5.64685">
        <ele>748.79998779297</ele>
        <time>2021-09-04T08:35:24Z</time>
      </trkpt>
      <trkpt lat="44.04887" lon="5.64655">
        <ele>749.20001220703</ele>
        <time>2021-09-04T08:35:32Z</time>
      </trkpt>
      <trkpt lat="44.04883" lon="5.64651">
        <ele>749.20001220703</ele>
        <time>2021-09-04T08:35:33Z</time>
      </trkpt>
      <trkpt lat="44.0488" lon="5.64647">
        <ele>749.40002441406</ele>
        <time>2021-09-04T08:35:34Z</time>
      </trkpt>
      <trkpt lat="44.04866" lon="5.64633">
        <ele>749.59997558594</ele>
        <time>2021-09-04T08:35:38Z</time>
      </trkpt>
      <trkpt lat="44.04835" lon="5.64602">
        <ele>750</ele>
        <time>2021-09-04T08:35:47Z</time>
      </trkpt>
      <trkpt lat="44.04812" lon="5.6458">
        <ele>750.40002441406</ele>
        <time>2021-09-04T08:35:54Z</time>
      </trkpt>
      <trkpt lat="44.04809" lon="5.64577">
        <ele>750.40002441406</ele>
        <time>2021-09-04T08:35:55Z</time>
      </trkpt>
      <trkpt lat="44.04784" lon="5.64555">
        <ele>750.79998779297</ele>
        <time>2021-09-04T08:36:02Z</time>
      </trkpt>
      <trkpt lat="44.04752" lon="5.64527">
        <ele>751</ele>
        <time>2021-09-04T08:36:11Z</time>
      </trkpt>
      <trkpt lat="44.04716" lon="5.64493">
        <ele>751.40002441406</ele>
        <time>2021-09-04T08:36:21Z</time>
      </trkpt>
      <trkpt lat="44.04674" lon="5.6445">
        <ele>751.59997558594</ele>
        <time>2021-09-04T08:36:33Z</time>
      </trkpt>
      <trkpt lat="44.04649" lon="5.64422">
        <ele>752</ele>
        <time>2021-09-04T08:36:41Z</time>
      </trkpt>
      <trkpt lat="44.04635" lon="5.64406">
        <ele>752.40002441406</ele>
        <time>2021-09-04T08:36:46Z</time>
      </trkpt>
      <trkpt lat="44.04624" lon="5.64394">
        <ele>753</ele>
        <time>2021-09-04T08:36:50Z</time>
      </trkpt>
      <trkpt lat="44.04616" lon="5.64384">
        <ele>753.59997558594</ele>
        <time>2021-09-04T08:36:53Z</time>
      </trkpt>
      <trkpt lat="44.04602" lon="5.64367">
        <ele>754.20001220703</ele>
        <time>2021-09-04T08:36:58Z</time>
      </trkpt>
      <trkpt lat="44.04588" lon="5.6435">
        <ele>754.59997558594</ele>
        <time>2021-09-04T08:37:03Z</time>
      </trkpt>
      <trkpt lat="44.04577" lon="5.64337">
        <ele>754.79998779297</ele>
        <time>2021-09-04T08:37:07Z</time>
      </trkpt>
      <trkpt lat="44.04564" lon="5.64321">
        <ele>755.59997558594</ele>
        <time>2021-09-04T08:37:12Z</time>
      </trkpt>
      <trkpt lat="44.04554" lon="5.64309">
        <ele>755.79998779297</ele>
        <time>2021-09-04T08:37:16Z</time>
      </trkpt>
      <trkpt lat="44.04531" lon="5.64281">
        <ele>756.40002441406</ele>
        <time>2021-09-04T08:37:25Z</time>
      </trkpt>
      <trkpt lat="44.04515" lon="5.64262">
        <ele>756.59997558594</ele>
        <time>2021-09-04T08:37:31Z</time>
      </trkpt>
      <trkpt lat="44.04507" lon="5.64251">
        <ele>756.79998779297</ele>
        <time>2021-09-04T08:37:34Z</time>
      </trkpt>
      <trkpt lat="44.04486" lon="5.64225">
        <ele>757.20001220703</ele>
        <time>2021-09-04T08:37:42Z</time>
      </trkpt>
      <trkpt lat="44.04479" lon="5.64216">
        <ele>757.59997558594</ele>
        <time>2021-09-04T08:37:46Z</time>
      </trkpt>
      <trkpt lat="44.04476" lon="5.64213">
        <ele>757.59997558594</ele>
        <time>2021-09-04T08:37:48Z</time>
      </trkpt>
      <trkpt lat="44.04465" lon="5.642">
        <ele>757.79998779297</ele>
        <time>2021-09-04T08:37:55Z</time>
      </trkpt>
      <trkpt lat="44.04463" lon="5.64197">
        <ele>758</ele>
        <time>2021-09-04T08:37:57Z</time>
      </trkpt>
      <trkpt lat="44.04464" lon="5.64191">
        <ele>758.20001220703</ele>
        <time>2021-09-04T08:38:00Z</time>
      </trkpt>
      <trkpt lat="44.04467" lon="5.64183">
        <ele>758.40002441406</ele>
        <time>2021-09-04T08:38:05Z</time>
      </trkpt>
      <trkpt lat="44.04466" lon="5.6418">
        <ele>758.59997558594</ele>
        <time>2021-09-04T08:38:06Z</time>
      </trkpt>
      <trkpt lat="44.04466" lon="5.64178">
        <ele>758.59997558594</ele>
        <time>2021-09-04T08:38:07Z</time>
      </trkpt>
      <trkpt lat="44.04466" lon="5.64161">
        <ele>759.20001220703</ele>
        <time>2021-09-04T08:38:13Z</time>
      </trkpt>
      <trkpt lat="44.04464" lon="5.64155">
        <ele>760</ele>
        <time>2021-09-04T08:38:42Z</time>
      </trkpt>
      <trkpt lat="44.04463" lon="5.64154">
        <ele>760</ele>
        <time>2021-09-04T08:38:43Z</time>
      </trkpt>
      <trkpt lat="44.04457" lon="5.64135">
        <ele>760.20001220703</ele>
        <time>2021-09-04T08:38:49Z</time>
      </trkpt>
      <trkpt lat="44.04452" lon="5.64115">
        <ele>760.79998779297</ele>
        <time>2021-09-04T08:38:55Z</time>
      </trkpt>
      <trkpt lat="44.04452" lon="5.64112">
        <ele>761</ele>
        <time>2021-09-04T08:38:56Z</time>
      </trkpt>
      <trkpt lat="44.04448" lon="5.64088">
        <ele>762</ele>
        <time>2021-09-04T08:39:03Z</time>
      </trkpt>
      <trkpt lat="44.04447" lon="5.64058">
        <ele>762.79998779297</ele>
        <time>2021-09-04T08:39:11Z</time>
      </trkpt>
      <trkpt lat="44.04447" lon="5.64051">
        <ele>763.20001220703</ele>
        <time>2021-09-04T08:39:13Z</time>
      </trkpt>
      <trkpt lat="44.04449" lon="5.64032">
        <ele>764</ele>
        <time>2021-09-04T08:39:19Z</time>
      </trkpt>
      <trkpt lat="44.04449" lon="5.64025">
        <ele>764.40002441406</ele>
        <time>2021-09-04T08:39:21Z</time>
      </trkpt>
      <trkpt lat="44.0445" lon="5.64008">
        <ele>765.20001220703</ele>
        <time>2021-09-04T08:39:26Z</time>
      </trkpt>
      <trkpt lat="44.04451" lon="5.64002">
        <ele>765.40002441406</ele>
        <time>2021-09-04T08:39:28Z</time>
      </trkpt>
      <trkpt lat="44.04452" lon="5.63978">
        <ele>766.20001220703</ele>
        <time>2021-09-04T08:39:35Z</time>
      </trkpt>
      <trkpt lat="44.04452" lon="5.63971">
        <ele>766.59997558594</ele>
        <time>2021-09-04T08:39:37Z</time>
      </trkpt>
      <trkpt lat="44.04452" lon="5.63951">
        <ele>767.40002441406</ele>
        <time>2021-09-04T08:39:43Z</time>
      </trkpt>
      <trkpt lat="44.04453" lon="5.63944">
        <ele>767.59997558594</ele>
        <time>2021-09-04T08:39:45Z</time>
      </trkpt>
      <trkpt lat="44.04451" lon="5.63926">
        <ele>768.40002441406</ele>
        <time>2021-09-04T08:39:50Z</time>
      </trkpt>
      <trkpt lat="44.0445" lon="5.63915">
        <ele>768.79998779297</ele>
        <time>2021-09-04T08:39:53Z</time>
      </trkpt>
      <trkpt lat="44.04447" lon="5.63894">
        <ele>769.59997558594</ele>
        <time>2021-09-04T08:39:59Z</time>
      </trkpt>
      <trkpt lat="44.04447" lon="5.63891">
        <ele>769.79998779297</ele>
        <time>2021-09-04T08:40:00Z</time>
      </trkpt>
      <trkpt lat="44.04445" lon="5.6387">
        <ele>770.59997558594</ele>
        <time>2021-09-04T08:40:06Z</time>
      </trkpt>
      <trkpt lat="44.04443" lon="5.63863">
        <ele>771</ele>
        <time>2021-09-04T08:40:08Z</time>
      </trkpt>
      <trkpt lat="44.04442" lon="5.63845">
        <ele>771.40002441406</ele>
        <time>2021-09-04T08:40:13Z</time>
      </trkpt>
      <trkpt lat="44.0444" lon="5.63828">
        <ele>772</ele>
        <time>2021-09-04T08:40:18Z</time>
      </trkpt>
      <trkpt lat="44.04438" lon="5.63818">
        <ele>772.40002441406</ele>
        <time>2021-09-04T08:40:21Z</time>
      </trkpt>
      <trkpt lat="44.04435" lon="5.63802">
        <ele>773.20001220703</ele>
        <time>2021-09-04T08:40:26Z</time>
      </trkpt>
      <trkpt lat="44.04431" lon="5.63786">
        <ele>773.59997558594</ele>
        <time>2021-09-04T08:40:31Z</time>
      </trkpt>
      <trkpt lat="44.04428" lon="5.63767">
        <ele>774.20001220703</ele>
        <time>2021-09-04T08:40:37Z</time>
      </trkpt>
      <trkpt lat="44.04422" lon="5.63745">
        <ele>775.20001220703</ele>
        <time>2021-09-04T08:40:44Z</time>
      </trkpt>
      <trkpt lat="44.04421" lon="5.63741">
        <ele>775.40002441406</ele>
        <time>2021-09-04T08:40:45Z</time>
      </trkpt>
      <trkpt lat="44.04418" lon="5.63721">
        <ele>776.20001220703</ele>
        <time>2021-09-04T08:40:51Z</time>
      </trkpt>
      <trkpt lat="44.04418" lon="5.63717">
        <ele>776.40002441406</ele>
        <time>2021-09-04T08:40:52Z</time>
      </trkpt>
      <trkpt lat="44.04417" lon="5.63704">
        <ele>776.79998779297</ele>
        <time>2021-09-04T08:40:56Z</time>
      </trkpt>
      <trkpt lat="44.04416" lon="5.63679">
        <ele>777.40002441406</ele>
        <time>2021-09-04T08:41:03Z</time>
      </trkpt>
      <trkpt lat="44.04415" lon="5.63665">
        <ele>778</ele>
        <time>2021-09-04T08:41:07Z</time>
      </trkpt>
      <trkpt lat="44.04414" lon="5.63651">
        <ele>778.59997558594</ele>
        <time>2021-09-04T08:41:11Z</time>
      </trkpt>
      <trkpt lat="44.04411" lon="5.63641">
        <ele>779.20001220703</ele>
        <time>2021-09-04T08:41:14Z</time>
      </trkpt>
      <trkpt lat="44.04407" lon="5.63632">
        <ele>779.59997558594</ele>
        <time>2021-09-04T08:41:17Z</time>
      </trkpt>
      <trkpt lat="44.04398" lon="5.63614">
        <ele>780.20001220703</ele>
        <time>2021-09-04T08:41:23Z</time>
      </trkpt>
      <trkpt lat="44.04391" lon="5.63602">
        <ele>780.59997558594</ele>
        <time>2021-09-04T08:41:27Z</time>
      </trkpt>
      <trkpt lat="44.04383" lon="5.63585">
        <ele>781.40002441406</ele>
        <time>2021-09-04T08:41:33Z</time>
      </trkpt>
      <trkpt lat="44.04379" lon="5.63576">
        <ele>781.59997558594</ele>
        <time>2021-09-04T08:41:36Z</time>
      </trkpt>
      <trkpt lat="44.04374" lon="5.63557">
        <ele>782.59997558594</ele>
        <time>2021-09-04T08:41:42Z</time>
      </trkpt>
      <trkpt lat="44.04373" lon="5.63535">
        <ele>783.40002441406</ele>
        <time>2021-09-04T08:41:49Z</time>
      </trkpt>
      <trkpt lat="44.04373" lon="5.63525">
        <ele>783.79998779297</ele>
        <time>2021-09-04T08:41:52Z</time>
      </trkpt>
      <trkpt lat="44.04373" lon="5.63512">
        <ele>784.20001220703</ele>
        <time>2021-09-04T08:41:56Z</time>
      </trkpt>
      <trkpt lat="44.04375" lon="5.63502">
        <ele>784.79998779297</ele>
        <time>2021-09-04T08:41:59Z</time>
      </trkpt>
      <trkpt lat="44.04379" lon="5.63485">
        <ele>785.59997558594</ele>
        <time>2021-09-04T08:42:04Z</time>
      </trkpt>
      <trkpt lat="44.04382" lon="5.63479">
        <ele>785.79998779297</ele>
        <time>2021-09-04T08:42:06Z</time>
      </trkpt>
      <trkpt lat="44.04391" lon="5.63457">
        <ele>786.59997558594</ele>
        <time>2021-09-04T08:42:13Z</time>
      </trkpt>
      <trkpt lat="44.04393" lon="5.63451">
        <ele>786.79998779297</ele>
        <time>2021-09-04T08:42:15Z</time>
      </trkpt>
      <trkpt lat="44.04399" lon="5.63436">
        <ele>787.40002441406</ele>
        <time>2021-09-04T08:42:20Z</time>
      </trkpt>
      <trkpt lat="44.04402" lon="5.63427">
        <ele>788</ele>
        <time>2021-09-04T08:42:23Z</time>
      </trkpt>
      <trkpt lat="44.04404" lon="5.63417">
        <ele>788.40002441406</ele>
        <time>2021-09-04T08:42:26Z</time>
      </trkpt>
      <trkpt lat="44.04405" lon="5.63403">
        <ele>789</ele>
        <time>2021-09-04T08:42:30Z</time>
      </trkpt>
      <trkpt lat="44.04405" lon="5.63392">
        <ele>789.40002441406</ele>
        <time>2021-09-04T08:42:33Z</time>
      </trkpt>
      <trkpt lat="44.04399" lon="5.63371">
        <ele>790</ele>
        <time>2021-09-04T08:42:39Z</time>
      </trkpt>
      <trkpt lat="44.04398" lon="5.63368">
        <ele>790.20001220703</ele>
        <time>2021-09-04T08:42:40Z</time>
      </trkpt>
      <trkpt lat="44.04383" lon="5.63345">
        <ele>791</ele>
        <time>2021-09-04T08:42:48Z</time>
      </trkpt>
      <trkpt lat="44.04366" lon="5.63327">
        <ele>792</ele>
        <time>2021-09-04T08:42:56Z</time>
      </trkpt>
      <trkpt lat="44.04364" lon="5.63324">
        <ele>792.20001220703</ele>
        <time>2021-09-04T08:42:57Z</time>
      </trkpt>
      <trkpt lat="44.04351" lon="5.63309">
        <ele>792.79998779297</ele>
        <time>2021-09-04T08:43:03Z</time>
      </trkpt>
      <trkpt lat="44.04343" lon="5.63299">
        <ele>793.20001220703</ele>
        <time>2021-09-04T08:43:07Z</time>
      </trkpt>
      <trkpt lat="44.04333" lon="5.63285">
        <ele>793.79998779297</ele>
        <time>2021-09-04T08:43:12Z</time>
      </trkpt>
      <trkpt lat="44.04326" lon="5.63277">
        <ele>794.20001220703</ele>
        <time>2021-09-04T08:43:15Z</time>
      </trkpt>
      <trkpt lat="44.04312" lon="5.63259">
        <ele>794.79998779297</ele>
        <time>2021-09-04T08:43:21Z</time>
      </trkpt>
      <trkpt lat="44.04302" lon="5.63244">
        <ele>795.20001220703</ele>
        <time>2021-09-04T08:43:26Z</time>
      </trkpt>
      <trkpt lat="44.04296" lon="5.63236">
        <ele>795.59997558594</ele>
        <time>2021-09-04T08:43:29Z</time>
      </trkpt>
      <trkpt lat="44.04278" lon="5.6321">
        <ele>796.40002441406</ele>
        <time>2021-09-04T08:43:37Z</time>
      </trkpt>
      <trkpt lat="44.04257" lon="5.63182">
        <ele>797</ele>
        <time>2021-09-04T08:43:46Z</time>
      </trkpt>
      <trkpt lat="44.04249" lon="5.63168">
        <ele>797.40002441406</ele>
        <time>2021-09-04T08:43:50Z</time>
      </trkpt>
      <trkpt lat="44.04238" lon="5.6315">
        <ele>797.79998779297</ele>
        <time>2021-09-04T08:43:55Z</time>
      </trkpt>
      <trkpt lat="44.04225" lon="5.63128">
        <ele>798.40002441406</ele>
        <time>2021-09-04T08:44:01Z</time>
      </trkpt>
      <trkpt lat="44.04221" lon="5.63121">
        <ele>798.40002441406</ele>
        <time>2021-09-04T08:44:03Z</time>
      </trkpt>
      <trkpt lat="44.04199" lon="5.63087">
        <ele>799.20001220703</ele>
        <time>2021-09-04T08:44:13Z</time>
      </trkpt>
      <trkpt lat="44.04193" lon="5.63081">
        <ele>799.40002441406</ele>
        <time>2021-09-04T08:44:15Z</time>
      </trkpt>
      <trkpt lat="44.04179" lon="5.63068">
        <ele>800</ele>
        <time>2021-09-04T08:44:20Z</time>
      </trkpt>
      <trkpt lat="44.04157" lon="5.63051">
        <ele>800.40002441406</ele>
        <time>2021-09-04T08:44:27Z</time>
      </trkpt>
      <trkpt lat="44.04154" lon="5.63049">
        <ele>800.59997558594</ele>
        <time>2021-09-04T08:44:28Z</time>
      </trkpt>
      <trkpt lat="44.04131" lon="5.63032">
        <ele>801.40002441406</ele>
        <time>2021-09-04T08:44:35Z</time>
      </trkpt>
      <trkpt lat="44.04127" lon="5.6303">
        <ele>801.59997558594</ele>
        <time>2021-09-04T08:44:36Z</time>
      </trkpt>
      <trkpt lat="44.04105" lon="5.63014">
        <ele>802.20001220703</ele>
        <time>2021-09-04T08:44:43Z</time>
      </trkpt>
      <trkpt lat="44.04099" lon="5.6301">
        <ele>802.59997558594</ele>
        <time>2021-09-04T08:44:45Z</time>
      </trkpt>
      <trkpt lat="44.04081" lon="5.62997">
        <ele>803.40002441406</ele>
        <time>2021-09-04T08:44:51Z</time>
      </trkpt>
      <trkpt lat="44.04075" lon="5.62994">
        <ele>803.59997558594</ele>
        <time>2021-09-04T08:44:53Z</time>
      </trkpt>
      <trkpt lat="44.04064" lon="5.62984">
        <ele>804</ele>
        <time>2021-09-04T08:44:57Z</time>
      </trkpt>
      <trkpt lat="44.04047" lon="5.62969">
        <ele>804.79998779297</ele>
        <time>2021-09-04T08:45:03Z</time>
      </trkpt>
      <trkpt lat="44.04026" lon="5.62948">
        <ele>805.79998779297</ele>
        <time>2021-09-04T08:45:11Z</time>
      </trkpt>
      <trkpt lat="44.04024" lon="5.62946">
        <ele>805.79998779297</ele>
        <time>2021-09-04T08:45:12Z</time>
      </trkpt>
      <trkpt lat="44.04002" lon="5.62927">
        <ele>806.40002441406</ele>
        <time>2021-09-04T08:45:20Z</time>
      </trkpt>
      <trkpt lat="44.03989" lon="5.62915">
        <ele>806.79998779297</ele>
        <time>2021-09-04T08:45:25Z</time>
      </trkpt>
      <trkpt lat="44.03984" lon="5.62909">
        <ele>807</ele>
        <time>2021-09-04T08:45:27Z</time>
      </trkpt>
      <trkpt lat="44.03965" lon="5.62889">
        <ele>807.79998779297</ele>
        <time>2021-09-04T08:45:35Z</time>
      </trkpt>
      <trkpt lat="44.03963" lon="5.62887">
        <ele>807.79998779297</ele>
        <time>2021-09-04T08:45:36Z</time>
      </trkpt>
      <trkpt lat="44.0396" lon="5.62886">
        <ele>808</ele>
        <time>2021-09-04T08:45:37Z</time>
      </trkpt>
      <trkpt lat="44.03955" lon="5.62887">
        <ele>808.20001220703</ele>
        <time>2021-09-04T08:45:39Z</time>
      </trkpt>
      <trkpt lat="44.03937" lon="5.62889">
        <ele>809</ele>
        <time>2021-09-04T08:45:46Z</time>
      </trkpt>
      <trkpt lat="44.03932" lon="5.62893">
        <ele>809.20001220703</ele>
        <time>2021-09-04T08:45:48Z</time>
      </trkpt>
      <trkpt lat="44.03909" lon="5.62898">
        <ele>809.79998779297</ele>
        <time>2021-09-04T08:45:55Z</time>
      </trkpt>
      <trkpt lat="44.03903" lon="5.62898">
        <ele>810</ele>
        <time>2021-09-04T08:45:57Z</time>
      </trkpt>
      <trkpt lat="44.03892" lon="5.62893">
        <ele>810.59997558594</ele>
        <time>2021-09-04T08:46:01Z</time>
      </trkpt>
      <trkpt lat="44.03883" lon="5.62883">
        <ele>811.20001220703</ele>
        <time>2021-09-04T08:46:05Z</time>
      </trkpt>
      <trkpt lat="44.03881" lon="5.6288">
        <ele>811.40002441406</ele>
        <time>2021-09-04T08:46:06Z</time>
      </trkpt>
      <trkpt lat="44.0387" lon="5.62868">
        <ele>811.79998779297</ele>
        <time>2021-09-04T08:46:11Z</time>
      </trkpt>
      <trkpt lat="44.03856" lon="5.62854">
        <ele>811.79998779297</ele>
        <time>2021-09-04T08:46:18Z</time>
      </trkpt>
      <trkpt lat="44.03846" lon="5.62843">
        <ele>811.79998779297</ele>
        <time>2021-09-04T08:46:23Z</time>
      </trkpt>
      <trkpt lat="44.03841" lon="5.62839">
        <ele>811.79998779297</ele>
        <time>2021-09-04T08:46:27Z</time>
      </trkpt>
      <trkpt lat="44.03839" lon="5.6284">
        <ele>811.59997558594</ele>
        <time>2021-09-04T08:46:28Z</time>
      </trkpt>
      <trkpt lat="44.03839" lon="5.62848">
        <ele>811.40002441406</ele>
        <time>2021-09-04T08:46:32Z</time>
      </trkpt>
      <trkpt lat="44.0384" lon="5.62841">
        <ele>811.40002441406</ele>
        <time>2021-09-04T08:46:35Z</time>
      </trkpt>
      <trkpt lat="44.0383" lon="5.62828">
        <ele>811.40002441406</ele>
        <time>2021-09-04T08:46:39Z</time>
      </trkpt>
      <trkpt lat="44.03808" lon="5.62803">
        <ele>811.40002441406</ele>
        <time>2021-09-04T08:46:46Z</time>
      </trkpt>
      <trkpt lat="44.03798" lon="5.62793">
        <ele>811.59997558594</ele>
        <time>2021-09-04T08:46:49Z</time>
      </trkpt>
      <trkpt lat="44.03788" lon="5.62783">
        <ele>811.59997558594</ele>
        <time>2021-09-04T08:46:52Z</time>
      </trkpt>
      <trkpt lat="44.03763" lon="5.62763">
        <ele>811.59997558594</ele>
        <time>2021-09-04T08:46:59Z</time>
      </trkpt>
      <trkpt lat="44.03731" lon="5.62748">
        <ele>811.59997558594</ele>
        <time>2021-09-04T08:47:07Z</time>
      </trkpt>
      <trkpt lat="44.03707" lon="5.62736">
        <ele>811.40002441406</ele>
        <time>2021-09-04T08:47:14Z</time>
      </trkpt>
      <trkpt lat="44.03688" lon="5.62726">
        <ele>811.40002441406</ele>
        <time>2021-09-04T08:47:20Z</time>
      </trkpt>
      <trkpt lat="44.03682" lon="5.62719">
        <ele>811.59997558594</ele>
        <time>2021-09-04T08:47:22Z</time>
      </trkpt>
      <trkpt lat="44.03674" lon="5.62708">
        <ele>811.59997558594</ele>
        <time>2021-09-04T08:47:25Z</time>
      </trkpt>
      <trkpt lat="44.03671" lon="5.62685">
        <ele>811.59997558594</ele>
        <time>2021-09-04T08:47:30Z</time>
      </trkpt>
      <trkpt lat="44.03672" lon="5.6268">
        <ele>811.40002441406</ele>
        <time>2021-09-04T08:47:31Z</time>
      </trkpt>
      <trkpt lat="44.03676" lon="5.6267">
        <ele>811.40002441406</ele>
        <time>2021-09-04T08:47:33Z</time>
      </trkpt>
      <trkpt lat="44.03681" lon="5.6266">
        <ele>811.20001220703</ele>
        <time>2021-09-04T08:47:35Z</time>
      </trkpt>
      <trkpt lat="44.03684" lon="5.62655">
        <ele>811.20001220703</ele>
        <time>2021-09-04T08:47:36Z</time>
      </trkpt>
      <trkpt lat="44.03699" lon="5.62636">
        <ele>811.40002441406</ele>
        <time>2021-09-04T08:47:40Z</time>
      </trkpt>
      <trkpt lat="44.03714" lon="5.6262">
        <ele>811.59997558594</ele>
        <time>2021-09-04T08:47:44Z</time>
      </trkpt>
      <trkpt lat="44.03726" lon="5.62609">
        <ele>811.79998779297</ele>
        <time>2021-09-04T08:47:47Z</time>
      </trkpt>
      <trkpt lat="44.03754" lon="5.62586">
        <ele>812.20001220703</ele>
        <time>2021-09-04T08:47:54Z</time>
      </trkpt>
      <trkpt lat="44.03766" lon="5.62576">
        <ele>812.40002441406</ele>
        <time>2021-09-04T08:47:57Z</time>
      </trkpt>
      <trkpt lat="44.03792" lon="5.6255">
        <ele>813</ele>
        <time>2021-09-04T08:48:04Z</time>
      </trkpt>
      <trkpt lat="44.03796" lon="5.62546">
        <ele>813.20001220703</ele>
        <time>2021-09-04T08:48:05Z</time>
      </trkpt>
      <trkpt lat="44.03807" lon="5.62534">
        <ele>813.40002441406</ele>
        <time>2021-09-04T08:48:08Z</time>
      </trkpt>
      <trkpt lat="44.03821" lon="5.62518">
        <ele>813.59997558594</ele>
        <time>2021-09-04T08:48:12Z</time>
      </trkpt>
      <trkpt lat="44.03835" lon="5.62502">
        <ele>814</ele>
        <time>2021-09-04T08:48:16Z</time>
      </trkpt>
      <trkpt lat="44.03845" lon="5.6249">
        <ele>814.40002441406</ele>
        <time>2021-09-04T08:48:19Z</time>
      </trkpt>
      <trkpt lat="44.03851" lon="5.62481">
        <ele>814.40002441406</ele>
        <time>2021-09-04T08:48:21Z</time>
      </trkpt>
      <trkpt lat="44.03861" lon="5.62466">
        <ele>814.79998779297</ele>
        <time>2021-09-04T08:48:24Z</time>
      </trkpt>
      <trkpt lat="44.03864" lon="5.62462">
        <ele>815</ele>
        <time>2021-09-04T08:48:25Z</time>
      </trkpt>
      <trkpt lat="44.03883" lon="5.62435">
        <ele>815.40002441406</ele>
        <time>2021-09-04T08:48:31Z</time>
      </trkpt>
      <trkpt lat="44.03887" lon="5.62431">
        <ele>815.59997558594</ele>
        <time>2021-09-04T08:48:32Z</time>
      </trkpt>
      <trkpt lat="44.03909" lon="5.62396">
        <ele>816</ele>
        <time>2021-09-04T08:48:39Z</time>
      </trkpt>
      <trkpt lat="44.03944" lon="5.62347">
        <ele>816.59997558594</ele>
        <time>2021-09-04T08:48:49Z</time>
      </trkpt>
      <trkpt lat="44.03982" lon="5.62303">
        <ele>817.20001220703</ele>
        <time>2021-09-04T08:48:59Z</time>
      </trkpt>
      <trkpt lat="44.03989" lon="5.62295">
        <ele>817.40002441406</ele>
        <time>2021-09-04T08:49:01Z</time>
      </trkpt>
      <trkpt lat="44.03993" lon="5.6229">
        <ele>817.59997558594</ele>
        <time>2021-09-04T08:49:02Z</time>
      </trkpt>
      <trkpt lat="44.04002" lon="5.62276">
        <ele>817.79998779297</ele>
        <time>2021-09-04T08:49:05Z</time>
      </trkpt>
      <trkpt lat="44.04028" lon="5.62231">
        <ele>818.59997558594</ele>
        <time>2021-09-04T08:49:14Z</time>
      </trkpt>
      <trkpt lat="44.0403" lon="5.62226">
        <ele>818.59997558594</ele>
        <time>2021-09-04T08:49:15Z</time>
      </trkpt>
      <trkpt lat="44.04045" lon="5.62188">
        <ele>819.40002441406</ele>
        <time>2021-09-04T08:49:22Z</time>
      </trkpt>
      <trkpt lat="44.04053" lon="5.62166">
        <ele>819.59997558594</ele>
        <time>2021-09-04T08:49:26Z</time>
      </trkpt>
      <trkpt lat="44.04064" lon="5.62134">
        <ele>820.20001220703</ele>
        <time>2021-09-04T08:49:32Z</time>
      </trkpt>
      <trkpt lat="44.04075" lon="5.62102">
        <ele>820.79998779297</ele>
        <time>2021-09-04T08:49:38Z</time>
      </trkpt>
      <trkpt lat="44.04082" lon="5.62083">
        <ele>821.40002441406</ele>
        <time>2021-09-04T08:49:42Z</time>
      </trkpt>
      <trkpt lat="44.04091" lon="5.62059">
        <ele>821.79998779297</ele>
        <time>2021-09-04T08:49:47Z</time>
      </trkpt>
      <trkpt lat="44.04098" lon="5.62035">
        <ele>822.59997558594</ele>
        <time>2021-09-04T08:49:52Z</time>
      </trkpt>
      <trkpt lat="44.04103" lon="5.6202">
        <ele>823</ele>
        <time>2021-09-04T08:49:55Z</time>
      </trkpt>
      <trkpt lat="44.04109" lon="5.61997">
        <ele>823.59997558594</ele>
        <time>2021-09-04T08:50:00Z</time>
      </trkpt>
      <trkpt lat="44.04111" lon="5.61988">
        <ele>824</ele>
        <time>2021-09-04T08:50:02Z</time>
      </trkpt>
      <trkpt lat="44.04117" lon="5.61964">
        <ele>824.59997558594</ele>
        <time>2021-09-04T08:50:07Z</time>
      </trkpt>
      <trkpt lat="44.0412" lon="5.61949">
        <ele>825</ele>
        <time>2021-09-04T08:50:10Z</time>
      </trkpt>
      <trkpt lat="44.04128" lon="5.61912">
        <ele>826</ele>
        <time>2021-09-04T08:50:18Z</time>
      </trkpt>
      <trkpt lat="44.04129" lon="5.61908">
        <ele>826.20001220703</ele>
        <time>2021-09-04T08:50:19Z</time>
      </trkpt>
      <trkpt lat="44.04135" lon="5.61875">
        <ele>827.20001220703</ele>
        <time>2021-09-04T08:50:26Z</time>
      </trkpt>
      <trkpt lat="44.04138" lon="5.61862">
        <ele>827.40002441406</ele>
        <time>2021-09-04T08:50:29Z</time>
      </trkpt>
      <trkpt lat="44.04143" lon="5.61839">
        <ele>828.20001220703</ele>
        <time>2021-09-04T08:50:34Z</time>
      </trkpt>
      <trkpt lat="44.04147" lon="5.61825">
        <ele>828.59997558594</ele>
        <time>2021-09-04T08:50:37Z</time>
      </trkpt>
      <trkpt lat="44.04154" lon="5.61797">
        <ele>829.20001220703</ele>
        <time>2021-09-04T08:50:43Z</time>
      </trkpt>
      <trkpt lat="44.04154" lon="5.61781">
        <ele>829.59997558594</ele>
        <time>2021-09-04T08:50:46Z</time>
      </trkpt>
      <trkpt lat="44.04152" lon="5.61759">
        <ele>829.59997558594</ele>
        <time>2021-09-04T08:50:50Z</time>
      </trkpt>
      <trkpt lat="44.04152" lon="5.61754">
        <ele>829.59997558594</ele>
        <time>2021-09-04T08:50:51Z</time>
      </trkpt>
      <trkpt lat="44.04151" lon="5.61742">
        <ele>829.79998779297</ele>
        <time>2021-09-04T08:50:53Z</time>
      </trkpt>
      <trkpt lat="44.04153" lon="5.61719">
        <ele>830</ele>
        <time>2021-09-04T08:50:57Z</time>
      </trkpt>
      <trkpt lat="44.04155" lon="5.61714">
        <ele>830</ele>
        <time>2021-09-04T08:50:58Z</time>
      </trkpt>
      <trkpt lat="44.04163" lon="5.61699">
        <ele>830.20001220703</ele>
        <time>2021-09-04T08:51:02Z</time>
      </trkpt>
      <trkpt lat="44.04168" lon="5.61694">
        <ele>830.40002441406</ele>
        <time>2021-09-04T08:51:04Z</time>
      </trkpt>
      <trkpt lat="44.04174" lon="5.61693">
        <ele>830.79998779297</ele>
        <time>2021-09-04T08:51:06Z</time>
      </trkpt>
      <trkpt lat="44.04188" lon="5.61693">
        <ele>831.40002441406</ele>
        <time>2021-09-04T08:51:10Z</time>
      </trkpt>
      <trkpt lat="44.04196" lon="5.61692">
        <ele>831.79998779297</ele>
        <time>2021-09-04T08:51:13Z</time>
      </trkpt>
      <trkpt lat="44.04213" lon="5.61691">
        <ele>832.59997558594</ele>
        <time>2021-09-04T08:51:18Z</time>
      </trkpt>
      <trkpt lat="44.0422" lon="5.6169">
        <ele>832.79998779297</ele>
        <time>2021-09-04T08:51:20Z</time>
      </trkpt>
      <trkpt lat="44.04235" lon="5.61694">
        <ele>833.59997558594</ele>
        <time>2021-09-04T08:51:25Z</time>
      </trkpt>
      <trkpt lat="44.04241" lon="5.61695">
        <ele>834</ele>
        <time>2021-09-04T08:51:27Z</time>
      </trkpt>
      <trkpt lat="44.04253" lon="5.61699">
        <ele>834.79998779297</ele>
        <time>2021-09-04T08:51:31Z</time>
      </trkpt>
      <trkpt lat="44.04259" lon="5.61701">
        <ele>835.20001220703</ele>
        <time>2021-09-04T08:51:33Z</time>
      </trkpt>
      <trkpt lat="44.04269" lon="5.61704">
        <ele>835.79998779297</ele>
        <time>2021-09-04T08:51:37Z</time>
      </trkpt>
      <trkpt lat="44.04277" lon="5.61706">
        <ele>836.20001220703</ele>
        <time>2021-09-04T08:51:40Z</time>
      </trkpt>
      <trkpt lat="44.04293" lon="5.61709">
        <ele>836.79998779297</ele>
        <time>2021-09-04T08:51:46Z</time>
      </trkpt>
      <trkpt lat="44.04298" lon="5.61712">
        <ele>837</ele>
        <time>2021-09-04T08:51:48Z</time>
      </trkpt>
      <trkpt lat="44.04314" lon="5.61718">
        <ele>838</ele>
        <time>2021-09-04T08:51:54Z</time>
      </trkpt>
      <trkpt lat="44.04317" lon="5.61719">
        <ele>838</ele>
        <time>2021-09-04T08:51:55Z</time>
      </trkpt>
      <trkpt lat="44.04334" lon="5.61723">
        <ele>839.20001220703</ele>
        <time>2021-09-04T08:52:02Z</time>
      </trkpt>
      <trkpt lat="44.04337" lon="5.61723">
        <ele>839.40002441406</ele>
        <time>2021-09-04T08:52:03Z</time>
      </trkpt>
      <trkpt lat="44.04353" lon="5.6173">
        <ele>841</ele>
        <time>2021-09-04T08:52:35Z</time>
      </trkpt>
      <trkpt lat="44.04357" lon="5.61732">
        <ele>841</ele>
        <time>2021-09-04T08:52:37Z</time>
      </trkpt>
      <trkpt lat="44.04369" lon="5.61737">
        <ele>841.40002441406</ele>
        <time>2021-09-04T08:52:43Z</time>
      </trkpt>
      <trkpt lat="44.04374" lon="5.61739">
        <ele>841.59997558594</ele>
        <time>2021-09-04T08:52:45Z</time>
      </trkpt>
      <trkpt lat="44.04387" lon="5.61745">
        <ele>842.40002441406</ele>
        <time>2021-09-04T08:52:50Z</time>
      </trkpt>
      <trkpt lat="44.04391" lon="5.61747">
        <ele>842.79998779297</ele>
        <time>2021-09-04T08:52:52Z</time>
      </trkpt>
      <trkpt lat="44.04403" lon="5.61755">
        <ele>843.59997558594</ele>
        <time>2021-09-04T08:52:57Z</time>
      </trkpt>
      <trkpt lat="44.04405" lon="5.61757">
        <ele>843.59997558594</ele>
        <time>2021-09-04T08:52:58Z</time>
      </trkpt>
      <trkpt lat="44.0442" lon="5.61766">
        <ele>844.59997558594</ele>
        <time>2021-09-04T08:53:04Z</time>
      </trkpt>
      <trkpt lat="44.04425" lon="5.61768">
        <ele>844.79998779297</ele>
        <time>2021-09-04T08:53:06Z</time>
      </trkpt>
      <trkpt lat="44.0444" lon="5.61776">
        <ele>845.59997558594</ele>
        <time>2021-09-04T08:53:12Z</time>
      </trkpt>
      <trkpt lat="44.04444" lon="5.61779">
        <ele>846</ele>
        <time>2021-09-04T08:53:14Z</time>
      </trkpt>
      <trkpt lat="44.04456" lon="5.61786">
        <ele>846.79998779297</ele>
        <time>2021-09-04T08:53:19Z</time>
      </trkpt>
      <trkpt lat="44.04463" lon="5.6179">
        <ele>847.20001220703</ele>
        <time>2021-09-04T08:53:22Z</time>
      </trkpt>
      <trkpt lat="44.04473" lon="5.61795">
        <ele>847.79998779297</ele>
        <time>2021-09-04T08:53:26Z</time>
      </trkpt>
      <trkpt lat="44.04487" lon="5.61802">
        <ele>848.59997558594</ele>
        <time>2021-09-04T08:53:32Z</time>
      </trkpt>
      <trkpt lat="44.04492" lon="5.61805">
        <ele>849</ele>
        <time>2021-09-04T08:53:34Z</time>
      </trkpt>
      <trkpt lat="44.04506" lon="5.61812">
        <ele>849.79998779297</ele>
        <time>2021-09-04T08:53:40Z</time>
      </trkpt>
      <trkpt lat="44.04509" lon="5.61813">
        <ele>850</ele>
        <time>2021-09-04T08:53:41Z</time>
      </trkpt>
      <trkpt lat="44.0452" lon="5.61818">
        <ele>850.59997558594</ele>
        <time>2021-09-04T08:53:46Z</time>
      </trkpt>
      <trkpt lat="44.04528" lon="5.61822">
        <ele>851</ele>
        <time>2021-09-04T08:53:49Z</time>
      </trkpt>
      <trkpt lat="44.0454" lon="5.61825">
        <ele>851.59997558594</ele>
        <time>2021-09-04T08:53:54Z</time>
      </trkpt>
      <trkpt lat="44.04547" lon="5.61827">
        <ele>852.20001220703</ele>
        <time>2021-09-04T08:53:57Z</time>
      </trkpt>
      <trkpt lat="44.04563" lon="5.61831">
        <ele>853</ele>
        <time>2021-09-04T08:54:03Z</time>
      </trkpt>
      <trkpt lat="44.0457" lon="5.61832">
        <ele>853.20001220703</ele>
        <time>2021-09-04T08:54:06Z</time>
      </trkpt>
      <trkpt lat="44.04582" lon="5.61834">
        <ele>853.79998779297</ele>
        <time>2021-09-04T08:54:11Z</time>
      </trkpt>
      <trkpt lat="44.04589" lon="5.61836">
        <ele>854.40002441406</ele>
        <time>2021-09-04T08:54:14Z</time>
      </trkpt>
      <trkpt lat="44.04599" lon="5.61837">
        <ele>854.79998779297</ele>
        <time>2021-09-04T08:54:18Z</time>
      </trkpt>
      <trkpt lat="44.04612" lon="5.6184">
        <ele>855.40002441406</ele>
        <time>2021-09-04T08:54:23Z</time>
      </trkpt>
      <trkpt lat="44.0462" lon="5.6184">
        <ele>855.79998779297</ele>
        <time>2021-09-04T08:54:26Z</time>
      </trkpt>
      <trkpt lat="44.04628" lon="5.61841">
        <ele>856.40002441406</ele>
        <time>2021-09-04T08:54:29Z</time>
      </trkpt>
      <trkpt lat="44.04642" lon="5.61842">
        <ele>857</ele>
        <time>2021-09-04T08:54:34Z</time>
      </trkpt>
      <trkpt lat="44.04653" lon="5.61844">
        <ele>857.59997558594</ele>
        <time>2021-09-04T08:54:38Z</time>
      </trkpt>
      <trkpt lat="44.04661" lon="5.61845">
        <ele>858</ele>
        <time>2021-09-04T08:54:41Z</time>
      </trkpt>
      <trkpt lat="44.04674" lon="5.61849">
        <ele>858.59997558594</ele>
        <time>2021-09-04T08:54:46Z</time>
      </trkpt>
      <trkpt lat="44.04679" lon="5.61851">
        <ele>859</ele>
        <time>2021-09-04T08:54:48Z</time>
      </trkpt>
      <trkpt lat="44.0469" lon="5.61853">
        <ele>859.59997558594</ele>
        <time>2021-09-04T08:54:52Z</time>
      </trkpt>
      <trkpt lat="44.047" lon="5.61856">
        <ele>860.20001220703</ele>
        <time>2021-09-04T08:54:56Z</time>
      </trkpt>
      <trkpt lat="44.04711" lon="5.61858">
        <ele>860.79998779297</ele>
        <time>2021-09-04T08:55:00Z</time>
      </trkpt>
      <trkpt lat="44.04733" lon="5.61858">
        <ele>861.79998779297</ele>
        <time>2021-09-04T08:55:08Z</time>
      </trkpt>
      <trkpt lat="44.04753" lon="5.61854">
        <ele>863</ele>
        <time>2021-09-04T08:55:16Z</time>
      </trkpt>
      <trkpt lat="44.04756" lon="5.61853">
        <ele>863.20001220703</ele>
        <time>2021-09-04T08:55:17Z</time>
      </trkpt>
      <trkpt lat="44.04777" lon="5.61849">
        <ele>864.20001220703</ele>
        <time>2021-09-04T08:55:25Z</time>
      </trkpt>
      <trkpt lat="44.04793" lon="5.61843">
        <ele>865</ele>
        <time>2021-09-04T08:55:31Z</time>
      </trkpt>
      <trkpt lat="44.04798" lon="5.61841">
        <ele>865.20001220703</ele>
        <time>2021-09-04T08:55:33Z</time>
      </trkpt>
      <trkpt lat="44.04817" lon="5.61833">
        <ele>866.20001220703</ele>
        <time>2021-09-04T08:55:40Z</time>
      </trkpt>
      <trkpt lat="44.04841" lon="5.61821">
        <ele>867.40002441406</ele>
        <time>2021-09-04T08:55:49Z</time>
      </trkpt>
      <trkpt lat="44.04858" lon="5.61809">
        <ele>868.40002441406</ele>
        <time>2021-09-04T08:55:56Z</time>
      </trkpt>
      <trkpt lat="44.0486" lon="5.61807">
        <ele>868.59997558594</ele>
        <time>2021-09-04T08:55:57Z</time>
      </trkpt>
      <trkpt lat="44.04874" lon="5.61797">
        <ele>869.59997558594</ele>
        <time>2021-09-04T08:56:03Z</time>
      </trkpt>
      <trkpt lat="44.04877" lon="5.61795">
        <ele>869.79998779297</ele>
        <time>2021-09-04T08:56:04Z</time>
      </trkpt>
      <trkpt lat="44.04891" lon="5.61785">
        <ele>870.59997558594</ele>
        <time>2021-09-04T08:56:10Z</time>
      </trkpt>
      <trkpt lat="44.04896" lon="5.61781">
        <ele>871</ele>
        <time>2021-09-04T08:56:12Z</time>
      </trkpt>
      <trkpt lat="44.0491" lon="5.61771">
        <ele>871.79998779297</ele>
        <time>2021-09-04T08:56:18Z</time>
      </trkpt>
      <trkpt lat="44.04916" lon="5.61767">
        <ele>872</ele>
        <time>2021-09-04T08:56:20Z</time>
      </trkpt>
      <trkpt lat="44.04934" lon="5.61756">
        <ele>872.79998779297</ele>
        <time>2021-09-04T08:56:27Z</time>
      </trkpt>
      <trkpt lat="44.04951" lon="5.61746">
        <ele>873.79998779297</ele>
        <time>2021-09-04T08:56:34Z</time>
      </trkpt>
      <trkpt lat="44.04954" lon="5.61745">
        <ele>874</ele>
        <time>2021-09-04T08:56:35Z</time>
      </trkpt>
      <trkpt lat="44.04968" lon="5.61736">
        <ele>874.79998779297</ele>
        <time>2021-09-04T08:56:41Z</time>
      </trkpt>
      <trkpt lat="44.0497" lon="5.61734">
        <ele>875</ele>
        <time>2021-09-04T08:56:42Z</time>
      </trkpt>
      <trkpt lat="44.04988" lon="5.61722">
        <ele>876</ele>
        <time>2021-09-04T08:56:50Z</time>
      </trkpt>
      <trkpt lat="44.0499" lon="5.6172">
        <ele>876.20001220703</ele>
        <time>2021-09-04T08:56:51Z</time>
      </trkpt>
      <trkpt lat="44.05008" lon="5.61711">
        <ele>877.20001220703</ele>
        <time>2021-09-04T08:56:59Z</time>
      </trkpt>
      <trkpt lat="44.05029" lon="5.61699">
        <ele>878.40002441406</ele>
        <time>2021-09-04T08:57:08Z</time>
      </trkpt>
      <trkpt lat="44.05046" lon="5.61697">
        <ele>879.20001220703</ele>
        <time>2021-09-04T08:57:14Z</time>
      </trkpt>
      <trkpt lat="44.05049" lon="5.61696">
        <ele>879.40002441406</ele>
        <time>2021-09-04T08:57:15Z</time>
      </trkpt>
      <trkpt lat="44.05069" lon="5.61693">
        <ele>880.40002441406</ele>
        <time>2021-09-04T08:57:22Z</time>
      </trkpt>
      <trkpt lat="44.05072" lon="5.61693">
        <ele>880.59997558594</ele>
        <time>2021-09-04T08:57:23Z</time>
      </trkpt>
      <trkpt lat="44.05084" lon="5.61691">
        <ele>881.20001220703</ele>
        <time>2021-09-04T08:57:28Z</time>
      </trkpt>
      <trkpt lat="44.05092" lon="5.6169">
        <ele>881.59997558594</ele>
        <time>2021-09-04T08:57:31Z</time>
      </trkpt>
      <trkpt lat="44.05105" lon="5.61688">
        <ele>882.20001220703</ele>
        <time>2021-09-04T08:57:36Z</time>
      </trkpt>
      <trkpt lat="44.05111" lon="5.61686">
        <ele>882.59997558594</ele>
        <time>2021-09-04T08:57:39Z</time>
      </trkpt>
      <trkpt lat="44.05123" lon="5.61685">
        <ele>883.40002441406</ele>
        <time>2021-09-04T08:57:43Z</time>
      </trkpt>
      <trkpt lat="44.05134" lon="5.61684">
        <ele>883.79998779297</ele>
        <time>2021-09-04T08:57:47Z</time>
      </trkpt>
      <trkpt lat="44.05145" lon="5.61682">
        <ele>884.20001220703</ele>
        <time>2021-09-04T08:57:51Z</time>
      </trkpt>
      <trkpt lat="44.05153" lon="5.61681">
        <ele>884.79998779297</ele>
        <time>2021-09-04T08:57:54Z</time>
      </trkpt>
      <trkpt lat="44.05165" lon="5.61681">
        <ele>885.40002441406</ele>
        <time>2021-09-04T08:57:58Z</time>
      </trkpt>
      <trkpt lat="44.05176" lon="5.61681">
        <ele>886</ele>
        <time>2021-09-04T08:58:02Z</time>
      </trkpt>
      <trkpt lat="44.05191" lon="5.61681">
        <ele>886.79998779297</ele>
        <time>2021-09-04T08:58:07Z</time>
      </trkpt>
      <trkpt lat="44.05196" lon="5.61682">
        <ele>887</ele>
        <time>2021-09-04T08:58:09Z</time>
      </trkpt>
      <trkpt lat="44.05213" lon="5.61684">
        <ele>887.79998779297</ele>
        <time>2021-09-04T08:58:15Z</time>
      </trkpt>
      <trkpt lat="44.05219" lon="5.61683">
        <ele>888.20001220703</ele>
        <time>2021-09-04T08:58:17Z</time>
      </trkpt>
      <trkpt lat="44.05235" lon="5.61684">
        <ele>889.20001220703</ele>
        <time>2021-09-04T08:58:23Z</time>
      </trkpt>
      <trkpt lat="44.05257" lon="5.61684">
        <ele>890.40002441406</ele>
        <time>2021-09-04T08:58:31Z</time>
      </trkpt>
      <trkpt lat="44.05265" lon="5.61686">
        <ele>890.79998779297</ele>
        <time>2021-09-04T08:58:34Z</time>
      </trkpt>
      <trkpt lat="44.05276" lon="5.61688">
        <ele>891.40002441406</ele>
        <time>2021-09-04T08:58:38Z</time>
      </trkpt>
      <trkpt lat="44.05288" lon="5.61691">
        <ele>892</ele>
        <time>2021-09-04T08:58:42Z</time>
      </trkpt>
      <trkpt lat="44.05297" lon="5.61693">
        <ele>892.40002441406</ele>
        <time>2021-09-04T08:58:45Z</time>
      </trkpt>
      <trkpt lat="44.05315" lon="5.61697">
        <ele>893.59997558594</ele>
        <time>2021-09-04T08:58:51Z</time>
      </trkpt>
      <trkpt lat="44.05337" lon="5.61708">
        <ele>894.40002441406</ele>
        <time>2021-09-04T08:58:59Z</time>
      </trkpt>
      <trkpt lat="44.0534" lon="5.61709">
        <ele>894.59997558594</ele>
        <time>2021-09-04T08:59:00Z</time>
      </trkpt>
      <trkpt lat="44.05355" lon="5.6172">
        <ele>895.40002441406</ele>
        <time>2021-09-04T08:59:06Z</time>
      </trkpt>
      <trkpt lat="44.0536" lon="5.61724">
        <ele>895.59997558594</ele>
        <time>2021-09-04T08:59:08Z</time>
      </trkpt>
      <trkpt lat="44.05377" lon="5.61735">
        <ele>896.79998779297</ele>
        <time>2021-09-04T08:59:15Z</time>
      </trkpt>
      <trkpt lat="44.05397" lon="5.61751">
        <ele>898</ele>
        <time>2021-09-04T08:59:23Z</time>
      </trkpt>
      <trkpt lat="44.05401" lon="5.61754">
        <ele>898.20001220703</ele>
        <time>2021-09-04T08:59:25Z</time>
      </trkpt>
      <trkpt lat="44.05413" lon="5.61765">
        <ele>899</ele>
        <time>2021-09-04T08:59:30Z</time>
      </trkpt>
      <trkpt lat="44.05422" lon="5.61773">
        <ele>899.59997558594</ele>
        <time>2021-09-04T08:59:34Z</time>
      </trkpt>
      <trkpt lat="44.05433" lon="5.61781">
        <ele>900</ele>
        <time>2021-09-04T08:59:38Z</time>
      </trkpt>
      <trkpt lat="44.05442" lon="5.6179">
        <ele>900.79998779297</ele>
        <time>2021-09-04T08:59:42Z</time>
      </trkpt>
      <trkpt lat="44.05446" lon="5.61795">
        <ele>901.20001220703</ele>
        <time>2021-09-04T08:59:44Z</time>
      </trkpt>
      <trkpt lat="44.05464" lon="5.61812">
        <ele>902.20001220703</ele>
        <time>2021-09-04T08:59:52Z</time>
      </trkpt>
      <trkpt lat="44.05478" lon="5.6183">
        <ele>903.40002441406</ele>
        <time>2021-09-04T08:59:59Z</time>
      </trkpt>
      <trkpt lat="44.05484" lon="5.61838">
        <ele>903.79998779297</ele>
        <time>2021-09-04T09:00:02Z</time>
      </trkpt>
      <trkpt lat="44.05492" lon="5.61852">
        <ele>904.40002441406</ele>
        <time>2021-09-04T09:00:07Z</time>
      </trkpt>
      <trkpt lat="44.05495" lon="5.61859">
        <ele>904.79998779297</ele>
        <time>2021-09-04T09:00:09Z</time>
      </trkpt>
      <trkpt lat="44.05507" lon="5.61875">
        <ele>905.59997558594</ele>
        <time>2021-09-04T09:00:15Z</time>
      </trkpt>
      <trkpt lat="44.05513" lon="5.61883">
        <ele>906</ele>
        <time>2021-09-04T09:00:18Z</time>
      </trkpt>
      <trkpt lat="44.05524" lon="5.619">
        <ele>906.59997558594</ele>
        <time>2021-09-04T09:00:24Z</time>
      </trkpt>
      <trkpt lat="44.05528" lon="5.61906">
        <ele>907</ele>
        <time>2021-09-04T09:00:26Z</time>
      </trkpt>
      <trkpt lat="44.05538" lon="5.61919">
        <ele>907.79998779297</ele>
        <time>2021-09-04T09:00:31Z</time>
      </trkpt>
      <trkpt lat="44.05547" lon="5.61929">
        <ele>908.40002441406</ele>
        <time>2021-09-04T09:00:35Z</time>
      </trkpt>
      <trkpt lat="44.05553" lon="5.61936">
        <ele>909</ele>
        <time>2021-09-04T09:00:38Z</time>
      </trkpt>
      <trkpt lat="44.0556" lon="5.61946">
        <ele>909.20001220703</ele>
        <time>2021-09-04T09:00:42Z</time>
      </trkpt>
      <trkpt lat="44.05574" lon="5.61959">
        <ele>910</ele>
        <time>2021-09-04T09:00:48Z</time>
      </trkpt>
      <trkpt lat="44.05579" lon="5.61964">
        <ele>910.20001220703</ele>
        <time>2021-09-04T09:00:50Z</time>
      </trkpt>
      <trkpt lat="44.05589" lon="5.61976">
        <ele>911</ele>
        <time>2021-09-04T09:00:54Z</time>
      </trkpt>
      <trkpt lat="44.056" lon="5.61984">
        <ele>911.59997558594</ele>
        <time>2021-09-04T09:00:58Z</time>
      </trkpt>
      <trkpt lat="44.05608" lon="5.61991">
        <ele>912.20001220703</ele>
        <time>2021-09-04T09:01:01Z</time>
      </trkpt>
      <trkpt lat="44.05618" lon="5.62">
        <ele>912.79998779297</ele>
        <time>2021-09-04T09:01:05Z</time>
      </trkpt>
      <trkpt lat="44.05625" lon="5.62006">
        <ele>913.20001220703</ele>
        <time>2021-09-04T09:01:08Z</time>
      </trkpt>
      <trkpt lat="44.05636" lon="5.62018">
        <ele>914</ele>
        <time>2021-09-04T09:01:13Z</time>
      </trkpt>
      <trkpt lat="44.05641" lon="5.62022">
        <ele>914.40002441406</ele>
        <time>2021-09-04T09:01:15Z</time>
      </trkpt>
      <trkpt lat="44.05655" lon="5.62038">
        <ele>915.40002441406</ele>
        <time>2021-09-04T09:01:22Z</time>
      </trkpt>
      <trkpt lat="44.05657" lon="5.6204">
        <ele>915.59997558594</ele>
        <time>2021-09-04T09:01:23Z</time>
      </trkpt>
      <trkpt lat="44.05669" lon="5.62052">
        <ele>916.40002441406</ele>
        <time>2021-09-04T09:01:28Z</time>
      </trkpt>
      <trkpt lat="44.05676" lon="5.62059">
        <ele>917</ele>
        <time>2021-09-04T09:01:31Z</time>
      </trkpt>
      <trkpt lat="44.05685" lon="5.62067">
        <ele>917.59997558594</ele>
        <time>2021-09-04T09:01:35Z</time>
      </trkpt>
      <trkpt lat="44.05699" lon="5.6208">
        <ele>918.59997558594</ele>
        <time>2021-09-04T09:01:41Z</time>
      </trkpt>
      <trkpt lat="44.05702" lon="5.62082">
        <ele>918.79998779297</ele>
        <time>2021-09-04T09:01:42Z</time>
      </trkpt>
      <trkpt lat="44.05721" lon="5.62093">
        <ele>919.59997558594</ele>
        <time>2021-09-04T09:01:49Z</time>
      </trkpt>
      <trkpt lat="44.05723" lon="5.62094">
        <ele>919.79998779297</ele>
        <time>2021-09-04T09:01:50Z</time>
      </trkpt>
      <trkpt lat="44.0574" lon="5.62101">
        <ele>920.79998779297</ele>
        <time>2021-09-04T09:01:56Z</time>
      </trkpt>
      <trkpt lat="44.05742" lon="5.62103">
        <ele>920.79998779297</ele>
        <time>2021-09-04T09:01:57Z</time>
      </trkpt>
      <trkpt lat="44.05759" lon="5.62109">
        <ele>922</ele>
        <time>2021-09-04T09:02:03Z</time>
      </trkpt>
      <trkpt lat="44.05783" lon="5.62115">
        <ele>923</ele>
        <time>2021-09-04T09:02:11Z</time>
      </trkpt>
      <trkpt lat="44.05799" lon="5.62117">
        <ele>924</ele>
        <time>2021-09-04T09:02:17Z</time>
      </trkpt>
      <trkpt lat="44.05802" lon="5.62115">
        <ele>924</ele>
        <time>2021-09-04T09:02:18Z</time>
      </trkpt>
      <trkpt lat="44.05809" lon="5.62104">
        <ele>924.79998779297</ele>
        <time>2021-09-04T09:02:22Z</time>
      </trkpt>
      <trkpt lat="44.05809" lon="5.62097">
        <ele>925</ele>
        <time>2021-09-04T09:02:24Z</time>
      </trkpt>
      <trkpt lat="44.05808" lon="5.62093">
        <ele>925.20001220703</ele>
        <time>2021-09-04T09:02:25Z</time>
      </trkpt>
      <trkpt lat="44.05805" lon="5.6209">
        <ele>925.40002441406</ele>
        <time>2021-09-04T09:02:26Z</time>
      </trkpt>
      <trkpt lat="44.05793" lon="5.62088">
        <ele>926</ele>
        <time>2021-09-04T09:02:30Z</time>
      </trkpt>
      <trkpt lat="44.05782" lon="5.62089">
        <ele>926.20001220703</ele>
        <time>2021-09-04T09:02:33Z</time>
      </trkpt>
      <trkpt lat="44.05766" lon="5.62087">
        <ele>926.79998779297</ele>
        <time>2021-09-04T09:02:38Z</time>
      </trkpt>
      <trkpt lat="44.05752" lon="5.62083">
        <ele>927.40002441406</ele>
        <time>2021-09-04T09:02:43Z</time>
      </trkpt>
      <trkpt lat="44.05744" lon="5.6208">
        <ele>927.59997558594</ele>
        <time>2021-09-04T09:02:46Z</time>
      </trkpt>
      <trkpt lat="44.05731" lon="5.62073">
        <ele>928.40002441406</ele>
        <time>2021-09-04T09:02:51Z</time>
      </trkpt>
      <trkpt lat="44.05724" lon="5.62067">
        <ele>928.79998779297</ele>
        <time>2021-09-04T09:02:54Z</time>
      </trkpt>
      <trkpt lat="44.0571" lon="5.62053">
        <ele>929.40002441406</ele>
        <time>2021-09-04T09:03:00Z</time>
      </trkpt>
      <trkpt lat="44.05706" lon="5.62048">
        <ele>929.79998779297</ele>
        <time>2021-09-04T09:03:02Z</time>
      </trkpt>
      <trkpt lat="44.05696" lon="5.62038">
        <ele>930.40002441406</ele>
        <time>2021-09-04T09:03:06Z</time>
      </trkpt>
      <trkpt lat="44.05687" lon="5.62025">
        <ele>931</ele>
        <time>2021-09-04T09:03:11Z</time>
      </trkpt>
      <trkpt lat="44.05678" lon="5.6201">
        <ele>931.59997558594</ele>
        <time>2021-09-04T09:03:16Z</time>
      </trkpt>
      <trkpt lat="44.05672" lon="5.62002">
        <ele>932</ele>
        <time>2021-09-04T09:03:19Z</time>
      </trkpt>
      <trkpt lat="44.05664" lon="5.61987">
        <ele>932.59997558594</ele>
        <time>2021-09-04T09:03:24Z</time>
      </trkpt>
      <trkpt lat="44.05656" lon="5.61973">
        <ele>933.20001220703</ele>
        <time>2021-09-04T09:03:29Z</time>
      </trkpt>
      <trkpt lat="44.0565" lon="5.61961">
        <ele>933.59997558594</ele>
        <time>2021-09-04T09:03:33Z</time>
      </trkpt>
      <trkpt lat="44.05639" lon="5.6195">
        <ele>934.40002441406</ele>
        <time>2021-09-04T09:03:38Z</time>
      </trkpt>
      <trkpt lat="44.05636" lon="5.61943">
        <ele>934.79998779297</ele>
        <time>2021-09-04T09:03:40Z</time>
      </trkpt>
      <trkpt lat="44.0563" lon="5.61936">
        <ele>935.20001220703</ele>
        <time>2021-09-04T09:03:43Z</time>
      </trkpt>
      <trkpt lat="44.0562" lon="5.61921">
        <ele>936</ele>
        <time>2021-09-04T09:03:49Z</time>
      </trkpt>
      <trkpt lat="44.05609" lon="5.61901">
        <ele>936.59997558594</ele>
        <time>2021-09-04T09:03:56Z</time>
      </trkpt>
      <trkpt lat="44.05605" lon="5.61895">
        <ele>937</ele>
        <time>2021-09-04T09:03:58Z</time>
      </trkpt>
      <trkpt lat="44.05596" lon="5.61876">
        <ele>938.20001220703</ele>
        <time>2021-09-04T09:04:04Z</time>
      </trkpt>
      <trkpt lat="44.05593" lon="5.6187">
        <ele>938.59997558594</ele>
        <time>2021-09-04T09:04:06Z</time>
      </trkpt>
      <trkpt lat="44.05585" lon="5.61851">
        <ele>939.40002441406</ele>
        <time>2021-09-04T09:04:12Z</time>
      </trkpt>
      <trkpt lat="44.05577" lon="5.61832">
        <ele>940</ele>
        <time>2021-09-04T09:04:18Z</time>
      </trkpt>
      <trkpt lat="44.05573" lon="5.61824">
        <ele>940.40002441406</ele>
        <time>2021-09-04T09:04:21Z</time>
      </trkpt>
      <trkpt lat="44.05567" lon="5.61809">
        <ele>941</ele>
        <time>2021-09-04T09:04:26Z</time>
      </trkpt>
      <trkpt lat="44.05566" lon="5.61806">
        <ele>941.20001220703</ele>
        <time>2021-09-04T09:04:27Z</time>
      </trkpt>
      <trkpt lat="44.05564" lon="5.61803">
        <ele>941.59997558594</ele>
        <time>2021-09-04T09:04:28Z</time>
      </trkpt>
      <trkpt lat="44.05556" lon="5.61787">
        <ele>942.20001220703</ele>
        <time>2021-09-04T09:04:34Z</time>
      </trkpt>
      <trkpt lat="44.05552" lon="5.61778">
        <ele>942.59997558594</ele>
        <time>2021-09-04T09:04:37Z</time>
      </trkpt>
      <trkpt lat="44.05541" lon="5.61758">
        <ele>943.59997558594</ele>
        <time>2021-09-04T09:04:44Z</time>
      </trkpt>
      <trkpt lat="44.0554" lon="5.61755">
        <ele>943.59997558594</ele>
        <time>2021-09-04T09:04:45Z</time>
      </trkpt>
      <trkpt lat="44.05528" lon="5.61733">
        <ele>944.59997558594</ele>
        <time>2021-09-04T09:04:53Z</time>
      </trkpt>
      <trkpt lat="44.05526" lon="5.61731">
        <ele>944.79998779297</ele>
        <time>2021-09-04T09:04:54Z</time>
      </trkpt>
      <trkpt lat="44.05514" lon="5.61714">
        <ele>945.79998779297</ele>
        <time>2021-09-04T09:05:01Z</time>
      </trkpt>
      <trkpt lat="44.05511" lon="5.61712">
        <ele>946</ele>
        <time>2021-09-04T09:05:02Z</time>
      </trkpt>
      <trkpt lat="44.05498" lon="5.61695">
        <ele>947</ele>
        <time>2021-09-04T09:05:09Z</time>
      </trkpt>
      <trkpt lat="44.05496" lon="5.61692">
        <ele>947</ele>
        <time>2021-09-04T09:05:10Z</time>
      </trkpt>
      <trkpt lat="44.05479" lon="5.61674">
        <ele>948</ele>
        <time>2021-09-04T09:05:18Z</time>
      </trkpt>
      <trkpt lat="44.05461" lon="5.61657">
        <ele>949.20001220703</ele>
        <time>2021-09-04T09:05:26Z</time>
      </trkpt>
      <trkpt lat="44.05459" lon="5.61655">
        <ele>949.20001220703</ele>
        <time>2021-09-04T09:05:27Z</time>
      </trkpt>
      <trkpt lat="44.05449" lon="5.61645">
        <ele>949.79998779297</ele>
        <time>2021-09-04T09:05:32Z</time>
      </trkpt>
      <trkpt lat="44.05443" lon="5.61638">
        <ele>950.20001220703</ele>
        <time>2021-09-04T09:05:35Z</time>
      </trkpt>
      <trkpt lat="44.05436" lon="5.61633">
        <ele>950.40002441406</ele>
        <time>2021-09-04T09:05:38Z</time>
      </trkpt>
      <trkpt lat="44.05427" lon="5.61621">
        <ele>951.20001220703</ele>
        <time>2021-09-04T09:05:43Z</time>
      </trkpt>
      <trkpt lat="44.05419" lon="5.61614">
        <ele>951.59997558594</ele>
        <time>2021-09-04T09:05:47Z</time>
      </trkpt>
      <trkpt lat="44.05409" lon="5.61603">
        <ele>952.20001220703</ele>
        <time>2021-09-04T09:05:52Z</time>
      </trkpt>
      <trkpt lat="44.05401" lon="5.61594">
        <ele>952.79998779297</ele>
        <time>2021-09-04T09:05:56Z</time>
      </trkpt>
      <trkpt lat="44.05392" lon="5.61586">
        <ele>953.40002441406</ele>
        <time>2021-09-04T09:06:00Z</time>
      </trkpt>
      <trkpt lat="44.0538" lon="5.61576">
        <ele>954</ele>
        <time>2021-09-04T09:06:05Z</time>
      </trkpt>
      <trkpt lat="44.05376" lon="5.61571">
        <ele>954.40002441406</ele>
        <time>2021-09-04T09:06:07Z</time>
      </trkpt>
      <trkpt lat="44.05365" lon="5.6156">
        <ele>955</ele>
        <time>2021-09-04T09:06:12Z</time>
      </trkpt>
      <trkpt lat="44.05354" lon="5.61548">
        <ele>955.40002441406</ele>
        <time>2021-09-04T09:06:17Z</time>
      </trkpt>
      <trkpt lat="44.05348" lon="5.61542">
        <ele>955.59997558594</ele>
        <time>2021-09-04T09:06:20Z</time>
      </trkpt>
      <trkpt lat="44.05337" lon="5.61531">
        <ele>955.40002441406</ele>
        <time>2021-09-04T09:06:25Z</time>
      </trkpt>
      <trkpt lat="44.05332" lon="5.61527">
        <ele>955.40002441406</ele>
        <time>2021-09-04T09:06:27Z</time>
      </trkpt>
      <trkpt lat="44.05319" lon="5.6151">
        <ele>955.20001220703</ele>
        <time>2021-09-04T09:06:32Z</time>
      </trkpt>
      <trkpt lat="44.05299" lon="5.61483">
        <ele>954.79998779297</ele>
        <time>2021-09-04T09:06:39Z</time>
      </trkpt>
      <trkpt lat="44.0529" lon="5.61465">
        <ele>954.59997558594</ele>
        <time>2021-09-04T09:06:43Z</time>
      </trkpt>
      <trkpt lat="44.05281" lon="5.61453">
        <ele>954.40002441406</ele>
        <time>2021-09-04T09:06:46Z</time>
      </trkpt>
      <trkpt lat="44.05268" lon="5.61437">
        <ele>954.20001220703</ele>
        <time>2021-09-04T09:06:50Z</time>
      </trkpt>
      <trkpt lat="44.0524" lon="5.61406">
        <ele>953.79998779297</ele>
        <time>2021-09-04T09:06:57Z</time>
      </trkpt>
      <trkpt lat="44.05215" lon="5.61386">
        <ele>953.20001220703</ele>
        <time>2021-09-04T09:07:02Z</time>
      </trkpt>
      <trkpt lat="44.05198" lon="5.61375">
        <ele>953</ele>
        <time>2021-09-04T09:07:05Z</time>
      </trkpt>
      <trkpt lat="44.05165" lon="5.61354">
        <ele>952.40002441406</ele>
        <time>2021-09-04T09:07:11Z</time>
      </trkpt>
      <trkpt lat="44.05154" lon="5.61347">
        <ele>952.20001220703</ele>
        <time>2021-09-04T09:07:13Z</time>
      </trkpt>
      <trkpt lat="44.05132" lon="5.61333">
        <ele>951.40002441406</ele>
        <time>2021-09-04T09:07:17Z</time>
      </trkpt>
      <trkpt lat="44.05089" lon="5.61313">
        <ele>951</ele>
        <time>2021-09-04T09:07:24Z</time>
      </trkpt>
      <trkpt lat="44.05035" lon="5.61302">
        <ele>950</ele>
        <time>2021-09-04T09:07:32Z</time>
      </trkpt>
      <trkpt lat="44.04991" lon="5.61296">
        <ele>949.40002441406</ele>
        <time>2021-09-04T09:07:39Z</time>
      </trkpt>
      <trkpt lat="44.04968" lon="5.6129">
        <ele>949</ele>
        <time>2021-09-04T09:07:43Z</time>
      </trkpt>
      <trkpt lat="44.04962" lon="5.61286">
        <ele>949</ele>
        <time>2021-09-04T09:07:44Z</time>
      </trkpt>
      <trkpt lat="44.04958" lon="5.61282">
        <ele>948.79998779297</ele>
        <time>2021-09-04T09:07:45Z</time>
      </trkpt>
      <trkpt lat="44.04944" lon="5.61259">
        <ele>948.79998779297</ele>
        <time>2021-09-04T09:07:49Z</time>
      </trkpt>
      <trkpt lat="44.04933" lon="5.61224">
        <ele>949.40002441406</ele>
        <time>2021-09-04T09:07:55Z</time>
      </trkpt>
      <trkpt lat="44.04931" lon="5.61218">
        <ele>949.59997558594</ele>
        <time>2021-09-04T09:07:56Z</time>
      </trkpt>
      <trkpt lat="44.04928" lon="5.61195">
        <ele>949.79998779297</ele>
        <time>2021-09-04T09:08:00Z</time>
      </trkpt>
      <trkpt lat="44.04928" lon="5.61183">
        <ele>950</ele>
        <time>2021-09-04T09:08:02Z</time>
      </trkpt>
      <trkpt lat="44.04929" lon="5.61176">
        <ele>950</ele>
        <time>2021-09-04T09:08:03Z</time>
      </trkpt>
      <trkpt lat="44.04931" lon="5.61164">
        <ele>950</ele>
        <time>2021-09-04T09:08:05Z</time>
      </trkpt>
      <trkpt lat="44.04934" lon="5.61152">
        <ele>950</ele>
        <time>2021-09-04T09:08:07Z</time>
      </trkpt>
      <trkpt lat="44.04939" lon="5.6114">
        <ele>950.20001220703</ele>
        <time>2021-09-04T09:08:09Z</time>
      </trkpt>
      <trkpt lat="44.04945" lon="5.6113">
        <ele>950.20001220703</ele>
        <time>2021-09-04T09:08:11Z</time>
      </trkpt>
      <trkpt lat="44.04962" lon="5.61104">
        <ele>950</ele>
        <time>2021-09-04T09:08:16Z</time>
      </trkpt>
      <trkpt lat="44.04977" lon="5.61082">
        <ele>949.59997558594</ele>
        <time>2021-09-04T09:08:20Z</time>
      </trkpt>
      <trkpt lat="44.04986" lon="5.61072">
        <ele>949.40002441406</ele>
        <time>2021-09-04T09:08:22Z</time>
      </trkpt>
      <trkpt lat="44.04999" lon="5.61055">
        <ele>948.79998779297</ele>
        <time>2021-09-04T09:08:25Z</time>
      </trkpt>
      <trkpt lat="44.05023" lon="5.61023">
        <ele>947.79998779297</ele>
        <time>2021-09-04T09:08:30Z</time>
      </trkpt>
      <trkpt lat="44.05044" lon="5.60978">
        <ele>946.79998779297</ele>
        <time>2021-09-04T09:08:36Z</time>
      </trkpt>
      <trkpt lat="44.05046" lon="5.60971">
        <ele>946.79998779297</ele>
        <time>2021-09-04T09:08:37Z</time>
      </trkpt>
      <trkpt lat="44.05048" lon="5.60948">
        <ele>946.79998779297</ele>
        <time>2021-09-04T09:08:40Z</time>
      </trkpt>
      <trkpt lat="44.0506" lon="5.60883">
        <ele>947.20001220703</ele>
        <time>2021-09-04T09:08:48Z</time>
      </trkpt>
      <trkpt lat="44.05076" lon="5.60851">
        <ele>946.59997558594</ele>
        <time>2021-09-04T09:08:52Z</time>
      </trkpt>
      <trkpt lat="44.05082" lon="5.60844">
        <ele>946.59997558594</ele>
        <time>2021-09-04T09:08:53Z</time>
      </trkpt>
      <trkpt lat="44.05108" lon="5.60824">
        <ele>945.59997558594</ele>
        <time>2021-09-04T09:08:57Z</time>
      </trkpt>
      <trkpt lat="44.05116" lon="5.60821">
        <ele>945.40002441406</ele>
        <time>2021-09-04T09:08:58Z</time>
      </trkpt>
      <trkpt lat="44.05138" lon="5.60812">
        <ele>944.59997558594</ele>
        <time>2021-09-04T09:09:01Z</time>
      </trkpt>
      <trkpt lat="44.05154" lon="5.60806">
        <ele>944</ele>
        <time>2021-09-04T09:09:03Z</time>
      </trkpt>
      <trkpt lat="44.0517" lon="5.60799">
        <ele>943.59997558594</ele>
        <time>2021-09-04T09:09:05Z</time>
      </trkpt>
      <trkpt lat="44.052" lon="5.60781">
        <ele>942.59997558594</ele>
        <time>2021-09-04T09:09:09Z</time>
      </trkpt>
      <trkpt lat="44.05237" lon="5.60756">
        <ele>941.40002441406</ele>
        <time>2021-09-04T09:09:14Z</time>
      </trkpt>
      <trkpt lat="44.0525" lon="5.60747">
        <ele>941.20001220703</ele>
        <time>2021-09-04T09:09:16Z</time>
      </trkpt>
      <trkpt lat="44.05277" lon="5.60731">
        <ele>941.59997558594</ele>
        <time>2021-09-04T09:09:21Z</time>
      </trkpt>
      <trkpt lat="44.05297" lon="5.60718">
        <ele>942.40002441406</ele>
        <time>2021-09-04T09:09:26Z</time>
      </trkpt>
      <trkpt lat="44.05301" lon="5.60715">
        <ele>942.59997558594</ele>
        <time>2021-09-04T09:09:27Z</time>
      </trkpt>
      <trkpt lat="44.05314" lon="5.60706">
        <ele>943.59997558594</ele>
        <time>2021-09-04T09:09:31Z</time>
      </trkpt>
      <trkpt lat="44.05327" lon="5.60698">
        <ele>944.20001220703</ele>
        <time>2021-09-04T09:09:35Z</time>
      </trkpt>
      <trkpt lat="44.05337" lon="5.6069">
        <ele>944.59997558594</ele>
        <time>2021-09-04T09:09:38Z</time>
      </trkpt>
      <trkpt lat="44.05359" lon="5.60679">
        <ele>945.59997558594</ele>
        <time>2021-09-04T09:09:44Z</time>
      </trkpt>
      <trkpt lat="44.05363" lon="5.60677">
        <ele>945.79998779297</ele>
        <time>2021-09-04T09:09:45Z</time>
      </trkpt>
      <trkpt lat="44.05395" lon="5.60669">
        <ele>946.59997558594</ele>
        <time>2021-09-04T09:09:53Z</time>
      </trkpt>
      <trkpt lat="44.05407" lon="5.60668">
        <ele>946.79998779297</ele>
        <time>2021-09-04T09:09:56Z</time>
      </trkpt>
      <trkpt lat="44.05424" lon="5.60667">
        <ele>947</ele>
        <time>2021-09-04T09:10:00Z</time>
      </trkpt>
      <trkpt lat="44.0546" lon="5.60668">
        <ele>947.59997558594</ele>
        <time>2021-09-04T09:10:08Z</time>
      </trkpt>
      <trkpt lat="44.05474" lon="5.60668">
        <ele>947.79998779297</ele>
        <time>2021-09-04T09:10:11Z</time>
      </trkpt>
      <trkpt lat="44.05507" lon="5.60662">
        <ele>948</ele>
        <time>2021-09-04T09:10:18Z</time>
      </trkpt>
      <trkpt lat="44.05538" lon="5.60646">
        <ele>948</ele>
        <time>2021-09-04T09:10:25Z</time>
      </trkpt>
      <trkpt lat="44.05579" lon="5.6062">
        <ele>948.40002441406</ele>
        <time>2021-09-04T09:10:34Z</time>
      </trkpt>
      <trkpt lat="44.05601" lon="5.60606">
        <ele>948.79998779297</ele>
        <time>2021-09-04T09:10:39Z</time>
      </trkpt>
      <trkpt lat="44.05618" lon="5.60595">
        <ele>949.20001220703</ele>
        <time>2021-09-04T09:10:43Z</time>
      </trkpt>
      <trkpt lat="44.05635" lon="5.60585">
        <ele>949.79998779297</ele>
        <time>2021-09-04T09:10:47Z</time>
      </trkpt>
      <trkpt lat="44.0564" lon="5.60582">
        <ele>949.79998779297</ele>
        <time>2021-09-04T09:10:48Z</time>
      </trkpt>
      <trkpt lat="44.05657" lon="5.60573">
        <ele>950.59997558594</ele>
        <time>2021-09-04T09:10:52Z</time>
      </trkpt>
      <trkpt lat="44.05696" lon="5.60556">
        <ele>950.59997558594</ele>
        <time>2021-09-04T09:11:00Z</time>
      </trkpt>
      <trkpt lat="44.05737" lon="5.60544">
        <ele>950.59997558594</ele>
        <time>2021-09-04T09:11:07Z</time>
      </trkpt>
      <trkpt lat="44.05763" lon="5.60537">
        <ele>951</ele>
        <time>2021-09-04T09:11:12Z</time>
      </trkpt>
      <trkpt lat="44.05772" lon="5.60534">
        <ele>951.40002441406</ele>
        <time>2021-09-04T09:11:14Z</time>
      </trkpt>
      <trkpt lat="44.05787" lon="5.6053">
        <ele>952</ele>
        <time>2021-09-04T09:11:17Z</time>
      </trkpt>
      <trkpt lat="44.05815" lon="5.60522">
        <ele>952.59997558594</ele>
        <time>2021-09-04T09:11:23Z</time>
      </trkpt>
      <trkpt lat="44.05854" lon="5.6051">
        <ele>953.20001220703</ele>
        <time>2021-09-04T09:11:31Z</time>
      </trkpt>
      <trkpt lat="44.0586" lon="5.60508">
        <ele>953.20001220703</ele>
        <time>2021-09-04T09:11:32Z</time>
      </trkpt>
      <trkpt lat="44.05904" lon="5.60495">
        <ele>953.40002441406</ele>
        <time>2021-09-04T09:11:41Z</time>
      </trkpt>
      <trkpt lat="44.05946" lon="5.60484">
        <ele>954.20001220703</ele>
        <time>2021-09-04T09:11:50Z</time>
      </trkpt>
      <trkpt lat="44.05951" lon="5.60483">
        <ele>954.20001220703</ele>
        <time>2021-09-04T09:11:51Z</time>
      </trkpt>
      <trkpt lat="44.05961" lon="5.6048">
        <ele>954.40002441406</ele>
        <time>2021-09-04T09:11:53Z</time>
      </trkpt>
      <trkpt lat="44.05971" lon="5.60476">
        <ele>954.79998779297</ele>
        <time>2021-09-04T09:11:55Z</time>
      </trkpt>
      <trkpt lat="44.05992" lon="5.6047">
        <ele>955.20001220703</ele>
        <time>2021-09-04T09:11:59Z</time>
      </trkpt>
      <trkpt lat="44.06012" lon="5.60462">
        <ele>955.20001220703</ele>
        <time>2021-09-04T09:12:03Z</time>
      </trkpt>
      <trkpt lat="44.06052" lon="5.60441">
        <ele>954.59997558594</ele>
        <time>2021-09-04T09:12:10Z</time>
      </trkpt>
      <trkpt lat="44.0607" lon="5.60429">
        <ele>954.20001220703</ele>
        <time>2021-09-04T09:12:13Z</time>
      </trkpt>
      <trkpt lat="44.06094" lon="5.60413">
        <ele>953.40002441406</ele>
        <time>2021-09-04T09:12:17Z</time>
      </trkpt>
      <trkpt lat="44.06113" lon="5.604">
        <ele>953</ele>
        <time>2021-09-04T09:12:20Z</time>
      </trkpt>
      <trkpt lat="44.06149" lon="5.60377">
        <ele>952.59997558594</ele>
        <time>2021-09-04T09:12:26Z</time>
      </trkpt>
      <trkpt lat="44.06178" lon="5.60358">
        <ele>952.79998779297</ele>
        <time>2021-09-04T09:12:32Z</time>
      </trkpt>
      <trkpt lat="44.06206" lon="5.60341">
        <ele>954.20001220703</ele>
        <time>2021-09-04T09:12:39Z</time>
      </trkpt>
      <trkpt lat="44.06225" lon="5.6033">
        <ele>955.20001220703</ele>
        <time>2021-09-04T09:12:44Z</time>
      </trkpt>
      <trkpt lat="44.0624" lon="5.6032">
        <ele>956.20001220703</ele>
        <time>2021-09-04T09:12:48Z</time>
      </trkpt>
      <trkpt lat="44.06244" lon="5.60317">
        <ele>956.40002441406</ele>
        <time>2021-09-04T09:12:49Z</time>
      </trkpt>
      <trkpt lat="44.06259" lon="5.60307">
        <ele>957.40002441406</ele>
        <time>2021-09-04T09:12:53Z</time>
      </trkpt>
      <trkpt lat="44.06275" lon="5.60297">
        <ele>958</ele>
        <time>2021-09-04T09:12:57Z</time>
      </trkpt>
      <trkpt lat="44.06287" lon="5.60291">
        <ele>958.40002441406</ele>
        <time>2021-09-04T09:13:00Z</time>
      </trkpt>
      <trkpt lat="44.06307" lon="5.60283">
        <ele>959.40002441406</ele>
        <time>2021-09-04T09:13:05Z</time>
      </trkpt>
      <trkpt lat="44.06311" lon="5.60282">
        <ele>959.59997558594</ele>
        <time>2021-09-04T09:13:06Z</time>
      </trkpt>
      <trkpt lat="44.0633" lon="5.60278">
        <ele>960</ele>
        <time>2021-09-04T09:13:11Z</time>
      </trkpt>
      <trkpt lat="44.06365" lon="5.6027">
        <ele>960</ele>
        <time>2021-09-04T09:13:18Z</time>
      </trkpt>
      <trkpt lat="44.06371" lon="5.60268">
        <ele>960</ele>
        <time>2021-09-04T09:13:19Z</time>
      </trkpt>
      <trkpt lat="44.06399" lon="5.60262">
        <ele>959.40002441406</ele>
        <time>2021-09-04T09:13:24Z</time>
      </trkpt>
      <trkpt lat="44.06439" lon="5.60257">
        <ele>959.40002441406</ele>
        <time>2021-09-04T09:13:32Z</time>
      </trkpt>
      <trkpt lat="44.06461" lon="5.60254">
        <ele>960.59997558594</ele>
        <time>2021-09-04T09:13:38Z</time>
      </trkpt>
      <trkpt lat="44.06478" lon="5.60252">
        <ele>961.79998779297</ele>
        <time>2021-09-04T09:13:43Z</time>
      </trkpt>
      <trkpt lat="44.06485" lon="5.6025">
        <ele>962</ele>
        <time>2021-09-04T09:13:45Z</time>
      </trkpt>
      <trkpt lat="44.06509" lon="5.60247">
        <ele>962.79998779297</ele>
        <time>2021-09-04T09:13:52Z</time>
      </trkpt>
      <trkpt lat="44.06513" lon="5.60247">
        <ele>963</ele>
        <time>2021-09-04T09:13:53Z</time>
      </trkpt>
      <trkpt lat="44.06526" lon="5.60244">
        <ele>963.79998779297</ele>
        <time>2021-09-04T09:13:57Z</time>
      </trkpt>
      <trkpt lat="44.06543" lon="5.60242">
        <ele>964.20001220703</ele>
        <time>2021-09-04T09:14:02Z</time>
      </trkpt>
      <trkpt lat="44.0656" lon="5.60241">
        <ele>965</ele>
        <time>2021-09-04T09:14:07Z</time>
      </trkpt>
      <trkpt lat="44.06563" lon="5.6024">
        <ele>965.20001220703</ele>
        <time>2021-09-04T09:14:08Z</time>
      </trkpt>
      <trkpt lat="44.0658" lon="5.60237">
        <ele>966</ele>
        <time>2021-09-04T09:14:13Z</time>
      </trkpt>
      <trkpt lat="44.0659" lon="5.60236">
        <ele>966.40002441406</ele>
        <time>2021-09-04T09:14:16Z</time>
      </trkpt>
      <trkpt lat="44.06616" lon="5.60231">
        <ele>967</ele>
        <time>2021-09-04T09:14:23Z</time>
      </trkpt>
      <trkpt lat="44.06624" lon="5.60229">
        <ele>967.20001220703</ele>
        <time>2021-09-04T09:14:25Z</time>
      </trkpt>
      <trkpt lat="44.0666" lon="5.60222">
        <ele>967.79998779297</ele>
        <time>2021-09-04T09:14:34Z</time>
      </trkpt>
      <trkpt lat="44.06676" lon="5.6022">
        <ele>968</ele>
        <time>2021-09-04T09:14:38Z</time>
      </trkpt>
      <trkpt lat="44.06693" lon="5.60217">
        <ele>968.40002441406</ele>
        <time>2021-09-04T09:14:42Z</time>
      </trkpt>
      <trkpt lat="44.06724" lon="5.60208">
        <ele>969.20001220703</ele>
        <time>2021-09-04T09:14:50Z</time>
      </trkpt>
      <trkpt lat="44.06731" lon="5.60204">
        <ele>969.20001220703</ele>
        <time>2021-09-04T09:14:52Z</time>
      </trkpt>
      <trkpt lat="44.06754" lon="5.60181">
        <ele>969.40002441406</ele>
        <time>2021-09-04T09:14:58Z</time>
      </trkpt>
      <trkpt lat="44.06766" lon="5.60162">
        <ele>969.59997558594</ele>
        <time>2021-09-04T09:15:02Z</time>
      </trkpt>
      <trkpt lat="44.06769" lon="5.60152">
        <ele>969.59997558594</ele>
        <time>2021-09-04T09:15:04Z</time>
      </trkpt>
      <trkpt lat="44.06774" lon="5.60145">
        <ele>969.79998779297</ele>
        <time>2021-09-04T09:15:08Z</time>
      </trkpt>
      <trkpt lat="44.06775" lon="5.60144">
        <ele>970.40002441406</ele>
        <time>2021-09-04T09:16:12Z</time>
      </trkpt>
      <trkpt lat="44.06777" lon="5.60142">
        <ele>970.40002441406</ele>
        <time>2021-09-04T09:16:13Z</time>
      </trkpt>
      <trkpt lat="44.06789" lon="5.60126">
        <ele>970.59997558594</ele>
        <time>2021-09-04T09:16:19Z</time>
      </trkpt>
      <trkpt lat="44.06803" lon="5.60106">
        <ele>971.40002441406</ele>
        <time>2021-09-04T09:16:26Z</time>
      </trkpt>
      <trkpt lat="44.06808" lon="5.601">
        <ele>971.79998779297</ele>
        <time>2021-09-04T09:16:28Z</time>
      </trkpt>
      <trkpt lat="44.06816" lon="5.6009">
        <ele>972.59997558594</ele>
        <time>2021-09-04T09:16:32Z</time>
      </trkpt>
      <trkpt lat="44.06828" lon="5.6008">
        <ele>973.20001220703</ele>
        <time>2021-09-04T09:16:37Z</time>
      </trkpt>
      <trkpt lat="44.06834" lon="5.60072">
        <ele>973.59997558594</ele>
        <time>2021-09-04T09:16:40Z</time>
      </trkpt>
      <trkpt lat="44.06848" lon="5.60057">
        <ele>974.20001220703</ele>
        <time>2021-09-04T09:16:46Z</time>
      </trkpt>
      <trkpt lat="44.06864" lon="5.60045">
        <ele>974.59997558594</ele>
        <time>2021-09-04T09:16:51Z</time>
      </trkpt>
      <trkpt lat="44.06869" lon="5.60039">
        <ele>974.79998779297</ele>
        <time>2021-09-04T09:16:53Z</time>
      </trkpt>
      <trkpt lat="44.0689" lon="5.60018">
        <ele>975</ele>
        <time>2021-09-04T09:16:59Z</time>
      </trkpt>
      <trkpt lat="44.06927" lon="5.59983">
        <ele>975</ele>
        <time>2021-09-04T09:17:08Z</time>
      </trkpt>
      <trkpt lat="44.06953" lon="5.59958">
        <ele>975.40002441406</ele>
        <time>2021-09-04T09:17:15Z</time>
      </trkpt>
      <trkpt lat="44.0696" lon="5.5995">
        <ele>975.79998779297</ele>
        <time>2021-09-04T09:17:17Z</time>
      </trkpt>
      <trkpt lat="44.06977" lon="5.59934">
        <ele>976.40002441406</ele>
        <time>2021-09-04T09:17:22Z</time>
      </trkpt>
      <trkpt lat="44.06991" lon="5.5992">
        <ele>976.79998779297</ele>
        <time>2021-09-04T09:17:26Z</time>
      </trkpt>
      <trkpt lat="44.07009" lon="5.59903">
        <ele>977.59997558594</ele>
        <time>2021-09-04T09:17:31Z</time>
      </trkpt>
      <trkpt lat="44.0702" lon="5.59892">
        <ele>977.79998779297</ele>
        <time>2021-09-04T09:17:34Z</time>
      </trkpt>
      <trkpt lat="44.07046" lon="5.59867">
        <ele>978.59997558594</ele>
        <time>2021-09-04T09:17:41Z</time>
      </trkpt>
      <trkpt lat="44.07078" lon="5.59836">
        <ele>978.20001220703</ele>
        <time>2021-09-04T09:17:48Z</time>
      </trkpt>
      <trkpt lat="44.07116" lon="5.59815">
        <ele>977.20001220703</ele>
        <time>2021-09-04T09:17:54Z</time>
      </trkpt>
      <trkpt lat="44.07131" lon="5.5981">
        <ele>976.59997558594</ele>
        <time>2021-09-04T09:17:56Z</time>
      </trkpt>
      <trkpt lat="44.07162" lon="5.59796">
        <ele>975.40002441406</ele>
        <time>2021-09-04T09:18:00Z</time>
      </trkpt>
      <trkpt lat="44.07186" lon="5.59787">
        <ele>974.20001220703</ele>
        <time>2021-09-04T09:18:03Z</time>
      </trkpt>
      <trkpt lat="44.07212" lon="5.59777">
        <ele>973.59997558594</ele>
        <time>2021-09-04T09:18:07Z</time>
      </trkpt>
      <trkpt lat="44.0725" lon="5.59763">
        <ele>974.79998779297</ele>
        <time>2021-09-04T09:18:14Z</time>
      </trkpt>
      <trkpt lat="44.07281" lon="5.59752">
        <ele>975.20001220703</ele>
        <time>2021-09-04T09:18:20Z</time>
      </trkpt>
      <trkpt lat="44.07292" lon="5.59747">
        <ele>975.40002441406</ele>
        <time>2021-09-04T09:18:22Z</time>
      </trkpt>
      <trkpt lat="44.07325" lon="5.59729">
        <ele>976.20001220703</ele>
        <time>2021-09-04T09:18:29Z</time>
      </trkpt>
      <trkpt lat="44.07329" lon="5.59725">
        <ele>976.20001220703</ele>
        <time>2021-09-04T09:18:30Z</time>
      </trkpt>
      <trkpt lat="44.07338" lon="5.59717">
        <ele>976.40002441406</ele>
        <time>2021-09-04T09:18:32Z</time>
      </trkpt>
      <trkpt lat="44.07344" lon="5.59704">
        <ele>976.59997558594</ele>
        <time>2021-09-04T09:18:34Z</time>
      </trkpt>
      <trkpt lat="44.07353" lon="5.59677">
        <ele>976.59997558594</ele>
        <time>2021-09-04T09:18:38Z</time>
      </trkpt>
      <trkpt lat="44.07357" lon="5.59657">
        <ele>977</ele>
        <time>2021-09-04T09:18:41Z</time>
      </trkpt>
      <trkpt lat="44.07361" lon="5.59633">
        <ele>977.40002441406</ele>
        <time>2021-09-04T09:18:45Z</time>
      </trkpt>
      <trkpt lat="44.07365" lon="5.59617">
        <ele>977.79998779297</ele>
        <time>2021-09-04T09:18:48Z</time>
      </trkpt>
      <trkpt lat="44.07367" lon="5.59603">
        <ele>978.40002441406</ele>
        <time>2021-09-04T09:18:51Z</time>
      </trkpt>
      <trkpt lat="44.07373" lon="5.59572">
        <ele>979.40002441406</ele>
        <time>2021-09-04T09:18:58Z</time>
      </trkpt>
      <trkpt lat="44.07379" lon="5.59547">
        <ele>980.40002441406</ele>
        <time>2021-09-04T09:19:04Z</time>
      </trkpt>
      <trkpt lat="44.0738" lon="5.59542">
        <ele>980.40002441406</ele>
        <time>2021-09-04T09:19:05Z</time>
      </trkpt>
      <trkpt lat="44.07383" lon="5.59506">
        <ele>981.59997558594</ele>
        <time>2021-09-04T09:19:13Z</time>
      </trkpt>
      <trkpt lat="44.07383" lon="5.59477">
        <ele>982.59997558594</ele>
        <time>2021-09-04T09:19:19Z</time>
      </trkpt>
      <trkpt lat="44.07383" lon="5.59473">
        <ele>982.79998779297</ele>
        <time>2021-09-04T09:19:20Z</time>
      </trkpt>
      <trkpt lat="44.07377" lon="5.59431">
        <ele>983.79998779297</ele>
        <time>2021-09-04T09:19:29Z</time>
      </trkpt>
      <trkpt lat="44.07376" lon="5.59426">
        <ele>983.79998779297</ele>
        <time>2021-09-04T09:19:30Z</time>
      </trkpt>
      <trkpt lat="44.07372" lon="5.5939">
        <ele>984.79998779297</ele>
        <time>2021-09-04T09:19:38Z</time>
      </trkpt>
      <trkpt lat="44.07371" lon="5.59385">
        <ele>985</ele>
        <time>2021-09-04T09:19:39Z</time>
      </trkpt>
      <trkpt lat="44.07363" lon="5.59351">
        <ele>985.79998779297</ele>
        <time>2021-09-04T09:19:47Z</time>
      </trkpt>
      <trkpt lat="44.07353" lon="5.59332">
        <ele>986.59997558594</ele>
        <time>2021-09-04T09:19:52Z</time>
      </trkpt>
      <trkpt lat="44.07339" lon="5.59319">
        <ele>987</ele>
        <time>2021-09-04T09:19:57Z</time>
      </trkpt>
      <trkpt lat="44.07336" lon="5.59317">
        <ele>987.20001220703</ele>
        <time>2021-09-04T09:19:58Z</time>
      </trkpt>
      <trkpt lat="44.0732" lon="5.5931">
        <ele>988</ele>
        <time>2021-09-04T09:20:03Z</time>
      </trkpt>
      <trkpt lat="44.07308" lon="5.59304">
        <ele>988.79998779297</ele>
        <time>2021-09-04T09:20:07Z</time>
      </trkpt>
      <trkpt lat="44.07301" lon="5.593">
        <ele>989</ele>
        <time>2021-09-04T09:20:09Z</time>
      </trkpt>
      <trkpt lat="44.07283" lon="5.59287">
        <ele>989.59997558594</ele>
        <time>2021-09-04T09:20:15Z</time>
      </trkpt>
      <trkpt lat="44.07263" lon="5.59262">
        <ele>990</ele>
        <time>2021-09-04T09:20:22Z</time>
      </trkpt>
      <trkpt lat="44.07249" lon="5.59227">
        <ele>990.59997558594</ele>
        <time>2021-09-04T09:20:29Z</time>
      </trkpt>
      <trkpt lat="44.07233" lon="5.59183">
        <ele>990.79998779297</ele>
        <time>2021-09-04T09:20:37Z</time>
      </trkpt>
      <trkpt lat="44.07226" lon="5.59161">
        <ele>991</ele>
        <time>2021-09-04T09:20:41Z</time>
      </trkpt>
      <trkpt lat="44.07224" lon="5.59156">
        <ele>991.20001220703</ele>
        <time>2021-09-04T09:20:42Z</time>
      </trkpt>
      <trkpt lat="44.07222" lon="5.59151">
        <ele>991.20001220703</ele>
        <time>2021-09-04T09:20:43Z</time>
      </trkpt>
      <trkpt lat="44.07206" lon="5.59105">
        <ele>991.79998779297</ele>
        <time>2021-09-04T09:20:52Z</time>
      </trkpt>
      <trkpt lat="44.07204" lon="5.59094">
        <ele>992.20001220703</ele>
        <time>2021-09-04T09:20:54Z</time>
      </trkpt>
      <trkpt lat="44.07202" lon="5.59089">
        <ele>992.40002441406</ele>
        <time>2021-09-04T09:20:55Z</time>
      </trkpt>
      <trkpt lat="44.07199" lon="5.59063">
        <ele>992.59997558594</ele>
        <time>2021-09-04T09:20:59Z</time>
      </trkpt>
      <trkpt lat="44.072" lon="5.59016">
        <ele>992.40002441406</ele>
        <time>2021-09-04T09:21:05Z</time>
      </trkpt>
      <trkpt lat="44.07201" lon="5.58962">
        <ele>991.20001220703</ele>
        <time>2021-09-04T09:21:11Z</time>
      </trkpt>
      <trkpt lat="44.07201" lon="5.58952">
        <ele>991</ele>
        <time>2021-09-04T09:21:12Z</time>
      </trkpt>
      <trkpt lat="44.07201" lon="5.58902">
        <ele>989.59997558594</ele>
        <time>2021-09-04T09:21:17Z</time>
      </trkpt>
      <trkpt lat="44.07201" lon="5.58862">
        <ele>989.20001220703</ele>
        <time>2021-09-04T09:21:21Z</time>
      </trkpt>
      <trkpt lat="44.07202" lon="5.58833">
        <ele>988.59997558594</ele>
        <time>2021-09-04T09:21:24Z</time>
      </trkpt>
      <trkpt lat="44.07202" lon="5.58797">
        <ele>987.79998779297</ele>
        <time>2021-09-04T09:21:28Z</time>
      </trkpt>
      <trkpt lat="44.07203" lon="5.58733">
        <ele>988.20001220703</ele>
        <time>2021-09-04T09:21:36Z</time>
      </trkpt>
      <trkpt lat="44.07203" lon="5.5867">
        <ele>989.40002441406</ele>
        <time>2021-09-04T09:21:45Z</time>
      </trkpt>
      <trkpt lat="44.07203" lon="5.58623">
        <ele>989.59997558594</ele>
        <time>2021-09-04T09:21:51Z</time>
      </trkpt>
      <trkpt lat="44.07204" lon="5.58615">
        <ele>989.59997558594</ele>
        <time>2021-09-04T09:21:52Z</time>
      </trkpt>
      <trkpt lat="44.07204" lon="5.58579">
        <ele>989.20001220703</ele>
        <time>2021-09-04T09:21:56Z</time>
      </trkpt>
      <trkpt lat="44.07205" lon="5.58551">
        <ele>988.59997558594</ele>
        <time>2021-09-04T09:21:59Z</time>
      </trkpt>
      <trkpt lat="44.07205" lon="5.585">
        <ele>987.40002441406</ele>
        <time>2021-09-04T09:22:04Z</time>
      </trkpt>
      <trkpt lat="44.07205" lon="5.58468">
        <ele>986.20001220703</ele>
        <time>2021-09-04T09:22:07Z</time>
      </trkpt>
      <trkpt lat="44.07205" lon="5.58425">
        <ele>985</ele>
        <time>2021-09-04T09:22:11Z</time>
      </trkpt>
      <trkpt lat="44.07206" lon="5.58414">
        <ele>984.79998779297</ele>
        <time>2021-09-04T09:22:12Z</time>
      </trkpt>
      <trkpt lat="44.07206" lon="5.58383">
        <ele>984</ele>
        <time>2021-09-04T09:22:15Z</time>
      </trkpt>
      <trkpt lat="44.07206" lon="5.58344">
        <ele>983.40002441406</ele>
        <time>2021-09-04T09:22:19Z</time>
      </trkpt>
      <trkpt lat="44.07208" lon="5.58298">
        <ele>983</ele>
        <time>2021-09-04T09:22:24Z</time>
      </trkpt>
      <trkpt lat="44.07208" lon="5.58271">
        <ele>982.79998779297</ele>
        <time>2021-09-04T09:22:27Z</time>
      </trkpt>
      <trkpt lat="44.07217" lon="5.58217">
        <ele>982.40002441406</ele>
        <time>2021-09-04T09:22:33Z</time>
      </trkpt>
      <trkpt lat="44.0723" lon="5.58168">
        <ele>981.79998779297</ele>
        <time>2021-09-04T09:22:38Z</time>
      </trkpt>
      <trkpt lat="44.07238" lon="5.58136">
        <ele>981.40002441406</ele>
        <time>2021-09-04T09:22:41Z</time>
      </trkpt>
      <trkpt lat="44.07245" lon="5.58115">
        <ele>980.79998779297</ele>
        <time>2021-09-04T09:22:43Z</time>
      </trkpt>
      <trkpt lat="44.07257" lon="5.58072">
        <ele>979.79998779297</ele>
        <time>2021-09-04T09:22:47Z</time>
      </trkpt>
      <trkpt lat="44.0726" lon="5.58062">
        <ele>979.59997558594</ele>
        <time>2021-09-04T09:22:48Z</time>
      </trkpt>
      <trkpt lat="44.07272" lon="5.58019">
        <ele>978.59997558594</ele>
        <time>2021-09-04T09:22:52Z</time>
      </trkpt>
      <trkpt lat="44.07285" lon="5.57979">
        <ele>977.40002441406</ele>
        <time>2021-09-04T09:22:56Z</time>
      </trkpt>
      <trkpt lat="44.0729" lon="5.57969">
        <ele>977.40002441406</ele>
        <time>2021-09-04T09:22:57Z</time>
      </trkpt>
      <trkpt lat="44.07309" lon="5.57946">
        <ele>976.79998779297</ele>
        <time>2021-09-04T09:23:00Z</time>
      </trkpt>
      <trkpt lat="44.07326" lon="5.57939">
        <ele>976.20001220703</ele>
        <time>2021-09-04T09:23:02Z</time>
      </trkpt>
      <trkpt lat="44.07335" lon="5.5794">
        <ele>975.79998779297</ele>
        <time>2021-09-04T09:23:03Z</time>
      </trkpt>
      <trkpt lat="44.07344" lon="5.57942">
        <ele>975.20001220703</ele>
        <time>2021-09-04T09:23:04Z</time>
      </trkpt>
      <trkpt lat="44.07354" lon="5.57943">
        <ele>975</ele>
        <time>2021-09-04T09:23:05Z</time>
      </trkpt>
      <trkpt lat="44.07391" lon="5.57946">
        <ele>973.59997558594</ele>
        <time>2021-09-04T09:23:09Z</time>
      </trkpt>
      <trkpt lat="44.07419" lon="5.57941">
        <ele>972.59997558594</ele>
        <time>2021-09-04T09:23:12Z</time>
      </trkpt>
      <trkpt lat="44.07438" lon="5.57939">
        <ele>971.79998779297</ele>
        <time>2021-09-04T09:23:14Z</time>
      </trkpt>
      <trkpt lat="44.07448" lon="5.57938">
        <ele>971.59997558594</ele>
        <time>2021-09-04T09:23:15Z</time>
      </trkpt>
      <trkpt lat="44.07457" lon="5.57938">
        <ele>971.20001220703</ele>
        <time>2021-09-04T09:23:16Z</time>
      </trkpt>
      <trkpt lat="44.07475" lon="5.57942">
        <ele>970.40002441406</ele>
        <time>2021-09-04T09:23:18Z</time>
      </trkpt>
      <trkpt lat="44.07484" lon="5.57946">
        <ele>970</ele>
        <time>2021-09-04T09:23:19Z</time>
      </trkpt>
      <trkpt lat="44.07501" lon="5.57957">
        <ele>969.40002441406</ele>
        <time>2021-09-04T09:23:21Z</time>
      </trkpt>
      <trkpt lat="44.07522" lon="5.57984">
        <ele>968.20001220703</ele>
        <time>2021-09-04T09:23:24Z</time>
      </trkpt>
      <trkpt lat="44.07529" lon="5.57994">
        <ele>967.79998779297</ele>
        <time>2021-09-04T09:23:25Z</time>
      </trkpt>
      <trkpt lat="44.0754" lon="5.58015">
        <ele>967</ele>
        <time>2021-09-04T09:23:27Z</time>
      </trkpt>
      <trkpt lat="44.07551" lon="5.58035">
        <ele>966.20001220703</ele>
        <time>2021-09-04T09:23:29Z</time>
      </trkpt>
      <trkpt lat="44.07558" lon="5.58042">
        <ele>965.79998779297</ele>
        <time>2021-09-04T09:23:30Z</time>
      </trkpt>
      <trkpt lat="44.07566" lon="5.58046">
        <ele>965.59997558594</ele>
        <time>2021-09-04T09:23:31Z</time>
      </trkpt>
      <trkpt lat="44.0759" lon="5.58036">
        <ele>964.79998779297</ele>
        <time>2021-09-04T09:23:34Z</time>
      </trkpt>
      <trkpt lat="44.07596" lon="5.58028">
        <ele>964.79998779297</ele>
        <time>2021-09-04T09:23:35Z</time>
      </trkpt>
      <trkpt lat="44.07599" lon="5.58018">
        <ele>964.59997558594</ele>
        <time>2021-09-04T09:23:36Z</time>
      </trkpt>
      <trkpt lat="44.07598" lon="5.57986">
        <ele>964.20001220703</ele>
        <time>2021-09-04T09:23:39Z</time>
      </trkpt>
      <trkpt lat="44.07597" lon="5.57976">
        <ele>964</ele>
        <time>2021-09-04T09:23:40Z</time>
      </trkpt>
      <trkpt lat="44.07595" lon="5.57966">
        <ele>963.79998779297</ele>
        <time>2021-09-04T09:23:41Z</time>
      </trkpt>
      <trkpt lat="44.07586" lon="5.5793">
        <ele>963.20001220703</ele>
        <time>2021-09-04T09:23:45Z</time>
      </trkpt>
      <trkpt lat="44.07574" lon="5.57883">
        <ele>963.20001220703</ele>
        <time>2021-09-04T09:23:51Z</time>
      </trkpt>
      <trkpt lat="44.07555" lon="5.5784">
        <ele>964</ele>
        <time>2021-09-04T09:23:58Z</time>
      </trkpt>
      <trkpt lat="44.07552" lon="5.57835">
        <ele>964</ele>
        <time>2021-09-04T09:23:59Z</time>
      </trkpt>
      <trkpt lat="44.07533" lon="5.57813">
        <ele>964.20001220703</ele>
        <time>2021-09-04T09:24:04Z</time>
      </trkpt>
      <trkpt lat="44.07499" lon="5.57785">
        <ele>964.59997558594</ele>
        <time>2021-09-04T09:24:12Z</time>
      </trkpt>
      <trkpt lat="44.07487" lon="5.57775">
        <ele>964.79998779297</ele>
        <time>2021-09-04T09:24:15Z</time>
      </trkpt>
      <trkpt lat="44.07462" lon="5.57756">
        <ele>965.20001220703</ele>
        <time>2021-09-04T09:24:21Z</time>
      </trkpt>
      <trkpt lat="44.07432" lon="5.57737">
        <ele>965.79998779297</ele>
        <time>2021-09-04T09:24:28Z</time>
      </trkpt>
      <trkpt lat="44.07428" lon="5.57734">
        <ele>966</ele>
        <time>2021-09-04T09:24:29Z</time>
      </trkpt>
      <trkpt lat="44.0739" lon="5.57711">
        <ele>967</ele>
        <time>2021-09-04T09:24:39Z</time>
      </trkpt>
      <trkpt lat="44.07383" lon="5.57706">
        <ele>967</ele>
        <time>2021-09-04T09:24:41Z</time>
      </trkpt>
      <trkpt lat="44.07358" lon="5.57688">
        <ele>967.59997558594</ele>
        <time>2021-09-04T09:24:48Z</time>
      </trkpt>
      <trkpt lat="44.07343" lon="5.57674">
        <ele>968</ele>
        <time>2021-09-04T09:24:53Z</time>
      </trkpt>
      <trkpt lat="44.07335" lon="5.57664">
        <ele>968.40002441406</ele>
        <time>2021-09-04T09:24:56Z</time>
      </trkpt>
      <trkpt lat="44.07315" lon="5.5764">
        <ele>968.79998779297</ele>
        <time>2021-09-04T09:25:03Z</time>
      </trkpt>
      <trkpt lat="44.07306" lon="5.57623">
        <ele>969.20001220703</ele>
        <time>2021-09-04T09:25:07Z</time>
      </trkpt>
      <trkpt lat="44.073" lon="5.5761">
        <ele>969.20001220703</ele>
        <time>2021-09-04T09:25:10Z</time>
      </trkpt>
      <trkpt lat="44.07288" lon="5.57572">
        <ele>969.79998779297</ele>
        <time>2021-09-04T09:25:18Z</time>
      </trkpt>
      <trkpt lat="44.0728" lon="5.57532">
        <ele>969.79998779297</ele>
        <time>2021-09-04T09:25:26Z</time>
      </trkpt>
      <trkpt lat="44.07275" lon="5.57499">
        <ele>970.20001220703</ele>
        <time>2021-09-04T09:25:32Z</time>
      </trkpt>
      <trkpt lat="44.07275" lon="5.57493">
        <ele>970.40002441406</ele>
        <time>2021-09-04T09:25:33Z</time>
      </trkpt>
      <trkpt lat="44.07277" lon="5.57454">
        <ele>970.40002441406</ele>
        <time>2021-09-04T09:25:39Z</time>
      </trkpt>
      <trkpt lat="44.07279" lon="5.5744">
        <ele>970.20001220703</ele>
        <time>2021-09-04T09:25:41Z</time>
      </trkpt>
      <trkpt lat="44.07284" lon="5.5742">
        <ele>970</ele>
        <time>2021-09-04T09:25:44Z</time>
      </trkpt>
      <trkpt lat="44.07294" lon="5.57369">
        <ele>969.59997558594</ele>
        <time>2021-09-04T09:25:51Z</time>
      </trkpt>
      <trkpt lat="44.07296" lon="5.57362">
        <ele>969.59997558594</ele>
        <time>2021-09-04T09:25:52Z</time>
      </trkpt>
      <trkpt lat="44.07299" lon="5.57346">
        <ele>969</ele>
        <time>2021-09-04T09:25:54Z</time>
      </trkpt>
      <trkpt lat="44.07306" lon="5.57312">
        <ele>968.40002441406</ele>
        <time>2021-09-04T09:25:58Z</time>
      </trkpt>
      <trkpt lat="44.07314" lon="5.57276">
        <ele>968</ele>
        <time>2021-09-04T09:26:02Z</time>
      </trkpt>
      <trkpt lat="44.07318" lon="5.57257">
        <ele>967.79998779297</ele>
        <time>2021-09-04T09:26:04Z</time>
      </trkpt>
      <trkpt lat="44.07326" lon="5.57218">
        <ele>967</ele>
        <time>2021-09-04T09:26:08Z</time>
      </trkpt>
      <trkpt lat="44.07338" lon="5.57159">
        <ele>965.79998779297</ele>
        <time>2021-09-04T09:26:14Z</time>
      </trkpt>
      <trkpt lat="44.0734" lon="5.57149">
        <ele>965.59997558594</ele>
        <time>2021-09-04T09:26:15Z</time>
      </trkpt>
      <trkpt lat="44.07351" lon="5.57089">
        <ele>964.59997558594</ele>
        <time>2021-09-04T09:26:21Z</time>
      </trkpt>
      <trkpt lat="44.07359" lon="5.5705">
        <ele>964</ele>
        <time>2021-09-04T09:26:25Z</time>
      </trkpt>
      <trkpt lat="44.07367" lon="5.57011">
        <ele>963.59997558594</ele>
        <time>2021-09-04T09:26:29Z</time>
      </trkpt>
      <trkpt lat="44.07373" lon="5.56981">
        <ele>963</ele>
        <time>2021-09-04T09:26:32Z</time>
      </trkpt>
      <trkpt lat="44.07381" lon="5.56942">
        <ele>962.59997558594</ele>
        <time>2021-09-04T09:26:36Z</time>
      </trkpt>
      <trkpt lat="44.0739" lon="5.56892">
        <ele>962</ele>
        <time>2021-09-04T09:26:41Z</time>
      </trkpt>
      <trkpt lat="44.07393" lon="5.56848">
        <ele>961.40002441406</ele>
        <time>2021-09-04T09:26:45Z</time>
      </trkpt>
      <trkpt lat="44.07394" lon="5.56815">
        <ele>961.20001220703</ele>
        <time>2021-09-04T09:26:48Z</time>
      </trkpt>
      <trkpt lat="44.07394" lon="5.56751">
        <ele>960.40002441406</ele>
        <time>2021-09-04T09:26:54Z</time>
      </trkpt>
      <trkpt lat="44.07394" lon="5.56722">
        <ele>960.20001220703</ele>
        <time>2021-09-04T09:26:57Z</time>
      </trkpt>
      <trkpt lat="44.07394" lon="5.56639">
        <ele>960</ele>
        <time>2021-09-04T09:27:06Z</time>
      </trkpt>
      <trkpt lat="44.07394" lon="5.5663">
        <ele>960</ele>
        <time>2021-09-04T09:27:07Z</time>
      </trkpt>
      <trkpt lat="44.07402" lon="5.5657">
        <ele>960.40002441406</ele>
        <time>2021-09-04T09:27:14Z</time>
      </trkpt>
      <trkpt lat="44.07415" lon="5.56515">
        <ele>960.20001220703</ele>
        <time>2021-09-04T09:27:20Z</time>
      </trkpt>
      <trkpt lat="44.07423" lon="5.56475">
        <ele>959.20001220703</ele>
        <time>2021-09-04T09:27:24Z</time>
      </trkpt>
      <trkpt lat="44.07426" lon="5.56444">
        <ele>958.40002441406</ele>
        <time>2021-09-04T09:27:27Z</time>
      </trkpt>
      <trkpt lat="44.07426" lon="5.56433">
        <ele>958.20001220703</ele>
        <time>2021-09-04T09:27:28Z</time>
      </trkpt>
      <trkpt lat="44.07423" lon="5.56392">
        <ele>957.20001220703</ele>
        <time>2021-09-04T09:27:32Z</time>
      </trkpt>
      <trkpt lat="44.07422" lon="5.56382">
        <ele>956.79998779297</ele>
        <time>2021-09-04T09:27:33Z</time>
      </trkpt>
      <trkpt lat="44.07419" lon="5.56353">
        <ele>956.20001220703</ele>
        <time>2021-09-04T09:27:36Z</time>
      </trkpt>
      <trkpt lat="44.07413" lon="5.56305">
        <ele>954.79998779297</ele>
        <time>2021-09-04T09:27:41Z</time>
      </trkpt>
      <trkpt lat="44.07412" lon="5.56295">
        <ele>954.40002441406</ele>
        <time>2021-09-04T09:27:42Z</time>
      </trkpt>
      <trkpt lat="44.07404" lon="5.56218">
        <ele>954.20001220703</ele>
        <time>2021-09-04T09:27:50Z</time>
      </trkpt>
      <trkpt lat="44.074" lon="5.56183">
        <ele>954</ele>
        <time>2021-09-04T09:27:54Z</time>
      </trkpt>
      <trkpt lat="44.07392" lon="5.56108">
        <ele>953.79998779297</ele>
        <time>2021-09-04T09:28:03Z</time>
      </trkpt>
      <trkpt lat="44.07391" lon="5.561">
        <ele>953.79998779297</ele>
        <time>2021-09-04T09:28:04Z</time>
      </trkpt>
      <trkpt lat="44.0739" lon="5.56092">
        <ele>953.79998779297</ele>
        <time>2021-09-04T09:28:05Z</time>
      </trkpt>
      <trkpt lat="44.07383" lon="5.56032">
        <ele>953.20001220703</ele>
        <time>2021-09-04T09:28:12Z</time>
      </trkpt>
      <trkpt lat="44.0738" lon="5.55993">
        <ele>952.59997558594</ele>
        <time>2021-09-04T09:28:16Z</time>
      </trkpt>
      <trkpt lat="44.0738" lon="5.55983">
        <ele>952.40002441406</ele>
        <time>2021-09-04T09:28:17Z</time>
      </trkpt>
      <trkpt lat="44.07383" lon="5.55973">
        <ele>952.20001220703</ele>
        <time>2021-09-04T09:28:18Z</time>
      </trkpt>
      <trkpt lat="44.07397" lon="5.55946">
        <ele>951.40002441406</ele>
        <time>2021-09-04T09:28:21Z</time>
      </trkpt>
      <trkpt lat="44.0742" lon="5.5593">
        <ele>950.59997558594</ele>
        <time>2021-09-04T09:28:24Z</time>
      </trkpt>
      <trkpt lat="44.07429" lon="5.55928">
        <ele>950.20001220703</ele>
        <time>2021-09-04T09:28:25Z</time>
      </trkpt>
      <trkpt lat="44.07447" lon="5.55927">
        <ele>949.40002441406</ele>
        <time>2021-09-04T09:28:27Z</time>
      </trkpt>
      <trkpt lat="44.07456" lon="5.55927">
        <ele>949</ele>
        <time>2021-09-04T09:28:28Z</time>
      </trkpt>
      <trkpt lat="44.07475" lon="5.55929">
        <ele>947.79998779297</ele>
        <time>2021-09-04T09:28:30Z</time>
      </trkpt>
      <trkpt lat="44.07494" lon="5.55929">
        <ele>947.20001220703</ele>
        <time>2021-09-04T09:28:32Z</time>
      </trkpt>
      <trkpt lat="44.07504" lon="5.55926">
        <ele>946.79998779297</ele>
        <time>2021-09-04T09:28:33Z</time>
      </trkpt>
      <trkpt lat="44.07513" lon="5.55923">
        <ele>946.40002441406</ele>
        <time>2021-09-04T09:28:34Z</time>
      </trkpt>
      <trkpt lat="44.07539" lon="5.55905">
        <ele>945.40002441406</ele>
        <time>2021-09-04T09:28:37Z</time>
      </trkpt>
      <trkpt lat="44.07555" lon="5.55888">
        <ele>944.59997558594</ele>
        <time>2021-09-04T09:28:39Z</time>
      </trkpt>
      <trkpt lat="44.07562" lon="5.55879">
        <ele>944.20001220703</ele>
        <time>2021-09-04T09:28:40Z</time>
      </trkpt>
      <trkpt lat="44.07569" lon="5.55869">
        <ele>943.79998779297</ele>
        <time>2021-09-04T09:28:41Z</time>
      </trkpt>
      <trkpt lat="44.07582" lon="5.5585">
        <ele>942.79998779297</ele>
        <time>2021-09-04T09:28:43Z</time>
      </trkpt>
      <trkpt lat="44.07594" lon="5.55833">
        <ele>941.59997558594</ele>
        <time>2021-09-04T09:28:45Z</time>
      </trkpt>
      <trkpt lat="44.07605" lon="5.55816">
        <ele>941</ele>
        <time>2021-09-04T09:28:47Z</time>
      </trkpt>
      <trkpt lat="44.07615" lon="5.55799">
        <ele>940.59997558594</ele>
        <time>2021-09-04T09:28:49Z</time>
      </trkpt>
      <trkpt lat="44.07641" lon="5.5576">
        <ele>940.40002441406</ele>
        <time>2021-09-04T09:28:54Z</time>
      </trkpt>
      <trkpt lat="44.07677" lon="5.55706">
        <ele>939.59997558594</ele>
        <time>2021-09-04T09:29:01Z</time>
      </trkpt>
      <trkpt lat="44.07687" lon="5.55691">
        <ele>939.40002441406</ele>
        <time>2021-09-04T09:29:03Z</time>
      </trkpt>
      <trkpt lat="44.07726" lon="5.55641">
        <ele>939.59997558594</ele>
        <time>2021-09-04T09:29:11Z</time>
      </trkpt>
      <trkpt lat="44.0777" lon="5.55595">
        <ele>939.59997558594</ele>
        <time>2021-09-04T09:29:19Z</time>
      </trkpt>
      <trkpt lat="44.07776" lon="5.55588">
        <ele>939.40002441406</ele>
        <time>2021-09-04T09:29:20Z</time>
      </trkpt>
      <trkpt lat="44.07809" lon="5.55554">
        <ele>938.40002441406</ele>
        <time>2021-09-04T09:29:25Z</time>
      </trkpt>
      <trkpt lat="44.07822" lon="5.5554">
        <ele>937.79998779297</ele>
        <time>2021-09-04T09:29:27Z</time>
      </trkpt>
      <trkpt lat="44.07837" lon="5.55525">
        <ele>937.20001220703</ele>
        <time>2021-09-04T09:29:29Z</time>
      </trkpt>
      <trkpt lat="44.07866" lon="5.55495">
        <ele>935.79998779297</ele>
        <time>2021-09-04T09:29:33Z</time>
      </trkpt>
      <trkpt lat="44.0788" lon="5.55479">
        <ele>935.40002441406</ele>
        <time>2021-09-04T09:29:35Z</time>
      </trkpt>
      <trkpt lat="44.07894" lon="5.55465">
        <ele>934.79998779297</ele>
        <time>2021-09-04T09:29:37Z</time>
      </trkpt>
      <trkpt lat="44.07933" lon="5.55425">
        <ele>934</ele>
        <time>2021-09-04T09:29:43Z</time>
      </trkpt>
      <trkpt lat="44.07939" lon="5.55419">
        <ele>933.79998779297</ele>
        <time>2021-09-04T09:29:44Z</time>
      </trkpt>
      <trkpt lat="44.07945" lon="5.55413">
        <ele>933.79998779297</ele>
        <time>2021-09-04T09:29:45Z</time>
      </trkpt>
      <trkpt lat="44.07971" lon="5.55385">
        <ele>933.79998779297</ele>
        <time>2021-09-04T09:29:50Z</time>
      </trkpt>
      <trkpt lat="44.08007" lon="5.55348">
        <ele>934.20001220703</ele>
        <time>2021-09-04T09:29:58Z</time>
      </trkpt>
      <trkpt lat="44.0803" lon="5.55323">
        <ele>934.79998779297</ele>
        <time>2021-09-04T09:30:04Z</time>
      </trkpt>
      <trkpt lat="44.08034" lon="5.55319">
        <ele>934.79998779297</ele>
        <time>2021-09-04T09:30:05Z</time>
      </trkpt>
      <trkpt lat="44.08037" lon="5.55315">
        <ele>935.20001220703</ele>
        <time>2021-09-04T09:30:06Z</time>
      </trkpt>
      <trkpt lat="44.08054" lon="5.55294">
        <ele>935.59997558594</ele>
        <time>2021-09-04T09:30:11Z</time>
      </trkpt>
      <trkpt lat="44.0806" lon="5.55286">
        <ele>935.79998779297</ele>
        <time>2021-09-04T09:30:13Z</time>
      </trkpt>
      <trkpt lat="44.08063" lon="5.55281">
        <ele>936</ele>
        <time>2021-09-04T09:30:14Z</time>
      </trkpt>
      <trkpt lat="44.0808" lon="5.55248">
        <ele>936.40002441406</ele>
        <time>2021-09-04T09:30:21Z</time>
      </trkpt>
      <trkpt lat="44.08091" lon="5.55222">
        <ele>937</ele>
        <time>2021-09-04T09:30:26Z</time>
      </trkpt>
      <trkpt lat="44.08095" lon="5.55212">
        <ele>937.20001220703</ele>
        <time>2021-09-04T09:30:28Z</time>
      </trkpt>
      <trkpt lat="44.08114" lon="5.55164">
        <ele>937.59997558594</ele>
        <time>2021-09-04T09:30:37Z</time>
      </trkpt>
      <trkpt lat="44.08129" lon="5.55127">
        <ele>938</ele>
        <time>2021-09-04T09:30:45Z</time>
      </trkpt>
      <trkpt lat="44.08139" lon="5.55108">
        <ele>939.20001220703</ele>
        <time>2021-09-04T09:30:51Z</time>
      </trkpt>
      <trkpt lat="44.0814" lon="5.55105">
        <ele>939.40002441406</ele>
        <time>2021-09-04T09:30:52Z</time>
      </trkpt>
      <trkpt lat="44.08144" lon="5.55096">
        <ele>940.20001220703</ele>
        <time>2021-09-04T09:30:55Z</time>
      </trkpt>
      <trkpt lat="44.08151" lon="5.55088">
        <ele>941</ele>
        <time>2021-09-04T09:30:59Z</time>
      </trkpt>
      <trkpt lat="44.08154" lon="5.55083">
        <ele>941.40002441406</ele>
        <time>2021-09-04T09:31:01Z</time>
      </trkpt>
      <trkpt lat="44.08161" lon="5.5507">
        <ele>941.59997558594</ele>
        <time>2021-09-04T09:31:06Z</time>
      </trkpt>
      <trkpt lat="44.08173" lon="5.5506">
        <ele>941.79998779297</ele>
        <time>2021-09-04T09:31:12Z</time>
      </trkpt>
      <trkpt lat="44.08181" lon="5.55051">
        <ele>942.40002441406</ele>
        <time>2021-09-04T09:31:16Z</time>
      </trkpt>
      <trkpt lat="44.08192" lon="5.5504">
        <ele>943.40002441406</ele>
        <time>2021-09-04T09:31:22Z</time>
      </trkpt>
      <trkpt lat="44.08204" lon="5.55028">
        <ele>944</ele>
        <time>2021-09-04T09:31:28Z</time>
      </trkpt>
      <trkpt lat="44.08211" lon="5.5502">
        <ele>944.40002441406</ele>
        <time>2021-09-04T09:31:32Z</time>
      </trkpt>
      <trkpt lat="44.08219" lon="5.55013">
        <ele>945</ele>
        <time>2021-09-04T09:31:36Z</time>
      </trkpt>
      <trkpt lat="44.08227" lon="5.55006">
        <ele>945.59997558594</ele>
        <time>2021-09-04T09:31:40Z</time>
      </trkpt>
      <trkpt lat="44.08235" lon="5.54998">
        <ele>946.40002441406</ele>
        <time>2021-09-04T09:31:44Z</time>
      </trkpt>
      <trkpt lat="44.08242" lon="5.54992">
        <ele>946.59997558594</ele>
        <time>2021-09-04T09:31:47Z</time>
      </trkpt>
      <trkpt lat="44.08254" lon="5.5498">
        <ele>947.20001220703</ele>
        <time>2021-09-04T09:31:53Z</time>
      </trkpt>
      <trkpt lat="44.08268" lon="5.54967">
        <ele>947.79998779297</ele>
        <time>2021-09-04T09:31:59Z</time>
      </trkpt>
      <trkpt lat="44.08275" lon="5.54959">
        <ele>948.20001220703</ele>
        <time>2021-09-04T09:32:02Z</time>
      </trkpt>
      <trkpt lat="44.08296" lon="5.5494">
        <ele>948.79998779297</ele>
        <time>2021-09-04T09:32:10Z</time>
      </trkpt>
      <trkpt lat="44.08298" lon="5.54938">
        <ele>948.79998779297</ele>
        <time>2021-09-04T09:32:11Z</time>
      </trkpt>
      <trkpt lat="44.08323" lon="5.54913">
        <ele>949.20001220703</ele>
        <time>2021-09-04T09:32:20Z</time>
      </trkpt>
      <trkpt lat="44.08337" lon="5.54889">
        <ele>949.59997558594</ele>
        <time>2021-09-04T09:32:27Z</time>
      </trkpt>
      <trkpt lat="44.08342" lon="5.54872">
        <ele>949.79998779297</ele>
        <time>2021-09-04T09:32:31Z</time>
      </trkpt>
      <trkpt lat="44.08345" lon="5.5486">
        <ele>950</ele>
        <time>2021-09-04T09:32:34Z</time>
      </trkpt>
      <trkpt lat="44.08348" lon="5.54839">
        <ele>950.20001220703</ele>
        <time>2021-09-04T09:32:39Z</time>
      </trkpt>
      <trkpt lat="44.08348" lon="5.54835">
        <ele>950.20001220703</ele>
        <time>2021-09-04T09:32:40Z</time>
      </trkpt>
      <trkpt lat="44.08349" lon="5.54821">
        <ele>950</ele>
        <time>2021-09-04T09:32:44Z</time>
      </trkpt>
      <trkpt lat="44.08346" lon="5.54798">
        <ele>950</ele>
        <time>2021-09-04T09:32:50Z</time>
      </trkpt>
      <trkpt lat="44.08345" lon="5.54788">
        <ele>950</ele>
        <time>2021-09-04T09:32:53Z</time>
      </trkpt>
      <trkpt lat="44.08343" lon="5.54786">
        <ele>950</ele>
        <time>2021-09-04T09:32:54Z</time>
      </trkpt>
      <trkpt lat="44.08336" lon="5.54788">
        <ele>949.79998779297</ele>
        <time>2021-09-04T09:32:57Z</time>
      </trkpt>
      <trkpt lat="44.08327" lon="5.54786">
        <ele>949.59997558594</ele>
        <time>2021-09-04T09:51:10Z</time>
      </trkpt>
      <trkpt lat="44.08335" lon="5.54781">
        <ele>949.40002441406</ele>
        <time>2021-09-04T09:51:33Z</time>
      </trkpt>
      <trkpt lat="44.08332" lon="5.54784">
        <ele>949.40002441406</ele>
        <time>2021-09-04T09:51:35Z</time>
      </trkpt>
      <trkpt lat="44.08318" lon="5.54786">
        <ele>949.59997558594</ele>
        <time>2021-09-04T09:51:40Z</time>
      </trkpt>
      <trkpt lat="44.08307" lon="5.54786">
        <ele>950</ele>
        <time>2021-09-04T09:51:45Z</time>
      </trkpt>
      <trkpt lat="44.08311" lon="5.54789">
        <ele>949.79998779297</ele>
        <time>2021-09-04T09:52:08Z</time>
      </trkpt>
      <trkpt lat="44.08313" lon="5.54788">
        <ele>949.79998779297</ele>
        <time>2021-09-04T09:52:09Z</time>
      </trkpt>
      <trkpt lat="44.08328" lon="5.5479">
        <ele>949.79998779297</ele>
        <time>2021-09-04T09:52:16Z</time>
      </trkpt>
      <trkpt lat="44.08338" lon="5.54787">
        <ele>949.59997558594</ele>
        <time>2021-09-04T09:53:20Z</time>
      </trkpt>
      <trkpt lat="44.08342" lon="5.54784">
        <ele>949.59997558594</ele>
        <time>2021-09-04T09:53:22Z</time>
      </trkpt>
      <trkpt lat="44.08341" lon="5.54775">
        <ele>949.59997558594</ele>
        <time>2021-09-04T09:53:24Z</time>
      </trkpt>
      <trkpt lat="44.0834" lon="5.54742">
        <ele>949</ele>
        <time>2021-09-04T09:53:30Z</time>
      </trkpt>
      <trkpt lat="44.0834" lon="5.54728">
        <ele>948.79998779297</ele>
        <time>2021-09-04T09:53:32Z</time>
      </trkpt>
      <trkpt lat="44.0834" lon="5.54705">
        <ele>948.20001220703</ele>
        <time>2021-09-04T09:53:36Z</time>
      </trkpt>
      <trkpt lat="44.08339" lon="5.54701">
        <ele>946.59997558594</ele>
        <time>2021-09-04T09:53:47Z</time>
      </trkpt>
      <trkpt lat="44.08338" lon="5.54707">
        <ele>946.40002441406</ele>
        <time>2021-09-04T09:53:50Z</time>
      </trkpt>
      <trkpt lat="44.08337" lon="5.54714">
        <ele>946.40002441406</ele>
        <time>2021-09-04T09:53:52Z</time>
      </trkpt>
      <trkpt lat="44.08336" lon="5.54725">
        <ele>946.59997558594</ele>
        <time>2021-09-04T09:53:55Z</time>
      </trkpt>
      <trkpt lat="44.08333" lon="5.54748">
        <ele>947.40002441406</ele>
        <time>2021-09-04T09:54:02Z</time>
      </trkpt>
      <trkpt lat="44.08334" lon="5.54751">
        <ele>947.59997558594</ele>
        <time>2021-09-04T09:54:03Z</time>
      </trkpt>
      <trkpt lat="44.08336" lon="5.54766">
        <ele>948</ele>
        <time>2021-09-04T09:54:08Z</time>
      </trkpt>
      <trkpt lat="44.08337" lon="5.5478">
        <ele>948.59997558594</ele>
        <time>2021-09-04T09:54:12Z</time>
      </trkpt>
      <trkpt lat="44.08337" lon="5.54782">
        <ele>948.59997558594</ele>
        <time>2021-09-04T09:54:13Z</time>
      </trkpt>
      <trkpt lat="44.0834" lon="5.54806">
        <ele>949.20001220703</ele>
        <time>2021-09-04T09:54:19Z</time>
      </trkpt>
      <trkpt lat="44.08344" lon="5.54833">
        <ele>949.59997558594</ele>
        <time>2021-09-04T09:54:25Z</time>
      </trkpt>
      <trkpt lat="44.08343" lon="5.54837">
        <ele>949.79998779297</ele>
        <time>2021-09-04T09:54:26Z</time>
      </trkpt>
      <trkpt lat="44.08343" lon="5.54852">
        <ele>949.79998779297</ele>
        <time>2021-09-04T09:54:31Z</time>
      </trkpt>
      <trkpt lat="44.08353" lon="5.54853">
        <ele>950</ele>
        <time>2021-09-04T09:54:34Z</time>
      </trkpt>
      <trkpt lat="44.08357" lon="5.54853">
        <ele>950</ele>
        <time>2021-09-04T09:54:35Z</time>
      </trkpt>
      <trkpt lat="44.08377" lon="5.54852">
        <ele>949.79998779297</ele>
        <time>2021-09-04T09:54:40Z</time>
      </trkpt>
      <trkpt lat="44.08397" lon="5.54853">
        <ele>948.59997558594</ele>
        <time>2021-09-04T09:54:45Z</time>
      </trkpt>
      <trkpt lat="44.08404" lon="5.54855">
        <ele>948</ele>
        <time>2021-09-04T09:54:47Z</time>
      </trkpt>
      <trkpt lat="44.08409" lon="5.54863">
        <ele>947.59997558594</ele>
        <time>2021-09-04T09:54:49Z</time>
      </trkpt>
      <trkpt lat="44.08409" lon="5.54868">
        <ele>947.20001220703</ele>
        <time>2021-09-04T09:54:50Z</time>
      </trkpt>
      <trkpt lat="44.08405" lon="5.54885">
        <ele>946.40002441406</ele>
        <time>2021-09-04T09:54:53Z</time>
      </trkpt>
      <trkpt lat="44.08404" lon="5.5489">
        <ele>946.20001220703</ele>
        <time>2021-09-04T09:54:54Z</time>
      </trkpt>
      <trkpt lat="44.08394" lon="5.54925">
        <ele>945.20001220703</ele>
        <time>2021-09-04T09:55:00Z</time>
      </trkpt>
      <trkpt lat="44.08392" lon="5.54932">
        <ele>945.20001220703</ele>
        <time>2021-09-04T09:55:01Z</time>
      </trkpt>
      <trkpt lat="44.0839" lon="5.54948">
        <ele>945</ele>
        <time>2021-09-04T09:55:03Z</time>
      </trkpt>
      <trkpt lat="44.08392" lon="5.54971">
        <ele>944.40002441406</ele>
        <time>2021-09-04T09:55:06Z</time>
      </trkpt>
      <trkpt lat="44.08393" lon="5.54979">
        <ele>944.20001220703</ele>
        <time>2021-09-04T09:55:07Z</time>
      </trkpt>
      <trkpt lat="44.08395" lon="5.54986">
        <ele>944</ele>
        <time>2021-09-04T09:55:08Z</time>
      </trkpt>
      <trkpt lat="44.08402" lon="5.55001">
        <ele>943.40002441406</ele>
        <time>2021-09-04T09:55:10Z</time>
      </trkpt>
      <trkpt lat="44.08405" lon="5.55009">
        <ele>943</ele>
        <time>2021-09-04T09:55:11Z</time>
      </trkpt>
      <trkpt lat="44.08417" lon="5.55035">
        <ele>942</ele>
        <time>2021-09-04T09:55:14Z</time>
      </trkpt>
      <trkpt lat="44.08425" lon="5.55052">
        <ele>941.20001220703</ele>
        <time>2021-09-04T09:55:16Z</time>
      </trkpt>
      <trkpt lat="44.08428" lon="5.55062">
        <ele>940.79998779297</ele>
        <time>2021-09-04T09:55:17Z</time>
      </trkpt>
      <trkpt lat="44.08438" lon="5.55079">
        <ele>939.79998779297</ele>
        <time>2021-09-04T09:55:19Z</time>
      </trkpt>
      <trkpt lat="44.08444" lon="5.55086">
        <ele>939.20001220703</ele>
        <time>2021-09-04T09:55:20Z</time>
      </trkpt>
      <trkpt lat="44.0845" lon="5.55092">
        <ele>938.20001220703</ele>
        <time>2021-09-04T09:55:21Z</time>
      </trkpt>
      <trkpt lat="44.08462" lon="5.55106">
        <ele>937.40002441406</ele>
        <time>2021-09-04T09:55:23Z</time>
      </trkpt>
      <trkpt lat="44.08467" lon="5.55113">
        <ele>937</ele>
        <time>2021-09-04T09:55:24Z</time>
      </trkpt>
      <trkpt lat="44.08473" lon="5.55119">
        <ele>936.79998779297</ele>
        <time>2021-09-04T09:55:25Z</time>
      </trkpt>
      <trkpt lat="44.08492" lon="5.55144">
        <ele>936</ele>
        <time>2021-09-04T09:55:29Z</time>
      </trkpt>
      <trkpt lat="44.08506" lon="5.55161">
        <ele>935.59997558594</ele>
        <time>2021-09-04T09:55:32Z</time>
      </trkpt>
      <trkpt lat="44.08536" lon="5.55198">
        <ele>935.59997558594</ele>
        <time>2021-09-04T09:55:39Z</time>
      </trkpt>
      <trkpt lat="44.08556" lon="5.55222">
        <ele>936.40002441406</ele>
        <time>2021-09-04T09:55:45Z</time>
      </trkpt>
      <trkpt lat="44.08576" lon="5.55251">
        <ele>937</ele>
        <time>2021-09-04T09:55:52Z</time>
      </trkpt>
      <trkpt lat="44.08579" lon="5.55256">
        <ele>937</ele>
        <time>2021-09-04T09:55:53Z</time>
      </trkpt>
      <trkpt lat="44.08597" lon="5.55296">
        <ele>937</ele>
        <time>2021-09-04T09:56:01Z</time>
      </trkpt>
      <trkpt lat="44.08619" lon="5.55343">
        <ele>937.40002441406</ele>
        <time>2021-09-04T09:56:11Z</time>
      </trkpt>
      <trkpt lat="44.08631" lon="5.55369">
        <ele>938</ele>
        <time>2021-09-04T09:56:17Z</time>
      </trkpt>
      <trkpt lat="44.08635" lon="5.55377">
        <ele>938.20001220703</ele>
        <time>2021-09-04T09:56:19Z</time>
      </trkpt>
      <trkpt lat="44.08652" lon="5.55414">
        <ele>939</ele>
        <time>2021-09-04T09:56:28Z</time>
      </trkpt>
      <trkpt lat="44.08671" lon="5.55449">
        <ele>940</ele>
        <time>2021-09-04T09:56:37Z</time>
      </trkpt>
      <trkpt lat="44.08688" lon="5.55476">
        <ele>940.79998779297</ele>
        <time>2021-09-04T09:56:45Z</time>
      </trkpt>
      <trkpt lat="44.08694" lon="5.55481">
        <ele>941.20001220703</ele>
        <time>2021-09-04T09:56:47Z</time>
      </trkpt>
      <trkpt lat="44.08705" lon="5.55498">
        <ele>942</ele>
        <time>2021-09-04T09:56:52Z</time>
      </trkpt>
      <trkpt lat="44.08719" lon="5.55515">
        <ele>942.20001220703</ele>
        <time>2021-09-04T09:56:58Z</time>
      </trkpt>
      <trkpt lat="44.08728" lon="5.55526">
        <ele>942.59997558594</ele>
        <time>2021-09-04T09:57:02Z</time>
      </trkpt>
      <trkpt lat="44.0874" lon="5.55539">
        <ele>943.20001220703</ele>
        <time>2021-09-04T09:57:07Z</time>
      </trkpt>
      <trkpt lat="44.08749" lon="5.55551">
        <ele>943.59997558594</ele>
        <time>2021-09-04T09:57:11Z</time>
      </trkpt>
      <trkpt lat="44.08764" lon="5.55567">
        <ele>944.40002441406</ele>
        <time>2021-09-04T09:57:17Z</time>
      </trkpt>
      <trkpt lat="44.08769" lon="5.55573">
        <ele>944.40002441406</ele>
        <time>2021-09-04T09:57:19Z</time>
      </trkpt>
      <trkpt lat="44.08782" lon="5.5559">
        <ele>945.40002441406</ele>
        <time>2021-09-04T09:57:25Z</time>
      </trkpt>
      <trkpt lat="44.08789" lon="5.55598">
        <ele>945.59997558594</ele>
        <time>2021-09-04T09:57:28Z</time>
      </trkpt>
      <trkpt lat="44.08806" lon="5.55619">
        <ele>946.40002441406</ele>
        <time>2021-09-04T09:57:35Z</time>
      </trkpt>
      <trkpt lat="44.08814" lon="5.55627">
        <ele>946.40002441406</ele>
        <time>2021-09-04T09:57:38Z</time>
      </trkpt>
      <trkpt lat="44.08831" lon="5.55648">
        <ele>947.20001220703</ele>
        <time>2021-09-04T09:57:45Z</time>
      </trkpt>
      <trkpt lat="44.08836" lon="5.55654">
        <ele>947.40002441406</ele>
        <time>2021-09-04T09:57:47Z</time>
      </trkpt>
      <trkpt lat="44.08855" lon="5.55677">
        <ele>948.20001220703</ele>
        <time>2021-09-04T09:57:55Z</time>
      </trkpt>
      <trkpt lat="44.0886" lon="5.55682">
        <ele>948.40002441406</ele>
        <time>2021-09-04T09:57:57Z</time>
      </trkpt>
      <trkpt lat="44.08877" lon="5.55702">
        <ele>949.40002441406</ele>
        <time>2021-09-04T09:58:04Z</time>
      </trkpt>
      <trkpt lat="44.08879" lon="5.55704">
        <ele>949.40002441406</ele>
        <time>2021-09-04T09:58:05Z</time>
      </trkpt>
      <trkpt lat="44.08895" lon="5.55724">
        <ele>950.40002441406</ele>
        <time>2021-09-04T09:58:12Z</time>
      </trkpt>
      <trkpt lat="44.08898" lon="5.55727">
        <ele>950.40002441406</ele>
        <time>2021-09-04T09:58:13Z</time>
      </trkpt>
      <trkpt lat="44.08916" lon="5.55749">
        <ele>951.59997558594</ele>
        <time>2021-09-04T09:58:21Z</time>
      </trkpt>
      <trkpt lat="44.08934" lon="5.55771">
        <ele>952.59997558594</ele>
        <time>2021-09-04T09:58:29Z</time>
      </trkpt>
      <trkpt lat="44.08943" lon="5.55782">
        <ele>953.20001220703</ele>
        <time>2021-09-04T09:58:33Z</time>
      </trkpt>
      <trkpt lat="44.08948" lon="5.55787">
        <ele>953.59997558594</ele>
        <time>2021-09-04T09:58:35Z</time>
      </trkpt>
      <trkpt lat="44.0895" lon="5.5579">
        <ele>953.59997558594</ele>
        <time>2021-09-04T09:58:36Z</time>
      </trkpt>
      <trkpt lat="44.08962" lon="5.55805">
        <ele>954.59997558594</ele>
        <time>2021-09-04T09:58:42Z</time>
      </trkpt>
      <trkpt lat="44.08964" lon="5.55808">
        <ele>954.79998779297</ele>
        <time>2021-09-04T09:58:43Z</time>
      </trkpt>
      <trkpt lat="44.08974" lon="5.55818">
        <ele>955.79998779297</ele>
        <time>2021-09-04T09:58:48Z</time>
      </trkpt>
      <trkpt lat="44.08982" lon="5.55823">
        <ele>956.40002441406</ele>
        <time>2021-09-04T09:58:51Z</time>
      </trkpt>
      <trkpt lat="44.08991" lon="5.55831">
        <ele>956.79998779297</ele>
        <time>2021-09-04T09:58:55Z</time>
      </trkpt>
      <trkpt lat="44.09002" lon="5.55838">
        <ele>957.40002441406</ele>
        <time>2021-09-04T09:58:59Z</time>
      </trkpt>
      <trkpt lat="44.09012" lon="5.55843">
        <ele>958</ele>
        <time>2021-09-04T09:59:03Z</time>
      </trkpt>
      <trkpt lat="44.0902" lon="5.55849">
        <ele>958.40002441406</ele>
        <time>2021-09-04T09:59:07Z</time>
      </trkpt>
      <trkpt lat="44.09027" lon="5.55853">
        <ele>959</ele>
        <time>2021-09-04T09:59:10Z</time>
      </trkpt>
      <trkpt lat="44.09042" lon="5.55861">
        <ele>959.59997558594</ele>
        <time>2021-09-04T09:59:17Z</time>
      </trkpt>
      <trkpt lat="44.09049" lon="5.55866">
        <ele>960</ele>
        <time>2021-09-04T09:59:20Z</time>
      </trkpt>
      <trkpt lat="44.09063" lon="5.55873">
        <ele>960.79998779297</ele>
        <time>2021-09-04T09:59:26Z</time>
      </trkpt>
      <trkpt lat="44.0907" lon="5.55876">
        <ele>961</ele>
        <time>2021-09-04T09:59:29Z</time>
      </trkpt>
      <trkpt lat="44.09079" lon="5.55882">
        <ele>961.59997558594</ele>
        <time>2021-09-04T09:59:33Z</time>
      </trkpt>
      <trkpt lat="44.09085" lon="5.55885">
        <ele>962</ele>
        <time>2021-09-04T09:59:36Z</time>
      </trkpt>
      <trkpt lat="44.09098" lon="5.55894">
        <ele>962.79998779297</ele>
        <time>2021-09-04T09:59:42Z</time>
      </trkpt>
      <trkpt lat="44.09102" lon="5.55897">
        <ele>963</ele>
        <time>2021-09-04T09:59:44Z</time>
      </trkpt>
      <trkpt lat="44.09116" lon="5.55903">
        <ele>964</ele>
        <time>2021-09-04T09:59:50Z</time>
      </trkpt>
      <trkpt lat="44.0913" lon="5.55912">
        <ele>965.20001220703</ele>
        <time>2021-09-04T09:59:56Z</time>
      </trkpt>
      <trkpt lat="44.09132" lon="5.55913">
        <ele>965.40002441406</ele>
        <time>2021-09-04T09:59:57Z</time>
      </trkpt>
      <trkpt lat="44.09144" lon="5.55922">
        <ele>966.40002441406</ele>
        <time>2021-09-04T10:00:03Z</time>
      </trkpt>
      <trkpt lat="44.09146" lon="5.55924">
        <ele>966.59997558594</ele>
        <time>2021-09-04T10:00:04Z</time>
      </trkpt>
      <trkpt lat="44.09159" lon="5.55934">
        <ele>967.40002441406</ele>
        <time>2021-09-04T10:00:10Z</time>
      </trkpt>
      <trkpt lat="44.09163" lon="5.55939">
        <ele>967.79998779297</ele>
        <time>2021-09-04T10:00:12Z</time>
      </trkpt>
      <trkpt lat="44.09174" lon="5.55951">
        <ele>968.59997558594</ele>
        <time>2021-09-04T10:00:17Z</time>
      </trkpt>
      <trkpt lat="44.09184" lon="5.55962">
        <ele>969.59997558594</ele>
        <time>2021-09-04T10:00:22Z</time>
      </trkpt>
      <trkpt lat="44.09186" lon="5.55965">
        <ele>969.59997558594</ele>
        <time>2021-09-04T10:00:23Z</time>
      </trkpt>
      <trkpt lat="44.09188" lon="5.55968">
        <ele>969.79998779297</ele>
        <time>2021-09-04T10:00:24Z</time>
      </trkpt>
      <trkpt lat="44.09201" lon="5.55985">
        <ele>970.59997558594</ele>
        <time>2021-09-04T10:00:30Z</time>
      </trkpt>
      <trkpt lat="44.09203" lon="5.55988">
        <ele>970.59997558594</ele>
        <time>2021-09-04T10:00:31Z</time>
      </trkpt>
      <trkpt lat="44.09218" lon="5.5601">
        <ele>971.59997558594</ele>
        <time>2021-09-04T10:00:38Z</time>
      </trkpt>
      <trkpt lat="44.0922" lon="5.56014">
        <ele>971.79998779297</ele>
        <time>2021-09-04T10:00:39Z</time>
      </trkpt>
      <trkpt lat="44.0924" lon="5.56045">
        <ele>972.59997558594</ele>
        <time>2021-09-04T10:00:48Z</time>
      </trkpt>
      <trkpt lat="44.09242" lon="5.56049">
        <ele>972.79998779297</ele>
        <time>2021-09-04T10:00:49Z</time>
      </trkpt>
      <trkpt lat="44.09259" lon="5.56075">
        <ele>973.79998779297</ele>
        <time>2021-09-04T10:00:57Z</time>
      </trkpt>
      <trkpt lat="44.09261" lon="5.56079">
        <ele>974</ele>
        <time>2021-09-04T10:00:58Z</time>
      </trkpt>
      <trkpt lat="44.09281" lon="5.56111">
        <ele>974.40002441406</ele>
        <time>2021-09-04T10:01:07Z</time>
      </trkpt>
      <trkpt lat="44.09295" lon="5.56135">
        <ele>975</ele>
        <time>2021-09-04T10:01:13Z</time>
      </trkpt>
      <trkpt lat="44.09304" lon="5.56153">
        <ele>975.20001220703</ele>
        <time>2021-09-04T10:01:17Z</time>
      </trkpt>
      <trkpt lat="44.09321" lon="5.56195">
        <ele>975.20001220703</ele>
        <time>2021-09-04T10:01:24Z</time>
      </trkpt>
      <trkpt lat="44.09338" lon="5.56245">
        <ele>975.20001220703</ele>
        <time>2021-09-04T10:01:32Z</time>
      </trkpt>
      <trkpt lat="44.09359" lon="5.563">
        <ele>975.20001220703</ele>
        <time>2021-09-04T10:01:41Z</time>
      </trkpt>
      <trkpt lat="44.09372" lon="5.56337">
        <ele>976</ele>
        <time>2021-09-04T10:01:48Z</time>
      </trkpt>
      <trkpt lat="44.09374" lon="5.56341">
        <ele>976.40002441406</ele>
        <time>2021-09-04T10:01:49Z</time>
      </trkpt>
      <trkpt lat="44.0938" lon="5.56357">
        <ele>977</ele>
        <time>2021-09-04T10:01:53Z</time>
      </trkpt>
      <trkpt lat="44.09388" lon="5.56374">
        <ele>977.79998779297</ele>
        <time>2021-09-04T10:01:58Z</time>
      </trkpt>
      <trkpt lat="44.09393" lon="5.56385">
        <ele>978.20001220703</ele>
        <time>2021-09-04T10:02:01Z</time>
      </trkpt>
      <trkpt lat="44.09402" lon="5.56397">
        <ele>979</ele>
        <time>2021-09-04T10:02:05Z</time>
      </trkpt>
      <trkpt lat="44.09409" lon="5.56405">
        <ele>979.20001220703</ele>
        <time>2021-09-04T10:02:08Z</time>
      </trkpt>
      <trkpt lat="44.09424" lon="5.56418">
        <ele>979.79998779297</ele>
        <time>2021-09-04T10:02:14Z</time>
      </trkpt>
      <trkpt lat="44.09435" lon="5.56429">
        <ele>980.20001220703</ele>
        <time>2021-09-04T10:02:18Z</time>
      </trkpt>
      <trkpt lat="44.09443" lon="5.56436">
        <ele>980.40002441406</ele>
        <time>2021-09-04T10:02:21Z</time>
      </trkpt>
      <trkpt lat="44.09467" lon="5.56456">
        <ele>981</ele>
        <time>2021-09-04T10:02:29Z</time>
      </trkpt>
      <trkpt lat="44.09478" lon="5.56465">
        <ele>981.40002441406</ele>
        <time>2021-09-04T10:02:33Z</time>
      </trkpt>
      <trkpt lat="44.0949" lon="5.56476">
        <ele>982</ele>
        <time>2021-09-04T10:02:37Z</time>
      </trkpt>
      <trkpt lat="44.09501" lon="5.56485">
        <ele>982.40002441406</ele>
        <time>2021-09-04T10:02:41Z</time>
      </trkpt>
      <trkpt lat="44.09509" lon="5.56493">
        <ele>982.59997558594</ele>
        <time>2021-09-04T10:02:44Z</time>
      </trkpt>
      <trkpt lat="44.09526" lon="5.56508">
        <ele>983.59997558594</ele>
        <time>2021-09-04T10:02:51Z</time>
      </trkpt>
      <trkpt lat="44.09528" lon="5.5651">
        <ele>983.79998779297</ele>
        <time>2021-09-04T10:02:52Z</time>
      </trkpt>
      <trkpt lat="44.09536" lon="5.56517">
        <ele>984.79998779297</ele>
        <time>2021-09-04T10:02:56Z</time>
      </trkpt>
      <trkpt lat="44.09539" lon="5.56519">
        <ele>985</ele>
        <time>2021-09-04T10:02:57Z</time>
      </trkpt>
      <trkpt lat="44.09545" lon="5.56525">
        <ele>986</ele>
        <time>2021-09-04T10:03:00Z</time>
      </trkpt>
      <trkpt lat="44.09556" lon="5.56535">
        <ele>987</ele>
        <time>2021-09-04T10:03:05Z</time>
      </trkpt>
      <trkpt lat="44.09566" lon="5.56546">
        <ele>988.20001220703</ele>
        <time>2021-09-04T10:03:10Z</time>
      </trkpt>
      <trkpt lat="44.09576" lon="5.56554">
        <ele>988.59997558594</ele>
        <time>2021-09-04T10:03:14Z</time>
      </trkpt>
      <trkpt lat="44.09582" lon="5.56559">
        <ele>989.20001220703</ele>
        <time>2021-09-04T10:03:17Z</time>
      </trkpt>
      <trkpt lat="44.09594" lon="5.56572">
        <ele>990.20001220703</ele>
        <time>2021-09-04T10:03:23Z</time>
      </trkpt>
      <trkpt lat="44.09596" lon="5.56574">
        <ele>990.20001220703</ele>
        <time>2021-09-04T10:03:24Z</time>
      </trkpt>
      <trkpt lat="44.09607" lon="5.56585">
        <ele>991</ele>
        <time>2021-09-04T10:03:30Z</time>
      </trkpt>
      <trkpt lat="44.09609" lon="5.56587">
        <ele>991.40002441406</ele>
        <time>2021-09-04T10:03:32Z</time>
      </trkpt>
      <trkpt lat="44.09611" lon="5.56587">
        <ele>991.79998779297</ele>
        <time>2021-09-04T10:03:48Z</time>
      </trkpt>
      <trkpt lat="44.09624" lon="5.566">
        <ele>992.20001220703</ele>
        <time>2021-09-04T10:03:54Z</time>
      </trkpt>
      <trkpt lat="44.09627" lon="5.56605">
        <ele>992.40002441406</ele>
        <time>2021-09-04T10:03:56Z</time>
      </trkpt>
      <trkpt lat="44.09637" lon="5.56619">
        <ele>993</ele>
        <time>2021-09-04T10:04:01Z</time>
      </trkpt>
      <trkpt lat="44.09643" lon="5.56628">
        <ele>993.40002441406</ele>
        <time>2021-09-04T10:04:04Z</time>
      </trkpt>
      <trkpt lat="44.09652" lon="5.56643">
        <ele>994.20001220703</ele>
        <time>2021-09-04T10:04:09Z</time>
      </trkpt>
      <trkpt lat="44.09654" lon="5.56645">
        <ele>994.40002441406</ele>
        <time>2021-09-04T10:04:10Z</time>
      </trkpt>
      <trkpt lat="44.09665" lon="5.56668">
        <ele>995.59997558594</ele>
        <time>2021-09-04T10:04:17Z</time>
      </trkpt>
      <trkpt lat="44.09674" lon="5.56686">
        <ele>996.59997558594</ele>
        <time>2021-09-04T10:04:23Z</time>
      </trkpt>
      <trkpt lat="44.09679" lon="5.56695">
        <ele>997</ele>
        <time>2021-09-04T10:04:26Z</time>
      </trkpt>
      <trkpt lat="44.09689" lon="5.56713">
        <ele>997.79998779297</ele>
        <time>2021-09-04T10:04:32Z</time>
      </trkpt>
      <trkpt lat="44.09692" lon="5.56719">
        <ele>998.20001220703</ele>
        <time>2021-09-04T10:04:34Z</time>
      </trkpt>
      <trkpt lat="44.09697" lon="5.56728">
        <ele>998.79998779297</ele>
        <time>2021-09-04T10:04:37Z</time>
      </trkpt>
      <trkpt lat="44.09704" lon="5.56742">
        <ele>999.40002441406</ele>
        <time>2021-09-04T10:04:42Z</time>
      </trkpt>
      <trkpt lat="44.09708" lon="5.56751">
        <ele>1000</ele>
        <time>2021-09-04T10:04:45Z</time>
      </trkpt>
      <trkpt lat="44.09716" lon="5.56768">
        <ele>1000.5999755859</ele>
        <time>2021-09-04T10:04:51Z</time>
      </trkpt>
      <trkpt lat="44.09719" lon="5.56777">
        <ele>1001</ele>
        <time>2021-09-04T10:04:54Z</time>
      </trkpt>
      <trkpt lat="44.09722" lon="5.56789">
        <ele>1001.799987793</ele>
        <time>2021-09-04T10:04:58Z</time>
      </trkpt>
      <trkpt lat="44.09723" lon="5.56792">
        <ele>1002</ele>
        <time>2021-09-04T10:04:59Z</time>
      </trkpt>
      <trkpt lat="44.09728" lon="5.56812">
        <ele>1003.200012207</ele>
        <time>2021-09-04T10:05:06Z</time>
      </trkpt>
      <trkpt lat="44.09731" lon="5.56827">
        <ele>1004.4000244141</ele>
        <time>2021-09-04T10:05:12Z</time>
      </trkpt>
      <trkpt lat="44.09732" lon="5.5683">
        <ele>1004.4000244141</ele>
        <time>2021-09-04T10:05:13Z</time>
      </trkpt>
      <trkpt lat="44.09735" lon="5.56846">
        <ele>1005.4000244141</ele>
        <time>2021-09-04T10:05:19Z</time>
      </trkpt>
      <trkpt lat="44.09737" lon="5.56853">
        <ele>1006.200012207</ele>
        <time>2021-09-04T10:05:22Z</time>
      </trkpt>
      <trkpt lat="44.09738" lon="5.56855">
        <ele>1006.4000244141</ele>
        <time>2021-09-04T10:05:23Z</time>
      </trkpt>
      <trkpt lat="44.09741" lon="5.5687">
        <ele>1007.4000244141</ele>
        <time>2021-09-04T10:05:29Z</time>
      </trkpt>
      <trkpt lat="44.09742" lon="5.56875">
        <ele>1007.799987793</ele>
        <time>2021-09-04T10:05:31Z</time>
      </trkpt>
      <trkpt lat="44.09745" lon="5.56888">
        <ele>1008.4000244141</ele>
        <time>2021-09-04T10:05:36Z</time>
      </trkpt>
      <trkpt lat="44.09747" lon="5.56895">
        <ele>1009</ele>
        <time>2021-09-04T10:05:39Z</time>
      </trkpt>
      <trkpt lat="44.09747" lon="5.56897">
        <ele>1009</ele>
        <time>2021-09-04T10:05:40Z</time>
      </trkpt>
      <trkpt lat="44.09748" lon="5.569">
        <ele>1009.200012207</ele>
        <time>2021-09-04T10:05:41Z</time>
      </trkpt>
      <trkpt lat="44.09749" lon="5.56904">
        <ele>1009.5999755859</ele>
        <time>2021-09-04T10:05:43Z</time>
      </trkpt>
      <trkpt lat="44.0975" lon="5.56907">
        <ele>1009.799987793</ele>
        <time>2021-09-04T10:05:44Z</time>
      </trkpt>
      <trkpt lat="44.09751" lon="5.56914">
        <ele>1010.4000244141</ele>
        <time>2021-09-04T10:05:47Z</time>
      </trkpt>
      <trkpt lat="44.09752" lon="5.56916">
        <ele>1010.5999755859</ele>
        <time>2021-09-04T10:05:48Z</time>
      </trkpt>
      <trkpt lat="44.09755" lon="5.56929">
        <ele>1011.5999755859</ele>
        <time>2021-09-04T10:05:54Z</time>
      </trkpt>
      <trkpt lat="44.09756" lon="5.56931">
        <ele>1011.799987793</ele>
        <time>2021-09-04T10:05:55Z</time>
      </trkpt>
      <trkpt lat="44.09759" lon="5.56944">
        <ele>1012.799987793</ele>
        <time>2021-09-04T10:06:01Z</time>
      </trkpt>
      <trkpt lat="44.09761" lon="5.56949">
        <ele>1013</ele>
        <time>2021-09-04T10:06:03Z</time>
      </trkpt>
      <trkpt lat="44.09764" lon="5.56957">
        <ele>1013.799987793</ele>
        <time>2021-09-04T10:06:07Z</time>
      </trkpt>
      <trkpt lat="44.09766" lon="5.56961">
        <ele>1014</ele>
        <time>2021-09-04T10:06:09Z</time>
      </trkpt>
      <trkpt lat="44.09768" lon="5.56965">
        <ele>1014.4000244141</ele>
        <time>2021-09-04T10:06:11Z</time>
      </trkpt>
      <trkpt lat="44.0977" lon="5.56969">
        <ele>1014.799987793</ele>
        <time>2021-09-04T10:06:13Z</time>
      </trkpt>
      <trkpt lat="44.09779" lon="5.56981">
        <ele>1015.799987793</ele>
        <time>2021-09-04T10:06:20Z</time>
      </trkpt>
      <trkpt lat="44.0978" lon="5.56983">
        <ele>1016</ele>
        <time>2021-09-04T10:06:21Z</time>
      </trkpt>
      <trkpt lat="44.09786" lon="5.56991">
        <ele>1016.799987793</ele>
        <time>2021-09-04T10:06:26Z</time>
      </trkpt>
      <trkpt lat="44.09792" lon="5.56996">
        <ele>1017.799987793</ele>
        <time>2021-09-04T10:06:31Z</time>
      </trkpt>
      <trkpt lat="44.09794" lon="5.56997">
        <ele>1018</ele>
        <time>2021-09-04T10:06:32Z</time>
      </trkpt>
      <trkpt lat="44.09801" lon="5.57002">
        <ele>1019</ele>
        <time>2021-09-04T10:06:37Z</time>
      </trkpt>
      <trkpt lat="44.09806" lon="5.57005">
        <ele>1019.4000244141</ele>
        <time>2021-09-04T10:06:40Z</time>
      </trkpt>
      <trkpt lat="44.09811" lon="5.57012">
        <ele>1020</ele>
        <time>2021-09-04T10:06:44Z</time>
      </trkpt>
      <trkpt lat="44.09818" lon="5.57016">
        <ele>1020.5999755859</ele>
        <time>2021-09-04T10:06:48Z</time>
      </trkpt>
      <trkpt lat="44.09825" lon="5.57023">
        <ele>1021.200012207</ele>
        <time>2021-09-04T10:06:53Z</time>
      </trkpt>
      <trkpt lat="44.0983" lon="5.57027">
        <ele>1021.5999755859</ele>
        <time>2021-09-04T10:06:56Z</time>
      </trkpt>
      <trkpt lat="44.09834" lon="5.57029">
        <ele>1022.200012207</ele>
        <time>2021-09-04T10:06:58Z</time>
      </trkpt>
      <trkpt lat="44.09844" lon="5.57038">
        <ele>1023.200012207</ele>
        <time>2021-09-04T10:07:05Z</time>
      </trkpt>
      <trkpt lat="44.09846" lon="5.57039">
        <ele>1023.4000244141</ele>
        <time>2021-09-04T10:07:06Z</time>
      </trkpt>
      <trkpt lat="44.09853" lon="5.57046">
        <ele>1024.1999511719</ele>
        <time>2021-09-04T10:07:11Z</time>
      </trkpt>
      <trkpt lat="44.09858" lon="5.5705">
        <ele>1024.5999755859</ele>
        <time>2021-09-04T10:07:14Z</time>
      </trkpt>
      <trkpt lat="44.09864" lon="5.57055">
        <ele>1025.4000244141</ele>
        <time>2021-09-04T10:07:18Z</time>
      </trkpt>
      <trkpt lat="44.09872" lon="5.57065">
        <ele>1026.4000244141</ele>
        <time>2021-09-04T10:07:24Z</time>
      </trkpt>
      <trkpt lat="44.09874" lon="5.57067">
        <ele>1026.5999755859</ele>
        <time>2021-09-04T10:07:25Z</time>
      </trkpt>
      <trkpt lat="44.09881" lon="5.57076">
        <ele>1027.5999755859</ele>
        <time>2021-09-04T10:07:31Z</time>
      </trkpt>
      <trkpt lat="44.09885" lon="5.57084">
        <ele>1028.4000244141</ele>
        <time>2021-09-04T10:07:35Z</time>
      </trkpt>
      <trkpt lat="44.09888" lon="5.5709">
        <ele>1028.8000488281</ele>
        <time>2021-09-04T10:07:38Z</time>
      </trkpt>
      <trkpt lat="44.09893" lon="5.571">
        <ele>1029.5999755859</ele>
        <time>2021-09-04T10:07:43Z</time>
      </trkpt>
      <trkpt lat="44.09894" lon="5.57102">
        <ele>1029.8000488281</ele>
        <time>2021-09-04T10:07:44Z</time>
      </trkpt>
      <trkpt lat="44.09897" lon="5.57111">
        <ele>1030.5999755859</ele>
        <time>2021-09-04T10:07:48Z</time>
      </trkpt>
      <trkpt lat="44.09899" lon="5.57115">
        <ele>1031</ele>
        <time>2021-09-04T10:07:50Z</time>
      </trkpt>
      <trkpt lat="44.09901" lon="5.57119">
        <ele>1031.1999511719</ele>
        <time>2021-09-04T10:07:52Z</time>
      </trkpt>
      <trkpt lat="44.09904" lon="5.57131">
        <ele>1032</ele>
        <time>2021-09-04T10:07:56Z</time>
      </trkpt>
      <trkpt lat="44.09908" lon="5.57142">
        <ele>1032.8000488281</ele>
        <time>2021-09-04T10:08:00Z</time>
      </trkpt>
      <trkpt lat="44.09908" lon="5.57145">
        <ele>1033</ele>
        <time>2021-09-04T10:08:01Z</time>
      </trkpt>
      <trkpt lat="44.09917" lon="5.57166">
        <ele>1034</ele>
        <time>2021-09-04T10:08:09Z</time>
      </trkpt>
      <trkpt lat="44.09918" lon="5.57168">
        <ele>1034.1999511719</ele>
        <time>2021-09-04T10:08:10Z</time>
      </trkpt>
      <trkpt lat="44.09923" lon="5.57187">
        <ele>1035.1999511719</ele>
        <time>2021-09-04T10:08:17Z</time>
      </trkpt>
      <trkpt lat="44.09924" lon="5.5719">
        <ele>1035.1999511719</ele>
        <time>2021-09-04T10:08:18Z</time>
      </trkpt>
      <trkpt lat="44.09932" lon="5.57214">
        <ele>1036</ele>
        <time>2021-09-04T10:08:26Z</time>
      </trkpt>
      <trkpt lat="44.09934" lon="5.5722">
        <ele>1036.4000244141</ele>
        <time>2021-09-04T10:08:28Z</time>
      </trkpt>
      <trkpt lat="44.0994" lon="5.57238">
        <ele>1037.4000244141</ele>
        <time>2021-09-04T10:08:34Z</time>
      </trkpt>
      <trkpt lat="44.09942" lon="5.57241">
        <ele>1037.5999755859</ele>
        <time>2021-09-04T10:08:35Z</time>
      </trkpt>
      <trkpt lat="44.09952" lon="5.57254">
        <ele>1037.8000488281</ele>
        <time>2021-09-04T10:08:40Z</time>
      </trkpt>
      <trkpt lat="44.09966" lon="5.57267">
        <ele>1038.5999755859</ele>
        <time>2021-09-04T10:08:45Z</time>
      </trkpt>
      <trkpt lat="44.09972" lon="5.57269">
        <ele>1038.8000488281</ele>
        <time>2021-09-04T10:08:47Z</time>
      </trkpt>
      <trkpt lat="44.09999" lon="5.57272">
        <ele>1039</ele>
        <time>2021-09-04T10:08:54Z</time>
      </trkpt>
      <trkpt lat="44.10011" lon="5.5727">
        <ele>1039</ele>
        <time>2021-09-04T10:08:57Z</time>
      </trkpt>
      <trkpt lat="44.10024" lon="5.57268">
        <ele>1039</ele>
        <time>2021-09-04T10:09:00Z</time>
      </trkpt>
      <trkpt lat="44.10028" lon="5.57268">
        <ele>1039</ele>
        <time>2021-09-04T10:09:01Z</time>
      </trkpt>
      <trkpt lat="44.10049" lon="5.57261">
        <ele>1039.1999511719</ele>
        <time>2021-09-04T10:09:06Z</time>
      </trkpt>
      <trkpt lat="44.1009" lon="5.57239">
        <ele>1039.1999511719</ele>
        <time>2021-09-04T10:09:15Z</time>
      </trkpt>
      <trkpt lat="44.1013" lon="5.57212">
        <ele>1038.8000488281</ele>
        <time>2021-09-04T10:09:23Z</time>
      </trkpt>
      <trkpt lat="44.10172" lon="5.57192">
        <ele>1039</ele>
        <time>2021-09-04T10:09:31Z</time>
      </trkpt>
      <trkpt lat="44.10211" lon="5.57184">
        <ele>1039</ele>
        <time>2021-09-04T10:09:38Z</time>
      </trkpt>
      <trkpt lat="44.10246" lon="5.57177">
        <ele>1039</ele>
        <time>2021-09-04T10:09:45Z</time>
      </trkpt>
      <trkpt lat="44.10294" lon="5.57169">
        <ele>1039</ele>
        <time>2021-09-04T10:09:54Z</time>
      </trkpt>
      <trkpt lat="44.10334" lon="5.57161">
        <ele>1039.4000244141</ele>
        <time>2021-09-04T10:10:01Z</time>
      </trkpt>
      <trkpt lat="44.10382" lon="5.57153">
        <ele>1039</ele>
        <time>2021-09-04T10:10:09Z</time>
      </trkpt>
      <trkpt lat="44.10434" lon="5.57132">
        <ele>1039.4000244141</ele>
        <time>2021-09-04T10:10:18Z</time>
      </trkpt>
      <trkpt lat="44.1044" lon="5.5713">
        <ele>1039.1999511719</ele>
        <time>2021-09-04T10:10:19Z</time>
      </trkpt>
      <trkpt lat="44.10481" lon="5.5712">
        <ele>1039.4000244141</ele>
        <time>2021-09-04T10:10:26Z</time>
      </trkpt>
      <trkpt lat="44.10511" lon="5.5713">
        <ele>1039.4000244141</ele>
        <time>2021-09-04T10:10:31Z</time>
      </trkpt>
      <trkpt lat="44.10532" lon="5.57144">
        <ele>1039.1999511719</ele>
        <time>2021-09-04T10:10:35Z</time>
      </trkpt>
      <trkpt lat="44.10537" lon="5.57149">
        <ele>1039.1999511719</ele>
        <time>2021-09-04T10:10:36Z</time>
      </trkpt>
      <trkpt lat="44.10585" lon="5.57198">
        <ele>1039.4000244141</ele>
        <time>2021-09-04T10:10:46Z</time>
      </trkpt>
      <trkpt lat="44.10621" lon="5.57241">
        <ele>1039.5999755859</ele>
        <time>2021-09-04T10:10:54Z</time>
      </trkpt>
      <trkpt lat="44.10665" lon="5.57295">
        <ele>1039.4000244141</ele>
        <time>2021-09-04T10:11:04Z</time>
      </trkpt>
      <trkpt lat="44.1067" lon="5.573">
        <ele>1039.4000244141</ele>
        <time>2021-09-04T10:11:05Z</time>
      </trkpt>
      <trkpt lat="44.10697" lon="5.57332">
        <ele>1039.5999755859</ele>
        <time>2021-09-04T10:11:11Z</time>
      </trkpt>
      <trkpt lat="44.10707" lon="5.5734">
        <ele>1039.5999755859</ele>
        <time>2021-09-04T10:11:13Z</time>
      </trkpt>
      <trkpt lat="44.10741" lon="5.57357">
        <ele>1039.8000488281</ele>
        <time>2021-09-04T10:11:19Z</time>
      </trkpt>
      <trkpt lat="44.10748" lon="5.57358">
        <ele>1039.8000488281</ele>
        <time>2021-09-04T10:11:20Z</time>
      </trkpt>
      <trkpt lat="44.10778" lon="5.57356">
        <ele>1039.8000488281</ele>
        <time>2021-09-04T10:11:25Z</time>
      </trkpt>
      <trkpt lat="44.10828" lon="5.5734">
        <ele>1040</ele>
        <time>2021-09-04T10:11:33Z</time>
      </trkpt>
      <trkpt lat="44.10872" lon="5.57325">
        <ele>1040.1999511719</ele>
        <time>2021-09-04T10:11:40Z</time>
      </trkpt>
      <trkpt lat="44.10922" lon="5.57314">
        <ele>1039.5999755859</ele>
        <time>2021-09-04T10:11:48Z</time>
      </trkpt>
      <trkpt lat="44.1098" lon="5.57315">
        <ele>1039.4000244141</ele>
        <time>2021-09-04T10:11:57Z</time>
      </trkpt>
      <trkpt lat="44.10986" lon="5.57316">
        <ele>1039.4000244141</ele>
        <time>2021-09-04T10:11:58Z</time>
      </trkpt>
      <trkpt lat="44.11043" lon="5.57325">
        <ele>1039.4000244141</ele>
        <time>2021-09-04T10:12:07Z</time>
      </trkpt>
      <trkpt lat="44.1105" lon="5.57326">
        <ele>1039.4000244141</ele>
        <time>2021-09-04T10:12:08Z</time>
      </trkpt>
      <trkpt lat="44.11094" lon="5.57342">
        <ele>1039.4000244141</ele>
        <time>2021-09-04T10:12:15Z</time>
      </trkpt>
      <trkpt lat="44.1113" lon="5.57367">
        <ele>1039.1999511719</ele>
        <time>2021-09-04T10:12:21Z</time>
      </trkpt>
      <trkpt lat="44.11177" lon="5.57404">
        <ele>1039.5999755859</ele>
        <time>2021-09-04T10:12:30Z</time>
      </trkpt>
      <trkpt lat="44.11211" lon="5.57426">
        <ele>1040.8000488281</ele>
        <time>2021-09-04T10:12:37Z</time>
      </trkpt>
      <trkpt lat="44.11221" lon="5.57431">
        <ele>1041.1999511719</ele>
        <time>2021-09-04T10:12:39Z</time>
      </trkpt>
      <trkpt lat="44.1125" lon="5.5744">
        <ele>1042</ele>
        <time>2021-09-04T10:12:45Z</time>
      </trkpt>
      <trkpt lat="44.11259" lon="5.57443">
        <ele>1042</ele>
        <time>2021-09-04T10:12:47Z</time>
      </trkpt>
      <trkpt lat="44.11283" lon="5.57447">
        <ele>1042.5999755859</ele>
        <time>2021-09-04T10:12:52Z</time>
      </trkpt>
      <trkpt lat="44.11297" lon="5.5745">
        <ele>1043</ele>
        <time>2021-09-04T10:12:55Z</time>
      </trkpt>
      <trkpt lat="44.11324" lon="5.5746">
        <ele>1043.5999755859</ele>
        <time>2021-09-04T10:13:01Z</time>
      </trkpt>
      <trkpt lat="44.11348" lon="5.57478">
        <ele>1044</ele>
        <time>2021-09-04T10:13:07Z</time>
      </trkpt>
      <trkpt lat="44.11355" lon="5.57485">
        <ele>1044.1999511719</ele>
        <time>2021-09-04T10:13:09Z</time>
      </trkpt>
      <trkpt lat="44.11387" lon="5.57519">
        <ele>1045</ele>
        <time>2021-09-04T10:13:18Z</time>
      </trkpt>
      <trkpt lat="44.11394" lon="5.57527">
        <ele>1045.1999511719</ele>
        <time>2021-09-04T10:13:20Z</time>
      </trkpt>
      <trkpt lat="44.11415" lon="5.57551">
        <ele>1046</ele>
        <time>2021-09-04T10:13:27Z</time>
      </trkpt>
      <trkpt lat="44.11416" lon="5.57553">
        <ele>1046</ele>
        <time>2021-09-04T10:13:28Z</time>
      </trkpt>
      <trkpt lat="44.11423" lon="5.57559">
        <ele>1046.1999511719</ele>
        <time>2021-09-04T10:13:32Z</time>
      </trkpt>
      <trkpt lat="44.11429" lon="5.57563">
        <ele>1047.1999511719</ele>
        <time>2021-09-04T10:16:58Z</time>
      </trkpt>
      <trkpt lat="44.11439" lon="5.57572">
        <ele>1047.4000244141</ele>
        <time>2021-09-04T10:17:04Z</time>
      </trkpt>
      <trkpt lat="44.1145" lon="5.57585">
        <ele>1047.4000244141</ele>
        <time>2021-09-04T10:17:09Z</time>
      </trkpt>
      <trkpt lat="44.11455" lon="5.57589">
        <ele>1047.5999755859</ele>
        <time>2021-09-04T10:17:11Z</time>
      </trkpt>
      <trkpt lat="44.11462" lon="5.57597">
        <ele>1048</ele>
        <time>2021-09-04T10:17:14Z</time>
      </trkpt>
      <trkpt lat="44.11473" lon="5.57606">
        <ele>1048.1999511719</ele>
        <time>2021-09-04T10:17:18Z</time>
      </trkpt>
      <trkpt lat="44.11476" lon="5.57608">
        <ele>1048.1999511719</ele>
        <time>2021-09-04T10:17:19Z</time>
      </trkpt>
      <trkpt lat="44.11507" lon="5.57624">
        <ele>1049.1999511719</ele>
        <time>2021-09-04T10:17:28Z</time>
      </trkpt>
      <trkpt lat="44.11514" lon="5.57626">
        <ele>1049.1999511719</ele>
        <time>2021-09-04T10:17:30Z</time>
      </trkpt>
      <trkpt lat="44.11533" lon="5.57632">
        <ele>1049.8000488281</ele>
        <time>2021-09-04T10:17:35Z</time>
      </trkpt>
      <trkpt lat="44.11558" lon="5.5764">
        <ele>1050</ele>
        <time>2021-09-04T10:17:42Z</time>
      </trkpt>
      <trkpt lat="44.11565" lon="5.57643">
        <ele>1050.4000244141</ele>
        <time>2021-09-04T10:17:44Z</time>
      </trkpt>
      <trkpt lat="44.11584" lon="5.57651">
        <ele>1050.5999755859</ele>
        <time>2021-09-04T10:17:49Z</time>
      </trkpt>
      <trkpt lat="44.11609" lon="5.57667">
        <ele>1051.1999511719</ele>
        <time>2021-09-04T10:17:56Z</time>
      </trkpt>
      <trkpt lat="44.11613" lon="5.57669">
        <ele>1051.4000244141</ele>
        <time>2021-09-04T10:17:57Z</time>
      </trkpt>
      <trkpt lat="44.11643" lon="5.57686">
        <ele>1052.1999511719</ele>
        <time>2021-09-04T10:18:05Z</time>
      </trkpt>
      <trkpt lat="44.11651" lon="5.5769">
        <ele>1052.4000244141</ele>
        <time>2021-09-04T10:18:07Z</time>
      </trkpt>
      <trkpt lat="44.11675" lon="5.57696">
        <ele>1053</ele>
        <time>2021-09-04T10:18:13Z</time>
      </trkpt>
      <trkpt lat="44.11679" lon="5.57697">
        <ele>1053.1999511719</ele>
        <time>2021-09-04T10:18:14Z</time>
      </trkpt>
      <trkpt lat="44.11687" lon="5.57696">
        <ele>1053.4000244141</ele>
        <time>2021-09-04T10:18:16Z</time>
      </trkpt>
      <trkpt lat="44.11691" lon="5.57695">
        <ele>1053.5999755859</ele>
        <time>2021-09-04T10:18:17Z</time>
      </trkpt>
      <trkpt lat="44.11703" lon="5.57691">
        <ele>1053.8000488281</ele>
        <time>2021-09-04T10:18:20Z</time>
      </trkpt>
      <trkpt lat="44.11729" lon="5.57684">
        <ele>1054.5999755859</ele>
        <time>2021-09-04T10:18:26Z</time>
      </trkpt>
      <trkpt lat="44.11741" lon="5.57679">
        <ele>1054.8000488281</ele>
        <time>2021-09-04T10:18:29Z</time>
      </trkpt>
      <trkpt lat="44.11765" lon="5.57667">
        <ele>1055.5999755859</ele>
        <time>2021-09-04T10:18:35Z</time>
      </trkpt>
      <trkpt lat="44.11776" lon="5.5766">
        <ele>1056</ele>
        <time>2021-09-04T10:18:38Z</time>
      </trkpt>
      <trkpt lat="44.11802" lon="5.5764">
        <ele>1056.8000488281</ele>
        <time>2021-09-04T10:18:45Z</time>
      </trkpt>
      <trkpt lat="44.11809" lon="5.57634">
        <ele>1057</ele>
        <time>2021-09-04T10:18:47Z</time>
      </trkpt>
      <trkpt lat="44.11834" lon="5.57609">
        <ele>1057.8000488281</ele>
        <time>2021-09-04T10:18:55Z</time>
      </trkpt>
      <trkpt lat="44.11861" lon="5.57588">
        <ele>1059</ele>
        <time>2021-09-04T10:19:03Z</time>
      </trkpt>
      <trkpt lat="44.11865" lon="5.57585">
        <ele>1059</ele>
        <time>2021-09-04T10:19:04Z</time>
      </trkpt>
      <trkpt lat="44.11884" lon="5.57576">
        <ele>1059.5999755859</ele>
        <time>2021-09-04T10:19:09Z</time>
      </trkpt>
      <trkpt lat="44.11893" lon="5.57575">
        <ele>1059.8000488281</ele>
        <time>2021-09-04T10:19:11Z</time>
      </trkpt>
      <trkpt lat="44.11905" lon="5.57572">
        <ele>1060</ele>
        <time>2021-09-04T10:19:14Z</time>
      </trkpt>
      <trkpt lat="44.11927" lon="5.57571">
        <ele>1060.4000244141</ele>
        <time>2021-09-04T10:19:19Z</time>
      </trkpt>
      <trkpt lat="44.11958" lon="5.57579">
        <ele>1061</ele>
        <time>2021-09-04T10:19:26Z</time>
      </trkpt>
      <trkpt lat="44.11962" lon="5.57581">
        <ele>1061</ele>
        <time>2021-09-04T10:19:27Z</time>
      </trkpt>
      <trkpt lat="44.11993" lon="5.57603">
        <ele>1061.4000244141</ele>
        <time>2021-09-04T10:19:35Z</time>
      </trkpt>
      <trkpt lat="44.12014" lon="5.57625">
        <ele>1062</ele>
        <time>2021-09-04T10:19:41Z</time>
      </trkpt>
      <trkpt lat="44.12025" lon="5.57635">
        <ele>1062.1999511719</ele>
        <time>2021-09-04T10:19:44Z</time>
      </trkpt>
      <trkpt lat="44.1205" lon="5.57657">
        <ele>1062.5999755859</ele>
        <time>2021-09-04T10:19:51Z</time>
      </trkpt>
      <trkpt lat="44.12061" lon="5.57663">
        <ele>1062.8000488281</ele>
        <time>2021-09-04T10:19:54Z</time>
      </trkpt>
      <trkpt lat="44.12065" lon="5.57666">
        <ele>1063</ele>
        <time>2021-09-04T10:19:55Z</time>
      </trkpt>
      <trkpt lat="44.12069" lon="5.57668">
        <ele>1063.1999511719</ele>
        <time>2021-09-04T10:19:56Z</time>
      </trkpt>
      <trkpt lat="44.12094" lon="5.57675">
        <ele>1063.8000488281</ele>
        <time>2021-09-04T10:20:02Z</time>
      </trkpt>
      <trkpt lat="44.12102" lon="5.57676">
        <ele>1064</ele>
        <time>2021-09-04T10:20:04Z</time>
      </trkpt>
      <trkpt lat="44.12125" lon="5.57676">
        <ele>1064.4000244141</ele>
        <time>2021-09-04T10:20:09Z</time>
      </trkpt>
      <trkpt lat="44.1216" lon="5.57672">
        <ele>1065</ele>
        <time>2021-09-04T10:20:17Z</time>
      </trkpt>
      <trkpt lat="44.12169" lon="5.5767">
        <ele>1065.4000244141</ele>
        <time>2021-09-04T10:20:19Z</time>
      </trkpt>
      <trkpt lat="44.12186" lon="5.57664">
        <ele>1065.8000488281</ele>
        <time>2021-09-04T10:20:23Z</time>
      </trkpt>
      <trkpt lat="44.12198" lon="5.57655">
        <ele>1066</ele>
        <time>2021-09-04T10:20:26Z</time>
      </trkpt>
      <trkpt lat="44.12205" lon="5.57647">
        <ele>1066.1999511719</ele>
        <time>2021-09-04T10:20:28Z</time>
      </trkpt>
      <trkpt lat="44.12218" lon="5.57628">
        <ele>1066.4000244141</ele>
        <time>2021-09-04T10:20:32Z</time>
      </trkpt>
      <trkpt lat="44.12221" lon="5.57622">
        <ele>1066.5999755859</ele>
        <time>2021-09-04T10:20:33Z</time>
      </trkpt>
      <trkpt lat="44.1223" lon="5.57597">
        <ele>1067.1999511719</ele>
        <time>2021-09-04T10:20:37Z</time>
      </trkpt>
      <trkpt lat="44.12246" lon="5.57547">
        <ele>1068.1999511719</ele>
        <time>2021-09-04T10:20:45Z</time>
      </trkpt>
      <trkpt lat="44.12249" lon="5.57541">
        <ele>1068.4000244141</ele>
        <time>2021-09-04T10:20:46Z</time>
      </trkpt>
      <trkpt lat="44.12267" lon="5.57508">
        <ele>1068.8000488281</ele>
        <time>2021-09-04T10:20:52Z</time>
      </trkpt>
      <trkpt lat="44.12279" lon="5.57489">
        <ele>1069.4000244141</ele>
        <time>2021-09-04T10:20:56Z</time>
      </trkpt>
      <trkpt lat="44.12296" lon="5.57464">
        <ele>1069.5999755859</ele>
        <time>2021-09-04T10:21:01Z</time>
      </trkpt>
      <trkpt lat="44.12308" lon="5.57446">
        <ele>1070</ele>
        <time>2021-09-04T10:21:05Z</time>
      </trkpt>
      <trkpt lat="44.12315" lon="5.57438">
        <ele>1070</ele>
        <time>2021-09-04T10:21:07Z</time>
      </trkpt>
      <trkpt lat="44.12318" lon="5.57433">
        <ele>1070.1999511719</ele>
        <time>2021-09-04T10:21:08Z</time>
      </trkpt>
      <trkpt lat="44.1233" lon="5.57414">
        <ele>1070.4000244141</ele>
        <time>2021-09-04T10:21:12Z</time>
      </trkpt>
      <trkpt lat="44.12334" lon="5.5741">
        <ele>1070.4000244141</ele>
        <time>2021-09-04T10:21:13Z</time>
      </trkpt>
      <trkpt lat="44.12347" lon="5.57392">
        <ele>1071.1999511719</ele>
        <time>2021-09-04T10:21:17Z</time>
      </trkpt>
      <trkpt lat="44.12361" lon="5.57376">
        <ele>1071.4000244141</ele>
        <time>2021-09-04T10:21:21Z</time>
      </trkpt>
      <trkpt lat="44.12379" lon="5.57356">
        <ele>1072</ele>
        <time>2021-09-04T10:21:26Z</time>
      </trkpt>
      <trkpt lat="44.12394" lon="5.57341">
        <ele>1072.4000244141</ele>
        <time>2021-09-04T10:21:30Z</time>
      </trkpt>
      <trkpt lat="44.12424" lon="5.57312">
        <ele>1072.8000488281</ele>
        <time>2021-09-04T10:21:38Z</time>
      </trkpt>
      <trkpt lat="44.12448" lon="5.57284">
        <ele>1073.4000244141</ele>
        <time>2021-09-04T10:21:45Z</time>
      </trkpt>
      <trkpt lat="44.12452" lon="5.5728">
        <ele>1073.4000244141</ele>
        <time>2021-09-04T10:21:46Z</time>
      </trkpt>
      <trkpt lat="44.12474" lon="5.57248">
        <ele>1074</ele>
        <time>2021-09-04T10:21:53Z</time>
      </trkpt>
      <trkpt lat="44.12501" lon="5.57211">
        <ele>1074.4000244141</ele>
        <time>2021-09-04T10:22:01Z</time>
      </trkpt>
      <trkpt lat="44.12526" lon="5.57183">
        <ele>1075.1999511719</ele>
        <time>2021-09-04T10:22:08Z</time>
      </trkpt>
      <trkpt lat="44.12538" lon="5.57172">
        <ele>1075.5999755859</ele>
        <time>2021-09-04T10:22:11Z</time>
      </trkpt>
      <trkpt lat="44.12566" lon="5.57148">
        <ele>1076.5999755859</ele>
        <time>2021-09-04T10:22:18Z</time>
      </trkpt>
      <trkpt lat="44.12612" lon="5.57121">
        <ele>1077</ele>
        <time>2021-09-04T10:22:28Z</time>
      </trkpt>
      <trkpt lat="44.12644" lon="5.57109">
        <ele>1077.5999755859</ele>
        <time>2021-09-04T10:22:35Z</time>
      </trkpt>
      <trkpt lat="44.12649" lon="5.57107">
        <ele>1078</ele>
        <time>2021-09-04T10:22:36Z</time>
      </trkpt>
      <trkpt lat="44.12695" lon="5.57089">
        <ele>1078.8000488281</ele>
        <time>2021-09-04T10:22:46Z</time>
      </trkpt>
      <trkpt lat="44.12737" lon="5.57074">
        <ele>1079.5999755859</ele>
        <time>2021-09-04T10:22:55Z</time>
      </trkpt>
      <trkpt lat="44.12741" lon="5.57073">
        <ele>1079.8000488281</ele>
        <time>2021-09-04T10:22:56Z</time>
      </trkpt>
      <trkpt lat="44.12781" lon="5.57059">
        <ele>1080.5999755859</ele>
        <time>2021-09-04T10:23:05Z</time>
      </trkpt>
      <trkpt lat="44.1279" lon="5.57057">
        <ele>1080.8000488281</ele>
        <time>2021-09-04T10:23:07Z</time>
      </trkpt>
      <trkpt lat="44.12817" lon="5.57049">
        <ele>1081.1999511719</ele>
        <time>2021-09-04T10:23:13Z</time>
      </trkpt>
      <trkpt lat="44.12854" lon="5.57037">
        <ele>1081.8000488281</ele>
        <time>2021-09-04T10:23:21Z</time>
      </trkpt>
      <trkpt lat="44.12859" lon="5.57035">
        <ele>1081.8000488281</ele>
        <time>2021-09-04T10:23:22Z</time>
      </trkpt>
      <trkpt lat="44.1288" lon="5.57025">
        <ele>1082.5999755859</ele>
        <time>2021-09-04T10:23:27Z</time>
      </trkpt>
      <trkpt lat="44.12888" lon="5.5702">
        <ele>1082.5999755859</ele>
        <time>2021-09-04T10:23:29Z</time>
      </trkpt>
      <trkpt lat="44.12896" lon="5.57015">
        <ele>1083</ele>
        <time>2021-09-04T10:23:31Z</time>
      </trkpt>
      <trkpt lat="44.12928" lon="5.56991">
        <ele>1083.5999755859</ele>
        <time>2021-09-04T10:23:39Z</time>
      </trkpt>
      <trkpt lat="44.12953" lon="5.56972">
        <ele>1084</ele>
        <time>2021-09-04T10:23:45Z</time>
      </trkpt>
      <trkpt lat="44.12973" lon="5.56955">
        <ele>1084.4000244141</ele>
        <time>2021-09-04T10:23:50Z</time>
      </trkpt>
      <trkpt lat="44.13003" lon="5.56939">
        <ele>1084.8000488281</ele>
        <time>2021-09-04T10:23:57Z</time>
      </trkpt>
      <trkpt lat="44.13012" lon="5.56935">
        <ele>1085</ele>
        <time>2021-09-04T10:23:59Z</time>
      </trkpt>
      <trkpt lat="44.13043" lon="5.56924">
        <ele>1085.8000488281</ele>
        <time>2021-09-04T10:24:06Z</time>
      </trkpt>
      <trkpt lat="44.13056" lon="5.56919">
        <ele>1086.1999511719</ele>
        <time>2021-09-04T10:24:09Z</time>
      </trkpt>
      <trkpt lat="44.13077" lon="5.5691">
        <ele>1086.5999755859</ele>
        <time>2021-09-04T10:24:14Z</time>
      </trkpt>
      <trkpt lat="44.13099" lon="5.56904">
        <ele>1087.1999511719</ele>
        <time>2021-09-04T10:24:19Z</time>
      </trkpt>
      <trkpt lat="44.13108" lon="5.56901">
        <ele>1087.4000244141</ele>
        <time>2021-09-04T10:24:21Z</time>
      </trkpt>
      <trkpt lat="44.13152" lon="5.56884">
        <ele>1088</ele>
        <time>2021-09-04T10:24:31Z</time>
      </trkpt>
      <trkpt lat="44.13174" lon="5.56876">
        <ele>1088.1999511719</ele>
        <time>2021-09-04T10:24:36Z</time>
      </trkpt>
      <trkpt lat="44.13184" lon="5.56873">
        <ele>1088.4000244141</ele>
        <time>2021-09-04T10:24:38Z</time>
      </trkpt>
      <trkpt lat="44.13217" lon="5.56861">
        <ele>1088.8000488281</ele>
        <time>2021-09-04T10:24:45Z</time>
      </trkpt>
      <trkpt lat="44.1324" lon="5.56852">
        <ele>1089.4000244141</ele>
        <time>2021-09-04T10:24:50Z</time>
      </trkpt>
      <trkpt lat="44.13258" lon="5.56846">
        <ele>1089.5999755859</ele>
        <time>2021-09-04T10:24:54Z</time>
      </trkpt>
      <trkpt lat="44.13286" lon="5.56837">
        <ele>1090.1999511719</ele>
        <time>2021-09-04T10:25:00Z</time>
      </trkpt>
      <trkpt lat="44.13295" lon="5.56833">
        <ele>1090.4000244141</ele>
        <time>2021-09-04T10:25:02Z</time>
      </trkpt>
      <trkpt lat="44.13323" lon="5.56823">
        <ele>1090.8000488281</ele>
        <time>2021-09-04T10:25:08Z</time>
      </trkpt>
      <trkpt lat="44.13351" lon="5.56814">
        <ele>1091</ele>
        <time>2021-09-04T10:25:14Z</time>
      </trkpt>
      <trkpt lat="44.13365" lon="5.56808">
        <ele>1091</ele>
        <time>2021-09-04T10:25:17Z</time>
      </trkpt>
      <trkpt lat="44.13393" lon="5.56798">
        <ele>1091.4000244141</ele>
        <time>2021-09-04T10:25:23Z</time>
      </trkpt>
      <trkpt lat="44.13403" lon="5.56795">
        <ele>1091.5999755859</ele>
        <time>2021-09-04T10:25:25Z</time>
      </trkpt>
      <trkpt lat="44.13448" lon="5.56783">
        <ele>1092</ele>
        <time>2021-09-04T10:25:34Z</time>
      </trkpt>
      <trkpt lat="44.13482" lon="5.56781">
        <ele>1092.1999511719</ele>
        <time>2021-09-04T10:25:41Z</time>
      </trkpt>
      <trkpt lat="44.13491" lon="5.56783">
        <ele>1092.4000244141</ele>
        <time>2021-09-04T10:25:43Z</time>
      </trkpt>
      <trkpt lat="44.13519" lon="5.5679">
        <ele>1093.1999511719</ele>
        <time>2021-09-04T10:25:49Z</time>
      </trkpt>
      <trkpt lat="44.13532" lon="5.56797">
        <ele>1093.4000244141</ele>
        <time>2021-09-04T10:25:52Z</time>
      </trkpt>
      <trkpt lat="44.13552" lon="5.56808">
        <ele>1094.1999511719</ele>
        <time>2021-09-04T10:25:57Z</time>
      </trkpt>
      <trkpt lat="44.1356" lon="5.56813">
        <ele>1094.5999755859</ele>
        <time>2021-09-04T10:25:59Z</time>
      </trkpt>
      <trkpt lat="44.1358" lon="5.56825">
        <ele>1095.1999511719</ele>
        <time>2021-09-04T10:26:04Z</time>
      </trkpt>
      <trkpt lat="44.13608" lon="5.56841">
        <ele>1095.5999755859</ele>
        <time>2021-09-04T10:26:11Z</time>
      </trkpt>
      <trkpt lat="44.1362" lon="5.56846">
        <ele>1096.1999511719</ele>
        <time>2021-09-04T10:26:14Z</time>
      </trkpt>
      <trkpt lat="44.13637" lon="5.56852">
        <ele>1096.8000488281</ele>
        <time>2021-09-04T10:26:18Z</time>
      </trkpt>
      <trkpt lat="44.13646" lon="5.56854">
        <ele>1096.8000488281</ele>
        <time>2021-09-04T10:26:20Z</time>
      </trkpt>
      <trkpt lat="44.1365" lon="5.56855">
        <ele>1097</ele>
        <time>2021-09-04T10:26:21Z</time>
      </trkpt>
      <trkpt lat="44.13671" lon="5.5686">
        <ele>1097.8000488281</ele>
        <time>2021-09-04T10:26:26Z</time>
      </trkpt>
      <trkpt lat="44.13684" lon="5.56861">
        <ele>1098.1999511719</ele>
        <time>2021-09-04T10:26:29Z</time>
      </trkpt>
      <trkpt lat="44.13714" lon="5.56862">
        <ele>1098.8000488281</ele>
        <time>2021-09-04T10:26:36Z</time>
      </trkpt>
      <trkpt lat="44.13726" lon="5.56862">
        <ele>1099</ele>
        <time>2021-09-04T10:26:39Z</time>
      </trkpt>
      <trkpt lat="44.13751" lon="5.56862">
        <ele>1099.8000488281</ele>
        <time>2021-09-04T10:26:45Z</time>
      </trkpt>
      <trkpt lat="44.13759" lon="5.56863">
        <ele>1100</ele>
        <time>2021-09-04T10:26:47Z</time>
      </trkpt>
      <trkpt lat="44.13786" lon="5.56862">
        <ele>1100.8000488281</ele>
        <time>2021-09-04T10:26:54Z</time>
      </trkpt>
      <trkpt lat="44.1379" lon="5.56862">
        <ele>1101</ele>
        <time>2021-09-04T10:26:55Z</time>
      </trkpt>
      <trkpt lat="44.13817" lon="5.56862">
        <ele>1102</ele>
        <time>2021-09-04T10:27:02Z</time>
      </trkpt>
      <trkpt lat="44.13824" lon="5.56862">
        <ele>1102.1999511719</ele>
        <time>2021-09-04T10:27:04Z</time>
      </trkpt>
      <trkpt lat="44.13828" lon="5.56862">
        <ele>1102.1999511719</ele>
        <time>2021-09-04T10:27:05Z</time>
      </trkpt>
      <trkpt lat="44.13854" lon="5.56864">
        <ele>1103</ele>
        <time>2021-09-04T10:27:12Z</time>
      </trkpt>
      <trkpt lat="44.13858" lon="5.56864">
        <ele>1103</ele>
        <time>2021-09-04T10:27:13Z</time>
      </trkpt>
      <trkpt lat="44.13886" lon="5.56863">
        <ele>1104</ele>
        <time>2021-09-04T10:27:21Z</time>
      </trkpt>
      <trkpt lat="44.13914" lon="5.56864">
        <ele>1105</ele>
        <time>2021-09-04T10:27:29Z</time>
      </trkpt>
      <trkpt lat="44.13946" lon="5.56864">
        <ele>1106.1999511719</ele>
        <time>2021-09-04T10:27:38Z</time>
      </trkpt>
      <trkpt lat="44.13949" lon="5.56864">
        <ele>1106.1999511719</ele>
        <time>2021-09-04T10:27:39Z</time>
      </trkpt>
      <trkpt lat="44.13981" lon="5.56863">
        <ele>1107.4000244141</ele>
        <time>2021-09-04T10:27:48Z</time>
      </trkpt>
      <trkpt lat="44.13985" lon="5.56863">
        <ele>1107.4000244141</ele>
        <time>2021-09-04T10:27:49Z</time>
      </trkpt>
      <trkpt lat="44.14013" lon="5.56863">
        <ele>1108.4000244141</ele>
        <time>2021-09-04T10:27:57Z</time>
      </trkpt>
      <trkpt lat="44.1402" lon="5.56864">
        <ele>1108.5999755859</ele>
        <time>2021-09-04T10:27:59Z</time>
      </trkpt>
      <trkpt lat="44.14044" lon="5.56866">
        <ele>1109.4000244141</ele>
        <time>2021-09-04T10:28:06Z</time>
      </trkpt>
      <trkpt lat="44.1405" lon="5.56867">
        <ele>1109.8000488281</ele>
        <time>2021-09-04T10:28:08Z</time>
      </trkpt>
      <trkpt lat="44.14066" lon="5.56872">
        <ele>1110.5999755859</ele>
        <time>2021-09-04T10:28:13Z</time>
      </trkpt>
      <trkpt lat="44.14079" lon="5.56877">
        <ele>1111</ele>
        <time>2021-09-04T10:28:17Z</time>
      </trkpt>
      <trkpt lat="44.14094" lon="5.56885">
        <ele>1111.5999755859</ele>
        <time>2021-09-04T10:28:22Z</time>
      </trkpt>
      <trkpt lat="44.14108" lon="5.56892">
        <ele>1112.1999511719</ele>
        <time>2021-09-04T10:28:26Z</time>
      </trkpt>
      <trkpt lat="44.14118" lon="5.56898">
        <ele>1112.8000488281</ele>
        <time>2021-09-04T10:28:29Z</time>
      </trkpt>
      <trkpt lat="44.14132" lon="5.56907">
        <ele>1113.5999755859</ele>
        <time>2021-09-04T10:28:34Z</time>
      </trkpt>
      <trkpt lat="44.14138" lon="5.5691">
        <ele>1114.1999511719</ele>
        <time>2021-09-04T10:28:36Z</time>
      </trkpt>
      <trkpt lat="44.14152" lon="5.56918">
        <ele>1115.1999511719</ele>
        <time>2021-09-04T10:28:41Z</time>
      </trkpt>
      <trkpt lat="44.14155" lon="5.56919">
        <ele>1115.1999511719</ele>
        <time>2021-09-04T10:28:42Z</time>
      </trkpt>
      <trkpt lat="44.14171" lon="5.56924">
        <ele>1115.5999755859</ele>
        <time>2021-09-04T10:28:47Z</time>
      </trkpt>
      <trkpt lat="44.1419" lon="5.5693">
        <ele>1116.1999511719</ele>
        <time>2021-09-04T10:28:53Z</time>
      </trkpt>
      <trkpt lat="44.14193" lon="5.56931">
        <ele>1116.1999511719</ele>
        <time>2021-09-04T10:28:54Z</time>
      </trkpt>
      <trkpt lat="44.14216" lon="5.56937">
        <ele>1117.4000244141</ele>
        <time>2021-09-04T10:29:01Z</time>
      </trkpt>
      <trkpt lat="44.14237" lon="5.56943">
        <ele>1118.1999511719</ele>
        <time>2021-09-04T10:29:09Z</time>
      </trkpt>
      <trkpt lat="44.14241" lon="5.56942">
        <ele>1118.8000488281</ele>
        <time>2021-09-04T10:29:34Z</time>
      </trkpt>
      <trkpt lat="44.14251" lon="5.56944">
        <ele>1118.8000488281</ele>
        <time>2021-09-04T10:29:38Z</time>
      </trkpt>
      <trkpt lat="44.14266" lon="5.56945">
        <ele>1118.8000488281</ele>
        <time>2021-09-04T10:29:43Z</time>
      </trkpt>
      <trkpt lat="44.14283" lon="5.56948">
        <ele>1119.5999755859</ele>
        <time>2021-09-04T10:29:48Z</time>
      </trkpt>
      <trkpt lat="44.143" lon="5.5695">
        <ele>1120.4000244141</ele>
        <time>2021-09-04T10:29:53Z</time>
      </trkpt>
      <trkpt lat="44.14307" lon="5.56951">
        <ele>1120.5999755859</ele>
        <time>2021-09-04T10:29:55Z</time>
      </trkpt>
      <trkpt lat="44.14333" lon="5.56952">
        <ele>1121.4000244141</ele>
        <time>2021-09-04T10:30:02Z</time>
      </trkpt>
      <trkpt lat="44.14351" lon="5.56954">
        <ele>1121.5999755859</ele>
        <time>2021-09-04T10:30:07Z</time>
      </trkpt>
      <trkpt lat="44.14365" lon="5.56956">
        <ele>1122</ele>
        <time>2021-09-04T10:30:11Z</time>
      </trkpt>
      <trkpt lat="44.14375" lon="5.56957">
        <ele>1122.8000488281</ele>
        <time>2021-09-04T10:30:14Z</time>
      </trkpt>
      <trkpt lat="44.14393" lon="5.56959">
        <ele>1123.4000244141</ele>
        <time>2021-09-04T10:30:19Z</time>
      </trkpt>
      <trkpt lat="44.14404" lon="5.5696">
        <ele>1123.8000488281</ele>
        <time>2021-09-04T10:30:22Z</time>
      </trkpt>
      <trkpt lat="44.14428" lon="5.56962">
        <ele>1124.8000488281</ele>
        <time>2021-09-04T10:30:29Z</time>
      </trkpt>
      <trkpt lat="44.14432" lon="5.56962">
        <ele>1125</ele>
        <time>2021-09-04T10:30:30Z</time>
      </trkpt>
      <trkpt lat="44.14457" lon="5.56965">
        <ele>1126</ele>
        <time>2021-09-04T10:30:37Z</time>
      </trkpt>
      <trkpt lat="44.1446" lon="5.56965">
        <ele>1126.1999511719</ele>
        <time>2021-09-04T10:30:38Z</time>
      </trkpt>
      <trkpt lat="44.14485" lon="5.56967">
        <ele>1127</ele>
        <time>2021-09-04T10:30:45Z</time>
      </trkpt>
      <trkpt lat="44.14492" lon="5.56968">
        <ele>1127.1999511719</ele>
        <time>2021-09-04T10:30:47Z</time>
      </trkpt>
      <trkpt lat="44.14513" lon="5.5697">
        <ele>1128</ele>
        <time>2021-09-04T10:30:53Z</time>
      </trkpt>
      <trkpt lat="44.14516" lon="5.5697">
        <ele>1128.1999511719</ele>
        <time>2021-09-04T10:30:54Z</time>
      </trkpt>
      <trkpt lat="44.14542" lon="5.5697">
        <ele>1129.1999511719</ele>
        <time>2021-09-04T10:31:01Z</time>
      </trkpt>
      <trkpt lat="44.14549" lon="5.5697">
        <ele>1129.4000244141</ele>
        <time>2021-09-04T10:31:03Z</time>
      </trkpt>
      <trkpt lat="44.14579" lon="5.56969">
        <ele>1130.1999511719</ele>
        <time>2021-09-04T10:31:11Z</time>
      </trkpt>
      <trkpt lat="44.14586" lon="5.56969">
        <ele>1130.5999755859</ele>
        <time>2021-09-04T10:31:13Z</time>
      </trkpt>
      <trkpt lat="44.14614" lon="5.56969">
        <ele>1131.4000244141</ele>
        <time>2021-09-04T10:31:21Z</time>
      </trkpt>
      <trkpt lat="44.14617" lon="5.5697">
        <ele>1131.5999755859</ele>
        <time>2021-09-04T10:31:22Z</time>
      </trkpt>
      <trkpt lat="44.14631" lon="5.56968">
        <ele>1132.4000244141</ele>
        <time>2021-09-04T10:31:26Z</time>
      </trkpt>
      <trkpt lat="44.14649" lon="5.56968">
        <ele>1133.1999511719</ele>
        <time>2021-09-04T10:31:31Z</time>
      </trkpt>
      <trkpt lat="44.14655" lon="5.56968">
        <ele>1133.4000244141</ele>
        <time>2021-09-04T10:31:33Z</time>
      </trkpt>
      <trkpt lat="44.14672" lon="5.56966">
        <ele>1134</ele>
        <time>2021-09-04T10:31:38Z</time>
      </trkpt>
      <trkpt lat="44.14682" lon="5.56966">
        <ele>1134.4000244141</ele>
        <time>2021-09-04T10:31:41Z</time>
      </trkpt>
      <trkpt lat="44.14697" lon="5.56964">
        <ele>1135</ele>
        <time>2021-09-04T10:31:45Z</time>
      </trkpt>
      <trkpt lat="44.14711" lon="5.56963">
        <ele>1135.5999755859</ele>
        <time>2021-09-04T10:31:49Z</time>
      </trkpt>
      <trkpt lat="44.14725" lon="5.56961">
        <ele>1136</ele>
        <time>2021-09-04T10:31:53Z</time>
      </trkpt>
      <trkpt lat="44.1475" lon="5.56957">
        <ele>1136.5999755859</ele>
        <time>2021-09-04T10:32:00Z</time>
      </trkpt>
      <trkpt lat="44.14761" lon="5.56956">
        <ele>1137.1999511719</ele>
        <time>2021-09-04T10:32:03Z</time>
      </trkpt>
      <trkpt lat="44.14782" lon="5.56954">
        <ele>1137.8000488281</ele>
        <time>2021-09-04T10:32:09Z</time>
      </trkpt>
      <trkpt lat="44.14792" lon="5.56952">
        <ele>1138</ele>
        <time>2021-09-04T10:32:12Z</time>
      </trkpt>
      <trkpt lat="44.14802" lon="5.56951">
        <ele>1138.8000488281</ele>
        <time>2021-09-04T10:32:15Z</time>
      </trkpt>
      <trkpt lat="44.14821" lon="5.56949">
        <ele>1139.4000244141</ele>
        <time>2021-09-04T10:32:21Z</time>
      </trkpt>
      <trkpt lat="44.1483" lon="5.56947">
        <ele>1139.8000488281</ele>
        <time>2021-09-04T10:32:24Z</time>
      </trkpt>
      <trkpt lat="44.14849" lon="5.56943">
        <ele>1140.8000488281</ele>
        <time>2021-09-04T10:32:30Z</time>
      </trkpt>
      <trkpt lat="44.14853" lon="5.56943">
        <ele>1141</ele>
        <time>2021-09-04T10:32:31Z</time>
      </trkpt>
      <trkpt lat="44.14875" lon="5.56937">
        <ele>1141.8000488281</ele>
        <time>2021-09-04T10:32:38Z</time>
      </trkpt>
      <trkpt lat="44.14878" lon="5.56935">
        <ele>1142</ele>
        <time>2021-09-04T10:32:39Z</time>
      </trkpt>
      <trkpt lat="44.14897" lon="5.56926">
        <ele>1143</ele>
        <time>2021-09-04T10:32:45Z</time>
      </trkpt>
      <trkpt lat="44.14903" lon="5.56922">
        <ele>1143.4000244141</ele>
        <time>2021-09-04T10:32:47Z</time>
      </trkpt>
      <trkpt lat="44.14924" lon="5.56907">
        <ele>1144.1999511719</ele>
        <time>2021-09-04T10:32:54Z</time>
      </trkpt>
      <trkpt lat="44.14935" lon="5.56897">
        <ele>1144.4000244141</ele>
        <time>2021-09-04T10:32:58Z</time>
      </trkpt>
      <trkpt lat="44.14954" lon="5.56881">
        <ele>1145.1999511719</ele>
        <time>2021-09-04T10:33:04Z</time>
      </trkpt>
      <trkpt lat="44.1496" lon="5.56876">
        <ele>1145.4000244141</ele>
        <time>2021-09-04T10:33:06Z</time>
      </trkpt>
      <trkpt lat="44.14974" lon="5.56862">
        <ele>1146.1999511719</ele>
        <time>2021-09-04T10:33:11Z</time>
      </trkpt>
      <trkpt lat="44.14986" lon="5.56852">
        <ele>1146.8000488281</ele>
        <time>2021-09-04T10:33:15Z</time>
      </trkpt>
      <trkpt lat="44.15001" lon="5.56837">
        <ele>1147.1999511719</ele>
        <time>2021-09-04T10:33:20Z</time>
      </trkpt>
      <trkpt lat="44.15017" lon="5.56819">
        <ele>1148.1999511719</ele>
        <time>2021-09-04T10:33:26Z</time>
      </trkpt>
      <trkpt lat="44.15022" lon="5.56812">
        <ele>1148.4000244141</ele>
        <time>2021-09-04T10:33:28Z</time>
      </trkpt>
      <trkpt lat="44.15046" lon="5.56784">
        <ele>1149.1999511719</ele>
        <time>2021-09-04T10:33:37Z</time>
      </trkpt>
      <trkpt lat="44.15048" lon="5.56781">
        <ele>1149.4000244141</ele>
        <time>2021-09-04T10:33:38Z</time>
      </trkpt>
      <trkpt lat="44.15064" lon="5.56754">
        <ele>1150.1999511719</ele>
        <time>2021-09-04T10:33:45Z</time>
      </trkpt>
      <trkpt lat="44.15073" lon="5.56738">
        <ele>1150.5999755859</ele>
        <time>2021-09-04T10:33:49Z</time>
      </trkpt>
      <trkpt lat="44.15079" lon="5.5672">
        <ele>1151.1999511719</ele>
        <time>2021-09-04T10:33:53Z</time>
      </trkpt>
      <trkpt lat="44.15085" lon="5.56707">
        <ele>1151.5999755859</ele>
        <time>2021-09-04T10:33:56Z</time>
      </trkpt>
      <trkpt lat="44.15086" lon="5.56702">
        <ele>1151.5999755859</ele>
        <time>2021-09-04T10:33:57Z</time>
      </trkpt>
      <trkpt lat="44.15094" lon="5.56686">
        <ele>1152.1999511719</ele>
        <time>2021-09-04T10:34:01Z</time>
      </trkpt>
      <trkpt lat="44.15105" lon="5.56667">
        <ele>1152.5999755859</ele>
        <time>2021-09-04T10:34:06Z</time>
      </trkpt>
      <trkpt lat="44.15113" lon="5.56655">
        <ele>1152.8000488281</ele>
        <time>2021-09-04T10:34:09Z</time>
      </trkpt>
      <trkpt lat="44.15129" lon="5.56634">
        <ele>1153.5999755859</ele>
        <time>2021-09-04T10:34:15Z</time>
      </trkpt>
      <trkpt lat="44.15138" lon="5.56624">
        <ele>1154</ele>
        <time>2021-09-04T10:34:18Z</time>
      </trkpt>
      <trkpt lat="44.1516" lon="5.56592">
        <ele>1154.5999755859</ele>
        <time>2021-09-04T10:34:27Z</time>
      </trkpt>
      <trkpt lat="44.15176" lon="5.56568">
        <ele>1155.4000244141</ele>
        <time>2021-09-04T10:34:34Z</time>
      </trkpt>
      <trkpt lat="44.15186" lon="5.56553">
        <ele>1155.8000488281</ele>
        <time>2021-09-04T10:34:38Z</time>
      </trkpt>
      <trkpt lat="44.15199" lon="5.56542">
        <ele>1156.4000244141</ele>
        <time>2021-09-04T10:34:42Z</time>
      </trkpt>
      <trkpt lat="44.15214" lon="5.56533">
        <ele>1156.8000488281</ele>
        <time>2021-09-04T10:34:46Z</time>
      </trkpt>
      <trkpt lat="44.15229" lon="5.56528">
        <ele>1157.1999511719</ele>
        <time>2021-09-04T10:34:50Z</time>
      </trkpt>
      <trkpt lat="44.15253" lon="5.56524">
        <ele>1157.8000488281</ele>
        <time>2021-09-04T10:34:56Z</time>
      </trkpt>
      <trkpt lat="44.15268" lon="5.56521">
        <ele>1158.4000244141</ele>
        <time>2021-09-04T10:35:00Z</time>
      </trkpt>
      <trkpt lat="44.15285" lon="5.56517">
        <ele>1158.8000488281</ele>
        <time>2021-09-04T10:35:04Z</time>
      </trkpt>
      <trkpt lat="44.15309" lon="5.56507">
        <ele>1159.5999755859</ele>
        <time>2021-09-04T10:35:10Z</time>
      </trkpt>
      <trkpt lat="44.15321" lon="5.56502">
        <ele>1159.8000488281</ele>
        <time>2021-09-04T10:35:13Z</time>
      </trkpt>
      <trkpt lat="44.1534" lon="5.56494">
        <ele>1160.4000244141</ele>
        <time>2021-09-04T10:35:18Z</time>
      </trkpt>
      <trkpt lat="44.15355" lon="5.56488">
        <ele>1161</ele>
        <time>2021-09-04T10:35:22Z</time>
      </trkpt>
      <trkpt lat="44.15373" lon="5.56481">
        <ele>1161.8000488281</ele>
        <time>2021-09-04T10:35:27Z</time>
      </trkpt>
      <trkpt lat="44.15377" lon="5.5648">
        <ele>1162</ele>
        <time>2021-09-04T10:35:28Z</time>
      </trkpt>
      <trkpt lat="44.15399" lon="5.56476">
        <ele>1163</ele>
        <time>2021-09-04T10:35:34Z</time>
      </trkpt>
      <trkpt lat="44.15402" lon="5.56474">
        <ele>1163</ele>
        <time>2021-09-04T10:35:35Z</time>
      </trkpt>
      <trkpt lat="44.15421" lon="5.56476">
        <ele>1163.8000488281</ele>
        <time>2021-09-04T10:35:40Z</time>
      </trkpt>
      <trkpt lat="44.15432" lon="5.56479">
        <ele>1164.1999511719</ele>
        <time>2021-09-04T10:35:43Z</time>
      </trkpt>
      <trkpt lat="44.1545" lon="5.56487">
        <ele>1165</ele>
        <time>2021-09-04T10:35:48Z</time>
      </trkpt>
      <trkpt lat="44.15457" lon="5.56492">
        <ele>1165.4000244141</ele>
        <time>2021-09-04T10:35:50Z</time>
      </trkpt>
      <trkpt lat="44.1548" lon="5.56504">
        <ele>1166.4000244141</ele>
        <time>2021-09-04T10:35:57Z</time>
      </trkpt>
      <trkpt lat="44.15483" lon="5.56506">
        <ele>1166.5999755859</ele>
        <time>2021-09-04T10:35:58Z</time>
      </trkpt>
      <trkpt lat="44.15505" lon="5.56513">
        <ele>1167.5999755859</ele>
        <time>2021-09-04T10:36:04Z</time>
      </trkpt>
      <trkpt lat="44.15523" lon="5.56513">
        <ele>1168.1999511719</ele>
        <time>2021-09-04T10:36:09Z</time>
      </trkpt>
      <trkpt lat="44.15541" lon="5.56511">
        <ele>1168.5999755859</ele>
        <time>2021-09-04T10:36:14Z</time>
      </trkpt>
      <trkpt lat="44.15555" lon="5.56508">
        <ele>1169.1999511719</ele>
        <time>2021-09-04T10:36:18Z</time>
      </trkpt>
      <trkpt lat="44.15573" lon="5.56504">
        <ele>1169.8000488281</ele>
        <time>2021-09-04T10:36:23Z</time>
      </trkpt>
      <trkpt lat="44.1559" lon="5.56501">
        <ele>1170.4000244141</ele>
        <time>2021-09-04T10:36:28Z</time>
      </trkpt>
      <trkpt lat="44.156" lon="5.56497">
        <ele>1171</ele>
        <time>2021-09-04T10:36:31Z</time>
      </trkpt>
      <trkpt lat="44.15614" lon="5.56495">
        <ele>1171.4000244141</ele>
        <time>2021-09-04T10:36:35Z</time>
      </trkpt>
      <trkpt lat="44.15624" lon="5.5649">
        <ele>1172</ele>
        <time>2021-09-04T10:36:38Z</time>
      </trkpt>
      <trkpt lat="44.15637" lon="5.56481">
        <ele>1172.4000244141</ele>
        <time>2021-09-04T10:36:42Z</time>
      </trkpt>
      <trkpt lat="44.15653" lon="5.56466">
        <ele>1173.1999511719</ele>
        <time>2021-09-04T10:36:47Z</time>
      </trkpt>
      <trkpt lat="44.15669" lon="5.56445">
        <ele>1174</ele>
        <time>2021-09-04T10:36:53Z</time>
      </trkpt>
      <trkpt lat="44.15672" lon="5.56441">
        <ele>1174.1999511719</ele>
        <time>2021-09-04T10:36:54Z</time>
      </trkpt>
      <trkpt lat="44.15691" lon="5.56416">
        <ele>1175.1999511719</ele>
        <time>2021-09-04T10:37:01Z</time>
      </trkpt>
      <trkpt lat="44.15713" lon="5.56398">
        <ele>1176.1999511719</ele>
        <time>2021-09-04T10:37:08Z</time>
      </trkpt>
      <trkpt lat="44.15717" lon="5.56397">
        <ele>1176.4000244141</ele>
        <time>2021-09-04T10:37:09Z</time>
      </trkpt>
      <trkpt lat="44.15735" lon="5.56396">
        <ele>1177</ele>
        <time>2021-09-04T10:37:14Z</time>
      </trkpt>
      <trkpt lat="44.15748" lon="5.56406">
        <ele>1177.4000244141</ele>
        <time>2021-09-04T10:37:18Z</time>
      </trkpt>
      <trkpt lat="44.15751" lon="5.56409">
        <ele>1177.5999755859</ele>
        <time>2021-09-04T10:37:19Z</time>
      </trkpt>
      <trkpt lat="44.15771" lon="5.5643">
        <ele>1178.5999755859</ele>
        <time>2021-09-04T10:37:26Z</time>
      </trkpt>
      <trkpt lat="44.15773" lon="5.56434">
        <ele>1178.8000488281</ele>
        <time>2021-09-04T10:37:27Z</time>
      </trkpt>
      <trkpt lat="44.15797" lon="5.56455">
        <ele>1179.8000488281</ele>
        <time>2021-09-04T10:37:35Z</time>
      </trkpt>
      <trkpt lat="44.158" lon="5.56455">
        <ele>1179.8000488281</ele>
        <time>2021-09-04T10:37:36Z</time>
      </trkpt>
      <trkpt lat="44.15816" lon="5.56448">
        <ele>1180.8000488281</ele>
        <time>2021-09-04T10:37:41Z</time>
      </trkpt>
      <trkpt lat="44.15832" lon="5.5643">
        <ele>1181.5999755859</ele>
        <time>2021-09-04T10:37:47Z</time>
      </trkpt>
      <trkpt lat="44.15834" lon="5.56427">
        <ele>1181.8000488281</ele>
        <time>2021-09-04T10:37:48Z</time>
      </trkpt>
      <trkpt lat="44.15855" lon="5.56407">
        <ele>1182.8000488281</ele>
        <time>2021-09-04T10:37:55Z</time>
      </trkpt>
      <trkpt lat="44.15858" lon="5.56404">
        <ele>1182.8000488281</ele>
        <time>2021-09-04T10:37:56Z</time>
      </trkpt>
      <trkpt lat="44.15876" lon="5.56389">
        <ele>1183.5999755859</ele>
        <time>2021-09-04T10:38:02Z</time>
      </trkpt>
      <trkpt lat="44.15886" lon="5.56382">
        <ele>1183.8000488281</ele>
        <time>2021-09-04T10:38:05Z</time>
      </trkpt>
      <trkpt lat="44.15898" lon="5.56376">
        <ele>1184.4000244141</ele>
        <time>2021-09-04T10:38:09Z</time>
      </trkpt>
      <trkpt lat="44.15908" lon="5.56373">
        <ele>1185</ele>
        <time>2021-09-04T10:38:12Z</time>
      </trkpt>
      <trkpt lat="44.15925" lon="5.56369">
        <ele>1185.5999755859</ele>
        <time>2021-09-04T10:38:17Z</time>
      </trkpt>
      <trkpt lat="44.15939" lon="5.56368">
        <ele>1186</ele>
        <time>2021-09-04T10:38:21Z</time>
      </trkpt>
      <trkpt lat="44.15946" lon="5.5637">
        <ele>1186.4000244141</ele>
        <time>2021-09-04T10:38:23Z</time>
      </trkpt>
      <trkpt lat="44.1596" lon="5.56374">
        <ele>1187</ele>
        <time>2021-09-04T10:38:27Z</time>
      </trkpt>
      <trkpt lat="44.15974" lon="5.56374">
        <ele>1187.8000488281</ele>
        <time>2021-09-04T10:38:31Z</time>
      </trkpt>
      <trkpt lat="44.15985" lon="5.56372">
        <ele>1188.1999511719</ele>
        <time>2021-09-04T10:38:34Z</time>
      </trkpt>
      <trkpt lat="44.16007" lon="5.56362">
        <ele>1189.1999511719</ele>
        <time>2021-09-04T10:38:41Z</time>
      </trkpt>
      <trkpt lat="44.16035" lon="5.56341">
        <ele>1190.4000244141</ele>
        <time>2021-09-04T10:38:50Z</time>
      </trkpt>
      <trkpt lat="44.16038" lon="5.56339">
        <ele>1190.5999755859</ele>
        <time>2021-09-04T10:38:51Z</time>
      </trkpt>
      <trkpt lat="44.1606" lon="5.56324">
        <ele>1191.4000244141</ele>
        <time>2021-09-04T10:38:58Z</time>
      </trkpt>
      <trkpt lat="44.16063" lon="5.56321">
        <ele>1191.5999755859</ele>
        <time>2021-09-04T10:38:59Z</time>
      </trkpt>
      <trkpt lat="44.16087" lon="5.56302">
        <ele>1192.4000244141</ele>
        <time>2021-09-04T10:39:07Z</time>
      </trkpt>
      <trkpt lat="44.16107" lon="5.56278">
        <ele>1193.1999511719</ele>
        <time>2021-09-04T10:39:14Z</time>
      </trkpt>
      <trkpt lat="44.1613" lon="5.56249">
        <ele>1193.5999755859</ele>
        <time>2021-09-04T10:39:22Z</time>
      </trkpt>
      <trkpt lat="44.16147" lon="5.56221">
        <ele>1194.5999755859</ele>
        <time>2021-09-04T10:39:30Z</time>
      </trkpt>
      <trkpt lat="44.16157" lon="5.56195">
        <ele>1195.8000488281</ele>
        <time>2021-09-04T10:39:37Z</time>
      </trkpt>
      <trkpt lat="44.16161" lon="5.56174">
        <ele>1196.8000488281</ele>
        <time>2021-09-04T10:39:42Z</time>
      </trkpt>
      <trkpt lat="44.16162" lon="5.56166">
        <ele>1197.1999511719</ele>
        <time>2021-09-04T10:39:44Z</time>
      </trkpt>
      <trkpt lat="44.16163" lon="5.56147">
        <ele>1198</ele>
        <time>2021-09-04T10:39:49Z</time>
      </trkpt>
      <trkpt lat="44.16163" lon="5.5614">
        <ele>1198.5999755859</ele>
        <time>2021-09-04T10:39:51Z</time>
      </trkpt>
      <trkpt lat="44.16163" lon="5.56133">
        <ele>1199.1999511719</ele>
        <time>2021-09-04T10:39:53Z</time>
      </trkpt>
      <trkpt lat="44.16164" lon="5.56112">
        <ele>1200.1999511719</ele>
        <time>2021-09-04T10:39:59Z</time>
      </trkpt>
      <trkpt lat="44.16165" lon="5.56108">
        <ele>1200.4000244141</ele>
        <time>2021-09-04T10:40:00Z</time>
      </trkpt>
      <trkpt lat="44.16168" lon="5.5608">
        <ele>1201.1999511719</ele>
        <time>2021-09-04T10:40:08Z</time>
      </trkpt>
      <trkpt lat="44.16169" lon="5.56076">
        <ele>1201.4000244141</ele>
        <time>2021-09-04T10:40:09Z</time>
      </trkpt>
      <trkpt lat="44.16177" lon="5.56052">
        <ele>1202.4000244141</ele>
        <time>2021-09-04T10:40:16Z</time>
      </trkpt>
      <trkpt lat="44.16179" lon="5.56049">
        <ele>1202.4000244141</ele>
        <time>2021-09-04T10:40:17Z</time>
      </trkpt>
      <trkpt lat="44.16193" lon="5.56026">
        <ele>1203</ele>
        <time>2021-09-04T10:40:25Z</time>
      </trkpt>
      <trkpt lat="44.162" lon="5.56018">
        <ele>1203.4000244141</ele>
        <time>2021-09-04T10:40:28Z</time>
      </trkpt>
      <trkpt lat="44.1621" lon="5.56004">
        <ele>1203.8000488281</ele>
        <time>2021-09-04T10:40:33Z</time>
      </trkpt>
      <trkpt lat="44.16217" lon="5.55992">
        <ele>1204.5999755859</ele>
        <time>2021-09-04T10:40:37Z</time>
      </trkpt>
      <trkpt lat="44.16225" lon="5.55983">
        <ele>1205.1999511719</ele>
        <time>2021-09-04T10:40:41Z</time>
      </trkpt>
      <trkpt lat="44.16232" lon="5.55985">
        <ele>1205.5999755859</ele>
        <time>2021-09-04T10:40:44Z</time>
      </trkpt>
      <trkpt lat="44.16233" lon="5.55988">
        <ele>1205.8000488281</ele>
        <time>2021-09-04T10:40:45Z</time>
      </trkpt>
      <trkpt lat="44.16233" lon="5.55997">
        <ele>1206.4000244141</ele>
        <time>2021-09-04T10:40:48Z</time>
      </trkpt>
      <trkpt lat="44.16233" lon="5.56001">
        <ele>1206.5999755859</ele>
        <time>2021-09-04T10:40:49Z</time>
      </trkpt>
      <trkpt lat="44.16232" lon="5.56004">
        <ele>1206.8000488281</ele>
        <time>2021-09-04T10:40:50Z</time>
      </trkpt>
      <trkpt lat="44.16231" lon="5.56022">
        <ele>1208</ele>
        <time>2021-09-04T10:40:55Z</time>
      </trkpt>
      <trkpt lat="44.16231" lon="5.56025">
        <ele>1208</ele>
        <time>2021-09-04T10:40:56Z</time>
      </trkpt>
      <trkpt lat="44.16229" lon="5.56048">
        <ele>1209</ele>
        <time>2021-09-04T10:41:03Z</time>
      </trkpt>
      <trkpt lat="44.16228" lon="5.56055">
        <ele>1209.1999511719</ele>
        <time>2021-09-04T10:41:05Z</time>
      </trkpt>
      <trkpt lat="44.16232" lon="5.56075">
        <ele>1210</ele>
        <time>2021-09-04T10:41:11Z</time>
      </trkpt>
      <trkpt lat="44.16234" lon="5.56077">
        <ele>1210.1999511719</ele>
        <time>2021-09-04T10:41:12Z</time>
      </trkpt>
      <trkpt lat="44.16236" lon="5.56078">
        <ele>1210.1999511719</ele>
        <time>2021-09-04T10:41:13Z</time>
      </trkpt>
      <trkpt lat="44.16243" lon="5.56074">
        <ele>1210.5999755859</ele>
        <time>2021-09-04T10:41:16Z</time>
      </trkpt>
      <trkpt lat="44.16247" lon="5.56066">
        <ele>1211.1999511719</ele>
        <time>2021-09-04T10:41:19Z</time>
      </trkpt>
      <trkpt lat="44.16249" lon="5.56063">
        <ele>1211.4000244141</ele>
        <time>2021-09-04T10:41:20Z</time>
      </trkpt>
      <trkpt lat="44.16251" lon="5.56057">
        <ele>1211.5999755859</ele>
        <time>2021-09-04T10:41:22Z</time>
      </trkpt>
      <trkpt lat="44.16258" lon="5.56044">
        <ele>1212.1999511719</ele>
        <time>2021-09-04T10:41:27Z</time>
      </trkpt>
      <trkpt lat="44.16264" lon="5.56033">
        <ele>1213</ele>
        <time>2021-09-04T10:41:31Z</time>
      </trkpt>
      <trkpt lat="44.16269" lon="5.56026">
        <ele>1213.4000244141</ele>
        <time>2021-09-04T10:41:34Z</time>
      </trkpt>
      <trkpt lat="44.16278" lon="5.56017">
        <ele>1213.8000488281</ele>
        <time>2021-09-04T10:41:38Z</time>
      </trkpt>
      <trkpt lat="44.16288" lon="5.56005">
        <ele>1214.4000244141</ele>
        <time>2021-09-04T10:41:43Z</time>
      </trkpt>
      <trkpt lat="44.16295" lon="5.56">
        <ele>1214.8000488281</ele>
        <time>2021-09-04T10:41:46Z</time>
      </trkpt>
      <trkpt lat="44.16304" lon="5.55994">
        <ele>1215.8000488281</ele>
        <time>2021-09-04T10:41:50Z</time>
      </trkpt>
      <trkpt lat="44.16312" lon="5.55988">
        <ele>1216.4000244141</ele>
        <time>2021-09-04T10:41:54Z</time>
      </trkpt>
      <trkpt lat="44.16319" lon="5.55984">
        <ele>1216.8000488281</ele>
        <time>2021-09-04T10:41:57Z</time>
      </trkpt>
      <trkpt lat="44.16329" lon="5.55982">
        <ele>1217.4000244141</ele>
        <time>2021-09-04T10:42:01Z</time>
      </trkpt>
      <trkpt lat="44.16341" lon="5.55977">
        <ele>1218</ele>
        <time>2021-09-04T10:42:06Z</time>
      </trkpt>
      <trkpt lat="44.16345" lon="5.55975">
        <ele>1218.5999755859</ele>
        <time>2021-09-04T10:42:08Z</time>
      </trkpt>
      <trkpt lat="44.16352" lon="5.55973">
        <ele>1219.1999511719</ele>
        <time>2021-09-04T10:42:11Z</time>
      </trkpt>
      <trkpt lat="44.16364" lon="5.55972">
        <ele>1220.1999511719</ele>
        <time>2021-09-04T10:42:16Z</time>
      </trkpt>
      <trkpt lat="44.16367" lon="5.55972">
        <ele>1220.1999511719</ele>
        <time>2021-09-04T10:42:17Z</time>
      </trkpt>
      <trkpt lat="44.16382" lon="5.5597">
        <ele>1221.4000244141</ele>
        <time>2021-09-04T10:42:24Z</time>
      </trkpt>
      <trkpt lat="44.16386" lon="5.55971">
        <ele>1221.8000488281</ele>
        <time>2021-09-04T10:42:26Z</time>
      </trkpt>
      <trkpt lat="44.16393" lon="5.55973">
        <ele>1222.4000244141</ele>
        <time>2021-09-04T10:42:29Z</time>
      </trkpt>
      <trkpt lat="44.16401" lon="5.55974">
        <ele>1223</ele>
        <time>2021-09-04T10:42:33Z</time>
      </trkpt>
      <trkpt lat="44.16408" lon="5.55974">
        <ele>1223.5999755859</ele>
        <time>2021-09-04T10:42:36Z</time>
      </trkpt>
      <trkpt lat="44.16419" lon="5.5597">
        <ele>1224.4000244141</ele>
        <time>2021-09-04T10:42:41Z</time>
      </trkpt>
      <trkpt lat="44.16424" lon="5.55969">
        <ele>1224.5999755859</ele>
        <time>2021-09-04T10:42:43Z</time>
      </trkpt>
      <trkpt lat="44.16439" lon="5.55962">
        <ele>1225.4000244141</ele>
        <time>2021-09-04T10:42:50Z</time>
      </trkpt>
      <trkpt lat="44.16441" lon="5.55961">
        <ele>1225.5999755859</ele>
        <time>2021-09-04T10:42:51Z</time>
      </trkpt>
      <trkpt lat="44.16454" lon="5.55952">
        <ele>1226.8000488281</ele>
        <time>2021-09-04T10:42:58Z</time>
      </trkpt>
      <trkpt lat="44.16456" lon="5.5595">
        <ele>1226.8000488281</ele>
        <time>2021-09-04T10:42:59Z</time>
      </trkpt>
      <trkpt lat="44.1647" lon="5.55944">
        <ele>1227.8000488281</ele>
        <time>2021-09-04T10:43:05Z</time>
      </trkpt>
      <trkpt lat="44.16472" lon="5.55942">
        <ele>1227.8000488281</ele>
        <time>2021-09-04T10:43:06Z</time>
      </trkpt>
      <trkpt lat="44.16486" lon="5.55938">
        <ele>1228.8000488281</ele>
        <time>2021-09-04T10:43:12Z</time>
      </trkpt>
      <trkpt lat="44.16491" lon="5.55936">
        <ele>1228.8000488281</ele>
        <time>2021-09-04T10:43:14Z</time>
      </trkpt>
      <trkpt lat="44.16503" lon="5.55933">
        <ele>1229.8000488281</ele>
        <time>2021-09-04T10:43:19Z</time>
      </trkpt>
      <trkpt lat="44.16505" lon="5.55932">
        <ele>1230</ele>
        <time>2021-09-04T10:43:20Z</time>
      </trkpt>
      <trkpt lat="44.16519" lon="5.5593">
        <ele>1230.8000488281</ele>
        <time>2021-09-04T10:43:26Z</time>
      </trkpt>
      <trkpt lat="44.16522" lon="5.55929">
        <ele>1231.1999511719</ele>
        <time>2021-09-04T10:43:27Z</time>
      </trkpt>
      <trkpt lat="44.16537" lon="5.55925">
        <ele>1232.4000244141</ele>
        <time>2021-09-04T10:43:33Z</time>
      </trkpt>
      <trkpt lat="44.16539" lon="5.55925">
        <ele>1232.4000244141</ele>
        <time>2021-09-04T10:43:34Z</time>
      </trkpt>
      <trkpt lat="44.16555" lon="5.55921">
        <ele>1233.4000244141</ele>
        <time>2021-09-04T10:43:41Z</time>
      </trkpt>
      <trkpt lat="44.16562" lon="5.55919">
        <ele>1233.8000488281</ele>
        <time>2021-09-04T10:43:44Z</time>
      </trkpt>
      <trkpt lat="44.16571" lon="5.55916">
        <ele>1234.5999755859</ele>
        <time>2021-09-04T10:43:48Z</time>
      </trkpt>
      <trkpt lat="44.16582" lon="5.55912">
        <ele>1235.4000244141</ele>
        <time>2021-09-04T10:43:53Z</time>
      </trkpt>
      <trkpt lat="44.16587" lon="5.55909">
        <ele>1235.8000488281</ele>
        <time>2021-09-04T10:43:55Z</time>
      </trkpt>
      <trkpt lat="44.16601" lon="5.55904">
        <ele>1236.4000244141</ele>
        <time>2021-09-04T10:44:01Z</time>
      </trkpt>
      <trkpt lat="44.16606" lon="5.55902">
        <ele>1236.8000488281</ele>
        <time>2021-09-04T10:44:03Z</time>
      </trkpt>
      <trkpt lat="44.16619" lon="5.55895">
        <ele>1237.8000488281</ele>
        <time>2021-09-04T10:44:09Z</time>
      </trkpt>
      <trkpt lat="44.16621" lon="5.55895">
        <ele>1238</ele>
        <time>2021-09-04T10:44:10Z</time>
      </trkpt>
      <trkpt lat="44.16632" lon="5.55888">
        <ele>1239</ele>
        <time>2021-09-04T10:44:15Z</time>
      </trkpt>
      <trkpt lat="44.16636" lon="5.55885">
        <ele>1239.1999511719</ele>
        <time>2021-09-04T10:44:17Z</time>
      </trkpt>
      <trkpt lat="44.16647" lon="5.55876">
        <ele>1240</ele>
        <time>2021-09-04T10:44:22Z</time>
      </trkpt>
      <trkpt lat="44.16658" lon="5.55868">
        <ele>1240.8000488281</ele>
        <time>2021-09-04T10:44:27Z</time>
      </trkpt>
      <trkpt lat="44.16662" lon="5.55864">
        <ele>1241.1999511719</ele>
        <time>2021-09-04T10:44:29Z</time>
      </trkpt>
      <trkpt lat="44.16674" lon="5.55856">
        <ele>1242.1999511719</ele>
        <time>2021-09-04T10:44:35Z</time>
      </trkpt>
      <trkpt lat="44.16685" lon="5.55848">
        <ele>1243.1999511719</ele>
        <time>2021-09-04T10:44:41Z</time>
      </trkpt>
      <trkpt lat="44.16686" lon="5.55847">
        <ele>1243.1999511719</ele>
        <time>2021-09-04T10:44:42Z</time>
      </trkpt>
      <trkpt lat="44.16692" lon="5.5584">
        <ele>1244.1999511719</ele>
        <time>2021-09-04T10:47:34Z</time>
      </trkpt>
      <trkpt lat="44.16704" lon="5.55827">
        <ele>1244</ele>
        <time>2021-09-04T10:47:40Z</time>
      </trkpt>
      <trkpt lat="44.16722" lon="5.55803">
        <ele>1243.1999511719</ele>
        <time>2021-09-04T10:47:46Z</time>
      </trkpt>
      <trkpt lat="44.16738" lon="5.55781">
        <ele>1242.8000488281</ele>
        <time>2021-09-04T10:47:50Z</time>
      </trkpt>
      <trkpt lat="44.16741" lon="5.55773">
        <ele>1242.4000244141</ele>
        <time>2021-09-04T10:47:51Z</time>
      </trkpt>
      <trkpt lat="44.16743" lon="5.55765">
        <ele>1242</ele>
        <time>2021-09-04T10:47:52Z</time>
      </trkpt>
      <trkpt lat="44.1675" lon="5.55746">
        <ele>1241.4000244141</ele>
        <time>2021-09-04T10:47:55Z</time>
      </trkpt>
      <trkpt lat="44.1676" lon="5.55752">
        <ele>1241</ele>
        <time>2021-09-04T10:47:57Z</time>
      </trkpt>
      <trkpt lat="44.16758" lon="5.55769">
        <ele>1240.5999755859</ele>
        <time>2021-09-04T10:47:59Z</time>
      </trkpt>
      <trkpt lat="44.16754" lon="5.55786">
        <ele>1239.8000488281</ele>
        <time>2021-09-04T10:48:01Z</time>
      </trkpt>
      <trkpt lat="44.16752" lon="5.55806">
        <ele>1239</ele>
        <time>2021-09-04T10:48:03Z</time>
      </trkpt>
      <trkpt lat="44.16754" lon="5.55815">
        <ele>1238.5999755859</ele>
        <time>2021-09-04T10:48:04Z</time>
      </trkpt>
      <trkpt lat="44.16764" lon="5.55832">
        <ele>1237.5999755859</ele>
        <time>2021-09-04T10:48:06Z</time>
      </trkpt>
      <trkpt lat="44.16771" lon="5.55839">
        <ele>1237.1999511719</ele>
        <time>2021-09-04T10:48:07Z</time>
      </trkpt>
      <trkpt lat="44.16778" lon="5.55846">
        <ele>1236.5999755859</ele>
        <time>2021-09-04T10:48:08Z</time>
      </trkpt>
      <trkpt lat="44.16786" lon="5.55853">
        <ele>1236</ele>
        <time>2021-09-04T10:48:09Z</time>
      </trkpt>
      <trkpt lat="44.16794" lon="5.55858">
        <ele>1235.4000244141</ele>
        <time>2021-09-04T10:48:10Z</time>
      </trkpt>
      <trkpt lat="44.16802" lon="5.55865">
        <ele>1234.8000488281</ele>
        <time>2021-09-04T10:48:11Z</time>
      </trkpt>
      <trkpt lat="44.1682" lon="5.55876">
        <ele>1233.8000488281</ele>
        <time>2021-09-04T10:48:13Z</time>
      </trkpt>
      <trkpt lat="44.1684" lon="5.55886">
        <ele>1232</ele>
        <time>2021-09-04T10:48:15Z</time>
      </trkpt>
      <trkpt lat="44.16862" lon="5.55894">
        <ele>1230.5999755859</ele>
        <time>2021-09-04T10:48:17Z</time>
      </trkpt>
      <trkpt lat="44.16884" lon="5.55901">
        <ele>1228.8000488281</ele>
        <time>2021-09-04T10:48:19Z</time>
      </trkpt>
      <trkpt lat="44.16896" lon="5.55903">
        <ele>1227.8000488281</ele>
        <time>2021-09-04T10:48:20Z</time>
      </trkpt>
      <trkpt lat="44.1692" lon="5.55903">
        <ele>1225.8000488281</ele>
        <time>2021-09-04T10:48:22Z</time>
      </trkpt>
      <trkpt lat="44.16945" lon="5.55902">
        <ele>1223.8000488281</ele>
        <time>2021-09-04T10:48:24Z</time>
      </trkpt>
      <trkpt lat="44.16971" lon="5.55902">
        <ele>1222</ele>
        <time>2021-09-04T10:48:26Z</time>
      </trkpt>
      <trkpt lat="44.16996" lon="5.55904">
        <ele>1220.4000244141</ele>
        <time>2021-09-04T10:48:28Z</time>
      </trkpt>
      <trkpt lat="44.17009" lon="5.55907">
        <ele>1219.1999511719</ele>
        <time>2021-09-04T10:48:29Z</time>
      </trkpt>
      <trkpt lat="44.17021" lon="5.55911">
        <ele>1218.1999511719</ele>
        <time>2021-09-04T10:48:30Z</time>
      </trkpt>
      <trkpt lat="44.17032" lon="5.55917">
        <ele>1217.1999511719</ele>
        <time>2021-09-04T10:48:31Z</time>
      </trkpt>
      <trkpt lat="44.17054" lon="5.55929">
        <ele>1215.1999511719</ele>
        <time>2021-09-04T10:48:33Z</time>
      </trkpt>
      <trkpt lat="44.17064" lon="5.55935">
        <ele>1214.1999511719</ele>
        <time>2021-09-04T10:48:34Z</time>
      </trkpt>
      <trkpt lat="44.17074" lon="5.55938">
        <ele>1213</ele>
        <time>2021-09-04T10:48:35Z</time>
      </trkpt>
      <trkpt lat="44.17085" lon="5.5594">
        <ele>1211.8000488281</ele>
        <time>2021-09-04T10:48:36Z</time>
      </trkpt>
      <trkpt lat="44.17096" lon="5.55939">
        <ele>1210.5999755859</ele>
        <time>2021-09-04T10:48:37Z</time>
      </trkpt>
      <trkpt lat="44.17107" lon="5.55937">
        <ele>1209.4000244141</ele>
        <time>2021-09-04T10:48:38Z</time>
      </trkpt>
      <trkpt lat="44.17118" lon="5.55933">
        <ele>1207.4000244141</ele>
        <time>2021-09-04T10:48:39Z</time>
      </trkpt>
      <trkpt lat="44.17129" lon="5.55928">
        <ele>1206.4000244141</ele>
        <time>2021-09-04T10:48:40Z</time>
      </trkpt>
      <trkpt lat="44.1714" lon="5.55924">
        <ele>1205.5999755859</ele>
        <time>2021-09-04T10:48:41Z</time>
      </trkpt>
      <trkpt lat="44.17151" lon="5.55923">
        <ele>1204.8000488281</ele>
        <time>2021-09-04T10:48:42Z</time>
      </trkpt>
      <trkpt lat="44.17161" lon="5.55923">
        <ele>1203.8000488281</ele>
        <time>2021-09-04T10:48:43Z</time>
      </trkpt>
      <trkpt lat="44.17172" lon="5.55925">
        <ele>1202.8000488281</ele>
        <time>2021-09-04T10:48:44Z</time>
      </trkpt>
      <trkpt lat="44.17182" lon="5.55928">
        <ele>1201.8000488281</ele>
        <time>2021-09-04T10:48:45Z</time>
      </trkpt>
      <trkpt lat="44.17202" lon="5.5594">
        <ele>1200.1999511719</ele>
        <time>2021-09-04T10:48:47Z</time>
      </trkpt>
      <trkpt lat="44.17222" lon="5.55945">
        <ele>1198.4000244141</ele>
        <time>2021-09-04T10:48:49Z</time>
      </trkpt>
      <trkpt lat="44.17232" lon="5.55942">
        <ele>1197.4000244141</ele>
        <time>2021-09-04T10:48:50Z</time>
      </trkpt>
      <trkpt lat="44.17242" lon="5.55937">
        <ele>1196.4000244141</ele>
        <time>2021-09-04T10:48:51Z</time>
      </trkpt>
      <trkpt lat="44.17262" lon="5.55927">
        <ele>1194.5999755859</ele>
        <time>2021-09-04T10:48:53Z</time>
      </trkpt>
      <trkpt lat="44.17272" lon="5.55926">
        <ele>1193.8000488281</ele>
        <time>2021-09-04T10:48:54Z</time>
      </trkpt>
      <trkpt lat="44.17282" lon="5.55929">
        <ele>1193</ele>
        <time>2021-09-04T10:48:55Z</time>
      </trkpt>
      <trkpt lat="44.17293" lon="5.55932">
        <ele>1192</ele>
        <time>2021-09-04T10:48:56Z</time>
      </trkpt>
      <trkpt lat="44.17304" lon="5.55935">
        <ele>1191</ele>
        <time>2021-09-04T10:48:57Z</time>
      </trkpt>
      <trkpt lat="44.17327" lon="5.55943">
        <ele>1189.1999511719</ele>
        <time>2021-09-04T10:48:59Z</time>
      </trkpt>
      <trkpt lat="44.17338" lon="5.5595">
        <ele>1188.4000244141</ele>
        <time>2021-09-04T10:49:00Z</time>
      </trkpt>
      <trkpt lat="44.17349" lon="5.55958">
        <ele>1187.5999755859</ele>
        <time>2021-09-04T10:49:01Z</time>
      </trkpt>
      <trkpt lat="44.17369" lon="5.55975">
        <ele>1184.8000488281</ele>
        <time>2021-09-04T10:49:03Z</time>
      </trkpt>
      <trkpt lat="44.17388" lon="5.55999">
        <ele>1183</ele>
        <time>2021-09-04T10:49:05Z</time>
      </trkpt>
      <trkpt lat="44.17405" lon="5.56031">
        <ele>1181</ele>
        <time>2021-09-04T10:49:07Z</time>
      </trkpt>
      <trkpt lat="44.17412" lon="5.56047">
        <ele>1180</ele>
        <time>2021-09-04T10:49:08Z</time>
      </trkpt>
      <trkpt lat="44.1742" lon="5.56062">
        <ele>1178.8000488281</ele>
        <time>2021-09-04T10:49:09Z</time>
      </trkpt>
      <trkpt lat="44.17428" lon="5.56078">
        <ele>1177.8000488281</ele>
        <time>2021-09-04T10:49:10Z</time>
      </trkpt>
      <trkpt lat="44.17435" lon="5.56093">
        <ele>1176.8000488281</ele>
        <time>2021-09-04T10:49:11Z</time>
      </trkpt>
      <trkpt lat="44.17442" lon="5.56109">
        <ele>1175.8000488281</ele>
        <time>2021-09-04T10:49:12Z</time>
      </trkpt>
      <trkpt lat="44.17457" lon="5.56143">
        <ele>1173.8000488281</ele>
        <time>2021-09-04T10:49:14Z</time>
      </trkpt>
      <trkpt lat="44.17465" lon="5.56159">
        <ele>1172.8000488281</ele>
        <time>2021-09-04T10:49:15Z</time>
      </trkpt>
      <trkpt lat="44.17474" lon="5.56176">
        <ele>1171.8000488281</ele>
        <time>2021-09-04T10:49:16Z</time>
      </trkpt>
      <trkpt lat="44.17482" lon="5.56193">
        <ele>1170.8000488281</ele>
        <time>2021-09-04T10:49:17Z</time>
      </trkpt>
      <trkpt lat="44.1749" lon="5.56209">
        <ele>1169.5999755859</ele>
        <time>2021-09-04T10:49:18Z</time>
      </trkpt>
      <trkpt lat="44.17499" lon="5.56226">
        <ele>1168.5999755859</ele>
        <time>2021-09-04T10:49:19Z</time>
      </trkpt>
      <trkpt lat="44.17507" lon="5.56242">
        <ele>1167.4000244141</ele>
        <time>2021-09-04T10:49:20Z</time>
      </trkpt>
      <trkpt lat="44.17516" lon="5.56259">
        <ele>1166.4000244141</ele>
        <time>2021-09-04T10:49:21Z</time>
      </trkpt>
      <trkpt lat="44.17524" lon="5.56275">
        <ele>1165.4000244141</ele>
        <time>2021-09-04T10:49:22Z</time>
      </trkpt>
      <trkpt lat="44.17535" lon="5.56298">
        <ele>1163.4000244141</ele>
        <time>2021-09-04T10:49:24Z</time>
      </trkpt>
      <trkpt lat="44.17537" lon="5.56311">
        <ele>1162.4000244141</ele>
        <time>2021-09-04T10:49:25Z</time>
      </trkpt>
      <trkpt lat="44.17535" lon="5.56323">
        <ele>1161.4000244141</ele>
        <time>2021-09-04T10:49:26Z</time>
      </trkpt>
      <trkpt lat="44.17531" lon="5.56334">
        <ele>1159.1999511719</ele>
        <time>2021-09-04T10:49:27Z</time>
      </trkpt>
      <trkpt lat="44.17524" lon="5.56341">
        <ele>1158</ele>
        <time>2021-09-04T10:49:28Z</time>
      </trkpt>
      <trkpt lat="44.17515" lon="5.56344">
        <ele>1157</ele>
        <time>2021-09-04T10:49:29Z</time>
      </trkpt>
      <trkpt lat="44.17503" lon="5.56341">
        <ele>1155.8000488281</ele>
        <time>2021-09-04T10:49:30Z</time>
      </trkpt>
      <trkpt lat="44.17493" lon="5.56343">
        <ele>1155</ele>
        <time>2021-09-04T10:49:31Z</time>
      </trkpt>
      <trkpt lat="44.17483" lon="5.56347">
        <ele>1154</ele>
        <time>2021-09-04T10:49:32Z</time>
      </trkpt>
      <trkpt lat="44.17462" lon="5.56361">
        <ele>1152.5999755859</ele>
        <time>2021-09-04T10:49:34Z</time>
      </trkpt>
      <trkpt lat="44.17453" lon="5.56387">
        <ele>1151.1999511719</ele>
        <time>2021-09-04T10:49:36Z</time>
      </trkpt>
      <trkpt lat="44.1745" lon="5.56411">
        <ele>1149.5999755859</ele>
        <time>2021-09-04T10:49:38Z</time>
      </trkpt>
      <trkpt lat="44.17448" lon="5.56422">
        <ele>1148.8000488281</ele>
        <time>2021-09-04T10:49:39Z</time>
      </trkpt>
      <trkpt lat="44.17449" lon="5.56433">
        <ele>1148</ele>
        <time>2021-09-04T10:49:40Z</time>
      </trkpt>
      <trkpt lat="44.17455" lon="5.56444">
        <ele>1147.1999511719</ele>
        <time>2021-09-04T10:49:41Z</time>
      </trkpt>
      <trkpt lat="44.1746" lon="5.56455">
        <ele>1146.4000244141</ele>
        <time>2021-09-04T10:49:42Z</time>
      </trkpt>
      <trkpt lat="44.17473" lon="5.56474">
        <ele>1145.1999511719</ele>
        <time>2021-09-04T10:49:44Z</time>
      </trkpt>
      <trkpt lat="44.1748" lon="5.56485">
        <ele>1144.5999755859</ele>
        <time>2021-09-04T10:49:45Z</time>
      </trkpt>
      <trkpt lat="44.17485" lon="5.56498">
        <ele>1143.8000488281</ele>
        <time>2021-09-04T10:49:46Z</time>
      </trkpt>
      <trkpt lat="44.17496" lon="5.56525">
        <ele>1142.5999755859</ele>
        <time>2021-09-04T10:49:48Z</time>
      </trkpt>
      <trkpt lat="44.17498" lon="5.56541">
        <ele>1142</ele>
        <time>2021-09-04T10:49:49Z</time>
      </trkpt>
      <trkpt lat="44.17499" lon="5.56556">
        <ele>1141.4000244141</ele>
        <time>2021-09-04T10:49:50Z</time>
      </trkpt>
      <trkpt lat="44.17497" lon="5.56572">
        <ele>1140</ele>
        <time>2021-09-04T10:49:51Z</time>
      </trkpt>
      <trkpt lat="44.17495" lon="5.56587">
        <ele>1139.1999511719</ele>
        <time>2021-09-04T10:49:52Z</time>
      </trkpt>
      <trkpt lat="44.17492" lon="5.56601">
        <ele>1138.4000244141</ele>
        <time>2021-09-04T10:49:53Z</time>
      </trkpt>
      <trkpt lat="44.17489" lon="5.56616">
        <ele>1137.5999755859</ele>
        <time>2021-09-04T10:49:54Z</time>
      </trkpt>
      <trkpt lat="44.17487" lon="5.56632">
        <ele>1136.8000488281</ele>
        <time>2021-09-04T10:49:55Z</time>
      </trkpt>
      <trkpt lat="44.17486" lon="5.56646">
        <ele>1135.8000488281</ele>
        <time>2021-09-04T10:49:56Z</time>
      </trkpt>
      <trkpt lat="44.17487" lon="5.56659">
        <ele>1135</ele>
        <time>2021-09-04T10:49:57Z</time>
      </trkpt>
      <trkpt lat="44.17489" lon="5.56677">
        <ele>1133.1999511719</ele>
        <time>2021-09-04T10:49:59Z</time>
      </trkpt>
      <trkpt lat="44.1748" lon="5.56686">
        <ele>1131.1999511719</ele>
        <time>2021-09-04T10:50:01Z</time>
      </trkpt>
      <trkpt lat="44.17467" lon="5.56689">
        <ele>1129.5999755859</ele>
        <time>2021-09-04T10:50:03Z</time>
      </trkpt>
      <trkpt lat="44.17452" lon="5.56705">
        <ele>1128.1999511719</ele>
        <time>2021-09-04T10:50:05Z</time>
      </trkpt>
      <trkpt lat="44.1744" lon="5.56727">
        <ele>1126.5999755859</ele>
        <time>2021-09-04T10:50:07Z</time>
      </trkpt>
      <trkpt lat="44.17434" lon="5.56738">
        <ele>1126</ele>
        <time>2021-09-04T10:50:08Z</time>
      </trkpt>
      <trkpt lat="44.17432" lon="5.56752">
        <ele>1125.1999511719</ele>
        <time>2021-09-04T10:50:09Z</time>
      </trkpt>
      <trkpt lat="44.17429" lon="5.5678">
        <ele>1123.8000488281</ele>
        <time>2021-09-04T10:50:11Z</time>
      </trkpt>
      <trkpt lat="44.17426" lon="5.56802">
        <ele>1122.5999755859</ele>
        <time>2021-09-04T10:50:13Z</time>
      </trkpt>
      <trkpt lat="44.17421" lon="5.5681">
        <ele>1121.8000488281</ele>
        <time>2021-09-04T10:50:14Z</time>
      </trkpt>
      <trkpt lat="44.17414" lon="5.56818">
        <ele>1120.1999511719</ele>
        <time>2021-09-04T10:50:15Z</time>
      </trkpt>
      <trkpt lat="44.17403" lon="5.56841">
        <ele>1118.4000244141</ele>
        <time>2021-09-04T10:50:17Z</time>
      </trkpt>
      <trkpt lat="44.17393" lon="5.56867">
        <ele>1116.8000488281</ele>
        <time>2021-09-04T10:50:19Z</time>
      </trkpt>
      <trkpt lat="44.17392" lon="5.5688">
        <ele>1115.8000488281</ele>
        <time>2021-09-04T10:50:20Z</time>
      </trkpt>
      <trkpt lat="44.17395" lon="5.56894">
        <ele>1115</ele>
        <time>2021-09-04T10:50:21Z</time>
      </trkpt>
      <trkpt lat="44.17399" lon="5.56907">
        <ele>1114.1999511719</ele>
        <time>2021-09-04T10:50:22Z</time>
      </trkpt>
      <trkpt lat="44.17405" lon="5.56917">
        <ele>1113.4000244141</ele>
        <time>2021-09-04T10:50:23Z</time>
      </trkpt>
      <trkpt lat="44.17422" lon="5.5694">
        <ele>1111.8000488281</ele>
        <time>2021-09-04T10:50:25Z</time>
      </trkpt>
      <trkpt lat="44.17427" lon="5.56953">
        <ele>1111</ele>
        <time>2021-09-04T10:50:26Z</time>
      </trkpt>
      <trkpt lat="44.17427" lon="5.56964">
        <ele>1110.4000244141</ele>
        <time>2021-09-04T10:50:27Z</time>
      </trkpt>
      <trkpt lat="44.17427" lon="5.56974">
        <ele>1109.8000488281</ele>
        <time>2021-09-04T10:50:28Z</time>
      </trkpt>
      <trkpt lat="44.17425" lon="5.56984">
        <ele>1109</ele>
        <time>2021-09-04T10:50:29Z</time>
      </trkpt>
      <trkpt lat="44.17419" lon="5.5699">
        <ele>1108.4000244141</ele>
        <time>2021-09-04T10:50:30Z</time>
      </trkpt>
      <trkpt lat="44.17412" lon="5.56993">
        <ele>1107.8000488281</ele>
        <time>2021-09-04T10:50:31Z</time>
      </trkpt>
      <trkpt lat="44.17403" lon="5.56996">
        <ele>1107</ele>
        <time>2021-09-04T10:50:32Z</time>
      </trkpt>
      <trkpt lat="44.17394" lon="5.56998">
        <ele>1106.1999511719</ele>
        <time>2021-09-04T10:50:33Z</time>
      </trkpt>
      <trkpt lat="44.17373" lon="5.57005">
        <ele>1104.5999755859</ele>
        <time>2021-09-04T10:50:35Z</time>
      </trkpt>
      <trkpt lat="44.17354" lon="5.57017">
        <ele>1102.8000488281</ele>
        <time>2021-09-04T10:50:37Z</time>
      </trkpt>
      <trkpt lat="44.17337" lon="5.57035">
        <ele>1100.4000244141</ele>
        <time>2021-09-04T10:50:39Z</time>
      </trkpt>
      <trkpt lat="44.17331" lon="5.57048">
        <ele>1099.8000488281</ele>
        <time>2021-09-04T10:50:40Z</time>
      </trkpt>
      <trkpt lat="44.17326" lon="5.5706">
        <ele>1099</ele>
        <time>2021-09-04T10:50:41Z</time>
      </trkpt>
      <trkpt lat="44.17324" lon="5.57085">
        <ele>1097.5999755859</ele>
        <time>2021-09-04T10:50:43Z</time>
      </trkpt>
      <trkpt lat="44.17328" lon="5.57114">
        <ele>1096.1999511719</ele>
        <time>2021-09-04T10:50:45Z</time>
      </trkpt>
      <trkpt lat="44.17329" lon="5.57128">
        <ele>1095.4000244141</ele>
        <time>2021-09-04T10:50:46Z</time>
      </trkpt>
      <trkpt lat="44.17332" lon="5.57141">
        <ele>1094.8000488281</ele>
        <time>2021-09-04T10:50:47Z</time>
      </trkpt>
      <trkpt lat="44.17331" lon="5.57152">
        <ele>1094</ele>
        <time>2021-09-04T10:50:48Z</time>
      </trkpt>
      <trkpt lat="44.17327" lon="5.57162">
        <ele>1093.4000244141</ele>
        <time>2021-09-04T10:50:49Z</time>
      </trkpt>
      <trkpt lat="44.17318" lon="5.57179">
        <ele>1091.5999755859</ele>
        <time>2021-09-04T10:50:51Z</time>
      </trkpt>
      <trkpt lat="44.17314" lon="5.57191">
        <ele>1089.8000488281</ele>
        <time>2021-09-04T10:50:53Z</time>
      </trkpt>
      <trkpt lat="44.17319" lon="5.57186">
        <ele>1089.1999511719</ele>
        <time>2021-09-04T10:50:54Z</time>
      </trkpt>
      <trkpt lat="44.17322" lon="5.57175">
        <ele>1088.5999755859</ele>
        <time>2021-09-04T10:50:55Z</time>
      </trkpt>
      <trkpt lat="44.17324" lon="5.57148">
        <ele>1087.5999755859</ele>
        <time>2021-09-04T10:50:57Z</time>
      </trkpt>
      <trkpt lat="44.17325" lon="5.57135">
        <ele>1087.1999511719</ele>
        <time>2021-09-04T10:50:58Z</time>
      </trkpt>
      <trkpt lat="44.17327" lon="5.5711">
        <ele>1086.1999511719</ele>
        <time>2021-09-04T10:51:00Z</time>
      </trkpt>
      <trkpt lat="44.17329" lon="5.57084">
        <ele>1085</ele>
        <time>2021-09-04T10:51:02Z</time>
      </trkpt>
      <trkpt lat="44.17331" lon="5.57072">
        <ele>1083.5999755859</ele>
        <time>2021-09-04T10:51:03Z</time>
      </trkpt>
      <trkpt lat="44.17335" lon="5.5706">
        <ele>1083</ele>
        <time>2021-09-04T10:51:04Z</time>
      </trkpt>
      <trkpt lat="44.17341" lon="5.57049">
        <ele>1082.4000244141</ele>
        <time>2021-09-04T10:51:05Z</time>
      </trkpt>
      <trkpt lat="44.17357" lon="5.57038">
        <ele>1081</ele>
        <time>2021-09-04T10:51:07Z</time>
      </trkpt>
      <trkpt lat="44.17376" lon="5.57034">
        <ele>1079.8000488281</ele>
        <time>2021-09-04T10:51:09Z</time>
      </trkpt>
      <trkpt lat="44.17384" lon="5.57036">
        <ele>1079.4000244141</ele>
        <time>2021-09-04T10:51:10Z</time>
      </trkpt>
      <trkpt lat="44.17392" lon="5.5704">
        <ele>1078.8000488281</ele>
        <time>2021-09-04T10:51:11Z</time>
      </trkpt>
      <trkpt lat="44.17409" lon="5.57051">
        <ele>1077.4000244141</ele>
        <time>2021-09-04T10:51:13Z</time>
      </trkpt>
      <trkpt lat="44.17417" lon="5.57057">
        <ele>1076.8000488281</ele>
        <time>2021-09-04T10:51:14Z</time>
      </trkpt>
      <trkpt lat="44.17425" lon="5.57063">
        <ele>1076</ele>
        <time>2021-09-04T10:51:15Z</time>
      </trkpt>
      <trkpt lat="44.17434" lon="5.57067">
        <ele>1075.4000244141</ele>
        <time>2021-09-04T10:51:16Z</time>
      </trkpt>
      <trkpt lat="44.17443" lon="5.57068">
        <ele>1074.5999755859</ele>
        <time>2021-09-04T10:51:17Z</time>
      </trkpt>
      <trkpt lat="44.17459" lon="5.57057">
        <ele>1073</ele>
        <time>2021-09-04T10:51:19Z</time>
      </trkpt>
      <trkpt lat="44.17477" lon="5.57036">
        <ele>1071.4000244141</ele>
        <time>2021-09-04T10:51:21Z</time>
      </trkpt>
      <trkpt lat="44.17483" lon="5.57024">
        <ele>1070.8000488281</ele>
        <time>2021-09-04T10:51:22Z</time>
      </trkpt>
      <trkpt lat="44.17487" lon="5.57008">
        <ele>1070</ele>
        <time>2021-09-04T10:51:23Z</time>
      </trkpt>
      <trkpt lat="44.17489" lon="5.56992">
        <ele>1069.1999511719</ele>
        <time>2021-09-04T10:51:24Z</time>
      </trkpt>
      <trkpt lat="44.17492" lon="5.56978">
        <ele>1068.5999755859</ele>
        <time>2021-09-04T10:51:25Z</time>
      </trkpt>
      <trkpt lat="44.17497" lon="5.56965">
        <ele>1067.8000488281</ele>
        <time>2021-09-04T10:51:26Z</time>
      </trkpt>
      <trkpt lat="44.17505" lon="5.56955">
        <ele>1066.1999511719</ele>
        <time>2021-09-04T10:51:27Z</time>
      </trkpt>
      <trkpt lat="44.17519" lon="5.56938">
        <ele>1064.8000488281</ele>
        <time>2021-09-04T10:51:29Z</time>
      </trkpt>
      <trkpt lat="44.1752" lon="5.56926">
        <ele>1064</ele>
        <time>2021-09-04T10:51:30Z</time>
      </trkpt>
      <trkpt lat="44.17517" lon="5.56915">
        <ele>1063.4000244141</ele>
        <time>2021-09-04T10:51:31Z</time>
      </trkpt>
      <trkpt lat="44.17512" lon="5.56907">
        <ele>1062.8000488281</ele>
        <time>2021-09-04T10:51:32Z</time>
      </trkpt>
      <trkpt lat="44.17506" lon="5.56899">
        <ele>1062.1999511719</ele>
        <time>2021-09-04T10:51:33Z</time>
      </trkpt>
      <trkpt lat="44.175" lon="5.56891">
        <ele>1061.5999755859</ele>
        <time>2021-09-04T10:51:34Z</time>
      </trkpt>
      <trkpt lat="44.17497" lon="5.56882">
        <ele>1061</ele>
        <time>2021-09-04T10:51:35Z</time>
      </trkpt>
      <trkpt lat="44.17497" lon="5.56873">
        <ele>1060.4000244141</ele>
        <time>2021-09-04T10:51:36Z</time>
      </trkpt>
      <trkpt lat="44.17502" lon="5.56862">
        <ele>1059.8000488281</ele>
        <time>2021-09-04T10:51:37Z</time>
      </trkpt>
      <trkpt lat="44.17505" lon="5.56852">
        <ele>1059.1999511719</ele>
        <time>2021-09-04T10:51:38Z</time>
      </trkpt>
      <trkpt lat="44.17509" lon="5.56841">
        <ele>1058.8000488281</ele>
        <time>2021-09-04T10:51:39Z</time>
      </trkpt>
      <trkpt lat="44.17512" lon="5.56829">
        <ele>1058.1999511719</ele>
        <time>2021-09-04T10:51:40Z</time>
      </trkpt>
      <trkpt lat="44.17519" lon="5.5682">
        <ele>1057.8000488281</ele>
        <time>2021-09-04T10:51:41Z</time>
      </trkpt>
      <trkpt lat="44.17527" lon="5.56819">
        <ele>1057.1999511719</ele>
        <time>2021-09-04T10:51:42Z</time>
      </trkpt>
      <trkpt lat="44.17543" lon="5.56824">
        <ele>1056.1999511719</ele>
        <time>2021-09-04T10:51:44Z</time>
      </trkpt>
      <trkpt lat="44.17551" lon="5.56831">
        <ele>1055.8000488281</ele>
        <time>2021-09-04T10:51:45Z</time>
      </trkpt>
      <trkpt lat="44.17566" lon="5.56844">
        <ele>1054.5999755859</ele>
        <time>2021-09-04T10:51:47Z</time>
      </trkpt>
      <trkpt lat="44.17582" lon="5.56854">
        <ele>1053.4000244141</ele>
        <time>2021-09-04T10:51:49Z</time>
      </trkpt>
      <trkpt lat="44.17599" lon="5.56861">
        <ele>1051.4000244141</ele>
        <time>2021-09-04T10:51:51Z</time>
      </trkpt>
      <trkpt lat="44.17618" lon="5.56864">
        <ele>1049.8000488281</ele>
        <time>2021-09-04T10:51:53Z</time>
      </trkpt>
      <trkpt lat="44.17627" lon="5.56864">
        <ele>1049</ele>
        <time>2021-09-04T10:51:54Z</time>
      </trkpt>
      <trkpt lat="44.17637" lon="5.56861">
        <ele>1048.4000244141</ele>
        <time>2021-09-04T10:51:55Z</time>
      </trkpt>
      <trkpt lat="44.17652" lon="5.5685">
        <ele>1046.5999755859</ele>
        <time>2021-09-04T10:51:57Z</time>
      </trkpt>
      <trkpt lat="44.17657" lon="5.56843">
        <ele>1045.8000488281</ele>
        <time>2021-09-04T10:51:58Z</time>
      </trkpt>
      <trkpt lat="44.1766" lon="5.56837">
        <ele>1045</ele>
        <time>2021-09-04T10:51:59Z</time>
      </trkpt>
      <trkpt lat="44.17664" lon="5.56833">
        <ele>1044.1999511719</ele>
        <time>2021-09-04T10:52:00Z</time>
      </trkpt>
      <trkpt lat="44.17666" lon="5.56828">
        <ele>1043.4000244141</ele>
        <time>2021-09-04T10:52:01Z</time>
      </trkpt>
      <trkpt lat="44.1767" lon="5.56821">
        <ele>1042.4000244141</ele>
        <time>2021-09-04T10:52:03Z</time>
      </trkpt>
      <trkpt lat="44.17668" lon="5.5682">
        <ele>1040.8000488281</ele>
        <time>2021-09-04T10:53:01Z</time>
      </trkpt>
      <trkpt lat="44.17669" lon="5.56814">
        <ele>1040.5999755859</ele>
        <time>2021-09-04T10:53:03Z</time>
      </trkpt>
      <trkpt lat="44.17679" lon="5.56788">
        <ele>1039.8000488281</ele>
        <time>2021-09-04T10:53:08Z</time>
      </trkpt>
      <trkpt lat="44.17681" lon="5.56779">
        <ele>1039.5999755859</ele>
        <time>2021-09-04T10:53:09Z</time>
      </trkpt>
      <trkpt lat="44.17689" lon="5.56755">
        <ele>1038.5999755859</ele>
        <time>2021-09-04T10:53:12Z</time>
      </trkpt>
      <trkpt lat="44.17704" lon="5.56717">
        <ele>1037.4000244141</ele>
        <time>2021-09-04T10:53:15Z</time>
      </trkpt>
      <trkpt lat="44.17707" lon="5.5669">
        <ele>1036.8000488281</ele>
        <time>2021-09-04T10:53:17Z</time>
      </trkpt>
      <trkpt lat="44.17707" lon="5.56665">
        <ele>1036.1999511719</ele>
        <time>2021-09-04T10:53:19Z</time>
      </trkpt>
      <trkpt lat="44.17708" lon="5.56631">
        <ele>1034.5999755859</ele>
        <time>2021-09-04T10:53:22Z</time>
      </trkpt>
      <trkpt lat="44.17722" lon="5.56612">
        <ele>1033.1999511719</ele>
        <time>2021-09-04T10:53:24Z</time>
      </trkpt>
      <trkpt lat="44.17742" lon="5.56599">
        <ele>1031.8000488281</ele>
        <time>2021-09-04T10:53:26Z</time>
      </trkpt>
      <trkpt lat="44.17752" lon="5.56592">
        <ele>1030.4000244141</ele>
        <time>2021-09-04T10:53:27Z</time>
      </trkpt>
      <trkpt lat="44.17769" lon="5.56574">
        <ele>1029.1999511719</ele>
        <time>2021-09-04T10:53:29Z</time>
      </trkpt>
      <trkpt lat="44.1778" lon="5.56551">
        <ele>1028</ele>
        <time>2021-09-04T10:53:31Z</time>
      </trkpt>
      <trkpt lat="44.17779" lon="5.56527">
        <ele>1026.5999755859</ele>
        <time>2021-09-04T10:53:33Z</time>
      </trkpt>
      <trkpt lat="44.1778" lon="5.56515">
        <ele>1026</ele>
        <time>2021-09-04T10:53:34Z</time>
      </trkpt>
      <trkpt lat="44.17784" lon="5.56505">
        <ele>1025</ele>
        <time>2021-09-04T10:53:35Z</time>
      </trkpt>
      <trkpt lat="44.17791" lon="5.56498">
        <ele>1024.1999511719</ele>
        <time>2021-09-04T10:53:36Z</time>
      </trkpt>
      <trkpt lat="44.17799" lon="5.56498">
        <ele>1023.4000244141</ele>
        <time>2021-09-04T10:53:37Z</time>
      </trkpt>
      <trkpt lat="44.17807" lon="5.56499">
        <ele>1022.4000244141</ele>
        <time>2021-09-04T10:53:38Z</time>
      </trkpt>
      <trkpt lat="44.17815" lon="5.56506">
        <ele>1021.5999755859</ele>
        <time>2021-09-04T10:53:39Z</time>
      </trkpt>
      <trkpt lat="44.17822" lon="5.56513">
        <ele>1020.5999755859</ele>
        <time>2021-09-04T10:53:40Z</time>
      </trkpt>
      <trkpt lat="44.17826" lon="5.56524">
        <ele>1019.799987793</ele>
        <time>2021-09-04T10:53:41Z</time>
      </trkpt>
      <trkpt lat="44.17832" lon="5.56534">
        <ele>1019.200012207</ele>
        <time>2021-09-04T10:53:42Z</time>
      </trkpt>
      <trkpt lat="44.17838" lon="5.56543">
        <ele>1018.5999755859</ele>
        <time>2021-09-04T10:53:43Z</time>
      </trkpt>
      <trkpt lat="44.17846" lon="5.5655">
        <ele>1018.200012207</ele>
        <time>2021-09-04T10:53:44Z</time>
      </trkpt>
      <trkpt lat="44.17856" lon="5.56554">
        <ele>1017.5999755859</ele>
        <time>2021-09-04T10:53:45Z</time>
      </trkpt>
      <trkpt lat="44.17865" lon="5.56559">
        <ele>1017.200012207</ele>
        <time>2021-09-04T10:53:46Z</time>
      </trkpt>
      <trkpt lat="44.17875" lon="5.56561">
        <ele>1016.799987793</ele>
        <time>2021-09-04T10:53:47Z</time>
      </trkpt>
      <trkpt lat="44.17886" lon="5.56559">
        <ele>1016.200012207</ele>
        <time>2021-09-04T10:53:48Z</time>
      </trkpt>
      <trkpt lat="44.17896" lon="5.56553">
        <ele>1015.5999755859</ele>
        <time>2021-09-04T10:53:49Z</time>
      </trkpt>
      <trkpt lat="44.17904" lon="5.56544">
        <ele>1015</ele>
        <time>2021-09-04T10:53:50Z</time>
      </trkpt>
      <trkpt lat="44.1791" lon="5.56533">
        <ele>1014.200012207</ele>
        <time>2021-09-04T10:53:51Z</time>
      </trkpt>
      <trkpt lat="44.17913" lon="5.56518">
        <ele>1013.200012207</ele>
        <time>2021-09-04T10:53:52Z</time>
      </trkpt>
      <trkpt lat="44.17914" lon="5.56504">
        <ele>1011.5999755859</ele>
        <time>2021-09-04T10:53:53Z</time>
      </trkpt>
      <trkpt lat="44.17915" lon="5.56491">
        <ele>1011</ele>
        <time>2021-09-04T10:53:54Z</time>
      </trkpt>
      <trkpt lat="44.17913" lon="5.56478">
        <ele>1010.200012207</ele>
        <time>2021-09-04T10:53:55Z</time>
      </trkpt>
      <trkpt lat="44.1792" lon="5.56457">
        <ele>1008.5999755859</ele>
        <time>2021-09-04T10:53:57Z</time>
      </trkpt>
      <trkpt lat="44.17927" lon="5.56452">
        <ele>1007.799987793</ele>
        <time>2021-09-04T10:53:58Z</time>
      </trkpt>
      <trkpt lat="44.17935" lon="5.56453">
        <ele>1007.200012207</ele>
        <time>2021-09-04T10:53:59Z</time>
      </trkpt>
      <trkpt lat="44.17942" lon="5.56457">
        <ele>1006.4000244141</ele>
        <time>2021-09-04T10:54:00Z</time>
      </trkpt>
      <trkpt lat="44.1795" lon="5.56464">
        <ele>1005.799987793</ele>
        <time>2021-09-04T10:54:01Z</time>
      </trkpt>
      <trkpt lat="44.17965" lon="5.56481">
        <ele>1004.5999755859</ele>
        <time>2021-09-04T10:54:03Z</time>
      </trkpt>
      <trkpt lat="44.17978" lon="5.56501">
        <ele>1003.200012207</ele>
        <time>2021-09-04T10:54:05Z</time>
      </trkpt>
      <trkpt lat="44.17988" lon="5.56523">
        <ele>1001.799987793</ele>
        <time>2021-09-04T10:54:07Z</time>
      </trkpt>
      <trkpt lat="44.17996" lon="5.56548">
        <ele>1000.5999755859</ele>
        <time>2021-09-04T10:54:09Z</time>
      </trkpt>
      <trkpt lat="44.17999" lon="5.56561">
        <ele>999.79998779297</ele>
        <time>2021-09-04T10:54:10Z</time>
      </trkpt>
      <trkpt lat="44.18002" lon="5.56575">
        <ele>999.20001220703</ele>
        <time>2021-09-04T10:54:11Z</time>
      </trkpt>
      <trkpt lat="44.18007" lon="5.56603">
        <ele>998</ele>
        <time>2021-09-04T10:54:13Z</time>
      </trkpt>
      <trkpt lat="44.1801" lon="5.56629">
        <ele>995.59997558594</ele>
        <time>2021-09-04T10:54:15Z</time>
      </trkpt>
      <trkpt lat="44.18007" lon="5.56646">
        <ele>994.79998779297</ele>
        <time>2021-09-04T10:54:16Z</time>
      </trkpt>
      <trkpt lat="44.18003" lon="5.56662">
        <ele>994</ele>
        <time>2021-09-04T10:54:17Z</time>
      </trkpt>
      <trkpt lat="44.17994" lon="5.56692">
        <ele>992.40002441406</ele>
        <time>2021-09-04T10:54:19Z</time>
      </trkpt>
      <trkpt lat="44.17989" lon="5.56714">
        <ele>990.79998779297</ele>
        <time>2021-09-04T10:54:21Z</time>
      </trkpt>
      <trkpt lat="44.17989" lon="5.56723">
        <ele>990.20001220703</ele>
        <time>2021-09-04T10:54:22Z</time>
      </trkpt>
      <trkpt lat="44.17989" lon="5.5673">
        <ele>989.20001220703</ele>
        <time>2021-09-04T10:54:23Z</time>
      </trkpt>
      <trkpt lat="44.1799" lon="5.56736">
        <ele>988.20001220703</ele>
        <time>2021-09-04T10:54:24Z</time>
      </trkpt>
      <trkpt lat="44.1799" lon="5.56742">
        <ele>987</ele>
        <time>2021-09-04T10:54:25Z</time>
      </trkpt>
      <trkpt lat="44.17991" lon="5.56746">
        <ele>986</ele>
        <time>2021-09-04T10:54:26Z</time>
      </trkpt>
      <trkpt lat="44.17992" lon="5.56748">
        <ele>985.40002441406</ele>
        <time>2021-09-04T10:54:27Z</time>
      </trkpt>
      <trkpt lat="44.17993" lon="5.56748">
        <ele>984.79998779297</ele>
        <time>2021-09-04T10:54:28Z</time>
      </trkpt>
      <trkpt lat="44.17993" lon="5.56748">
        <ele>984.20001220703</ele>
        <time>2021-09-04T10:54:29Z</time>
      </trkpt>
      <trkpt lat="44.17992" lon="5.56748">
        <ele>983</ele>
        <time>2021-09-04T10:54:37Z</time>
      </trkpt>
      <trkpt lat="44.17995" lon="5.56747">
        <ele>983</ele>
        <time>2021-09-04T10:54:39Z</time>
      </trkpt>
      <trkpt lat="44.17997" lon="5.56745">
        <ele>982.79998779297</ele>
        <time>2021-09-04T10:54:40Z</time>
      </trkpt>
      <trkpt lat="44.18" lon="5.56737">
        <ele>982.79998779297</ele>
        <time>2021-09-04T10:54:44Z</time>
      </trkpt>
      <trkpt lat="44.18009" lon="5.56724">
        <ele>982.79998779297</ele>
        <time>2021-09-04T10:54:49Z</time>
      </trkpt>
      <trkpt lat="44.18011" lon="5.56721">
        <ele>982.79998779297</ele>
        <time>2021-09-04T10:54:50Z</time>
      </trkpt>
      <trkpt lat="44.18026" lon="5.56706">
        <ele>982.79998779297</ele>
        <time>2021-09-04T10:54:54Z</time>
      </trkpt>
      <trkpt lat="44.18055" lon="5.56685">
        <ele>982</ele>
        <time>2021-09-04T10:54:59Z</time>
      </trkpt>
      <trkpt lat="44.18061" lon="5.56678">
        <ele>981.79998779297</ele>
        <time>2021-09-04T10:55:00Z</time>
      </trkpt>
      <trkpt lat="44.18074" lon="5.56663">
        <ele>981.20001220703</ele>
        <time>2021-09-04T10:55:02Z</time>
      </trkpt>
      <trkpt lat="44.18079" lon="5.56654">
        <ele>980.79998779297</ele>
        <time>2021-09-04T10:55:03Z</time>
      </trkpt>
      <trkpt lat="44.18084" lon="5.56644">
        <ele>980</ele>
        <time>2021-09-04T10:55:04Z</time>
      </trkpt>
      <trkpt lat="44.18101" lon="5.5661">
        <ele>978.79998779297</ele>
        <time>2021-09-04T10:55:07Z</time>
      </trkpt>
      <trkpt lat="44.18113" lon="5.56586">
        <ele>977.59997558594</ele>
        <time>2021-09-04T10:55:09Z</time>
      </trkpt>
      <trkpt lat="44.18125" lon="5.56559">
        <ele>976.40002441406</ele>
        <time>2021-09-04T10:55:11Z</time>
      </trkpt>
      <trkpt lat="44.1813" lon="5.56545">
        <ele>975.79998779297</ele>
        <time>2021-09-04T10:55:12Z</time>
      </trkpt>
      <trkpt lat="44.18135" lon="5.56531">
        <ele>975.20001220703</ele>
        <time>2021-09-04T10:55:13Z</time>
      </trkpt>
      <trkpt lat="44.18145" lon="5.56501">
        <ele>974</ele>
        <time>2021-09-04T10:55:15Z</time>
      </trkpt>
      <trkpt lat="44.18153" lon="5.56468">
        <ele>972.79998779297</ele>
        <time>2021-09-04T10:55:17Z</time>
      </trkpt>
      <trkpt lat="44.1816" lon="5.56433">
        <ele>971.20001220703</ele>
        <time>2021-09-04T10:55:19Z</time>
      </trkpt>
      <trkpt lat="44.18165" lon="5.56396">
        <ele>969.79998779297</ele>
        <time>2021-09-04T10:55:21Z</time>
      </trkpt>
      <trkpt lat="44.18171" lon="5.56359">
        <ele>968.59997558594</ele>
        <time>2021-09-04T10:55:23Z</time>
      </trkpt>
      <trkpt lat="44.18176" lon="5.56321">
        <ele>967.20001220703</ele>
        <time>2021-09-04T10:55:25Z</time>
      </trkpt>
      <trkpt lat="44.18182" lon="5.56284">
        <ele>965.79998779297</ele>
        <time>2021-09-04T10:55:27Z</time>
      </trkpt>
      <trkpt lat="44.18185" lon="5.56265">
        <ele>964.40002441406</ele>
        <time>2021-09-04T10:55:28Z</time>
      </trkpt>
      <trkpt lat="44.18192" lon="5.56229">
        <ele>963</ele>
        <time>2021-09-04T10:55:30Z</time>
      </trkpt>
      <trkpt lat="44.182" lon="5.56194">
        <ele>961.59997558594</ele>
        <time>2021-09-04T10:55:32Z</time>
      </trkpt>
      <trkpt lat="44.18203" lon="5.56176">
        <ele>961</ele>
        <time>2021-09-04T10:55:33Z</time>
      </trkpt>
      <trkpt lat="44.18206" lon="5.56159">
        <ele>960.40002441406</ele>
        <time>2021-09-04T10:55:34Z</time>
      </trkpt>
      <trkpt lat="44.18213" lon="5.56125">
        <ele>959.20001220703</ele>
        <time>2021-09-04T10:55:36Z</time>
      </trkpt>
      <trkpt lat="44.18218" lon="5.5609">
        <ele>957.59997558594</ele>
        <time>2021-09-04T10:55:38Z</time>
      </trkpt>
      <trkpt lat="44.1822" lon="5.56072">
        <ele>956.79998779297</ele>
        <time>2021-09-04T10:55:39Z</time>
      </trkpt>
      <trkpt lat="44.18221" lon="5.56054">
        <ele>956</ele>
        <time>2021-09-04T10:55:40Z</time>
      </trkpt>
      <trkpt lat="44.18224" lon="5.56018">
        <ele>954.40002441406</ele>
        <time>2021-09-04T10:55:42Z</time>
      </trkpt>
      <trkpt lat="44.18226" lon="5.55981">
        <ele>952.79998779297</ele>
        <time>2021-09-04T10:55:44Z</time>
      </trkpt>
      <trkpt lat="44.18225" lon="5.55962">
        <ele>952</ele>
        <time>2021-09-04T10:55:45Z</time>
      </trkpt>
      <trkpt lat="44.18224" lon="5.55944">
        <ele>951.20001220703</ele>
        <time>2021-09-04T10:55:46Z</time>
      </trkpt>
      <trkpt lat="44.18222" lon="5.55907">
        <ele>949.59997558594</ele>
        <time>2021-09-04T10:55:48Z</time>
      </trkpt>
      <trkpt lat="44.18222" lon="5.5589">
        <ele>948.79998779297</ele>
        <time>2021-09-04T10:55:49Z</time>
      </trkpt>
      <trkpt lat="44.18226" lon="5.55872">
        <ele>948</ele>
        <time>2021-09-04T10:55:50Z</time>
      </trkpt>
      <trkpt lat="44.18232" lon="5.55856">
        <ele>947.20001220703</ele>
        <time>2021-09-04T10:55:51Z</time>
      </trkpt>
      <trkpt lat="44.1824" lon="5.55841">
        <ele>945.40002441406</ele>
        <time>2021-09-04T10:55:52Z</time>
      </trkpt>
      <trkpt lat="44.18248" lon="5.55828">
        <ele>944.40002441406</ele>
        <time>2021-09-04T10:55:53Z</time>
      </trkpt>
      <trkpt lat="44.18256" lon="5.55815">
        <ele>943.40002441406</ele>
        <time>2021-09-04T10:55:54Z</time>
      </trkpt>
      <trkpt lat="44.18273" lon="5.55787">
        <ele>941.59997558594</ele>
        <time>2021-09-04T10:55:56Z</time>
      </trkpt>
      <trkpt lat="44.1829" lon="5.55761">
        <ele>939.79998779297</ele>
        <time>2021-09-04T10:55:58Z</time>
      </trkpt>
      <trkpt lat="44.18298" lon="5.55749">
        <ele>939</ele>
        <time>2021-09-04T10:55:59Z</time>
      </trkpt>
      <trkpt lat="44.18307" lon="5.55738">
        <ele>938</ele>
        <time>2021-09-04T10:56:00Z</time>
      </trkpt>
      <trkpt lat="44.18329" lon="5.55724">
        <ele>936.59997558594</ele>
        <time>2021-09-04T10:56:02Z</time>
      </trkpt>
      <trkpt lat="44.1835" lon="5.55715">
        <ele>935.40002441406</ele>
        <time>2021-09-04T10:56:04Z</time>
      </trkpt>
      <trkpt lat="44.18369" lon="5.55698">
        <ele>934.40002441406</ele>
        <time>2021-09-04T10:56:06Z</time>
      </trkpt>
      <trkpt lat="44.18391" lon="5.55664">
        <ele>932.79998779297</ele>
        <time>2021-09-04T10:56:09Z</time>
      </trkpt>
      <trkpt lat="44.18398" lon="5.55651">
        <ele>932.20001220703</ele>
        <time>2021-09-04T10:56:10Z</time>
      </trkpt>
      <trkpt lat="44.18403" lon="5.55637">
        <ele>931.59997558594</ele>
        <time>2021-09-04T10:56:11Z</time>
      </trkpt>
      <trkpt lat="44.18413" lon="5.55609">
        <ele>930.59997558594</ele>
        <time>2021-09-04T10:56:13Z</time>
      </trkpt>
      <trkpt lat="44.18417" lon="5.55594">
        <ele>929.79998779297</ele>
        <time>2021-09-04T10:56:14Z</time>
      </trkpt>
      <trkpt lat="44.1842" lon="5.55579">
        <ele>929.20001220703</ele>
        <time>2021-09-04T10:56:15Z</time>
      </trkpt>
      <trkpt lat="44.18423" lon="5.55564">
        <ele>928</ele>
        <time>2021-09-04T10:56:16Z</time>
      </trkpt>
      <trkpt lat="44.1843" lon="5.55533">
        <ele>926.59997558594</ele>
        <time>2021-09-04T10:56:18Z</time>
      </trkpt>
      <trkpt lat="44.18435" lon="5.55501">
        <ele>925.40002441406</ele>
        <time>2021-09-04T10:56:20Z</time>
      </trkpt>
      <trkpt lat="44.18439" lon="5.5547">
        <ele>924</ele>
        <time>2021-09-04T10:56:22Z</time>
      </trkpt>
      <trkpt lat="44.18443" lon="5.55439">
        <ele>922.79998779297</ele>
        <time>2021-09-04T10:56:24Z</time>
      </trkpt>
      <trkpt lat="44.18446" lon="5.55408">
        <ele>921.59997558594</ele>
        <time>2021-09-04T10:56:26Z</time>
      </trkpt>
      <trkpt lat="44.18448" lon="5.55391">
        <ele>921</ele>
        <time>2021-09-04T10:56:27Z</time>
      </trkpt>
      <trkpt lat="44.18452" lon="5.55376">
        <ele>920.40002441406</ele>
        <time>2021-09-04T10:56:28Z</time>
      </trkpt>
      <trkpt lat="44.18462" lon="5.55348">
        <ele>919.20001220703</ele>
        <time>2021-09-04T10:56:30Z</time>
      </trkpt>
      <trkpt lat="44.18475" lon="5.55323">
        <ele>917.79998779297</ele>
        <time>2021-09-04T10:56:32Z</time>
      </trkpt>
      <trkpt lat="44.18487" lon="5.55297">
        <ele>916.40002441406</ele>
        <time>2021-09-04T10:56:34Z</time>
      </trkpt>
      <trkpt lat="44.18503" lon="5.55256">
        <ele>915</ele>
        <time>2021-09-04T10:56:37Z</time>
      </trkpt>
      <trkpt lat="44.18512" lon="5.55226">
        <ele>914.20001220703</ele>
        <time>2021-09-04T10:56:39Z</time>
      </trkpt>
      <trkpt lat="44.18515" lon="5.55211">
        <ele>913.20001220703</ele>
        <time>2021-09-04T10:56:40Z</time>
      </trkpt>
      <trkpt lat="44.18522" lon="5.55181">
        <ele>911.79998779297</ele>
        <time>2021-09-04T10:56:42Z</time>
      </trkpt>
      <trkpt lat="44.18529" lon="5.5515">
        <ele>910.79998779297</ele>
        <time>2021-09-04T10:56:44Z</time>
      </trkpt>
      <trkpt lat="44.18532" lon="5.55134">
        <ele>910.40002441406</ele>
        <time>2021-09-04T10:56:45Z</time>
      </trkpt>
      <trkpt lat="44.18538" lon="5.55103">
        <ele>909.20001220703</ele>
        <time>2021-09-04T10:56:47Z</time>
      </trkpt>
      <trkpt lat="44.18544" lon="5.55071">
        <ele>908.20001220703</ele>
        <time>2021-09-04T10:56:49Z</time>
      </trkpt>
      <trkpt lat="44.18549" lon="5.55041">
        <ele>907.20001220703</ele>
        <time>2021-09-04T10:56:51Z</time>
      </trkpt>
      <trkpt lat="44.18553" lon="5.55011">
        <ele>906.20001220703</ele>
        <time>2021-09-04T10:56:53Z</time>
      </trkpt>
      <trkpt lat="44.18554" lon="5.54997">
        <ele>905.79998779297</ele>
        <time>2021-09-04T10:56:54Z</time>
      </trkpt>
      <trkpt lat="44.18555" lon="5.54967">
        <ele>904.59997558594</ele>
        <time>2021-09-04T10:56:56Z</time>
      </trkpt>
      <trkpt lat="44.18555" lon="5.54937">
        <ele>903.59997558594</ele>
        <time>2021-09-04T10:56:58Z</time>
      </trkpt>
      <trkpt lat="44.18555" lon="5.54907">
        <ele>902.40002441406</ele>
        <time>2021-09-04T10:57:00Z</time>
      </trkpt>
      <trkpt lat="44.18555" lon="5.54877">
        <ele>901.40002441406</ele>
        <time>2021-09-04T10:57:02Z</time>
      </trkpt>
      <trkpt lat="44.18557" lon="5.54862">
        <ele>900.79998779297</ele>
        <time>2021-09-04T10:57:03Z</time>
      </trkpt>
      <trkpt lat="44.18559" lon="5.54847">
        <ele>899.79998779297</ele>
        <time>2021-09-04T10:57:04Z</time>
      </trkpt>
      <trkpt lat="44.18567" lon="5.54819">
        <ele>898.59997558594</ele>
        <time>2021-09-04T10:57:06Z</time>
      </trkpt>
      <trkpt lat="44.18573" lon="5.5479">
        <ele>897.40002441406</ele>
        <time>2021-09-04T10:57:08Z</time>
      </trkpt>
      <trkpt lat="44.18585" lon="5.54746">
        <ele>896.20001220703</ele>
        <time>2021-09-04T10:57:11Z</time>
      </trkpt>
      <trkpt lat="44.18596" lon="5.54704">
        <ele>894.79998779297</ele>
        <time>2021-09-04T10:57:14Z</time>
      </trkpt>
      <trkpt lat="44.18601" lon="5.5469">
        <ele>894.20001220703</ele>
        <time>2021-09-04T10:57:15Z</time>
      </trkpt>
      <trkpt lat="44.18606" lon="5.54677">
        <ele>893.59997558594</ele>
        <time>2021-09-04T10:57:16Z</time>
      </trkpt>
      <trkpt lat="44.18619" lon="5.54637">
        <ele>892.40002441406</ele>
        <time>2021-09-04T10:57:19Z</time>
      </trkpt>
      <trkpt lat="44.1863" lon="5.54596">
        <ele>891.40002441406</ele>
        <time>2021-09-04T10:57:22Z</time>
      </trkpt>
      <trkpt lat="44.18634" lon="5.54566">
        <ele>890.20001220703</ele>
        <time>2021-09-04T10:57:24Z</time>
      </trkpt>
      <trkpt lat="44.18635" lon="5.54537">
        <ele>889.20001220703</ele>
        <time>2021-09-04T10:57:26Z</time>
      </trkpt>
      <trkpt lat="44.18634" lon="5.54523">
        <ele>888.79998779297</ele>
        <time>2021-09-04T10:57:27Z</time>
      </trkpt>
      <trkpt lat="44.18632" lon="5.54496">
        <ele>887.79998779297</ele>
        <time>2021-09-04T10:57:29Z</time>
      </trkpt>
      <trkpt lat="44.18631" lon="5.54468">
        <ele>887</ele>
        <time>2021-09-04T10:57:31Z</time>
      </trkpt>
      <trkpt lat="44.1863" lon="5.54454">
        <ele>886.79998779297</ele>
        <time>2021-09-04T10:57:32Z</time>
      </trkpt>
      <trkpt lat="44.18626" lon="5.54412">
        <ele>885.40002441406</ele>
        <time>2021-09-04T10:57:35Z</time>
      </trkpt>
      <trkpt lat="44.18623" lon="5.54371">
        <ele>884.20001220703</ele>
        <time>2021-09-04T10:57:38Z</time>
      </trkpt>
      <trkpt lat="44.18618" lon="5.5433">
        <ele>882.79998779297</ele>
        <time>2021-09-04T10:57:41Z</time>
      </trkpt>
      <trkpt lat="44.18614" lon="5.54305">
        <ele>882.40002441406</ele>
        <time>2021-09-04T10:57:43Z</time>
      </trkpt>
      <trkpt lat="44.1861" lon="5.54279">
        <ele>881.79998779297</ele>
        <time>2021-09-04T10:57:45Z</time>
      </trkpt>
      <trkpt lat="44.18598" lon="5.54217">
        <ele>880.59997558594</ele>
        <time>2021-09-04T10:57:50Z</time>
      </trkpt>
      <trkpt lat="44.1859" lon="5.54179">
        <ele>879.59997558594</ele>
        <time>2021-09-04T10:57:53Z</time>
      </trkpt>
      <trkpt lat="44.18587" lon="5.54138">
        <ele>878.40002441406</ele>
        <time>2021-09-04T10:57:56Z</time>
      </trkpt>
      <trkpt lat="44.18587" lon="5.54124">
        <ele>878.20001220703</ele>
        <time>2021-09-04T10:57:57Z</time>
      </trkpt>
      <trkpt lat="44.18591" lon="5.54085">
        <ele>877.59997558594</ele>
        <time>2021-09-04T10:58:00Z</time>
      </trkpt>
      <trkpt lat="44.18594" lon="5.54073">
        <ele>877.20001220703</ele>
        <time>2021-09-04T10:58:01Z</time>
      </trkpt>
      <trkpt lat="44.18603" lon="5.54048">
        <ele>876.40002441406</ele>
        <time>2021-09-04T10:58:03Z</time>
      </trkpt>
      <trkpt lat="44.18609" lon="5.54037">
        <ele>876.20001220703</ele>
        <time>2021-09-04T10:58:04Z</time>
      </trkpt>
      <trkpt lat="44.18631" lon="5.53992">
        <ele>875</ele>
        <time>2021-09-04T10:58:08Z</time>
      </trkpt>
      <trkpt lat="44.18655" lon="5.5395">
        <ele>873.59997558594</ele>
        <time>2021-09-04T10:58:12Z</time>
      </trkpt>
      <trkpt lat="44.18676" lon="5.53921">
        <ele>872.59997558594</ele>
        <time>2021-09-04T10:58:15Z</time>
      </trkpt>
      <trkpt lat="44.187" lon="5.53893">
        <ele>871.59997558594</ele>
        <time>2021-09-04T10:58:18Z</time>
      </trkpt>
      <trkpt lat="44.18726" lon="5.53867">
        <ele>870.59997558594</ele>
        <time>2021-09-04T10:58:21Z</time>
      </trkpt>
      <trkpt lat="44.18755" lon="5.53845">
        <ele>869.20001220703</ele>
        <time>2021-09-04T10:58:24Z</time>
      </trkpt>
      <trkpt lat="44.18788" lon="5.53833">
        <ele>867.59997558594</ele>
        <time>2021-09-04T10:58:27Z</time>
      </trkpt>
      <trkpt lat="44.18798" lon="5.53826">
        <ele>867</ele>
        <time>2021-09-04T10:58:28Z</time>
      </trkpt>
      <trkpt lat="44.18804" lon="5.53815">
        <ele>866.59997558594</ele>
        <time>2021-09-04T10:58:29Z</time>
      </trkpt>
      <trkpt lat="44.18809" lon="5.53801">
        <ele>866</ele>
        <time>2021-09-04T10:58:30Z</time>
      </trkpt>
      <trkpt lat="44.18812" lon="5.53786">
        <ele>865.40002441406</ele>
        <time>2021-09-04T10:58:31Z</time>
      </trkpt>
      <trkpt lat="44.18817" lon="5.53757">
        <ele>864.40002441406</ele>
        <time>2021-09-04T10:58:33Z</time>
      </trkpt>
      <trkpt lat="44.18825" lon="5.53734">
        <ele>863</ele>
        <time>2021-09-04T10:58:35Z</time>
      </trkpt>
      <trkpt lat="44.18832" lon="5.53728">
        <ele>862.59997558594</ele>
        <time>2021-09-04T10:58:36Z</time>
      </trkpt>
      <trkpt lat="44.18849" lon="5.53719">
        <ele>861.79998779297</ele>
        <time>2021-09-04T10:58:38Z</time>
      </trkpt>
      <trkpt lat="44.18872" lon="5.53707">
        <ele>861.59997558594</ele>
        <time>2021-09-04T10:58:41Z</time>
      </trkpt>
      <trkpt lat="44.18908" lon="5.53692">
        <ele>861.59997558594</ele>
        <time>2021-09-04T10:58:46Z</time>
      </trkpt>
      <trkpt lat="44.18952" lon="5.53678">
        <ele>862.59997558594</ele>
        <time>2021-09-04T10:58:53Z</time>
      </trkpt>
      <trkpt lat="44.18977" lon="5.53673">
        <ele>862.79998779297</ele>
        <time>2021-09-04T10:58:57Z</time>
      </trkpt>
      <trkpt lat="44.18989" lon="5.53674">
        <ele>863</ele>
        <time>2021-09-04T10:58:59Z</time>
      </trkpt>
      <trkpt lat="44.19015" lon="5.53675">
        <ele>863.59997558594</ele>
        <time>2021-09-04T10:59:04Z</time>
      </trkpt>
      <trkpt lat="44.19023" lon="5.53664">
        <ele>863.59997558594</ele>
        <time>2021-09-04T10:59:07Z</time>
      </trkpt>
      <trkpt lat="44.19025" lon="5.5366">
        <ele>863.79998779297</ele>
        <time>2021-09-04T10:59:08Z</time>
      </trkpt>
      <trkpt lat="44.19026" lon="5.53658">
        <ele>864</ele>
        <time>2021-09-04T10:59:09Z</time>
      </trkpt>
      <trkpt lat="44.19027" lon="5.53656">
        <ele>864.20001220703</ele>
        <time>2021-09-04T10:59:11Z</time>
      </trkpt>
      <trkpt lat="44.19026" lon="5.53682">
        <ele>864.20001220703</ele>
        <time>2021-09-04T10:59:15Z</time>
      </trkpt>
      <trkpt lat="44.1904" lon="5.53699">
        <ele>863.40002441406</ele>
        <time>2021-09-04T10:59:20Z</time>
      </trkpt>
      <trkpt lat="44.19055" lon="5.53703">
        <ele>862.79998779297</ele>
        <time>2021-09-04T10:59:23Z</time>
      </trkpt>
      <trkpt lat="44.19071" lon="5.53709">
        <ele>862.20001220703</ele>
        <time>2021-09-04T10:59:26Z</time>
      </trkpt>
      <trkpt lat="44.19083" lon="5.53712">
        <ele>861.59997558594</ele>
        <time>2021-09-04T10:59:28Z</time>
      </trkpt>
      <trkpt lat="44.19106" lon="5.53716">
        <ele>861</ele>
        <time>2021-09-04T10:59:31Z</time>
      </trkpt>
      <trkpt lat="44.19123" lon="5.53719">
        <ele>860.40002441406</ele>
        <time>2021-09-04T10:59:33Z</time>
      </trkpt>
      <trkpt lat="44.19151" lon="5.53722">
        <ele>859.20001220703</ele>
        <time>2021-09-04T10:59:36Z</time>
      </trkpt>
      <trkpt lat="44.1916" lon="5.53723">
        <ele>858.59997558594</ele>
        <time>2021-09-04T10:59:37Z</time>
      </trkpt>
      <trkpt lat="44.1918" lon="5.53725">
        <ele>857.59997558594</ele>
        <time>2021-09-04T10:59:39Z</time>
      </trkpt>
      <trkpt lat="44.1921" lon="5.53728">
        <ele>856.20001220703</ele>
        <time>2021-09-04T10:59:42Z</time>
      </trkpt>
      <trkpt lat="44.19229" lon="5.53731">
        <ele>855.40002441406</ele>
        <time>2021-09-04T10:59:44Z</time>
      </trkpt>
      <trkpt lat="44.19239" lon="5.53733">
        <ele>854.79998779297</ele>
        <time>2021-09-04T10:59:45Z</time>
      </trkpt>
      <trkpt lat="44.19269" lon="5.53738">
        <ele>853.40002441406</ele>
        <time>2021-09-04T10:59:48Z</time>
      </trkpt>
      <trkpt lat="44.19299" lon="5.53742">
        <ele>852</ele>
        <time>2021-09-04T10:59:51Z</time>
      </trkpt>
      <trkpt lat="44.19308" lon="5.53744">
        <ele>851.20001220703</ele>
        <time>2021-09-04T10:59:52Z</time>
      </trkpt>
      <trkpt lat="44.19318" lon="5.53745">
        <ele>851</ele>
        <time>2021-09-04T10:59:53Z</time>
      </trkpt>
      <trkpt lat="44.19356" lon="5.5375">
        <ele>849.79998779297</ele>
        <time>2021-09-04T10:59:57Z</time>
      </trkpt>
      <trkpt lat="44.19375" lon="5.53752">
        <ele>849.20001220703</ele>
        <time>2021-09-04T10:59:59Z</time>
      </trkpt>
      <trkpt lat="44.19392" lon="5.53754">
        <ele>848.59997558594</ele>
        <time>2021-09-04T11:00:01Z</time>
      </trkpt>
      <trkpt lat="44.19426" lon="5.53759">
        <ele>847.79998779297</ele>
        <time>2021-09-04T11:00:05Z</time>
      </trkpt>
      <trkpt lat="44.19434" lon="5.5376">
        <ele>847.59997558594</ele>
        <time>2021-09-04T11:00:06Z</time>
      </trkpt>
      <trkpt lat="44.19484" lon="5.53766">
        <ele>846.59997558594</ele>
        <time>2021-09-04T11:00:12Z</time>
      </trkpt>
      <trkpt lat="44.19492" lon="5.53767">
        <ele>846.40002441406</ele>
        <time>2021-09-04T11:00:13Z</time>
      </trkpt>
      <trkpt lat="44.19532" lon="5.53769">
        <ele>845.59997558594</ele>
        <time>2021-09-04T11:00:18Z</time>
      </trkpt>
      <trkpt lat="44.1954" lon="5.5377">
        <ele>845.20001220703</ele>
        <time>2021-09-04T11:00:19Z</time>
      </trkpt>
      <trkpt lat="44.19581" lon="5.53769">
        <ele>844.20001220703</ele>
        <time>2021-09-04T11:00:24Z</time>
      </trkpt>
      <trkpt lat="44.19589" lon="5.53769">
        <ele>844</ele>
        <time>2021-09-04T11:00:25Z</time>
      </trkpt>
      <trkpt lat="44.19631" lon="5.53767">
        <ele>843</ele>
        <time>2021-09-04T11:00:30Z</time>
      </trkpt>
      <trkpt lat="44.19656" lon="5.53767">
        <ele>842.40002441406</ele>
        <time>2021-09-04T11:00:33Z</time>
      </trkpt>
      <trkpt lat="44.19673" lon="5.53766">
        <ele>841.79998779297</ele>
        <time>2021-09-04T11:00:35Z</time>
      </trkpt>
      <trkpt lat="44.19716" lon="5.53766">
        <ele>840.59997558594</ele>
        <time>2021-09-04T11:00:40Z</time>
      </trkpt>
      <trkpt lat="44.19766" lon="5.53764">
        <ele>839.59997558594</ele>
        <time>2021-09-04T11:00:46Z</time>
      </trkpt>
      <trkpt lat="44.19789" lon="5.53763">
        <ele>839</ele>
        <time>2021-09-04T11:00:49Z</time>
      </trkpt>
      <trkpt lat="44.19814" lon="5.53762">
        <ele>838.40002441406</ele>
        <time>2021-09-04T11:00:52Z</time>
      </trkpt>
      <trkpt lat="44.19848" lon="5.53759">
        <ele>837.59997558594</ele>
        <time>2021-09-04T11:00:56Z</time>
      </trkpt>
      <trkpt lat="44.19857" lon="5.53757">
        <ele>837.40002441406</ele>
        <time>2021-09-04T11:00:57Z</time>
      </trkpt>
      <trkpt lat="44.19889" lon="5.53746">
        <ele>836.20001220703</ele>
        <time>2021-09-04T11:01:01Z</time>
      </trkpt>
      <trkpt lat="44.19905" lon="5.5374">
        <ele>835.79998779297</ele>
        <time>2021-09-04T11:01:03Z</time>
      </trkpt>
      <trkpt lat="44.19937" lon="5.53729">
        <ele>835.20001220703</ele>
        <time>2021-09-04T11:01:07Z</time>
      </trkpt>
      <trkpt lat="44.19951" lon="5.53724">
        <ele>835</ele>
        <time>2021-09-04T11:01:09Z</time>
      </trkpt>
      <trkpt lat="44.19995" lon="5.53708">
        <ele>834.20001220703</ele>
        <time>2021-09-04T11:01:15Z</time>
      </trkpt>
      <trkpt lat="44.20003" lon="5.53706">
        <ele>834</ele>
        <time>2021-09-04T11:01:16Z</time>
      </trkpt>
      <trkpt lat="44.20057" lon="5.53693">
        <ele>833.20001220703</ele>
        <time>2021-09-04T11:01:23Z</time>
      </trkpt>
      <trkpt lat="44.20065" lon="5.53692">
        <ele>833.20001220703</ele>
        <time>2021-09-04T11:01:24Z</time>
      </trkpt>
      <trkpt lat="44.20111" lon="5.53689">
        <ele>832.40002441406</ele>
        <time>2021-09-04T11:01:30Z</time>
      </trkpt>
      <trkpt lat="44.20126" lon="5.53689">
        <ele>832</ele>
        <time>2021-09-04T11:01:32Z</time>
      </trkpt>
      <trkpt lat="44.20146" lon="5.53687">
        <ele>831.59997558594</ele>
        <time>2021-09-04T11:01:35Z</time>
      </trkpt>
      <trkpt lat="44.20187" lon="5.53686">
        <ele>831.20001220703</ele>
        <time>2021-09-04T11:01:41Z</time>
      </trkpt>
      <trkpt lat="44.20201" lon="5.53685">
        <ele>831</ele>
        <time>2021-09-04T11:01:43Z</time>
      </trkpt>
      <trkpt lat="44.20255" lon="5.53681">
        <ele>830</ele>
        <time>2021-09-04T11:01:51Z</time>
      </trkpt>
      <trkpt lat="44.20262" lon="5.5368">
        <ele>829.59997558594</ele>
        <time>2021-09-04T11:01:52Z</time>
      </trkpt>
      <trkpt lat="44.20299" lon="5.53672">
        <ele>828.59997558594</ele>
        <time>2021-09-04T11:01:57Z</time>
      </trkpt>
      <trkpt lat="44.20328" lon="5.53661">
        <ele>827.59997558594</ele>
        <time>2021-09-04T11:02:01Z</time>
      </trkpt>
      <trkpt lat="44.20335" lon="5.53657">
        <ele>827.20001220703</ele>
        <time>2021-09-04T11:02:02Z</time>
      </trkpt>
      <trkpt lat="44.20364" lon="5.5364">
        <ele>826.59997558594</ele>
        <time>2021-09-04T11:02:07Z</time>
      </trkpt>
      <trkpt lat="44.20369" lon="5.53638">
        <ele>826.59997558594</ele>
        <time>2021-09-04T11:02:08Z</time>
      </trkpt>
      <trkpt lat="44.20395" lon="5.53632">
        <ele>826.79998779297</ele>
        <time>2021-09-04T11:02:13Z</time>
      </trkpt>
      <trkpt lat="44.2041" lon="5.53631">
        <ele>827.40002441406</ele>
        <time>2021-09-04T11:02:16Z</time>
      </trkpt>
      <trkpt lat="44.20426" lon="5.53631">
        <ele>827.40002441406</ele>
        <time>2021-09-04T11:02:19Z</time>
      </trkpt>
      <trkpt lat="44.20438" lon="5.53631">
        <ele>827.40002441406</ele>
        <time>2021-09-04T11:02:21Z</time>
      </trkpt>
      <trkpt lat="44.20456" lon="5.53634">
        <ele>827</ele>
        <time>2021-09-04T11:02:24Z</time>
      </trkpt>
      <trkpt lat="44.20475" lon="5.53639">
        <ele>826.40002441406</ele>
        <time>2021-09-04T11:02:27Z</time>
      </trkpt>
      <trkpt lat="44.20488" lon="5.53644">
        <ele>826</ele>
        <time>2021-09-04T11:02:29Z</time>
      </trkpt>
      <trkpt lat="44.205" lon="5.5365">
        <ele>825.79998779297</ele>
        <time>2021-09-04T11:02:31Z</time>
      </trkpt>
      <trkpt lat="44.20504" lon="5.5365">
        <ele>825.40002441406</ele>
        <time>2021-09-04T11:02:33Z</time>
      </trkpt>
      <trkpt lat="44.20505" lon="5.53648">
        <ele>825</ele>
        <time>2021-09-04T11:02:34Z</time>
      </trkpt>
      <trkpt lat="44.20507" lon="5.53651">
        <ele>822.79998779297</ele>
        <time>2021-09-04T11:03:08Z</time>
      </trkpt>
      <trkpt lat="44.20518" lon="5.53663">
        <ele>822.79998779297</ele>
        <time>2021-09-04T11:03:12Z</time>
      </trkpt>
      <trkpt lat="44.20547" lon="5.53679">
        <ele>821.79998779297</ele>
        <time>2021-09-04T11:03:19Z</time>
      </trkpt>
      <trkpt lat="44.20551" lon="5.53687">
        <ele>821.59997558594</ele>
        <time>2021-09-04T11:03:22Z</time>
      </trkpt>
      <trkpt lat="44.20557" lon="5.53686">
        <ele>821.40002441406</ele>
        <time>2021-09-04T11:03:26Z</time>
      </trkpt>
      <trkpt lat="44.20561" lon="5.53682">
        <ele>821.40002441406</ele>
        <time>2021-09-04T11:03:28Z</time>
      </trkpt>
      <trkpt lat="44.20569" lon="5.5368">
        <ele>821.40002441406</ele>
        <time>2021-09-04T11:03:31Z</time>
      </trkpt>
      <trkpt lat="44.20594" lon="5.5367">
        <ele>821.59997558594</ele>
        <time>2021-09-04T11:03:38Z</time>
      </trkpt>
      <trkpt lat="44.20615" lon="5.53664">
        <ele>821.59997558594</ele>
        <time>2021-09-04T11:03:43Z</time>
      </trkpt>
      <trkpt lat="44.2062" lon="5.53661">
        <ele>821.59997558594</ele>
        <time>2021-09-04T11:03:44Z</time>
      </trkpt>
      <trkpt lat="44.20652" lon="5.53649">
        <ele>822</ele>
        <time>2021-09-04T11:03:50Z</time>
      </trkpt>
      <trkpt lat="44.20669" lon="5.53643">
        <ele>822</ele>
        <time>2021-09-04T11:03:53Z</time>
      </trkpt>
      <trkpt lat="44.20687" lon="5.53641">
        <ele>821.79998779297</ele>
        <time>2021-09-04T11:03:56Z</time>
      </trkpt>
      <trkpt lat="44.20729" lon="5.53645">
        <ele>822</ele>
        <time>2021-09-04T11:04:03Z</time>
      </trkpt>
      <trkpt lat="44.20775" lon="5.53662">
        <ele>821.40002441406</ele>
        <time>2021-09-04T11:04:10Z</time>
      </trkpt>
      <trkpt lat="44.20782" lon="5.53663">
        <ele>821.20001220703</ele>
        <time>2021-09-04T11:04:11Z</time>
      </trkpt>
      <trkpt lat="44.2081" lon="5.53662">
        <ele>820.79998779297</ele>
        <time>2021-09-04T11:04:15Z</time>
      </trkpt>
      <trkpt lat="44.20858" lon="5.53649">
        <ele>820</ele>
        <time>2021-09-04T11:04:22Z</time>
      </trkpt>
      <trkpt lat="44.20877" lon="5.53646">
        <ele>819.79998779297</ele>
        <time>2021-09-04T11:04:25Z</time>
      </trkpt>
      <trkpt lat="44.2089" lon="5.53644">
        <ele>819.59997558594</ele>
        <time>2021-09-04T11:04:27Z</time>
      </trkpt>
      <trkpt lat="44.20896" lon="5.53644">
        <ele>819.40002441406</ele>
        <time>2021-09-04T11:04:28Z</time>
      </trkpt>
      <trkpt lat="44.2092" lon="5.53656">
        <ele>819.20001220703</ele>
        <time>2021-09-04T11:04:32Z</time>
      </trkpt>
      <trkpt lat="44.20937" lon="5.53682">
        <ele>819</ele>
        <time>2021-09-04T11:04:36Z</time>
      </trkpt>
      <trkpt lat="44.2094" lon="5.53689">
        <ele>819</ele>
        <time>2021-09-04T11:04:37Z</time>
      </trkpt>
      <trkpt lat="44.20957" lon="5.53731">
        <ele>819</ele>
        <time>2021-09-04T11:04:43Z</time>
      </trkpt>
      <trkpt lat="44.2096" lon="5.53746">
        <ele>819</ele>
        <time>2021-09-04T11:04:45Z</time>
      </trkpt>
      <trkpt lat="44.20968" lon="5.53767">
        <ele>819</ele>
        <time>2021-09-04T11:04:48Z</time>
      </trkpt>
      <trkpt lat="44.2099" lon="5.53814">
        <ele>819</ele>
        <time>2021-09-04T11:04:55Z</time>
      </trkpt>
      <trkpt lat="44.20998" lon="5.53826">
        <ele>819</ele>
        <time>2021-09-04T11:04:57Z</time>
      </trkpt>
      <trkpt lat="44.2101" lon="5.53844">
        <ele>818.79998779297</ele>
        <time>2021-09-04T11:05:00Z</time>
      </trkpt>
      <trkpt lat="44.21023" lon="5.53862">
        <ele>818.59997558594</ele>
        <time>2021-09-04T11:05:03Z</time>
      </trkpt>
      <trkpt lat="44.21039" lon="5.53878">
        <ele>818.59997558594</ele>
        <time>2021-09-04T11:05:06Z</time>
      </trkpt>
      <trkpt lat="44.21082" lon="5.53912">
        <ele>818.20001220703</ele>
        <time>2021-09-04T11:05:13Z</time>
      </trkpt>
      <trkpt lat="44.21115" lon="5.53931">
        <ele>817.59997558594</ele>
        <time>2021-09-04T11:05:18Z</time>
      </trkpt>
      <trkpt lat="44.21142" lon="5.53946">
        <ele>817</ele>
        <time>2021-09-04T11:05:22Z</time>
      </trkpt>
      <trkpt lat="44.21177" lon="5.53964">
        <ele>816.40002441406</ele>
        <time>2021-09-04T11:05:27Z</time>
      </trkpt>
      <trkpt lat="44.21211" lon="5.53983">
        <ele>815.40002441406</ele>
        <time>2021-09-04T11:05:32Z</time>
      </trkpt>
      <trkpt lat="44.21218" lon="5.53987">
        <ele>815.20001220703</ele>
        <time>2021-09-04T11:05:33Z</time>
      </trkpt>
      <trkpt lat="44.21266" lon="5.54014">
        <ele>814.20001220703</ele>
        <time>2021-09-04T11:05:40Z</time>
      </trkpt>
      <trkpt lat="44.21287" lon="5.54026">
        <ele>813.79998779297</ele>
        <time>2021-09-04T11:05:43Z</time>
      </trkpt>
      <trkpt lat="44.21307" lon="5.5404">
        <ele>813.20001220703</ele>
        <time>2021-09-04T11:05:46Z</time>
      </trkpt>
      <trkpt lat="44.21333" lon="5.54062">
        <ele>812.40002441406</ele>
        <time>2021-09-04T11:05:50Z</time>
      </trkpt>
      <trkpt lat="44.21345" lon="5.54075">
        <ele>811.79998779297</ele>
        <time>2021-09-04T11:05:52Z</time>
      </trkpt>
      <trkpt lat="44.21374" lon="5.54108">
        <ele>810.79998779297</ele>
        <time>2021-09-04T11:05:57Z</time>
      </trkpt>
      <trkpt lat="44.2138" lon="5.54114">
        <ele>810.59997558594</ele>
        <time>2021-09-04T11:05:58Z</time>
      </trkpt>
      <trkpt lat="44.21426" lon="5.54168">
        <ele>809.40002441406</ele>
        <time>2021-09-04T11:06:06Z</time>
      </trkpt>
      <trkpt lat="44.21456" lon="5.54202">
        <ele>808.40002441406</ele>
        <time>2021-09-04T11:06:11Z</time>
      </trkpt>
      <trkpt lat="44.21472" lon="5.54222">
        <ele>808</ele>
        <time>2021-09-04T11:06:14Z</time>
      </trkpt>
      <trkpt lat="44.21488" lon="5.54241">
        <ele>807.40002441406</ele>
        <time>2021-09-04T11:06:17Z</time>
      </trkpt>
      <trkpt lat="44.21507" lon="5.54264">
        <ele>807</ele>
        <time>2021-09-04T11:06:21Z</time>
      </trkpt>
      <trkpt lat="44.21545" lon="5.54304">
        <ele>806.79998779297</ele>
        <time>2021-09-04T11:06:29Z</time>
      </trkpt>
      <trkpt lat="44.21563" lon="5.54322">
        <ele>806.40002441406</ele>
        <time>2021-09-04T11:06:33Z</time>
      </trkpt>
      <trkpt lat="44.21569" lon="5.54322">
        <ele>806.40002441406</ele>
        <time>2021-09-04T11:06:34Z</time>
      </trkpt>
      <trkpt lat="44.21574" lon="5.5432">
        <ele>806.40002441406</ele>
        <time>2021-09-04T11:06:35Z</time>
      </trkpt>
      <trkpt lat="44.21587" lon="5.54301">
        <ele>806.20001220703</ele>
        <time>2021-09-04T11:06:38Z</time>
      </trkpt>
      <trkpt lat="44.21603" lon="5.54282">
        <ele>805.40002441406</ele>
        <time>2021-09-04T11:06:41Z</time>
      </trkpt>
      <trkpt lat="44.21609" lon="5.54277">
        <ele>805.20001220703</ele>
        <time>2021-09-04T11:06:42Z</time>
      </trkpt>
      <trkpt lat="44.21634" lon="5.54258">
        <ele>804.59997558594</ele>
        <time>2021-09-04T11:06:46Z</time>
      </trkpt>
      <trkpt lat="44.2164" lon="5.54254">
        <ele>804.40002441406</ele>
        <time>2021-09-04T11:06:47Z</time>
      </trkpt>
      <trkpt lat="44.2166" lon="5.54243">
        <ele>804.20001220703</ele>
        <time>2021-09-04T11:06:50Z</time>
      </trkpt>
      <trkpt lat="44.21667" lon="5.54241">
        <ele>804.20001220703</ele>
        <time>2021-09-04T11:06:51Z</time>
      </trkpt>
      <trkpt lat="44.21673" lon="5.54239">
        <ele>804.20001220703</ele>
        <time>2021-09-04T11:06:52Z</time>
      </trkpt>
      <trkpt lat="44.21731" lon="5.54224">
        <ele>804.20001220703</ele>
        <time>2021-09-04T11:07:01Z</time>
      </trkpt>
      <trkpt lat="44.21737" lon="5.54223">
        <ele>804.20001220703</ele>
        <time>2021-09-04T11:07:02Z</time>
      </trkpt>
      <trkpt lat="44.21794" lon="5.54212">
        <ele>803.79998779297</ele>
        <time>2021-09-04T11:07:11Z</time>
      </trkpt>
      <trkpt lat="44.21848" lon="5.54201">
        <ele>804</ele>
        <time>2021-09-04T11:07:20Z</time>
      </trkpt>
      <trkpt lat="44.21881" lon="5.5418">
        <ele>804.20001220703</ele>
        <time>2021-09-04T11:07:26Z</time>
      </trkpt>
      <trkpt lat="44.21892" lon="5.54169">
        <ele>804.20001220703</ele>
        <time>2021-09-04T11:07:28Z</time>
      </trkpt>
      <trkpt lat="44.21904" lon="5.54146">
        <ele>804</ele>
        <time>2021-09-04T11:07:31Z</time>
      </trkpt>
      <trkpt lat="44.21927" lon="5.54093">
        <ele>803</ele>
        <time>2021-09-04T11:07:37Z</time>
      </trkpt>
      <trkpt lat="44.21953" lon="5.54056">
        <ele>802</ele>
        <time>2021-09-04T11:07:42Z</time>
      </trkpt>
      <trkpt lat="44.21959" lon="5.5405">
        <ele>802</ele>
        <time>2021-09-04T11:07:43Z</time>
      </trkpt>
      <trkpt lat="44.21982" lon="5.54031">
        <ele>801.59997558594</ele>
        <time>2021-09-04T11:07:47Z</time>
      </trkpt>
      <trkpt lat="44.21991" lon="5.54025">
        <ele>801.40002441406</ele>
        <time>2021-09-04T11:07:50Z</time>
      </trkpt>
      <trkpt lat="44.21994" lon="5.5402">
        <ele>800.40002441406</ele>
        <time>2021-09-04T11:17:54Z</time>
      </trkpt>
      <trkpt lat="44.22007" lon="5.54008">
        <ele>800.20001220703</ele>
        <time>2021-09-04T11:17:59Z</time>
      </trkpt>
      <trkpt lat="44.22013" lon="5.54002">
        <ele>800.20001220703</ele>
        <time>2021-09-04T11:18:01Z</time>
      </trkpt>
      <trkpt lat="44.22026" lon="5.53985">
        <ele>800.20001220703</ele>
        <time>2021-09-04T11:18:05Z</time>
      </trkpt>
      <trkpt lat="44.22035" lon="5.53969">
        <ele>800.20001220703</ele>
        <time>2021-09-04T11:18:08Z</time>
      </trkpt>
      <trkpt lat="44.22041" lon="5.53949">
        <ele>800.20001220703</ele>
        <time>2021-09-04T11:18:11Z</time>
      </trkpt>
      <trkpt lat="44.22047" lon="5.53907">
        <ele>800.20001220703</ele>
        <time>2021-09-04T11:18:17Z</time>
      </trkpt>
      <trkpt lat="44.22049" lon="5.53848">
        <ele>800</ele>
        <time>2021-09-04T11:18:25Z</time>
      </trkpt>
      <trkpt lat="44.2205" lon="5.53785">
        <ele>800.20001220703</ele>
        <time>2021-09-04T11:18:34Z</time>
      </trkpt>
      <trkpt lat="44.22051" lon="5.53731">
        <ele>801.20001220703</ele>
        <time>2021-09-04T11:18:43Z</time>
      </trkpt>
      <trkpt lat="44.22051" lon="5.5372">
        <ele>801.40002441406</ele>
        <time>2021-09-04T11:18:45Z</time>
      </trkpt>
      <trkpt lat="44.22053" lon="5.53698">
        <ele>801.79998779297</ele>
        <time>2021-09-04T11:18:49Z</time>
      </trkpt>
      <trkpt lat="44.22054" lon="5.53672">
        <ele>802.40002441406</ele>
        <time>2021-09-04T11:18:54Z</time>
      </trkpt>
      <trkpt lat="44.22055" lon="5.53657">
        <ele>802.79998779297</ele>
        <time>2021-09-04T11:18:57Z</time>
      </trkpt>
      <trkpt lat="44.22056" lon="5.53627">
        <ele>803.40002441406</ele>
        <time>2021-09-04T11:19:03Z</time>
      </trkpt>
      <trkpt lat="44.22057" lon="5.53608">
        <ele>804</ele>
        <time>2021-09-04T11:19:07Z</time>
      </trkpt>
      <trkpt lat="44.22058" lon="5.53579">
        <ele>804.59997558594</ele>
        <time>2021-09-04T11:19:13Z</time>
      </trkpt>
      <trkpt lat="44.22059" lon="5.53557">
        <ele>805</ele>
        <time>2021-09-04T11:19:18Z</time>
      </trkpt>
      <trkpt lat="44.2206" lon="5.53538">
        <ele>805.59997558594</ele>
        <time>2021-09-04T11:19:22Z</time>
      </trkpt>
      <trkpt lat="44.2206" lon="5.5351">
        <ele>806.20001220703</ele>
        <time>2021-09-04T11:19:28Z</time>
      </trkpt>
      <trkpt lat="44.22061" lon="5.53495">
        <ele>806.59997558594</ele>
        <time>2021-09-04T11:19:31Z</time>
      </trkpt>
      <trkpt lat="44.22061" lon="5.53457">
        <ele>807.40002441406</ele>
        <time>2021-09-04T11:19:39Z</time>
      </trkpt>
      <trkpt lat="44.22062" lon="5.53444">
        <ele>807.79998779297</ele>
        <time>2021-09-04T11:19:42Z</time>
      </trkpt>
      <trkpt lat="44.22063" lon="5.53409">
        <ele>808.40002441406</ele>
        <time>2021-09-04T11:19:49Z</time>
      </trkpt>
      <trkpt lat="44.22064" lon="5.5339">
        <ele>808.79998779297</ele>
        <time>2021-09-04T11:19:53Z</time>
      </trkpt>
      <trkpt lat="44.22065" lon="5.5337">
        <ele>809.40002441406</ele>
        <time>2021-09-04T11:19:57Z</time>
      </trkpt>
      <trkpt lat="44.22065" lon="5.53351">
        <ele>809.79998779297</ele>
        <time>2021-09-04T11:20:01Z</time>
      </trkpt>
      <trkpt lat="44.22066" lon="5.53325">
        <ele>810.40002441406</ele>
        <time>2021-09-04T11:20:06Z</time>
      </trkpt>
      <trkpt lat="44.22067" lon="5.53273">
        <ele>810.79998779297</ele>
        <time>2021-09-04T11:20:15Z</time>
      </trkpt>
      <trkpt lat="44.22068" lon="5.53249">
        <ele>811</ele>
        <time>2021-09-04T11:20:19Z</time>
      </trkpt>
      <trkpt lat="44.22069" lon="5.5323">
        <ele>811</ele>
        <time>2021-09-04T11:20:22Z</time>
      </trkpt>
      <trkpt lat="44.22072" lon="5.5317">
        <ele>811.20001220703</ele>
        <time>2021-09-04T11:20:31Z</time>
      </trkpt>
      <trkpt lat="44.22074" lon="5.53095">
        <ele>811.59997558594</ele>
        <time>2021-09-04T11:20:42Z</time>
      </trkpt>
      <trkpt lat="44.22075" lon="5.53049">
        <ele>812</ele>
        <time>2021-09-04T11:20:49Z</time>
      </trkpt>
      <trkpt lat="44.22076" lon="5.53017">
        <ele>812.40002441406</ele>
        <time>2021-09-04T11:20:54Z</time>
      </trkpt>
      <trkpt lat="44.22078" lon="5.52965">
        <ele>813</ele>
        <time>2021-09-04T11:21:02Z</time>
      </trkpt>
      <trkpt lat="44.22078" lon="5.52958">
        <ele>813</ele>
        <time>2021-09-04T11:21:03Z</time>
      </trkpt>
      <trkpt lat="44.2208" lon="5.52897">
        <ele>813.20001220703</ele>
        <time>2021-09-04T11:21:11Z</time>
      </trkpt>
      <trkpt lat="44.22082" lon="5.52817">
        <ele>813</ele>
        <time>2021-09-04T11:21:21Z</time>
      </trkpt>
      <trkpt lat="44.22086" lon="5.52738">
        <ele>813</ele>
        <time>2021-09-04T11:21:31Z</time>
      </trkpt>
      <trkpt lat="44.22088" lon="5.52673">
        <ele>813.59997558594</ele>
        <time>2021-09-04T11:21:40Z</time>
      </trkpt>
      <trkpt lat="44.22092" lon="5.5263">
        <ele>814</ele>
        <time>2021-09-04T11:21:46Z</time>
      </trkpt>
      <trkpt lat="44.22094" lon="5.52601">
        <ele>814.20001220703</ele>
        <time>2021-09-04T11:21:50Z</time>
      </trkpt>
      <trkpt lat="44.22096" lon="5.52579">
        <ele>814.20001220703</ele>
        <time>2021-09-04T11:21:53Z</time>
      </trkpt>
      <trkpt lat="44.22098" lon="5.52558">
        <ele>814.59997558594</ele>
        <time>2021-09-04T11:21:56Z</time>
      </trkpt>
      <trkpt lat="44.22102" lon="5.5251">
        <ele>815</ele>
        <time>2021-09-04T11:22:03Z</time>
      </trkpt>
      <trkpt lat="44.22103" lon="5.52496">
        <ele>815.20001220703</ele>
        <time>2021-09-04T11:22:05Z</time>
      </trkpt>
      <trkpt lat="44.22109" lon="5.52428">
        <ele>816</ele>
        <time>2021-09-04T11:22:15Z</time>
      </trkpt>
      <trkpt lat="44.22111" lon="5.52415">
        <ele>816.20001220703</ele>
        <time>2021-09-04T11:22:17Z</time>
      </trkpt>
      <trkpt lat="44.22115" lon="5.52367">
        <ele>816.79998779297</ele>
        <time>2021-09-04T11:22:24Z</time>
      </trkpt>
      <trkpt lat="44.22116" lon="5.5234">
        <ele>817.20001220703</ele>
        <time>2021-09-04T11:22:28Z</time>
      </trkpt>
      <trkpt lat="44.2212" lon="5.52301">
        <ele>817.79998779297</ele>
        <time>2021-09-04T11:22:34Z</time>
      </trkpt>
      <trkpt lat="44.22122" lon="5.52255">
        <ele>818.20001220703</ele>
        <time>2021-09-04T11:22:41Z</time>
      </trkpt>
      <trkpt lat="44.22125" lon="5.52223">
        <ele>818.40002441406</ele>
        <time>2021-09-04T11:22:46Z</time>
      </trkpt>
      <trkpt lat="44.22126" lon="5.52217">
        <ele>818.40002441406</ele>
        <time>2021-09-04T11:22:47Z</time>
      </trkpt>
      <trkpt lat="44.22131" lon="5.52172">
        <ele>818.79998779297</ele>
        <time>2021-09-04T11:22:54Z</time>
      </trkpt>
      <trkpt lat="44.22136" lon="5.52141">
        <ele>819.40002441406</ele>
        <time>2021-09-04T11:22:59Z</time>
      </trkpt>
      <trkpt lat="44.2214" lon="5.52124">
        <ele>819.79998779297</ele>
        <time>2021-09-04T11:23:02Z</time>
      </trkpt>
      <trkpt lat="44.22147" lon="5.52081">
        <ele>820.40002441406</ele>
        <time>2021-09-04T11:23:09Z</time>
      </trkpt>
      <trkpt lat="44.22148" lon="5.52074">
        <ele>820.59997558594</ele>
        <time>2021-09-04T11:23:10Z</time>
      </trkpt>
      <trkpt lat="44.22154" lon="5.52031">
        <ele>821.20001220703</ele>
        <time>2021-09-04T11:23:17Z</time>
      </trkpt>
      <trkpt lat="44.22156" lon="5.5202">
        <ele>821.59997558594</ele>
        <time>2021-09-04T11:23:19Z</time>
      </trkpt>
      <trkpt lat="44.22163" lon="5.51975">
        <ele>822.59997558594</ele>
        <time>2021-09-04T11:23:27Z</time>
      </trkpt>
      <trkpt lat="44.22164" lon="5.5197">
        <ele>822.59997558594</ele>
        <time>2021-09-04T11:23:28Z</time>
      </trkpt>
      <trkpt lat="44.22167" lon="5.51953">
        <ele>823</ele>
        <time>2021-09-04T11:23:31Z</time>
      </trkpt>
      <trkpt lat="44.22171" lon="5.51931">
        <ele>823.40002441406</ele>
        <time>2021-09-04T11:23:35Z</time>
      </trkpt>
      <trkpt lat="44.22174" lon="5.5192">
        <ele>823.79998779297</ele>
        <time>2021-09-04T11:23:37Z</time>
      </trkpt>
      <trkpt lat="44.22185" lon="5.51873">
        <ele>824.40002441406</ele>
        <time>2021-09-04T11:23:45Z</time>
      </trkpt>
      <trkpt lat="44.22189" lon="5.51856">
        <ele>824.79998779297</ele>
        <time>2021-09-04T11:23:48Z</time>
      </trkpt>
      <trkpt lat="44.22198" lon="5.5182">
        <ele>825.40002441406</ele>
        <time>2021-09-04T11:23:54Z</time>
      </trkpt>
      <trkpt lat="44.22205" lon="5.51796">
        <ele>825.79998779297</ele>
        <time>2021-09-04T11:23:58Z</time>
      </trkpt>
      <trkpt lat="44.22209" lon="5.51785">
        <ele>826.20001220703</ele>
        <time>2021-09-04T11:24:00Z</time>
      </trkpt>
      <trkpt lat="44.22213" lon="5.51773">
        <ele>826.40002441406</ele>
        <time>2021-09-04T11:24:02Z</time>
      </trkpt>
      <trkpt lat="44.22225" lon="5.51737">
        <ele>826.79998779297</ele>
        <time>2021-09-04T11:24:08Z</time>
      </trkpt>
      <trkpt lat="44.22227" lon="5.51732">
        <ele>827</ele>
        <time>2021-09-04T11:24:09Z</time>
      </trkpt>
      <trkpt lat="44.22248" lon="5.51674">
        <ele>827.79998779297</ele>
        <time>2021-09-04T11:24:19Z</time>
      </trkpt>
      <trkpt lat="44.22268" lon="5.5162">
        <ele>828.59997558594</ele>
        <time>2021-09-04T11:24:28Z</time>
      </trkpt>
      <trkpt lat="44.22279" lon="5.51589">
        <ele>829</ele>
        <time>2021-09-04T11:24:33Z</time>
      </trkpt>
      <trkpt lat="44.22293" lon="5.51551">
        <ele>829.20001220703</ele>
        <time>2021-09-04T11:24:39Z</time>
      </trkpt>
      <trkpt lat="44.22315" lon="5.51493">
        <ele>829.79998779297</ele>
        <time>2021-09-04T11:24:48Z</time>
      </trkpt>
      <trkpt lat="44.2234" lon="5.51425">
        <ele>829.79998779297</ele>
        <time>2021-09-04T11:24:57Z</time>
      </trkpt>
      <trkpt lat="44.22343" lon="5.51418">
        <ele>829.79998779297</ele>
        <time>2021-09-04T11:24:58Z</time>
      </trkpt>
      <trkpt lat="44.22368" lon="5.5135">
        <ele>829.79998779297</ele>
        <time>2021-09-04T11:25:07Z</time>
      </trkpt>
      <trkpt lat="44.22371" lon="5.51342">
        <ele>829.79998779297</ele>
        <time>2021-09-04T11:25:08Z</time>
      </trkpt>
      <trkpt lat="44.22376" lon="5.51329">
        <ele>830</ele>
        <time>2021-09-04T11:25:10Z</time>
      </trkpt>
      <trkpt lat="44.2239" lon="5.51292">
        <ele>830.40002441406</ele>
        <time>2021-09-04T11:25:16Z</time>
      </trkpt>
      <trkpt lat="44.22403" lon="5.51257">
        <ele>831</ele>
        <time>2021-09-04T11:25:21Z</time>
      </trkpt>
      <trkpt lat="44.22408" lon="5.51241">
        <ele>831</ele>
        <time>2021-09-04T11:25:23Z</time>
      </trkpt>
      <trkpt lat="44.22434" lon="5.51172">
        <ele>830.20001220703</ele>
        <time>2021-09-04T11:25:32Z</time>
      </trkpt>
      <trkpt lat="44.22461" lon="5.511">
        <ele>830.20001220703</ele>
        <time>2021-09-04T11:25:42Z</time>
      </trkpt>
      <trkpt lat="44.22466" lon="5.51086">
        <ele>830.20001220703</ele>
        <time>2021-09-04T11:25:44Z</time>
      </trkpt>
      <trkpt lat="44.22491" lon="5.51017">
        <ele>830.79998779297</ele>
        <time>2021-09-04T11:25:54Z</time>
      </trkpt>
      <trkpt lat="44.22504" lon="5.50985">
        <ele>831.79998779297</ele>
        <time>2021-09-04T11:26:00Z</time>
      </trkpt>
      <trkpt lat="44.22506" lon="5.5098">
        <ele>832</ele>
        <time>2021-09-04T11:26:01Z</time>
      </trkpt>
      <trkpt lat="44.22516" lon="5.50954">
        <ele>833</ele>
        <time>2021-09-04T11:26:07Z</time>
      </trkpt>
      <trkpt lat="44.22525" lon="5.50929">
        <ele>834.20001220703</ele>
        <time>2021-09-04T11:26:13Z</time>
      </trkpt>
      <trkpt lat="44.22531" lon="5.50912">
        <ele>834.79998779297</ele>
        <time>2021-09-04T11:26:17Z</time>
      </trkpt>
      <trkpt lat="44.22534" lon="5.50904">
        <ele>835.40002441406</ele>
        <time>2021-09-04T11:26:19Z</time>
      </trkpt>
      <trkpt lat="44.22543" lon="5.50879">
        <ele>836.20001220703</ele>
        <time>2021-09-04T11:26:25Z</time>
      </trkpt>
      <trkpt lat="44.22548" lon="5.50864">
        <ele>836.40002441406</ele>
        <time>2021-09-04T11:26:28Z</time>
      </trkpt>
      <trkpt lat="44.22556" lon="5.50841">
        <ele>836.79998779297</ele>
        <time>2021-09-04T11:26:32Z</time>
      </trkpt>
      <trkpt lat="44.22576" lon="5.50788">
        <ele>836.20001220703</ele>
        <time>2021-09-04T11:26:39Z</time>
      </trkpt>
      <trkpt lat="44.22591" lon="5.50746">
        <ele>835.40002441406</ele>
        <time>2021-09-04T11:26:44Z</time>
      </trkpt>
      <trkpt lat="44.22607" lon="5.50703">
        <ele>834.79998779297</ele>
        <time>2021-09-04T11:26:49Z</time>
      </trkpt>
      <trkpt lat="44.22621" lon="5.5066">
        <ele>834.40002441406</ele>
        <time>2021-09-04T11:26:54Z</time>
      </trkpt>
      <trkpt lat="44.22629" lon="5.50627">
        <ele>834</ele>
        <time>2021-09-04T11:26:58Z</time>
      </trkpt>
      <trkpt lat="44.22637" lon="5.50571">
        <ele>834.20001220703</ele>
        <time>2021-09-04T11:27:05Z</time>
      </trkpt>
      <trkpt lat="44.22647" lon="5.50495">
        <ele>835.20001220703</ele>
        <time>2021-09-04T11:27:15Z</time>
      </trkpt>
      <trkpt lat="44.2265" lon="5.50473">
        <ele>835.40002441406</ele>
        <time>2021-09-04T11:27:18Z</time>
      </trkpt>
      <trkpt lat="44.22655" lon="5.50432">
        <ele>836</ele>
        <time>2021-09-04T11:27:24Z</time>
      </trkpt>
      <trkpt lat="44.22658" lon="5.50414">
        <ele>836.40002441406</ele>
        <time>2021-09-04T11:27:27Z</time>
      </trkpt>
      <trkpt lat="44.22661" lon="5.50392">
        <ele>837</ele>
        <time>2021-09-04T11:27:31Z</time>
      </trkpt>
      <trkpt lat="44.22662" lon="5.50387">
        <ele>837.20001220703</ele>
        <time>2021-09-04T11:27:32Z</time>
      </trkpt>
      <trkpt lat="44.22663" lon="5.50382">
        <ele>837.40002441406</ele>
        <time>2021-09-04T11:27:33Z</time>
      </trkpt>
      <trkpt lat="44.22667" lon="5.50352">
        <ele>838.59997558594</ele>
        <time>2021-09-04T11:27:39Z</time>
      </trkpt>
      <trkpt lat="44.22667" lon="5.50347">
        <ele>838.79998779297</ele>
        <time>2021-09-04T11:27:40Z</time>
      </trkpt>
      <trkpt lat="44.22671" lon="5.50318">
        <ele>839.79998779297</ele>
        <time>2021-09-04T11:27:46Z</time>
      </trkpt>
      <trkpt lat="44.22672" lon="5.50313">
        <ele>840</ele>
        <time>2021-09-04T11:27:47Z</time>
      </trkpt>
      <trkpt lat="44.22675" lon="5.50286">
        <ele>840.79998779297</ele>
        <time>2021-09-04T11:27:53Z</time>
      </trkpt>
      <trkpt lat="44.22676" lon="5.50281">
        <ele>840.79998779297</ele>
        <time>2021-09-04T11:27:54Z</time>
      </trkpt>
      <trkpt lat="44.22681" lon="5.50248">
        <ele>842</ele>
        <time>2021-09-04T11:28:01Z</time>
      </trkpt>
      <trkpt lat="44.22681" lon="5.50244">
        <ele>842.20001220703</ele>
        <time>2021-09-04T11:28:02Z</time>
      </trkpt>
      <trkpt lat="44.22684" lon="5.50216">
        <ele>843</ele>
        <time>2021-09-04T11:28:08Z</time>
      </trkpt>
      <trkpt lat="44.22687" lon="5.50203">
        <ele>843.40002441406</ele>
        <time>2021-09-04T11:28:11Z</time>
      </trkpt>
      <trkpt lat="44.2269" lon="5.50173">
        <ele>844.20001220703</ele>
        <time>2021-09-04T11:28:17Z</time>
      </trkpt>
      <trkpt lat="44.22691" lon="5.50163">
        <ele>844.40002441406</ele>
        <time>2021-09-04T11:28:19Z</time>
      </trkpt>
      <trkpt lat="44.22696" lon="5.50134">
        <ele>845.20001220703</ele>
        <time>2021-09-04T11:28:25Z</time>
      </trkpt>
      <trkpt lat="44.22699" lon="5.50114">
        <ele>845.40002441406</ele>
        <time>2021-09-04T11:28:29Z</time>
      </trkpt>
      <trkpt lat="44.22705" lon="5.50078">
        <ele>846.20001220703</ele>
        <time>2021-09-04T11:28:36Z</time>
      </trkpt>
      <trkpt lat="44.22706" lon="5.50068">
        <ele>846.40002441406</ele>
        <time>2021-09-04T11:28:38Z</time>
      </trkpt>
      <trkpt lat="44.22714" lon="5.50028">
        <ele>847.20001220703</ele>
        <time>2021-09-04T11:28:46Z</time>
      </trkpt>
      <trkpt lat="44.22716" lon="5.50019">
        <ele>847.40002441406</ele>
        <time>2021-09-04T11:28:48Z</time>
      </trkpt>
      <trkpt lat="44.22728" lon="5.49963">
        <ele>848.20001220703</ele>
        <time>2021-09-04T11:28:59Z</time>
      </trkpt>
      <trkpt lat="44.2274" lon="5.49913">
        <ele>849.40002441406</ele>
        <time>2021-09-04T11:29:09Z</time>
      </trkpt>
      <trkpt lat="44.22753" lon="5.4988">
        <ele>850.20001220703</ele>
        <time>2021-09-04T11:29:16Z</time>
      </trkpt>
      <trkpt lat="44.22755" lon="5.49876">
        <ele>850.40002441406</ele>
        <time>2021-09-04T11:29:17Z</time>
      </trkpt>
      <trkpt lat="44.22769" lon="5.49841">
        <ele>851.59997558594</ele>
        <time>2021-09-04T11:29:25Z</time>
      </trkpt>
      <trkpt lat="44.2277" lon="5.49836">
        <ele>851.59997558594</ele>
        <time>2021-09-04T11:29:26Z</time>
      </trkpt>
      <trkpt lat="44.2278" lon="5.49809">
        <ele>852.59997558594</ele>
        <time>2021-09-04T11:29:32Z</time>
      </trkpt>
      <trkpt lat="44.22787" lon="5.49792">
        <ele>853</ele>
        <time>2021-09-04T11:29:36Z</time>
      </trkpt>
      <trkpt lat="44.22797" lon="5.49765">
        <ele>853.59997558594</ele>
        <time>2021-09-04T11:29:42Z</time>
      </trkpt>
      <trkpt lat="44.22804" lon="5.4974">
        <ele>854.40002441406</ele>
        <time>2021-09-04T11:29:47Z</time>
      </trkpt>
      <trkpt lat="44.2281" lon="5.49719">
        <ele>854.79998779297</ele>
        <time>2021-09-04T11:29:51Z</time>
      </trkpt>
      <trkpt lat="44.22812" lon="5.49701">
        <ele>855</ele>
        <time>2021-09-04T11:29:54Z</time>
      </trkpt>
      <trkpt lat="44.22823" lon="5.49643">
        <ele>855.59997558594</ele>
        <time>2021-09-04T11:30:04Z</time>
      </trkpt>
      <trkpt lat="44.22825" lon="5.49631">
        <ele>855.79998779297</ele>
        <time>2021-09-04T11:30:06Z</time>
      </trkpt>
      <trkpt lat="44.22832" lon="5.4959">
        <ele>856.40002441406</ele>
        <time>2021-09-04T11:30:13Z</time>
      </trkpt>
      <trkpt lat="44.2284" lon="5.4955">
        <ele>856.79998779297</ele>
        <time>2021-09-04T11:30:20Z</time>
      </trkpt>
      <trkpt lat="44.22843" lon="5.49533">
        <ele>857</ele>
        <time>2021-09-04T11:30:23Z</time>
      </trkpt>
      <trkpt lat="44.2285" lon="5.49493">
        <ele>857.79998779297</ele>
        <time>2021-09-04T11:30:30Z</time>
      </trkpt>
      <trkpt lat="44.22852" lon="5.49482">
        <ele>858</ele>
        <time>2021-09-04T11:30:32Z</time>
      </trkpt>
      <trkpt lat="44.2286" lon="5.49442">
        <ele>859</ele>
        <time>2021-09-04T11:30:39Z</time>
      </trkpt>
      <trkpt lat="44.22861" lon="5.49437">
        <ele>859</ele>
        <time>2021-09-04T11:30:40Z</time>
      </trkpt>
      <trkpt lat="44.22869" lon="5.49393">
        <ele>860</ele>
        <time>2021-09-04T11:30:48Z</time>
      </trkpt>
      <trkpt lat="44.22875" lon="5.49354">
        <ele>860.79998779297</ele>
        <time>2021-09-04T11:30:55Z</time>
      </trkpt>
      <trkpt lat="44.22878" lon="5.49343">
        <ele>861</ele>
        <time>2021-09-04T11:30:57Z</time>
      </trkpt>
      <trkpt lat="44.22886" lon="5.49302">
        <ele>861.40002441406</ele>
        <time>2021-09-04T11:31:04Z</time>
      </trkpt>
      <trkpt lat="44.22893" lon="5.49264">
        <ele>862</ele>
        <time>2021-09-04T11:31:10Z</time>
      </trkpt>
      <trkpt lat="44.22904" lon="5.49208">
        <ele>862.59997558594</ele>
        <time>2021-09-04T11:31:19Z</time>
      </trkpt>
      <trkpt lat="44.22911" lon="5.49164">
        <ele>863.20001220703</ele>
        <time>2021-09-04T11:31:26Z</time>
      </trkpt>
      <trkpt lat="44.22921" lon="5.49104">
        <ele>863.79998779297</ele>
        <time>2021-09-04T11:31:36Z</time>
      </trkpt>
      <trkpt lat="44.22925" lon="5.49081">
        <ele>864.20001220703</ele>
        <time>2021-09-04T11:31:40Z</time>
      </trkpt>
      <trkpt lat="44.22927" lon="5.49064">
        <ele>864.59997558594</ele>
        <time>2021-09-04T11:31:43Z</time>
      </trkpt>
      <trkpt lat="44.22928" lon="5.49047">
        <ele>865</ele>
        <time>2021-09-04T11:31:46Z</time>
      </trkpt>
      <trkpt lat="44.22931" lon="5.49026">
        <ele>865.40002441406</ele>
        <time>2021-09-04T11:31:50Z</time>
      </trkpt>
      <trkpt lat="44.22931" lon="5.4902">
        <ele>865.59997558594</ele>
        <time>2021-09-04T11:31:51Z</time>
      </trkpt>
      <trkpt lat="44.22937" lon="5.48975">
        <ele>866.40002441406</ele>
        <time>2021-09-04T11:31:59Z</time>
      </trkpt>
      <trkpt lat="44.22939" lon="5.48964">
        <ele>866.59997558594</ele>
        <time>2021-09-04T11:32:01Z</time>
      </trkpt>
      <trkpt lat="44.22946" lon="5.48912">
        <ele>867</ele>
        <time>2021-09-04T11:32:10Z</time>
      </trkpt>
      <trkpt lat="44.2295" lon="5.4888">
        <ele>867.40002441406</ele>
        <time>2021-09-04T11:32:16Z</time>
      </trkpt>
      <trkpt lat="44.2295" lon="5.48875">
        <ele>867.59997558594</ele>
        <time>2021-09-04T11:32:17Z</time>
      </trkpt>
      <trkpt lat="44.22955" lon="5.4884">
        <ele>867.79998779297</ele>
        <time>2021-09-04T11:32:23Z</time>
      </trkpt>
      <trkpt lat="44.22956" lon="5.48835">
        <ele>867.79998779297</ele>
        <time>2021-09-04T11:32:24Z</time>
      </trkpt>
      <trkpt lat="44.2296" lon="5.48804">
        <ele>868.20001220703</ele>
        <time>2021-09-04T11:32:29Z</time>
      </trkpt>
      <trkpt lat="44.22965" lon="5.48769">
        <ele>868.40002441406</ele>
        <time>2021-09-04T11:32:35Z</time>
      </trkpt>
      <trkpt lat="44.22968" lon="5.48746">
        <ele>868.79998779297</ele>
        <time>2021-09-04T11:32:39Z</time>
      </trkpt>
      <trkpt lat="44.22973" lon="5.48707">
        <ele>869.40002441406</ele>
        <time>2021-09-04T11:32:46Z</time>
      </trkpt>
      <trkpt lat="44.22974" lon="5.4869">
        <ele>870</ele>
        <time>2021-09-04T11:32:49Z</time>
      </trkpt>
      <trkpt lat="44.22978" lon="5.48664">
        <ele>870.40002441406</ele>
        <time>2021-09-04T11:32:54Z</time>
      </trkpt>
      <trkpt lat="44.22981" lon="5.48649">
        <ele>870.79998779297</ele>
        <time>2021-09-04T11:32:57Z</time>
      </trkpt>
      <trkpt lat="44.22986" lon="5.48612">
        <ele>871.59997558594</ele>
        <time>2021-09-04T11:33:04Z</time>
      </trkpt>
      <trkpt lat="44.22987" lon="5.48606">
        <ele>871.59997558594</ele>
        <time>2021-09-04T11:33:05Z</time>
      </trkpt>
      <trkpt lat="44.22994" lon="5.48563">
        <ele>872.59997558594</ele>
        <time>2021-09-04T11:33:13Z</time>
      </trkpt>
      <trkpt lat="44.23001" lon="5.48524">
        <ele>873.59997558594</ele>
        <time>2021-09-04T11:33:21Z</time>
      </trkpt>
      <trkpt lat="44.23002" lon="5.48519">
        <ele>873.59997558594</ele>
        <time>2021-09-04T11:33:22Z</time>
      </trkpt>
      <trkpt lat="44.23009" lon="5.48486">
        <ele>874.40002441406</ele>
        <time>2021-09-04T11:33:29Z</time>
      </trkpt>
      <trkpt lat="44.23012" lon="5.48473">
        <ele>875</ele>
        <time>2021-09-04T11:33:32Z</time>
      </trkpt>
      <trkpt lat="44.23019" lon="5.48452">
        <ele>875.79998779297</ele>
        <time>2021-09-04T11:33:37Z</time>
      </trkpt>
      <trkpt lat="44.23021" lon="5.48443">
        <ele>876</ele>
        <time>2021-09-04T11:33:39Z</time>
      </trkpt>
      <trkpt lat="44.23031" lon="5.48403">
        <ele>877</ele>
        <time>2021-09-04T11:33:48Z</time>
      </trkpt>
      <trkpt lat="44.23032" lon="5.48398">
        <ele>877</ele>
        <time>2021-09-04T11:33:49Z</time>
      </trkpt>
      <trkpt lat="44.2304" lon="5.48366">
        <ele>878.20001220703</ele>
        <time>2021-09-04T11:33:57Z</time>
      </trkpt>
      <trkpt lat="44.23047" lon="5.48341">
        <ele>879.20001220703</ele>
        <time>2021-09-04T11:34:04Z</time>
      </trkpt>
      <trkpt lat="44.23049" lon="5.48334">
        <ele>879.40002441406</ele>
        <time>2021-09-04T11:34:06Z</time>
      </trkpt>
      <trkpt lat="44.23053" lon="5.48313">
        <ele>880.40002441406</ele>
        <time>2021-09-04T11:34:12Z</time>
      </trkpt>
      <trkpt lat="44.23054" lon="5.4831">
        <ele>880.59997558594</ele>
        <time>2021-09-04T11:34:13Z</time>
      </trkpt>
      <trkpt lat="44.23058" lon="5.48293">
        <ele>881.40002441406</ele>
        <time>2021-09-04T11:34:18Z</time>
      </trkpt>
      <trkpt lat="44.23062" lon="5.4828">
        <ele>882.20001220703</ele>
        <time>2021-09-04T11:34:22Z</time>
      </trkpt>
      <trkpt lat="44.23063" lon="5.48276">
        <ele>882.40002441406</ele>
        <time>2021-09-04T11:34:23Z</time>
      </trkpt>
      <trkpt lat="44.23068" lon="5.4826">
        <ele>883.20001220703</ele>
        <time>2021-09-04T11:34:28Z</time>
      </trkpt>
      <trkpt lat="44.23069" lon="5.48256">
        <ele>883.40002441406</ele>
        <time>2021-09-04T11:34:29Z</time>
      </trkpt>
      <trkpt lat="44.23074" lon="5.48236">
        <ele>884.59997558594</ele>
        <time>2021-09-04T11:34:36Z</time>
      </trkpt>
      <trkpt lat="44.23075" lon="5.48233">
        <ele>884.79998779297</ele>
        <time>2021-09-04T11:34:37Z</time>
      </trkpt>
      <trkpt lat="44.23079" lon="5.48215">
        <ele>885.79998779297</ele>
        <time>2021-09-04T11:34:43Z</time>
      </trkpt>
      <trkpt lat="44.23082" lon="5.48206">
        <ele>886.20001220703</ele>
        <time>2021-09-04T11:34:46Z</time>
      </trkpt>
      <trkpt lat="44.23085" lon="5.48194">
        <ele>886.79998779297</ele>
        <time>2021-09-04T11:34:50Z</time>
      </trkpt>
      <trkpt lat="44.23086" lon="5.48185">
        <ele>887.40002441406</ele>
        <time>2021-09-04T11:34:53Z</time>
      </trkpt>
      <trkpt lat="44.23089" lon="5.48172">
        <ele>888</ele>
        <time>2021-09-04T11:34:57Z</time>
      </trkpt>
      <trkpt lat="44.23094" lon="5.4815">
        <ele>889</ele>
        <time>2021-09-04T11:35:04Z</time>
      </trkpt>
      <trkpt lat="44.23094" lon="5.48147">
        <ele>889</ele>
        <time>2021-09-04T11:35:05Z</time>
      </trkpt>
      <trkpt lat="44.23097" lon="5.48123">
        <ele>890.20001220703</ele>
        <time>2021-09-04T11:35:12Z</time>
      </trkpt>
      <trkpt lat="44.231" lon="5.48101">
        <ele>891.40002441406</ele>
        <time>2021-09-04T11:35:19Z</time>
      </trkpt>
      <trkpt lat="44.23101" lon="5.48098">
        <ele>891.40002441406</ele>
        <time>2021-09-04T11:35:20Z</time>
      </trkpt>
      <trkpt lat="44.23102" lon="5.48077">
        <ele>892.40002441406</ele>
        <time>2021-09-04T11:35:26Z</time>
      </trkpt>
      <trkpt lat="44.23104" lon="5.48055">
        <ele>893.59997558594</ele>
        <time>2021-09-04T11:35:32Z</time>
      </trkpt>
      <trkpt lat="44.23104" lon="5.48051">
        <ele>893.59997558594</ele>
        <time>2021-09-04T11:35:33Z</time>
      </trkpt>
      <trkpt lat="44.23107" lon="5.4802">
        <ele>894.59997558594</ele>
        <time>2021-09-04T11:35:40Z</time>
      </trkpt>
      <trkpt lat="44.23108" lon="5.48016">
        <ele>894.79998779297</ele>
        <time>2021-09-04T11:35:41Z</time>
      </trkpt>
      <trkpt lat="44.23111" lon="5.47992">
        <ele>895.79998779297</ele>
        <time>2021-09-04T11:35:47Z</time>
      </trkpt>
      <trkpt lat="44.23112" lon="5.47979">
        <ele>896.20001220703</ele>
        <time>2021-09-04T11:35:50Z</time>
      </trkpt>
      <trkpt lat="44.23113" lon="5.47963">
        <ele>896.79998779297</ele>
        <time>2021-09-04T11:35:54Z</time>
      </trkpt>
      <trkpt lat="44.23114" lon="5.47948">
        <ele>897.59997558594</ele>
        <time>2021-09-04T11:35:58Z</time>
      </trkpt>
      <trkpt lat="44.23115" lon="5.4794">
        <ele>898</ele>
        <time>2021-09-04T11:36:00Z</time>
      </trkpt>
      <trkpt lat="44.23118" lon="5.47914">
        <ele>898.79998779297</ele>
        <time>2021-09-04T11:36:06Z</time>
      </trkpt>
      <trkpt lat="44.23118" lon="5.47906">
        <ele>899</ele>
        <time>2021-09-04T11:36:08Z</time>
      </trkpt>
      <trkpt lat="44.23121" lon="5.47875">
        <ele>900</ele>
        <time>2021-09-04T11:36:15Z</time>
      </trkpt>
      <trkpt lat="44.23122" lon="5.47871">
        <ele>900</ele>
        <time>2021-09-04T11:36:16Z</time>
      </trkpt>
      <trkpt lat="44.23125" lon="5.47839">
        <ele>901</ele>
        <time>2021-09-04T11:36:23Z</time>
      </trkpt>
      <trkpt lat="44.23126" lon="5.4783">
        <ele>901.20001220703</ele>
        <time>2021-09-04T11:36:25Z</time>
      </trkpt>
      <trkpt lat="44.23128" lon="5.47802">
        <ele>902.20001220703</ele>
        <time>2021-09-04T11:36:31Z</time>
      </trkpt>
      <trkpt lat="44.23129" lon="5.47792">
        <ele>902.59997558594</ele>
        <time>2021-09-04T11:36:33Z</time>
      </trkpt>
      <trkpt lat="44.23131" lon="5.47768">
        <ele>903.40002441406</ele>
        <time>2021-09-04T11:36:38Z</time>
      </trkpt>
      <trkpt lat="44.23132" lon="5.47758">
        <ele>903.79998779297</ele>
        <time>2021-09-04T11:36:40Z</time>
      </trkpt>
      <trkpt lat="44.23134" lon="5.4774">
        <ele>904.59997558594</ele>
        <time>2021-09-04T11:36:44Z</time>
      </trkpt>
      <trkpt lat="44.23136" lon="5.47717">
        <ele>905.59997558594</ele>
        <time>2021-09-04T11:36:49Z</time>
      </trkpt>
      <trkpt lat="44.23138" lon="5.47694">
        <ele>906.59997558594</ele>
        <time>2021-09-04T11:36:55Z</time>
      </trkpt>
      <trkpt lat="44.2314" lon="5.47684">
        <ele>907.20001220703</ele>
        <time>2021-09-04T11:36:58Z</time>
      </trkpt>
      <trkpt lat="44.23141" lon="5.47678">
        <ele>907.59997558594</ele>
        <time>2021-09-04T11:37:01Z</time>
      </trkpt>
      <trkpt lat="44.23141" lon="5.47673">
        <ele>907.40002441406</ele>
        <time>2021-09-04T11:38:23Z</time>
      </trkpt>
      <trkpt lat="44.23143" lon="5.47651">
        <ele>907.20001220703</ele>
        <time>2021-09-04T11:38:28Z</time>
      </trkpt>
      <trkpt lat="44.23146" lon="5.47625">
        <ele>907</ele>
        <time>2021-09-04T11:38:32Z</time>
      </trkpt>
      <trkpt lat="44.23146" lon="5.47618">
        <ele>906.79998779297</ele>
        <time>2021-09-04T11:38:33Z</time>
      </trkpt>
      <trkpt lat="44.23146" lon="5.4761">
        <ele>906.59997558594</ele>
        <time>2021-09-04T11:38:34Z</time>
      </trkpt>
      <trkpt lat="44.23143" lon="5.47582">
        <ele>906.20001220703</ele>
        <time>2021-09-04T11:38:37Z</time>
      </trkpt>
      <trkpt lat="44.23142" lon="5.47573">
        <ele>906</ele>
        <time>2021-09-04T11:38:38Z</time>
      </trkpt>
      <trkpt lat="44.23141" lon="5.47563">
        <ele>905.59997558594</ele>
        <time>2021-09-04T11:38:39Z</time>
      </trkpt>
      <trkpt lat="44.23142" lon="5.47529">
        <ele>904.40002441406</ele>
        <time>2021-09-04T11:38:42Z</time>
      </trkpt>
      <trkpt lat="44.23145" lon="5.47504">
        <ele>903</ele>
        <time>2021-09-04T11:38:44Z</time>
      </trkpt>
      <trkpt lat="44.23152" lon="5.47479">
        <ele>901.79998779297</ele>
        <time>2021-09-04T11:38:46Z</time>
      </trkpt>
      <trkpt lat="44.2316" lon="5.47455">
        <ele>900.59997558594</ele>
        <time>2021-09-04T11:38:48Z</time>
      </trkpt>
      <trkpt lat="44.23173" lon="5.47432">
        <ele>899.40002441406</ele>
        <time>2021-09-04T11:38:50Z</time>
      </trkpt>
      <trkpt lat="44.2318" lon="5.47421">
        <ele>898.79998779297</ele>
        <time>2021-09-04T11:38:51Z</time>
      </trkpt>
      <trkpt lat="44.23187" lon="5.4741">
        <ele>898.20001220703</ele>
        <time>2021-09-04T11:38:52Z</time>
      </trkpt>
      <trkpt lat="44.23201" lon="5.47388">
        <ele>896.79998779297</ele>
        <time>2021-09-04T11:38:54Z</time>
      </trkpt>
      <trkpt lat="44.23216" lon="5.47366">
        <ele>895.79998779297</ele>
        <time>2021-09-04T11:38:56Z</time>
      </trkpt>
      <trkpt lat="44.23232" lon="5.47343">
        <ele>894.40002441406</ele>
        <time>2021-09-04T11:38:58Z</time>
      </trkpt>
      <trkpt lat="44.23247" lon="5.47319">
        <ele>893</ele>
        <time>2021-09-04T11:39:00Z</time>
      </trkpt>
      <trkpt lat="44.23263" lon="5.47294">
        <ele>891.59997558594</ele>
        <time>2021-09-04T11:39:02Z</time>
      </trkpt>
      <trkpt lat="44.2328" lon="5.47268">
        <ele>890.20001220703</ele>
        <time>2021-09-04T11:39:04Z</time>
      </trkpt>
      <trkpt lat="44.23297" lon="5.47243">
        <ele>888.79998779297</ele>
        <time>2021-09-04T11:39:06Z</time>
      </trkpt>
      <trkpt lat="44.23314" lon="5.47219">
        <ele>886.79998779297</ele>
        <time>2021-09-04T11:39:08Z</time>
      </trkpt>
      <trkpt lat="44.23324" lon="5.47208">
        <ele>886.20001220703</ele>
        <time>2021-09-04T11:39:09Z</time>
      </trkpt>
      <trkpt lat="44.23333" lon="5.47198">
        <ele>885.40002441406</ele>
        <time>2021-09-04T11:39:10Z</time>
      </trkpt>
      <trkpt lat="44.23352" lon="5.47176">
        <ele>884</ele>
        <time>2021-09-04T11:39:12Z</time>
      </trkpt>
      <trkpt lat="44.23372" lon="5.47156">
        <ele>882.40002441406</ele>
        <time>2021-09-04T11:39:14Z</time>
      </trkpt>
      <trkpt lat="44.23382" lon="5.47147">
        <ele>881.59997558594</ele>
        <time>2021-09-04T11:39:15Z</time>
      </trkpt>
      <trkpt lat="44.23393" lon="5.47138">
        <ele>881</ele>
        <time>2021-09-04T11:39:16Z</time>
      </trkpt>
      <trkpt lat="44.23416" lon="5.47122">
        <ele>879.79998779297</ele>
        <time>2021-09-04T11:39:18Z</time>
      </trkpt>
      <trkpt lat="44.23439" lon="5.47106">
        <ele>878.59997558594</ele>
        <time>2021-09-04T11:39:20Z</time>
      </trkpt>
      <trkpt lat="44.23461" lon="5.47089">
        <ele>877.40002441406</ele>
        <time>2021-09-04T11:39:22Z</time>
      </trkpt>
      <trkpt lat="44.23483" lon="5.47074">
        <ele>876</ele>
        <time>2021-09-04T11:39:24Z</time>
      </trkpt>
      <trkpt lat="44.23505" lon="5.47058">
        <ele>874.59997558594</ele>
        <time>2021-09-04T11:39:26Z</time>
      </trkpt>
      <trkpt lat="44.23515" lon="5.47051">
        <ele>873.79998779297</ele>
        <time>2021-09-04T11:39:27Z</time>
      </trkpt>
      <trkpt lat="44.23526" lon="5.47044">
        <ele>873.20001220703</ele>
        <time>2021-09-04T11:39:28Z</time>
      </trkpt>
      <trkpt lat="44.23547" lon="5.47029">
        <ele>871.79998779297</ele>
        <time>2021-09-04T11:39:30Z</time>
      </trkpt>
      <trkpt lat="44.23567" lon="5.47015">
        <ele>869.79998779297</ele>
        <time>2021-09-04T11:39:32Z</time>
      </trkpt>
      <trkpt lat="44.23587" lon="5.47001">
        <ele>868.59997558594</ele>
        <time>2021-09-04T11:39:34Z</time>
      </trkpt>
      <trkpt lat="44.23597" lon="5.46993">
        <ele>868</ele>
        <time>2021-09-04T11:39:35Z</time>
      </trkpt>
      <trkpt lat="44.23606" lon="5.46986">
        <ele>867.59997558594</ele>
        <time>2021-09-04T11:39:36Z</time>
      </trkpt>
      <trkpt lat="44.23625" lon="5.46973">
        <ele>866.40002441406</ele>
        <time>2021-09-04T11:39:38Z</time>
      </trkpt>
      <trkpt lat="44.23644" lon="5.4696">
        <ele>865.40002441406</ele>
        <time>2021-09-04T11:39:40Z</time>
      </trkpt>
      <trkpt lat="44.23662" lon="5.46947">
        <ele>864.40002441406</ele>
        <time>2021-09-04T11:39:42Z</time>
      </trkpt>
      <trkpt lat="44.2368" lon="5.46934">
        <ele>863.20001220703</ele>
        <time>2021-09-04T11:39:44Z</time>
      </trkpt>
      <trkpt lat="44.23707" lon="5.46914">
        <ele>861.79998779297</ele>
        <time>2021-09-04T11:39:47Z</time>
      </trkpt>
      <trkpt lat="44.23733" lon="5.46895">
        <ele>860.59997558594</ele>
        <time>2021-09-04T11:39:50Z</time>
      </trkpt>
      <trkpt lat="44.2376" lon="5.46875">
        <ele>859.40002441406</ele>
        <time>2021-09-04T11:39:53Z</time>
      </trkpt>
      <trkpt lat="44.23787" lon="5.46855">
        <ele>857.59997558594</ele>
        <time>2021-09-04T11:39:56Z</time>
      </trkpt>
      <trkpt lat="44.23806" lon="5.46842">
        <ele>856.59997558594</ele>
        <time>2021-09-04T11:39:58Z</time>
      </trkpt>
      <trkpt lat="44.23815" lon="5.46836">
        <ele>856.20001220703</ele>
        <time>2021-09-04T11:39:59Z</time>
      </trkpt>
      <trkpt lat="44.23832" lon="5.46823">
        <ele>855.20001220703</ele>
        <time>2021-09-04T11:40:01Z</time>
      </trkpt>
      <trkpt lat="44.23859" lon="5.46803">
        <ele>854</ele>
        <time>2021-09-04T11:40:04Z</time>
      </trkpt>
      <trkpt lat="44.23884" lon="5.46782">
        <ele>853</ele>
        <time>2021-09-04T11:40:07Z</time>
      </trkpt>
      <trkpt lat="44.23913" lon="5.46748">
        <ele>851.79998779297</ele>
        <time>2021-09-04T11:40:11Z</time>
      </trkpt>
      <trkpt lat="44.23919" lon="5.46738">
        <ele>851.59997558594</ele>
        <time>2021-09-04T11:40:12Z</time>
      </trkpt>
      <trkpt lat="44.23945" lon="5.46699">
        <ele>850.59997558594</ele>
        <time>2021-09-04T11:40:16Z</time>
      </trkpt>
      <trkpt lat="44.23971" lon="5.46661">
        <ele>849.40002441406</ele>
        <time>2021-09-04T11:40:20Z</time>
      </trkpt>
      <trkpt lat="44.2399" lon="5.46632">
        <ele>848.79998779297</ele>
        <time>2021-09-04T11:40:23Z</time>
      </trkpt>
      <trkpt lat="44.24009" lon="5.46603">
        <ele>848.40002441406</ele>
        <time>2021-09-04T11:40:26Z</time>
      </trkpt>
      <trkpt lat="44.24034" lon="5.46566">
        <ele>847.40002441406</ele>
        <time>2021-09-04T11:40:30Z</time>
      </trkpt>
      <trkpt lat="44.24046" lon="5.46547">
        <ele>847</ele>
        <time>2021-09-04T11:40:32Z</time>
      </trkpt>
      <trkpt lat="44.24071" lon="5.46509">
        <ele>846.20001220703</ele>
        <time>2021-09-04T11:40:36Z</time>
      </trkpt>
      <trkpt lat="44.24084" lon="5.46478">
        <ele>846</ele>
        <time>2021-09-04T11:40:39Z</time>
      </trkpt>
      <trkpt lat="44.2409" lon="5.46432">
        <ele>845.79998779297</ele>
        <time>2021-09-04T11:40:43Z</time>
      </trkpt>
      <trkpt lat="44.24085" lon="5.46399">
        <ele>845.79998779297</ele>
        <time>2021-09-04T11:40:46Z</time>
      </trkpt>
      <trkpt lat="44.24085" lon="5.46388">
        <ele>845.79998779297</ele>
        <time>2021-09-04T11:40:47Z</time>
      </trkpt>
      <trkpt lat="44.24085" lon="5.46367">
        <ele>846</ele>
        <time>2021-09-04T11:40:49Z</time>
      </trkpt>
      <trkpt lat="44.24087" lon="5.46348">
        <ele>846.20001220703</ele>
        <time>2021-09-04T11:40:51Z</time>
      </trkpt>
      <trkpt lat="44.241" lon="5.46311">
        <ele>846.79998779297</ele>
        <time>2021-09-04T11:40:55Z</time>
      </trkpt>
      <trkpt lat="44.24117" lon="5.46267">
        <ele>847.20001220703</ele>
        <time>2021-09-04T11:41:00Z</time>
      </trkpt>
      <trkpt lat="44.24124" lon="5.46238">
        <ele>847.20001220703</ele>
        <time>2021-09-04T11:41:03Z</time>
      </trkpt>
      <trkpt lat="44.24138" lon="5.46165">
        <ele>847.20001220703</ele>
        <time>2021-09-04T11:41:10Z</time>
      </trkpt>
      <trkpt lat="44.24146" lon="5.46146">
        <ele>847</ele>
        <time>2021-09-04T11:41:12Z</time>
      </trkpt>
      <trkpt lat="44.24156" lon="5.46128">
        <ele>846.59997558594</ele>
        <time>2021-09-04T11:41:14Z</time>
      </trkpt>
      <trkpt lat="44.24168" lon="5.46111">
        <ele>846.20001220703</ele>
        <time>2021-09-04T11:41:16Z</time>
      </trkpt>
      <trkpt lat="44.242" lon="5.46069">
        <ele>845.40002441406</ele>
        <time>2021-09-04T11:41:21Z</time>
      </trkpt>
      <trkpt lat="44.2423" lon="5.46043">
        <ele>845</ele>
        <time>2021-09-04T11:41:25Z</time>
      </trkpt>
      <trkpt lat="44.24239" lon="5.4604">
        <ele>844.79998779297</ele>
        <time>2021-09-04T11:41:26Z</time>
      </trkpt>
      <trkpt lat="44.24281" lon="5.46017">
        <ele>844.20001220703</ele>
        <time>2021-09-04T11:41:31Z</time>
      </trkpt>
      <trkpt lat="44.24288" lon="5.46009">
        <ele>844</ele>
        <time>2021-09-04T11:41:32Z</time>
      </trkpt>
      <trkpt lat="44.24293" lon="5.45999">
        <ele>843.59997558594</ele>
        <time>2021-09-04T11:41:33Z</time>
      </trkpt>
      <trkpt lat="44.243" lon="5.45975">
        <ele>843.20001220703</ele>
        <time>2021-09-04T11:41:35Z</time>
      </trkpt>
      <trkpt lat="44.24302" lon="5.4595">
        <ele>842.79998779297</ele>
        <time>2021-09-04T11:41:37Z</time>
      </trkpt>
      <trkpt lat="44.24304" lon="5.45924">
        <ele>842.59997558594</ele>
        <time>2021-09-04T11:41:39Z</time>
      </trkpt>
      <trkpt lat="44.24312" lon="5.45874">
        <ele>842</ele>
        <time>2021-09-04T11:41:43Z</time>
      </trkpt>
      <trkpt lat="44.24317" lon="5.45863">
        <ele>841.79998779297</ele>
        <time>2021-09-04T11:41:44Z</time>
      </trkpt>
      <trkpt lat="44.24335" lon="5.45818">
        <ele>840.79998779297</ele>
        <time>2021-09-04T11:41:48Z</time>
      </trkpt>
      <trkpt lat="44.24351" lon="5.45772">
        <ele>840</ele>
        <time>2021-09-04T11:41:52Z</time>
      </trkpt>
      <trkpt lat="44.24355" lon="5.45761">
        <ele>839.59997558594</ele>
        <time>2021-09-04T11:41:53Z</time>
      </trkpt>
      <trkpt lat="44.24371" lon="5.45701">
        <ele>838.40002441406</ele>
        <time>2021-09-04T11:41:58Z</time>
      </trkpt>
      <trkpt lat="44.24379" lon="5.45663">
        <ele>837.79998779297</ele>
        <time>2021-09-04T11:42:01Z</time>
      </trkpt>
      <trkpt lat="44.2438" lon="5.45649">
        <ele>837.59997558594</ele>
        <time>2021-09-04T11:42:02Z</time>
      </trkpt>
      <trkpt lat="44.24381" lon="5.45623">
        <ele>837.40002441406</ele>
        <time>2021-09-04T11:42:04Z</time>
      </trkpt>
      <trkpt lat="44.24381" lon="5.45609">
        <ele>837.40002441406</ele>
        <time>2021-09-04T11:42:05Z</time>
      </trkpt>
      <trkpt lat="44.2438" lon="5.4553">
        <ele>836.40002441406</ele>
        <time>2021-09-04T11:42:11Z</time>
      </trkpt>
      <trkpt lat="44.2438" lon="5.45516">
        <ele>836.20001220703</ele>
        <time>2021-09-04T11:42:12Z</time>
      </trkpt>
      <trkpt lat="44.2438" lon="5.45433">
        <ele>835</ele>
        <time>2021-09-04T11:42:18Z</time>
      </trkpt>
      <trkpt lat="44.24383" lon="5.45405">
        <ele>834.20001220703</ele>
        <time>2021-09-04T11:42:20Z</time>
      </trkpt>
      <trkpt lat="44.24387" lon="5.45377">
        <ele>833.79998779297</ele>
        <time>2021-09-04T11:42:22Z</time>
      </trkpt>
      <trkpt lat="44.24398" lon="5.45336">
        <ele>833</ele>
        <time>2021-09-04T11:42:25Z</time>
      </trkpt>
      <trkpt lat="44.24402" lon="5.45323">
        <ele>832.59997558594</ele>
        <time>2021-09-04T11:42:26Z</time>
      </trkpt>
      <trkpt lat="44.24422" lon="5.45275">
        <ele>831.40002441406</ele>
        <time>2021-09-04T11:42:30Z</time>
      </trkpt>
      <trkpt lat="44.24428" lon="5.45263">
        <ele>831.20001220703</ele>
        <time>2021-09-04T11:42:31Z</time>
      </trkpt>
      <trkpt lat="44.24452" lon="5.45216">
        <ele>830.20001220703</ele>
        <time>2021-09-04T11:42:35Z</time>
      </trkpt>
      <trkpt lat="44.24473" lon="5.45184">
        <ele>829.59997558594</ele>
        <time>2021-09-04T11:42:38Z</time>
      </trkpt>
      <trkpt lat="44.24489" lon="5.45166">
        <ele>829</ele>
        <time>2021-09-04T11:42:40Z</time>
      </trkpt>
      <trkpt lat="44.24522" lon="5.45132">
        <ele>828</ele>
        <time>2021-09-04T11:42:44Z</time>
      </trkpt>
      <trkpt lat="44.24531" lon="5.45124">
        <ele>827.79998779297</ele>
        <time>2021-09-04T11:42:45Z</time>
      </trkpt>
      <trkpt lat="44.24568" lon="5.45078">
        <ele>827.20001220703</ele>
        <time>2021-09-04T11:42:50Z</time>
      </trkpt>
      <trkpt lat="44.24581" lon="5.45058">
        <ele>826.79998779297</ele>
        <time>2021-09-04T11:42:52Z</time>
      </trkpt>
      <trkpt lat="44.24612" lon="5.45006">
        <ele>825.59997558594</ele>
        <time>2021-09-04T11:42:57Z</time>
      </trkpt>
      <trkpt lat="44.24618" lon="5.44995">
        <ele>825.20001220703</ele>
        <time>2021-09-04T11:42:58Z</time>
      </trkpt>
      <trkpt lat="44.24638" lon="5.44964">
        <ele>824.40002441406</ele>
        <time>2021-09-04T11:43:01Z</time>
      </trkpt>
      <trkpt lat="44.24664" lon="5.44921">
        <ele>823.40002441406</ele>
        <time>2021-09-04T11:43:05Z</time>
      </trkpt>
      <trkpt lat="44.2467" lon="5.4491">
        <ele>823.20001220703</ele>
        <time>2021-09-04T11:43:06Z</time>
      </trkpt>
      <trkpt lat="44.24692" lon="5.44863">
        <ele>822</ele>
        <time>2021-09-04T11:43:10Z</time>
      </trkpt>
      <trkpt lat="44.24701" lon="5.44838">
        <ele>821.79998779297</ele>
        <time>2021-09-04T11:43:12Z</time>
      </trkpt>
      <trkpt lat="44.2471" lon="5.44814">
        <ele>821.40002441406</ele>
        <time>2021-09-04T11:43:14Z</time>
      </trkpt>
      <trkpt lat="44.2472" lon="5.44789">
        <ele>820.79998779297</ele>
        <time>2021-09-04T11:43:16Z</time>
      </trkpt>
      <trkpt lat="44.24724" lon="5.44777">
        <ele>820.59997558594</ele>
        <time>2021-09-04T11:43:17Z</time>
      </trkpt>
      <trkpt lat="44.24741" lon="5.44742">
        <ele>819.79998779297</ele>
        <time>2021-09-04T11:43:20Z</time>
      </trkpt>
      <trkpt lat="44.24748" lon="5.44732">
        <ele>819.40002441406</ele>
        <time>2021-09-04T11:43:21Z</time>
      </trkpt>
      <trkpt lat="44.24763" lon="5.44715">
        <ele>818.59997558594</ele>
        <time>2021-09-04T11:43:23Z</time>
      </trkpt>
      <trkpt lat="44.24771" lon="5.44708">
        <ele>818.40002441406</ele>
        <time>2021-09-04T11:43:24Z</time>
      </trkpt>
      <trkpt lat="44.2478" lon="5.44701">
        <ele>818</ele>
        <time>2021-09-04T11:43:25Z</time>
      </trkpt>
      <trkpt lat="44.24805" lon="5.44679">
        <ele>817.59997558594</ele>
        <time>2021-09-04T11:43:28Z</time>
      </trkpt>
      <trkpt lat="44.24839" lon="5.44648">
        <ele>816</ele>
        <time>2021-09-04T11:43:32Z</time>
      </trkpt>
      <trkpt lat="44.2487" lon="5.44616">
        <ele>815</ele>
        <time>2021-09-04T11:43:36Z</time>
      </trkpt>
      <trkpt lat="44.24885" lon="5.44601">
        <ele>814.59997558594</ele>
        <time>2021-09-04T11:43:38Z</time>
      </trkpt>
      <trkpt lat="44.24931" lon="5.44552">
        <ele>814</ele>
        <time>2021-09-04T11:43:44Z</time>
      </trkpt>
      <trkpt lat="44.24939" lon="5.44543">
        <ele>813.79998779297</ele>
        <time>2021-09-04T11:43:45Z</time>
      </trkpt>
      <trkpt lat="44.24963" lon="5.44517">
        <ele>812.79998779297</ele>
        <time>2021-09-04T11:43:48Z</time>
      </trkpt>
      <trkpt lat="44.24989" lon="5.44493">
        <ele>812</ele>
        <time>2021-09-04T11:43:51Z</time>
      </trkpt>
      <trkpt lat="44.24998" lon="5.44487">
        <ele>811.79998779297</ele>
        <time>2021-09-04T11:43:52Z</time>
      </trkpt>
      <trkpt lat="44.25027" lon="5.44466">
        <ele>810.59997558594</ele>
        <time>2021-09-04T11:43:55Z</time>
      </trkpt>
      <trkpt lat="44.25036" lon="5.44458">
        <ele>809.79998779297</ele>
        <time>2021-09-04T11:43:56Z</time>
      </trkpt>
      <trkpt lat="44.25044" lon="5.44448">
        <ele>809.40002441406</ele>
        <time>2021-09-04T11:43:57Z</time>
      </trkpt>
      <trkpt lat="44.25066" lon="5.44418">
        <ele>808.20001220703</ele>
        <time>2021-09-04T11:44:00Z</time>
      </trkpt>
      <trkpt lat="44.2508" lon="5.44397">
        <ele>807.79998779297</ele>
        <time>2021-09-04T11:44:02Z</time>
      </trkpt>
      <trkpt lat="44.25095" lon="5.44379">
        <ele>807.20001220703</ele>
        <time>2021-09-04T11:44:04Z</time>
      </trkpt>
      <trkpt lat="44.25103" lon="5.44371">
        <ele>807</ele>
        <time>2021-09-04T11:44:05Z</time>
      </trkpt>
      <trkpt lat="44.25112" lon="5.44365">
        <ele>806.79998779297</ele>
        <time>2021-09-04T11:44:06Z</time>
      </trkpt>
      <trkpt lat="44.25139" lon="5.44349">
        <ele>806.20001220703</ele>
        <time>2021-09-04T11:44:09Z</time>
      </trkpt>
      <trkpt lat="44.25156" lon="5.44342">
        <ele>805.79998779297</ele>
        <time>2021-09-04T11:44:11Z</time>
      </trkpt>
      <trkpt lat="44.25171" lon="5.44335">
        <ele>805.20001220703</ele>
        <time>2021-09-04T11:44:13Z</time>
      </trkpt>
      <trkpt lat="44.25188" lon="5.44328">
        <ele>804.20001220703</ele>
        <time>2021-09-04T11:44:16Z</time>
      </trkpt>
      <trkpt lat="44.2519" lon="5.44324">
        <ele>804</ele>
        <time>2021-09-04T11:44:17Z</time>
      </trkpt>
      <trkpt lat="44.2519" lon="5.44319">
        <ele>803.79998779297</ele>
        <time>2021-09-04T11:44:18Z</time>
      </trkpt>
      <trkpt lat="44.2518" lon="5.44314">
        <ele>802.59997558594</ele>
        <time>2021-09-04T11:44:21Z</time>
      </trkpt>
      <trkpt lat="44.25163" lon="5.44324">
        <ele>802.20001220703</ele>
        <time>2021-09-04T11:44:25Z</time>
      </trkpt>
      <trkpt lat="44.25158" lon="5.44326">
        <ele>802.20001220703</ele>
        <time>2021-09-04T11:44:26Z</time>
      </trkpt>
      <trkpt lat="44.25148" lon="5.44329">
        <ele>802</ele>
        <time>2021-09-04T11:44:28Z</time>
      </trkpt>
      <trkpt lat="44.25137" lon="5.44326">
        <ele>801.79998779297</ele>
        <time>2021-09-04T11:44:30Z</time>
      </trkpt>
      <trkpt lat="44.25128" lon="5.44317">
        <ele>801.59997558594</ele>
        <time>2021-09-04T11:44:32Z</time>
      </trkpt>
      <trkpt lat="44.25123" lon="5.44312">
        <ele>801.59997558594</ele>
        <time>2021-09-04T11:44:33Z</time>
      </trkpt>
      <trkpt lat="44.25113" lon="5.44302">
        <ele>801.40002441406</ele>
        <time>2021-09-04T11:44:35Z</time>
      </trkpt>
      <trkpt lat="44.25073" lon="5.44261">
        <ele>800.59997558594</ele>
        <time>2021-09-04T11:44:43Z</time>
      </trkpt>
      <trkpt lat="44.25041" lon="5.44226">
        <ele>801</ele>
        <time>2021-09-04T11:44:50Z</time>
      </trkpt>
      <trkpt lat="44.25007" lon="5.44192">
        <ele>801.20001220703</ele>
        <time>2021-09-04T11:44:58Z</time>
      </trkpt>
      <trkpt lat="44.24976" lon="5.44164">
        <ele>802</ele>
        <time>2021-09-04T11:45:06Z</time>
      </trkpt>
      <trkpt lat="44.24968" lon="5.4416">
        <ele>802.20001220703</ele>
        <time>2021-09-04T11:45:08Z</time>
      </trkpt>
      <trkpt lat="44.24956" lon="5.44153">
        <ele>802.59997558594</ele>
        <time>2021-09-04T11:45:11Z</time>
      </trkpt>
      <trkpt lat="44.24952" lon="5.44151">
        <ele>802.79998779297</ele>
        <time>2021-09-04T11:45:12Z</time>
      </trkpt>
      <trkpt lat="44.24943" lon="5.44149">
        <ele>803</ele>
        <time>2021-09-04T11:45:14Z</time>
      </trkpt>
      <trkpt lat="44.24926" lon="5.44146">
        <ele>803.40002441406</ele>
        <time>2021-09-04T11:45:18Z</time>
      </trkpt>
      <trkpt lat="44.24914" lon="5.44146">
        <ele>803.59997558594</ele>
        <time>2021-09-04T11:45:21Z</time>
      </trkpt>
      <trkpt lat="44.24894" lon="5.44143">
        <ele>804.40002441406</ele>
        <time>2021-09-04T11:45:26Z</time>
      </trkpt>
      <trkpt lat="44.24886" lon="5.4414">
        <ele>804.59997558594</ele>
        <time>2021-09-04T11:45:28Z</time>
      </trkpt>
      <trkpt lat="44.24873" lon="5.4413">
        <ele>805.20001220703</ele>
        <time>2021-09-04T11:45:32Z</time>
      </trkpt>
      <trkpt lat="44.24861" lon="5.44117">
        <ele>805.79998779297</ele>
        <time>2021-09-04T11:45:36Z</time>
      </trkpt>
      <trkpt lat="44.24847" lon="5.44101">
        <ele>806.20001220703</ele>
        <time>2021-09-04T11:45:41Z</time>
      </trkpt>
      <trkpt lat="44.24822" lon="5.44076">
        <ele>806.79998779297</ele>
        <time>2021-09-04T11:45:49Z</time>
      </trkpt>
      <trkpt lat="44.24819" lon="5.44073">
        <ele>806.79998779297</ele>
        <time>2021-09-04T11:45:50Z</time>
      </trkpt>
      <trkpt lat="44.24796" lon="5.44054">
        <ele>807.79998779297</ele>
        <time>2021-09-04T11:45:57Z</time>
      </trkpt>
      <trkpt lat="44.24764" lon="5.44026">
        <ele>809</ele>
        <time>2021-09-04T11:46:07Z</time>
      </trkpt>
      <trkpt lat="44.24761" lon="5.44024">
        <ele>809.20001220703</ele>
        <time>2021-09-04T11:46:08Z</time>
      </trkpt>
      <trkpt lat="44.24736" lon="5.44005">
        <ele>810.20001220703</ele>
        <time>2021-09-04T11:46:16Z</time>
      </trkpt>
      <trkpt lat="44.24717" lon="5.43994">
        <ele>810.79998779297</ele>
        <time>2021-09-04T11:46:22Z</time>
      </trkpt>
      <trkpt lat="44.24707" lon="5.43991">
        <ele>811.20001220703</ele>
        <time>2021-09-04T11:46:25Z</time>
      </trkpt>
      <trkpt lat="44.24693" lon="5.43987">
        <ele>811.59997558594</ele>
        <time>2021-09-04T11:46:29Z</time>
      </trkpt>
      <trkpt lat="44.24676" lon="5.43983">
        <ele>812.20001220703</ele>
        <time>2021-09-04T11:46:34Z</time>
      </trkpt>
      <trkpt lat="44.24668" lon="5.43981">
        <ele>812.40002441406</ele>
        <time>2021-09-04T11:46:36Z</time>
      </trkpt>
      <trkpt lat="44.2463" lon="5.43974">
        <ele>813.40002441406</ele>
        <time>2021-09-04T11:46:46Z</time>
      </trkpt>
      <trkpt lat="44.24597" lon="5.43965">
        <ele>814</ele>
        <time>2021-09-04T11:46:55Z</time>
      </trkpt>
      <trkpt lat="44.24583" lon="5.43961">
        <ele>814.40002441406</ele>
        <time>2021-09-04T11:46:59Z</time>
      </trkpt>
      <trkpt lat="44.24572" lon="5.4396">
        <ele>815</ele>
        <time>2021-09-04T11:47:03Z</time>
      </trkpt>
      <trkpt lat="44.24564" lon="5.43959">
        <ele>815.40002441406</ele>
        <time>2021-09-04T11:47:06Z</time>
      </trkpt>
      <trkpt lat="44.24552" lon="5.43958">
        <ele>816.40002441406</ele>
        <time>2021-09-04T11:47:10Z</time>
      </trkpt>
      <trkpt lat="44.24549" lon="5.43958">
        <ele>816.59997558594</ele>
        <time>2021-09-04T11:47:11Z</time>
      </trkpt>
      <trkpt lat="44.24532" lon="5.43956">
        <ele>817.59997558594</ele>
        <time>2021-09-04T11:47:18Z</time>
      </trkpt>
      <trkpt lat="44.24517" lon="5.43953">
        <ele>818.59997558594</ele>
        <time>2021-09-04T11:47:24Z</time>
      </trkpt>
      <trkpt lat="44.24507" lon="5.43951">
        <ele>819.40002441406</ele>
        <time>2021-09-04T11:47:28Z</time>
      </trkpt>
      <trkpt lat="44.24498" lon="5.4395">
        <ele>819.79998779297</ele>
        <time>2021-09-04T11:47:31Z</time>
      </trkpt>
      <trkpt lat="44.24482" lon="5.43946">
        <ele>820</ele>
        <time>2021-09-04T11:47:36Z</time>
      </trkpt>
      <trkpt lat="44.24457" lon="5.43935">
        <ele>820.79998779297</ele>
        <time>2021-09-04T11:47:44Z</time>
      </trkpt>
      <trkpt lat="44.24431" lon="5.43921">
        <ele>821.79998779297</ele>
        <time>2021-09-04T11:47:53Z</time>
      </trkpt>
      <trkpt lat="44.24429" lon="5.4392">
        <ele>822</ele>
        <time>2021-09-04T11:47:54Z</time>
      </trkpt>
      <trkpt lat="44.24416" lon="5.43913">
        <ele>823</ele>
        <time>2021-09-04T11:47:59Z</time>
      </trkpt>
      <trkpt lat="44.24413" lon="5.43911">
        <ele>823.20001220703</ele>
        <time>2021-09-04T11:48:00Z</time>
      </trkpt>
      <trkpt lat="44.24398" lon="5.43907">
        <ele>824</ele>
        <time>2021-09-04T11:48:05Z</time>
      </trkpt>
      <trkpt lat="44.24395" lon="5.43906">
        <ele>824.20001220703</ele>
        <time>2021-09-04T11:48:06Z</time>
      </trkpt>
      <trkpt lat="44.24374" lon="5.43901">
        <ele>824.40002441406</ele>
        <time>2021-09-04T11:48:12Z</time>
      </trkpt>
      <trkpt lat="44.2437" lon="5.439">
        <ele>824.40002441406</ele>
        <time>2021-09-04T11:48:13Z</time>
      </trkpt>
      <trkpt lat="44.24344" lon="5.43895">
        <ele>824.40002441406</ele>
        <time>2021-09-04T11:48:20Z</time>
      </trkpt>
      <trkpt lat="44.2432" lon="5.43891">
        <ele>825.20001220703</ele>
        <time>2021-09-04T11:48:27Z</time>
      </trkpt>
      <trkpt lat="44.2431" lon="5.43889">
        <ele>825.59997558594</ele>
        <time>2021-09-04T11:48:30Z</time>
      </trkpt>
      <trkpt lat="44.2428" lon="5.43885">
        <ele>826.40002441406</ele>
        <time>2021-09-04T11:48:39Z</time>
      </trkpt>
      <trkpt lat="44.24261" lon="5.43895">
        <ele>827</ele>
        <time>2021-09-04T11:48:45Z</time>
      </trkpt>
      <trkpt lat="44.24255" lon="5.439">
        <ele>827.40002441406</ele>
        <time>2021-09-04T11:48:47Z</time>
      </trkpt>
      <trkpt lat="44.24242" lon="5.43913">
        <ele>828</ele>
        <time>2021-09-04T11:48:52Z</time>
      </trkpt>
      <trkpt lat="44.24235" lon="5.43921">
        <ele>828.40002441406</ele>
        <time>2021-09-04T11:48:55Z</time>
      </trkpt>
      <trkpt lat="44.24221" lon="5.43933">
        <ele>829</ele>
        <time>2021-09-04T11:49:00Z</time>
      </trkpt>
      <trkpt lat="44.24215" lon="5.43937">
        <ele>829.59997558594</ele>
        <time>2021-09-04T11:49:02Z</time>
      </trkpt>
      <trkpt lat="44.24197" lon="5.4395">
        <ele>830</ele>
        <time>2021-09-04T11:49:08Z</time>
      </trkpt>
      <trkpt lat="44.24177" lon="5.43963">
        <ele>830.59997558594</ele>
        <time>2021-09-04T11:49:15Z</time>
      </trkpt>
      <trkpt lat="44.24153" lon="5.43966">
        <ele>831.40002441406</ele>
        <time>2021-09-04T11:49:22Z</time>
      </trkpt>
      <trkpt lat="44.24144" lon="5.43962">
        <ele>831.59997558594</ele>
        <time>2021-09-04T11:49:25Z</time>
      </trkpt>
      <trkpt lat="44.24135" lon="5.43956">
        <ele>831.79998779297</ele>
        <time>2021-09-04T11:49:28Z</time>
      </trkpt>
      <trkpt lat="44.24111" lon="5.43944">
        <ele>832.20001220703</ele>
        <time>2021-09-04T11:49:35Z</time>
      </trkpt>
      <trkpt lat="44.24088" lon="5.43945">
        <ele>832.59997558594</ele>
        <time>2021-09-04T11:49:42Z</time>
      </trkpt>
      <trkpt lat="44.24084" lon="5.43945">
        <ele>832.79998779297</ele>
        <time>2021-09-04T11:49:43Z</time>
      </trkpt>
      <trkpt lat="44.24064" lon="5.43942">
        <ele>833.79998779297</ele>
        <time>2021-09-04T11:49:50Z</time>
      </trkpt>
      <trkpt lat="44.24058" lon="5.4394">
        <ele>834</ele>
        <time>2021-09-04T11:49:52Z</time>
      </trkpt>
      <trkpt lat="44.24045" lon="5.43936">
        <ele>835</ele>
        <time>2021-09-04T11:49:57Z</time>
      </trkpt>
      <trkpt lat="44.24037" lon="5.43933">
        <ele>835.40002441406</ele>
        <time>2021-09-04T11:50:00Z</time>
      </trkpt>
      <trkpt lat="44.24024" lon="5.43929">
        <ele>836</ele>
        <time>2021-09-04T11:50:05Z</time>
      </trkpt>
      <trkpt lat="44.24012" lon="5.43928">
        <ele>836.79998779297</ele>
        <time>2021-09-04T11:50:10Z</time>
      </trkpt>
      <trkpt lat="44.24005" lon="5.43929">
        <ele>837.20001220703</ele>
        <time>2021-09-04T11:50:13Z</time>
      </trkpt>
      <trkpt lat="44.23992" lon="5.43931">
        <ele>837.79998779297</ele>
        <time>2021-09-04T11:50:18Z</time>
      </trkpt>
      <trkpt lat="44.23985" lon="5.43933">
        <ele>838.20001220703</ele>
        <time>2021-09-04T11:50:21Z</time>
      </trkpt>
      <trkpt lat="44.23975" lon="5.43935">
        <ele>838.59997558594</ele>
        <time>2021-09-04T11:50:25Z</time>
      </trkpt>
      <trkpt lat="44.23965" lon="5.43938">
        <ele>839.20001220703</ele>
        <time>2021-09-04T11:50:29Z</time>
      </trkpt>
      <trkpt lat="44.23957" lon="5.43935">
        <ele>839.59997558594</ele>
        <time>2021-09-04T11:50:32Z</time>
      </trkpt>
      <trkpt lat="44.23945" lon="5.4392">
        <ele>840.40002441406</ele>
        <time>2021-09-04T11:50:38Z</time>
      </trkpt>
      <trkpt lat="44.23938" lon="5.439">
        <ele>841.40002441406</ele>
        <time>2021-09-04T11:50:44Z</time>
      </trkpt>
      <trkpt lat="44.23937" lon="5.43896">
        <ele>841.59997558594</ele>
        <time>2021-09-04T11:50:45Z</time>
      </trkpt>
      <trkpt lat="44.23929" lon="5.43864">
        <ele>842.59997558594</ele>
        <time>2021-09-04T11:50:54Z</time>
      </trkpt>
      <trkpt lat="44.23927" lon="5.4384">
        <ele>843.79998779297</ele>
        <time>2021-09-04T11:51:01Z</time>
      </trkpt>
      <trkpt lat="44.23928" lon="5.43837">
        <ele>843.79998779297</ele>
        <time>2021-09-04T11:51:02Z</time>
      </trkpt>
      <trkpt lat="44.2393" lon="5.43815">
        <ele>844.79998779297</ele>
        <time>2021-09-04T11:51:09Z</time>
      </trkpt>
      <trkpt lat="44.23932" lon="5.43806">
        <ele>845.40002441406</ele>
        <time>2021-09-04T11:51:12Z</time>
      </trkpt>
      <trkpt lat="44.23932" lon="5.43802">
        <ele>845.40002441406</ele>
        <time>2021-09-04T11:51:13Z</time>
      </trkpt>
      <trkpt lat="44.23933" lon="5.43789">
        <ele>846</ele>
        <time>2021-09-04T11:51:17Z</time>
      </trkpt>
      <trkpt lat="44.23932" lon="5.43775">
        <ele>846.40002441406</ele>
        <time>2021-09-04T11:51:21Z</time>
      </trkpt>
      <trkpt lat="44.23925" lon="5.43762">
        <ele>847</ele>
        <time>2021-09-04T11:51:26Z</time>
      </trkpt>
      <trkpt lat="44.23922" lon="5.43762">
        <ele>847.20001220703</ele>
        <time>2021-09-04T11:51:27Z</time>
      </trkpt>
      <trkpt lat="44.23914" lon="5.43764">
        <ele>847.40002441406</ele>
        <time>2021-09-04T11:51:30Z</time>
      </trkpt>
      <trkpt lat="44.23909" lon="5.43766">
        <ele>847.59997558594</ele>
        <time>2021-09-04T11:51:32Z</time>
      </trkpt>
      <trkpt lat="44.23906" lon="5.43768">
        <ele>848</ele>
        <time>2021-09-04T11:51:33Z</time>
      </trkpt>
      <trkpt lat="44.23895" lon="5.43782">
        <ele>849</ele>
        <time>2021-09-04T11:51:38Z</time>
      </trkpt>
      <trkpt lat="44.23894" lon="5.43786">
        <ele>849.20001220703</ele>
        <time>2021-09-04T11:51:39Z</time>
      </trkpt>
      <trkpt lat="44.23891" lon="5.43804">
        <ele>849.79998779297</ele>
        <time>2021-09-04T11:51:44Z</time>
      </trkpt>
      <trkpt lat="44.23889" lon="5.43818">
        <ele>850.20001220703</ele>
        <time>2021-09-04T11:51:48Z</time>
      </trkpt>
      <trkpt lat="44.23887" lon="5.43824">
        <ele>850.59997558594</ele>
        <time>2021-09-04T11:51:50Z</time>
      </trkpt>
      <trkpt lat="44.2388" lon="5.43833">
        <ele>851.20001220703</ele>
        <time>2021-09-04T11:51:54Z</time>
      </trkpt>
      <trkpt lat="44.23878" lon="5.43834">
        <ele>851.40002441406</ele>
        <time>2021-09-04T11:51:55Z</time>
      </trkpt>
      <trkpt lat="44.23875" lon="5.43835">
        <ele>851.59997558594</ele>
        <time>2021-09-04T11:51:56Z</time>
      </trkpt>
      <trkpt lat="44.23863" lon="5.43838">
        <ele>852.59997558594</ele>
        <time>2021-09-04T11:52:01Z</time>
      </trkpt>
      <trkpt lat="44.23855" lon="5.43839">
        <ele>853</ele>
        <time>2021-09-04T11:52:04Z</time>
      </trkpt>
      <trkpt lat="44.23844" lon="5.43841">
        <ele>853.59997558594</ele>
        <time>2021-09-04T11:52:08Z</time>
      </trkpt>
      <trkpt lat="44.23836" lon="5.43841">
        <ele>854</ele>
        <time>2021-09-04T11:52:11Z</time>
      </trkpt>
      <trkpt lat="44.23821" lon="5.43842">
        <ele>854.59997558594</ele>
        <time>2021-09-04T11:52:17Z</time>
      </trkpt>
      <trkpt lat="44.23818" lon="5.43843">
        <ele>854.79998779297</ele>
        <time>2021-09-04T11:52:18Z</time>
      </trkpt>
      <trkpt lat="44.23808" lon="5.43841">
        <ele>855.59997558594</ele>
        <time>2021-09-04T11:52:22Z</time>
      </trkpt>
      <trkpt lat="44.238" lon="5.4384">
        <ele>856</ele>
        <time>2021-09-04T11:52:25Z</time>
      </trkpt>
      <trkpt lat="44.23791" lon="5.43836">
        <ele>856.59997558594</ele>
        <time>2021-09-04T11:52:29Z</time>
      </trkpt>
      <trkpt lat="44.23786" lon="5.43834">
        <ele>857</ele>
        <time>2021-09-04T11:52:31Z</time>
      </trkpt>
      <trkpt lat="44.23776" lon="5.43829">
        <ele>857.59997558594</ele>
        <time>2021-09-04T11:52:35Z</time>
      </trkpt>
      <trkpt lat="44.23771" lon="5.43825">
        <ele>857.79998779297</ele>
        <time>2021-09-04T11:52:37Z</time>
      </trkpt>
      <trkpt lat="44.23769" lon="5.43824">
        <ele>857.79998779297</ele>
        <time>2021-09-04T11:52:38Z</time>
      </trkpt>
      <trkpt lat="44.23754" lon="5.43811">
        <ele>859</ele>
        <time>2021-09-04T11:52:45Z</time>
      </trkpt>
      <trkpt lat="44.23752" lon="5.43809">
        <ele>859</ele>
        <time>2021-09-04T11:52:46Z</time>
      </trkpt>
      <trkpt lat="44.23738" lon="5.438">
        <ele>860</ele>
        <time>2021-09-04T11:52:52Z</time>
      </trkpt>
      <trkpt lat="44.23736" lon="5.438">
        <ele>860.20001220703</ele>
        <time>2021-09-04T11:52:53Z</time>
      </trkpt>
      <trkpt lat="44.23718" lon="5.43797">
        <ele>861</ele>
        <time>2021-09-04T11:53:00Z</time>
      </trkpt>
      <trkpt lat="44.23713" lon="5.43797">
        <ele>861.20001220703</ele>
        <time>2021-09-04T11:53:02Z</time>
      </trkpt>
      <trkpt lat="44.23696" lon="5.43789">
        <ele>861.79998779297</ele>
        <time>2021-09-04T11:53:08Z</time>
      </trkpt>
      <trkpt lat="44.23693" lon="5.43787">
        <ele>862.20001220703</ele>
        <time>2021-09-04T11:53:09Z</time>
      </trkpt>
      <trkpt lat="44.23684" lon="5.43771">
        <ele>862.59997558594</ele>
        <time>2021-09-04T11:53:14Z</time>
      </trkpt>
      <trkpt lat="44.23681" lon="5.43762">
        <ele>863.20001220703</ele>
        <time>2021-09-04T11:53:18Z</time>
      </trkpt>
      <trkpt lat="44.23678" lon="5.43759">
        <ele>862.79998779297</ele>
        <time>2021-09-04T11:58:15Z</time>
      </trkpt>
      <trkpt lat="44.23675" lon="5.43757">
        <ele>862.79998779297</ele>
        <time>2021-09-04T11:58:17Z</time>
      </trkpt>
      <trkpt lat="44.23662" lon="5.43742">
        <ele>862.40002441406</ele>
        <time>2021-09-04T11:58:24Z</time>
      </trkpt>
      <trkpt lat="44.23647" lon="5.43736">
        <ele>862.40002441406</ele>
        <time>2021-09-04T11:58:28Z</time>
      </trkpt>
      <trkpt lat="44.23629" lon="5.43743">
        <ele>862.40002441406</ele>
        <time>2021-09-04T11:58:32Z</time>
      </trkpt>
      <trkpt lat="44.23622" lon="5.43746">
        <ele>862</ele>
        <time>2021-09-04T11:58:34Z</time>
      </trkpt>
      <trkpt lat="44.23621" lon="5.43746">
        <ele>861.59997558594</ele>
        <time>2021-09-04T11:58:35Z</time>
      </trkpt>
      <trkpt lat="44.2362" lon="5.43748">
        <ele>859.20001220703</ele>
        <time>2021-09-04T11:59:10Z</time>
      </trkpt>
      <trkpt lat="44.23619" lon="5.43751">
        <ele>859.20001220703</ele>
        <time>2021-09-04T11:59:11Z</time>
      </trkpt>
      <trkpt lat="44.23614" lon="5.43762">
        <ele>859.20001220703</ele>
        <time>2021-09-04T11:59:14Z</time>
      </trkpt>
      <trkpt lat="44.23613" lon="5.43766">
        <ele>859.20001220703</ele>
        <time>2021-09-04T11:59:15Z</time>
      </trkpt>
      <trkpt lat="44.2361" lon="5.43777">
        <ele>858.79998779297</ele>
        <time>2021-09-04T11:59:17Z</time>
      </trkpt>
      <trkpt lat="44.23607" lon="5.43797">
        <ele>858.40002441406</ele>
        <time>2021-09-04T11:59:20Z</time>
      </trkpt>
      <trkpt lat="44.23605" lon="5.43803">
        <ele>858.20001220703</ele>
        <time>2021-09-04T11:59:21Z</time>
      </trkpt>
      <trkpt lat="44.23595" lon="5.43811">
        <ele>857.59997558594</ele>
        <time>2021-09-04T11:59:23Z</time>
      </trkpt>
      <trkpt lat="44.23585" lon="5.43801">
        <ele>857.20001220703</ele>
        <time>2021-09-04T11:59:25Z</time>
      </trkpt>
      <trkpt lat="44.23579" lon="5.43772">
        <ele>856</ele>
        <time>2021-09-04T11:59:28Z</time>
      </trkpt>
      <trkpt lat="44.23566" lon="5.43735">
        <ele>854.79998779297</ele>
        <time>2021-09-04T11:59:32Z</time>
      </trkpt>
      <trkpt lat="44.23548" lon="5.43716">
        <ele>853.40002441406</ele>
        <time>2021-09-04T11:59:35Z</time>
      </trkpt>
      <trkpt lat="44.23518" lon="5.43709">
        <ele>852.20001220703</ele>
        <time>2021-09-04T11:59:39Z</time>
      </trkpt>
      <trkpt lat="44.23495" lon="5.43719">
        <ele>851</ele>
        <time>2021-09-04T11:59:42Z</time>
      </trkpt>
      <trkpt lat="44.23472" lon="5.43717">
        <ele>849.79998779297</ele>
        <time>2021-09-04T11:59:45Z</time>
      </trkpt>
      <trkpt lat="44.23458" lon="5.43709">
        <ele>848.59997558594</ele>
        <time>2021-09-04T11:59:47Z</time>
      </trkpt>
      <trkpt lat="44.23443" lon="5.43701">
        <ele>847.79998779297</ele>
        <time>2021-09-04T11:59:49Z</time>
      </trkpt>
      <trkpt lat="44.23436" lon="5.43695">
        <ele>847.59997558594</ele>
        <time>2021-09-04T11:59:50Z</time>
      </trkpt>
      <trkpt lat="44.23417" lon="5.43671">
        <ele>846.40002441406</ele>
        <time>2021-09-04T11:59:53Z</time>
      </trkpt>
      <trkpt lat="44.23411" lon="5.43661">
        <ele>845.79998779297</ele>
        <time>2021-09-04T11:59:54Z</time>
      </trkpt>
      <trkpt lat="44.23399" lon="5.43645">
        <ele>845</ele>
        <time>2021-09-04T11:59:56Z</time>
      </trkpt>
      <trkpt lat="44.23391" lon="5.43644">
        <ele>844.59997558594</ele>
        <time>2021-09-04T11:59:57Z</time>
      </trkpt>
      <trkpt lat="44.23383" lon="5.43648">
        <ele>844</ele>
        <time>2021-09-04T11:59:58Z</time>
      </trkpt>
      <trkpt lat="44.23377" lon="5.43656">
        <ele>843.59997558594</ele>
        <time>2021-09-04T11:59:59Z</time>
      </trkpt>
      <trkpt lat="44.2337" lon="5.43675">
        <ele>842.79998779297</ele>
        <time>2021-09-04T12:00:01Z</time>
      </trkpt>
      <trkpt lat="44.23368" lon="5.43687">
        <ele>842.40002441406</ele>
        <time>2021-09-04T12:00:02Z</time>
      </trkpt>
      <trkpt lat="44.23367" lon="5.43711">
        <ele>841.40002441406</ele>
        <time>2021-09-04T12:00:04Z</time>
      </trkpt>
      <trkpt lat="44.23366" lon="5.43724">
        <ele>840.79998779297</ele>
        <time>2021-09-04T12:00:05Z</time>
      </trkpt>
      <trkpt lat="44.23364" lon="5.43736">
        <ele>840.40002441406</ele>
        <time>2021-09-04T12:00:06Z</time>
      </trkpt>
      <trkpt lat="44.23362" lon="5.43748">
        <ele>840</ele>
        <time>2021-09-04T12:00:07Z</time>
      </trkpt>
      <trkpt lat="44.23354" lon="5.43783">
        <ele>839</ele>
        <time>2021-09-04T12:00:10Z</time>
      </trkpt>
      <trkpt lat="44.23347" lon="5.43801">
        <ele>838.20001220703</ele>
        <time>2021-09-04T12:00:12Z</time>
      </trkpt>
      <trkpt lat="44.23341" lon="5.43804">
        <ele>837.79998779297</ele>
        <time>2021-09-04T12:00:13Z</time>
      </trkpt>
      <trkpt lat="44.23335" lon="5.43802">
        <ele>837.59997558594</ele>
        <time>2021-09-04T12:00:14Z</time>
      </trkpt>
      <trkpt lat="44.23329" lon="5.43788">
        <ele>837</ele>
        <time>2021-09-04T12:00:16Z</time>
      </trkpt>
      <trkpt lat="44.23329" lon="5.43762">
        <ele>837</ele>
        <time>2021-09-04T12:00:19Z</time>
      </trkpt>
      <trkpt lat="44.23328" lon="5.43754">
        <ele>837</ele>
        <time>2021-09-04T12:00:20Z</time>
      </trkpt>
      <trkpt lat="44.23327" lon="5.43746">
        <ele>837</ele>
        <time>2021-09-04T12:00:21Z</time>
      </trkpt>
      <trkpt lat="44.23321" lon="5.43733">
        <ele>837</ele>
        <time>2021-09-04T12:00:23Z</time>
      </trkpt>
      <trkpt lat="44.23304" lon="5.43727">
        <ele>836.59997558594</ele>
        <time>2021-09-04T12:00:26Z</time>
      </trkpt>
      <trkpt lat="44.23291" lon="5.4373">
        <ele>836.20001220703</ele>
        <time>2021-09-04T12:00:28Z</time>
      </trkpt>
      <trkpt lat="44.23272" lon="5.43734">
        <ele>835.59997558594</ele>
        <time>2021-09-04T12:00:31Z</time>
      </trkpt>
      <trkpt lat="44.23265" lon="5.43735">
        <ele>835.40002441406</ele>
        <time>2021-09-04T12:00:32Z</time>
      </trkpt>
      <trkpt lat="44.23245" lon="5.43736">
        <ele>834.59997558594</ele>
        <time>2021-09-04T12:00:35Z</time>
      </trkpt>
      <trkpt lat="44.23231" lon="5.43734">
        <ele>834</ele>
        <time>2021-09-04T12:00:37Z</time>
      </trkpt>
      <trkpt lat="44.23213" lon="5.43722">
        <ele>833.40002441406</ele>
        <time>2021-09-04T12:00:40Z</time>
      </trkpt>
      <trkpt lat="44.23208" lon="5.43716">
        <ele>833.20001220703</ele>
        <time>2021-09-04T12:00:41Z</time>
      </trkpt>
      <trkpt lat="44.23202" lon="5.4371">
        <ele>833.20001220703</ele>
        <time>2021-09-04T12:00:42Z</time>
      </trkpt>
      <trkpt lat="44.2319" lon="5.43686">
        <ele>832.79998779297</ele>
        <time>2021-09-04T12:00:45Z</time>
      </trkpt>
      <trkpt lat="44.23182" lon="5.4367">
        <ele>832.40002441406</ele>
        <time>2021-09-04T12:00:47Z</time>
      </trkpt>
      <trkpt lat="44.23169" lon="5.43644">
        <ele>831.59997558594</ele>
        <time>2021-09-04T12:00:50Z</time>
      </trkpt>
      <trkpt lat="44.23167" lon="5.43633">
        <ele>831.40002441406</ele>
        <time>2021-09-04T12:00:51Z</time>
      </trkpt>
      <trkpt lat="44.23165" lon="5.43598">
        <ele>830.20001220703</ele>
        <time>2021-09-04T12:00:54Z</time>
      </trkpt>
      <trkpt lat="44.23163" lon="5.43587">
        <ele>829.79998779297</ele>
        <time>2021-09-04T12:00:55Z</time>
      </trkpt>
      <trkpt lat="44.23161" lon="5.43575">
        <ele>829.40002441406</ele>
        <time>2021-09-04T12:00:56Z</time>
      </trkpt>
      <trkpt lat="44.2316" lon="5.43564">
        <ele>829.20001220703</ele>
        <time>2021-09-04T12:00:57Z</time>
      </trkpt>
      <trkpt lat="44.23156" lon="5.43518">
        <ele>828</ele>
        <time>2021-09-04T12:01:01Z</time>
      </trkpt>
      <trkpt lat="44.23154" lon="5.43507">
        <ele>827.59997558594</ele>
        <time>2021-09-04T12:01:02Z</time>
      </trkpt>
      <trkpt lat="44.23145" lon="5.43488">
        <ele>826.79998779297</ele>
        <time>2021-09-04T12:01:04Z</time>
      </trkpt>
      <trkpt lat="44.23125" lon="5.43467">
        <ele>825.59997558594</ele>
        <time>2021-09-04T12:01:07Z</time>
      </trkpt>
      <trkpt lat="44.23102" lon="5.43458">
        <ele>823.79998779297</ele>
        <time>2021-09-04T12:01:10Z</time>
      </trkpt>
      <trkpt lat="44.23084" lon="5.43458">
        <ele>822.79998779297</ele>
        <time>2021-09-04T12:01:12Z</time>
      </trkpt>
      <trkpt lat="44.23076" lon="5.43457">
        <ele>822.40002441406</ele>
        <time>2021-09-04T12:01:13Z</time>
      </trkpt>
      <trkpt lat="44.23057" lon="5.43456">
        <ele>821.59997558594</ele>
        <time>2021-09-04T12:01:15Z</time>
      </trkpt>
      <trkpt lat="44.23048" lon="5.43455">
        <ele>821</ele>
        <time>2021-09-04T12:01:16Z</time>
      </trkpt>
      <trkpt lat="44.23029" lon="5.43452">
        <ele>819.59997558594</ele>
        <time>2021-09-04T12:01:18Z</time>
      </trkpt>
      <trkpt lat="44.2301" lon="5.43446">
        <ele>818.40002441406</ele>
        <time>2021-09-04T12:01:20Z</time>
      </trkpt>
      <trkpt lat="44.22991" lon="5.43437">
        <ele>817</ele>
        <time>2021-09-04T12:01:22Z</time>
      </trkpt>
      <trkpt lat="44.22972" lon="5.43425">
        <ele>815.59997558594</ele>
        <time>2021-09-04T12:01:24Z</time>
      </trkpt>
      <trkpt lat="44.22951" lon="5.43416">
        <ele>814</ele>
        <time>2021-09-04T12:01:26Z</time>
      </trkpt>
      <trkpt lat="44.2293" lon="5.43412">
        <ele>812.40002441406</ele>
        <time>2021-09-04T12:01:28Z</time>
      </trkpt>
      <trkpt lat="44.22909" lon="5.43409">
        <ele>810.79998779297</ele>
        <time>2021-09-04T12:01:30Z</time>
      </trkpt>
      <trkpt lat="44.22887" lon="5.43405">
        <ele>809.40002441406</ele>
        <time>2021-09-04T12:01:32Z</time>
      </trkpt>
      <trkpt lat="44.22866" lon="5.43401">
        <ele>807.20001220703</ele>
        <time>2021-09-04T12:01:34Z</time>
      </trkpt>
      <trkpt lat="44.22844" lon="5.43396">
        <ele>805.59997558594</ele>
        <time>2021-09-04T12:01:36Z</time>
      </trkpt>
      <trkpt lat="44.22823" lon="5.43392">
        <ele>804</ele>
        <time>2021-09-04T12:01:38Z</time>
      </trkpt>
      <trkpt lat="44.22802" lon="5.43388">
        <ele>802.40002441406</ele>
        <time>2021-09-04T12:01:40Z</time>
      </trkpt>
      <trkpt lat="44.22781" lon="5.43384">
        <ele>801</ele>
        <time>2021-09-04T12:01:42Z</time>
      </trkpt>
      <trkpt lat="44.22762" lon="5.43376">
        <ele>799.40002441406</ele>
        <time>2021-09-04T12:01:44Z</time>
      </trkpt>
      <trkpt lat="44.22754" lon="5.43367">
        <ele>798.59997558594</ele>
        <time>2021-09-04T12:01:45Z</time>
      </trkpt>
      <trkpt lat="44.22749" lon="5.43355">
        <ele>797.79998779297</ele>
        <time>2021-09-04T12:01:46Z</time>
      </trkpt>
      <trkpt lat="44.22736" lon="5.43336">
        <ele>796.40002441406</ele>
        <time>2021-09-04T12:01:48Z</time>
      </trkpt>
      <trkpt lat="44.22721" lon="5.43323">
        <ele>795</ele>
        <time>2021-09-04T12:01:50Z</time>
      </trkpt>
      <trkpt lat="44.22705" lon="5.43311">
        <ele>794.20001220703</ele>
        <time>2021-09-04T12:01:52Z</time>
      </trkpt>
      <trkpt lat="44.22697" lon="5.43305">
        <ele>793.79998779297</ele>
        <time>2021-09-04T12:01:53Z</time>
      </trkpt>
      <trkpt lat="44.2266" lon="5.43279">
        <ele>792.59997558594</ele>
        <time>2021-09-04T12:01:58Z</time>
      </trkpt>
      <trkpt lat="44.22652" lon="5.43277">
        <ele>792.40002441406</ele>
        <time>2021-09-04T12:01:59Z</time>
      </trkpt>
      <trkpt lat="44.22619" lon="5.43273">
        <ele>791.59997558594</ele>
        <time>2021-09-04T12:02:03Z</time>
      </trkpt>
      <trkpt lat="44.22603" lon="5.4327">
        <ele>791.20001220703</ele>
        <time>2021-09-04T12:02:05Z</time>
      </trkpt>
      <trkpt lat="44.2258" lon="5.43267">
        <ele>790.59997558594</ele>
        <time>2021-09-04T12:02:08Z</time>
      </trkpt>
      <trkpt lat="44.22572" lon="5.43268">
        <ele>790.40002441406</ele>
        <time>2021-09-04T12:02:09Z</time>
      </trkpt>
      <trkpt lat="44.22564" lon="5.43268">
        <ele>790</ele>
        <time>2021-09-04T12:02:10Z</time>
      </trkpt>
      <trkpt lat="44.22556" lon="5.43268">
        <ele>789.59997558594</ele>
        <time>2021-09-04T12:02:11Z</time>
      </trkpt>
      <trkpt lat="44.22548" lon="5.43267">
        <ele>789.20001220703</ele>
        <time>2021-09-04T12:02:12Z</time>
      </trkpt>
      <trkpt lat="44.22532" lon="5.43259">
        <ele>788.59997558594</ele>
        <time>2021-09-04T12:02:14Z</time>
      </trkpt>
      <trkpt lat="44.22519" lon="5.43246">
        <ele>788.20001220703</ele>
        <time>2021-09-04T12:02:16Z</time>
      </trkpt>
      <trkpt lat="44.22513" lon="5.43239">
        <ele>787.79998779297</ele>
        <time>2021-09-04T12:02:17Z</time>
      </trkpt>
      <trkpt lat="44.22507" lon="5.43231">
        <ele>787.40002441406</ele>
        <time>2021-09-04T12:02:18Z</time>
      </trkpt>
      <trkpt lat="44.22502" lon="5.43224">
        <ele>787.20001220703</ele>
        <time>2021-09-04T12:02:19Z</time>
      </trkpt>
      <trkpt lat="44.22493" lon="5.43213">
        <ele>786.20001220703</ele>
        <time>2021-09-04T12:02:21Z</time>
      </trkpt>
      <trkpt lat="44.22491" lon="5.43207">
        <ele>785.40002441406</ele>
        <time>2021-09-04T12:02:22Z</time>
      </trkpt>
      <trkpt lat="44.22488" lon="5.43198">
        <ele>784.20001220703</ele>
        <time>2021-09-04T12:02:25Z</time>
      </trkpt>
      <trkpt lat="44.22486" lon="5.43196">
        <ele>782</ele>
        <time>2021-09-04T12:03:05Z</time>
      </trkpt>
      <trkpt lat="44.22484" lon="5.43194">
        <ele>782</ele>
        <time>2021-09-04T12:03:07Z</time>
      </trkpt>
      <trkpt lat="44.22477" lon="5.4318">
        <ele>782.20001220703</ele>
        <time>2021-09-04T12:03:12Z</time>
      </trkpt>
      <trkpt lat="44.22464" lon="5.43159">
        <ele>781.79998779297</ele>
        <time>2021-09-04T12:03:20Z</time>
      </trkpt>
      <trkpt lat="44.22449" lon="5.43135">
        <ele>781.59997558594</ele>
        <time>2021-09-04T12:03:26Z</time>
      </trkpt>
      <trkpt lat="44.22421" lon="5.43098">
        <ele>781.79998779297</ele>
        <time>2021-09-04T12:03:34Z</time>
      </trkpt>
      <trkpt lat="44.22395" lon="5.43076">
        <ele>781.59997558594</ele>
        <time>2021-09-04T12:03:40Z</time>
      </trkpt>
      <trkpt lat="44.22374" lon="5.43054">
        <ele>780.79998779297</ele>
        <time>2021-09-04T12:03:45Z</time>
      </trkpt>
      <trkpt lat="44.22367" lon="5.43046">
        <ele>780.59997558594</ele>
        <time>2021-09-04T12:03:47Z</time>
      </trkpt>
      <trkpt lat="44.22361" lon="5.43038">
        <ele>780</ele>
        <time>2021-09-04T12:03:50Z</time>
      </trkpt>
      <trkpt lat="44.22359" lon="5.43036">
        <ele>779.59997558594</ele>
        <time>2021-09-04T12:03:51Z</time>
      </trkpt>
      <trkpt lat="44.22355" lon="5.43031">
        <ele>778.59997558594</ele>
        <time>2021-09-04T12:03:55Z</time>
      </trkpt>
      <trkpt lat="44.22352" lon="5.43028">
        <ele>778</ele>
        <time>2021-09-04T12:03:57Z</time>
      </trkpt>
      <trkpt lat="44.2235" lon="5.43027">
        <ele>777.79998779297</ele>
        <time>2021-09-04T12:03:58Z</time>
      </trkpt>
      <trkpt lat="44.2234" lon="5.43025">
        <ele>777.79998779297</ele>
        <time>2021-09-04T12:04:01Z</time>
      </trkpt>
      <trkpt lat="44.22324" lon="5.43023">
        <ele>777.79998779297</ele>
        <time>2021-09-04T12:04:06Z</time>
      </trkpt>
      <trkpt lat="44.22313" lon="5.43018">
        <ele>777.40002441406</ele>
        <time>2021-09-04T12:04:11Z</time>
      </trkpt>
      <trkpt lat="44.22311" lon="5.43017">
        <ele>777.40002441406</ele>
        <time>2021-09-04T12:04:12Z</time>
      </trkpt>
      <trkpt lat="44.22295" lon="5.43005">
        <ele>777.20001220703</ele>
        <time>2021-09-04T12:04:19Z</time>
      </trkpt>
      <trkpt lat="44.22276" lon="5.42988">
        <ele>777.20001220703</ele>
        <time>2021-09-04T12:04:25Z</time>
      </trkpt>
      <trkpt lat="44.22241" lon="5.42962">
        <ele>776.79998779297</ele>
        <time>2021-09-04T12:04:34Z</time>
      </trkpt>
      <trkpt lat="44.22222" lon="5.42946">
        <ele>776.40002441406</ele>
        <time>2021-09-04T12:04:38Z</time>
      </trkpt>
      <trkpt lat="44.22208" lon="5.42934">
        <ele>776</ele>
        <time>2021-09-04T12:04:41Z</time>
      </trkpt>
      <trkpt lat="44.22184" lon="5.42916">
        <ele>775.40002441406</ele>
        <time>2021-09-04T12:04:46Z</time>
      </trkpt>
      <trkpt lat="44.2218" lon="5.42912">
        <ele>775</ele>
        <time>2021-09-04T12:04:47Z</time>
      </trkpt>
      <trkpt lat="44.22178" lon="5.4291">
        <ele>775</ele>
        <time>2021-09-04T12:04:48Z</time>
      </trkpt>
      <trkpt lat="44.22175" lon="5.42909">
        <ele>773</ele>
        <time>2021-09-04T12:04:58Z</time>
      </trkpt>
      <trkpt lat="44.22166" lon="5.42904">
        <ele>773</ele>
        <time>2021-09-04T12:05:02Z</time>
      </trkpt>
      <trkpt lat="44.22163" lon="5.42902">
        <ele>773</ele>
        <time>2021-09-04T12:05:03Z</time>
      </trkpt>
      <trkpt lat="44.22144" lon="5.42886">
        <ele>772.40002441406</ele>
        <time>2021-09-04T12:05:09Z</time>
      </trkpt>
      <trkpt lat="44.22127" lon="5.42872">
        <ele>772.20001220703</ele>
        <time>2021-09-04T12:05:13Z</time>
      </trkpt>
      <trkpt lat="44.22121" lon="5.42869">
        <ele>772.20001220703</ele>
        <time>2021-09-04T12:05:14Z</time>
      </trkpt>
      <trkpt lat="44.22102" lon="5.42864">
        <ele>772</ele>
        <time>2021-09-04T12:05:17Z</time>
      </trkpt>
      <trkpt lat="44.22096" lon="5.42863">
        <ele>771.79998779297</ele>
        <time>2021-09-04T12:05:18Z</time>
      </trkpt>
      <trkpt lat="44.22061" lon="5.42858">
        <ele>770.79998779297</ele>
        <time>2021-09-04T12:05:23Z</time>
      </trkpt>
      <trkpt lat="44.22032" lon="5.42854">
        <ele>770</ele>
        <time>2021-09-04T12:05:27Z</time>
      </trkpt>
      <trkpt lat="44.22024" lon="5.42853">
        <ele>769.79998779297</ele>
        <time>2021-09-04T12:05:28Z</time>
      </trkpt>
      <trkpt lat="44.21983" lon="5.42842">
        <ele>768.79998779297</ele>
        <time>2021-09-04T12:05:34Z</time>
      </trkpt>
      <trkpt lat="44.21976" lon="5.42838">
        <ele>768.40002441406</ele>
        <time>2021-09-04T12:05:35Z</time>
      </trkpt>
      <trkpt lat="44.21963" lon="5.42829">
        <ele>767.79998779297</ele>
        <time>2021-09-04T12:05:37Z</time>
      </trkpt>
      <trkpt lat="44.2195" lon="5.42816">
        <ele>767.20001220703</ele>
        <time>2021-09-04T12:05:39Z</time>
      </trkpt>
      <trkpt lat="44.21925" lon="5.4279">
        <ele>766</ele>
        <time>2021-09-04T12:05:43Z</time>
      </trkpt>
      <trkpt lat="44.21913" lon="5.42778">
        <ele>765.59997558594</ele>
        <time>2021-09-04T12:05:45Z</time>
      </trkpt>
      <trkpt lat="44.21908" lon="5.42771">
        <ele>765.40002441406</ele>
        <time>2021-09-04T12:05:46Z</time>
      </trkpt>
      <trkpt lat="44.21902" lon="5.42753">
        <ele>765</ele>
        <time>2021-09-04T12:05:48Z</time>
      </trkpt>
      <trkpt lat="44.21901" lon="5.42743">
        <ele>764.79998779297</ele>
        <time>2021-09-04T12:05:49Z</time>
      </trkpt>
      <trkpt lat="44.21899" lon="5.42733">
        <ele>764.59997558594</ele>
        <time>2021-09-04T12:05:50Z</time>
      </trkpt>
      <trkpt lat="44.21897" lon="5.42723">
        <ele>764.40002441406</ele>
        <time>2021-09-04T12:05:51Z</time>
      </trkpt>
      <trkpt lat="44.21894" lon="5.42715">
        <ele>764.20001220703</ele>
        <time>2021-09-04T12:05:52Z</time>
      </trkpt>
      <trkpt lat="44.21873" lon="5.42663">
        <ele>763.79998779297</ele>
        <time>2021-09-04T12:05:58Z</time>
      </trkpt>
      <trkpt lat="44.21869" lon="5.42654">
        <ele>763.59997558594</ele>
        <time>2021-09-04T12:05:59Z</time>
      </trkpt>
      <trkpt lat="44.21852" lon="5.4262">
        <ele>762.79998779297</ele>
        <time>2021-09-04T12:06:03Z</time>
      </trkpt>
      <trkpt lat="44.21834" lon="5.42587">
        <ele>762</ele>
        <time>2021-09-04T12:06:07Z</time>
      </trkpt>
      <trkpt lat="44.2183" lon="5.4258">
        <ele>761.79998779297</ele>
        <time>2021-09-04T12:06:08Z</time>
      </trkpt>
      <trkpt lat="44.21804" lon="5.42531">
        <ele>760.79998779297</ele>
        <time>2021-09-04T12:06:14Z</time>
      </trkpt>
      <trkpt lat="44.21799" lon="5.42524">
        <ele>760.59997558594</ele>
        <time>2021-09-04T12:06:15Z</time>
      </trkpt>
      <trkpt lat="44.21773" lon="5.42476">
        <ele>760</ele>
        <time>2021-09-04T12:06:21Z</time>
      </trkpt>
      <trkpt lat="44.21768" lon="5.42468">
        <ele>759.79998779297</ele>
        <time>2021-09-04T12:06:22Z</time>
      </trkpt>
      <trkpt lat="44.21762" lon="5.42462">
        <ele>759.40002441406</ele>
        <time>2021-09-04T12:06:23Z</time>
      </trkpt>
      <trkpt lat="44.21749" lon="5.42456">
        <ele>759</ele>
        <time>2021-09-04T12:06:25Z</time>
      </trkpt>
      <trkpt lat="44.21735" lon="5.42458">
        <ele>758.40002441406</ele>
        <time>2021-09-04T12:06:27Z</time>
      </trkpt>
      <trkpt lat="44.21729" lon="5.42461">
        <ele>758.20001220703</ele>
        <time>2021-09-04T12:06:28Z</time>
      </trkpt>
      <trkpt lat="44.2172" lon="5.42467">
        <ele>757.79998779297</ele>
        <time>2021-09-04T12:06:30Z</time>
      </trkpt>
      <trkpt lat="44.21711" lon="5.42472">
        <ele>757.79998779297</ele>
        <time>2021-09-04T12:06:32Z</time>
      </trkpt>
      <trkpt lat="44.21702" lon="5.42475">
        <ele>757.79998779297</ele>
        <time>2021-09-04T12:06:34Z</time>
      </trkpt>
      <trkpt lat="44.21683" lon="5.4248">
        <ele>758</ele>
        <time>2021-09-04T12:06:38Z</time>
      </trkpt>
      <trkpt lat="44.21663" lon="5.42472">
        <ele>758</ele>
        <time>2021-09-04T12:06:42Z</time>
      </trkpt>
      <trkpt lat="44.21657" lon="5.4247">
        <ele>758</ele>
        <time>2021-09-04T12:06:43Z</time>
      </trkpt>
      <trkpt lat="44.21634" lon="5.42465">
        <ele>757.79998779297</ele>
        <time>2021-09-04T12:06:47Z</time>
      </trkpt>
      <trkpt lat="44.21616" lon="5.42456">
        <ele>757.40002441406</ele>
        <time>2021-09-04T12:06:50Z</time>
      </trkpt>
      <trkpt lat="44.216" lon="5.42444">
        <ele>757</ele>
        <time>2021-09-04T12:06:53Z</time>
      </trkpt>
      <trkpt lat="44.21596" lon="5.42437">
        <ele>756.79998779297</ele>
        <time>2021-09-04T12:06:54Z</time>
      </trkpt>
      <trkpt lat="44.21581" lon="5.42416">
        <ele>756.40002441406</ele>
        <time>2021-09-04T12:06:57Z</time>
      </trkpt>
      <trkpt lat="44.21565" lon="5.42383">
        <ele>755.40002441406</ele>
        <time>2021-09-04T12:07:01Z</time>
      </trkpt>
      <trkpt lat="44.21561" lon="5.42374">
        <ele>755.20001220703</ele>
        <time>2021-09-04T12:07:02Z</time>
      </trkpt>
      <trkpt lat="44.21554" lon="5.42356">
        <ele>754.79998779297</ele>
        <time>2021-09-04T12:07:04Z</time>
      </trkpt>
      <trkpt lat="44.21543" lon="5.42343">
        <ele>754.40002441406</ele>
        <time>2021-09-04T12:07:06Z</time>
      </trkpt>
      <trkpt lat="44.21537" lon="5.42338">
        <ele>754</ele>
        <time>2021-09-04T12:07:07Z</time>
      </trkpt>
      <trkpt lat="44.21524" lon="5.42332">
        <ele>753.20001220703</ele>
        <time>2021-09-04T12:07:09Z</time>
      </trkpt>
      <trkpt lat="44.21516" lon="5.42333">
        <ele>753</ele>
        <time>2021-09-04T12:07:10Z</time>
      </trkpt>
      <trkpt lat="44.21502" lon="5.42335">
        <ele>752.20001220703</ele>
        <time>2021-09-04T12:07:12Z</time>
      </trkpt>
      <trkpt lat="44.21487" lon="5.42335">
        <ele>752</ele>
        <time>2021-09-04T12:07:14Z</time>
      </trkpt>
      <trkpt lat="44.2148" lon="5.42335">
        <ele>751.79998779297</ele>
        <time>2021-09-04T12:07:15Z</time>
      </trkpt>
      <trkpt lat="44.21466" lon="5.42336">
        <ele>751.40002441406</ele>
        <time>2021-09-04T12:07:17Z</time>
      </trkpt>
      <trkpt lat="44.21459" lon="5.42335">
        <ele>751.20001220703</ele>
        <time>2021-09-04T12:07:18Z</time>
      </trkpt>
      <trkpt lat="44.21445" lon="5.42329">
        <ele>750.79998779297</ele>
        <time>2021-09-04T12:07:20Z</time>
      </trkpt>
      <trkpt lat="44.21438" lon="5.42326">
        <ele>750.59997558594</ele>
        <time>2021-09-04T12:07:21Z</time>
      </trkpt>
      <trkpt lat="44.21416" lon="5.42311">
        <ele>749.59997558594</ele>
        <time>2021-09-04T12:07:24Z</time>
      </trkpt>
      <trkpt lat="44.214" lon="5.423">
        <ele>748.59997558594</ele>
        <time>2021-09-04T12:07:26Z</time>
      </trkpt>
      <trkpt lat="44.21391" lon="5.42295">
        <ele>748</ele>
        <time>2021-09-04T12:07:27Z</time>
      </trkpt>
      <trkpt lat="44.21375" lon="5.42283">
        <ele>746.79998779297</ele>
        <time>2021-09-04T12:07:29Z</time>
      </trkpt>
      <trkpt lat="44.21366" lon="5.42279">
        <ele>746.40002441406</ele>
        <time>2021-09-04T12:07:30Z</time>
      </trkpt>
      <trkpt lat="44.21357" lon="5.42276">
        <ele>745.79998779297</ele>
        <time>2021-09-04T12:07:31Z</time>
      </trkpt>
      <trkpt lat="44.21339" lon="5.42273">
        <ele>744.79998779297</ele>
        <time>2021-09-04T12:07:33Z</time>
      </trkpt>
      <trkpt lat="44.21321" lon="5.42269">
        <ele>743.79998779297</ele>
        <time>2021-09-04T12:07:35Z</time>
      </trkpt>
      <trkpt lat="44.21311" lon="5.42268">
        <ele>743.20001220703</ele>
        <time>2021-09-04T12:07:36Z</time>
      </trkpt>
      <trkpt lat="44.21302" lon="5.42266">
        <ele>742.59997558594</ele>
        <time>2021-09-04T12:07:37Z</time>
      </trkpt>
      <trkpt lat="44.21284" lon="5.42261">
        <ele>741</ele>
        <time>2021-09-04T12:07:39Z</time>
      </trkpt>
      <trkpt lat="44.21264" lon="5.42259">
        <ele>739.40002441406</ele>
        <time>2021-09-04T12:07:41Z</time>
      </trkpt>
      <trkpt lat="44.21245" lon="5.42254">
        <ele>737.79998779297</ele>
        <time>2021-09-04T12:07:43Z</time>
      </trkpt>
      <trkpt lat="44.21225" lon="5.42249">
        <ele>736.40002441406</ele>
        <time>2021-09-04T12:07:45Z</time>
      </trkpt>
      <trkpt lat="44.21205" lon="5.42244">
        <ele>735</ele>
        <time>2021-09-04T12:07:47Z</time>
      </trkpt>
      <trkpt lat="44.21184" lon="5.42238">
        <ele>733.40002441406</ele>
        <time>2021-09-04T12:07:49Z</time>
      </trkpt>
      <trkpt lat="44.21163" lon="5.42234">
        <ele>732</ele>
        <time>2021-09-04T12:07:51Z</time>
      </trkpt>
      <trkpt lat="44.21142" lon="5.42234">
        <ele>730.40002441406</ele>
        <time>2021-09-04T12:07:53Z</time>
      </trkpt>
      <trkpt lat="44.21121" lon="5.42228">
        <ele>729</ele>
        <time>2021-09-04T12:07:55Z</time>
      </trkpt>
      <trkpt lat="44.21102" lon="5.42216">
        <ele>728</ele>
        <time>2021-09-04T12:07:57Z</time>
      </trkpt>
      <trkpt lat="44.21084" lon="5.42199">
        <ele>726.20001220703</ele>
        <time>2021-09-04T12:07:59Z</time>
      </trkpt>
      <trkpt lat="44.21065" lon="5.42185">
        <ele>724.59997558594</ele>
        <time>2021-09-04T12:08:01Z</time>
      </trkpt>
      <trkpt lat="44.21045" lon="5.42172">
        <ele>723</ele>
        <time>2021-09-04T12:08:03Z</time>
      </trkpt>
      <trkpt lat="44.21025" lon="5.42161">
        <ele>721.40002441406</ele>
        <time>2021-09-04T12:08:05Z</time>
      </trkpt>
      <trkpt lat="44.21016" lon="5.42155">
        <ele>720.79998779297</ele>
        <time>2021-09-04T12:08:06Z</time>
      </trkpt>
      <trkpt lat="44.21006" lon="5.4215">
        <ele>720</ele>
        <time>2021-09-04T12:08:07Z</time>
      </trkpt>
      <trkpt lat="44.20985" lon="5.42143">
        <ele>718.59997558594</ele>
        <time>2021-09-04T12:08:09Z</time>
      </trkpt>
      <trkpt lat="44.20975" lon="5.42139">
        <ele>717.79998779297</ele>
        <time>2021-09-04T12:08:10Z</time>
      </trkpt>
      <trkpt lat="44.20965" lon="5.42136">
        <ele>717.20001220703</ele>
        <time>2021-09-04T12:08:11Z</time>
      </trkpt>
      <trkpt lat="44.20944" lon="5.42129">
        <ele>715.59997558594</ele>
        <time>2021-09-04T12:08:13Z</time>
      </trkpt>
      <trkpt lat="44.20924" lon="5.42122">
        <ele>714</ele>
        <time>2021-09-04T12:08:15Z</time>
      </trkpt>
      <trkpt lat="44.20906" lon="5.42113">
        <ele>712.40002441406</ele>
        <time>2021-09-04T12:08:17Z</time>
      </trkpt>
      <trkpt lat="44.20889" lon="5.42105">
        <ele>711.20001220703</ele>
        <time>2021-09-04T12:08:19Z</time>
      </trkpt>
      <trkpt lat="44.20866" lon="5.42092">
        <ele>709.79998779297</ele>
        <time>2021-09-04T12:08:22Z</time>
      </trkpt>
      <trkpt lat="44.20859" lon="5.42087">
        <ele>708.79998779297</ele>
        <time>2021-09-04T12:08:23Z</time>
      </trkpt>
      <trkpt lat="44.20853" lon="5.42081">
        <ele>708.40002441406</ele>
        <time>2021-09-04T12:08:24Z</time>
      </trkpt>
      <trkpt lat="44.20847" lon="5.42074">
        <ele>708</ele>
        <time>2021-09-04T12:08:25Z</time>
      </trkpt>
      <trkpt lat="44.20837" lon="5.42058">
        <ele>707.59997558594</ele>
        <time>2021-09-04T12:08:27Z</time>
      </trkpt>
      <trkpt lat="44.20828" lon="5.42041">
        <ele>707.20001220703</ele>
        <time>2021-09-04T12:08:29Z</time>
      </trkpt>
      <trkpt lat="44.20825" lon="5.42032">
        <ele>706.79998779297</ele>
        <time>2021-09-04T12:08:30Z</time>
      </trkpt>
      <trkpt lat="44.20824" lon="5.42022">
        <ele>706.40002441406</ele>
        <time>2021-09-04T12:08:31Z</time>
      </trkpt>
      <trkpt lat="44.2082" lon="5.42003">
        <ele>706</ele>
        <time>2021-09-04T12:08:33Z</time>
      </trkpt>
      <trkpt lat="44.20812" lon="5.41987">
        <ele>705.59997558594</ele>
        <time>2021-09-04T12:08:35Z</time>
      </trkpt>
      <trkpt lat="44.20801" lon="5.41976">
        <ele>704.59997558594</ele>
        <time>2021-09-04T12:08:37Z</time>
      </trkpt>
      <trkpt lat="44.20788" lon="5.4197">
        <ele>703.59997558594</ele>
        <time>2021-09-04T12:08:39Z</time>
      </trkpt>
      <trkpt lat="44.20774" lon="5.41967">
        <ele>703</ele>
        <time>2021-09-04T12:08:41Z</time>
      </trkpt>
      <trkpt lat="44.20752" lon="5.41964">
        <ele>702.59997558594</ele>
        <time>2021-09-04T12:08:44Z</time>
      </trkpt>
      <trkpt lat="44.20744" lon="5.41965">
        <ele>702.40002441406</ele>
        <time>2021-09-04T12:08:45Z</time>
      </trkpt>
      <trkpt lat="44.2072" lon="5.41971">
        <ele>701.59997558594</ele>
        <time>2021-09-04T12:08:48Z</time>
      </trkpt>
      <trkpt lat="44.20703" lon="5.41974">
        <ele>700.59997558594</ele>
        <time>2021-09-04T12:08:50Z</time>
      </trkpt>
      <trkpt lat="44.20694" lon="5.41974">
        <ele>700</ele>
        <time>2021-09-04T12:08:51Z</time>
      </trkpt>
      <trkpt lat="44.20676" lon="5.41972">
        <ele>699</ele>
        <time>2021-09-04T12:08:53Z</time>
      </trkpt>
      <trkpt lat="44.20667" lon="5.41971">
        <ele>698.59997558594</ele>
        <time>2021-09-04T12:08:54Z</time>
      </trkpt>
      <trkpt lat="44.20639" lon="5.4197">
        <ele>697</ele>
        <time>2021-09-04T12:08:57Z</time>
      </trkpt>
      <trkpt lat="44.20621" lon="5.41964">
        <ele>696.20001220703</ele>
        <time>2021-09-04T12:08:59Z</time>
      </trkpt>
      <trkpt lat="44.20612" lon="5.41959">
        <ele>695.59997558594</ele>
        <time>2021-09-04T12:09:00Z</time>
      </trkpt>
      <trkpt lat="44.20595" lon="5.41946">
        <ele>694.40002441406</ele>
        <time>2021-09-04T12:09:02Z</time>
      </trkpt>
      <trkpt lat="44.20586" lon="5.4194">
        <ele>693.79998779297</ele>
        <time>2021-09-04T12:09:03Z</time>
      </trkpt>
      <trkpt lat="44.20577" lon="5.41934">
        <ele>693</ele>
        <time>2021-09-04T12:09:04Z</time>
      </trkpt>
      <trkpt lat="44.20559" lon="5.41921">
        <ele>691.59997558594</ele>
        <time>2021-09-04T12:09:06Z</time>
      </trkpt>
      <trkpt lat="44.20549" lon="5.41916">
        <ele>691</ele>
        <time>2021-09-04T12:09:07Z</time>
      </trkpt>
      <trkpt lat="44.20539" lon="5.41912">
        <ele>690.20001220703</ele>
        <time>2021-09-04T12:09:08Z</time>
      </trkpt>
      <trkpt lat="44.20519" lon="5.41904">
        <ele>689</ele>
        <time>2021-09-04T12:09:10Z</time>
      </trkpt>
      <trkpt lat="44.20509" lon="5.41901">
        <ele>687.79998779297</ele>
        <time>2021-09-04T12:09:11Z</time>
      </trkpt>
      <trkpt lat="44.20499" lon="5.41899">
        <ele>687</ele>
        <time>2021-09-04T12:09:12Z</time>
      </trkpt>
      <trkpt lat="44.20489" lon="5.41901">
        <ele>686.20001220703</ele>
        <time>2021-09-04T12:09:13Z</time>
      </trkpt>
      <trkpt lat="44.20471" lon="5.41915">
        <ele>684.79998779297</ele>
        <time>2021-09-04T12:09:15Z</time>
      </trkpt>
      <trkpt lat="44.20454" lon="5.41947">
        <ele>683.40002441406</ele>
        <time>2021-09-04T12:09:18Z</time>
      </trkpt>
      <trkpt lat="44.20443" lon="5.41965">
        <ele>682.40002441406</ele>
        <time>2021-09-04T12:09:20Z</time>
      </trkpt>
      <trkpt lat="44.20436" lon="5.4197">
        <ele>682</ele>
        <time>2021-09-04T12:09:21Z</time>
      </trkpt>
      <trkpt lat="44.2042" lon="5.41971">
        <ele>681</ele>
        <time>2021-09-04T12:09:23Z</time>
      </trkpt>
      <trkpt lat="44.20398" lon="5.41961">
        <ele>679.59997558594</ele>
        <time>2021-09-04T12:09:26Z</time>
      </trkpt>
      <trkpt lat="44.20392" lon="5.41955">
        <ele>679</ele>
        <time>2021-09-04T12:09:27Z</time>
      </trkpt>
      <trkpt lat="44.2038" lon="5.41941">
        <ele>678.20001220703</ele>
        <time>2021-09-04T12:09:29Z</time>
      </trkpt>
      <trkpt lat="44.20374" lon="5.41934">
        <ele>678</ele>
        <time>2021-09-04T12:09:30Z</time>
      </trkpt>
      <trkpt lat="44.20362" lon="5.41922">
        <ele>677.79998779297</ele>
        <time>2021-09-04T12:09:32Z</time>
      </trkpt>
      <trkpt lat="44.20328" lon="5.41886">
        <ele>677.20001220703</ele>
        <time>2021-09-04T12:09:38Z</time>
      </trkpt>
      <trkpt lat="44.20291" lon="5.41853">
        <ele>676.40002441406</ele>
        <time>2021-09-04T12:09:44Z</time>
      </trkpt>
      <trkpt lat="44.20284" lon="5.41849">
        <ele>676.40002441406</ele>
        <time>2021-09-04T12:09:45Z</time>
      </trkpt>
      <trkpt lat="44.20277" lon="5.41845">
        <ele>676.20001220703</ele>
        <time>2021-09-04T12:09:46Z</time>
      </trkpt>
      <trkpt lat="44.20254" lon="5.41837">
        <ele>675.20001220703</ele>
        <time>2021-09-04T12:09:49Z</time>
      </trkpt>
      <trkpt lat="44.20247" lon="5.41836">
        <ele>675</ele>
        <time>2021-09-04T12:09:50Z</time>
      </trkpt>
      <trkpt lat="44.20203" lon="5.41835">
        <ele>674.20001220703</ele>
        <time>2021-09-04T12:09:56Z</time>
      </trkpt>
      <trkpt lat="44.20189" lon="5.41838">
        <ele>674</ele>
        <time>2021-09-04T12:09:58Z</time>
      </trkpt>
      <trkpt lat="44.20166" lon="5.4184">
        <ele>673</ele>
        <time>2021-09-04T12:10:01Z</time>
      </trkpt>
      <trkpt lat="44.20159" lon="5.41841">
        <ele>672.59997558594</ele>
        <time>2021-09-04T12:10:02Z</time>
      </trkpt>
      <trkpt lat="44.20137" lon="5.41843">
        <ele>671.79998779297</ele>
        <time>2021-09-04T12:10:05Z</time>
      </trkpt>
      <trkpt lat="44.2013" lon="5.41842">
        <ele>671.59997558594</ele>
        <time>2021-09-04T12:10:06Z</time>
      </trkpt>
      <trkpt lat="44.20123" lon="5.41842">
        <ele>671.40002441406</ele>
        <time>2021-09-04T12:10:07Z</time>
      </trkpt>
      <trkpt lat="44.20095" lon="5.41836">
        <ele>671.40002441406</ele>
        <time>2021-09-04T12:10:11Z</time>
      </trkpt>
      <trkpt lat="44.20082" lon="5.41829">
        <ele>671.20001220703</ele>
        <time>2021-09-04T12:10:13Z</time>
      </trkpt>
      <trkpt lat="44.20063" lon="5.4182">
        <ele>671.20001220703</ele>
        <time>2021-09-04T12:10:16Z</time>
      </trkpt>
      <trkpt lat="44.20051" lon="5.41814">
        <ele>671.20001220703</ele>
        <time>2021-09-04T12:10:18Z</time>
      </trkpt>
      <trkpt lat="44.20008" lon="5.41794">
        <ele>670.59997558594</ele>
        <time>2021-09-04T12:10:25Z</time>
      </trkpt>
      <trkpt lat="44.19997" lon="5.41788">
        <ele>670.40002441406</ele>
        <time>2021-09-04T12:10:27Z</time>
      </trkpt>
      <trkpt lat="44.19956" lon="5.41764">
        <ele>669.79998779297</ele>
        <time>2021-09-04T12:10:34Z</time>
      </trkpt>
      <trkpt lat="44.1995" lon="5.41758">
        <ele>669.59997558594</ele>
        <time>2021-09-04T12:10:35Z</time>
      </trkpt>
      <trkpt lat="44.19913" lon="5.41716">
        <ele>668.59997558594</ele>
        <time>2021-09-04T12:10:42Z</time>
      </trkpt>
      <trkpt lat="44.19881" lon="5.41696">
        <ele>667.59997558594</ele>
        <time>2021-09-04T12:10:47Z</time>
      </trkpt>
      <trkpt lat="44.19875" lon="5.41692">
        <ele>667.40002441406</ele>
        <time>2021-09-04T12:10:48Z</time>
      </trkpt>
      <trkpt lat="44.19853" lon="5.41677">
        <ele>666.59997558594</ele>
        <time>2021-09-04T12:10:52Z</time>
      </trkpt>
      <trkpt lat="44.19842" lon="5.4167">
        <ele>666.20001220703</ele>
        <time>2021-09-04T12:10:54Z</time>
      </trkpt>
      <trkpt lat="44.19825" lon="5.41658">
        <ele>665.40002441406</ele>
        <time>2021-09-04T12:10:57Z</time>
      </trkpt>
      <trkpt lat="44.19815" lon="5.41646">
        <ele>665</ele>
        <time>2021-09-04T12:10:59Z</time>
      </trkpt>
      <trkpt lat="44.19792" lon="5.41621">
        <ele>664</ele>
        <time>2021-09-04T12:11:03Z</time>
      </trkpt>
      <trkpt lat="44.19785" lon="5.41617">
        <ele>663.79998779297</ele>
        <time>2021-09-04T12:11:04Z</time>
      </trkpt>
      <trkpt lat="44.1976" lon="5.41595">
        <ele>662.79998779297</ele>
        <time>2021-09-04T12:11:08Z</time>
      </trkpt>
      <trkpt lat="44.19746" lon="5.41558">
        <ele>661.79998779297</ele>
        <time>2021-09-04T12:11:12Z</time>
      </trkpt>
      <trkpt lat="44.19739" lon="5.41538">
        <ele>661.40002441406</ele>
        <time>2021-09-04T12:11:14Z</time>
      </trkpt>
      <trkpt lat="44.19727" lon="5.41523">
        <ele>661</ele>
        <time>2021-09-04T12:11:16Z</time>
      </trkpt>
      <trkpt lat="44.19719" lon="5.41518">
        <ele>660.59997558594</ele>
        <time>2021-09-04T12:11:17Z</time>
      </trkpt>
      <trkpt lat="44.19702" lon="5.41513">
        <ele>660.20001220703</ele>
        <time>2021-09-04T12:11:19Z</time>
      </trkpt>
      <trkpt lat="44.19686" lon="5.41514">
        <ele>659.40002441406</ele>
        <time>2021-09-04T12:11:21Z</time>
      </trkpt>
      <trkpt lat="44.19678" lon="5.41516">
        <ele>659.20001220703</ele>
        <time>2021-09-04T12:11:22Z</time>
      </trkpt>
      <trkpt lat="44.19659" lon="5.41528">
        <ele>658.79998779297</ele>
        <time>2021-09-04T12:11:25Z</time>
      </trkpt>
      <trkpt lat="44.19647" lon="5.41534">
        <ele>658.79998779297</ele>
        <time>2021-09-04T12:11:27Z</time>
      </trkpt>
      <trkpt lat="44.19636" lon="5.41539">
        <ele>659</ele>
        <time>2021-09-04T12:11:29Z</time>
      </trkpt>
      <trkpt lat="44.19631" lon="5.41542">
        <ele>659</ele>
        <time>2021-09-04T12:11:30Z</time>
      </trkpt>
      <trkpt lat="44.19616" lon="5.41555">
        <ele>659.59997558594</ele>
        <time>2021-09-04T12:11:34Z</time>
      </trkpt>
      <trkpt lat="44.19609" lon="5.41562">
        <ele>660.40002441406</ele>
        <time>2021-09-04T12:11:36Z</time>
      </trkpt>
      <trkpt lat="44.19606" lon="5.41567">
        <ele>660.59997558594</ele>
        <time>2021-09-04T12:11:37Z</time>
      </trkpt>
      <trkpt lat="44.19601" lon="5.41576">
        <ele>660.79998779297</ele>
        <time>2021-09-04T12:11:39Z</time>
      </trkpt>
      <trkpt lat="44.19583" lon="5.41613">
        <ele>661.40002441406</ele>
        <time>2021-09-04T12:11:47Z</time>
      </trkpt>
      <trkpt lat="44.19573" lon="5.41631">
        <ele>661.59997558594</ele>
        <time>2021-09-04T12:11:51Z</time>
      </trkpt>
      <trkpt lat="44.19565" lon="5.41645">
        <ele>662</ele>
        <time>2021-09-04T12:11:54Z</time>
      </trkpt>
      <trkpt lat="44.19546" lon="5.41679">
        <ele>662.40002441406</ele>
        <time>2021-09-04T12:12:00Z</time>
      </trkpt>
      <trkpt lat="44.19524" lon="5.41727">
        <ele>661</ele>
        <time>2021-09-04T12:12:07Z</time>
      </trkpt>
      <trkpt lat="44.19516" lon="5.41747">
        <ele>660.59997558594</ele>
        <time>2021-09-04T12:12:10Z</time>
      </trkpt>
      <trkpt lat="44.19512" lon="5.41754">
        <ele>660.40002441406</ele>
        <time>2021-09-04T12:12:11Z</time>
      </trkpt>
      <trkpt lat="44.19502" lon="5.41772">
        <ele>660</ele>
        <time>2021-09-04T12:12:14Z</time>
      </trkpt>
      <trkpt lat="44.19472" lon="5.41824">
        <ele>659.59997558594</ele>
        <time>2021-09-04T12:12:22Z</time>
      </trkpt>
      <trkpt lat="44.19465" lon="5.41835">
        <ele>659.40002441406</ele>
        <time>2021-09-04T12:12:24Z</time>
      </trkpt>
      <trkpt lat="44.19449" lon="5.4186">
        <ele>659.20001220703</ele>
        <time>2021-09-04T12:12:28Z</time>
      </trkpt>
      <trkpt lat="44.19422" lon="5.41905">
        <ele>658.20001220703</ele>
        <time>2021-09-04T12:12:34Z</time>
      </trkpt>
      <trkpt lat="44.19408" lon="5.41933">
        <ele>657.40002441406</ele>
        <time>2021-09-04T12:12:37Z</time>
      </trkpt>
      <trkpt lat="44.19402" lon="5.41942">
        <ele>657</ele>
        <time>2021-09-04T12:12:38Z</time>
      </trkpt>
      <trkpt lat="44.19392" lon="5.41962">
        <ele>656.40002441406</ele>
        <time>2021-09-04T12:12:40Z</time>
      </trkpt>
      <trkpt lat="44.19387" lon="5.41972">
        <ele>656</ele>
        <time>2021-09-04T12:12:41Z</time>
      </trkpt>
      <trkpt lat="44.19373" lon="5.42004">
        <ele>654.79998779297</ele>
        <time>2021-09-04T12:12:44Z</time>
      </trkpt>
      <trkpt lat="44.19367" lon="5.42028">
        <ele>654</ele>
        <time>2021-09-04T12:12:46Z</time>
      </trkpt>
      <trkpt lat="44.19364" lon="5.42041">
        <ele>653.40002441406</ele>
        <time>2021-09-04T12:12:47Z</time>
      </trkpt>
      <trkpt lat="44.19359" lon="5.42066">
        <ele>651.79998779297</ele>
        <time>2021-09-04T12:12:49Z</time>
      </trkpt>
      <trkpt lat="44.19352" lon="5.42092">
        <ele>650.40002441406</ele>
        <time>2021-09-04T12:12:51Z</time>
      </trkpt>
      <trkpt lat="44.19344" lon="5.42117">
        <ele>649.20001220703</ele>
        <time>2021-09-04T12:12:53Z</time>
      </trkpt>
      <trkpt lat="44.19331" lon="5.42155">
        <ele>648.20001220703</ele>
        <time>2021-09-04T12:12:56Z</time>
      </trkpt>
      <trkpt lat="44.19322" lon="5.42179">
        <ele>647.40002441406</ele>
        <time>2021-09-04T12:12:58Z</time>
      </trkpt>
      <trkpt lat="44.19317" lon="5.42191">
        <ele>646.79998779297</ele>
        <time>2021-09-04T12:12:59Z</time>
      </trkpt>
      <trkpt lat="44.19302" lon="5.42225">
        <ele>645.59997558594</ele>
        <time>2021-09-04T12:13:02Z</time>
      </trkpt>
      <trkpt lat="44.1929" lon="5.42244">
        <ele>644.79998779297</ele>
        <time>2021-09-04T12:13:04Z</time>
      </trkpt>
      <trkpt lat="44.19273" lon="5.42269">
        <ele>644.40002441406</ele>
        <time>2021-09-04T12:13:07Z</time>
      </trkpt>
      <trkpt lat="44.19256" lon="5.42292">
        <ele>644</ele>
        <time>2021-09-04T12:13:10Z</time>
      </trkpt>
      <trkpt lat="44.19245" lon="5.42305">
        <ele>643.79998779297</ele>
        <time>2021-09-04T12:13:12Z</time>
      </trkpt>
      <trkpt lat="44.19231" lon="5.42314">
        <ele>643.79998779297</ele>
        <time>2021-09-04T12:13:14Z</time>
      </trkpt>
      <trkpt lat="44.19195" lon="5.42333">
        <ele>643.79998779297</ele>
        <time>2021-09-04T12:13:20Z</time>
      </trkpt>
      <trkpt lat="44.19158" lon="5.42362">
        <ele>644</ele>
        <time>2021-09-04T12:13:27Z</time>
      </trkpt>
      <trkpt lat="44.19122" lon="5.4239">
        <ele>644.20001220703</ele>
        <time>2021-09-04T12:13:35Z</time>
      </trkpt>
      <trkpt lat="44.19117" lon="5.42393">
        <ele>644.40002441406</ele>
        <time>2021-09-04T12:13:36Z</time>
      </trkpt>
      <trkpt lat="44.19096" lon="5.42408">
        <ele>644.40002441406</ele>
        <time>2021-09-04T12:13:41Z</time>
      </trkpt>
      <trkpt lat="44.19059" lon="5.42427">
        <ele>644.79998779297</ele>
        <time>2021-09-04T12:13:49Z</time>
      </trkpt>
      <trkpt lat="44.1902" lon="5.42446">
        <ele>644.59997558594</ele>
        <time>2021-09-04T12:13:57Z</time>
      </trkpt>
      <trkpt lat="44.18992" lon="5.42462">
        <ele>644</ele>
        <time>2021-09-04T12:14:02Z</time>
      </trkpt>
      <trkpt lat="44.1897" lon="5.42469">
        <ele>643.20001220703</ele>
        <time>2021-09-04T12:14:05Z</time>
      </trkpt>
      <trkpt lat="44.18954" lon="5.42471">
        <ele>642.59997558594</ele>
        <time>2021-09-04T12:14:07Z</time>
      </trkpt>
      <trkpt lat="44.18946" lon="5.42471">
        <ele>642.20001220703</ele>
        <time>2021-09-04T12:14:08Z</time>
      </trkpt>
      <trkpt lat="44.18921" lon="5.42473">
        <ele>641</ele>
        <time>2021-09-04T12:14:11Z</time>
      </trkpt>
      <trkpt lat="44.18904" lon="5.42474">
        <ele>640</ele>
        <time>2021-09-04T12:14:13Z</time>
      </trkpt>
      <trkpt lat="44.18895" lon="5.42475">
        <ele>639.59997558594</ele>
        <time>2021-09-04T12:14:14Z</time>
      </trkpt>
      <trkpt lat="44.1887" lon="5.42478">
        <ele>638.59997558594</ele>
        <time>2021-09-04T12:14:17Z</time>
      </trkpt>
      <trkpt lat="44.18836" lon="5.42482">
        <ele>637.20001220703</ele>
        <time>2021-09-04T12:14:21Z</time>
      </trkpt>
      <trkpt lat="44.18818" lon="5.42486">
        <ele>636.40002441406</ele>
        <time>2021-09-04T12:14:23Z</time>
      </trkpt>
      <trkpt lat="44.18809" lon="5.42488">
        <ele>635.79998779297</ele>
        <time>2021-09-04T12:14:24Z</time>
      </trkpt>
      <trkpt lat="44.18783" lon="5.42498">
        <ele>634.59997558594</ele>
        <time>2021-09-04T12:14:27Z</time>
      </trkpt>
      <trkpt lat="44.18766" lon="5.42507">
        <ele>633.79998779297</ele>
        <time>2021-09-04T12:14:29Z</time>
      </trkpt>
      <trkpt lat="44.18758" lon="5.42512">
        <ele>633.20001220703</ele>
        <time>2021-09-04T12:14:30Z</time>
      </trkpt>
      <trkpt lat="44.18736" lon="5.4253">
        <ele>632</ele>
        <time>2021-09-04T12:14:33Z</time>
      </trkpt>
      <trkpt lat="44.18729" lon="5.42536">
        <ele>631.79998779297</ele>
        <time>2021-09-04T12:14:34Z</time>
      </trkpt>
      <trkpt lat="44.18702" lon="5.42558">
        <ele>631</ele>
        <time>2021-09-04T12:14:38Z</time>
      </trkpt>
      <trkpt lat="44.18676" lon="5.42579">
        <ele>630.79998779297</ele>
        <time>2021-09-04T12:14:42Z</time>
      </trkpt>
      <trkpt lat="44.18656" lon="5.42596">
        <ele>630.79998779297</ele>
        <time>2021-09-04T12:14:45Z</time>
      </trkpt>
      <trkpt lat="44.18629" lon="5.42619">
        <ele>630</ele>
        <time>2021-09-04T12:14:49Z</time>
      </trkpt>
      <trkpt lat="44.18603" lon="5.42643">
        <ele>629</ele>
        <time>2021-09-04T12:14:53Z</time>
      </trkpt>
      <trkpt lat="44.18577" lon="5.42667">
        <ele>628.40002441406</ele>
        <time>2021-09-04T12:14:57Z</time>
      </trkpt>
      <trkpt lat="44.18545" lon="5.42697">
        <ele>627.79998779297</ele>
        <time>2021-09-04T12:15:02Z</time>
      </trkpt>
      <trkpt lat="44.18517" lon="5.42719">
        <ele>626.79998779297</ele>
        <time>2021-09-04T12:15:06Z</time>
      </trkpt>
      <trkpt lat="44.18479" lon="5.42737">
        <ele>625.79998779297</ele>
        <time>2021-09-04T12:15:11Z</time>
      </trkpt>
      <trkpt lat="44.18471" lon="5.42741">
        <ele>625.79998779297</ele>
        <time>2021-09-04T12:15:12Z</time>
      </trkpt>
      <trkpt lat="44.18455" lon="5.4275">
        <ele>625.59997558594</ele>
        <time>2021-09-04T12:15:14Z</time>
      </trkpt>
      <trkpt lat="44.1844" lon="5.42762">
        <ele>625.20001220703</ele>
        <time>2021-09-04T12:15:16Z</time>
      </trkpt>
      <trkpt lat="44.18425" lon="5.42773">
        <ele>624.59997558594</ele>
        <time>2021-09-04T12:15:18Z</time>
      </trkpt>
      <trkpt lat="44.18381" lon="5.42804">
        <ele>623.59997558594</ele>
        <time>2021-09-04T12:15:24Z</time>
      </trkpt>
      <trkpt lat="44.1834" lon="5.42819">
        <ele>622.59997558594</ele>
        <time>2021-09-04T12:15:29Z</time>
      </trkpt>
      <trkpt lat="44.18332" lon="5.42822">
        <ele>622.59997558594</ele>
        <time>2021-09-04T12:15:30Z</time>
      </trkpt>
      <trkpt lat="44.18296" lon="5.42838">
        <ele>622</ele>
        <time>2021-09-04T12:15:35Z</time>
      </trkpt>
      <trkpt lat="44.18255" lon="5.42861">
        <ele>621.40002441406</ele>
        <time>2021-09-04T12:15:41Z</time>
      </trkpt>
      <trkpt lat="44.18242" lon="5.4287">
        <ele>621.20001220703</ele>
        <time>2021-09-04T12:15:43Z</time>
      </trkpt>
      <trkpt lat="44.18206" lon="5.42903">
        <ele>620.40002441406</ele>
        <time>2021-09-04T12:15:49Z</time>
      </trkpt>
      <trkpt lat="44.18199" lon="5.42908">
        <ele>620</ele>
        <time>2021-09-04T12:15:50Z</time>
      </trkpt>
      <trkpt lat="44.18188" lon="5.4292">
        <ele>619.59997558594</ele>
        <time>2021-09-04T12:15:52Z</time>
      </trkpt>
      <trkpt lat="44.18177" lon="5.42934">
        <ele>619.20001220703</ele>
        <time>2021-09-04T12:15:54Z</time>
      </trkpt>
      <trkpt lat="44.18172" lon="5.42941">
        <ele>619.20001220703</ele>
        <time>2021-09-04T12:15:55Z</time>
      </trkpt>
      <trkpt lat="44.18134" lon="5.42985">
        <ele>618</ele>
        <time>2021-09-04T12:16:02Z</time>
      </trkpt>
      <trkpt lat="44.18128" lon="5.4299">
        <ele>617.79998779297</ele>
        <time>2021-09-04T12:16:03Z</time>
      </trkpt>
      <trkpt lat="44.18086" lon="5.43022">
        <ele>617.20001220703</ele>
        <time>2021-09-04T12:16:10Z</time>
      </trkpt>
      <trkpt lat="44.1808" lon="5.43026">
        <ele>617</ele>
        <time>2021-09-04T12:16:11Z</time>
      </trkpt>
      <trkpt lat="44.18043" lon="5.43057">
        <ele>616</ele>
        <time>2021-09-04T12:16:18Z</time>
      </trkpt>
      <trkpt lat="44.18008" lon="5.43095">
        <ele>615.20001220703</ele>
        <time>2021-09-04T12:16:25Z</time>
      </trkpt>
      <trkpt lat="44.17989" lon="5.43116">
        <ele>615.20001220703</ele>
        <time>2021-09-04T12:16:29Z</time>
      </trkpt>
      <trkpt lat="44.17978" lon="5.43125">
        <ele>615</ele>
        <time>2021-09-04T12:16:31Z</time>
      </trkpt>
      <trkpt lat="44.17967" lon="5.43132">
        <ele>615</ele>
        <time>2021-09-04T12:16:33Z</time>
      </trkpt>
      <trkpt lat="44.17948" lon="5.43139">
        <ele>615</ele>
        <time>2021-09-04T12:16:36Z</time>
      </trkpt>
      <trkpt lat="44.17942" lon="5.43141">
        <ele>614.79998779297</ele>
        <time>2021-09-04T12:16:37Z</time>
      </trkpt>
      <trkpt lat="44.17935" lon="5.43142">
        <ele>614.59997558594</ele>
        <time>2021-09-04T12:16:38Z</time>
      </trkpt>
      <trkpt lat="44.17915" lon="5.43144">
        <ele>614</ele>
        <time>2021-09-04T12:16:41Z</time>
      </trkpt>
      <trkpt lat="44.17895" lon="5.43147">
        <ele>613.79998779297</ele>
        <time>2021-09-04T12:16:44Z</time>
      </trkpt>
      <trkpt lat="44.17872" lon="5.43147">
        <ele>613.79998779297</ele>
        <time>2021-09-04T12:16:48Z</time>
      </trkpt>
      <trkpt lat="44.17847" lon="5.43151">
        <ele>613.59997558594</ele>
        <time>2021-09-04T12:16:52Z</time>
      </trkpt>
      <trkpt lat="44.1784" lon="5.43153">
        <ele>613.40002441406</ele>
        <time>2021-09-04T12:16:53Z</time>
      </trkpt>
      <trkpt lat="44.17809" lon="5.43173">
        <ele>612.59997558594</ele>
        <time>2021-09-04T12:16:58Z</time>
      </trkpt>
      <trkpt lat="44.17788" lon="5.43187">
        <ele>612</ele>
        <time>2021-09-04T12:17:02Z</time>
      </trkpt>
      <trkpt lat="44.17786" lon="5.43189">
        <ele>611.79998779297</ele>
        <time>2021-09-04T12:17:03Z</time>
      </trkpt>
      <trkpt lat="44.17785" lon="5.4319">
        <ele>611.59997558594</ele>
        <time>2021-09-04T12:17:04Z</time>
      </trkpt>
      <trkpt lat="44.17783" lon="5.43195">
        <ele>609.40002441406</ele>
        <time>2021-09-04T12:18:10Z</time>
      </trkpt>
      <trkpt lat="44.17775" lon="5.432">
        <ele>609.40002441406</ele>
        <time>2021-09-04T12:18:14Z</time>
      </trkpt>
      <trkpt lat="44.17772" lon="5.43203">
        <ele>609.40002441406</ele>
        <time>2021-09-04T12:18:15Z</time>
      </trkpt>
      <trkpt lat="44.17759" lon="5.43213">
        <ele>609.40002441406</ele>
        <time>2021-09-04T12:18:19Z</time>
      </trkpt>
      <trkpt lat="44.17756" lon="5.43216">
        <ele>609.40002441406</ele>
        <time>2021-09-04T12:18:20Z</time>
      </trkpt>
      <trkpt lat="44.17731" lon="5.43237">
        <ele>609.20001220703</ele>
        <time>2021-09-04T12:18:26Z</time>
      </trkpt>
      <trkpt lat="44.17695" lon="5.43272">
        <ele>608.59997558594</ele>
        <time>2021-09-04T12:18:34Z</time>
      </trkpt>
      <trkpt lat="44.1768" lon="5.43286">
        <ele>608.40002441406</ele>
        <time>2021-09-04T12:18:37Z</time>
      </trkpt>
      <trkpt lat="44.17655" lon="5.43308">
        <ele>607.79998779297</ele>
        <time>2021-09-04T12:18:42Z</time>
      </trkpt>
      <trkpt lat="44.1762" lon="5.43342">
        <ele>607.20001220703</ele>
        <time>2021-09-04T12:18:49Z</time>
      </trkpt>
      <trkpt lat="44.17616" lon="5.43348">
        <ele>607.20001220703</ele>
        <time>2021-09-04T12:18:50Z</time>
      </trkpt>
      <trkpt lat="44.1758" lon="5.43398">
        <ele>606.79998779297</ele>
        <time>2021-09-04T12:18:59Z</time>
      </trkpt>
      <trkpt lat="44.17554" lon="5.43436">
        <ele>606.40002441406</ele>
        <time>2021-09-04T12:19:07Z</time>
      </trkpt>
      <trkpt lat="44.17547" lon="5.43446">
        <ele>606.20001220703</ele>
        <time>2021-09-04T12:19:09Z</time>
      </trkpt>
      <trkpt lat="44.17537" lon="5.43462">
        <ele>606</ele>
        <time>2021-09-04T12:19:13Z</time>
      </trkpt>
      <trkpt lat="44.1753" lon="5.43477">
        <ele>605.79998779297</ele>
        <time>2021-09-04T12:19:18Z</time>
      </trkpt>
      <trkpt lat="44.17529" lon="5.43481">
        <ele>605.79998779297</ele>
        <time>2021-09-04T12:19:20Z</time>
      </trkpt>
      <trkpt lat="44.17528" lon="5.43476">
        <ele>605.20001220703</ele>
        <time>2021-09-04T12:20:17Z</time>
      </trkpt>
      <trkpt lat="44.17531" lon="5.43472">
        <ele>605.40002441406</ele>
        <time>2021-09-04T12:20:19Z</time>
      </trkpt>
      <trkpt lat="44.17542" lon="5.43457">
        <ele>605.20001220703</ele>
        <time>2021-09-04T12:20:24Z</time>
      </trkpt>
      <trkpt lat="44.17559" lon="5.43428">
        <ele>605.59997558594</ele>
        <time>2021-09-04T12:20:30Z</time>
      </trkpt>
      <trkpt lat="44.1756" lon="5.43421">
        <ele>605.59997558594</ele>
        <time>2021-09-04T12:20:31Z</time>
      </trkpt>
      <trkpt lat="44.1756" lon="5.43395">
        <ele>606</ele>
        <time>2021-09-04T12:20:35Z</time>
      </trkpt>
      <trkpt lat="44.17554" lon="5.43378">
        <ele>606.59997558594</ele>
        <time>2021-09-04T12:20:38Z</time>
      </trkpt>
      <trkpt lat="44.17551" lon="5.43373">
        <ele>606.79998779297</ele>
        <time>2021-09-04T12:20:39Z</time>
      </trkpt>
      <trkpt lat="44.17547" lon="5.43368">
        <ele>607</ele>
        <time>2021-09-04T12:20:40Z</time>
      </trkpt>
      <trkpt lat="44.17531" lon="5.43359">
        <ele>607</ele>
        <time>2021-09-04T12:20:43Z</time>
      </trkpt>
      <trkpt lat="44.17525" lon="5.43355">
        <ele>606.79998779297</ele>
        <time>2021-09-04T12:20:44Z</time>
      </trkpt>
      <trkpt lat="44.17496" lon="5.43333">
        <ele>605.59997558594</ele>
        <time>2021-09-04T12:20:49Z</time>
      </trkpt>
      <trkpt lat="44.17491" lon="5.43327">
        <ele>605.20001220703</ele>
        <time>2021-09-04T12:20:50Z</time>
      </trkpt>
      <trkpt lat="44.17486" lon="5.4332">
        <ele>605</ele>
        <time>2021-09-04T12:20:51Z</time>
      </trkpt>
      <trkpt lat="44.17469" lon="5.43291">
        <ele>604.40002441406</ele>
        <time>2021-09-04T12:20:55Z</time>
      </trkpt>
      <trkpt lat="44.17454" lon="5.43259">
        <ele>604</ele>
        <time>2021-09-04T12:20:59Z</time>
      </trkpt>
      <trkpt lat="44.17439" lon="5.43228">
        <ele>603.59997558594</ele>
        <time>2021-09-04T12:21:03Z</time>
      </trkpt>
      <trkpt lat="44.17422" lon="5.43187">
        <ele>602.79998779297</ele>
        <time>2021-09-04T12:21:08Z</time>
      </trkpt>
      <trkpt lat="44.17402" lon="5.43137">
        <ele>602.20001220703</ele>
        <time>2021-09-04T12:21:14Z</time>
      </trkpt>
      <trkpt lat="44.17382" lon="5.43087">
        <ele>601.79998779297</ele>
        <time>2021-09-04T12:21:20Z</time>
      </trkpt>
      <trkpt lat="44.17372" lon="5.43062">
        <ele>601.59997558594</ele>
        <time>2021-09-04T12:21:23Z</time>
      </trkpt>
      <trkpt lat="44.17345" lon="5.42993">
        <ele>601</ele>
        <time>2021-09-04T12:21:31Z</time>
      </trkpt>
      <trkpt lat="44.17341" lon="5.42984">
        <ele>600.79998779297</ele>
        <time>2021-09-04T12:21:32Z</time>
      </trkpt>
      <trkpt lat="44.17338" lon="5.42975">
        <ele>600.79998779297</ele>
        <time>2021-09-04T12:21:33Z</time>
      </trkpt>
      <trkpt lat="44.17327" lon="5.4295">
        <ele>600.40002441406</ele>
        <time>2021-09-04T12:21:36Z</time>
      </trkpt>
      <trkpt lat="44.17321" lon="5.42932">
        <ele>600.20001220703</ele>
        <time>2021-09-04T12:21:38Z</time>
      </trkpt>
      <trkpt lat="44.17305" lon="5.42893">
        <ele>599.79998779297</ele>
        <time>2021-09-04T12:21:43Z</time>
      </trkpt>
      <trkpt lat="44.17302" lon="5.42885">
        <ele>599.79998779297</ele>
        <time>2021-09-04T12:21:44Z</time>
      </trkpt>
      <trkpt lat="44.17289" lon="5.42847">
        <ele>599.59997558594</ele>
        <time>2021-09-04T12:21:49Z</time>
      </trkpt>
      <trkpt lat="44.17286" lon="5.4284">
        <ele>599.59997558594</ele>
        <time>2021-09-04T12:21:50Z</time>
      </trkpt>
      <trkpt lat="44.17266" lon="5.42789">
        <ele>600.40002441406</ele>
        <time>2021-09-04T12:21:58Z</time>
      </trkpt>
      <trkpt lat="44.1726" lon="5.42773">
        <ele>600.59997558594</ele>
        <time>2021-09-04T12:22:01Z</time>
      </trkpt>
      <trkpt lat="44.17256" lon="5.42765">
        <ele>600.79998779297</ele>
        <time>2021-09-04T12:22:03Z</time>
      </trkpt>
      <trkpt lat="44.17255" lon="5.42761">
        <ele>600.79998779297</ele>
        <time>2021-09-04T12:22:04Z</time>
      </trkpt>
      <trkpt lat="44.17242" lon="5.42727">
        <ele>602</ele>
        <time>2021-09-04T12:22:13Z</time>
      </trkpt>
      <trkpt lat="44.1723" lon="5.42701">
        <ele>602.79998779297</ele>
        <time>2021-09-04T12:22:20Z</time>
      </trkpt>
      <trkpt lat="44.17228" lon="5.42697">
        <ele>603</ele>
        <time>2021-09-04T12:22:21Z</time>
      </trkpt>
      <trkpt lat="44.17223" lon="5.42686">
        <ele>603</ele>
        <time>2021-09-04T12:22:23Z</time>
      </trkpt>
      <trkpt lat="44.17218" lon="5.42675">
        <ele>603</ele>
        <time>2021-09-04T12:22:25Z</time>
      </trkpt>
      <trkpt lat="44.17196" lon="5.42622">
        <ele>602.20001220703</ele>
        <time>2021-09-04T12:22:33Z</time>
      </trkpt>
      <trkpt lat="44.17186" lon="5.426">
        <ele>601.79998779297</ele>
        <time>2021-09-04T12:22:36Z</time>
      </trkpt>
      <trkpt lat="44.17171" lon="5.42561">
        <ele>601.40002441406</ele>
        <time>2021-09-04T12:22:41Z</time>
      </trkpt>
      <trkpt lat="44.17152" lon="5.4252">
        <ele>600.79998779297</ele>
        <time>2021-09-04T12:22:46Z</time>
      </trkpt>
      <trkpt lat="44.17145" lon="5.42503">
        <ele>600.59997558594</ele>
        <time>2021-09-04T12:22:48Z</time>
      </trkpt>
      <trkpt lat="44.17126" lon="5.42461">
        <ele>599.79998779297</ele>
        <time>2021-09-04T12:22:53Z</time>
      </trkpt>
      <trkpt lat="44.17113" lon="5.42429">
        <ele>599.59997558594</ele>
        <time>2021-09-04T12:22:57Z</time>
      </trkpt>
      <trkpt lat="44.17092" lon="5.42379">
        <ele>599.79998779297</ele>
        <time>2021-09-04T12:23:04Z</time>
      </trkpt>
      <trkpt lat="44.17079" lon="5.42346">
        <ele>600.59997558594</ele>
        <time>2021-09-04T12:23:10Z</time>
      </trkpt>
      <trkpt lat="44.17077" lon="5.42342">
        <ele>600.79998779297</ele>
        <time>2021-09-04T12:23:11Z</time>
      </trkpt>
      <trkpt lat="44.17075" lon="5.42338">
        <ele>601.20001220703</ele>
        <time>2021-09-04T12:23:12Z</time>
      </trkpt>
      <trkpt lat="44.17067" lon="5.42319">
        <ele>601.79998779297</ele>
        <time>2021-09-04T12:23:16Z</time>
      </trkpt>
      <trkpt lat="44.17066" lon="5.42315">
        <ele>602</ele>
        <time>2021-09-04T12:23:17Z</time>
      </trkpt>
      <trkpt lat="44.17051" lon="5.4228">
        <ele>603</ele>
        <time>2021-09-04T12:23:24Z</time>
      </trkpt>
      <trkpt lat="44.17049" lon="5.42275">
        <ele>603</ele>
        <time>2021-09-04T12:23:25Z</time>
      </trkpt>
      <trkpt lat="44.17034" lon="5.42241">
        <ele>603.40002441406</ele>
        <time>2021-09-04T12:23:32Z</time>
      </trkpt>
      <trkpt lat="44.17023" lon="5.42216">
        <ele>604</ele>
        <time>2021-09-04T12:23:38Z</time>
      </trkpt>
      <trkpt lat="44.17021" lon="5.42212">
        <ele>604.20001220703</ele>
        <time>2021-09-04T12:23:39Z</time>
      </trkpt>
      <trkpt lat="44.17012" lon="5.42187">
        <ele>605.20001220703</ele>
        <time>2021-09-04T12:23:46Z</time>
      </trkpt>
      <trkpt lat="44.17003" lon="5.4217">
        <ele>606.40002441406</ele>
        <time>2021-09-04T12:23:52Z</time>
      </trkpt>
      <trkpt lat="44.16996" lon="5.42151">
        <ele>607.40002441406</ele>
        <time>2021-09-04T12:23:58Z</time>
      </trkpt>
      <trkpt lat="44.16995" lon="5.42148">
        <ele>607.59997558594</ele>
        <time>2021-09-04T12:23:59Z</time>
      </trkpt>
      <trkpt lat="44.1699" lon="5.42136">
        <ele>608.59997558594</ele>
        <time>2021-09-04T12:24:03Z</time>
      </trkpt>
      <trkpt lat="44.16986" lon="5.42128">
        <ele>609</ele>
        <time>2021-09-04T12:24:06Z</time>
      </trkpt>
      <trkpt lat="44.1698" lon="5.42112">
        <ele>609.59997558594</ele>
        <time>2021-09-04T12:24:11Z</time>
      </trkpt>
      <trkpt lat="44.16978" lon="5.42105">
        <ele>609.79998779297</ele>
        <time>2021-09-04T12:24:13Z</time>
      </trkpt>
      <trkpt lat="44.16969" lon="5.42088">
        <ele>610.59997558594</ele>
        <time>2021-09-04T12:24:19Z</time>
      </trkpt>
      <trkpt lat="44.16968" lon="5.42085">
        <ele>610.79998779297</ele>
        <time>2021-09-04T12:24:20Z</time>
      </trkpt>
      <trkpt lat="44.16962" lon="5.42071">
        <ele>611.79998779297</ele>
        <time>2021-09-04T12:24:25Z</time>
      </trkpt>
      <trkpt lat="44.16958" lon="5.42063">
        <ele>612.20001220703</ele>
        <time>2021-09-04T12:24:28Z</time>
      </trkpt>
      <trkpt lat="44.16946" lon="5.42042">
        <ele>612.79998779297</ele>
        <time>2021-09-04T12:24:36Z</time>
      </trkpt>
      <trkpt lat="44.16941" lon="5.42036">
        <ele>613.20001220703</ele>
        <time>2021-09-04T12:24:40Z</time>
      </trkpt>
      <trkpt lat="44.1694" lon="5.42034">
        <ele>613.20001220703</ele>
        <time>2021-09-04T12:24:41Z</time>
      </trkpt>
      <trkpt lat="44.16935" lon="5.42033">
        <ele>613.59997558594</ele>
        <time>2021-09-04T12:24:46Z</time>
      </trkpt>
      <trkpt lat="44.16929" lon="5.42034">
        <ele>613.59997558594</ele>
        <time>2021-09-04T12:24:50Z</time>
      </trkpt>
      <trkpt lat="44.16927" lon="5.42033">
        <ele>613.59997558594</ele>
        <time>2021-09-04T12:24:51Z</time>
      </trkpt>
      <trkpt lat="44.16926" lon="5.4203">
        <ele>613.59997558594</ele>
        <time>2021-09-04T12:24:52Z</time>
      </trkpt>
      <trkpt lat="44.16924" lon="5.42029">
        <ele>613.59997558594</ele>
        <time>2021-09-04T12:24:54Z</time>
      </trkpt>
      <trkpt lat="44.16923" lon="5.42028">
        <ele>613.59997558594</ele>
        <time>2021-09-04T12:24:55Z</time>
      </trkpt>
      <trkpt lat="44.16923" lon="5.4203">
        <ele>546</ele>
        <time>2021-09-04T12:49:41Z</time>
      </trkpt>
      <trkpt lat="44.16919" lon="5.42032">
        <ele>546.20001220703</ele>
        <time>2021-09-04T12:49:47Z</time>
      </trkpt>
      <trkpt lat="44.16916" lon="5.42034">
        <ele>546.20001220703</ele>
        <time>2021-09-04T12:49:50Z</time>
      </trkpt>
      <trkpt lat="44.1691" lon="5.42034">
        <ele>546</ele>
        <time>2021-09-04T12:49:54Z</time>
      </trkpt>
      <trkpt lat="44.16908" lon="5.42031">
        <ele>546</ele>
        <time>2021-09-04T12:49:56Z</time>
      </trkpt>
      <trkpt lat="44.16906" lon="5.42031">
        <ele>546</ele>
        <time>2021-09-04T12:49:57Z</time>
      </trkpt>
      <trkpt lat="44.16902" lon="5.42033">
        <ele>545.79998779297</ele>
        <time>2021-09-04T12:49:59Z</time>
      </trkpt>
      <trkpt lat="44.16886" lon="5.42043">
        <ele>545.79998779297</ele>
        <time>2021-09-04T12:50:05Z</time>
      </trkpt>
      <trkpt lat="44.16863" lon="5.42058">
        <ele>545.40002441406</ele>
        <time>2021-09-04T12:50:11Z</time>
      </trkpt>
      <trkpt lat="44.16851" lon="5.42065">
        <ele>544.79998779297</ele>
        <time>2021-09-04T12:50:14Z</time>
      </trkpt>
      <trkpt lat="44.16833" lon="5.42075">
        <ele>544.40002441406</ele>
        <time>2021-09-04T12:50:18Z</time>
      </trkpt>
      <trkpt lat="44.16803" lon="5.42093">
        <ele>543.59997558594</ele>
        <time>2021-09-04T12:50:25Z</time>
      </trkpt>
      <trkpt lat="44.16798" lon="5.42094">
        <ele>543.40002441406</ele>
        <time>2021-09-04T12:50:26Z</time>
      </trkpt>
      <trkpt lat="44.16779" lon="5.42094">
        <ele>542.79998779297</ele>
        <time>2021-09-04T12:50:30Z</time>
      </trkpt>
      <trkpt lat="44.16771" lon="5.4209">
        <ele>542.59997558594</ele>
        <time>2021-09-04T12:50:32Z</time>
      </trkpt>
      <trkpt lat="44.16766" lon="5.42074">
        <ele>542.40002441406</ele>
        <time>2021-09-04T12:50:35Z</time>
      </trkpt>
      <trkpt lat="44.1677" lon="5.42047">
        <ele>541.40002441406</ele>
        <time>2021-09-04T12:50:39Z</time>
      </trkpt>
      <trkpt lat="44.1677" lon="5.42018">
        <ele>540</ele>
        <time>2021-09-04T12:50:42Z</time>
      </trkpt>
      <trkpt lat="44.16769" lon="5.42008">
        <ele>539.59997558594</ele>
        <time>2021-09-04T12:50:43Z</time>
      </trkpt>
      <trkpt lat="44.1677" lon="5.41986">
        <ele>538.59997558594</ele>
        <time>2021-09-04T12:50:45Z</time>
      </trkpt>
      <trkpt lat="44.16771" lon="5.41975">
        <ele>538</ele>
        <time>2021-09-04T12:50:46Z</time>
      </trkpt>
      <trkpt lat="44.16774" lon="5.41964">
        <ele>537.40002441406</ele>
        <time>2021-09-04T12:50:47Z</time>
      </trkpt>
      <trkpt lat="44.16784" lon="5.41943">
        <ele>536.20001220703</ele>
        <time>2021-09-04T12:50:49Z</time>
      </trkpt>
      <trkpt lat="44.1679" lon="5.41932">
        <ele>535.40002441406</ele>
        <time>2021-09-04T12:50:50Z</time>
      </trkpt>
      <trkpt lat="44.16796" lon="5.4192">
        <ele>534.79998779297</ele>
        <time>2021-09-04T12:50:51Z</time>
      </trkpt>
      <trkpt lat="44.16808" lon="5.41899">
        <ele>533.40002441406</ele>
        <time>2021-09-04T12:50:53Z</time>
      </trkpt>
      <trkpt lat="44.16821" lon="5.4188">
        <ele>531.79998779297</ele>
        <time>2021-09-04T12:50:55Z</time>
      </trkpt>
      <trkpt lat="44.16827" lon="5.41874">
        <ele>531</ele>
        <time>2021-09-04T12:50:56Z</time>
      </trkpt>
      <trkpt lat="44.16834" lon="5.41869">
        <ele>530.20001220703</ele>
        <time>2021-09-04T12:50:57Z</time>
      </trkpt>
      <trkpt lat="44.1684" lon="5.41864">
        <ele>529.20001220703</ele>
        <time>2021-09-04T12:50:58Z</time>
      </trkpt>
      <trkpt lat="44.16844" lon="5.41857">
        <ele>528.40002441406</ele>
        <time>2021-09-04T12:50:59Z</time>
      </trkpt>
      <trkpt lat="44.16848" lon="5.4185">
        <ele>526.40002441406</ele>
        <time>2021-09-04T12:51:00Z</time>
      </trkpt>
      <trkpt lat="44.16853" lon="5.41843">
        <ele>525.40002441406</ele>
        <time>2021-09-04T12:51:01Z</time>
      </trkpt>
      <trkpt lat="44.16858" lon="5.41835">
        <ele>524.40002441406</ele>
        <time>2021-09-04T12:51:02Z</time>
      </trkpt>
      <trkpt lat="44.16869" lon="5.41824">
        <ele>522.79998779297</ele>
        <time>2021-09-04T12:51:04Z</time>
      </trkpt>
      <trkpt lat="44.16875" lon="5.41819">
        <ele>522.20001220703</ele>
        <time>2021-09-04T12:51:05Z</time>
      </trkpt>
      <trkpt lat="44.16881" lon="5.41815">
        <ele>521.79998779297</ele>
        <time>2021-09-04T12:51:06Z</time>
      </trkpt>
      <trkpt lat="44.16904" lon="5.41796">
        <ele>521</ele>
        <time>2021-09-04T12:51:10Z</time>
      </trkpt>
      <trkpt lat="44.16909" lon="5.4179">
        <ele>521</ele>
        <time>2021-09-04T12:51:11Z</time>
      </trkpt>
      <trkpt lat="44.16923" lon="5.41768">
        <ele>520.79998779297</ele>
        <time>2021-09-04T12:51:14Z</time>
      </trkpt>
      <trkpt lat="44.16926" lon="5.4176">
        <ele>520.79998779297</ele>
        <time>2021-09-04T12:51:15Z</time>
      </trkpt>
      <trkpt lat="44.1693" lon="5.41742">
        <ele>520.59997558594</ele>
        <time>2021-09-04T12:51:17Z</time>
      </trkpt>
      <trkpt lat="44.16932" lon="5.41732">
        <ele>520.40002441406</ele>
        <time>2021-09-04T12:51:18Z</time>
      </trkpt>
      <trkpt lat="44.16933" lon="5.41722">
        <ele>520.40002441406</ele>
        <time>2021-09-04T12:51:19Z</time>
      </trkpt>
      <trkpt lat="44.16942" lon="5.41673">
        <ele>519.59997558594</ele>
        <time>2021-09-04T12:51:24Z</time>
      </trkpt>
      <trkpt lat="44.16959" lon="5.41601">
        <ele>518.59997558594</ele>
        <time>2021-09-04T12:51:31Z</time>
      </trkpt>
      <trkpt lat="44.16967" lon="5.41571">
        <ele>517.79998779297</ele>
        <time>2021-09-04T12:51:35Z</time>
      </trkpt>
      <trkpt lat="44.16968" lon="5.41569">
        <ele>515.59997558594</ele>
        <time>2021-09-04T12:51:53Z</time>
      </trkpt>
      <trkpt lat="44.16968" lon="5.41567">
        <ele>515.59997558594</ele>
        <time>2021-09-04T12:51:54Z</time>
      </trkpt>
      <trkpt lat="44.1697" lon="5.41547">
        <ele>515.59997558594</ele>
        <time>2021-09-04T12:51:58Z</time>
      </trkpt>
      <trkpt lat="44.16974" lon="5.41511">
        <ele>515</ele>
        <time>2021-09-04T12:52:03Z</time>
      </trkpt>
      <trkpt lat="44.16975" lon="5.41502">
        <ele>515</ele>
        <time>2021-09-04T12:52:04Z</time>
      </trkpt>
      <trkpt lat="44.16979" lon="5.41475">
        <ele>514.59997558594</ele>
        <time>2021-09-04T12:52:07Z</time>
      </trkpt>
      <trkpt lat="44.16981" lon="5.41448">
        <ele>514</ele>
        <time>2021-09-04T12:52:10Z</time>
      </trkpt>
      <trkpt lat="44.16986" lon="5.4142">
        <ele>513.40002441406</ele>
        <time>2021-09-04T12:52:13Z</time>
      </trkpt>
      <trkpt lat="44.16994" lon="5.41393">
        <ele>513.20001220703</ele>
        <time>2021-09-04T12:52:16Z</time>
      </trkpt>
      <trkpt lat="44.16998" lon="5.41385">
        <ele>513</ele>
        <time>2021-09-04T12:52:17Z</time>
      </trkpt>
      <trkpt lat="44.17015" lon="5.41354">
        <ele>512.79998779297</ele>
        <time>2021-09-04T12:52:21Z</time>
      </trkpt>
      <trkpt lat="44.17039" lon="5.41305">
        <ele>512.40002441406</ele>
        <time>2021-09-04T12:52:27Z</time>
      </trkpt>
      <trkpt lat="44.17057" lon="5.41275">
        <ele>512</ele>
        <time>2021-09-04T12:52:31Z</time>
      </trkpt>
      <trkpt lat="44.17085" lon="5.41222">
        <ele>511.79998779297</ele>
        <time>2021-09-04T12:52:38Z</time>
      </trkpt>
      <trkpt lat="44.1709" lon="5.41205">
        <ele>511.79998779297</ele>
        <time>2021-09-04T12:52:40Z</time>
      </trkpt>
      <trkpt lat="44.17093" lon="5.41177">
        <ele>511.60000610352</ele>
        <time>2021-09-04T12:52:43Z</time>
      </trkpt>
      <trkpt lat="44.17093" lon="5.41167">
        <ele>511.39999389648</ele>
        <time>2021-09-04T12:52:44Z</time>
      </trkpt>
      <trkpt lat="44.17089" lon="5.41128">
        <ele>511.20001220703</ele>
        <time>2021-09-04T12:52:48Z</time>
      </trkpt>
      <trkpt lat="44.17088" lon="5.41077">
        <ele>510.79998779297</ele>
        <time>2021-09-04T12:52:53Z</time>
      </trkpt>
      <trkpt lat="44.17097" lon="5.41027">
        <ele>510.39999389648</ele>
        <time>2021-09-04T12:52:58Z</time>
      </trkpt>
      <trkpt lat="44.17119" lon="5.40975">
        <ele>510.39999389648</ele>
        <time>2021-09-04T12:53:04Z</time>
      </trkpt>
      <trkpt lat="44.17129" lon="5.40948">
        <ele>510.39999389648</ele>
        <time>2021-09-04T12:53:07Z</time>
      </trkpt>
      <trkpt lat="44.17146" lon="5.409">
        <ele>509.60000610352</ele>
        <time>2021-09-04T12:53:12Z</time>
      </trkpt>
      <trkpt lat="44.17151" lon="5.40891">
        <ele>509.60000610352</ele>
        <time>2021-09-04T12:53:13Z</time>
      </trkpt>
      <trkpt lat="44.17161" lon="5.40875">
        <ele>509.39999389648</ele>
        <time>2021-09-04T12:53:15Z</time>
      </trkpt>
      <trkpt lat="44.17167" lon="5.40868">
        <ele>509.20001220703</ele>
        <time>2021-09-04T12:53:16Z</time>
      </trkpt>
      <trkpt lat="44.17173" lon="5.4086">
        <ele>509</ele>
        <time>2021-09-04T12:53:17Z</time>
      </trkpt>
      <trkpt lat="44.17202" lon="5.40822">
        <ele>508.39999389648</ele>
        <time>2021-09-04T12:53:22Z</time>
      </trkpt>
      <trkpt lat="44.17211" lon="5.40804">
        <ele>508.20001220703</ele>
        <time>2021-09-04T12:53:24Z</time>
      </trkpt>
      <trkpt lat="44.17218" lon="5.40785">
        <ele>507.79998779297</ele>
        <time>2021-09-04T12:53:26Z</time>
      </trkpt>
      <trkpt lat="44.1722" lon="5.40775">
        <ele>507.79998779297</ele>
        <time>2021-09-04T12:53:27Z</time>
      </trkpt>
      <trkpt lat="44.17227" lon="5.40757">
        <ele>507.39999389648</ele>
        <time>2021-09-04T12:53:29Z</time>
      </trkpt>
      <trkpt lat="44.17238" lon="5.40743">
        <ele>507.39999389648</ele>
        <time>2021-09-04T12:53:31Z</time>
      </trkpt>
      <trkpt lat="44.17263" lon="5.40724">
        <ele>507.20001220703</ele>
        <time>2021-09-04T12:53:35Z</time>
      </trkpt>
      <trkpt lat="44.17275" lon="5.40714">
        <ele>507.20001220703</ele>
        <time>2021-09-04T12:53:37Z</time>
      </trkpt>
      <trkpt lat="44.17286" lon="5.40703">
        <ele>507.20001220703</ele>
        <time>2021-09-04T12:53:39Z</time>
      </trkpt>
      <trkpt lat="44.17291" lon="5.40697">
        <ele>507.20001220703</ele>
        <time>2021-09-04T12:53:40Z</time>
      </trkpt>
      <trkpt lat="44.17295" lon="5.4069">
        <ele>507.20001220703</ele>
        <time>2021-09-04T12:53:41Z</time>
      </trkpt>
      <trkpt lat="44.17328" lon="5.40633">
        <ele>507</ele>
        <time>2021-09-04T12:53:49Z</time>
      </trkpt>
      <trkpt lat="44.1736" lon="5.40584">
        <ele>506.60000610352</ele>
        <time>2021-09-04T12:53:56Z</time>
      </trkpt>
      <trkpt lat="44.17388" lon="5.40558">
        <ele>506.60000610352</ele>
        <time>2021-09-04T12:54:01Z</time>
      </trkpt>
      <trkpt lat="44.17429" lon="5.40528">
        <ele>506.60000610352</ele>
        <time>2021-09-04T12:54:08Z</time>
      </trkpt>
      <trkpt lat="44.17473" lon="5.4049">
        <ele>506.39999389648</ele>
        <time>2021-09-04T12:54:16Z</time>
      </trkpt>
      <trkpt lat="44.17482" lon="5.40477">
        <ele>506.39999389648</ele>
        <time>2021-09-04T12:54:18Z</time>
      </trkpt>
      <trkpt lat="44.17488" lon="5.4046">
        <ele>506.39999389648</ele>
        <time>2021-09-04T12:54:20Z</time>
      </trkpt>
      <trkpt lat="44.17494" lon="5.40423">
        <ele>506.20001220703</ele>
        <time>2021-09-04T12:54:24Z</time>
      </trkpt>
      <trkpt lat="44.17494" lon="5.40413">
        <ele>506.20001220703</ele>
        <time>2021-09-04T12:54:25Z</time>
      </trkpt>
      <trkpt lat="44.175" lon="5.40351">
        <ele>505.79998779297</ele>
        <time>2021-09-04T12:54:32Z</time>
      </trkpt>
      <trkpt lat="44.17503" lon="5.40301">
        <ele>506</ele>
        <time>2021-09-04T12:54:38Z</time>
      </trkpt>
      <trkpt lat="44.17502" lon="5.40293">
        <ele>506.20001220703</ele>
        <time>2021-09-04T12:54:39Z</time>
      </trkpt>
      <trkpt lat="44.17502" lon="5.40255">
        <ele>506.79998779297</ele>
        <time>2021-09-04T12:54:44Z</time>
      </trkpt>
      <trkpt lat="44.17502" lon="5.40247">
        <ele>506.79998779297</ele>
        <time>2021-09-04T12:54:45Z</time>
      </trkpt>
      <trkpt lat="44.17506" lon="5.40223">
        <ele>506.79998779297</ele>
        <time>2021-09-04T12:54:48Z</time>
      </trkpt>
      <trkpt lat="44.17514" lon="5.40208">
        <ele>506.79998779297</ele>
        <time>2021-09-04T12:54:50Z</time>
      </trkpt>
      <trkpt lat="44.1753" lon="5.40188">
        <ele>506.60000610352</ele>
        <time>2021-09-04T12:54:53Z</time>
      </trkpt>
      <trkpt lat="44.17536" lon="5.40181">
        <ele>506.60000610352</ele>
        <time>2021-09-04T12:54:54Z</time>
      </trkpt>
      <trkpt lat="44.17556" lon="5.40162">
        <ele>506</ele>
        <time>2021-09-04T12:54:57Z</time>
      </trkpt>
      <trkpt lat="44.17565" lon="5.4016">
        <ele>505.79998779297</ele>
        <time>2021-09-04T12:54:58Z</time>
      </trkpt>
      <trkpt lat="44.17583" lon="5.40162">
        <ele>504.79998779297</ele>
        <time>2021-09-04T12:55:00Z</time>
      </trkpt>
      <trkpt lat="44.17592" lon="5.40166">
        <ele>504.39999389648</ele>
        <time>2021-09-04T12:55:01Z</time>
      </trkpt>
      <trkpt lat="44.17609" lon="5.40175">
        <ele>503.60000610352</ele>
        <time>2021-09-04T12:55:03Z</time>
      </trkpt>
      <trkpt lat="44.17625" lon="5.40182">
        <ele>502.79998779297</ele>
        <time>2021-09-04T12:55:05Z</time>
      </trkpt>
      <trkpt lat="44.17634" lon="5.40183">
        <ele>502.39999389648</ele>
        <time>2021-09-04T12:55:06Z</time>
      </trkpt>
      <trkpt lat="44.1765" lon="5.40176">
        <ele>501.79998779297</ele>
        <time>2021-09-04T12:55:08Z</time>
      </trkpt>
      <trkpt lat="44.17664" lon="5.40163">
        <ele>501.20001220703</ele>
        <time>2021-09-04T12:55:10Z</time>
      </trkpt>
      <trkpt lat="44.17671" lon="5.40156">
        <ele>501</ele>
        <time>2021-09-04T12:55:11Z</time>
      </trkpt>
      <trkpt lat="44.17679" lon="5.40149">
        <ele>500.79998779297</ele>
        <time>2021-09-04T12:55:12Z</time>
      </trkpt>
      <trkpt lat="44.177" lon="5.40125">
        <ele>500</ele>
        <time>2021-09-04T12:55:15Z</time>
      </trkpt>
      <trkpt lat="44.17714" lon="5.40109">
        <ele>499.39999389648</ele>
        <time>2021-09-04T12:55:17Z</time>
      </trkpt>
      <trkpt lat="44.17729" lon="5.40094">
        <ele>498.79998779297</ele>
        <time>2021-09-04T12:55:19Z</time>
      </trkpt>
      <trkpt lat="44.17764" lon="5.40054">
        <ele>497.79998779297</ele>
        <time>2021-09-04T12:55:24Z</time>
      </trkpt>
      <trkpt lat="44.1777" lon="5.40045">
        <ele>497.60000610352</ele>
        <time>2021-09-04T12:55:25Z</time>
      </trkpt>
      <trkpt lat="44.17793" lon="5.40005">
        <ele>496.60000610352</ele>
        <time>2021-09-04T12:55:29Z</time>
      </trkpt>
      <trkpt lat="44.17798" lon="5.39994">
        <ele>496.39999389648</ele>
        <time>2021-09-04T12:55:30Z</time>
      </trkpt>
      <trkpt lat="44.17812" lon="5.39961">
        <ele>495.39999389648</ele>
        <time>2021-09-04T12:55:33Z</time>
      </trkpt>
      <trkpt lat="44.17837" lon="5.39907">
        <ele>494.20001220703</ele>
        <time>2021-09-04T12:55:38Z</time>
      </trkpt>
      <trkpt lat="44.17841" lon="5.39896">
        <ele>494</ele>
        <time>2021-09-04T12:55:39Z</time>
      </trkpt>
      <trkpt lat="44.17871" lon="5.39819">
        <ele>493.20001220703</ele>
        <time>2021-09-04T12:55:46Z</time>
      </trkpt>
      <trkpt lat="44.17875" lon="5.39808">
        <ele>493</ele>
        <time>2021-09-04T12:55:47Z</time>
      </trkpt>
      <trkpt lat="44.17892" lon="5.39751">
        <ele>491.79998779297</ele>
        <time>2021-09-04T12:55:52Z</time>
      </trkpt>
      <trkpt lat="44.17903" lon="5.39718">
        <ele>491.20001220703</ele>
        <time>2021-09-04T12:55:55Z</time>
      </trkpt>
      <trkpt lat="44.17912" lon="5.39685">
        <ele>490.79998779297</ele>
        <time>2021-09-04T12:55:58Z</time>
      </trkpt>
      <trkpt lat="44.17921" lon="5.39652">
        <ele>490.60000610352</ele>
        <time>2021-09-04T12:56:01Z</time>
      </trkpt>
      <trkpt lat="44.17946" lon="5.39571">
        <ele>490.39999389648</ele>
        <time>2021-09-04T12:56:08Z</time>
      </trkpt>
      <trkpt lat="44.17958" lon="5.39535">
        <ele>489.60000610352</ele>
        <time>2021-09-04T12:56:11Z</time>
      </trkpt>
      <trkpt lat="44.17965" lon="5.3951">
        <ele>488.60000610352</ele>
        <time>2021-09-04T12:56:13Z</time>
      </trkpt>
      <trkpt lat="44.17984" lon="5.39464">
        <ele>487.79998779297</ele>
        <time>2021-09-04T12:56:17Z</time>
      </trkpt>
      <trkpt lat="44.17994" lon="5.39442">
        <ele>487.60000610352</ele>
        <time>2021-09-04T12:56:19Z</time>
      </trkpt>
      <trkpt lat="44.18025" lon="5.39379">
        <ele>486.60000610352</ele>
        <time>2021-09-04T12:56:25Z</time>
      </trkpt>
      <trkpt lat="44.1803" lon="5.39369">
        <ele>486.39999389648</ele>
        <time>2021-09-04T12:56:26Z</time>
      </trkpt>
      <trkpt lat="44.18035" lon="5.39359">
        <ele>486.20001220703</ele>
        <time>2021-09-04T12:56:27Z</time>
      </trkpt>
      <trkpt lat="44.18068" lon="5.39291">
        <ele>485.39999389648</ele>
        <time>2021-09-04T12:56:34Z</time>
      </trkpt>
      <trkpt lat="44.18073" lon="5.39281">
        <ele>485.39999389648</ele>
        <time>2021-09-04T12:56:35Z</time>
      </trkpt>
      <trkpt lat="44.18078" lon="5.3927">
        <ele>485.39999389648</ele>
        <time>2021-09-04T12:56:36Z</time>
      </trkpt>
      <trkpt lat="44.18108" lon="5.39208">
        <ele>484.60000610352</ele>
        <time>2021-09-04T12:56:42Z</time>
      </trkpt>
      <trkpt lat="44.18113" lon="5.39197">
        <ele>484.39999389648</ele>
        <time>2021-09-04T12:56:43Z</time>
      </trkpt>
      <trkpt lat="44.18147" lon="5.39126">
        <ele>483.39999389648</ele>
        <time>2021-09-04T12:56:50Z</time>
      </trkpt>
      <trkpt lat="44.18157" lon="5.39106">
        <ele>483.20001220703</ele>
        <time>2021-09-04T12:56:52Z</time>
      </trkpt>
      <trkpt lat="44.18162" lon="5.39097">
        <ele>483.20001220703</ele>
        <time>2021-09-04T12:56:53Z</time>
      </trkpt>
      <trkpt lat="44.18195" lon="5.39028">
        <ele>482.20001220703</ele>
        <time>2021-09-04T12:57:00Z</time>
      </trkpt>
      <trkpt lat="44.18209" lon="5.38999">
        <ele>481.79998779297</ele>
        <time>2021-09-04T12:57:03Z</time>
      </trkpt>
      <trkpt lat="44.18238" lon="5.38942">
        <ele>481.20001220703</ele>
        <time>2021-09-04T12:57:09Z</time>
      </trkpt>
      <trkpt lat="44.18251" lon="5.38913">
        <ele>480.79998779297</ele>
        <time>2021-09-04T12:57:12Z</time>
      </trkpt>
      <trkpt lat="44.18282" lon="5.38848">
        <ele>480.39999389648</ele>
        <time>2021-09-04T12:57:19Z</time>
      </trkpt>
      <trkpt lat="44.18314" lon="5.38783">
        <ele>480.60000610352</ele>
        <time>2021-09-04T12:57:27Z</time>
      </trkpt>
      <trkpt lat="44.18336" lon="5.38732">
        <ele>481</ele>
        <time>2021-09-04T12:57:33Z</time>
      </trkpt>
      <trkpt lat="44.18339" lon="5.38713">
        <ele>481</ele>
        <time>2021-09-04T12:57:35Z</time>
      </trkpt>
      <trkpt lat="44.18341" lon="5.38693">
        <ele>480.79998779297</ele>
        <time>2021-09-04T12:57:37Z</time>
      </trkpt>
      <trkpt lat="44.18336" lon="5.38641">
        <ele>480.60000610352</ele>
        <time>2021-09-04T12:57:42Z</time>
      </trkpt>
      <trkpt lat="44.18322" lon="5.38568">
        <ele>480.20001220703</ele>
        <time>2021-09-04T12:57:49Z</time>
      </trkpt>
      <trkpt lat="44.18319" lon="5.38546">
        <ele>480.20001220703</ele>
        <time>2021-09-04T12:57:51Z</time>
      </trkpt>
      <trkpt lat="44.18311" lon="5.38503">
        <ele>479.60000610352</ele>
        <time>2021-09-04T12:57:55Z</time>
      </trkpt>
      <trkpt lat="44.18297" lon="5.38428">
        <ele>479.20001220703</ele>
        <time>2021-09-04T12:58:02Z</time>
      </trkpt>
      <trkpt lat="44.18295" lon="5.38418">
        <ele>479</ele>
        <time>2021-09-04T12:58:03Z</time>
      </trkpt>
      <trkpt lat="44.18293" lon="5.38407">
        <ele>479</ele>
        <time>2021-09-04T12:58:04Z</time>
      </trkpt>
      <trkpt lat="44.18277" lon="5.38325">
        <ele>478.60000610352</ele>
        <time>2021-09-04T12:58:12Z</time>
      </trkpt>
      <trkpt lat="44.18276" lon="5.38315">
        <ele>478.39999389648</ele>
        <time>2021-09-04T12:58:13Z</time>
      </trkpt>
      <trkpt lat="44.18266" lon="5.38264">
        <ele>478</ele>
        <time>2021-09-04T12:58:18Z</time>
      </trkpt>
      <trkpt lat="44.18258" lon="5.38215">
        <ele>477.60000610352</ele>
        <time>2021-09-04T12:58:23Z</time>
      </trkpt>
      <trkpt lat="44.18241" lon="5.38146">
        <ele>477</ele>
        <time>2021-09-04T12:58:30Z</time>
      </trkpt>
      <trkpt lat="44.18217" lon="5.38082">
        <ele>476.20001220703</ele>
        <time>2021-09-04T12:58:37Z</time>
      </trkpt>
      <trkpt lat="44.18204" lon="5.38047">
        <ele>476</ele>
        <time>2021-09-04T12:58:41Z</time>
      </trkpt>
      <trkpt lat="44.18202" lon="5.38038">
        <ele>476</ele>
        <time>2021-09-04T12:58:42Z</time>
      </trkpt>
      <trkpt lat="44.182" lon="5.37991">
        <ele>476.20001220703</ele>
        <time>2021-09-04T12:58:47Z</time>
      </trkpt>
      <trkpt lat="44.18197" lon="5.3795">
        <ele>476.39999389648</ele>
        <time>2021-09-04T12:58:53Z</time>
      </trkpt>
      <trkpt lat="44.18194" lon="5.37893">
        <ele>477.20001220703</ele>
        <time>2021-09-04T12:59:01Z</time>
      </trkpt>
      <trkpt lat="44.18182" lon="5.37845">
        <ele>476.60000610352</ele>
        <time>2021-09-04T12:59:07Z</time>
      </trkpt>
      <trkpt lat="44.18164" lon="5.37805">
        <ele>475.79998779297</ele>
        <time>2021-09-04T12:59:12Z</time>
      </trkpt>
      <trkpt lat="44.18136" lon="5.37754">
        <ele>474.60000610352</ele>
        <time>2021-09-04T12:59:18Z</time>
      </trkpt>
      <trkpt lat="44.18117" lon="5.37705">
        <ele>473.79998779297</ele>
        <time>2021-09-04T12:59:23Z</time>
      </trkpt>
      <trkpt lat="44.18114" lon="5.37695">
        <ele>473.20001220703</ele>
        <time>2021-09-04T12:59:24Z</time>
      </trkpt>
      <trkpt lat="44.18107" lon="5.37662">
        <ele>472.60000610352</ele>
        <time>2021-09-04T12:59:27Z</time>
      </trkpt>
      <trkpt lat="44.18106" lon="5.37651">
        <ele>472.39999389648</ele>
        <time>2021-09-04T12:59:28Z</time>
      </trkpt>
      <trkpt lat="44.18105" lon="5.37629">
        <ele>472.20001220703</ele>
        <time>2021-09-04T12:59:30Z</time>
      </trkpt>
      <trkpt lat="44.18105" lon="5.37608">
        <ele>472</ele>
        <time>2021-09-04T12:59:32Z</time>
      </trkpt>
      <trkpt lat="44.18106" lon="5.37598">
        <ele>472</ele>
        <time>2021-09-04T12:59:33Z</time>
      </trkpt>
      <trkpt lat="44.18112" lon="5.37561">
        <ele>472.20001220703</ele>
        <time>2021-09-04T12:59:37Z</time>
      </trkpt>
      <trkpt lat="44.18115" lon="5.37543">
        <ele>472.39999389648</ele>
        <time>2021-09-04T12:59:39Z</time>
      </trkpt>
      <trkpt lat="44.1813" lon="5.37477">
        <ele>472.39999389648</ele>
        <time>2021-09-04T12:59:46Z</time>
      </trkpt>
      <trkpt lat="44.18147" lon="5.37413">
        <ele>471.20001220703</ele>
        <time>2021-09-04T12:59:52Z</time>
      </trkpt>
      <trkpt lat="44.1815" lon="5.37402">
        <ele>471</ele>
        <time>2021-09-04T12:59:53Z</time>
      </trkpt>
      <trkpt lat="44.18163" lon="5.37348">
        <ele>469.79998779297</ele>
        <time>2021-09-04T12:59:58Z</time>
      </trkpt>
      <trkpt lat="44.18166" lon="5.37337">
        <ele>469.60000610352</ele>
        <time>2021-09-04T12:59:59Z</time>
      </trkpt>
      <trkpt lat="44.18177" lon="5.37307">
        <ele>469</ele>
        <time>2021-09-04T13:00:02Z</time>
      </trkpt>
      <trkpt lat="44.18186" lon="5.37289">
        <ele>468.79998779297</ele>
        <time>2021-09-04T13:00:04Z</time>
      </trkpt>
      <trkpt lat="44.18225" lon="5.37232">
        <ele>467.79998779297</ele>
        <time>2021-09-04T13:00:11Z</time>
      </trkpt>
      <trkpt lat="44.18231" lon="5.37225">
        <ele>467.60000610352</ele>
        <time>2021-09-04T13:00:12Z</time>
      </trkpt>
      <trkpt lat="44.18257" lon="5.3719">
        <ele>467.39999389648</ele>
        <time>2021-09-04T13:00:17Z</time>
      </trkpt>
      <trkpt lat="44.18283" lon="5.37138">
        <ele>468</ele>
        <time>2021-09-04T13:00:24Z</time>
      </trkpt>
      <trkpt lat="44.18305" lon="5.37076">
        <ele>468.60000610352</ele>
        <time>2021-09-04T13:00:32Z</time>
      </trkpt>
      <trkpt lat="44.1831" lon="5.37059">
        <ele>468.60000610352</ele>
        <time>2021-09-04T13:00:34Z</time>
      </trkpt>
      <trkpt lat="44.18319" lon="5.37014">
        <ele>468.60000610352</ele>
        <time>2021-09-04T13:00:39Z</time>
      </trkpt>
      <trkpt lat="44.18329" lon="5.36947">
        <ele>467.60000610352</ele>
        <time>2021-09-04T13:00:46Z</time>
      </trkpt>
      <trkpt lat="44.18341" lon="5.36869">
        <ele>466.79998779297</ele>
        <time>2021-09-04T13:00:54Z</time>
      </trkpt>
      <trkpt lat="44.18341" lon="5.36819">
        <ele>466.60000610352</ele>
        <time>2021-09-04T13:00:59Z</time>
      </trkpt>
      <trkpt lat="44.18341" lon="5.36809">
        <ele>466.39999389648</ele>
        <time>2021-09-04T13:01:00Z</time>
      </trkpt>
      <trkpt lat="44.18339" lon="5.36749">
        <ele>466.20001220703</ele>
        <time>2021-09-04T13:01:06Z</time>
      </trkpt>
      <trkpt lat="44.18339" lon="5.36739">
        <ele>466.20001220703</ele>
        <time>2021-09-04T13:01:07Z</time>
      </trkpt>
      <trkpt lat="44.18344" lon="5.36701">
        <ele>466.20001220703</ele>
        <time>2021-09-04T13:01:11Z</time>
      </trkpt>
      <trkpt lat="44.18355" lon="5.36622">
        <ele>466</ele>
        <time>2021-09-04T13:01:19Z</time>
      </trkpt>
      <trkpt lat="44.18356" lon="5.36612">
        <ele>466</ele>
        <time>2021-09-04T13:01:20Z</time>
      </trkpt>
      <trkpt lat="44.18362" lon="5.36553">
        <ele>465.39999389648</ele>
        <time>2021-09-04T13:01:26Z</time>
      </trkpt>
      <trkpt lat="44.18367" lon="5.36514">
        <ele>465</ele>
        <time>2021-09-04T13:01:30Z</time>
      </trkpt>
      <trkpt lat="44.18375" lon="5.36453">
        <ele>464.39999389648</ele>
        <time>2021-09-04T13:01:36Z</time>
      </trkpt>
      <trkpt lat="44.18376" lon="5.36432">
        <ele>464.20001220703</ele>
        <time>2021-09-04T13:01:38Z</time>
      </trkpt>
      <trkpt lat="44.1838" lon="5.36349">
        <ele>463.39999389648</ele>
        <time>2021-09-04T13:01:46Z</time>
      </trkpt>
      <trkpt lat="44.18381" lon="5.36339">
        <ele>463.39999389648</ele>
        <time>2021-09-04T13:01:47Z</time>
      </trkpt>
      <trkpt lat="44.18384" lon="5.36257">
        <ele>463</ele>
        <time>2021-09-04T13:01:55Z</time>
      </trkpt>
      <trkpt lat="44.18389" lon="5.36177">
        <ele>462.79998779297</ele>
        <time>2021-09-04T13:02:03Z</time>
      </trkpt>
      <trkpt lat="44.18389" lon="5.36168">
        <ele>462.79998779297</ele>
        <time>2021-09-04T13:02:04Z</time>
      </trkpt>
      <trkpt lat="44.18389" lon="5.36111">
        <ele>463.39999389648</ele>
        <time>2021-09-04T13:02:11Z</time>
      </trkpt>
      <trkpt lat="44.18391" lon="5.3608">
        <ele>464.20001220703</ele>
        <time>2021-09-04T13:02:15Z</time>
      </trkpt>
      <trkpt lat="44.18394" lon="5.36063">
        <ele>464.39999389648</ele>
        <time>2021-09-04T13:02:17Z</time>
      </trkpt>
      <trkpt lat="44.18398" lon="5.36037">
        <ele>464.39999389648</ele>
        <time>2021-09-04T13:02:20Z</time>
      </trkpt>
      <trkpt lat="44.18401" lon="5.36018">
        <ele>464.39999389648</ele>
        <time>2021-09-04T13:02:22Z</time>
      </trkpt>
      <trkpt lat="44.18414" lon="5.35947">
        <ele>463.20001220703</ele>
        <time>2021-09-04T13:02:29Z</time>
      </trkpt>
      <trkpt lat="44.18422" lon="5.35902">
        <ele>462</ele>
        <time>2021-09-04T13:02:33Z</time>
      </trkpt>
      <trkpt lat="44.18428" lon="5.35866">
        <ele>460.79998779297</ele>
        <time>2021-09-04T13:02:36Z</time>
      </trkpt>
      <trkpt lat="44.18433" lon="5.35817">
        <ele>459.60000610352</ele>
        <time>2021-09-04T13:02:40Z</time>
      </trkpt>
      <trkpt lat="44.18436" lon="5.35795">
        <ele>459.20001220703</ele>
        <time>2021-09-04T13:02:42Z</time>
      </trkpt>
      <trkpt lat="44.18445" lon="5.35748">
        <ele>459</ele>
        <time>2021-09-04T13:02:47Z</time>
      </trkpt>
      <trkpt lat="44.18451" lon="5.35698">
        <ele>460</ele>
        <time>2021-09-04T13:02:53Z</time>
      </trkpt>
      <trkpt lat="44.18454" lon="5.35634">
        <ele>459.39999389648</ele>
        <time>2021-09-04T13:02:59Z</time>
      </trkpt>
      <trkpt lat="44.18452" lon="5.35598">
        <ele>458.39999389648</ele>
        <time>2021-09-04T13:03:02Z</time>
      </trkpt>
      <trkpt lat="44.1845" lon="5.35549">
        <ele>457</ele>
        <time>2021-09-04T13:03:06Z</time>
      </trkpt>
      <trkpt lat="44.18448" lon="5.35513">
        <ele>455.79998779297</ele>
        <time>2021-09-04T13:03:09Z</time>
      </trkpt>
      <trkpt lat="44.18447" lon="5.35477">
        <ele>454.79998779297</ele>
        <time>2021-09-04T13:03:12Z</time>
      </trkpt>
      <trkpt lat="44.18449" lon="5.35466">
        <ele>454.39999389648</ele>
        <time>2021-09-04T13:03:13Z</time>
      </trkpt>
      <trkpt lat="44.18455" lon="5.35432">
        <ele>453.60000610352</ele>
        <time>2021-09-04T13:03:16Z</time>
      </trkpt>
      <trkpt lat="44.18461" lon="5.35401">
        <ele>453.39999389648</ele>
        <time>2021-09-04T13:03:19Z</time>
      </trkpt>
      <trkpt lat="44.18466" lon="5.35359">
        <ele>453.39999389648</ele>
        <time>2021-09-04T13:03:23Z</time>
      </trkpt>
      <trkpt lat="44.1847" lon="5.35338">
        <ele>453.39999389648</ele>
        <time>2021-09-04T13:03:25Z</time>
      </trkpt>
      <trkpt lat="44.18483" lon="5.35265">
        <ele>452.79998779297</ele>
        <time>2021-09-04T13:03:32Z</time>
      </trkpt>
      <trkpt lat="44.18487" lon="5.35245">
        <ele>452.60000610352</ele>
        <time>2021-09-04T13:03:34Z</time>
      </trkpt>
      <trkpt lat="44.18497" lon="5.35182">
        <ele>452</ele>
        <time>2021-09-04T13:03:40Z</time>
      </trkpt>
      <trkpt lat="44.18499" lon="5.35161">
        <ele>451.79998779297</ele>
        <time>2021-09-04T13:03:42Z</time>
      </trkpt>
      <trkpt lat="44.18506" lon="5.35131">
        <ele>451.39999389648</ele>
        <time>2021-09-04T13:03:45Z</time>
      </trkpt>
      <trkpt lat="44.1851" lon="5.35076">
        <ele>450.60000610352</ele>
        <time>2021-09-04T13:03:50Z</time>
      </trkpt>
      <trkpt lat="44.18508" lon="5.35055">
        <ele>450.20001220703</ele>
        <time>2021-09-04T13:03:52Z</time>
      </trkpt>
      <trkpt lat="44.18507" lon="5.35027">
        <ele>450</ele>
        <time>2021-09-04T13:03:55Z</time>
      </trkpt>
      <trkpt lat="44.18509" lon="5.34991">
        <ele>450.79998779297</ele>
        <time>2021-09-04T13:04:00Z</time>
      </trkpt>
      <trkpt lat="44.18511" lon="5.34979">
        <ele>451.39999389648</ele>
        <time>2021-09-04T13:04:02Z</time>
      </trkpt>
      <trkpt lat="44.18517" lon="5.34955">
        <ele>452.39999389648</ele>
        <time>2021-09-04T13:04:06Z</time>
      </trkpt>
      <trkpt lat="44.18519" lon="5.3495">
        <ele>452.60000610352</ele>
        <time>2021-09-04T13:04:07Z</time>
      </trkpt>
      <trkpt lat="44.18532" lon="5.34921">
        <ele>453.20001220703</ele>
        <time>2021-09-04T13:04:33Z</time>
      </trkpt>
      <trkpt lat="44.18535" lon="5.34913">
        <ele>453.20001220703</ele>
        <time>2021-09-04T13:04:36Z</time>
      </trkpt>
      <trkpt lat="44.18548" lon="5.34887">
        <ele>453.20001220703</ele>
        <time>2021-09-04T13:04:42Z</time>
      </trkpt>
      <trkpt lat="44.18561" lon="5.34858">
        <ele>453.39999389648</ele>
        <time>2021-09-04T13:04:47Z</time>
      </trkpt>
      <trkpt lat="44.18564" lon="5.34853">
        <ele>453.39999389648</ele>
        <time>2021-09-04T13:04:48Z</time>
      </trkpt>
      <trkpt lat="44.18588" lon="5.34805">
        <ele>452.60000610352</ele>
        <time>2021-09-04T13:04:55Z</time>
      </trkpt>
      <trkpt lat="44.18595" lon="5.34787">
        <ele>452.39999389648</ele>
        <time>2021-09-04T13:04:57Z</time>
      </trkpt>
      <trkpt lat="44.18603" lon="5.34756">
        <ele>451.60000610352</ele>
        <time>2021-09-04T13:05:00Z</time>
      </trkpt>
      <trkpt lat="44.18606" lon="5.34745">
        <ele>451</ele>
        <time>2021-09-04T13:05:01Z</time>
      </trkpt>
      <trkpt lat="44.18611" lon="5.34724">
        <ele>450.39999389648</ele>
        <time>2021-09-04T13:05:03Z</time>
      </trkpt>
      <trkpt lat="44.18614" lon="5.34703">
        <ele>450</ele>
        <time>2021-09-04T13:05:05Z</time>
      </trkpt>
      <trkpt lat="44.18615" lon="5.34694">
        <ele>449.79998779297</ele>
        <time>2021-09-04T13:05:06Z</time>
      </trkpt>
      <trkpt lat="44.18622" lon="5.34649">
        <ele>450.20001220703</ele>
        <time>2021-09-04T13:05:12Z</time>
      </trkpt>
      <trkpt lat="44.1863" lon="5.34604">
        <ele>450.79998779297</ele>
        <time>2021-09-04T13:05:18Z</time>
      </trkpt>
      <trkpt lat="44.18632" lon="5.34597">
        <ele>451</ele>
        <time>2021-09-04T13:05:19Z</time>
      </trkpt>
      <trkpt lat="44.18634" lon="5.34589">
        <ele>451</ele>
        <time>2021-09-04T13:05:20Z</time>
      </trkpt>
      <trkpt lat="44.18653" lon="5.34534">
        <ele>450.79998779297</ele>
        <time>2021-09-04T13:05:27Z</time>
      </trkpt>
      <trkpt lat="44.18676" lon="5.34491">
        <ele>450</ele>
        <time>2021-09-04T13:05:32Z</time>
      </trkpt>
      <trkpt lat="44.18682" lon="5.34483">
        <ele>449.79998779297</ele>
        <time>2021-09-04T13:05:33Z</time>
      </trkpt>
      <trkpt lat="44.18701" lon="5.34461">
        <ele>448.60000610352</ele>
        <time>2021-09-04T13:05:36Z</time>
      </trkpt>
      <trkpt lat="44.18714" lon="5.34448">
        <ele>448</ele>
        <time>2021-09-04T13:05:38Z</time>
      </trkpt>
      <trkpt lat="44.18737" lon="5.34424">
        <ele>447.60000610352</ele>
        <time>2021-09-04T13:05:42Z</time>
      </trkpt>
      <trkpt lat="44.18742" lon="5.34418">
        <ele>447.60000610352</ele>
        <time>2021-09-04T13:05:43Z</time>
      </trkpt>
      <trkpt lat="44.18766" lon="5.34391">
        <ele>448.60000610352</ele>
        <time>2021-09-04T13:05:49Z</time>
      </trkpt>
      <trkpt lat="44.18769" lon="5.34387">
        <ele>448.79998779297</ele>
        <time>2021-09-04T13:05:50Z</time>
      </trkpt>
      <trkpt lat="44.18785" lon="5.34368">
        <ele>449.79998779297</ele>
        <time>2021-09-04T13:05:55Z</time>
      </trkpt>
      <trkpt lat="44.18791" lon="5.34361">
        <ele>450</ele>
        <time>2021-09-04T13:05:57Z</time>
      </trkpt>
      <trkpt lat="44.18807" lon="5.34342">
        <ele>450.79998779297</ele>
        <time>2021-09-04T13:06:02Z</time>
      </trkpt>
      <trkpt lat="44.1881" lon="5.34338">
        <ele>451</ele>
        <time>2021-09-04T13:06:03Z</time>
      </trkpt>
      <trkpt lat="44.18814" lon="5.34327">
        <ele>451.39999389648</ele>
        <time>2021-09-04T13:06:05Z</time>
      </trkpt>
      <trkpt lat="44.18821" lon="5.34313">
        <ele>452</ele>
        <time>2021-09-04T13:06:08Z</time>
      </trkpt>
      <trkpt lat="44.1883" lon="5.34295">
        <ele>452.60000610352</ele>
        <time>2021-09-04T13:06:12Z</time>
      </trkpt>
      <trkpt lat="44.18834" lon="5.34286">
        <ele>453</ele>
        <time>2021-09-04T13:06:14Z</time>
      </trkpt>
      <trkpt lat="44.1884" lon="5.34267">
        <ele>453.39999389648</ele>
        <time>2021-09-04T13:06:18Z</time>
      </trkpt>
      <trkpt lat="44.18841" lon="5.34261">
        <ele>453.60000610352</ele>
        <time>2021-09-04T13:06:19Z</time>
      </trkpt>
      <trkpt lat="44.18843" lon="5.34237">
        <ele>453.79998779297</ele>
        <time>2021-09-04T13:06:23Z</time>
      </trkpt>
      <trkpt lat="44.18848" lon="5.34178">
        <ele>453.60000610352</ele>
        <time>2021-09-04T13:06:32Z</time>
      </trkpt>
      <trkpt lat="44.18854" lon="5.34136">
        <ele>454</ele>
        <time>2021-09-04T13:06:39Z</time>
      </trkpt>
      <trkpt lat="44.18855" lon="5.3413">
        <ele>454.20001220703</ele>
        <time>2021-09-04T13:06:40Z</time>
      </trkpt>
      <trkpt lat="44.18856" lon="5.34105">
        <ele>454.39999389648</ele>
        <time>2021-09-04T13:06:44Z</time>
      </trkpt>
      <trkpt lat="44.18855" lon="5.34087">
        <ele>454.60000610352</ele>
        <time>2021-09-04T13:06:47Z</time>
      </trkpt>
      <trkpt lat="44.1885" lon="5.34043">
        <ele>455</ele>
        <time>2021-09-04T13:06:54Z</time>
      </trkpt>
      <trkpt lat="44.18849" lon="5.34036">
        <ele>455</ele>
        <time>2021-09-04T13:06:55Z</time>
      </trkpt>
      <trkpt lat="44.18846" lon="5.33982">
        <ele>455</ele>
        <time>2021-09-04T13:07:02Z</time>
      </trkpt>
      <trkpt lat="44.18848" lon="5.33911">
        <ele>454.39999389648</ele>
        <time>2021-09-04T13:07:10Z</time>
      </trkpt>
      <trkpt lat="44.18848" lon="5.33892">
        <ele>454</ele>
        <time>2021-09-04T13:07:12Z</time>
      </trkpt>
      <trkpt lat="44.18848" lon="5.33837">
        <ele>453.60000610352</ele>
        <time>2021-09-04T13:07:18Z</time>
      </trkpt>
      <trkpt lat="44.18844" lon="5.33802">
        <ele>453.39999389648</ele>
        <time>2021-09-04T13:07:22Z</time>
      </trkpt>
      <trkpt lat="44.18845" lon="5.33783">
        <ele>453.39999389648</ele>
        <time>2021-09-04T13:07:24Z</time>
      </trkpt>
      <trkpt lat="44.18858" lon="5.33759">
        <ele>453</ele>
        <time>2021-09-04T13:07:27Z</time>
      </trkpt>
      <trkpt lat="44.18864" lon="5.33754">
        <ele>453</ele>
        <time>2021-09-04T13:07:28Z</time>
      </trkpt>
      <trkpt lat="44.1887" lon="5.33749">
        <ele>452.79998779297</ele>
        <time>2021-09-04T13:07:29Z</time>
      </trkpt>
      <trkpt lat="44.18883" lon="5.33739">
        <ele>452.60000610352</ele>
        <time>2021-09-04T13:07:31Z</time>
      </trkpt>
      <trkpt lat="44.18918" lon="5.33705">
        <ele>452</ele>
        <time>2021-09-04T13:07:37Z</time>
      </trkpt>
      <trkpt lat="44.18923" lon="5.33699">
        <ele>452</ele>
        <time>2021-09-04T13:07:38Z</time>
      </trkpt>
      <trkpt lat="44.18943" lon="5.33668">
        <ele>451.60000610352</ele>
        <time>2021-09-04T13:07:42Z</time>
      </trkpt>
      <trkpt lat="44.18957" lon="5.33642">
        <ele>450.60000610352</ele>
        <time>2021-09-04T13:07:45Z</time>
      </trkpt>
      <trkpt lat="44.18968" lon="5.33625">
        <ele>450</ele>
        <time>2021-09-04T13:07:47Z</time>
      </trkpt>
      <trkpt lat="44.18978" lon="5.33608">
        <ele>449</ele>
        <time>2021-09-04T13:07:49Z</time>
      </trkpt>
      <trkpt lat="44.19" lon="5.33572">
        <ele>447.60000610352</ele>
        <time>2021-09-04T13:07:53Z</time>
      </trkpt>
      <trkpt lat="44.19005" lon="5.33563">
        <ele>447</ele>
        <time>2021-09-04T13:07:54Z</time>
      </trkpt>
      <trkpt lat="44.19011" lon="5.33553">
        <ele>446.60000610352</ele>
        <time>2021-09-04T13:07:55Z</time>
      </trkpt>
      <trkpt lat="44.1902" lon="5.33532">
        <ele>445.60000610352</ele>
        <time>2021-09-04T13:07:57Z</time>
      </trkpt>
      <trkpt lat="44.19023" lon="5.3352">
        <ele>445</ele>
        <time>2021-09-04T13:07:58Z</time>
      </trkpt>
      <trkpt lat="44.19031" lon="5.33496">
        <ele>444</ele>
        <time>2021-09-04T13:08:00Z</time>
      </trkpt>
      <trkpt lat="44.19045" lon="5.33461">
        <ele>442.79998779297</ele>
        <time>2021-09-04T13:08:03Z</time>
      </trkpt>
      <trkpt lat="44.1906" lon="5.33427">
        <ele>441.60000610352</ele>
        <time>2021-09-04T13:08:06Z</time>
      </trkpt>
      <trkpt lat="44.19075" lon="5.33393">
        <ele>440.39999389648</ele>
        <time>2021-09-04T13:08:09Z</time>
      </trkpt>
      <trkpt lat="44.19079" lon="5.33381">
        <ele>440</ele>
        <time>2021-09-04T13:08:10Z</time>
      </trkpt>
      <trkpt lat="44.19085" lon="5.33345">
        <ele>438.39999389648</ele>
        <time>2021-09-04T13:08:13Z</time>
      </trkpt>
      <trkpt lat="44.19087" lon="5.33334">
        <ele>438</ele>
        <time>2021-09-04T13:08:14Z</time>
      </trkpt>
      <trkpt lat="44.1909" lon="5.33324">
        <ele>437.60000610352</ele>
        <time>2021-09-04T13:08:15Z</time>
      </trkpt>
      <trkpt lat="44.19093" lon="5.33314">
        <ele>437.39999389648</ele>
        <time>2021-09-04T13:08:16Z</time>
      </trkpt>
      <trkpt lat="44.19098" lon="5.33305">
        <ele>437.20001220703</ele>
        <time>2021-09-04T13:08:17Z</time>
      </trkpt>
      <trkpt lat="44.1911" lon="5.33289">
        <ele>436.79998779297</ele>
        <time>2021-09-04T13:08:19Z</time>
      </trkpt>
      <trkpt lat="44.19122" lon="5.33272">
        <ele>436.39999389648</ele>
        <time>2021-09-04T13:08:21Z</time>
      </trkpt>
      <trkpt lat="44.19142" lon="5.33233">
        <ele>435.20001220703</ele>
        <time>2021-09-04T13:08:25Z</time>
      </trkpt>
      <trkpt lat="44.19155" lon="5.33202">
        <ele>434.60000610352</ele>
        <time>2021-09-04T13:08:28Z</time>
      </trkpt>
      <trkpt lat="44.1916" lon="5.33192">
        <ele>434.20001220703</ele>
        <time>2021-09-04T13:08:29Z</time>
      </trkpt>
      <trkpt lat="44.19178" lon="5.3315">
        <ele>433</ele>
        <time>2021-09-04T13:08:33Z</time>
      </trkpt>
      <trkpt lat="44.19184" lon="5.3314">
        <ele>432.60000610352</ele>
        <time>2021-09-04T13:08:34Z</time>
      </trkpt>
      <trkpt lat="44.19201" lon="5.33113">
        <ele>431.79998779297</ele>
        <time>2021-09-04T13:08:37Z</time>
      </trkpt>
      <trkpt lat="44.19219" lon="5.33088">
        <ele>431.20001220703</ele>
        <time>2021-09-04T13:08:40Z</time>
      </trkpt>
      <trkpt lat="44.19226" lon="5.33081">
        <ele>431</ele>
        <time>2021-09-04T13:08:41Z</time>
      </trkpt>
      <trkpt lat="44.1924" lon="5.33068">
        <ele>430.60000610352</ele>
        <time>2021-09-04T13:08:43Z</time>
      </trkpt>
      <trkpt lat="44.19247" lon="5.33061">
        <ele>430.60000610352</ele>
        <time>2021-09-04T13:08:44Z</time>
      </trkpt>
      <trkpt lat="44.19254" lon="5.33053">
        <ele>430.39999389648</ele>
        <time>2021-09-04T13:08:45Z</time>
      </trkpt>
      <trkpt lat="44.1929" lon="5.33003">
        <ele>429.60000610352</ele>
        <time>2021-09-04T13:08:51Z</time>
      </trkpt>
      <trkpt lat="44.19316" lon="5.32954">
        <ele>428.20001220703</ele>
        <time>2021-09-04T13:08:56Z</time>
      </trkpt>
      <trkpt lat="44.19321" lon="5.32944">
        <ele>428</ele>
        <time>2021-09-04T13:08:57Z</time>
      </trkpt>
      <trkpt lat="44.19333" lon="5.32912">
        <ele>427</ele>
        <time>2021-09-04T13:09:00Z</time>
      </trkpt>
      <trkpt lat="44.1934" lon="5.3289">
        <ele>426.39999389648</ele>
        <time>2021-09-04T13:09:02Z</time>
      </trkpt>
      <trkpt lat="44.19353" lon="5.3283">
        <ele>426</ele>
        <time>2021-09-04T13:09:08Z</time>
      </trkpt>
      <trkpt lat="44.19358" lon="5.32788">
        <ele>426</ele>
        <time>2021-09-04T13:09:12Z</time>
      </trkpt>
      <trkpt lat="44.19362" lon="5.32747">
        <ele>425.60000610352</ele>
        <time>2021-09-04T13:09:16Z</time>
      </trkpt>
      <trkpt lat="44.19366" lon="5.32717">
        <ele>424.79998779297</ele>
        <time>2021-09-04T13:09:19Z</time>
      </trkpt>
      <trkpt lat="44.19372" lon="5.32697">
        <ele>424.60000610352</ele>
        <time>2021-09-04T13:09:21Z</time>
      </trkpt>
      <trkpt lat="44.1939" lon="5.32648">
        <ele>423.79998779297</ele>
        <time>2021-09-04T13:09:26Z</time>
      </trkpt>
      <trkpt lat="44.19397" lon="5.32628">
        <ele>423.39999389648</ele>
        <time>2021-09-04T13:09:28Z</time>
      </trkpt>
      <trkpt lat="44.19417" lon="5.32559">
        <ele>422.79998779297</ele>
        <time>2021-09-04T13:09:35Z</time>
      </trkpt>
      <trkpt lat="44.19424" lon="5.32498">
        <ele>422.20001220703</ele>
        <time>2021-09-04T13:09:41Z</time>
      </trkpt>
      <trkpt lat="44.19442" lon="5.32418">
        <ele>421.60000610352</ele>
        <time>2021-09-04T13:09:49Z</time>
      </trkpt>
      <trkpt lat="44.19456" lon="5.3234">
        <ele>421.20001220703</ele>
        <time>2021-09-04T13:09:57Z</time>
      </trkpt>
      <trkpt lat="44.19459" lon="5.32281">
        <ele>420.60000610352</ele>
        <time>2021-09-04T13:10:03Z</time>
      </trkpt>
      <trkpt lat="44.19454" lon="5.32232">
        <ele>420.20001220703</ele>
        <time>2021-09-04T13:10:08Z</time>
      </trkpt>
      <trkpt lat="44.19448" lon="5.32173">
        <ele>419.60000610352</ele>
        <time>2021-09-04T13:10:14Z</time>
      </trkpt>
      <trkpt lat="44.19449" lon="5.32153">
        <ele>419.39999389648</ele>
        <time>2021-09-04T13:10:16Z</time>
      </trkpt>
      <trkpt lat="44.19461" lon="5.32107">
        <ele>419.20001220703</ele>
        <time>2021-09-04T13:10:21Z</time>
      </trkpt>
      <trkpt lat="44.19482" lon="5.32037">
        <ele>419</ele>
        <time>2021-09-04T13:10:29Z</time>
      </trkpt>
      <trkpt lat="44.19492" lon="5.31977">
        <ele>419</ele>
        <time>2021-09-04T13:10:36Z</time>
      </trkpt>
      <trkpt lat="44.19504" lon="5.31906">
        <ele>418.79998779297</ele>
        <time>2021-09-04T13:10:44Z</time>
      </trkpt>
      <trkpt lat="44.19513" lon="5.3184">
        <ele>418.60000610352</ele>
        <time>2021-09-04T13:10:51Z</time>
      </trkpt>
      <trkpt lat="44.19516" lon="5.31821">
        <ele>418.39999389648</ele>
        <time>2021-09-04T13:10:53Z</time>
      </trkpt>
      <trkpt lat="44.19522" lon="5.31767">
        <ele>417.39999389648</ele>
        <time>2021-09-04T13:10:58Z</time>
      </trkpt>
      <trkpt lat="44.19524" lon="5.31745">
        <ele>417</ele>
        <time>2021-09-04T13:11:00Z</time>
      </trkpt>
      <trkpt lat="44.19524" lon="5.31733">
        <ele>416.39999389648</ele>
        <time>2021-09-04T13:11:01Z</time>
      </trkpt>
      <trkpt lat="44.19525" lon="5.31688">
        <ele>415.39999389648</ele>
        <time>2021-09-04T13:11:05Z</time>
      </trkpt>
      <trkpt lat="44.19526" lon="5.31666">
        <ele>414.79998779297</ele>
        <time>2021-09-04T13:11:07Z</time>
      </trkpt>
      <trkpt lat="44.1953" lon="5.31631">
        <ele>414.20001220703</ele>
        <time>2021-09-04T13:11:10Z</time>
      </trkpt>
      <trkpt lat="44.19538" lon="5.31598">
        <ele>413.39999389648</ele>
        <time>2021-09-04T13:11:13Z</time>
      </trkpt>
      <trkpt lat="44.19546" lon="5.31578">
        <ele>413</ele>
        <time>2021-09-04T13:11:15Z</time>
      </trkpt>
      <trkpt lat="44.19563" lon="5.31539">
        <ele>412.39999389648</ele>
        <time>2021-09-04T13:11:19Z</time>
      </trkpt>
      <trkpt lat="44.19571" lon="5.3152">
        <ele>412.20001220703</ele>
        <time>2021-09-04T13:11:21Z</time>
      </trkpt>
      <trkpt lat="44.19575" lon="5.3151">
        <ele>412</ele>
        <time>2021-09-04T13:11:22Z</time>
      </trkpt>
      <trkpt lat="44.19602" lon="5.31442">
        <ele>411</ele>
        <time>2021-09-04T13:11:29Z</time>
      </trkpt>
      <trkpt lat="44.19632" lon="5.31379">
        <ele>409.79998779297</ele>
        <time>2021-09-04T13:11:36Z</time>
      </trkpt>
      <trkpt lat="44.1966" lon="5.31343">
        <ele>409.39999389648</ele>
        <time>2021-09-04T13:11:41Z</time>
      </trkpt>
      <trkpt lat="44.19688" lon="5.31308">
        <ele>409</ele>
        <time>2021-09-04T13:11:46Z</time>
      </trkpt>
      <trkpt lat="44.19693" lon="5.31299">
        <ele>408.79998779297</ele>
        <time>2021-09-04T13:11:47Z</time>
      </trkpt>
      <trkpt lat="44.19696" lon="5.3129">
        <ele>408.79998779297</ele>
        <time>2021-09-04T13:11:48Z</time>
      </trkpt>
      <trkpt lat="44.19702" lon="5.31272">
        <ele>408.60000610352</ele>
        <time>2021-09-04T13:11:50Z</time>
      </trkpt>
      <trkpt lat="44.19713" lon="5.31234">
        <ele>408.39999389648</ele>
        <time>2021-09-04T13:11:54Z</time>
      </trkpt>
      <trkpt lat="44.19716" lon="5.31214">
        <ele>408.20001220703</ele>
        <time>2021-09-04T13:11:56Z</time>
      </trkpt>
      <trkpt lat="44.19717" lon="5.31194">
        <ele>407.79998779297</ele>
        <time>2021-09-04T13:11:58Z</time>
      </trkpt>
      <trkpt lat="44.19718" lon="5.31184">
        <ele>407.79998779297</ele>
        <time>2021-09-04T13:11:59Z</time>
      </trkpt>
      <trkpt lat="44.19729" lon="5.31134">
        <ele>407.39999389648</ele>
        <time>2021-09-04T13:12:04Z</time>
      </trkpt>
      <trkpt lat="44.19733" lon="5.31125">
        <ele>407.20001220703</ele>
        <time>2021-09-04T13:12:05Z</time>
      </trkpt>
      <trkpt lat="44.19748" lon="5.311">
        <ele>406.79998779297</ele>
        <time>2021-09-04T13:12:08Z</time>
      </trkpt>
      <trkpt lat="44.19753" lon="5.31092">
        <ele>406.60000610352</ele>
        <time>2021-09-04T13:12:09Z</time>
      </trkpt>
      <trkpt lat="44.19791" lon="5.3103">
        <ele>406</ele>
        <time>2021-09-04T13:12:17Z</time>
      </trkpt>
      <trkpt lat="44.19798" lon="5.31012">
        <ele>405.79998779297</ele>
        <time>2021-09-04T13:12:19Z</time>
      </trkpt>
      <trkpt lat="44.19803" lon="5.30994">
        <ele>405.79998779297</ele>
        <time>2021-09-04T13:12:21Z</time>
      </trkpt>
      <trkpt lat="44.19805" lon="5.30985">
        <ele>405.60000610352</ele>
        <time>2021-09-04T13:12:22Z</time>
      </trkpt>
      <trkpt lat="44.19819" lon="5.30919">
        <ele>405.20001220703</ele>
        <time>2021-09-04T13:12:29Z</time>
      </trkpt>
      <trkpt lat="44.19836" lon="5.30876">
        <ele>404.79998779297</ele>
        <time>2021-09-04T13:12:34Z</time>
      </trkpt>
      <trkpt lat="44.19841" lon="5.30858">
        <ele>404.60000610352</ele>
        <time>2021-09-04T13:12:36Z</time>
      </trkpt>
      <trkpt lat="44.19857" lon="5.30792">
        <ele>404</ele>
        <time>2021-09-04T13:12:43Z</time>
      </trkpt>
      <trkpt lat="44.19866" lon="5.30754">
        <ele>403.79998779297</ele>
        <time>2021-09-04T13:12:47Z</time>
      </trkpt>
      <trkpt lat="44.19878" lon="5.30707">
        <ele>403.20001220703</ele>
        <time>2021-09-04T13:12:52Z</time>
      </trkpt>
      <trkpt lat="44.19901" lon="5.30649">
        <ele>403.20001220703</ele>
        <time>2021-09-04T13:12:59Z</time>
      </trkpt>
      <trkpt lat="44.19918" lon="5.30608">
        <ele>403</ele>
        <time>2021-09-04T13:13:04Z</time>
      </trkpt>
      <trkpt lat="44.1992" lon="5.30591">
        <ele>403</ele>
        <time>2021-09-04T13:13:06Z</time>
      </trkpt>
      <trkpt lat="44.19918" lon="5.30557">
        <ele>403.20001220703</ele>
        <time>2021-09-04T13:13:10Z</time>
      </trkpt>
      <trkpt lat="44.19908" lon="5.30535">
        <ele>403.39999389648</ele>
        <time>2021-09-04T13:13:13Z</time>
      </trkpt>
      <trkpt lat="44.19904" lon="5.30528">
        <ele>403.39999389648</ele>
        <time>2021-09-04T13:13:14Z</time>
      </trkpt>
      <trkpt lat="44.199" lon="5.3052">
        <ele>403.60000610352</ele>
        <time>2021-09-04T13:13:15Z</time>
      </trkpt>
      <trkpt lat="44.19893" lon="5.30501">
        <ele>403.60000610352</ele>
        <time>2021-09-04T13:13:17Z</time>
      </trkpt>
      <trkpt lat="44.1989" lon="5.30491">
        <ele>403.60000610352</ele>
        <time>2021-09-04T13:13:18Z</time>
      </trkpt>
      <trkpt lat="44.19893" lon="5.30457">
        <ele>403.20001220703</ele>
        <time>2021-09-04T13:13:21Z</time>
      </trkpt>
      <trkpt lat="44.19901" lon="5.30436">
        <ele>402.79998779297</ele>
        <time>2021-09-04T13:13:23Z</time>
      </trkpt>
      <trkpt lat="44.19905" lon="5.30425">
        <ele>402.39999389648</ele>
        <time>2021-09-04T13:13:24Z</time>
      </trkpt>
      <trkpt lat="44.1991" lon="5.30414">
        <ele>402.20001220703</ele>
        <time>2021-09-04T13:13:25Z</time>
      </trkpt>
      <trkpt lat="44.19918" lon="5.30392">
        <ele>401.39999389648</ele>
        <time>2021-09-04T13:13:27Z</time>
      </trkpt>
      <trkpt lat="44.19936" lon="5.30337">
        <ele>400.20001220703</ele>
        <time>2021-09-04T13:13:32Z</time>
      </trkpt>
      <trkpt lat="44.19938" lon="5.30325">
        <ele>400</ele>
        <time>2021-09-04T13:13:33Z</time>
      </trkpt>
      <trkpt lat="44.19937" lon="5.30291">
        <ele>399.39999389648</ele>
        <time>2021-09-04T13:13:36Z</time>
      </trkpt>
      <trkpt lat="44.19936" lon="5.3028">
        <ele>399.39999389648</ele>
        <time>2021-09-04T13:13:37Z</time>
      </trkpt>
      <trkpt lat="44.19934" lon="5.30259">
        <ele>399.20001220703</ele>
        <time>2021-09-04T13:13:39Z</time>
      </trkpt>
      <trkpt lat="44.19934" lon="5.30248">
        <ele>399.20001220703</ele>
        <time>2021-09-04T13:13:40Z</time>
      </trkpt>
      <trkpt lat="44.19936" lon="5.30228">
        <ele>399.20001220703</ele>
        <time>2021-09-04T13:13:42Z</time>
      </trkpt>
      <trkpt lat="44.19945" lon="5.30183">
        <ele>399.20001220703</ele>
        <time>2021-09-04T13:13:47Z</time>
      </trkpt>
      <trkpt lat="44.19948" lon="5.30175">
        <ele>399.20001220703</ele>
        <time>2021-09-04T13:13:48Z</time>
      </trkpt>
      <trkpt lat="44.19962" lon="5.30142">
        <ele>399.20001220703</ele>
        <time>2021-09-04T13:13:52Z</time>
      </trkpt>
      <trkpt lat="44.19969" lon="5.30124">
        <ele>398.79998779297</ele>
        <time>2021-09-04T13:13:54Z</time>
      </trkpt>
      <trkpt lat="44.19971" lon="5.30102">
        <ele>398.20001220703</ele>
        <time>2021-09-04T13:13:56Z</time>
      </trkpt>
      <trkpt lat="44.19969" lon="5.30091">
        <ele>398</ele>
        <time>2021-09-04T13:13:57Z</time>
      </trkpt>
      <trkpt lat="44.19964" lon="5.30068">
        <ele>397.39999389648</ele>
        <time>2021-09-04T13:13:59Z</time>
      </trkpt>
      <trkpt lat="44.1996" lon="5.30045">
        <ele>396.79998779297</ele>
        <time>2021-09-04T13:14:01Z</time>
      </trkpt>
      <trkpt lat="44.1996" lon="5.30023">
        <ele>396</ele>
        <time>2021-09-04T13:14:03Z</time>
      </trkpt>
      <trkpt lat="44.19965" lon="5.30002">
        <ele>395.60000610352</ele>
        <time>2021-09-04T13:14:05Z</time>
      </trkpt>
      <trkpt lat="44.19968" lon="5.2998">
        <ele>395</ele>
        <time>2021-09-04T13:14:07Z</time>
      </trkpt>
      <trkpt lat="44.19971" lon="5.29913">
        <ele>394.60000610352</ele>
        <time>2021-09-04T13:14:13Z</time>
      </trkpt>
      <trkpt lat="44.19973" lon="5.29902">
        <ele>394.20001220703</ele>
        <time>2021-09-04T13:14:14Z</time>
      </trkpt>
      <trkpt lat="44.1998" lon="5.29849">
        <ele>393.60000610352</ele>
        <time>2021-09-04T13:14:19Z</time>
      </trkpt>
      <trkpt lat="44.19988" lon="5.29799">
        <ele>393.20001220703</ele>
        <time>2021-09-04T13:14:24Z</time>
      </trkpt>
      <trkpt lat="44.19991" lon="5.2979">
        <ele>393.20001220703</ele>
        <time>2021-09-04T13:14:25Z</time>
      </trkpt>
      <trkpt lat="44.19997" lon="5.29771">
        <ele>393</ele>
        <time>2021-09-04T13:14:27Z</time>
      </trkpt>
      <trkpt lat="44.20023" lon="5.29697">
        <ele>392.79998779297</ele>
        <time>2021-09-04T13:14:35Z</time>
      </trkpt>
      <trkpt lat="44.20035" lon="5.29638">
        <ele>392.20001220703</ele>
        <time>2021-09-04T13:14:41Z</time>
      </trkpt>
      <trkpt lat="44.20049" lon="5.29559">
        <ele>391.60000610352</ele>
        <time>2021-09-04T13:14:49Z</time>
      </trkpt>
      <trkpt lat="44.20053" lon="5.29539">
        <ele>391.60000610352</ele>
        <time>2021-09-04T13:14:51Z</time>
      </trkpt>
      <trkpt lat="44.2006" lon="5.29509">
        <ele>391</ele>
        <time>2021-09-04T13:14:54Z</time>
      </trkpt>
      <trkpt lat="44.20072" lon="5.29469">
        <ele>390.60000610352</ele>
        <time>2021-09-04T13:14:58Z</time>
      </trkpt>
      <trkpt lat="44.20086" lon="5.29431">
        <ele>389.79998779297</ele>
        <time>2021-09-04T13:15:02Z</time>
      </trkpt>
      <trkpt lat="44.20101" lon="5.29394">
        <ele>389.39999389648</ele>
        <time>2021-09-04T13:15:06Z</time>
      </trkpt>
      <trkpt lat="44.20108" lon="5.29376">
        <ele>389.39999389648</ele>
        <time>2021-09-04T13:15:08Z</time>
      </trkpt>
      <trkpt lat="44.2013" lon="5.29318">
        <ele>389.20001220703</ele>
        <time>2021-09-04T13:15:14Z</time>
      </trkpt>
      <trkpt lat="44.20141" lon="5.2929">
        <ele>388.79998779297</ele>
        <time>2021-09-04T13:15:17Z</time>
      </trkpt>
      <trkpt lat="44.20162" lon="5.29242">
        <ele>388.20001220703</ele>
        <time>2021-09-04T13:15:22Z</time>
      </trkpt>
      <trkpt lat="44.20166" lon="5.29233">
        <ele>388.20001220703</ele>
        <time>2021-09-04T13:15:23Z</time>
      </trkpt>
      <trkpt lat="44.20184" lon="5.29209">
        <ele>387.60000610352</ele>
        <time>2021-09-04T13:15:26Z</time>
      </trkpt>
      <trkpt lat="44.20225" lon="5.29173">
        <ele>387.20001220703</ele>
        <time>2021-09-04T13:15:32Z</time>
      </trkpt>
      <trkpt lat="44.20272" lon="5.29133">
        <ele>386.79998779297</ele>
        <time>2021-09-04T13:15:39Z</time>
      </trkpt>
      <trkpt lat="44.2029" lon="5.29114">
        <ele>386.60000610352</ele>
        <time>2021-09-04T13:15:42Z</time>
      </trkpt>
      <trkpt lat="44.20306" lon="5.29092">
        <ele>386.60000610352</ele>
        <time>2021-09-04T13:15:45Z</time>
      </trkpt>
      <trkpt lat="44.2031" lon="5.29083">
        <ele>386.60000610352</ele>
        <time>2021-09-04T13:15:46Z</time>
      </trkpt>
      <trkpt lat="44.20316" lon="5.29063">
        <ele>386.60000610352</ele>
        <time>2021-09-04T13:15:48Z</time>
      </trkpt>
      <trkpt lat="44.20335" lon="5.28991">
        <ele>386.39999389648</ele>
        <time>2021-09-04T13:15:55Z</time>
      </trkpt>
      <trkpt lat="44.2034" lon="5.28969">
        <ele>386</ele>
        <time>2021-09-04T13:15:57Z</time>
      </trkpt>
      <trkpt lat="44.20348" lon="5.28937">
        <ele>385.60000610352</ele>
        <time>2021-09-04T13:16:00Z</time>
      </trkpt>
      <trkpt lat="44.2036" lon="5.28897">
        <ele>385.20001220703</ele>
        <time>2021-09-04T13:16:04Z</time>
      </trkpt>
      <trkpt lat="44.20381" lon="5.28827">
        <ele>384.60000610352</ele>
        <time>2021-09-04T13:16:11Z</time>
      </trkpt>
      <trkpt lat="44.20387" lon="5.28808">
        <ele>384.39999389648</ele>
        <time>2021-09-04T13:16:13Z</time>
      </trkpt>
      <trkpt lat="44.20411" lon="5.28731">
        <ele>383.60000610352</ele>
        <time>2021-09-04T13:16:21Z</time>
      </trkpt>
      <trkpt lat="44.20415" lon="5.28722">
        <ele>383.39999389648</ele>
        <time>2021-09-04T13:16:22Z</time>
      </trkpt>
      <trkpt lat="44.20438" lon="5.28682">
        <ele>383.20001220703</ele>
        <time>2021-09-04T13:16:27Z</time>
      </trkpt>
      <trkpt lat="44.20478" lon="5.28621">
        <ele>383</ele>
        <time>2021-09-04T13:16:35Z</time>
      </trkpt>
      <trkpt lat="44.20508" lon="5.28564">
        <ele>382.79998779297</ele>
        <time>2021-09-04T13:16:42Z</time>
      </trkpt>
      <trkpt lat="44.20522" lon="5.28538">
        <ele>382.39999389648</ele>
        <time>2021-09-04T13:16:45Z</time>
      </trkpt>
      <trkpt lat="44.20544" lon="5.28496">
        <ele>381.60000610352</ele>
        <time>2021-09-04T13:16:50Z</time>
      </trkpt>
      <trkpt lat="44.20548" lon="5.28487">
        <ele>381.39999389648</ele>
        <time>2021-09-04T13:16:51Z</time>
      </trkpt>
      <trkpt lat="44.20579" lon="5.28441">
        <ele>380.60000610352</ele>
        <time>2021-09-04T13:16:57Z</time>
      </trkpt>
      <trkpt lat="44.20601" lon="5.2843">
        <ele>380.39999389648</ele>
        <time>2021-09-04T13:17:00Z</time>
      </trkpt>
      <trkpt lat="44.20652" lon="5.28404">
        <ele>380</ele>
        <time>2021-09-04T13:17:07Z</time>
      </trkpt>
      <trkpt lat="44.20659" lon="5.28397">
        <ele>379.79998779297</ele>
        <time>2021-09-04T13:17:08Z</time>
      </trkpt>
      <trkpt lat="44.20673" lon="5.2837">
        <ele>379.60000610352</ele>
        <time>2021-09-04T13:17:11Z</time>
      </trkpt>
      <trkpt lat="44.20677" lon="5.2836">
        <ele>379.39999389648</ele>
        <time>2021-09-04T13:17:12Z</time>
      </trkpt>
      <trkpt lat="44.20681" lon="5.2835">
        <ele>379.20001220703</ele>
        <time>2021-09-04T13:17:13Z</time>
      </trkpt>
      <trkpt lat="44.20693" lon="5.28308">
        <ele>378.60000610352</ele>
        <time>2021-09-04T13:17:17Z</time>
      </trkpt>
      <trkpt lat="44.20715" lon="5.28237">
        <ele>378.20001220703</ele>
        <time>2021-09-04T13:17:24Z</time>
      </trkpt>
      <trkpt lat="44.20719" lon="5.28227">
        <ele>378</ele>
        <time>2021-09-04T13:17:25Z</time>
      </trkpt>
      <trkpt lat="44.20746" lon="5.28161">
        <ele>377.39999389648</ele>
        <time>2021-09-04T13:17:32Z</time>
      </trkpt>
      <trkpt lat="44.20754" lon="5.28143">
        <ele>377.20001220703</ele>
        <time>2021-09-04T13:17:34Z</time>
      </trkpt>
      <trkpt lat="44.20762" lon="5.28124">
        <ele>377</ele>
        <time>2021-09-04T13:17:36Z</time>
      </trkpt>
      <trkpt lat="44.20789" lon="5.28068">
        <ele>376.39999389648</ele>
        <time>2021-09-04T13:17:42Z</time>
      </trkpt>
      <trkpt lat="44.20808" lon="5.28021">
        <ele>376</ele>
        <time>2021-09-04T13:17:47Z</time>
      </trkpt>
      <trkpt lat="44.2082" lon="5.27994">
        <ele>375.79998779297</ele>
        <time>2021-09-04T13:17:50Z</time>
      </trkpt>
      <trkpt lat="44.20848" lon="5.27936">
        <ele>375.60000610352</ele>
        <time>2021-09-04T13:17:57Z</time>
      </trkpt>
      <trkpt lat="44.20853" lon="5.27929">
        <ele>375.60000610352</ele>
        <time>2021-09-04T13:17:58Z</time>
      </trkpt>
      <trkpt lat="44.20868" lon="5.27911">
        <ele>375.79998779297</ele>
        <time>2021-09-04T13:18:01Z</time>
      </trkpt>
      <trkpt lat="44.2088" lon="5.27903">
        <ele>375.79998779297</ele>
        <time>2021-09-04T13:18:03Z</time>
      </trkpt>
      <trkpt lat="44.20892" lon="5.27897">
        <ele>376</ele>
        <time>2021-09-04T13:18:05Z</time>
      </trkpt>
      <trkpt lat="44.20909" lon="5.27893">
        <ele>376.20001220703</ele>
        <time>2021-09-04T13:18:08Z</time>
      </trkpt>
      <trkpt lat="44.20934" lon="5.27889">
        <ele>377</ele>
        <time>2021-09-04T13:18:13Z</time>
      </trkpt>
      <trkpt lat="44.20939" lon="5.27888">
        <ele>377.39999389648</ele>
        <time>2021-09-04T13:18:14Z</time>
      </trkpt>
      <trkpt lat="44.20955" lon="5.27887">
        <ele>378</ele>
        <time>2021-09-04T13:18:18Z</time>
      </trkpt>
      <trkpt lat="44.20962" lon="5.27885">
        <ele>378.39999389648</ele>
        <time>2021-09-04T13:18:20Z</time>
      </trkpt>
      <trkpt lat="44.20973" lon="5.27885">
        <ele>379.20001220703</ele>
        <time>2021-09-04T13:18:24Z</time>
      </trkpt>
      <trkpt lat="44.20976" lon="5.27884">
        <ele>379.39999389648</ele>
        <time>2021-09-04T13:18:25Z</time>
      </trkpt>
      <trkpt lat="44.20986" lon="5.27883">
        <ele>380.39999389648</ele>
        <time>2021-09-04T13:18:29Z</time>
      </trkpt>
      <trkpt lat="44.20999" lon="5.27881">
        <ele>381.20001220703</ele>
        <time>2021-09-04T13:18:34Z</time>
      </trkpt>
      <trkpt lat="44.21007" lon="5.27879">
        <ele>381.39999389648</ele>
        <time>2021-09-04T13:18:37Z</time>
      </trkpt>
      <trkpt lat="44.21021" lon="5.27872">
        <ele>382.39999389648</ele>
        <time>2021-09-04T13:18:42Z</time>
      </trkpt>
      <trkpt lat="44.21023" lon="5.27871">
        <ele>382.39999389648</ele>
        <time>2021-09-04T13:18:43Z</time>
      </trkpt>
      <trkpt lat="44.21042" lon="5.27856">
        <ele>383.39999389648</ele>
        <time>2021-09-04T13:18:51Z</time>
      </trkpt>
      <trkpt lat="44.21045" lon="5.27854">
        <ele>383.39999389648</ele>
        <time>2021-09-04T13:18:52Z</time>
      </trkpt>
      <trkpt lat="44.21061" lon="5.27836">
        <ele>384.60000610352</ele>
        <time>2021-09-04T13:19:00Z</time>
      </trkpt>
      <trkpt lat="44.21075" lon="5.27817">
        <ele>385.60000610352</ele>
        <time>2021-09-04T13:19:07Z</time>
      </trkpt>
      <trkpt lat="44.21089" lon="5.27798">
        <ele>386.79998779297</ele>
        <time>2021-09-04T13:19:14Z</time>
      </trkpt>
      <trkpt lat="44.21092" lon="5.27792">
        <ele>387</ele>
        <time>2021-09-04T13:19:16Z</time>
      </trkpt>
      <trkpt lat="44.21101" lon="5.27778">
        <ele>387.79998779297</ele>
        <time>2021-09-04T13:19:21Z</time>
      </trkpt>
      <trkpt lat="44.21104" lon="5.27773">
        <ele>388</ele>
        <time>2021-09-04T13:19:23Z</time>
      </trkpt>
      <trkpt lat="44.2111" lon="5.27762">
        <ele>388.79998779297</ele>
        <time>2021-09-04T13:19:27Z</time>
      </trkpt>
      <trkpt lat="44.21116" lon="5.27753">
        <ele>389.20001220703</ele>
        <time>2021-09-04T13:19:30Z</time>
      </trkpt>
      <trkpt lat="44.21122" lon="5.27742">
        <ele>389.79998779297</ele>
        <time>2021-09-04T13:19:35Z</time>
      </trkpt>
      <trkpt lat="44.21128" lon="5.2773">
        <ele>390.39999389648</ele>
        <time>2021-09-04T13:19:39Z</time>
      </trkpt>
      <trkpt lat="44.21133" lon="5.27722">
        <ele>390.79998779297</ele>
        <time>2021-09-04T13:19:42Z</time>
      </trkpt>
      <trkpt lat="44.21141" lon="5.27708">
        <ele>391.60000610352</ele>
        <time>2021-09-04T13:19:47Z</time>
      </trkpt>
      <trkpt lat="44.21147" lon="5.27697">
        <ele>392</ele>
        <time>2021-09-04T13:19:51Z</time>
      </trkpt>
      <trkpt lat="44.21154" lon="5.27685">
        <ele>392.60000610352</ele>
        <time>2021-09-04T13:19:55Z</time>
      </trkpt>
      <trkpt lat="44.2116" lon="5.27673">
        <ele>393.20001220703</ele>
        <time>2021-09-04T13:19:59Z</time>
      </trkpt>
      <trkpt lat="44.21165" lon="5.27658">
        <ele>393.60000610352</ele>
        <time>2021-09-04T13:20:03Z</time>
      </trkpt>
      <trkpt lat="44.21168" lon="5.27647">
        <ele>394.20001220703</ele>
        <time>2021-09-04T13:20:06Z</time>
      </trkpt>
      <trkpt lat="44.21172" lon="5.27628">
        <ele>394.79998779297</ele>
        <time>2021-09-04T13:20:11Z</time>
      </trkpt>
      <trkpt lat="44.21174" lon="5.2762">
        <ele>395.20001220703</ele>
        <time>2021-09-04T13:20:13Z</time>
      </trkpt>
      <trkpt lat="44.21175" lon="5.27597">
        <ele>396.20001220703</ele>
        <time>2021-09-04T13:20:19Z</time>
      </trkpt>
      <trkpt lat="44.21175" lon="5.27573">
        <ele>396.79998779297</ele>
        <time>2021-09-04T13:20:24Z</time>
      </trkpt>
      <trkpt lat="44.21182" lon="5.27545">
        <ele>396.60000610352</ele>
        <time>2021-09-04T13:20:28Z</time>
      </trkpt>
      <trkpt lat="44.21184" lon="5.27538">
        <ele>396.39999389648</ele>
        <time>2021-09-04T13:20:29Z</time>
      </trkpt>
      <trkpt lat="44.21188" lon="5.27531">
        <ele>396.20001220703</ele>
        <time>2021-09-04T13:20:30Z</time>
      </trkpt>
      <trkpt lat="44.21203" lon="5.27512">
        <ele>395.39999389648</ele>
        <time>2021-09-04T13:20:33Z</time>
      </trkpt>
      <trkpt lat="44.21209" lon="5.27507">
        <ele>395</ele>
        <time>2021-09-04T13:20:34Z</time>
      </trkpt>
      <trkpt lat="44.21228" lon="5.27488">
        <ele>393.79998779297</ele>
        <time>2021-09-04T13:20:37Z</time>
      </trkpt>
      <trkpt lat="44.21233" lon="5.27482">
        <ele>393.39999389648</ele>
        <time>2021-09-04T13:20:38Z</time>
      </trkpt>
      <trkpt lat="44.21239" lon="5.27477">
        <ele>392.39999389648</ele>
        <time>2021-09-04T13:20:39Z</time>
      </trkpt>
      <trkpt lat="44.21251" lon="5.27464">
        <ele>391.39999389648</ele>
        <time>2021-09-04T13:20:41Z</time>
      </trkpt>
      <trkpt lat="44.21255" lon="5.27457">
        <ele>391</ele>
        <time>2021-09-04T13:20:42Z</time>
      </trkpt>
      <trkpt lat="44.2126" lon="5.27448">
        <ele>390.60000610352</ele>
        <time>2021-09-04T13:20:43Z</time>
      </trkpt>
      <trkpt lat="44.21272" lon="5.27422">
        <ele>389.79998779297</ele>
        <time>2021-09-04T13:20:46Z</time>
      </trkpt>
      <trkpt lat="44.21276" lon="5.27412">
        <ele>389.60000610352</ele>
        <time>2021-09-04T13:20:47Z</time>
      </trkpt>
      <trkpt lat="44.21281" lon="5.27392">
        <ele>389.20001220703</ele>
        <time>2021-09-04T13:20:49Z</time>
      </trkpt>
      <trkpt lat="44.21286" lon="5.27372">
        <ele>388.60000610352</ele>
        <time>2021-09-04T13:20:51Z</time>
      </trkpt>
      <trkpt lat="44.21299" lon="5.27321">
        <ele>387.79998779297</ele>
        <time>2021-09-04T13:20:56Z</time>
      </trkpt>
      <trkpt lat="44.21305" lon="5.27301">
        <ele>387.60000610352</ele>
        <time>2021-09-04T13:20:58Z</time>
      </trkpt>
      <trkpt lat="44.21322" lon="5.27233">
        <ele>386.79998779297</ele>
        <time>2021-09-04T13:21:05Z</time>
      </trkpt>
      <trkpt lat="44.21342" lon="5.27169">
        <ele>386.79998779297</ele>
        <time>2021-09-04T13:21:12Z</time>
      </trkpt>
      <trkpt lat="44.21364" lon="5.27121">
        <ele>386.79998779297</ele>
        <time>2021-09-04T13:21:18Z</time>
      </trkpt>
      <trkpt lat="44.21379" lon="5.2709">
        <ele>386.79998779297</ele>
        <time>2021-09-04T13:21:22Z</time>
      </trkpt>
      <trkpt lat="44.21384" lon="5.27074">
        <ele>387</ele>
        <time>2021-09-04T13:21:24Z</time>
      </trkpt>
      <trkpt lat="44.21387" lon="5.27049">
        <ele>387.20001220703</ele>
        <time>2021-09-04T13:21:27Z</time>
      </trkpt>
      <trkpt lat="44.21389" lon="5.27032">
        <ele>387.39999389648</ele>
        <time>2021-09-04T13:21:29Z</time>
      </trkpt>
      <trkpt lat="44.21401" lon="5.26977">
        <ele>387.60000610352</ele>
        <time>2021-09-04T13:21:36Z</time>
      </trkpt>
      <trkpt lat="44.21419" lon="5.26913">
        <ele>388.60000610352</ele>
        <time>2021-09-04T13:21:45Z</time>
      </trkpt>
      <trkpt lat="44.21421" lon="5.26906">
        <ele>388.60000610352</ele>
        <time>2021-09-04T13:21:46Z</time>
      </trkpt>
      <trkpt lat="44.21434" lon="5.26852">
        <ele>389.79998779297</ele>
        <time>2021-09-04T13:21:54Z</time>
      </trkpt>
      <trkpt lat="44.21436" lon="5.26845">
        <ele>389.79998779297</ele>
        <time>2021-09-04T13:21:55Z</time>
      </trkpt>
      <trkpt lat="44.21452" lon="5.26782">
        <ele>390.39999389648</ele>
        <time>2021-09-04T13:22:04Z</time>
      </trkpt>
      <trkpt lat="44.2146" lon="5.26739">
        <ele>390.79998779297</ele>
        <time>2021-09-04T13:22:10Z</time>
      </trkpt>
      <trkpt lat="44.21461" lon="5.26724">
        <ele>390.79998779297</ele>
        <time>2021-09-04T13:22:12Z</time>
      </trkpt>
      <trkpt lat="44.21465" lon="5.2665">
        <ele>391</ele>
        <time>2021-09-04T13:22:22Z</time>
      </trkpt>
      <trkpt lat="44.21468" lon="5.26589">
        <ele>391.39999389648</ele>
        <time>2021-09-04T13:22:31Z</time>
      </trkpt>
      <trkpt lat="44.2147" lon="5.2657">
        <ele>391.79998779297</ele>
        <time>2021-09-04T13:22:34Z</time>
      </trkpt>
      <trkpt lat="44.2147" lon="5.26542">
        <ele>392.60000610352</ele>
        <time>2021-09-04T13:22:39Z</time>
      </trkpt>
      <trkpt lat="44.21471" lon="5.26532">
        <ele>392.79998779297</ele>
        <time>2021-09-04T13:22:41Z</time>
      </trkpt>
      <trkpt lat="44.21473" lon="5.26501">
        <ele>393.60000610352</ele>
        <time>2021-09-04T13:22:47Z</time>
      </trkpt>
      <trkpt lat="44.21473" lon="5.26491">
        <ele>394</ele>
        <time>2021-09-04T13:22:49Z</time>
      </trkpt>
      <trkpt lat="44.21474" lon="5.26468">
        <ele>395</ele>
        <time>2021-09-04T13:22:54Z</time>
      </trkpt>
      <trkpt lat="44.21474" lon="5.26452">
        <ele>395.79998779297</ele>
        <time>2021-09-04T13:22:58Z</time>
      </trkpt>
      <trkpt lat="44.21474" lon="5.26443">
        <ele>396.20001220703</ele>
        <time>2021-09-04T13:23:00Z</time>
      </trkpt>
      <trkpt lat="44.21473" lon="5.26425">
        <ele>397.20001220703</ele>
        <time>2021-09-04T13:23:05Z</time>
      </trkpt>
      <trkpt lat="44.21471" lon="5.264">
        <ele>398</ele>
        <time>2021-09-04T13:23:11Z</time>
      </trkpt>
      <trkpt lat="44.2147" lon="5.26392">
        <ele>398.20001220703</ele>
        <time>2021-09-04T13:23:13Z</time>
      </trkpt>
      <trkpt lat="44.21472" lon="5.26368">
        <ele>398.79998779297</ele>
        <time>2021-09-04T13:23:19Z</time>
      </trkpt>
      <trkpt lat="44.21477" lon="5.26352">
        <ele>399.20001220703</ele>
        <time>2021-09-04T13:23:23Z</time>
      </trkpt>
      <trkpt lat="44.21482" lon="5.26342">
        <ele>399.60000610352</ele>
        <time>2021-09-04T13:23:26Z</time>
      </trkpt>
      <trkpt lat="44.21492" lon="5.26328">
        <ele>400.39999389648</ele>
        <time>2021-09-04T13:23:31Z</time>
      </trkpt>
      <trkpt lat="44.21496" lon="5.26322">
        <ele>400.79998779297</ele>
        <time>2021-09-04T13:23:33Z</time>
      </trkpt>
      <trkpt lat="44.21508" lon="5.26304">
        <ele>401.39999389648</ele>
        <time>2021-09-04T13:23:39Z</time>
      </trkpt>
      <trkpt lat="44.21511" lon="5.26297">
        <ele>401.60000610352</ele>
        <time>2021-09-04T13:23:41Z</time>
      </trkpt>
      <trkpt lat="44.21524" lon="5.26273">
        <ele>402.60000610352</ele>
        <time>2021-09-04T13:23:48Z</time>
      </trkpt>
      <trkpt lat="44.21526" lon="5.2627">
        <ele>402.60000610352</ele>
        <time>2021-09-04T13:23:49Z</time>
      </trkpt>
      <trkpt lat="44.21541" lon="5.26245">
        <ele>403.60000610352</ele>
        <time>2021-09-04T13:23:56Z</time>
      </trkpt>
      <trkpt lat="44.21544" lon="5.26242">
        <ele>403.60000610352</ele>
        <time>2021-09-04T13:23:57Z</time>
      </trkpt>
      <trkpt lat="44.21561" lon="5.26219">
        <ele>404.60000610352</ele>
        <time>2021-09-04T13:24:04Z</time>
      </trkpt>
      <trkpt lat="44.21562" lon="5.26215">
        <ele>404.79998779297</ele>
        <time>2021-09-04T13:24:05Z</time>
      </trkpt>
      <trkpt lat="44.21561" lon="5.26201">
        <ele>405</ele>
        <time>2021-09-04T13:24:08Z</time>
      </trkpt>
      <trkpt lat="44.21555" lon="5.26168">
        <ele>405.79998779297</ele>
        <time>2021-09-04T13:24:15Z</time>
      </trkpt>
      <trkpt lat="44.21555" lon="5.26137">
        <ele>406.39999389648</ele>
        <time>2021-09-04T13:24:22Z</time>
      </trkpt>
      <trkpt lat="44.21558" lon="5.26123">
        <ele>406.79998779297</ele>
        <time>2021-09-04T13:24:25Z</time>
      </trkpt>
      <trkpt lat="44.21563" lon="5.26103">
        <ele>407.79998779297</ele>
        <time>2021-09-04T13:24:30Z</time>
      </trkpt>
      <trkpt lat="44.21564" lon="5.261">
        <ele>407.79998779297</ele>
        <time>2021-09-04T13:24:31Z</time>
      </trkpt>
      <trkpt lat="44.21572" lon="5.26071">
        <ele>409</ele>
        <time>2021-09-04T13:24:38Z</time>
      </trkpt>
      <trkpt lat="44.21575" lon="5.26063">
        <ele>409.39999389648</ele>
        <time>2021-09-04T13:24:40Z</time>
      </trkpt>
      <trkpt lat="44.21584" lon="5.26044">
        <ele>410.20001220703</ele>
        <time>2021-09-04T13:24:45Z</time>
      </trkpt>
      <trkpt lat="44.21591" lon="5.26028">
        <ele>410.60000610352</ele>
        <time>2021-09-04T13:24:49Z</time>
      </trkpt>
      <trkpt lat="44.21598" lon="5.26013">
        <ele>411.20001220703</ele>
        <time>2021-09-04T13:24:53Z</time>
      </trkpt>
      <trkpt lat="44.21605" lon="5.25992">
        <ele>411.79998779297</ele>
        <time>2021-09-04T13:24:58Z</time>
      </trkpt>
      <trkpt lat="44.2161" lon="5.25975">
        <ele>412.20001220703</ele>
        <time>2021-09-04T13:25:02Z</time>
      </trkpt>
      <trkpt lat="44.21617" lon="5.25949">
        <ele>413.39999389648</ele>
        <time>2021-09-04T13:25:08Z</time>
      </trkpt>
      <trkpt lat="44.21622" lon="5.25917">
        <ele>414.20001220703</ele>
        <time>2021-09-04T13:25:15Z</time>
      </trkpt>
      <trkpt lat="44.21622" lon="5.25907">
        <ele>414.39999389648</ele>
        <time>2021-09-04T13:25:17Z</time>
      </trkpt>
      <trkpt lat="44.2162" lon="5.25876">
        <ele>415</ele>
        <time>2021-09-04T13:25:23Z</time>
      </trkpt>
      <trkpt lat="44.2162" lon="5.25851">
        <ele>415.39999389648</ele>
        <time>2021-09-04T13:25:28Z</time>
      </trkpt>
      <trkpt lat="44.2162" lon="5.25841">
        <ele>415.60000610352</ele>
        <time>2021-09-04T13:25:30Z</time>
      </trkpt>
      <trkpt lat="44.21625" lon="5.25803">
        <ele>416.60000610352</ele>
        <time>2021-09-04T13:25:38Z</time>
      </trkpt>
      <trkpt lat="44.21627" lon="5.25765">
        <ele>417.60000610352</ele>
        <time>2021-09-04T13:25:46Z</time>
      </trkpt>
      <trkpt lat="44.21625" lon="5.25726">
        <ele>418.60000610352</ele>
        <time>2021-09-04T13:25:54Z</time>
      </trkpt>
      <trkpt lat="44.21625" lon="5.25716">
        <ele>419</ele>
        <time>2021-09-04T13:25:56Z</time>
      </trkpt>
      <trkpt lat="44.21626" lon="5.25687">
        <ele>419.79998779297</ele>
        <time>2021-09-04T13:26:02Z</time>
      </trkpt>
      <trkpt lat="44.21629" lon="5.25673">
        <ele>420.20001220703</ele>
        <time>2021-09-04T13:26:05Z</time>
      </trkpt>
      <trkpt lat="44.21634" lon="5.25656">
        <ele>420.79998779297</ele>
        <time>2021-09-04T13:26:09Z</time>
      </trkpt>
      <trkpt lat="44.21637" lon="5.25649">
        <ele>421.20001220703</ele>
        <time>2021-09-04T13:26:11Z</time>
      </trkpt>
      <trkpt lat="44.21645" lon="5.25635">
        <ele>421.79998779297</ele>
        <time>2021-09-04T13:26:15Z</time>
      </trkpt>
      <trkpt lat="44.21654" lon="5.25617">
        <ele>422.79998779297</ele>
        <time>2021-09-04T13:26:20Z</time>
      </trkpt>
      <trkpt lat="44.21656" lon="5.25609">
        <ele>423</ele>
        <time>2021-09-04T13:26:22Z</time>
      </trkpt>
      <trkpt lat="44.21658" lon="5.25592">
        <ele>423.60000610352</ele>
        <time>2021-09-04T13:26:26Z</time>
      </trkpt>
      <trkpt lat="44.2166" lon="5.2558">
        <ele>424</ele>
        <time>2021-09-04T13:26:29Z</time>
      </trkpt>
      <trkpt lat="44.2166" lon="5.25569">
        <ele>424.39999389648</ele>
        <time>2021-09-04T13:26:32Z</time>
      </trkpt>
      <trkpt lat="44.2166" lon="5.25555">
        <ele>425.20001220703</ele>
        <time>2021-09-04T13:26:36Z</time>
      </trkpt>
      <trkpt lat="44.2166" lon="5.25547">
        <ele>425.39999389648</ele>
        <time>2021-09-04T13:26:38Z</time>
      </trkpt>
      <trkpt lat="44.21663" lon="5.25535">
        <ele>426.20001220703</ele>
        <time>2021-09-04T13:26:42Z</time>
      </trkpt>
      <trkpt lat="44.21665" lon="5.25525">
        <ele>426.79998779297</ele>
        <time>2021-09-04T13:26:45Z</time>
      </trkpt>
      <trkpt lat="44.21669" lon="5.25509">
        <ele>427.39999389648</ele>
        <time>2021-09-04T13:26:50Z</time>
      </trkpt>
      <trkpt lat="44.21673" lon="5.25492">
        <ele>428.20001220703</ele>
        <time>2021-09-04T13:26:55Z</time>
      </trkpt>
      <trkpt lat="44.21674" lon="5.25485">
        <ele>428.39999389648</ele>
        <time>2021-09-04T13:26:57Z</time>
      </trkpt>
      <trkpt lat="44.21673" lon="5.25469">
        <ele>429</ele>
        <time>2021-09-04T13:27:02Z</time>
      </trkpt>
      <trkpt lat="44.21671" lon="5.25463">
        <ele>429.39999389648</ele>
        <time>2021-09-04T13:27:04Z</time>
      </trkpt>
      <trkpt lat="44.21665" lon="5.25444">
        <ele>430.39999389648</ele>
        <time>2021-09-04T13:27:10Z</time>
      </trkpt>
      <trkpt lat="44.21664" lon="5.25438">
        <ele>430.79998779297</ele>
        <time>2021-09-04T13:27:12Z</time>
      </trkpt>
      <trkpt lat="44.21661" lon="5.25421">
        <ele>431.60000610352</ele>
        <time>2021-09-04T13:27:17Z</time>
      </trkpt>
      <trkpt lat="44.2166" lon="5.25418">
        <ele>431.79998779297</ele>
        <time>2021-09-04T13:27:18Z</time>
      </trkpt>
      <trkpt lat="44.21657" lon="5.25389">
        <ele>433</ele>
        <time>2021-09-04T13:27:26Z</time>
      </trkpt>
      <trkpt lat="44.21656" lon="5.25359">
        <ele>434</ele>
        <time>2021-09-04T13:27:34Z</time>
      </trkpt>
      <trkpt lat="44.21656" lon="5.25344">
        <ele>434.60000610352</ele>
        <time>2021-09-04T13:27:38Z</time>
      </trkpt>
      <trkpt lat="44.21657" lon="5.25326">
        <ele>435.20001220703</ele>
        <time>2021-09-04T13:27:43Z</time>
      </trkpt>
      <trkpt lat="44.21659" lon="5.25312">
        <ele>435.79998779297</ele>
        <time>2021-09-04T13:27:47Z</time>
      </trkpt>
      <trkpt lat="44.21665" lon="5.25299">
        <ele>436.20001220703</ele>
        <time>2021-09-04T13:27:51Z</time>
      </trkpt>
      <trkpt lat="44.21669" lon="5.2529">
        <ele>437</ele>
        <time>2021-09-04T13:27:54Z</time>
      </trkpt>
      <trkpt lat="44.21675" lon="5.25283">
        <ele>437.39999389648</ele>
        <time>2021-09-04T13:27:57Z</time>
      </trkpt>
      <trkpt lat="44.21683" lon="5.25275">
        <ele>438</ele>
        <time>2021-09-04T13:28:01Z</time>
      </trkpt>
      <trkpt lat="44.2169" lon="5.2527">
        <ele>438.39999389648</ele>
        <time>2021-09-04T13:28:04Z</time>
      </trkpt>
      <trkpt lat="44.21698" lon="5.25262">
        <ele>439</ele>
        <time>2021-09-04T13:28:08Z</time>
      </trkpt>
      <trkpt lat="44.21702" lon="5.25254">
        <ele>439.60000610352</ele>
        <time>2021-09-04T13:28:11Z</time>
      </trkpt>
      <trkpt lat="44.21706" lon="5.25239">
        <ele>440</ele>
        <time>2021-09-04T13:28:15Z</time>
      </trkpt>
      <trkpt lat="44.21708" lon="5.2523">
        <ele>440.60000610352</ele>
        <time>2021-09-04T13:28:18Z</time>
      </trkpt>
      <trkpt lat="44.21713" lon="5.25209">
        <ele>441.39999389648</ele>
        <time>2021-09-04T13:28:24Z</time>
      </trkpt>
      <trkpt lat="44.21712" lon="5.25202">
        <ele>441.60000610352</ele>
        <time>2021-09-04T13:28:26Z</time>
      </trkpt>
      <trkpt lat="44.21709" lon="5.25184">
        <ele>442.39999389648</ele>
        <time>2021-09-04T13:28:31Z</time>
      </trkpt>
      <trkpt lat="44.21707" lon="5.25178">
        <ele>442.79998779297</ele>
        <time>2021-09-04T13:28:33Z</time>
      </trkpt>
      <trkpt lat="44.21704" lon="5.25161">
        <ele>443.39999389648</ele>
        <time>2021-09-04T13:28:38Z</time>
      </trkpt>
      <trkpt lat="44.21703" lon="5.25155">
        <ele>443.79998779297</ele>
        <time>2021-09-04T13:28:40Z</time>
      </trkpt>
      <trkpt lat="44.21702" lon="5.25138">
        <ele>444.60000610352</ele>
        <time>2021-09-04T13:28:45Z</time>
      </trkpt>
      <trkpt lat="44.21703" lon="5.25128">
        <ele>444.79998779297</ele>
        <time>2021-09-04T13:28:48Z</time>
      </trkpt>
      <trkpt lat="44.21707" lon="5.25115">
        <ele>445.20001220703</ele>
        <time>2021-09-04T13:28:52Z</time>
      </trkpt>
      <trkpt lat="44.21719" lon="5.25094">
        <ele>446</ele>
        <time>2021-09-04T13:28:59Z</time>
      </trkpt>
      <trkpt lat="44.21723" lon="5.2509">
        <ele>446.20001220703</ele>
        <time>2021-09-04T13:29:01Z</time>
      </trkpt>
      <trkpt lat="44.21729" lon="5.25085">
        <ele>447.20001220703</ele>
        <time>2021-09-04T13:29:04Z</time>
      </trkpt>
      <trkpt lat="44.21743" lon="5.25077">
        <ele>447.79998779297</ele>
        <time>2021-09-04T13:29:10Z</time>
      </trkpt>
      <trkpt lat="44.21749" lon="5.25072">
        <ele>448.20001220703</ele>
        <time>2021-09-04T13:29:13Z</time>
      </trkpt>
      <trkpt lat="44.2176" lon="5.25062">
        <ele>448.60000610352</ele>
        <time>2021-09-04T13:29:18Z</time>
      </trkpt>
      <trkpt lat="44.2177" lon="5.2505">
        <ele>449.20001220703</ele>
        <time>2021-09-04T13:29:23Z</time>
      </trkpt>
      <trkpt lat="44.21775" lon="5.25041">
        <ele>449.79998779297</ele>
        <time>2021-09-04T13:29:26Z</time>
      </trkpt>
      <trkpt lat="44.21779" lon="5.2503">
        <ele>450.20001220703</ele>
        <time>2021-09-04T13:29:29Z</time>
      </trkpt>
      <trkpt lat="44.21782" lon="5.25016">
        <ele>451</ele>
        <time>2021-09-04T13:29:33Z</time>
      </trkpt>
      <trkpt lat="44.21783" lon="5.25008">
        <ele>451.39999389648</ele>
        <time>2021-09-04T13:29:35Z</time>
      </trkpt>
      <trkpt lat="44.21781" lon="5.2499">
        <ele>452</ele>
        <time>2021-09-04T13:29:40Z</time>
      </trkpt>
      <trkpt lat="44.21777" lon="5.24974">
        <ele>452.60000610352</ele>
        <time>2021-09-04T13:29:44Z</time>
      </trkpt>
      <trkpt lat="44.21774" lon="5.24958">
        <ele>453.60000610352</ele>
        <time>2021-09-04T13:29:49Z</time>
      </trkpt>
      <trkpt lat="44.21774" lon="5.24936">
        <ele>454.60000610352</ele>
        <time>2021-09-04T13:29:55Z</time>
      </trkpt>
      <trkpt lat="44.21775" lon="5.24932">
        <ele>454.79998779297</ele>
        <time>2021-09-04T13:29:56Z</time>
      </trkpt>
      <trkpt lat="44.21786" lon="5.24915">
        <ele>455.60000610352</ele>
        <time>2021-09-04T13:30:02Z</time>
      </trkpt>
      <trkpt lat="44.21788" lon="5.24913">
        <ele>455.60000610352</ele>
        <time>2021-09-04T13:30:03Z</time>
      </trkpt>
      <trkpt lat="44.218" lon="5.24908">
        <ele>456.39999389648</ele>
        <time>2021-09-04T13:30:08Z</time>
      </trkpt>
      <trkpt lat="44.21805" lon="5.24906">
        <ele>456.79998779297</ele>
        <time>2021-09-04T13:30:10Z</time>
      </trkpt>
      <trkpt lat="44.21822" lon="5.249">
        <ele>457.60000610352</ele>
        <time>2021-09-04T13:30:17Z</time>
      </trkpt>
      <trkpt lat="44.21825" lon="5.24899">
        <ele>457.79998779297</ele>
        <time>2021-09-04T13:30:18Z</time>
      </trkpt>
      <trkpt lat="44.21838" lon="5.24891">
        <ele>458.39999389648</ele>
        <time>2021-09-04T13:30:24Z</time>
      </trkpt>
      <trkpt lat="44.21845" lon="5.24879">
        <ele>458.79998779297</ele>
        <time>2021-09-04T13:30:28Z</time>
      </trkpt>
      <trkpt lat="44.21847" lon="5.24875">
        <ele>458.79998779297</ele>
        <time>2021-09-04T13:30:29Z</time>
      </trkpt>
      <trkpt lat="44.21846" lon="5.24851">
        <ele>459.39999389648</ele>
        <time>2021-09-04T13:30:34Z</time>
      </trkpt>
      <trkpt lat="44.21839" lon="5.24834">
        <ele>460</ele>
        <time>2021-09-04T13:30:38Z</time>
      </trkpt>
      <trkpt lat="44.21834" lon="5.24827">
        <ele>460.39999389648</ele>
        <time>2021-09-04T13:30:40Z</time>
      </trkpt>
      <trkpt lat="44.21825" lon="5.24819">
        <ele>461</ele>
        <time>2021-09-04T13:30:43Z</time>
      </trkpt>
      <trkpt lat="44.21812" lon="5.24809">
        <ele>461.60000610352</ele>
        <time>2021-09-04T13:30:47Z</time>
      </trkpt>
      <trkpt lat="44.21797" lon="5.24798">
        <ele>462.20001220703</ele>
        <time>2021-09-04T13:30:52Z</time>
      </trkpt>
      <trkpt lat="44.21789" lon="5.24792">
        <ele>462.79998779297</ele>
        <time>2021-09-04T13:30:55Z</time>
      </trkpt>
      <trkpt lat="44.21782" lon="5.24785">
        <ele>463.20001220703</ele>
        <time>2021-09-04T13:30:58Z</time>
      </trkpt>
      <trkpt lat="44.21775" lon="5.24773">
        <ele>463.79998779297</ele>
        <time>2021-09-04T13:31:02Z</time>
      </trkpt>
      <trkpt lat="44.21771" lon="5.24766">
        <ele>464.39999389648</ele>
        <time>2021-09-04T13:31:04Z</time>
      </trkpt>
      <trkpt lat="44.21765" lon="5.24747">
        <ele>465.20001220703</ele>
        <time>2021-09-04T13:31:09Z</time>
      </trkpt>
      <trkpt lat="44.21763" lon="5.24739">
        <ele>465.60000610352</ele>
        <time>2021-09-04T13:31:11Z</time>
      </trkpt>
      <trkpt lat="44.21756" lon="5.24714">
        <ele>466.60000610352</ele>
        <time>2021-09-04T13:31:18Z</time>
      </trkpt>
      <trkpt lat="44.21746" lon="5.24695">
        <ele>467.79998779297</ele>
        <time>2021-09-04T13:31:24Z</time>
      </trkpt>
      <trkpt lat="44.21743" lon="5.24689">
        <ele>468</ele>
        <time>2021-09-04T13:31:26Z</time>
      </trkpt>
      <trkpt lat="44.21737" lon="5.24676">
        <ele>468.79998779297</ele>
        <time>2021-09-04T13:31:30Z</time>
      </trkpt>
      <trkpt lat="44.21734" lon="5.24665">
        <ele>469.20001220703</ele>
        <time>2021-09-04T13:31:33Z</time>
      </trkpt>
      <trkpt lat="44.21731" lon="5.2466">
        <ele>469.39999389648</ele>
        <time>2021-09-04T13:31:35Z</time>
      </trkpt>
      <trkpt lat="44.21728" lon="5.24654">
        <ele>469.79998779297</ele>
        <time>2021-09-04T13:31:37Z</time>
      </trkpt>
      <trkpt lat="44.21718" lon="5.24636">
        <ele>470.79998779297</ele>
        <time>2021-09-04T13:31:43Z</time>
      </trkpt>
      <trkpt lat="44.21717" lon="5.24633">
        <ele>471</ele>
        <time>2021-09-04T13:31:44Z</time>
      </trkpt>
      <trkpt lat="44.2171" lon="5.24605">
        <ele>472</ele>
        <time>2021-09-04T13:31:52Z</time>
      </trkpt>
      <trkpt lat="44.21707" lon="5.24576">
        <ele>473</ele>
        <time>2021-09-04T13:32:00Z</time>
      </trkpt>
      <trkpt lat="44.21707" lon="5.24572">
        <ele>473.20001220703</ele>
        <time>2021-09-04T13:32:01Z</time>
      </trkpt>
      <trkpt lat="44.21711" lon="5.24551">
        <ele>474.20001220703</ele>
        <time>2021-09-04T13:32:07Z</time>
      </trkpt>
      <trkpt lat="44.21714" lon="5.24545">
        <ele>474.39999389648</ele>
        <time>2021-09-04T13:32:09Z</time>
      </trkpt>
      <trkpt lat="44.21723" lon="5.24527">
        <ele>475.20001220703</ele>
        <time>2021-09-04T13:32:15Z</time>
      </trkpt>
      <trkpt lat="44.21726" lon="5.24525">
        <ele>475.39999389648</ele>
        <time>2021-09-04T13:32:16Z</time>
      </trkpt>
      <trkpt lat="44.21743" lon="5.24509">
        <ele>476.20001220703</ele>
        <time>2021-09-04T13:32:23Z</time>
      </trkpt>
      <trkpt lat="44.21767" lon="5.2449">
        <ele>477.39999389648</ele>
        <time>2021-09-04T13:32:32Z</time>
      </trkpt>
      <trkpt lat="44.2177" lon="5.24488">
        <ele>477.39999389648</ele>
        <time>2021-09-04T13:32:33Z</time>
      </trkpt>
      <trkpt lat="44.21783" lon="5.2447">
        <ele>478.39999389648</ele>
        <time>2021-09-04T13:32:39Z</time>
      </trkpt>
      <trkpt lat="44.21785" lon="5.24467">
        <ele>478.60000610352</ele>
        <time>2021-09-04T13:32:40Z</time>
      </trkpt>
      <trkpt lat="44.21799" lon="5.24442">
        <ele>479.39999389648</ele>
        <time>2021-09-04T13:32:47Z</time>
      </trkpt>
      <trkpt lat="44.21804" lon="5.24432">
        <ele>479.79998779297</ele>
        <time>2021-09-04T13:32:50Z</time>
      </trkpt>
      <trkpt lat="44.21814" lon="5.24417">
        <ele>480.60000610352</ele>
        <time>2021-09-04T13:32:55Z</time>
      </trkpt>
      <trkpt lat="44.21819" lon="5.24407">
        <ele>481</ele>
        <time>2021-09-04T13:32:58Z</time>
      </trkpt>
      <trkpt lat="44.21826" lon="5.24398">
        <ele>481.60000610352</ele>
        <time>2021-09-04T13:33:01Z</time>
      </trkpt>
      <trkpt lat="44.21835" lon="5.24383">
        <ele>482</ele>
        <time>2021-09-04T13:33:05Z</time>
      </trkpt>
      <trkpt lat="44.21849" lon="5.24348">
        <ele>482.39999389648</ele>
        <time>2021-09-04T13:33:13Z</time>
      </trkpt>
      <trkpt lat="44.21846" lon="5.24335">
        <ele>482.60000610352</ele>
        <time>2021-09-04T13:33:16Z</time>
      </trkpt>
      <trkpt lat="44.21843" lon="5.2433">
        <ele>483</ele>
        <time>2021-09-04T13:33:18Z</time>
      </trkpt>
      <trkpt lat="44.21836" lon="5.24326">
        <ele>483.79998779297</ele>
        <time>2021-09-04T13:33:21Z</time>
      </trkpt>
      <trkpt lat="44.2183" lon="5.24326">
        <ele>484.39999389648</ele>
        <time>2021-09-04T13:33:24Z</time>
      </trkpt>
      <trkpt lat="44.21822" lon="5.24326">
        <ele>484.79998779297</ele>
        <time>2021-09-04T13:33:27Z</time>
      </trkpt>
      <trkpt lat="44.21811" lon="5.2433">
        <ele>485.60000610352</ele>
        <time>2021-09-04T13:33:31Z</time>
      </trkpt>
      <trkpt lat="44.21804" lon="5.24331">
        <ele>486</ele>
        <time>2021-09-04T13:33:34Z</time>
      </trkpt>
      <trkpt lat="44.21793" lon="5.2433">
        <ele>486.20001220703</ele>
        <time>2021-09-04T13:33:38Z</time>
      </trkpt>
      <trkpt lat="44.21777" lon="5.24329">
        <ele>487</ele>
        <time>2021-09-04T13:33:44Z</time>
      </trkpt>
      <trkpt lat="44.21772" lon="5.24329">
        <ele>487.20001220703</ele>
        <time>2021-09-04T13:33:46Z</time>
      </trkpt>
      <trkpt lat="44.21748" lon="5.24326">
        <ele>488</ele>
        <time>2021-09-04T13:33:54Z</time>
      </trkpt>
      <trkpt lat="44.21734" lon="5.24315">
        <ele>488.60000610352</ele>
        <time>2021-09-04T13:34:00Z</time>
      </trkpt>
      <trkpt lat="44.21728" lon="5.24306">
        <ele>489</ele>
        <time>2021-09-04T13:34:03Z</time>
      </trkpt>
      <trkpt lat="44.21723" lon="5.24296">
        <ele>489.79998779297</ele>
        <time>2021-09-04T13:34:06Z</time>
      </trkpt>
      <trkpt lat="44.21721" lon="5.24287">
        <ele>490.20001220703</ele>
        <time>2021-09-04T13:34:08Z</time>
      </trkpt>
      <trkpt lat="44.2172" lon="5.24275">
        <ele>490.79998779297</ele>
        <time>2021-09-04T13:34:11Z</time>
      </trkpt>
      <trkpt lat="44.21718" lon="5.24268">
        <ele>491.20001220703</ele>
        <time>2021-09-04T13:34:13Z</time>
      </trkpt>
      <trkpt lat="44.21715" lon="5.24255">
        <ele>491.79998779297</ele>
        <time>2021-09-04T13:34:17Z</time>
      </trkpt>
      <trkpt lat="44.21712" lon="5.24246">
        <ele>492.20001220703</ele>
        <time>2021-09-04T13:34:20Z</time>
      </trkpt>
      <trkpt lat="44.21708" lon="5.24237">
        <ele>492.79998779297</ele>
        <time>2021-09-04T13:34:23Z</time>
      </trkpt>
      <trkpt lat="44.21702" lon="5.24223">
        <ele>493.39999389648</ele>
        <time>2021-09-04T13:34:28Z</time>
      </trkpt>
      <trkpt lat="44.21701" lon="5.24221">
        <ele>493.60000610352</ele>
        <time>2021-09-04T13:34:29Z</time>
      </trkpt>
      <trkpt lat="44.21692" lon="5.24202">
        <ele>494.39999389648</ele>
        <time>2021-09-04T13:34:36Z</time>
      </trkpt>
      <trkpt lat="44.2169" lon="5.24199">
        <ele>494.60000610352</ele>
        <time>2021-09-04T13:34:37Z</time>
      </trkpt>
      <trkpt lat="44.21683" lon="5.24185">
        <ele>495.39999389648</ele>
        <time>2021-09-04T13:34:42Z</time>
      </trkpt>
      <trkpt lat="44.21678" lon="5.24174">
        <ele>496.20001220703</ele>
        <time>2021-09-04T13:34:46Z</time>
      </trkpt>
      <trkpt lat="44.21676" lon="5.24167">
        <ele>496.60000610352</ele>
        <time>2021-09-04T13:34:48Z</time>
      </trkpt>
      <trkpt lat="44.2167" lon="5.24147">
        <ele>497.60000610352</ele>
        <time>2021-09-04T13:34:53Z</time>
      </trkpt>
      <trkpt lat="44.21669" lon="5.24143">
        <ele>497.60000610352</ele>
        <time>2021-09-04T13:34:54Z</time>
      </trkpt>
      <trkpt lat="44.21666" lon="5.24118">
        <ele>498.79998779297</ele>
        <time>2021-09-04T13:35:01Z</time>
      </trkpt>
      <trkpt lat="44.21665" lon="5.24094">
        <ele>500</ele>
        <time>2021-09-04T13:35:08Z</time>
      </trkpt>
      <trkpt lat="44.21665" lon="5.24091">
        <ele>500</ele>
        <time>2021-09-04T13:35:09Z</time>
      </trkpt>
      <trkpt lat="44.21668" lon="5.24069">
        <ele>501</ele>
        <time>2021-09-04T13:35:16Z</time>
      </trkpt>
      <trkpt lat="44.2167" lon="5.24037">
        <ele>502</ele>
        <time>2021-09-04T13:35:26Z</time>
      </trkpt>
      <trkpt lat="44.21675" lon="5.24015">
        <ele>503</ele>
        <time>2021-09-04T13:35:33Z</time>
      </trkpt>
      <trkpt lat="44.21676" lon="5.24009">
        <ele>503.20001220703</ele>
        <time>2021-09-04T13:35:35Z</time>
      </trkpt>
      <trkpt lat="44.21679" lon="5.2399">
        <ele>504</ele>
        <time>2021-09-04T13:35:41Z</time>
      </trkpt>
      <trkpt lat="44.21681" lon="5.23982">
        <ele>504.60000610352</ele>
        <time>2021-09-04T13:35:44Z</time>
      </trkpt>
      <trkpt lat="44.21684" lon="5.2397">
        <ele>505</ele>
        <time>2021-09-04T13:35:48Z</time>
      </trkpt>
      <trkpt lat="44.21687" lon="5.23959">
        <ele>506</ele>
        <time>2021-09-04T13:35:52Z</time>
      </trkpt>
      <trkpt lat="44.21688" lon="5.23956">
        <ele>506.20001220703</ele>
        <time>2021-09-04T13:35:53Z</time>
      </trkpt>
      <trkpt lat="44.21694" lon="5.23941">
        <ele>507.20001220703</ele>
        <time>2021-09-04T13:35:59Z</time>
      </trkpt>
      <trkpt lat="44.21695" lon="5.23938">
        <ele>507.20001220703</ele>
        <time>2021-09-04T13:36:00Z</time>
      </trkpt>
      <trkpt lat="44.21703" lon="5.23922">
        <ele>508.39999389648</ele>
        <time>2021-09-04T13:36:07Z</time>
      </trkpt>
      <trkpt lat="44.21705" lon="5.23917">
        <ele>508.79998779297</ele>
        <time>2021-09-04T13:36:09Z</time>
      </trkpt>
      <trkpt lat="44.21713" lon="5.23904">
        <ele>509.60000610352</ele>
        <time>2021-09-04T13:36:15Z</time>
      </trkpt>
      <trkpt lat="44.21718" lon="5.23896">
        <ele>510.39999389648</ele>
        <time>2021-09-04T13:36:19Z</time>
      </trkpt>
      <trkpt lat="44.21719" lon="5.23894">
        <ele>510.60000610352</ele>
        <time>2021-09-04T13:36:20Z</time>
      </trkpt>
      <trkpt lat="44.21729" lon="5.23884">
        <ele>511.60000610352</ele>
        <time>2021-09-04T13:36:26Z</time>
      </trkpt>
      <trkpt lat="44.21742" lon="5.23871">
        <ele>512.79998779297</ele>
        <time>2021-09-04T13:36:34Z</time>
      </trkpt>
      <trkpt lat="44.21744" lon="5.2387">
        <ele>513</ele>
        <time>2021-09-04T13:36:35Z</time>
      </trkpt>
      <trkpt lat="44.21755" lon="5.23863">
        <ele>513.79998779297</ele>
        <time>2021-09-04T13:36:41Z</time>
      </trkpt>
      <trkpt lat="44.21759" lon="5.23862">
        <ele>514.20001220703</ele>
        <time>2021-09-04T13:36:43Z</time>
      </trkpt>
      <trkpt lat="44.21767" lon="5.23859">
        <ele>515</ele>
        <time>2021-09-04T13:36:48Z</time>
      </trkpt>
      <trkpt lat="44.2177" lon="5.23859">
        <ele>515.20001220703</ele>
        <time>2021-09-04T13:36:49Z</time>
      </trkpt>
      <trkpt lat="44.21777" lon="5.23856">
        <ele>515.59997558594</ele>
        <time>2021-09-04T13:36:53Z</time>
      </trkpt>
      <trkpt lat="44.21781" lon="5.23855">
        <ele>516</ele>
        <time>2021-09-04T13:36:55Z</time>
      </trkpt>
      <trkpt lat="44.218" lon="5.23849">
        <ele>517</ele>
        <time>2021-09-04T13:37:05Z</time>
      </trkpt>
      <trkpt lat="44.21802" lon="5.23849">
        <ele>517.20001220703</ele>
        <time>2021-09-04T13:37:06Z</time>
      </trkpt>
      <trkpt lat="44.21812" lon="5.23845">
        <ele>518.20001220703</ele>
        <time>2021-09-04T13:37:12Z</time>
      </trkpt>
      <trkpt lat="44.21815" lon="5.23842">
        <ele>518.40002441406</ele>
        <time>2021-09-04T13:37:14Z</time>
      </trkpt>
      <trkpt lat="44.21826" lon="5.23836">
        <ele>519.20001220703</ele>
        <time>2021-09-04T13:37:20Z</time>
      </trkpt>
      <trkpt lat="44.2183" lon="5.23834">
        <ele>519.59997558594</ele>
        <time>2021-09-04T13:37:22Z</time>
      </trkpt>
      <trkpt lat="44.21841" lon="5.23828">
        <ele>520.20001220703</ele>
        <time>2021-09-04T13:37:28Z</time>
      </trkpt>
      <trkpt lat="44.21842" lon="5.23827">
        <ele>520.40002441406</ele>
        <time>2021-09-04T13:37:29Z</time>
      </trkpt>
      <trkpt lat="44.21852" lon="5.23822">
        <ele>521.40002441406</ele>
        <time>2021-09-04T13:37:35Z</time>
      </trkpt>
      <trkpt lat="44.21856" lon="5.23821">
        <ele>521.59997558594</ele>
        <time>2021-09-04T13:37:37Z</time>
      </trkpt>
      <trkpt lat="44.2187" lon="5.23815">
        <ele>522.20001220703</ele>
        <time>2021-09-04T13:37:45Z</time>
      </trkpt>
      <trkpt lat="44.21876" lon="5.23813">
        <ele>522.40002441406</ele>
        <time>2021-09-04T13:37:48Z</time>
      </trkpt>
      <trkpt lat="44.21883" lon="5.23813">
        <ele>523.40002441406</ele>
        <time>2021-09-04T13:37:52Z</time>
      </trkpt>
      <trkpt lat="44.21895" lon="5.23811">
        <ele>524.40002441406</ele>
        <time>2021-09-04T13:37:58Z</time>
      </trkpt>
      <trkpt lat="44.21897" lon="5.2381">
        <ele>524.59997558594</ele>
        <time>2021-09-04T13:37:59Z</time>
      </trkpt>
      <trkpt lat="44.21908" lon="5.23809">
        <ele>525.40002441406</ele>
        <time>2021-09-04T13:38:05Z</time>
      </trkpt>
      <trkpt lat="44.21909" lon="5.23809">
        <ele>525.40002441406</ele>
        <time>2021-09-04T13:38:06Z</time>
      </trkpt>
      <trkpt lat="44.21923" lon="5.23807">
        <ele>526</ele>
        <time>2021-09-04T13:38:13Z</time>
      </trkpt>
      <trkpt lat="44.21926" lon="5.23807">
        <ele>526.59997558594</ele>
        <time>2021-09-04T13:38:15Z</time>
      </trkpt>
      <trkpt lat="44.2194" lon="5.23805">
        <ele>527.20001220703</ele>
        <time>2021-09-04T13:38:22Z</time>
      </trkpt>
      <trkpt lat="44.21948" lon="5.23803">
        <ele>527.59997558594</ele>
        <time>2021-09-04T13:38:26Z</time>
      </trkpt>
      <trkpt lat="44.21954" lon="5.23802">
        <ele>527.79998779297</ele>
        <time>2021-09-04T13:38:29Z</time>
      </trkpt>
      <trkpt lat="44.21968" lon="5.23793">
        <ele>528.59997558594</ele>
        <time>2021-09-04T13:38:36Z</time>
      </trkpt>
      <trkpt lat="44.21972" lon="5.23791">
        <ele>528.79998779297</ele>
        <time>2021-09-04T13:38:38Z</time>
      </trkpt>
      <trkpt lat="44.21985" lon="5.23778">
        <ele>529.79998779297</ele>
        <time>2021-09-04T13:38:45Z</time>
      </trkpt>
      <trkpt lat="44.21992" lon="5.23761">
        <ele>530.40002441406</ele>
        <time>2021-09-04T13:38:51Z</time>
      </trkpt>
      <trkpt lat="44.21989" lon="5.23743">
        <ele>530.79998779297</ele>
        <time>2021-09-04T13:38:56Z</time>
      </trkpt>
      <trkpt lat="44.2198" lon="5.23733">
        <ele>531.40002441406</ele>
        <time>2021-09-04T13:39:01Z</time>
      </trkpt>
      <trkpt lat="44.21972" lon="5.23727">
        <ele>532</ele>
        <time>2021-09-04T13:39:04Z</time>
      </trkpt>
      <trkpt lat="44.21965" lon="5.23723">
        <ele>532.40002441406</ele>
        <time>2021-09-04T13:39:07Z</time>
      </trkpt>
      <trkpt lat="44.21953" lon="5.23709">
        <ele>533</ele>
        <time>2021-09-04T13:39:13Z</time>
      </trkpt>
      <trkpt lat="44.21952" lon="5.23706">
        <ele>533</ele>
        <time>2021-09-04T13:39:14Z</time>
      </trkpt>
      <trkpt lat="44.21948" lon="5.23683">
        <ele>533.79998779297</ele>
        <time>2021-09-04T13:39:21Z</time>
      </trkpt>
      <trkpt lat="44.2195" lon="5.23676">
        <ele>534</ele>
        <time>2021-09-04T13:39:23Z</time>
      </trkpt>
      <trkpt lat="44.21955" lon="5.23658">
        <ele>534.79998779297</ele>
        <time>2021-09-04T13:39:28Z</time>
      </trkpt>
      <trkpt lat="44.21959" lon="5.23649">
        <ele>535</ele>
        <time>2021-09-04T13:39:31Z</time>
      </trkpt>
      <trkpt lat="44.21965" lon="5.23635">
        <ele>535.40002441406</ele>
        <time>2021-09-04T13:39:35Z</time>
      </trkpt>
      <trkpt lat="44.21971" lon="5.23605">
        <ele>535.79998779297</ele>
        <time>2021-09-04T13:39:43Z</time>
      </trkpt>
      <trkpt lat="44.21967" lon="5.23584">
        <ele>535.79998779297</ele>
        <time>2021-09-04T13:39:48Z</time>
      </trkpt>
      <trkpt lat="44.21954" lon="5.23577">
        <ele>536</ele>
        <time>2021-09-04T13:39:52Z</time>
      </trkpt>
      <trkpt lat="44.2193" lon="5.23568">
        <ele>536</ele>
        <time>2021-09-04T13:39:59Z</time>
      </trkpt>
      <trkpt lat="44.21919" lon="5.23561">
        <ele>536.20001220703</ele>
        <time>2021-09-04T13:40:02Z</time>
      </trkpt>
      <trkpt lat="44.21908" lon="5.23553">
        <ele>536.40002441406</ele>
        <time>2021-09-04T13:40:05Z</time>
      </trkpt>
      <trkpt lat="44.21879" lon="5.23536">
        <ele>536.59997558594</ele>
        <time>2021-09-04T13:40:12Z</time>
      </trkpt>
      <trkpt lat="44.21871" lon="5.2353">
        <ele>537</ele>
        <time>2021-09-04T13:40:14Z</time>
      </trkpt>
      <trkpt lat="44.21867" lon="5.23527">
        <ele>537.20001220703</ele>
        <time>2021-09-04T13:40:15Z</time>
      </trkpt>
      <trkpt lat="44.21863" lon="5.23523">
        <ele>537.59997558594</ele>
        <time>2021-09-04T13:40:16Z</time>
      </trkpt>
      <trkpt lat="44.2186" lon="5.23518">
        <ele>537.79998779297</ele>
        <time>2021-09-04T13:40:17Z</time>
      </trkpt>
      <trkpt lat="44.21853" lon="5.23495">
        <ele>538.20001220703</ele>
        <time>2021-09-04T13:40:21Z</time>
      </trkpt>
      <trkpt lat="44.21853" lon="5.23477">
        <ele>538.20001220703</ele>
        <time>2021-09-04T13:40:24Z</time>
      </trkpt>
      <trkpt lat="44.21853" lon="5.2347">
        <ele>538.40002441406</ele>
        <time>2021-09-04T13:40:25Z</time>
      </trkpt>
      <trkpt lat="44.21853" lon="5.23464">
        <ele>538.40002441406</ele>
        <time>2021-09-04T13:40:26Z</time>
      </trkpt>
      <trkpt lat="44.21855" lon="5.23444">
        <ele>538.79998779297</ele>
        <time>2021-09-04T13:40:29Z</time>
      </trkpt>
      <trkpt lat="44.21855" lon="5.23424">
        <ele>539</ele>
        <time>2021-09-04T13:40:32Z</time>
      </trkpt>
      <trkpt lat="44.21858" lon="5.23398">
        <ele>539.40002441406</ele>
        <time>2021-09-04T13:40:36Z</time>
      </trkpt>
      <trkpt lat="44.21862" lon="5.23373">
        <ele>539.59997558594</ele>
        <time>2021-09-04T13:40:40Z</time>
      </trkpt>
      <trkpt lat="44.21867" lon="5.23342">
        <ele>539.59997558594</ele>
        <time>2021-09-04T13:40:45Z</time>
      </trkpt>
      <trkpt lat="44.21866" lon="5.23329">
        <ele>539.59997558594</ele>
        <time>2021-09-04T13:40:47Z</time>
      </trkpt>
      <trkpt lat="44.21866" lon="5.23311">
        <ele>539.79998779297</ele>
        <time>2021-09-04T13:40:50Z</time>
      </trkpt>
      <trkpt lat="44.21866" lon="5.23286">
        <ele>539.79998779297</ele>
        <time>2021-09-04T13:40:54Z</time>
      </trkpt>
      <trkpt lat="44.21869" lon="5.23241">
        <ele>540.40002441406</ele>
        <time>2021-09-04T13:41:02Z</time>
      </trkpt>
      <trkpt lat="44.21862" lon="5.23213">
        <ele>541.20001220703</ele>
        <time>2021-09-04T13:41:07Z</time>
      </trkpt>
      <trkpt lat="44.21853" lon="5.23202">
        <ele>541.59997558594</ele>
        <time>2021-09-04T13:41:10Z</time>
      </trkpt>
      <trkpt lat="44.2185" lon="5.232">
        <ele>541.59997558594</ele>
        <time>2021-09-04T13:41:11Z</time>
      </trkpt>
      <trkpt lat="44.21846" lon="5.23198">
        <ele>541.59997558594</ele>
        <time>2021-09-04T13:41:12Z</time>
      </trkpt>
      <trkpt lat="44.21843" lon="5.23194">
        <ele>541.59997558594</ele>
        <time>2021-09-04T13:41:13Z</time>
      </trkpt>
      <trkpt lat="44.21833" lon="5.23185">
        <ele>542</ele>
        <time>2021-09-04T13:41:16Z</time>
      </trkpt>
      <trkpt lat="44.21824" lon="5.23165">
        <ele>542.59997558594</ele>
        <time>2021-09-04T13:41:20Z</time>
      </trkpt>
      <trkpt lat="44.21823" lon="5.23135">
        <ele>543</ele>
        <time>2021-09-04T13:41:25Z</time>
      </trkpt>
      <trkpt lat="44.21824" lon="5.23123">
        <ele>543.40002441406</ele>
        <time>2021-09-04T13:41:27Z</time>
      </trkpt>
      <trkpt lat="44.21825" lon="5.23117">
        <ele>544</ele>
        <time>2021-09-04T13:41:28Z</time>
      </trkpt>
      <trkpt lat="44.2183" lon="5.23094">
        <ele>544.59997558594</ele>
        <time>2021-09-04T13:41:32Z</time>
      </trkpt>
      <trkpt lat="44.21833" lon="5.23075">
        <ele>545</ele>
        <time>2021-09-04T13:41:35Z</time>
      </trkpt>
      <trkpt lat="44.21841" lon="5.2304">
        <ele>545.20001220703</ele>
        <time>2021-09-04T13:41:40Z</time>
      </trkpt>
      <trkpt lat="44.21852" lon="5.22982">
        <ele>545.20001220703</ele>
        <time>2021-09-04T13:41:48Z</time>
      </trkpt>
      <trkpt lat="44.21864" lon="5.22916">
        <ele>544.59997558594</ele>
        <time>2021-09-04T13:41:57Z</time>
      </trkpt>
      <trkpt lat="44.21876" lon="5.22868">
        <ele>544.40002441406</ele>
        <time>2021-09-04T13:42:04Z</time>
      </trkpt>
      <trkpt lat="44.21885" lon="5.22843">
        <ele>544.20001220703</ele>
        <time>2021-09-04T13:42:08Z</time>
      </trkpt>
      <trkpt lat="44.21894" lon="5.22834">
        <ele>543.79998779297</ele>
        <time>2021-09-04T13:42:10Z</time>
      </trkpt>
      <trkpt lat="44.21918" lon="5.22833">
        <ele>543.40002441406</ele>
        <time>2021-09-04T13:42:14Z</time>
      </trkpt>
      <trkpt lat="44.21931" lon="5.2284">
        <ele>542.79998779297</ele>
        <time>2021-09-04T13:42:16Z</time>
      </trkpt>
      <trkpt lat="44.21945" lon="5.22844">
        <ele>542.20001220703</ele>
        <time>2021-09-04T13:42:18Z</time>
      </trkpt>
      <trkpt lat="44.21952" lon="5.22847">
        <ele>541.59997558594</ele>
        <time>2021-09-04T13:42:19Z</time>
      </trkpt>
      <trkpt lat="44.21968" lon="5.22849">
        <ele>540.59997558594</ele>
        <time>2021-09-04T13:42:21Z</time>
      </trkpt>
      <trkpt lat="44.21974" lon="5.22843">
        <ele>539.79998779297</ele>
        <time>2021-09-04T13:42:22Z</time>
      </trkpt>
      <trkpt lat="44.21979" lon="5.22833">
        <ele>539.20001220703</ele>
        <time>2021-09-04T13:42:23Z</time>
      </trkpt>
      <trkpt lat="44.2198" lon="5.22822">
        <ele>538.59997558594</ele>
        <time>2021-09-04T13:42:24Z</time>
      </trkpt>
      <trkpt lat="44.21977" lon="5.22811">
        <ele>538.20001220703</ele>
        <time>2021-09-04T13:42:25Z</time>
      </trkpt>
      <trkpt lat="44.21974" lon="5.22801">
        <ele>537.59997558594</ele>
        <time>2021-09-04T13:42:26Z</time>
      </trkpt>
      <trkpt lat="44.2197" lon="5.22791">
        <ele>537</ele>
        <time>2021-09-04T13:42:27Z</time>
      </trkpt>
      <trkpt lat="44.21963" lon="5.22756">
        <ele>535.79998779297</ele>
        <time>2021-09-04T13:42:30Z</time>
      </trkpt>
      <trkpt lat="44.21958" lon="5.22715">
        <ele>534.40002441406</ele>
        <time>2021-09-04T13:42:33Z</time>
      </trkpt>
      <trkpt lat="44.21958" lon="5.227">
        <ele>534</ele>
        <time>2021-09-04T13:42:34Z</time>
      </trkpt>
      <trkpt lat="44.21958" lon="5.22685">
        <ele>533.40002441406</ele>
        <time>2021-09-04T13:42:35Z</time>
      </trkpt>
      <trkpt lat="44.21958" lon="5.22655">
        <ele>532</ele>
        <time>2021-09-04T13:42:37Z</time>
      </trkpt>
      <trkpt lat="44.21957" lon="5.22624">
        <ele>530.59997558594</ele>
        <time>2021-09-04T13:42:39Z</time>
      </trkpt>
      <trkpt lat="44.21956" lon="5.22609">
        <ele>529</ele>
        <time>2021-09-04T13:42:40Z</time>
      </trkpt>
      <trkpt lat="44.21955" lon="5.22593">
        <ele>528.40002441406</ele>
        <time>2021-09-04T13:42:41Z</time>
      </trkpt>
      <trkpt lat="44.21955" lon="5.22577">
        <ele>527.59997558594</ele>
        <time>2021-09-04T13:42:42Z</time>
      </trkpt>
      <trkpt lat="44.21955" lon="5.22544">
        <ele>525.79998779297</ele>
        <time>2021-09-04T13:42:44Z</time>
      </trkpt>
      <trkpt lat="44.21957" lon="5.22527">
        <ele>525.20001220703</ele>
        <time>2021-09-04T13:42:45Z</time>
      </trkpt>
      <trkpt lat="44.21961" lon="5.2251">
        <ele>524.59997558594</ele>
        <time>2021-09-04T13:42:46Z</time>
      </trkpt>
      <trkpt lat="44.21969" lon="5.22477">
        <ele>523</ele>
        <time>2021-09-04T13:42:48Z</time>
      </trkpt>
      <trkpt lat="44.21974" lon="5.22461">
        <ele>522.20001220703</ele>
        <time>2021-09-04T13:42:49Z</time>
      </trkpt>
      <trkpt lat="44.21977" lon="5.22444">
        <ele>521.20001220703</ele>
        <time>2021-09-04T13:42:50Z</time>
      </trkpt>
      <trkpt lat="44.21985" lon="5.2241">
        <ele>519.20001220703</ele>
        <time>2021-09-04T13:42:52Z</time>
      </trkpt>
      <trkpt lat="44.21991" lon="5.22375">
        <ele>517.40002441406</ele>
        <time>2021-09-04T13:42:54Z</time>
      </trkpt>
      <trkpt lat="44.21999" lon="5.2234">
        <ele>516</ele>
        <time>2021-09-04T13:42:56Z</time>
      </trkpt>
      <trkpt lat="44.22003" lon="5.22322">
        <ele>515.20001220703</ele>
        <time>2021-09-04T13:42:57Z</time>
      </trkpt>
      <trkpt lat="44.22008" lon="5.22305">
        <ele>514.20001220703</ele>
        <time>2021-09-04T13:42:58Z</time>
      </trkpt>
      <trkpt lat="44.22015" lon="5.22289">
        <ele>513.40002441406</ele>
        <time>2021-09-04T13:42:59Z</time>
      </trkpt>
      <trkpt lat="44.22024" lon="5.22275">
        <ele>512.40002441406</ele>
        <time>2021-09-04T13:43:00Z</time>
      </trkpt>
      <trkpt lat="44.22042" lon="5.22248">
        <ele>510.39999389648</ele>
        <time>2021-09-04T13:43:02Z</time>
      </trkpt>
      <trkpt lat="44.22049" lon="5.22232">
        <ele>509.60000610352</ele>
        <time>2021-09-04T13:43:03Z</time>
      </trkpt>
      <trkpt lat="44.22056" lon="5.22216">
        <ele>507.60000610352</ele>
        <time>2021-09-04T13:43:04Z</time>
      </trkpt>
      <trkpt lat="44.22062" lon="5.222">
        <ele>506.60000610352</ele>
        <time>2021-09-04T13:43:05Z</time>
      </trkpt>
      <trkpt lat="44.22068" lon="5.22183">
        <ele>505.39999389648</ele>
        <time>2021-09-04T13:43:06Z</time>
      </trkpt>
      <trkpt lat="44.22072" lon="5.22165">
        <ele>504.39999389648</ele>
        <time>2021-09-04T13:43:07Z</time>
      </trkpt>
      <trkpt lat="44.22076" lon="5.22147">
        <ele>503.20001220703</ele>
        <time>2021-09-04T13:43:08Z</time>
      </trkpt>
      <trkpt lat="44.22078" lon="5.22128">
        <ele>502.20001220703</ele>
        <time>2021-09-04T13:43:09Z</time>
      </trkpt>
      <trkpt lat="44.22079" lon="5.2211">
        <ele>501.39999389648</ele>
        <time>2021-09-04T13:43:10Z</time>
      </trkpt>
      <trkpt lat="44.2208" lon="5.22091">
        <ele>500.39999389648</ele>
        <time>2021-09-04T13:43:11Z</time>
      </trkpt>
      <trkpt lat="44.22079" lon="5.22073">
        <ele>499.60000610352</ele>
        <time>2021-09-04T13:43:12Z</time>
      </trkpt>
      <trkpt lat="44.22082" lon="5.22036">
        <ele>498</ele>
        <time>2021-09-04T13:43:14Z</time>
      </trkpt>
      <trkpt lat="44.22085" lon="5.22018">
        <ele>497</ele>
        <time>2021-09-04T13:43:15Z</time>
      </trkpt>
      <trkpt lat="44.22086" lon="5.22">
        <ele>496.20001220703</ele>
        <time>2021-09-04T13:43:16Z</time>
      </trkpt>
      <trkpt lat="44.22091" lon="5.21963">
        <ele>494.39999389648</ele>
        <time>2021-09-04T13:43:18Z</time>
      </trkpt>
      <trkpt lat="44.22099" lon="5.21928">
        <ele>492.60000610352</ele>
        <time>2021-09-04T13:43:20Z</time>
      </trkpt>
      <trkpt lat="44.22108" lon="5.21894">
        <ele>490.79998779297</ele>
        <time>2021-09-04T13:43:22Z</time>
      </trkpt>
      <trkpt lat="44.22114" lon="5.2186">
        <ele>488.79998779297</ele>
        <time>2021-09-04T13:43:24Z</time>
      </trkpt>
      <trkpt lat="44.22115" lon="5.21842">
        <ele>487.79998779297</ele>
        <time>2021-09-04T13:43:25Z</time>
      </trkpt>
      <trkpt lat="44.22115" lon="5.21824">
        <ele>486.79998779297</ele>
        <time>2021-09-04T13:43:26Z</time>
      </trkpt>
      <trkpt lat="44.22112" lon="5.21806">
        <ele>485.79998779297</ele>
        <time>2021-09-04T13:43:27Z</time>
      </trkpt>
      <trkpt lat="44.2211" lon="5.21788">
        <ele>483.79998779297</ele>
        <time>2021-09-04T13:43:28Z</time>
      </trkpt>
      <trkpt lat="44.22113" lon="5.21751">
        <ele>482</ele>
        <time>2021-09-04T13:43:30Z</time>
      </trkpt>
      <trkpt lat="44.22118" lon="5.21734">
        <ele>481.20001220703</ele>
        <time>2021-09-04T13:43:31Z</time>
      </trkpt>
      <trkpt lat="44.22122" lon="5.21716">
        <ele>480.39999389648</ele>
        <time>2021-09-04T13:43:32Z</time>
      </trkpt>
      <trkpt lat="44.22127" lon="5.2168">
        <ele>478.79998779297</ele>
        <time>2021-09-04T13:43:34Z</time>
      </trkpt>
      <trkpt lat="44.22128" lon="5.21661">
        <ele>477.79998779297</ele>
        <time>2021-09-04T13:43:35Z</time>
      </trkpt>
      <trkpt lat="44.22126" lon="5.21643">
        <ele>476.79998779297</ele>
        <time>2021-09-04T13:43:36Z</time>
      </trkpt>
      <trkpt lat="44.22123" lon="5.21605">
        <ele>474.79998779297</ele>
        <time>2021-09-04T13:43:38Z</time>
      </trkpt>
      <trkpt lat="44.22124" lon="5.21587">
        <ele>474</ele>
        <time>2021-09-04T13:43:39Z</time>
      </trkpt>
      <trkpt lat="44.22126" lon="5.21568">
        <ele>473</ele>
        <time>2021-09-04T13:43:40Z</time>
      </trkpt>
      <trkpt lat="44.22128" lon="5.2155">
        <ele>472</ele>
        <time>2021-09-04T13:43:41Z</time>
      </trkpt>
      <trkpt lat="44.22131" lon="5.21531">
        <ele>471.20001220703</ele>
        <time>2021-09-04T13:43:42Z</time>
      </trkpt>
      <trkpt lat="44.22137" lon="5.21493">
        <ele>469.20001220703</ele>
        <time>2021-09-04T13:43:44Z</time>
      </trkpt>
      <trkpt lat="44.2214" lon="5.21454">
        <ele>467.20001220703</ele>
        <time>2021-09-04T13:43:46Z</time>
      </trkpt>
      <trkpt lat="44.22142" lon="5.21417">
        <ele>465.39999389648</ele>
        <time>2021-09-04T13:43:48Z</time>
      </trkpt>
      <trkpt lat="44.22149" lon="5.21381">
        <ele>463.60000610352</ele>
        <time>2021-09-04T13:43:50Z</time>
      </trkpt>
      <trkpt lat="44.22155" lon="5.21365">
        <ele>462.60000610352</ele>
        <time>2021-09-04T13:43:51Z</time>
      </trkpt>
      <trkpt lat="44.22161" lon="5.21348">
        <ele>460.79998779297</ele>
        <time>2021-09-04T13:43:52Z</time>
      </trkpt>
      <trkpt lat="44.22166" lon="5.21331">
        <ele>459.79998779297</ele>
        <time>2021-09-04T13:43:53Z</time>
      </trkpt>
      <trkpt lat="44.22168" lon="5.21313">
        <ele>458.79998779297</ele>
        <time>2021-09-04T13:43:54Z</time>
      </trkpt>
      <trkpt lat="44.22169" lon="5.21296">
        <ele>457.79998779297</ele>
        <time>2021-09-04T13:43:55Z</time>
      </trkpt>
      <trkpt lat="44.22171" lon="5.21279">
        <ele>456.79998779297</ele>
        <time>2021-09-04T13:43:56Z</time>
      </trkpt>
      <trkpt lat="44.22171" lon="5.21262">
        <ele>456</ele>
        <time>2021-09-04T13:43:57Z</time>
      </trkpt>
      <trkpt lat="44.2217" lon="5.21245">
        <ele>455</ele>
        <time>2021-09-04T13:43:58Z</time>
      </trkpt>
      <trkpt lat="44.22168" lon="5.21229">
        <ele>454</ele>
        <time>2021-09-04T13:43:59Z</time>
      </trkpt>
      <trkpt lat="44.22166" lon="5.21212">
        <ele>453</ele>
        <time>2021-09-04T13:44:00Z</time>
      </trkpt>
      <trkpt lat="44.22164" lon="5.21177">
        <ele>451.39999389648</ele>
        <time>2021-09-04T13:44:02Z</time>
      </trkpt>
      <trkpt lat="44.22165" lon="5.21159">
        <ele>450.60000610352</ele>
        <time>2021-09-04T13:44:03Z</time>
      </trkpt>
      <trkpt lat="44.22167" lon="5.21141">
        <ele>450</ele>
        <time>2021-09-04T13:44:04Z</time>
      </trkpt>
      <trkpt lat="44.2217" lon="5.21106">
        <ele>448.60000610352</ele>
        <time>2021-09-04T13:44:06Z</time>
      </trkpt>
      <trkpt lat="44.22174" lon="5.2107">
        <ele>447.20001220703</ele>
        <time>2021-09-04T13:44:08Z</time>
      </trkpt>
      <trkpt lat="44.22176" lon="5.21033">
        <ele>445.60000610352</ele>
        <time>2021-09-04T13:44:10Z</time>
      </trkpt>
      <trkpt lat="44.22177" lon="5.21015">
        <ele>444.79998779297</ele>
        <time>2021-09-04T13:44:11Z</time>
      </trkpt>
      <trkpt lat="44.22178" lon="5.20997">
        <ele>444</ele>
        <time>2021-09-04T13:44:12Z</time>
      </trkpt>
      <trkpt lat="44.2218" lon="5.20961">
        <ele>442.20001220703</ele>
        <time>2021-09-04T13:44:14Z</time>
      </trkpt>
      <trkpt lat="44.22184" lon="5.20925">
        <ele>439.60000610352</ele>
        <time>2021-09-04T13:44:16Z</time>
      </trkpt>
      <trkpt lat="44.22185" lon="5.20907">
        <ele>438.79998779297</ele>
        <time>2021-09-04T13:44:17Z</time>
      </trkpt>
      <trkpt lat="44.22186" lon="5.20889">
        <ele>438</ele>
        <time>2021-09-04T13:44:18Z</time>
      </trkpt>
      <trkpt lat="44.22189" lon="5.20854">
        <ele>436</ele>
        <time>2021-09-04T13:44:20Z</time>
      </trkpt>
      <trkpt lat="44.22191" lon="5.20836">
        <ele>435</ele>
        <time>2021-09-04T13:44:21Z</time>
      </trkpt>
      <trkpt lat="44.22193" lon="5.20799">
        <ele>433.20001220703</ele>
        <time>2021-09-04T13:44:23Z</time>
      </trkpt>
      <trkpt lat="44.22193" lon="5.20781">
        <ele>432.20001220703</ele>
        <time>2021-09-04T13:44:24Z</time>
      </trkpt>
      <trkpt lat="44.22194" lon="5.20763">
        <ele>431.20001220703</ele>
        <time>2021-09-04T13:44:25Z</time>
      </trkpt>
      <trkpt lat="44.22196" lon="5.20727">
        <ele>429.60000610352</ele>
        <time>2021-09-04T13:44:27Z</time>
      </trkpt>
      <trkpt lat="44.22196" lon="5.20692">
        <ele>428.20001220703</ele>
        <time>2021-09-04T13:44:29Z</time>
      </trkpt>
      <trkpt lat="44.22195" lon="5.20658">
        <ele>426.39999389648</ele>
        <time>2021-09-04T13:44:31Z</time>
      </trkpt>
      <trkpt lat="44.22196" lon="5.20628">
        <ele>424.60000610352</ele>
        <time>2021-09-04T13:44:33Z</time>
      </trkpt>
      <trkpt lat="44.22198" lon="5.20598">
        <ele>422.79998779297</ele>
        <time>2021-09-04T13:44:35Z</time>
      </trkpt>
      <trkpt lat="44.22208" lon="5.20572">
        <ele>421.20001220703</ele>
        <time>2021-09-04T13:44:37Z</time>
      </trkpt>
      <trkpt lat="44.22214" lon="5.2056">
        <ele>420.39999389648</ele>
        <time>2021-09-04T13:44:38Z</time>
      </trkpt>
      <trkpt lat="44.2222" lon="5.20549">
        <ele>419.79998779297</ele>
        <time>2021-09-04T13:44:39Z</time>
      </trkpt>
      <trkpt lat="44.22228" lon="5.20539">
        <ele>418.60000610352</ele>
        <time>2021-09-04T13:44:40Z</time>
      </trkpt>
      <trkpt lat="44.22235" lon="5.2053">
        <ele>418</ele>
        <time>2021-09-04T13:44:41Z</time>
      </trkpt>
      <trkpt lat="44.22241" lon="5.20519">
        <ele>417.20001220703</ele>
        <time>2021-09-04T13:44:42Z</time>
      </trkpt>
      <trkpt lat="44.22251" lon="5.20495">
        <ele>415.39999389648</ele>
        <time>2021-09-04T13:44:44Z</time>
      </trkpt>
      <trkpt lat="44.22259" lon="5.20467">
        <ele>413.39999389648</ele>
        <time>2021-09-04T13:44:46Z</time>
      </trkpt>
      <trkpt lat="44.22266" lon="5.20438">
        <ele>411.60000610352</ele>
        <time>2021-09-04T13:44:48Z</time>
      </trkpt>
      <trkpt lat="44.2227" lon="5.20424">
        <ele>410.60000610352</ele>
        <time>2021-09-04T13:44:49Z</time>
      </trkpt>
      <trkpt lat="44.22273" lon="5.20409">
        <ele>409.39999389648</ele>
        <time>2021-09-04T13:44:50Z</time>
      </trkpt>
      <trkpt lat="44.22278" lon="5.20395">
        <ele>408.39999389648</ele>
        <time>2021-09-04T13:44:51Z</time>
      </trkpt>
      <trkpt lat="44.22283" lon="5.20381">
        <ele>407.39999389648</ele>
        <time>2021-09-04T13:44:52Z</time>
      </trkpt>
      <trkpt lat="44.2229" lon="5.20369">
        <ele>406.39999389648</ele>
        <time>2021-09-04T13:44:53Z</time>
      </trkpt>
      <trkpt lat="44.22297" lon="5.20358">
        <ele>405.39999389648</ele>
        <time>2021-09-04T13:44:54Z</time>
      </trkpt>
      <trkpt lat="44.22306" lon="5.20349">
        <ele>404.20001220703</ele>
        <time>2021-09-04T13:44:55Z</time>
      </trkpt>
      <trkpt lat="44.22316" lon="5.20341">
        <ele>403.20001220703</ele>
        <time>2021-09-04T13:44:56Z</time>
      </trkpt>
      <trkpt lat="44.22326" lon="5.20335">
        <ele>402.20001220703</ele>
        <time>2021-09-04T13:44:57Z</time>
      </trkpt>
      <trkpt lat="44.22336" lon="5.20331">
        <ele>401</ele>
        <time>2021-09-04T13:44:58Z</time>
      </trkpt>
      <trkpt lat="44.22346" lon="5.20329">
        <ele>400</ele>
        <time>2021-09-04T13:44:59Z</time>
      </trkpt>
      <trkpt lat="44.22368" lon="5.20328">
        <ele>398.20001220703</ele>
        <time>2021-09-04T13:45:01Z</time>
      </trkpt>
      <trkpt lat="44.22378" lon="5.20329">
        <ele>397.39999389648</ele>
        <time>2021-09-04T13:45:02Z</time>
      </trkpt>
      <trkpt lat="44.22388" lon="5.20334">
        <ele>396.60000610352</ele>
        <time>2021-09-04T13:45:03Z</time>
      </trkpt>
      <trkpt lat="44.22405" lon="5.20348">
        <ele>394.20001220703</ele>
        <time>2021-09-04T13:45:05Z</time>
      </trkpt>
      <trkpt lat="44.22422" lon="5.20361">
        <ele>392.60000610352</ele>
        <time>2021-09-04T13:45:07Z</time>
      </trkpt>
      <trkpt lat="44.22431" lon="5.20359">
        <ele>392</ele>
        <time>2021-09-04T13:45:08Z</time>
      </trkpt>
      <trkpt lat="44.22439" lon="5.20357">
        <ele>391.39999389648</ele>
        <time>2021-09-04T13:45:09Z</time>
      </trkpt>
      <trkpt lat="44.22446" lon="5.20349">
        <ele>391</ele>
        <time>2021-09-04T13:45:10Z</time>
      </trkpt>
      <trkpt lat="44.22451" lon="5.20339">
        <ele>390.39999389648</ele>
        <time>2021-09-04T13:45:11Z</time>
      </trkpt>
      <trkpt lat="44.22455" lon="5.20315">
        <ele>389.60000610352</ele>
        <time>2021-09-04T13:45:13Z</time>
      </trkpt>
      <trkpt lat="44.22456" lon="5.20303">
        <ele>389.20001220703</ele>
        <time>2021-09-04T13:45:14Z</time>
      </trkpt>
      <trkpt lat="44.22459" lon="5.20292">
        <ele>389</ele>
        <time>2021-09-04T13:45:15Z</time>
      </trkpt>
      <trkpt lat="44.22464" lon="5.20283">
        <ele>388.60000610352</ele>
        <time>2021-09-04T13:45:16Z</time>
      </trkpt>
      <trkpt lat="44.2249" lon="5.20262">
        <ele>388.20001220703</ele>
        <time>2021-09-04T13:45:20Z</time>
      </trkpt>
      <trkpt lat="44.22525" lon="5.20247">
        <ele>387.79998779297</ele>
        <time>2021-09-04T13:45:25Z</time>
      </trkpt>
      <trkpt lat="44.22563" lon="5.20222">
        <ele>387.39999389648</ele>
        <time>2021-09-04T13:45:31Z</time>
      </trkpt>
      <trkpt lat="44.22575" lon="5.20214">
        <ele>387</ele>
        <time>2021-09-04T13:45:33Z</time>
      </trkpt>
      <trkpt lat="44.22598" lon="5.20195">
        <ele>386</ele>
        <time>2021-09-04T13:45:37Z</time>
      </trkpt>
      <trkpt lat="44.22603" lon="5.20189">
        <ele>385.79998779297</ele>
        <time>2021-09-04T13:45:38Z</time>
      </trkpt>
      <trkpt lat="44.22632" lon="5.20148">
        <ele>384.79998779297</ele>
        <time>2021-09-04T13:45:44Z</time>
      </trkpt>
      <trkpt lat="44.22636" lon="5.20141">
        <ele>384.60000610352</ele>
        <time>2021-09-04T13:45:45Z</time>
      </trkpt>
      <trkpt lat="44.22655" lon="5.20101">
        <ele>383.79998779297</ele>
        <time>2021-09-04T13:45:50Z</time>
      </trkpt>
      <trkpt lat="44.22659" lon="5.20093">
        <ele>383.60000610352</ele>
        <time>2021-09-04T13:45:51Z</time>
      </trkpt>
      <trkpt lat="44.22682" lon="5.20052">
        <ele>382.79998779297</ele>
        <time>2021-09-04T13:45:57Z</time>
      </trkpt>
      <trkpt lat="44.22688" lon="5.20046">
        <ele>382.79998779297</ele>
        <time>2021-09-04T13:45:58Z</time>
      </trkpt>
      <trkpt lat="44.22704" lon="5.20032">
        <ele>382.60000610352</ele>
        <time>2021-09-04T13:46:01Z</time>
      </trkpt>
      <trkpt lat="44.22709" lon="5.20027">
        <ele>382.39999389648</ele>
        <time>2021-09-04T13:46:02Z</time>
      </trkpt>
      <trkpt lat="44.22723" lon="5.2001">
        <ele>382</ele>
        <time>2021-09-04T13:46:05Z</time>
      </trkpt>
      <trkpt lat="44.22732" lon="5.19996">
        <ele>381.60000610352</ele>
        <time>2021-09-04T13:46:07Z</time>
      </trkpt>
      <trkpt lat="44.2274" lon="5.19982">
        <ele>381.39999389648</ele>
        <time>2021-09-04T13:46:09Z</time>
      </trkpt>
      <trkpt lat="44.22751" lon="5.19968">
        <ele>381.39999389648</ele>
        <time>2021-09-04T13:46:11Z</time>
      </trkpt>
      <trkpt lat="44.22763" lon="5.19957">
        <ele>381</ele>
        <time>2021-09-04T13:46:13Z</time>
      </trkpt>
      <trkpt lat="44.22782" lon="5.19941">
        <ele>380.20001220703</ele>
        <time>2021-09-04T13:46:16Z</time>
      </trkpt>
      <trkpt lat="44.22801" lon="5.19924">
        <ele>379.39999389648</ele>
        <time>2021-09-04T13:46:19Z</time>
      </trkpt>
      <trkpt lat="44.22807" lon="5.19917">
        <ele>379.20001220703</ele>
        <time>2021-09-04T13:46:20Z</time>
      </trkpt>
      <trkpt lat="44.22811" lon="5.19908">
        <ele>379</ele>
        <time>2021-09-04T13:46:21Z</time>
      </trkpt>
      <trkpt lat="44.2282" lon="5.19877">
        <ele>378.20001220703</ele>
        <time>2021-09-04T13:46:24Z</time>
      </trkpt>
      <trkpt lat="44.2282" lon="5.19866">
        <ele>378</ele>
        <time>2021-09-04T13:46:25Z</time>
      </trkpt>
      <trkpt lat="44.22821" lon="5.19856">
        <ele>377.79998779297</ele>
        <time>2021-09-04T13:46:26Z</time>
      </trkpt>
      <trkpt lat="44.22824" lon="5.19833">
        <ele>377.39999389648</ele>
        <time>2021-09-04T13:46:28Z</time>
      </trkpt>
      <trkpt lat="44.22827" lon="5.19823">
        <ele>377.20001220703</ele>
        <time>2021-09-04T13:46:29Z</time>
      </trkpt>
      <trkpt lat="44.2284" lon="5.19809">
        <ele>376.79998779297</ele>
        <time>2021-09-04T13:46:31Z</time>
      </trkpt>
      <trkpt lat="44.22847" lon="5.19806">
        <ele>376.79998779297</ele>
        <time>2021-09-04T13:46:32Z</time>
      </trkpt>
      <trkpt lat="44.22872" lon="5.19806">
        <ele>376.39999389648</ele>
        <time>2021-09-04T13:46:35Z</time>
      </trkpt>
      <trkpt lat="44.22888" lon="5.19807">
        <ele>375.60000610352</ele>
        <time>2021-09-04T13:46:37Z</time>
      </trkpt>
      <trkpt lat="44.22897" lon="5.19805">
        <ele>375.20001220703</ele>
        <time>2021-09-04T13:46:38Z</time>
      </trkpt>
      <trkpt lat="44.22904" lon="5.198">
        <ele>374.79998779297</ele>
        <time>2021-09-04T13:46:39Z</time>
      </trkpt>
      <trkpt lat="44.2291" lon="5.19791">
        <ele>374.39999389648</ele>
        <time>2021-09-04T13:46:40Z</time>
      </trkpt>
      <trkpt lat="44.22913" lon="5.1978">
        <ele>374</ele>
        <time>2021-09-04T13:46:41Z</time>
      </trkpt>
      <trkpt lat="44.22911" lon="5.19757">
        <ele>373.39999389648</ele>
        <time>2021-09-04T13:46:43Z</time>
      </trkpt>
      <trkpt lat="44.22907" lon="5.19746">
        <ele>373.20001220703</ele>
        <time>2021-09-04T13:46:44Z</time>
      </trkpt>
      <trkpt lat="44.22897" lon="5.19728">
        <ele>372.60000610352</ele>
        <time>2021-09-04T13:46:46Z</time>
      </trkpt>
      <trkpt lat="44.22883" lon="5.19714">
        <ele>372.20001220703</ele>
        <time>2021-09-04T13:46:48Z</time>
      </trkpt>
      <trkpt lat="44.22869" lon="5.19699">
        <ele>371.79998779297</ele>
        <time>2021-09-04T13:46:50Z</time>
      </trkpt>
      <trkpt lat="44.22848" lon="5.1966">
        <ele>371</ele>
        <time>2021-09-04T13:46:54Z</time>
      </trkpt>
      <trkpt lat="44.22832" lon="5.19607">
        <ele>370.20001220703</ele>
        <time>2021-09-04T13:46:59Z</time>
      </trkpt>
      <trkpt lat="44.22824" lon="5.19574">
        <ele>369.79998779297</ele>
        <time>2021-09-04T13:47:02Z</time>
      </trkpt>
      <trkpt lat="44.22811" lon="5.19518">
        <ele>369</ele>
        <time>2021-09-04T13:47:07Z</time>
      </trkpt>
      <trkpt lat="44.22807" lon="5.19495">
        <ele>368.79998779297</ele>
        <time>2021-09-04T13:47:09Z</time>
      </trkpt>
      <trkpt lat="44.22797" lon="5.1945">
        <ele>368</ele>
        <time>2021-09-04T13:47:13Z</time>
      </trkpt>
      <trkpt lat="44.22789" lon="5.19416">
        <ele>367.79998779297</ele>
        <time>2021-09-04T13:47:16Z</time>
      </trkpt>
      <trkpt lat="44.22786" lon="5.19392">
        <ele>367.39999389648</ele>
        <time>2021-09-04T13:47:18Z</time>
      </trkpt>
      <trkpt lat="44.22786" lon="5.1938">
        <ele>367.20001220703</ele>
        <time>2021-09-04T13:47:19Z</time>
      </trkpt>
      <trkpt lat="44.22788" lon="5.19332">
        <ele>366.60000610352</ele>
        <time>2021-09-04T13:47:23Z</time>
      </trkpt>
      <trkpt lat="44.22792" lon="5.19285">
        <ele>366</ele>
        <time>2021-09-04T13:47:27Z</time>
      </trkpt>
      <trkpt lat="44.22797" lon="5.19264">
        <ele>365.60000610352</ele>
        <time>2021-09-04T13:47:29Z</time>
      </trkpt>
      <trkpt lat="44.22801" lon="5.19253">
        <ele>365.60000610352</ele>
        <time>2021-09-04T13:47:30Z</time>
      </trkpt>
      <trkpt lat="44.22805" lon="5.19243">
        <ele>365.39999389648</ele>
        <time>2021-09-04T13:47:31Z</time>
      </trkpt>
      <trkpt lat="44.22823" lon="5.19204">
        <ele>364.79998779297</ele>
        <time>2021-09-04T13:47:35Z</time>
      </trkpt>
      <trkpt lat="44.22827" lon="5.19193">
        <ele>364.39999389648</ele>
        <time>2021-09-04T13:47:36Z</time>
      </trkpt>
      <trkpt lat="44.22832" lon="5.19159">
        <ele>364</ele>
        <time>2021-09-04T13:47:39Z</time>
      </trkpt>
      <trkpt lat="44.22836" lon="5.19136">
        <ele>363.60000610352</ele>
        <time>2021-09-04T13:47:41Z</time>
      </trkpt>
      <trkpt lat="44.22837" lon="5.19124">
        <ele>363.39999389648</ele>
        <time>2021-09-04T13:47:42Z</time>
      </trkpt>
      <trkpt lat="44.22845" lon="5.19068">
        <ele>362.39999389648</ele>
        <time>2021-09-04T13:47:47Z</time>
      </trkpt>
      <trkpt lat="44.22847" lon="5.19057">
        <ele>362.20001220703</ele>
        <time>2021-09-04T13:47:48Z</time>
      </trkpt>
      <trkpt lat="44.22853" lon="5.19023">
        <ele>361.20001220703</ele>
        <time>2021-09-04T13:47:51Z</time>
      </trkpt>
      <trkpt lat="44.22857" lon="5.18999">
        <ele>359.79998779297</ele>
        <time>2021-09-04T13:47:53Z</time>
      </trkpt>
      <trkpt lat="44.2286" lon="5.18987">
        <ele>359.60000610352</ele>
        <time>2021-09-04T13:47:54Z</time>
      </trkpt>
      <trkpt lat="44.22867" lon="5.18953">
        <ele>358.60000610352</ele>
        <time>2021-09-04T13:47:57Z</time>
      </trkpt>
      <trkpt lat="44.2287" lon="5.18944">
        <ele>358</ele>
        <time>2021-09-04T13:47:58Z</time>
      </trkpt>
      <trkpt lat="44.22874" lon="5.18928">
        <ele>357.20001220703</ele>
        <time>2021-09-04T13:48:00Z</time>
      </trkpt>
      <trkpt lat="44.22882" lon="5.18912">
        <ele>356.20001220703</ele>
        <time>2021-09-04T13:48:02Z</time>
      </trkpt>
      <trkpt lat="44.22886" lon="5.18904">
        <ele>355.79998779297</ele>
        <time>2021-09-04T13:48:03Z</time>
      </trkpt>
      <trkpt lat="44.22907" lon="5.1887">
        <ele>354.60000610352</ele>
        <time>2021-09-04T13:48:07Z</time>
      </trkpt>
      <trkpt lat="44.22927" lon="5.18848">
        <ele>353.20001220703</ele>
        <time>2021-09-04T13:48:10Z</time>
      </trkpt>
      <trkpt lat="44.2294" lon="5.18832">
        <ele>352.39999389648</ele>
        <time>2021-09-04T13:48:12Z</time>
      </trkpt>
      <trkpt lat="44.22947" lon="5.18823">
        <ele>352</ele>
        <time>2021-09-04T13:48:13Z</time>
      </trkpt>
      <trkpt lat="44.22961" lon="5.18805">
        <ele>351</ele>
        <time>2021-09-04T13:48:15Z</time>
      </trkpt>
      <trkpt lat="44.22977" lon="5.18786">
        <ele>349.20001220703</ele>
        <time>2021-09-04T13:48:17Z</time>
      </trkpt>
      <trkpt lat="44.22989" lon="5.18761">
        <ele>348.20001220703</ele>
        <time>2021-09-04T13:48:19Z</time>
      </trkpt>
      <trkpt lat="44.22995" lon="5.18748">
        <ele>347.60000610352</ele>
        <time>2021-09-04T13:48:20Z</time>
      </trkpt>
      <trkpt lat="44.23" lon="5.18734">
        <ele>347</ele>
        <time>2021-09-04T13:48:21Z</time>
      </trkpt>
      <trkpt lat="44.2301" lon="5.18707">
        <ele>346</ele>
        <time>2021-09-04T13:48:23Z</time>
      </trkpt>
      <trkpt lat="44.23022" lon="5.18678">
        <ele>344.79998779297</ele>
        <time>2021-09-04T13:48:25Z</time>
      </trkpt>
      <trkpt lat="44.23033" lon="5.18649">
        <ele>343.20001220703</ele>
        <time>2021-09-04T13:48:27Z</time>
      </trkpt>
      <trkpt lat="44.23045" lon="5.18619">
        <ele>341.60000610352</ele>
        <time>2021-09-04T13:48:29Z</time>
      </trkpt>
      <trkpt lat="44.23057" lon="5.18588">
        <ele>340.39999389648</ele>
        <time>2021-09-04T13:48:31Z</time>
      </trkpt>
      <trkpt lat="44.23061" lon="5.18572">
        <ele>339.60000610352</ele>
        <time>2021-09-04T13:48:32Z</time>
      </trkpt>
      <trkpt lat="44.23065" lon="5.18554">
        <ele>339</ele>
        <time>2021-09-04T13:48:33Z</time>
      </trkpt>
      <trkpt lat="44.23068" lon="5.18518">
        <ele>337.39999389648</ele>
        <time>2021-09-04T13:48:35Z</time>
      </trkpt>
      <trkpt lat="44.23065" lon="5.1848">
        <ele>336.20001220703</ele>
        <time>2021-09-04T13:48:37Z</time>
      </trkpt>
      <trkpt lat="44.23061" lon="5.18462">
        <ele>335.60000610352</ele>
        <time>2021-09-04T13:48:38Z</time>
      </trkpt>
      <trkpt lat="44.23056" lon="5.18444">
        <ele>335</ele>
        <time>2021-09-04T13:48:39Z</time>
      </trkpt>
      <trkpt lat="44.23043" lon="5.18409">
        <ele>332.60000610352</ele>
        <time>2021-09-04T13:48:41Z</time>
      </trkpt>
      <trkpt lat="44.23037" lon="5.18392">
        <ele>331.60000610352</ele>
        <time>2021-09-04T13:48:42Z</time>
      </trkpt>
      <trkpt lat="44.23031" lon="5.18375">
        <ele>330.79998779297</ele>
        <time>2021-09-04T13:48:43Z</time>
      </trkpt>
      <trkpt lat="44.23018" lon="5.1834">
        <ele>328.79998779297</ele>
        <time>2021-09-04T13:48:45Z</time>
      </trkpt>
      <trkpt lat="44.23011" lon="5.18322">
        <ele>327.79998779297</ele>
        <time>2021-09-04T13:48:46Z</time>
      </trkpt>
      <trkpt lat="44.23005" lon="5.18305">
        <ele>326.79998779297</ele>
        <time>2021-09-04T13:48:47Z</time>
      </trkpt>
      <trkpt lat="44.22991" lon="5.1827">
        <ele>324.79998779297</ele>
        <time>2021-09-04T13:48:49Z</time>
      </trkpt>
      <trkpt lat="44.22985" lon="5.18252">
        <ele>323.79998779297</ele>
        <time>2021-09-04T13:48:50Z</time>
      </trkpt>
      <trkpt lat="44.2298" lon="5.18234">
        <ele>322.79998779297</ele>
        <time>2021-09-04T13:48:51Z</time>
      </trkpt>
      <trkpt lat="44.22974" lon="5.18215">
        <ele>321.60000610352</ele>
        <time>2021-09-04T13:48:52Z</time>
      </trkpt>
      <trkpt lat="44.22969" lon="5.18197">
        <ele>320.20001220703</ele>
        <time>2021-09-04T13:48:53Z</time>
      </trkpt>
      <trkpt lat="44.22963" lon="5.18178">
        <ele>319</ele>
        <time>2021-09-04T13:48:54Z</time>
      </trkpt>
      <trkpt lat="44.22958" lon="5.1816">
        <ele>317.79998779297</ele>
        <time>2021-09-04T13:48:55Z</time>
      </trkpt>
      <trkpt lat="44.22953" lon="5.18142">
        <ele>316.60000610352</ele>
        <time>2021-09-04T13:48:56Z</time>
      </trkpt>
      <trkpt lat="44.22942" lon="5.18105">
        <ele>314.60000610352</ele>
        <time>2021-09-04T13:48:58Z</time>
      </trkpt>
      <trkpt lat="44.22932" lon="5.18068">
        <ele>312.60000610352</ele>
        <time>2021-09-04T13:49:00Z</time>
      </trkpt>
      <trkpt lat="44.22926" lon="5.18049">
        <ele>311.60000610352</ele>
        <time>2021-09-04T13:49:01Z</time>
      </trkpt>
      <trkpt lat="44.22922" lon="5.1803">
        <ele>310.79998779297</ele>
        <time>2021-09-04T13:49:02Z</time>
      </trkpt>
      <trkpt lat="44.22919" lon="5.18011">
        <ele>309.79998779297</ele>
        <time>2021-09-04T13:49:03Z</time>
      </trkpt>
      <trkpt lat="44.2292" lon="5.17971">
        <ele>306.79998779297</ele>
        <time>2021-09-04T13:49:05Z</time>
      </trkpt>
      <trkpt lat="44.22923" lon="5.17951">
        <ele>305.79998779297</ele>
        <time>2021-09-04T13:49:06Z</time>
      </trkpt>
      <trkpt lat="44.22934" lon="5.17915">
        <ele>304</ele>
        <time>2021-09-04T13:49:08Z</time>
      </trkpt>
      <trkpt lat="44.2295" lon="5.17884">
        <ele>302</ele>
        <time>2021-09-04T13:49:10Z</time>
      </trkpt>
      <trkpt lat="44.2296" lon="5.1787">
        <ele>301.20001220703</ele>
        <time>2021-09-04T13:49:11Z</time>
      </trkpt>
      <trkpt lat="44.22968" lon="5.17856">
        <ele>300.20001220703</ele>
        <time>2021-09-04T13:49:12Z</time>
      </trkpt>
      <trkpt lat="44.22986" lon="5.17831">
        <ele>298.39999389648</ele>
        <time>2021-09-04T13:49:14Z</time>
      </trkpt>
      <trkpt lat="44.22994" lon="5.1782">
        <ele>297.60000610352</ele>
        <time>2021-09-04T13:49:15Z</time>
      </trkpt>
      <trkpt lat="44.23001" lon="5.17811">
        <ele>296.79998779297</ele>
        <time>2021-09-04T13:49:16Z</time>
      </trkpt>
      <trkpt lat="44.23008" lon="5.17804">
        <ele>295.79998779297</ele>
        <time>2021-09-04T13:49:17Z</time>
      </trkpt>
      <trkpt lat="44.23015" lon="5.17799">
        <ele>295</ele>
        <time>2021-09-04T13:49:18Z</time>
      </trkpt>
      <trkpt lat="44.23027" lon="5.17798">
        <ele>293</ele>
        <time>2021-09-04T13:49:20Z</time>
      </trkpt>
      <trkpt lat="44.23031" lon="5.17801">
        <ele>292</ele>
        <time>2021-09-04T13:49:21Z</time>
      </trkpt>
      <trkpt lat="44.23034" lon="5.17807">
        <ele>291</ele>
        <time>2021-09-04T13:49:22Z</time>
      </trkpt>
      <trkpt lat="44.23037" lon="5.17822">
        <ele>289.39999389648</ele>
        <time>2021-09-04T13:49:24Z</time>
      </trkpt>
      <trkpt lat="44.23039" lon="5.17828">
        <ele>288.79998779297</ele>
        <time>2021-09-04T13:49:25Z</time>
      </trkpt>
      <trkpt lat="44.2304" lon="5.17833">
        <ele>288.39999389648</ele>
        <time>2021-09-04T13:49:26Z</time>
      </trkpt>
      <trkpt lat="44.23042" lon="5.17843">
        <ele>287.39999389648</ele>
        <time>2021-09-04T13:49:28Z</time>
      </trkpt>
      <trkpt lat="44.23043" lon="5.17847">
        <ele>286.79998779297</ele>
        <time>2021-09-04T13:49:29Z</time>
      </trkpt>
      <trkpt lat="44.23044" lon="5.17855">
        <ele>286.20001220703</ele>
        <time>2021-09-04T13:49:32Z</time>
      </trkpt>
      <trkpt lat="44.23045" lon="5.17858">
        <ele>285.39999389648</ele>
        <time>2021-09-04T13:49:52Z</time>
      </trkpt>
      <trkpt lat="44.23045" lon="5.1786">
        <ele>285.60000610352</ele>
        <time>2021-09-04T13:49:53Z</time>
      </trkpt>
      <trkpt lat="44.23051" lon="5.1788">
        <ele>285.39999389648</ele>
        <time>2021-09-04T13:49:58Z</time>
      </trkpt>
      <trkpt lat="44.2306" lon="5.17913">
        <ele>284.79998779297</ele>
        <time>2021-09-04T13:50:03Z</time>
      </trkpt>
      <trkpt lat="44.23069" lon="5.17944">
        <ele>284.20001220703</ele>
        <time>2021-09-04T13:50:07Z</time>
      </trkpt>
      <trkpt lat="44.23081" lon="5.17982">
        <ele>283.39999389648</ele>
        <time>2021-09-04T13:50:12Z</time>
      </trkpt>
      <trkpt lat="44.23087" lon="5.17997">
        <ele>283.20001220703</ele>
        <time>2021-09-04T13:50:14Z</time>
      </trkpt>
      <trkpt lat="44.231" lon="5.18029">
        <ele>282</ele>
        <time>2021-09-04T13:50:18Z</time>
      </trkpt>
      <trkpt lat="44.23107" lon="5.18045">
        <ele>281.60000610352</ele>
        <time>2021-09-04T13:50:20Z</time>
      </trkpt>
      <trkpt lat="44.23117" lon="5.18069">
        <ele>281</ele>
        <time>2021-09-04T13:50:23Z</time>
      </trkpt>
      <trkpt lat="44.23139" lon="5.18109">
        <ele>279.60000610352</ele>
        <time>2021-09-04T13:50:28Z</time>
      </trkpt>
      <trkpt lat="44.2316" lon="5.18141">
        <ele>278.60000610352</ele>
        <time>2021-09-04T13:50:32Z</time>
      </trkpt>
      <trkpt lat="44.23173" lon="5.18158">
        <ele>278</ele>
        <time>2021-09-04T13:50:34Z</time>
      </trkpt>
      <trkpt lat="44.23186" lon="5.18175">
        <ele>277.20001220703</ele>
        <time>2021-09-04T13:50:36Z</time>
      </trkpt>
      <trkpt lat="44.23206" lon="5.182">
        <ele>276</ele>
        <time>2021-09-04T13:50:39Z</time>
      </trkpt>
      <trkpt lat="44.23221" lon="5.18217">
        <ele>274.60000610352</ele>
        <time>2021-09-04T13:50:41Z</time>
      </trkpt>
      <trkpt lat="44.23245" lon="5.18242">
        <ele>273</ele>
        <time>2021-09-04T13:50:44Z</time>
      </trkpt>
      <trkpt lat="44.23262" lon="5.18257">
        <ele>271.79998779297</ele>
        <time>2021-09-04T13:50:46Z</time>
      </trkpt>
      <trkpt lat="44.23272" lon="5.18265">
        <ele>271</ele>
        <time>2021-09-04T13:50:47Z</time>
      </trkpt>
      <trkpt lat="44.23282" lon="5.18272">
        <ele>270.39999389648</ele>
        <time>2021-09-04T13:50:48Z</time>
      </trkpt>
      <trkpt lat="44.23303" lon="5.18285">
        <ele>268.79998779297</ele>
        <time>2021-09-04T13:50:50Z</time>
      </trkpt>
      <trkpt lat="44.23324" lon="5.18298">
        <ele>267.20001220703</ele>
        <time>2021-09-04T13:50:52Z</time>
      </trkpt>
      <trkpt lat="44.23345" lon="5.1831">
        <ele>265.39999389648</ele>
        <time>2021-09-04T13:50:54Z</time>
      </trkpt>
      <trkpt lat="44.23367" lon="5.18319">
        <ele>263.79998779297</ele>
        <time>2021-09-04T13:50:56Z</time>
      </trkpt>
      <trkpt lat="44.23377" lon="5.18324">
        <ele>263</ele>
        <time>2021-09-04T13:50:57Z</time>
      </trkpt>
      <trkpt lat="44.23388" lon="5.18328">
        <ele>262.39999389648</ele>
        <time>2021-09-04T13:50:58Z</time>
      </trkpt>
      <trkpt lat="44.23408" lon="5.18336">
        <ele>261.20001220703</ele>
        <time>2021-09-04T13:51:00Z</time>
      </trkpt>
      <trkpt lat="44.23428" lon="5.18343">
        <ele>260.20001220703</ele>
        <time>2021-09-04T13:51:02Z</time>
      </trkpt>
      <trkpt lat="44.23448" lon="5.1835">
        <ele>259.20001220703</ele>
        <time>2021-09-04T13:51:04Z</time>
      </trkpt>
      <trkpt lat="44.23457" lon="5.18353">
        <ele>258.20001220703</ele>
        <time>2021-09-04T13:51:05Z</time>
      </trkpt>
      <trkpt lat="44.23476" lon="5.18361">
        <ele>257</ele>
        <time>2021-09-04T13:51:07Z</time>
      </trkpt>
      <trkpt lat="44.23496" lon="5.18368">
        <ele>255.80000305176</ele>
        <time>2021-09-04T13:51:09Z</time>
      </trkpt>
      <trkpt lat="44.23515" lon="5.18376">
        <ele>254.80000305176</ele>
        <time>2021-09-04T13:51:11Z</time>
      </trkpt>
      <trkpt lat="44.23535" lon="5.18384">
        <ele>253.60000610352</ele>
        <time>2021-09-04T13:51:13Z</time>
      </trkpt>
      <trkpt lat="44.23566" lon="5.18396">
        <ele>252.19999694824</ele>
        <time>2021-09-04T13:51:16Z</time>
      </trkpt>
      <trkpt lat="44.23595" lon="5.18408">
        <ele>250.80000305176</ele>
        <time>2021-09-04T13:51:19Z</time>
      </trkpt>
      <trkpt lat="44.23614" lon="5.18416">
        <ele>249.60000610352</ele>
        <time>2021-09-04T13:51:21Z</time>
      </trkpt>
      <trkpt lat="44.23633" lon="5.18422">
        <ele>248.60000610352</ele>
        <time>2021-09-04T13:51:23Z</time>
      </trkpt>
      <trkpt lat="44.2365" lon="5.18429">
        <ele>247.80000305176</ele>
        <time>2021-09-04T13:51:25Z</time>
      </trkpt>
      <trkpt lat="44.23659" lon="5.18432">
        <ele>247.39999389648</ele>
        <time>2021-09-04T13:51:26Z</time>
      </trkpt>
      <trkpt lat="44.23683" lon="5.18441">
        <ele>246.19999694824</ele>
        <time>2021-09-04T13:51:29Z</time>
      </trkpt>
      <trkpt lat="44.23705" lon="5.1845">
        <ele>246</ele>
        <time>2021-09-04T13:51:32Z</time>
      </trkpt>
      <trkpt lat="44.23741" lon="5.18465">
        <ele>246.19999694824</ele>
        <time>2021-09-04T13:51:38Z</time>
      </trkpt>
      <trkpt lat="44.23783" lon="5.18482">
        <ele>247.19999694824</ele>
        <time>2021-09-04T13:51:46Z</time>
      </trkpt>
      <trkpt lat="44.23788" lon="5.18485">
        <ele>247.19999694824</ele>
        <time>2021-09-04T13:51:47Z</time>
      </trkpt>
      <trkpt lat="44.23819" lon="5.18502">
        <ele>248.39999389648</ele>
        <time>2021-09-04T13:51:54Z</time>
      </trkpt>
      <trkpt lat="44.23861" lon="5.18529">
        <ele>249</ele>
        <time>2021-09-04T13:52:04Z</time>
      </trkpt>
      <trkpt lat="44.23898" lon="5.18556">
        <ele>249.39999389648</ele>
        <time>2021-09-04T13:52:13Z</time>
      </trkpt>
      <trkpt lat="44.23902" lon="5.18559">
        <ele>249.39999389648</ele>
        <time>2021-09-04T13:52:14Z</time>
      </trkpt>
      <trkpt lat="44.23909" lon="5.18567">
        <ele>249.39999389648</ele>
        <time>2021-09-04T13:52:16Z</time>
      </trkpt>
      <trkpt lat="44.23916" lon="5.18573">
        <ele>249.80000305176</ele>
        <time>2021-09-04T13:52:18Z</time>
      </trkpt>
      <trkpt lat="44.2392" lon="5.18574">
        <ele>249.80000305176</ele>
        <time>2021-09-04T13:52:19Z</time>
      </trkpt>
      <trkpt lat="44.23932" lon="5.18565">
        <ele>249.80000305176</ele>
        <time>2021-09-04T13:52:22Z</time>
      </trkpt>
      <trkpt lat="44.23935" lon="5.18543">
        <ele>249.80000305176</ele>
        <time>2021-09-04T13:52:25Z</time>
      </trkpt>
      <trkpt lat="44.23937" lon="5.18498">
        <ele>249.80000305176</ele>
        <time>2021-09-04T13:52:32Z</time>
      </trkpt>
      <trkpt lat="44.23938" lon="5.18482">
        <ele>250.39999389648</ele>
        <time>2021-09-04T13:52:35Z</time>
      </trkpt>
      <trkpt lat="44.2394" lon="5.18451">
        <ele>251.80000305176</ele>
        <time>2021-09-04T13:52:41Z</time>
      </trkpt>
      <trkpt lat="44.2394" lon="5.18446">
        <ele>252</ele>
        <time>2021-09-04T13:52:42Z</time>
      </trkpt>
      <trkpt lat="44.23942" lon="5.18419">
        <ele>252.80000305176</ele>
        <time>2021-09-04T13:52:48Z</time>
      </trkpt>
      <trkpt lat="44.23943" lon="5.18405">
        <ele>253.39999389648</ele>
        <time>2021-09-04T13:52:51Z</time>
      </trkpt>
      <trkpt lat="44.23944" lon="5.18397">
        <ele>253.80000305176</ele>
        <time>2021-09-04T13:52:53Z</time>
      </trkpt>
      <trkpt lat="44.23946" lon="5.18375">
        <ele>255</ele>
        <time>2021-09-04T13:52:58Z</time>
      </trkpt>
      <trkpt lat="44.23947" lon="5.18366">
        <ele>255.39999389648</ele>
        <time>2021-09-04T13:53:00Z</time>
      </trkpt>
      <trkpt lat="44.23948" lon="5.18348">
        <ele>256</ele>
        <time>2021-09-04T13:53:04Z</time>
      </trkpt>
      <trkpt lat="44.23949" lon="5.18333">
        <ele>256.39999389648</ele>
        <time>2021-09-04T13:53:07Z</time>
      </trkpt>
      <trkpt lat="44.2395" lon="5.18314">
        <ele>257</ele>
        <time>2021-09-04T13:53:11Z</time>
      </trkpt>
      <trkpt lat="44.23951" lon="5.18292">
        <ele>257.39999389648</ele>
        <time>2021-09-04T13:53:15Z</time>
      </trkpt>
      <trkpt lat="44.23955" lon="5.1825">
        <ele>257.79998779297</ele>
        <time>2021-09-04T13:53:23Z</time>
      </trkpt>
      <trkpt lat="44.23959" lon="5.18201">
        <ele>258</ele>
        <time>2021-09-04T13:53:31Z</time>
      </trkpt>
      <trkpt lat="44.23961" lon="5.18173">
        <ele>258</ele>
        <time>2021-09-04T13:53:35Z</time>
      </trkpt>
      <trkpt lat="44.23962" lon="5.18143">
        <ele>258</ele>
        <time>2021-09-04T13:53:39Z</time>
      </trkpt>
      <trkpt lat="44.23966" lon="5.18071">
        <ele>258</ele>
        <time>2021-09-04T13:53:48Z</time>
      </trkpt>
      <trkpt lat="44.23967" lon="5.17992">
        <ele>258.20001220703</ele>
        <time>2021-09-04T13:53:58Z</time>
      </trkpt>
      <trkpt lat="44.23967" lon="5.17984">
        <ele>258.20001220703</ele>
        <time>2021-09-04T13:53:59Z</time>
      </trkpt>
      <trkpt lat="44.23961" lon="5.17916">
        <ele>257.79998779297</ele>
        <time>2021-09-04T13:54:07Z</time>
      </trkpt>
      <trkpt lat="44.23952" lon="5.17849">
        <ele>257.60000610352</ele>
        <time>2021-09-04T13:54:15Z</time>
      </trkpt>
      <trkpt lat="44.23943" lon="5.17807">
        <ele>257</ele>
        <time>2021-09-04T13:54:20Z</time>
      </trkpt>
      <trkpt lat="44.23936" lon="5.17774">
        <ele>256.79998779297</ele>
        <time>2021-09-04T13:54:24Z</time>
      </trkpt>
      <trkpt lat="44.23916" lon="5.17708">
        <ele>256.20001220703</ele>
        <time>2021-09-04T13:54:32Z</time>
      </trkpt>
      <trkpt lat="44.23909" lon="5.17691">
        <ele>256</ele>
        <time>2021-09-04T13:54:34Z</time>
      </trkpt>
      <trkpt lat="44.23891" lon="5.17645">
        <ele>255.60000610352</ele>
        <time>2021-09-04T13:54:39Z</time>
      </trkpt>
      <trkpt lat="44.23882" lon="5.17626">
        <ele>254.80000305176</ele>
        <time>2021-09-04T13:54:41Z</time>
      </trkpt>
      <trkpt lat="44.23857" lon="5.17569">
        <ele>253.80000305176</ele>
        <time>2021-09-04T13:54:47Z</time>
      </trkpt>
      <trkpt lat="44.23829" lon="5.17509">
        <ele>252.60000610352</ele>
        <time>2021-09-04T13:54:53Z</time>
      </trkpt>
      <trkpt lat="44.2382" lon="5.17489">
        <ele>252</ele>
        <time>2021-09-04T13:54:55Z</time>
      </trkpt>
      <trkpt lat="44.23799" lon="5.17441">
        <ele>251.39999389648</ele>
        <time>2021-09-04T13:55:00Z</time>
      </trkpt>
      <trkpt lat="44.2379" lon="5.17423">
        <ele>251.39999389648</ele>
        <time>2021-09-04T13:55:02Z</time>
      </trkpt>
      <trkpt lat="44.23766" lon="5.17353">
        <ele>251.60000610352</ele>
        <time>2021-09-04T13:55:09Z</time>
      </trkpt>
      <trkpt lat="44.23755" lon="5.17287">
        <ele>251.80000305176</ele>
        <time>2021-09-04T13:55:15Z</time>
      </trkpt>
      <trkpt lat="44.23754" lon="5.17214">
        <ele>251.39999389648</ele>
        <time>2021-09-04T13:55:21Z</time>
      </trkpt>
      <trkpt lat="44.23755" lon="5.17129">
        <ele>250.39999389648</ele>
        <time>2021-09-04T13:55:28Z</time>
      </trkpt>
      <trkpt lat="44.23756" lon="5.17105">
        <ele>250</ele>
        <time>2021-09-04T13:55:30Z</time>
      </trkpt>
      <trkpt lat="44.23766" lon="5.1705">
        <ele>249.80000305176</ele>
        <time>2021-09-04T13:55:35Z</time>
      </trkpt>
      <trkpt lat="44.23769" lon="5.17039">
        <ele>249.60000610352</ele>
        <time>2021-09-04T13:55:36Z</time>
      </trkpt>
      <trkpt lat="44.23783" lon="5.17">
        <ele>249.39999389648</ele>
        <time>2021-09-04T13:55:40Z</time>
      </trkpt>
      <trkpt lat="44.23798" lon="5.16961">
        <ele>248.80000305176</ele>
        <time>2021-09-04T13:55:44Z</time>
      </trkpt>
      <trkpt lat="44.23817" lon="5.16912">
        <ele>248.19999694824</ele>
        <time>2021-09-04T13:55:49Z</time>
      </trkpt>
      <trkpt lat="44.23834" lon="5.16873">
        <ele>247.80000305176</ele>
        <time>2021-09-04T13:55:53Z</time>
      </trkpt>
      <trkpt lat="44.23865" lon="5.16813">
        <ele>248</ele>
        <time>2021-09-04T13:56:00Z</time>
      </trkpt>
      <trkpt lat="44.23904" lon="5.16748">
        <ele>247.80000305176</ele>
        <time>2021-09-04T13:56:08Z</time>
      </trkpt>
      <trkpt lat="44.23917" lon="5.16725">
        <ele>248</ele>
        <time>2021-09-04T13:56:11Z</time>
      </trkpt>
      <trkpt lat="44.23953" lon="5.16664">
        <ele>248</ele>
        <time>2021-09-04T13:56:19Z</time>
      </trkpt>
      <trkpt lat="44.23962" lon="5.16649">
        <ele>247.60000610352</ele>
        <time>2021-09-04T13:56:21Z</time>
      </trkpt>
      <trkpt lat="44.23998" lon="5.16587">
        <ele>247.19999694824</ele>
        <time>2021-09-04T13:56:29Z</time>
      </trkpt>
      <trkpt lat="44.24012" lon="5.16564">
        <ele>247.19999694824</ele>
        <time>2021-09-04T13:56:32Z</time>
      </trkpt>
      <trkpt lat="44.24039" lon="5.16518">
        <ele>247</ele>
        <time>2021-09-04T13:56:38Z</time>
      </trkpt>
      <trkpt lat="44.24073" lon="5.16459">
        <ele>246.80000305176</ele>
        <time>2021-09-04T13:56:46Z</time>
      </trkpt>
      <trkpt lat="44.24081" lon="5.16445">
        <ele>246.80000305176</ele>
        <time>2021-09-04T13:56:48Z</time>
      </trkpt>
      <trkpt lat="44.24118" lon="5.16383">
        <ele>246.80000305176</ele>
        <time>2021-09-04T13:56:57Z</time>
      </trkpt>
      <trkpt lat="44.24122" lon="5.16376">
        <ele>246.80000305176</ele>
        <time>2021-09-04T13:56:58Z</time>
      </trkpt>
      <trkpt lat="44.24157" lon="5.16316">
        <ele>247</ele>
        <time>2021-09-04T13:57:07Z</time>
      </trkpt>
      <trkpt lat="44.24161" lon="5.1631">
        <ele>247</ele>
        <time>2021-09-04T13:57:08Z</time>
      </trkpt>
      <trkpt lat="44.24193" lon="5.16254">
        <ele>246.80000305176</ele>
        <time>2021-09-04T13:57:16Z</time>
      </trkpt>
      <trkpt lat="44.24222" lon="5.16199">
        <ele>246</ele>
        <time>2021-09-04T13:57:23Z</time>
      </trkpt>
      <trkpt lat="44.24227" lon="5.1619">
        <ele>245.60000610352</ele>
        <time>2021-09-04T13:57:24Z</time>
      </trkpt>
      <trkpt lat="44.24244" lon="5.16152">
        <ele>244.80000305176</ele>
        <time>2021-09-04T13:57:28Z</time>
      </trkpt>
      <trkpt lat="44.24256" lon="5.16122">
        <ele>243.60000610352</ele>
        <time>2021-09-04T13:57:31Z</time>
      </trkpt>
      <trkpt lat="44.24272" lon="5.16079">
        <ele>242.39999389648</ele>
        <time>2021-09-04T13:57:35Z</time>
      </trkpt>
      <trkpt lat="44.24286" lon="5.16033">
        <ele>241.19999694824</ele>
        <time>2021-09-04T13:57:39Z</time>
      </trkpt>
      <trkpt lat="44.24297" lon="5.15988">
        <ele>240</ele>
        <time>2021-09-04T13:57:43Z</time>
      </trkpt>
      <trkpt lat="44.24302" lon="5.15968">
        <ele>239.80000305176</ele>
        <time>2021-09-04T13:57:45Z</time>
      </trkpt>
      <trkpt lat="44.24316" lon="5.15915">
        <ele>239.80000305176</ele>
        <time>2021-09-04T13:57:51Z</time>
      </trkpt>
      <trkpt lat="44.24334" lon="5.15842">
        <ele>240</ele>
        <time>2021-09-04T13:58:00Z</time>
      </trkpt>
      <trkpt lat="44.24354" lon="5.15768">
        <ele>239.80000305176</ele>
        <time>2021-09-04T13:58:09Z</time>
      </trkpt>
      <trkpt lat="44.24372" lon="5.15703">
        <ele>240</ele>
        <time>2021-09-04T13:58:17Z</time>
      </trkpt>
      <trkpt lat="44.24383" lon="5.15659">
        <ele>239</ele>
        <time>2021-09-04T13:58:22Z</time>
      </trkpt>
      <trkpt lat="44.24386" lon="5.1565">
        <ele>238.80000305176</ele>
        <time>2021-09-04T13:58:23Z</time>
      </trkpt>
      <trkpt lat="44.24402" lon="5.15613">
        <ele>238.39999389648</ele>
        <time>2021-09-04T13:58:27Z</time>
      </trkpt>
      <trkpt lat="44.24408" lon="5.15606">
        <ele>238.19999694824</ele>
        <time>2021-09-04T13:58:28Z</time>
      </trkpt>
      <trkpt lat="44.24419" lon="5.15592">
        <ele>237.80000305176</ele>
        <time>2021-09-04T13:58:30Z</time>
      </trkpt>
      <trkpt lat="44.24431" lon="5.15584">
        <ele>237.60000610352</ele>
        <time>2021-09-04T13:58:32Z</time>
      </trkpt>
      <trkpt lat="44.24448" lon="5.15579">
        <ele>237.60000610352</ele>
        <time>2021-09-04T13:58:35Z</time>
      </trkpt>
      <trkpt lat="44.24453" lon="5.15579">
        <ele>237.60000610352</ele>
        <time>2021-09-04T13:58:36Z</time>
      </trkpt>
      <trkpt lat="44.24458" lon="5.15579">
        <ele>237.80000305176</ele>
        <time>2021-09-04T13:58:37Z</time>
      </trkpt>
      <trkpt lat="44.24474" lon="5.15583">
        <ele>238.60000610352</ele>
        <time>2021-09-04T13:58:41Z</time>
      </trkpt>
      <trkpt lat="44.24478" lon="5.15585">
        <ele>239</ele>
        <time>2021-09-04T13:58:42Z</time>
      </trkpt>
      <trkpt lat="44.24494" lon="5.15595">
        <ele>240</ele>
        <time>2021-09-04T13:58:47Z</time>
      </trkpt>
      <trkpt lat="44.24496" lon="5.15598">
        <ele>240.19999694824</ele>
        <time>2021-09-04T13:58:48Z</time>
      </trkpt>
      <trkpt lat="44.24508" lon="5.15612">
        <ele>241.19999694824</ele>
        <time>2021-09-04T13:58:53Z</time>
      </trkpt>
      <trkpt lat="44.24522" lon="5.15629">
        <ele>242.39999389648</ele>
        <time>2021-09-04T13:59:00Z</time>
      </trkpt>
      <trkpt lat="44.24529" lon="5.15634">
        <ele>242.60000610352</ele>
        <time>2021-09-04T13:59:03Z</time>
      </trkpt>
      <trkpt lat="44.24545" lon="5.15644">
        <ele>243.60000610352</ele>
        <time>2021-09-04T13:59:10Z</time>
      </trkpt>
      <trkpt lat="44.24548" lon="5.15645">
        <ele>243.80000305176</ele>
        <time>2021-09-04T13:59:11Z</time>
      </trkpt>
      <trkpt lat="44.24565" lon="5.15647">
        <ele>244.60000610352</ele>
        <time>2021-09-04T13:59:18Z</time>
      </trkpt>
      <trkpt lat="44.24568" lon="5.15646">
        <ele>244.80000305176</ele>
        <time>2021-09-04T13:59:19Z</time>
      </trkpt>
      <trkpt lat="44.24588" lon="5.15644">
        <ele>245.80000305176</ele>
        <time>2021-09-04T13:59:27Z</time>
      </trkpt>
      <trkpt lat="44.24601" lon="5.15647">
        <ele>246.19999694824</ele>
        <time>2021-09-04T13:59:32Z</time>
      </trkpt>
      <trkpt lat="44.24607" lon="5.1565">
        <ele>246.60000610352</ele>
        <time>2021-09-04T13:59:35Z</time>
      </trkpt>
      <trkpt lat="44.24608" lon="5.15651">
        <ele>246.80000305176</ele>
        <time>2021-09-04T13:59:36Z</time>
      </trkpt>
      <trkpt lat="44.24618" lon="5.15659">
        <ele>247.39999389648</ele>
        <time>2021-09-04T13:59:41Z</time>
      </trkpt>
      <trkpt lat="44.24629" lon="5.1567">
        <ele>247.80000305176</ele>
        <time>2021-09-04T13:59:46Z</time>
      </trkpt>
      <trkpt lat="44.24634" lon="5.15674">
        <ele>248</ele>
        <time>2021-09-04T13:59:48Z</time>
      </trkpt>
      <trkpt lat="44.24647" lon="5.15682">
        <ele>248.80000305176</ele>
        <time>2021-09-04T13:59:53Z</time>
      </trkpt>
      <trkpt lat="44.24652" lon="5.15685">
        <ele>249</ele>
        <time>2021-09-04T13:59:55Z</time>
      </trkpt>
      <trkpt lat="44.24667" lon="5.15689">
        <ele>249.80000305176</ele>
        <time>2021-09-04T14:00:01Z</time>
      </trkpt>
      <trkpt lat="44.24679" lon="5.15693">
        <ele>250.60000610352</ele>
        <time>2021-09-04T14:00:06Z</time>
      </trkpt>
      <trkpt lat="44.24684" lon="5.15694">
        <ele>251</ele>
        <time>2021-09-04T14:00:08Z</time>
      </trkpt>
      <trkpt lat="44.24696" lon="5.15697">
        <ele>251.19999694824</ele>
        <time>2021-09-04T14:00:13Z</time>
      </trkpt>
      <trkpt lat="44.24713" lon="5.15703">
        <ele>251.80000305176</ele>
        <time>2021-09-04T14:00:20Z</time>
      </trkpt>
      <trkpt lat="44.24715" lon="5.15704">
        <ele>252</ele>
        <time>2021-09-04T14:00:21Z</time>
      </trkpt>
      <trkpt lat="44.24734" lon="5.15709">
        <ele>253</ele>
        <time>2021-09-04T14:00:28Z</time>
      </trkpt>
      <trkpt lat="44.24752" lon="5.15714">
        <ele>254</ele>
        <time>2021-09-04T14:00:36Z</time>
      </trkpt>
      <trkpt lat="44.24754" lon="5.15715">
        <ele>254.19999694824</ele>
        <time>2021-09-04T14:00:37Z</time>
      </trkpt>
      <trkpt lat="44.24769" lon="5.15718">
        <ele>255</ele>
        <time>2021-09-04T14:00:44Z</time>
      </trkpt>
      <trkpt lat="44.24786" lon="5.1572">
        <ele>256</ele>
        <time>2021-09-04T14:00:51Z</time>
      </trkpt>
      <trkpt lat="44.24789" lon="5.1572">
        <ele>256.20001220703</ele>
        <time>2021-09-04T14:00:52Z</time>
      </trkpt>
      <trkpt lat="44.24804" lon="5.1572">
        <ele>257.20001220703</ele>
        <time>2021-09-04T14:00:58Z</time>
      </trkpt>
      <trkpt lat="44.24829" lon="5.15719">
        <ele>257.79998779297</ele>
        <time>2021-09-04T14:01:08Z</time>
      </trkpt>
      <trkpt lat="44.24839" lon="5.15718">
        <ele>258.20001220703</ele>
        <time>2021-09-04T14:01:12Z</time>
      </trkpt>
      <trkpt lat="44.24846" lon="5.15717">
        <ele>258.60000610352</ele>
        <time>2021-09-04T14:01:15Z</time>
      </trkpt>
      <trkpt lat="44.24866" lon="5.15716">
        <ele>259</ele>
        <time>2021-09-04T14:01:23Z</time>
      </trkpt>
      <trkpt lat="44.24874" lon="5.15716">
        <ele>259.20001220703</ele>
        <time>2021-09-04T14:01:26Z</time>
      </trkpt>
      <trkpt lat="44.24892" lon="5.15715">
        <ele>260.20001220703</ele>
        <time>2021-09-04T14:01:33Z</time>
      </trkpt>
      <trkpt lat="44.24908" lon="5.15715">
        <ele>261</ele>
        <time>2021-09-04T14:01:39Z</time>
      </trkpt>
      <trkpt lat="44.24914" lon="5.15715">
        <ele>261.39999389648</ele>
        <time>2021-09-04T14:01:41Z</time>
      </trkpt>
      <trkpt lat="44.24933" lon="5.15714">
        <ele>262.20001220703</ele>
        <time>2021-09-04T14:01:48Z</time>
      </trkpt>
      <trkpt lat="44.24937" lon="5.15713">
        <ele>262.39999389648</ele>
        <time>2021-09-04T14:01:50Z</time>
      </trkpt>
      <trkpt lat="44.24952" lon="5.1571">
        <ele>263.20001220703</ele>
        <time>2021-09-04T14:01:56Z</time>
      </trkpt>
      <trkpt lat="44.24959" lon="5.1571">
        <ele>263.39999389648</ele>
        <time>2021-09-04T14:01:59Z</time>
      </trkpt>
      <trkpt lat="44.24975" lon="5.15708">
        <ele>264</ele>
        <time>2021-09-04T14:02:05Z</time>
      </trkpt>
      <trkpt lat="44.24985" lon="5.15709">
        <ele>264.39999389648</ele>
        <time>2021-09-04T14:02:09Z</time>
      </trkpt>
      <trkpt lat="44.24998" lon="5.15708">
        <ele>265.20001220703</ele>
        <time>2021-09-04T14:02:14Z</time>
      </trkpt>
      <trkpt lat="44.25007" lon="5.15708">
        <ele>265.60000610352</ele>
        <time>2021-09-04T14:02:18Z</time>
      </trkpt>
      <trkpt lat="44.25017" lon="5.15707">
        <ele>266.20001220703</ele>
        <time>2021-09-04T14:02:22Z</time>
      </trkpt>
      <trkpt lat="44.25032" lon="5.15706">
        <ele>266.79998779297</ele>
        <time>2021-09-04T14:02:28Z</time>
      </trkpt>
      <trkpt lat="44.25039" lon="5.15706">
        <ele>267.20001220703</ele>
        <time>2021-09-04T14:02:31Z</time>
      </trkpt>
      <trkpt lat="44.25052" lon="5.15705">
        <ele>267.79998779297</ele>
        <time>2021-09-04T14:02:36Z</time>
      </trkpt>
      <trkpt lat="44.25059" lon="5.15703">
        <ele>268.20001220703</ele>
        <time>2021-09-04T14:02:39Z</time>
      </trkpt>
      <trkpt lat="44.25072" lon="5.15704">
        <ele>269</ele>
        <time>2021-09-04T14:02:44Z</time>
      </trkpt>
      <trkpt lat="44.25077" lon="5.15704">
        <ele>269.20001220703</ele>
        <time>2021-09-04T14:02:46Z</time>
      </trkpt>
      <trkpt lat="44.25092" lon="5.15703">
        <ele>270</ele>
        <time>2021-09-04T14:02:52Z</time>
      </trkpt>
      <trkpt lat="44.25097" lon="5.15703">
        <ele>270.20001220703</ele>
        <time>2021-09-04T14:02:54Z</time>
      </trkpt>
      <trkpt lat="44.25114" lon="5.157">
        <ele>271</ele>
        <time>2021-09-04T14:03:01Z</time>
      </trkpt>
      <trkpt lat="44.25116" lon="5.157">
        <ele>271</ele>
        <time>2021-09-04T14:03:02Z</time>
      </trkpt>
      <trkpt lat="44.25131" lon="5.15698">
        <ele>272</ele>
        <time>2021-09-04T14:03:08Z</time>
      </trkpt>
      <trkpt lat="44.25138" lon="5.15697">
        <ele>272.39999389648</ele>
        <time>2021-09-04T14:03:11Z</time>
      </trkpt>
      <trkpt lat="44.25155" lon="5.15696">
        <ele>273</ele>
        <time>2021-09-04T14:03:18Z</time>
      </trkpt>
      <trkpt lat="44.2516" lon="5.15696">
        <ele>273.20001220703</ele>
        <time>2021-09-04T14:03:20Z</time>
      </trkpt>
      <trkpt lat="44.25179" lon="5.15697">
        <ele>274</ele>
        <time>2021-09-04T14:03:28Z</time>
      </trkpt>
      <trkpt lat="44.25185" lon="5.15698">
        <ele>274.20001220703</ele>
        <time>2021-09-04T14:03:30Z</time>
      </trkpt>
      <trkpt lat="44.25203" lon="5.15701">
        <ele>275</ele>
        <time>2021-09-04T14:03:37Z</time>
      </trkpt>
      <trkpt lat="44.25208" lon="5.15701">
        <ele>275.20001220703</ele>
        <time>2021-09-04T14:03:39Z</time>
      </trkpt>
      <trkpt lat="44.25226" lon="5.15701">
        <ele>276.20001220703</ele>
        <time>2021-09-04T14:03:46Z</time>
      </trkpt>
      <trkpt lat="44.25229" lon="5.15701">
        <ele>276.39999389648</ele>
        <time>2021-09-04T14:03:47Z</time>
      </trkpt>
      <trkpt lat="44.25248" lon="5.157">
        <ele>277.20001220703</ele>
        <time>2021-09-04T14:03:54Z</time>
      </trkpt>
      <trkpt lat="44.25251" lon="5.15699">
        <ele>277.39999389648</ele>
        <time>2021-09-04T14:03:55Z</time>
      </trkpt>
      <trkpt lat="44.25271" lon="5.15696">
        <ele>278.39999389648</ele>
        <time>2021-09-04T14:04:03Z</time>
      </trkpt>
      <trkpt lat="44.2528" lon="5.15694">
        <ele>279.39999389648</ele>
        <time>2021-09-04T14:04:07Z</time>
      </trkpt>
      <trkpt lat="44.2529" lon="5.1569">
        <ele>279.79998779297</ele>
        <time>2021-09-04T14:04:11Z</time>
      </trkpt>
      <trkpt lat="44.25307" lon="5.15681">
        <ele>280.60000610352</ele>
        <time>2021-09-04T14:04:18Z</time>
      </trkpt>
      <trkpt lat="44.25311" lon="5.15678">
        <ele>281</ele>
        <time>2021-09-04T14:04:20Z</time>
      </trkpt>
      <trkpt lat="44.2532" lon="5.15671">
        <ele>281.79998779297</ele>
        <time>2021-09-04T14:04:24Z</time>
      </trkpt>
      <trkpt lat="44.25333" lon="5.1566">
        <ele>282.39999389648</ele>
        <time>2021-09-04T14:04:30Z</time>
      </trkpt>
      <trkpt lat="44.25344" lon="5.15651">
        <ele>282.79998779297</ele>
        <time>2021-09-04T14:04:35Z</time>
      </trkpt>
      <trkpt lat="44.25354" lon="5.15643">
        <ele>283.20001220703</ele>
        <time>2021-09-04T14:04:39Z</time>
      </trkpt>
      <trkpt lat="44.25362" lon="5.15638">
        <ele>283.79998779297</ele>
        <time>2021-09-04T14:04:42Z</time>
      </trkpt>
      <trkpt lat="44.25377" lon="5.15627">
        <ele>284.60000610352</ele>
        <time>2021-09-04T14:04:48Z</time>
      </trkpt>
      <trkpt lat="44.25384" lon="5.15623">
        <ele>285</ele>
        <time>2021-09-04T14:04:51Z</time>
      </trkpt>
      <trkpt lat="44.25398" lon="5.15614">
        <ele>286</ele>
        <time>2021-09-04T14:04:57Z</time>
      </trkpt>
      <trkpt lat="44.25403" lon="5.15611">
        <ele>286.20001220703</ele>
        <time>2021-09-04T14:04:59Z</time>
      </trkpt>
      <trkpt lat="44.25419" lon="5.15599">
        <ele>287.20001220703</ele>
        <time>2021-09-04T14:05:06Z</time>
      </trkpt>
      <trkpt lat="44.25426" lon="5.15594">
        <ele>287.79998779297</ele>
        <time>2021-09-04T14:05:09Z</time>
      </trkpt>
      <trkpt lat="44.25433" lon="5.15587">
        <ele>288.39999389648</ele>
        <time>2021-09-04T14:05:12Z</time>
      </trkpt>
      <trkpt lat="44.25446" lon="5.15573">
        <ele>289</ele>
        <time>2021-09-04T14:05:18Z</time>
      </trkpt>
      <trkpt lat="44.25451" lon="5.15568">
        <ele>289.39999389648</ele>
        <time>2021-09-04T14:05:20Z</time>
      </trkpt>
      <trkpt lat="44.25469" lon="5.15549">
        <ele>290.20001220703</ele>
        <time>2021-09-04T14:05:28Z</time>
      </trkpt>
      <trkpt lat="44.25471" lon="5.15546">
        <ele>290.39999389648</ele>
        <time>2021-09-04T14:05:29Z</time>
      </trkpt>
      <trkpt lat="44.25492" lon="5.15525">
        <ele>291.39999389648</ele>
        <time>2021-09-04T14:05:38Z</time>
      </trkpt>
      <trkpt lat="44.25512" lon="5.15508">
        <ele>292.39999389648</ele>
        <time>2021-09-04T14:05:46Z</time>
      </trkpt>
      <trkpt lat="44.25531" lon="5.15498">
        <ele>293.60000610352</ele>
        <time>2021-09-04T14:05:53Z</time>
      </trkpt>
      <trkpt lat="44.25538" lon="5.15494">
        <ele>294.39999389648</ele>
        <time>2021-09-04T14:05:56Z</time>
      </trkpt>
      <trkpt lat="44.25541" lon="5.15492">
        <ele>294.60000610352</ele>
        <time>2021-09-04T14:05:57Z</time>
      </trkpt>
      <trkpt lat="44.2556" lon="5.1548">
        <ele>295.39999389648</ele>
        <time>2021-09-04T14:06:05Z</time>
      </trkpt>
      <trkpt lat="44.25567" lon="5.15475">
        <ele>295.79998779297</ele>
        <time>2021-09-04T14:06:08Z</time>
      </trkpt>
      <trkpt lat="44.25574" lon="5.15471">
        <ele>296</ele>
        <time>2021-09-04T14:06:11Z</time>
      </trkpt>
      <trkpt lat="44.25587" lon="5.15462">
        <ele>296.79998779297</ele>
        <time>2021-09-04T14:06:16Z</time>
      </trkpt>
      <trkpt lat="44.25596" lon="5.15454">
        <ele>297.60000610352</ele>
        <time>2021-09-04T14:06:20Z</time>
      </trkpt>
      <trkpt lat="44.25601" lon="5.15451">
        <ele>297.79998779297</ele>
        <time>2021-09-04T14:06:22Z</time>
      </trkpt>
      <trkpt lat="44.25616" lon="5.15444">
        <ele>298.39999389648</ele>
        <time>2021-09-04T14:06:28Z</time>
      </trkpt>
      <trkpt lat="44.25628" lon="5.15434">
        <ele>298.79998779297</ele>
        <time>2021-09-04T14:06:34Z</time>
      </trkpt>
      <trkpt lat="44.2563" lon="5.15432">
        <ele>299</ele>
        <time>2021-09-04T14:06:35Z</time>
      </trkpt>
      <trkpt lat="44.25638" lon="5.15419">
        <ele>299.79998779297</ele>
        <time>2021-09-04T14:06:40Z</time>
      </trkpt>
      <trkpt lat="44.2564" lon="5.15415">
        <ele>300</ele>
        <time>2021-09-04T14:06:41Z</time>
      </trkpt>
      <trkpt lat="44.25643" lon="5.15394">
        <ele>301</ele>
        <time>2021-09-04T14:06:47Z</time>
      </trkpt>
      <trkpt lat="44.25645" lon="5.15357">
        <ele>301.79998779297</ele>
        <time>2021-09-04T14:06:56Z</time>
      </trkpt>
      <trkpt lat="44.25647" lon="5.15349">
        <ele>302</ele>
        <time>2021-09-04T14:06:58Z</time>
      </trkpt>
      <trkpt lat="44.2565" lon="5.15334">
        <ele>302.39999389648</ele>
        <time>2021-09-04T14:07:02Z</time>
      </trkpt>
      <trkpt lat="44.25659" lon="5.15314">
        <ele>303.20001220703</ele>
        <time>2021-09-04T14:07:08Z</time>
      </trkpt>
      <trkpt lat="44.25661" lon="5.15311">
        <ele>303.39999389648</ele>
        <time>2021-09-04T14:07:09Z</time>
      </trkpt>
      <trkpt lat="44.25677" lon="5.15289">
        <ele>304.20001220703</ele>
        <time>2021-09-04T14:07:16Z</time>
      </trkpt>
      <trkpt lat="44.25695" lon="5.15266">
        <ele>305.20001220703</ele>
        <time>2021-09-04T14:07:23Z</time>
      </trkpt>
      <trkpt lat="44.25702" lon="5.15238">
        <ele>306</ele>
        <time>2021-09-04T14:07:29Z</time>
      </trkpt>
      <trkpt lat="44.25703" lon="5.15232">
        <ele>306.20001220703</ele>
        <time>2021-09-04T14:07:30Z</time>
      </trkpt>
      <trkpt lat="44.25703" lon="5.15225">
        <ele>306.39999389648</ele>
        <time>2021-09-04T14:07:31Z</time>
      </trkpt>
      <trkpt lat="44.25703" lon="5.15212">
        <ele>306.79998779297</ele>
        <time>2021-09-04T14:07:33Z</time>
      </trkpt>
      <trkpt lat="44.25702" lon="5.15205">
        <ele>307</ele>
        <time>2021-09-04T14:07:34Z</time>
      </trkpt>
      <trkpt lat="44.25701" lon="5.15171">
        <ele>307.60000610352</ele>
        <time>2021-09-04T14:07:39Z</time>
      </trkpt>
      <trkpt lat="44.25698" lon="5.15152">
        <ele>307.79998779297</ele>
        <time>2021-09-04T14:07:42Z</time>
      </trkpt>
      <trkpt lat="44.25697" lon="5.15145">
        <ele>307.79998779297</ele>
        <time>2021-09-04T14:07:43Z</time>
      </trkpt>
      <trkpt lat="44.25686" lon="5.15115">
        <ele>308.20001220703</ele>
        <time>2021-09-04T14:07:48Z</time>
      </trkpt>
      <trkpt lat="44.25672" lon="5.15088">
        <ele>308.60000610352</ele>
        <time>2021-09-04T14:07:53Z</time>
      </trkpt>
      <trkpt lat="44.25665" lon="5.15078">
        <ele>308.79998779297</ele>
        <time>2021-09-04T14:07:55Z</time>
      </trkpt>
      <trkpt lat="44.25656" lon="5.15055">
        <ele>309.60000610352</ele>
        <time>2021-09-04T14:07:59Z</time>
      </trkpt>
      <trkpt lat="44.25654" lon="5.15049">
        <ele>309.79998779297</ele>
        <time>2021-09-04T14:08:00Z</time>
      </trkpt>
      <trkpt lat="44.25651" lon="5.15037">
        <ele>310</ele>
        <time>2021-09-04T14:08:02Z</time>
      </trkpt>
      <trkpt lat="44.25646" lon="5.15019">
        <ele>310.20001220703</ele>
        <time>2021-09-04T14:08:05Z</time>
      </trkpt>
      <trkpt lat="44.25644" lon="5.15">
        <ele>310.20001220703</ele>
        <time>2021-09-04T14:08:08Z</time>
      </trkpt>
      <trkpt lat="44.25647" lon="5.14956">
        <ele>310</ele>
        <time>2021-09-04T14:08:15Z</time>
      </trkpt>
      <trkpt lat="44.25656" lon="5.14905">
        <ele>310.20001220703</ele>
        <time>2021-09-04T14:08:23Z</time>
      </trkpt>
      <trkpt lat="44.25668" lon="5.14848">
        <ele>310.20001220703</ele>
        <time>2021-09-04T14:08:32Z</time>
      </trkpt>
      <trkpt lat="44.25675" lon="5.14821">
        <ele>310.79998779297</ele>
        <time>2021-09-04T14:08:37Z</time>
      </trkpt>
      <trkpt lat="44.25682" lon="5.14789">
        <ele>311.39999389648</ele>
        <time>2021-09-04T14:08:43Z</time>
      </trkpt>
      <trkpt lat="44.25686" lon="5.14774">
        <ele>312</ele>
        <time>2021-09-04T14:08:46Z</time>
      </trkpt>
      <trkpt lat="44.25691" lon="5.1475">
        <ele>312.60000610352</ele>
        <time>2021-09-04T14:08:51Z</time>
      </trkpt>
      <trkpt lat="44.25694" lon="5.14736">
        <ele>313</ele>
        <time>2021-09-04T14:08:54Z</time>
      </trkpt>
      <trkpt lat="44.25698" lon="5.14717">
        <ele>313.60000610352</ele>
        <time>2021-09-04T14:08:58Z</time>
      </trkpt>
      <trkpt lat="44.25701" lon="5.14703">
        <ele>314</ele>
        <time>2021-09-04T14:09:01Z</time>
      </trkpt>
      <trkpt lat="44.25708" lon="5.14677">
        <ele>314.79998779297</ele>
        <time>2021-09-04T14:09:07Z</time>
      </trkpt>
      <trkpt lat="44.2571" lon="5.14668">
        <ele>315.20001220703</ele>
        <time>2021-09-04T14:09:09Z</time>
      </trkpt>
      <trkpt lat="44.25715" lon="5.14643">
        <ele>316.20001220703</ele>
        <time>2021-09-04T14:09:15Z</time>
      </trkpt>
      <trkpt lat="44.25716" lon="5.14635">
        <ele>316.39999389648</ele>
        <time>2021-09-04T14:09:17Z</time>
      </trkpt>
      <trkpt lat="44.2572" lon="5.14615">
        <ele>317.60000610352</ele>
        <time>2021-09-04T14:09:22Z</time>
      </trkpt>
      <trkpt lat="44.25722" lon="5.14604">
        <ele>318.20001220703</ele>
        <time>2021-09-04T14:09:25Z</time>
      </trkpt>
      <trkpt lat="44.25724" lon="5.14596">
        <ele>318.60000610352</ele>
        <time>2021-09-04T14:09:27Z</time>
      </trkpt>
      <trkpt lat="44.25729" lon="5.14574">
        <ele>319.39999389648</ele>
        <time>2021-09-04T14:09:33Z</time>
      </trkpt>
      <trkpt lat="44.2573" lon="5.14567">
        <ele>319.60000610352</ele>
        <time>2021-09-04T14:09:35Z</time>
      </trkpt>
      <trkpt lat="44.25735" lon="5.14547">
        <ele>320.60000610352</ele>
        <time>2021-09-04T14:09:41Z</time>
      </trkpt>
      <trkpt lat="44.25736" lon="5.14544">
        <ele>320.79998779297</ele>
        <time>2021-09-04T14:09:42Z</time>
      </trkpt>
      <trkpt lat="44.2574" lon="5.14523">
        <ele>321.60000610352</ele>
        <time>2021-09-04T14:09:48Z</time>
      </trkpt>
      <trkpt lat="44.25741" lon="5.14516">
        <ele>321.79998779297</ele>
        <time>2021-09-04T14:09:50Z</time>
      </trkpt>
      <trkpt lat="44.25745" lon="5.14496">
        <ele>322.60000610352</ele>
        <time>2021-09-04T14:09:56Z</time>
      </trkpt>
      <trkpt lat="44.25747" lon="5.1449">
        <ele>323</ele>
        <time>2021-09-04T14:09:58Z</time>
      </trkpt>
      <trkpt lat="44.25752" lon="5.14466">
        <ele>323.60000610352</ele>
        <time>2021-09-04T14:10:05Z</time>
      </trkpt>
      <trkpt lat="44.25755" lon="5.14454">
        <ele>324</ele>
        <time>2021-09-04T14:10:09Z</time>
      </trkpt>
      <trkpt lat="44.25758" lon="5.14439">
        <ele>324.60000610352</ele>
        <time>2021-09-04T14:10:14Z</time>
      </trkpt>
      <trkpt lat="44.2576" lon="5.14429">
        <ele>325.20001220703</ele>
        <time>2021-09-04T14:10:17Z</time>
      </trkpt>
      <trkpt lat="44.25763" lon="5.14417">
        <ele>325.39999389648</ele>
        <time>2021-09-04T14:10:21Z</time>
      </trkpt>
      <trkpt lat="44.25766" lon="5.14402">
        <ele>326.20001220703</ele>
        <time>2021-09-04T14:10:26Z</time>
      </trkpt>
      <trkpt lat="44.25769" lon="5.14389">
        <ele>326.60000610352</ele>
        <time>2021-09-04T14:10:30Z</time>
      </trkpt>
      <trkpt lat="44.25773" lon="5.14374">
        <ele>327.20001220703</ele>
        <time>2021-09-04T14:10:35Z</time>
      </trkpt>
      <trkpt lat="44.25774" lon="5.14367">
        <ele>327.60000610352</ele>
        <time>2021-09-04T14:10:37Z</time>
      </trkpt>
      <trkpt lat="44.25779" lon="5.14345">
        <ele>328.39999389648</ele>
        <time>2021-09-04T14:10:44Z</time>
      </trkpt>
      <trkpt lat="44.2578" lon="5.14339">
        <ele>328.60000610352</ele>
        <time>2021-09-04T14:10:46Z</time>
      </trkpt>
      <trkpt lat="44.25785" lon="5.14317">
        <ele>329.39999389648</ele>
        <time>2021-09-04T14:10:53Z</time>
      </trkpt>
      <trkpt lat="44.25793" lon="5.14292">
        <ele>330.39999389648</ele>
        <time>2021-09-04T14:11:02Z</time>
      </trkpt>
      <trkpt lat="44.25799" lon="5.14283">
        <ele>330.79998779297</ele>
        <time>2021-09-04T14:11:06Z</time>
      </trkpt>
      <trkpt lat="44.25805" lon="5.14279">
        <ele>331.39999389648</ele>
        <time>2021-09-04T14:11:09Z</time>
      </trkpt>
      <trkpt lat="44.25807" lon="5.14278">
        <ele>331.39999389648</ele>
        <time>2021-09-04T14:11:10Z</time>
      </trkpt>
      <trkpt lat="44.2582" lon="5.14275">
        <ele>332.39999389648</ele>
        <time>2021-09-04T14:11:16Z</time>
      </trkpt>
      <trkpt lat="44.25822" lon="5.14274">
        <ele>332.39999389648</ele>
        <time>2021-09-04T14:11:17Z</time>
      </trkpt>
      <trkpt lat="44.25834" lon="5.14276">
        <ele>333.20001220703</ele>
        <time>2021-09-04T14:11:23Z</time>
      </trkpt>
      <trkpt lat="44.25838" lon="5.14279">
        <ele>333.60000610352</ele>
        <time>2021-09-04T14:11:25Z</time>
      </trkpt>
      <trkpt lat="44.25844" lon="5.14278">
        <ele>334.20001220703</ele>
        <time>2021-09-04T14:11:28Z</time>
      </trkpt>
      <trkpt lat="44.25846" lon="5.14279">
        <ele>334.20001220703</ele>
        <time>2021-09-04T14:11:29Z</time>
      </trkpt>
      <trkpt lat="44.25853" lon="5.14291">
        <ele>334.39999389648</ele>
        <time>2021-09-04T14:11:34Z</time>
      </trkpt>
      <trkpt lat="44.25858" lon="5.14294">
        <ele>334.79998779297</ele>
        <time>2021-09-04T14:14:30Z</time>
      </trkpt>
      <trkpt lat="44.2586" lon="5.14295">
        <ele>334.79998779297</ele>
        <time>2021-09-04T14:14:31Z</time>
      </trkpt>
      <trkpt lat="44.25875" lon="5.14301">
        <ele>334.60000610352</ele>
        <time>2021-09-04T14:14:36Z</time>
      </trkpt>
      <trkpt lat="44.25889" lon="5.14302">
        <ele>334.39999389648</ele>
        <time>2021-09-04T14:14:40Z</time>
      </trkpt>
      <trkpt lat="44.25893" lon="5.143">
        <ele>334.20001220703</ele>
        <time>2021-09-04T14:14:41Z</time>
      </trkpt>
      <trkpt lat="44.25901" lon="5.14293">
        <ele>333.79998779297</ele>
        <time>2021-09-04T14:14:43Z</time>
      </trkpt>
      <trkpt lat="44.25904" lon="5.14286">
        <ele>333.60000610352</ele>
        <time>2021-09-04T14:14:44Z</time>
      </trkpt>
      <trkpt lat="44.2591" lon="5.14271">
        <ele>333.39999389648</ele>
        <time>2021-09-04T14:14:46Z</time>
      </trkpt>
      <trkpt lat="44.25913" lon="5.14251">
        <ele>333</ele>
        <time>2021-09-04T14:14:48Z</time>
      </trkpt>
      <trkpt lat="44.25914" lon="5.14241">
        <ele>332.60000610352</ele>
        <time>2021-09-04T14:14:49Z</time>
      </trkpt>
      <trkpt lat="44.25915" lon="5.1423">
        <ele>332.20001220703</ele>
        <time>2021-09-04T14:14:50Z</time>
      </trkpt>
      <trkpt lat="44.25919" lon="5.14184">
        <ele>331.20001220703</ele>
        <time>2021-09-04T14:14:54Z</time>
      </trkpt>
      <trkpt lat="44.25918" lon="5.14133">
        <ele>330</ele>
        <time>2021-09-04T14:14:58Z</time>
      </trkpt>
      <trkpt lat="44.25917" lon="5.14106">
        <ele>329</ele>
        <time>2021-09-04T14:15:00Z</time>
      </trkpt>
      <trkpt lat="44.25916" lon="5.14093">
        <ele>328.60000610352</ele>
        <time>2021-09-04T14:15:01Z</time>
      </trkpt>
      <trkpt lat="44.25916" lon="5.14052">
        <ele>327.20001220703</ele>
        <time>2021-09-04T14:15:04Z</time>
      </trkpt>
      <trkpt lat="44.2592" lon="5.1401">
        <ele>326.20001220703</ele>
        <time>2021-09-04T14:15:07Z</time>
      </trkpt>
      <trkpt lat="44.25925" lon="5.13983">
        <ele>325</ele>
        <time>2021-09-04T14:15:09Z</time>
      </trkpt>
      <trkpt lat="44.25933" lon="5.13941">
        <ele>323.79998779297</ele>
        <time>2021-09-04T14:15:12Z</time>
      </trkpt>
      <trkpt lat="44.2594" lon="5.13913">
        <ele>322.79998779297</ele>
        <time>2021-09-04T14:15:14Z</time>
      </trkpt>
      <trkpt lat="44.25945" lon="5.13899">
        <ele>322.39999389648</ele>
        <time>2021-09-04T14:15:15Z</time>
      </trkpt>
      <trkpt lat="44.25955" lon="5.13873">
        <ele>321.39999389648</ele>
        <time>2021-09-04T14:15:17Z</time>
      </trkpt>
      <trkpt lat="44.25961" lon="5.1386">
        <ele>320.60000610352</ele>
        <time>2021-09-04T14:15:18Z</time>
      </trkpt>
      <trkpt lat="44.25966" lon="5.13847">
        <ele>320</ele>
        <time>2021-09-04T14:15:19Z</time>
      </trkpt>
      <trkpt lat="44.25978" lon="5.1382">
        <ele>319</ele>
        <time>2021-09-04T14:15:21Z</time>
      </trkpt>
      <trkpt lat="44.25989" lon="5.13793">
        <ele>317.79998779297</ele>
        <time>2021-09-04T14:15:23Z</time>
      </trkpt>
      <trkpt lat="44.26001" lon="5.13765">
        <ele>316.60000610352</ele>
        <time>2021-09-04T14:15:25Z</time>
      </trkpt>
      <trkpt lat="44.26007" lon="5.13752">
        <ele>316.20001220703</ele>
        <time>2021-09-04T14:15:26Z</time>
      </trkpt>
      <trkpt lat="44.26019" lon="5.13723">
        <ele>315.20001220703</ele>
        <time>2021-09-04T14:15:28Z</time>
      </trkpt>
      <trkpt lat="44.26031" lon="5.13694">
        <ele>314.20001220703</ele>
        <time>2021-09-04T14:15:30Z</time>
      </trkpt>
      <trkpt lat="44.26044" lon="5.13666">
        <ele>312.79998779297</ele>
        <time>2021-09-04T14:15:32Z</time>
      </trkpt>
      <trkpt lat="44.26051" lon="5.13652">
        <ele>312.20001220703</ele>
        <time>2021-09-04T14:15:33Z</time>
      </trkpt>
      <trkpt lat="44.26059" lon="5.13639">
        <ele>311.60000610352</ele>
        <time>2021-09-04T14:15:34Z</time>
      </trkpt>
      <trkpt lat="44.26074" lon="5.13613">
        <ele>310.20001220703</ele>
        <time>2021-09-04T14:15:36Z</time>
      </trkpt>
      <trkpt lat="44.2609" lon="5.13589">
        <ele>309.20001220703</ele>
        <time>2021-09-04T14:15:38Z</time>
      </trkpt>
      <trkpt lat="44.26105" lon="5.13565">
        <ele>308</ele>
        <time>2021-09-04T14:15:40Z</time>
      </trkpt>
      <trkpt lat="44.26119" lon="5.13543">
        <ele>306.79998779297</ele>
        <time>2021-09-04T14:15:42Z</time>
      </trkpt>
      <trkpt lat="44.26126" lon="5.13533">
        <ele>306.20001220703</ele>
        <time>2021-09-04T14:15:43Z</time>
      </trkpt>
      <trkpt lat="44.26132" lon="5.13524">
        <ele>305.60000610352</ele>
        <time>2021-09-04T14:15:44Z</time>
      </trkpt>
      <trkpt lat="44.26136" lon="5.13514">
        <ele>305</ele>
        <time>2021-09-04T14:15:45Z</time>
      </trkpt>
      <trkpt lat="44.26139" lon="5.13504">
        <ele>304.39999389648</ele>
        <time>2021-09-04T14:15:46Z</time>
      </trkpt>
      <trkpt lat="44.26136" lon="5.13483">
        <ele>303.39999389648</ele>
        <time>2021-09-04T14:15:48Z</time>
      </trkpt>
      <trkpt lat="44.26134" lon="5.13472">
        <ele>302.79998779297</ele>
        <time>2021-09-04T14:15:49Z</time>
      </trkpt>
      <trkpt lat="44.26134" lon="5.13461">
        <ele>302.39999389648</ele>
        <time>2021-09-04T14:15:50Z</time>
      </trkpt>
      <trkpt lat="44.26135" lon="5.1345">
        <ele>302</ele>
        <time>2021-09-04T14:15:51Z</time>
      </trkpt>
      <trkpt lat="44.26137" lon="5.13438">
        <ele>301.39999389648</ele>
        <time>2021-09-04T14:15:52Z</time>
      </trkpt>
      <trkpt lat="44.26143" lon="5.13417">
        <ele>300.60000610352</ele>
        <time>2021-09-04T14:15:54Z</time>
      </trkpt>
      <trkpt lat="44.26151" lon="5.13383">
        <ele>299.60000610352</ele>
        <time>2021-09-04T14:15:57Z</time>
      </trkpt>
      <trkpt lat="44.26164" lon="5.13323">
        <ele>298.60000610352</ele>
        <time>2021-09-04T14:16:02Z</time>
      </trkpt>
      <trkpt lat="44.26169" lon="5.13299">
        <ele>297.79998779297</ele>
        <time>2021-09-04T14:16:04Z</time>
      </trkpt>
      <trkpt lat="44.26173" lon="5.13274">
        <ele>297.20001220703</ele>
        <time>2021-09-04T14:16:06Z</time>
      </trkpt>
      <trkpt lat="44.26183" lon="5.13224">
        <ele>296</ele>
        <time>2021-09-04T14:16:10Z</time>
      </trkpt>
      <trkpt lat="44.26186" lon="5.13212">
        <ele>295.79998779297</ele>
        <time>2021-09-04T14:16:11Z</time>
      </trkpt>
      <trkpt lat="44.26198" lon="5.13163">
        <ele>295.20001220703</ele>
        <time>2021-09-04T14:16:15Z</time>
      </trkpt>
      <trkpt lat="44.26198" lon="5.1315">
        <ele>294.79998779297</ele>
        <time>2021-09-04T14:16:16Z</time>
      </trkpt>
      <trkpt lat="44.26199" lon="5.1311">
        <ele>293.79998779297</ele>
        <time>2021-09-04T14:16:19Z</time>
      </trkpt>
      <trkpt lat="44.26203" lon="5.13097">
        <ele>293.20001220703</ele>
        <time>2021-09-04T14:16:20Z</time>
      </trkpt>
      <trkpt lat="44.26218" lon="5.13061">
        <ele>292.39999389648</ele>
        <time>2021-09-04T14:16:23Z</time>
      </trkpt>
      <trkpt lat="44.26224" lon="5.13051">
        <ele>292</ele>
        <time>2021-09-04T14:16:24Z</time>
      </trkpt>
      <trkpt lat="44.26229" lon="5.1304">
        <ele>291.60000610352</ele>
        <time>2021-09-04T14:16:25Z</time>
      </trkpt>
      <trkpt lat="44.26234" lon="5.13029">
        <ele>291.20001220703</ele>
        <time>2021-09-04T14:16:26Z</time>
      </trkpt>
      <trkpt lat="44.26242" lon="5.13005">
        <ele>290.60000610352</ele>
        <time>2021-09-04T14:16:28Z</time>
      </trkpt>
      <trkpt lat="44.26245" lon="5.12993">
        <ele>290.20001220703</ele>
        <time>2021-09-04T14:16:29Z</time>
      </trkpt>
      <trkpt lat="44.26247" lon="5.12981">
        <ele>290</ele>
        <time>2021-09-04T14:16:30Z</time>
      </trkpt>
      <trkpt lat="44.26247" lon="5.12968">
        <ele>289.60000610352</ele>
        <time>2021-09-04T14:16:31Z</time>
      </trkpt>
      <trkpt lat="44.26246" lon="5.12941">
        <ele>288.79998779297</ele>
        <time>2021-09-04T14:16:33Z</time>
      </trkpt>
      <trkpt lat="44.26247" lon="5.12928">
        <ele>288.60000610352</ele>
        <time>2021-09-04T14:16:34Z</time>
      </trkpt>
      <trkpt lat="44.26247" lon="5.12915">
        <ele>288.20001220703</ele>
        <time>2021-09-04T14:16:35Z</time>
      </trkpt>
      <trkpt lat="44.26251" lon="5.12889">
        <ele>287.60000610352</ele>
        <time>2021-09-04T14:16:37Z</time>
      </trkpt>
      <trkpt lat="44.2626" lon="5.12851">
        <ele>286.60000610352</ele>
        <time>2021-09-04T14:16:40Z</time>
      </trkpt>
      <trkpt lat="44.26265" lon="5.12813">
        <ele>285.39999389648</ele>
        <time>2021-09-04T14:16:43Z</time>
      </trkpt>
      <trkpt lat="44.26268" lon="5.128">
        <ele>284.79998779297</ele>
        <time>2021-09-04T14:16:44Z</time>
      </trkpt>
      <trkpt lat="44.26274" lon="5.12789">
        <ele>284.39999389648</ele>
        <time>2021-09-04T14:16:45Z</time>
      </trkpt>
      <trkpt lat="44.26289" lon="5.12772">
        <ele>283.60000610352</ele>
        <time>2021-09-04T14:16:47Z</time>
      </trkpt>
      <trkpt lat="44.26298" lon="5.12766">
        <ele>283.20001220703</ele>
        <time>2021-09-04T14:16:48Z</time>
      </trkpt>
      <trkpt lat="44.26305" lon="5.12756">
        <ele>282.79998779297</ele>
        <time>2021-09-04T14:16:49Z</time>
      </trkpt>
      <trkpt lat="44.26307" lon="5.12743">
        <ele>282.20001220703</ele>
        <time>2021-09-04T14:16:50Z</time>
      </trkpt>
      <trkpt lat="44.26308" lon="5.1273">
        <ele>281.79998779297</ele>
        <time>2021-09-04T14:16:51Z</time>
      </trkpt>
      <trkpt lat="44.26309" lon="5.12704">
        <ele>280.79998779297</ele>
        <time>2021-09-04T14:16:53Z</time>
      </trkpt>
      <trkpt lat="44.2631" lon="5.1269">
        <ele>280.39999389648</ele>
        <time>2021-09-04T14:16:54Z</time>
      </trkpt>
      <trkpt lat="44.26315" lon="5.12652">
        <ele>279.39999389648</ele>
        <time>2021-09-04T14:16:57Z</time>
      </trkpt>
      <trkpt lat="44.26318" lon="5.1264">
        <ele>279.20001220703</ele>
        <time>2021-09-04T14:16:58Z</time>
      </trkpt>
      <trkpt lat="44.26324" lon="5.12616">
        <ele>278.79998779297</ele>
        <time>2021-09-04T14:17:00Z</time>
      </trkpt>
      <trkpt lat="44.26324" lon="5.12591">
        <ele>278.60000610352</ele>
        <time>2021-09-04T14:17:02Z</time>
      </trkpt>
      <trkpt lat="44.26322" lon="5.12566">
        <ele>278</ele>
        <time>2021-09-04T14:17:04Z</time>
      </trkpt>
      <trkpt lat="44.26321" lon="5.1253">
        <ele>277.20001220703</ele>
        <time>2021-09-04T14:17:07Z</time>
      </trkpt>
      <trkpt lat="44.26322" lon="5.12519">
        <ele>277</ele>
        <time>2021-09-04T14:17:08Z</time>
      </trkpt>
      <trkpt lat="44.26322" lon="5.12495">
        <ele>276.79998779297</ele>
        <time>2021-09-04T14:17:10Z</time>
      </trkpt>
      <trkpt lat="44.26318" lon="5.12473">
        <ele>276.39999389648</ele>
        <time>2021-09-04T14:17:12Z</time>
      </trkpt>
      <trkpt lat="44.26314" lon="5.12452">
        <ele>276.39999389648</ele>
        <time>2021-09-04T14:17:14Z</time>
      </trkpt>
      <trkpt lat="44.26318" lon="5.12431">
        <ele>276.20001220703</ele>
        <time>2021-09-04T14:17:16Z</time>
      </trkpt>
      <trkpt lat="44.26328" lon="5.12401">
        <ele>276.20001220703</ele>
        <time>2021-09-04T14:17:19Z</time>
      </trkpt>
      <trkpt lat="44.26332" lon="5.12391">
        <ele>276.20001220703</ele>
        <time>2021-09-04T14:17:20Z</time>
      </trkpt>
      <trkpt lat="44.26343" lon="5.12352">
        <ele>276</ele>
        <time>2021-09-04T14:17:24Z</time>
      </trkpt>
      <trkpt lat="44.26345" lon="5.12341">
        <ele>276</ele>
        <time>2021-09-04T14:17:25Z</time>
      </trkpt>
      <trkpt lat="44.26345" lon="5.1233">
        <ele>275.79998779297</ele>
        <time>2021-09-04T14:17:26Z</time>
      </trkpt>
      <trkpt lat="44.26342" lon="5.12269">
        <ele>274.79998779297</ele>
        <time>2021-09-04T14:17:31Z</time>
      </trkpt>
      <trkpt lat="44.2634" lon="5.1223">
        <ele>273.60000610352</ele>
        <time>2021-09-04T14:17:34Z</time>
      </trkpt>
      <trkpt lat="44.26335" lon="5.12191">
        <ele>272.79998779297</ele>
        <time>2021-09-04T14:17:37Z</time>
      </trkpt>
      <trkpt lat="44.26331" lon="5.1218">
        <ele>272.60000610352</ele>
        <time>2021-09-04T14:17:38Z</time>
      </trkpt>
      <trkpt lat="44.26322" lon="5.12158">
        <ele>272</ele>
        <time>2021-09-04T14:17:40Z</time>
      </trkpt>
      <trkpt lat="44.2632" lon="5.12146">
        <ele>271.79998779297</ele>
        <time>2021-09-04T14:17:41Z</time>
      </trkpt>
      <trkpt lat="44.26311" lon="5.12113">
        <ele>271.60000610352</ele>
        <time>2021-09-04T14:17:44Z</time>
      </trkpt>
      <trkpt lat="44.26308" lon="5.12102">
        <ele>271.60000610352</ele>
        <time>2021-09-04T14:17:45Z</time>
      </trkpt>
      <trkpt lat="44.26294" lon="5.12059">
        <ele>270.39999389648</ele>
        <time>2021-09-04T14:17:49Z</time>
      </trkpt>
      <trkpt lat="44.26284" lon="5.12024">
        <ele>269.39999389648</ele>
        <time>2021-09-04T14:17:52Z</time>
      </trkpt>
      <trkpt lat="44.26272" lon="5.1199">
        <ele>268.39999389648</ele>
        <time>2021-09-04T14:17:55Z</time>
      </trkpt>
      <trkpt lat="44.26265" lon="5.11966">
        <ele>267.20001220703</ele>
        <time>2021-09-04T14:17:57Z</time>
      </trkpt>
      <trkpt lat="44.26257" lon="5.11942">
        <ele>266.60000610352</ele>
        <time>2021-09-04T14:17:59Z</time>
      </trkpt>
      <trkpt lat="44.26249" lon="5.11918">
        <ele>266</ele>
        <time>2021-09-04T14:18:01Z</time>
      </trkpt>
      <trkpt lat="44.26243" lon="5.1188">
        <ele>265</ele>
        <time>2021-09-04T14:18:04Z</time>
      </trkpt>
      <trkpt lat="44.26239" lon="5.1184">
        <ele>263.79998779297</ele>
        <time>2021-09-04T14:18:07Z</time>
      </trkpt>
      <trkpt lat="44.26235" lon="5.11816">
        <ele>263.20001220703</ele>
        <time>2021-09-04T14:18:09Z</time>
      </trkpt>
      <trkpt lat="44.26233" lon="5.11779">
        <ele>262.79998779297</ele>
        <time>2021-09-04T14:18:13Z</time>
      </trkpt>
      <trkpt lat="44.26233" lon="5.11772">
        <ele>263.20001220703</ele>
        <time>2021-09-04T14:18:16Z</time>
      </trkpt>
      <trkpt lat="44.26228" lon="5.11763">
        <ele>264.20001220703</ele>
        <time>2021-09-04T14:18:20Z</time>
      </trkpt>
      <trkpt lat="44.26218" lon="5.11754">
        <ele>264.20001220703</ele>
        <time>2021-09-04T14:18:23Z</time>
      </trkpt>
      <trkpt lat="44.26214" lon="5.1175">
        <ele>264.20001220703</ele>
        <time>2021-09-04T14:18:24Z</time>
      </trkpt>
      <trkpt lat="44.26191" lon="5.11723">
        <ele>263.79998779297</ele>
        <time>2021-09-04T14:18:29Z</time>
      </trkpt>
      <trkpt lat="44.26178" lon="5.11703">
        <ele>262.79998779297</ele>
        <time>2021-09-04T14:18:32Z</time>
      </trkpt>
      <trkpt lat="44.26174" lon="5.11694">
        <ele>262.39999389648</ele>
        <time>2021-09-04T14:18:33Z</time>
      </trkpt>
      <trkpt lat="44.2617" lon="5.11685">
        <ele>262</ele>
        <time>2021-09-04T14:18:34Z</time>
      </trkpt>
      <trkpt lat="44.26162" lon="5.11669">
        <ele>261.20001220703</ele>
        <time>2021-09-04T14:18:36Z</time>
      </trkpt>
      <trkpt lat="44.26141" lon="5.11628">
        <ele>260.39999389648</ele>
        <time>2021-09-04T14:18:41Z</time>
      </trkpt>
      <trkpt lat="44.26119" lon="5.11587">
        <ele>260.20001220703</ele>
        <time>2021-09-04T14:18:46Z</time>
      </trkpt>
      <trkpt lat="44.26106" lon="5.11562">
        <ele>259.60000610352</ele>
        <time>2021-09-04T14:18:49Z</time>
      </trkpt>
      <trkpt lat="44.26094" lon="5.11535">
        <ele>259.20001220703</ele>
        <time>2021-09-04T14:18:52Z</time>
      </trkpt>
      <trkpt lat="44.2609" lon="5.11524">
        <ele>259</ele>
        <time>2021-09-04T14:18:53Z</time>
      </trkpt>
      <trkpt lat="44.26087" lon="5.11513">
        <ele>258.79998779297</ele>
        <time>2021-09-04T14:18:54Z</time>
      </trkpt>
      <trkpt lat="44.26082" lon="5.11476">
        <ele>258</ele>
        <time>2021-09-04T14:18:57Z</time>
      </trkpt>
      <trkpt lat="44.26081" lon="5.11463">
        <ele>257.60000610352</ele>
        <time>2021-09-04T14:18:58Z</time>
      </trkpt>
      <trkpt lat="44.26077" lon="5.11422">
        <ele>256.79998779297</ele>
        <time>2021-09-04T14:19:01Z</time>
      </trkpt>
      <trkpt lat="44.26073" lon="5.11378">
        <ele>255.39999389648</ele>
        <time>2021-09-04T14:19:04Z</time>
      </trkpt>
      <trkpt lat="44.2607" lon="5.11347">
        <ele>254.19999694824</ele>
        <time>2021-09-04T14:19:06Z</time>
      </trkpt>
      <trkpt lat="44.26068" lon="5.11314">
        <ele>252.80000305176</ele>
        <time>2021-09-04T14:19:08Z</time>
      </trkpt>
      <trkpt lat="44.26066" lon="5.11298">
        <ele>251.39999389648</ele>
        <time>2021-09-04T14:19:09Z</time>
      </trkpt>
      <trkpt lat="44.26063" lon="5.11265">
        <ele>249.60000610352</ele>
        <time>2021-09-04T14:19:11Z</time>
      </trkpt>
      <trkpt lat="44.26061" lon="5.11231">
        <ele>248</ele>
        <time>2021-09-04T14:19:13Z</time>
      </trkpt>
      <trkpt lat="44.26057" lon="5.11196">
        <ele>246.60000610352</ele>
        <time>2021-09-04T14:19:15Z</time>
      </trkpt>
      <trkpt lat="44.26053" lon="5.1116">
        <ele>245.19999694824</ele>
        <time>2021-09-04T14:19:17Z</time>
      </trkpt>
      <trkpt lat="44.2605" lon="5.11125">
        <ele>244</ele>
        <time>2021-09-04T14:19:19Z</time>
      </trkpt>
      <trkpt lat="44.26044" lon="5.1109">
        <ele>243</ele>
        <time>2021-09-04T14:19:21Z</time>
      </trkpt>
      <trkpt lat="44.26037" lon="5.11074">
        <ele>242.39999389648</ele>
        <time>2021-09-04T14:19:22Z</time>
      </trkpt>
      <trkpt lat="44.26029" lon="5.11061">
        <ele>241.80000305176</ele>
        <time>2021-09-04T14:19:23Z</time>
      </trkpt>
      <trkpt lat="44.26017" lon="5.11053">
        <ele>241.19999694824</ele>
        <time>2021-09-04T14:19:24Z</time>
      </trkpt>
      <trkpt lat="44.26005" lon="5.11048">
        <ele>240.39999389648</ele>
        <time>2021-09-04T14:19:25Z</time>
      </trkpt>
      <trkpt lat="44.25992" lon="5.11045">
        <ele>239.60000610352</ele>
        <time>2021-09-04T14:19:26Z</time>
      </trkpt>
      <trkpt lat="44.2598" lon="5.11045">
        <ele>239</ele>
        <time>2021-09-04T14:19:27Z</time>
      </trkpt>
      <trkpt lat="44.25967" lon="5.11045">
        <ele>238.39999389648</ele>
        <time>2021-09-04T14:19:28Z</time>
      </trkpt>
      <trkpt lat="44.25955" lon="5.11046">
        <ele>237.80000305176</ele>
        <time>2021-09-04T14:19:29Z</time>
      </trkpt>
      <trkpt lat="44.25933" lon="5.11044">
        <ele>236.39999389648</ele>
        <time>2021-09-04T14:19:31Z</time>
      </trkpt>
      <trkpt lat="44.25913" lon="5.1104">
        <ele>234.80000305176</ele>
        <time>2021-09-04T14:19:33Z</time>
      </trkpt>
      <trkpt lat="44.25898" lon="5.11024">
        <ele>234.19999694824</ele>
        <time>2021-09-04T14:19:35Z</time>
      </trkpt>
      <trkpt lat="44.25893" lon="5.11001">
        <ele>233.60000610352</ele>
        <time>2021-09-04T14:19:37Z</time>
      </trkpt>
      <trkpt lat="44.25891" lon="5.10979">
        <ele>233.60000610352</ele>
        <time>2021-09-04T14:19:39Z</time>
      </trkpt>
      <trkpt lat="44.2589" lon="5.10958">
        <ele>233.60000610352</ele>
        <time>2021-09-04T14:19:41Z</time>
      </trkpt>
      <trkpt lat="44.25888" lon="5.10923">
        <ele>234.19999694824</ele>
        <time>2021-09-04T14:19:45Z</time>
      </trkpt>
      <trkpt lat="44.25886" lon="5.10915">
        <ele>234.19999694824</ele>
        <time>2021-09-04T14:19:46Z</time>
      </trkpt>
      <trkpt lat="44.25875" lon="5.10878">
        <ele>234.60000610352</ele>
        <time>2021-09-04T14:19:51Z</time>
      </trkpt>
      <trkpt lat="44.25872" lon="5.1087">
        <ele>234.80000305176</ele>
        <time>2021-09-04T14:19:52Z</time>
      </trkpt>
      <trkpt lat="44.2586" lon="5.10821">
        <ele>233.80000305176</ele>
        <time>2021-09-04T14:19:57Z</time>
      </trkpt>
      <trkpt lat="44.25857" lon="5.1081">
        <ele>233.39999389648</ele>
        <time>2021-09-04T14:19:58Z</time>
      </trkpt>
      <trkpt lat="44.25848" lon="5.10777">
        <ele>232</ele>
        <time>2021-09-04T14:20:01Z</time>
      </trkpt>
      <trkpt lat="44.25841" lon="5.10755">
        <ele>231.19999694824</ele>
        <time>2021-09-04T14:20:03Z</time>
      </trkpt>
      <trkpt lat="44.25837" lon="5.10744">
        <ele>230.80000305176</ele>
        <time>2021-09-04T14:20:04Z</time>
      </trkpt>
      <trkpt lat="44.25826" lon="5.1071">
        <ele>229.39999389648</ele>
        <time>2021-09-04T14:20:07Z</time>
      </trkpt>
      <trkpt lat="44.25813" lon="5.10665">
        <ele>228.60000610352</ele>
        <time>2021-09-04T14:20:11Z</time>
      </trkpt>
      <trkpt lat="44.25805" lon="5.10643">
        <ele>228.39999389648</ele>
        <time>2021-09-04T14:20:13Z</time>
      </trkpt>
      <trkpt lat="44.25791" lon="5.10599">
        <ele>227.80000305176</ele>
        <time>2021-09-04T14:20:17Z</time>
      </trkpt>
      <trkpt lat="44.25783" lon="5.10578">
        <ele>227.39999389648</ele>
        <time>2021-09-04T14:20:19Z</time>
      </trkpt>
      <trkpt lat="44.25758" lon="5.10514">
        <ele>226.19999694824</ele>
        <time>2021-09-04T14:20:25Z</time>
      </trkpt>
      <trkpt lat="44.25741" lon="5.10485">
        <ele>225.19999694824</ele>
        <time>2021-09-04T14:20:28Z</time>
      </trkpt>
      <trkpt lat="44.25734" lon="5.10478">
        <ele>225</ele>
        <time>2021-09-04T14:20:29Z</time>
      </trkpt>
      <trkpt lat="44.25708" lon="5.10458">
        <ele>224.39999389648</ele>
        <time>2021-09-04T14:20:32Z</time>
      </trkpt>
      <trkpt lat="44.25699" lon="5.10452">
        <ele>224.19999694824</ele>
        <time>2021-09-04T14:20:33Z</time>
      </trkpt>
      <trkpt lat="44.2569" lon="5.10446">
        <ele>224</ele>
        <time>2021-09-04T14:20:34Z</time>
      </trkpt>
      <trkpt lat="44.25654" lon="5.10423">
        <ele>222.60000610352</ele>
        <time>2021-09-04T14:20:38Z</time>
      </trkpt>
      <trkpt lat="44.25627" lon="5.10406">
        <ele>221.19999694824</ele>
        <time>2021-09-04T14:20:41Z</time>
      </trkpt>
      <trkpt lat="44.2561" lon="5.10394">
        <ele>220.60000610352</ele>
        <time>2021-09-04T14:20:43Z</time>
      </trkpt>
      <trkpt lat="44.25601" lon="5.10387">
        <ele>220.19999694824</ele>
        <time>2021-09-04T14:20:44Z</time>
      </trkpt>
      <trkpt lat="44.25585" lon="5.10372">
        <ele>219</ele>
        <time>2021-09-04T14:20:46Z</time>
      </trkpt>
      <trkpt lat="44.25572" lon="5.10356">
        <ele>218.19999694824</ele>
        <time>2021-09-04T14:20:48Z</time>
      </trkpt>
      <trkpt lat="44.25566" lon="5.10348">
        <ele>217.80000305176</ele>
        <time>2021-09-04T14:20:49Z</time>
      </trkpt>
      <trkpt lat="44.25549" lon="5.10324">
        <ele>216.80000305176</ele>
        <time>2021-09-04T14:20:52Z</time>
      </trkpt>
      <trkpt lat="44.25539" lon="5.10308">
        <ele>216.60000610352</ele>
        <time>2021-09-04T14:20:54Z</time>
      </trkpt>
      <trkpt lat="44.25498" lon="5.10254">
        <ele>216.60000610352</ele>
        <time>2021-09-04T14:21:02Z</time>
      </trkpt>
      <trkpt lat="44.25461" lon="5.10202">
        <ele>217</ele>
        <time>2021-09-04T14:21:10Z</time>
      </trkpt>
      <trkpt lat="44.25432" lon="5.1016">
        <ele>216.39999389648</ele>
        <time>2021-09-04T14:21:16Z</time>
      </trkpt>
      <trkpt lat="44.25395" lon="5.10108">
        <ele>215.80000305176</ele>
        <time>2021-09-04T14:21:23Z</time>
      </trkpt>
      <trkpt lat="44.2538" lon="5.10087">
        <ele>215.80000305176</ele>
        <time>2021-09-04T14:21:26Z</time>
      </trkpt>
      <trkpt lat="44.25344" lon="5.10049">
        <ele>215.39999389648</ele>
        <time>2021-09-04T14:21:32Z</time>
      </trkpt>
      <trkpt lat="44.25296" lon="5.10001">
        <ele>214.80000305176</ele>
        <time>2021-09-04T14:21:40Z</time>
      </trkpt>
      <trkpt lat="44.2529" lon="5.09995">
        <ele>214.60000610352</ele>
        <time>2021-09-04T14:21:41Z</time>
      </trkpt>
      <trkpt lat="44.25251" lon="5.09953">
        <ele>214</ele>
        <time>2021-09-04T14:21:48Z</time>
      </trkpt>
      <trkpt lat="44.25207" lon="5.09903">
        <ele>213.80000305176</ele>
        <time>2021-09-04T14:21:56Z</time>
      </trkpt>
      <trkpt lat="44.25201" lon="5.09897">
        <ele>213.60000610352</ele>
        <time>2021-09-04T14:21:57Z</time>
      </trkpt>
      <trkpt lat="44.25162" lon="5.09862">
        <ele>212.39999389648</ele>
        <time>2021-09-04T14:22:03Z</time>
      </trkpt>
      <trkpt lat="44.25149" lon="5.09851">
        <ele>212.19999694824</ele>
        <time>2021-09-04T14:22:05Z</time>
      </trkpt>
      <trkpt lat="44.25112" lon="5.09813">
        <ele>211.39999389648</ele>
        <time>2021-09-04T14:22:11Z</time>
      </trkpt>
      <trkpt lat="44.251" lon="5.09802">
        <ele>211.19999694824</ele>
        <time>2021-09-04T14:22:13Z</time>
      </trkpt>
      <trkpt lat="44.25054" lon="5.09759">
        <ele>210.60000610352</ele>
        <time>2021-09-04T14:22:21Z</time>
      </trkpt>
      <trkpt lat="44.25048" lon="5.09754">
        <ele>210.60000610352</ele>
        <time>2021-09-04T14:22:22Z</time>
      </trkpt>
      <trkpt lat="44.25012" lon="5.09718">
        <ele>210.60000610352</ele>
        <time>2021-09-04T14:22:28Z</time>
      </trkpt>
      <trkpt lat="44.24994" lon="5.09701">
        <ele>210.39999389648</ele>
        <time>2021-09-04T14:22:31Z</time>
      </trkpt>
      <trkpt lat="44.24959" lon="5.09662">
        <ele>209.39999389648</ele>
        <time>2021-09-04T14:22:37Z</time>
      </trkpt>
      <trkpt lat="44.24919" lon="5.09605">
        <ele>209.19999694824</ele>
        <time>2021-09-04T14:22:45Z</time>
      </trkpt>
      <trkpt lat="44.24885" lon="5.09545">
        <ele>208.39999389648</ele>
        <time>2021-09-04T14:22:53Z</time>
      </trkpt>
      <trkpt lat="44.24881" lon="5.09538">
        <ele>208.39999389648</ele>
        <time>2021-09-04T14:22:54Z</time>
      </trkpt>
      <trkpt lat="44.24864" lon="5.0951">
        <ele>208.39999389648</ele>
        <time>2021-09-04T14:22:58Z</time>
      </trkpt>
      <trkpt lat="44.24848" lon="5.09482">
        <ele>208.19999694824</ele>
        <time>2021-09-04T14:23:02Z</time>
      </trkpt>
      <trkpt lat="44.24811" lon="5.09425">
        <ele>209.19999694824</ele>
        <time>2021-09-04T14:23:11Z</time>
      </trkpt>
      <trkpt lat="44.24807" lon="5.09419">
        <ele>209.39999389648</ele>
        <time>2021-09-04T14:23:12Z</time>
      </trkpt>
      <trkpt lat="44.24783" lon="5.09389">
        <ele>210</ele>
        <time>2021-09-04T14:23:18Z</time>
      </trkpt>
      <trkpt lat="44.24746" lon="5.09356">
        <ele>210.39999389648</ele>
        <time>2021-09-04T14:23:26Z</time>
      </trkpt>
      <trkpt lat="44.2472" lon="5.09324">
        <ele>209.80000305176</ele>
        <time>2021-09-04T14:23:32Z</time>
      </trkpt>
      <trkpt lat="44.24718" lon="5.09316">
        <ele>209.80000305176</ele>
        <time>2021-09-04T14:23:33Z</time>
      </trkpt>
      <trkpt lat="44.2472" lon="5.09294">
        <ele>209.80000305176</ele>
        <time>2021-09-04T14:23:36Z</time>
      </trkpt>
      <trkpt lat="44.24728" lon="5.0928">
        <ele>210.39999389648</ele>
        <time>2021-09-04T14:23:39Z</time>
      </trkpt>
      <trkpt lat="44.24731" lon="5.09277">
        <ele>210.60000610352</ele>
        <time>2021-09-04T14:23:40Z</time>
      </trkpt>
      <trkpt lat="44.24734" lon="5.09275">
        <ele>210.80000305176</ele>
        <time>2021-09-04T14:23:41Z</time>
      </trkpt>
      <trkpt lat="44.24741" lon="5.09273">
        <ele>211.60000610352</ele>
        <time>2021-09-04T14:23:44Z</time>
      </trkpt>
      <trkpt lat="44.24743" lon="5.09273">
        <ele>211.80000305176</ele>
        <time>2021-09-04T14:23:45Z</time>
      </trkpt>
      <trkpt lat="44.24746" lon="5.09273">
        <ele>213</ele>
        <time>2021-09-04T14:24:55Z</time>
      </trkpt>
      <trkpt lat="44.24755" lon="5.09268">
        <ele>213.19999694824</ele>
        <time>2021-09-04T14:24:59Z</time>
      </trkpt>
      <trkpt lat="44.24769" lon="5.09258">
        <ele>213.19999694824</ele>
        <time>2021-09-04T14:25:04Z</time>
      </trkpt>
      <trkpt lat="44.24781" lon="5.0926">
        <ele>213.19999694824</ele>
        <time>2021-09-04T14:25:07Z</time>
      </trkpt>
      <trkpt lat="44.24785" lon="5.09261">
        <ele>213.39999389648</ele>
        <time>2021-09-04T14:25:08Z</time>
      </trkpt>
      <trkpt lat="44.24797" lon="5.09266">
        <ele>213.60000610352</ele>
        <time>2021-09-04T14:25:11Z</time>
      </trkpt>
      <trkpt lat="44.24812" lon="5.09273">
        <ele>214.19999694824</ele>
        <time>2021-09-04T14:25:15Z</time>
      </trkpt>
      <trkpt lat="44.24835" lon="5.09283">
        <ele>214.80000305176</ele>
        <time>2021-09-04T14:25:21Z</time>
      </trkpt>
      <trkpt lat="44.24846" lon="5.09287">
        <ele>215.19999694824</ele>
        <time>2021-09-04T14:25:24Z</time>
      </trkpt>
      <trkpt lat="44.24864" lon="5.09296">
        <ele>215.39999389648</ele>
        <time>2021-09-04T14:25:29Z</time>
      </trkpt>
      <trkpt lat="44.24887" lon="5.09306">
        <ele>216.19999694824</ele>
        <time>2021-09-04T14:25:36Z</time>
      </trkpt>
      <trkpt lat="44.24895" lon="5.09309">
        <ele>216.39999389648</ele>
        <time>2021-09-04T14:25:38Z</time>
      </trkpt>
      <trkpt lat="44.24932" lon="5.09322">
        <ele>217</ele>
        <time>2021-09-04T14:25:48Z</time>
      </trkpt>
      <trkpt lat="44.2495" lon="5.09328">
        <ele>217.19999694824</ele>
        <time>2021-09-04T14:25:53Z</time>
      </trkpt>
      <trkpt lat="44.24958" lon="5.0933">
        <ele>217.19999694824</ele>
        <time>2021-09-04T14:25:55Z</time>
      </trkpt>
      <trkpt lat="44.24973" lon="5.09335">
        <ele>217.80000305176</ele>
        <time>2021-09-04T14:25:59Z</time>
      </trkpt>
      <trkpt lat="44.24989" lon="5.09342">
        <ele>218</ele>
        <time>2021-09-04T14:26:03Z</time>
      </trkpt>
      <trkpt lat="44.25006" lon="5.09349">
        <ele>218.19999694824</ele>
        <time>2021-09-04T14:26:07Z</time>
      </trkpt>
      <trkpt lat="44.25026" lon="5.09357">
        <ele>218.39999389648</ele>
        <time>2021-09-04T14:26:12Z</time>
      </trkpt>
      <trkpt lat="44.25067" lon="5.09373">
        <ele>219.19999694824</ele>
        <time>2021-09-04T14:26:22Z</time>
      </trkpt>
      <trkpt lat="44.25071" lon="5.09375">
        <ele>219.39999389648</ele>
        <time>2021-09-04T14:26:23Z</time>
      </trkpt>
      <trkpt lat="44.25104" lon="5.09388">
        <ele>219.60000610352</ele>
        <time>2021-09-04T14:26:31Z</time>
      </trkpt>
      <trkpt lat="44.25146" lon="5.09406">
        <ele>219.80000305176</ele>
        <time>2021-09-04T14:26:41Z</time>
      </trkpt>
      <trkpt lat="44.25193" lon="5.09424">
        <ele>220.19999694824</ele>
        <time>2021-09-04T14:26:52Z</time>
      </trkpt>
      <trkpt lat="44.25198" lon="5.09425">
        <ele>220.39999389648</ele>
        <time>2021-09-04T14:26:53Z</time>
      </trkpt>
      <trkpt lat="44.2521" lon="5.09431">
        <ele>220.60000610352</ele>
        <time>2021-09-04T14:26:56Z</time>
      </trkpt>
      <trkpt lat="44.25218" lon="5.09435">
        <ele>220.60000610352</ele>
        <time>2021-09-04T14:26:58Z</time>
      </trkpt>
      <trkpt lat="44.25255" lon="5.0945">
        <ele>221.39999389648</ele>
        <time>2021-09-04T14:27:07Z</time>
      </trkpt>
      <trkpt lat="44.25259" lon="5.09452">
        <ele>221.39999389648</ele>
        <time>2021-09-04T14:27:08Z</time>
      </trkpt>
      <trkpt lat="44.25292" lon="5.09466">
        <ele>221.80000305176</ele>
        <time>2021-09-04T14:27:16Z</time>
      </trkpt>
      <trkpt lat="44.25323" lon="5.09483">
        <ele>222.39999389648</ele>
        <time>2021-09-04T14:27:24Z</time>
      </trkpt>
      <trkpt lat="44.25334" lon="5.09489">
        <ele>222.60000610352</ele>
        <time>2021-09-04T14:27:27Z</time>
      </trkpt>
      <trkpt lat="44.25364" lon="5.09506">
        <ele>223.19999694824</ele>
        <time>2021-09-04T14:27:36Z</time>
      </trkpt>
      <trkpt lat="44.25383" lon="5.09517">
        <ele>223.39999389648</ele>
        <time>2021-09-04T14:27:42Z</time>
      </trkpt>
      <trkpt lat="44.25391" lon="5.09521">
        <ele>223.80000305176</ele>
        <time>2021-09-04T14:27:45Z</time>
      </trkpt>
      <trkpt lat="44.25407" lon="5.0953">
        <ele>224.60000610352</ele>
        <time>2021-09-04T14:27:50Z</time>
      </trkpt>
      <trkpt lat="44.25421" lon="5.09538">
        <ele>225.19999694824</ele>
        <time>2021-09-04T14:27:55Z</time>
      </trkpt>
      <trkpt lat="44.2543" lon="5.09543">
        <ele>225.80000305176</ele>
        <time>2021-09-04T14:27:58Z</time>
      </trkpt>
      <trkpt lat="44.2545" lon="5.09553">
        <ele>226.80000305176</ele>
        <time>2021-09-04T14:28:05Z</time>
      </trkpt>
      <trkpt lat="44.25453" lon="5.09555">
        <ele>227</ele>
        <time>2021-09-04T14:28:06Z</time>
      </trkpt>
      <trkpt lat="44.25474" lon="5.09569">
        <ele>228</ele>
        <time>2021-09-04T14:28:14Z</time>
      </trkpt>
      <trkpt lat="44.25479" lon="5.09573">
        <ele>228.19999694824</ele>
        <time>2021-09-04T14:28:16Z</time>
      </trkpt>
      <trkpt lat="44.25495" lon="5.09588">
        <ele>229</ele>
        <time>2021-09-04T14:28:23Z</time>
      </trkpt>
      <trkpt lat="44.25504" lon="5.0961">
        <ele>229.80000305176</ele>
        <time>2021-09-04T14:28:30Z</time>
      </trkpt>
      <trkpt lat="44.25505" lon="5.09614">
        <ele>230</ele>
        <time>2021-09-04T14:28:31Z</time>
      </trkpt>
      <trkpt lat="44.25511" lon="5.09626">
        <ele>230.39999389648</ele>
        <time>2021-09-04T14:28:35Z</time>
      </trkpt>
      <trkpt lat="44.25524" lon="5.09631">
        <ele>230.80000305176</ele>
        <time>2021-09-04T14:28:40Z</time>
      </trkpt>
      <trkpt lat="44.25528" lon="5.09629">
        <ele>231</ele>
        <time>2021-09-04T14:28:42Z</time>
      </trkpt>
      <trkpt lat="44.25535" lon="5.09624">
        <ele>231.19999694824</ele>
        <time>2021-09-04T14:28:45Z</time>
      </trkpt>
      <trkpt lat="44.25553" lon="5.09616">
        <ele>231.60000610352</ele>
        <time>2021-09-04T14:28:52Z</time>
      </trkpt>
      <trkpt lat="44.25568" lon="5.09618">
        <ele>232.19999694824</ele>
        <time>2021-09-04T14:28:58Z</time>
      </trkpt>
      <trkpt lat="44.25579" lon="5.09622">
        <ele>232.39999389648</ele>
        <time>2021-09-04T14:29:02Z</time>
      </trkpt>
      <trkpt lat="44.256" lon="5.0963">
        <ele>233.19999694824</ele>
        <time>2021-09-04T14:29:10Z</time>
      </trkpt>
      <trkpt lat="44.2561" lon="5.09634">
        <ele>233.80000305176</ele>
        <time>2021-09-04T14:29:14Z</time>
      </trkpt>
      <trkpt lat="44.25623" lon="5.09641">
        <ele>234.39999389648</ele>
        <time>2021-09-04T14:29:19Z</time>
      </trkpt>
      <trkpt lat="44.25632" lon="5.09644">
        <ele>234.60000610352</ele>
        <time>2021-09-04T14:29:22Z</time>
      </trkpt>
      <trkpt lat="44.25653" lon="5.09654">
        <ele>235.39999389648</ele>
        <time>2021-09-04T14:29:30Z</time>
      </trkpt>
      <trkpt lat="44.25656" lon="5.09655">
        <ele>235.39999389648</ele>
        <time>2021-09-04T14:29:31Z</time>
      </trkpt>
      <trkpt lat="44.2568" lon="5.09665">
        <ele>236.39999389648</ele>
        <time>2021-09-04T14:29:40Z</time>
      </trkpt>
      <trkpt lat="44.25699" lon="5.09674">
        <ele>237</ele>
        <time>2021-09-04T14:29:47Z</time>
      </trkpt>
      <trkpt lat="44.25705" lon="5.09676">
        <ele>237.39999389648</ele>
        <time>2021-09-04T14:29:49Z</time>
      </trkpt>
      <trkpt lat="44.25723" lon="5.09684">
        <ele>238.19999694824</ele>
        <time>2021-09-04T14:29:56Z</time>
      </trkpt>
      <trkpt lat="44.25731" lon="5.09687">
        <ele>238.60000610352</ele>
        <time>2021-09-04T14:29:59Z</time>
      </trkpt>
      <trkpt lat="44.25749" lon="5.09694">
        <ele>239.60000610352</ele>
        <time>2021-09-04T14:30:06Z</time>
      </trkpt>
      <trkpt lat="44.25774" lon="5.09705">
        <ele>240.19999694824</ele>
        <time>2021-09-04T14:30:15Z</time>
      </trkpt>
      <trkpt lat="44.25782" lon="5.09708">
        <ele>240.60000610352</ele>
        <time>2021-09-04T14:30:18Z</time>
      </trkpt>
      <trkpt lat="44.25802" lon="5.09717">
        <ele>241</ele>
        <time>2021-09-04T14:30:25Z</time>
      </trkpt>
      <trkpt lat="44.25817" lon="5.09724">
        <ele>241.60000610352</ele>
        <time>2021-09-04T14:30:30Z</time>
      </trkpt>
      <trkpt lat="44.25832" lon="5.09731">
        <ele>242.19999694824</ele>
        <time>2021-09-04T14:30:35Z</time>
      </trkpt>
      <trkpt lat="44.25848" lon="5.09737">
        <ele>242.80000305176</ele>
        <time>2021-09-04T14:30:40Z</time>
      </trkpt>
      <trkpt lat="44.25863" lon="5.09745">
        <ele>243.19999694824</ele>
        <time>2021-09-04T14:30:45Z</time>
      </trkpt>
      <trkpt lat="44.25878" lon="5.09754">
        <ele>243.80000305176</ele>
        <time>2021-09-04T14:30:50Z</time>
      </trkpt>
      <trkpt lat="44.25884" lon="5.09759">
        <ele>244</ele>
        <time>2021-09-04T14:30:52Z</time>
      </trkpt>
      <trkpt lat="44.25906" lon="5.09784">
        <ele>244.19999694824</ele>
        <time>2021-09-04T14:31:00Z</time>
      </trkpt>
      <trkpt lat="44.25921" lon="5.09809">
        <ele>244.80000305176</ele>
        <time>2021-09-04T14:31:07Z</time>
      </trkpt>
      <trkpt lat="44.25936" lon="5.09835">
        <ele>245.60000610352</ele>
        <time>2021-09-04T14:31:14Z</time>
      </trkpt>
      <trkpt lat="44.25943" lon="5.09846">
        <ele>246</ele>
        <time>2021-09-04T14:31:17Z</time>
      </trkpt>
      <trkpt lat="44.25956" lon="5.0986">
        <ele>246.39999389648</ele>
        <time>2021-09-04T14:31:22Z</time>
      </trkpt>
      <trkpt lat="44.25978" lon="5.09874">
        <ele>246.80000305176</ele>
        <time>2021-09-04T14:31:29Z</time>
      </trkpt>
      <trkpt lat="44.2599" lon="5.09883">
        <ele>247</ele>
        <time>2021-09-04T14:31:33Z</time>
      </trkpt>
      <trkpt lat="44.26007" lon="5.09894">
        <ele>247.60000610352</ele>
        <time>2021-09-04T14:31:38Z</time>
      </trkpt>
      <trkpt lat="44.26041" lon="5.09921">
        <ele>247.39999389648</ele>
        <time>2021-09-04T14:31:48Z</time>
      </trkpt>
      <trkpt lat="44.26063" lon="5.09942">
        <ele>247.60000610352</ele>
        <time>2021-09-04T14:31:55Z</time>
      </trkpt>
      <trkpt lat="44.26087" lon="5.09964">
        <ele>248</ele>
        <time>2021-09-04T14:32:03Z</time>
      </trkpt>
      <trkpt lat="44.2609" lon="5.09967">
        <ele>248.19999694824</ele>
        <time>2021-09-04T14:32:04Z</time>
      </trkpt>
      <trkpt lat="44.26111" lon="5.09987">
        <ele>249.19999694824</ele>
        <time>2021-09-04T14:32:12Z</time>
      </trkpt>
      <trkpt lat="44.26114" lon="5.09989">
        <ele>249.39999389648</ele>
        <time>2021-09-04T14:32:13Z</time>
      </trkpt>
      <trkpt lat="44.26134" lon="5.10003">
        <ele>250.19999694824</ele>
        <time>2021-09-04T14:32:20Z</time>
      </trkpt>
      <trkpt lat="44.26137" lon="5.10004">
        <ele>250.19999694824</ele>
        <time>2021-09-04T14:32:21Z</time>
      </trkpt>
      <trkpt lat="44.26152" lon="5.10014">
        <ele>251.39999389648</ele>
        <time>2021-09-04T14:32:26Z</time>
      </trkpt>
      <trkpt lat="44.26165" lon="5.1002">
        <ele>252.19999694824</ele>
        <time>2021-09-04T14:32:30Z</time>
      </trkpt>
      <trkpt lat="44.26171" lon="5.10022">
        <ele>252.60000610352</ele>
        <time>2021-09-04T14:32:32Z</time>
      </trkpt>
      <trkpt lat="44.26188" lon="5.10031">
        <ele>253.39999389648</ele>
        <time>2021-09-04T14:32:38Z</time>
      </trkpt>
      <trkpt lat="44.26194" lon="5.10034">
        <ele>253.60000610352</ele>
        <time>2021-09-04T14:32:40Z</time>
      </trkpt>
      <trkpt lat="44.26212" lon="5.10047">
        <ele>254.60000610352</ele>
        <time>2021-09-04T14:32:47Z</time>
      </trkpt>
      <trkpt lat="44.26215" lon="5.10049">
        <ele>254.80000305176</ele>
        <time>2021-09-04T14:32:48Z</time>
      </trkpt>
      <trkpt lat="44.26233" lon="5.10071">
        <ele>255.80000305176</ele>
        <time>2021-09-04T14:32:56Z</time>
      </trkpt>
      <trkpt lat="44.26235" lon="5.10075">
        <ele>256</ele>
        <time>2021-09-04T14:32:57Z</time>
      </trkpt>
      <trkpt lat="44.26245" lon="5.10095">
        <ele>256.60000610352</ele>
        <time>2021-09-04T14:33:03Z</time>
      </trkpt>
      <trkpt lat="44.2625" lon="5.10105">
        <ele>257</ele>
        <time>2021-09-04T14:33:06Z</time>
      </trkpt>
      <trkpt lat="44.26261" lon="5.10129">
        <ele>257.79998779297</ele>
        <time>2021-09-04T14:33:13Z</time>
      </trkpt>
      <trkpt lat="44.26264" lon="5.10135">
        <ele>258.20001220703</ele>
        <time>2021-09-04T14:33:15Z</time>
      </trkpt>
      <trkpt lat="44.26274" lon="5.10159">
        <ele>258.39999389648</ele>
        <time>2021-09-04T14:33:22Z</time>
      </trkpt>
      <trkpt lat="44.26285" lon="5.10172">
        <ele>258.79998779297</ele>
        <time>2021-09-04T14:33:28Z</time>
      </trkpt>
      <trkpt lat="44.26291" lon="5.10185">
        <ele>258.79998779297</ele>
        <time>2021-09-04T14:33:33Z</time>
      </trkpt>
      <trkpt lat="44.26293" lon="5.10185">
        <ele>258.20001220703</ele>
        <time>2021-09-04T14:37:51Z</time>
      </trkpt>
      <trkpt lat="44.26294" lon="5.10186">
        <ele>258.20001220703</ele>
        <time>2021-09-04T14:37:52Z</time>
      </trkpt>
      <trkpt lat="44.26306" lon="5.10191">
        <ele>258.39999389648</ele>
        <time>2021-09-04T14:37:57Z</time>
      </trkpt>
      <trkpt lat="44.26325" lon="5.102">
        <ele>258.39999389648</ele>
        <time>2021-09-04T14:38:03Z</time>
      </trkpt>
      <trkpt lat="44.26333" lon="5.10203">
        <ele>258.60000610352</ele>
        <time>2021-09-04T14:38:05Z</time>
      </trkpt>
      <trkpt lat="44.26344" lon="5.10207">
        <ele>258.60000610352</ele>
        <time>2021-09-04T14:38:08Z</time>
      </trkpt>
      <trkpt lat="44.26348" lon="5.10209">
        <ele>258.60000610352</ele>
        <time>2021-09-04T14:38:09Z</time>
      </trkpt>
      <trkpt lat="44.26383" lon="5.10222">
        <ele>258.39999389648</ele>
        <time>2021-09-04T14:38:17Z</time>
      </trkpt>
      <trkpt lat="44.26416" lon="5.10243">
        <ele>258</ele>
        <time>2021-09-04T14:38:24Z</time>
      </trkpt>
      <trkpt lat="44.2642" lon="5.10247">
        <ele>258</ele>
        <time>2021-09-04T14:38:25Z</time>
      </trkpt>
      <trkpt lat="44.26446" lon="5.10274">
        <ele>258</ele>
        <time>2021-09-04T14:38:31Z</time>
      </trkpt>
      <trkpt lat="44.26491" lon="5.10322">
        <ele>258.20001220703</ele>
        <time>2021-09-04T14:38:42Z</time>
      </trkpt>
      <trkpt lat="44.26523" lon="5.10344">
        <ele>258.39999389648</ele>
        <time>2021-09-04T14:38:49Z</time>
      </trkpt>
      <trkpt lat="44.26561" lon="5.10354">
        <ele>258.79998779297</ele>
        <time>2021-09-04T14:38:57Z</time>
      </trkpt>
      <trkpt lat="44.26602" lon="5.10351">
        <ele>259</ele>
        <time>2021-09-04T14:39:05Z</time>
      </trkpt>
      <trkpt lat="44.26652" lon="5.10346">
        <ele>259</ele>
        <time>2021-09-04T14:39:14Z</time>
      </trkpt>
      <trkpt lat="44.26696" lon="5.10342">
        <ele>259</ele>
        <time>2021-09-04T14:39:22Z</time>
      </trkpt>
      <trkpt lat="44.26727" lon="5.10339">
        <ele>259.20001220703</ele>
        <time>2021-09-04T14:39:28Z</time>
      </trkpt>
      <trkpt lat="44.26743" lon="5.10337">
        <ele>259.20001220703</ele>
        <time>2021-09-04T14:39:31Z</time>
      </trkpt>
      <trkpt lat="44.26789" lon="5.10332">
        <ele>259.20001220703</ele>
        <time>2021-09-04T14:39:40Z</time>
      </trkpt>
      <trkpt lat="44.26836" lon="5.10328">
        <ele>259.79998779297</ele>
        <time>2021-09-04T14:39:49Z</time>
      </trkpt>
      <trkpt lat="44.2687" lon="5.10324">
        <ele>260.20001220703</ele>
        <time>2021-09-04T14:39:56Z</time>
      </trkpt>
      <trkpt lat="44.26885" lon="5.10323">
        <ele>260.39999389648</ele>
        <time>2021-09-04T14:39:59Z</time>
      </trkpt>
      <trkpt lat="44.26936" lon="5.1032">
        <ele>261</ele>
        <time>2021-09-04T14:40:10Z</time>
      </trkpt>
      <trkpt lat="44.26945" lon="5.10321">
        <ele>261.20001220703</ele>
        <time>2021-09-04T14:40:12Z</time>
      </trkpt>
      <trkpt lat="44.26967" lon="5.10324">
        <ele>261.60000610352</ele>
        <time>2021-09-04T14:40:17Z</time>
      </trkpt>
      <trkpt lat="44.26987" lon="5.1033">
        <ele>262.39999389648</ele>
        <time>2021-09-04T14:40:22Z</time>
      </trkpt>
      <trkpt lat="44.27007" lon="5.10337">
        <ele>262.79998779297</ele>
        <time>2021-09-04T14:40:27Z</time>
      </trkpt>
      <trkpt lat="44.27023" lon="5.10342">
        <ele>263.39999389648</ele>
        <time>2021-09-04T14:40:31Z</time>
      </trkpt>
      <trkpt lat="44.27051" lon="5.10354">
        <ele>263.79998779297</ele>
        <time>2021-09-04T14:40:38Z</time>
      </trkpt>
      <trkpt lat="44.27075" lon="5.10363">
        <ele>264.39999389648</ele>
        <time>2021-09-04T14:40:44Z</time>
      </trkpt>
      <trkpt lat="44.27092" lon="5.1037">
        <ele>264.79998779297</ele>
        <time>2021-09-04T14:40:48Z</time>
      </trkpt>
      <trkpt lat="44.27132" lon="5.10386">
        <ele>265.39999389648</ele>
        <time>2021-09-04T14:40:58Z</time>
      </trkpt>
      <trkpt lat="44.27177" lon="5.10403">
        <ele>266</ele>
        <time>2021-09-04T14:41:09Z</time>
      </trkpt>
      <trkpt lat="44.27193" lon="5.10409">
        <ele>266.39999389648</ele>
        <time>2021-09-04T14:41:13Z</time>
      </trkpt>
      <trkpt lat="44.27201" lon="5.10413">
        <ele>266.60000610352</ele>
        <time>2021-09-04T14:41:15Z</time>
      </trkpt>
      <trkpt lat="44.27212" lon="5.10419">
        <ele>266.79998779297</ele>
        <time>2021-09-04T14:41:18Z</time>
      </trkpt>
      <trkpt lat="44.27247" lon="5.10441">
        <ele>267.39999389648</ele>
        <time>2021-09-04T14:41:27Z</time>
      </trkpt>
      <trkpt lat="44.27254" lon="5.10447">
        <ele>267.39999389648</ele>
        <time>2021-09-04T14:41:29Z</time>
      </trkpt>
      <trkpt lat="44.27277" lon="5.10467">
        <ele>268</ele>
        <time>2021-09-04T14:41:36Z</time>
      </trkpt>
      <trkpt lat="44.273" lon="5.10491">
        <ele>268.39999389648</ele>
        <time>2021-09-04T14:41:43Z</time>
      </trkpt>
      <trkpt lat="44.27326" lon="5.10528">
        <ele>268.20001220703</ele>
        <time>2021-09-04T14:41:50Z</time>
      </trkpt>
      <trkpt lat="44.27358" lon="5.10573">
        <ele>266.79998779297</ele>
        <time>2021-09-04T14:41:57Z</time>
      </trkpt>
      <trkpt lat="44.27364" lon="5.1058">
        <ele>266.39999389648</ele>
        <time>2021-09-04T14:41:58Z</time>
      </trkpt>
      <trkpt lat="44.27386" lon="5.10611">
        <ele>265.20001220703</ele>
        <time>2021-09-04T14:42:02Z</time>
      </trkpt>
      <trkpt lat="44.27391" lon="5.10619">
        <ele>264.79998779297</ele>
        <time>2021-09-04T14:42:03Z</time>
      </trkpt>
      <trkpt lat="44.27403" lon="5.10636">
        <ele>264.20001220703</ele>
        <time>2021-09-04T14:42:05Z</time>
      </trkpt>
      <trkpt lat="44.2742" lon="5.10661">
        <ele>263</ele>
        <time>2021-09-04T14:42:08Z</time>
      </trkpt>
      <trkpt lat="44.27436" lon="5.10684">
        <ele>262</ele>
        <time>2021-09-04T14:42:11Z</time>
      </trkpt>
      <trkpt lat="44.27466" lon="5.10718">
        <ele>261.79998779297</ele>
        <time>2021-09-04T14:42:17Z</time>
      </trkpt>
      <trkpt lat="44.27491" lon="5.10732">
        <ele>262.60000610352</ele>
        <time>2021-09-04T14:42:22Z</time>
      </trkpt>
      <trkpt lat="44.2751" lon="5.10739">
        <ele>263.20001220703</ele>
        <time>2021-09-04T14:42:26Z</time>
      </trkpt>
      <trkpt lat="44.27528" lon="5.10744">
        <ele>263.60000610352</ele>
        <time>2021-09-04T14:42:30Z</time>
      </trkpt>
      <trkpt lat="44.27564" lon="5.10758">
        <ele>264</ele>
        <time>2021-09-04T14:42:39Z</time>
      </trkpt>
      <trkpt lat="44.27581" lon="5.10765">
        <ele>264.20001220703</ele>
        <time>2021-09-04T14:42:44Z</time>
      </trkpt>
      <trkpt lat="44.2759" lon="5.10771">
        <ele>264.39999389648</ele>
        <time>2021-09-04T14:42:47Z</time>
      </trkpt>
      <trkpt lat="44.27602" lon="5.10787">
        <ele>264.60000610352</ele>
        <time>2021-09-04T14:42:52Z</time>
      </trkpt>
      <trkpt lat="44.27609" lon="5.10801">
        <ele>264.79998779297</ele>
        <time>2021-09-04T14:42:57Z</time>
      </trkpt>
      <trkpt lat="44.27609" lon="5.10802">
        <ele>264.79998779297</ele>
        <time>2021-09-04T14:42:58Z</time>
      </trkpt>
      <trkpt lat="44.27609" lon="5.10805">
        <ele>264.20001220703</ele>
        <time>2021-09-04T14:46:36Z</time>
      </trkpt>
      <trkpt lat="44.2761" lon="5.10812">
        <ele>264.20001220703</ele>
        <time>2021-09-04T14:46:38Z</time>
      </trkpt>
      <trkpt lat="44.27613" lon="5.10835">
        <ele>264.20001220703</ele>
        <time>2021-09-04T14:46:43Z</time>
      </trkpt>
      <trkpt lat="44.27621" lon="5.10873">
        <ele>264.20001220703</ele>
        <time>2021-09-04T14:46:49Z</time>
      </trkpt>
      <trkpt lat="44.27638" lon="5.10913">
        <ele>264.20001220703</ele>
        <time>2021-09-04T14:46:56Z</time>
      </trkpt>
      <trkpt lat="44.27655" lon="5.10947">
        <ele>264.79998779297</ele>
        <time>2021-09-04T14:47:03Z</time>
      </trkpt>
      <trkpt lat="44.2766" lon="5.10958">
        <ele>265.39999389648</ele>
        <time>2021-09-04T14:47:06Z</time>
      </trkpt>
      <trkpt lat="44.27667" lon="5.10973">
        <ele>266</ele>
        <time>2021-09-04T14:47:10Z</time>
      </trkpt>
      <trkpt lat="44.27668" lon="5.10976">
        <ele>266.39999389648</ele>
        <time>2021-09-04T14:47:11Z</time>
      </trkpt>
      <trkpt lat="44.27678" lon="5.10997">
        <ele>267.20001220703</ele>
        <time>2021-09-04T14:47:17Z</time>
      </trkpt>
      <trkpt lat="44.27681" lon="5.11005">
        <ele>267.39999389648</ele>
        <time>2021-09-04T14:47:19Z</time>
      </trkpt>
      <trkpt lat="44.27691" lon="5.11028">
        <ele>268.20001220703</ele>
        <time>2021-09-04T14:47:25Z</time>
      </trkpt>
      <trkpt lat="44.27695" lon="5.11035">
        <ele>268.39999389648</ele>
        <time>2021-09-04T14:47:27Z</time>
      </trkpt>
      <trkpt lat="44.27706" lon="5.11058">
        <ele>269.20001220703</ele>
        <time>2021-09-04T14:47:33Z</time>
      </trkpt>
      <trkpt lat="44.27715" lon="5.11078">
        <ele>269.60000610352</ele>
        <time>2021-09-04T14:47:38Z</time>
      </trkpt>
      <trkpt lat="44.27725" lon="5.11098">
        <ele>270</ele>
        <time>2021-09-04T14:47:43Z</time>
      </trkpt>
      <trkpt lat="44.27744" lon="5.11128">
        <ele>270.39999389648</ele>
        <time>2021-09-04T14:47:51Z</time>
      </trkpt>
      <trkpt lat="44.27746" lon="5.11132">
        <ele>270.60000610352</ele>
        <time>2021-09-04T14:47:52Z</time>
      </trkpt>
      <trkpt lat="44.27761" lon="5.1116">
        <ele>270.60000610352</ele>
        <time>2021-09-04T14:47:58Z</time>
      </trkpt>
      <trkpt lat="44.27781" lon="5.11201">
        <ele>271</ele>
        <time>2021-09-04T14:48:06Z</time>
      </trkpt>
      <trkpt lat="44.27784" lon="5.11214">
        <ele>270.79998779297</ele>
        <time>2021-09-04T14:48:08Z</time>
      </trkpt>
      <trkpt lat="44.27785" lon="5.11236">
        <ele>270.79998779297</ele>
        <time>2021-09-04T14:48:11Z</time>
      </trkpt>
      <trkpt lat="44.27783" lon="5.11258">
        <ele>270.60000610352</ele>
        <time>2021-09-04T14:48:14Z</time>
      </trkpt>
      <trkpt lat="44.27779" lon="5.11281">
        <ele>270</ele>
        <time>2021-09-04T14:48:17Z</time>
      </trkpt>
      <trkpt lat="44.27767" lon="5.11346">
        <ele>269.60000610352</ele>
        <time>2021-09-04T14:48:25Z</time>
      </trkpt>
      <trkpt lat="44.27766" lon="5.11355">
        <ele>269.39999389648</ele>
        <time>2021-09-04T14:48:26Z</time>
      </trkpt>
      <trkpt lat="44.27756" lon="5.1141">
        <ele>268.39999389648</ele>
        <time>2021-09-04T14:48:32Z</time>
      </trkpt>
      <trkpt lat="44.27755" lon="5.11419">
        <ele>268.20001220703</ele>
        <time>2021-09-04T14:48:33Z</time>
      </trkpt>
      <trkpt lat="44.27745" lon="5.11473">
        <ele>268</ele>
        <time>2021-09-04T14:48:40Z</time>
      </trkpt>
      <trkpt lat="44.27735" lon="5.11532">
        <ele>268.79998779297</ele>
        <time>2021-09-04T14:48:49Z</time>
      </trkpt>
      <trkpt lat="44.27725" lon="5.11591">
        <ele>268.79998779297</ele>
        <time>2021-09-04T14:48:57Z</time>
      </trkpt>
      <trkpt lat="44.27713" lon="5.11658">
        <ele>267.79998779297</ele>
        <time>2021-09-04T14:49:05Z</time>
      </trkpt>
      <trkpt lat="44.27701" lon="5.1172">
        <ele>267.60000610352</ele>
        <time>2021-09-04T14:49:13Z</time>
      </trkpt>
      <trkpt lat="44.27694" lon="5.11759">
        <ele>268.60000610352</ele>
        <time>2021-09-04T14:49:19Z</time>
      </trkpt>
      <trkpt lat="44.27692" lon="5.11765">
        <ele>268.79998779297</ele>
        <time>2021-09-04T14:49:20Z</time>
      </trkpt>
      <trkpt lat="44.27687" lon="5.11784">
        <ele>269.39999389648</ele>
        <time>2021-09-04T14:49:24Z</time>
      </trkpt>
      <trkpt lat="44.27683" lon="5.11796">
        <ele>270.20001220703</ele>
        <time>2021-09-04T14:49:27Z</time>
      </trkpt>
      <trkpt lat="44.2768" lon="5.11803">
        <ele>270.60000610352</ele>
        <time>2021-09-04T14:49:29Z</time>
      </trkpt>
      <trkpt lat="44.27672" lon="5.11817">
        <ele>271.60000610352</ele>
        <time>2021-09-04T14:49:34Z</time>
      </trkpt>
      <trkpt lat="44.27671" lon="5.1182">
        <ele>271.79998779297</ele>
        <time>2021-09-04T14:49:35Z</time>
      </trkpt>
      <trkpt lat="44.27661" lon="5.1184">
        <ele>273</ele>
        <time>2021-09-04T14:49:42Z</time>
      </trkpt>
      <trkpt lat="44.27657" lon="5.11848">
        <ele>273.39999389648</ele>
        <time>2021-09-04T14:49:45Z</time>
      </trkpt>
      <trkpt lat="44.27647" lon="5.11864">
        <ele>274</ele>
        <time>2021-09-04T14:49:51Z</time>
      </trkpt>
      <trkpt lat="44.27643" lon="5.11872">
        <ele>274.60000610352</ele>
        <time>2021-09-04T14:49:54Z</time>
      </trkpt>
      <trkpt lat="44.27636" lon="5.11885">
        <ele>275.20001220703</ele>
        <time>2021-09-04T14:49:59Z</time>
      </trkpt>
      <trkpt lat="44.27631" lon="5.11893">
        <ele>275.60000610352</ele>
        <time>2021-09-04T14:50:02Z</time>
      </trkpt>
      <trkpt lat="44.27619" lon="5.11911">
        <ele>276.39999389648</ele>
        <time>2021-09-04T14:50:09Z</time>
      </trkpt>
      <trkpt lat="44.27617" lon="5.11914">
        <ele>276.39999389648</ele>
        <time>2021-09-04T14:50:10Z</time>
      </trkpt>
      <trkpt lat="44.27605" lon="5.11932">
        <ele>277.39999389648</ele>
        <time>2021-09-04T14:50:17Z</time>
      </trkpt>
      <trkpt lat="44.27601" lon="5.11938">
        <ele>277.60000610352</ele>
        <time>2021-09-04T14:50:19Z</time>
      </trkpt>
      <trkpt lat="44.27584" lon="5.11959">
        <ele>278.39999389648</ele>
        <time>2021-09-04T14:50:27Z</time>
      </trkpt>
      <trkpt lat="44.27569" lon="5.11978">
        <ele>279</ele>
        <time>2021-09-04T14:50:34Z</time>
      </trkpt>
      <trkpt lat="44.27562" lon="5.11986">
        <ele>279.39999389648</ele>
        <time>2021-09-04T14:50:37Z</time>
      </trkpt>
      <trkpt lat="44.27552" lon="5.11997">
        <ele>280</ele>
        <time>2021-09-04T14:50:41Z</time>
      </trkpt>
      <trkpt lat="44.27533" lon="5.12015">
        <ele>280.39999389648</ele>
        <time>2021-09-04T14:50:48Z</time>
      </trkpt>
      <trkpt lat="44.27514" lon="5.12029">
        <ele>279.79998779297</ele>
        <time>2021-09-04T14:50:54Z</time>
      </trkpt>
      <trkpt lat="44.27504" lon="5.12035">
        <ele>279.39999389648</ele>
        <time>2021-09-04T14:50:58Z</time>
      </trkpt>
      <trkpt lat="44.27504" lon="5.12036">
        <ele>278.79998779297</ele>
        <time>2021-09-04T14:52:48Z</time>
      </trkpt>
      <trkpt lat="44.27499" lon="5.1204">
        <ele>278.79998779297</ele>
        <time>2021-09-04T14:52:50Z</time>
      </trkpt>
      <trkpt lat="44.27482" lon="5.12055">
        <ele>278.39999389648</ele>
        <time>2021-09-04T14:52:54Z</time>
      </trkpt>
      <trkpt lat="44.27477" lon="5.12059">
        <ele>278.39999389648</ele>
        <time>2021-09-04T14:52:55Z</time>
      </trkpt>
      <trkpt lat="44.27451" lon="5.12077">
        <ele>277.39999389648</ele>
        <time>2021-09-04T14:53:00Z</time>
      </trkpt>
      <trkpt lat="44.27441" lon="5.12085">
        <ele>277.20001220703</ele>
        <time>2021-09-04T14:53:02Z</time>
      </trkpt>
      <trkpt lat="44.27418" lon="5.12103">
        <ele>276.60000610352</ele>
        <time>2021-09-04T14:53:06Z</time>
      </trkpt>
      <trkpt lat="44.27407" lon="5.12112">
        <ele>276.20001220703</ele>
        <time>2021-09-04T14:53:08Z</time>
      </trkpt>
      <trkpt lat="44.27377" lon="5.12135">
        <ele>275.79998779297</ele>
        <time>2021-09-04T14:53:14Z</time>
      </trkpt>
      <trkpt lat="44.27343" lon="5.12162">
        <ele>276.20001220703</ele>
        <time>2021-09-04T14:53:22Z</time>
      </trkpt>
      <trkpt lat="44.27318" lon="5.12181">
        <ele>277.20001220703</ele>
        <time>2021-09-04T14:53:29Z</time>
      </trkpt>
      <trkpt lat="44.27314" lon="5.12184">
        <ele>277.20001220703</ele>
        <time>2021-09-04T14:53:30Z</time>
      </trkpt>
      <trkpt lat="44.27275" lon="5.12215">
        <ele>278.39999389648</ele>
        <time>2021-09-04T14:53:42Z</time>
      </trkpt>
      <trkpt lat="44.27244" lon="5.12239">
        <ele>279</ele>
        <time>2021-09-04T14:53:52Z</time>
      </trkpt>
      <trkpt lat="44.27228" lon="5.12252">
        <ele>279.39999389648</ele>
        <time>2021-09-04T14:53:57Z</time>
      </trkpt>
      <trkpt lat="44.27209" lon="5.12267">
        <ele>279.79998779297</ele>
        <time>2021-09-04T14:54:03Z</time>
      </trkpt>
      <trkpt lat="44.27186" lon="5.12285">
        <ele>280.39999389648</ele>
        <time>2021-09-04T14:54:10Z</time>
      </trkpt>
      <trkpt lat="44.27173" lon="5.12295">
        <ele>280.79998779297</ele>
        <time>2021-09-04T14:54:14Z</time>
      </trkpt>
      <trkpt lat="44.27151" lon="5.12313">
        <ele>281.39999389648</ele>
        <time>2021-09-04T14:54:21Z</time>
      </trkpt>
      <trkpt lat="44.27141" lon="5.1232">
        <ele>281.60000610352</ele>
        <time>2021-09-04T14:54:24Z</time>
      </trkpt>
      <trkpt lat="44.2712" lon="5.12337">
        <ele>282.60000610352</ele>
        <time>2021-09-04T14:54:31Z</time>
      </trkpt>
      <trkpt lat="44.27114" lon="5.12342">
        <ele>282.79998779297</ele>
        <time>2021-09-04T14:54:33Z</time>
      </trkpt>
      <trkpt lat="44.27094" lon="5.12358">
        <ele>283.60000610352</ele>
        <time>2021-09-04T14:54:40Z</time>
      </trkpt>
      <trkpt lat="44.27091" lon="5.12361">
        <ele>283.79998779297</ele>
        <time>2021-09-04T14:54:41Z</time>
      </trkpt>
      <trkpt lat="44.27072" lon="5.12375">
        <ele>284.79998779297</ele>
        <time>2021-09-04T14:54:48Z</time>
      </trkpt>
      <trkpt lat="44.27067" lon="5.12379">
        <ele>285</ele>
        <time>2021-09-04T14:54:50Z</time>
      </trkpt>
      <trkpt lat="44.2705" lon="5.12393">
        <ele>285.79998779297</ele>
        <time>2021-09-04T14:54:56Z</time>
      </trkpt>
      <trkpt lat="44.27039" lon="5.12401">
        <ele>286.39999389648</ele>
        <time>2021-09-04T14:55:00Z</time>
      </trkpt>
      <trkpt lat="44.27028" lon="5.1241">
        <ele>286.79998779297</ele>
        <time>2021-09-04T14:55:04Z</time>
      </trkpt>
      <trkpt lat="44.27012" lon="5.12422">
        <ele>287.79998779297</ele>
        <time>2021-09-04T14:55:10Z</time>
      </trkpt>
      <trkpt lat="44.2701" lon="5.12424">
        <ele>287.79998779297</ele>
        <time>2021-09-04T14:55:11Z</time>
      </trkpt>
      <trkpt lat="44.26993" lon="5.12437">
        <ele>289</ele>
        <time>2021-09-04T14:55:18Z</time>
      </trkpt>
      <trkpt lat="44.2699" lon="5.12439">
        <ele>289.20001220703</ele>
        <time>2021-09-04T14:55:19Z</time>
      </trkpt>
      <trkpt lat="44.26975" lon="5.12451">
        <ele>290</ele>
        <time>2021-09-04T14:55:25Z</time>
      </trkpt>
      <trkpt lat="44.26965" lon="5.12458">
        <ele>290.60000610352</ele>
        <time>2021-09-04T14:55:29Z</time>
      </trkpt>
      <trkpt lat="44.26955" lon="5.12465">
        <ele>291.20001220703</ele>
        <time>2021-09-04T14:55:33Z</time>
      </trkpt>
      <trkpt lat="44.26937" lon="5.12478">
        <ele>292.20001220703</ele>
        <time>2021-09-04T14:55:40Z</time>
      </trkpt>
      <trkpt lat="44.26909" lon="5.12497">
        <ele>293</ele>
        <time>2021-09-04T14:55:51Z</time>
      </trkpt>
      <trkpt lat="44.26907" lon="5.12499">
        <ele>293.20001220703</ele>
        <time>2021-09-04T14:55:52Z</time>
      </trkpt>
      <trkpt lat="44.26885" lon="5.12512">
        <ele>294</ele>
        <time>2021-09-04T14:56:00Z</time>
      </trkpt>
      <trkpt lat="44.26877" lon="5.12516">
        <ele>294.20001220703</ele>
        <time>2021-09-04T14:56:03Z</time>
      </trkpt>
      <trkpt lat="44.26858" lon="5.12518">
        <ele>294.79998779297</ele>
        <time>2021-09-04T14:56:10Z</time>
      </trkpt>
      <trkpt lat="44.26842" lon="5.12512">
        <ele>295</ele>
        <time>2021-09-04T14:56:15Z</time>
      </trkpt>
      <trkpt lat="44.26829" lon="5.12524">
        <ele>295.20001220703</ele>
        <time>2021-09-04T14:56:20Z</time>
      </trkpt>
      <trkpt lat="44.26825" lon="5.12544">
        <ele>295.60000610352</ele>
        <time>2021-09-04T14:56:25Z</time>
      </trkpt>
      <trkpt lat="44.26832" lon="5.12563">
        <ele>296</ele>
        <time>2021-09-04T14:56:30Z</time>
      </trkpt>
      <trkpt lat="44.26836" lon="5.12568">
        <ele>296.39999389648</ele>
        <time>2021-09-04T14:56:32Z</time>
      </trkpt>
      <trkpt lat="44.26844" lon="5.12572">
        <ele>296.60000610352</ele>
        <time>2021-09-04T14:56:35Z</time>
      </trkpt>
      <trkpt lat="44.26848" lon="5.12571">
        <ele>296.79998779297</ele>
        <time>2021-09-04T14:58:40Z</time>
      </trkpt>
      <trkpt lat="44.26859" lon="5.12569">
        <ele>296.79998779297</ele>
        <time>2021-09-04T14:58:45Z</time>
      </trkpt>
      <trkpt lat="44.26874" lon="5.12582">
        <ele>297</ele>
        <time>2021-09-04T14:58:51Z</time>
      </trkpt>
      <trkpt lat="44.26882" lon="5.12589">
        <ele>297.39999389648</ele>
        <time>2021-09-04T14:58:54Z</time>
      </trkpt>
      <trkpt lat="44.26893" lon="5.12603">
        <ele>298.20001220703</ele>
        <time>2021-09-04T14:58:59Z</time>
      </trkpt>
      <trkpt lat="44.26897" lon="5.12608">
        <ele>298.60000610352</ele>
        <time>2021-09-04T14:59:01Z</time>
      </trkpt>
      <trkpt lat="44.26912" lon="5.12623">
        <ele>299.60000610352</ele>
        <time>2021-09-04T14:59:08Z</time>
      </trkpt>
      <trkpt lat="44.26923" lon="5.12635">
        <ele>300.60000610352</ele>
        <time>2021-09-04T14:59:14Z</time>
      </trkpt>
      <trkpt lat="44.26926" lon="5.12639">
        <ele>301</ele>
        <time>2021-09-04T14:59:16Z</time>
      </trkpt>
      <trkpt lat="44.26936" lon="5.1265">
        <ele>301.79998779297</ele>
        <time>2021-09-04T14:59:21Z</time>
      </trkpt>
      <trkpt lat="44.2695" lon="5.12666">
        <ele>302.79998779297</ele>
        <time>2021-09-04T14:59:29Z</time>
      </trkpt>
      <trkpt lat="44.26952" lon="5.12668">
        <ele>302.79998779297</ele>
        <time>2021-09-04T14:59:30Z</time>
      </trkpt>
      <trkpt lat="44.26968" lon="5.12684">
        <ele>304</ele>
        <time>2021-09-04T14:59:38Z</time>
      </trkpt>
      <trkpt lat="44.26969" lon="5.12686">
        <ele>304.20001220703</ele>
        <time>2021-09-04T14:59:39Z</time>
      </trkpt>
      <trkpt lat="44.26982" lon="5.12702">
        <ele>305</ele>
        <time>2021-09-04T14:59:46Z</time>
      </trkpt>
      <trkpt lat="44.26984" lon="5.12704">
        <ele>305.20001220703</ele>
        <time>2021-09-04T14:59:47Z</time>
      </trkpt>
      <trkpt lat="44.26998" lon="5.12723">
        <ele>306.20001220703</ele>
        <time>2021-09-04T14:59:56Z</time>
      </trkpt>
      <trkpt lat="44.27007" lon="5.12735">
        <ele>307.39999389648</ele>
        <time>2021-09-04T15:00:02Z</time>
      </trkpt>
      <trkpt lat="44.27009" lon="5.12736">
        <ele>307.60000610352</ele>
        <time>2021-09-04T15:00:03Z</time>
      </trkpt>
      <trkpt lat="44.27011" lon="5.12738">
        <ele>307.60000610352</ele>
        <time>2021-09-04T15:00:04Z</time>
      </trkpt>
      <trkpt lat="44.27017" lon="5.12747">
        <ele>308.39999389648</ele>
        <time>2021-09-04T15:00:08Z</time>
      </trkpt>
      <trkpt lat="44.27019" lon="5.12751">
        <ele>308.60000610352</ele>
        <time>2021-09-04T15:00:10Z</time>
      </trkpt>
      <trkpt lat="44.27023" lon="5.12758">
        <ele>309.39999389648</ele>
        <time>2021-09-04T15:00:15Z</time>
      </trkpt>
      <trkpt lat="44.27024" lon="5.12757">
        <ele>309.39999389648</ele>
        <time>2021-09-04T15:00:16Z</time>
      </trkpt>
      <trkpt lat="44.27026" lon="5.12753">
        <ele>309.60000610352</ele>
        <time>2021-09-04T15:00:18Z</time>
      </trkpt>
      <trkpt lat="44.27022" lon="5.12746">
        <ele>310.20001220703</ele>
        <time>2021-09-04T15:03:44Z</time>
      </trkpt>
      <trkpt lat="44.27018" lon="5.12745">
        <ele>310.20001220703</ele>
        <time>2021-09-04T15:03:46Z</time>
      </trkpt>
      <trkpt lat="44.27004" lon="5.12731">
        <ele>309.60000610352</ele>
        <time>2021-09-04T15:03:51Z</time>
      </trkpt>
      <trkpt lat="44.2699" lon="5.12713">
        <ele>309</ele>
        <time>2021-09-04T15:03:56Z</time>
      </trkpt>
      <trkpt lat="44.26979" lon="5.12701">
        <ele>308.20001220703</ele>
        <time>2021-09-04T15:04:00Z</time>
      </trkpt>
      <trkpt lat="44.26974" lon="5.12695">
        <ele>307.60000610352</ele>
        <time>2021-09-04T15:04:02Z</time>
      </trkpt>
      <trkpt lat="44.26969" lon="5.12689">
        <ele>307</ele>
        <time>2021-09-04T15:04:04Z</time>
      </trkpt>
      <trkpt lat="44.26955" lon="5.12672">
        <ele>306.39999389648</ele>
        <time>2021-09-04T15:04:08Z</time>
      </trkpt>
      <trkpt lat="44.26943" lon="5.12657">
        <ele>305.79998779297</ele>
        <time>2021-09-04T15:04:11Z</time>
      </trkpt>
      <trkpt lat="44.26927" lon="5.12641">
        <ele>305</ele>
        <time>2021-09-04T15:04:15Z</time>
      </trkpt>
      <trkpt lat="44.26923" lon="5.12636">
        <ele>304.79998779297</ele>
        <time>2021-09-04T15:04:16Z</time>
      </trkpt>
      <trkpt lat="44.26906" lon="5.12617">
        <ele>303.39999389648</ele>
        <time>2021-09-04T15:04:20Z</time>
      </trkpt>
      <trkpt lat="44.26891" lon="5.126">
        <ele>302.39999389648</ele>
        <time>2021-09-04T15:04:23Z</time>
      </trkpt>
      <trkpt lat="44.26886" lon="5.12594">
        <ele>302</ele>
        <time>2021-09-04T15:04:24Z</time>
      </trkpt>
      <trkpt lat="44.26873" lon="5.12578">
        <ele>301</ele>
        <time>2021-09-04T15:04:27Z</time>
      </trkpt>
      <trkpt lat="44.2687" lon="5.12573">
        <ele>300.79998779297</ele>
        <time>2021-09-04T15:04:28Z</time>
      </trkpt>
      <trkpt lat="44.26866" lon="5.12567">
        <ele>300.39999389648</ele>
        <time>2021-09-04T15:04:29Z</time>
      </trkpt>
      <trkpt lat="44.26861" lon="5.12553">
        <ele>299.79998779297</ele>
        <time>2021-09-04T15:04:31Z</time>
      </trkpt>
      <trkpt lat="44.26858" lon="5.12536">
        <ele>299.20001220703</ele>
        <time>2021-09-04T15:04:33Z</time>
      </trkpt>
      <trkpt lat="44.26853" lon="5.1252">
        <ele>298.60000610352</ele>
        <time>2021-09-04T15:04:35Z</time>
      </trkpt>
      <trkpt lat="44.26846" lon="5.12496">
        <ele>297.60000610352</ele>
        <time>2021-09-04T15:04:38Z</time>
      </trkpt>
      <trkpt lat="44.26845" lon="5.12487">
        <ele>297.39999389648</ele>
        <time>2021-09-04T15:04:39Z</time>
      </trkpt>
      <trkpt lat="44.26846" lon="5.12459">
        <ele>296.79998779297</ele>
        <time>2021-09-04T15:04:42Z</time>
      </trkpt>
      <trkpt lat="44.26849" lon="5.12439">
        <ele>296.20001220703</ele>
        <time>2021-09-04T15:04:44Z</time>
      </trkpt>
      <trkpt lat="44.26853" lon="5.12408">
        <ele>295.39999389648</ele>
        <time>2021-09-04T15:04:47Z</time>
      </trkpt>
      <trkpt lat="44.26853" lon="5.12397">
        <ele>295.20001220703</ele>
        <time>2021-09-04T15:04:48Z</time>
      </trkpt>
      <trkpt lat="44.26849" lon="5.12376">
        <ele>294.39999389648</ele>
        <time>2021-09-04T15:04:50Z</time>
      </trkpt>
      <trkpt lat="44.26844" lon="5.12367">
        <ele>294</ele>
        <time>2021-09-04T15:04:51Z</time>
      </trkpt>
      <trkpt lat="44.26832" lon="5.12354">
        <ele>293.60000610352</ele>
        <time>2021-09-04T15:04:53Z</time>
      </trkpt>
      <trkpt lat="44.2682" lon="5.12344">
        <ele>293</ele>
        <time>2021-09-04T15:04:55Z</time>
      </trkpt>
      <trkpt lat="44.26814" lon="5.12339">
        <ele>292.79998779297</ele>
        <time>2021-09-04T15:04:56Z</time>
      </trkpt>
      <trkpt lat="44.26809" lon="5.12333">
        <ele>292.79998779297</ele>
        <time>2021-09-04T15:04:57Z</time>
      </trkpt>
      <trkpt lat="44.26799" lon="5.12319">
        <ele>292.39999389648</ele>
        <time>2021-09-04T15:04:59Z</time>
      </trkpt>
      <trkpt lat="44.2679" lon="5.12302">
        <ele>292</ele>
        <time>2021-09-04T15:05:01Z</time>
      </trkpt>
      <trkpt lat="44.26786" lon="5.12292">
        <ele>291.60000610352</ele>
        <time>2021-09-04T15:05:02Z</time>
      </trkpt>
      <trkpt lat="44.26771" lon="5.12264">
        <ele>290.60000610352</ele>
        <time>2021-09-04T15:05:05Z</time>
      </trkpt>
      <trkpt lat="44.26764" lon="5.12256">
        <ele>290</ele>
        <time>2021-09-04T15:05:06Z</time>
      </trkpt>
      <trkpt lat="44.26757" lon="5.12248">
        <ele>289.39999389648</ele>
        <time>2021-09-04T15:05:07Z</time>
      </trkpt>
      <trkpt lat="44.26735" lon="5.12222">
        <ele>288</ele>
        <time>2021-09-04T15:05:10Z</time>
      </trkpt>
      <trkpt lat="44.26727" lon="5.12214">
        <ele>287.60000610352</ele>
        <time>2021-09-04T15:05:11Z</time>
      </trkpt>
      <trkpt lat="44.26711" lon="5.12199">
        <ele>286.20001220703</ele>
        <time>2021-09-04T15:05:13Z</time>
      </trkpt>
      <trkpt lat="44.26688" lon="5.12178">
        <ele>284.79998779297</ele>
        <time>2021-09-04T15:05:16Z</time>
      </trkpt>
      <trkpt lat="44.2668" lon="5.12171">
        <ele>284.39999389648</ele>
        <time>2021-09-04T15:05:17Z</time>
      </trkpt>
      <trkpt lat="44.26666" lon="5.12156">
        <ele>283.60000610352</ele>
        <time>2021-09-04T15:05:19Z</time>
      </trkpt>
      <trkpt lat="44.26645" lon="5.12132">
        <ele>282.20001220703</ele>
        <time>2021-09-04T15:05:22Z</time>
      </trkpt>
      <trkpt lat="44.26638" lon="5.12124">
        <ele>282</ele>
        <time>2021-09-04T15:05:23Z</time>
      </trkpt>
      <trkpt lat="44.26603" lon="5.12088">
        <ele>281</ele>
        <time>2021-09-04T15:05:28Z</time>
      </trkpt>
      <trkpt lat="44.26596" lon="5.12082">
        <ele>280.79998779297</ele>
        <time>2021-09-04T15:05:29Z</time>
      </trkpt>
      <trkpt lat="44.26574" lon="5.12058">
        <ele>279.79998779297</ele>
        <time>2021-09-04T15:05:32Z</time>
      </trkpt>
      <trkpt lat="44.2656" lon="5.1204">
        <ele>278.79998779297</ele>
        <time>2021-09-04T15:05:34Z</time>
      </trkpt>
      <trkpt lat="44.26548" lon="5.1202">
        <ele>277.60000610352</ele>
        <time>2021-09-04T15:05:36Z</time>
      </trkpt>
      <trkpt lat="44.26542" lon="5.12009">
        <ele>276.60000610352</ele>
        <time>2021-09-04T15:05:37Z</time>
      </trkpt>
      <trkpt lat="44.26529" lon="5.11988">
        <ele>275.39999389648</ele>
        <time>2021-09-04T15:05:39Z</time>
      </trkpt>
      <trkpt lat="44.26505" lon="5.11967">
        <ele>274.20001220703</ele>
        <time>2021-09-04T15:05:42Z</time>
      </trkpt>
      <trkpt lat="44.26497" lon="5.11961">
        <ele>273.79998779297</ele>
        <time>2021-09-04T15:05:43Z</time>
      </trkpt>
      <trkpt lat="44.26465" lon="5.11943">
        <ele>273</ele>
        <time>2021-09-04T15:05:47Z</time>
      </trkpt>
      <trkpt lat="44.26457" lon="5.11939">
        <ele>272.79998779297</ele>
        <time>2021-09-04T15:05:48Z</time>
      </trkpt>
      <trkpt lat="44.26427" lon="5.11924">
        <ele>272</ele>
        <time>2021-09-04T15:05:52Z</time>
      </trkpt>
      <trkpt lat="44.26406" lon="5.11912">
        <ele>271.60000610352</ele>
        <time>2021-09-04T15:05:55Z</time>
      </trkpt>
      <trkpt lat="44.26369" lon="5.11883">
        <ele>271.60000610352</ele>
        <time>2021-09-04T15:06:01Z</time>
      </trkpt>
      <trkpt lat="44.26335" lon="5.11845">
        <ele>271</ele>
        <time>2021-09-04T15:06:07Z</time>
      </trkpt>
      <trkpt lat="44.26329" lon="5.1184">
        <ele>271</ele>
        <time>2021-09-04T15:06:08Z</time>
      </trkpt>
      <trkpt lat="44.26297" lon="5.11814">
        <ele>270.20001220703</ele>
        <time>2021-09-04T15:06:13Z</time>
      </trkpt>
      <trkpt lat="44.2629" lon="5.11809">
        <ele>269.79998779297</ele>
        <time>2021-09-04T15:06:14Z</time>
      </trkpt>
      <trkpt lat="44.26261" lon="5.11788">
        <ele>268.60000610352</ele>
        <time>2021-09-04T15:06:18Z</time>
      </trkpt>
      <trkpt lat="44.26238" lon="5.11772">
        <ele>267.60000610352</ele>
        <time>2021-09-04T15:06:21Z</time>
      </trkpt>
      <trkpt lat="44.26231" lon="5.11767">
        <ele>267.20001220703</ele>
        <time>2021-09-04T15:06:22Z</time>
      </trkpt>
      <trkpt lat="44.26209" lon="5.11747">
        <ele>265.39999389648</ele>
        <time>2021-09-04T15:06:25Z</time>
      </trkpt>
      <trkpt lat="44.26195" lon="5.11731">
        <ele>264.39999389648</ele>
        <time>2021-09-04T15:06:27Z</time>
      </trkpt>
      <trkpt lat="44.26189" lon="5.11722">
        <ele>264</ele>
        <time>2021-09-04T15:06:28Z</time>
      </trkpt>
      <trkpt lat="44.26172" lon="5.11693">
        <ele>262.60000610352</ele>
        <time>2021-09-04T15:06:31Z</time>
      </trkpt>
      <trkpt lat="44.26167" lon="5.11683">
        <ele>262.20001220703</ele>
        <time>2021-09-04T15:06:32Z</time>
      </trkpt>
      <trkpt lat="44.26157" lon="5.11664">
        <ele>261.39999389648</ele>
        <time>2021-09-04T15:06:34Z</time>
      </trkpt>
      <trkpt lat="44.26128" lon="5.11607">
        <ele>260.60000610352</ele>
        <time>2021-09-04T15:06:40Z</time>
      </trkpt>
      <trkpt lat="44.26109" lon="5.1157">
        <ele>260.39999389648</ele>
        <time>2021-09-04T15:06:44Z</time>
      </trkpt>
      <trkpt lat="44.26089" lon="5.1152">
        <ele>259.39999389648</ele>
        <time>2021-09-04T15:06:49Z</time>
      </trkpt>
      <trkpt lat="44.26087" lon="5.11508">
        <ele>259.20001220703</ele>
        <time>2021-09-04T15:06:50Z</time>
      </trkpt>
      <trkpt lat="44.26082" lon="5.11471">
        <ele>258.20001220703</ele>
        <time>2021-09-04T15:06:53Z</time>
      </trkpt>
      <trkpt lat="44.26081" lon="5.11459">
        <ele>257.79998779297</ele>
        <time>2021-09-04T15:06:54Z</time>
      </trkpt>
      <trkpt lat="44.26078" lon="5.11433">
        <ele>257.20001220703</ele>
        <time>2021-09-04T15:06:56Z</time>
      </trkpt>
      <trkpt lat="44.26075" lon="5.11391">
        <ele>255.80000305176</ele>
        <time>2021-09-04T15:06:59Z</time>
      </trkpt>
      <trkpt lat="44.26073" lon="5.11376">
        <ele>255.19999694824</ele>
        <time>2021-09-04T15:07:00Z</time>
      </trkpt>
      <trkpt lat="44.26072" lon="5.11361">
        <ele>254.60000610352</ele>
        <time>2021-09-04T15:07:01Z</time>
      </trkpt>
      <trkpt lat="44.2607" lon="5.11332">
        <ele>253.19999694824</ele>
        <time>2021-09-04T15:07:03Z</time>
      </trkpt>
      <trkpt lat="44.26067" lon="5.11302">
        <ele>251.80000305176</ele>
        <time>2021-09-04T15:07:05Z</time>
      </trkpt>
      <trkpt lat="44.26065" lon="5.11272">
        <ele>250.60000610352</ele>
        <time>2021-09-04T15:07:07Z</time>
      </trkpt>
      <trkpt lat="44.26062" lon="5.1124">
        <ele>249.19999694824</ele>
        <time>2021-09-04T15:07:09Z</time>
      </trkpt>
      <trkpt lat="44.26058" lon="5.11208">
        <ele>248</ele>
        <time>2021-09-04T15:07:11Z</time>
      </trkpt>
      <trkpt lat="44.26055" lon="5.11177">
        <ele>246</ele>
        <time>2021-09-04T15:07:13Z</time>
      </trkpt>
      <trkpt lat="44.26052" lon="5.11146">
        <ele>244.80000305176</ele>
        <time>2021-09-04T15:07:15Z</time>
      </trkpt>
      <trkpt lat="44.26049" lon="5.11115">
        <ele>243.39999389648</ele>
        <time>2021-09-04T15:07:17Z</time>
      </trkpt>
      <trkpt lat="44.26042" lon="5.11086">
        <ele>242.19999694824</ele>
        <time>2021-09-04T15:07:19Z</time>
      </trkpt>
      <trkpt lat="44.26036" lon="5.11073">
        <ele>241.60000610352</ele>
        <time>2021-09-04T15:07:20Z</time>
      </trkpt>
      <trkpt lat="44.26027" lon="5.11063">
        <ele>241</ele>
        <time>2021-09-04T15:07:21Z</time>
      </trkpt>
      <trkpt lat="44.26016" lon="5.11055">
        <ele>240.39999389648</ele>
        <time>2021-09-04T15:07:22Z</time>
      </trkpt>
      <trkpt lat="44.26006" lon="5.1105">
        <ele>239.80000305176</ele>
        <time>2021-09-04T15:07:23Z</time>
      </trkpt>
      <trkpt lat="44.25983" lon="5.11047">
        <ele>238.60000610352</ele>
        <time>2021-09-04T15:07:25Z</time>
      </trkpt>
      <trkpt lat="44.25961" lon="5.11047">
        <ele>237.39999389648</ele>
        <time>2021-09-04T15:07:27Z</time>
      </trkpt>
      <trkpt lat="44.2594" lon="5.11045">
        <ele>236.19999694824</ele>
        <time>2021-09-04T15:07:29Z</time>
      </trkpt>
      <trkpt lat="44.2593" lon="5.11044">
        <ele>235.60000610352</ele>
        <time>2021-09-04T15:07:30Z</time>
      </trkpt>
      <trkpt lat="44.2592" lon="5.11043">
        <ele>235</ele>
        <time>2021-09-04T15:07:31Z</time>
      </trkpt>
      <trkpt lat="44.25912" lon="5.1104">
        <ele>234.60000610352</ele>
        <time>2021-09-04T15:07:32Z</time>
      </trkpt>
      <trkpt lat="44.25904" lon="5.11033">
        <ele>234.19999694824</ele>
        <time>2021-09-04T15:07:33Z</time>
      </trkpt>
      <trkpt lat="44.25898" lon="5.11024">
        <ele>234</ele>
        <time>2021-09-04T15:07:34Z</time>
      </trkpt>
      <trkpt lat="44.25895" lon="5.11014">
        <ele>233.80000305176</ele>
        <time>2021-09-04T15:07:35Z</time>
      </trkpt>
      <trkpt lat="44.2589" lon="5.10984">
        <ele>233.19999694824</ele>
        <time>2021-09-04T15:07:38Z</time>
      </trkpt>
      <trkpt lat="44.25889" lon="5.10975">
        <ele>233.19999694824</ele>
        <time>2021-09-04T15:07:39Z</time>
      </trkpt>
      <trkpt lat="44.25889" lon="5.10951">
        <ele>233.60000610352</ele>
        <time>2021-09-04T15:07:42Z</time>
      </trkpt>
      <trkpt lat="44.25886" lon="5.10924">
        <ele>234.39999389648</ele>
        <time>2021-09-04T15:07:46Z</time>
      </trkpt>
      <trkpt lat="44.25885" lon="5.10917">
        <ele>234.60000610352</ele>
        <time>2021-09-04T15:07:47Z</time>
      </trkpt>
      <trkpt lat="44.25875" lon="5.10883">
        <ele>235</ele>
        <time>2021-09-04T15:07:52Z</time>
      </trkpt>
      <trkpt lat="44.25866" lon="5.10858">
        <ele>234.80000305176</ele>
        <time>2021-09-04T15:07:55Z</time>
      </trkpt>
      <trkpt lat="44.25864" lon="5.10848">
        <ele>234.60000610352</ele>
        <time>2021-09-04T15:07:56Z</time>
      </trkpt>
      <trkpt lat="44.25852" lon="5.10794">
        <ele>232.80000305176</ele>
        <time>2021-09-04T15:08:01Z</time>
      </trkpt>
      <trkpt lat="44.25849" lon="5.10784">
        <ele>232.39999389648</ele>
        <time>2021-09-04T15:08:02Z</time>
      </trkpt>
      <trkpt lat="44.25842" lon="5.10766">
        <ele>231.39999389648</ele>
        <time>2021-09-04T15:08:04Z</time>
      </trkpt>
      <trkpt lat="44.25833" lon="5.10737">
        <ele>230.39999389648</ele>
        <time>2021-09-04T15:08:07Z</time>
      </trkpt>
      <trkpt lat="44.2582" lon="5.10696">
        <ele>229.19999694824</ele>
        <time>2021-09-04T15:08:11Z</time>
      </trkpt>
      <trkpt lat="44.25811" lon="5.10665">
        <ele>228.60000610352</ele>
        <time>2021-09-04T15:08:14Z</time>
      </trkpt>
      <trkpt lat="44.25798" lon="5.10625">
        <ele>228</ele>
        <time>2021-09-04T15:08:18Z</time>
      </trkpt>
      <trkpt lat="44.25781" lon="5.10575">
        <ele>227.60000610352</ele>
        <time>2021-09-04T15:08:23Z</time>
      </trkpt>
      <trkpt lat="44.25763" lon="5.10528">
        <ele>226.80000305176</ele>
        <time>2021-09-04T15:08:28Z</time>
      </trkpt>
      <trkpt lat="44.25749" lon="5.10501">
        <ele>226.39999389648</ele>
        <time>2021-09-04T15:08:31Z</time>
      </trkpt>
      <trkpt lat="44.25738" lon="5.10485">
        <ele>226</ele>
        <time>2021-09-04T15:08:33Z</time>
      </trkpt>
      <trkpt lat="44.25731" lon="5.10479">
        <ele>225.80000305176</ele>
        <time>2021-09-04T15:08:34Z</time>
      </trkpt>
      <trkpt lat="44.25724" lon="5.10472">
        <ele>225.60000610352</ele>
        <time>2021-09-04T15:08:35Z</time>
      </trkpt>
      <trkpt lat="44.257" lon="5.10453">
        <ele>224.80000305176</ele>
        <time>2021-09-04T15:08:38Z</time>
      </trkpt>
      <trkpt lat="44.25682" lon="5.10443">
        <ele>223.80000305176</ele>
        <time>2021-09-04T15:08:40Z</time>
      </trkpt>
      <trkpt lat="44.25674" lon="5.10437">
        <ele>223.39999389648</ele>
        <time>2021-09-04T15:08:41Z</time>
      </trkpt>
      <trkpt lat="44.25648" lon="5.10421">
        <ele>222.19999694824</ele>
        <time>2021-09-04T15:08:44Z</time>
      </trkpt>
      <trkpt lat="44.25614" lon="5.10398">
        <ele>221</ele>
        <time>2021-09-04T15:08:48Z</time>
      </trkpt>
      <trkpt lat="44.25597" lon="5.10384">
        <ele>219.80000305176</ele>
        <time>2021-09-04T15:08:50Z</time>
      </trkpt>
      <trkpt lat="44.25581" lon="5.10367">
        <ele>218.80000305176</ele>
        <time>2021-09-04T15:08:52Z</time>
      </trkpt>
      <trkpt lat="44.25575" lon="5.10359">
        <ele>218.19999694824</ele>
        <time>2021-09-04T15:08:53Z</time>
      </trkpt>
      <trkpt lat="44.25549" lon="5.10324">
        <ele>217.19999694824</ele>
        <time>2021-09-04T15:08:57Z</time>
      </trkpt>
      <trkpt lat="44.25538" lon="5.10308">
        <ele>217</ele>
        <time>2021-09-04T15:08:59Z</time>
      </trkpt>
      <trkpt lat="44.25499" lon="5.10255">
        <ele>217.19999694824</ele>
        <time>2021-09-04T15:09:06Z</time>
      </trkpt>
      <trkpt lat="44.25493" lon="5.10247">
        <ele>217.19999694824</ele>
        <time>2021-09-04T15:09:07Z</time>
      </trkpt>
      <trkpt lat="44.25453" lon="5.10192">
        <ele>217.39999389648</ele>
        <time>2021-09-04T15:09:15Z</time>
      </trkpt>
      <trkpt lat="44.25448" lon="5.10185">
        <ele>217.39999389648</ele>
        <time>2021-09-04T15:09:16Z</time>
      </trkpt>
      <trkpt lat="44.25409" lon="5.1013">
        <ele>217.19999694824</ele>
        <time>2021-09-04T15:09:24Z</time>
      </trkpt>
      <trkpt lat="44.25405" lon="5.10123">
        <ele>217.19999694824</ele>
        <time>2021-09-04T15:09:25Z</time>
      </trkpt>
      <trkpt lat="44.25376" lon="5.10084">
        <ele>216.60000610352</ele>
        <time>2021-09-04T15:09:31Z</time>
      </trkpt>
      <trkpt lat="44.2537" lon="5.10078">
        <ele>216.39999389648</ele>
        <time>2021-09-04T15:09:32Z</time>
      </trkpt>
      <trkpt lat="44.25341" lon="5.10049">
        <ele>216</ele>
        <time>2021-09-04T15:09:37Z</time>
      </trkpt>
      <trkpt lat="44.25323" lon="5.1003">
        <ele>215.39999389648</ele>
        <time>2021-09-04T15:09:40Z</time>
      </trkpt>
      <trkpt lat="44.25286" lon="5.09993">
        <ele>215</ele>
        <time>2021-09-04T15:09:46Z</time>
      </trkpt>
      <trkpt lat="44.25274" lon="5.09979">
        <ele>215</ele>
        <time>2021-09-04T15:09:48Z</time>
      </trkpt>
      <trkpt lat="44.25245" lon="5.09948">
        <ele>214.80000305176</ele>
        <time>2021-09-04T15:09:53Z</time>
      </trkpt>
      <trkpt lat="44.252" lon="5.09896">
        <ele>214.39999389648</ele>
        <time>2021-09-04T15:10:01Z</time>
      </trkpt>
      <trkpt lat="44.25193" lon="5.0989">
        <ele>214.19999694824</ele>
        <time>2021-09-04T15:10:02Z</time>
      </trkpt>
      <trkpt lat="44.2518" lon="5.09879">
        <ele>213.80000305176</ele>
        <time>2021-09-04T15:10:04Z</time>
      </trkpt>
      <trkpt lat="44.25141" lon="5.09844">
        <ele>212.80000305176</ele>
        <time>2021-09-04T15:10:10Z</time>
      </trkpt>
      <trkpt lat="44.25129" lon="5.09831">
        <ele>212.39999389648</ele>
        <time>2021-09-04T15:10:12Z</time>
      </trkpt>
      <trkpt lat="44.25091" lon="5.09794">
        <ele>211.80000305176</ele>
        <time>2021-09-04T15:10:18Z</time>
      </trkpt>
      <trkpt lat="44.25079" lon="5.09782">
        <ele>211.60000610352</ele>
        <time>2021-09-04T15:10:20Z</time>
      </trkpt>
      <trkpt lat="44.25032" lon="5.09739">
        <ele>211.60000610352</ele>
        <time>2021-09-04T15:10:28Z</time>
      </trkpt>
      <trkpt lat="44.24985" lon="5.09691">
        <ele>210.60000610352</ele>
        <time>2021-09-04T15:10:36Z</time>
      </trkpt>
      <trkpt lat="44.24979" lon="5.09685">
        <ele>210.39999389648</ele>
        <time>2021-09-04T15:10:37Z</time>
      </trkpt>
      <trkpt lat="44.24937" lon="5.09634">
        <ele>210</ele>
        <time>2021-09-04T15:10:45Z</time>
      </trkpt>
      <trkpt lat="44.24932" lon="5.09627">
        <ele>209.80000305176</ele>
        <time>2021-09-04T15:10:46Z</time>
      </trkpt>
      <trkpt lat="44.24914" lon="5.09598">
        <ele>209.60000610352</ele>
        <time>2021-09-04T15:10:50Z</time>
      </trkpt>
      <trkpt lat="44.24898" lon="5.09569">
        <ele>209.39999389648</ele>
        <time>2021-09-04T15:10:54Z</time>
      </trkpt>
      <trkpt lat="44.24865" lon="5.09514">
        <ele>208.80000305176</ele>
        <time>2021-09-04T15:11:02Z</time>
      </trkpt>
      <trkpt lat="44.24837" lon="5.09466">
        <ele>208.80000305176</ele>
        <time>2021-09-04T15:11:09Z</time>
      </trkpt>
      <trkpt lat="44.2481" lon="5.09423">
        <ele>209.80000305176</ele>
        <time>2021-09-04T15:11:16Z</time>
      </trkpt>
      <trkpt lat="44.24787" lon="5.09392">
        <ele>210.60000610352</ele>
        <time>2021-09-04T15:11:22Z</time>
      </trkpt>
      <trkpt lat="44.24782" lon="5.09388">
        <ele>210.60000610352</ele>
        <time>2021-09-04T15:11:23Z</time>
      </trkpt>
      <trkpt lat="44.24745" lon="5.09356">
        <ele>211</ele>
        <time>2021-09-04T15:11:31Z</time>
      </trkpt>
      <trkpt lat="44.24723" lon="5.09332">
        <ele>210.39999389648</ele>
        <time>2021-09-04T15:11:36Z</time>
      </trkpt>
      <trkpt lat="44.24718" lon="5.09318">
        <ele>210.19999694824</ele>
        <time>2021-09-04T15:11:38Z</time>
      </trkpt>
      <trkpt lat="44.24721" lon="5.09291">
        <ele>210.60000610352</ele>
        <time>2021-09-04T15:11:42Z</time>
      </trkpt>
      <trkpt lat="44.2473" lon="5.0928">
        <ele>211.19999694824</ele>
        <time>2021-09-04T15:11:45Z</time>
      </trkpt>
      <trkpt lat="44.24732" lon="5.09278">
        <ele>211.60000610352</ele>
        <time>2021-09-04T15:11:46Z</time>
      </trkpt>
      <trkpt lat="44.24735" lon="5.09275">
        <ele>211.80000305176</ele>
        <time>2021-09-04T15:11:47Z</time>
      </trkpt>
      <trkpt lat="44.24742" lon="5.09272">
        <ele>212.19999694824</ele>
        <time>2021-09-04T15:11:50Z</time>
      </trkpt>
      <trkpt lat="44.24755" lon="5.09268">
        <ele>212.80000305176</ele>
        <time>2021-09-04T15:11:54Z</time>
      </trkpt>
      <trkpt lat="44.24758" lon="5.09265">
        <ele>213</ele>
        <time>2021-09-04T15:11:55Z</time>
      </trkpt>
      <trkpt lat="44.24764" lon="5.0925">
        <ele>213.39999389648</ele>
        <time>2021-09-04T15:11:59Z</time>
      </trkpt>
      <trkpt lat="44.24762" lon="5.09232">
        <ele>213.60000610352</ele>
        <time>2021-09-04T15:12:04Z</time>
      </trkpt>
      <trkpt lat="44.2476" lon="5.0923">
        <ele>213.39999389648</ele>
        <time>2021-09-04T15:12:13Z</time>
      </trkpt>
      <trkpt lat="44.24747" lon="5.09226">
        <ele>213.19999694824</ele>
        <time>2021-09-04T15:12:17Z</time>
      </trkpt>
      <trkpt lat="44.2473" lon="5.09233">
        <ele>213.19999694824</ele>
        <time>2021-09-04T15:12:22Z</time>
      </trkpt>
      <trkpt lat="44.24725" lon="5.09232">
        <ele>213</ele>
        <time>2021-09-04T15:12:23Z</time>
      </trkpt>
      <trkpt lat="44.24716" lon="5.09228">
        <ele>213</ele>
        <time>2021-09-04T15:12:25Z</time>
      </trkpt>
      <trkpt lat="44.24685" lon="5.09212">
        <ele>212.60000610352</ele>
        <time>2021-09-04T15:12:31Z</time>
      </trkpt>
      <trkpt lat="44.24651" lon="5.09191">
        <ele>211.80000305176</ele>
        <time>2021-09-04T15:12:38Z</time>
      </trkpt>
      <trkpt lat="44.24641" lon="5.09185">
        <ele>211.60000610352</ele>
        <time>2021-09-04T15:12:40Z</time>
      </trkpt>
      <trkpt lat="44.24605" lon="5.09164">
        <ele>211.19999694824</ele>
        <time>2021-09-04T15:12:47Z</time>
      </trkpt>
      <trkpt lat="44.24593" lon="5.09158">
        <ele>211</ele>
        <time>2021-09-04T15:12:49Z</time>
      </trkpt>
      <trkpt lat="44.24581" lon="5.09153">
        <ele>210.80000305176</ele>
        <time>2021-09-04T15:12:51Z</time>
      </trkpt>
      <trkpt lat="44.2457" lon="5.09146">
        <ele>210.80000305176</ele>
        <time>2021-09-04T15:12:53Z</time>
      </trkpt>
      <trkpt lat="44.24534" lon="5.09121">
        <ele>210.39999389648</ele>
        <time>2021-09-04T15:12:59Z</time>
      </trkpt>
      <trkpt lat="44.24529" lon="5.09115">
        <ele>210.39999389648</ele>
        <time>2021-09-04T15:13:00Z</time>
      </trkpt>
      <trkpt lat="44.24515" lon="5.09093">
        <ele>210.19999694824</ele>
        <time>2021-09-04T15:13:03Z</time>
      </trkpt>
      <trkpt lat="44.24511" lon="5.09084">
        <ele>210</ele>
        <time>2021-09-04T15:13:04Z</time>
      </trkpt>
      <trkpt lat="44.24503" lon="5.09066">
        <ele>209.80000305176</ele>
        <time>2021-09-04T15:13:06Z</time>
      </trkpt>
      <trkpt lat="44.24497" lon="5.09046">
        <ele>209.39999389648</ele>
        <time>2021-09-04T15:13:08Z</time>
      </trkpt>
      <trkpt lat="44.24479" lon="5.08986">
        <ele>208.39999389648</ele>
        <time>2021-09-04T15:13:14Z</time>
      </trkpt>
      <trkpt lat="44.24467" lon="5.08946">
        <ele>207.80000305176</ele>
        <time>2021-09-04T15:13:18Z</time>
      </trkpt>
      <trkpt lat="44.24461" lon="5.08925">
        <ele>207.39999389648</ele>
        <time>2021-09-04T15:13:20Z</time>
      </trkpt>
      <trkpt lat="44.24448" lon="5.08883">
        <ele>206.39999389648</ele>
        <time>2021-09-04T15:13:24Z</time>
      </trkpt>
      <trkpt lat="44.24445" lon="5.08872">
        <ele>206.19999694824</ele>
        <time>2021-09-04T15:13:25Z</time>
      </trkpt>
      <trkpt lat="44.24426" lon="5.08808">
        <ele>205.19999694824</ele>
        <time>2021-09-04T15:13:31Z</time>
      </trkpt>
      <trkpt lat="44.24417" lon="5.08778">
        <ele>204.60000610352</ele>
        <time>2021-09-04T15:13:34Z</time>
      </trkpt>
      <trkpt lat="44.24405" lon="5.08736">
        <ele>204</ele>
        <time>2021-09-04T15:13:38Z</time>
      </trkpt>
      <trkpt lat="44.24393" lon="5.08698">
        <ele>204</ele>
        <time>2021-09-04T15:13:42Z</time>
      </trkpt>
      <trkpt lat="44.24373" lon="5.0863">
        <ele>203.39999389648</ele>
        <time>2021-09-04T15:13:49Z</time>
      </trkpt>
      <trkpt lat="44.24365" lon="5.08601">
        <ele>203</ele>
        <time>2021-09-04T15:13:52Z</time>
      </trkpt>
      <trkpt lat="44.2435" lon="5.08554">
        <ele>202.39999389648</ele>
        <time>2021-09-04T15:13:57Z</time>
      </trkpt>
      <trkpt lat="44.24345" lon="5.08526">
        <ele>202.19999694824</ele>
        <time>2021-09-04T15:14:00Z</time>
      </trkpt>
      <trkpt lat="44.24347" lon="5.08517">
        <ele>202</ele>
        <time>2021-09-04T15:14:01Z</time>
      </trkpt>
      <trkpt lat="44.2435" lon="5.08509">
        <ele>202</ele>
        <time>2021-09-04T15:14:02Z</time>
      </trkpt>
      <trkpt lat="44.24347" lon="5.08494">
        <ele>201.80000305176</ele>
        <time>2021-09-04T15:14:04Z</time>
      </trkpt>
      <trkpt lat="44.24332" lon="5.0848">
        <ele>201.60000610352</ele>
        <time>2021-09-04T15:14:07Z</time>
      </trkpt>
      <trkpt lat="44.24318" lon="5.0845">
        <ele>201.19999694824</ele>
        <time>2021-09-04T15:14:11Z</time>
      </trkpt>
      <trkpt lat="44.24315" lon="5.08441">
        <ele>201</ele>
        <time>2021-09-04T15:14:12Z</time>
      </trkpt>
      <trkpt lat="44.24308" lon="5.08414">
        <ele>200.80000305176</ele>
        <time>2021-09-04T15:14:15Z</time>
      </trkpt>
      <trkpt lat="44.24298" lon="5.08377">
        <ele>200.60000610352</ele>
        <time>2021-09-04T15:14:19Z</time>
      </trkpt>
      <trkpt lat="44.24275" lon="5.08307">
        <ele>200.19999694824</ele>
        <time>2021-09-04T15:14:27Z</time>
      </trkpt>
      <trkpt lat="44.24258" lon="5.08252">
        <ele>200.19999694824</ele>
        <time>2021-09-04T15:14:34Z</time>
      </trkpt>
      <trkpt lat="44.24241" lon="5.08195">
        <ele>200.19999694824</ele>
        <time>2021-09-04T15:14:42Z</time>
      </trkpt>
      <trkpt lat="44.24238" lon="5.08153">
        <ele>200.19999694824</ele>
        <time>2021-09-04T15:14:48Z</time>
      </trkpt>
      <trkpt lat="44.24237" lon="5.08136">
        <ele>200.19999694824</ele>
        <time>2021-09-04T15:14:52Z</time>
      </trkpt>
      <trkpt lat="44.24233" lon="5.08123">
        <ele>200.19999694824</ele>
        <time>2021-09-04T15:14:55Z</time>
      </trkpt>
      <trkpt lat="44.24229" lon="5.0812">
        <ele>200.19999694824</ele>
        <time>2021-09-04T15:14:56Z</time>
      </trkpt>
      <trkpt lat="44.24217" lon="5.08114">
        <ele>200.19999694824</ele>
        <time>2021-09-04T15:14:59Z</time>
      </trkpt>
      <trkpt lat="44.24214" lon="5.08111">
        <ele>200.19999694824</ele>
        <time>2021-09-04T15:15:00Z</time>
      </trkpt>
      <trkpt lat="44.24209" lon="5.08092">
        <ele>200</ele>
        <time>2021-09-04T15:15:04Z</time>
      </trkpt>
      <trkpt lat="44.24205" lon="5.08077">
        <ele>199.80000305176</ele>
        <time>2021-09-04T15:15:09Z</time>
      </trkpt>
      <trkpt lat="44.24203" lon="5.08069">
        <ele>199.80000305176</ele>
        <time>2021-09-04T15:15:11Z</time>
      </trkpt>
      <trkpt lat="44.24196" lon="5.08039">
        <ele>199.60000610352</ele>
        <time>2021-09-04T15:15:17Z</time>
      </trkpt>
      <trkpt lat="44.24192" lon="5.08021">
        <ele>199.39999389648</ele>
        <time>2021-09-04T15:15:20Z</time>
      </trkpt>
      <trkpt lat="44.24188" lon="5.07999">
        <ele>199.19999694824</ele>
        <time>2021-09-04T15:15:23Z</time>
      </trkpt>
      <trkpt lat="44.24185" lon="5.07985">
        <ele>198.80000305176</ele>
        <time>2021-09-04T15:15:25Z</time>
      </trkpt>
      <trkpt lat="44.24184" lon="5.07978">
        <ele>198.80000305176</ele>
        <time>2021-09-04T15:15:26Z</time>
      </trkpt>
      <trkpt lat="44.24179" lon="5.07953">
        <ele>198.39999389648</ele>
        <time>2021-09-04T15:15:29Z</time>
      </trkpt>
      <trkpt lat="44.24172" lon="5.07917">
        <ele>197.60000610352</ele>
        <time>2021-09-04T15:15:33Z</time>
      </trkpt>
      <trkpt lat="44.24167" lon="5.07899">
        <ele>197.39999389648</ele>
        <time>2021-09-04T15:15:35Z</time>
      </trkpt>
      <trkpt lat="44.24161" lon="5.0787">
        <ele>196.60000610352</ele>
        <time>2021-09-04T15:15:38Z</time>
      </trkpt>
      <trkpt lat="44.24155" lon="5.0784">
        <ele>196</ele>
        <time>2021-09-04T15:15:41Z</time>
      </trkpt>
      <trkpt lat="44.24151" lon="5.0782">
        <ele>195.60000610352</ele>
        <time>2021-09-04T15:15:43Z</time>
      </trkpt>
      <trkpt lat="44.24141" lon="5.07773">
        <ele>194.39999389648</ele>
        <time>2021-09-04T15:15:48Z</time>
      </trkpt>
      <trkpt lat="44.24134" lon="5.07738">
        <ele>193.39999389648</ele>
        <time>2021-09-04T15:15:52Z</time>
      </trkpt>
      <trkpt lat="44.24134" lon="5.07719">
        <ele>192.80000305176</ele>
        <time>2021-09-04T15:15:55Z</time>
      </trkpt>
      <trkpt lat="44.24144" lon="5.07714">
        <ele>192.19999694824</ele>
        <time>2021-09-04T15:15:57Z</time>
      </trkpt>
      <trkpt lat="44.24153" lon="5.07711">
        <ele>191.80000305176</ele>
        <time>2021-09-04T15:15:59Z</time>
      </trkpt>
      <trkpt lat="44.2417" lon="5.07705">
        <ele>191.39999389648</ele>
        <time>2021-09-04T15:16:03Z</time>
      </trkpt>
      <trkpt lat="44.24173" lon="5.077">
        <ele>191.39999389648</ele>
        <time>2021-09-04T15:16:04Z</time>
      </trkpt>
      <trkpt lat="44.24177" lon="5.07687">
        <ele>191.19999694824</ele>
        <time>2021-09-04T15:16:06Z</time>
      </trkpt>
      <trkpt lat="44.24177" lon="5.07664">
        <ele>191</ele>
        <time>2021-09-04T15:16:09Z</time>
      </trkpt>
      <trkpt lat="44.24177" lon="5.07648">
        <ele>190.80000305176</ele>
        <time>2021-09-04T15:16:11Z</time>
      </trkpt>
      <trkpt lat="44.24179" lon="5.07588">
        <ele>190.39999389648</ele>
        <time>2021-09-04T15:16:18Z</time>
      </trkpt>
      <trkpt lat="44.24178" lon="5.07571">
        <ele>190.19999694824</ele>
        <time>2021-09-04T15:16:20Z</time>
      </trkpt>
      <trkpt lat="44.24177" lon="5.07528">
        <ele>189.60000610352</ele>
        <time>2021-09-04T15:16:25Z</time>
      </trkpt>
      <trkpt lat="44.24177" lon="5.07461">
        <ele>189.19999694824</ele>
        <time>2021-09-04T15:16:33Z</time>
      </trkpt>
      <trkpt lat="44.24176" lon="5.07436">
        <ele>189.19999694824</ele>
        <time>2021-09-04T15:16:36Z</time>
      </trkpt>
      <trkpt lat="44.24177" lon="5.07393">
        <ele>188.80000305176</ele>
        <time>2021-09-04T15:16:41Z</time>
      </trkpt>
      <trkpt lat="44.24179" lon="5.07358">
        <ele>188.60000610352</ele>
        <time>2021-09-04T15:16:45Z</time>
      </trkpt>
      <trkpt lat="44.24186" lon="5.07346">
        <ele>188.39999389648</ele>
        <time>2021-09-04T15:16:47Z</time>
      </trkpt>
      <trkpt lat="44.24201" lon="5.07336">
        <ele>188.19999694824</ele>
        <time>2021-09-04T15:16:50Z</time>
      </trkpt>
      <trkpt lat="44.24205" lon="5.07333">
        <ele>188</ele>
        <time>2021-09-04T15:16:51Z</time>
      </trkpt>
      <trkpt lat="44.24241" lon="5.07312">
        <ele>188.19999694824</ele>
        <time>2021-09-04T15:16:58Z</time>
      </trkpt>
      <trkpt lat="44.24279" lon="5.07283">
        <ele>188.19999694824</ele>
        <time>2021-09-04T15:17:05Z</time>
      </trkpt>
      <trkpt lat="44.24315" lon="5.07257">
        <ele>188.60000610352</ele>
        <time>2021-09-04T15:17:13Z</time>
      </trkpt>
      <trkpt lat="44.24345" lon="5.07235">
        <ele>189.19999694824</ele>
        <time>2021-09-04T15:17:20Z</time>
      </trkpt>
      <trkpt lat="44.24348" lon="5.07233">
        <ele>189.39999389648</ele>
        <time>2021-09-04T15:17:21Z</time>
      </trkpt>
      <trkpt lat="44.24367" lon="5.07223">
        <ele>189.80000305176</ele>
        <time>2021-09-04T15:17:27Z</time>
      </trkpt>
      <trkpt lat="44.24382" lon="5.07212">
        <ele>190.19999694824</ele>
        <time>2021-09-04T15:17:32Z</time>
      </trkpt>
      <trkpt lat="44.24388" lon="5.07208">
        <ele>190.60000610352</ele>
        <time>2021-09-04T15:17:34Z</time>
      </trkpt>
      <trkpt lat="44.24409" lon="5.07194">
        <ele>191.39999389648</ele>
        <time>2021-09-04T15:17:41Z</time>
      </trkpt>
      <trkpt lat="44.24424" lon="5.07183">
        <ele>192.19999694824</ele>
        <time>2021-09-04T15:17:47Z</time>
      </trkpt>
      <trkpt lat="44.24429" lon="5.0718">
        <ele>192.39999389648</ele>
        <time>2021-09-04T15:17:49Z</time>
      </trkpt>
      <trkpt lat="44.24438" lon="5.07176">
        <ele>193</ele>
        <time>2021-09-04T15:19:24Z</time>
      </trkpt>
      <trkpt lat="44.24442" lon="5.07175">
        <ele>193</ele>
        <time>2021-09-04T15:19:26Z</time>
      </trkpt>
      <trkpt lat="44.24453" lon="5.07181">
        <ele>193.39999389648</ele>
        <time>2021-09-04T15:19:30Z</time>
      </trkpt>
      <trkpt lat="44.2446" lon="5.07185">
        <ele>193.60000610352</ele>
        <time>2021-09-04T15:19:32Z</time>
      </trkpt>
      <trkpt lat="44.2447" lon="5.07185">
        <ele>193.80000305176</ele>
        <time>2021-09-04T15:19:35Z</time>
      </trkpt>
      <trkpt lat="44.24481" lon="5.07174">
        <ele>194</ele>
        <time>2021-09-04T15:19:39Z</time>
      </trkpt>
      <trkpt lat="44.24484" lon="5.07163">
        <ele>194</ele>
        <time>2021-09-04T15:19:52Z</time>
      </trkpt>
      <trkpt lat="44.2448" lon="5.07155">
        <ele>194</ele>
        <time>2021-09-04T15:19:54Z</time>
      </trkpt>
      <trkpt lat="44.24473" lon="5.07141">
        <ele>194</ele>
        <time>2021-09-04T15:19:57Z</time>
      </trkpt>
      <trkpt lat="44.24472" lon="5.07135">
        <ele>194</ele>
        <time>2021-09-04T15:19:58Z</time>
      </trkpt>
      <trkpt lat="44.24474" lon="5.07115">
        <ele>194</ele>
        <time>2021-09-04T15:20:01Z</time>
      </trkpt>
      <trkpt lat="44.24475" lon="5.07103">
        <ele>194</ele>
        <time>2021-09-04T15:20:03Z</time>
      </trkpt>
      <trkpt lat="44.24476" lon="5.07075">
        <ele>193.80000305176</ele>
        <time>2021-09-04T15:20:07Z</time>
      </trkpt>
      <trkpt lat="44.24477" lon="5.07013">
        <ele>194</ele>
        <time>2021-09-04T15:20:16Z</time>
      </trkpt>
      <trkpt lat="44.24481" lon="5.06993">
        <ele>194</ele>
        <time>2021-09-04T15:20:19Z</time>
      </trkpt>
      <trkpt lat="44.24487" lon="5.06981">
        <ele>194</ele>
        <time>2021-09-04T15:20:21Z</time>
      </trkpt>
      <trkpt lat="44.24497" lon="5.06966">
        <ele>194.19999694824</ele>
        <time>2021-09-04T15:20:24Z</time>
      </trkpt>
      <trkpt lat="44.24503" lon="5.06957">
        <ele>194.39999389648</ele>
        <time>2021-09-04T15:20:26Z</time>
      </trkpt>
      <trkpt lat="44.24506" lon="5.06952">
        <ele>194.60000610352</ele>
        <time>2021-09-04T15:20:27Z</time>
      </trkpt>
      <trkpt lat="44.2451" lon="5.06947">
        <ele>194.60000610352</ele>
        <time>2021-09-04T15:20:28Z</time>
      </trkpt>
      <trkpt lat="44.24536" lon="5.0692">
        <ele>195.39999389648</ele>
        <time>2021-09-04T15:20:35Z</time>
      </trkpt>
      <trkpt lat="44.24547" lon="5.06911">
        <ele>195.60000610352</ele>
        <time>2021-09-04T15:20:38Z</time>
      </trkpt>
      <trkpt lat="44.24567" lon="5.06899">
        <ele>196.39999389648</ele>
        <time>2021-09-04T15:20:43Z</time>
      </trkpt>
      <trkpt lat="44.24582" lon="5.0689">
        <ele>196.60000610352</ele>
        <time>2021-09-04T15:20:47Z</time>
      </trkpt>
      <trkpt lat="44.24615" lon="5.06876">
        <ele>197.39999389648</ele>
        <time>2021-09-04T15:20:55Z</time>
      </trkpt>
      <trkpt lat="44.24627" lon="5.06871">
        <ele>197.80000305176</ele>
        <time>2021-09-04T15:20:58Z</time>
      </trkpt>
      <trkpt lat="44.24648" lon="5.06863">
        <ele>198.39999389648</ele>
        <time>2021-09-04T15:21:03Z</time>
      </trkpt>
      <trkpt lat="44.24689" lon="5.06847">
        <ele>198.80000305176</ele>
        <time>2021-09-04T15:21:13Z</time>
      </trkpt>
      <trkpt lat="44.24693" lon="5.06845">
        <ele>198.80000305176</ele>
        <time>2021-09-04T15:21:14Z</time>
      </trkpt>
      <trkpt lat="44.24724" lon="5.06832">
        <ele>199.39999389648</ele>
        <time>2021-09-04T15:21:22Z</time>
      </trkpt>
      <trkpt lat="44.24757" lon="5.06821">
        <ele>199.80000305176</ele>
        <time>2021-09-04T15:21:30Z</time>
      </trkpt>
      <trkpt lat="44.24762" lon="5.06819">
        <ele>199.80000305176</ele>
        <time>2021-09-04T15:21:31Z</time>
      </trkpt>
      <trkpt lat="44.24797" lon="5.06808">
        <ele>200</ele>
        <time>2021-09-04T15:21:39Z</time>
      </trkpt>
      <trkpt lat="44.24827" lon="5.06798">
        <ele>200.19999694824</ele>
        <time>2021-09-04T15:21:46Z</time>
      </trkpt>
      <trkpt lat="44.24877" lon="5.06781">
        <ele>200.80000305176</ele>
        <time>2021-09-04T15:21:57Z</time>
      </trkpt>
      <trkpt lat="44.24886" lon="5.06778">
        <ele>201</ele>
        <time>2021-09-04T15:21:59Z</time>
      </trkpt>
      <trkpt lat="44.24907" lon="5.06765">
        <ele>201.39999389648</ele>
        <time>2021-09-04T15:22:04Z</time>
      </trkpt>
      <trkpt lat="44.24911" lon="5.06761">
        <ele>201.39999389648</ele>
        <time>2021-09-04T15:22:05Z</time>
      </trkpt>
      <trkpt lat="44.24936" lon="5.06723">
        <ele>201.80000305176</ele>
        <time>2021-09-04T15:22:13Z</time>
      </trkpt>
      <trkpt lat="44.24948" lon="5.06703">
        <ele>201.80000305176</ele>
        <time>2021-09-04T15:22:17Z</time>
      </trkpt>
      <trkpt lat="44.2496" lon="5.06683">
        <ele>202</ele>
        <time>2021-09-04T15:22:21Z</time>
      </trkpt>
      <trkpt lat="44.24985" lon="5.06643">
        <ele>202.39999389648</ele>
        <time>2021-09-04T15:22:29Z</time>
      </trkpt>
      <trkpt lat="44.25006" lon="5.06614">
        <ele>202.39999389648</ele>
        <time>2021-09-04T15:22:35Z</time>
      </trkpt>
      <trkpt lat="44.25026" lon="5.06592">
        <ele>202.80000305176</ele>
        <time>2021-09-04T15:22:40Z</time>
      </trkpt>
      <trkpt lat="44.25038" lon="5.06578">
        <ele>202.80000305176</ele>
        <time>2021-09-04T15:22:43Z</time>
      </trkpt>
      <trkpt lat="44.25055" lon="5.06562">
        <ele>203</ele>
        <time>2021-09-04T15:22:47Z</time>
      </trkpt>
      <trkpt lat="44.25076" lon="5.06544">
        <ele>203.19999694824</ele>
        <time>2021-09-04T15:22:52Z</time>
      </trkpt>
      <trkpt lat="44.25089" lon="5.06533">
        <ele>203.39999389648</ele>
        <time>2021-09-04T15:22:55Z</time>
      </trkpt>
      <trkpt lat="44.25099" lon="5.06523">
        <ele>203.39999389648</ele>
        <time>2021-09-04T15:22:58Z</time>
      </trkpt>
      <trkpt lat="44.25101" lon="5.0651">
        <ele>203.60000610352</ele>
        <time>2021-09-04T15:23:00Z</time>
      </trkpt>
      <trkpt lat="44.25102" lon="5.06503">
        <ele>203.80000305176</ele>
        <time>2021-09-04T15:23:01Z</time>
      </trkpt>
      <trkpt lat="44.25105" lon="5.06496">
        <ele>203.80000305176</ele>
        <time>2021-09-04T15:23:02Z</time>
      </trkpt>
      <trkpt lat="44.25119" lon="5.06441">
        <ele>203.60000610352</ele>
        <time>2021-09-04T15:23:09Z</time>
      </trkpt>
      <trkpt lat="44.25134" lon="5.06367">
        <ele>203</ele>
        <time>2021-09-04T15:23:18Z</time>
      </trkpt>
      <trkpt lat="44.25152" lon="5.06302">
        <ele>203</ele>
        <time>2021-09-04T15:23:27Z</time>
      </trkpt>
      <trkpt lat="44.25167" lon="5.06257">
        <ele>203.19999694824</ele>
        <time>2021-09-04T15:23:34Z</time>
      </trkpt>
      <trkpt lat="44.25187" lon="5.06217">
        <ele>203.80000305176</ele>
        <time>2021-09-04T15:23:41Z</time>
      </trkpt>
      <trkpt lat="44.2519" lon="5.06212">
        <ele>204</ele>
        <time>2021-09-04T15:23:42Z</time>
      </trkpt>
      <trkpt lat="44.25198" lon="5.06189">
        <ele>204.60000610352</ele>
        <time>2021-09-04T15:23:46Z</time>
      </trkpt>
      <trkpt lat="44.25201" lon="5.06176">
        <ele>204.80000305176</ele>
        <time>2021-09-04T15:23:48Z</time>
      </trkpt>
      <trkpt lat="44.25204" lon="5.06164">
        <ele>205</ele>
        <time>2021-09-04T15:23:50Z</time>
      </trkpt>
      <trkpt lat="44.25206" lon="5.06145">
        <ele>205.39999389648</ele>
        <time>2021-09-04T15:23:53Z</time>
      </trkpt>
      <trkpt lat="44.25212" lon="5.06089">
        <ele>205.80000305176</ele>
        <time>2021-09-04T15:24:01Z</time>
      </trkpt>
      <trkpt lat="44.2522" lon="5.06047">
        <ele>205.80000305176</ele>
        <time>2021-09-04T15:24:07Z</time>
      </trkpt>
      <trkpt lat="44.25223" lon="5.06041">
        <ele>205.80000305176</ele>
        <time>2021-09-04T15:24:08Z</time>
      </trkpt>
      <trkpt lat="44.25246" lon="5.06002">
        <ele>206</ele>
        <time>2021-09-04T15:24:15Z</time>
      </trkpt>
      <trkpt lat="44.2525" lon="5.05998">
        <ele>206.19999694824</ele>
        <time>2021-09-04T15:24:16Z</time>
      </trkpt>
      <trkpt lat="44.25275" lon="5.0596">
        <ele>207</ele>
        <time>2021-09-04T15:24:24Z</time>
      </trkpt>
      <trkpt lat="44.25281" lon="5.05951">
        <ele>207.19999694824</ele>
        <time>2021-09-04T15:24:26Z</time>
      </trkpt>
      <trkpt lat="44.2529" lon="5.05938">
        <ele>207.39999389648</ele>
        <time>2021-09-04T15:24:29Z</time>
      </trkpt>
      <trkpt lat="44.25296" lon="5.05929">
        <ele>207.60000610352</ele>
        <time>2021-09-04T15:24:31Z</time>
      </trkpt>
      <trkpt lat="44.25299" lon="5.05924">
        <ele>207.60000610352</ele>
        <time>2021-09-04T15:24:32Z</time>
      </trkpt>
      <trkpt lat="44.25309" lon="5.05912">
        <ele>208.19999694824</ele>
        <time>2021-09-04T15:24:35Z</time>
      </trkpt>
      <trkpt lat="44.25313" lon="5.05908">
        <ele>208.19999694824</ele>
        <time>2021-09-04T15:24:36Z</time>
      </trkpt>
      <trkpt lat="44.2534" lon="5.05869">
        <ele>209.19999694824</ele>
        <time>2021-09-04T15:24:44Z</time>
      </trkpt>
      <trkpt lat="44.25348" lon="5.0586">
        <ele>209.19999694824</ele>
        <time>2021-09-04T15:24:46Z</time>
      </trkpt>
      <trkpt lat="44.25366" lon="5.05839">
        <ele>209.60000610352</ele>
        <time>2021-09-04T15:24:50Z</time>
      </trkpt>
      <trkpt lat="44.254" lon="5.05796">
        <ele>209.19999694824</ele>
        <time>2021-09-04T15:24:57Z</time>
      </trkpt>
      <trkpt lat="44.2542" lon="5.0577">
        <ele>208.19999694824</ele>
        <time>2021-09-04T15:25:01Z</time>
      </trkpt>
      <trkpt lat="44.25436" lon="5.0575">
        <ele>207.60000610352</ele>
        <time>2021-09-04T15:25:04Z</time>
      </trkpt>
      <trkpt lat="44.25447" lon="5.05738">
        <ele>207.19999694824</ele>
        <time>2021-09-04T15:25:06Z</time>
      </trkpt>
      <trkpt lat="44.25475" lon="5.05709">
        <ele>206.19999694824</ele>
        <time>2021-09-04T15:25:11Z</time>
      </trkpt>
      <trkpt lat="44.25486" lon="5.05698">
        <ele>206</ele>
        <time>2021-09-04T15:25:13Z</time>
      </trkpt>
      <trkpt lat="44.25512" lon="5.0567">
        <ele>205.19999694824</ele>
        <time>2021-09-04T15:25:18Z</time>
      </trkpt>
      <trkpt lat="44.25529" lon="5.05654">
        <ele>205</ele>
        <time>2021-09-04T15:25:21Z</time>
      </trkpt>
      <trkpt lat="44.25545" lon="5.05638">
        <ele>204.80000305176</ele>
        <time>2021-09-04T15:25:24Z</time>
      </trkpt>
      <trkpt lat="44.25578" lon="5.05605">
        <ele>204</ele>
        <time>2021-09-04T15:25:30Z</time>
      </trkpt>
      <trkpt lat="44.256" lon="5.05581">
        <ele>203.60000610352</ele>
        <time>2021-09-04T15:25:34Z</time>
      </trkpt>
      <trkpt lat="44.25648" lon="5.05531">
        <ele>203.19999694824</ele>
        <time>2021-09-04T15:25:43Z</time>
      </trkpt>
      <trkpt lat="44.25653" lon="5.05526">
        <ele>203</ele>
        <time>2021-09-04T15:25:44Z</time>
      </trkpt>
      <trkpt lat="44.25665" lon="5.05516">
        <ele>203</ele>
        <time>2021-09-04T15:25:46Z</time>
      </trkpt>
      <trkpt lat="44.25698" lon="5.05491">
        <ele>202.39999389648</ele>
        <time>2021-09-04T15:25:52Z</time>
      </trkpt>
      <trkpt lat="44.25743" lon="5.05454">
        <ele>202.39999389648</ele>
        <time>2021-09-04T15:26:00Z</time>
      </trkpt>
      <trkpt lat="44.25783" lon="5.05421">
        <ele>202.39999389648</ele>
        <time>2021-09-04T15:26:07Z</time>
      </trkpt>
      <trkpt lat="44.25814" lon="5.05381">
        <ele>202.80000305176</ele>
        <time>2021-09-04T15:26:14Z</time>
      </trkpt>
      <trkpt lat="44.25848" lon="5.05334">
        <ele>203.60000610352</ele>
        <time>2021-09-04T15:26:23Z</time>
      </trkpt>
      <trkpt lat="44.25859" lon="5.05319">
        <ele>204</ele>
        <time>2021-09-04T15:26:26Z</time>
      </trkpt>
      <trkpt lat="44.25882" lon="5.05285">
        <ele>204.39999389648</ele>
        <time>2021-09-04T15:26:32Z</time>
      </trkpt>
      <trkpt lat="44.25911" lon="5.05248">
        <ele>204.39999389648</ele>
        <time>2021-09-04T15:26:39Z</time>
      </trkpt>
      <trkpt lat="44.25946" lon="5.05214">
        <ele>204.39999389648</ele>
        <time>2021-09-04T15:26:46Z</time>
      </trkpt>
      <trkpt lat="44.25987" lon="5.05184">
        <ele>204.19999694824</ele>
        <time>2021-09-04T15:26:53Z</time>
      </trkpt>
      <trkpt lat="44.26025" lon="5.05154">
        <ele>203.60000610352</ele>
        <time>2021-09-04T15:27:00Z</time>
      </trkpt>
      <trkpt lat="44.26064" lon="5.0512">
        <ele>203</ele>
        <time>2021-09-04T15:27:08Z</time>
      </trkpt>
      <trkpt lat="44.26069" lon="5.05116">
        <ele>203</ele>
        <time>2021-09-04T15:27:09Z</time>
      </trkpt>
      <trkpt lat="44.26096" lon="5.0509">
        <ele>202.80000305176</ele>
        <time>2021-09-04T15:27:15Z</time>
      </trkpt>
      <trkpt lat="44.26104" lon="5.05084">
        <ele>201.39999389648</ele>
        <time>2021-09-04T15:28:59Z</time>
      </trkpt>
      <trkpt lat="44.26108" lon="5.05081">
        <ele>201.39999389648</ele>
        <time>2021-09-04T15:29:01Z</time>
      </trkpt>
      <trkpt lat="44.2612" lon="5.05068">
        <ele>201.19999694824</ele>
        <time>2021-09-04T15:29:05Z</time>
      </trkpt>
      <trkpt lat="44.26132" lon="5.05053">
        <ele>201.19999694824</ele>
        <time>2021-09-04T15:29:08Z</time>
      </trkpt>
      <trkpt lat="44.2614" lon="5.05043">
        <ele>201.19999694824</ele>
        <time>2021-09-04T15:29:10Z</time>
      </trkpt>
      <trkpt lat="44.26175" lon="5.05007">
        <ele>200.60000610352</ele>
        <time>2021-09-04T15:29:17Z</time>
      </trkpt>
      <trkpt lat="44.26191" lon="5.04991">
        <ele>200.39999389648</ele>
        <time>2021-09-04T15:29:20Z</time>
      </trkpt>
      <trkpt lat="44.26222" lon="5.0496">
        <ele>199.80000305176</ele>
        <time>2021-09-04T15:29:26Z</time>
      </trkpt>
      <trkpt lat="44.26259" lon="5.04921">
        <ele>199.39999389648</ele>
        <time>2021-09-04T15:29:33Z</time>
      </trkpt>
      <trkpt lat="44.26275" lon="5.04905">
        <ele>199.19999694824</ele>
        <time>2021-09-04T15:29:36Z</time>
      </trkpt>
      <trkpt lat="44.26317" lon="5.04869">
        <ele>199</ele>
        <time>2021-09-04T15:29:44Z</time>
      </trkpt>
      <trkpt lat="44.26344" lon="5.04854">
        <ele>199.80000305176</ele>
        <time>2021-09-04T15:29:50Z</time>
      </trkpt>
      <trkpt lat="44.26348" lon="5.04851">
        <ele>200</ele>
        <time>2021-09-04T15:29:51Z</time>
      </trkpt>
      <trkpt lat="44.26358" lon="5.04843">
        <ele>200.39999389648</ele>
        <time>2021-09-04T15:29:54Z</time>
      </trkpt>
      <trkpt lat="44.26361" lon="5.0484">
        <ele>200.60000610352</ele>
        <time>2021-09-04T15:29:55Z</time>
      </trkpt>
      <trkpt lat="44.2638" lon="5.04824">
        <ele>201.60000610352</ele>
        <time>2021-09-04T15:30:01Z</time>
      </trkpt>
      <trkpt lat="44.26383" lon="5.04821">
        <ele>201.60000610352</ele>
        <time>2021-09-04T15:30:02Z</time>
      </trkpt>
      <trkpt lat="44.26397" lon="5.04802">
        <ele>202.60000610352</ele>
        <time>2021-09-04T15:30:07Z</time>
      </trkpt>
      <trkpt lat="44.26399" lon="5.04798">
        <ele>202.60000610352</ele>
        <time>2021-09-04T15:30:08Z</time>
      </trkpt>
      <trkpt lat="44.26411" lon="5.04774">
        <ele>203.19999694824</ele>
        <time>2021-09-04T15:30:13Z</time>
      </trkpt>
      <trkpt lat="44.26432" lon="5.04728">
        <ele>203</ele>
        <time>2021-09-04T15:30:20Z</time>
      </trkpt>
      <trkpt lat="44.26453" lon="5.04682">
        <ele>202</ele>
        <time>2021-09-04T15:30:26Z</time>
      </trkpt>
      <trkpt lat="44.26462" lon="5.04666">
        <ele>201.39999389648</ele>
        <time>2021-09-04T15:30:28Z</time>
      </trkpt>
      <trkpt lat="44.26482" lon="5.04635">
        <ele>200.60000610352</ele>
        <time>2021-09-04T15:30:32Z</time>
      </trkpt>
      <trkpt lat="44.26498" lon="5.04611">
        <ele>200.19999694824</ele>
        <time>2021-09-04T15:30:35Z</time>
      </trkpt>
      <trkpt lat="44.26529" lon="5.04561">
        <ele>199</ele>
        <time>2021-09-04T15:30:41Z</time>
      </trkpt>
      <trkpt lat="44.26539" lon="5.04545">
        <ele>198.80000305176</ele>
        <time>2021-09-04T15:30:43Z</time>
      </trkpt>
      <trkpt lat="44.26565" lon="5.04506">
        <ele>198</ele>
        <time>2021-09-04T15:30:48Z</time>
      </trkpt>
      <trkpt lat="44.26585" lon="5.04475">
        <ele>197.39999389648</ele>
        <time>2021-09-04T15:30:52Z</time>
      </trkpt>
      <trkpt lat="44.26619" lon="5.04426">
        <ele>197</ele>
        <time>2021-09-04T15:30:59Z</time>
      </trkpt>
      <trkpt lat="44.26634" lon="5.04405">
        <ele>196.80000305176</ele>
        <time>2021-09-04T15:31:02Z</time>
      </trkpt>
      <trkpt lat="44.26671" lon="5.04358">
        <ele>196</ele>
        <time>2021-09-04T15:31:09Z</time>
      </trkpt>
      <trkpt lat="44.26694" lon="5.04326">
        <ele>195.39999389648</ele>
        <time>2021-09-04T15:31:14Z</time>
      </trkpt>
      <trkpt lat="44.26704" lon="5.04312">
        <ele>195</ele>
        <time>2021-09-04T15:31:16Z</time>
      </trkpt>
      <trkpt lat="44.26735" lon="5.04268">
        <ele>194.19999694824</ele>
        <time>2021-09-04T15:31:22Z</time>
      </trkpt>
      <trkpt lat="44.26745" lon="5.04253">
        <ele>193.80000305176</ele>
        <time>2021-09-04T15:31:24Z</time>
      </trkpt>
      <trkpt lat="44.26769" lon="5.04213">
        <ele>193.39999389648</ele>
        <time>2021-09-04T15:31:29Z</time>
      </trkpt>
      <trkpt lat="44.26771" lon="5.04204">
        <ele>193.19999694824</ele>
        <time>2021-09-04T15:31:30Z</time>
      </trkpt>
      <trkpt lat="44.26769" lon="5.04171">
        <ele>193</ele>
        <time>2021-09-04T15:31:33Z</time>
      </trkpt>
      <trkpt lat="44.26767" lon="5.04126">
        <ele>192.80000305176</ele>
        <time>2021-09-04T15:31:37Z</time>
      </trkpt>
      <trkpt lat="44.26767" lon="5.04103">
        <ele>192.39999389648</ele>
        <time>2021-09-04T15:31:39Z</time>
      </trkpt>
      <trkpt lat="44.26771" lon="5.04067">
        <ele>191.60000610352</ele>
        <time>2021-09-04T15:31:42Z</time>
      </trkpt>
      <trkpt lat="44.26775" lon="5.04031">
        <ele>190.60000610352</ele>
        <time>2021-09-04T15:31:45Z</time>
      </trkpt>
      <trkpt lat="44.2678" lon="5.03983">
        <ele>189.19999694824</ele>
        <time>2021-09-04T15:31:49Z</time>
      </trkpt>
      <trkpt lat="44.26786" lon="5.03935">
        <ele>188</ele>
        <time>2021-09-04T15:31:53Z</time>
      </trkpt>
      <trkpt lat="44.26788" lon="5.0391">
        <ele>187.60000610352</ele>
        <time>2021-09-04T15:31:55Z</time>
      </trkpt>
      <trkpt lat="44.26793" lon="5.03875">
        <ele>187</ele>
        <time>2021-09-04T15:31:58Z</time>
      </trkpt>
      <trkpt lat="44.26803" lon="5.03805">
        <ele>185.80000305176</ele>
        <time>2021-09-04T15:32:04Z</time>
      </trkpt>
      <trkpt lat="44.26804" lon="5.03793">
        <ele>185.80000305176</ele>
        <time>2021-09-04T15:32:05Z</time>
      </trkpt>
      <trkpt lat="44.26809" lon="5.03716">
        <ele>185.39999389648</ele>
        <time>2021-09-04T15:32:12Z</time>
      </trkpt>
      <trkpt lat="44.26804" lon="5.03655">
        <ele>185</ele>
        <time>2021-09-04T15:32:18Z</time>
      </trkpt>
      <trkpt lat="44.26803" lon="5.03645">
        <ele>184.80000305176</ele>
        <time>2021-09-04T15:32:19Z</time>
      </trkpt>
      <trkpt lat="44.26797" lon="5.03577">
        <ele>184.60000610352</ele>
        <time>2021-09-04T15:32:26Z</time>
      </trkpt>
      <trkpt lat="44.26801" lon="5.03531">
        <ele>184.60000610352</ele>
        <time>2021-09-04T15:32:31Z</time>
      </trkpt>
      <trkpt lat="44.26811" lon="5.03465">
        <ele>184.19999694824</ele>
        <time>2021-09-04T15:32:38Z</time>
      </trkpt>
      <trkpt lat="44.26815" lon="5.03436">
        <ele>183.80000305176</ele>
        <time>2021-09-04T15:32:41Z</time>
      </trkpt>
      <trkpt lat="44.26822" lon="5.03388">
        <ele>183.39999389648</ele>
        <time>2021-09-04T15:32:46Z</time>
      </trkpt>
      <trkpt lat="44.2683" lon="5.03312">
        <ele>183.19999694824</ele>
        <time>2021-09-04T15:32:54Z</time>
      </trkpt>
      <trkpt lat="44.26831" lon="5.03303">
        <ele>183.19999694824</ele>
        <time>2021-09-04T15:32:55Z</time>
      </trkpt>
      <trkpt lat="44.26836" lon="5.03219">
        <ele>182.80000305176</ele>
        <time>2021-09-04T15:33:04Z</time>
      </trkpt>
      <trkpt lat="44.26836" lon="5.0321">
        <ele>182.80000305176</ele>
        <time>2021-09-04T15:33:05Z</time>
      </trkpt>
      <trkpt lat="44.26841" lon="5.03141">
        <ele>182.60000610352</ele>
        <time>2021-09-04T15:33:13Z</time>
      </trkpt>
      <trkpt lat="44.26847" lon="5.03065">
        <ele>183.19999694824</ele>
        <time>2021-09-04T15:33:22Z</time>
      </trkpt>
      <trkpt lat="44.26853" lon="5.03003">
        <ele>183.39999389648</ele>
        <time>2021-09-04T15:33:30Z</time>
      </trkpt>
      <trkpt lat="44.26855" lon="5.02974">
        <ele>183.80000305176</ele>
        <time>2021-09-04T15:33:34Z</time>
      </trkpt>
      <trkpt lat="44.26856" lon="5.02959">
        <ele>184</ele>
        <time>2021-09-04T15:33:36Z</time>
      </trkpt>
      <trkpt lat="44.26862" lon="5.02887">
        <ele>184.80000305176</ele>
        <time>2021-09-04T15:33:46Z</time>
      </trkpt>
      <trkpt lat="44.26863" lon="5.02873">
        <ele>184.80000305176</ele>
        <time>2021-09-04T15:33:48Z</time>
      </trkpt>
      <trkpt lat="44.26871" lon="5.02825">
        <ele>185.19999694824</ele>
        <time>2021-09-04T15:33:55Z</time>
      </trkpt>
      <trkpt lat="44.26885" lon="5.02784">
        <ele>186</ele>
        <time>2021-09-04T15:34:02Z</time>
      </trkpt>
      <trkpt lat="44.26888" lon="5.02778">
        <ele>186</ele>
        <time>2021-09-04T15:34:03Z</time>
      </trkpt>
      <trkpt lat="44.26906" lon="5.02736">
        <ele>187</ele>
        <time>2021-09-04T15:34:11Z</time>
      </trkpt>
      <trkpt lat="44.26926" lon="5.02692">
        <ele>188</ele>
        <time>2021-09-04T15:34:20Z</time>
      </trkpt>
      <trkpt lat="44.26928" lon="5.02688">
        <ele>188.19999694824</ele>
        <time>2021-09-04T15:34:21Z</time>
      </trkpt>
      <trkpt lat="44.2694" lon="5.02663">
        <ele>189</ele>
        <time>2021-09-04T15:34:27Z</time>
      </trkpt>
      <trkpt lat="44.26946" lon="5.02652">
        <ele>189.60000610352</ele>
        <time>2021-09-04T15:34:30Z</time>
      </trkpt>
      <trkpt lat="44.26949" lon="5.02644">
        <ele>190</ele>
        <time>2021-09-04T15:34:32Z</time>
      </trkpt>
      <trkpt lat="44.26954" lon="5.0263">
        <ele>190.80000305176</ele>
        <time>2021-09-04T15:34:36Z</time>
      </trkpt>
      <trkpt lat="44.26957" lon="5.02626">
        <ele>191.19999694824</ele>
        <time>2021-09-04T15:35:34Z</time>
      </trkpt>
      <trkpt lat="44.26958" lon="5.02624">
        <ele>191.19999694824</ele>
        <time>2021-09-04T15:35:35Z</time>
      </trkpt>
      <trkpt lat="44.2697" lon="5.02607">
        <ele>191.60000610352</ele>
        <time>2021-09-04T15:35:41Z</time>
      </trkpt>
      <trkpt lat="44.26985" lon="5.02587">
        <ele>192.19999694824</ele>
        <time>2021-09-04T15:35:47Z</time>
      </trkpt>
      <trkpt lat="44.26988" lon="5.02584">
        <ele>192.39999389648</ele>
        <time>2021-09-04T15:35:48Z</time>
      </trkpt>
      <trkpt lat="44.27002" lon="5.02579">
        <ele>193.19999694824</ele>
        <time>2021-09-04T15:35:53Z</time>
      </trkpt>
      <trkpt lat="44.27005" lon="5.02578">
        <ele>193.39999389648</ele>
        <time>2021-09-04T15:35:54Z</time>
      </trkpt>
      <trkpt lat="44.27021" lon="5.02574">
        <ele>194.60000610352</ele>
        <time>2021-09-04T15:36:00Z</time>
      </trkpt>
      <trkpt lat="44.27024" lon="5.02573">
        <ele>194.80000305176</ele>
        <time>2021-09-04T15:36:01Z</time>
      </trkpt>
      <trkpt lat="44.27038" lon="5.0257">
        <ele>195.60000610352</ele>
        <time>2021-09-04T15:36:06Z</time>
      </trkpt>
      <trkpt lat="44.27052" lon="5.02566">
        <ele>196.19999694824</ele>
        <time>2021-09-04T15:36:11Z</time>
      </trkpt>
      <trkpt lat="44.27063" lon="5.02564">
        <ele>196.80000305176</ele>
        <time>2021-09-04T15:36:15Z</time>
      </trkpt>
      <trkpt lat="44.2707" lon="5.02563">
        <ele>197</ele>
        <time>2021-09-04T15:36:18Z</time>
      </trkpt>
      <trkpt lat="44.27083" lon="5.02559">
        <ele>197.80000305176</ele>
        <time>2021-09-04T15:36:23Z</time>
      </trkpt>
      <trkpt lat="44.27088" lon="5.02559">
        <ele>198</ele>
        <time>2021-09-04T15:36:25Z</time>
      </trkpt>
      <trkpt lat="44.27101" lon="5.02555">
        <ele>199</ele>
        <time>2021-09-04T15:36:30Z</time>
      </trkpt>
      <trkpt lat="44.27106" lon="5.02553">
        <ele>199.19999694824</ele>
        <time>2021-09-04T15:36:32Z</time>
      </trkpt>
      <trkpt lat="44.27122" lon="5.02549">
        <ele>199.80000305176</ele>
        <time>2021-09-04T15:36:38Z</time>
      </trkpt>
      <trkpt lat="44.27126" lon="5.02549">
        <ele>200</ele>
        <time>2021-09-04T15:36:39Z</time>
      </trkpt>
      <trkpt lat="44.27143" lon="5.02546">
        <ele>200.60000610352</ele>
        <time>2021-09-04T15:36:45Z</time>
      </trkpt>
      <trkpt lat="44.27152" lon="5.02545">
        <ele>201</ele>
        <time>2021-09-04T15:36:48Z</time>
      </trkpt>
      <trkpt lat="44.27161" lon="5.02542">
        <ele>201.39999389648</ele>
        <time>2021-09-04T15:36:51Z</time>
      </trkpt>
      <trkpt lat="44.27174" lon="5.02539">
        <ele>202</ele>
        <time>2021-09-04T15:36:55Z</time>
      </trkpt>
      <trkpt lat="44.27185" lon="5.02537">
        <ele>202.60000610352</ele>
        <time>2021-09-04T15:36:59Z</time>
      </trkpt>
      <trkpt lat="44.27197" lon="5.02534">
        <ele>203</ele>
        <time>2021-09-04T15:37:03Z</time>
      </trkpt>
      <trkpt lat="44.27212" lon="5.02532">
        <ele>203.80000305176</ele>
        <time>2021-09-04T15:37:08Z</time>
      </trkpt>
      <trkpt lat="44.27218" lon="5.02531">
        <ele>204.19999694824</ele>
        <time>2021-09-04T15:37:10Z</time>
      </trkpt>
      <trkpt lat="44.27237" lon="5.02529">
        <ele>204.80000305176</ele>
        <time>2021-09-04T15:37:16Z</time>
      </trkpt>
      <trkpt lat="44.27247" lon="5.02529">
        <ele>205.19999694824</ele>
        <time>2021-09-04T15:37:19Z</time>
      </trkpt>
      <trkpt lat="44.27266" lon="5.02529">
        <ele>206</ele>
        <time>2021-09-04T15:37:25Z</time>
      </trkpt>
      <trkpt lat="44.27272" lon="5.02528">
        <ele>206.19999694824</ele>
        <time>2021-09-04T15:37:27Z</time>
      </trkpt>
      <trkpt lat="44.27296" lon="5.0253">
        <ele>207.19999694824</ele>
        <time>2021-09-04T15:37:34Z</time>
      </trkpt>
      <trkpt lat="44.27304" lon="5.0253">
        <ele>207.19999694824</ele>
        <time>2021-09-04T15:37:36Z</time>
      </trkpt>
      <trkpt lat="44.27326" lon="5.02531">
        <ele>207.80000305176</ele>
        <time>2021-09-04T15:37:42Z</time>
      </trkpt>
      <trkpt lat="44.27341" lon="5.02532">
        <ele>208.39999389648</ele>
        <time>2021-09-04T15:37:46Z</time>
      </trkpt>
      <trkpt lat="44.27349" lon="5.02533">
        <ele>208.60000610352</ele>
        <time>2021-09-04T15:37:48Z</time>
      </trkpt>
      <trkpt lat="44.2738" lon="5.02532">
        <ele>208.60000610352</ele>
        <time>2021-09-04T15:37:54Z</time>
      </trkpt>
      <trkpt lat="44.27426" lon="5.02536">
        <ele>207.39999389648</ele>
        <time>2021-09-04T15:38:01Z</time>
      </trkpt>
      <trkpt lat="44.27434" lon="5.02537">
        <ele>207.19999694824</ele>
        <time>2021-09-04T15:38:02Z</time>
      </trkpt>
      <trkpt lat="44.27462" lon="5.02538">
        <ele>206.19999694824</ele>
        <time>2021-09-04T15:38:06Z</time>
      </trkpt>
      <trkpt lat="44.27497" lon="5.02539">
        <ele>205.39999389648</ele>
        <time>2021-09-04T15:38:11Z</time>
      </trkpt>
      <trkpt lat="44.27538" lon="5.0254">
        <ele>205.19999694824</ele>
        <time>2021-09-04T15:38:18Z</time>
      </trkpt>
      <trkpt lat="44.27573" lon="5.02541">
        <ele>205.39999389648</ele>
        <time>2021-09-04T15:38:25Z</time>
      </trkpt>
      <trkpt lat="44.27624" lon="5.02542">
        <ele>206.60000610352</ele>
        <time>2021-09-04T15:38:36Z</time>
      </trkpt>
      <trkpt lat="44.27662" lon="5.0254">
        <ele>207.19999694824</ele>
        <time>2021-09-04T15:38:45Z</time>
      </trkpt>
      <trkpt lat="44.27665" lon="5.0254">
        <ele>207.19999694824</ele>
        <time>2021-09-04T15:38:46Z</time>
      </trkpt>
      <trkpt lat="44.27697" lon="5.02531">
        <ele>207.80000305176</ele>
        <time>2021-09-04T15:38:54Z</time>
      </trkpt>
      <trkpt lat="44.27725" lon="5.02525">
        <ele>208</ele>
        <time>2021-09-04T15:39:01Z</time>
      </trkpt>
      <trkpt lat="44.27733" lon="5.02523">
        <ele>208.19999694824</ele>
        <time>2021-09-04T15:39:03Z</time>
      </trkpt>
      <trkpt lat="44.27757" lon="5.02518">
        <ele>208.39999389648</ele>
        <time>2021-09-04T15:39:09Z</time>
      </trkpt>
      <trkpt lat="44.27793" lon="5.02509">
        <ele>209</ele>
        <time>2021-09-04T15:39:18Z</time>
      </trkpt>
      <trkpt lat="44.27805" lon="5.02508">
        <ele>209.19999694824</ele>
        <time>2021-09-04T15:39:21Z</time>
      </trkpt>
      <trkpt lat="44.27823" lon="5.02504">
        <ele>209.80000305176</ele>
        <time>2021-09-04T15:39:26Z</time>
      </trkpt>
      <trkpt lat="44.27836" lon="5.02501">
        <ele>210.39999389648</ele>
        <time>2021-09-04T15:39:30Z</time>
      </trkpt>
      <trkpt lat="44.27846" lon="5.025">
        <ele>210.80000305176</ele>
        <time>2021-09-04T15:39:33Z</time>
      </trkpt>
      <trkpt lat="44.27868" lon="5.02495">
        <ele>211.39999389648</ele>
        <time>2021-09-04T15:39:40Z</time>
      </trkpt>
      <trkpt lat="44.2789" lon="5.02486">
        <ele>212</ele>
        <time>2021-09-04T15:39:47Z</time>
      </trkpt>
      <trkpt lat="44.27913" lon="5.02476">
        <ele>212</ele>
        <time>2021-09-04T15:39:53Z</time>
      </trkpt>
      <trkpt lat="44.27941" lon="5.0246">
        <ele>211.39999389648</ele>
        <time>2021-09-04T15:40:00Z</time>
      </trkpt>
      <trkpt lat="44.27966" lon="5.02435">
        <ele>210.80000305176</ele>
        <time>2021-09-04T15:40:06Z</time>
      </trkpt>
      <trkpt lat="44.27973" lon="5.02425">
        <ele>210.39999389648</ele>
        <time>2021-09-04T15:40:08Z</time>
      </trkpt>
      <trkpt lat="44.27981" lon="5.02407">
        <ele>210</ele>
        <time>2021-09-04T15:40:11Z</time>
      </trkpt>
      <trkpt lat="44.27985" lon="5.02397">
        <ele>209.60000610352</ele>
        <time>2021-09-04T15:40:14Z</time>
      </trkpt>
      <trkpt lat="44.27984" lon="5.02393">
        <ele>208.60000610352</ele>
        <time>2021-09-04T15:41:16Z</time>
      </trkpt>
      <trkpt lat="44.27984" lon="5.02391">
        <ele>208.60000610352</ele>
        <time>2021-09-04T15:41:17Z</time>
      </trkpt>
      <trkpt lat="44.27984" lon="5.02373">
        <ele>208.39999389648</ele>
        <time>2021-09-04T15:41:21Z</time>
      </trkpt>
      <trkpt lat="44.27983" lon="5.02362">
        <ele>208.39999389648</ele>
        <time>2021-09-04T15:41:23Z</time>
      </trkpt>
      <trkpt lat="44.27981" lon="5.02341">
        <ele>208.39999389648</ele>
        <time>2021-09-04T15:41:26Z</time>
      </trkpt>
      <trkpt lat="44.27984" lon="5.02287">
        <ele>208</ele>
        <time>2021-09-04T15:41:33Z</time>
      </trkpt>
      <trkpt lat="44.27987" lon="5.02271">
        <ele>207.80000305176</ele>
        <time>2021-09-04T15:41:35Z</time>
      </trkpt>
      <trkpt lat="44.27995" lon="5.02257">
        <ele>207.80000305176</ele>
        <time>2021-09-04T15:41:37Z</time>
      </trkpt>
      <trkpt lat="44.28007" lon="5.02253">
        <ele>207.39999389648</ele>
        <time>2021-09-04T15:41:39Z</time>
      </trkpt>
      <trkpt lat="44.28013" lon="5.02254">
        <ele>207</ele>
        <time>2021-09-04T15:41:40Z</time>
      </trkpt>
      <trkpt lat="44.28031" lon="5.02264">
        <ele>206.80000305176</ele>
        <time>2021-09-04T15:41:43Z</time>
      </trkpt>
      <trkpt lat="44.28038" lon="5.02268">
        <ele>206.60000610352</ele>
        <time>2021-09-04T15:41:44Z</time>
      </trkpt>
      <trkpt lat="44.28044" lon="5.0227">
        <ele>206.39999389648</ele>
        <time>2021-09-04T15:41:45Z</time>
      </trkpt>
      <trkpt lat="44.2805" lon="5.0227">
        <ele>206.39999389648</ele>
        <time>2021-09-04T15:41:46Z</time>
      </trkpt>
      <trkpt lat="44.28056" lon="5.02269">
        <ele>206.19999694824</ele>
        <time>2021-09-04T15:41:47Z</time>
      </trkpt>
      <trkpt lat="44.28072" lon="5.02253">
        <ele>205.80000305176</ele>
        <time>2021-09-04T15:41:50Z</time>
      </trkpt>
      <trkpt lat="44.28081" lon="5.0224">
        <ele>205.39999389648</ele>
        <time>2021-09-04T15:41:52Z</time>
      </trkpt>
      <trkpt lat="44.28086" lon="5.02232">
        <ele>205.19999694824</ele>
        <time>2021-09-04T15:41:53Z</time>
      </trkpt>
      <trkpt lat="44.28097" lon="5.0222">
        <ele>204.60000610352</ele>
        <time>2021-09-04T15:41:55Z</time>
      </trkpt>
      <trkpt lat="44.28109" lon="5.02212">
        <ele>204.19999694824</ele>
        <time>2021-09-04T15:41:57Z</time>
      </trkpt>
      <trkpt lat="44.28116" lon="5.0221">
        <ele>203.80000305176</ele>
        <time>2021-09-04T15:41:58Z</time>
      </trkpt>
      <trkpt lat="44.28123" lon="5.02208">
        <ele>203.60000610352</ele>
        <time>2021-09-04T15:41:59Z</time>
      </trkpt>
      <trkpt lat="44.28151" lon="5.02203">
        <ele>203</ele>
        <time>2021-09-04T15:42:03Z</time>
      </trkpt>
      <trkpt lat="44.28173" lon="5.02198">
        <ele>202.60000610352</ele>
        <time>2021-09-04T15:42:06Z</time>
      </trkpt>
      <trkpt lat="44.28194" lon="5.02191">
        <ele>202</ele>
        <time>2021-09-04T15:42:09Z</time>
      </trkpt>
      <trkpt lat="44.28205" lon="5.02179">
        <ele>201.60000610352</ele>
        <time>2021-09-04T15:42:11Z</time>
      </trkpt>
      <trkpt lat="44.28209" lon="5.02159">
        <ele>201.19999694824</ele>
        <time>2021-09-04T15:42:13Z</time>
      </trkpt>
      <trkpt lat="44.28209" lon="5.02149">
        <ele>200.80000305176</ele>
        <time>2021-09-04T15:42:14Z</time>
      </trkpt>
      <trkpt lat="44.28205" lon="5.02129">
        <ele>200.19999694824</ele>
        <time>2021-09-04T15:42:16Z</time>
      </trkpt>
      <trkpt lat="44.28196" lon="5.02111">
        <ele>199.80000305176</ele>
        <time>2021-09-04T15:42:18Z</time>
      </trkpt>
      <trkpt lat="44.2819" lon="5.02103">
        <ele>199.39999389648</ele>
        <time>2021-09-04T15:42:19Z</time>
      </trkpt>
      <trkpt lat="44.28177" lon="5.02088">
        <ele>199</ele>
        <time>2021-09-04T15:42:21Z</time>
      </trkpt>
      <trkpt lat="44.28164" lon="5.02072">
        <ele>198.60000610352</ele>
        <time>2021-09-04T15:42:23Z</time>
      </trkpt>
      <trkpt lat="44.28158" lon="5.02063">
        <ele>198.39999389648</ele>
        <time>2021-09-04T15:42:24Z</time>
      </trkpt>
      <trkpt lat="44.28152" lon="5.02029">
        <ele>197.80000305176</ele>
        <time>2021-09-04T15:42:27Z</time>
      </trkpt>
      <trkpt lat="44.28156" lon="5.02018">
        <ele>197.39999389648</ele>
        <time>2021-09-04T15:42:28Z</time>
      </trkpt>
      <trkpt lat="44.28162" lon="5.0201">
        <ele>197.19999694824</ele>
        <time>2021-09-04T15:42:29Z</time>
      </trkpt>
      <trkpt lat="44.28178" lon="5.02003">
        <ele>196.60000610352</ele>
        <time>2021-09-04T15:42:31Z</time>
      </trkpt>
      <trkpt lat="44.28186" lon="5.02003">
        <ele>196.19999694824</ele>
        <time>2021-09-04T15:42:32Z</time>
      </trkpt>
      <trkpt lat="44.28194" lon="5.02004">
        <ele>196</ele>
        <time>2021-09-04T15:42:33Z</time>
      </trkpt>
      <trkpt lat="44.28202" lon="5.02004">
        <ele>195.80000305176</ele>
        <time>2021-09-04T15:42:34Z</time>
      </trkpt>
      <trkpt lat="44.28219" lon="5.02005">
        <ele>195.19999694824</ele>
        <time>2021-09-04T15:42:36Z</time>
      </trkpt>
      <trkpt lat="44.28252" lon="5.02003">
        <ele>194.19999694824</ele>
        <time>2021-09-04T15:42:40Z</time>
      </trkpt>
      <trkpt lat="44.2826" lon="5.02">
        <ele>194</ele>
        <time>2021-09-04T15:42:41Z</time>
      </trkpt>
      <trkpt lat="44.28283" lon="5.01987">
        <ele>193.19999694824</ele>
        <time>2021-09-04T15:42:44Z</time>
      </trkpt>
      <trkpt lat="44.2829" lon="5.01981">
        <ele>193</ele>
        <time>2021-09-04T15:42:45Z</time>
      </trkpt>
      <trkpt lat="44.28306" lon="5.01957">
        <ele>192.19999694824</ele>
        <time>2021-09-04T15:42:48Z</time>
      </trkpt>
      <trkpt lat="44.28309" lon="5.01946">
        <ele>192</ele>
        <time>2021-09-04T15:42:49Z</time>
      </trkpt>
      <trkpt lat="44.28309" lon="5.01923">
        <ele>191.39999389648</ele>
        <time>2021-09-04T15:42:51Z</time>
      </trkpt>
      <trkpt lat="44.28307" lon="5.01912">
        <ele>190.80000305176</ele>
        <time>2021-09-04T15:42:52Z</time>
      </trkpt>
      <trkpt lat="44.283" lon="5.0189">
        <ele>190.19999694824</ele>
        <time>2021-09-04T15:42:54Z</time>
      </trkpt>
      <trkpt lat="44.28293" lon="5.01867">
        <ele>189.60000610352</ele>
        <time>2021-09-04T15:42:56Z</time>
      </trkpt>
      <trkpt lat="44.28285" lon="5.01833">
        <ele>188.80000305176</ele>
        <time>2021-09-04T15:42:59Z</time>
      </trkpt>
      <trkpt lat="44.28274" lon="5.01815">
        <ele>188.39999389648</ele>
        <time>2021-09-04T15:43:01Z</time>
      </trkpt>
      <trkpt lat="44.28268" lon="5.01807">
        <ele>188.19999694824</ele>
        <time>2021-09-04T15:43:02Z</time>
      </trkpt>
      <trkpt lat="44.28264" lon="5.01797">
        <ele>188</ele>
        <time>2021-09-04T15:43:03Z</time>
      </trkpt>
      <trkpt lat="44.28263" lon="5.01785">
        <ele>187.60000610352</ele>
        <time>2021-09-04T15:43:04Z</time>
      </trkpt>
      <trkpt lat="44.28274" lon="5.01766">
        <ele>187</ele>
        <time>2021-09-04T15:43:06Z</time>
      </trkpt>
      <trkpt lat="44.28298" lon="5.01755">
        <ele>186</ele>
        <time>2021-09-04T15:43:09Z</time>
      </trkpt>
      <trkpt lat="44.28306" lon="5.01752">
        <ele>185.80000305176</ele>
        <time>2021-09-04T15:43:10Z</time>
      </trkpt>
      <trkpt lat="44.28347" lon="5.01738">
        <ele>185</ele>
        <time>2021-09-04T15:43:15Z</time>
      </trkpt>
      <trkpt lat="44.28355" lon="5.01736">
        <ele>184.39999389648</ele>
        <time>2021-09-04T15:43:16Z</time>
      </trkpt>
      <trkpt lat="44.28372" lon="5.01734">
        <ele>183.80000305176</ele>
        <time>2021-09-04T15:43:18Z</time>
      </trkpt>
      <trkpt lat="44.2839" lon="5.01736">
        <ele>183.19999694824</ele>
        <time>2021-09-04T15:43:20Z</time>
      </trkpt>
      <trkpt lat="44.28408" lon="5.01742">
        <ele>182.60000610352</ele>
        <time>2021-09-04T15:43:22Z</time>
      </trkpt>
      <trkpt lat="44.28424" lon="5.01747">
        <ele>182</ele>
        <time>2021-09-04T15:43:24Z</time>
      </trkpt>
      <trkpt lat="44.28431" lon="5.01747">
        <ele>181.80000305176</ele>
        <time>2021-09-04T15:43:25Z</time>
      </trkpt>
      <trkpt lat="44.28438" lon="5.01745">
        <ele>181.39999389648</ele>
        <time>2021-09-04T15:43:26Z</time>
      </trkpt>
      <trkpt lat="44.28449" lon="5.01736">
        <ele>180.80000305176</ele>
        <time>2021-09-04T15:43:28Z</time>
      </trkpt>
      <trkpt lat="44.28454" lon="5.01726">
        <ele>180.39999389648</ele>
        <time>2021-09-04T15:43:29Z</time>
      </trkpt>
      <trkpt lat="44.28458" lon="5.01704">
        <ele>179.60000610352</ele>
        <time>2021-09-04T15:43:31Z</time>
      </trkpt>
      <trkpt lat="44.28459" lon="5.01694">
        <ele>179.19999694824</ele>
        <time>2021-09-04T15:43:32Z</time>
      </trkpt>
      <trkpt lat="44.28457" lon="5.01672">
        <ele>178.19999694824</ele>
        <time>2021-09-04T15:43:34Z</time>
      </trkpt>
      <trkpt lat="44.28452" lon="5.01659">
        <ele>177.60000610352</ele>
        <time>2021-09-04T15:43:35Z</time>
      </trkpt>
      <trkpt lat="44.28441" lon="5.01643">
        <ele>177.19999694824</ele>
        <time>2021-09-04T15:43:36Z</time>
      </trkpt>
      <trkpt lat="44.28434" lon="5.01627">
        <ele>176.80000305176</ele>
        <time>2021-09-04T15:43:37Z</time>
      </trkpt>
      <trkpt lat="44.2843" lon="5.01614">
        <ele>176.39999389648</ele>
        <time>2021-09-04T15:43:38Z</time>
      </trkpt>
      <trkpt lat="44.28424" lon="5.01588">
        <ele>175.39999389648</ele>
        <time>2021-09-04T15:43:40Z</time>
      </trkpt>
      <trkpt lat="44.28422" lon="5.01575">
        <ele>175</ele>
        <time>2021-09-04T15:43:41Z</time>
      </trkpt>
      <trkpt lat="44.28422" lon="5.01562">
        <ele>174.80000305176</ele>
        <time>2021-09-04T15:43:42Z</time>
      </trkpt>
      <trkpt lat="44.28421" lon="5.01541">
        <ele>174.19999694824</ele>
        <time>2021-09-04T15:43:44Z</time>
      </trkpt>
      <trkpt lat="44.2842" lon="5.01524">
        <ele>173.39999389648</ele>
        <time>2021-09-04T15:43:46Z</time>
      </trkpt>
      <trkpt lat="44.2842" lon="5.01517">
        <ele>173</ele>
        <time>2021-09-04T15:43:47Z</time>
      </trkpt>
      <trkpt lat="44.28419" lon="5.01509">
        <ele>172.39999389648</ele>
        <time>2021-09-04T15:43:48Z</time>
      </trkpt>
      <trkpt lat="44.28418" lon="5.01502">
        <ele>172</ele>
        <time>2021-09-04T15:43:49Z</time>
      </trkpt>
      <trkpt lat="44.28413" lon="5.01486">
        <ele>171.19999694824</ele>
        <time>2021-09-04T15:43:51Z</time>
      </trkpt>
      <trkpt lat="44.28411" lon="5.01478">
        <ele>170.80000305176</ele>
        <time>2021-09-04T15:43:52Z</time>
      </trkpt>
      <trkpt lat="44.28406" lon="5.01442">
        <ele>170.19999694824</ele>
        <time>2021-09-04T15:43:56Z</time>
      </trkpt>
      <trkpt lat="44.28407" lon="5.01433">
        <ele>170</ele>
        <time>2021-09-04T15:43:57Z</time>
      </trkpt>
      <trkpt lat="44.28414" lon="5.01381">
        <ele>170.19999694824</ele>
        <time>2021-09-04T15:44:03Z</time>
      </trkpt>
      <trkpt lat="44.28414" lon="5.01372">
        <ele>170.19999694824</ele>
        <time>2021-09-04T15:44:04Z</time>
      </trkpt>
      <trkpt lat="44.28408" lon="5.0134">
        <ele>170.19999694824</ele>
        <time>2021-09-04T15:44:08Z</time>
      </trkpt>
      <trkpt lat="44.28396" lon="5.01288">
        <ele>170.80000305176</ele>
        <time>2021-09-04T15:44:15Z</time>
      </trkpt>
      <trkpt lat="44.28394" lon="5.01273">
        <ele>170.80000305176</ele>
        <time>2021-09-04T15:44:17Z</time>
      </trkpt>
      <trkpt lat="44.28396" lon="5.01242">
        <ele>170.80000305176</ele>
        <time>2021-09-04T15:44:21Z</time>
      </trkpt>
      <trkpt lat="44.28406" lon="5.0119">
        <ele>170.80000305176</ele>
        <time>2021-09-04T15:44:29Z</time>
      </trkpt>
      <trkpt lat="44.28411" lon="5.01136">
        <ele>170.80000305176</ele>
        <time>2021-09-04T15:44:36Z</time>
      </trkpt>
      <trkpt lat="44.28411" lon="5.01128">
        <ele>170.80000305176</ele>
        <time>2021-09-04T15:44:37Z</time>
      </trkpt>
      <trkpt lat="44.28404" lon="5.01097">
        <ele>171</ele>
        <time>2021-09-04T15:44:41Z</time>
      </trkpt>
      <trkpt lat="44.28399" lon="5.01083">
        <ele>171</ele>
        <time>2021-09-04T15:44:43Z</time>
      </trkpt>
      <trkpt lat="44.28389" lon="5.0106">
        <ele>171</ele>
        <time>2021-09-04T15:44:46Z</time>
      </trkpt>
      <trkpt lat="44.28382" lon="5.01017">
        <ele>170.80000305176</ele>
        <time>2021-09-04T15:44:51Z</time>
      </trkpt>
      <trkpt lat="44.28379" lon="5.00959">
        <ele>171</ele>
        <time>2021-09-04T15:44:58Z</time>
      </trkpt>
      <trkpt lat="44.28374" lon="5.00895">
        <ele>171</ele>
        <time>2021-09-04T15:45:06Z</time>
      </trkpt>
      <trkpt lat="44.2837" lon="5.0084">
        <ele>171</ele>
        <time>2021-09-04T15:45:13Z</time>
      </trkpt>
      <trkpt lat="44.28369" lon="5.00832">
        <ele>171</ele>
        <time>2021-09-04T15:45:14Z</time>
      </trkpt>
      <trkpt lat="44.28369" lon="5.00783">
        <ele>171.19999694824</ele>
        <time>2021-09-04T15:45:20Z</time>
      </trkpt>
      <trkpt lat="44.2837" lon="5.00766">
        <ele>171.39999389648</ele>
        <time>2021-09-04T15:45:22Z</time>
      </trkpt>
      <trkpt lat="44.28369" lon="5.00704">
        <ele>171.39999389648</ele>
        <time>2021-09-04T15:45:29Z</time>
      </trkpt>
      <trkpt lat="44.28366" lon="5.00633">
        <ele>171.39999389648</ele>
        <time>2021-09-04T15:45:37Z</time>
      </trkpt>
      <trkpt lat="44.28357" lon="5.00579">
        <ele>171.60000610352</ele>
        <time>2021-09-04T15:45:43Z</time>
      </trkpt>
      <trkpt lat="44.28346" lon="5.00524">
        <ele>171.19999694824</ele>
        <time>2021-09-04T15:45:49Z</time>
      </trkpt>
      <trkpt lat="44.28338" lon="5.00468">
        <ele>171.19999694824</ele>
        <time>2021-09-04T15:45:55Z</time>
      </trkpt>
      <trkpt lat="44.28332" lon="5.00409">
        <ele>171.19999694824</ele>
        <time>2021-09-04T15:46:01Z</time>
      </trkpt>
      <trkpt lat="44.28328" lon="5.0037">
        <ele>171.19999694824</ele>
        <time>2021-09-04T15:46:05Z</time>
      </trkpt>
      <trkpt lat="44.28325" lon="5.00361">
        <ele>171.19999694824</ele>
        <time>2021-09-04T15:46:06Z</time>
      </trkpt>
      <trkpt lat="44.28306" lon="5.00297">
        <ele>171.39999389648</ele>
        <time>2021-09-04T15:46:13Z</time>
      </trkpt>
      <trkpt lat="44.28295" lon="5.00257">
        <ele>171.19999694824</ele>
        <time>2021-09-04T15:46:17Z</time>
      </trkpt>
      <trkpt lat="44.28292" lon="5.00247">
        <ele>171.19999694824</ele>
        <time>2021-09-04T15:46:18Z</time>
      </trkpt>
      <trkpt lat="44.2828" lon="5.00185">
        <ele>171.19999694824</ele>
        <time>2021-09-04T15:46:24Z</time>
      </trkpt>
      <trkpt lat="44.28264" lon="5.00128">
        <ele>170.60000610352</ele>
        <time>2021-09-04T15:46:30Z</time>
      </trkpt>
      <trkpt lat="44.28253" lon="5.00067">
        <ele>169.80000305176</ele>
        <time>2021-09-04T15:46:36Z</time>
      </trkpt>
      <trkpt lat="44.2825" lon="5.00047">
        <ele>169.80000305176</ele>
        <time>2021-09-04T15:46:38Z</time>
      </trkpt>
      <trkpt lat="44.28244" lon="4.99998">
        <ele>169.39999389648</ele>
        <time>2021-09-04T15:46:43Z</time>
      </trkpt>
      <trkpt lat="44.28235" lon="4.99932">
        <ele>168.80000305176</ele>
        <time>2021-09-04T15:46:50Z</time>
      </trkpt>
      <trkpt lat="44.28233" lon="4.99913">
        <ele>168.80000305176</ele>
        <time>2021-09-04T15:46:52Z</time>
      </trkpt>
      <trkpt lat="44.28225" lon="4.99857">
        <ele>168.19999694824</ele>
        <time>2021-09-04T15:46:58Z</time>
      </trkpt>
      <trkpt lat="44.2822" lon="4.99819">
        <ele>167.60000610352</ele>
        <time>2021-09-04T15:47:02Z</time>
      </trkpt>
      <trkpt lat="44.28215" lon="4.99759">
        <ele>167.60000610352</ele>
        <time>2021-09-04T15:47:08Z</time>
      </trkpt>
      <trkpt lat="44.28211" lon="4.99681">
        <ele>166.80000305176</ele>
        <time>2021-09-04T15:47:15Z</time>
      </trkpt>
      <trkpt lat="44.28209" lon="4.9967">
        <ele>166.60000610352</ele>
        <time>2021-09-04T15:47:16Z</time>
      </trkpt>
      <trkpt lat="44.28203" lon="4.99637">
        <ele>165.39999389648</ele>
        <time>2021-09-04T15:47:19Z</time>
      </trkpt>
      <trkpt lat="44.282" lon="4.99627">
        <ele>165</ele>
        <time>2021-09-04T15:47:20Z</time>
      </trkpt>
      <trkpt lat="44.28192" lon="4.99594">
        <ele>164.19999694824</ele>
        <time>2021-09-04T15:47:23Z</time>
      </trkpt>
      <trkpt lat="44.28183" lon="4.99542">
        <ele>163.19999694824</ele>
        <time>2021-09-04T15:47:28Z</time>
      </trkpt>
      <trkpt lat="44.28181" lon="4.99532">
        <ele>163.19999694824</ele>
        <time>2021-09-04T15:47:29Z</time>
      </trkpt>
      <trkpt lat="44.28172" lon="4.99485">
        <ele>163.19999694824</ele>
        <time>2021-09-04T15:47:34Z</time>
      </trkpt>
      <trkpt lat="44.28159" lon="4.9943">
        <ele>164</ele>
        <time>2021-09-04T15:47:40Z</time>
      </trkpt>
      <trkpt lat="44.28139" lon="4.99364">
        <ele>163.60000610352</ele>
        <time>2021-09-04T15:47:47Z</time>
      </trkpt>
      <trkpt lat="44.28114" lon="4.99302">
        <ele>162.60000610352</ele>
        <time>2021-09-04T15:47:54Z</time>
      </trkpt>
      <trkpt lat="44.28102" lon="4.99267">
        <ele>162</ele>
        <time>2021-09-04T15:47:58Z</time>
      </trkpt>
      <trkpt lat="44.281" lon="4.99259">
        <ele>162</ele>
        <time>2021-09-04T15:47:59Z</time>
      </trkpt>
      <trkpt lat="44.28097" lon="4.9924">
        <ele>161.80000305176</ele>
        <time>2021-09-04T15:48:01Z</time>
      </trkpt>
      <trkpt lat="44.28096" lon="4.99221">
        <ele>161.60000610352</ele>
        <time>2021-09-04T15:48:03Z</time>
      </trkpt>
      <trkpt lat="44.28098" lon="4.99192">
        <ele>161.60000610352</ele>
        <time>2021-09-04T15:48:06Z</time>
      </trkpt>
      <trkpt lat="44.28113" lon="4.99157">
        <ele>161.60000610352</ele>
        <time>2021-09-04T15:48:10Z</time>
      </trkpt>
      <trkpt lat="44.28135" lon="4.9914">
        <ele>161.39999389648</ele>
        <time>2021-09-04T15:48:13Z</time>
      </trkpt>
      <trkpt lat="44.28151" lon="4.99134">
        <ele>161</ele>
        <time>2021-09-04T15:48:15Z</time>
      </trkpt>
      <trkpt lat="44.28159" lon="4.99131">
        <ele>160.80000305176</ele>
        <time>2021-09-04T15:48:16Z</time>
      </trkpt>
      <trkpt lat="44.28168" lon="4.99127">
        <ele>160.39999389648</ele>
        <time>2021-09-04T15:48:17Z</time>
      </trkpt>
      <trkpt lat="44.28176" lon="4.99124">
        <ele>160</ele>
        <time>2021-09-04T15:48:18Z</time>
      </trkpt>
      <trkpt lat="44.28201" lon="4.99115">
        <ele>158.39999389648</ele>
        <time>2021-09-04T15:48:21Z</time>
      </trkpt>
      <trkpt lat="44.28227" lon="4.99105">
        <ele>157.39999389648</ele>
        <time>2021-09-04T15:48:24Z</time>
      </trkpt>
      <trkpt lat="44.28235" lon="4.99102">
        <ele>157.19999694824</ele>
        <time>2021-09-04T15:48:25Z</time>
      </trkpt>
      <trkpt lat="44.28252" lon="4.99096">
        <ele>156.39999389648</ele>
        <time>2021-09-04T15:48:27Z</time>
      </trkpt>
      <trkpt lat="44.28278" lon="4.99087">
        <ele>155.19999694824</ele>
        <time>2021-09-04T15:48:30Z</time>
      </trkpt>
      <trkpt lat="44.28303" lon="4.99078">
        <ele>154.19999694824</ele>
        <time>2021-09-04T15:48:33Z</time>
      </trkpt>
      <trkpt lat="44.28319" lon="4.99072">
        <ele>153.60000610352</ele>
        <time>2021-09-04T15:48:35Z</time>
      </trkpt>
      <trkpt lat="44.28341" lon="4.99064">
        <ele>153</ele>
        <time>2021-09-04T15:48:38Z</time>
      </trkpt>
      <trkpt lat="44.28376" lon="4.99051">
        <ele>152.80000305176</ele>
        <time>2021-09-04T15:48:43Z</time>
      </trkpt>
      <trkpt lat="44.28423" lon="4.99035">
        <ele>152.60000610352</ele>
        <time>2021-09-04T15:48:51Z</time>
      </trkpt>
      <trkpt lat="44.28471" lon="4.99017">
        <ele>153.19999694824</ele>
        <time>2021-09-04T15:49:00Z</time>
      </trkpt>
      <trkpt lat="44.28511" lon="4.99001">
        <ele>153.60000610352</ele>
        <time>2021-09-04T15:49:08Z</time>
      </trkpt>
      <trkpt lat="44.28539" lon="4.9899">
        <ele>154.19999694824</ele>
        <time>2021-09-04T15:49:14Z</time>
      </trkpt>
      <trkpt lat="44.28552" lon="4.98985">
        <ele>154.60000610352</ele>
        <time>2021-09-04T15:49:17Z</time>
      </trkpt>
      <trkpt lat="44.28584" lon="4.98973">
        <ele>155</ele>
        <time>2021-09-04T15:49:24Z</time>
      </trkpt>
      <trkpt lat="44.28625" lon="4.98958">
        <ele>155.19999694824</ele>
        <time>2021-09-04T15:49:32Z</time>
      </trkpt>
      <trkpt lat="44.28672" lon="4.98943">
        <ele>155</ele>
        <time>2021-09-04T15:49:41Z</time>
      </trkpt>
      <trkpt lat="44.28713" lon="4.98928">
        <ele>154.39999389648</ele>
        <time>2021-09-04T15:49:48Z</time>
      </trkpt>
      <trkpt lat="44.28751" lon="4.98913">
        <ele>154</ele>
        <time>2021-09-04T15:49:54Z</time>
      </trkpt>
      <trkpt lat="44.28797" lon="4.98897">
        <ele>153.19999694824</ele>
        <time>2021-09-04T15:50:01Z</time>
      </trkpt>
      <trkpt lat="44.28803" lon="4.98895">
        <ele>153</ele>
        <time>2021-09-04T15:50:02Z</time>
      </trkpt>
      <trkpt lat="44.28835" lon="4.98882">
        <ele>152.60000610352</ele>
        <time>2021-09-04T15:50:07Z</time>
      </trkpt>
      <trkpt lat="44.28887" lon="4.98863">
        <ele>152.60000610352</ele>
        <time>2021-09-04T15:50:16Z</time>
      </trkpt>
      <trkpt lat="44.28892" lon="4.98861">
        <ele>152.60000610352</ele>
        <time>2021-09-04T15:50:17Z</time>
      </trkpt>
      <trkpt lat="44.28929" lon="4.98848">
        <ele>153.39999389648</ele>
        <time>2021-09-04T15:50:25Z</time>
      </trkpt>
      <trkpt lat="44.2895" lon="4.98841">
        <ele>154.19999694824</ele>
        <time>2021-09-04T15:50:30Z</time>
      </trkpt>
      <trkpt lat="44.28954" lon="4.98839">
        <ele>154.39999389648</ele>
        <time>2021-09-04T15:50:31Z</time>
      </trkpt>
      <trkpt lat="44.28977" lon="4.98831">
        <ele>155.39999389648</ele>
        <time>2021-09-04T15:50:37Z</time>
      </trkpt>
      <trkpt lat="44.28991" lon="4.98825">
        <ele>155.80000305176</ele>
        <time>2021-09-04T15:50:41Z</time>
      </trkpt>
      <trkpt lat="44.2902" lon="4.98814">
        <ele>156.39999389648</ele>
        <time>2021-09-04T15:50:49Z</time>
      </trkpt>
      <trkpt lat="44.29024" lon="4.98813">
        <ele>156.60000610352</ele>
        <time>2021-09-04T15:50:50Z</time>
      </trkpt>
      <trkpt lat="44.29045" lon="4.98806">
        <ele>157.60000610352</ele>
        <time>2021-09-04T15:50:56Z</time>
      </trkpt>
      <trkpt lat="44.2906" lon="4.98801">
        <ele>158.19999694824</ele>
        <time>2021-09-04T15:51:01Z</time>
      </trkpt>
      <trkpt lat="44.2907" lon="4.98799">
        <ele>158.60000610352</ele>
        <time>2021-09-04T15:51:04Z</time>
      </trkpt>
      <trkpt lat="44.29088" lon="4.98799">
        <ele>159.39999389648</ele>
        <time>2021-09-04T15:51:09Z</time>
      </trkpt>
      <trkpt lat="44.29098" lon="4.98799">
        <ele>159.80000305176</ele>
        <time>2021-09-04T15:51:12Z</time>
      </trkpt>
      <trkpt lat="44.29118" lon="4.988">
        <ele>161.19999694824</ele>
        <time>2021-09-04T15:51:18Z</time>
      </trkpt>
      <trkpt lat="44.29121" lon="4.988">
        <ele>161.39999389648</ele>
        <time>2021-09-04T15:51:19Z</time>
      </trkpt>
      <trkpt lat="44.29136" lon="4.98811">
        <ele>162</ele>
        <time>2021-09-04T15:51:24Z</time>
      </trkpt>
      <trkpt lat="44.29151" lon="4.98813">
        <ele>162.19999694824</ele>
        <time>2021-09-04T15:51:28Z</time>
      </trkpt>
      <trkpt lat="44.29154" lon="4.98811">
        <ele>162.19999694824</ele>
        <time>2021-09-04T15:51:29Z</time>
      </trkpt>
      <trkpt lat="44.29161" lon="4.98804">
        <ele>162.19999694824</ele>
        <time>2021-09-04T15:51:31Z</time>
      </trkpt>
      <trkpt lat="44.29165" lon="4.98794">
        <ele>162.19999694824</ele>
        <time>2021-09-04T15:51:33Z</time>
      </trkpt>
      <trkpt lat="44.29165" lon="4.98774">
        <ele>162.39999389648</ele>
        <time>2021-09-04T15:51:36Z</time>
      </trkpt>
      <trkpt lat="44.29155" lon="4.98758">
        <ele>162.39999389648</ele>
        <time>2021-09-04T15:51:39Z</time>
      </trkpt>
      <trkpt lat="44.29146" lon="4.98741">
        <ele>162.39999389648</ele>
        <time>2021-09-04T15:51:42Z</time>
      </trkpt>
      <trkpt lat="44.29143" lon="4.98725">
        <ele>162.60000610352</ele>
        <time>2021-09-04T15:51:44Z</time>
      </trkpt>
      <trkpt lat="44.29138" lon="4.98663">
        <ele>162.39999389648</ele>
        <time>2021-09-04T15:51:51Z</time>
      </trkpt>
      <trkpt lat="44.29142" lon="4.98592">
        <ele>161.39999389648</ele>
        <time>2021-09-04T15:51:58Z</time>
      </trkpt>
      <trkpt lat="44.29143" lon="4.98571">
        <ele>161.19999694824</ele>
        <time>2021-09-04T15:52:00Z</time>
      </trkpt>
      <trkpt lat="44.29143" lon="4.98507">
        <ele>160.19999694824</ele>
        <time>2021-09-04T15:52:06Z</time>
      </trkpt>
      <trkpt lat="44.29141" lon="4.98487">
        <ele>160</ele>
        <time>2021-09-04T15:52:08Z</time>
      </trkpt>
      <trkpt lat="44.29133" lon="4.98436">
        <ele>159.60000610352</ele>
        <time>2021-09-04T15:52:13Z</time>
      </trkpt>
      <trkpt lat="44.29131" lon="4.98426">
        <ele>159.60000610352</ele>
        <time>2021-09-04T15:52:14Z</time>
      </trkpt>
      <trkpt lat="44.29116" lon="4.98349">
        <ele>159.60000610352</ele>
        <time>2021-09-04T15:52:22Z</time>
      </trkpt>
      <trkpt lat="44.29102" lon="4.98276">
        <ele>159.19999694824</ele>
        <time>2021-09-04T15:52:30Z</time>
      </trkpt>
      <trkpt lat="44.29097" lon="4.98248">
        <ele>159</ele>
        <time>2021-09-04T15:52:33Z</time>
      </trkpt>
      <trkpt lat="44.29083" lon="4.98174">
        <ele>159</ele>
        <time>2021-09-04T15:52:41Z</time>
      </trkpt>
      <trkpt lat="44.29069" lon="4.98101">
        <ele>159</ele>
        <time>2021-09-04T15:52:49Z</time>
      </trkpt>
      <trkpt lat="44.29065" lon="4.98083">
        <ele>159</ele>
        <time>2021-09-04T15:52:51Z</time>
      </trkpt>
      <trkpt lat="44.2905" lon="4.98002">
        <ele>159.19999694824</ele>
        <time>2021-09-04T15:53:00Z</time>
      </trkpt>
      <trkpt lat="44.29038" lon="4.97939">
        <ele>159.19999694824</ele>
        <time>2021-09-04T15:53:07Z</time>
      </trkpt>
      <trkpt lat="44.29025" lon="4.97874">
        <ele>159</ele>
        <time>2021-09-04T15:53:14Z</time>
      </trkpt>
      <trkpt lat="44.29011" lon="4.97797">
        <ele>158.60000610352</ele>
        <time>2021-09-04T15:53:22Z</time>
      </trkpt>
      <trkpt lat="44.29009" lon="4.97787">
        <ele>158.39999389648</ele>
        <time>2021-09-04T15:53:23Z</time>
      </trkpt>
      <trkpt lat="44.28993" lon="4.97711">
        <ele>158.19999694824</ele>
        <time>2021-09-04T15:53:31Z</time>
      </trkpt>
      <trkpt lat="44.28991" lon="4.97702">
        <ele>158.19999694824</ele>
        <time>2021-09-04T15:53:32Z</time>
      </trkpt>
      <trkpt lat="44.28978" lon="4.97626">
        <ele>158</ele>
        <time>2021-09-04T15:53:40Z</time>
      </trkpt>
      <trkpt lat="44.28974" lon="4.97607">
        <ele>158</ele>
        <time>2021-09-04T15:53:42Z</time>
      </trkpt>
      <trkpt lat="44.28966" lon="4.97543">
        <ele>158.19999694824</ele>
        <time>2021-09-04T15:53:49Z</time>
      </trkpt>
      <trkpt lat="44.28967" lon="4.97492">
        <ele>158.39999389648</ele>
        <time>2021-09-04T15:53:55Z</time>
      </trkpt>
      <trkpt lat="44.28967" lon="4.97483">
        <ele>158.60000610352</ele>
        <time>2021-09-04T15:53:56Z</time>
      </trkpt>
      <trkpt lat="44.28974" lon="4.97425">
        <ele>160</ele>
        <time>2021-09-04T15:54:04Z</time>
      </trkpt>
      <trkpt lat="44.28976" lon="4.97418">
        <ele>160.19999694824</ele>
        <time>2021-09-04T15:54:05Z</time>
      </trkpt>
      <trkpt lat="44.28982" lon="4.97377">
        <ele>161.19999694824</ele>
        <time>2021-09-04T15:54:11Z</time>
      </trkpt>
      <trkpt lat="44.2899" lon="4.97321">
        <ele>162.19999694824</ele>
        <time>2021-09-04T15:54:19Z</time>
      </trkpt>
      <trkpt lat="44.28991" lon="4.97314">
        <ele>162.19999694824</ele>
        <time>2021-09-04T15:54:20Z</time>
      </trkpt>
      <trkpt lat="44.29001" lon="4.97245">
        <ele>162.80000305176</ele>
        <time>2021-09-04T15:54:29Z</time>
      </trkpt>
      <trkpt lat="44.29013" lon="4.97185">
        <ele>163.19999694824</ele>
        <time>2021-09-04T15:54:37Z</time>
      </trkpt>
      <trkpt lat="44.29025" lon="4.97146">
        <ele>163.19999694824</ele>
        <time>2021-09-04T15:54:42Z</time>
      </trkpt>
      <trkpt lat="44.29033" lon="4.97123">
        <ele>163.39999389648</ele>
        <time>2021-09-04T15:54:45Z</time>
      </trkpt>
      <trkpt lat="44.29058" lon="4.97051">
        <ele>163.39999389648</ele>
        <time>2021-09-04T15:54:54Z</time>
      </trkpt>
      <trkpt lat="44.2906" lon="4.97043">
        <ele>163.39999389648</ele>
        <time>2021-09-04T15:54:55Z</time>
      </trkpt>
      <trkpt lat="44.29071" lon="4.96991">
        <ele>163.39999389648</ele>
        <time>2021-09-04T15:55:01Z</time>
      </trkpt>
      <trkpt lat="44.29074" lon="4.96916">
        <ele>163.39999389648</ele>
        <time>2021-09-04T15:55:09Z</time>
      </trkpt>
      <trkpt lat="44.29077" lon="4.96835">
        <ele>163.19999694824</ele>
        <time>2021-09-04T15:55:17Z</time>
      </trkpt>
      <trkpt lat="44.2908" lon="4.96758">
        <ele>163.19999694824</ele>
        <time>2021-09-04T15:55:24Z</time>
      </trkpt>
      <trkpt lat="44.29081" lon="4.96737">
        <ele>163.19999694824</ele>
        <time>2021-09-04T15:55:26Z</time>
      </trkpt>
      <trkpt lat="44.29084" lon="4.96654">
        <ele>163</ele>
        <time>2021-09-04T15:55:34Z</time>
      </trkpt>
      <trkpt lat="44.29084" lon="4.96643">
        <ele>163</ele>
        <time>2021-09-04T15:55:35Z</time>
      </trkpt>
      <trkpt lat="44.29084" lon="4.96573">
        <ele>163.19999694824</ele>
        <time>2021-09-04T15:55:42Z</time>
      </trkpt>
      <trkpt lat="44.29074" lon="4.96496">
        <ele>163.19999694824</ele>
        <time>2021-09-04T15:55:50Z</time>
      </trkpt>
      <trkpt lat="44.29054" lon="4.96419">
        <ele>162.39999389648</ele>
        <time>2021-09-04T15:55:58Z</time>
      </trkpt>
      <trkpt lat="44.29046" lon="4.96389">
        <ele>162.19999694824</ele>
        <time>2021-09-04T15:56:01Z</time>
      </trkpt>
      <trkpt lat="44.2903" lon="4.96328">
        <ele>161.19999694824</ele>
        <time>2021-09-04T15:56:07Z</time>
      </trkpt>
      <trkpt lat="44.29022" lon="4.96297">
        <ele>161</ele>
        <time>2021-09-04T15:56:10Z</time>
      </trkpt>
      <trkpt lat="44.29008" lon="4.96245">
        <ele>160.60000610352</ele>
        <time>2021-09-04T15:56:15Z</time>
      </trkpt>
      <trkpt lat="44.28989" lon="4.96172">
        <ele>160.39999389648</ele>
        <time>2021-09-04T15:56:22Z</time>
      </trkpt>
      <trkpt lat="44.28983" lon="4.9615">
        <ele>160.19999694824</ele>
        <time>2021-09-04T15:56:24Z</time>
      </trkpt>
      <trkpt lat="44.28971" lon="4.96075">
        <ele>160.19999694824</ele>
        <time>2021-09-04T15:56:31Z</time>
      </trkpt>
      <trkpt lat="44.28968" lon="4.96052">
        <ele>160</ele>
        <time>2021-09-04T15:56:33Z</time>
      </trkpt>
      <trkpt lat="44.28964" lon="4.95993">
        <ele>159.60000610352</ele>
        <time>2021-09-04T15:56:38Z</time>
      </trkpt>
      <trkpt lat="44.28956" lon="4.95921">
        <ele>159</ele>
        <time>2021-09-04T15:56:44Z</time>
      </trkpt>
      <trkpt lat="44.28955" lon="4.95909">
        <ele>158.80000305176</ele>
        <time>2021-09-04T15:56:45Z</time>
      </trkpt>
      <trkpt lat="44.28946" lon="4.95823">
        <ele>158.39999389648</ele>
        <time>2021-09-04T15:56:52Z</time>
      </trkpt>
      <trkpt lat="44.28943" lon="4.95798">
        <ele>158</ele>
        <time>2021-09-04T15:56:54Z</time>
      </trkpt>
      <trkpt lat="44.28939" lon="4.95775">
        <ele>157.80000305176</ele>
        <time>2021-09-04T15:56:56Z</time>
      </trkpt>
      <trkpt lat="44.28927" lon="4.95703">
        <ele>157.19999694824</ele>
        <time>2021-09-04T15:57:02Z</time>
      </trkpt>
      <trkpt lat="44.28916" lon="4.95643">
        <ele>156.80000305176</ele>
        <time>2021-09-04T15:57:07Z</time>
      </trkpt>
      <trkpt lat="44.28911" lon="4.95608">
        <ele>156.39999389648</ele>
        <time>2021-09-04T15:57:10Z</time>
      </trkpt>
      <trkpt lat="44.28903" lon="4.95561">
        <ele>155.80000305176</ele>
        <time>2021-09-04T15:57:14Z</time>
      </trkpt>
      <trkpt lat="44.28893" lon="4.95517">
        <ele>155.39999389648</ele>
        <time>2021-09-04T15:57:18Z</time>
      </trkpt>
      <trkpt lat="44.28876" lon="4.95467">
        <ele>155.60000610352</ele>
        <time>2021-09-04T15:57:23Z</time>
      </trkpt>
      <trkpt lat="44.28849" lon="4.95392">
        <ele>155.39999389648</ele>
        <time>2021-09-04T15:57:31Z</time>
      </trkpt>
      <trkpt lat="44.28845" lon="4.95383">
        <ele>155.39999389648</ele>
        <time>2021-09-04T15:57:32Z</time>
      </trkpt>
      <trkpt lat="44.28821" lon="4.95308">
        <ele>155.19999694824</ele>
        <time>2021-09-04T15:57:40Z</time>
      </trkpt>
      <trkpt lat="44.28802" lon="4.95232">
        <ele>154.80000305176</ele>
        <time>2021-09-04T15:57:48Z</time>
      </trkpt>
      <trkpt lat="44.28799" lon="4.95223">
        <ele>154.60000610352</ele>
        <time>2021-09-04T15:57:49Z</time>
      </trkpt>
      <trkpt lat="44.28786" lon="4.95164">
        <ele>154.19999694824</ele>
        <time>2021-09-04T15:57:55Z</time>
      </trkpt>
      <trkpt lat="44.28778" lon="4.9509">
        <ele>153.80000305176</ele>
        <time>2021-09-04T15:58:02Z</time>
      </trkpt>
      <trkpt lat="44.28777" lon="4.95069">
        <ele>153.60000610352</ele>
        <time>2021-09-04T15:58:04Z</time>
      </trkpt>
      <trkpt lat="44.28776" lon="4.95004">
        <ele>153.39999389648</ele>
        <time>2021-09-04T15:58:10Z</time>
      </trkpt>
      <trkpt lat="44.28773" lon="4.94927">
        <ele>153</ele>
        <time>2021-09-04T15:58:17Z</time>
      </trkpt>
      <trkpt lat="44.28772" lon="4.94894">
        <ele>152.60000610352</ele>
        <time>2021-09-04T15:58:20Z</time>
      </trkpt>
      <trkpt lat="44.2877" lon="4.94883">
        <ele>152.60000610352</ele>
        <time>2021-09-04T15:58:21Z</time>
      </trkpt>
      <trkpt lat="44.28763" lon="4.94815">
        <ele>152.19999694824</ele>
        <time>2021-09-04T15:58:27Z</time>
      </trkpt>
      <trkpt lat="44.28758" lon="4.94734">
        <ele>151.60000610352</ele>
        <time>2021-09-04T15:58:34Z</time>
      </trkpt>
      <trkpt lat="44.28758" lon="4.94722">
        <ele>151.60000610352</ele>
        <time>2021-09-04T15:58:35Z</time>
      </trkpt>
      <trkpt lat="44.2876" lon="4.94644">
        <ele>151.60000610352</ele>
        <time>2021-09-04T15:58:42Z</time>
      </trkpt>
      <trkpt lat="44.2876" lon="4.94634">
        <ele>151.39999389648</ele>
        <time>2021-09-04T15:58:43Z</time>
      </trkpt>
      <trkpt lat="44.28765" lon="4.94552">
        <ele>151.19999694824</ele>
        <time>2021-09-04T15:58:51Z</time>
      </trkpt>
      <trkpt lat="44.28766" lon="4.94474">
        <ele>151.19999694824</ele>
        <time>2021-09-04T15:58:59Z</time>
      </trkpt>
      <trkpt lat="44.28766" lon="4.94464">
        <ele>151.19999694824</ele>
        <time>2021-09-04T15:59:00Z</time>
      </trkpt>
      <trkpt lat="44.28761" lon="4.94381">
        <ele>150.80000305176</ele>
        <time>2021-09-04T15:59:08Z</time>
      </trkpt>
      <trkpt lat="44.2876" lon="4.9437">
        <ele>150.80000305176</ele>
        <time>2021-09-04T15:59:09Z</time>
      </trkpt>
      <trkpt lat="44.28758" lon="4.9434">
        <ele>150.60000610352</ele>
        <time>2021-09-04T15:59:12Z</time>
      </trkpt>
      <trkpt lat="44.28756" lon="4.94302">
        <ele>150.19999694824</ele>
        <time>2021-09-04T15:59:16Z</time>
      </trkpt>
      <trkpt lat="44.28752" lon="4.94242">
        <ele>150</ele>
        <time>2021-09-04T15:59:23Z</time>
      </trkpt>
      <trkpt lat="44.2875" lon="4.94234">
        <ele>150</ele>
        <time>2021-09-04T15:59:24Z</time>
      </trkpt>
      <trkpt lat="44.2875" lon="4.94225">
        <ele>150</ele>
        <time>2021-09-04T15:59:25Z</time>
      </trkpt>
      <trkpt lat="44.28747" lon="4.94188">
        <ele>150.19999694824</ele>
        <time>2021-09-04T15:59:29Z</time>
      </trkpt>
      <trkpt lat="44.28739" lon="4.94122">
        <ele>149.80000305176</ele>
        <time>2021-09-04T15:59:36Z</time>
      </trkpt>
      <trkpt lat="44.28733" lon="4.94072">
        <ele>149.39999389648</ele>
        <time>2021-09-04T15:59:41Z</time>
      </trkpt>
      <trkpt lat="44.28733" lon="4.94063">
        <ele>149.39999389648</ele>
        <time>2021-09-04T15:59:42Z</time>
      </trkpt>
      <trkpt lat="44.2872" lon="4.94003">
        <ele>148.80000305176</ele>
        <time>2021-09-04T15:59:48Z</time>
      </trkpt>
      <trkpt lat="44.28717" lon="4.93993">
        <ele>148.60000610352</ele>
        <time>2021-09-04T15:59:49Z</time>
      </trkpt>
      <trkpt lat="44.28709" lon="4.93973">
        <ele>148.39999389648</ele>
        <time>2021-09-04T15:59:51Z</time>
      </trkpt>
      <trkpt lat="44.28702" lon="4.93954">
        <ele>148.39999389648</ele>
        <time>2021-09-04T15:59:53Z</time>
      </trkpt>
      <trkpt lat="44.28673" lon="4.93882">
        <ele>147.39999389648</ele>
        <time>2021-09-04T16:00:01Z</time>
      </trkpt>
      <trkpt lat="44.28649" lon="4.93824">
        <ele>146.80000305176</ele>
        <time>2021-09-04T16:00:08Z</time>
      </trkpt>
      <trkpt lat="44.28647" lon="4.93816">
        <ele>146.60000610352</ele>
        <time>2021-09-04T16:00:09Z</time>
      </trkpt>
      <trkpt lat="44.28645" lon="4.93788">
        <ele>146.60000610352</ele>
        <time>2021-09-04T16:00:12Z</time>
      </trkpt>
      <trkpt lat="44.28644" lon="4.93779">
        <ele>146.39999389648</ele>
        <time>2021-09-04T16:00:13Z</time>
      </trkpt>
      <trkpt lat="44.28634" lon="4.9372">
        <ele>146</ele>
        <time>2021-09-04T16:00:19Z</time>
      </trkpt>
      <trkpt lat="44.28628" lon="4.93678">
        <ele>145.39999389648</ele>
        <time>2021-09-04T16:00:23Z</time>
      </trkpt>
      <trkpt lat="44.28626" lon="4.93645">
        <ele>145.19999694824</ele>
        <time>2021-09-04T16:00:26Z</time>
      </trkpt>
      <trkpt lat="44.28625" lon="4.93589">
        <ele>144.19999694824</ele>
        <time>2021-09-04T16:00:31Z</time>
      </trkpt>
      <trkpt lat="44.28624" lon="4.93554">
        <ele>144</ele>
        <time>2021-09-04T16:00:34Z</time>
      </trkpt>
      <trkpt lat="44.28623" lon="4.93468">
        <ele>143.19999694824</ele>
        <time>2021-09-04T16:00:41Z</time>
      </trkpt>
      <trkpt lat="44.28623" lon="4.93456">
        <ele>143</ele>
        <time>2021-09-04T16:00:42Z</time>
      </trkpt>
      <trkpt lat="44.28621" lon="4.93394">
        <ele>142</ele>
        <time>2021-09-04T16:00:47Z</time>
      </trkpt>
      <trkpt lat="44.28621" lon="4.93381">
        <ele>141.80000305176</ele>
        <time>2021-09-04T16:00:48Z</time>
      </trkpt>
      <trkpt lat="44.28623" lon="4.93333">
        <ele>140.80000305176</ele>
        <time>2021-09-04T16:00:52Z</time>
      </trkpt>
      <trkpt lat="44.28625" lon="4.93296">
        <ele>140.19999694824</ele>
        <time>2021-09-04T16:00:55Z</time>
      </trkpt>
      <trkpt lat="44.28627" lon="4.93284">
        <ele>139.80000305176</ele>
        <time>2021-09-04T16:00:56Z</time>
      </trkpt>
      <trkpt lat="44.28636" lon="4.93228">
        <ele>138.80000305176</ele>
        <time>2021-09-04T16:01:01Z</time>
      </trkpt>
      <trkpt lat="44.28639" lon="4.93217">
        <ele>138.60000610352</ele>
        <time>2021-09-04T16:01:02Z</time>
      </trkpt>
      <trkpt lat="44.2865" lon="4.93177">
        <ele>137.80000305176</ele>
        <time>2021-09-04T16:01:06Z</time>
      </trkpt>
      <trkpt lat="44.28653" lon="4.93169">
        <ele>137.60000610352</ele>
        <time>2021-09-04T16:01:07Z</time>
      </trkpt>
      <trkpt lat="44.28657" lon="4.93154">
        <ele>136.60000610352</ele>
        <time>2021-09-04T16:01:10Z</time>
      </trkpt>
      <trkpt lat="44.28658" lon="4.93149">
        <ele>135.80000305176</ele>
        <time>2021-09-04T16:01:12Z</time>
      </trkpt>
      <trkpt lat="44.28657" lon="4.93144">
        <ele>135.39999389648</ele>
        <time>2021-09-04T16:01:14Z</time>
      </trkpt>
      <trkpt lat="44.28653" lon="4.93135">
        <ele>135.19999694824</ele>
        <time>2021-09-04T16:01:16Z</time>
      </trkpt>
      <trkpt lat="44.28648" lon="4.93124">
        <ele>135</ele>
        <time>2021-09-04T16:01:18Z</time>
      </trkpt>
      <trkpt lat="44.28637" lon="4.93106">
        <ele>134.39999389648</ele>
        <time>2021-09-04T16:01:21Z</time>
      </trkpt>
      <trkpt lat="44.28627" lon="4.93096">
        <ele>133.80000305176</ele>
        <time>2021-09-04T16:01:23Z</time>
      </trkpt>
      <trkpt lat="44.28619" lon="4.93083">
        <ele>133.39999389648</ele>
        <time>2021-09-04T16:01:25Z</time>
      </trkpt>
      <trkpt lat="44.28617" lon="4.93075">
        <ele>133.19999694824</ele>
        <time>2021-09-04T16:01:26Z</time>
      </trkpt>
      <trkpt lat="44.28615" lon="4.93066">
        <ele>133</ele>
        <time>2021-09-04T16:01:27Z</time>
      </trkpt>
      <trkpt lat="44.28604" lon="4.93049">
        <ele>132.39999389648</ele>
        <time>2021-09-04T16:01:30Z</time>
      </trkpt>
      <trkpt lat="44.28598" lon="4.93046">
        <ele>132.19999694824</ele>
        <time>2021-09-04T16:01:31Z</time>
      </trkpt>
      <trkpt lat="44.28595" lon="4.93036">
        <ele>131.80000305176</ele>
        <time>2021-09-04T16:01:33Z</time>
      </trkpt>
      <trkpt lat="44.28594" lon="4.93032">
        <ele>131.39999389648</ele>
        <time>2021-09-04T16:01:34Z</time>
      </trkpt>
      <trkpt lat="44.28593" lon="4.93023">
        <ele>131.19999694824</ele>
        <time>2021-09-04T16:01:36Z</time>
      </trkpt>
      <trkpt lat="44.2859" lon="4.93015">
        <ele>131</ele>
        <time>2021-09-04T16:01:38Z</time>
      </trkpt>
      <trkpt lat="44.28589" lon="4.93003">
        <ele>130.80000305176</ele>
        <time>2021-09-04T16:01:40Z</time>
      </trkpt>
      <trkpt lat="44.2859" lon="4.9299">
        <ele>130.60000610352</ele>
        <time>2021-09-04T16:01:42Z</time>
      </trkpt>
      <trkpt lat="44.28591" lon="4.92954">
        <ele>130.39999389648</ele>
        <time>2021-09-04T16:01:47Z</time>
      </trkpt>
      <trkpt lat="44.2859" lon="4.92948">
        <ele>130.39999389648</ele>
        <time>2021-09-04T16:01:48Z</time>
      </trkpt>
      <trkpt lat="44.28587" lon="4.929">
        <ele>130.39999389648</ele>
        <time>2021-09-04T16:01:54Z</time>
      </trkpt>
      <trkpt lat="44.28589" lon="4.92848">
        <ele>130</ele>
        <time>2021-09-04T16:02:00Z</time>
      </trkpt>
      <trkpt lat="44.2859" lon="4.9284">
        <ele>130</ele>
        <time>2021-09-04T16:02:01Z</time>
      </trkpt>
      <trkpt lat="44.28596" lon="4.92808">
        <ele>129.60000610352</ele>
        <time>2021-09-04T16:02:05Z</time>
      </trkpt>
      <trkpt lat="44.28601" lon="4.92793">
        <ele>129.19999694824</ele>
        <time>2021-09-04T16:02:07Z</time>
      </trkpt>
      <trkpt lat="44.28605" lon="4.92786">
        <ele>129.19999694824</ele>
        <time>2021-09-04T16:02:08Z</time>
      </trkpt>
      <trkpt lat="44.28621" lon="4.92777">
        <ele>129</ele>
        <time>2021-09-04T16:02:11Z</time>
      </trkpt>
      <trkpt lat="44.28628" lon="4.92776">
        <ele>129</ele>
        <time>2021-09-04T16:02:12Z</time>
      </trkpt>
      <trkpt lat="44.28633" lon="4.92773">
        <ele>129</ele>
        <time>2021-09-04T16:02:13Z</time>
      </trkpt>
      <trkpt lat="44.28649" lon="4.92764">
        <ele>129.19999694824</ele>
        <time>2021-09-04T16:02:16Z</time>
      </trkpt>
      <trkpt lat="44.28659" lon="4.92757">
        <ele>129.39999389648</ele>
        <time>2021-09-04T16:02:18Z</time>
      </trkpt>
      <trkpt lat="44.28673" lon="4.92745">
        <ele>129.60000610352</ele>
        <time>2021-09-04T16:02:21Z</time>
      </trkpt>
      <trkpt lat="44.28703" lon="4.92718">
        <ele>129.60000610352</ele>
        <time>2021-09-04T16:02:27Z</time>
      </trkpt>
      <trkpt lat="44.2872" lon="4.92705">
        <ele>129.19999694824</ele>
        <time>2021-09-04T16:02:30Z</time>
      </trkpt>
      <trkpt lat="44.28733" lon="4.92697">
        <ele>128.39999389648</ele>
        <time>2021-09-04T16:02:32Z</time>
      </trkpt>
      <trkpt lat="44.28746" lon="4.9269">
        <ele>128</ele>
        <time>2021-09-04T16:02:34Z</time>
      </trkpt>
      <trkpt lat="44.28774" lon="4.92673">
        <ele>126.80000305176</ele>
        <time>2021-09-04T16:02:38Z</time>
      </trkpt>
      <trkpt lat="44.28795" lon="4.92662">
        <ele>126.19999694824</ele>
        <time>2021-09-04T16:02:41Z</time>
      </trkpt>
      <trkpt lat="44.28809" lon="4.92652">
        <ele>125.59999847412</ele>
        <time>2021-09-04T16:02:43Z</time>
      </trkpt>
      <trkpt lat="44.28832" lon="4.92639">
        <ele>124.40000152588</ele>
        <time>2021-09-04T16:02:46Z</time>
      </trkpt>
      <trkpt lat="44.2884" lon="4.92635">
        <ele>124</ele>
        <time>2021-09-04T16:02:47Z</time>
      </trkpt>
      <trkpt lat="44.28855" lon="4.92627">
        <ele>123.19999694824</ele>
        <time>2021-09-04T16:02:49Z</time>
      </trkpt>
      <trkpt lat="44.28863" lon="4.92621">
        <ele>123</ele>
        <time>2021-09-04T16:02:50Z</time>
      </trkpt>
      <trkpt lat="44.28876" lon="4.92606">
        <ele>122.40000152588</ele>
        <time>2021-09-04T16:02:52Z</time>
      </trkpt>
      <trkpt lat="44.28883" lon="4.92598">
        <ele>122</ele>
        <time>2021-09-04T16:02:53Z</time>
      </trkpt>
      <trkpt lat="44.28893" lon="4.92579">
        <ele>120.59999847412</ele>
        <time>2021-09-04T16:02:55Z</time>
      </trkpt>
      <trkpt lat="44.28898" lon="4.92569">
        <ele>120.19999694824</ele>
        <time>2021-09-04T16:02:56Z</time>
      </trkpt>
      <trkpt lat="44.28908" lon="4.92548">
        <ele>119.59999847412</ele>
        <time>2021-09-04T16:02:58Z</time>
      </trkpt>
      <trkpt lat="44.28924" lon="4.92516">
        <ele>118.59999847412</ele>
        <time>2021-09-04T16:03:01Z</time>
      </trkpt>
      <trkpt lat="44.28938" lon="4.92482">
        <ele>117.59999847412</ele>
        <time>2021-09-04T16:03:04Z</time>
      </trkpt>
      <trkpt lat="44.28942" lon="4.92471">
        <ele>117.19999694824</ele>
        <time>2021-09-04T16:03:05Z</time>
      </trkpt>
      <trkpt lat="44.2896" lon="4.92423">
        <ele>116.19999694824</ele>
        <time>2021-09-04T16:03:09Z</time>
      </trkpt>
      <trkpt lat="44.28975" lon="4.92388">
        <ele>115.19999694824</ele>
        <time>2021-09-04T16:03:12Z</time>
      </trkpt>
      <trkpt lat="44.2898" lon="4.92377">
        <ele>114.80000305176</ele>
        <time>2021-09-04T16:03:13Z</time>
      </trkpt>
      <trkpt lat="44.29003" lon="4.92334">
        <ele>114</ele>
        <time>2021-09-04T16:03:17Z</time>
      </trkpt>
      <trkpt lat="44.29014" lon="4.92312">
        <ele>113.40000152588</ele>
        <time>2021-09-04T16:03:19Z</time>
      </trkpt>
      <trkpt lat="44.29031" lon="4.92282">
        <ele>112.80000305176</ele>
        <time>2021-09-04T16:03:22Z</time>
      </trkpt>
      <trkpt lat="44.29053" lon="4.92239">
        <ele>112</ele>
        <time>2021-09-04T16:03:26Z</time>
      </trkpt>
      <trkpt lat="44.29058" lon="4.92228">
        <ele>111.80000305176</ele>
        <time>2021-09-04T16:03:27Z</time>
      </trkpt>
      <trkpt lat="44.29089" lon="4.92165">
        <ele>110.59999847412</ele>
        <time>2021-09-04T16:03:33Z</time>
      </trkpt>
      <trkpt lat="44.29105" lon="4.92135">
        <ele>110.19999694824</ele>
        <time>2021-09-04T16:03:36Z</time>
      </trkpt>
      <trkpt lat="44.29123" lon="4.92106">
        <ele>109.40000152588</ele>
        <time>2021-09-04T16:03:39Z</time>
      </trkpt>
      <trkpt lat="44.29144" lon="4.92067">
        <ele>108.40000152588</ele>
        <time>2021-09-04T16:03:43Z</time>
      </trkpt>
      <trkpt lat="44.29149" lon="4.92057">
        <ele>108.19999694824</ele>
        <time>2021-09-04T16:03:44Z</time>
      </trkpt>
      <trkpt lat="44.29172" lon="4.91999">
        <ele>108</ele>
        <time>2021-09-04T16:03:50Z</time>
      </trkpt>
      <trkpt lat="44.29188" lon="4.9195">
        <ele>107.59999847412</ele>
        <time>2021-09-04T16:03:55Z</time>
      </trkpt>
      <trkpt lat="44.29189" lon="4.9194">
        <ele>107.40000152588</ele>
        <time>2021-09-04T16:03:56Z</time>
      </trkpt>
      <trkpt lat="44.2918" lon="4.9191">
        <ele>107.40000152588</ele>
        <time>2021-09-04T16:03:59Z</time>
      </trkpt>
      <trkpt lat="44.29172" lon="4.91891">
        <ele>107.40000152588</ele>
        <time>2021-09-04T16:04:01Z</time>
      </trkpt>
      <trkpt lat="44.29168" lon="4.91881">
        <ele>107.19999694824</ele>
        <time>2021-09-04T16:04:02Z</time>
      </trkpt>
      <trkpt lat="44.29157" lon="4.91852">
        <ele>107</ele>
        <time>2021-09-04T16:04:05Z</time>
      </trkpt>
      <trkpt lat="44.29155" lon="4.91842">
        <ele>106.80000305176</ele>
        <time>2021-09-04T16:04:06Z</time>
      </trkpt>
      <trkpt lat="44.29151" lon="4.91809">
        <ele>106.59999847412</ele>
        <time>2021-09-04T16:04:09Z</time>
      </trkpt>
      <trkpt lat="44.29157" lon="4.91765">
        <ele>106.40000152588</ele>
        <time>2021-09-04T16:04:13Z</time>
      </trkpt>
      <trkpt lat="44.29164" lon="4.91745">
        <ele>106.19999694824</ele>
        <time>2021-09-04T16:04:15Z</time>
      </trkpt>
      <trkpt lat="44.29174" lon="4.91729">
        <ele>106</ele>
        <time>2021-09-04T16:04:17Z</time>
      </trkpt>
      <trkpt lat="44.2918" lon="4.91721">
        <ele>106</ele>
        <time>2021-09-04T16:04:18Z</time>
      </trkpt>
      <trkpt lat="44.29203" lon="4.91694">
        <ele>106</ele>
        <time>2021-09-04T16:04:22Z</time>
      </trkpt>
      <trkpt lat="44.29248" lon="4.9164">
        <ele>105.80000305176</ele>
        <time>2021-09-04T16:04:30Z</time>
      </trkpt>
      <trkpt lat="44.29254" lon="4.91634">
        <ele>105.59999847412</ele>
        <time>2021-09-04T16:04:31Z</time>
      </trkpt>
      <trkpt lat="44.29295" lon="4.91581">
        <ele>105.40000152588</ele>
        <time>2021-09-04T16:04:39Z</time>
      </trkpt>
      <trkpt lat="44.293" lon="4.91575">
        <ele>105.40000152588</ele>
        <time>2021-09-04T16:04:40Z</time>
      </trkpt>
      <trkpt lat="44.29307" lon="4.91559">
        <ele>105.19999694824</ele>
        <time>2021-09-04T16:04:42Z</time>
      </trkpt>
      <trkpt lat="44.29312" lon="4.91543">
        <ele>105.19999694824</ele>
        <time>2021-09-04T16:04:44Z</time>
      </trkpt>
      <trkpt lat="44.29313" lon="4.91502">
        <ele>105.40000152588</ele>
        <time>2021-09-04T16:04:49Z</time>
      </trkpt>
      <trkpt lat="44.29307" lon="4.91449">
        <ele>106</ele>
        <time>2021-09-04T16:04:56Z</time>
      </trkpt>
      <trkpt lat="44.29304" lon="4.91428">
        <ele>106.19999694824</ele>
        <time>2021-09-04T16:04:59Z</time>
      </trkpt>
      <trkpt lat="44.29299" lon="4.91405">
        <ele>106.40000152588</ele>
        <time>2021-09-04T16:05:02Z</time>
      </trkpt>
      <trkpt lat="44.2929" lon="4.9134">
        <ele>105.59999847412</ele>
        <time>2021-09-04T16:05:09Z</time>
      </trkpt>
      <trkpt lat="44.29287" lon="4.91309">
        <ele>105.19999694824</ele>
        <time>2021-09-04T16:05:12Z</time>
      </trkpt>
      <trkpt lat="44.29283" lon="4.91266">
        <ele>104.40000152588</ele>
        <time>2021-09-04T16:05:16Z</time>
      </trkpt>
      <trkpt lat="44.29281" lon="4.91235">
        <ele>104</ele>
        <time>2021-09-04T16:05:19Z</time>
      </trkpt>
      <trkpt lat="44.29277" lon="4.91184">
        <ele>103.19999694824</ele>
        <time>2021-09-04T16:05:24Z</time>
      </trkpt>
      <trkpt lat="44.29272" lon="4.91108">
        <ele>103</ele>
        <time>2021-09-04T16:05:32Z</time>
      </trkpt>
      <trkpt lat="44.29271" lon="4.91099">
        <ele>102.80000305176</ele>
        <time>2021-09-04T16:05:33Z</time>
      </trkpt>
      <trkpt lat="44.29264" lon="4.91045">
        <ele>102.59999847412</ele>
        <time>2021-09-04T16:05:39Z</time>
      </trkpt>
      <trkpt lat="44.2925" lon="4.90991">
        <ele>102.59999847412</ele>
        <time>2021-09-04T16:05:45Z</time>
      </trkpt>
      <trkpt lat="44.29229" lon="4.90941">
        <ele>102.40000152588</ele>
        <time>2021-09-04T16:05:51Z</time>
      </trkpt>
      <trkpt lat="44.29203" lon="4.90881">
        <ele>102</ele>
        <time>2021-09-04T16:05:58Z</time>
      </trkpt>
      <trkpt lat="44.29185" lon="4.90838">
        <ele>101.80000305176</ele>
        <time>2021-09-04T16:06:03Z</time>
      </trkpt>
      <trkpt lat="44.29166" lon="4.90793">
        <ele>101.40000152588</ele>
        <time>2021-09-04T16:06:08Z</time>
      </trkpt>
      <trkpt lat="44.29139" lon="4.90721">
        <ele>100.80000305176</ele>
        <time>2021-09-04T16:06:16Z</time>
      </trkpt>
      <trkpt lat="44.29136" lon="4.90711">
        <ele>100.80000305176</ele>
        <time>2021-09-04T16:06:17Z</time>
      </trkpt>
      <trkpt lat="44.29129" lon="4.90692">
        <ele>100.59999847412</ele>
        <time>2021-09-04T16:06:19Z</time>
      </trkpt>
      <trkpt lat="44.29105" lon="4.90616">
        <ele>100.59999847412</ele>
        <time>2021-09-04T16:06:27Z</time>
      </trkpt>
      <trkpt lat="44.29097" lon="4.90586">
        <ele>100.19999694824</ele>
        <time>2021-09-04T16:06:30Z</time>
      </trkpt>
      <trkpt lat="44.29086" lon="4.90524">
        <ele>99.599998474121</ele>
        <time>2021-09-04T16:06:36Z</time>
      </trkpt>
      <trkpt lat="44.29084" lon="4.90503">
        <ele>99.599998474121</ele>
        <time>2021-09-04T16:06:38Z</time>
      </trkpt>
      <trkpt lat="44.29074" lon="4.9042">
        <ele>99.400001525879</ele>
        <time>2021-09-04T16:06:46Z</time>
      </trkpt>
      <trkpt lat="44.29072" lon="4.904">
        <ele>99.199996948242</ele>
        <time>2021-09-04T16:06:48Z</time>
      </trkpt>
      <trkpt lat="44.2907" lon="4.90339">
        <ele>99</ele>
        <time>2021-09-04T16:06:54Z</time>
      </trkpt>
      <trkpt lat="44.29077" lon="4.90259">
        <ele>98.800003051758</ele>
        <time>2021-09-04T16:07:02Z</time>
      </trkpt>
      <trkpt lat="44.29083" lon="4.90202">
        <ele>98.800003051758</ele>
        <time>2021-09-04T16:07:08Z</time>
      </trkpt>
      <trkpt lat="44.29086" lon="4.90164">
        <ele>98.599998474121</ele>
        <time>2021-09-04T16:07:12Z</time>
      </trkpt>
      <trkpt lat="44.29089" lon="4.90136">
        <ele>98.400001525879</ele>
        <time>2021-09-04T16:07:15Z</time>
      </trkpt>
      <trkpt lat="44.29095" lon="4.9007">
        <ele>98.599998474121</ele>
        <time>2021-09-04T16:07:22Z</time>
      </trkpt>
      <trkpt lat="44.2909" lon="4.90003">
        <ele>98.199996948242</ele>
        <time>2021-09-04T16:07:29Z</time>
      </trkpt>
      <trkpt lat="44.29081" lon="4.89936">
        <ele>97.800003051758</ele>
        <time>2021-09-04T16:07:36Z</time>
      </trkpt>
      <trkpt lat="44.29076" lon="4.89898">
        <ele>97.599998474121</ele>
        <time>2021-09-04T16:07:40Z</time>
      </trkpt>
      <trkpt lat="44.29069" lon="4.89851">
        <ele>97.400001525879</ele>
        <time>2021-09-04T16:07:45Z</time>
      </trkpt>
      <trkpt lat="44.2906" lon="4.89775">
        <ele>97.199996948242</ele>
        <time>2021-09-04T16:07:53Z</time>
      </trkpt>
      <trkpt lat="44.29058" lon="4.89766">
        <ele>97</ele>
        <time>2021-09-04T16:07:54Z</time>
      </trkpt>
      <trkpt lat="44.2905" lon="4.89689">
        <ele>96.800003051758</ele>
        <time>2021-09-04T16:08:02Z</time>
      </trkpt>
      <trkpt lat="44.29045" lon="4.89634">
        <ele>96.599998474121</ele>
        <time>2021-09-04T16:08:08Z</time>
      </trkpt>
      <trkpt lat="44.29038" lon="4.89552">
        <ele>96.400001525879</ele>
        <time>2021-09-04T16:08:17Z</time>
      </trkpt>
      <trkpt lat="44.29037" lon="4.89543">
        <ele>96.400001525879</ele>
        <time>2021-09-04T16:08:18Z</time>
      </trkpt>
      <trkpt lat="44.29033" lon="4.89493">
        <ele>96.199996948242</ele>
        <time>2021-09-04T16:08:24Z</time>
      </trkpt>
      <trkpt lat="44.29024" lon="4.89447">
        <ele>96.599998474121</ele>
        <time>2021-09-04T16:08:30Z</time>
      </trkpt>
      <trkpt lat="44.29019" lon="4.89433">
        <ele>97</ele>
        <time>2021-09-04T16:08:32Z</time>
      </trkpt>
      <trkpt lat="44.29011" lon="4.89403">
        <ele>97.599998474121</ele>
        <time>2021-09-04T16:08:37Z</time>
      </trkpt>
      <trkpt lat="44.2901" lon="4.89398">
        <ele>97.800003051758</ele>
        <time>2021-09-04T16:08:38Z</time>
      </trkpt>
      <trkpt lat="44.28999" lon="4.89358">
        <ele>98.800003051758</ele>
        <time>2021-09-04T16:08:46Z</time>
      </trkpt>
      <trkpt lat="44.28994" lon="4.89328">
        <ele>99.400001525879</ele>
        <time>2021-09-04T16:08:52Z</time>
      </trkpt>
      <trkpt lat="44.28992" lon="4.89317">
        <ele>99.800003051758</ele>
        <time>2021-09-04T16:08:54Z</time>
      </trkpt>
      <trkpt lat="44.28987" lon="4.89287">
        <ele>100.80000305176</ele>
        <time>2021-09-04T16:09:00Z</time>
      </trkpt>
      <trkpt lat="44.28986" lon="4.89281">
        <ele>101</ele>
        <time>2021-09-04T16:09:01Z</time>
      </trkpt>
      <trkpt lat="44.28983" lon="4.89255">
        <ele>102</ele>
        <time>2021-09-04T16:09:06Z</time>
      </trkpt>
      <trkpt lat="44.28982" lon="4.89246">
        <ele>102.40000152588</ele>
        <time>2021-09-04T16:09:08Z</time>
      </trkpt>
      <trkpt lat="44.28982" lon="4.8922">
        <ele>103</ele>
        <time>2021-09-04T16:09:13Z</time>
      </trkpt>
      <trkpt lat="44.28982" lon="4.8921">
        <ele>103.40000152588</ele>
        <time>2021-09-04T16:09:15Z</time>
      </trkpt>
      <trkpt lat="44.28986" lon="4.89185">
        <ele>104.19999694824</ele>
        <time>2021-09-04T16:09:20Z</time>
      </trkpt>
      <trkpt lat="44.2899" lon="4.8916">
        <ele>104.80000305176</ele>
        <time>2021-09-04T16:09:25Z</time>
      </trkpt>
      <trkpt lat="44.28996" lon="4.89131">
        <ele>105.40000152588</ele>
        <time>2021-09-04T16:09:31Z</time>
      </trkpt>
      <trkpt lat="44.28999" lon="4.89115">
        <ele>105.59999847412</ele>
        <time>2021-09-04T16:09:34Z</time>
      </trkpt>
      <trkpt lat="44.29004" lon="4.89075">
        <ele>106.40000152588</ele>
        <time>2021-09-04T16:09:41Z</time>
      </trkpt>
      <trkpt lat="44.29007" lon="4.89063">
        <ele>106.40000152588</ele>
        <time>2021-09-04T16:09:43Z</time>
      </trkpt>
      <trkpt lat="44.29007" lon="4.89057">
        <ele>106.40000152588</ele>
        <time>2021-09-04T16:09:44Z</time>
      </trkpt>
      <trkpt lat="44.29012" lon="4.89031">
        <ele>106.40000152588</ele>
        <time>2021-09-04T16:09:48Z</time>
      </trkpt>
      <trkpt lat="44.29014" lon="4.89025">
        <ele>106.40000152588</ele>
        <time>2021-09-04T16:09:49Z</time>
      </trkpt>
      <trkpt lat="44.29023" lon="4.88974">
        <ele>106.40000152588</ele>
        <time>2021-09-04T16:09:56Z</time>
      </trkpt>
      <trkpt lat="44.29034" lon="4.88913">
        <ele>106.19999694824</ele>
        <time>2021-09-04T16:10:04Z</time>
      </trkpt>
      <trkpt lat="44.29042" lon="4.8886">
        <ele>106</ele>
        <time>2021-09-04T16:10:11Z</time>
      </trkpt>
      <trkpt lat="44.2905" lon="4.88813">
        <ele>106</ele>
        <time>2021-09-04T16:10:18Z</time>
      </trkpt>
      <trkpt lat="44.29059" lon="4.88763">
        <ele>105.80000305176</ele>
        <time>2021-09-04T16:10:25Z</time>
      </trkpt>
      <trkpt lat="44.29069" lon="4.88685">
        <ele>105.59999847412</ele>
        <time>2021-09-04T16:10:35Z</time>
      </trkpt>
      <trkpt lat="44.2907" lon="4.88676">
        <ele>105.59999847412</ele>
        <time>2021-09-04T16:10:36Z</time>
      </trkpt>
      <trkpt lat="44.29074" lon="4.8861">
        <ele>105.59999847412</ele>
        <time>2021-09-04T16:10:44Z</time>
      </trkpt>
      <trkpt lat="44.29079" lon="4.88544">
        <ele>105.59999847412</ele>
        <time>2021-09-04T16:10:52Z</time>
      </trkpt>
      <trkpt lat="44.2908" lon="4.88536">
        <ele>105.59999847412</ele>
        <time>2021-09-04T16:10:53Z</time>
      </trkpt>
      <trkpt lat="44.29088" lon="4.88509">
        <ele>105.59999847412</ele>
        <time>2021-09-04T16:10:57Z</time>
      </trkpt>
      <trkpt lat="44.29096" lon="4.88489">
        <ele>105.40000152588</ele>
        <time>2021-09-04T16:11:00Z</time>
      </trkpt>
      <trkpt lat="44.29107" lon="4.88473">
        <ele>105.40000152588</ele>
        <time>2021-09-04T16:11:03Z</time>
      </trkpt>
      <trkpt lat="44.29111" lon="4.88468">
        <ele>105.40000152588</ele>
        <time>2021-09-04T16:11:04Z</time>
      </trkpt>
      <trkpt lat="44.29143" lon="4.88433">
        <ele>105.40000152588</ele>
        <time>2021-09-04T16:11:11Z</time>
      </trkpt>
      <trkpt lat="44.29164" lon="4.88412">
        <ele>105.40000152588</ele>
        <time>2021-09-04T16:11:15Z</time>
      </trkpt>
      <trkpt lat="44.2919" lon="4.88385">
        <ele>105</ele>
        <time>2021-09-04T16:11:20Z</time>
      </trkpt>
      <trkpt lat="44.2923" lon="4.88339">
        <ele>104.59999847412</ele>
        <time>2021-09-04T16:11:28Z</time>
      </trkpt>
      <trkpt lat="44.2924" lon="4.88327">
        <ele>104.19999694824</ele>
        <time>2021-09-04T16:11:30Z</time>
      </trkpt>
      <trkpt lat="44.29268" lon="4.88287">
        <ele>104</ele>
        <time>2021-09-04T16:11:36Z</time>
      </trkpt>
      <trkpt lat="44.29307" lon="4.88226">
        <ele>103.80000305176</ele>
        <time>2021-09-04T16:11:45Z</time>
      </trkpt>
      <trkpt lat="44.29312" lon="4.8822">
        <ele>104</ele>
        <time>2021-09-04T16:11:46Z</time>
      </trkpt>
      <trkpt lat="44.29346" lon="4.88165">
        <ele>103.80000305176</ele>
        <time>2021-09-04T16:11:54Z</time>
      </trkpt>
      <trkpt lat="44.29374" lon="4.88114">
        <ele>103.40000152588</ele>
        <time>2021-09-04T16:12:01Z</time>
      </trkpt>
      <trkpt lat="44.2939" lon="4.88061">
        <ele>103.19999694824</ele>
        <time>2021-09-04T16:12:07Z</time>
      </trkpt>
      <trkpt lat="44.29405" lon="4.87995">
        <ele>102.40000152588</ele>
        <time>2021-09-04T16:12:14Z</time>
      </trkpt>
      <trkpt lat="44.29409" lon="4.87976">
        <ele>102.19999694824</ele>
        <time>2021-09-04T16:12:16Z</time>
      </trkpt>
      <trkpt lat="44.29423" lon="4.8793">
        <ele>101.19999694824</ele>
        <time>2021-09-04T16:12:21Z</time>
      </trkpt>
      <trkpt lat="44.29426" lon="4.87921">
        <ele>101</ele>
        <time>2021-09-04T16:12:22Z</time>
      </trkpt>
      <trkpt lat="44.29445" lon="4.87881">
        <ele>100</ele>
        <time>2021-09-04T16:12:27Z</time>
      </trkpt>
      <trkpt lat="44.29456" lon="4.87857">
        <ele>99.800003051758</ele>
        <time>2021-09-04T16:12:30Z</time>
      </trkpt>
      <trkpt lat="44.29471" lon="4.87826">
        <ele>99</ele>
        <time>2021-09-04T16:12:34Z</time>
      </trkpt>
      <trkpt lat="44.29489" lon="4.87787">
        <ele>98.599998474121</ele>
        <time>2021-09-04T16:12:39Z</time>
      </trkpt>
      <trkpt lat="44.29501" lon="4.87766">
        <ele>98.199996948242</ele>
        <time>2021-09-04T16:12:42Z</time>
      </trkpt>
      <trkpt lat="44.2951" lon="4.87743">
        <ele>98.199996948242</ele>
        <time>2021-09-04T16:12:45Z</time>
      </trkpt>
      <trkpt lat="44.29532" lon="4.87695">
        <ele>98.599998474121</ele>
        <time>2021-09-04T16:12:52Z</time>
      </trkpt>
      <trkpt lat="44.29543" lon="4.87664">
        <ele>98.800003051758</ele>
        <time>2021-09-04T16:12:56Z</time>
      </trkpt>
      <trkpt lat="44.29545" lon="4.87648">
        <ele>98.800003051758</ele>
        <time>2021-09-04T16:12:58Z</time>
      </trkpt>
      <trkpt lat="44.29549" lon="4.87615">
        <ele>98.800003051758</ele>
        <time>2021-09-04T16:13:02Z</time>
      </trkpt>
      <trkpt lat="44.29549" lon="4.87597">
        <ele>98.800003051758</ele>
        <time>2021-09-04T16:13:04Z</time>
      </trkpt>
      <trkpt lat="44.29549" lon="4.87536">
        <ele>98</ele>
        <time>2021-09-04T16:13:11Z</time>
      </trkpt>
      <trkpt lat="44.29549" lon="4.87528">
        <ele>97.800003051758</ele>
        <time>2021-09-04T16:13:12Z</time>
      </trkpt>
      <trkpt lat="44.29549" lon="4.87493">
        <ele>97.400001525879</ele>
        <time>2021-09-04T16:13:16Z</time>
      </trkpt>
      <trkpt lat="44.29561" lon="4.87472">
        <ele>97</ele>
        <time>2021-09-04T16:13:19Z</time>
      </trkpt>
      <trkpt lat="44.29567" lon="4.87466">
        <ele>96.599998474121</ele>
        <time>2021-09-04T16:13:20Z</time>
      </trkpt>
      <trkpt lat="44.29574" lon="4.87461">
        <ele>96.400001525879</ele>
        <time>2021-09-04T16:13:21Z</time>
      </trkpt>
      <trkpt lat="44.29594" lon="4.87441">
        <ele>95.599998474121</ele>
        <time>2021-09-04T16:13:24Z</time>
      </trkpt>
      <trkpt lat="44.29616" lon="4.87421">
        <ele>94.400001525879</ele>
        <time>2021-09-04T16:13:27Z</time>
      </trkpt>
      <trkpt lat="44.29638" lon="4.87401">
        <ele>93.199996948242</ele>
        <time>2021-09-04T16:13:30Z</time>
      </trkpt>
      <trkpt lat="44.29649" lon="4.87389">
        <ele>92.400001525879</ele>
        <time>2021-09-04T16:13:32Z</time>
      </trkpt>
      <trkpt lat="44.29651" lon="4.87383">
        <ele>92</ele>
        <time>2021-09-04T16:13:33Z</time>
      </trkpt>
      <trkpt lat="44.29647" lon="4.87372">
        <ele>91</ele>
        <time>2021-09-04T16:13:35Z</time>
      </trkpt>
      <trkpt lat="44.29644" lon="4.87367">
        <ele>90.599998474121</ele>
        <time>2021-09-04T16:13:36Z</time>
      </trkpt>
      <trkpt lat="44.29628" lon="4.87342">
        <ele>89.599998474121</ele>
        <time>2021-09-04T16:13:41Z</time>
      </trkpt>
      <trkpt lat="44.29603" lon="4.87305">
        <ele>90.800003051758</ele>
        <time>2021-09-04T16:13:49Z</time>
      </trkpt>
      <trkpt lat="44.29597" lon="4.87296">
        <ele>91.199996948242</ele>
        <time>2021-09-04T16:13:51Z</time>
      </trkpt>
      <trkpt lat="44.29587" lon="4.87277">
        <ele>91.599998474121</ele>
        <time>2021-09-04T16:13:55Z</time>
      </trkpt>
      <trkpt lat="44.29584" lon="4.87273">
        <ele>91.800003051758</ele>
        <time>2021-09-04T16:13:56Z</time>
      </trkpt>
      <trkpt lat="44.29563" lon="4.87241">
        <ele>92.599998474121</ele>
        <time>2021-09-04T16:14:03Z</time>
      </trkpt>
      <trkpt lat="44.29559" lon="4.87237">
        <ele>92.800003051758</ele>
        <time>2021-09-04T16:14:04Z</time>
      </trkpt>
      <trkpt lat="44.29546" lon="4.87216">
        <ele>93.599998474121</ele>
        <time>2021-09-04T16:14:09Z</time>
      </trkpt>
      <trkpt lat="44.29541" lon="4.87207">
        <ele>93.800003051758</ele>
        <time>2021-09-04T16:14:11Z</time>
      </trkpt>
      <trkpt lat="44.29529" lon="4.87187">
        <ele>94.400001525879</ele>
        <time>2021-09-04T16:14:16Z</time>
      </trkpt>
      <trkpt lat="44.29522" lon="4.87174">
        <ele>94.800003051758</ele>
        <time>2021-09-04T16:14:19Z</time>
      </trkpt>
      <trkpt lat="44.29509" lon="4.87155">
        <ele>95.199996948242</ele>
        <time>2021-09-04T16:14:24Z</time>
      </trkpt>
      <trkpt lat="44.29496" lon="4.87135">
        <ele>96</ele>
        <time>2021-09-04T16:14:29Z</time>
      </trkpt>
      <trkpt lat="44.29486" lon="4.87119">
        <ele>96.199996948242</ele>
        <time>2021-09-04T16:14:33Z</time>
      </trkpt>
      <trkpt lat="44.29462" lon="4.87079">
        <ele>96.800003051758</ele>
        <time>2021-09-04T16:14:42Z</time>
      </trkpt>
      <trkpt lat="44.29458" lon="4.87069">
        <ele>97</ele>
        <time>2021-09-04T16:14:44Z</time>
      </trkpt>
      <trkpt lat="44.29453" lon="4.87058">
        <ele>97</ele>
        <time>2021-09-04T16:14:46Z</time>
      </trkpt>
      <trkpt lat="44.29447" lon="4.87038">
        <ele>97.199996948242</ele>
        <time>2021-09-04T16:14:49Z</time>
      </trkpt>
      <trkpt lat="44.29446" lon="4.87031">
        <ele>97.199996948242</ele>
        <time>2021-09-04T16:14:50Z</time>
      </trkpt>
      <trkpt lat="44.29444" lon="4.87001">
        <ele>97.400001525879</ele>
        <time>2021-09-04T16:14:54Z</time>
      </trkpt>
      <trkpt lat="44.29452" lon="4.86958">
        <ele>98</ele>
        <time>2021-09-04T16:15:00Z</time>
      </trkpt>
      <trkpt lat="44.29467" lon="4.86899">
        <ele>98.199996948242</ele>
        <time>2021-09-04T16:15:08Z</time>
      </trkpt>
      <trkpt lat="44.29485" lon="4.86829">
        <ele>98.199996948242</ele>
        <time>2021-09-04T16:15:17Z</time>
      </trkpt>
      <trkpt lat="44.29493" lon="4.8679">
        <ele>98.199996948242</ele>
        <time>2021-09-04T16:15:22Z</time>
      </trkpt>
      <trkpt lat="44.29493" lon="4.86772">
        <ele>98.199996948242</ele>
        <time>2021-09-04T16:15:24Z</time>
      </trkpt>
      <trkpt lat="44.2949" lon="4.86727">
        <ele>97.800003051758</ele>
        <time>2021-09-04T16:15:29Z</time>
      </trkpt>
      <trkpt lat="44.29486" lon="4.8671">
        <ele>97.599998474121</ele>
        <time>2021-09-04T16:15:31Z</time>
      </trkpt>
      <trkpt lat="44.29469" lon="4.86648">
        <ele>96.800003051758</ele>
        <time>2021-09-04T16:15:38Z</time>
      </trkpt>
      <trkpt lat="44.29447" lon="4.86574">
        <ele>96.599998474121</ele>
        <time>2021-09-04T16:15:46Z</time>
      </trkpt>
      <trkpt lat="44.29426" lon="4.86502">
        <ele>96.400001525879</ele>
        <time>2021-09-04T16:15:54Z</time>
      </trkpt>
      <trkpt lat="44.2942" lon="4.86484">
        <ele>96.199996948242</ele>
        <time>2021-09-04T16:15:56Z</time>
      </trkpt>
      <trkpt lat="44.29408" lon="4.86438">
        <ele>95.800003051758</ele>
        <time>2021-09-04T16:16:01Z</time>
      </trkpt>
      <trkpt lat="44.29402" lon="4.86421">
        <ele>95.800003051758</ele>
        <time>2021-09-04T16:16:03Z</time>
      </trkpt>
      <trkpt lat="44.29378" lon="4.86372">
        <ele>95.400001525879</ele>
        <time>2021-09-04T16:16:09Z</time>
      </trkpt>
      <trkpt lat="44.29347" lon="4.86319">
        <ele>95</ele>
        <time>2021-09-04T16:16:16Z</time>
      </trkpt>
      <trkpt lat="44.29341" lon="4.86302">
        <ele>94.800003051758</ele>
        <time>2021-09-04T16:16:18Z</time>
      </trkpt>
      <trkpt lat="44.29331" lon="4.86267">
        <ele>94.599998474121</ele>
        <time>2021-09-04T16:16:22Z</time>
      </trkpt>
      <trkpt lat="44.29324" lon="4.8622">
        <ele>94.800003051758</ele>
        <time>2021-09-04T16:16:28Z</time>
      </trkpt>
      <trkpt lat="44.29311" lon="4.8616">
        <ele>95.800003051758</ele>
        <time>2021-09-04T16:16:36Z</time>
      </trkpt>
      <trkpt lat="44.29293" lon="4.86099">
        <ele>96.199996948242</ele>
        <time>2021-09-04T16:16:44Z</time>
      </trkpt>
      <trkpt lat="44.29273" lon="4.86035">
        <ele>96.400001525879</ele>
        <time>2021-09-04T16:16:52Z</time>
      </trkpt>
      <trkpt lat="44.29253" lon="4.85968">
        <ele>96.199996948242</ele>
        <time>2021-09-04T16:17:00Z</time>
      </trkpt>
      <trkpt lat="44.29232" lon="4.859">
        <ele>96</ele>
        <time>2021-09-04T16:17:08Z</time>
      </trkpt>
      <trkpt lat="44.29216" lon="4.85868">
        <ele>95.800003051758</ele>
        <time>2021-09-04T16:17:12Z</time>
      </trkpt>
      <trkpt lat="44.29211" lon="4.85861">
        <ele>95.800003051758</ele>
        <time>2021-09-04T16:17:13Z</time>
      </trkpt>
      <trkpt lat="44.2917" lon="4.85811">
        <ele>95.599998474121</ele>
        <time>2021-09-04T16:17:21Z</time>
      </trkpt>
      <trkpt lat="44.29127" lon="4.85763">
        <ele>94.800003051758</ele>
        <time>2021-09-04T16:17:29Z</time>
      </trkpt>
      <trkpt lat="44.291" lon="4.85718">
        <ele>94.400001525879</ele>
        <time>2021-09-04T16:17:35Z</time>
      </trkpt>
      <trkpt lat="44.29085" lon="4.85672">
        <ele>94</ele>
        <time>2021-09-04T16:17:40Z</time>
      </trkpt>
      <trkpt lat="44.29081" lon="4.85653">
        <ele>93.800003051758</ele>
        <time>2021-09-04T16:17:42Z</time>
      </trkpt>
      <trkpt lat="44.29079" lon="4.85633">
        <ele>93.599998474121</ele>
        <time>2021-09-04T16:17:44Z</time>
      </trkpt>
      <trkpt lat="44.29079" lon="4.85623">
        <ele>93.599998474121</ele>
        <time>2021-09-04T16:17:45Z</time>
      </trkpt>
      <trkpt lat="44.29083" lon="4.85564">
        <ele>93.400001525879</ele>
        <time>2021-09-04T16:17:51Z</time>
      </trkpt>
      <trkpt lat="44.2909" lon="4.85483">
        <ele>93</ele>
        <time>2021-09-04T16:17:59Z</time>
      </trkpt>
      <trkpt lat="44.29093" lon="4.85423">
        <ele>92.800003051758</ele>
        <time>2021-09-04T16:18:05Z</time>
      </trkpt>
      <trkpt lat="44.29094" lon="4.85403">
        <ele>92.800003051758</ele>
        <time>2021-09-04T16:18:07Z</time>
      </trkpt>
      <trkpt lat="44.2909" lon="4.85364">
        <ele>92.599998474121</ele>
        <time>2021-09-04T16:18:11Z</time>
      </trkpt>
      <trkpt lat="44.29076" lon="4.85319">
        <ele>92.599998474121</ele>
        <time>2021-09-04T16:18:16Z</time>
      </trkpt>
      <trkpt lat="44.29052" lon="4.85249">
        <ele>92.199996948242</ele>
        <time>2021-09-04T16:18:24Z</time>
      </trkpt>
      <trkpt lat="44.29047" lon="4.85231">
        <ele>92.199996948242</ele>
        <time>2021-09-04T16:18:26Z</time>
      </trkpt>
      <trkpt lat="44.2904" lon="4.85193">
        <ele>92</ele>
        <time>2021-09-04T16:18:30Z</time>
      </trkpt>
      <trkpt lat="44.29039" lon="4.85183">
        <ele>92</ele>
        <time>2021-09-04T16:18:31Z</time>
      </trkpt>
      <trkpt lat="44.29045" lon="4.85124">
        <ele>91.800003051758</ele>
        <time>2021-09-04T16:18:37Z</time>
      </trkpt>
      <trkpt lat="44.29051" lon="4.85095">
        <ele>91.800003051758</ele>
        <time>2021-09-04T16:18:40Z</time>
      </trkpt>
      <trkpt lat="44.29055" lon="4.85067">
        <ele>91.800003051758</ele>
        <time>2021-09-04T16:18:43Z</time>
      </trkpt>
      <trkpt lat="44.29055" lon="4.85058">
        <ele>91.800003051758</ele>
        <time>2021-09-04T16:18:44Z</time>
      </trkpt>
      <trkpt lat="44.29053" lon="4.84998">
        <ele>92.199996948242</ele>
        <time>2021-09-04T16:18:51Z</time>
      </trkpt>
      <trkpt lat="44.29043" lon="4.84943">
        <ele>92.800003051758</ele>
        <time>2021-09-04T16:18:58Z</time>
      </trkpt>
      <trkpt lat="44.29042" lon="4.84936">
        <ele>93</ele>
        <time>2021-09-04T16:18:59Z</time>
      </trkpt>
      <trkpt lat="44.29039" lon="4.8492">
        <ele>93</ele>
        <time>2021-09-04T16:19:01Z</time>
      </trkpt>
      <trkpt lat="44.29032" lon="4.84889">
        <ele>93.400001525879</ele>
        <time>2021-09-04T16:19:05Z</time>
      </trkpt>
      <trkpt lat="44.29016" lon="4.8485">
        <ele>93.199996948242</ele>
        <time>2021-09-04T16:19:10Z</time>
      </trkpt>
      <trkpt lat="44.29008" lon="4.84837">
        <ele>93.199996948242</ele>
        <time>2021-09-04T16:19:12Z</time>
      </trkpt>
      <trkpt lat="44.28994" lon="4.84817">
        <ele>93</ele>
        <time>2021-09-04T16:19:15Z</time>
      </trkpt>
      <trkpt lat="44.28955" lon="4.84765">
        <ele>92.199996948242</ele>
        <time>2021-09-04T16:19:23Z</time>
      </trkpt>
      <trkpt lat="44.28926" lon="4.84725">
        <ele>91.800003051758</ele>
        <time>2021-09-04T16:19:29Z</time>
      </trkpt>
      <trkpt lat="44.28921" lon="4.84719">
        <ele>91.599998474121</ele>
        <time>2021-09-04T16:19:30Z</time>
      </trkpt>
      <trkpt lat="44.28887" lon="4.84669">
        <ele>91.199996948242</ele>
        <time>2021-09-04T16:19:37Z</time>
      </trkpt>
      <trkpt lat="44.28872" lon="4.84649">
        <ele>90.800003051758</ele>
        <time>2021-09-04T16:19:40Z</time>
      </trkpt>
      <trkpt lat="44.2884" lon="4.84604">
        <ele>90.400001525879</ele>
        <time>2021-09-04T16:19:47Z</time>
      </trkpt>
      <trkpt lat="44.28821" lon="4.84578">
        <ele>90.400001525879</ele>
        <time>2021-09-04T16:19:52Z</time>
      </trkpt>
      <trkpt lat="44.28818" lon="4.84572">
        <ele>90.400001525879</ele>
        <time>2021-09-04T16:19:53Z</time>
      </trkpt>
      <trkpt lat="44.2881" lon="4.84557">
        <ele>90.800003051758</ele>
        <time>2021-09-04T16:19:56Z</time>
      </trkpt>
      <trkpt lat="44.28809" lon="4.84543">
        <ele>91</ele>
        <time>2021-09-04T16:19:58Z</time>
      </trkpt>
      <trkpt lat="44.28809" lon="4.84486">
        <ele>91.400001525879</ele>
        <time>2021-09-04T16:20:05Z</time>
      </trkpt>
      <trkpt lat="44.28811" lon="4.84417">
        <ele>91.599998474121</ele>
        <time>2021-09-04T16:20:13Z</time>
      </trkpt>
      <trkpt lat="44.28816" lon="4.84359">
        <ele>91.400001525879</ele>
        <time>2021-09-04T16:20:20Z</time>
      </trkpt>
      <trkpt lat="44.28823" lon="4.84291">
        <ele>91.199996948242</ele>
        <time>2021-09-04T16:20:28Z</time>
      </trkpt>
      <trkpt lat="44.28836" lon="4.84241">
        <ele>90.599998474121</ele>
        <time>2021-09-04T16:20:34Z</time>
      </trkpt>
      <trkpt lat="44.28853" lon="4.84191">
        <ele>89.599998474121</ele>
        <time>2021-09-04T16:20:40Z</time>
      </trkpt>
      <trkpt lat="44.28864" lon="4.84159">
        <ele>88.800003051758</ele>
        <time>2021-09-04T16:20:44Z</time>
      </trkpt>
      <trkpt lat="44.28866" lon="4.8415">
        <ele>88.599998474121</ele>
        <time>2021-09-04T16:20:45Z</time>
      </trkpt>
      <trkpt lat="44.28876" lon="4.8412">
        <ele>88</ele>
        <time>2021-09-04T16:20:49Z</time>
      </trkpt>
      <trkpt lat="44.28881" lon="4.84107">
        <ele>87.400001525879</ele>
        <time>2021-09-04T16:20:52Z</time>
      </trkpt>
      <trkpt lat="44.28882" lon="4.84105">
        <ele>87.199996948242</ele>
        <time>2021-09-04T16:20:53Z</time>
      </trkpt>
      <trkpt lat="44.28887" lon="4.84106">
        <ele>86.400001525879</ele>
        <time>2021-09-04T16:20:56Z</time>
      </trkpt>
      <trkpt lat="44.28889" lon="4.84106">
        <ele>86.199996948242</ele>
        <time>2021-09-04T16:20:57Z</time>
      </trkpt>
      <trkpt lat="44.28896" lon="4.84107">
        <ele>86.199996948242</ele>
        <time>2021-09-04T16:21:02Z</time>
      </trkpt>
      <trkpt lat="44.28892" lon="4.84106">
        <ele>85.800003051758</ele>
        <time>2021-09-04T16:27:49Z</time>
      </trkpt>
      <trkpt lat="44.28888" lon="4.84104">
        <ele>85.599998474121</ele>
        <time>2021-09-04T16:27:51Z</time>
      </trkpt>
      <trkpt lat="44.28887" lon="4.84097">
        <ele>85.599998474121</ele>
        <time>2021-09-04T16:27:55Z</time>
      </trkpt>
      <trkpt lat="44.28888" lon="4.84095">
        <ele>85.599998474121</ele>
        <time>2021-09-04T16:27:56Z</time>
      </trkpt>
      <trkpt lat="44.2889" lon="4.84089">
        <ele>85.400001525879</ele>
        <time>2021-09-04T16:27:58Z</time>
      </trkpt>
      <trkpt lat="44.28892" lon="4.84081">
        <ele>85.400001525879</ele>
        <time>2021-09-04T16:28:00Z</time>
      </trkpt>
      <trkpt lat="44.28903" lon="4.8405">
        <ele>85.199996948242</ele>
        <time>2021-09-04T16:28:06Z</time>
      </trkpt>
      <trkpt lat="44.28922" lon="4.84003">
        <ele>84.400001525879</ele>
        <time>2021-09-04T16:28:14Z</time>
      </trkpt>
      <trkpt lat="44.28926" lon="4.83992">
        <ele>84.199996948242</ele>
        <time>2021-09-04T16:28:16Z</time>
      </trkpt>
      <trkpt lat="44.28938" lon="4.83979">
        <ele>84</ele>
        <time>2021-09-04T16:28:19Z</time>
      </trkpt>
      <trkpt lat="44.28948" lon="4.83974">
        <ele>83.800003051758</ele>
        <time>2021-09-04T16:28:21Z</time>
      </trkpt>
      <trkpt lat="44.28965" lon="4.83971">
        <ele>83.400001525879</ele>
        <time>2021-09-04T16:28:24Z</time>
      </trkpt>
      <trkpt lat="44.28972" lon="4.8397">
        <ele>83.199996948242</ele>
        <time>2021-09-04T16:28:25Z</time>
      </trkpt>
      <trkpt lat="44.28992" lon="4.83971">
        <ele>82.599998474121</ele>
        <time>2021-09-04T16:28:28Z</time>
      </trkpt>
      <trkpt lat="44.28999" lon="4.83972">
        <ele>82.400001525879</ele>
        <time>2021-09-04T16:28:29Z</time>
      </trkpt>
      <trkpt lat="44.29005" lon="4.83972">
        <ele>82.199996948242</ele>
        <time>2021-09-04T16:28:30Z</time>
      </trkpt>
      <trkpt lat="44.29022" lon="4.8397">
        <ele>81.199996948242</ele>
        <time>2021-09-04T16:28:33Z</time>
      </trkpt>
      <trkpt lat="44.29029" lon="4.83968">
        <ele>80.800003051758</ele>
        <time>2021-09-04T16:28:34Z</time>
      </trkpt>
      <trkpt lat="44.29053" lon="4.83953">
        <ele>80</ele>
        <time>2021-09-04T16:28:38Z</time>
      </trkpt>
      <trkpt lat="44.29059" lon="4.83946">
        <ele>79.599998474121</ele>
        <time>2021-09-04T16:28:39Z</time>
      </trkpt>
      <trkpt lat="44.2907" lon="4.83932">
        <ele>78.800003051758</ele>
        <time>2021-09-04T16:28:41Z</time>
      </trkpt>
      <trkpt lat="44.29093" lon="4.83898">
        <ele>77.800003051758</ele>
        <time>2021-09-04T16:28:45Z</time>
      </trkpt>
      <trkpt lat="44.2911" lon="4.83862">
        <ele>76.599998474121</ele>
        <time>2021-09-04T16:28:49Z</time>
      </trkpt>
      <trkpt lat="44.29114" lon="4.83856">
        <ele>76.400001525879</ele>
        <time>2021-09-04T16:28:50Z</time>
      </trkpt>
      <trkpt lat="44.29134" lon="4.8384">
        <ele>75.400001525879</ele>
        <time>2021-09-04T16:28:54Z</time>
      </trkpt>
      <trkpt lat="44.29151" lon="4.83838">
        <ele>75</ele>
        <time>2021-09-04T16:28:57Z</time>
      </trkpt>
      <trkpt lat="44.29162" lon="4.83837">
        <ele>75</ele>
        <time>2021-09-04T16:28:59Z</time>
      </trkpt>
      <trkpt lat="44.29211" lon="4.83833">
        <ele>75.199996948242</ele>
        <time>2021-09-04T16:29:08Z</time>
      </trkpt>
      <trkpt lat="44.29227" lon="4.83824">
        <ele>75.199996948242</ele>
        <time>2021-09-04T16:29:11Z</time>
      </trkpt>
      <trkpt lat="44.29237" lon="4.83815">
        <ele>75</ele>
        <time>2021-09-04T16:29:13Z</time>
      </trkpt>
      <trkpt lat="44.29258" lon="4.83798">
        <ele>74.400001525879</ele>
        <time>2021-09-04T16:29:17Z</time>
      </trkpt>
      <trkpt lat="44.29274" lon="4.83787">
        <ele>74</ele>
        <time>2021-09-04T16:29:20Z</time>
      </trkpt>
      <trkpt lat="44.29308" lon="4.83758">
        <ele>73.800003051758</ele>
        <time>2021-09-04T16:29:27Z</time>
      </trkpt>
      <trkpt lat="44.29322" lon="4.83747">
        <ele>74</ele>
        <time>2021-09-04T16:29:30Z</time>
      </trkpt>
      <trkpt lat="44.29332" lon="4.83745">
        <ele>74</ele>
        <time>2021-09-04T16:29:32Z</time>
      </trkpt>
      <trkpt lat="44.29344" lon="4.83752">
        <ele>74.199996948242</ele>
        <time>2021-09-04T16:29:35Z</time>
      </trkpt>
      <trkpt lat="44.29353" lon="4.83769">
        <ele>74.400001525879</ele>
        <time>2021-09-04T16:29:39Z</time>
      </trkpt>
      <trkpt lat="44.29354" lon="4.83773">
        <ele>74.400001525879</ele>
        <time>2021-09-04T16:29:40Z</time>
      </trkpt>
      <trkpt lat="44.29368" lon="4.83795">
        <ele>75.199996948242</ele>
        <time>2021-09-04T16:29:47Z</time>
      </trkpt>
      <trkpt lat="44.2937" lon="4.83798">
        <ele>75.400001525879</ele>
        <time>2021-09-04T16:29:48Z</time>
      </trkpt>
      <trkpt lat="44.29384" lon="4.83809">
        <ele>76.400001525879</ele>
        <time>2021-09-04T16:29:55Z</time>
      </trkpt>
      <trkpt lat="44.29386" lon="4.83809">
        <ele>76.599998474121</ele>
        <time>2021-09-04T16:29:56Z</time>
      </trkpt>
      <trkpt lat="44.29396" lon="4.83813">
        <ele>77.400001525879</ele>
        <time>2021-09-04T16:30:02Z</time>
      </trkpt>
      <trkpt lat="44.29398" lon="4.83813">
        <ele>77.599998474121</ele>
        <time>2021-09-04T16:30:03Z</time>
      </trkpt>
      <trkpt lat="44.2941" lon="4.83816">
        <ele>78.599998474121</ele>
        <time>2021-09-04T16:30:09Z</time>
      </trkpt>
      <trkpt lat="44.29422" lon="4.83817">
        <ele>79.800003051758</ele>
        <time>2021-09-04T16:30:16Z</time>
      </trkpt>
      <trkpt lat="44.29424" lon="4.83817">
        <ele>79.800003051758</ele>
        <time>2021-09-04T16:30:17Z</time>
      </trkpt>
      <trkpt lat="44.29431" lon="4.83818">
        <ele>80.800003051758</ele>
        <time>2021-09-04T16:30:22Z</time>
      </trkpt>
      <trkpt lat="44.29434" lon="4.83819">
        <ele>81.199996948242</ele>
        <time>2021-09-04T16:30:24Z</time>
      </trkpt>
      <trkpt lat="44.29439" lon="4.8382">
        <ele>81.800003051758</ele>
        <time>2021-09-04T16:30:28Z</time>
      </trkpt>
      <trkpt lat="44.29442" lon="4.8382">
        <ele>82.199996948242</ele>
        <time>2021-09-04T16:30:30Z</time>
      </trkpt>
      <trkpt lat="44.29446" lon="4.83819">
        <ele>82.800003051758</ele>
        <time>2021-09-04T16:30:33Z</time>
      </trkpt>
      <trkpt lat="44.29452" lon="4.83818">
        <ele>83.800003051758</ele>
        <time>2021-09-04T16:30:37Z</time>
      </trkpt>
      <trkpt lat="44.29454" lon="4.83817">
        <ele>84.199996948242</ele>
        <time>2021-09-04T16:30:38Z</time>
      </trkpt>
      <trkpt lat="44.29463" lon="4.83813">
        <ele>85</ele>
        <time>2021-09-04T16:30:43Z</time>
      </trkpt>
      <trkpt lat="44.29466" lon="4.83812">
        <ele>85.400001525879</ele>
        <time>2021-09-04T16:30:45Z</time>
      </trkpt>
      <trkpt lat="44.29473" lon="4.83812">
        <ele>86.199996948242</ele>
        <time>2021-09-04T16:30:49Z</time>
      </trkpt>
      <trkpt lat="44.29481" lon="4.83809">
        <ele>87</ele>
        <time>2021-09-04T16:30:54Z</time>
      </trkpt>
      <trkpt lat="44.29482" lon="4.83809">
        <ele>87.400001525879</ele>
        <time>2021-09-04T16:30:55Z</time>
      </trkpt>
      <trkpt lat="44.29488" lon="4.8381">
        <ele>88.400001525879</ele>
        <time>2021-09-04T16:30:59Z</time>
      </trkpt>
      <trkpt lat="44.29489" lon="4.8381">
        <ele>88.599998474121</ele>
        <time>2021-09-04T16:31:00Z</time>
      </trkpt>
      <trkpt lat="44.29491" lon="4.8381">
        <ele>88.800003051758</ele>
        <time>2021-09-04T16:31:01Z</time>
      </trkpt>
      <trkpt lat="44.29494" lon="4.83811">
        <ele>89.400001525879</ele>
        <time>2021-09-04T16:31:04Z</time>
      </trkpt>
      <trkpt lat="44.29496" lon="4.83812">
        <ele>89.800003051758</ele>
        <time>2021-09-04T16:31:06Z</time>
      </trkpt>
      <trkpt lat="44.29503" lon="4.83814">
        <ele>90.599998474121</ele>
        <time>2021-09-04T16:31:11Z</time>
      </trkpt>
      <trkpt lat="44.2951" lon="4.83814">
        <ele>91</ele>
        <time>2021-09-04T16:31:14Z</time>
      </trkpt>
      <trkpt lat="44.29518" lon="4.83812">
        <ele>91.599998474121</ele>
        <time>2021-09-04T16:31:18Z</time>
      </trkpt>
      <trkpt lat="44.29528" lon="4.83813">
        <ele>92.599998474121</ele>
        <time>2021-09-04T16:31:23Z</time>
      </trkpt>
      <trkpt lat="44.2953" lon="4.83813">
        <ele>92.800003051758</ele>
        <time>2021-09-04T16:31:24Z</time>
      </trkpt>
      <trkpt lat="44.29541" lon="4.83811">
        <ele>93.800003051758</ele>
        <time>2021-09-04T16:31:30Z</time>
      </trkpt>
      <trkpt lat="44.29544" lon="4.83809">
        <ele>94</ele>
        <time>2021-09-04T16:31:32Z</time>
      </trkpt>
      <trkpt lat="44.29553" lon="4.83806">
        <ele>94.800003051758</ele>
        <time>2021-09-04T16:31:36Z</time>
      </trkpt>
      <trkpt lat="44.29559" lon="4.83806">
        <ele>95.199996948242</ele>
        <time>2021-09-04T16:31:39Z</time>
      </trkpt>
      <trkpt lat="44.29569" lon="4.83805">
        <ele>95.800003051758</ele>
        <time>2021-09-04T16:31:44Z</time>
      </trkpt>
      <trkpt lat="44.29571" lon="4.83803">
        <ele>96.199996948242</ele>
        <time>2021-09-04T16:31:46Z</time>
      </trkpt>
    </trkseg>
  </trk>
</gpx>